<?xml version="1.0" encoding="UTF-8" standalone="no" ?>
<gpx xmlns="http://www.topografix.com/GPX/1/1" xmlns:xsi="http://www.w3.org/2001/XMLSchema-instance" xsi:schemaLocation="http://www.topografix.com/GPX/1/1 http://www.topografix.com/GPX/1/1/gpx.xsd" version="1.1" creator="VisuGPX - https://www.visugpx.com">
  <metadata>
    <name>voyage total </name>
  </metadata>
  <trk>
    <name><![CDATA[T28]]></name>
    <trkseg>
      <trkpt lat="48.84242" lon="2.24645">
        <ele>42.3</ele>
        <time>2020-07-02T06:42:11Z</time>
      </trkpt>
      <trkpt lat="48.84241" lon="2.24645">
        <ele>42.3</ele>
        <time>2020-07-02T06:42:12Z</time>
      </trkpt>
      <trkpt lat="48.8424" lon="2.24646">
        <ele>42.3</ele>
        <time>2020-07-02T06:42:13Z</time>
      </trkpt>
      <trkpt lat="48.8424" lon="2.24646">
        <ele>42.3</ele>
        <time>2020-07-02T06:42:14Z</time>
      </trkpt>
      <trkpt lat="48.8424" lon="2.24646">
        <ele>42.3</ele>
        <time>2020-07-02T06:42:15Z</time>
      </trkpt>
      <trkpt lat="48.8424" lon="2.24646">
        <ele>42.3</ele>
        <time>2020-07-02T06:42:16Z</time>
      </trkpt>
      <trkpt lat="48.8424" lon="2.24646">
        <ele>42.3</ele>
        <time>2020-07-02T06:42:17Z</time>
      </trkpt>
      <trkpt lat="48.8424" lon="2.24646">
        <ele>42.3</ele>
        <time>2020-07-02T06:42:18Z</time>
      </trkpt>
      <trkpt lat="48.8424" lon="2.24647">
        <ele>42.3</ele>
        <time>2020-07-02T06:42:19Z</time>
      </trkpt>
      <trkpt lat="48.8424" lon="2.24648">
        <ele>42.3</ele>
        <time>2020-07-02T06:42:20Z</time>
      </trkpt>
      <trkpt lat="48.84238" lon="2.24651">
        <ele>42.3</ele>
        <time>2020-07-02T06:42:21Z</time>
      </trkpt>
      <trkpt lat="48.84237" lon="2.24653">
        <ele>42.3</ele>
        <time>2020-07-02T06:42:22Z</time>
      </trkpt>
      <trkpt lat="48.84235" lon="2.24655">
        <ele>42.4</ele>
        <time>2020-07-02T06:42:32Z</time>
      </trkpt>
      <trkpt lat="48.84234" lon="2.24656">
        <ele>42.4</ele>
        <time>2020-07-02T06:42:33Z</time>
      </trkpt>
      <trkpt lat="48.84233" lon="2.24658">
        <ele>42.4</ele>
        <time>2020-07-02T06:42:34Z</time>
      </trkpt>
      <trkpt lat="48.84231" lon="2.24659">
        <ele>42.4</ele>
        <time>2020-07-02T06:42:35Z</time>
      </trkpt>
      <trkpt lat="48.8423" lon="2.24661">
        <ele>42.4</ele>
        <time>2020-07-02T06:42:36Z</time>
      </trkpt>
      <trkpt lat="48.84227" lon="2.24663">
        <ele>42.4</ele>
        <time>2020-07-02T06:42:37Z</time>
      </trkpt>
      <trkpt lat="48.84224" lon="2.24665">
        <ele>42.4</ele>
        <time>2020-07-02T06:42:38Z</time>
      </trkpt>
      <trkpt lat="48.8422" lon="2.24667">
        <ele>42.4</ele>
        <time>2020-07-02T06:42:39Z</time>
      </trkpt>
      <trkpt lat="48.84216" lon="2.24669">
        <ele>42.4</ele>
        <time>2020-07-02T06:42:40Z</time>
      </trkpt>
      <trkpt lat="48.84213" lon="2.24671">
        <ele>42.4</ele>
        <time>2020-07-02T06:42:41Z</time>
      </trkpt>
      <trkpt lat="48.84209" lon="2.24673">
        <ele>42.4</ele>
        <time>2020-07-02T06:42:42Z</time>
      </trkpt>
      <trkpt lat="48.84205" lon="2.24674">
        <ele>42.4</ele>
        <time>2020-07-02T06:42:43Z</time>
      </trkpt>
      <trkpt lat="48.84201" lon="2.24675">
        <ele>42.4</ele>
        <time>2020-07-02T06:42:44Z</time>
      </trkpt>
      <trkpt lat="48.84196" lon="2.24678">
        <ele>42.4</ele>
        <time>2020-07-02T06:42:45Z</time>
      </trkpt>
      <trkpt lat="48.84191" lon="2.24684">
        <ele>42.5</ele>
        <time>2020-07-02T06:42:46Z</time>
      </trkpt>
      <trkpt lat="48.84187" lon="2.24686">
        <ele>42.5</ele>
        <time>2020-07-02T06:42:47Z</time>
      </trkpt>
      <trkpt lat="48.84183" lon="2.24688">
        <ele>42.5</ele>
        <time>2020-07-02T06:42:48Z</time>
      </trkpt>
      <trkpt lat="48.84179" lon="2.24689">
        <ele>42.5</ele>
        <time>2020-07-02T06:42:49Z</time>
      </trkpt>
      <trkpt lat="48.84176" lon="2.24691">
        <ele>42.5</ele>
        <time>2020-07-02T06:42:50Z</time>
      </trkpt>
      <trkpt lat="48.84171" lon="2.24693">
        <ele>42.5</ele>
        <time>2020-07-02T06:42:51Z</time>
      </trkpt>
      <trkpt lat="48.84166" lon="2.24695">
        <ele>42.6</ele>
        <time>2020-07-02T06:42:52Z</time>
      </trkpt>
      <trkpt lat="48.84161" lon="2.24697">
        <ele>42.6</ele>
        <time>2020-07-02T06:42:53Z</time>
      </trkpt>
      <trkpt lat="48.84155" lon="2.24701">
        <ele>42.6</ele>
        <time>2020-07-02T06:42:54Z</time>
      </trkpt>
      <trkpt lat="48.84151" lon="2.24705">
        <ele>42.6</ele>
        <time>2020-07-02T06:42:55Z</time>
      </trkpt>
      <trkpt lat="48.84146" lon="2.24706">
        <ele>42.6</ele>
        <time>2020-07-02T06:42:56Z</time>
      </trkpt>
      <trkpt lat="48.84141" lon="2.2471">
        <ele>42.6</ele>
        <time>2020-07-02T06:42:57Z</time>
      </trkpt>
      <trkpt lat="48.84137" lon="2.24711">
        <ele>42.7</ele>
        <time>2020-07-02T06:42:58Z</time>
      </trkpt>
      <trkpt lat="48.84132" lon="2.24714">
        <ele>42.7</ele>
        <time>2020-07-02T06:42:59Z</time>
      </trkpt>
      <trkpt lat="48.84128" lon="2.24715">
        <ele>42.7</ele>
        <time>2020-07-02T06:43:00Z</time>
      </trkpt>
      <trkpt lat="48.84124" lon="2.24716">
        <ele>42.8</ele>
        <time>2020-07-02T06:43:01Z</time>
      </trkpt>
      <trkpt lat="48.84121" lon="2.24717">
        <ele>42.8</ele>
        <time>2020-07-02T06:43:02Z</time>
      </trkpt>
      <trkpt lat="48.84118" lon="2.2472">
        <ele>42.9</ele>
        <time>2020-07-02T06:43:03Z</time>
      </trkpt>
      <trkpt lat="48.84114" lon="2.24722">
        <ele>42.9</ele>
        <time>2020-07-02T06:43:04Z</time>
      </trkpt>
      <trkpt lat="48.8411" lon="2.24724">
        <ele>42.9</ele>
        <time>2020-07-02T06:43:05Z</time>
      </trkpt>
      <trkpt lat="48.84106" lon="2.24726">
        <ele>42.9</ele>
        <time>2020-07-02T06:43:06Z</time>
      </trkpt>
      <trkpt lat="48.84101" lon="2.2473">
        <ele>43</ele>
        <time>2020-07-02T06:43:07Z</time>
      </trkpt>
      <trkpt lat="48.84097" lon="2.24733">
        <ele>43</ele>
        <time>2020-07-02T06:43:08Z</time>
      </trkpt>
      <trkpt lat="48.84092" lon="2.24736">
        <ele>43</ele>
        <time>2020-07-02T06:43:09Z</time>
      </trkpt>
      <trkpt lat="48.84087" lon="2.24737">
        <ele>43.1</ele>
        <time>2020-07-02T06:43:10Z</time>
      </trkpt>
      <trkpt lat="48.84083" lon="2.24739">
        <ele>43.1</ele>
        <time>2020-07-02T06:43:11Z</time>
      </trkpt>
      <trkpt lat="48.84079" lon="2.24741">
        <ele>43.2</ele>
        <time>2020-07-02T06:43:12Z</time>
      </trkpt>
      <trkpt lat="48.84075" lon="2.24744">
        <ele>43.2</ele>
        <time>2020-07-02T06:43:13Z</time>
      </trkpt>
      <trkpt lat="48.84071" lon="2.24747">
        <ele>43.3</ele>
        <time>2020-07-02T06:43:14Z</time>
      </trkpt>
      <trkpt lat="48.8407" lon="2.24748">
        <ele>43.3</ele>
        <time>2020-07-02T06:43:15Z</time>
      </trkpt>
      <trkpt lat="48.84066" lon="2.2475">
        <ele>43.4</ele>
        <time>2020-07-02T06:43:16Z</time>
      </trkpt>
      <trkpt lat="48.84063" lon="2.24753">
        <ele>43.4</ele>
        <time>2020-07-02T06:43:17Z</time>
      </trkpt>
      <trkpt lat="48.8406" lon="2.24755">
        <ele>43.5</ele>
        <time>2020-07-02T06:43:18Z</time>
      </trkpt>
      <trkpt lat="48.84057" lon="2.24757">
        <ele>43.5</ele>
        <time>2020-07-02T06:43:19Z</time>
      </trkpt>
      <trkpt lat="48.84056" lon="2.24757">
        <ele>43.5</ele>
        <time>2020-07-02T06:43:20Z</time>
      </trkpt>
      <trkpt lat="48.84052" lon="2.24756">
        <ele>43.6</ele>
        <time>2020-07-02T06:43:21Z</time>
      </trkpt>
      <trkpt lat="48.8405" lon="2.24755">
        <ele>43.6</ele>
        <time>2020-07-02T06:43:22Z</time>
      </trkpt>
      <trkpt lat="48.84047" lon="2.24754">
        <ele>43.7</ele>
        <time>2020-07-02T06:43:23Z</time>
      </trkpt>
      <trkpt lat="48.84043" lon="2.24752">
        <ele>43.7</ele>
        <time>2020-07-02T06:43:24Z</time>
      </trkpt>
      <trkpt lat="48.84039" lon="2.24748">
        <ele>43.6</ele>
        <time>2020-07-02T06:43:25Z</time>
      </trkpt>
      <trkpt lat="48.84035" lon="2.24746">
        <ele>43.6</ele>
        <time>2020-07-02T06:43:26Z</time>
      </trkpt>
      <trkpt lat="48.84031" lon="2.24745">
        <ele>43.5</ele>
        <time>2020-07-02T06:43:27Z</time>
      </trkpt>
      <trkpt lat="48.84028" lon="2.24742">
        <ele>43.5</ele>
        <time>2020-07-02T06:43:28Z</time>
      </trkpt>
      <trkpt lat="48.84025" lon="2.2474">
        <ele>43.5</ele>
        <time>2020-07-02T06:43:29Z</time>
      </trkpt>
      <trkpt lat="48.84021" lon="2.24735">
        <ele>43.4</ele>
        <time>2020-07-02T06:43:30Z</time>
      </trkpt>
      <trkpt lat="48.84017" lon="2.24735">
        <ele>43.4</ele>
        <time>2020-07-02T06:43:31Z</time>
      </trkpt>
      <trkpt lat="48.84013" lon="2.24734">
        <ele>43.4</ele>
        <time>2020-07-02T06:43:32Z</time>
      </trkpt>
      <trkpt lat="48.84009" lon="2.24733">
        <ele>43.3</ele>
        <time>2020-07-02T06:43:33Z</time>
      </trkpt>
      <trkpt lat="48.84004" lon="2.24732">
        <ele>43.3</ele>
        <time>2020-07-02T06:43:34Z</time>
      </trkpt>
      <trkpt lat="48.84001" lon="2.2473">
        <ele>43.3</ele>
        <time>2020-07-02T06:43:35Z</time>
      </trkpt>
      <trkpt lat="48.83997" lon="2.24727">
        <ele>43.3</ele>
        <time>2020-07-02T06:43:36Z</time>
      </trkpt>
      <trkpt lat="48.83994" lon="2.24725">
        <ele>43.2</ele>
        <time>2020-07-02T06:43:37Z</time>
      </trkpt>
      <trkpt lat="48.83991" lon="2.24723">
        <ele>43.2</ele>
        <time>2020-07-02T06:43:38Z</time>
      </trkpt>
      <trkpt lat="48.83988" lon="2.24723">
        <ele>43.2</ele>
        <time>2020-07-02T06:43:39Z</time>
      </trkpt>
      <trkpt lat="48.83985" lon="2.24721">
        <ele>43.2</ele>
        <time>2020-07-02T06:43:40Z</time>
      </trkpt>
      <trkpt lat="48.83982" lon="2.24719">
        <ele>43.2</ele>
        <time>2020-07-02T06:43:41Z</time>
      </trkpt>
      <trkpt lat="48.8398" lon="2.24721">
        <ele>43.2</ele>
        <time>2020-07-02T06:43:42Z</time>
      </trkpt>
      <trkpt lat="48.83979" lon="2.24718">
        <ele>43.2</ele>
        <time>2020-07-02T06:43:43Z</time>
      </trkpt>
      <trkpt lat="48.83977" lon="2.24718">
        <ele>43.1</ele>
        <time>2020-07-02T06:43:44Z</time>
      </trkpt>
      <trkpt lat="48.83974" lon="2.24717">
        <ele>43.1</ele>
        <time>2020-07-02T06:43:45Z</time>
      </trkpt>
      <trkpt lat="48.83973" lon="2.24716">
        <ele>43.1</ele>
        <time>2020-07-02T06:43:46Z</time>
      </trkpt>
      <trkpt lat="48.8397" lon="2.24716">
        <ele>43.2</ele>
        <time>2020-07-02T06:43:47Z</time>
      </trkpt>
      <trkpt lat="48.83967" lon="2.24714">
        <ele>43.2</ele>
        <time>2020-07-02T06:43:48Z</time>
      </trkpt>
      <trkpt lat="48.83964" lon="2.24712">
        <ele>43.2</ele>
        <time>2020-07-02T06:43:49Z</time>
      </trkpt>
      <trkpt lat="48.8396" lon="2.2471">
        <ele>43.2</ele>
        <time>2020-07-02T06:43:50Z</time>
      </trkpt>
      <trkpt lat="48.83957" lon="2.24707">
        <ele>43.2</ele>
        <time>2020-07-02T06:43:51Z</time>
      </trkpt>
      <trkpt lat="48.83956" lon="2.24707">
        <ele>43.2</ele>
        <time>2020-07-02T06:43:52Z</time>
      </trkpt>
      <trkpt lat="48.83952" lon="2.24705">
        <ele>43.2</ele>
        <time>2020-07-02T06:43:53Z</time>
      </trkpt>
      <trkpt lat="48.83949" lon="2.24704">
        <ele>43.2</ele>
        <time>2020-07-02T06:43:54Z</time>
      </trkpt>
      <trkpt lat="48.83945" lon="2.24703">
        <ele>43.2</ele>
        <time>2020-07-02T06:43:55Z</time>
      </trkpt>
      <trkpt lat="48.8394" lon="2.24702">
        <ele>43.2</ele>
        <time>2020-07-02T06:43:56Z</time>
      </trkpt>
      <trkpt lat="48.83938" lon="2.24701">
        <ele>43.2</ele>
        <time>2020-07-02T06:43:57Z</time>
      </trkpt>
      <trkpt lat="48.83934" lon="2.24699">
        <ele>43.2</ele>
        <time>2020-07-02T06:43:58Z</time>
      </trkpt>
      <trkpt lat="48.83929" lon="2.24697">
        <ele>43.2</ele>
        <time>2020-07-02T06:43:59Z</time>
      </trkpt>
      <trkpt lat="48.83925" lon="2.24693">
        <ele>43.2</ele>
        <time>2020-07-02T06:44:00Z</time>
      </trkpt>
      <trkpt lat="48.83922" lon="2.24688">
        <ele>43.2</ele>
        <time>2020-07-02T06:44:01Z</time>
      </trkpt>
      <trkpt lat="48.83918" lon="2.24687">
        <ele>43.2</ele>
        <time>2020-07-02T06:44:02Z</time>
      </trkpt>
      <trkpt lat="48.83915" lon="2.24687">
        <ele>43.2</ele>
        <time>2020-07-02T06:44:03Z</time>
      </trkpt>
      <trkpt lat="48.83911" lon="2.24688">
        <ele>43.2</ele>
        <time>2020-07-02T06:44:04Z</time>
      </trkpt>
      <trkpt lat="48.83909" lon="2.24689">
        <ele>43.2</ele>
        <time>2020-07-02T06:44:05Z</time>
      </trkpt>
      <trkpt lat="48.83905" lon="2.24689">
        <ele>43</ele>
        <time>2020-07-02T06:44:06Z</time>
      </trkpt>
      <trkpt lat="48.839" lon="2.2469">
        <ele>42.9</ele>
        <time>2020-07-02T06:44:07Z</time>
      </trkpt>
      <trkpt lat="48.83897" lon="2.24693">
        <ele>42.7</ele>
        <time>2020-07-02T06:44:08Z</time>
      </trkpt>
      <trkpt lat="48.83894" lon="2.24694">
        <ele>42.6</ele>
        <time>2020-07-02T06:44:09Z</time>
      </trkpt>
      <trkpt lat="48.83889" lon="2.24697">
        <ele>42.6</ele>
        <time>2020-07-02T06:44:10Z</time>
      </trkpt>
      <trkpt lat="48.83884" lon="2.247">
        <ele>42.5</ele>
        <time>2020-07-02T06:44:11Z</time>
      </trkpt>
      <trkpt lat="48.83879" lon="2.24702">
        <ele>42.4</ele>
        <time>2020-07-02T06:44:12Z</time>
      </trkpt>
      <trkpt lat="48.83873" lon="2.24707">
        <ele>42.3</ele>
        <time>2020-07-02T06:44:13Z</time>
      </trkpt>
      <trkpt lat="48.83867" lon="2.2471">
        <ele>42.2</ele>
        <time>2020-07-02T06:44:14Z</time>
      </trkpt>
      <trkpt lat="48.83862" lon="2.24715">
        <ele>42.1</ele>
        <time>2020-07-02T06:44:15Z</time>
      </trkpt>
      <trkpt lat="48.83856" lon="2.2472">
        <ele>42</ele>
        <time>2020-07-02T06:44:16Z</time>
      </trkpt>
      <trkpt lat="48.83851" lon="2.24724">
        <ele>41.9</ele>
        <time>2020-07-02T06:44:17Z</time>
      </trkpt>
      <trkpt lat="48.83845" lon="2.24729">
        <ele>41.8</ele>
        <time>2020-07-02T06:44:18Z</time>
      </trkpt>
      <trkpt lat="48.8384" lon="2.24733">
        <ele>41.6</ele>
        <time>2020-07-02T06:44:19Z</time>
      </trkpt>
      <trkpt lat="48.83833" lon="2.24736">
        <ele>41.5</ele>
        <time>2020-07-02T06:44:20Z</time>
      </trkpt>
      <trkpt lat="48.83827" lon="2.2474">
        <ele>41.3</ele>
        <time>2020-07-02T06:44:21Z</time>
      </trkpt>
      <trkpt lat="48.83821" lon="2.24743">
        <ele>41.2</ele>
        <time>2020-07-02T06:44:22Z</time>
      </trkpt>
      <trkpt lat="48.83815" lon="2.24746">
        <ele>41.1</ele>
        <time>2020-07-02T06:44:23Z</time>
      </trkpt>
      <trkpt lat="48.83809" lon="2.2475">
        <ele>41.1</ele>
        <time>2020-07-02T06:44:24Z</time>
      </trkpt>
      <trkpt lat="48.83803" lon="2.24755">
        <ele>41.1</ele>
        <time>2020-07-02T06:44:25Z</time>
      </trkpt>
      <trkpt lat="48.83797" lon="2.2476">
        <ele>41.1</ele>
        <time>2020-07-02T06:44:26Z</time>
      </trkpt>
      <trkpt lat="48.83791" lon="2.24763">
        <ele>41</ele>
        <time>2020-07-02T06:44:27Z</time>
      </trkpt>
      <trkpt lat="48.83786" lon="2.24768">
        <ele>41</ele>
        <time>2020-07-02T06:44:28Z</time>
      </trkpt>
      <trkpt lat="48.83782" lon="2.24773">
        <ele>41</ele>
        <time>2020-07-02T06:44:29Z</time>
      </trkpt>
      <trkpt lat="48.83778" lon="2.24778">
        <ele>41</ele>
        <time>2020-07-02T06:44:30Z</time>
      </trkpt>
      <trkpt lat="48.83775" lon="2.24781">
        <ele>40.9</ele>
        <time>2020-07-02T06:44:31Z</time>
      </trkpt>
      <trkpt lat="48.83773" lon="2.24783">
        <ele>40.9</ele>
        <time>2020-07-02T06:44:32Z</time>
      </trkpt>
      <trkpt lat="48.83771" lon="2.24784">
        <ele>40.9</ele>
        <time>2020-07-02T06:44:33Z</time>
      </trkpt>
      <trkpt lat="48.8377" lon="2.24785">
        <ele>40.8</ele>
        <time>2020-07-02T06:44:34Z</time>
      </trkpt>
      <trkpt lat="48.83769" lon="2.24785">
        <ele>40.8</ele>
        <time>2020-07-02T06:44:35Z</time>
      </trkpt>
      <trkpt lat="48.83769" lon="2.24785">
        <ele>40.8</ele>
        <time>2020-07-02T06:44:36Z</time>
      </trkpt>
      <trkpt lat="48.83768" lon="2.24785">
        <ele>40.8</ele>
        <time>2020-07-02T06:44:37Z</time>
      </trkpt>
      <trkpt lat="48.83768" lon="2.24784">
        <ele>40.8</ele>
        <time>2020-07-02T06:44:38Z</time>
      </trkpt>
      <trkpt lat="48.83767" lon="2.24783">
        <ele>40.8</ele>
        <time>2020-07-02T06:44:39Z</time>
      </trkpt>
      <trkpt lat="48.83767" lon="2.24783">
        <ele>40.8</ele>
        <time>2020-07-02T06:44:40Z</time>
      </trkpt>
      <trkpt lat="48.83767" lon="2.24783">
        <ele>40.8</ele>
        <time>2020-07-02T06:44:41Z</time>
      </trkpt>
      <trkpt lat="48.83767" lon="2.24784">
        <ele>40.8</ele>
        <time>2020-07-02T06:44:42Z</time>
      </trkpt>
      <trkpt lat="48.83766" lon="2.24786">
        <ele>40.7</ele>
        <time>2020-07-02T06:44:43Z</time>
      </trkpt>
      <trkpt lat="48.83765" lon="2.24786">
        <ele>40.7</ele>
        <time>2020-07-02T06:44:44Z</time>
      </trkpt>
      <trkpt lat="48.83763" lon="2.24788">
        <ele>40.7</ele>
        <time>2020-07-02T06:44:45Z</time>
      </trkpt>
      <trkpt lat="48.83761" lon="2.24788">
        <ele>40.7</ele>
        <time>2020-07-02T06:44:46Z</time>
      </trkpt>
      <trkpt lat="48.83761" lon="2.24788">
        <ele>40.7</ele>
        <time>2020-07-02T06:44:47Z</time>
      </trkpt>
      <trkpt lat="48.83761" lon="2.24789">
        <ele>40.7</ele>
        <time>2020-07-02T06:44:48Z</time>
      </trkpt>
      <trkpt lat="48.83761" lon="2.24789">
        <ele>40.7</ele>
        <time>2020-07-02T06:44:49Z</time>
      </trkpt>
      <trkpt lat="48.83761" lon="2.2479">
        <ele>40.7</ele>
        <time>2020-07-02T06:44:50Z</time>
      </trkpt>
      <trkpt lat="48.8376" lon="2.24791">
        <ele>40.7</ele>
        <time>2020-07-02T06:44:51Z</time>
      </trkpt>
      <trkpt lat="48.8376" lon="2.24792">
        <ele>40.7</ele>
        <time>2020-07-02T06:44:52Z</time>
      </trkpt>
      <trkpt lat="48.8376" lon="2.24792">
        <ele>40.7</ele>
        <time>2020-07-02T06:44:53Z</time>
      </trkpt>
      <trkpt lat="48.8376" lon="2.24792">
        <ele>40.7</ele>
        <time>2020-07-02T06:44:54Z</time>
      </trkpt>
      <trkpt lat="48.8376" lon="2.24791">
        <ele>40.7</ele>
        <time>2020-07-02T06:44:55Z</time>
      </trkpt>
      <trkpt lat="48.83759" lon="2.24791">
        <ele>40.7</ele>
        <time>2020-07-02T06:44:56Z</time>
      </trkpt>
      <trkpt lat="48.83758" lon="2.24791">
        <ele>40.7</ele>
        <time>2020-07-02T06:44:57Z</time>
      </trkpt>
      <trkpt lat="48.83757" lon="2.2479">
        <ele>40.7</ele>
        <time>2020-07-02T06:44:58Z</time>
      </trkpt>
      <trkpt lat="48.83755" lon="2.24791">
        <ele>40.7</ele>
        <time>2020-07-02T06:44:59Z</time>
      </trkpt>
      <trkpt lat="48.83754" lon="2.24794">
        <ele>40.6</ele>
        <time>2020-07-02T06:45:00Z</time>
      </trkpt>
      <trkpt lat="48.83753" lon="2.24796">
        <ele>40.5</ele>
        <time>2020-07-02T06:45:01Z</time>
      </trkpt>
      <trkpt lat="48.83751" lon="2.24798">
        <ele>40.5</ele>
        <time>2020-07-02T06:45:02Z</time>
      </trkpt>
      <trkpt lat="48.83748" lon="2.24801">
        <ele>40.4</ele>
        <time>2020-07-02T06:45:03Z</time>
      </trkpt>
      <trkpt lat="48.83744" lon="2.24804">
        <ele>40.3</ele>
        <time>2020-07-02T06:45:04Z</time>
      </trkpt>
      <trkpt lat="48.8374" lon="2.24807">
        <ele>40.1</ele>
        <time>2020-07-02T06:45:05Z</time>
      </trkpt>
      <trkpt lat="48.83735" lon="2.24811">
        <ele>40</ele>
        <time>2020-07-02T06:45:06Z</time>
      </trkpt>
      <trkpt lat="48.8373" lon="2.24815">
        <ele>39.8</ele>
        <time>2020-07-02T06:45:07Z</time>
      </trkpt>
      <trkpt lat="48.83725" lon="2.24818">
        <ele>39.7</ele>
        <time>2020-07-02T06:45:08Z</time>
      </trkpt>
      <trkpt lat="48.83719" lon="2.24822">
        <ele>39.6</ele>
        <time>2020-07-02T06:45:09Z</time>
      </trkpt>
      <trkpt lat="48.83714" lon="2.24825">
        <ele>39.5</ele>
        <time>2020-07-02T06:45:10Z</time>
      </trkpt>
      <trkpt lat="48.83709" lon="2.24828">
        <ele>39.4</ele>
        <time>2020-07-02T06:45:11Z</time>
      </trkpt>
      <trkpt lat="48.83704" lon="2.2483">
        <ele>39.3</ele>
        <time>2020-07-02T06:45:12Z</time>
      </trkpt>
      <trkpt lat="48.83698" lon="2.24832">
        <ele>39.2</ele>
        <time>2020-07-02T06:45:13Z</time>
      </trkpt>
      <trkpt lat="48.83693" lon="2.24835">
        <ele>39.1</ele>
        <time>2020-07-02T06:45:14Z</time>
      </trkpt>
      <trkpt lat="48.83687" lon="2.24838">
        <ele>39</ele>
        <time>2020-07-02T06:45:15Z</time>
      </trkpt>
      <trkpt lat="48.83683" lon="2.2484">
        <ele>39</ele>
        <time>2020-07-02T06:45:16Z</time>
      </trkpt>
      <trkpt lat="48.83679" lon="2.24843">
        <ele>38.9</ele>
        <time>2020-07-02T06:45:17Z</time>
      </trkpt>
      <trkpt lat="48.83675" lon="2.24849">
        <ele>38.8</ele>
        <time>2020-07-02T06:45:18Z</time>
      </trkpt>
      <trkpt lat="48.83671" lon="2.24853">
        <ele>38.7</ele>
        <time>2020-07-02T06:45:19Z</time>
      </trkpt>
      <trkpt lat="48.83667" lon="2.24857">
        <ele>38.7</ele>
        <time>2020-07-02T06:45:20Z</time>
      </trkpt>
      <trkpt lat="48.83662" lon="2.2486">
        <ele>38.6</ele>
        <time>2020-07-02T06:45:21Z</time>
      </trkpt>
      <trkpt lat="48.83657" lon="2.24864">
        <ele>38.5</ele>
        <time>2020-07-02T06:45:22Z</time>
      </trkpt>
      <trkpt lat="48.83652" lon="2.24867">
        <ele>38.5</ele>
        <time>2020-07-02T06:45:23Z</time>
      </trkpt>
      <trkpt lat="48.83647" lon="2.2487">
        <ele>38.4</ele>
        <time>2020-07-02T06:45:24Z</time>
      </trkpt>
      <trkpt lat="48.83642" lon="2.24874">
        <ele>38.4</ele>
        <time>2020-07-02T06:45:25Z</time>
      </trkpt>
      <trkpt lat="48.83636" lon="2.24877">
        <ele>38.4</ele>
        <time>2020-07-02T06:45:26Z</time>
      </trkpt>
      <trkpt lat="48.83631" lon="2.2488">
        <ele>38.4</ele>
        <time>2020-07-02T06:45:27Z</time>
      </trkpt>
      <trkpt lat="48.83626" lon="2.24883">
        <ele>38.4</ele>
        <time>2020-07-02T06:45:28Z</time>
      </trkpt>
      <trkpt lat="48.8362" lon="2.24887">
        <ele>38.4</ele>
        <time>2020-07-02T06:45:29Z</time>
      </trkpt>
      <trkpt lat="48.83615" lon="2.24891">
        <ele>38.4</ele>
        <time>2020-07-02T06:45:30Z</time>
      </trkpt>
      <trkpt lat="48.83611" lon="2.24896">
        <ele>38.4</ele>
        <time>2020-07-02T06:45:31Z</time>
      </trkpt>
      <trkpt lat="48.83605" lon="2.249">
        <ele>38.5</ele>
        <time>2020-07-02T06:45:32Z</time>
      </trkpt>
      <trkpt lat="48.83601" lon="2.24903">
        <ele>38.5</ele>
        <time>2020-07-02T06:45:33Z</time>
      </trkpt>
      <trkpt lat="48.83595" lon="2.24905">
        <ele>38.6</ele>
        <time>2020-07-02T06:45:34Z</time>
      </trkpt>
      <trkpt lat="48.8359" lon="2.24908">
        <ele>38.6</ele>
        <time>2020-07-02T06:45:35Z</time>
      </trkpt>
      <trkpt lat="48.83584" lon="2.24911">
        <ele>38.7</ele>
        <time>2020-07-02T06:45:36Z</time>
      </trkpt>
      <trkpt lat="48.83579" lon="2.24914">
        <ele>38.7</ele>
        <time>2020-07-02T06:45:37Z</time>
      </trkpt>
      <trkpt lat="48.83574" lon="2.24917">
        <ele>38.8</ele>
        <time>2020-07-02T06:45:38Z</time>
      </trkpt>
      <trkpt lat="48.83568" lon="2.24921">
        <ele>38.8</ele>
        <time>2020-07-02T06:45:39Z</time>
      </trkpt>
      <trkpt lat="48.83562" lon="2.24924">
        <ele>38.8</ele>
        <time>2020-07-02T06:45:40Z</time>
      </trkpt>
      <trkpt lat="48.83556" lon="2.24922">
        <ele>39.1</ele>
        <time>2020-07-02T06:45:41Z</time>
      </trkpt>
      <trkpt lat="48.83552" lon="2.24926">
        <ele>39.1</ele>
        <time>2020-07-02T06:45:42Z</time>
      </trkpt>
      <trkpt lat="48.83548" lon="2.2493">
        <ele>39.1</ele>
        <time>2020-07-02T06:45:43Z</time>
      </trkpt>
      <trkpt lat="48.83546" lon="2.24935">
        <ele>39.1</ele>
        <time>2020-07-02T06:45:44Z</time>
      </trkpt>
      <trkpt lat="48.83542" lon="2.2494">
        <ele>39.1</ele>
        <time>2020-07-02T06:45:45Z</time>
      </trkpt>
      <trkpt lat="48.83537" lon="2.24944">
        <ele>39.1</ele>
        <time>2020-07-02T06:45:46Z</time>
      </trkpt>
      <trkpt lat="48.83532" lon="2.2495">
        <ele>38.9</ele>
        <time>2020-07-02T06:45:47Z</time>
      </trkpt>
      <trkpt lat="48.83528" lon="2.24954">
        <ele>38.8</ele>
        <time>2020-07-02T06:45:48Z</time>
      </trkpt>
      <trkpt lat="48.83523" lon="2.24958">
        <ele>38.7</ele>
        <time>2020-07-02T06:45:49Z</time>
      </trkpt>
      <trkpt lat="48.83518" lon="2.24963">
        <ele>38.7</ele>
        <time>2020-07-02T06:45:50Z</time>
      </trkpt>
      <trkpt lat="48.83513" lon="2.24968">
        <ele>38.6</ele>
        <time>2020-07-02T06:45:51Z</time>
      </trkpt>
      <trkpt lat="48.83503" lon="2.24978">
        <ele>38.6</ele>
        <time>2020-07-02T06:45:52Z</time>
      </trkpt>
      <trkpt lat="48.83497" lon="2.24983">
        <ele>38.6</ele>
        <time>2020-07-02T06:45:53Z</time>
      </trkpt>
      <trkpt lat="48.83492" lon="2.24988">
        <ele>38.6</ele>
        <time>2020-07-02T06:45:54Z</time>
      </trkpt>
      <trkpt lat="48.83486" lon="2.24992">
        <ele>38.6</ele>
        <time>2020-07-02T06:45:55Z</time>
      </trkpt>
      <trkpt lat="48.83481" lon="2.24994">
        <ele>38.6</ele>
        <time>2020-07-02T06:45:56Z</time>
      </trkpt>
      <trkpt lat="48.83477" lon="2.24996">
        <ele>38.7</ele>
        <time>2020-07-02T06:45:57Z</time>
      </trkpt>
      <trkpt lat="48.83471" lon="2.24999">
        <ele>38.7</ele>
        <time>2020-07-02T06:45:58Z</time>
      </trkpt>
      <trkpt lat="48.83467" lon="2.25001">
        <ele>38.7</ele>
        <time>2020-07-02T06:45:59Z</time>
      </trkpt>
      <trkpt lat="48.83462" lon="2.25004">
        <ele>38.7</ele>
        <time>2020-07-02T06:46:00Z</time>
      </trkpt>
      <trkpt lat="48.83458" lon="2.25007">
        <ele>38.7</ele>
        <time>2020-07-02T06:46:01Z</time>
      </trkpt>
      <trkpt lat="48.83452" lon="2.25011">
        <ele>38.7</ele>
        <time>2020-07-02T06:46:02Z</time>
      </trkpt>
      <trkpt lat="48.83448" lon="2.25015">
        <ele>38.8</ele>
        <time>2020-07-02T06:46:03Z</time>
      </trkpt>
      <trkpt lat="48.83444" lon="2.25019">
        <ele>38.8</ele>
        <time>2020-07-02T06:46:04Z</time>
      </trkpt>
      <trkpt lat="48.8344" lon="2.25023">
        <ele>38.8</ele>
        <time>2020-07-02T06:46:05Z</time>
      </trkpt>
      <trkpt lat="48.83436" lon="2.25026">
        <ele>38.7</ele>
        <time>2020-07-02T06:46:06Z</time>
      </trkpt>
      <trkpt lat="48.83432" lon="2.2503">
        <ele>38.7</ele>
        <time>2020-07-02T06:46:07Z</time>
      </trkpt>
      <trkpt lat="48.83428" lon="2.25034">
        <ele>38.6</ele>
        <time>2020-07-02T06:46:08Z</time>
      </trkpt>
      <trkpt lat="48.83423" lon="2.25037">
        <ele>38.6</ele>
        <time>2020-07-02T06:46:09Z</time>
      </trkpt>
      <trkpt lat="48.83418" lon="2.2504">
        <ele>38.5</ele>
        <time>2020-07-02T06:46:10Z</time>
      </trkpt>
      <trkpt lat="48.83413" lon="2.25044">
        <ele>38.4</ele>
        <time>2020-07-02T06:46:11Z</time>
      </trkpt>
      <trkpt lat="48.83408" lon="2.25047">
        <ele>38.4</ele>
        <time>2020-07-02T06:46:12Z</time>
      </trkpt>
      <trkpt lat="48.83402" lon="2.2505">
        <ele>38.3</ele>
        <time>2020-07-02T06:46:13Z</time>
      </trkpt>
      <trkpt lat="48.83397" lon="2.25051">
        <ele>38.3</ele>
        <time>2020-07-02T06:46:14Z</time>
      </trkpt>
      <trkpt lat="48.83393" lon="2.25056">
        <ele>38.2</ele>
        <time>2020-07-02T06:46:15Z</time>
      </trkpt>
      <trkpt lat="48.83388" lon="2.2506">
        <ele>38.2</ele>
        <time>2020-07-02T06:46:16Z</time>
      </trkpt>
      <trkpt lat="48.83383" lon="2.25065">
        <ele>38.1</ele>
        <time>2020-07-02T06:46:17Z</time>
      </trkpt>
      <trkpt lat="48.83377" lon="2.25068">
        <ele>38.1</ele>
        <time>2020-07-02T06:46:18Z</time>
      </trkpt>
      <trkpt lat="48.83372" lon="2.25071">
        <ele>38</ele>
        <time>2020-07-02T06:46:19Z</time>
      </trkpt>
      <trkpt lat="48.83366" lon="2.25076">
        <ele>37.9</ele>
        <time>2020-07-02T06:46:20Z</time>
      </trkpt>
      <trkpt lat="48.83361" lon="2.25081">
        <ele>37.9</ele>
        <time>2020-07-02T06:46:21Z</time>
      </trkpt>
      <trkpt lat="48.83356" lon="2.25084">
        <ele>37.9</ele>
        <time>2020-07-02T06:46:22Z</time>
      </trkpt>
      <trkpt lat="48.8335" lon="2.25086">
        <ele>37.8</ele>
        <time>2020-07-02T06:46:23Z</time>
      </trkpt>
      <trkpt lat="48.83345" lon="2.25089">
        <ele>37.8</ele>
        <time>2020-07-02T06:46:24Z</time>
      </trkpt>
      <trkpt lat="48.83341" lon="2.25095">
        <ele>37.8</ele>
        <time>2020-07-02T06:46:25Z</time>
      </trkpt>
      <trkpt lat="48.83336" lon="2.25099">
        <ele>37.8</ele>
        <time>2020-07-02T06:46:26Z</time>
      </trkpt>
      <trkpt lat="48.83332" lon="2.25102">
        <ele>37.8</ele>
        <time>2020-07-02T06:46:27Z</time>
      </trkpt>
      <trkpt lat="48.83327" lon="2.25105">
        <ele>37.8</ele>
        <time>2020-07-02T06:46:28Z</time>
      </trkpt>
      <trkpt lat="48.83323" lon="2.25108">
        <ele>37.8</ele>
        <time>2020-07-02T06:46:29Z</time>
      </trkpt>
      <trkpt lat="48.83318" lon="2.2511">
        <ele>37.8</ele>
        <time>2020-07-02T06:46:30Z</time>
      </trkpt>
      <trkpt lat="48.83314" lon="2.25114">
        <ele>37.8</ele>
        <time>2020-07-02T06:46:31Z</time>
      </trkpt>
      <trkpt lat="48.83313" lon="2.25115">
        <ele>37.8</ele>
        <time>2020-07-02T06:46:32Z</time>
      </trkpt>
      <trkpt lat="48.83312" lon="2.25117">
        <ele>37.8</ele>
        <time>2020-07-02T06:46:33Z</time>
      </trkpt>
      <trkpt lat="48.83312" lon="2.25119">
        <ele>37.8</ele>
        <time>2020-07-02T06:46:34Z</time>
      </trkpt>
      <trkpt lat="48.83312" lon="2.25121">
        <ele>37.8</ele>
        <time>2020-07-02T06:46:35Z</time>
      </trkpt>
      <trkpt lat="48.83312" lon="2.25123">
        <ele>37.8</ele>
        <time>2020-07-02T06:46:36Z</time>
      </trkpt>
      <trkpt lat="48.8331" lon="2.25125">
        <ele>37.8</ele>
        <time>2020-07-02T06:46:37Z</time>
      </trkpt>
      <trkpt lat="48.83309" lon="2.25126">
        <ele>37.8</ele>
        <time>2020-07-02T06:46:38Z</time>
      </trkpt>
      <trkpt lat="48.83308" lon="2.25126">
        <ele>37.8</ele>
        <time>2020-07-02T06:46:39Z</time>
      </trkpt>
      <trkpt lat="48.83305" lon="2.25126">
        <ele>37.8</ele>
        <time>2020-07-02T06:46:40Z</time>
      </trkpt>
      <trkpt lat="48.83303" lon="2.25128">
        <ele>37.8</ele>
        <time>2020-07-02T06:46:41Z</time>
      </trkpt>
      <trkpt lat="48.83299" lon="2.25128">
        <ele>37.8</ele>
        <time>2020-07-02T06:46:42Z</time>
      </trkpt>
      <trkpt lat="48.83296" lon="2.2513">
        <ele>37.8</ele>
        <time>2020-07-02T06:46:43Z</time>
      </trkpt>
      <trkpt lat="48.83292" lon="2.25133">
        <ele>37.8</ele>
        <time>2020-07-02T06:46:44Z</time>
      </trkpt>
      <trkpt lat="48.83289" lon="2.25135">
        <ele>37.8</ele>
        <time>2020-07-02T06:46:45Z</time>
      </trkpt>
      <trkpt lat="48.83286" lon="2.25136">
        <ele>37.8</ele>
        <time>2020-07-02T06:46:46Z</time>
      </trkpt>
      <trkpt lat="48.83284" lon="2.25138">
        <ele>37.8</ele>
        <time>2020-07-02T06:46:47Z</time>
      </trkpt>
      <trkpt lat="48.83281" lon="2.2514">
        <ele>37.8</ele>
        <time>2020-07-02T06:46:48Z</time>
      </trkpt>
      <trkpt lat="48.83278" lon="2.25142">
        <ele>37.8</ele>
        <time>2020-07-02T06:46:49Z</time>
      </trkpt>
      <trkpt lat="48.83274" lon="2.25146">
        <ele>37.8</ele>
        <time>2020-07-02T06:46:50Z</time>
      </trkpt>
      <trkpt lat="48.8327" lon="2.25148">
        <ele>37.9</ele>
        <time>2020-07-02T06:46:51Z</time>
      </trkpt>
      <trkpt lat="48.83267" lon="2.25149">
        <ele>37.9</ele>
        <time>2020-07-02T06:46:52Z</time>
      </trkpt>
      <trkpt lat="48.83263" lon="2.25151">
        <ele>37.9</ele>
        <time>2020-07-02T06:46:53Z</time>
      </trkpt>
      <trkpt lat="48.83258" lon="2.25153">
        <ele>37.9</ele>
        <time>2020-07-02T06:46:54Z</time>
      </trkpt>
      <trkpt lat="48.83254" lon="2.25156">
        <ele>37.9</ele>
        <time>2020-07-02T06:46:55Z</time>
      </trkpt>
      <trkpt lat="48.8325" lon="2.25158">
        <ele>37.9</ele>
        <time>2020-07-02T06:46:56Z</time>
      </trkpt>
      <trkpt lat="48.83248" lon="2.25161">
        <ele>37.9</ele>
        <time>2020-07-02T06:46:57Z</time>
      </trkpt>
      <trkpt lat="48.83245" lon="2.25163">
        <ele>37.9</ele>
        <time>2020-07-02T06:46:58Z</time>
      </trkpt>
      <trkpt lat="48.83243" lon="2.25164">
        <ele>37.9</ele>
        <time>2020-07-02T06:46:59Z</time>
      </trkpt>
      <trkpt lat="48.83241" lon="2.25164">
        <ele>37.9</ele>
        <time>2020-07-02T06:47:00Z</time>
      </trkpt>
      <trkpt lat="48.83241" lon="2.25165">
        <ele>37.9</ele>
        <time>2020-07-02T06:47:01Z</time>
      </trkpt>
      <trkpt lat="48.8324" lon="2.25166">
        <ele>37.9</ele>
        <time>2020-07-02T06:47:02Z</time>
      </trkpt>
      <trkpt lat="48.8324" lon="2.25166">
        <ele>37.9</ele>
        <time>2020-07-02T06:47:03Z</time>
      </trkpt>
      <trkpt lat="48.83239" lon="2.25167">
        <ele>37.9</ele>
        <time>2020-07-02T06:47:04Z</time>
      </trkpt>
      <trkpt lat="48.83239" lon="2.25167">
        <ele>37.9</ele>
        <time>2020-07-02T06:47:05Z</time>
      </trkpt>
      <trkpt lat="48.83237" lon="2.25167">
        <ele>37.9</ele>
        <time>2020-07-02T06:47:06Z</time>
      </trkpt>
      <trkpt lat="48.83236" lon="2.25169">
        <ele>37.9</ele>
        <time>2020-07-02T06:47:07Z</time>
      </trkpt>
      <trkpt lat="48.83235" lon="2.25166">
        <ele>37.8</ele>
        <time>2020-07-02T06:47:08Z</time>
      </trkpt>
      <trkpt lat="48.83236" lon="2.25164">
        <ele>37.8</ele>
        <time>2020-07-02T06:47:09Z</time>
      </trkpt>
      <trkpt lat="48.83236" lon="2.25163">
        <ele>37.8</ele>
        <time>2020-07-02T06:47:10Z</time>
      </trkpt>
      <trkpt lat="48.83235" lon="2.25166">
        <ele>37.8</ele>
        <time>2020-07-02T06:47:11Z</time>
      </trkpt>
      <trkpt lat="48.83234" lon="2.25168">
        <ele>37.7</ele>
        <time>2020-07-02T06:47:12Z</time>
      </trkpt>
      <trkpt lat="48.83234" lon="2.2517">
        <ele>37.7</ele>
        <time>2020-07-02T06:47:13Z</time>
      </trkpt>
      <trkpt lat="48.83233" lon="2.25177">
        <ele>37.6</ele>
        <time>2020-07-02T06:47:14Z</time>
      </trkpt>
      <trkpt lat="48.83232" lon="2.25185">
        <ele>37.6</ele>
        <time>2020-07-02T06:47:15Z</time>
      </trkpt>
      <trkpt lat="48.83231" lon="2.25194">
        <ele>37.5</ele>
        <time>2020-07-02T06:47:16Z</time>
      </trkpt>
      <trkpt lat="48.8323" lon="2.25206">
        <ele>37.4</ele>
        <time>2020-07-02T06:47:17Z</time>
      </trkpt>
      <trkpt lat="48.83228" lon="2.25216">
        <ele>37.3</ele>
        <time>2020-07-02T06:47:18Z</time>
      </trkpt>
      <trkpt lat="48.83226" lon="2.25226">
        <ele>37.1</ele>
        <time>2020-07-02T06:47:19Z</time>
      </trkpt>
      <trkpt lat="48.83224" lon="2.25236">
        <ele>37</ele>
        <time>2020-07-02T06:47:20Z</time>
      </trkpt>
      <trkpt lat="48.83222" lon="2.25246">
        <ele>36.9</ele>
        <time>2020-07-02T06:47:21Z</time>
      </trkpt>
      <trkpt lat="48.8322" lon="2.25255">
        <ele>36.8</ele>
        <time>2020-07-02T06:47:22Z</time>
      </trkpt>
      <trkpt lat="48.83219" lon="2.25263">
        <ele>36.8</ele>
        <time>2020-07-02T06:47:23Z</time>
      </trkpt>
      <trkpt lat="48.83218" lon="2.25271">
        <ele>36.7</ele>
        <time>2020-07-02T06:47:24Z</time>
      </trkpt>
      <trkpt lat="48.83217" lon="2.25279">
        <ele>36.8</ele>
        <time>2020-07-02T06:47:25Z</time>
      </trkpt>
      <trkpt lat="48.83216" lon="2.25285">
        <ele>36.8</ele>
        <time>2020-07-02T06:47:26Z</time>
      </trkpt>
      <trkpt lat="48.83215" lon="2.25288">
        <ele>36.8</ele>
        <time>2020-07-02T06:47:27Z</time>
      </trkpt>
      <trkpt lat="48.83213" lon="2.25292">
        <ele>36.8</ele>
        <time>2020-07-02T06:47:28Z</time>
      </trkpt>
      <trkpt lat="48.83211" lon="2.25296">
        <ele>36.8</ele>
        <time>2020-07-02T06:47:29Z</time>
      </trkpt>
      <trkpt lat="48.8321" lon="2.25298">
        <ele>36.8</ele>
        <time>2020-07-02T06:47:30Z</time>
      </trkpt>
      <trkpt lat="48.8321" lon="2.253">
        <ele>36.8</ele>
        <time>2020-07-02T06:47:31Z</time>
      </trkpt>
      <trkpt lat="48.8321" lon="2.25301">
        <ele>36.8</ele>
        <time>2020-07-02T06:47:32Z</time>
      </trkpt>
      <trkpt lat="48.8321" lon="2.25301">
        <ele>36.8</ele>
        <time>2020-07-02T06:47:33Z</time>
      </trkpt>
      <trkpt lat="48.8321" lon="2.25302">
        <ele>36.8</ele>
        <time>2020-07-02T06:47:34Z</time>
      </trkpt>
      <trkpt lat="48.83211" lon="2.25302">
        <ele>36.8</ele>
        <time>2020-07-02T06:47:35Z</time>
      </trkpt>
      <trkpt lat="48.83211" lon="2.25303">
        <ele>36.8</ele>
        <time>2020-07-02T06:47:36Z</time>
      </trkpt>
      <trkpt lat="48.83211" lon="2.25304">
        <ele>36.8</ele>
        <time>2020-07-02T06:47:37Z</time>
      </trkpt>
      <trkpt lat="48.83211" lon="2.25305">
        <ele>36.9</ele>
        <time>2020-07-02T06:47:38Z</time>
      </trkpt>
      <trkpt lat="48.83211" lon="2.25305">
        <ele>36.9</ele>
        <time>2020-07-02T06:47:39Z</time>
      </trkpt>
      <trkpt lat="48.83211" lon="2.25306">
        <ele>36.9</ele>
        <time>2020-07-02T06:47:40Z</time>
      </trkpt>
      <trkpt lat="48.83212" lon="2.25307">
        <ele>36.9</ele>
        <time>2020-07-02T06:47:41Z</time>
      </trkpt>
      <trkpt lat="48.83209" lon="2.25311">
        <ele>36.9</ele>
        <time>2020-07-02T06:47:49Z</time>
      </trkpt>
      <trkpt lat="48.83208" lon="2.25314">
        <ele>36.8</ele>
        <time>2020-07-02T06:47:50Z</time>
      </trkpt>
      <trkpt lat="48.83207" lon="2.25315">
        <ele>36.8</ele>
        <time>2020-07-02T06:47:51Z</time>
      </trkpt>
      <trkpt lat="48.83206" lon="2.25317">
        <ele>36.8</ele>
        <time>2020-07-02T06:47:52Z</time>
      </trkpt>
      <trkpt lat="48.83204" lon="2.25322">
        <ele>36.8</ele>
        <time>2020-07-02T06:47:53Z</time>
      </trkpt>
      <trkpt lat="48.83204" lon="2.25322">
        <ele>36.8</ele>
        <time>2020-07-02T06:47:54Z</time>
      </trkpt>
      <trkpt lat="48.83202" lon="2.25326">
        <ele>36.7</ele>
        <time>2020-07-02T06:47:55Z</time>
      </trkpt>
      <trkpt lat="48.83202" lon="2.25327">
        <ele>36.7</ele>
        <time>2020-07-02T06:47:56Z</time>
      </trkpt>
      <trkpt lat="48.83201" lon="2.25328">
        <ele>36.7</ele>
        <time>2020-07-02T06:47:57Z</time>
      </trkpt>
      <trkpt lat="48.83201" lon="2.25333">
        <ele>36.7</ele>
        <time>2020-07-02T06:47:58Z</time>
      </trkpt>
      <trkpt lat="48.832" lon="2.25337">
        <ele>36.7</ele>
        <time>2020-07-02T06:47:59Z</time>
      </trkpt>
      <trkpt lat="48.83199" lon="2.25341">
        <ele>36.7</ele>
        <time>2020-07-02T06:48:00Z</time>
      </trkpt>
      <trkpt lat="48.83198" lon="2.25345">
        <ele>36.6</ele>
        <time>2020-07-02T06:48:01Z</time>
      </trkpt>
      <trkpt lat="48.83197" lon="2.2535">
        <ele>36.6</ele>
        <time>2020-07-02T06:48:02Z</time>
      </trkpt>
      <trkpt lat="48.83196" lon="2.25357">
        <ele>36.6</ele>
        <time>2020-07-02T06:48:03Z</time>
      </trkpt>
      <trkpt lat="48.83194" lon="2.25362">
        <ele>36.6</ele>
        <time>2020-07-02T06:48:04Z</time>
      </trkpt>
      <trkpt lat="48.83193" lon="2.25367">
        <ele>36.6</ele>
        <time>2020-07-02T06:48:05Z</time>
      </trkpt>
      <trkpt lat="48.83191" lon="2.25372">
        <ele>36.6</ele>
        <time>2020-07-02T06:48:06Z</time>
      </trkpt>
      <trkpt lat="48.83189" lon="2.25377">
        <ele>36.6</ele>
        <time>2020-07-02T06:48:07Z</time>
      </trkpt>
      <trkpt lat="48.83187" lon="2.25384">
        <ele>36.7</ele>
        <time>2020-07-02T06:48:08Z</time>
      </trkpt>
      <trkpt lat="48.83185" lon="2.2539">
        <ele>36.7</ele>
        <time>2020-07-02T06:48:09Z</time>
      </trkpt>
      <trkpt lat="48.83183" lon="2.25395">
        <ele>36.7</ele>
        <time>2020-07-02T06:48:10Z</time>
      </trkpt>
      <trkpt lat="48.83182" lon="2.25402">
        <ele>36.7</ele>
        <time>2020-07-02T06:48:11Z</time>
      </trkpt>
      <trkpt lat="48.8318" lon="2.2541">
        <ele>36.6</ele>
        <time>2020-07-02T06:48:12Z</time>
      </trkpt>
      <trkpt lat="48.83178" lon="2.25418">
        <ele>36.6</ele>
        <time>2020-07-02T06:48:13Z</time>
      </trkpt>
      <trkpt lat="48.83175" lon="2.25425">
        <ele>36.6</ele>
        <time>2020-07-02T06:48:14Z</time>
      </trkpt>
      <trkpt lat="48.83173" lon="2.25432">
        <ele>36.6</ele>
        <time>2020-07-02T06:48:15Z</time>
      </trkpt>
      <trkpt lat="48.83172" lon="2.25439">
        <ele>36.6</ele>
        <time>2020-07-02T06:48:16Z</time>
      </trkpt>
      <trkpt lat="48.8317" lon="2.25445">
        <ele>36.6</ele>
        <time>2020-07-02T06:48:17Z</time>
      </trkpt>
      <trkpt lat="48.83168" lon="2.25451">
        <ele>36.6</ele>
        <time>2020-07-02T06:48:18Z</time>
      </trkpt>
      <trkpt lat="48.83167" lon="2.25458">
        <ele>36.6</ele>
        <time>2020-07-02T06:48:19Z</time>
      </trkpt>
      <trkpt lat="48.83165" lon="2.25464">
        <ele>36.7</ele>
        <time>2020-07-02T06:48:20Z</time>
      </trkpt>
      <trkpt lat="48.83163" lon="2.25471">
        <ele>36.7</ele>
        <time>2020-07-02T06:48:21Z</time>
      </trkpt>
      <trkpt lat="48.83162" lon="2.25478">
        <ele>36.7</ele>
        <time>2020-07-02T06:48:22Z</time>
      </trkpt>
      <trkpt lat="48.83161" lon="2.25485">
        <ele>36.7</ele>
        <time>2020-07-02T06:48:23Z</time>
      </trkpt>
      <trkpt lat="48.83159" lon="2.25492">
        <ele>36.7</ele>
        <time>2020-07-02T06:48:24Z</time>
      </trkpt>
      <trkpt lat="48.83158" lon="2.25499">
        <ele>36.8</ele>
        <time>2020-07-02T06:48:25Z</time>
      </trkpt>
      <trkpt lat="48.83156" lon="2.25505">
        <ele>36.8</ele>
        <time>2020-07-02T06:48:26Z</time>
      </trkpt>
      <trkpt lat="48.83154" lon="2.25513">
        <ele>36.8</ele>
        <time>2020-07-02T06:48:27Z</time>
      </trkpt>
      <trkpt lat="48.83152" lon="2.25519">
        <ele>36.8</ele>
        <time>2020-07-02T06:48:28Z</time>
      </trkpt>
      <trkpt lat="48.8315" lon="2.25526">
        <ele>36.8</ele>
        <time>2020-07-02T06:48:29Z</time>
      </trkpt>
      <trkpt lat="48.83148" lon="2.25532">
        <ele>36.8</ele>
        <time>2020-07-02T06:48:30Z</time>
      </trkpt>
      <trkpt lat="48.83147" lon="2.25538">
        <ele>36.8</ele>
        <time>2020-07-02T06:48:31Z</time>
      </trkpt>
      <trkpt lat="48.83146" lon="2.25544">
        <ele>36.7</ele>
        <time>2020-07-02T06:48:32Z</time>
      </trkpt>
      <trkpt lat="48.83144" lon="2.25551">
        <ele>36.7</ele>
        <time>2020-07-02T06:48:33Z</time>
      </trkpt>
      <trkpt lat="48.83142" lon="2.25556">
        <ele>36.6</ele>
        <time>2020-07-02T06:48:34Z</time>
      </trkpt>
      <trkpt lat="48.83141" lon="2.25563">
        <ele>36.6</ele>
        <time>2020-07-02T06:48:35Z</time>
      </trkpt>
      <trkpt lat="48.8314" lon="2.25573">
        <ele>36.6</ele>
        <time>2020-07-02T06:48:36Z</time>
      </trkpt>
      <trkpt lat="48.83139" lon="2.25582">
        <ele>36.6</ele>
        <time>2020-07-02T06:48:37Z</time>
      </trkpt>
      <trkpt lat="48.83138" lon="2.25591">
        <ele>36.5</ele>
        <time>2020-07-02T06:48:38Z</time>
      </trkpt>
      <trkpt lat="48.83138" lon="2.25598">
        <ele>36.5</ele>
        <time>2020-07-02T06:48:39Z</time>
      </trkpt>
      <trkpt lat="48.83138" lon="2.25605">
        <ele>36.5</ele>
        <time>2020-07-02T06:48:40Z</time>
      </trkpt>
      <trkpt lat="48.83137" lon="2.25612">
        <ele>36.5</ele>
        <time>2020-07-02T06:48:41Z</time>
      </trkpt>
      <trkpt lat="48.83137" lon="2.25618">
        <ele>36.6</ele>
        <time>2020-07-02T06:48:42Z</time>
      </trkpt>
      <trkpt lat="48.83136" lon="2.25626">
        <ele>36.5</ele>
        <time>2020-07-02T06:48:43Z</time>
      </trkpt>
      <trkpt lat="48.83137" lon="2.25635">
        <ele>36.5</ele>
        <time>2020-07-02T06:48:44Z</time>
      </trkpt>
      <trkpt lat="48.83137" lon="2.25644">
        <ele>36.5</ele>
        <time>2020-07-02T06:48:45Z</time>
      </trkpt>
      <trkpt lat="48.83137" lon="2.25654">
        <ele>36.5</ele>
        <time>2020-07-02T06:48:46Z</time>
      </trkpt>
      <trkpt lat="48.83137" lon="2.25662">
        <ele>36.5</ele>
        <time>2020-07-02T06:48:47Z</time>
      </trkpt>
      <trkpt lat="48.83139" lon="2.25671">
        <ele>36.5</ele>
        <time>2020-07-02T06:48:48Z</time>
      </trkpt>
      <trkpt lat="48.83139" lon="2.2568">
        <ele>36.5</ele>
        <time>2020-07-02T06:48:49Z</time>
      </trkpt>
      <trkpt lat="48.83139" lon="2.2569">
        <ele>36.5</ele>
        <time>2020-07-02T06:48:50Z</time>
      </trkpt>
      <trkpt lat="48.83138" lon="2.25699">
        <ele>36.5</ele>
        <time>2020-07-02T06:48:51Z</time>
      </trkpt>
      <trkpt lat="48.83135" lon="2.25705">
        <ele>36.5</ele>
        <time>2020-07-02T06:48:52Z</time>
      </trkpt>
      <trkpt lat="48.83131" lon="2.25709">
        <ele>36.5</ele>
        <time>2020-07-02T06:48:53Z</time>
      </trkpt>
      <trkpt lat="48.83128" lon="2.25713">
        <ele>36.5</ele>
        <time>2020-07-02T06:48:54Z</time>
      </trkpt>
      <trkpt lat="48.83126" lon="2.25716">
        <ele>36.5</ele>
        <time>2020-07-02T06:48:55Z</time>
      </trkpt>
      <trkpt lat="48.83124" lon="2.25719">
        <ele>36.5</ele>
        <time>2020-07-02T06:48:56Z</time>
      </trkpt>
      <trkpt lat="48.83123" lon="2.25723">
        <ele>36.5</ele>
        <time>2020-07-02T06:48:57Z</time>
      </trkpt>
      <trkpt lat="48.83123" lon="2.25729">
        <ele>36.5</ele>
        <time>2020-07-02T06:48:58Z</time>
      </trkpt>
      <trkpt lat="48.83123" lon="2.25732">
        <ele>36.5</ele>
        <time>2020-07-02T06:48:59Z</time>
      </trkpt>
      <trkpt lat="48.83121" lon="2.2574">
        <ele>36.6</ele>
        <time>2020-07-02T06:49:00Z</time>
      </trkpt>
      <trkpt lat="48.83118" lon="2.25747">
        <ele>36.7</ele>
        <time>2020-07-02T06:49:01Z</time>
      </trkpt>
      <trkpt lat="48.83117" lon="2.25756">
        <ele>36.8</ele>
        <time>2020-07-02T06:49:02Z</time>
      </trkpt>
      <trkpt lat="48.83114" lon="2.25763">
        <ele>37.1</ele>
        <time>2020-07-02T06:49:03Z</time>
      </trkpt>
      <trkpt lat="48.83112" lon="2.2577">
        <ele>37.3</ele>
        <time>2020-07-02T06:49:04Z</time>
      </trkpt>
      <trkpt lat="48.83109" lon="2.25777">
        <ele>37.6</ele>
        <time>2020-07-02T06:49:05Z</time>
      </trkpt>
      <trkpt lat="48.83106" lon="2.25782">
        <ele>37.9</ele>
        <time>2020-07-02T06:49:06Z</time>
      </trkpt>
      <trkpt lat="48.83104" lon="2.25787">
        <ele>38.1</ele>
        <time>2020-07-02T06:49:07Z</time>
      </trkpt>
      <trkpt lat="48.83102" lon="2.25792">
        <ele>38.3</ele>
        <time>2020-07-02T06:49:08Z</time>
      </trkpt>
      <trkpt lat="48.831" lon="2.25797">
        <ele>38.6</ele>
        <time>2020-07-02T06:49:09Z</time>
      </trkpt>
      <trkpt lat="48.83098" lon="2.25802">
        <ele>38.8</ele>
        <time>2020-07-02T06:49:10Z</time>
      </trkpt>
      <trkpt lat="48.83096" lon="2.25807">
        <ele>39.1</ele>
        <time>2020-07-02T06:49:11Z</time>
      </trkpt>
      <trkpt lat="48.83093" lon="2.25812">
        <ele>39.3</ele>
        <time>2020-07-02T06:49:12Z</time>
      </trkpt>
      <trkpt lat="48.8309" lon="2.25813">
        <ele>39.5</ele>
        <time>2020-07-02T06:49:13Z</time>
      </trkpt>
      <trkpt lat="48.83087" lon="2.25813">
        <ele>38.5</ele>
        <time>2020-07-02T06:49:14Z</time>
      </trkpt>
      <trkpt lat="48.83085" lon="2.25817">
        <ele>38.6</ele>
        <time>2020-07-02T06:49:15Z</time>
      </trkpt>
      <trkpt lat="48.83084" lon="2.25819">
        <ele>38.7</ele>
        <time>2020-07-02T06:49:16Z</time>
      </trkpt>
      <trkpt lat="48.83082" lon="2.25825">
        <ele>38.8</ele>
        <time>2020-07-02T06:49:17Z</time>
      </trkpt>
      <trkpt lat="48.8308" lon="2.25831">
        <ele>38.9</ele>
        <time>2020-07-02T06:49:18Z</time>
      </trkpt>
      <trkpt lat="48.83077" lon="2.25837">
        <ele>39.1</ele>
        <time>2020-07-02T06:49:19Z</time>
      </trkpt>
      <trkpt lat="48.83074" lon="2.25841">
        <ele>39.2</ele>
        <time>2020-07-02T06:49:20Z</time>
      </trkpt>
      <trkpt lat="48.8307" lon="2.25847">
        <ele>39.4</ele>
        <time>2020-07-02T06:49:21Z</time>
      </trkpt>
      <trkpt lat="48.83067" lon="2.25853">
        <ele>39.5</ele>
        <time>2020-07-02T06:49:22Z</time>
      </trkpt>
      <trkpt lat="48.83064" lon="2.25858">
        <ele>39.7</ele>
        <time>2020-07-02T06:49:23Z</time>
      </trkpt>
      <trkpt lat="48.83062" lon="2.25864">
        <ele>39.8</ele>
        <time>2020-07-02T06:49:24Z</time>
      </trkpt>
      <trkpt lat="48.83059" lon="2.2587">
        <ele>40</ele>
        <time>2020-07-02T06:49:25Z</time>
      </trkpt>
      <trkpt lat="48.83056" lon="2.25876">
        <ele>40.1</ele>
        <time>2020-07-02T06:49:26Z</time>
      </trkpt>
      <trkpt lat="48.83054" lon="2.25882">
        <ele>40.3</ele>
        <time>2020-07-02T06:49:27Z</time>
      </trkpt>
      <trkpt lat="48.83051" lon="2.25888">
        <ele>40.4</ele>
        <time>2020-07-02T06:49:28Z</time>
      </trkpt>
      <trkpt lat="48.83048" lon="2.25895">
        <ele>40.5</ele>
        <time>2020-07-02T06:49:29Z</time>
      </trkpt>
      <trkpt lat="48.83045" lon="2.25902">
        <ele>40.6</ele>
        <time>2020-07-02T06:49:30Z</time>
      </trkpt>
      <trkpt lat="48.83044" lon="2.25907">
        <ele>40.6</ele>
        <time>2020-07-02T06:49:31Z</time>
      </trkpt>
      <trkpt lat="48.83042" lon="2.25913">
        <ele>40.7</ele>
        <time>2020-07-02T06:49:32Z</time>
      </trkpt>
      <trkpt lat="48.8304" lon="2.25919">
        <ele>40.7</ele>
        <time>2020-07-02T06:49:33Z</time>
      </trkpt>
      <trkpt lat="48.83038" lon="2.25925">
        <ele>40.8</ele>
        <time>2020-07-02T06:49:34Z</time>
      </trkpt>
      <trkpt lat="48.83036" lon="2.25931">
        <ele>40.8</ele>
        <time>2020-07-02T06:49:35Z</time>
      </trkpt>
      <trkpt lat="48.83035" lon="2.25935">
        <ele>40.8</ele>
        <time>2020-07-02T06:49:36Z</time>
      </trkpt>
      <trkpt lat="48.83033" lon="2.25939">
        <ele>40.8</ele>
        <time>2020-07-02T06:49:37Z</time>
      </trkpt>
      <trkpt lat="48.83031" lon="2.25943">
        <ele>40.8</ele>
        <time>2020-07-02T06:49:38Z</time>
      </trkpt>
      <trkpt lat="48.83029" lon="2.25947">
        <ele>40.8</ele>
        <time>2020-07-02T06:49:39Z</time>
      </trkpt>
      <trkpt lat="48.83028" lon="2.25952">
        <ele>40.8</ele>
        <time>2020-07-02T06:49:40Z</time>
      </trkpt>
      <trkpt lat="48.83026" lon="2.25956">
        <ele>40.8</ele>
        <time>2020-07-02T06:49:41Z</time>
      </trkpt>
      <trkpt lat="48.83024" lon="2.2596">
        <ele>40.8</ele>
        <time>2020-07-02T06:49:42Z</time>
      </trkpt>
      <trkpt lat="48.83024" lon="2.25965">
        <ele>40.8</ele>
        <time>2020-07-02T06:49:43Z</time>
      </trkpt>
      <trkpt lat="48.83023" lon="2.2597">
        <ele>40.8</ele>
        <time>2020-07-02T06:49:44Z</time>
      </trkpt>
      <trkpt lat="48.83021" lon="2.25974">
        <ele>40.7</ele>
        <time>2020-07-02T06:49:45Z</time>
      </trkpt>
      <trkpt lat="48.83019" lon="2.25979">
        <ele>40.7</ele>
        <time>2020-07-02T06:49:46Z</time>
      </trkpt>
      <trkpt lat="48.83017" lon="2.25983">
        <ele>40.6</ele>
        <time>2020-07-02T06:49:47Z</time>
      </trkpt>
      <trkpt lat="48.83015" lon="2.25987">
        <ele>40.6</ele>
        <time>2020-07-02T06:49:48Z</time>
      </trkpt>
      <trkpt lat="48.83014" lon="2.25992">
        <ele>40.5</ele>
        <time>2020-07-02T06:49:49Z</time>
      </trkpt>
      <trkpt lat="48.83011" lon="2.25997">
        <ele>40.5</ele>
        <time>2020-07-02T06:49:50Z</time>
      </trkpt>
      <trkpt lat="48.8301" lon="2.26001">
        <ele>40.4</ele>
        <time>2020-07-02T06:49:51Z</time>
      </trkpt>
      <trkpt lat="48.83007" lon="2.26005">
        <ele>40.3</ele>
        <time>2020-07-02T06:49:52Z</time>
      </trkpt>
      <trkpt lat="48.83005" lon="2.26009">
        <ele>40.3</ele>
        <time>2020-07-02T06:49:53Z</time>
      </trkpt>
      <trkpt lat="48.83003" lon="2.26014">
        <ele>40.2</ele>
        <time>2020-07-02T06:49:54Z</time>
      </trkpt>
      <trkpt lat="48.83" lon="2.26018">
        <ele>40.1</ele>
        <time>2020-07-02T06:49:55Z</time>
      </trkpt>
      <trkpt lat="48.82998" lon="2.26022">
        <ele>40</ele>
        <time>2020-07-02T06:49:56Z</time>
      </trkpt>
      <trkpt lat="48.82996" lon="2.26028">
        <ele>39.9</ele>
        <time>2020-07-02T06:49:57Z</time>
      </trkpt>
      <trkpt lat="48.82994" lon="2.26033">
        <ele>39.8</ele>
        <time>2020-07-02T06:49:58Z</time>
      </trkpt>
      <trkpt lat="48.82992" lon="2.26041">
        <ele>39.7</ele>
        <time>2020-07-02T06:49:59Z</time>
      </trkpt>
      <trkpt lat="48.82989" lon="2.26047">
        <ele>39.6</ele>
        <time>2020-07-02T06:50:00Z</time>
      </trkpt>
      <trkpt lat="48.82986" lon="2.26054">
        <ele>39.5</ele>
        <time>2020-07-02T06:50:01Z</time>
      </trkpt>
      <trkpt lat="48.82983" lon="2.26059">
        <ele>39.4</ele>
        <time>2020-07-02T06:50:02Z</time>
      </trkpt>
      <trkpt lat="48.82981" lon="2.26064">
        <ele>39.3</ele>
        <time>2020-07-02T06:50:03Z</time>
      </trkpt>
      <trkpt lat="48.82979" lon="2.26068">
        <ele>39.1</ele>
        <time>2020-07-02T06:50:04Z</time>
      </trkpt>
      <trkpt lat="48.82976" lon="2.26071">
        <ele>38.9</ele>
        <time>2020-07-02T06:50:05Z</time>
      </trkpt>
      <trkpt lat="48.82974" lon="2.26076">
        <ele>38.6</ele>
        <time>2020-07-02T06:50:06Z</time>
      </trkpt>
      <trkpt lat="48.82972" lon="2.26081">
        <ele>38.2</ele>
        <time>2020-07-02T06:50:07Z</time>
      </trkpt>
      <trkpt lat="48.8297" lon="2.26088">
        <ele>37.9</ele>
        <time>2020-07-02T06:50:08Z</time>
      </trkpt>
      <trkpt lat="48.82968" lon="2.26095">
        <ele>37.6</ele>
        <time>2020-07-02T06:50:09Z</time>
      </trkpt>
      <trkpt lat="48.82966" lon="2.26102">
        <ele>37.4</ele>
        <time>2020-07-02T06:50:10Z</time>
      </trkpt>
      <trkpt lat="48.82964" lon="2.26108">
        <ele>37.1</ele>
        <time>2020-07-02T06:50:11Z</time>
      </trkpt>
      <trkpt lat="48.82963" lon="2.26115">
        <ele>37</ele>
        <time>2020-07-02T06:50:12Z</time>
      </trkpt>
      <trkpt lat="48.82961" lon="2.26122">
        <ele>37.1</ele>
        <time>2020-07-02T06:50:13Z</time>
      </trkpt>
      <trkpt lat="48.82959" lon="2.2613">
        <ele>37.2</ele>
        <time>2020-07-02T06:50:14Z</time>
      </trkpt>
      <trkpt lat="48.82959" lon="2.26137">
        <ele>36.9</ele>
        <time>2020-07-02T06:50:15Z</time>
      </trkpt>
      <trkpt lat="48.82959" lon="2.26146">
        <ele>36.6</ele>
        <time>2020-07-02T06:50:16Z</time>
      </trkpt>
      <trkpt lat="48.82958" lon="2.26155">
        <ele>36.2</ele>
        <time>2020-07-02T06:50:17Z</time>
      </trkpt>
      <trkpt lat="48.82957" lon="2.26164">
        <ele>35.9</ele>
        <time>2020-07-02T06:50:18Z</time>
      </trkpt>
      <trkpt lat="48.82955" lon="2.26173">
        <ele>35.6</ele>
        <time>2020-07-02T06:50:19Z</time>
      </trkpt>
      <trkpt lat="48.82954" lon="2.26183">
        <ele>35.2</ele>
        <time>2020-07-02T06:50:20Z</time>
      </trkpt>
      <trkpt lat="48.82952" lon="2.26193">
        <ele>34.9</ele>
        <time>2020-07-02T06:50:21Z</time>
      </trkpt>
      <trkpt lat="48.82949" lon="2.26205">
        <ele>34.7</ele>
        <time>2020-07-02T06:50:22Z</time>
      </trkpt>
      <trkpt lat="48.82947" lon="2.26213">
        <ele>34.7</ele>
        <time>2020-07-02T06:50:23Z</time>
      </trkpt>
      <trkpt lat="48.82945" lon="2.26223">
        <ele>34.6</ele>
        <time>2020-07-02T06:50:24Z</time>
      </trkpt>
      <trkpt lat="48.82943" lon="2.2623">
        <ele>34.5</ele>
        <time>2020-07-02T06:50:25Z</time>
      </trkpt>
      <trkpt lat="48.82943" lon="2.26238">
        <ele>34.4</ele>
        <time>2020-07-02T06:50:26Z</time>
      </trkpt>
      <trkpt lat="48.82941" lon="2.26248">
        <ele>34.4</ele>
        <time>2020-07-02T06:50:27Z</time>
      </trkpt>
      <trkpt lat="48.82939" lon="2.26255">
        <ele>34.3</ele>
        <time>2020-07-02T06:50:28Z</time>
      </trkpt>
      <trkpt lat="48.82937" lon="2.26261">
        <ele>34.3</ele>
        <time>2020-07-02T06:50:29Z</time>
      </trkpt>
      <trkpt lat="48.82935" lon="2.26266">
        <ele>34.3</ele>
        <time>2020-07-02T06:50:30Z</time>
      </trkpt>
      <trkpt lat="48.82932" lon="2.26271">
        <ele>34.2</ele>
        <time>2020-07-02T06:50:31Z</time>
      </trkpt>
      <trkpt lat="48.82931" lon="2.26273">
        <ele>34.2</ele>
        <time>2020-07-02T06:50:32Z</time>
      </trkpt>
      <trkpt lat="48.82929" lon="2.26278">
        <ele>34.2</ele>
        <time>2020-07-02T06:50:33Z</time>
      </trkpt>
      <trkpt lat="48.82928" lon="2.26278">
        <ele>34.2</ele>
        <time>2020-07-02T06:50:34Z</time>
      </trkpt>
      <trkpt lat="48.82926" lon="2.2628">
        <ele>34.2</ele>
        <time>2020-07-02T06:50:35Z</time>
      </trkpt>
      <trkpt lat="48.82922" lon="2.26287">
        <ele>34.3</ele>
        <time>2020-07-02T06:50:36Z</time>
      </trkpt>
      <trkpt lat="48.82919" lon="2.26294">
        <ele>34.3</ele>
        <time>2020-07-02T06:50:37Z</time>
      </trkpt>
      <trkpt lat="48.82915" lon="2.26303">
        <ele>34.3</ele>
        <time>2020-07-02T06:50:38Z</time>
      </trkpt>
      <trkpt lat="48.82914" lon="2.26309">
        <ele>34.3</ele>
        <time>2020-07-02T06:50:39Z</time>
      </trkpt>
      <trkpt lat="48.82915" lon="2.26313">
        <ele>34.4</ele>
        <time>2020-07-02T06:50:40Z</time>
      </trkpt>
      <trkpt lat="48.82916" lon="2.26318">
        <ele>34.4</ele>
        <time>2020-07-02T06:50:41Z</time>
      </trkpt>
      <trkpt lat="48.82914" lon="2.26324">
        <ele>34.4</ele>
        <time>2020-07-02T06:50:42Z</time>
      </trkpt>
      <trkpt lat="48.82912" lon="2.26329">
        <ele>34.5</ele>
        <time>2020-07-02T06:50:43Z</time>
      </trkpt>
      <trkpt lat="48.8291" lon="2.26333">
        <ele>34.5</ele>
        <time>2020-07-02T06:50:44Z</time>
      </trkpt>
      <trkpt lat="48.82908" lon="2.26338">
        <ele>34.5</ele>
        <time>2020-07-02T06:50:45Z</time>
      </trkpt>
      <trkpt lat="48.82908" lon="2.26339">
        <ele>34.5</ele>
        <time>2020-07-02T06:50:46Z</time>
      </trkpt>
      <trkpt lat="48.82908" lon="2.26343">
        <ele>34.5</ele>
        <time>2020-07-02T06:50:47Z</time>
      </trkpt>
      <trkpt lat="48.82908" lon="2.26344">
        <ele>34.5</ele>
        <time>2020-07-02T06:50:48Z</time>
      </trkpt>
      <trkpt lat="48.82908" lon="2.26345">
        <ele>34.6</ele>
        <time>2020-07-02T06:50:49Z</time>
      </trkpt>
      <trkpt lat="48.82907" lon="2.26349">
        <ele>34.7</ele>
        <time>2020-07-02T06:50:50Z</time>
      </trkpt>
      <trkpt lat="48.82907" lon="2.26351">
        <ele>34.7</ele>
        <time>2020-07-02T06:50:51Z</time>
      </trkpt>
      <trkpt lat="48.82908" lon="2.26356">
        <ele>34.7</ele>
        <time>2020-07-02T06:50:52Z</time>
      </trkpt>
      <trkpt lat="48.82907" lon="2.2636">
        <ele>34.7</ele>
        <time>2020-07-02T06:50:53Z</time>
      </trkpt>
      <trkpt lat="48.82906" lon="2.26364">
        <ele>34.8</ele>
        <time>2020-07-02T06:50:54Z</time>
      </trkpt>
      <trkpt lat="48.82905" lon="2.26369">
        <ele>34.8</ele>
        <time>2020-07-02T06:50:55Z</time>
      </trkpt>
      <trkpt lat="48.82904" lon="2.26375">
        <ele>34.8</ele>
        <time>2020-07-02T06:50:56Z</time>
      </trkpt>
      <trkpt lat="48.82903" lon="2.26381">
        <ele>34.6</ele>
        <time>2020-07-02T06:50:57Z</time>
      </trkpt>
      <trkpt lat="48.82901" lon="2.26387">
        <ele>34.5</ele>
        <time>2020-07-02T06:50:58Z</time>
      </trkpt>
      <trkpt lat="48.829" lon="2.26395">
        <ele>34.4</ele>
        <time>2020-07-02T06:50:59Z</time>
      </trkpt>
      <trkpt lat="48.82899" lon="2.264">
        <ele>34.4</ele>
        <time>2020-07-02T06:51:00Z</time>
      </trkpt>
      <trkpt lat="48.82897" lon="2.26407">
        <ele>34.3</ele>
        <time>2020-07-02T06:51:01Z</time>
      </trkpt>
      <trkpt lat="48.82895" lon="2.26413">
        <ele>34.3</ele>
        <time>2020-07-02T06:51:02Z</time>
      </trkpt>
      <trkpt lat="48.82893" lon="2.26421">
        <ele>34.3</ele>
        <time>2020-07-02T06:51:03Z</time>
      </trkpt>
      <trkpt lat="48.82891" lon="2.26427">
        <ele>34.3</ele>
        <time>2020-07-02T06:51:04Z</time>
      </trkpt>
      <trkpt lat="48.8289" lon="2.26432">
        <ele>34.2</ele>
        <time>2020-07-02T06:51:05Z</time>
      </trkpt>
      <trkpt lat="48.82889" lon="2.26436">
        <ele>34.1</ele>
        <time>2020-07-02T06:51:06Z</time>
      </trkpt>
      <trkpt lat="48.82888" lon="2.26442">
        <ele>34.1</ele>
        <time>2020-07-02T06:51:07Z</time>
      </trkpt>
      <trkpt lat="48.82886" lon="2.2645">
        <ele>34</ele>
        <time>2020-07-02T06:51:08Z</time>
      </trkpt>
      <trkpt lat="48.82884" lon="2.26459">
        <ele>34</ele>
        <time>2020-07-02T06:51:09Z</time>
      </trkpt>
      <trkpt lat="48.8288" lon="2.26468">
        <ele>33.9</ele>
        <time>2020-07-02T06:51:10Z</time>
      </trkpt>
      <trkpt lat="48.82877" lon="2.26475">
        <ele>33.9</ele>
        <time>2020-07-02T06:51:11Z</time>
      </trkpt>
      <trkpt lat="48.82874" lon="2.26483">
        <ele>33.9</ele>
        <time>2020-07-02T06:51:12Z</time>
      </trkpt>
      <trkpt lat="48.82871" lon="2.2649">
        <ele>33.9</ele>
        <time>2020-07-02T06:51:13Z</time>
      </trkpt>
      <trkpt lat="48.82868" lon="2.26497">
        <ele>33.9</ele>
        <time>2020-07-02T06:51:14Z</time>
      </trkpt>
      <trkpt lat="48.82866" lon="2.26503">
        <ele>33.9</ele>
        <time>2020-07-02T06:51:15Z</time>
      </trkpt>
      <trkpt lat="48.82864" lon="2.26511">
        <ele>33.8</ele>
        <time>2020-07-02T06:51:16Z</time>
      </trkpt>
      <trkpt lat="48.82861" lon="2.26518">
        <ele>33.8</ele>
        <time>2020-07-02T06:51:17Z</time>
      </trkpt>
      <trkpt lat="48.82858" lon="2.26526">
        <ele>33.8</ele>
        <time>2020-07-02T06:51:18Z</time>
      </trkpt>
      <trkpt lat="48.82856" lon="2.26533">
        <ele>33.8</ele>
        <time>2020-07-02T06:51:19Z</time>
      </trkpt>
      <trkpt lat="48.82854" lon="2.26539">
        <ele>33.8</ele>
        <time>2020-07-02T06:51:20Z</time>
      </trkpt>
      <trkpt lat="48.82852" lon="2.26547">
        <ele>33.9</ele>
        <time>2020-07-02T06:51:21Z</time>
      </trkpt>
      <trkpt lat="48.8285" lon="2.26554">
        <ele>33.9</ele>
        <time>2020-07-02T06:51:22Z</time>
      </trkpt>
      <trkpt lat="48.82848" lon="2.26559">
        <ele>33.9</ele>
        <time>2020-07-02T06:51:23Z</time>
      </trkpt>
      <trkpt lat="48.82845" lon="2.26563">
        <ele>33.9</ele>
        <time>2020-07-02T06:51:24Z</time>
      </trkpt>
      <trkpt lat="48.82844" lon="2.26567">
        <ele>33.9</ele>
        <time>2020-07-02T06:51:25Z</time>
      </trkpt>
      <trkpt lat="48.82844" lon="2.26567">
        <ele>33.9</ele>
        <time>2020-07-02T06:51:26Z</time>
      </trkpt>
      <trkpt lat="48.82841" lon="2.26571">
        <ele>33.9</ele>
        <time>2020-07-02T06:51:27Z</time>
      </trkpt>
      <trkpt lat="48.8284" lon="2.26574">
        <ele>33.9</ele>
        <time>2020-07-02T06:51:28Z</time>
      </trkpt>
      <trkpt lat="48.82839" lon="2.26579">
        <ele>33.9</ele>
        <time>2020-07-02T06:51:29Z</time>
      </trkpt>
      <trkpt lat="48.82839" lon="2.2658">
        <ele>33.9</ele>
        <time>2020-07-02T06:51:30Z</time>
      </trkpt>
      <trkpt lat="48.82837" lon="2.26585">
        <ele>34</ele>
        <time>2020-07-02T06:51:31Z</time>
      </trkpt>
      <trkpt lat="48.82834" lon="2.26591">
        <ele>33.9</ele>
        <time>2020-07-02T06:51:32Z</time>
      </trkpt>
      <trkpt lat="48.82831" lon="2.26599">
        <ele>33.8</ele>
        <time>2020-07-02T06:51:33Z</time>
      </trkpt>
      <trkpt lat="48.82829" lon="2.26607">
        <ele>33.8</ele>
        <time>2020-07-02T06:51:34Z</time>
      </trkpt>
      <trkpt lat="48.82827" lon="2.26614">
        <ele>33.7</ele>
        <time>2020-07-02T06:51:35Z</time>
      </trkpt>
      <trkpt lat="48.82824" lon="2.26621">
        <ele>33.6</ele>
        <time>2020-07-02T06:51:36Z</time>
      </trkpt>
      <trkpt lat="48.82823" lon="2.26627">
        <ele>33.6</ele>
        <time>2020-07-02T06:51:37Z</time>
      </trkpt>
      <trkpt lat="48.82822" lon="2.2663">
        <ele>33.6</ele>
        <time>2020-07-02T06:51:38Z</time>
      </trkpt>
      <trkpt lat="48.82819" lon="2.26635">
        <ele>33.5</ele>
        <time>2020-07-02T06:51:39Z</time>
      </trkpt>
      <trkpt lat="48.82816" lon="2.26641">
        <ele>33.5</ele>
        <time>2020-07-02T06:51:40Z</time>
      </trkpt>
      <trkpt lat="48.82814" lon="2.26649">
        <ele>33.4</ele>
        <time>2020-07-02T06:51:41Z</time>
      </trkpt>
      <trkpt lat="48.8281" lon="2.26658">
        <ele>33.4</ele>
        <time>2020-07-02T06:51:42Z</time>
      </trkpt>
      <trkpt lat="48.82808" lon="2.26667">
        <ele>33.4</ele>
        <time>2020-07-02T06:51:43Z</time>
      </trkpt>
      <trkpt lat="48.82803" lon="2.26673">
        <ele>33.3</ele>
        <time>2020-07-02T06:51:44Z</time>
      </trkpt>
      <trkpt lat="48.82801" lon="2.26682">
        <ele>33.3</ele>
        <time>2020-07-02T06:51:45Z</time>
      </trkpt>
      <trkpt lat="48.828" lon="2.26689">
        <ele>33.3</ele>
        <time>2020-07-02T06:51:46Z</time>
      </trkpt>
      <trkpt lat="48.82798" lon="2.26691">
        <ele>33.3</ele>
        <time>2020-07-02T06:51:47Z</time>
      </trkpt>
      <trkpt lat="48.82796" lon="2.26696">
        <ele>33.3</ele>
        <time>2020-07-02T06:51:48Z</time>
      </trkpt>
      <trkpt lat="48.82793" lon="2.26701">
        <ele>33.3</ele>
        <time>2020-07-02T06:51:49Z</time>
      </trkpt>
      <trkpt lat="48.82792" lon="2.26706">
        <ele>33.3</ele>
        <time>2020-07-02T06:51:50Z</time>
      </trkpt>
      <trkpt lat="48.82791" lon="2.26707">
        <ele>33.3</ele>
        <time>2020-07-02T06:51:51Z</time>
      </trkpt>
      <trkpt lat="48.82791" lon="2.26709">
        <ele>33.3</ele>
        <time>2020-07-02T06:51:52Z</time>
      </trkpt>
      <trkpt lat="48.82791" lon="2.2671">
        <ele>33.3</ele>
        <time>2020-07-02T06:51:53Z</time>
      </trkpt>
      <trkpt lat="48.82791" lon="2.26712">
        <ele>33.3</ele>
        <time>2020-07-02T06:51:54Z</time>
      </trkpt>
      <trkpt lat="48.8279" lon="2.26714">
        <ele>33.3</ele>
        <time>2020-07-02T06:51:55Z</time>
      </trkpt>
      <trkpt lat="48.82789" lon="2.26719">
        <ele>33.3</ele>
        <time>2020-07-02T06:51:56Z</time>
      </trkpt>
      <trkpt lat="48.82787" lon="2.26727">
        <ele>33.3</ele>
        <time>2020-07-02T06:51:57Z</time>
      </trkpt>
      <trkpt lat="48.82786" lon="2.26733">
        <ele>33.3</ele>
        <time>2020-07-02T06:51:58Z</time>
      </trkpt>
      <trkpt lat="48.82785" lon="2.26739">
        <ele>33.4</ele>
        <time>2020-07-02T06:51:59Z</time>
      </trkpt>
      <trkpt lat="48.82785" lon="2.26742">
        <ele>33.4</ele>
        <time>2020-07-02T06:52:00Z</time>
      </trkpt>
      <trkpt lat="48.82784" lon="2.26743">
        <ele>33.5</ele>
        <time>2020-07-02T06:52:01Z</time>
      </trkpt>
      <trkpt lat="48.82782" lon="2.26746">
        <ele>33.5</ele>
        <time>2020-07-02T06:52:02Z</time>
      </trkpt>
      <trkpt lat="48.82781" lon="2.26747">
        <ele>33.5</ele>
        <time>2020-07-02T06:52:03Z</time>
      </trkpt>
      <trkpt lat="48.82778" lon="2.2675">
        <ele>33.6</ele>
        <time>2020-07-02T06:52:04Z</time>
      </trkpt>
      <trkpt lat="48.82775" lon="2.26751">
        <ele>33.7</ele>
        <time>2020-07-02T06:52:05Z</time>
      </trkpt>
      <trkpt lat="48.82774" lon="2.26751">
        <ele>33.7</ele>
        <time>2020-07-02T06:52:06Z</time>
      </trkpt>
      <trkpt lat="48.82773" lon="2.26752">
        <ele>33.7</ele>
        <time>2020-07-02T06:52:07Z</time>
      </trkpt>
      <trkpt lat="48.82773" lon="2.26753">
        <ele>33.7</ele>
        <time>2020-07-02T06:52:08Z</time>
      </trkpt>
      <trkpt lat="48.82773" lon="2.26753">
        <ele>33.7</ele>
        <time>2020-07-02T06:52:09Z</time>
      </trkpt>
      <trkpt lat="48.82772" lon="2.26754">
        <ele>33.7</ele>
        <time>2020-07-02T06:52:10Z</time>
      </trkpt>
      <trkpt lat="48.82772" lon="2.26754">
        <ele>33.7</ele>
        <time>2020-07-02T06:52:11Z</time>
      </trkpt>
      <trkpt lat="48.82771" lon="2.26755">
        <ele>33.7</ele>
        <time>2020-07-02T06:52:12Z</time>
      </trkpt>
      <trkpt lat="48.82771" lon="2.26756">
        <ele>33.7</ele>
        <time>2020-07-02T06:52:13Z</time>
      </trkpt>
      <trkpt lat="48.8277" lon="2.26756">
        <ele>33.8</ele>
        <time>2020-07-02T06:52:14Z</time>
      </trkpt>
      <trkpt lat="48.8277" lon="2.26757">
        <ele>33.8</ele>
        <time>2020-07-02T06:52:15Z</time>
      </trkpt>
      <trkpt lat="48.8277" lon="2.26757">
        <ele>33.8</ele>
        <time>2020-07-02T06:52:16Z</time>
      </trkpt>
      <trkpt lat="48.82769" lon="2.26757">
        <ele>33.8</ele>
        <time>2020-07-02T06:52:17Z</time>
      </trkpt>
      <trkpt lat="48.82769" lon="2.26757">
        <ele>33.8</ele>
        <time>2020-07-02T06:52:18Z</time>
      </trkpt>
      <trkpt lat="48.82759" lon="2.26763">
        <ele>34</ele>
        <time>2020-07-02T06:52:23Z</time>
      </trkpt>
      <trkpt lat="48.82753" lon="2.26765">
        <ele>34</ele>
        <time>2020-07-02T06:52:24Z</time>
      </trkpt>
      <trkpt lat="48.82746" lon="2.26765">
        <ele>34</ele>
        <time>2020-07-02T06:52:25Z</time>
      </trkpt>
      <trkpt lat="48.82739" lon="2.26765">
        <ele>34</ele>
        <time>2020-07-02T06:52:26Z</time>
      </trkpt>
      <trkpt lat="48.82733" lon="2.26764">
        <ele>33.9</ele>
        <time>2020-07-02T06:52:27Z</time>
      </trkpt>
      <trkpt lat="48.82727" lon="2.26763">
        <ele>33.9</ele>
        <time>2020-07-02T06:52:28Z</time>
      </trkpt>
      <trkpt lat="48.82721" lon="2.26762">
        <ele>33.9</ele>
        <time>2020-07-02T06:52:29Z</time>
      </trkpt>
      <trkpt lat="48.82716" lon="2.26762">
        <ele>33.9</ele>
        <time>2020-07-02T06:52:30Z</time>
      </trkpt>
      <trkpt lat="48.82712" lon="2.26763">
        <ele>33.7</ele>
        <time>2020-07-02T06:52:31Z</time>
      </trkpt>
      <trkpt lat="48.82707" lon="2.26763">
        <ele>33.6</ele>
        <time>2020-07-02T06:52:32Z</time>
      </trkpt>
      <trkpt lat="48.82703" lon="2.26765">
        <ele>33.4</ele>
        <time>2020-07-02T06:52:33Z</time>
      </trkpt>
      <trkpt lat="48.82698" lon="2.26765">
        <ele>33.3</ele>
        <time>2020-07-02T06:52:34Z</time>
      </trkpt>
      <trkpt lat="48.82692" lon="2.26766">
        <ele>33.3</ele>
        <time>2020-07-02T06:52:35Z</time>
      </trkpt>
      <trkpt lat="48.82688" lon="2.26767">
        <ele>33.3</ele>
        <time>2020-07-02T06:52:36Z</time>
      </trkpt>
      <trkpt lat="48.82682" lon="2.26769">
        <ele>33.3</ele>
        <time>2020-07-02T06:52:37Z</time>
      </trkpt>
      <trkpt lat="48.82676" lon="2.26767">
        <ele>33.3</ele>
        <time>2020-07-02T06:52:38Z</time>
      </trkpt>
      <trkpt lat="48.82672" lon="2.26771">
        <ele>33.2</ele>
        <time>2020-07-02T06:52:39Z</time>
      </trkpt>
      <trkpt lat="48.82667" lon="2.26774">
        <ele>33.2</ele>
        <time>2020-07-02T06:52:40Z</time>
      </trkpt>
      <trkpt lat="48.82661" lon="2.26774">
        <ele>33.2</ele>
        <time>2020-07-02T06:52:41Z</time>
      </trkpt>
      <trkpt lat="48.82655" lon="2.26775">
        <ele>33.2</ele>
        <time>2020-07-02T06:52:42Z</time>
      </trkpt>
      <trkpt lat="48.82648" lon="2.26775">
        <ele>33.1</ele>
        <time>2020-07-02T06:52:43Z</time>
      </trkpt>
      <trkpt lat="48.82641" lon="2.26777">
        <ele>33.1</ele>
        <time>2020-07-02T06:52:44Z</time>
      </trkpt>
      <trkpt lat="48.82635" lon="2.26777">
        <ele>33.1</ele>
        <time>2020-07-02T06:52:45Z</time>
      </trkpt>
      <trkpt lat="48.82629" lon="2.26777">
        <ele>33</ele>
        <time>2020-07-02T06:52:46Z</time>
      </trkpt>
      <trkpt lat="48.82624" lon="2.26778">
        <ele>33</ele>
        <time>2020-07-02T06:52:47Z</time>
      </trkpt>
      <trkpt lat="48.82619" lon="2.26777">
        <ele>33</ele>
        <time>2020-07-02T06:52:48Z</time>
      </trkpt>
      <trkpt lat="48.82614" lon="2.26777">
        <ele>33</ele>
        <time>2020-07-02T06:52:49Z</time>
      </trkpt>
      <trkpt lat="48.82608" lon="2.26776">
        <ele>33</ele>
        <time>2020-07-02T06:52:50Z</time>
      </trkpt>
      <trkpt lat="48.82603" lon="2.26776">
        <ele>32.9</ele>
        <time>2020-07-02T06:52:51Z</time>
      </trkpt>
      <trkpt lat="48.82599" lon="2.26776">
        <ele>32.9</ele>
        <time>2020-07-02T06:52:52Z</time>
      </trkpt>
      <trkpt lat="48.82596" lon="2.26778">
        <ele>32.9</ele>
        <time>2020-07-02T06:52:53Z</time>
      </trkpt>
      <trkpt lat="48.82592" lon="2.2678">
        <ele>33</ele>
        <time>2020-07-02T06:52:54Z</time>
      </trkpt>
      <trkpt lat="48.82588" lon="2.26782">
        <ele>33</ele>
        <time>2020-07-02T06:52:55Z</time>
      </trkpt>
      <trkpt lat="48.82586" lon="2.26783">
        <ele>33</ele>
        <time>2020-07-02T06:52:56Z</time>
      </trkpt>
      <trkpt lat="48.82582" lon="2.26784">
        <ele>33.1</ele>
        <time>2020-07-02T06:52:57Z</time>
      </trkpt>
      <trkpt lat="48.82576" lon="2.26785">
        <ele>33.1</ele>
        <time>2020-07-02T06:52:58Z</time>
      </trkpt>
      <trkpt lat="48.8257" lon="2.26785">
        <ele>33.2</ele>
        <time>2020-07-02T06:52:59Z</time>
      </trkpt>
      <trkpt lat="48.82566" lon="2.26785">
        <ele>33.2</ele>
        <time>2020-07-02T06:53:00Z</time>
      </trkpt>
      <trkpt lat="48.82559" lon="2.26782">
        <ele>33.3</ele>
        <time>2020-07-02T06:53:01Z</time>
      </trkpt>
      <trkpt lat="48.82553" lon="2.2678">
        <ele>33.4</ele>
        <time>2020-07-02T06:53:02Z</time>
      </trkpt>
      <trkpt lat="48.82548" lon="2.26778">
        <ele>33.5</ele>
        <time>2020-07-02T06:53:03Z</time>
      </trkpt>
      <trkpt lat="48.82545" lon="2.26778">
        <ele>33.6</ele>
        <time>2020-07-02T06:53:04Z</time>
      </trkpt>
      <trkpt lat="48.82541" lon="2.26778">
        <ele>33.6</ele>
        <time>2020-07-02T06:53:05Z</time>
      </trkpt>
      <trkpt lat="48.82539" lon="2.26776">
        <ele>33.7</ele>
        <time>2020-07-02T06:53:06Z</time>
      </trkpt>
      <trkpt lat="48.82538" lon="2.26776">
        <ele>33.7</ele>
        <time>2020-07-02T06:53:07Z</time>
      </trkpt>
      <trkpt lat="48.82537" lon="2.26773">
        <ele>33.8</ele>
        <time>2020-07-02T06:53:08Z</time>
      </trkpt>
      <trkpt lat="48.82536" lon="2.26772">
        <ele>33.8</ele>
        <time>2020-07-02T06:53:09Z</time>
      </trkpt>
      <trkpt lat="48.82535" lon="2.2677">
        <ele>33.8</ele>
        <time>2020-07-02T06:53:10Z</time>
      </trkpt>
      <trkpt lat="48.82533" lon="2.26768">
        <ele>33.9</ele>
        <time>2020-07-02T06:53:11Z</time>
      </trkpt>
      <trkpt lat="48.82531" lon="2.26767">
        <ele>33.9</ele>
        <time>2020-07-02T06:53:12Z</time>
      </trkpt>
      <trkpt lat="48.82529" lon="2.26764">
        <ele>34</ele>
        <time>2020-07-02T06:53:13Z</time>
      </trkpt>
      <trkpt lat="48.82528" lon="2.26764">
        <ele>34</ele>
        <time>2020-07-02T06:53:14Z</time>
      </trkpt>
      <trkpt lat="48.82528" lon="2.26764">
        <ele>34</ele>
        <time>2020-07-02T06:53:15Z</time>
      </trkpt>
      <trkpt lat="48.82528" lon="2.26765">
        <ele>34</ele>
        <time>2020-07-02T06:53:16Z</time>
      </trkpt>
      <trkpt lat="48.82528" lon="2.26765">
        <ele>34</ele>
        <time>2020-07-02T06:53:17Z</time>
      </trkpt>
      <trkpt lat="48.82526" lon="2.26765">
        <ele>34</ele>
        <time>2020-07-02T06:53:18Z</time>
      </trkpt>
      <trkpt lat="48.82526" lon="2.26765">
        <ele>34.1</ele>
        <time>2020-07-02T06:53:19Z</time>
      </trkpt>
      <trkpt lat="48.82526" lon="2.26765">
        <ele>34.1</ele>
        <time>2020-07-02T06:53:20Z</time>
      </trkpt>
      <trkpt lat="48.82527" lon="2.26765">
        <ele>34.1</ele>
        <time>2020-07-02T06:53:21Z</time>
      </trkpt>
      <trkpt lat="48.82527" lon="2.26765">
        <ele>34.1</ele>
        <time>2020-07-02T06:53:22Z</time>
      </trkpt>
      <trkpt lat="48.82526" lon="2.26765">
        <ele>34.1</ele>
        <time>2020-07-02T06:53:23Z</time>
      </trkpt>
      <trkpt lat="48.82527" lon="2.26765">
        <ele>34.1</ele>
        <time>2020-07-02T06:53:24Z</time>
      </trkpt>
      <trkpt lat="48.82524" lon="2.26764">
        <ele>34.2</ele>
        <time>2020-07-02T06:53:26Z</time>
      </trkpt>
      <trkpt lat="48.82522" lon="2.26763">
        <ele>34.2</ele>
        <time>2020-07-02T06:53:27Z</time>
      </trkpt>
      <trkpt lat="48.8252" lon="2.26765">
        <ele>34.1</ele>
        <time>2020-07-02T06:53:28Z</time>
      </trkpt>
      <trkpt lat="48.82519" lon="2.26765">
        <ele>34.1</ele>
        <time>2020-07-02T06:53:29Z</time>
      </trkpt>
      <trkpt lat="48.82518" lon="2.26766">
        <ele>34.1</ele>
        <time>2020-07-02T06:53:30Z</time>
      </trkpt>
      <trkpt lat="48.82516" lon="2.26769">
        <ele>34.1</ele>
        <time>2020-07-02T06:53:31Z</time>
      </trkpt>
      <trkpt lat="48.82512" lon="2.26771">
        <ele>34.1</ele>
        <time>2020-07-02T06:53:32Z</time>
      </trkpt>
      <trkpt lat="48.82508" lon="2.26771">
        <ele>34</ele>
        <time>2020-07-02T06:53:33Z</time>
      </trkpt>
      <trkpt lat="48.82505" lon="2.2677">
        <ele>34</ele>
        <time>2020-07-02T06:53:34Z</time>
      </trkpt>
      <trkpt lat="48.82503" lon="2.26769">
        <ele>34</ele>
        <time>2020-07-02T06:53:35Z</time>
      </trkpt>
      <trkpt lat="48.825" lon="2.26769">
        <ele>33.9</ele>
        <time>2020-07-02T06:53:36Z</time>
      </trkpt>
      <trkpt lat="48.82496" lon="2.26768">
        <ele>33.9</ele>
        <time>2020-07-02T06:53:37Z</time>
      </trkpt>
      <trkpt lat="48.82492" lon="2.26769">
        <ele>33.9</ele>
        <time>2020-07-02T06:53:38Z</time>
      </trkpt>
      <trkpt lat="48.82486" lon="2.26771">
        <ele>33.8</ele>
        <time>2020-07-02T06:53:39Z</time>
      </trkpt>
      <trkpt lat="48.82479" lon="2.26773">
        <ele>33.8</ele>
        <time>2020-07-02T06:53:40Z</time>
      </trkpt>
      <trkpt lat="48.82472" lon="2.26774">
        <ele>33.7</ele>
        <time>2020-07-02T06:53:41Z</time>
      </trkpt>
      <trkpt lat="48.82466" lon="2.26776">
        <ele>33.6</ele>
        <time>2020-07-02T06:53:42Z</time>
      </trkpt>
      <trkpt lat="48.82458" lon="2.26777">
        <ele>33.6</ele>
        <time>2020-07-02T06:53:43Z</time>
      </trkpt>
      <trkpt lat="48.82451" lon="2.26778">
        <ele>33.6</ele>
        <time>2020-07-02T06:53:44Z</time>
      </trkpt>
      <trkpt lat="48.82444" lon="2.2678">
        <ele>33.7</ele>
        <time>2020-07-02T06:53:45Z</time>
      </trkpt>
      <trkpt lat="48.82439" lon="2.26782">
        <ele>33.7</ele>
        <time>2020-07-02T06:53:46Z</time>
      </trkpt>
      <trkpt lat="48.82433" lon="2.26784">
        <ele>33.8</ele>
        <time>2020-07-02T06:53:47Z</time>
      </trkpt>
      <trkpt lat="48.82428" lon="2.26786">
        <ele>33.8</ele>
        <time>2020-07-02T06:53:48Z</time>
      </trkpt>
      <trkpt lat="48.82424" lon="2.26787">
        <ele>33.8</ele>
        <time>2020-07-02T06:53:49Z</time>
      </trkpt>
      <trkpt lat="48.82419" lon="2.26788">
        <ele>33.8</ele>
        <time>2020-07-02T06:53:50Z</time>
      </trkpt>
      <trkpt lat="48.82414" lon="2.26789">
        <ele>33.9</ele>
        <time>2020-07-02T06:53:51Z</time>
      </trkpt>
      <trkpt lat="48.82409" lon="2.26789">
        <ele>33.9</ele>
        <time>2020-07-02T06:53:52Z</time>
      </trkpt>
      <trkpt lat="48.82405" lon="2.26789">
        <ele>33.9</ele>
        <time>2020-07-02T06:53:53Z</time>
      </trkpt>
      <trkpt lat="48.82401" lon="2.26789">
        <ele>33.9</ele>
        <time>2020-07-02T06:53:54Z</time>
      </trkpt>
      <trkpt lat="48.82398" lon="2.26789">
        <ele>34</ele>
        <time>2020-07-02T06:53:55Z</time>
      </trkpt>
      <trkpt lat="48.82393" lon="2.26789">
        <ele>34</ele>
        <time>2020-07-02T06:53:56Z</time>
      </trkpt>
      <trkpt lat="48.82391" lon="2.26789">
        <ele>34.1</ele>
        <time>2020-07-02T06:53:57Z</time>
      </trkpt>
      <trkpt lat="48.82385" lon="2.2679">
        <ele>34.2</ele>
        <time>2020-07-02T06:53:58Z</time>
      </trkpt>
      <trkpt lat="48.82381" lon="2.26792">
        <ele>34.3</ele>
        <time>2020-07-02T06:53:59Z</time>
      </trkpt>
      <trkpt lat="48.82376" lon="2.26793">
        <ele>34.4</ele>
        <time>2020-07-02T06:54:00Z</time>
      </trkpt>
      <trkpt lat="48.82372" lon="2.26793">
        <ele>34.5</ele>
        <time>2020-07-02T06:54:01Z</time>
      </trkpt>
      <trkpt lat="48.82369" lon="2.26794">
        <ele>34.6</ele>
        <time>2020-07-02T06:54:02Z</time>
      </trkpt>
      <trkpt lat="48.82366" lon="2.26795">
        <ele>34.7</ele>
        <time>2020-07-02T06:54:03Z</time>
      </trkpt>
      <trkpt lat="48.82362" lon="2.26796">
        <ele>34.9</ele>
        <time>2020-07-02T06:54:04Z</time>
      </trkpt>
      <trkpt lat="48.82358" lon="2.26797">
        <ele>35</ele>
        <time>2020-07-02T06:54:05Z</time>
      </trkpt>
      <trkpt lat="48.82357" lon="2.26797">
        <ele>35</ele>
        <time>2020-07-02T06:54:06Z</time>
      </trkpt>
      <trkpt lat="48.82353" lon="2.26798">
        <ele>35.2</ele>
        <time>2020-07-02T06:54:07Z</time>
      </trkpt>
      <trkpt lat="48.82352" lon="2.26798">
        <ele>35.2</ele>
        <time>2020-07-02T06:54:08Z</time>
      </trkpt>
      <trkpt lat="48.82349" lon="2.26799">
        <ele>35.3</ele>
        <time>2020-07-02T06:54:09Z</time>
      </trkpt>
      <trkpt lat="48.82347" lon="2.26799">
        <ele>35.3</ele>
        <time>2020-07-02T06:54:10Z</time>
      </trkpt>
      <trkpt lat="48.82347" lon="2.26799">
        <ele>35.4</ele>
        <time>2020-07-02T06:54:11Z</time>
      </trkpt>
      <trkpt lat="48.82346" lon="2.26798">
        <ele>35.4</ele>
        <time>2020-07-02T06:54:12Z</time>
      </trkpt>
      <trkpt lat="48.82344" lon="2.26798">
        <ele>35.4</ele>
        <time>2020-07-02T06:54:13Z</time>
      </trkpt>
      <trkpt lat="48.82342" lon="2.26798">
        <ele>35.5</ele>
        <time>2020-07-02T06:54:14Z</time>
      </trkpt>
      <trkpt lat="48.82339" lon="2.26799">
        <ele>35.6</ele>
        <time>2020-07-02T06:54:15Z</time>
      </trkpt>
      <trkpt lat="48.82338" lon="2.268">
        <ele>35.6</ele>
        <time>2020-07-02T06:54:16Z</time>
      </trkpt>
      <trkpt lat="48.82335" lon="2.268">
        <ele>35.7</ele>
        <time>2020-07-02T06:54:17Z</time>
      </trkpt>
      <trkpt lat="48.82335" lon="2.268">
        <ele>35.7</ele>
        <time>2020-07-02T06:54:18Z</time>
      </trkpt>
      <trkpt lat="48.82331" lon="2.268">
        <ele>35.8</ele>
        <time>2020-07-02T06:54:19Z</time>
      </trkpt>
      <trkpt lat="48.8233" lon="2.268">
        <ele>35.9</ele>
        <time>2020-07-02T06:54:20Z</time>
      </trkpt>
      <trkpt lat="48.82327" lon="2.268">
        <ele>35.9</ele>
        <time>2020-07-02T06:54:21Z</time>
      </trkpt>
      <trkpt lat="48.82324" lon="2.268">
        <ele>36</ele>
        <time>2020-07-02T06:54:22Z</time>
      </trkpt>
      <trkpt lat="48.82323" lon="2.26799">
        <ele>36</ele>
        <time>2020-07-02T06:54:23Z</time>
      </trkpt>
      <trkpt lat="48.82322" lon="2.26798">
        <ele>36.1</ele>
        <time>2020-07-02T06:54:24Z</time>
      </trkpt>
      <trkpt lat="48.82319" lon="2.26796">
        <ele>36.1</ele>
        <time>2020-07-02T06:54:25Z</time>
      </trkpt>
      <trkpt lat="48.82318" lon="2.26795">
        <ele>36.1</ele>
        <time>2020-07-02T06:54:26Z</time>
      </trkpt>
      <trkpt lat="48.82314" lon="2.26795">
        <ele>36.2</ele>
        <time>2020-07-02T06:54:27Z</time>
      </trkpt>
      <trkpt lat="48.8231" lon="2.26793">
        <ele>36.3</ele>
        <time>2020-07-02T06:54:28Z</time>
      </trkpt>
      <trkpt lat="48.82307" lon="2.26793">
        <ele>36.3</ele>
        <time>2020-07-02T06:54:29Z</time>
      </trkpt>
      <trkpt lat="48.82302" lon="2.26794">
        <ele>36.4</ele>
        <time>2020-07-02T06:54:30Z</time>
      </trkpt>
      <trkpt lat="48.82298" lon="2.26795">
        <ele>36.6</ele>
        <time>2020-07-02T06:54:31Z</time>
      </trkpt>
      <trkpt lat="48.82294" lon="2.26796">
        <ele>36.8</ele>
        <time>2020-07-02T06:54:32Z</time>
      </trkpt>
      <trkpt lat="48.8229" lon="2.26796">
        <ele>37</ele>
        <time>2020-07-02T06:54:33Z</time>
      </trkpt>
      <trkpt lat="48.82285" lon="2.26797">
        <ele>37.2</ele>
        <time>2020-07-02T06:54:34Z</time>
      </trkpt>
      <trkpt lat="48.8228" lon="2.26797">
        <ele>37.4</ele>
        <time>2020-07-02T06:54:35Z</time>
      </trkpt>
      <trkpt lat="48.82275" lon="2.26798">
        <ele>37.6</ele>
        <time>2020-07-02T06:54:36Z</time>
      </trkpt>
      <trkpt lat="48.8227" lon="2.26799">
        <ele>37.9</ele>
        <time>2020-07-02T06:54:37Z</time>
      </trkpt>
      <trkpt lat="48.82265" lon="2.26798">
        <ele>38.1</ele>
        <time>2020-07-02T06:54:38Z</time>
      </trkpt>
      <trkpt lat="48.8226" lon="2.26797">
        <ele>38.2</ele>
        <time>2020-07-02T06:54:39Z</time>
      </trkpt>
      <trkpt lat="48.82258" lon="2.268">
        <ele>38.3</ele>
        <time>2020-07-02T06:54:40Z</time>
      </trkpt>
      <trkpt lat="48.82256" lon="2.268">
        <ele>38.3</ele>
        <time>2020-07-02T06:54:41Z</time>
      </trkpt>
      <trkpt lat="48.82253" lon="2.26801">
        <ele>38.4</ele>
        <time>2020-07-02T06:54:42Z</time>
      </trkpt>
      <trkpt lat="48.82251" lon="2.268">
        <ele>38.4</ele>
        <time>2020-07-02T06:54:43Z</time>
      </trkpt>
      <trkpt lat="48.8225" lon="2.268">
        <ele>38.4</ele>
        <time>2020-07-02T06:54:44Z</time>
      </trkpt>
      <trkpt lat="48.82246" lon="2.268">
        <ele>38.5</ele>
        <time>2020-07-02T06:54:45Z</time>
      </trkpt>
      <trkpt lat="48.82246" lon="2.268">
        <ele>38.5</ele>
        <time>2020-07-02T06:54:46Z</time>
      </trkpt>
      <trkpt lat="48.82245" lon="2.26801">
        <ele>38.5</ele>
        <time>2020-07-02T06:54:47Z</time>
      </trkpt>
      <trkpt lat="48.82245" lon="2.26802">
        <ele>38.5</ele>
        <time>2020-07-02T06:54:48Z</time>
      </trkpt>
      <trkpt lat="48.82245" lon="2.26802">
        <ele>38.5</ele>
        <time>2020-07-02T06:54:49Z</time>
      </trkpt>
      <trkpt lat="48.82245" lon="2.26802">
        <ele>38.5</ele>
        <time>2020-07-02T06:54:50Z</time>
      </trkpt>
      <trkpt lat="48.82246" lon="2.26803">
        <ele>38.6</ele>
        <time>2020-07-02T06:54:51Z</time>
      </trkpt>
      <trkpt lat="48.82246" lon="2.26803">
        <ele>38.6</ele>
        <time>2020-07-02T06:54:52Z</time>
      </trkpt>
      <trkpt lat="48.82246" lon="2.26803">
        <ele>38.6</ele>
        <time>2020-07-02T06:54:53Z</time>
      </trkpt>
      <trkpt lat="48.82245" lon="2.26804">
        <ele>38.6</ele>
        <time>2020-07-02T06:54:54Z</time>
      </trkpt>
      <trkpt lat="48.82243" lon="2.26804">
        <ele>38.6</ele>
        <time>2020-07-02T06:54:55Z</time>
      </trkpt>
      <trkpt lat="48.82242" lon="2.26805">
        <ele>38.7</ele>
        <time>2020-07-02T06:54:56Z</time>
      </trkpt>
      <trkpt lat="48.8224" lon="2.26808">
        <ele>38.7</ele>
        <time>2020-07-02T06:54:57Z</time>
      </trkpt>
      <trkpt lat="48.82239" lon="2.2681">
        <ele>38.9</ele>
        <time>2020-07-02T06:54:58Z</time>
      </trkpt>
      <trkpt lat="48.82238" lon="2.26812">
        <ele>39</ele>
        <time>2020-07-02T06:54:59Z</time>
      </trkpt>
      <trkpt lat="48.82239" lon="2.26813">
        <ele>39.1</ele>
        <time>2020-07-02T06:55:00Z</time>
      </trkpt>
      <trkpt lat="48.82239" lon="2.26815">
        <ele>39.1</ele>
        <time>2020-07-02T06:55:01Z</time>
      </trkpt>
      <trkpt lat="48.82239" lon="2.26821">
        <ele>39.4</ele>
        <time>2020-07-02T06:55:02Z</time>
      </trkpt>
      <trkpt lat="48.82239" lon="2.26824">
        <ele>39.5</ele>
        <time>2020-07-02T06:55:03Z</time>
      </trkpt>
      <trkpt lat="48.82237" lon="2.26827">
        <ele>39.6</ele>
        <time>2020-07-02T06:55:04Z</time>
      </trkpt>
      <trkpt lat="48.82235" lon="2.26831">
        <ele>39.8</ele>
        <time>2020-07-02T06:55:05Z</time>
      </trkpt>
      <trkpt lat="48.82234" lon="2.26833">
        <ele>39.9</ele>
        <time>2020-07-02T06:55:06Z</time>
      </trkpt>
      <trkpt lat="48.82233" lon="2.26838">
        <ele>40.1</ele>
        <time>2020-07-02T06:55:07Z</time>
      </trkpt>
      <trkpt lat="48.82231" lon="2.26844">
        <ele>40.5</ele>
        <time>2020-07-02T06:55:08Z</time>
      </trkpt>
      <trkpt lat="48.8223" lon="2.26847">
        <ele>40.6</ele>
        <time>2020-07-02T06:55:09Z</time>
      </trkpt>
      <trkpt lat="48.82228" lon="2.26854">
        <ele>41</ele>
        <time>2020-07-02T06:55:10Z</time>
      </trkpt>
      <trkpt lat="48.82226" lon="2.26858">
        <ele>41.2</ele>
        <time>2020-07-02T06:55:11Z</time>
      </trkpt>
      <trkpt lat="48.82224" lon="2.26863">
        <ele>41.5</ele>
        <time>2020-07-02T06:55:12Z</time>
      </trkpt>
      <trkpt lat="48.82223" lon="2.26868">
        <ele>41.8</ele>
        <time>2020-07-02T06:55:13Z</time>
      </trkpt>
      <trkpt lat="48.82221" lon="2.26873">
        <ele>42.1</ele>
        <time>2020-07-02T06:55:14Z</time>
      </trkpt>
      <trkpt lat="48.8222" lon="2.26879">
        <ele>42.5</ele>
        <time>2020-07-02T06:55:15Z</time>
      </trkpt>
      <trkpt lat="48.82219" lon="2.26887">
        <ele>43</ele>
        <time>2020-07-02T06:55:16Z</time>
      </trkpt>
      <trkpt lat="48.82219" lon="2.26895">
        <ele>43.4</ele>
        <time>2020-07-02T06:55:17Z</time>
      </trkpt>
      <trkpt lat="48.8222" lon="2.26904">
        <ele>43.9</ele>
        <time>2020-07-02T06:55:18Z</time>
      </trkpt>
      <trkpt lat="48.82219" lon="2.2691">
        <ele>44.2</ele>
        <time>2020-07-02T06:55:19Z</time>
      </trkpt>
      <trkpt lat="48.82218" lon="2.26914">
        <ele>44.4</ele>
        <time>2020-07-02T06:55:20Z</time>
      </trkpt>
      <trkpt lat="48.82216" lon="2.2692">
        <ele>45.2</ele>
        <time>2020-07-02T06:55:21Z</time>
      </trkpt>
      <trkpt lat="48.82214" lon="2.26925">
        <ele>45.4</ele>
        <time>2020-07-02T06:55:22Z</time>
      </trkpt>
      <trkpt lat="48.82213" lon="2.2693">
        <ele>45.7</ele>
        <time>2020-07-02T06:55:23Z</time>
      </trkpt>
      <trkpt lat="48.82211" lon="2.26934">
        <ele>45.9</ele>
        <time>2020-07-02T06:55:24Z</time>
      </trkpt>
      <trkpt lat="48.82211" lon="2.2694">
        <ele>46.1</ele>
        <time>2020-07-02T06:55:25Z</time>
      </trkpt>
      <trkpt lat="48.82209" lon="2.26945">
        <ele>46.3</ele>
        <time>2020-07-02T06:55:26Z</time>
      </trkpt>
      <trkpt lat="48.82207" lon="2.26951">
        <ele>46.6</ele>
        <time>2020-07-02T06:55:27Z</time>
      </trkpt>
      <trkpt lat="48.82206" lon="2.26956">
        <ele>46.8</ele>
        <time>2020-07-02T06:55:28Z</time>
      </trkpt>
      <trkpt lat="48.82205" lon="2.2696">
        <ele>47</ele>
        <time>2020-07-02T06:55:29Z</time>
      </trkpt>
      <trkpt lat="48.82203" lon="2.26964">
        <ele>47.2</ele>
        <time>2020-07-02T06:55:30Z</time>
      </trkpt>
      <trkpt lat="48.82202" lon="2.26969">
        <ele>47.4</ele>
        <time>2020-07-02T06:55:31Z</time>
      </trkpt>
      <trkpt lat="48.82199" lon="2.26972">
        <ele>47.6</ele>
        <time>2020-07-02T06:55:32Z</time>
      </trkpt>
      <trkpt lat="48.82198" lon="2.26976">
        <ele>48.1</ele>
        <time>2020-07-02T06:55:33Z</time>
      </trkpt>
      <trkpt lat="48.82196" lon="2.2698">
        <ele>48.4</ele>
        <time>2020-07-02T06:55:34Z</time>
      </trkpt>
      <trkpt lat="48.82194" lon="2.26984">
        <ele>48.8</ele>
        <time>2020-07-02T06:55:35Z</time>
      </trkpt>
      <trkpt lat="48.82193" lon="2.26986">
        <ele>48.9</ele>
        <time>2020-07-02T06:55:36Z</time>
      </trkpt>
      <trkpt lat="48.82191" lon="2.26989">
        <ele>49.2</ele>
        <time>2020-07-02T06:55:37Z</time>
      </trkpt>
      <trkpt lat="48.82191" lon="2.26991">
        <ele>49.4</ele>
        <time>2020-07-02T06:55:38Z</time>
      </trkpt>
      <trkpt lat="48.8219" lon="2.26996">
        <ele>49.7</ele>
        <time>2020-07-02T06:55:39Z</time>
      </trkpt>
      <trkpt lat="48.8219" lon="2.26997">
        <ele>49.7</ele>
        <time>2020-07-02T06:55:40Z</time>
      </trkpt>
      <trkpt lat="48.82189" lon="2.27001">
        <ele>50</ele>
        <time>2020-07-02T06:55:41Z</time>
      </trkpt>
      <trkpt lat="48.82189" lon="2.27003">
        <ele>50.1</ele>
        <time>2020-07-02T06:55:42Z</time>
      </trkpt>
      <trkpt lat="48.82187" lon="2.27009">
        <ele>50.6</ele>
        <time>2020-07-02T06:55:43Z</time>
      </trkpt>
      <trkpt lat="48.82187" lon="2.27013">
        <ele>50.8</ele>
        <time>2020-07-02T06:55:44Z</time>
      </trkpt>
      <trkpt lat="48.82186" lon="2.27017">
        <ele>51</ele>
        <time>2020-07-02T06:55:45Z</time>
      </trkpt>
      <trkpt lat="48.82186" lon="2.27019">
        <ele>51.1</ele>
        <time>2020-07-02T06:55:46Z</time>
      </trkpt>
      <trkpt lat="48.82185" lon="2.27023">
        <ele>51.3</ele>
        <time>2020-07-02T06:55:47Z</time>
      </trkpt>
      <trkpt lat="48.82183" lon="2.27027">
        <ele>51.5</ele>
        <time>2020-07-02T06:55:48Z</time>
      </trkpt>
      <trkpt lat="48.82183" lon="2.27032">
        <ele>51.7</ele>
        <time>2020-07-02T06:55:49Z</time>
      </trkpt>
      <trkpt lat="48.82181" lon="2.27037">
        <ele>52</ele>
        <time>2020-07-02T06:55:50Z</time>
      </trkpt>
      <trkpt lat="48.82181" lon="2.27039">
        <ele>52.1</ele>
        <time>2020-07-02T06:55:51Z</time>
      </trkpt>
      <trkpt lat="48.82178" lon="2.27044">
        <ele>52.3</ele>
        <time>2020-07-02T06:55:52Z</time>
      </trkpt>
      <trkpt lat="48.82177" lon="2.27046">
        <ele>52.4</ele>
        <time>2020-07-02T06:55:53Z</time>
      </trkpt>
      <trkpt lat="48.82176" lon="2.2705">
        <ele>52.5</ele>
        <time>2020-07-02T06:55:54Z</time>
      </trkpt>
      <trkpt lat="48.82174" lon="2.27054">
        <ele>52.7</ele>
        <time>2020-07-02T06:55:55Z</time>
      </trkpt>
      <trkpt lat="48.82174" lon="2.27059">
        <ele>52.8</ele>
        <time>2020-07-02T06:55:56Z</time>
      </trkpt>
      <trkpt lat="48.82174" lon="2.27064">
        <ele>53</ele>
        <time>2020-07-02T06:55:57Z</time>
      </trkpt>
      <trkpt lat="48.82173" lon="2.27068">
        <ele>53.1</ele>
        <time>2020-07-02T06:55:58Z</time>
      </trkpt>
      <trkpt lat="48.82172" lon="2.27073">
        <ele>53.3</ele>
        <time>2020-07-02T06:55:59Z</time>
      </trkpt>
      <trkpt lat="48.82171" lon="2.27078">
        <ele>53.5</ele>
        <time>2020-07-02T06:56:00Z</time>
      </trkpt>
      <trkpt lat="48.8217" lon="2.27084">
        <ele>53.7</ele>
        <time>2020-07-02T06:56:01Z</time>
      </trkpt>
      <trkpt lat="48.8217" lon="2.27089">
        <ele>53.9</ele>
        <time>2020-07-02T06:56:02Z</time>
      </trkpt>
      <trkpt lat="48.82169" lon="2.27095">
        <ele>54.1</ele>
        <time>2020-07-02T06:56:03Z</time>
      </trkpt>
      <trkpt lat="48.82169" lon="2.27101">
        <ele>54.3</ele>
        <time>2020-07-02T06:56:04Z</time>
      </trkpt>
      <trkpt lat="48.82168" lon="2.27103">
        <ele>54.3</ele>
        <time>2020-07-02T06:56:05Z</time>
      </trkpt>
      <trkpt lat="48.82167" lon="2.27107">
        <ele>54.5</ele>
        <time>2020-07-02T06:56:06Z</time>
      </trkpt>
      <trkpt lat="48.82167" lon="2.27112">
        <ele>54.7</ele>
        <time>2020-07-02T06:56:07Z</time>
      </trkpt>
      <trkpt lat="48.82166" lon="2.27117">
        <ele>54.9</ele>
        <time>2020-07-02T06:56:08Z</time>
      </trkpt>
      <trkpt lat="48.82166" lon="2.27122">
        <ele>55.1</ele>
        <time>2020-07-02T06:56:09Z</time>
      </trkpt>
      <trkpt lat="48.82166" lon="2.27126">
        <ele>55.3</ele>
        <time>2020-07-02T06:56:10Z</time>
      </trkpt>
      <trkpt lat="48.82165" lon="2.27132">
        <ele>55.5</ele>
        <time>2020-07-02T06:56:11Z</time>
      </trkpt>
      <trkpt lat="48.82165" lon="2.27133">
        <ele>55.6</ele>
        <time>2020-07-02T06:56:12Z</time>
      </trkpt>
      <trkpt lat="48.82162" lon="2.27137">
        <ele>55.8</ele>
        <time>2020-07-02T06:56:13Z</time>
      </trkpt>
      <trkpt lat="48.82162" lon="2.27141">
        <ele>56</ele>
        <time>2020-07-02T06:56:14Z</time>
      </trkpt>
      <trkpt lat="48.82161" lon="2.27143">
        <ele>56</ele>
        <time>2020-07-02T06:56:15Z</time>
      </trkpt>
      <trkpt lat="48.82161" lon="2.27147">
        <ele>56.2</ele>
        <time>2020-07-02T06:56:16Z</time>
      </trkpt>
      <trkpt lat="48.8216" lon="2.27151">
        <ele>56.4</ele>
        <time>2020-07-02T06:56:17Z</time>
      </trkpt>
      <trkpt lat="48.8216" lon="2.27157">
        <ele>56.7</ele>
        <time>2020-07-02T06:56:18Z</time>
      </trkpt>
      <trkpt lat="48.82159" lon="2.2716">
        <ele>56.8</ele>
        <time>2020-07-02T06:56:19Z</time>
      </trkpt>
      <trkpt lat="48.82158" lon="2.27166">
        <ele>57.1</ele>
        <time>2020-07-02T06:56:20Z</time>
      </trkpt>
      <trkpt lat="48.82158" lon="2.27168">
        <ele>57.2</ele>
        <time>2020-07-02T06:56:21Z</time>
      </trkpt>
      <trkpt lat="48.82157" lon="2.27173">
        <ele>57.4</ele>
        <time>2020-07-02T06:56:22Z</time>
      </trkpt>
      <trkpt lat="48.82156" lon="2.27176">
        <ele>57.6</ele>
        <time>2020-07-02T06:56:23Z</time>
      </trkpt>
      <trkpt lat="48.82155" lon="2.2718">
        <ele>57.8</ele>
        <time>2020-07-02T06:56:24Z</time>
      </trkpt>
      <trkpt lat="48.82155" lon="2.27185">
        <ele>58</ele>
        <time>2020-07-02T06:56:25Z</time>
      </trkpt>
      <trkpt lat="48.82154" lon="2.27186">
        <ele>58</ele>
        <time>2020-07-02T06:56:26Z</time>
      </trkpt>
      <trkpt lat="48.82153" lon="2.27191">
        <ele>58.3</ele>
        <time>2020-07-02T06:56:27Z</time>
      </trkpt>
      <trkpt lat="48.82153" lon="2.27193">
        <ele>58.4</ele>
        <time>2020-07-02T06:56:28Z</time>
      </trkpt>
      <trkpt lat="48.82152" lon="2.27199">
        <ele>58.7</ele>
        <time>2020-07-02T06:56:29Z</time>
      </trkpt>
      <trkpt lat="48.82152" lon="2.27201">
        <ele>58.8</ele>
        <time>2020-07-02T06:56:30Z</time>
      </trkpt>
      <trkpt lat="48.82152" lon="2.27207">
        <ele>59.1</ele>
        <time>2020-07-02T06:56:31Z</time>
      </trkpt>
      <trkpt lat="48.82152" lon="2.27209">
        <ele>59.2</ele>
        <time>2020-07-02T06:56:32Z</time>
      </trkpt>
      <trkpt lat="48.82152" lon="2.27214">
        <ele>59.4</ele>
        <time>2020-07-02T06:56:33Z</time>
      </trkpt>
      <trkpt lat="48.82151" lon="2.2722">
        <ele>59.7</ele>
        <time>2020-07-02T06:56:34Z</time>
      </trkpt>
      <trkpt lat="48.82151" lon="2.27222">
        <ele>59.8</ele>
        <time>2020-07-02T06:56:35Z</time>
      </trkpt>
      <trkpt lat="48.82151" lon="2.27227">
        <ele>60.1</ele>
        <time>2020-07-02T06:56:36Z</time>
      </trkpt>
      <trkpt lat="48.82151" lon="2.27229">
        <ele>60.2</ele>
        <time>2020-07-02T06:56:37Z</time>
      </trkpt>
      <trkpt lat="48.82151" lon="2.27234">
        <ele>60.4</ele>
        <time>2020-07-02T06:56:38Z</time>
      </trkpt>
      <trkpt lat="48.82152" lon="2.27236">
        <ele>60.5</ele>
        <time>2020-07-02T06:56:39Z</time>
      </trkpt>
      <trkpt lat="48.82153" lon="2.27241">
        <ele>60.7</ele>
        <time>2020-07-02T06:56:40Z</time>
      </trkpt>
      <trkpt lat="48.82154" lon="2.27245">
        <ele>60.9</ele>
        <time>2020-07-02T06:56:41Z</time>
      </trkpt>
      <trkpt lat="48.82154" lon="2.2725">
        <ele>61.1</ele>
        <time>2020-07-02T06:56:42Z</time>
      </trkpt>
      <trkpt lat="48.82155" lon="2.27254">
        <ele>61.3</ele>
        <time>2020-07-02T06:56:43Z</time>
      </trkpt>
      <trkpt lat="48.82155" lon="2.27259">
        <ele>61.5</ele>
        <time>2020-07-02T06:56:44Z</time>
      </trkpt>
      <trkpt lat="48.82156" lon="2.27263">
        <ele>61.7</ele>
        <time>2020-07-02T06:56:45Z</time>
      </trkpt>
      <trkpt lat="48.82156" lon="2.27268">
        <ele>61.9</ele>
        <time>2020-07-02T06:56:46Z</time>
      </trkpt>
      <trkpt lat="48.82157" lon="2.27274">
        <ele>62.1</ele>
        <time>2020-07-02T06:56:47Z</time>
      </trkpt>
      <trkpt lat="48.82156" lon="2.27279">
        <ele>62.3</ele>
        <time>2020-07-02T06:56:48Z</time>
      </trkpt>
      <trkpt lat="48.82156" lon="2.27285">
        <ele>62.5</ele>
        <time>2020-07-02T06:56:49Z</time>
      </trkpt>
      <trkpt lat="48.82155" lon="2.27287">
        <ele>62.6</ele>
        <time>2020-07-02T06:56:50Z</time>
      </trkpt>
      <trkpt lat="48.82154" lon="2.27293">
        <ele>62.8</ele>
        <time>2020-07-02T06:56:51Z</time>
      </trkpt>
      <trkpt lat="48.82154" lon="2.27295">
        <ele>62.9</ele>
        <time>2020-07-02T06:56:52Z</time>
      </trkpt>
      <trkpt lat="48.82153" lon="2.27299">
        <ele>63</ele>
        <time>2020-07-02T06:56:53Z</time>
      </trkpt>
      <trkpt lat="48.82151" lon="2.273">
        <ele>63.1</ele>
        <time>2020-07-02T06:56:54Z</time>
      </trkpt>
      <trkpt lat="48.82149" lon="2.27304">
        <ele>63.3</ele>
        <time>2020-07-02T06:56:55Z</time>
      </trkpt>
      <trkpt lat="48.82147" lon="2.27308">
        <ele>63.4</ele>
        <time>2020-07-02T06:56:56Z</time>
      </trkpt>
      <trkpt lat="48.82147" lon="2.2731">
        <ele>63.4</ele>
        <time>2020-07-02T06:56:57Z</time>
      </trkpt>
      <trkpt lat="48.82146" lon="2.27314">
        <ele>63.6</ele>
        <time>2020-07-02T06:56:58Z</time>
      </trkpt>
      <trkpt lat="48.82146" lon="2.27315">
        <ele>63.6</ele>
        <time>2020-07-02T06:56:59Z</time>
      </trkpt>
      <trkpt lat="48.82145" lon="2.27318">
        <ele>63.7</ele>
        <time>2020-07-02T06:57:00Z</time>
      </trkpt>
      <trkpt lat="48.82145" lon="2.2732">
        <ele>63.7</ele>
        <time>2020-07-02T06:57:01Z</time>
      </trkpt>
      <trkpt lat="48.82144" lon="2.27322">
        <ele>63.8</ele>
        <time>2020-07-02T06:57:02Z</time>
      </trkpt>
      <trkpt lat="48.82143" lon="2.27324">
        <ele>63.9</ele>
        <time>2020-07-02T06:57:03Z</time>
      </trkpt>
      <trkpt lat="48.82142" lon="2.27329">
        <ele>64</ele>
        <time>2020-07-02T06:57:04Z</time>
      </trkpt>
      <trkpt lat="48.82142" lon="2.27331">
        <ele>64.1</ele>
        <time>2020-07-02T06:57:05Z</time>
      </trkpt>
      <trkpt lat="48.82142" lon="2.27335">
        <ele>64.2</ele>
        <time>2020-07-02T06:57:06Z</time>
      </trkpt>
      <trkpt lat="48.82142" lon="2.2734">
        <ele>64.3</ele>
        <time>2020-07-02T06:57:07Z</time>
      </trkpt>
      <trkpt lat="48.82141" lon="2.27344">
        <ele>64.4</ele>
        <time>2020-07-02T06:57:08Z</time>
      </trkpt>
      <trkpt lat="48.8214" lon="2.27345">
        <ele>64.4</ele>
        <time>2020-07-02T06:57:09Z</time>
      </trkpt>
      <trkpt lat="48.82138" lon="2.27349">
        <ele>64.5</ele>
        <time>2020-07-02T06:57:10Z</time>
      </trkpt>
      <trkpt lat="48.82138" lon="2.2735">
        <ele>64.5</ele>
        <time>2020-07-02T06:57:11Z</time>
      </trkpt>
      <trkpt lat="48.82136" lon="2.27352">
        <ele>64.6</ele>
        <time>2020-07-02T06:57:12Z</time>
      </trkpt>
      <trkpt lat="48.82136" lon="2.27353">
        <ele>64.6</ele>
        <time>2020-07-02T06:57:13Z</time>
      </trkpt>
      <trkpt lat="48.82135" lon="2.27354">
        <ele>64.7</ele>
        <time>2020-07-02T06:57:14Z</time>
      </trkpt>
      <trkpt lat="48.82133" lon="2.27355">
        <ele>64.7</ele>
        <time>2020-07-02T06:57:15Z</time>
      </trkpt>
      <trkpt lat="48.82132" lon="2.27355">
        <ele>64.8</ele>
        <time>2020-07-02T06:57:16Z</time>
      </trkpt>
      <trkpt lat="48.82131" lon="2.27354">
        <ele>64.8</ele>
        <time>2020-07-02T06:57:17Z</time>
      </trkpt>
      <trkpt lat="48.8213" lon="2.27355">
        <ele>64.9</ele>
        <time>2020-07-02T06:57:18Z</time>
      </trkpt>
      <trkpt lat="48.82129" lon="2.27356">
        <ele>64.9</ele>
        <time>2020-07-02T06:57:19Z</time>
      </trkpt>
      <trkpt lat="48.82129" lon="2.27358">
        <ele>64.9</ele>
        <time>2020-07-02T06:57:20Z</time>
      </trkpt>
      <trkpt lat="48.82128" lon="2.27357">
        <ele>65</ele>
        <time>2020-07-02T06:57:21Z</time>
      </trkpt>
      <trkpt lat="48.82127" lon="2.27357">
        <ele>65</ele>
        <time>2020-07-02T06:57:22Z</time>
      </trkpt>
      <trkpt lat="48.82127" lon="2.27357">
        <ele>65</ele>
        <time>2020-07-02T06:57:23Z</time>
      </trkpt>
      <trkpt lat="48.82126" lon="2.27357">
        <ele>65.1</ele>
        <time>2020-07-02T06:57:24Z</time>
      </trkpt>
      <trkpt lat="48.82125" lon="2.27357">
        <ele>65.1</ele>
        <time>2020-07-02T06:57:25Z</time>
      </trkpt>
      <trkpt lat="48.82125" lon="2.27356">
        <ele>65.1</ele>
        <time>2020-07-02T06:57:26Z</time>
      </trkpt>
      <trkpt lat="48.82124" lon="2.27356">
        <ele>65.2</ele>
        <time>2020-07-02T06:57:27Z</time>
      </trkpt>
      <trkpt lat="48.82123" lon="2.27356">
        <ele>65.2</ele>
        <time>2020-07-02T06:57:28Z</time>
      </trkpt>
      <trkpt lat="48.82122" lon="2.27358">
        <ele>65.3</ele>
        <time>2020-07-02T06:57:29Z</time>
      </trkpt>
      <trkpt lat="48.82121" lon="2.27359">
        <ele>65.3</ele>
        <time>2020-07-02T06:57:30Z</time>
      </trkpt>
      <trkpt lat="48.82121" lon="2.27361">
        <ele>65.4</ele>
        <time>2020-07-02T06:57:31Z</time>
      </trkpt>
      <trkpt lat="48.8212" lon="2.27365">
        <ele>65.8</ele>
        <time>2020-07-02T06:57:32Z</time>
      </trkpt>
      <trkpt lat="48.82119" lon="2.27366">
        <ele>65.9</ele>
        <time>2020-07-02T06:57:33Z</time>
      </trkpt>
      <trkpt lat="48.82116" lon="2.2737">
        <ele>66.1</ele>
        <time>2020-07-02T06:57:34Z</time>
      </trkpt>
      <trkpt lat="48.82115" lon="2.27372">
        <ele>66.2</ele>
        <time>2020-07-02T06:57:35Z</time>
      </trkpt>
      <trkpt lat="48.82114" lon="2.27376">
        <ele>66.3</ele>
        <time>2020-07-02T06:57:36Z</time>
      </trkpt>
      <trkpt lat="48.82111" lon="2.27379">
        <ele>66.5</ele>
        <time>2020-07-02T06:57:37Z</time>
      </trkpt>
      <trkpt lat="48.82109" lon="2.27382">
        <ele>66.7</ele>
        <time>2020-07-02T06:57:38Z</time>
      </trkpt>
      <trkpt lat="48.82107" lon="2.27385">
        <ele>66.9</ele>
        <time>2020-07-02T06:57:39Z</time>
      </trkpt>
      <trkpt lat="48.82098" lon="2.27387">
        <ele>67.4</ele>
        <time>2020-07-02T06:57:40Z</time>
      </trkpt>
      <trkpt lat="48.82093" lon="2.27388">
        <ele>67.8</ele>
        <time>2020-07-02T06:57:41Z</time>
      </trkpt>
      <trkpt lat="48.82087" lon="2.27391">
        <ele>68.2</ele>
        <time>2020-07-02T06:57:42Z</time>
      </trkpt>
      <trkpt lat="48.82083" lon="2.27395">
        <ele>68.5</ele>
        <time>2020-07-02T06:57:43Z</time>
      </trkpt>
      <trkpt lat="48.82078" lon="2.27401">
        <ele>68.9</ele>
        <time>2020-07-02T06:57:44Z</time>
      </trkpt>
      <trkpt lat="48.82074" lon="2.27407">
        <ele>69.3</ele>
        <time>2020-07-02T06:57:45Z</time>
      </trkpt>
      <trkpt lat="48.82069" lon="2.2741">
        <ele>69.6</ele>
        <time>2020-07-02T06:57:46Z</time>
      </trkpt>
      <trkpt lat="48.82065" lon="2.27414">
        <ele>70</ele>
        <time>2020-07-02T06:57:47Z</time>
      </trkpt>
      <trkpt lat="48.82061" lon="2.27419">
        <ele>70.3</ele>
        <time>2020-07-02T06:57:48Z</time>
      </trkpt>
      <trkpt lat="48.82057" lon="2.27422">
        <ele>70.6</ele>
        <time>2020-07-02T06:57:49Z</time>
      </trkpt>
      <trkpt lat="48.82053" lon="2.27424">
        <ele>70.9</ele>
        <time>2020-07-02T06:57:50Z</time>
      </trkpt>
      <trkpt lat="48.82049" lon="2.27426">
        <ele>71.2</ele>
        <time>2020-07-02T06:57:51Z</time>
      </trkpt>
      <trkpt lat="48.82046" lon="2.27429">
        <ele>71.5</ele>
        <time>2020-07-02T06:57:52Z</time>
      </trkpt>
      <trkpt lat="48.82043" lon="2.27433">
        <ele>71.7</ele>
        <time>2020-07-02T06:57:53Z</time>
      </trkpt>
      <trkpt lat="48.82041" lon="2.27437">
        <ele>72</ele>
        <time>2020-07-02T06:57:54Z</time>
      </trkpt>
      <trkpt lat="48.82038" lon="2.27441">
        <ele>72.2</ele>
        <time>2020-07-02T06:57:55Z</time>
      </trkpt>
      <trkpt lat="48.82035" lon="2.27443">
        <ele>72.5</ele>
        <time>2020-07-02T06:57:56Z</time>
      </trkpt>
      <trkpt lat="48.82032" lon="2.27445">
        <ele>72.7</ele>
        <time>2020-07-02T06:57:57Z</time>
      </trkpt>
      <trkpt lat="48.8203" lon="2.27446">
        <ele>72.8</ele>
        <time>2020-07-02T06:57:58Z</time>
      </trkpt>
      <trkpt lat="48.82027" lon="2.27448">
        <ele>72.9</ele>
        <time>2020-07-02T06:57:59Z</time>
      </trkpt>
      <trkpt lat="48.82024" lon="2.27449">
        <ele>73</ele>
        <time>2020-07-02T06:58:00Z</time>
      </trkpt>
      <trkpt lat="48.82021" lon="2.2745">
        <ele>73</ele>
        <time>2020-07-02T06:58:01Z</time>
      </trkpt>
      <trkpt lat="48.82017" lon="2.27451">
        <ele>73.5</ele>
        <time>2020-07-02T06:58:02Z</time>
      </trkpt>
      <trkpt lat="48.82014" lon="2.27451">
        <ele>73.7</ele>
        <time>2020-07-02T06:58:03Z</time>
      </trkpt>
      <trkpt lat="48.82012" lon="2.27451">
        <ele>73.8</ele>
        <time>2020-07-02T06:58:04Z</time>
      </trkpt>
      <trkpt lat="48.82009" lon="2.2745">
        <ele>74</ele>
        <time>2020-07-02T06:58:05Z</time>
      </trkpt>
      <trkpt lat="48.82005" lon="2.27449">
        <ele>74.2</ele>
        <time>2020-07-02T06:58:06Z</time>
      </trkpt>
      <trkpt lat="48.82001" lon="2.27448">
        <ele>74.4</ele>
        <time>2020-07-02T06:58:07Z</time>
      </trkpt>
      <trkpt lat="48.81998" lon="2.27448">
        <ele>74.5</ele>
        <time>2020-07-02T06:58:08Z</time>
      </trkpt>
      <trkpt lat="48.81995" lon="2.27447">
        <ele>74.7</ele>
        <time>2020-07-02T06:58:09Z</time>
      </trkpt>
      <trkpt lat="48.81992" lon="2.27447">
        <ele>74.8</ele>
        <time>2020-07-02T06:58:10Z</time>
      </trkpt>
      <trkpt lat="48.81989" lon="2.27447">
        <ele>75</ele>
        <time>2020-07-02T06:58:11Z</time>
      </trkpt>
      <trkpt lat="48.81985" lon="2.27448">
        <ele>75.1</ele>
        <time>2020-07-02T06:58:12Z</time>
      </trkpt>
      <trkpt lat="48.81982" lon="2.27449">
        <ele>75.3</ele>
        <time>2020-07-02T06:58:13Z</time>
      </trkpt>
      <trkpt lat="48.81978" lon="2.27448">
        <ele>75.4</ele>
        <time>2020-07-02T06:58:14Z</time>
      </trkpt>
      <trkpt lat="48.81974" lon="2.27446">
        <ele>75.6</ele>
        <time>2020-07-02T06:58:15Z</time>
      </trkpt>
      <trkpt lat="48.8197" lon="2.27445">
        <ele>75.8</ele>
        <time>2020-07-02T06:58:16Z</time>
      </trkpt>
      <trkpt lat="48.81967" lon="2.27444">
        <ele>76</ele>
        <time>2020-07-02T06:58:17Z</time>
      </trkpt>
      <trkpt lat="48.81964" lon="2.27443">
        <ele>76.1</ele>
        <time>2020-07-02T06:58:18Z</time>
      </trkpt>
      <trkpt lat="48.8196" lon="2.27441">
        <ele>76.3</ele>
        <time>2020-07-02T06:58:19Z</time>
      </trkpt>
      <trkpt lat="48.81957" lon="2.2744">
        <ele>76.5</ele>
        <time>2020-07-02T06:58:20Z</time>
      </trkpt>
      <trkpt lat="48.81954" lon="2.27438">
        <ele>76.7</ele>
        <time>2020-07-02T06:58:21Z</time>
      </trkpt>
      <trkpt lat="48.8195" lon="2.27438">
        <ele>76.8</ele>
        <time>2020-07-02T06:58:22Z</time>
      </trkpt>
      <trkpt lat="48.81946" lon="2.27436">
        <ele>77</ele>
        <time>2020-07-02T06:58:23Z</time>
      </trkpt>
      <trkpt lat="48.81943" lon="2.27435">
        <ele>77.2</ele>
        <time>2020-07-02T06:58:24Z</time>
      </trkpt>
      <trkpt lat="48.8194" lon="2.27433">
        <ele>77.3</ele>
        <time>2020-07-02T06:58:25Z</time>
      </trkpt>
      <trkpt lat="48.81937" lon="2.27432">
        <ele>77.4</ele>
        <time>2020-07-02T06:58:26Z</time>
      </trkpt>
      <trkpt lat="48.81934" lon="2.27431">
        <ele>77.6</ele>
        <time>2020-07-02T06:58:27Z</time>
      </trkpt>
      <trkpt lat="48.8193" lon="2.27432">
        <ele>77.7</ele>
        <time>2020-07-02T06:58:28Z</time>
      </trkpt>
      <trkpt lat="48.81926" lon="2.2743">
        <ele>77.9</ele>
        <time>2020-07-02T06:58:29Z</time>
      </trkpt>
      <trkpt lat="48.81923" lon="2.2743">
        <ele>78</ele>
        <time>2020-07-02T06:58:30Z</time>
      </trkpt>
      <trkpt lat="48.81919" lon="2.27429">
        <ele>78.2</ele>
        <time>2020-07-02T06:58:31Z</time>
      </trkpt>
      <trkpt lat="48.81917" lon="2.27429">
        <ele>78.2</ele>
        <time>2020-07-02T06:58:32Z</time>
      </trkpt>
      <trkpt lat="48.81913" lon="2.27427">
        <ele>78.4</ele>
        <time>2020-07-02T06:58:33Z</time>
      </trkpt>
      <trkpt lat="48.8191" lon="2.27426">
        <ele>78.5</ele>
        <time>2020-07-02T06:58:34Z</time>
      </trkpt>
      <trkpt lat="48.81907" lon="2.27425">
        <ele>78.5</ele>
        <time>2020-07-02T06:58:35Z</time>
      </trkpt>
      <trkpt lat="48.81905" lon="2.27425">
        <ele>78.6</ele>
        <time>2020-07-02T06:58:36Z</time>
      </trkpt>
      <trkpt lat="48.81901" lon="2.27423">
        <ele>78.6</ele>
        <time>2020-07-02T06:58:37Z</time>
      </trkpt>
      <trkpt lat="48.81898" lon="2.27422">
        <ele>78.7</ele>
        <time>2020-07-02T06:58:38Z</time>
      </trkpt>
      <trkpt lat="48.81894" lon="2.27421">
        <ele>78.8</ele>
        <time>2020-07-02T06:58:39Z</time>
      </trkpt>
      <trkpt lat="48.8189" lon="2.27419">
        <ele>78.9</ele>
        <time>2020-07-02T06:58:40Z</time>
      </trkpt>
      <trkpt lat="48.81887" lon="2.27416">
        <ele>79</ele>
        <time>2020-07-02T06:58:41Z</time>
      </trkpt>
      <trkpt lat="48.81884" lon="2.27415">
        <ele>79.1</ele>
        <time>2020-07-02T06:58:42Z</time>
      </trkpt>
      <trkpt lat="48.8188" lon="2.27414">
        <ele>79.3</ele>
        <time>2020-07-02T06:58:43Z</time>
      </trkpt>
      <trkpt lat="48.81876" lon="2.27412">
        <ele>79.3</ele>
        <time>2020-07-02T06:58:44Z</time>
      </trkpt>
      <trkpt lat="48.81872" lon="2.27411">
        <ele>79.4</ele>
        <time>2020-07-02T06:58:45Z</time>
      </trkpt>
      <trkpt lat="48.81868" lon="2.27409">
        <ele>79.5</ele>
        <time>2020-07-02T06:58:46Z</time>
      </trkpt>
      <trkpt lat="48.81865" lon="2.2741">
        <ele>79.6</ele>
        <time>2020-07-02T06:58:47Z</time>
      </trkpt>
      <trkpt lat="48.81862" lon="2.27408">
        <ele>79.6</ele>
        <time>2020-07-02T06:58:48Z</time>
      </trkpt>
      <trkpt lat="48.81858" lon="2.27406">
        <ele>79.7</ele>
        <time>2020-07-02T06:58:49Z</time>
      </trkpt>
      <trkpt lat="48.81854" lon="2.27403">
        <ele>79.9</ele>
        <time>2020-07-02T06:58:50Z</time>
      </trkpt>
      <trkpt lat="48.81851" lon="2.27401">
        <ele>80</ele>
        <time>2020-07-02T06:58:51Z</time>
      </trkpt>
      <trkpt lat="48.81847" lon="2.274">
        <ele>80.1</ele>
        <time>2020-07-02T06:58:52Z</time>
      </trkpt>
      <trkpt lat="48.81842" lon="2.274">
        <ele>80.2</ele>
        <time>2020-07-02T06:58:53Z</time>
      </trkpt>
      <trkpt lat="48.81839" lon="2.27397">
        <ele>80.2</ele>
        <time>2020-07-02T06:58:54Z</time>
      </trkpt>
      <trkpt lat="48.81834" lon="2.27399">
        <ele>80.3</ele>
        <time>2020-07-02T06:58:55Z</time>
      </trkpt>
      <trkpt lat="48.8183" lon="2.27398">
        <ele>80.4</ele>
        <time>2020-07-02T06:58:56Z</time>
      </trkpt>
      <trkpt lat="48.81826" lon="2.27397">
        <ele>80.5</ele>
        <time>2020-07-02T06:58:57Z</time>
      </trkpt>
      <trkpt lat="48.81822" lon="2.27396">
        <ele>80.6</ele>
        <time>2020-07-02T06:58:58Z</time>
      </trkpt>
      <trkpt lat="48.81818" lon="2.27394">
        <ele>80.6</ele>
        <time>2020-07-02T06:58:59Z</time>
      </trkpt>
      <trkpt lat="48.81814" lon="2.27392">
        <ele>80.7</ele>
        <time>2020-07-02T06:59:00Z</time>
      </trkpt>
      <trkpt lat="48.8181" lon="2.27391">
        <ele>80.8</ele>
        <time>2020-07-02T06:59:01Z</time>
      </trkpt>
      <trkpt lat="48.81806" lon="2.27389">
        <ele>80.8</ele>
        <time>2020-07-02T06:59:02Z</time>
      </trkpt>
      <trkpt lat="48.81803" lon="2.27387">
        <ele>80.9</ele>
        <time>2020-07-02T06:59:03Z</time>
      </trkpt>
      <trkpt lat="48.81799" lon="2.27385">
        <ele>81</ele>
        <time>2020-07-02T06:59:04Z</time>
      </trkpt>
      <trkpt lat="48.81795" lon="2.27384">
        <ele>81</ele>
        <time>2020-07-02T06:59:05Z</time>
      </trkpt>
      <trkpt lat="48.81791" lon="2.27384">
        <ele>81.1</ele>
        <time>2020-07-02T06:59:06Z</time>
      </trkpt>
      <trkpt lat="48.81787" lon="2.27383">
        <ele>81.2</ele>
        <time>2020-07-02T06:59:07Z</time>
      </trkpt>
      <trkpt lat="48.81784" lon="2.27382">
        <ele>81.2</ele>
        <time>2020-07-02T06:59:08Z</time>
      </trkpt>
      <trkpt lat="48.81781" lon="2.27381">
        <ele>81.3</ele>
        <time>2020-07-02T06:59:09Z</time>
      </trkpt>
      <trkpt lat="48.81778" lon="2.2738">
        <ele>81.4</ele>
        <time>2020-07-02T06:59:10Z</time>
      </trkpt>
      <trkpt lat="48.81774" lon="2.27382">
        <ele>81.5</ele>
        <time>2020-07-02T06:59:11Z</time>
      </trkpt>
      <trkpt lat="48.8177" lon="2.27381">
        <ele>81.5</ele>
        <time>2020-07-02T06:59:12Z</time>
      </trkpt>
      <trkpt lat="48.81767" lon="2.2738">
        <ele>81.6</ele>
        <time>2020-07-02T06:59:13Z</time>
      </trkpt>
      <trkpt lat="48.81763" lon="2.27378">
        <ele>81.7</ele>
        <time>2020-07-02T06:59:14Z</time>
      </trkpt>
      <trkpt lat="48.8176" lon="2.27378">
        <ele>81.8</ele>
        <time>2020-07-02T06:59:15Z</time>
      </trkpt>
      <trkpt lat="48.81756" lon="2.27377">
        <ele>81.9</ele>
        <time>2020-07-02T06:59:16Z</time>
      </trkpt>
      <trkpt lat="48.81752" lon="2.27375">
        <ele>81.9</ele>
        <time>2020-07-02T06:59:17Z</time>
      </trkpt>
      <trkpt lat="48.81748" lon="2.27375">
        <ele>82</ele>
        <time>2020-07-02T06:59:18Z</time>
      </trkpt>
      <trkpt lat="48.81745" lon="2.27376">
        <ele>82</ele>
        <time>2020-07-02T06:59:19Z</time>
      </trkpt>
      <trkpt lat="48.81742" lon="2.27379">
        <ele>82</ele>
        <time>2020-07-02T06:59:20Z</time>
      </trkpt>
      <trkpt lat="48.81739" lon="2.27381">
        <ele>82</ele>
        <time>2020-07-02T06:59:21Z</time>
      </trkpt>
      <trkpt lat="48.81736" lon="2.27384">
        <ele>81.9</ele>
        <time>2020-07-02T06:59:22Z</time>
      </trkpt>
      <trkpt lat="48.81732" lon="2.27384">
        <ele>81.8</ele>
        <time>2020-07-02T06:59:23Z</time>
      </trkpt>
      <trkpt lat="48.8173" lon="2.27388">
        <ele>81.7</ele>
        <time>2020-07-02T06:59:24Z</time>
      </trkpt>
      <trkpt lat="48.81727" lon="2.27393">
        <ele>81.6</ele>
        <time>2020-07-02T06:59:25Z</time>
      </trkpt>
      <trkpt lat="48.81725" lon="2.27398">
        <ele>81.4</ele>
        <time>2020-07-02T06:59:26Z</time>
      </trkpt>
      <trkpt lat="48.81723" lon="2.27403">
        <ele>81.3</ele>
        <time>2020-07-02T06:59:27Z</time>
      </trkpt>
      <trkpt lat="48.81721" lon="2.27407">
        <ele>81.2</ele>
        <time>2020-07-02T06:59:28Z</time>
      </trkpt>
      <trkpt lat="48.81718" lon="2.27411">
        <ele>81</ele>
        <time>2020-07-02T06:59:29Z</time>
      </trkpt>
      <trkpt lat="48.81715" lon="2.27417">
        <ele>80.8</ele>
        <time>2020-07-02T06:59:30Z</time>
      </trkpt>
      <trkpt lat="48.81711" lon="2.27423">
        <ele>80.6</ele>
        <time>2020-07-02T06:59:31Z</time>
      </trkpt>
      <trkpt lat="48.81707" lon="2.2743">
        <ele>80.4</ele>
        <time>2020-07-02T06:59:32Z</time>
      </trkpt>
      <trkpt lat="48.81703" lon="2.27438">
        <ele>80.1</ele>
        <time>2020-07-02T06:59:33Z</time>
      </trkpt>
      <trkpt lat="48.81698" lon="2.27445">
        <ele>79.8</ele>
        <time>2020-07-02T06:59:34Z</time>
      </trkpt>
      <trkpt lat="48.81695" lon="2.27452">
        <ele>79.6</ele>
        <time>2020-07-02T06:59:35Z</time>
      </trkpt>
      <trkpt lat="48.81691" lon="2.27455">
        <ele>79.4</ele>
        <time>2020-07-02T06:59:36Z</time>
      </trkpt>
      <trkpt lat="48.81688" lon="2.27459">
        <ele>79.2</ele>
        <time>2020-07-02T06:59:37Z</time>
      </trkpt>
      <trkpt lat="48.81685" lon="2.27465">
        <ele>79</ele>
        <time>2020-07-02T06:59:38Z</time>
      </trkpt>
      <trkpt lat="48.81682" lon="2.27469">
        <ele>78.8</ele>
        <time>2020-07-02T06:59:39Z</time>
      </trkpt>
      <trkpt lat="48.81679" lon="2.27475">
        <ele>78.6</ele>
        <time>2020-07-02T06:59:40Z</time>
      </trkpt>
      <trkpt lat="48.81676" lon="2.27479">
        <ele>78.4</ele>
        <time>2020-07-02T06:59:41Z</time>
      </trkpt>
      <trkpt lat="48.81674" lon="2.27483">
        <ele>78.3</ele>
        <time>2020-07-02T06:59:42Z</time>
      </trkpt>
      <trkpt lat="48.81673" lon="2.27484">
        <ele>78.2</ele>
        <time>2020-07-02T06:59:43Z</time>
      </trkpt>
      <trkpt lat="48.81671" lon="2.27485">
        <ele>78.1</ele>
        <time>2020-07-02T06:59:44Z</time>
      </trkpt>
      <trkpt lat="48.81671" lon="2.27486">
        <ele>78.1</ele>
        <time>2020-07-02T06:59:45Z</time>
      </trkpt>
      <trkpt lat="48.81671" lon="2.27487">
        <ele>78.1</ele>
        <time>2020-07-02T06:59:46Z</time>
      </trkpt>
      <trkpt lat="48.81671" lon="2.27488">
        <ele>78.1</ele>
        <time>2020-07-02T06:59:47Z</time>
      </trkpt>
      <trkpt lat="48.81671" lon="2.27488">
        <ele>78</ele>
        <time>2020-07-02T06:59:48Z</time>
      </trkpt>
      <trkpt lat="48.8167" lon="2.27489">
        <ele>78</ele>
        <time>2020-07-02T06:59:49Z</time>
      </trkpt>
      <trkpt lat="48.81671" lon="2.27489">
        <ele>78</ele>
        <time>2020-07-02T06:59:50Z</time>
      </trkpt>
      <trkpt lat="48.81671" lon="2.27489">
        <ele>78</ele>
        <time>2020-07-02T06:59:51Z</time>
      </trkpt>
      <trkpt lat="48.81672" lon="2.2749">
        <ele>78</ele>
        <time>2020-07-02T06:59:52Z</time>
      </trkpt>
      <trkpt lat="48.81672" lon="2.2749">
        <ele>78</ele>
        <time>2020-07-02T06:59:53Z</time>
      </trkpt>
      <trkpt lat="48.81672" lon="2.2749">
        <ele>78</ele>
        <time>2020-07-02T06:59:54Z</time>
      </trkpt>
      <trkpt lat="48.81672" lon="2.2749">
        <ele>77.9</ele>
        <time>2020-07-02T06:59:55Z</time>
      </trkpt>
      <trkpt lat="48.81672" lon="2.2749">
        <ele>77.9</ele>
        <time>2020-07-02T06:59:56Z</time>
      </trkpt>
      <trkpt lat="48.81672" lon="2.2749">
        <ele>77.9</ele>
        <time>2020-07-02T06:59:57Z</time>
      </trkpt>
      <trkpt lat="48.81671" lon="2.27491">
        <ele>77.9</ele>
        <time>2020-07-02T06:59:58Z</time>
      </trkpt>
      <trkpt lat="48.8167" lon="2.27491">
        <ele>77.8</ele>
        <time>2020-07-02T06:59:59Z</time>
      </trkpt>
      <trkpt lat="48.8167" lon="2.27491">
        <ele>77.8</ele>
        <time>2020-07-02T07:00:00Z</time>
      </trkpt>
      <trkpt lat="48.81669" lon="2.27491">
        <ele>77.8</ele>
        <time>2020-07-02T07:00:01Z</time>
      </trkpt>
      <trkpt lat="48.81669" lon="2.27492">
        <ele>77.8</ele>
        <time>2020-07-02T07:00:02Z</time>
      </trkpt>
      <trkpt lat="48.81668" lon="2.27492">
        <ele>77.7</ele>
        <time>2020-07-02T07:00:03Z</time>
      </trkpt>
      <trkpt lat="48.81667" lon="2.27492">
        <ele>77.7</ele>
        <time>2020-07-02T07:00:04Z</time>
      </trkpt>
      <trkpt lat="48.81666" lon="2.27491">
        <ele>77.6</ele>
        <time>2020-07-02T07:00:05Z</time>
      </trkpt>
      <trkpt lat="48.81665" lon="2.27492">
        <ele>77.6</ele>
        <time>2020-07-02T07:00:06Z</time>
      </trkpt>
      <trkpt lat="48.81665" lon="2.27492">
        <ele>77.6</ele>
        <time>2020-07-02T07:00:07Z</time>
      </trkpt>
      <trkpt lat="48.81665" lon="2.27492">
        <ele>77.6</ele>
        <time>2020-07-02T07:00:08Z</time>
      </trkpt>
      <trkpt lat="48.81664" lon="2.27492">
        <ele>77.6</ele>
        <time>2020-07-02T07:00:09Z</time>
      </trkpt>
      <trkpt lat="48.81664" lon="2.27492">
        <ele>77.5</ele>
        <time>2020-07-02T07:00:10Z</time>
      </trkpt>
      <trkpt lat="48.81664" lon="2.27493">
        <ele>77.5</ele>
        <time>2020-07-02T07:00:11Z</time>
      </trkpt>
      <trkpt lat="48.81664" lon="2.27493">
        <ele>77.5</ele>
        <time>2020-07-02T07:00:12Z</time>
      </trkpt>
      <trkpt lat="48.81663" lon="2.27493">
        <ele>77.5</ele>
        <time>2020-07-02T07:00:13Z</time>
      </trkpt>
      <trkpt lat="48.81663" lon="2.27493">
        <ele>77.5</ele>
        <time>2020-07-02T07:00:14Z</time>
      </trkpt>
      <trkpt lat="48.81663" lon="2.27494">
        <ele>77.5</ele>
        <time>2020-07-02T07:00:15Z</time>
      </trkpt>
      <trkpt lat="48.81663" lon="2.27494">
        <ele>77.5</ele>
        <time>2020-07-02T07:00:16Z</time>
      </trkpt>
      <trkpt lat="48.81662" lon="2.27494">
        <ele>77.5</ele>
        <time>2020-07-02T07:00:17Z</time>
      </trkpt>
      <trkpt lat="48.8166" lon="2.27497">
        <ele>77.3</ele>
        <time>2020-07-02T07:00:18Z</time>
      </trkpt>
      <trkpt lat="48.81659" lon="2.27499">
        <ele>77.3</ele>
        <time>2020-07-02T07:00:19Z</time>
      </trkpt>
      <trkpt lat="48.81658" lon="2.27505">
        <ele>77.1</ele>
        <time>2020-07-02T07:00:20Z</time>
      </trkpt>
      <trkpt lat="48.81655" lon="2.27511">
        <ele>76.8</ele>
        <time>2020-07-02T07:00:21Z</time>
      </trkpt>
      <trkpt lat="48.81651" lon="2.27516">
        <ele>76.5</ele>
        <time>2020-07-02T07:00:22Z</time>
      </trkpt>
      <trkpt lat="48.81649" lon="2.27522">
        <ele>76.2</ele>
        <time>2020-07-02T07:00:23Z</time>
      </trkpt>
      <trkpt lat="48.81646" lon="2.27528">
        <ele>76</ele>
        <time>2020-07-02T07:00:24Z</time>
      </trkpt>
      <trkpt lat="48.81644" lon="2.27534">
        <ele>75.6</ele>
        <time>2020-07-02T07:00:25Z</time>
      </trkpt>
      <trkpt lat="48.81641" lon="2.27542">
        <ele>75.3</ele>
        <time>2020-07-02T07:00:26Z</time>
      </trkpt>
      <trkpt lat="48.81637" lon="2.2755">
        <ele>74.8</ele>
        <time>2020-07-02T07:00:27Z</time>
      </trkpt>
      <trkpt lat="48.81632" lon="2.27556">
        <ele>74.4</ele>
        <time>2020-07-02T07:00:28Z</time>
      </trkpt>
      <trkpt lat="48.81627" lon="2.27563">
        <ele>74</ele>
        <time>2020-07-02T07:00:29Z</time>
      </trkpt>
      <trkpt lat="48.81622" lon="2.27571">
        <ele>73.5</ele>
        <time>2020-07-02T07:00:30Z</time>
      </trkpt>
      <trkpt lat="48.81617" lon="2.2758">
        <ele>73</ele>
        <time>2020-07-02T07:00:31Z</time>
      </trkpt>
      <trkpt lat="48.81611" lon="2.27589">
        <ele>72.5</ele>
        <time>2020-07-02T07:00:32Z</time>
      </trkpt>
      <trkpt lat="48.81605" lon="2.276">
        <ele>71.9</ele>
        <time>2020-07-02T07:00:33Z</time>
      </trkpt>
      <trkpt lat="48.81601" lon="2.27608">
        <ele>71.5</ele>
        <time>2020-07-02T07:00:34Z</time>
      </trkpt>
      <trkpt lat="48.81597" lon="2.27615">
        <ele>71</ele>
        <time>2020-07-02T07:00:35Z</time>
      </trkpt>
      <trkpt lat="48.81592" lon="2.27624">
        <ele>70.5</ele>
        <time>2020-07-02T07:00:36Z</time>
      </trkpt>
      <trkpt lat="48.81588" lon="2.27632">
        <ele>70.1</ele>
        <time>2020-07-02T07:00:37Z</time>
      </trkpt>
      <trkpt lat="48.81582" lon="2.27638">
        <ele>69.6</ele>
        <time>2020-07-02T07:00:38Z</time>
      </trkpt>
      <trkpt lat="48.81577" lon="2.27646">
        <ele>69.1</ele>
        <time>2020-07-02T07:00:39Z</time>
      </trkpt>
      <trkpt lat="48.81571" lon="2.27655">
        <ele>68.5</ele>
        <time>2020-07-02T07:00:40Z</time>
      </trkpt>
      <trkpt lat="48.81567" lon="2.27664">
        <ele>68</ele>
        <time>2020-07-02T07:00:41Z</time>
      </trkpt>
      <trkpt lat="48.81563" lon="2.27672">
        <ele>67.6</ele>
        <time>2020-07-02T07:00:42Z</time>
      </trkpt>
      <trkpt lat="48.81559" lon="2.2768">
        <ele>67.2</ele>
        <time>2020-07-02T07:00:43Z</time>
      </trkpt>
      <trkpt lat="48.81554" lon="2.27686">
        <ele>66.9</ele>
        <time>2020-07-02T07:00:44Z</time>
      </trkpt>
      <trkpt lat="48.81549" lon="2.27692">
        <ele>66.6</ele>
        <time>2020-07-02T07:00:45Z</time>
      </trkpt>
      <trkpt lat="48.81546" lon="2.27698">
        <ele>66.4</ele>
        <time>2020-07-02T07:00:46Z</time>
      </trkpt>
      <trkpt lat="48.81542" lon="2.27703">
        <ele>66.2</ele>
        <time>2020-07-02T07:00:47Z</time>
      </trkpt>
      <trkpt lat="48.81539" lon="2.27708">
        <ele>66.1</ele>
        <time>2020-07-02T07:00:48Z</time>
      </trkpt>
      <trkpt lat="48.81537" lon="2.27713">
        <ele>65.8</ele>
        <time>2020-07-02T07:00:49Z</time>
      </trkpt>
      <trkpt lat="48.81534" lon="2.27719">
        <ele>65.8</ele>
        <time>2020-07-02T07:00:50Z</time>
      </trkpt>
      <trkpt lat="48.81532" lon="2.27726">
        <ele>65.7</ele>
        <time>2020-07-02T07:00:51Z</time>
      </trkpt>
      <trkpt lat="48.81527" lon="2.27731">
        <ele>65.7</ele>
        <time>2020-07-02T07:00:52Z</time>
      </trkpt>
      <trkpt lat="48.81524" lon="2.27737">
        <ele>65.7</ele>
        <time>2020-07-02T07:00:53Z</time>
      </trkpt>
      <trkpt lat="48.81521" lon="2.27742">
        <ele>65.7</ele>
        <time>2020-07-02T07:00:54Z</time>
      </trkpt>
      <trkpt lat="48.81518" lon="2.27746">
        <ele>65.7</ele>
        <time>2020-07-02T07:00:55Z</time>
      </trkpt>
      <trkpt lat="48.81516" lon="2.27751">
        <ele>65.7</ele>
        <time>2020-07-02T07:00:56Z</time>
      </trkpt>
      <trkpt lat="48.81513" lon="2.27755">
        <ele>65.7</ele>
        <time>2020-07-02T07:00:57Z</time>
      </trkpt>
      <trkpt lat="48.81511" lon="2.27759">
        <ele>65.7</ele>
        <time>2020-07-02T07:00:58Z</time>
      </trkpt>
      <trkpt lat="48.81508" lon="2.27764">
        <ele>65.7</ele>
        <time>2020-07-02T07:00:59Z</time>
      </trkpt>
      <trkpt lat="48.81506" lon="2.27767">
        <ele>65.7</ele>
        <time>2020-07-02T07:01:00Z</time>
      </trkpt>
      <trkpt lat="48.81505" lon="2.27771">
        <ele>65.8</ele>
        <time>2020-07-02T07:01:01Z</time>
      </trkpt>
      <trkpt lat="48.81503" lon="2.27775">
        <ele>65.8</ele>
        <time>2020-07-02T07:01:02Z</time>
      </trkpt>
      <trkpt lat="48.81502" lon="2.27776">
        <ele>65.8</ele>
        <time>2020-07-02T07:01:03Z</time>
      </trkpt>
      <trkpt lat="48.81501" lon="2.27778">
        <ele>65.8</ele>
        <time>2020-07-02T07:01:04Z</time>
      </trkpt>
      <trkpt lat="48.815" lon="2.27778">
        <ele>65.9</ele>
        <time>2020-07-02T07:01:05Z</time>
      </trkpt>
      <trkpt lat="48.81499" lon="2.27779">
        <ele>65.9</ele>
        <time>2020-07-02T07:01:06Z</time>
      </trkpt>
      <trkpt lat="48.81497" lon="2.2778">
        <ele>65.9</ele>
        <time>2020-07-02T07:01:07Z</time>
      </trkpt>
      <trkpt lat="48.81497" lon="2.27782">
        <ele>65.9</ele>
        <time>2020-07-02T07:01:08Z</time>
      </trkpt>
      <trkpt lat="48.81497" lon="2.27784">
        <ele>66</ele>
        <time>2020-07-02T07:01:09Z</time>
      </trkpt>
      <trkpt lat="48.81496" lon="2.27786">
        <ele>66</ele>
        <time>2020-07-02T07:01:10Z</time>
      </trkpt>
      <trkpt lat="48.81495" lon="2.27789">
        <ele>66.1</ele>
        <time>2020-07-02T07:01:11Z</time>
      </trkpt>
      <trkpt lat="48.81493" lon="2.2779">
        <ele>66.1</ele>
        <time>2020-07-02T07:01:12Z</time>
      </trkpt>
      <trkpt lat="48.8149" lon="2.27792">
        <ele>66.2</ele>
        <time>2020-07-02T07:01:13Z</time>
      </trkpt>
      <trkpt lat="48.81488" lon="2.27793">
        <ele>66.2</ele>
        <time>2020-07-02T07:01:14Z</time>
      </trkpt>
      <trkpt lat="48.81485" lon="2.27794">
        <ele>66.3</ele>
        <time>2020-07-02T07:01:15Z</time>
      </trkpt>
      <trkpt lat="48.81482" lon="2.27795">
        <ele>66.5</ele>
        <time>2020-07-02T07:01:16Z</time>
      </trkpt>
      <trkpt lat="48.81479" lon="2.27796">
        <ele>66.6</ele>
        <time>2020-07-02T07:01:17Z</time>
      </trkpt>
      <trkpt lat="48.81475" lon="2.27796">
        <ele>66.7</ele>
        <time>2020-07-02T07:01:18Z</time>
      </trkpt>
      <trkpt lat="48.81471" lon="2.27795">
        <ele>66.8</ele>
        <time>2020-07-02T07:01:19Z</time>
      </trkpt>
      <trkpt lat="48.81466" lon="2.27795">
        <ele>66.9</ele>
        <time>2020-07-02T07:01:20Z</time>
      </trkpt>
      <trkpt lat="48.81461" lon="2.27794">
        <ele>67</ele>
        <time>2020-07-02T07:01:21Z</time>
      </trkpt>
      <trkpt lat="48.81457" lon="2.27793">
        <ele>67.1</ele>
        <time>2020-07-02T07:01:22Z</time>
      </trkpt>
      <trkpt lat="48.81453" lon="2.27797">
        <ele>67.2</ele>
        <time>2020-07-02T07:01:23Z</time>
      </trkpt>
      <trkpt lat="48.8145" lon="2.27797">
        <ele>67.3</ele>
        <time>2020-07-02T07:01:24Z</time>
      </trkpt>
      <trkpt lat="48.81447" lon="2.278">
        <ele>67.4</ele>
        <time>2020-07-02T07:01:25Z</time>
      </trkpt>
      <trkpt lat="48.81444" lon="2.27805">
        <ele>67.5</ele>
        <time>2020-07-02T07:01:26Z</time>
      </trkpt>
      <trkpt lat="48.81442" lon="2.27809">
        <ele>67.6</ele>
        <time>2020-07-02T07:01:27Z</time>
      </trkpt>
      <trkpt lat="48.81439" lon="2.27814">
        <ele>67.7</ele>
        <time>2020-07-02T07:01:28Z</time>
      </trkpt>
      <trkpt lat="48.81439" lon="2.27816">
        <ele>67.8</ele>
        <time>2020-07-02T07:01:29Z</time>
      </trkpt>
      <trkpt lat="48.81437" lon="2.27819">
        <ele>67.9</ele>
        <time>2020-07-02T07:01:30Z</time>
      </trkpt>
      <trkpt lat="48.81434" lon="2.2782">
        <ele>67.9</ele>
        <time>2020-07-02T07:01:31Z</time>
      </trkpt>
      <trkpt lat="48.81433" lon="2.2782">
        <ele>68</ele>
        <time>2020-07-02T07:01:32Z</time>
      </trkpt>
      <trkpt lat="48.81431" lon="2.2782">
        <ele>68</ele>
        <time>2020-07-02T07:01:33Z</time>
      </trkpt>
      <trkpt lat="48.8143" lon="2.27822">
        <ele>68</ele>
        <time>2020-07-02T07:01:34Z</time>
      </trkpt>
      <trkpt lat="48.81429" lon="2.27822">
        <ele>68</ele>
        <time>2020-07-02T07:01:35Z</time>
      </trkpt>
      <trkpt lat="48.81428" lon="2.27823">
        <ele>68</ele>
        <time>2020-07-02T07:01:36Z</time>
      </trkpt>
      <trkpt lat="48.81427" lon="2.27824">
        <ele>68</ele>
        <time>2020-07-02T07:01:37Z</time>
      </trkpt>
      <trkpt lat="48.81425" lon="2.27825">
        <ele>68</ele>
        <time>2020-07-02T07:01:38Z</time>
      </trkpt>
      <trkpt lat="48.81422" lon="2.27827">
        <ele>68</ele>
        <time>2020-07-02T07:01:39Z</time>
      </trkpt>
      <trkpt lat="48.81419" lon="2.27829">
        <ele>68.1</ele>
        <time>2020-07-02T07:01:40Z</time>
      </trkpt>
      <trkpt lat="48.81416" lon="2.27831">
        <ele>68.1</ele>
        <time>2020-07-02T07:01:41Z</time>
      </trkpt>
      <trkpt lat="48.81412" lon="2.27833">
        <ele>68.2</ele>
        <time>2020-07-02T07:01:42Z</time>
      </trkpt>
      <trkpt lat="48.81408" lon="2.27837">
        <ele>68.2</ele>
        <time>2020-07-02T07:01:43Z</time>
      </trkpt>
      <trkpt lat="48.81404" lon="2.2784">
        <ele>68.3</ele>
        <time>2020-07-02T07:01:44Z</time>
      </trkpt>
      <trkpt lat="48.81401" lon="2.27845">
        <ele>68.3</ele>
        <time>2020-07-02T07:01:45Z</time>
      </trkpt>
      <trkpt lat="48.81397" lon="2.27849">
        <ele>68.4</ele>
        <time>2020-07-02T07:01:46Z</time>
      </trkpt>
      <trkpt lat="48.81392" lon="2.27854">
        <ele>68.4</ele>
        <time>2020-07-02T07:01:47Z</time>
      </trkpt>
      <trkpt lat="48.81386" lon="2.27858">
        <ele>68.4</ele>
        <time>2020-07-02T07:01:48Z</time>
      </trkpt>
      <trkpt lat="48.81382" lon="2.27861">
        <ele>68.4</ele>
        <time>2020-07-02T07:01:49Z</time>
      </trkpt>
      <trkpt lat="48.81379" lon="2.27865">
        <ele>68.5</ele>
        <time>2020-07-02T07:01:50Z</time>
      </trkpt>
      <trkpt lat="48.81374" lon="2.27869">
        <ele>68.5</ele>
        <time>2020-07-02T07:01:51Z</time>
      </trkpt>
      <trkpt lat="48.81372" lon="2.27872">
        <ele>68.6</ele>
        <time>2020-07-02T07:01:52Z</time>
      </trkpt>
      <trkpt lat="48.81369" lon="2.27877">
        <ele>68.7</ele>
        <time>2020-07-02T07:01:53Z</time>
      </trkpt>
      <trkpt lat="48.81366" lon="2.27881">
        <ele>68.7</ele>
        <time>2020-07-02T07:01:54Z</time>
      </trkpt>
      <trkpt lat="48.81362" lon="2.27886">
        <ele>68.7</ele>
        <time>2020-07-02T07:01:55Z</time>
      </trkpt>
      <trkpt lat="48.81359" lon="2.27889">
        <ele>68.8</ele>
        <time>2020-07-02T07:01:56Z</time>
      </trkpt>
      <trkpt lat="48.81356" lon="2.27893">
        <ele>68.9</ele>
        <time>2020-07-02T07:01:57Z</time>
      </trkpt>
      <trkpt lat="48.81352" lon="2.27898">
        <ele>69.1</ele>
        <time>2020-07-02T07:01:58Z</time>
      </trkpt>
      <trkpt lat="48.81347" lon="2.27903">
        <ele>69.4</ele>
        <time>2020-07-02T07:01:59Z</time>
      </trkpt>
      <trkpt lat="48.81342" lon="2.27907">
        <ele>69.6</ele>
        <time>2020-07-02T07:02:00Z</time>
      </trkpt>
      <trkpt lat="48.81337" lon="2.27912">
        <ele>69.8</ele>
        <time>2020-07-02T07:02:01Z</time>
      </trkpt>
      <trkpt lat="48.81333" lon="2.27919">
        <ele>70</ele>
        <time>2020-07-02T07:02:02Z</time>
      </trkpt>
      <trkpt lat="48.8133" lon="2.27922">
        <ele>70.2</ele>
        <time>2020-07-02T07:02:03Z</time>
      </trkpt>
      <trkpt lat="48.81325" lon="2.27926">
        <ele>70.4</ele>
        <time>2020-07-02T07:02:04Z</time>
      </trkpt>
      <trkpt lat="48.81322" lon="2.2793">
        <ele>70.6</ele>
        <time>2020-07-02T07:02:05Z</time>
      </trkpt>
      <trkpt lat="48.81318" lon="2.27934">
        <ele>70.7</ele>
        <time>2020-07-02T07:02:06Z</time>
      </trkpt>
      <trkpt lat="48.81313" lon="2.27938">
        <ele>70.9</ele>
        <time>2020-07-02T07:02:07Z</time>
      </trkpt>
      <trkpt lat="48.81309" lon="2.27941">
        <ele>71.1</ele>
        <time>2020-07-02T07:02:08Z</time>
      </trkpt>
      <trkpt lat="48.81308" lon="2.27942">
        <ele>71.1</ele>
        <time>2020-07-02T07:02:09Z</time>
      </trkpt>
      <trkpt lat="48.81304" lon="2.27946">
        <ele>71.3</ele>
        <time>2020-07-02T07:02:10Z</time>
      </trkpt>
      <trkpt lat="48.81299" lon="2.27949">
        <ele>71.5</ele>
        <time>2020-07-02T07:02:11Z</time>
      </trkpt>
      <trkpt lat="48.81294" lon="2.27952">
        <ele>71.7</ele>
        <time>2020-07-02T07:02:12Z</time>
      </trkpt>
      <trkpt lat="48.81291" lon="2.27956">
        <ele>71.8</ele>
        <time>2020-07-02T07:02:13Z</time>
      </trkpt>
      <trkpt lat="48.81286" lon="2.27961">
        <ele>72</ele>
        <time>2020-07-02T07:02:14Z</time>
      </trkpt>
      <trkpt lat="48.81283" lon="2.27964">
        <ele>72.1</ele>
        <time>2020-07-02T07:02:15Z</time>
      </trkpt>
      <trkpt lat="48.81279" lon="2.27968">
        <ele>72.3</ele>
        <time>2020-07-02T07:02:16Z</time>
      </trkpt>
      <trkpt lat="48.81274" lon="2.27972">
        <ele>72.4</ele>
        <time>2020-07-02T07:02:17Z</time>
      </trkpt>
      <trkpt lat="48.81271" lon="2.27975">
        <ele>72.5</ele>
        <time>2020-07-02T07:02:18Z</time>
      </trkpt>
      <trkpt lat="48.81268" lon="2.27979">
        <ele>72.6</ele>
        <time>2020-07-02T07:02:19Z</time>
      </trkpt>
      <trkpt lat="48.81265" lon="2.27983">
        <ele>72.8</ele>
        <time>2020-07-02T07:02:20Z</time>
      </trkpt>
      <trkpt lat="48.81263" lon="2.27987">
        <ele>72.9</ele>
        <time>2020-07-02T07:02:21Z</time>
      </trkpt>
      <trkpt lat="48.8126" lon="2.27991">
        <ele>73</ele>
        <time>2020-07-02T07:02:22Z</time>
      </trkpt>
      <trkpt lat="48.81257" lon="2.27994">
        <ele>73.2</ele>
        <time>2020-07-02T07:02:23Z</time>
      </trkpt>
      <trkpt lat="48.81254" lon="2.27998">
        <ele>73.3</ele>
        <time>2020-07-02T07:02:24Z</time>
      </trkpt>
      <trkpt lat="48.8125" lon="2.28001">
        <ele>73.5</ele>
        <time>2020-07-02T07:02:25Z</time>
      </trkpt>
      <trkpt lat="48.81244" lon="2.28007">
        <ele>73.7</ele>
        <time>2020-07-02T07:02:26Z</time>
      </trkpt>
      <trkpt lat="48.8124" lon="2.28011">
        <ele>73.9</ele>
        <time>2020-07-02T07:02:27Z</time>
      </trkpt>
      <trkpt lat="48.81236" lon="2.28013">
        <ele>74</ele>
        <time>2020-07-02T07:02:28Z</time>
      </trkpt>
      <trkpt lat="48.81232" lon="2.28016">
        <ele>74.1</ele>
        <time>2020-07-02T07:02:29Z</time>
      </trkpt>
      <trkpt lat="48.8123" lon="2.28019">
        <ele>74.2</ele>
        <time>2020-07-02T07:02:30Z</time>
      </trkpt>
      <trkpt lat="48.81228" lon="2.28022">
        <ele>74.3</ele>
        <time>2020-07-02T07:02:31Z</time>
      </trkpt>
      <trkpt lat="48.81226" lon="2.28024">
        <ele>74.4</ele>
        <time>2020-07-02T07:02:32Z</time>
      </trkpt>
      <trkpt lat="48.81223" lon="2.28027">
        <ele>74.6</ele>
        <time>2020-07-02T07:02:33Z</time>
      </trkpt>
      <trkpt lat="48.8122" lon="2.2803">
        <ele>74.7</ele>
        <time>2020-07-02T07:02:34Z</time>
      </trkpt>
      <trkpt lat="48.81217" lon="2.28033">
        <ele>74.8</ele>
        <time>2020-07-02T07:02:35Z</time>
      </trkpt>
      <trkpt lat="48.81214" lon="2.28036">
        <ele>74.9</ele>
        <time>2020-07-02T07:02:36Z</time>
      </trkpt>
      <trkpt lat="48.81211" lon="2.28039">
        <ele>75</ele>
        <time>2020-07-02T07:02:37Z</time>
      </trkpt>
      <trkpt lat="48.81207" lon="2.28043">
        <ele>75.2</ele>
        <time>2020-07-02T07:02:38Z</time>
      </trkpt>
      <trkpt lat="48.81203" lon="2.28046">
        <ele>75.6</ele>
        <time>2020-07-02T07:02:39Z</time>
      </trkpt>
      <trkpt lat="48.81199" lon="2.28052">
        <ele>76</ele>
        <time>2020-07-02T07:02:40Z</time>
      </trkpt>
      <trkpt lat="48.81194" lon="2.28056">
        <ele>76.3</ele>
        <time>2020-07-02T07:02:41Z</time>
      </trkpt>
      <trkpt lat="48.8119" lon="2.28061">
        <ele>76.7</ele>
        <time>2020-07-02T07:02:42Z</time>
      </trkpt>
      <trkpt lat="48.81185" lon="2.28066">
        <ele>77</ele>
        <time>2020-07-02T07:02:43Z</time>
      </trkpt>
      <trkpt lat="48.81182" lon="2.28071">
        <ele>77</ele>
        <time>2020-07-02T07:02:44Z</time>
      </trkpt>
      <trkpt lat="48.81178" lon="2.28074">
        <ele>77.1</ele>
        <time>2020-07-02T07:02:45Z</time>
      </trkpt>
      <trkpt lat="48.81174" lon="2.28077">
        <ele>77.1</ele>
        <time>2020-07-02T07:02:46Z</time>
      </trkpt>
      <trkpt lat="48.81171" lon="2.2808">
        <ele>77.2</ele>
        <time>2020-07-02T07:02:47Z</time>
      </trkpt>
      <trkpt lat="48.81168" lon="2.28082">
        <ele>77.2</ele>
        <time>2020-07-02T07:02:48Z</time>
      </trkpt>
      <trkpt lat="48.81164" lon="2.28085">
        <ele>77.3</ele>
        <time>2020-07-02T07:02:49Z</time>
      </trkpt>
      <trkpt lat="48.81161" lon="2.28089">
        <ele>77.4</ele>
        <time>2020-07-02T07:02:50Z</time>
      </trkpt>
      <trkpt lat="48.81157" lon="2.28092">
        <ele>77.5</ele>
        <time>2020-07-02T07:02:51Z</time>
      </trkpt>
      <trkpt lat="48.81152" lon="2.28095">
        <ele>77.6</ele>
        <time>2020-07-02T07:02:52Z</time>
      </trkpt>
      <trkpt lat="48.81147" lon="2.28098">
        <ele>77.8</ele>
        <time>2020-07-02T07:02:53Z</time>
      </trkpt>
      <trkpt lat="48.81144" lon="2.28102">
        <ele>77.9</ele>
        <time>2020-07-02T07:02:54Z</time>
      </trkpt>
      <trkpt lat="48.81141" lon="2.28106">
        <ele>78</ele>
        <time>2020-07-02T07:02:55Z</time>
      </trkpt>
      <trkpt lat="48.81138" lon="2.28109">
        <ele>78.1</ele>
        <time>2020-07-02T07:02:56Z</time>
      </trkpt>
      <trkpt lat="48.81135" lon="2.28112">
        <ele>78.2</ele>
        <time>2020-07-02T07:02:57Z</time>
      </trkpt>
      <trkpt lat="48.81132" lon="2.28115">
        <ele>78.3</ele>
        <time>2020-07-02T07:02:58Z</time>
      </trkpt>
      <trkpt lat="48.81129" lon="2.28119">
        <ele>78.4</ele>
        <time>2020-07-02T07:02:59Z</time>
      </trkpt>
      <trkpt lat="48.81125" lon="2.28123">
        <ele>78.6</ele>
        <time>2020-07-02T07:03:00Z</time>
      </trkpt>
      <trkpt lat="48.81121" lon="2.28127">
        <ele>78.7</ele>
        <time>2020-07-02T07:03:01Z</time>
      </trkpt>
      <trkpt lat="48.81117" lon="2.2813">
        <ele>78.8</ele>
        <time>2020-07-02T07:03:02Z</time>
      </trkpt>
      <trkpt lat="48.81114" lon="2.28133">
        <ele>79</ele>
        <time>2020-07-02T07:03:03Z</time>
      </trkpt>
      <trkpt lat="48.81111" lon="2.28137">
        <ele>79.1</ele>
        <time>2020-07-02T07:03:04Z</time>
      </trkpt>
      <trkpt lat="48.81108" lon="2.28141">
        <ele>79.2</ele>
        <time>2020-07-02T07:03:05Z</time>
      </trkpt>
      <trkpt lat="48.81105" lon="2.28144">
        <ele>79.3</ele>
        <time>2020-07-02T07:03:06Z</time>
      </trkpt>
      <trkpt lat="48.81101" lon="2.28149">
        <ele>79.4</ele>
        <time>2020-07-02T07:03:07Z</time>
      </trkpt>
      <trkpt lat="48.81097" lon="2.28153">
        <ele>79.5</ele>
        <time>2020-07-02T07:03:08Z</time>
      </trkpt>
      <trkpt lat="48.81095" lon="2.28157">
        <ele>79.6</ele>
        <time>2020-07-02T07:03:09Z</time>
      </trkpt>
      <trkpt lat="48.81093" lon="2.28158">
        <ele>79.7</ele>
        <time>2020-07-02T07:03:10Z</time>
      </trkpt>
      <trkpt lat="48.8109" lon="2.28163">
        <ele>79.8</ele>
        <time>2020-07-02T07:03:11Z</time>
      </trkpt>
      <trkpt lat="48.81088" lon="2.28165">
        <ele>79.9</ele>
        <time>2020-07-02T07:03:12Z</time>
      </trkpt>
      <trkpt lat="48.81083" lon="2.28164">
        <ele>80</ele>
        <time>2020-07-02T07:03:13Z</time>
      </trkpt>
      <trkpt lat="48.81079" lon="2.28166">
        <ele>80.1</ele>
        <time>2020-07-02T07:03:14Z</time>
      </trkpt>
      <trkpt lat="48.81076" lon="2.28169">
        <ele>80.2</ele>
        <time>2020-07-02T07:03:15Z</time>
      </trkpt>
      <trkpt lat="48.81072" lon="2.28173">
        <ele>80.3</ele>
        <time>2020-07-02T07:03:16Z</time>
      </trkpt>
      <trkpt lat="48.81071" lon="2.28175">
        <ele>80.4</ele>
        <time>2020-07-02T07:03:17Z</time>
      </trkpt>
      <trkpt lat="48.81067" lon="2.28179">
        <ele>80.4</ele>
        <time>2020-07-02T07:03:18Z</time>
      </trkpt>
      <trkpt lat="48.81064" lon="2.28183">
        <ele>80.5</ele>
        <time>2020-07-02T07:03:19Z</time>
      </trkpt>
      <trkpt lat="48.81061" lon="2.28186">
        <ele>80.6</ele>
        <time>2020-07-02T07:03:20Z</time>
      </trkpt>
      <trkpt lat="48.81058" lon="2.28189">
        <ele>80.7</ele>
        <time>2020-07-02T07:03:21Z</time>
      </trkpt>
      <trkpt lat="48.81055" lon="2.28193">
        <ele>80.8</ele>
        <time>2020-07-02T07:03:22Z</time>
      </trkpt>
      <trkpt lat="48.81052" lon="2.28196">
        <ele>81</ele>
        <time>2020-07-02T07:03:23Z</time>
      </trkpt>
      <trkpt lat="48.81049" lon="2.282">
        <ele>81.1</ele>
        <time>2020-07-02T07:03:24Z</time>
      </trkpt>
      <trkpt lat="48.81047" lon="2.28204">
        <ele>81.2</ele>
        <time>2020-07-02T07:03:25Z</time>
      </trkpt>
      <trkpt lat="48.81044" lon="2.28208">
        <ele>81.4</ele>
        <time>2020-07-02T07:03:26Z</time>
      </trkpt>
      <trkpt lat="48.81043" lon="2.2821">
        <ele>81.4</ele>
        <time>2020-07-02T07:03:27Z</time>
      </trkpt>
      <trkpt lat="48.8104" lon="2.28213">
        <ele>81.5</ele>
        <time>2020-07-02T07:03:28Z</time>
      </trkpt>
      <trkpt lat="48.81037" lon="2.28217">
        <ele>81.6</ele>
        <time>2020-07-02T07:03:29Z</time>
      </trkpt>
      <trkpt lat="48.81032" lon="2.2822">
        <ele>81.7</ele>
        <time>2020-07-02T07:03:30Z</time>
      </trkpt>
      <trkpt lat="48.81028" lon="2.28223">
        <ele>81.8</ele>
        <time>2020-07-02T07:03:31Z</time>
      </trkpt>
      <trkpt lat="48.81023" lon="2.28227">
        <ele>82</ele>
        <time>2020-07-02T07:03:32Z</time>
      </trkpt>
      <trkpt lat="48.81019" lon="2.2823">
        <ele>82.1</ele>
        <time>2020-07-02T07:03:33Z</time>
      </trkpt>
      <trkpt lat="48.81015" lon="2.28233">
        <ele>82.2</ele>
        <time>2020-07-02T07:03:34Z</time>
      </trkpt>
      <trkpt lat="48.81011" lon="2.28236">
        <ele>82.3</ele>
        <time>2020-07-02T07:03:35Z</time>
      </trkpt>
      <trkpt lat="48.81007" lon="2.28238">
        <ele>82.4</ele>
        <time>2020-07-02T07:03:36Z</time>
      </trkpt>
      <trkpt lat="48.81003" lon="2.28242">
        <ele>82.5</ele>
        <time>2020-07-02T07:03:37Z</time>
      </trkpt>
      <trkpt lat="48.80999" lon="2.28247">
        <ele>82.6</ele>
        <time>2020-07-02T07:03:38Z</time>
      </trkpt>
      <trkpt lat="48.80994" lon="2.28251">
        <ele>82.8</ele>
        <time>2020-07-02T07:03:39Z</time>
      </trkpt>
      <trkpt lat="48.80991" lon="2.28254">
        <ele>82.8</ele>
        <time>2020-07-02T07:03:40Z</time>
      </trkpt>
      <trkpt lat="48.80988" lon="2.28257">
        <ele>82.8</ele>
        <time>2020-07-02T07:03:41Z</time>
      </trkpt>
      <trkpt lat="48.80985" lon="2.28261">
        <ele>82.9</ele>
        <time>2020-07-02T07:03:42Z</time>
      </trkpt>
      <trkpt lat="48.8098" lon="2.28267">
        <ele>83</ele>
        <time>2020-07-02T07:03:43Z</time>
      </trkpt>
      <trkpt lat="48.80977" lon="2.28271">
        <ele>83</ele>
        <time>2020-07-02T07:03:44Z</time>
      </trkpt>
      <trkpt lat="48.80972" lon="2.28276">
        <ele>83.1</ele>
        <time>2020-07-02T07:03:45Z</time>
      </trkpt>
      <trkpt lat="48.80966" lon="2.28281">
        <ele>83.2</ele>
        <time>2020-07-02T07:03:46Z</time>
      </trkpt>
      <trkpt lat="48.80962" lon="2.28285">
        <ele>83.3</ele>
        <time>2020-07-02T07:03:47Z</time>
      </trkpt>
      <trkpt lat="48.8096" lon="2.28288">
        <ele>83.3</ele>
        <time>2020-07-02T07:03:48Z</time>
      </trkpt>
      <trkpt lat="48.80957" lon="2.28293">
        <ele>83.4</ele>
        <time>2020-07-02T07:03:49Z</time>
      </trkpt>
      <trkpt lat="48.80952" lon="2.283">
        <ele>83.5</ele>
        <time>2020-07-02T07:03:50Z</time>
      </trkpt>
      <trkpt lat="48.80946" lon="2.28306">
        <ele>83.6</ele>
        <time>2020-07-02T07:03:51Z</time>
      </trkpt>
      <trkpt lat="48.80941" lon="2.2831">
        <ele>83.8</ele>
        <time>2020-07-02T07:03:52Z</time>
      </trkpt>
      <trkpt lat="48.80935" lon="2.28315">
        <ele>83.9</ele>
        <time>2020-07-02T07:03:53Z</time>
      </trkpt>
      <trkpt lat="48.80931" lon="2.28319">
        <ele>84</ele>
        <time>2020-07-02T07:03:54Z</time>
      </trkpt>
      <trkpt lat="48.80926" lon="2.28323">
        <ele>84.1</ele>
        <time>2020-07-02T07:03:55Z</time>
      </trkpt>
      <trkpt lat="48.80922" lon="2.28329">
        <ele>84.1</ele>
        <time>2020-07-02T07:03:56Z</time>
      </trkpt>
      <trkpt lat="48.80918" lon="2.28333">
        <ele>84.2</ele>
        <time>2020-07-02T07:03:57Z</time>
      </trkpt>
      <trkpt lat="48.80913" lon="2.28339">
        <ele>84.3</ele>
        <time>2020-07-02T07:03:58Z</time>
      </trkpt>
      <trkpt lat="48.80908" lon="2.28343">
        <ele>84.4</ele>
        <time>2020-07-02T07:03:59Z</time>
      </trkpt>
      <trkpt lat="48.80902" lon="2.28347">
        <ele>84.5</ele>
        <time>2020-07-02T07:04:00Z</time>
      </trkpt>
      <trkpt lat="48.80899" lon="2.28351">
        <ele>84.6</ele>
        <time>2020-07-02T07:04:01Z</time>
      </trkpt>
      <trkpt lat="48.80897" lon="2.28353">
        <ele>84.7</ele>
        <time>2020-07-02T07:04:02Z</time>
      </trkpt>
      <trkpt lat="48.80893" lon="2.28357">
        <ele>84.8</ele>
        <time>2020-07-02T07:04:03Z</time>
      </trkpt>
      <trkpt lat="48.80889" lon="2.2836">
        <ele>84.9</ele>
        <time>2020-07-02T07:04:04Z</time>
      </trkpt>
      <trkpt lat="48.80885" lon="2.28365">
        <ele>85</ele>
        <time>2020-07-02T07:04:05Z</time>
      </trkpt>
      <trkpt lat="48.80881" lon="2.28369">
        <ele>85</ele>
        <time>2020-07-02T07:04:06Z</time>
      </trkpt>
      <trkpt lat="48.80878" lon="2.28374">
        <ele>85.1</ele>
        <time>2020-07-02T07:04:07Z</time>
      </trkpt>
      <trkpt lat="48.80874" lon="2.28379">
        <ele>85.2</ele>
        <time>2020-07-02T07:04:08Z</time>
      </trkpt>
      <trkpt lat="48.80871" lon="2.28383">
        <ele>85.3</ele>
        <time>2020-07-02T07:04:09Z</time>
      </trkpt>
      <trkpt lat="48.80867" lon="2.28387">
        <ele>85.3</ele>
        <time>2020-07-02T07:04:10Z</time>
      </trkpt>
      <trkpt lat="48.80863" lon="2.28391">
        <ele>85.4</ele>
        <time>2020-07-02T07:04:11Z</time>
      </trkpt>
      <trkpt lat="48.80858" lon="2.28396">
        <ele>85.5</ele>
        <time>2020-07-02T07:04:12Z</time>
      </trkpt>
      <trkpt lat="48.80854" lon="2.284">
        <ele>85.6</ele>
        <time>2020-07-02T07:04:13Z</time>
      </trkpt>
      <trkpt lat="48.8085" lon="2.28404">
        <ele>85.7</ele>
        <time>2020-07-02T07:04:14Z</time>
      </trkpt>
      <trkpt lat="48.80846" lon="2.28408">
        <ele>85.8</ele>
        <time>2020-07-02T07:04:15Z</time>
      </trkpt>
      <trkpt lat="48.80842" lon="2.28413">
        <ele>85.9</ele>
        <time>2020-07-02T07:04:16Z</time>
      </trkpt>
      <trkpt lat="48.80838" lon="2.28417">
        <ele>86</ele>
        <time>2020-07-02T07:04:17Z</time>
      </trkpt>
      <trkpt lat="48.80835" lon="2.28421">
        <ele>86.1</ele>
        <time>2020-07-02T07:04:18Z</time>
      </trkpt>
      <trkpt lat="48.80832" lon="2.28423">
        <ele>86.2</ele>
        <time>2020-07-02T07:04:19Z</time>
      </trkpt>
      <trkpt lat="48.80829" lon="2.28425">
        <ele>86.2</ele>
        <time>2020-07-02T07:04:20Z</time>
      </trkpt>
      <trkpt lat="48.80827" lon="2.28429">
        <ele>86.3</ele>
        <time>2020-07-02T07:04:21Z</time>
      </trkpt>
      <trkpt lat="48.80823" lon="2.2843">
        <ele>86.4</ele>
        <time>2020-07-02T07:04:22Z</time>
      </trkpt>
      <trkpt lat="48.80819" lon="2.28433">
        <ele>86.4</ele>
        <time>2020-07-02T07:04:23Z</time>
      </trkpt>
      <trkpt lat="48.80815" lon="2.28435">
        <ele>86.6</ele>
        <time>2020-07-02T07:04:24Z</time>
      </trkpt>
      <trkpt lat="48.8081" lon="2.28438">
        <ele>86.7</ele>
        <time>2020-07-02T07:04:25Z</time>
      </trkpt>
      <trkpt lat="48.80806" lon="2.28442">
        <ele>86.8</ele>
        <time>2020-07-02T07:04:26Z</time>
      </trkpt>
      <trkpt lat="48.80801" lon="2.28446">
        <ele>86.9</ele>
        <time>2020-07-02T07:04:27Z</time>
      </trkpt>
      <trkpt lat="48.80797" lon="2.2845">
        <ele>87</ele>
        <time>2020-07-02T07:04:28Z</time>
      </trkpt>
      <trkpt lat="48.80793" lon="2.28454">
        <ele>87.1</ele>
        <time>2020-07-02T07:04:29Z</time>
      </trkpt>
      <trkpt lat="48.80788" lon="2.28458">
        <ele>87.2</ele>
        <time>2020-07-02T07:04:30Z</time>
      </trkpt>
      <trkpt lat="48.80784" lon="2.28463">
        <ele>87.4</ele>
        <time>2020-07-02T07:04:31Z</time>
      </trkpt>
      <trkpt lat="48.8078" lon="2.28466">
        <ele>87.5</ele>
        <time>2020-07-02T07:04:32Z</time>
      </trkpt>
      <trkpt lat="48.80777" lon="2.28468">
        <ele>87.6</ele>
        <time>2020-07-02T07:04:33Z</time>
      </trkpt>
      <trkpt lat="48.80774" lon="2.28471">
        <ele>87.6</ele>
        <time>2020-07-02T07:04:34Z</time>
      </trkpt>
      <trkpt lat="48.80771" lon="2.28472">
        <ele>87.7</ele>
        <time>2020-07-02T07:04:35Z</time>
      </trkpt>
      <trkpt lat="48.80767" lon="2.28475">
        <ele>87.9</ele>
        <time>2020-07-02T07:04:36Z</time>
      </trkpt>
      <trkpt lat="48.80764" lon="2.28479">
        <ele>88</ele>
        <time>2020-07-02T07:04:37Z</time>
      </trkpt>
      <trkpt lat="48.80761" lon="2.28484">
        <ele>88.1</ele>
        <time>2020-07-02T07:04:38Z</time>
      </trkpt>
      <trkpt lat="48.80758" lon="2.28489">
        <ele>88.2</ele>
        <time>2020-07-02T07:04:39Z</time>
      </trkpt>
      <trkpt lat="48.80755" lon="2.28493">
        <ele>88.3</ele>
        <time>2020-07-02T07:04:40Z</time>
      </trkpt>
      <trkpt lat="48.80751" lon="2.28498">
        <ele>88.3</ele>
        <time>2020-07-02T07:04:41Z</time>
      </trkpt>
      <trkpt lat="48.80746" lon="2.28503">
        <ele>88.4</ele>
        <time>2020-07-02T07:04:42Z</time>
      </trkpt>
      <trkpt lat="48.80743" lon="2.28508">
        <ele>88.5</ele>
        <time>2020-07-02T07:04:43Z</time>
      </trkpt>
      <trkpt lat="48.80737" lon="2.28513">
        <ele>88.6</ele>
        <time>2020-07-02T07:04:44Z</time>
      </trkpt>
      <trkpt lat="48.80733" lon="2.28518">
        <ele>88.8</ele>
        <time>2020-07-02T07:04:45Z</time>
      </trkpt>
      <trkpt lat="48.80728" lon="2.28523">
        <ele>88.9</ele>
        <time>2020-07-02T07:04:46Z</time>
      </trkpt>
      <trkpt lat="48.80723" lon="2.28528">
        <ele>89</ele>
        <time>2020-07-02T07:04:47Z</time>
      </trkpt>
      <trkpt lat="48.80718" lon="2.28532">
        <ele>89.1</ele>
        <time>2020-07-02T07:04:48Z</time>
      </trkpt>
      <trkpt lat="48.80714" lon="2.28537">
        <ele>89.1</ele>
        <time>2020-07-02T07:04:49Z</time>
      </trkpt>
      <trkpt lat="48.80711" lon="2.28541">
        <ele>89.2</ele>
        <time>2020-07-02T07:04:50Z</time>
      </trkpt>
      <trkpt lat="48.80707" lon="2.28546">
        <ele>89.3</ele>
        <time>2020-07-02T07:04:51Z</time>
      </trkpt>
      <trkpt lat="48.80703" lon="2.2855">
        <ele>89.4</ele>
        <time>2020-07-02T07:04:52Z</time>
      </trkpt>
      <trkpt lat="48.807" lon="2.28554">
        <ele>89.4</ele>
        <time>2020-07-02T07:04:53Z</time>
      </trkpt>
      <trkpt lat="48.80697" lon="2.28558">
        <ele>89.5</ele>
        <time>2020-07-02T07:04:54Z</time>
      </trkpt>
      <trkpt lat="48.80693" lon="2.28562">
        <ele>89.6</ele>
        <time>2020-07-02T07:04:55Z</time>
      </trkpt>
      <trkpt lat="48.80689" lon="2.28566">
        <ele>89.7</ele>
        <time>2020-07-02T07:04:56Z</time>
      </trkpt>
      <trkpt lat="48.80686" lon="2.2857">
        <ele>89.7</ele>
        <time>2020-07-02T07:04:57Z</time>
      </trkpt>
      <trkpt lat="48.80682" lon="2.28574">
        <ele>89.8</ele>
        <time>2020-07-02T07:04:58Z</time>
      </trkpt>
      <trkpt lat="48.80678" lon="2.28577">
        <ele>89.9</ele>
        <time>2020-07-02T07:04:59Z</time>
      </trkpt>
      <trkpt lat="48.80673" lon="2.28579">
        <ele>90.1</ele>
        <time>2020-07-02T07:05:00Z</time>
      </trkpt>
      <trkpt lat="48.80669" lon="2.28583">
        <ele>90.2</ele>
        <time>2020-07-02T07:05:01Z</time>
      </trkpt>
      <trkpt lat="48.80666" lon="2.28587">
        <ele>90.3</ele>
        <time>2020-07-02T07:05:02Z</time>
      </trkpt>
      <trkpt lat="48.80662" lon="2.28591">
        <ele>90.4</ele>
        <time>2020-07-02T07:05:03Z</time>
      </trkpt>
      <trkpt lat="48.80657" lon="2.28595">
        <ele>90.5</ele>
        <time>2020-07-02T07:05:04Z</time>
      </trkpt>
      <trkpt lat="48.80652" lon="2.28599">
        <ele>90.6</ele>
        <time>2020-07-02T07:05:05Z</time>
      </trkpt>
      <trkpt lat="48.80647" lon="2.28603">
        <ele>90.7</ele>
        <time>2020-07-02T07:05:06Z</time>
      </trkpt>
      <trkpt lat="48.80643" lon="2.28607">
        <ele>90.8</ele>
        <time>2020-07-02T07:05:07Z</time>
      </trkpt>
      <trkpt lat="48.80639" lon="2.28612">
        <ele>91</ele>
        <time>2020-07-02T07:05:08Z</time>
      </trkpt>
      <trkpt lat="48.80635" lon="2.28616">
        <ele>91.1</ele>
        <time>2020-07-02T07:05:09Z</time>
      </trkpt>
      <trkpt lat="48.8063" lon="2.28619">
        <ele>91.2</ele>
        <time>2020-07-02T07:05:10Z</time>
      </trkpt>
      <trkpt lat="48.80627" lon="2.28622">
        <ele>91.2</ele>
        <time>2020-07-02T07:05:11Z</time>
      </trkpt>
      <trkpt lat="48.80624" lon="2.28625">
        <ele>91.3</ele>
        <time>2020-07-02T07:05:12Z</time>
      </trkpt>
      <trkpt lat="48.80622" lon="2.2863">
        <ele>91.4</ele>
        <time>2020-07-02T07:05:13Z</time>
      </trkpt>
      <trkpt lat="48.80619" lon="2.28632">
        <ele>91.4</ele>
        <time>2020-07-02T07:05:14Z</time>
      </trkpt>
      <trkpt lat="48.80617" lon="2.28635">
        <ele>91.6</ele>
        <time>2020-07-02T07:05:15Z</time>
      </trkpt>
      <trkpt lat="48.80615" lon="2.28637">
        <ele>91.6</ele>
        <time>2020-07-02T07:05:16Z</time>
      </trkpt>
      <trkpt lat="48.80614" lon="2.28639">
        <ele>91.6</ele>
        <time>2020-07-02T07:05:17Z</time>
      </trkpt>
      <trkpt lat="48.80614" lon="2.2864">
        <ele>91.6</ele>
        <time>2020-07-02T07:05:18Z</time>
      </trkpt>
      <trkpt lat="48.80614" lon="2.28639">
        <ele>91.6</ele>
        <time>2020-07-02T07:05:19Z</time>
      </trkpt>
      <trkpt lat="48.80614" lon="2.28638">
        <ele>91.6</ele>
        <time>2020-07-02T07:05:20Z</time>
      </trkpt>
      <trkpt lat="48.80615" lon="2.28638">
        <ele>91.7</ele>
        <time>2020-07-02T07:05:21Z</time>
      </trkpt>
      <trkpt lat="48.80615" lon="2.28638">
        <ele>91.7</ele>
        <time>2020-07-02T07:05:22Z</time>
      </trkpt>
      <trkpt lat="48.80615" lon="2.28639">
        <ele>91.7</ele>
        <time>2020-07-02T07:05:23Z</time>
      </trkpt>
      <trkpt lat="48.80615" lon="2.28639">
        <ele>91.7</ele>
        <time>2020-07-02T07:05:24Z</time>
      </trkpt>
      <trkpt lat="48.80615" lon="2.28638">
        <ele>91.7</ele>
        <time>2020-07-02T07:05:25Z</time>
      </trkpt>
      <trkpt lat="48.80615" lon="2.28639">
        <ele>91.7</ele>
        <time>2020-07-02T07:05:26Z</time>
      </trkpt>
      <trkpt lat="48.80615" lon="2.28639">
        <ele>91.7</ele>
        <time>2020-07-02T07:05:27Z</time>
      </trkpt>
      <trkpt lat="48.80614" lon="2.28639">
        <ele>91.7</ele>
        <time>2020-07-02T07:05:28Z</time>
      </trkpt>
      <trkpt lat="48.80613" lon="2.28639">
        <ele>91.7</ele>
        <time>2020-07-02T07:05:29Z</time>
      </trkpt>
      <trkpt lat="48.8061" lon="2.28642">
        <ele>91.8</ele>
        <time>2020-07-02T07:05:30Z</time>
      </trkpt>
      <trkpt lat="48.80609" lon="2.28643">
        <ele>91.8</ele>
        <time>2020-07-02T07:05:31Z</time>
      </trkpt>
      <trkpt lat="48.80606" lon="2.28645">
        <ele>91.8</ele>
        <time>2020-07-02T07:05:32Z</time>
      </trkpt>
      <trkpt lat="48.80601" lon="2.28648">
        <ele>91.9</ele>
        <time>2020-07-02T07:05:33Z</time>
      </trkpt>
      <trkpt lat="48.80597" lon="2.2865">
        <ele>92</ele>
        <time>2020-07-02T07:05:34Z</time>
      </trkpt>
      <trkpt lat="48.80593" lon="2.28653">
        <ele>92</ele>
        <time>2020-07-02T07:05:35Z</time>
      </trkpt>
      <trkpt lat="48.80589" lon="2.28656">
        <ele>92.1</ele>
        <time>2020-07-02T07:05:36Z</time>
      </trkpt>
      <trkpt lat="48.80585" lon="2.28659">
        <ele>92.2</ele>
        <time>2020-07-02T07:05:37Z</time>
      </trkpt>
      <trkpt lat="48.80581" lon="2.28663">
        <ele>92.2</ele>
        <time>2020-07-02T07:05:38Z</time>
      </trkpt>
      <trkpt lat="48.80578" lon="2.28668">
        <ele>92.3</ele>
        <time>2020-07-02T07:05:39Z</time>
      </trkpt>
      <trkpt lat="48.80574" lon="2.28672">
        <ele>92.3</ele>
        <time>2020-07-02T07:05:40Z</time>
      </trkpt>
      <trkpt lat="48.8057" lon="2.28677">
        <ele>92.4</ele>
        <time>2020-07-02T07:05:41Z</time>
      </trkpt>
      <trkpt lat="48.80565" lon="2.28681">
        <ele>92.5</ele>
        <time>2020-07-02T07:05:42Z</time>
      </trkpt>
      <trkpt lat="48.8056" lon="2.28685">
        <ele>92.6</ele>
        <time>2020-07-02T07:05:43Z</time>
      </trkpt>
      <trkpt lat="48.80556" lon="2.28689">
        <ele>92.6</ele>
        <time>2020-07-02T07:05:44Z</time>
      </trkpt>
      <trkpt lat="48.80552" lon="2.28693">
        <ele>92.7</ele>
        <time>2020-07-02T07:05:45Z</time>
      </trkpt>
      <trkpt lat="48.80548" lon="2.28698">
        <ele>92.8</ele>
        <time>2020-07-02T07:05:46Z</time>
      </trkpt>
      <trkpt lat="48.80544" lon="2.28702">
        <ele>92.8</ele>
        <time>2020-07-02T07:05:47Z</time>
      </trkpt>
      <trkpt lat="48.80539" lon="2.28707">
        <ele>92.8</ele>
        <time>2020-07-02T07:05:48Z</time>
      </trkpt>
      <trkpt lat="48.80535" lon="2.28709">
        <ele>92.9</ele>
        <time>2020-07-02T07:05:49Z</time>
      </trkpt>
      <trkpt lat="48.80532" lon="2.28713">
        <ele>93</ele>
        <time>2020-07-02T07:05:50Z</time>
      </trkpt>
      <trkpt lat="48.80527" lon="2.28717">
        <ele>93.1</ele>
        <time>2020-07-02T07:05:51Z</time>
      </trkpt>
      <trkpt lat="48.80523" lon="2.28721">
        <ele>93.2</ele>
        <time>2020-07-02T07:05:52Z</time>
      </trkpt>
      <trkpt lat="48.8052" lon="2.28723">
        <ele>93.2</ele>
        <time>2020-07-02T07:05:53Z</time>
      </trkpt>
      <trkpt lat="48.80515" lon="2.28727">
        <ele>93.3</ele>
        <time>2020-07-02T07:05:54Z</time>
      </trkpt>
      <trkpt lat="48.8051" lon="2.28733">
        <ele>93.4</ele>
        <time>2020-07-02T07:05:55Z</time>
      </trkpt>
      <trkpt lat="48.80506" lon="2.28738">
        <ele>93.5</ele>
        <time>2020-07-02T07:05:56Z</time>
      </trkpt>
      <trkpt lat="48.80501" lon="2.28743">
        <ele>93.6</ele>
        <time>2020-07-02T07:05:57Z</time>
      </trkpt>
      <trkpt lat="48.80498" lon="2.2875">
        <ele>93.6</ele>
        <time>2020-07-02T07:05:58Z</time>
      </trkpt>
      <trkpt lat="48.80493" lon="2.28756">
        <ele>93.8</ele>
        <time>2020-07-02T07:05:59Z</time>
      </trkpt>
      <trkpt lat="48.80489" lon="2.2876">
        <ele>94</ele>
        <time>2020-07-02T07:06:00Z</time>
      </trkpt>
      <trkpt lat="48.80485" lon="2.28765">
        <ele>94.2</ele>
        <time>2020-07-02T07:06:01Z</time>
      </trkpt>
      <trkpt lat="48.80481" lon="2.28769">
        <ele>94.4</ele>
        <time>2020-07-02T07:06:02Z</time>
      </trkpt>
      <trkpt lat="48.80478" lon="2.28773">
        <ele>94.5</ele>
        <time>2020-07-02T07:06:03Z</time>
      </trkpt>
      <trkpt lat="48.80474" lon="2.28779">
        <ele>94.7</ele>
        <time>2020-07-02T07:06:04Z</time>
      </trkpt>
      <trkpt lat="48.8047" lon="2.28783">
        <ele>94.8</ele>
        <time>2020-07-02T07:06:05Z</time>
      </trkpt>
      <trkpt lat="48.80465" lon="2.28785">
        <ele>95</ele>
        <time>2020-07-02T07:06:06Z</time>
      </trkpt>
      <trkpt lat="48.80461" lon="2.28791">
        <ele>95.2</ele>
        <time>2020-07-02T07:06:07Z</time>
      </trkpt>
      <trkpt lat="48.80456" lon="2.28796">
        <ele>95.4</ele>
        <time>2020-07-02T07:06:08Z</time>
      </trkpt>
      <trkpt lat="48.80452" lon="2.28801">
        <ele>95.6</ele>
        <time>2020-07-02T07:06:09Z</time>
      </trkpt>
      <trkpt lat="48.80447" lon="2.28806">
        <ele>95.8</ele>
        <time>2020-07-02T07:06:10Z</time>
      </trkpt>
      <trkpt lat="48.80444" lon="2.28812">
        <ele>96</ele>
        <time>2020-07-02T07:06:11Z</time>
      </trkpt>
      <trkpt lat="48.8044" lon="2.28816">
        <ele>96.2</ele>
        <time>2020-07-02T07:06:12Z</time>
      </trkpt>
      <trkpt lat="48.80437" lon="2.2882">
        <ele>96.4</ele>
        <time>2020-07-02T07:06:13Z</time>
      </trkpt>
      <trkpt lat="48.80433" lon="2.28823">
        <ele>96.5</ele>
        <time>2020-07-02T07:06:14Z</time>
      </trkpt>
      <trkpt lat="48.8043" lon="2.28825">
        <ele>96.7</ele>
        <time>2020-07-02T07:06:15Z</time>
      </trkpt>
      <trkpt lat="48.80426" lon="2.28827">
        <ele>96.8</ele>
        <time>2020-07-02T07:06:16Z</time>
      </trkpt>
      <trkpt lat="48.80423" lon="2.28828">
        <ele>96.9</ele>
        <time>2020-07-02T07:06:17Z</time>
      </trkpt>
      <trkpt lat="48.80421" lon="2.28829">
        <ele>97</ele>
        <time>2020-07-02T07:06:18Z</time>
      </trkpt>
      <trkpt lat="48.8042" lon="2.28829">
        <ele>97.1</ele>
        <time>2020-07-02T07:06:19Z</time>
      </trkpt>
      <trkpt lat="48.80417" lon="2.28832">
        <ele>97.2</ele>
        <time>2020-07-02T07:06:20Z</time>
      </trkpt>
      <trkpt lat="48.80416" lon="2.28832">
        <ele>97.2</ele>
        <time>2020-07-02T07:06:21Z</time>
      </trkpt>
      <trkpt lat="48.80414" lon="2.28835">
        <ele>97.3</ele>
        <time>2020-07-02T07:06:22Z</time>
      </trkpt>
      <trkpt lat="48.80414" lon="2.28836">
        <ele>97.4</ele>
        <time>2020-07-02T07:06:23Z</time>
      </trkpt>
      <trkpt lat="48.80411" lon="2.28838">
        <ele>97.5</ele>
        <time>2020-07-02T07:06:24Z</time>
      </trkpt>
      <trkpt lat="48.80411" lon="2.28839">
        <ele>97.5</ele>
        <time>2020-07-02T07:06:25Z</time>
      </trkpt>
      <trkpt lat="48.80408" lon="2.28842">
        <ele>97.6</ele>
        <time>2020-07-02T07:06:26Z</time>
      </trkpt>
      <trkpt lat="48.80407" lon="2.28843">
        <ele>97.7</ele>
        <time>2020-07-02T07:06:27Z</time>
      </trkpt>
      <trkpt lat="48.80405" lon="2.28844">
        <ele>97.8</ele>
        <time>2020-07-02T07:06:28Z</time>
      </trkpt>
      <trkpt lat="48.80404" lon="2.28844">
        <ele>98.1</ele>
        <time>2020-07-02T07:06:29Z</time>
      </trkpt>
      <trkpt lat="48.80401" lon="2.28843">
        <ele>98.1</ele>
        <time>2020-07-02T07:06:30Z</time>
      </trkpt>
      <trkpt lat="48.80401" lon="2.28843">
        <ele>98.1</ele>
        <time>2020-07-02T07:06:31Z</time>
      </trkpt>
      <trkpt lat="48.804" lon="2.28843">
        <ele>98.1</ele>
        <time>2020-07-02T07:06:32Z</time>
      </trkpt>
      <trkpt lat="48.80396" lon="2.28841">
        <ele>98.1</ele>
        <time>2020-07-02T07:06:33Z</time>
      </trkpt>
      <trkpt lat="48.80395" lon="2.2884">
        <ele>98.1</ele>
        <time>2020-07-02T07:06:34Z</time>
      </trkpt>
      <trkpt lat="48.80392" lon="2.28837">
        <ele>98.3</ele>
        <time>2020-07-02T07:06:35Z</time>
      </trkpt>
      <trkpt lat="48.8039" lon="2.28836">
        <ele>98.3</ele>
        <time>2020-07-02T07:06:36Z</time>
      </trkpt>
      <trkpt lat="48.80388" lon="2.28833">
        <ele>98.3</ele>
        <time>2020-07-02T07:06:37Z</time>
      </trkpt>
      <trkpt lat="48.80386" lon="2.28829">
        <ele>98.3</ele>
        <time>2020-07-02T07:06:38Z</time>
      </trkpt>
      <trkpt lat="48.80384" lon="2.28824">
        <ele>98.2</ele>
        <time>2020-07-02T07:06:39Z</time>
      </trkpt>
      <trkpt lat="48.80382" lon="2.28821">
        <ele>98.2</ele>
        <time>2020-07-02T07:06:40Z</time>
      </trkpt>
      <trkpt lat="48.8038" lon="2.28818">
        <ele>98.2</ele>
        <time>2020-07-02T07:06:41Z</time>
      </trkpt>
      <trkpt lat="48.80378" lon="2.28814">
        <ele>98.1</ele>
        <time>2020-07-02T07:06:42Z</time>
      </trkpt>
      <trkpt lat="48.80375" lon="2.28812">
        <ele>98.1</ele>
        <time>2020-07-02T07:06:43Z</time>
      </trkpt>
      <trkpt lat="48.80373" lon="2.2881">
        <ele>98.1</ele>
        <time>2020-07-02T07:06:44Z</time>
      </trkpt>
      <trkpt lat="48.8037" lon="2.28807">
        <ele>98</ele>
        <time>2020-07-02T07:06:45Z</time>
      </trkpt>
      <trkpt lat="48.80369" lon="2.28805">
        <ele>98</ele>
        <time>2020-07-02T07:06:46Z</time>
      </trkpt>
      <trkpt lat="48.80366" lon="2.28802">
        <ele>98</ele>
        <time>2020-07-02T07:06:47Z</time>
      </trkpt>
      <trkpt lat="48.80363" lon="2.28799">
        <ele>98</ele>
        <time>2020-07-02T07:06:48Z</time>
      </trkpt>
      <trkpt lat="48.80362" lon="2.28798">
        <ele>98</ele>
        <time>2020-07-02T07:06:49Z</time>
      </trkpt>
      <trkpt lat="48.80359" lon="2.28795">
        <ele>98</ele>
        <time>2020-07-02T07:06:50Z</time>
      </trkpt>
      <trkpt lat="48.80356" lon="2.28793">
        <ele>98</ele>
        <time>2020-07-02T07:06:51Z</time>
      </trkpt>
      <trkpt lat="48.80353" lon="2.28791">
        <ele>98</ele>
        <time>2020-07-02T07:06:52Z</time>
      </trkpt>
      <trkpt lat="48.80349" lon="2.28788">
        <ele>98</ele>
        <time>2020-07-02T07:06:53Z</time>
      </trkpt>
      <trkpt lat="48.80347" lon="2.28785">
        <ele>98</ele>
        <time>2020-07-02T07:06:54Z</time>
      </trkpt>
      <trkpt lat="48.80344" lon="2.28782">
        <ele>98</ele>
        <time>2020-07-02T07:06:55Z</time>
      </trkpt>
      <trkpt lat="48.80342" lon="2.28778">
        <ele>98.1</ele>
        <time>2020-07-02T07:06:56Z</time>
      </trkpt>
      <trkpt lat="48.8034" lon="2.28773">
        <ele>98.1</ele>
        <time>2020-07-02T07:06:57Z</time>
      </trkpt>
      <trkpt lat="48.80338" lon="2.28768">
        <ele>98.2</ele>
        <time>2020-07-02T07:06:58Z</time>
      </trkpt>
      <trkpt lat="48.80336" lon="2.28767">
        <ele>98.2</ele>
        <time>2020-07-02T07:06:59Z</time>
      </trkpt>
      <trkpt lat="48.80333" lon="2.28764">
        <ele>98.3</ele>
        <time>2020-07-02T07:07:00Z</time>
      </trkpt>
      <trkpt lat="48.80331" lon="2.28759">
        <ele>98.4</ele>
        <time>2020-07-02T07:07:01Z</time>
      </trkpt>
      <trkpt lat="48.80328" lon="2.28755">
        <ele>98.4</ele>
        <time>2020-07-02T07:07:02Z</time>
      </trkpt>
      <trkpt lat="48.80325" lon="2.28752">
        <ele>98.5</ele>
        <time>2020-07-02T07:07:03Z</time>
      </trkpt>
      <trkpt lat="48.80322" lon="2.28748">
        <ele>98.6</ele>
        <time>2020-07-02T07:07:04Z</time>
      </trkpt>
      <trkpt lat="48.80319" lon="2.28743">
        <ele>98.8</ele>
        <time>2020-07-02T07:07:05Z</time>
      </trkpt>
      <trkpt lat="48.80316" lon="2.28737">
        <ele>98.9</ele>
        <time>2020-07-02T07:07:06Z</time>
      </trkpt>
      <trkpt lat="48.80312" lon="2.28732">
        <ele>99</ele>
        <time>2020-07-02T07:07:07Z</time>
      </trkpt>
      <trkpt lat="48.80309" lon="2.28728">
        <ele>99.2</ele>
        <time>2020-07-02T07:07:08Z</time>
      </trkpt>
      <trkpt lat="48.80305" lon="2.28723">
        <ele>99.3</ele>
        <time>2020-07-02T07:07:09Z</time>
      </trkpt>
      <trkpt lat="48.80302" lon="2.28719">
        <ele>99.5</ele>
        <time>2020-07-02T07:07:10Z</time>
      </trkpt>
      <trkpt lat="48.80297" lon="2.28714">
        <ele>99.6</ele>
        <time>2020-07-02T07:07:11Z</time>
      </trkpt>
      <trkpt lat="48.80293" lon="2.28709">
        <ele>99.8</ele>
        <time>2020-07-02T07:07:12Z</time>
      </trkpt>
      <trkpt lat="48.80288" lon="2.28705">
        <ele>99.9</ele>
        <time>2020-07-02T07:07:13Z</time>
      </trkpt>
      <trkpt lat="48.80284" lon="2.28701">
        <ele>100</ele>
        <time>2020-07-02T07:07:14Z</time>
      </trkpt>
      <trkpt lat="48.8028" lon="2.28697">
        <ele>100.2</ele>
        <time>2020-07-02T07:07:15Z</time>
      </trkpt>
      <trkpt lat="48.80277" lon="2.28691">
        <ele>100.4</ele>
        <time>2020-07-02T07:07:16Z</time>
      </trkpt>
      <trkpt lat="48.80274" lon="2.28686">
        <ele>100.6</ele>
        <time>2020-07-02T07:07:17Z</time>
      </trkpt>
      <trkpt lat="48.8027" lon="2.28681">
        <ele>100.8</ele>
        <time>2020-07-02T07:07:18Z</time>
      </trkpt>
      <trkpt lat="48.80267" lon="2.28677">
        <ele>101</ele>
        <time>2020-07-02T07:07:19Z</time>
      </trkpt>
      <trkpt lat="48.80264" lon="2.28673">
        <ele>101.1</ele>
        <time>2020-07-02T07:07:20Z</time>
      </trkpt>
      <trkpt lat="48.80261" lon="2.28668">
        <ele>101.3</ele>
        <time>2020-07-02T07:07:21Z</time>
      </trkpt>
      <trkpt lat="48.80258" lon="2.28664">
        <ele>101.5</ele>
        <time>2020-07-02T07:07:22Z</time>
      </trkpt>
      <trkpt lat="48.80255" lon="2.2866">
        <ele>101.7</ele>
        <time>2020-07-02T07:07:23Z</time>
      </trkpt>
      <trkpt lat="48.80252" lon="2.28657">
        <ele>101.9</ele>
        <time>2020-07-02T07:07:24Z</time>
      </trkpt>
      <trkpt lat="48.8025" lon="2.28652">
        <ele>102.1</ele>
        <time>2020-07-02T07:07:25Z</time>
      </trkpt>
      <trkpt lat="48.80249" lon="2.2865">
        <ele>102.2</ele>
        <time>2020-07-02T07:07:26Z</time>
      </trkpt>
      <trkpt lat="48.80248" lon="2.28647">
        <ele>102.3</ele>
        <time>2020-07-02T07:07:27Z</time>
      </trkpt>
      <trkpt lat="48.80248" lon="2.28645">
        <ele>102.4</ele>
        <time>2020-07-02T07:07:28Z</time>
      </trkpt>
      <trkpt lat="48.80249" lon="2.28645">
        <ele>102.4</ele>
        <time>2020-07-02T07:07:29Z</time>
      </trkpt>
      <trkpt lat="48.80249" lon="2.28644">
        <ele>102.5</ele>
        <time>2020-07-02T07:07:30Z</time>
      </trkpt>
      <trkpt lat="48.80249" lon="2.28643">
        <ele>103</ele>
        <time>2020-07-02T07:07:31Z</time>
      </trkpt>
      <trkpt lat="48.8025" lon="2.28643">
        <ele>103</ele>
        <time>2020-07-02T07:07:32Z</time>
      </trkpt>
      <trkpt lat="48.80249" lon="2.28642">
        <ele>103</ele>
        <time>2020-07-02T07:07:33Z</time>
      </trkpt>
      <trkpt lat="48.80248" lon="2.28641">
        <ele>103</ele>
        <time>2020-07-02T07:07:34Z</time>
      </trkpt>
      <trkpt lat="48.80248" lon="2.28643">
        <ele>103</ele>
        <time>2020-07-02T07:07:35Z</time>
      </trkpt>
      <trkpt lat="48.80249" lon="2.28649">
        <ele>103.1</ele>
        <time>2020-07-02T07:07:36Z</time>
      </trkpt>
      <trkpt lat="48.80249" lon="2.28647">
        <ele>103.1</ele>
        <time>2020-07-02T07:07:37Z</time>
      </trkpt>
      <trkpt lat="48.80248" lon="2.28647">
        <ele>103.1</ele>
        <time>2020-07-02T07:07:38Z</time>
      </trkpt>
      <trkpt lat="48.80247" lon="2.28648">
        <ele>103.1</ele>
        <time>2020-07-02T07:07:39Z</time>
      </trkpt>
      <trkpt lat="48.80247" lon="2.28649">
        <ele>103.1</ele>
        <time>2020-07-02T07:07:40Z</time>
      </trkpt>
      <trkpt lat="48.80247" lon="2.28648">
        <ele>103.1</ele>
        <time>2020-07-02T07:07:41Z</time>
      </trkpt>
      <trkpt lat="48.80247" lon="2.28648">
        <ele>103.1</ele>
        <time>2020-07-02T07:07:42Z</time>
      </trkpt>
      <trkpt lat="48.80246" lon="2.28645">
        <ele>103.1</ele>
        <time>2020-07-02T07:07:43Z</time>
      </trkpt>
      <trkpt lat="48.80247" lon="2.28643">
        <ele>103.2</ele>
        <time>2020-07-02T07:07:44Z</time>
      </trkpt>
      <trkpt lat="48.80248" lon="2.28643">
        <ele>103.2</ele>
        <time>2020-07-02T07:07:45Z</time>
      </trkpt>
      <trkpt lat="48.80249" lon="2.28643">
        <ele>103.2</ele>
        <time>2020-07-02T07:07:46Z</time>
      </trkpt>
      <trkpt lat="48.80249" lon="2.28645">
        <ele>103.2</ele>
        <time>2020-07-02T07:07:47Z</time>
      </trkpt>
      <trkpt lat="48.80248" lon="2.28647">
        <ele>103.2</ele>
        <time>2020-07-02T07:07:48Z</time>
      </trkpt>
      <trkpt lat="48.80247" lon="2.28647">
        <ele>103.2</ele>
        <time>2020-07-02T07:07:49Z</time>
      </trkpt>
      <trkpt lat="48.80245" lon="2.28647">
        <ele>103.2</ele>
        <time>2020-07-02T07:07:50Z</time>
      </trkpt>
      <trkpt lat="48.80244" lon="2.28647">
        <ele>103.2</ele>
        <time>2020-07-02T07:07:51Z</time>
      </trkpt>
      <trkpt lat="48.80243" lon="2.28646">
        <ele>103.2</ele>
        <time>2020-07-02T07:07:52Z</time>
      </trkpt>
      <trkpt lat="48.80241" lon="2.28647">
        <ele>103.2</ele>
        <time>2020-07-02T07:07:53Z</time>
      </trkpt>
      <trkpt lat="48.80239" lon="2.28648">
        <ele>103.2</ele>
        <time>2020-07-02T07:07:54Z</time>
      </trkpt>
      <trkpt lat="48.80236" lon="2.28649">
        <ele>103.2</ele>
        <time>2020-07-02T07:07:55Z</time>
      </trkpt>
      <trkpt lat="48.80235" lon="2.28649">
        <ele>103.2</ele>
        <time>2020-07-02T07:07:56Z</time>
      </trkpt>
      <trkpt lat="48.80232" lon="2.28653">
        <ele>103.3</ele>
        <time>2020-07-02T07:07:57Z</time>
      </trkpt>
      <trkpt lat="48.8023" lon="2.28654">
        <ele>103.3</ele>
        <time>2020-07-02T07:07:58Z</time>
      </trkpt>
      <trkpt lat="48.80228" lon="2.28658">
        <ele>103.3</ele>
        <time>2020-07-02T07:07:59Z</time>
      </trkpt>
      <trkpt lat="48.80225" lon="2.28661">
        <ele>103.3</ele>
        <time>2020-07-02T07:08:00Z</time>
      </trkpt>
      <trkpt lat="48.80223" lon="2.28665">
        <ele>103.2</ele>
        <time>2020-07-02T07:08:01Z</time>
      </trkpt>
      <trkpt lat="48.8022" lon="2.28667">
        <ele>103.2</ele>
        <time>2020-07-02T07:08:02Z</time>
      </trkpt>
      <trkpt lat="48.80218" lon="2.28672">
        <ele>103.2</ele>
        <time>2020-07-02T07:08:03Z</time>
      </trkpt>
      <trkpt lat="48.80217" lon="2.28673">
        <ele>103.2</ele>
        <time>2020-07-02T07:08:04Z</time>
      </trkpt>
      <trkpt lat="48.80214" lon="2.28676">
        <ele>103.2</ele>
        <time>2020-07-02T07:08:05Z</time>
      </trkpt>
      <trkpt lat="48.80213" lon="2.28677">
        <ele>103.2</ele>
        <time>2020-07-02T07:08:06Z</time>
      </trkpt>
      <trkpt lat="48.80211" lon="2.28681">
        <ele>103.2</ele>
        <time>2020-07-02T07:08:07Z</time>
      </trkpt>
      <trkpt lat="48.80208" lon="2.28684">
        <ele>103.1</ele>
        <time>2020-07-02T07:08:08Z</time>
      </trkpt>
      <trkpt lat="48.80206" lon="2.28688">
        <ele>103.1</ele>
        <time>2020-07-02T07:08:09Z</time>
      </trkpt>
      <trkpt lat="48.80203" lon="2.28691">
        <ele>103.1</ele>
        <time>2020-07-02T07:08:10Z</time>
      </trkpt>
      <trkpt lat="48.80201" lon="2.28693">
        <ele>103.1</ele>
        <time>2020-07-02T07:08:11Z</time>
      </trkpt>
      <trkpt lat="48.80198" lon="2.28695">
        <ele>103</ele>
        <time>2020-07-02T07:08:12Z</time>
      </trkpt>
      <trkpt lat="48.80196" lon="2.28699">
        <ele>103</ele>
        <time>2020-07-02T07:08:13Z</time>
      </trkpt>
      <trkpt lat="48.80196" lon="2.28705">
        <ele>103</ele>
        <time>2020-07-02T07:08:14Z</time>
      </trkpt>
      <trkpt lat="48.80195" lon="2.28711">
        <ele>103</ele>
        <time>2020-07-02T07:08:15Z</time>
      </trkpt>
      <trkpt lat="48.80193" lon="2.28716">
        <ele>103</ele>
        <time>2020-07-02T07:08:16Z</time>
      </trkpt>
      <trkpt lat="48.80193" lon="2.28722">
        <ele>103</ele>
        <time>2020-07-02T07:08:17Z</time>
      </trkpt>
      <trkpt lat="48.80192" lon="2.28726">
        <ele>102.9</ele>
        <time>2020-07-02T07:08:18Z</time>
      </trkpt>
      <trkpt lat="48.8019" lon="2.28725">
        <ele>103</ele>
        <time>2020-07-02T07:08:19Z</time>
      </trkpt>
      <trkpt lat="48.80189" lon="2.28725">
        <ele>103</ele>
        <time>2020-07-02T07:08:20Z</time>
      </trkpt>
      <trkpt lat="48.80188" lon="2.28725">
        <ele>103</ele>
        <time>2020-07-02T07:08:21Z</time>
      </trkpt>
      <trkpt lat="48.80184" lon="2.28722">
        <ele>103.2</ele>
        <time>2020-07-02T07:08:22Z</time>
      </trkpt>
      <trkpt lat="48.80183" lon="2.28721">
        <ele>103.2</ele>
        <time>2020-07-02T07:08:23Z</time>
      </trkpt>
      <trkpt lat="48.80179" lon="2.28719">
        <ele>103.4</ele>
        <time>2020-07-02T07:08:24Z</time>
      </trkpt>
      <trkpt lat="48.80178" lon="2.28718">
        <ele>103.4</ele>
        <time>2020-07-02T07:08:25Z</time>
      </trkpt>
      <trkpt lat="48.80175" lon="2.28716">
        <ele>103.5</ele>
        <time>2020-07-02T07:08:26Z</time>
      </trkpt>
      <trkpt lat="48.80174" lon="2.28716">
        <ele>103.6</ele>
        <time>2020-07-02T07:08:27Z</time>
      </trkpt>
      <trkpt lat="48.80171" lon="2.28714">
        <ele>103.6</ele>
        <time>2020-07-02T07:08:28Z</time>
      </trkpt>
      <trkpt lat="48.8017" lon="2.28714">
        <ele>103.7</ele>
        <time>2020-07-02T07:08:29Z</time>
      </trkpt>
      <trkpt lat="48.80167" lon="2.28713">
        <ele>103.8</ele>
        <time>2020-07-02T07:08:30Z</time>
      </trkpt>
      <trkpt lat="48.80164" lon="2.28713">
        <ele>103.9</ele>
        <time>2020-07-02T07:08:31Z</time>
      </trkpt>
      <trkpt lat="48.8016" lon="2.28709">
        <ele>104</ele>
        <time>2020-07-02T07:08:32Z</time>
      </trkpt>
      <trkpt lat="48.80157" lon="2.28707">
        <ele>104.1</ele>
        <time>2020-07-02T07:08:33Z</time>
      </trkpt>
      <trkpt lat="48.80154" lon="2.28704">
        <ele>104.3</ele>
        <time>2020-07-02T07:08:34Z</time>
      </trkpt>
      <trkpt lat="48.80151" lon="2.28702">
        <ele>104.4</ele>
        <time>2020-07-02T07:08:35Z</time>
      </trkpt>
      <trkpt lat="48.80146" lon="2.28697">
        <ele>104.6</ele>
        <time>2020-07-02T07:08:36Z</time>
      </trkpt>
      <trkpt lat="48.80143" lon="2.28695">
        <ele>104.7</ele>
        <time>2020-07-02T07:08:37Z</time>
      </trkpt>
      <trkpt lat="48.80139" lon="2.28693">
        <ele>104.9</ele>
        <time>2020-07-02T07:08:38Z</time>
      </trkpt>
      <trkpt lat="48.80136" lon="2.28691">
        <ele>105</ele>
        <time>2020-07-02T07:08:39Z</time>
      </trkpt>
      <trkpt lat="48.80131" lon="2.2869">
        <ele>105.2</ele>
        <time>2020-07-02T07:08:40Z</time>
      </trkpt>
      <trkpt lat="48.80127" lon="2.2869">
        <ele>105.4</ele>
        <time>2020-07-02T07:08:41Z</time>
      </trkpt>
      <trkpt lat="48.80123" lon="2.28689">
        <ele>105.5</ele>
        <time>2020-07-02T07:08:42Z</time>
      </trkpt>
      <trkpt lat="48.8012" lon="2.28687">
        <ele>105.7</ele>
        <time>2020-07-02T07:08:43Z</time>
      </trkpt>
      <trkpt lat="48.80117" lon="2.28685">
        <ele>105.8</ele>
        <time>2020-07-02T07:08:44Z</time>
      </trkpt>
      <trkpt lat="48.80113" lon="2.28683">
        <ele>106</ele>
        <time>2020-07-02T07:08:45Z</time>
      </trkpt>
      <trkpt lat="48.80109" lon="2.28682">
        <ele>106.2</ele>
        <time>2020-07-02T07:08:46Z</time>
      </trkpt>
      <trkpt lat="48.80106" lon="2.28681">
        <ele>106.4</ele>
        <time>2020-07-02T07:08:47Z</time>
      </trkpt>
      <trkpt lat="48.80102" lon="2.28679">
        <ele>106.6</ele>
        <time>2020-07-02T07:08:48Z</time>
      </trkpt>
      <trkpt lat="48.80099" lon="2.28677">
        <ele>106.7</ele>
        <time>2020-07-02T07:08:49Z</time>
      </trkpt>
      <trkpt lat="48.80098" lon="2.28672">
        <ele>106.9</ele>
        <time>2020-07-02T07:08:50Z</time>
      </trkpt>
      <trkpt lat="48.80095" lon="2.28671">
        <ele>107</ele>
        <time>2020-07-02T07:08:51Z</time>
      </trkpt>
      <trkpt lat="48.80094" lon="2.28671">
        <ele>107.1</ele>
        <time>2020-07-02T07:08:52Z</time>
      </trkpt>
      <trkpt lat="48.80091" lon="2.28669">
        <ele>107.2</ele>
        <time>2020-07-02T07:08:53Z</time>
      </trkpt>
      <trkpt lat="48.80089" lon="2.28669">
        <ele>107.3</ele>
        <time>2020-07-02T07:08:54Z</time>
      </trkpt>
      <trkpt lat="48.80087" lon="2.28666">
        <ele>107.4</ele>
        <time>2020-07-02T07:08:55Z</time>
      </trkpt>
      <trkpt lat="48.80084" lon="2.28664">
        <ele>107.6</ele>
        <time>2020-07-02T07:08:56Z</time>
      </trkpt>
      <trkpt lat="48.80081" lon="2.28664">
        <ele>107.7</ele>
        <time>2020-07-02T07:08:57Z</time>
      </trkpt>
      <trkpt lat="48.80079" lon="2.28663">
        <ele>107.8</ele>
        <time>2020-07-02T07:08:58Z</time>
      </trkpt>
      <trkpt lat="48.80075" lon="2.2866">
        <ele>108</ele>
        <time>2020-07-02T07:08:59Z</time>
      </trkpt>
      <trkpt lat="48.80072" lon="2.2866">
        <ele>108.1</ele>
        <time>2020-07-02T07:09:00Z</time>
      </trkpt>
      <trkpt lat="48.80068" lon="2.28658">
        <ele>108.3</ele>
        <time>2020-07-02T07:09:01Z</time>
      </trkpt>
      <trkpt lat="48.80067" lon="2.28657">
        <ele>108.3</ele>
        <time>2020-07-02T07:09:02Z</time>
      </trkpt>
      <trkpt lat="48.80064" lon="2.28656">
        <ele>108.4</ele>
        <time>2020-07-02T07:09:03Z</time>
      </trkpt>
      <trkpt lat="48.80061" lon="2.28653">
        <ele>108.5</ele>
        <time>2020-07-02T07:09:04Z</time>
      </trkpt>
      <trkpt lat="48.80058" lon="2.28651">
        <ele>108.6</ele>
        <time>2020-07-02T07:09:05Z</time>
      </trkpt>
      <trkpt lat="48.80054" lon="2.2865">
        <ele>108.8</ele>
        <time>2020-07-02T07:09:06Z</time>
      </trkpt>
      <trkpt lat="48.80053" lon="2.2865">
        <ele>108.8</ele>
        <time>2020-07-02T07:09:07Z</time>
      </trkpt>
      <trkpt lat="48.80049" lon="2.28646">
        <ele>109</ele>
        <time>2020-07-02T07:09:08Z</time>
      </trkpt>
      <trkpt lat="48.80048" lon="2.28644">
        <ele>109</ele>
        <time>2020-07-02T07:09:09Z</time>
      </trkpt>
      <trkpt lat="48.80045" lon="2.28642">
        <ele>109.1</ele>
        <time>2020-07-02T07:09:10Z</time>
      </trkpt>
      <trkpt lat="48.80042" lon="2.2864">
        <ele>109.3</ele>
        <time>2020-07-02T07:09:11Z</time>
      </trkpt>
      <trkpt lat="48.80039" lon="2.28639">
        <ele>109.4</ele>
        <time>2020-07-02T07:09:12Z</time>
      </trkpt>
      <trkpt lat="48.80036" lon="2.28637">
        <ele>109.5</ele>
        <time>2020-07-02T07:09:13Z</time>
      </trkpt>
      <trkpt lat="48.80033" lon="2.28632">
        <ele>109.7</ele>
        <time>2020-07-02T07:09:14Z</time>
      </trkpt>
      <trkpt lat="48.80031" lon="2.28629">
        <ele>109.8</ele>
        <time>2020-07-02T07:09:15Z</time>
      </trkpt>
      <trkpt lat="48.80029" lon="2.28626">
        <ele>109.9</ele>
        <time>2020-07-02T07:09:16Z</time>
      </trkpt>
      <trkpt lat="48.80026" lon="2.28622">
        <ele>110.1</ele>
        <time>2020-07-02T07:09:17Z</time>
      </trkpt>
      <trkpt lat="48.80023" lon="2.28619">
        <ele>110.3</ele>
        <time>2020-07-02T07:09:18Z</time>
      </trkpt>
      <trkpt lat="48.80021" lon="2.28615">
        <ele>110.6</ele>
        <time>2020-07-02T07:09:19Z</time>
      </trkpt>
      <trkpt lat="48.80018" lon="2.2861">
        <ele>110.8</ele>
        <time>2020-07-02T07:09:20Z</time>
      </trkpt>
      <trkpt lat="48.80016" lon="2.28605">
        <ele>111</ele>
        <time>2020-07-02T07:09:21Z</time>
      </trkpt>
      <trkpt lat="48.80013" lon="2.28602">
        <ele>111.2</ele>
        <time>2020-07-02T07:09:22Z</time>
      </trkpt>
      <trkpt lat="48.8001" lon="2.28598">
        <ele>111.5</ele>
        <time>2020-07-02T07:09:23Z</time>
      </trkpt>
      <trkpt lat="48.80007" lon="2.28596">
        <ele>111.7</ele>
        <time>2020-07-02T07:09:24Z</time>
      </trkpt>
      <trkpt lat="48.80003" lon="2.28593">
        <ele>111.9</ele>
        <time>2020-07-02T07:09:25Z</time>
      </trkpt>
      <trkpt lat="48.8" lon="2.28591">
        <ele>112.1</ele>
        <time>2020-07-02T07:09:26Z</time>
      </trkpt>
      <trkpt lat="48.79996" lon="2.28588">
        <ele>112.3</ele>
        <time>2020-07-02T07:09:27Z</time>
      </trkpt>
      <trkpt lat="48.79993" lon="2.28585">
        <ele>112.5</ele>
        <time>2020-07-02T07:09:28Z</time>
      </trkpt>
      <trkpt lat="48.7999" lon="2.28583">
        <ele>112.7</ele>
        <time>2020-07-02T07:09:29Z</time>
      </trkpt>
      <trkpt lat="48.79986" lon="2.2858">
        <ele>112.9</ele>
        <time>2020-07-02T07:09:30Z</time>
      </trkpt>
      <trkpt lat="48.79984" lon="2.28576">
        <ele>113</ele>
        <time>2020-07-02T07:09:31Z</time>
      </trkpt>
      <trkpt lat="48.79982" lon="2.28574">
        <ele>113.2</ele>
        <time>2020-07-02T07:09:32Z</time>
      </trkpt>
      <trkpt lat="48.79981" lon="2.28574">
        <ele>113.3</ele>
        <time>2020-07-02T07:09:33Z</time>
      </trkpt>
      <trkpt lat="48.7998" lon="2.28573">
        <ele>113.3</ele>
        <time>2020-07-02T07:09:34Z</time>
      </trkpt>
      <trkpt lat="48.79979" lon="2.28572">
        <ele>113.4</ele>
        <time>2020-07-02T07:09:35Z</time>
      </trkpt>
      <trkpt lat="48.79978" lon="2.28571">
        <ele>113.4</ele>
        <time>2020-07-02T07:09:36Z</time>
      </trkpt>
      <trkpt lat="48.79977" lon="2.28569">
        <ele>113.6</ele>
        <time>2020-07-02T07:09:37Z</time>
      </trkpt>
      <trkpt lat="48.79976" lon="2.28568">
        <ele>113.6</ele>
        <time>2020-07-02T07:09:38Z</time>
      </trkpt>
      <trkpt lat="48.79976" lon="2.28567">
        <ele>113.6</ele>
        <time>2020-07-02T07:09:39Z</time>
      </trkpt>
      <trkpt lat="48.79975" lon="2.28567">
        <ele>113.7</ele>
        <time>2020-07-02T07:09:40Z</time>
      </trkpt>
      <trkpt lat="48.79974" lon="2.28566">
        <ele>113.8</ele>
        <time>2020-07-02T07:09:41Z</time>
      </trkpt>
      <trkpt lat="48.79973" lon="2.28565">
        <ele>113.8</ele>
        <time>2020-07-02T07:09:42Z</time>
      </trkpt>
      <trkpt lat="48.79972" lon="2.28565">
        <ele>113.9</ele>
        <time>2020-07-02T07:09:43Z</time>
      </trkpt>
      <trkpt lat="48.79972" lon="2.28565">
        <ele>113.9</ele>
        <time>2020-07-02T07:09:44Z</time>
      </trkpt>
      <trkpt lat="48.79972" lon="2.28567">
        <ele>114</ele>
        <time>2020-07-02T07:09:45Z</time>
      </trkpt>
      <trkpt lat="48.79971" lon="2.28567">
        <ele>114</ele>
        <time>2020-07-02T07:09:46Z</time>
      </trkpt>
      <trkpt lat="48.79971" lon="2.28567">
        <ele>114</ele>
        <time>2020-07-02T07:09:47Z</time>
      </trkpt>
      <trkpt lat="48.79971" lon="2.28567">
        <ele>114</ele>
        <time>2020-07-02T07:09:48Z</time>
      </trkpt>
      <trkpt lat="48.79971" lon="2.28567">
        <ele>114</ele>
        <time>2020-07-02T07:09:49Z</time>
      </trkpt>
      <trkpt lat="48.79972" lon="2.28567">
        <ele>114</ele>
        <time>2020-07-02T07:09:50Z</time>
      </trkpt>
      <trkpt lat="48.79972" lon="2.28568">
        <ele>114.1</ele>
        <time>2020-07-02T07:09:51Z</time>
      </trkpt>
      <trkpt lat="48.79972" lon="2.2857">
        <ele>114.1</ele>
        <time>2020-07-02T07:09:52Z</time>
      </trkpt>
      <trkpt lat="48.79971" lon="2.28571">
        <ele>114.2</ele>
        <time>2020-07-02T07:09:53Z</time>
      </trkpt>
      <trkpt lat="48.79971" lon="2.28574">
        <ele>114.2</ele>
        <time>2020-07-02T07:09:54Z</time>
      </trkpt>
      <trkpt lat="48.79971" lon="2.2858">
        <ele>114.2</ele>
        <time>2020-07-02T07:09:55Z</time>
      </trkpt>
      <trkpt lat="48.7997" lon="2.28582">
        <ele>114.2</ele>
        <time>2020-07-02T07:09:56Z</time>
      </trkpt>
      <trkpt lat="48.79969" lon="2.28586">
        <ele>114.2</ele>
        <time>2020-07-02T07:09:57Z</time>
      </trkpt>
      <trkpt lat="48.79967" lon="2.2859">
        <ele>114.3</ele>
        <time>2020-07-02T07:09:58Z</time>
      </trkpt>
      <trkpt lat="48.79965" lon="2.28596">
        <ele>114.4</ele>
        <time>2020-07-02T07:09:59Z</time>
      </trkpt>
      <trkpt lat="48.79963" lon="2.28601">
        <ele>114.4</ele>
        <time>2020-07-02T07:10:00Z</time>
      </trkpt>
      <trkpt lat="48.79961" lon="2.28606">
        <ele>114.5</ele>
        <time>2020-07-02T07:10:01Z</time>
      </trkpt>
      <trkpt lat="48.79959" lon="2.28609">
        <ele>114.6</ele>
        <time>2020-07-02T07:10:02Z</time>
      </trkpt>
      <trkpt lat="48.79957" lon="2.28613">
        <ele>114.7</ele>
        <time>2020-07-02T07:10:03Z</time>
      </trkpt>
      <trkpt lat="48.79955" lon="2.28617">
        <ele>114.7</ele>
        <time>2020-07-02T07:10:04Z</time>
      </trkpt>
      <trkpt lat="48.79953" lon="2.28621">
        <ele>114.9</ele>
        <time>2020-07-02T07:10:05Z</time>
      </trkpt>
      <trkpt lat="48.79949" lon="2.28624">
        <ele>115</ele>
        <time>2020-07-02T07:10:06Z</time>
      </trkpt>
      <trkpt lat="48.79946" lon="2.28628">
        <ele>115.1</ele>
        <time>2020-07-02T07:10:07Z</time>
      </trkpt>
      <trkpt lat="48.79944" lon="2.28632">
        <ele>115.3</ele>
        <time>2020-07-02T07:10:08Z</time>
      </trkpt>
      <trkpt lat="48.79941" lon="2.28637">
        <ele>115.4</ele>
        <time>2020-07-02T07:10:09Z</time>
      </trkpt>
      <trkpt lat="48.79939" lon="2.28642">
        <ele>115.6</ele>
        <time>2020-07-02T07:10:10Z</time>
      </trkpt>
      <trkpt lat="48.79936" lon="2.28646">
        <ele>115.7</ele>
        <time>2020-07-02T07:10:11Z</time>
      </trkpt>
      <trkpt lat="48.79933" lon="2.28651">
        <ele>115.9</ele>
        <time>2020-07-02T07:10:12Z</time>
      </trkpt>
      <trkpt lat="48.7993" lon="2.28657">
        <ele>116.1</ele>
        <time>2020-07-02T07:10:13Z</time>
      </trkpt>
      <trkpt lat="48.79927" lon="2.28661">
        <ele>116.3</ele>
        <time>2020-07-02T07:10:14Z</time>
      </trkpt>
      <trkpt lat="48.79923" lon="2.28667">
        <ele>116.5</ele>
        <time>2020-07-02T07:10:15Z</time>
      </trkpt>
      <trkpt lat="48.79919" lon="2.28671">
        <ele>116.7</ele>
        <time>2020-07-02T07:10:16Z</time>
      </trkpt>
      <trkpt lat="48.79915" lon="2.28675">
        <ele>116.9</ele>
        <time>2020-07-02T07:10:17Z</time>
      </trkpt>
      <trkpt lat="48.7991" lon="2.28677">
        <ele>117</ele>
        <time>2020-07-02T07:10:18Z</time>
      </trkpt>
      <trkpt lat="48.79906" lon="2.28679">
        <ele>117.3</ele>
        <time>2020-07-02T07:10:19Z</time>
      </trkpt>
      <trkpt lat="48.79901" lon="2.28681">
        <ele>117.5</ele>
        <time>2020-07-02T07:10:20Z</time>
      </trkpt>
      <trkpt lat="48.79897" lon="2.28684">
        <ele>117.7</ele>
        <time>2020-07-02T07:10:21Z</time>
      </trkpt>
      <trkpt lat="48.79893" lon="2.28686">
        <ele>117.9</ele>
        <time>2020-07-02T07:10:22Z</time>
      </trkpt>
      <trkpt lat="48.7989" lon="2.28687">
        <ele>118.1</ele>
        <time>2020-07-02T07:10:23Z</time>
      </trkpt>
      <trkpt lat="48.79886" lon="2.28689">
        <ele>118.3</ele>
        <time>2020-07-02T07:10:24Z</time>
      </trkpt>
      <trkpt lat="48.79883" lon="2.28691">
        <ele>118.5</ele>
        <time>2020-07-02T07:10:25Z</time>
      </trkpt>
      <trkpt lat="48.79879" lon="2.28693">
        <ele>118.7</ele>
        <time>2020-07-02T07:10:26Z</time>
      </trkpt>
      <trkpt lat="48.79875" lon="2.28696">
        <ele>119</ele>
        <time>2020-07-02T07:10:27Z</time>
      </trkpt>
      <trkpt lat="48.79873" lon="2.28699">
        <ele>119.2</ele>
        <time>2020-07-02T07:10:28Z</time>
      </trkpt>
      <trkpt lat="48.7987" lon="2.28702">
        <ele>119.3</ele>
        <time>2020-07-02T07:10:29Z</time>
      </trkpt>
      <trkpt lat="48.79866" lon="2.28704">
        <ele>119.6</ele>
        <time>2020-07-02T07:10:30Z</time>
      </trkpt>
      <trkpt lat="48.79863" lon="2.28706">
        <ele>119.8</ele>
        <time>2020-07-02T07:10:31Z</time>
      </trkpt>
      <trkpt lat="48.7986" lon="2.28709">
        <ele>119.9</ele>
        <time>2020-07-02T07:10:32Z</time>
      </trkpt>
      <trkpt lat="48.79858" lon="2.28714">
        <ele>120.2</ele>
        <time>2020-07-02T07:10:33Z</time>
      </trkpt>
      <trkpt lat="48.79856" lon="2.28719">
        <ele>120.4</ele>
        <time>2020-07-02T07:10:34Z</time>
      </trkpt>
      <trkpt lat="48.79855" lon="2.2872">
        <ele>120.5</ele>
        <time>2020-07-02T07:10:35Z</time>
      </trkpt>
      <trkpt lat="48.79853" lon="2.28723">
        <ele>120.7</ele>
        <time>2020-07-02T07:10:36Z</time>
      </trkpt>
      <trkpt lat="48.7985" lon="2.28726">
        <ele>120.8</ele>
        <time>2020-07-02T07:10:37Z</time>
      </trkpt>
      <trkpt lat="48.79847" lon="2.28733">
        <ele>121.1</ele>
        <time>2020-07-02T07:10:38Z</time>
      </trkpt>
      <trkpt lat="48.79845" lon="2.28737">
        <ele>121.3</ele>
        <time>2020-07-02T07:10:39Z</time>
      </trkpt>
      <trkpt lat="48.79842" lon="2.28741">
        <ele>121.5</ele>
        <time>2020-07-02T07:10:40Z</time>
      </trkpt>
      <trkpt lat="48.7984" lon="2.28744">
        <ele>121.6</ele>
        <time>2020-07-02T07:10:41Z</time>
      </trkpt>
      <trkpt lat="48.79837" lon="2.28746">
        <ele>121.7</ele>
        <time>2020-07-02T07:10:42Z</time>
      </trkpt>
      <trkpt lat="48.79833" lon="2.28748">
        <ele>121.9</ele>
        <time>2020-07-02T07:10:43Z</time>
      </trkpt>
      <trkpt lat="48.79832" lon="2.28748">
        <ele>121.9</ele>
        <time>2020-07-02T07:10:44Z</time>
      </trkpt>
      <trkpt lat="48.7983" lon="2.28748">
        <ele>121.8</ele>
        <time>2020-07-02T07:10:45Z</time>
      </trkpt>
      <trkpt lat="48.79829" lon="2.28749">
        <ele>121.8</ele>
        <time>2020-07-02T07:10:46Z</time>
      </trkpt>
      <trkpt lat="48.79828" lon="2.28751">
        <ele>121.8</ele>
        <time>2020-07-02T07:10:47Z</time>
      </trkpt>
      <trkpt lat="48.79827" lon="2.28753">
        <ele>121.8</ele>
        <time>2020-07-02T07:10:48Z</time>
      </trkpt>
      <trkpt lat="48.79825" lon="2.28754">
        <ele>121.8</ele>
        <time>2020-07-02T07:10:49Z</time>
      </trkpt>
      <trkpt lat="48.79825" lon="2.28755">
        <ele>121.8</ele>
        <time>2020-07-02T07:10:50Z</time>
      </trkpt>
      <trkpt lat="48.79824" lon="2.28756">
        <ele>121.8</ele>
        <time>2020-07-02T07:10:51Z</time>
      </trkpt>
      <trkpt lat="48.79822" lon="2.28759">
        <ele>121.7</ele>
        <time>2020-07-02T07:10:52Z</time>
      </trkpt>
      <trkpt lat="48.79818" lon="2.28761">
        <ele>121.7</ele>
        <time>2020-07-02T07:10:53Z</time>
      </trkpt>
      <trkpt lat="48.79816" lon="2.28762">
        <ele>121.6</ele>
        <time>2020-07-02T07:10:54Z</time>
      </trkpt>
      <trkpt lat="48.79812" lon="2.28763">
        <ele>121.5</ele>
        <time>2020-07-02T07:10:55Z</time>
      </trkpt>
      <trkpt lat="48.79809" lon="2.28766">
        <ele>121.5</ele>
        <time>2020-07-02T07:10:56Z</time>
      </trkpt>
      <trkpt lat="48.79805" lon="2.2877">
        <ele>121.4</ele>
        <time>2020-07-02T07:10:57Z</time>
      </trkpt>
      <trkpt lat="48.79801" lon="2.28774">
        <ele>121.4</ele>
        <time>2020-07-02T07:10:58Z</time>
      </trkpt>
      <trkpt lat="48.79796" lon="2.28776">
        <ele>121.3</ele>
        <time>2020-07-02T07:10:59Z</time>
      </trkpt>
      <trkpt lat="48.79792" lon="2.2878">
        <ele>121.1</ele>
        <time>2020-07-02T07:11:00Z</time>
      </trkpt>
      <trkpt lat="48.79787" lon="2.28782">
        <ele>121</ele>
        <time>2020-07-02T07:11:01Z</time>
      </trkpt>
      <trkpt lat="48.79782" lon="2.28783">
        <ele>120.9</ele>
        <time>2020-07-02T07:11:02Z</time>
      </trkpt>
      <trkpt lat="48.79778" lon="2.28786">
        <ele>120.7</ele>
        <time>2020-07-02T07:11:03Z</time>
      </trkpt>
      <trkpt lat="48.79774" lon="2.28789">
        <ele>120.6</ele>
        <time>2020-07-02T07:11:04Z</time>
      </trkpt>
      <trkpt lat="48.79769" lon="2.28791">
        <ele>120.4</ele>
        <time>2020-07-02T07:11:05Z</time>
      </trkpt>
      <trkpt lat="48.79765" lon="2.28793">
        <ele>120.3</ele>
        <time>2020-07-02T07:11:06Z</time>
      </trkpt>
      <trkpt lat="48.7976" lon="2.28795">
        <ele>120.2</ele>
        <time>2020-07-02T07:11:07Z</time>
      </trkpt>
      <trkpt lat="48.79756" lon="2.28798">
        <ele>120.1</ele>
        <time>2020-07-02T07:11:08Z</time>
      </trkpt>
      <trkpt lat="48.79751" lon="2.28801">
        <ele>119.9</ele>
        <time>2020-07-02T07:11:09Z</time>
      </trkpt>
      <trkpt lat="48.79747" lon="2.28805">
        <ele>119.8</ele>
        <time>2020-07-02T07:11:10Z</time>
      </trkpt>
      <trkpt lat="48.79742" lon="2.28809">
        <ele>119.7</ele>
        <time>2020-07-02T07:11:11Z</time>
      </trkpt>
      <trkpt lat="48.79737" lon="2.28811">
        <ele>119.6</ele>
        <time>2020-07-02T07:11:12Z</time>
      </trkpt>
      <trkpt lat="48.79731" lon="2.28813">
        <ele>119.4</ele>
        <time>2020-07-02T07:11:13Z</time>
      </trkpt>
      <trkpt lat="48.79726" lon="2.28814">
        <ele>119.3</ele>
        <time>2020-07-02T07:11:14Z</time>
      </trkpt>
      <trkpt lat="48.7972" lon="2.28815">
        <ele>119.1</ele>
        <time>2020-07-02T07:11:15Z</time>
      </trkpt>
      <trkpt lat="48.79713" lon="2.28816">
        <ele>118.8</ele>
        <time>2020-07-02T07:11:16Z</time>
      </trkpt>
      <trkpt lat="48.79707" lon="2.28817">
        <ele>118.7</ele>
        <time>2020-07-02T07:11:17Z</time>
      </trkpt>
      <trkpt lat="48.797" lon="2.28818">
        <ele>118.5</ele>
        <time>2020-07-02T07:11:18Z</time>
      </trkpt>
      <trkpt lat="48.79694" lon="2.28817">
        <ele>118.3</ele>
        <time>2020-07-02T07:11:19Z</time>
      </trkpt>
      <trkpt lat="48.79688" lon="2.28818">
        <ele>118.1</ele>
        <time>2020-07-02T07:11:20Z</time>
      </trkpt>
      <trkpt lat="48.79681" lon="2.28817">
        <ele>117.9</ele>
        <time>2020-07-02T07:11:21Z</time>
      </trkpt>
      <trkpt lat="48.79674" lon="2.28817">
        <ele>117.8</ele>
        <time>2020-07-02T07:11:22Z</time>
      </trkpt>
      <trkpt lat="48.79666" lon="2.28816">
        <ele>117.6</ele>
        <time>2020-07-02T07:11:23Z</time>
      </trkpt>
      <trkpt lat="48.79658" lon="2.28813">
        <ele>117.4</ele>
        <time>2020-07-02T07:11:24Z</time>
      </trkpt>
      <trkpt lat="48.79652" lon="2.28812">
        <ele>117.3</ele>
        <time>2020-07-02T07:11:25Z</time>
      </trkpt>
      <trkpt lat="48.79646" lon="2.2881">
        <ele>117.1</ele>
        <time>2020-07-02T07:11:26Z</time>
      </trkpt>
      <trkpt lat="48.7964" lon="2.28808">
        <ele>117</ele>
        <time>2020-07-02T07:11:27Z</time>
      </trkpt>
      <trkpt lat="48.79632" lon="2.28807">
        <ele>116.9</ele>
        <time>2020-07-02T07:11:28Z</time>
      </trkpt>
      <trkpt lat="48.79625" lon="2.28805">
        <ele>116.8</ele>
        <time>2020-07-02T07:11:29Z</time>
      </trkpt>
      <trkpt lat="48.79618" lon="2.28803">
        <ele>116.7</ele>
        <time>2020-07-02T07:11:30Z</time>
      </trkpt>
      <trkpt lat="48.7961" lon="2.28803">
        <ele>116.6</ele>
        <time>2020-07-02T07:11:31Z</time>
      </trkpt>
      <trkpt lat="48.79602" lon="2.28802">
        <ele>116.5</ele>
        <time>2020-07-02T07:11:32Z</time>
      </trkpt>
      <trkpt lat="48.79595" lon="2.28801">
        <ele>116.4</ele>
        <time>2020-07-02T07:11:33Z</time>
      </trkpt>
      <trkpt lat="48.79589" lon="2.28801">
        <ele>116.3</ele>
        <time>2020-07-02T07:11:34Z</time>
      </trkpt>
      <trkpt lat="48.79583" lon="2.28801">
        <ele>116.3</ele>
        <time>2020-07-02T07:11:35Z</time>
      </trkpt>
      <trkpt lat="48.79578" lon="2.28802">
        <ele>116.2</ele>
        <time>2020-07-02T07:11:36Z</time>
      </trkpt>
      <trkpt lat="48.79573" lon="2.28801">
        <ele>116.2</ele>
        <time>2020-07-02T07:11:37Z</time>
      </trkpt>
      <trkpt lat="48.79568" lon="2.288">
        <ele>116.1</ele>
        <time>2020-07-02T07:11:38Z</time>
      </trkpt>
      <trkpt lat="48.79564" lon="2.28798">
        <ele>116</ele>
        <time>2020-07-02T07:11:39Z</time>
      </trkpt>
      <trkpt lat="48.7956" lon="2.28797">
        <ele>116</ele>
        <time>2020-07-02T07:11:40Z</time>
      </trkpt>
      <trkpt lat="48.79556" lon="2.28796">
        <ele>115.9</ele>
        <time>2020-07-02T07:11:41Z</time>
      </trkpt>
      <trkpt lat="48.7955" lon="2.28795">
        <ele>115.9</ele>
        <time>2020-07-02T07:11:42Z</time>
      </trkpt>
      <trkpt lat="48.79544" lon="2.28794">
        <ele>115.8</ele>
        <time>2020-07-02T07:11:43Z</time>
      </trkpt>
      <trkpt lat="48.7954" lon="2.28792">
        <ele>115.8</ele>
        <time>2020-07-02T07:11:44Z</time>
      </trkpt>
      <trkpt lat="48.79535" lon="2.28792">
        <ele>115.8</ele>
        <time>2020-07-02T07:11:45Z</time>
      </trkpt>
      <trkpt lat="48.7953" lon="2.28792">
        <ele>115.8</ele>
        <time>2020-07-02T07:11:46Z</time>
      </trkpt>
      <trkpt lat="48.79524" lon="2.28792">
        <ele>115.8</ele>
        <time>2020-07-02T07:11:47Z</time>
      </trkpt>
      <trkpt lat="48.79519" lon="2.28792">
        <ele>115.7</ele>
        <time>2020-07-02T07:11:48Z</time>
      </trkpt>
      <trkpt lat="48.79515" lon="2.28791">
        <ele>115.7</ele>
        <time>2020-07-02T07:11:49Z</time>
      </trkpt>
      <trkpt lat="48.79511" lon="2.2879">
        <ele>115.7</ele>
        <time>2020-07-02T07:11:50Z</time>
      </trkpt>
      <trkpt lat="48.79506" lon="2.28789">
        <ele>115.7</ele>
        <time>2020-07-02T07:11:51Z</time>
      </trkpt>
      <trkpt lat="48.79502" lon="2.28789">
        <ele>115.7</ele>
        <time>2020-07-02T07:11:52Z</time>
      </trkpt>
      <trkpt lat="48.795" lon="2.28788">
        <ele>115.7</ele>
        <time>2020-07-02T07:11:53Z</time>
      </trkpt>
      <trkpt lat="48.79496" lon="2.28788">
        <ele>115.8</ele>
        <time>2020-07-02T07:11:54Z</time>
      </trkpt>
      <trkpt lat="48.79491" lon="2.28789">
        <ele>115.8</ele>
        <time>2020-07-02T07:11:55Z</time>
      </trkpt>
      <trkpt lat="48.79486" lon="2.28789">
        <ele>115.8</ele>
        <time>2020-07-02T07:11:56Z</time>
      </trkpt>
      <trkpt lat="48.79482" lon="2.2879">
        <ele>115.9</ele>
        <time>2020-07-02T07:11:57Z</time>
      </trkpt>
      <trkpt lat="48.79479" lon="2.28789">
        <ele>115.9</ele>
        <time>2020-07-02T07:11:58Z</time>
      </trkpt>
      <trkpt lat="48.79476" lon="2.28788">
        <ele>116</ele>
        <time>2020-07-02T07:11:59Z</time>
      </trkpt>
      <trkpt lat="48.79472" lon="2.28788">
        <ele>116</ele>
        <time>2020-07-02T07:12:00Z</time>
      </trkpt>
      <trkpt lat="48.79471" lon="2.28788">
        <ele>116</ele>
        <time>2020-07-02T07:12:01Z</time>
      </trkpt>
      <trkpt lat="48.79468" lon="2.28789">
        <ele>116.1</ele>
        <time>2020-07-02T07:12:02Z</time>
      </trkpt>
      <trkpt lat="48.79466" lon="2.2879">
        <ele>116.1</ele>
        <time>2020-07-02T07:12:03Z</time>
      </trkpt>
      <trkpt lat="48.79464" lon="2.28791">
        <ele>116.2</ele>
        <time>2020-07-02T07:12:04Z</time>
      </trkpt>
      <trkpt lat="48.7946" lon="2.28792">
        <ele>116.2</ele>
        <time>2020-07-02T07:12:05Z</time>
      </trkpt>
      <trkpt lat="48.79457" lon="2.28793">
        <ele>116.3</ele>
        <time>2020-07-02T07:12:06Z</time>
      </trkpt>
      <trkpt lat="48.79454" lon="2.28793">
        <ele>116.3</ele>
        <time>2020-07-02T07:12:07Z</time>
      </trkpt>
      <trkpt lat="48.79453" lon="2.28793">
        <ele>116.3</ele>
        <time>2020-07-02T07:12:08Z</time>
      </trkpt>
      <trkpt lat="48.7945" lon="2.28792">
        <ele>116.4</ele>
        <time>2020-07-02T07:12:09Z</time>
      </trkpt>
      <trkpt lat="48.79447" lon="2.28793">
        <ele>116.4</ele>
        <time>2020-07-02T07:12:10Z</time>
      </trkpt>
      <trkpt lat="48.79444" lon="2.28795">
        <ele>116.5</ele>
        <time>2020-07-02T07:12:11Z</time>
      </trkpt>
      <trkpt lat="48.79441" lon="2.28797">
        <ele>116.5</ele>
        <time>2020-07-02T07:12:12Z</time>
      </trkpt>
      <trkpt lat="48.79437" lon="2.28799">
        <ele>116.6</ele>
        <time>2020-07-02T07:12:13Z</time>
      </trkpt>
      <trkpt lat="48.79434" lon="2.28801">
        <ele>116.7</ele>
        <time>2020-07-02T07:12:14Z</time>
      </trkpt>
      <trkpt lat="48.79431" lon="2.28802">
        <ele>116.8</ele>
        <time>2020-07-02T07:12:15Z</time>
      </trkpt>
      <trkpt lat="48.79427" lon="2.28804">
        <ele>116.9</ele>
        <time>2020-07-02T07:12:16Z</time>
      </trkpt>
      <trkpt lat="48.79422" lon="2.28806">
        <ele>117</ele>
        <time>2020-07-02T07:12:17Z</time>
      </trkpt>
      <trkpt lat="48.79418" lon="2.28808">
        <ele>117.1</ele>
        <time>2020-07-02T07:12:18Z</time>
      </trkpt>
      <trkpt lat="48.79414" lon="2.28811">
        <ele>117.2</ele>
        <time>2020-07-02T07:12:19Z</time>
      </trkpt>
      <trkpt lat="48.7941" lon="2.28813">
        <ele>117.3</ele>
        <time>2020-07-02T07:12:20Z</time>
      </trkpt>
      <trkpt lat="48.79405" lon="2.28815">
        <ele>117.4</ele>
        <time>2020-07-02T07:12:21Z</time>
      </trkpt>
      <trkpt lat="48.794" lon="2.28816">
        <ele>117.5</ele>
        <time>2020-07-02T07:12:22Z</time>
      </trkpt>
      <trkpt lat="48.79395" lon="2.28818">
        <ele>117.6</ele>
        <time>2020-07-02T07:12:23Z</time>
      </trkpt>
      <trkpt lat="48.79391" lon="2.28819">
        <ele>117.7</ele>
        <time>2020-07-02T07:12:24Z</time>
      </trkpt>
      <trkpt lat="48.79386" lon="2.28821">
        <ele>117.7</ele>
        <time>2020-07-02T07:12:25Z</time>
      </trkpt>
      <trkpt lat="48.79381" lon="2.28822">
        <ele>117.8</ele>
        <time>2020-07-02T07:12:26Z</time>
      </trkpt>
      <trkpt lat="48.79376" lon="2.28825">
        <ele>117.8</ele>
        <time>2020-07-02T07:12:27Z</time>
      </trkpt>
      <trkpt lat="48.79371" lon="2.28827">
        <ele>117.9</ele>
        <time>2020-07-02T07:12:28Z</time>
      </trkpt>
      <trkpt lat="48.79366" lon="2.28829">
        <ele>117.9</ele>
        <time>2020-07-02T07:12:29Z</time>
      </trkpt>
      <trkpt lat="48.7936" lon="2.28831">
        <ele>117.9</ele>
        <time>2020-07-02T07:12:30Z</time>
      </trkpt>
      <trkpt lat="48.79355" lon="2.28834">
        <ele>118</ele>
        <time>2020-07-02T07:12:31Z</time>
      </trkpt>
      <trkpt lat="48.79349" lon="2.28837">
        <ele>118</ele>
        <time>2020-07-02T07:12:32Z</time>
      </trkpt>
      <trkpt lat="48.79344" lon="2.28841">
        <ele>118</ele>
        <time>2020-07-02T07:12:33Z</time>
      </trkpt>
      <trkpt lat="48.7934" lon="2.28845">
        <ele>118.1</ele>
        <time>2020-07-02T07:12:34Z</time>
      </trkpt>
      <trkpt lat="48.79335" lon="2.2885">
        <ele>118.1</ele>
        <time>2020-07-02T07:12:35Z</time>
      </trkpt>
      <trkpt lat="48.7933" lon="2.28854">
        <ele>118.1</ele>
        <time>2020-07-02T07:12:36Z</time>
      </trkpt>
      <trkpt lat="48.79326" lon="2.28858">
        <ele>118.1</ele>
        <time>2020-07-02T07:12:37Z</time>
      </trkpt>
      <trkpt lat="48.79322" lon="2.28861">
        <ele>118.1</ele>
        <time>2020-07-02T07:12:38Z</time>
      </trkpt>
      <trkpt lat="48.79318" lon="2.28866">
        <ele>118.1</ele>
        <time>2020-07-02T07:12:39Z</time>
      </trkpt>
      <trkpt lat="48.79315" lon="2.28872">
        <ele>118</ele>
        <time>2020-07-02T07:12:40Z</time>
      </trkpt>
      <trkpt lat="48.79311" lon="2.28876">
        <ele>118</ele>
        <time>2020-07-02T07:12:41Z</time>
      </trkpt>
      <trkpt lat="48.79306" lon="2.28881">
        <ele>117.9</ele>
        <time>2020-07-02T07:12:42Z</time>
      </trkpt>
      <trkpt lat="48.79302" lon="2.28886">
        <ele>117.8</ele>
        <time>2020-07-02T07:12:43Z</time>
      </trkpt>
      <trkpt lat="48.79297" lon="2.2889">
        <ele>117.7</ele>
        <time>2020-07-02T07:12:44Z</time>
      </trkpt>
      <trkpt lat="48.79293" lon="2.28894">
        <ele>117.6</ele>
        <time>2020-07-02T07:12:45Z</time>
      </trkpt>
      <trkpt lat="48.79287" lon="2.28901">
        <ele>117.4</ele>
        <time>2020-07-02T07:12:46Z</time>
      </trkpt>
      <trkpt lat="48.79282" lon="2.28908">
        <ele>117.3</ele>
        <time>2020-07-02T07:12:47Z</time>
      </trkpt>
      <trkpt lat="48.79278" lon="2.28914">
        <ele>117.2</ele>
        <time>2020-07-02T07:12:48Z</time>
      </trkpt>
      <trkpt lat="48.79272" lon="2.2892">
        <ele>117</ele>
        <time>2020-07-02T07:12:49Z</time>
      </trkpt>
      <trkpt lat="48.79268" lon="2.28925">
        <ele>116.9</ele>
        <time>2020-07-02T07:12:50Z</time>
      </trkpt>
      <trkpt lat="48.79263" lon="2.28929">
        <ele>116.8</ele>
        <time>2020-07-02T07:12:51Z</time>
      </trkpt>
      <trkpt lat="48.79258" lon="2.28933">
        <ele>116.8</ele>
        <time>2020-07-02T07:12:52Z</time>
      </trkpt>
      <trkpt lat="48.79253" lon="2.28937">
        <ele>116.7</ele>
        <time>2020-07-02T07:12:53Z</time>
      </trkpt>
      <trkpt lat="48.79247" lon="2.28945">
        <ele>116.5</ele>
        <time>2020-07-02T07:12:54Z</time>
      </trkpt>
      <trkpt lat="48.79242" lon="2.2895">
        <ele>116.3</ele>
        <time>2020-07-02T07:12:55Z</time>
      </trkpt>
      <trkpt lat="48.79237" lon="2.28955">
        <ele>116.2</ele>
        <time>2020-07-02T07:12:56Z</time>
      </trkpt>
      <trkpt lat="48.79234" lon="2.28959">
        <ele>116.1</ele>
        <time>2020-07-02T07:12:57Z</time>
      </trkpt>
      <trkpt lat="48.79229" lon="2.28964">
        <ele>115.9</ele>
        <time>2020-07-02T07:12:58Z</time>
      </trkpt>
      <trkpt lat="48.79225" lon="2.28969">
        <ele>115.8</ele>
        <time>2020-07-02T07:12:59Z</time>
      </trkpt>
      <trkpt lat="48.7922" lon="2.28974">
        <ele>115.7</ele>
        <time>2020-07-02T07:13:00Z</time>
      </trkpt>
      <trkpt lat="48.79216" lon="2.28978">
        <ele>115.7</ele>
        <time>2020-07-02T07:13:01Z</time>
      </trkpt>
      <trkpt lat="48.79214" lon="2.2898">
        <ele>115.7</ele>
        <time>2020-07-02T07:13:02Z</time>
      </trkpt>
      <trkpt lat="48.7921" lon="2.2898">
        <ele>115.6</ele>
        <time>2020-07-02T07:13:03Z</time>
      </trkpt>
      <trkpt lat="48.79209" lon="2.2898">
        <ele>115.6</ele>
        <time>2020-07-02T07:13:04Z</time>
      </trkpt>
      <trkpt lat="48.79205" lon="2.28981">
        <ele>115.6</ele>
        <time>2020-07-02T07:13:05Z</time>
      </trkpt>
      <trkpt lat="48.79201" lon="2.28982">
        <ele>115.6</ele>
        <time>2020-07-02T07:13:06Z</time>
      </trkpt>
      <trkpt lat="48.79197" lon="2.28982">
        <ele>115.6</ele>
        <time>2020-07-02T07:13:07Z</time>
      </trkpt>
      <trkpt lat="48.79192" lon="2.28981">
        <ele>115.6</ele>
        <time>2020-07-02T07:13:08Z</time>
      </trkpt>
      <trkpt lat="48.79188" lon="2.2898">
        <ele>115.6</ele>
        <time>2020-07-02T07:13:09Z</time>
      </trkpt>
      <trkpt lat="48.79183" lon="2.28978">
        <ele>115.7</ele>
        <time>2020-07-02T07:13:10Z</time>
      </trkpt>
      <trkpt lat="48.7918" lon="2.28976">
        <ele>115.7</ele>
        <time>2020-07-02T07:13:11Z</time>
      </trkpt>
      <trkpt lat="48.79176" lon="2.28974">
        <ele>115.7</ele>
        <time>2020-07-02T07:13:12Z</time>
      </trkpt>
      <trkpt lat="48.79173" lon="2.28972">
        <ele>115.7</ele>
        <time>2020-07-02T07:13:13Z</time>
      </trkpt>
      <trkpt lat="48.7917" lon="2.2897">
        <ele>115.7</ele>
        <time>2020-07-02T07:13:14Z</time>
      </trkpt>
      <trkpt lat="48.79167" lon="2.28967">
        <ele>115.7</ele>
        <time>2020-07-02T07:13:15Z</time>
      </trkpt>
      <trkpt lat="48.79165" lon="2.28966">
        <ele>115.7</ele>
        <time>2020-07-02T07:13:16Z</time>
      </trkpt>
      <trkpt lat="48.79162" lon="2.28964">
        <ele>115.7</ele>
        <time>2020-07-02T07:13:17Z</time>
      </trkpt>
      <trkpt lat="48.79158" lon="2.28961">
        <ele>115.7</ele>
        <time>2020-07-02T07:13:18Z</time>
      </trkpt>
      <trkpt lat="48.79156" lon="2.28958">
        <ele>115.7</ele>
        <time>2020-07-02T07:13:19Z</time>
      </trkpt>
      <trkpt lat="48.79152" lon="2.28956">
        <ele>115.7</ele>
        <time>2020-07-02T07:13:20Z</time>
      </trkpt>
      <trkpt lat="48.79148" lon="2.28953">
        <ele>115.7</ele>
        <time>2020-07-02T07:13:21Z</time>
      </trkpt>
      <trkpt lat="48.79144" lon="2.28952">
        <ele>115.7</ele>
        <time>2020-07-02T07:13:22Z</time>
      </trkpt>
      <trkpt lat="48.7914" lon="2.2895">
        <ele>115.7</ele>
        <time>2020-07-02T07:13:23Z</time>
      </trkpt>
      <trkpt lat="48.79136" lon="2.28947">
        <ele>115.7</ele>
        <time>2020-07-02T07:13:24Z</time>
      </trkpt>
      <trkpt lat="48.79131" lon="2.28944">
        <ele>115.7</ele>
        <time>2020-07-02T07:13:25Z</time>
      </trkpt>
      <trkpt lat="48.79126" lon="2.28941">
        <ele>115.6</ele>
        <time>2020-07-02T07:13:26Z</time>
      </trkpt>
      <trkpt lat="48.79122" lon="2.28939">
        <ele>115.6</ele>
        <time>2020-07-02T07:13:27Z</time>
      </trkpt>
      <trkpt lat="48.79118" lon="2.28936">
        <ele>115.6</ele>
        <time>2020-07-02T07:13:28Z</time>
      </trkpt>
      <trkpt lat="48.79113" lon="2.28933">
        <ele>115.5</ele>
        <time>2020-07-02T07:13:29Z</time>
      </trkpt>
      <trkpt lat="48.79109" lon="2.2893">
        <ele>115.4</ele>
        <time>2020-07-02T07:13:30Z</time>
      </trkpt>
      <trkpt lat="48.79104" lon="2.28927">
        <ele>115.3</ele>
        <time>2020-07-02T07:13:31Z</time>
      </trkpt>
      <trkpt lat="48.791" lon="2.28924">
        <ele>115.2</ele>
        <time>2020-07-02T07:13:32Z</time>
      </trkpt>
      <trkpt lat="48.79095" lon="2.28922">
        <ele>115.1</ele>
        <time>2020-07-02T07:13:33Z</time>
      </trkpt>
      <trkpt lat="48.79091" lon="2.2892">
        <ele>115</ele>
        <time>2020-07-02T07:13:34Z</time>
      </trkpt>
      <trkpt lat="48.79088" lon="2.28919">
        <ele>115</ele>
        <time>2020-07-02T07:13:35Z</time>
      </trkpt>
      <trkpt lat="48.79085" lon="2.28918">
        <ele>114.9</ele>
        <time>2020-07-02T07:13:36Z</time>
      </trkpt>
      <trkpt lat="48.79083" lon="2.28916">
        <ele>114.9</ele>
        <time>2020-07-02T07:13:37Z</time>
      </trkpt>
      <trkpt lat="48.79079" lon="2.28914">
        <ele>114.8</ele>
        <time>2020-07-02T07:13:38Z</time>
      </trkpt>
      <trkpt lat="48.79078" lon="2.28913">
        <ele>114.8</ele>
        <time>2020-07-02T07:13:39Z</time>
      </trkpt>
      <trkpt lat="48.79075" lon="2.28911">
        <ele>114.7</ele>
        <time>2020-07-02T07:13:40Z</time>
      </trkpt>
      <trkpt lat="48.79072" lon="2.28908">
        <ele>114.6</ele>
        <time>2020-07-02T07:13:41Z</time>
      </trkpt>
      <trkpt lat="48.7907" lon="2.28906">
        <ele>114.6</ele>
        <time>2020-07-02T07:13:42Z</time>
      </trkpt>
      <trkpt lat="48.79067" lon="2.28904">
        <ele>114.5</ele>
        <time>2020-07-02T07:13:43Z</time>
      </trkpt>
      <trkpt lat="48.79066" lon="2.28903">
        <ele>114.5</ele>
        <time>2020-07-02T07:13:44Z</time>
      </trkpt>
      <trkpt lat="48.79064" lon="2.28901">
        <ele>114.4</ele>
        <time>2020-07-02T07:13:45Z</time>
      </trkpt>
      <trkpt lat="48.79063" lon="2.289">
        <ele>114.4</ele>
        <time>2020-07-02T07:13:46Z</time>
      </trkpt>
      <trkpt lat="48.79062" lon="2.28899">
        <ele>114.3</ele>
        <time>2020-07-02T07:13:47Z</time>
      </trkpt>
      <trkpt lat="48.79062" lon="2.28898">
        <ele>114.3</ele>
        <time>2020-07-02T07:13:48Z</time>
      </trkpt>
      <trkpt lat="48.79062" lon="2.28898">
        <ele>114.2</ele>
        <time>2020-07-02T07:13:49Z</time>
      </trkpt>
      <trkpt lat="48.79062" lon="2.28898">
        <ele>114.2</ele>
        <time>2020-07-02T07:13:50Z</time>
      </trkpt>
      <trkpt lat="48.79061" lon="2.28897">
        <ele>114.2</ele>
        <time>2020-07-02T07:13:51Z</time>
      </trkpt>
      <trkpt lat="48.79061" lon="2.28897">
        <ele>114.2</ele>
        <time>2020-07-02T07:13:52Z</time>
      </trkpt>
      <trkpt lat="48.79061" lon="2.28897">
        <ele>114.1</ele>
        <time>2020-07-02T07:13:53Z</time>
      </trkpt>
      <trkpt lat="48.79061" lon="2.28896">
        <ele>114.1</ele>
        <time>2020-07-02T07:13:54Z</time>
      </trkpt>
      <trkpt lat="48.7906" lon="2.28896">
        <ele>114.1</ele>
        <time>2020-07-02T07:13:55Z</time>
      </trkpt>
      <trkpt lat="48.7906" lon="2.28896">
        <ele>114.1</ele>
        <time>2020-07-02T07:13:56Z</time>
      </trkpt>
      <trkpt lat="48.79057" lon="2.28893">
        <ele>113.9</ele>
        <time>2020-07-02T07:13:57Z</time>
      </trkpt>
      <trkpt lat="48.79055" lon="2.28892">
        <ele>113.8</ele>
        <time>2020-07-02T07:13:58Z</time>
      </trkpt>
      <trkpt lat="48.79052" lon="2.2889">
        <ele>113.7</ele>
        <time>2020-07-02T07:13:59Z</time>
      </trkpt>
      <trkpt lat="48.79048" lon="2.28889">
        <ele>113.4</ele>
        <time>2020-07-02T07:14:00Z</time>
      </trkpt>
      <trkpt lat="48.79044" lon="2.28887">
        <ele>113.2</ele>
        <time>2020-07-02T07:14:01Z</time>
      </trkpt>
      <trkpt lat="48.79039" lon="2.28884">
        <ele>112.8</ele>
        <time>2020-07-02T07:14:02Z</time>
      </trkpt>
      <trkpt lat="48.79032" lon="2.2888">
        <ele>112.4</ele>
        <time>2020-07-02T07:14:03Z</time>
      </trkpt>
      <trkpt lat="48.79027" lon="2.28878">
        <ele>111.8</ele>
        <time>2020-07-02T07:14:04Z</time>
      </trkpt>
      <trkpt lat="48.79021" lon="2.28876">
        <ele>111.4</ele>
        <time>2020-07-02T07:14:05Z</time>
      </trkpt>
      <trkpt lat="48.79015" lon="2.28875">
        <ele>110.9</ele>
        <time>2020-07-02T07:14:06Z</time>
      </trkpt>
      <trkpt lat="48.79008" lon="2.28871">
        <ele>110.2</ele>
        <time>2020-07-02T07:14:07Z</time>
      </trkpt>
      <trkpt lat="48.79002" lon="2.28866">
        <ele>109.5</ele>
        <time>2020-07-02T07:14:08Z</time>
      </trkpt>
      <trkpt lat="48.78994" lon="2.2886">
        <ele>108.8</ele>
        <time>2020-07-02T07:14:09Z</time>
      </trkpt>
      <trkpt lat="48.78985" lon="2.28854">
        <ele>107.9</ele>
        <time>2020-07-02T07:14:10Z</time>
      </trkpt>
      <trkpt lat="48.78976" lon="2.28848">
        <ele>107</ele>
        <time>2020-07-02T07:14:11Z</time>
      </trkpt>
      <trkpt lat="48.78968" lon="2.28842">
        <ele>106.3</ele>
        <time>2020-07-02T07:14:12Z</time>
      </trkpt>
      <trkpt lat="48.78962" lon="2.28838">
        <ele>105.6</ele>
        <time>2020-07-02T07:14:13Z</time>
      </trkpt>
      <trkpt lat="48.78957" lon="2.28835">
        <ele>105.1</ele>
        <time>2020-07-02T07:14:14Z</time>
      </trkpt>
      <trkpt lat="48.78952" lon="2.28833">
        <ele>104.7</ele>
        <time>2020-07-02T07:14:15Z</time>
      </trkpt>
      <trkpt lat="48.78948" lon="2.28831">
        <ele>104.3</ele>
        <time>2020-07-02T07:14:16Z</time>
      </trkpt>
      <trkpt lat="48.78946" lon="2.28829">
        <ele>104</ele>
        <time>2020-07-02T07:14:17Z</time>
      </trkpt>
      <trkpt lat="48.78943" lon="2.28828">
        <ele>103.7</ele>
        <time>2020-07-02T07:14:18Z</time>
      </trkpt>
      <trkpt lat="48.78939" lon="2.28826">
        <ele>103.4</ele>
        <time>2020-07-02T07:14:19Z</time>
      </trkpt>
      <trkpt lat="48.78935" lon="2.28824">
        <ele>102.9</ele>
        <time>2020-07-02T07:14:20Z</time>
      </trkpt>
      <trkpt lat="48.78931" lon="2.28823">
        <ele>102.4</ele>
        <time>2020-07-02T07:14:21Z</time>
      </trkpt>
      <trkpt lat="48.78926" lon="2.28822">
        <ele>101.9</ele>
        <time>2020-07-02T07:14:22Z</time>
      </trkpt>
      <trkpt lat="48.78921" lon="2.2882">
        <ele>101.4</ele>
        <time>2020-07-02T07:14:23Z</time>
      </trkpt>
      <trkpt lat="48.78918" lon="2.28817">
        <ele>100.9</ele>
        <time>2020-07-02T07:14:24Z</time>
      </trkpt>
      <trkpt lat="48.78914" lon="2.28813">
        <ele>100.5</ele>
        <time>2020-07-02T07:14:25Z</time>
      </trkpt>
      <trkpt lat="48.78912" lon="2.2881">
        <ele>100.1</ele>
        <time>2020-07-02T07:14:26Z</time>
      </trkpt>
      <trkpt lat="48.78909" lon="2.28807">
        <ele>99.7</ele>
        <time>2020-07-02T07:14:27Z</time>
      </trkpt>
      <trkpt lat="48.78908" lon="2.28803">
        <ele>99.2</ele>
        <time>2020-07-02T07:14:28Z</time>
      </trkpt>
      <trkpt lat="48.78906" lon="2.288">
        <ele>99.1</ele>
        <time>2020-07-02T07:14:29Z</time>
      </trkpt>
      <trkpt lat="48.78903" lon="2.28797">
        <ele>98.9</ele>
        <time>2020-07-02T07:14:30Z</time>
      </trkpt>
      <trkpt lat="48.789" lon="2.28795">
        <ele>98.7</ele>
        <time>2020-07-02T07:14:31Z</time>
      </trkpt>
      <trkpt lat="48.78895" lon="2.28796">
        <ele>98.5</ele>
        <time>2020-07-02T07:14:32Z</time>
      </trkpt>
      <trkpt lat="48.7889" lon="2.28798">
        <ele>98.2</ele>
        <time>2020-07-02T07:14:33Z</time>
      </trkpt>
      <trkpt lat="48.78884" lon="2.288">
        <ele>97.8</ele>
        <time>2020-07-02T07:14:34Z</time>
      </trkpt>
      <trkpt lat="48.78878" lon="2.28801">
        <ele>97.5</ele>
        <time>2020-07-02T07:14:35Z</time>
      </trkpt>
      <trkpt lat="48.78871" lon="2.28803">
        <ele>97.5</ele>
        <time>2020-07-02T07:14:36Z</time>
      </trkpt>
      <trkpt lat="48.78864" lon="2.28802">
        <ele>98.3</ele>
        <time>2020-07-02T07:14:37Z</time>
      </trkpt>
      <trkpt lat="48.78857" lon="2.28801">
        <ele>98.1</ele>
        <time>2020-07-02T07:14:38Z</time>
      </trkpt>
      <trkpt lat="48.7885" lon="2.288">
        <ele>97.9</ele>
        <time>2020-07-02T07:14:39Z</time>
      </trkpt>
      <trkpt lat="48.78843" lon="2.28799">
        <ele>97.8</ele>
        <time>2020-07-02T07:14:40Z</time>
      </trkpt>
      <trkpt lat="48.78837" lon="2.28797">
        <ele>97.6</ele>
        <time>2020-07-02T07:14:41Z</time>
      </trkpt>
      <trkpt lat="48.78831" lon="2.28796">
        <ele>97.5</ele>
        <time>2020-07-02T07:14:42Z</time>
      </trkpt>
      <trkpt lat="48.78825" lon="2.28794">
        <ele>97.5</ele>
        <time>2020-07-02T07:14:43Z</time>
      </trkpt>
      <trkpt lat="48.78819" lon="2.28792">
        <ele>97.5</ele>
        <time>2020-07-02T07:14:44Z</time>
      </trkpt>
      <trkpt lat="48.78814" lon="2.2879">
        <ele>97.4</ele>
        <time>2020-07-02T07:14:45Z</time>
      </trkpt>
      <trkpt lat="48.78808" lon="2.28788">
        <ele>97.4</ele>
        <time>2020-07-02T07:14:46Z</time>
      </trkpt>
      <trkpt lat="48.78803" lon="2.28787">
        <ele>97.3</ele>
        <time>2020-07-02T07:14:47Z</time>
      </trkpt>
      <trkpt lat="48.78797" lon="2.28785">
        <ele>97.3</ele>
        <time>2020-07-02T07:14:48Z</time>
      </trkpt>
      <trkpt lat="48.78792" lon="2.28783">
        <ele>97.4</ele>
        <time>2020-07-02T07:14:49Z</time>
      </trkpt>
      <trkpt lat="48.78786" lon="2.2878">
        <ele>97.4</ele>
        <time>2020-07-02T07:14:50Z</time>
      </trkpt>
      <trkpt lat="48.78779" lon="2.28777">
        <ele>97.6</ele>
        <time>2020-07-02T07:14:51Z</time>
      </trkpt>
      <trkpt lat="48.78773" lon="2.28775">
        <ele>97.7</ele>
        <time>2020-07-02T07:14:52Z</time>
      </trkpt>
      <trkpt lat="48.78767" lon="2.28773">
        <ele>97.8</ele>
        <time>2020-07-02T07:14:53Z</time>
      </trkpt>
      <trkpt lat="48.78761" lon="2.2877">
        <ele>97.9</ele>
        <time>2020-07-02T07:14:54Z</time>
      </trkpt>
      <trkpt lat="48.78755" lon="2.28769">
        <ele>98</ele>
        <time>2020-07-02T07:14:55Z</time>
      </trkpt>
      <trkpt lat="48.7875" lon="2.28767">
        <ele>98.1</ele>
        <time>2020-07-02T07:14:56Z</time>
      </trkpt>
      <trkpt lat="48.78743" lon="2.28764">
        <ele>98.2</ele>
        <time>2020-07-02T07:14:57Z</time>
      </trkpt>
      <trkpt lat="48.78736" lon="2.28761">
        <ele>98.3</ele>
        <time>2020-07-02T07:14:58Z</time>
      </trkpt>
      <trkpt lat="48.78731" lon="2.28759">
        <ele>98.4</ele>
        <time>2020-07-02T07:14:59Z</time>
      </trkpt>
      <trkpt lat="48.78726" lon="2.28756">
        <ele>98.5</ele>
        <time>2020-07-02T07:15:00Z</time>
      </trkpt>
      <trkpt lat="48.78722" lon="2.28754">
        <ele>98.5</ele>
        <time>2020-07-02T07:15:01Z</time>
      </trkpt>
      <trkpt lat="48.78718" lon="2.28752">
        <ele>98.6</ele>
        <time>2020-07-02T07:15:02Z</time>
      </trkpt>
      <trkpt lat="48.78712" lon="2.28749">
        <ele>98.7</ele>
        <time>2020-07-02T07:15:03Z</time>
      </trkpt>
      <trkpt lat="48.78707" lon="2.28747">
        <ele>98.8</ele>
        <time>2020-07-02T07:15:04Z</time>
      </trkpt>
      <trkpt lat="48.78701" lon="2.28744">
        <ele>98.8</ele>
        <time>2020-07-02T07:15:05Z</time>
      </trkpt>
      <trkpt lat="48.78697" lon="2.28743">
        <ele>98.9</ele>
        <time>2020-07-02T07:15:06Z</time>
      </trkpt>
      <trkpt lat="48.78692" lon="2.2874">
        <ele>99</ele>
        <time>2020-07-02T07:15:07Z</time>
      </trkpt>
      <trkpt lat="48.78687" lon="2.28739">
        <ele>99.1</ele>
        <time>2020-07-02T07:15:08Z</time>
      </trkpt>
      <trkpt lat="48.7868" lon="2.28736">
        <ele>99.2</ele>
        <time>2020-07-02T07:15:09Z</time>
      </trkpt>
      <trkpt lat="48.78675" lon="2.28734">
        <ele>99.3</ele>
        <time>2020-07-02T07:15:10Z</time>
      </trkpt>
      <trkpt lat="48.7867" lon="2.28732">
        <ele>99.4</ele>
        <time>2020-07-02T07:15:11Z</time>
      </trkpt>
      <trkpt lat="48.78664" lon="2.28729">
        <ele>99.4</ele>
        <time>2020-07-02T07:15:12Z</time>
      </trkpt>
      <trkpt lat="48.78659" lon="2.28726">
        <ele>99.5</ele>
        <time>2020-07-02T07:15:13Z</time>
      </trkpt>
      <trkpt lat="48.78654" lon="2.28723">
        <ele>99.5</ele>
        <time>2020-07-02T07:15:14Z</time>
      </trkpt>
      <trkpt lat="48.7865" lon="2.2872">
        <ele>99.1</ele>
        <time>2020-07-02T07:15:15Z</time>
      </trkpt>
      <trkpt lat="48.78647" lon="2.28718">
        <ele>98.9</ele>
        <time>2020-07-02T07:15:16Z</time>
      </trkpt>
      <trkpt lat="48.78644" lon="2.28719">
        <ele>98.6</ele>
        <time>2020-07-02T07:15:17Z</time>
      </trkpt>
      <trkpt lat="48.78642" lon="2.28725">
        <ele>98.3</ele>
        <time>2020-07-02T07:15:18Z</time>
      </trkpt>
      <trkpt lat="48.78642" lon="2.28732">
        <ele>97.9</ele>
        <time>2020-07-02T07:15:19Z</time>
      </trkpt>
      <trkpt lat="48.78641" lon="2.28736">
        <ele>97.6</ele>
        <time>2020-07-02T07:15:20Z</time>
      </trkpt>
      <trkpt lat="48.7864" lon="2.28737">
        <ele>97.5</ele>
        <time>2020-07-02T07:15:21Z</time>
      </trkpt>
      <trkpt lat="48.7864" lon="2.28739">
        <ele>97.4</ele>
        <time>2020-07-02T07:15:22Z</time>
      </trkpt>
      <trkpt lat="48.78636" lon="2.2874">
        <ele>97.1</ele>
        <time>2020-07-02T07:15:23Z</time>
      </trkpt>
      <trkpt lat="48.78632" lon="2.28742">
        <ele>96.7</ele>
        <time>2020-07-02T07:15:24Z</time>
      </trkpt>
      <trkpt lat="48.78627" lon="2.28743">
        <ele>96.2</ele>
        <time>2020-07-02T07:15:25Z</time>
      </trkpt>
      <trkpt lat="48.78622" lon="2.28745">
        <ele>95.8</ele>
        <time>2020-07-02T07:15:26Z</time>
      </trkpt>
      <trkpt lat="48.78617" lon="2.28747">
        <ele>95.3</ele>
        <time>2020-07-02T07:15:27Z</time>
      </trkpt>
      <trkpt lat="48.78613" lon="2.2875">
        <ele>94.9</ele>
        <time>2020-07-02T07:15:28Z</time>
      </trkpt>
      <trkpt lat="48.78607" lon="2.28754">
        <ele>94.4</ele>
        <time>2020-07-02T07:15:29Z</time>
      </trkpt>
      <trkpt lat="48.78602" lon="2.28758">
        <ele>94</ele>
        <time>2020-07-02T07:15:30Z</time>
      </trkpt>
      <trkpt lat="48.78598" lon="2.28762">
        <ele>93.6</ele>
        <time>2020-07-02T07:15:31Z</time>
      </trkpt>
      <trkpt lat="48.78595" lon="2.28765">
        <ele>93.3</ele>
        <time>2020-07-02T07:15:32Z</time>
      </trkpt>
      <trkpt lat="48.78589" lon="2.28767">
        <ele>93</ele>
        <time>2020-07-02T07:15:33Z</time>
      </trkpt>
      <trkpt lat="48.78583" lon="2.28766">
        <ele>92.6</ele>
        <time>2020-07-02T07:15:34Z</time>
      </trkpt>
      <trkpt lat="48.78577" lon="2.28766">
        <ele>92.5</ele>
        <time>2020-07-02T07:15:35Z</time>
      </trkpt>
      <trkpt lat="48.78572" lon="2.28765">
        <ele>92.4</ele>
        <time>2020-07-02T07:15:36Z</time>
      </trkpt>
      <trkpt lat="48.78567" lon="2.28766">
        <ele>92.3</ele>
        <time>2020-07-02T07:15:37Z</time>
      </trkpt>
      <trkpt lat="48.78563" lon="2.28769">
        <ele>92.3</ele>
        <time>2020-07-02T07:15:38Z</time>
      </trkpt>
      <trkpt lat="48.78559" lon="2.28772">
        <ele>92.3</ele>
        <time>2020-07-02T07:15:39Z</time>
      </trkpt>
      <trkpt lat="48.78555" lon="2.28774">
        <ele>92.3</ele>
        <time>2020-07-02T07:15:40Z</time>
      </trkpt>
      <trkpt lat="48.78551" lon="2.28775">
        <ele>92.4</ele>
        <time>2020-07-02T07:15:41Z</time>
      </trkpt>
      <trkpt lat="48.78548" lon="2.28776">
        <ele>92.4</ele>
        <time>2020-07-02T07:15:42Z</time>
      </trkpt>
      <trkpt lat="48.78545" lon="2.28777">
        <ele>92.5</ele>
        <time>2020-07-02T07:15:43Z</time>
      </trkpt>
      <trkpt lat="48.78541" lon="2.28778">
        <ele>92.6</ele>
        <time>2020-07-02T07:15:44Z</time>
      </trkpt>
      <trkpt lat="48.78538" lon="2.28779">
        <ele>92.6</ele>
        <time>2020-07-02T07:15:45Z</time>
      </trkpt>
      <trkpt lat="48.78534" lon="2.28781">
        <ele>92.7</ele>
        <time>2020-07-02T07:15:46Z</time>
      </trkpt>
      <trkpt lat="48.78531" lon="2.28782">
        <ele>92.9</ele>
        <time>2020-07-02T07:15:47Z</time>
      </trkpt>
      <trkpt lat="48.78526" lon="2.28784">
        <ele>92.9</ele>
        <time>2020-07-02T07:15:48Z</time>
      </trkpt>
      <trkpt lat="48.78521" lon="2.28787">
        <ele>92.9</ele>
        <time>2020-07-02T07:15:49Z</time>
      </trkpt>
      <trkpt lat="48.78518" lon="2.2879">
        <ele>92.9</ele>
        <time>2020-07-02T07:15:50Z</time>
      </trkpt>
      <trkpt lat="48.78514" lon="2.28793">
        <ele>92.9</ele>
        <time>2020-07-02T07:15:51Z</time>
      </trkpt>
      <trkpt lat="48.78509" lon="2.28796">
        <ele>92.8</ele>
        <time>2020-07-02T07:15:52Z</time>
      </trkpt>
      <trkpt lat="48.78505" lon="2.28797">
        <ele>92.7</ele>
        <time>2020-07-02T07:15:53Z</time>
      </trkpt>
      <trkpt lat="48.78501" lon="2.28799">
        <ele>92.6</ele>
        <time>2020-07-02T07:15:54Z</time>
      </trkpt>
      <trkpt lat="48.78496" lon="2.28799">
        <ele>92</ele>
        <time>2020-07-02T07:15:55Z</time>
      </trkpt>
      <trkpt lat="48.78491" lon="2.28798">
        <ele>91.5</ele>
        <time>2020-07-02T07:15:56Z</time>
      </trkpt>
      <trkpt lat="48.78486" lon="2.28797">
        <ele>91</ele>
        <time>2020-07-02T07:15:57Z</time>
      </trkpt>
      <trkpt lat="48.7848" lon="2.28794">
        <ele>90.4</ele>
        <time>2020-07-02T07:15:58Z</time>
      </trkpt>
      <trkpt lat="48.78474" lon="2.2879">
        <ele>89.7</ele>
        <time>2020-07-02T07:15:59Z</time>
      </trkpt>
      <trkpt lat="48.78468" lon="2.28786">
        <ele>89</ele>
        <time>2020-07-02T07:16:00Z</time>
      </trkpt>
      <trkpt lat="48.78462" lon="2.28782">
        <ele>88.6</ele>
        <time>2020-07-02T07:16:01Z</time>
      </trkpt>
      <trkpt lat="48.78455" lon="2.28778">
        <ele>88.3</ele>
        <time>2020-07-02T07:16:02Z</time>
      </trkpt>
      <trkpt lat="48.78447" lon="2.28772">
        <ele>87.8</ele>
        <time>2020-07-02T07:16:03Z</time>
      </trkpt>
      <trkpt lat="48.78438" lon="2.28766">
        <ele>87.2</ele>
        <time>2020-07-02T07:16:04Z</time>
      </trkpt>
      <trkpt lat="48.78431" lon="2.28761">
        <ele>86.7</ele>
        <time>2020-07-02T07:16:05Z</time>
      </trkpt>
      <trkpt lat="48.78424" lon="2.28758">
        <ele>86.2</ele>
        <time>2020-07-02T07:16:06Z</time>
      </trkpt>
      <trkpt lat="48.78417" lon="2.28754">
        <ele>85.8</ele>
        <time>2020-07-02T07:16:07Z</time>
      </trkpt>
      <trkpt lat="48.78412" lon="2.2875">
        <ele>85.4</ele>
        <time>2020-07-02T07:16:08Z</time>
      </trkpt>
      <trkpt lat="48.78405" lon="2.28744">
        <ele>84.9</ele>
        <time>2020-07-02T07:16:09Z</time>
      </trkpt>
      <trkpt lat="48.784" lon="2.28739">
        <ele>84.5</ele>
        <time>2020-07-02T07:16:10Z</time>
      </trkpt>
      <trkpt lat="48.78394" lon="2.28733">
        <ele>84</ele>
        <time>2020-07-02T07:16:11Z</time>
      </trkpt>
      <trkpt lat="48.78388" lon="2.28728">
        <ele>83.6</ele>
        <time>2020-07-02T07:16:12Z</time>
      </trkpt>
      <trkpt lat="48.78382" lon="2.28722">
        <ele>83.1</ele>
        <time>2020-07-02T07:16:13Z</time>
      </trkpt>
      <trkpt lat="48.78376" lon="2.28717">
        <ele>82.6</ele>
        <time>2020-07-02T07:16:14Z</time>
      </trkpt>
      <trkpt lat="48.78371" lon="2.28711">
        <ele>82.1</ele>
        <time>2020-07-02T07:16:15Z</time>
      </trkpt>
      <trkpt lat="48.78366" lon="2.28706">
        <ele>81.6</ele>
        <time>2020-07-02T07:16:16Z</time>
      </trkpt>
      <trkpt lat="48.78361" lon="2.28701">
        <ele>81.1</ele>
        <time>2020-07-02T07:16:17Z</time>
      </trkpt>
      <trkpt lat="48.78357" lon="2.28695">
        <ele>80.7</ele>
        <time>2020-07-02T07:16:18Z</time>
      </trkpt>
      <trkpt lat="48.78352" lon="2.2869">
        <ele>80.3</ele>
        <time>2020-07-02T07:16:19Z</time>
      </trkpt>
      <trkpt lat="48.78348" lon="2.28685">
        <ele>79.8</ele>
        <time>2020-07-02T07:16:20Z</time>
      </trkpt>
      <trkpt lat="48.78345" lon="2.2868">
        <ele>79.5</ele>
        <time>2020-07-02T07:16:21Z</time>
      </trkpt>
      <trkpt lat="48.78342" lon="2.28679">
        <ele>79.3</ele>
        <time>2020-07-02T07:16:22Z</time>
      </trkpt>
      <trkpt lat="48.78339" lon="2.28676">
        <ele>79.1</ele>
        <time>2020-07-02T07:16:23Z</time>
      </trkpt>
      <trkpt lat="48.78338" lon="2.28675">
        <ele>79</ele>
        <time>2020-07-02T07:16:24Z</time>
      </trkpt>
      <trkpt lat="48.78334" lon="2.28674">
        <ele>78.8</ele>
        <time>2020-07-02T07:16:25Z</time>
      </trkpt>
      <trkpt lat="48.78333" lon="2.28673">
        <ele>78.7</ele>
        <time>2020-07-02T07:16:26Z</time>
      </trkpt>
      <trkpt lat="48.7833" lon="2.28675">
        <ele>78.6</ele>
        <time>2020-07-02T07:16:27Z</time>
      </trkpt>
      <trkpt lat="48.78328" lon="2.28678">
        <ele>78.3</ele>
        <time>2020-07-02T07:16:28Z</time>
      </trkpt>
      <trkpt lat="48.78327" lon="2.28681">
        <ele>78.3</ele>
        <time>2020-07-02T07:16:29Z</time>
      </trkpt>
      <trkpt lat="48.78325" lon="2.28686">
        <ele>78.3</ele>
        <time>2020-07-02T07:16:30Z</time>
      </trkpt>
      <trkpt lat="48.78324" lon="2.28691">
        <ele>78.3</ele>
        <time>2020-07-02T07:16:31Z</time>
      </trkpt>
      <trkpt lat="48.78323" lon="2.28696">
        <ele>78.3</ele>
        <time>2020-07-02T07:16:32Z</time>
      </trkpt>
      <trkpt lat="48.78322" lon="2.28701">
        <ele>78.3</ele>
        <time>2020-07-02T07:16:33Z</time>
      </trkpt>
      <trkpt lat="48.78321" lon="2.28706">
        <ele>78.3</ele>
        <time>2020-07-02T07:16:34Z</time>
      </trkpt>
      <trkpt lat="48.78321" lon="2.28708">
        <ele>78.3</ele>
        <time>2020-07-02T07:16:35Z</time>
      </trkpt>
      <trkpt lat="48.78321" lon="2.28711">
        <ele>78.3</ele>
        <time>2020-07-02T07:16:36Z</time>
      </trkpt>
      <trkpt lat="48.78319" lon="2.28713">
        <ele>78.3</ele>
        <time>2020-07-02T07:16:37Z</time>
      </trkpt>
      <trkpt lat="48.78318" lon="2.28713">
        <ele>78.3</ele>
        <time>2020-07-02T07:16:38Z</time>
      </trkpt>
      <trkpt lat="48.78317" lon="2.28713">
        <ele>78.3</ele>
        <time>2020-07-02T07:16:39Z</time>
      </trkpt>
      <trkpt lat="48.78315" lon="2.28713">
        <ele>78.3</ele>
        <time>2020-07-02T07:16:40Z</time>
      </trkpt>
      <trkpt lat="48.78314" lon="2.28713">
        <ele>78.3</ele>
        <time>2020-07-02T07:16:41Z</time>
      </trkpt>
      <trkpt lat="48.78311" lon="2.28711">
        <ele>78.3</ele>
        <time>2020-07-02T07:16:42Z</time>
      </trkpt>
      <trkpt lat="48.7831" lon="2.28711">
        <ele>78.3</ele>
        <time>2020-07-02T07:16:43Z</time>
      </trkpt>
      <trkpt lat="48.78307" lon="2.28711">
        <ele>78.3</ele>
        <time>2020-07-02T07:16:44Z</time>
      </trkpt>
      <trkpt lat="48.78304" lon="2.2871">
        <ele>78.4</ele>
        <time>2020-07-02T07:16:45Z</time>
      </trkpt>
      <trkpt lat="48.78301" lon="2.28709">
        <ele>78.4</ele>
        <time>2020-07-02T07:16:46Z</time>
      </trkpt>
      <trkpt lat="48.78298" lon="2.28706">
        <ele>78.5</ele>
        <time>2020-07-02T07:16:47Z</time>
      </trkpt>
      <trkpt lat="48.78295" lon="2.28705">
        <ele>78.6</ele>
        <time>2020-07-02T07:16:48Z</time>
      </trkpt>
      <trkpt lat="48.78291" lon="2.28703">
        <ele>78.7</ele>
        <time>2020-07-02T07:16:49Z</time>
      </trkpt>
      <trkpt lat="48.78288" lon="2.28701">
        <ele>78.8</ele>
        <time>2020-07-02T07:16:50Z</time>
      </trkpt>
      <trkpt lat="48.78285" lon="2.287">
        <ele>78.9</ele>
        <time>2020-07-02T07:16:51Z</time>
      </trkpt>
      <trkpt lat="48.78282" lon="2.28698">
        <ele>79</ele>
        <time>2020-07-02T07:16:52Z</time>
      </trkpt>
      <trkpt lat="48.78279" lon="2.28697">
        <ele>79.2</ele>
        <time>2020-07-02T07:16:53Z</time>
      </trkpt>
      <trkpt lat="48.78276" lon="2.28696">
        <ele>79.3</ele>
        <time>2020-07-02T07:16:54Z</time>
      </trkpt>
      <trkpt lat="48.78273" lon="2.28696">
        <ele>79.4</ele>
        <time>2020-07-02T07:16:55Z</time>
      </trkpt>
      <trkpt lat="48.7827" lon="2.28698">
        <ele>79.5</ele>
        <time>2020-07-02T07:16:56Z</time>
      </trkpt>
      <trkpt lat="48.78268" lon="2.287">
        <ele>79.7</ele>
        <time>2020-07-02T07:16:57Z</time>
      </trkpt>
      <trkpt lat="48.78265" lon="2.28702">
        <ele>79.8</ele>
        <time>2020-07-02T07:16:58Z</time>
      </trkpt>
      <trkpt lat="48.78262" lon="2.28704">
        <ele>80</ele>
        <time>2020-07-02T07:16:59Z</time>
      </trkpt>
      <trkpt lat="48.78261" lon="2.28705">
        <ele>80</ele>
        <time>2020-07-02T07:17:00Z</time>
      </trkpt>
      <trkpt lat="48.78258" lon="2.28706">
        <ele>80.2</ele>
        <time>2020-07-02T07:17:01Z</time>
      </trkpt>
      <trkpt lat="48.78257" lon="2.28707">
        <ele>80.3</ele>
        <time>2020-07-02T07:17:02Z</time>
      </trkpt>
      <trkpt lat="48.78253" lon="2.28708">
        <ele>80.5</ele>
        <time>2020-07-02T07:17:03Z</time>
      </trkpt>
      <trkpt lat="48.78252" lon="2.28708">
        <ele>80.6</ele>
        <time>2020-07-02T07:17:04Z</time>
      </trkpt>
      <trkpt lat="48.7825" lon="2.2871">
        <ele>80.7</ele>
        <time>2020-07-02T07:17:05Z</time>
      </trkpt>
      <trkpt lat="48.78249" lon="2.28712">
        <ele>80.8</ele>
        <time>2020-07-02T07:17:06Z</time>
      </trkpt>
      <trkpt lat="48.78247" lon="2.28712">
        <ele>80.9</ele>
        <time>2020-07-02T07:17:07Z</time>
      </trkpt>
      <trkpt lat="48.78246" lon="2.28713">
        <ele>81</ele>
        <time>2020-07-02T07:17:08Z</time>
      </trkpt>
      <trkpt lat="48.78245" lon="2.28712">
        <ele>81.1</ele>
        <time>2020-07-02T07:17:09Z</time>
      </trkpt>
      <trkpt lat="48.78244" lon="2.28711">
        <ele>81.2</ele>
        <time>2020-07-02T07:17:10Z</time>
      </trkpt>
      <trkpt lat="48.78241" lon="2.2871">
        <ele>81.4</ele>
        <time>2020-07-02T07:17:11Z</time>
      </trkpt>
      <trkpt lat="48.7824" lon="2.2871">
        <ele>81.5</ele>
        <time>2020-07-02T07:17:12Z</time>
      </trkpt>
      <trkpt lat="48.78237" lon="2.28711">
        <ele>81.7</ele>
        <time>2020-07-02T07:17:13Z</time>
      </trkpt>
      <trkpt lat="48.78236" lon="2.28712">
        <ele>81.8</ele>
        <time>2020-07-02T07:17:14Z</time>
      </trkpt>
      <trkpt lat="48.78233" lon="2.28713">
        <ele>82</ele>
        <time>2020-07-02T07:17:15Z</time>
      </trkpt>
      <trkpt lat="48.78232" lon="2.28714">
        <ele>82.7</ele>
        <time>2020-07-02T07:17:16Z</time>
      </trkpt>
      <trkpt lat="48.78229" lon="2.28717">
        <ele>82.7</ele>
        <time>2020-07-02T07:17:17Z</time>
      </trkpt>
      <trkpt lat="48.78228" lon="2.28718">
        <ele>82.7</ele>
        <time>2020-07-02T07:17:18Z</time>
      </trkpt>
      <trkpt lat="48.78226" lon="2.2872">
        <ele>82.7</ele>
        <time>2020-07-02T07:17:19Z</time>
      </trkpt>
      <trkpt lat="48.78224" lon="2.28722">
        <ele>82.6</ele>
        <time>2020-07-02T07:17:20Z</time>
      </trkpt>
      <trkpt lat="48.78221" lon="2.28725">
        <ele>82.8</ele>
        <time>2020-07-02T07:17:21Z</time>
      </trkpt>
      <trkpt lat="48.78218" lon="2.28727">
        <ele>83</ele>
        <time>2020-07-02T07:17:22Z</time>
      </trkpt>
      <trkpt lat="48.78215" lon="2.2873">
        <ele>83.3</ele>
        <time>2020-07-02T07:17:23Z</time>
      </trkpt>
      <trkpt lat="48.78213" lon="2.28733">
        <ele>83.5</ele>
        <time>2020-07-02T07:17:24Z</time>
      </trkpt>
      <trkpt lat="48.7821" lon="2.28735">
        <ele>83.7</ele>
        <time>2020-07-02T07:17:25Z</time>
      </trkpt>
      <trkpt lat="48.78206" lon="2.28736">
        <ele>83.9</ele>
        <time>2020-07-02T07:17:26Z</time>
      </trkpt>
      <trkpt lat="48.78203" lon="2.28737">
        <ele>84.1</ele>
        <time>2020-07-02T07:17:27Z</time>
      </trkpt>
      <trkpt lat="48.782" lon="2.28736">
        <ele>84.3</ele>
        <time>2020-07-02T07:17:28Z</time>
      </trkpt>
      <trkpt lat="48.78197" lon="2.28735">
        <ele>84.4</ele>
        <time>2020-07-02T07:17:29Z</time>
      </trkpt>
      <trkpt lat="48.78193" lon="2.28734">
        <ele>84.7</ele>
        <time>2020-07-02T07:17:30Z</time>
      </trkpt>
      <trkpt lat="48.78192" lon="2.28733">
        <ele>84.8</ele>
        <time>2020-07-02T07:17:31Z</time>
      </trkpt>
      <trkpt lat="48.78189" lon="2.28731">
        <ele>85</ele>
        <time>2020-07-02T07:17:32Z</time>
      </trkpt>
      <trkpt lat="48.78187" lon="2.28728">
        <ele>85.1</ele>
        <time>2020-07-02T07:17:33Z</time>
      </trkpt>
      <trkpt lat="48.78185" lon="2.28725">
        <ele>85.3</ele>
        <time>2020-07-02T07:17:34Z</time>
      </trkpt>
      <trkpt lat="48.78182" lon="2.28721">
        <ele>85.5</ele>
        <time>2020-07-02T07:17:35Z</time>
      </trkpt>
      <trkpt lat="48.7818" lon="2.28717">
        <ele>85.7</ele>
        <time>2020-07-02T07:17:36Z</time>
      </trkpt>
      <trkpt lat="48.78179" lon="2.28711">
        <ele>85.9</ele>
        <time>2020-07-02T07:17:37Z</time>
      </trkpt>
      <trkpt lat="48.78177" lon="2.28707">
        <ele>86.1</ele>
        <time>2020-07-02T07:17:38Z</time>
      </trkpt>
      <trkpt lat="48.78175" lon="2.28704">
        <ele>86.2</ele>
        <time>2020-07-02T07:17:39Z</time>
      </trkpt>
      <trkpt lat="48.78172" lon="2.28702">
        <ele>86.4</ele>
        <time>2020-07-02T07:17:40Z</time>
      </trkpt>
      <trkpt lat="48.78169" lon="2.287">
        <ele>86.5</ele>
        <time>2020-07-02T07:17:41Z</time>
      </trkpt>
      <trkpt lat="48.78165" lon="2.28698">
        <ele>86.7</ele>
        <time>2020-07-02T07:17:42Z</time>
      </trkpt>
      <trkpt lat="48.78163" lon="2.28698">
        <ele>86.8</ele>
        <time>2020-07-02T07:17:43Z</time>
      </trkpt>
      <trkpt lat="48.78161" lon="2.28697">
        <ele>86.9</ele>
        <time>2020-07-02T07:17:44Z</time>
      </trkpt>
      <trkpt lat="48.78159" lon="2.28696">
        <ele>87</ele>
        <time>2020-07-02T07:17:45Z</time>
      </trkpt>
      <trkpt lat="48.78158" lon="2.28696">
        <ele>87.1</ele>
        <time>2020-07-02T07:17:46Z</time>
      </trkpt>
      <trkpt lat="48.78156" lon="2.28696">
        <ele>87.1</ele>
        <time>2020-07-02T07:17:47Z</time>
      </trkpt>
      <trkpt lat="48.78155" lon="2.28695">
        <ele>87.2</ele>
        <time>2020-07-02T07:17:48Z</time>
      </trkpt>
      <trkpt lat="48.78152" lon="2.28692">
        <ele>87.3</ele>
        <time>2020-07-02T07:17:49Z</time>
      </trkpt>
      <trkpt lat="48.78151" lon="2.28691">
        <ele>87.3</ele>
        <time>2020-07-02T07:17:50Z</time>
      </trkpt>
      <trkpt lat="48.78148" lon="2.28689">
        <ele>87.5</ele>
        <time>2020-07-02T07:17:51Z</time>
      </trkpt>
      <trkpt lat="48.78147" lon="2.28688">
        <ele>87.6</ele>
        <time>2020-07-02T07:17:52Z</time>
      </trkpt>
      <trkpt lat="48.78144" lon="2.28687">
        <ele>87.7</ele>
        <time>2020-07-02T07:17:53Z</time>
      </trkpt>
      <trkpt lat="48.78143" lon="2.28686">
        <ele>87.8</ele>
        <time>2020-07-02T07:17:54Z</time>
      </trkpt>
      <trkpt lat="48.78139" lon="2.28685">
        <ele>88.1</ele>
        <time>2020-07-02T07:17:55Z</time>
      </trkpt>
      <trkpt lat="48.78137" lon="2.28685">
        <ele>88.2</ele>
        <time>2020-07-02T07:17:56Z</time>
      </trkpt>
      <trkpt lat="48.78133" lon="2.28685">
        <ele>88.4</ele>
        <time>2020-07-02T07:17:57Z</time>
      </trkpt>
      <trkpt lat="48.78132" lon="2.28685">
        <ele>88.4</ele>
        <time>2020-07-02T07:17:58Z</time>
      </trkpt>
      <trkpt lat="48.78129" lon="2.28684">
        <ele>88.6</ele>
        <time>2020-07-02T07:17:59Z</time>
      </trkpt>
      <trkpt lat="48.78127" lon="2.28684">
        <ele>88.8</ele>
        <time>2020-07-02T07:18:00Z</time>
      </trkpt>
      <trkpt lat="48.78124" lon="2.28684">
        <ele>89</ele>
        <time>2020-07-02T07:18:01Z</time>
      </trkpt>
      <trkpt lat="48.78121" lon="2.28685">
        <ele>89.2</ele>
        <time>2020-07-02T07:18:02Z</time>
      </trkpt>
      <trkpt lat="48.78117" lon="2.28686">
        <ele>89.4</ele>
        <time>2020-07-02T07:18:03Z</time>
      </trkpt>
      <trkpt lat="48.78114" lon="2.28689">
        <ele>89.7</ele>
        <time>2020-07-02T07:18:04Z</time>
      </trkpt>
      <trkpt lat="48.7811" lon="2.28693">
        <ele>90</ele>
        <time>2020-07-02T07:18:05Z</time>
      </trkpt>
      <trkpt lat="48.78107" lon="2.28697">
        <ele>90.2</ele>
        <time>2020-07-02T07:18:06Z</time>
      </trkpt>
      <trkpt lat="48.78104" lon="2.28699">
        <ele>90.5</ele>
        <time>2020-07-02T07:18:07Z</time>
      </trkpt>
      <trkpt lat="48.78103" lon="2.287">
        <ele>90.5</ele>
        <time>2020-07-02T07:18:08Z</time>
      </trkpt>
      <trkpt lat="48.781" lon="2.28703">
        <ele>90.8</ele>
        <time>2020-07-02T07:18:09Z</time>
      </trkpt>
      <trkpt lat="48.78097" lon="2.28705">
        <ele>91</ele>
        <time>2020-07-02T07:18:10Z</time>
      </trkpt>
      <trkpt lat="48.78095" lon="2.28707">
        <ele>91.2</ele>
        <time>2020-07-02T07:18:11Z</time>
      </trkpt>
      <trkpt lat="48.78091" lon="2.28708">
        <ele>91.4</ele>
        <time>2020-07-02T07:18:12Z</time>
      </trkpt>
      <trkpt lat="48.7809" lon="2.28708">
        <ele>91.5</ele>
        <time>2020-07-02T07:18:13Z</time>
      </trkpt>
      <trkpt lat="48.78087" lon="2.28709">
        <ele>91.7</ele>
        <time>2020-07-02T07:18:14Z</time>
      </trkpt>
      <trkpt lat="48.78084" lon="2.28709">
        <ele>91.9</ele>
        <time>2020-07-02T07:18:15Z</time>
      </trkpt>
      <trkpt lat="48.7808" lon="2.28709">
        <ele>92.2</ele>
        <time>2020-07-02T07:18:16Z</time>
      </trkpt>
      <trkpt lat="48.78079" lon="2.28708">
        <ele>92.3</ele>
        <time>2020-07-02T07:18:17Z</time>
      </trkpt>
      <trkpt lat="48.78076" lon="2.28707">
        <ele>92.5</ele>
        <time>2020-07-02T07:18:18Z</time>
      </trkpt>
      <trkpt lat="48.78073" lon="2.28706">
        <ele>92.7</ele>
        <time>2020-07-02T07:18:19Z</time>
      </trkpt>
      <trkpt lat="48.78071" lon="2.28703">
        <ele>93</ele>
        <time>2020-07-02T07:18:20Z</time>
      </trkpt>
      <trkpt lat="48.78069" lon="2.287">
        <ele>93.2</ele>
        <time>2020-07-02T07:18:21Z</time>
      </trkpt>
      <trkpt lat="48.78066" lon="2.28697">
        <ele>93.4</ele>
        <time>2020-07-02T07:18:22Z</time>
      </trkpt>
      <trkpt lat="48.78064" lon="2.28693">
        <ele>93.7</ele>
        <time>2020-07-02T07:18:23Z</time>
      </trkpt>
      <trkpt lat="48.78064" lon="2.28691">
        <ele>93.8</ele>
        <time>2020-07-02T07:18:24Z</time>
      </trkpt>
      <trkpt lat="48.78062" lon="2.28687">
        <ele>94</ele>
        <time>2020-07-02T07:18:25Z</time>
      </trkpt>
      <trkpt lat="48.7806" lon="2.28684">
        <ele>94.3</ele>
        <time>2020-07-02T07:18:26Z</time>
      </trkpt>
      <trkpt lat="48.78059" lon="2.28683">
        <ele>94.4</ele>
        <time>2020-07-02T07:18:27Z</time>
      </trkpt>
      <trkpt lat="48.78057" lon="2.28679">
        <ele>94.6</ele>
        <time>2020-07-02T07:18:28Z</time>
      </trkpt>
      <trkpt lat="48.78056" lon="2.28678">
        <ele>94.7</ele>
        <time>2020-07-02T07:18:29Z</time>
      </trkpt>
      <trkpt lat="48.78053" lon="2.28677">
        <ele>94.9</ele>
        <time>2020-07-02T07:18:30Z</time>
      </trkpt>
      <trkpt lat="48.7805" lon="2.28675">
        <ele>95.1</ele>
        <time>2020-07-02T07:18:31Z</time>
      </trkpt>
      <trkpt lat="48.78047" lon="2.28673">
        <ele>95.3</ele>
        <time>2020-07-02T07:18:32Z</time>
      </trkpt>
      <trkpt lat="48.78046" lon="2.28672">
        <ele>95.4</ele>
        <time>2020-07-02T07:18:33Z</time>
      </trkpt>
      <trkpt lat="48.78042" lon="2.28671">
        <ele>95.6</ele>
        <time>2020-07-02T07:18:34Z</time>
      </trkpt>
      <trkpt lat="48.78041" lon="2.2867">
        <ele>95.7</ele>
        <time>2020-07-02T07:18:35Z</time>
      </trkpt>
      <trkpt lat="48.78038" lon="2.28669">
        <ele>95.9</ele>
        <time>2020-07-02T07:18:36Z</time>
      </trkpt>
      <trkpt lat="48.78037" lon="2.2867">
        <ele>96</ele>
        <time>2020-07-02T07:18:37Z</time>
      </trkpt>
      <trkpt lat="48.78035" lon="2.2867">
        <ele>96.1</ele>
        <time>2020-07-02T07:18:38Z</time>
      </trkpt>
      <trkpt lat="48.78034" lon="2.28671">
        <ele>96.1</ele>
        <time>2020-07-02T07:18:39Z</time>
      </trkpt>
      <trkpt lat="48.78031" lon="2.28672">
        <ele>96.3</ele>
        <time>2020-07-02T07:18:40Z</time>
      </trkpt>
      <trkpt lat="48.7803" lon="2.28672">
        <ele>96.4</ele>
        <time>2020-07-02T07:18:41Z</time>
      </trkpt>
      <trkpt lat="48.78026" lon="2.2867">
        <ele>96.5</ele>
        <time>2020-07-02T07:18:42Z</time>
      </trkpt>
      <trkpt lat="48.78025" lon="2.28669">
        <ele>96.5</ele>
        <time>2020-07-02T07:18:43Z</time>
      </trkpt>
      <trkpt lat="48.78023" lon="2.28665">
        <ele>96.6</ele>
        <time>2020-07-02T07:18:44Z</time>
      </trkpt>
      <trkpt lat="48.78021" lon="2.28663">
        <ele>96.7</ele>
        <time>2020-07-02T07:18:45Z</time>
      </trkpt>
      <trkpt lat="48.78017" lon="2.28661">
        <ele>96.9</ele>
        <time>2020-07-02T07:18:46Z</time>
      </trkpt>
      <trkpt lat="48.78016" lon="2.28661">
        <ele>96.9</ele>
        <time>2020-07-02T07:18:47Z</time>
      </trkpt>
      <trkpt lat="48.78012" lon="2.28661">
        <ele>97.1</ele>
        <time>2020-07-02T07:18:48Z</time>
      </trkpt>
      <trkpt lat="48.78011" lon="2.28661">
        <ele>97.1</ele>
        <time>2020-07-02T07:18:49Z</time>
      </trkpt>
      <trkpt lat="48.78008" lon="2.2866">
        <ele>97.2</ele>
        <time>2020-07-02T07:18:50Z</time>
      </trkpt>
      <trkpt lat="48.78005" lon="2.2866">
        <ele>97.3</ele>
        <time>2020-07-02T07:18:51Z</time>
      </trkpt>
      <trkpt lat="48.78004" lon="2.2866">
        <ele>97.3</ele>
        <time>2020-07-02T07:18:52Z</time>
      </trkpt>
      <trkpt lat="48.78001" lon="2.28659">
        <ele>97.4</ele>
        <time>2020-07-02T07:18:53Z</time>
      </trkpt>
      <trkpt lat="48.78" lon="2.28658">
        <ele>97.5</ele>
        <time>2020-07-02T07:18:54Z</time>
      </trkpt>
      <trkpt lat="48.77997" lon="2.28658">
        <ele>97.5</ele>
        <time>2020-07-02T07:18:55Z</time>
      </trkpt>
      <trkpt lat="48.77994" lon="2.28658">
        <ele>97.6</ele>
        <time>2020-07-02T07:18:56Z</time>
      </trkpt>
      <trkpt lat="48.77991" lon="2.28658">
        <ele>97.8</ele>
        <time>2020-07-02T07:18:57Z</time>
      </trkpt>
      <trkpt lat="48.77988" lon="2.28657">
        <ele>98</ele>
        <time>2020-07-02T07:18:58Z</time>
      </trkpt>
      <trkpt lat="48.77984" lon="2.28658">
        <ele>98.2</ele>
        <time>2020-07-02T07:18:59Z</time>
      </trkpt>
      <trkpt lat="48.77983" lon="2.28658">
        <ele>98.3</ele>
        <time>2020-07-02T07:19:00Z</time>
      </trkpt>
      <trkpt lat="48.77979" lon="2.28658">
        <ele>98.5</ele>
        <time>2020-07-02T07:19:01Z</time>
      </trkpt>
      <trkpt lat="48.77978" lon="2.28658">
        <ele>98.5</ele>
        <time>2020-07-02T07:19:02Z</time>
      </trkpt>
      <trkpt lat="48.77975" lon="2.28658">
        <ele>98.7</ele>
        <time>2020-07-02T07:19:03Z</time>
      </trkpt>
      <trkpt lat="48.77972" lon="2.28656">
        <ele>98.8</ele>
        <time>2020-07-02T07:19:04Z</time>
      </trkpt>
      <trkpt lat="48.77969" lon="2.28656">
        <ele>98.9</ele>
        <time>2020-07-02T07:19:05Z</time>
      </trkpt>
      <trkpt lat="48.77965" lon="2.28656">
        <ele>99</ele>
        <time>2020-07-02T07:19:06Z</time>
      </trkpt>
      <trkpt lat="48.77962" lon="2.28655">
        <ele>99.2</ele>
        <time>2020-07-02T07:19:07Z</time>
      </trkpt>
      <trkpt lat="48.77958" lon="2.28655">
        <ele>99.4</ele>
        <time>2020-07-02T07:19:08Z</time>
      </trkpt>
      <trkpt lat="48.77955" lon="2.28655">
        <ele>99.5</ele>
        <time>2020-07-02T07:19:09Z</time>
      </trkpt>
      <trkpt lat="48.77951" lon="2.28655">
        <ele>99.7</ele>
        <time>2020-07-02T07:19:10Z</time>
      </trkpt>
      <trkpt lat="48.77948" lon="2.28657">
        <ele>99.8</ele>
        <time>2020-07-02T07:19:11Z</time>
      </trkpt>
      <trkpt lat="48.77945" lon="2.28657">
        <ele>100</ele>
        <time>2020-07-02T07:19:12Z</time>
      </trkpt>
      <trkpt lat="48.77941" lon="2.28658">
        <ele>100.2</ele>
        <time>2020-07-02T07:19:13Z</time>
      </trkpt>
      <trkpt lat="48.77938" lon="2.28657">
        <ele>100.3</ele>
        <time>2020-07-02T07:19:14Z</time>
      </trkpt>
      <trkpt lat="48.77935" lon="2.28657">
        <ele>100.4</ele>
        <time>2020-07-02T07:19:15Z</time>
      </trkpt>
      <trkpt lat="48.77932" lon="2.28656">
        <ele>100.6</ele>
        <time>2020-07-02T07:19:16Z</time>
      </trkpt>
      <trkpt lat="48.77929" lon="2.28655">
        <ele>100.8</ele>
        <time>2020-07-02T07:19:17Z</time>
      </trkpt>
      <trkpt lat="48.77926" lon="2.28653">
        <ele>100.9</ele>
        <time>2020-07-02T07:19:18Z</time>
      </trkpt>
      <trkpt lat="48.77924" lon="2.28653">
        <ele>101</ele>
        <time>2020-07-02T07:19:19Z</time>
      </trkpt>
      <trkpt lat="48.77921" lon="2.28652">
        <ele>101.1</ele>
        <time>2020-07-02T07:19:20Z</time>
      </trkpt>
      <trkpt lat="48.77918" lon="2.28651">
        <ele>101.2</ele>
        <time>2020-07-02T07:19:21Z</time>
      </trkpt>
      <trkpt lat="48.77916" lon="2.28651">
        <ele>101.3</ele>
        <time>2020-07-02T07:19:22Z</time>
      </trkpt>
      <trkpt lat="48.77912" lon="2.28651">
        <ele>101.4</ele>
        <time>2020-07-02T07:19:23Z</time>
      </trkpt>
      <trkpt lat="48.7791" lon="2.28651">
        <ele>101.5</ele>
        <time>2020-07-02T07:19:24Z</time>
      </trkpt>
      <trkpt lat="48.77907" lon="2.28651">
        <ele>101.6</ele>
        <time>2020-07-02T07:19:25Z</time>
      </trkpt>
      <trkpt lat="48.77906" lon="2.2865">
        <ele>101.6</ele>
        <time>2020-07-02T07:19:26Z</time>
      </trkpt>
      <trkpt lat="48.77903" lon="2.28649">
        <ele>101.7</ele>
        <time>2020-07-02T07:19:27Z</time>
      </trkpt>
      <trkpt lat="48.77902" lon="2.28648">
        <ele>101.7</ele>
        <time>2020-07-02T07:19:28Z</time>
      </trkpt>
      <trkpt lat="48.77901" lon="2.28647">
        <ele>101.8</ele>
        <time>2020-07-02T07:19:29Z</time>
      </trkpt>
      <trkpt lat="48.77899" lon="2.28647">
        <ele>101.8</ele>
        <time>2020-07-02T07:19:30Z</time>
      </trkpt>
      <trkpt lat="48.77898" lon="2.28646">
        <ele>101.8</ele>
        <time>2020-07-02T07:19:31Z</time>
      </trkpt>
      <trkpt lat="48.77896" lon="2.28645">
        <ele>101.8</ele>
        <time>2020-07-02T07:19:32Z</time>
      </trkpt>
      <trkpt lat="48.77895" lon="2.28645">
        <ele>101.8</ele>
        <time>2020-07-02T07:19:33Z</time>
      </trkpt>
      <trkpt lat="48.77893" lon="2.28644">
        <ele>101.9</ele>
        <time>2020-07-02T07:19:34Z</time>
      </trkpt>
      <trkpt lat="48.77891" lon="2.28643">
        <ele>101.9</ele>
        <time>2020-07-02T07:19:35Z</time>
      </trkpt>
      <trkpt lat="48.77887" lon="2.28643">
        <ele>101.9</ele>
        <time>2020-07-02T07:19:36Z</time>
      </trkpt>
      <trkpt lat="48.77886" lon="2.28643">
        <ele>101.9</ele>
        <time>2020-07-02T07:19:37Z</time>
      </trkpt>
      <trkpt lat="48.77885" lon="2.28642">
        <ele>101.9</ele>
        <time>2020-07-02T07:19:38Z</time>
      </trkpt>
      <trkpt lat="48.77883" lon="2.28642">
        <ele>101.9</ele>
        <time>2020-07-02T07:19:39Z</time>
      </trkpt>
      <trkpt lat="48.77881" lon="2.28643">
        <ele>101.9</ele>
        <time>2020-07-02T07:19:40Z</time>
      </trkpt>
      <trkpt lat="48.7788" lon="2.28644">
        <ele>101.9</ele>
        <time>2020-07-02T07:19:41Z</time>
      </trkpt>
      <trkpt lat="48.77879" lon="2.28644">
        <ele>101.8</ele>
        <time>2020-07-02T07:19:42Z</time>
      </trkpt>
      <trkpt lat="48.77875" lon="2.28643">
        <ele>101.8</ele>
        <time>2020-07-02T07:19:43Z</time>
      </trkpt>
      <trkpt lat="48.77874" lon="2.28643">
        <ele>101.8</ele>
        <time>2020-07-02T07:19:44Z</time>
      </trkpt>
      <trkpt lat="48.77871" lon="2.28642">
        <ele>101.7</ele>
        <time>2020-07-02T07:19:45Z</time>
      </trkpt>
      <trkpt lat="48.77867" lon="2.28642">
        <ele>101.7</ele>
        <time>2020-07-02T07:19:46Z</time>
      </trkpt>
      <trkpt lat="48.77864" lon="2.28641">
        <ele>101.6</ele>
        <time>2020-07-02T07:19:47Z</time>
      </trkpt>
      <trkpt lat="48.7786" lon="2.28641">
        <ele>101.5</ele>
        <time>2020-07-02T07:19:48Z</time>
      </trkpt>
      <trkpt lat="48.77857" lon="2.28641">
        <ele>101.5</ele>
        <time>2020-07-02T07:19:49Z</time>
      </trkpt>
      <trkpt lat="48.77853" lon="2.28641">
        <ele>101.4</ele>
        <time>2020-07-02T07:19:50Z</time>
      </trkpt>
      <trkpt lat="48.77849" lon="2.28641">
        <ele>101.3</ele>
        <time>2020-07-02T07:19:51Z</time>
      </trkpt>
      <trkpt lat="48.77845" lon="2.28639">
        <ele>101.2</ele>
        <time>2020-07-02T07:19:52Z</time>
      </trkpt>
      <trkpt lat="48.77841" lon="2.28637">
        <ele>101.1</ele>
        <time>2020-07-02T07:19:53Z</time>
      </trkpt>
      <trkpt lat="48.77836" lon="2.28636">
        <ele>101</ele>
        <time>2020-07-02T07:19:54Z</time>
      </trkpt>
      <trkpt lat="48.77833" lon="2.28636">
        <ele>100.9</ele>
        <time>2020-07-02T07:19:55Z</time>
      </trkpt>
      <trkpt lat="48.7783" lon="2.28634">
        <ele>100.8</ele>
        <time>2020-07-02T07:19:56Z</time>
      </trkpt>
      <trkpt lat="48.77825" lon="2.28632">
        <ele>100.7</ele>
        <time>2020-07-02T07:19:57Z</time>
      </trkpt>
      <trkpt lat="48.77821" lon="2.28631">
        <ele>100.6</ele>
        <time>2020-07-02T07:19:58Z</time>
      </trkpt>
      <trkpt lat="48.77818" lon="2.2863">
        <ele>100.5</ele>
        <time>2020-07-02T07:19:59Z</time>
      </trkpt>
      <trkpt lat="48.77813" lon="2.28629">
        <ele>100.4</ele>
        <time>2020-07-02T07:20:00Z</time>
      </trkpt>
      <trkpt lat="48.77809" lon="2.28629">
        <ele>100.2</ele>
        <time>2020-07-02T07:20:01Z</time>
      </trkpt>
      <trkpt lat="48.77804" lon="2.28628">
        <ele>100</ele>
        <time>2020-07-02T07:20:02Z</time>
      </trkpt>
      <trkpt lat="48.778" lon="2.28629">
        <ele>99.9</ele>
        <time>2020-07-02T07:20:03Z</time>
      </trkpt>
      <trkpt lat="48.77796" lon="2.28628">
        <ele>99.7</ele>
        <time>2020-07-02T07:20:04Z</time>
      </trkpt>
      <trkpt lat="48.77793" lon="2.28628">
        <ele>99.6</ele>
        <time>2020-07-02T07:20:05Z</time>
      </trkpt>
      <trkpt lat="48.77789" lon="2.28628">
        <ele>99.4</ele>
        <time>2020-07-02T07:20:06Z</time>
      </trkpt>
      <trkpt lat="48.77786" lon="2.28628">
        <ele>99.2</ele>
        <time>2020-07-02T07:20:07Z</time>
      </trkpt>
      <trkpt lat="48.77783" lon="2.28628">
        <ele>99.1</ele>
        <time>2020-07-02T07:20:08Z</time>
      </trkpt>
      <trkpt lat="48.77779" lon="2.28626">
        <ele>98.8</ele>
        <time>2020-07-02T07:20:09Z</time>
      </trkpt>
      <trkpt lat="48.77775" lon="2.28625">
        <ele>98.6</ele>
        <time>2020-07-02T07:20:10Z</time>
      </trkpt>
      <trkpt lat="48.7777" lon="2.28625">
        <ele>98.3</ele>
        <time>2020-07-02T07:20:11Z</time>
      </trkpt>
      <trkpt lat="48.77767" lon="2.28625">
        <ele>98</ele>
        <time>2020-07-02T07:20:12Z</time>
      </trkpt>
      <trkpt lat="48.77763" lon="2.28625">
        <ele>97.7</ele>
        <time>2020-07-02T07:20:13Z</time>
      </trkpt>
      <trkpt lat="48.7776" lon="2.28625">
        <ele>97.4</ele>
        <time>2020-07-02T07:20:14Z</time>
      </trkpt>
      <trkpt lat="48.77755" lon="2.28623">
        <ele>96.9</ele>
        <time>2020-07-02T07:20:15Z</time>
      </trkpt>
      <trkpt lat="48.77751" lon="2.28621">
        <ele>96.6</ele>
        <time>2020-07-02T07:20:16Z</time>
      </trkpt>
      <trkpt lat="48.77746" lon="2.28621">
        <ele>96.1</ele>
        <time>2020-07-02T07:20:17Z</time>
      </trkpt>
      <trkpt lat="48.77742" lon="2.28622">
        <ele>95.7</ele>
        <time>2020-07-02T07:20:18Z</time>
      </trkpt>
      <trkpt lat="48.77738" lon="2.28621">
        <ele>95.4</ele>
        <time>2020-07-02T07:20:19Z</time>
      </trkpt>
      <trkpt lat="48.77735" lon="2.28621">
        <ele>95.1</ele>
        <time>2020-07-02T07:20:20Z</time>
      </trkpt>
      <trkpt lat="48.77732" lon="2.28622">
        <ele>94.8</ele>
        <time>2020-07-02T07:20:21Z</time>
      </trkpt>
      <trkpt lat="48.77728" lon="2.28621">
        <ele>94.4</ele>
        <time>2020-07-02T07:20:22Z</time>
      </trkpt>
      <trkpt lat="48.77725" lon="2.2862">
        <ele>94.1</ele>
        <time>2020-07-02T07:20:23Z</time>
      </trkpt>
      <trkpt lat="48.77721" lon="2.28618">
        <ele>93.7</ele>
        <time>2020-07-02T07:20:24Z</time>
      </trkpt>
      <trkpt lat="48.77718" lon="2.28618">
        <ele>93.4</ele>
        <time>2020-07-02T07:20:25Z</time>
      </trkpt>
      <trkpt lat="48.77717" lon="2.28617">
        <ele>93.3</ele>
        <time>2020-07-02T07:20:26Z</time>
      </trkpt>
      <trkpt lat="48.77715" lon="2.28617">
        <ele>93.2</ele>
        <time>2020-07-02T07:20:27Z</time>
      </trkpt>
      <trkpt lat="48.77714" lon="2.28616">
        <ele>93.2</ele>
        <time>2020-07-02T07:20:28Z</time>
      </trkpt>
      <trkpt lat="48.77711" lon="2.28617">
        <ele>93.1</ele>
        <time>2020-07-02T07:20:29Z</time>
      </trkpt>
      <trkpt lat="48.77709" lon="2.28616">
        <ele>93.1</ele>
        <time>2020-07-02T07:20:30Z</time>
      </trkpt>
      <trkpt lat="48.77705" lon="2.28616">
        <ele>93</ele>
        <time>2020-07-02T07:20:31Z</time>
      </trkpt>
      <trkpt lat="48.77701" lon="2.28615">
        <ele>93</ele>
        <time>2020-07-02T07:20:32Z</time>
      </trkpt>
      <trkpt lat="48.77698" lon="2.28614">
        <ele>93</ele>
        <time>2020-07-02T07:20:33Z</time>
      </trkpt>
      <trkpt lat="48.77694" lon="2.28611">
        <ele>92.5</ele>
        <time>2020-07-02T07:20:34Z</time>
      </trkpt>
      <trkpt lat="48.7769" lon="2.2861">
        <ele>92.3</ele>
        <time>2020-07-02T07:20:35Z</time>
      </trkpt>
      <trkpt lat="48.77686" lon="2.28609">
        <ele>92</ele>
        <time>2020-07-02T07:20:36Z</time>
      </trkpt>
      <trkpt lat="48.77682" lon="2.28607">
        <ele>91.7</ele>
        <time>2020-07-02T07:20:37Z</time>
      </trkpt>
      <trkpt lat="48.7768" lon="2.28606">
        <ele>91.5</ele>
        <time>2020-07-02T07:20:38Z</time>
      </trkpt>
      <trkpt lat="48.77677" lon="2.28604">
        <ele>91.2</ele>
        <time>2020-07-02T07:20:39Z</time>
      </trkpt>
      <trkpt lat="48.77674" lon="2.28604">
        <ele>91</ele>
        <time>2020-07-02T07:20:40Z</time>
      </trkpt>
      <trkpt lat="48.7767" lon="2.28604">
        <ele>90.7</ele>
        <time>2020-07-02T07:20:41Z</time>
      </trkpt>
      <trkpt lat="48.77666" lon="2.28603">
        <ele>90.4</ele>
        <time>2020-07-02T07:20:42Z</time>
      </trkpt>
      <trkpt lat="48.77662" lon="2.28603">
        <ele>90</ele>
        <time>2020-07-02T07:20:43Z</time>
      </trkpt>
      <trkpt lat="48.77659" lon="2.28602">
        <ele>89.7</ele>
        <time>2020-07-02T07:20:44Z</time>
      </trkpt>
      <trkpt lat="48.77655" lon="2.28601">
        <ele>89.3</ele>
        <time>2020-07-02T07:20:45Z</time>
      </trkpt>
      <trkpt lat="48.77651" lon="2.286">
        <ele>89</ele>
        <time>2020-07-02T07:20:46Z</time>
      </trkpt>
      <trkpt lat="48.77647" lon="2.28598">
        <ele>88.7</ele>
        <time>2020-07-02T07:20:47Z</time>
      </trkpt>
      <trkpt lat="48.77643" lon="2.28597">
        <ele>88.3</ele>
        <time>2020-07-02T07:20:48Z</time>
      </trkpt>
      <trkpt lat="48.7764" lon="2.28594">
        <ele>88</ele>
        <time>2020-07-02T07:20:49Z</time>
      </trkpt>
      <trkpt lat="48.77635" lon="2.2859">
        <ele>87.5</ele>
        <time>2020-07-02T07:20:50Z</time>
      </trkpt>
      <trkpt lat="48.77632" lon="2.28587">
        <ele>87.1</ele>
        <time>2020-07-02T07:20:51Z</time>
      </trkpt>
      <trkpt lat="48.77629" lon="2.28582">
        <ele>86.5</ele>
        <time>2020-07-02T07:20:52Z</time>
      </trkpt>
      <trkpt lat="48.77626" lon="2.28578">
        <ele>86.3</ele>
        <time>2020-07-02T07:20:53Z</time>
      </trkpt>
      <trkpt lat="48.77623" lon="2.28575">
        <ele>86.1</ele>
        <time>2020-07-02T07:20:54Z</time>
      </trkpt>
      <trkpt lat="48.7762" lon="2.28572">
        <ele>85.9</ele>
        <time>2020-07-02T07:20:55Z</time>
      </trkpt>
      <trkpt lat="48.77617" lon="2.28571">
        <ele>85.7</ele>
        <time>2020-07-02T07:20:56Z</time>
      </trkpt>
      <trkpt lat="48.77614" lon="2.2857">
        <ele>85.4</ele>
        <time>2020-07-02T07:20:57Z</time>
      </trkpt>
      <trkpt lat="48.7761" lon="2.2857">
        <ele>85.1</ele>
        <time>2020-07-02T07:20:58Z</time>
      </trkpt>
      <trkpt lat="48.77606" lon="2.28571">
        <ele>84.8</ele>
        <time>2020-07-02T07:20:59Z</time>
      </trkpt>
      <trkpt lat="48.77601" lon="2.28572">
        <ele>84.4</ele>
        <time>2020-07-02T07:21:00Z</time>
      </trkpt>
      <trkpt lat="48.77597" lon="2.28573">
        <ele>84.1</ele>
        <time>2020-07-02T07:21:01Z</time>
      </trkpt>
      <trkpt lat="48.77593" lon="2.28574">
        <ele>83.8</ele>
        <time>2020-07-02T07:21:02Z</time>
      </trkpt>
      <trkpt lat="48.77589" lon="2.28575">
        <ele>83.5</ele>
        <time>2020-07-02T07:21:03Z</time>
      </trkpt>
      <trkpt lat="48.77586" lon="2.28573">
        <ele>83.2</ele>
        <time>2020-07-02T07:21:04Z</time>
      </trkpt>
      <trkpt lat="48.77582" lon="2.28573">
        <ele>82.9</ele>
        <time>2020-07-02T07:21:05Z</time>
      </trkpt>
      <trkpt lat="48.77578" lon="2.28573">
        <ele>82.5</ele>
        <time>2020-07-02T07:21:06Z</time>
      </trkpt>
      <trkpt lat="48.77574" lon="2.28573">
        <ele>82.2</ele>
        <time>2020-07-02T07:21:07Z</time>
      </trkpt>
      <trkpt lat="48.7757" lon="2.28573">
        <ele>82</ele>
        <time>2020-07-02T07:21:08Z</time>
      </trkpt>
      <trkpt lat="48.77566" lon="2.28572">
        <ele>81.7</ele>
        <time>2020-07-02T07:21:09Z</time>
      </trkpt>
      <trkpt lat="48.77562" lon="2.28572">
        <ele>81.4</ele>
        <time>2020-07-02T07:21:10Z</time>
      </trkpt>
      <trkpt lat="48.77558" lon="2.28571">
        <ele>81.2</ele>
        <time>2020-07-02T07:21:11Z</time>
      </trkpt>
      <trkpt lat="48.77554" lon="2.2857">
        <ele>81</ele>
        <time>2020-07-02T07:21:12Z</time>
      </trkpt>
      <trkpt lat="48.7755" lon="2.28569">
        <ele>80.7</ele>
        <time>2020-07-02T07:21:13Z</time>
      </trkpt>
      <trkpt lat="48.77546" lon="2.28568">
        <ele>80.5</ele>
        <time>2020-07-02T07:21:14Z</time>
      </trkpt>
      <trkpt lat="48.77541" lon="2.28567">
        <ele>80.4</ele>
        <time>2020-07-02T07:21:15Z</time>
      </trkpt>
      <trkpt lat="48.77537" lon="2.28566">
        <ele>80.2</ele>
        <time>2020-07-02T07:21:16Z</time>
      </trkpt>
      <trkpt lat="48.77534" lon="2.28566">
        <ele>80.1</ele>
        <time>2020-07-02T07:21:17Z</time>
      </trkpt>
      <trkpt lat="48.77531" lon="2.28566">
        <ele>80</ele>
        <time>2020-07-02T07:21:18Z</time>
      </trkpt>
      <trkpt lat="48.77527" lon="2.28565">
        <ele>79.9</ele>
        <time>2020-07-02T07:21:19Z</time>
      </trkpt>
      <trkpt lat="48.77524" lon="2.28564">
        <ele>79.8</ele>
        <time>2020-07-02T07:21:20Z</time>
      </trkpt>
      <trkpt lat="48.77521" lon="2.28564">
        <ele>79.7</ele>
        <time>2020-07-02T07:21:21Z</time>
      </trkpt>
      <trkpt lat="48.77517" lon="2.28563">
        <ele>79.6</ele>
        <time>2020-07-02T07:21:22Z</time>
      </trkpt>
      <trkpt lat="48.77515" lon="2.28563">
        <ele>79.5</ele>
        <time>2020-07-02T07:21:23Z</time>
      </trkpt>
      <trkpt lat="48.77512" lon="2.28564">
        <ele>79.4</ele>
        <time>2020-07-02T07:21:24Z</time>
      </trkpt>
      <trkpt lat="48.77509" lon="2.28564">
        <ele>79.3</ele>
        <time>2020-07-02T07:21:25Z</time>
      </trkpt>
      <trkpt lat="48.77505" lon="2.28565">
        <ele>79.3</ele>
        <time>2020-07-02T07:21:26Z</time>
      </trkpt>
      <trkpt lat="48.77502" lon="2.28565">
        <ele>79.2</ele>
        <time>2020-07-02T07:21:27Z</time>
      </trkpt>
      <trkpt lat="48.77498" lon="2.28563">
        <ele>79.2</ele>
        <time>2020-07-02T07:21:28Z</time>
      </trkpt>
      <trkpt lat="48.77494" lon="2.2856">
        <ele>79.1</ele>
        <time>2020-07-02T07:21:29Z</time>
      </trkpt>
      <trkpt lat="48.77491" lon="2.28557">
        <ele>79.1</ele>
        <time>2020-07-02T07:21:30Z</time>
      </trkpt>
      <trkpt lat="48.77488" lon="2.28556">
        <ele>79.1</ele>
        <time>2020-07-02T07:21:31Z</time>
      </trkpt>
      <trkpt lat="48.77484" lon="2.28555">
        <ele>79</ele>
        <time>2020-07-02T07:21:32Z</time>
      </trkpt>
      <trkpt lat="48.7748" lon="2.28554">
        <ele>79</ele>
        <time>2020-07-02T07:21:33Z</time>
      </trkpt>
      <trkpt lat="48.77475" lon="2.2855">
        <ele>79</ele>
        <time>2020-07-02T07:21:34Z</time>
      </trkpt>
      <trkpt lat="48.7747" lon="2.28549">
        <ele>78.9</ele>
        <time>2020-07-02T07:21:35Z</time>
      </trkpt>
      <trkpt lat="48.77466" lon="2.28548">
        <ele>78.9</ele>
        <time>2020-07-02T07:21:36Z</time>
      </trkpt>
      <trkpt lat="48.77461" lon="2.28546">
        <ele>78.9</ele>
        <time>2020-07-02T07:21:37Z</time>
      </trkpt>
      <trkpt lat="48.77457" lon="2.28544">
        <ele>78.9</ele>
        <time>2020-07-02T07:21:38Z</time>
      </trkpt>
      <trkpt lat="48.77452" lon="2.28544">
        <ele>78.9</ele>
        <time>2020-07-02T07:21:39Z</time>
      </trkpt>
      <trkpt lat="48.77447" lon="2.28544">
        <ele>78.9</ele>
        <time>2020-07-02T07:21:40Z</time>
      </trkpt>
      <trkpt lat="48.77442" lon="2.28542">
        <ele>78.9</ele>
        <time>2020-07-02T07:21:41Z</time>
      </trkpt>
      <trkpt lat="48.77435" lon="2.28541">
        <ele>78.9</ele>
        <time>2020-07-02T07:21:42Z</time>
      </trkpt>
      <trkpt lat="48.77429" lon="2.28541">
        <ele>79</ele>
        <time>2020-07-02T07:21:43Z</time>
      </trkpt>
      <trkpt lat="48.77424" lon="2.28542">
        <ele>79</ele>
        <time>2020-07-02T07:21:44Z</time>
      </trkpt>
      <trkpt lat="48.77419" lon="2.28542">
        <ele>79.1</ele>
        <time>2020-07-02T07:21:45Z</time>
      </trkpt>
      <trkpt lat="48.77414" lon="2.28541">
        <ele>79.2</ele>
        <time>2020-07-02T07:21:46Z</time>
      </trkpt>
      <trkpt lat="48.77409" lon="2.28541">
        <ele>79.2</ele>
        <time>2020-07-02T07:21:47Z</time>
      </trkpt>
      <trkpt lat="48.77403" lon="2.2854">
        <ele>79.3</ele>
        <time>2020-07-02T07:21:48Z</time>
      </trkpt>
      <trkpt lat="48.77399" lon="2.28538">
        <ele>79.3</ele>
        <time>2020-07-02T07:21:49Z</time>
      </trkpt>
      <trkpt lat="48.77394" lon="2.28538">
        <ele>79.3</ele>
        <time>2020-07-02T07:21:50Z</time>
      </trkpt>
      <trkpt lat="48.7739" lon="2.28539">
        <ele>79.4</ele>
        <time>2020-07-02T07:21:51Z</time>
      </trkpt>
      <trkpt lat="48.77386" lon="2.28539">
        <ele>79.4</ele>
        <time>2020-07-02T07:21:52Z</time>
      </trkpt>
      <trkpt lat="48.77382" lon="2.28542">
        <ele>79.4</ele>
        <time>2020-07-02T07:21:53Z</time>
      </trkpt>
      <trkpt lat="48.77378" lon="2.28544">
        <ele>79.4</ele>
        <time>2020-07-02T07:21:54Z</time>
      </trkpt>
      <trkpt lat="48.77373" lon="2.28546">
        <ele>79.4</ele>
        <time>2020-07-02T07:21:55Z</time>
      </trkpt>
      <trkpt lat="48.77367" lon="2.28548">
        <ele>79.5</ele>
        <time>2020-07-02T07:21:56Z</time>
      </trkpt>
      <trkpt lat="48.77362" lon="2.28548">
        <ele>79.5</ele>
        <time>2020-07-02T07:21:57Z</time>
      </trkpt>
      <trkpt lat="48.77356" lon="2.28548">
        <ele>79.6</ele>
        <time>2020-07-02T07:21:58Z</time>
      </trkpt>
      <trkpt lat="48.77351" lon="2.28548">
        <ele>79.6</ele>
        <time>2020-07-02T07:21:59Z</time>
      </trkpt>
      <trkpt lat="48.77346" lon="2.28549">
        <ele>79.7</ele>
        <time>2020-07-02T07:22:00Z</time>
      </trkpt>
      <trkpt lat="48.77341" lon="2.28549">
        <ele>79.8</ele>
        <time>2020-07-02T07:22:01Z</time>
      </trkpt>
      <trkpt lat="48.77336" lon="2.28548">
        <ele>79.9</ele>
        <time>2020-07-02T07:22:02Z</time>
      </trkpt>
      <trkpt lat="48.77332" lon="2.28548">
        <ele>80</ele>
        <time>2020-07-02T07:22:03Z</time>
      </trkpt>
      <trkpt lat="48.77327" lon="2.28548">
        <ele>80</ele>
        <time>2020-07-02T07:22:04Z</time>
      </trkpt>
      <trkpt lat="48.77323" lon="2.28546">
        <ele>80.1</ele>
        <time>2020-07-02T07:22:05Z</time>
      </trkpt>
      <trkpt lat="48.77317" lon="2.28544">
        <ele>80.1</ele>
        <time>2020-07-02T07:22:06Z</time>
      </trkpt>
      <trkpt lat="48.77312" lon="2.28544">
        <ele>80.2</ele>
        <time>2020-07-02T07:22:07Z</time>
      </trkpt>
      <trkpt lat="48.77307" lon="2.28542">
        <ele>80.2</ele>
        <time>2020-07-02T07:22:08Z</time>
      </trkpt>
      <trkpt lat="48.77302" lon="2.2854">
        <ele>80.3</ele>
        <time>2020-07-02T07:22:09Z</time>
      </trkpt>
      <trkpt lat="48.77297" lon="2.28539">
        <ele>80.3</ele>
        <time>2020-07-02T07:22:10Z</time>
      </trkpt>
      <trkpt lat="48.77292" lon="2.28536">
        <ele>80.3</ele>
        <time>2020-07-02T07:22:11Z</time>
      </trkpt>
      <trkpt lat="48.77286" lon="2.28534">
        <ele>80.4</ele>
        <time>2020-07-02T07:22:12Z</time>
      </trkpt>
      <trkpt lat="48.77281" lon="2.28531">
        <ele>80.5</ele>
        <time>2020-07-02T07:22:13Z</time>
      </trkpt>
      <trkpt lat="48.77276" lon="2.28529">
        <ele>80.5</ele>
        <time>2020-07-02T07:22:14Z</time>
      </trkpt>
      <trkpt lat="48.77271" lon="2.28526">
        <ele>80.7</ele>
        <time>2020-07-02T07:22:15Z</time>
      </trkpt>
      <trkpt lat="48.77266" lon="2.28524">
        <ele>80.8</ele>
        <time>2020-07-02T07:22:16Z</time>
      </trkpt>
      <trkpt lat="48.77262" lon="2.28521">
        <ele>81</ele>
        <time>2020-07-02T07:22:17Z</time>
      </trkpt>
      <trkpt lat="48.77257" lon="2.28519">
        <ele>81.1</ele>
        <time>2020-07-02T07:22:18Z</time>
      </trkpt>
      <trkpt lat="48.77252" lon="2.28517">
        <ele>81.3</ele>
        <time>2020-07-02T07:22:19Z</time>
      </trkpt>
      <trkpt lat="48.77248" lon="2.28513">
        <ele>81.4</ele>
        <time>2020-07-02T07:22:20Z</time>
      </trkpt>
      <trkpt lat="48.77245" lon="2.2851">
        <ele>81.5</ele>
        <time>2020-07-02T07:22:21Z</time>
      </trkpt>
      <trkpt lat="48.77241" lon="2.28507">
        <ele>81.6</ele>
        <time>2020-07-02T07:22:22Z</time>
      </trkpt>
      <trkpt lat="48.77238" lon="2.28504">
        <ele>81.7</ele>
        <time>2020-07-02T07:22:23Z</time>
      </trkpt>
      <trkpt lat="48.77234" lon="2.28501">
        <ele>81.8</ele>
        <time>2020-07-02T07:22:24Z</time>
      </trkpt>
      <trkpt lat="48.77229" lon="2.28498">
        <ele>81.9</ele>
        <time>2020-07-02T07:22:25Z</time>
      </trkpt>
      <trkpt lat="48.77224" lon="2.28495">
        <ele>82.1</ele>
        <time>2020-07-02T07:22:26Z</time>
      </trkpt>
      <trkpt lat="48.7722" lon="2.28493">
        <ele>82.2</ele>
        <time>2020-07-02T07:22:27Z</time>
      </trkpt>
      <trkpt lat="48.77216" lon="2.2849">
        <ele>82.3</ele>
        <time>2020-07-02T07:22:28Z</time>
      </trkpt>
      <trkpt lat="48.77212" lon="2.28487">
        <ele>82.4</ele>
        <time>2020-07-02T07:22:29Z</time>
      </trkpt>
      <trkpt lat="48.77207" lon="2.28486">
        <ele>82.5</ele>
        <time>2020-07-02T07:22:30Z</time>
      </trkpt>
      <trkpt lat="48.77203" lon="2.28485">
        <ele>82.6</ele>
        <time>2020-07-02T07:22:31Z</time>
      </trkpt>
      <trkpt lat="48.77198" lon="2.28483">
        <ele>82.7</ele>
        <time>2020-07-02T07:22:32Z</time>
      </trkpt>
      <trkpt lat="48.77191" lon="2.2848">
        <ele>82.9</ele>
        <time>2020-07-02T07:22:33Z</time>
      </trkpt>
      <trkpt lat="48.77186" lon="2.28478">
        <ele>83.1</ele>
        <time>2020-07-02T07:22:34Z</time>
      </trkpt>
      <trkpt lat="48.77182" lon="2.28478">
        <ele>83.2</ele>
        <time>2020-07-02T07:22:35Z</time>
      </trkpt>
      <trkpt lat="48.77176" lon="2.28476">
        <ele>83.3</ele>
        <time>2020-07-02T07:22:36Z</time>
      </trkpt>
      <trkpt lat="48.77171" lon="2.28476">
        <ele>83.4</ele>
        <time>2020-07-02T07:22:37Z</time>
      </trkpt>
      <trkpt lat="48.77166" lon="2.28477">
        <ele>83.4</ele>
        <time>2020-07-02T07:22:38Z</time>
      </trkpt>
      <trkpt lat="48.77162" lon="2.28479">
        <ele>83.5</ele>
        <time>2020-07-02T07:22:39Z</time>
      </trkpt>
      <trkpt lat="48.77158" lon="2.2848">
        <ele>83.6</ele>
        <time>2020-07-02T07:22:40Z</time>
      </trkpt>
      <trkpt lat="48.77154" lon="2.28482">
        <ele>83.7</ele>
        <time>2020-07-02T07:22:41Z</time>
      </trkpt>
      <trkpt lat="48.7715" lon="2.28484">
        <ele>83.8</ele>
        <time>2020-07-02T07:22:42Z</time>
      </trkpt>
      <trkpt lat="48.77145" lon="2.28485">
        <ele>83.9</ele>
        <time>2020-07-02T07:22:43Z</time>
      </trkpt>
      <trkpt lat="48.77141" lon="2.28488">
        <ele>84</ele>
        <time>2020-07-02T07:22:44Z</time>
      </trkpt>
      <trkpt lat="48.77137" lon="2.2849">
        <ele>84.1</ele>
        <time>2020-07-02T07:22:45Z</time>
      </trkpt>
      <trkpt lat="48.77133" lon="2.28493">
        <ele>84.2</ele>
        <time>2020-07-02T07:22:46Z</time>
      </trkpt>
      <trkpt lat="48.77128" lon="2.28494">
        <ele>84.4</ele>
        <time>2020-07-02T07:22:47Z</time>
      </trkpt>
      <trkpt lat="48.77124" lon="2.28495">
        <ele>84.5</ele>
        <time>2020-07-02T07:22:48Z</time>
      </trkpt>
      <trkpt lat="48.77119" lon="2.28497">
        <ele>84.6</ele>
        <time>2020-07-02T07:22:49Z</time>
      </trkpt>
      <trkpt lat="48.77115" lon="2.28499">
        <ele>84.7</ele>
        <time>2020-07-02T07:22:50Z</time>
      </trkpt>
      <trkpt lat="48.77111" lon="2.285">
        <ele>84.7</ele>
        <time>2020-07-02T07:22:51Z</time>
      </trkpt>
      <trkpt lat="48.77107" lon="2.28502">
        <ele>84.8</ele>
        <time>2020-07-02T07:22:52Z</time>
      </trkpt>
      <trkpt lat="48.77104" lon="2.28503">
        <ele>84.8</ele>
        <time>2020-07-02T07:22:53Z</time>
      </trkpt>
      <trkpt lat="48.77101" lon="2.28502">
        <ele>84.8</ele>
        <time>2020-07-02T07:22:54Z</time>
      </trkpt>
      <trkpt lat="48.77099" lon="2.28501">
        <ele>84.9</ele>
        <time>2020-07-02T07:22:55Z</time>
      </trkpt>
      <trkpt lat="48.77096" lon="2.28502">
        <ele>84.9</ele>
        <time>2020-07-02T07:22:56Z</time>
      </trkpt>
      <trkpt lat="48.77096" lon="2.28503">
        <ele>84.9</ele>
        <time>2020-07-02T07:22:57Z</time>
      </trkpt>
      <trkpt lat="48.77094" lon="2.28503">
        <ele>84.9</ele>
        <time>2020-07-02T07:22:58Z</time>
      </trkpt>
      <trkpt lat="48.77092" lon="2.28505">
        <ele>84.9</ele>
        <time>2020-07-02T07:22:59Z</time>
      </trkpt>
      <trkpt lat="48.77091" lon="2.28509">
        <ele>85</ele>
        <time>2020-07-02T07:23:00Z</time>
      </trkpt>
      <trkpt lat="48.7709" lon="2.2851">
        <ele>84.9</ele>
        <time>2020-07-02T07:23:01Z</time>
      </trkpt>
      <trkpt lat="48.77092" lon="2.28515">
        <ele>84.8</ele>
        <time>2020-07-02T07:23:02Z</time>
      </trkpt>
      <trkpt lat="48.77094" lon="2.28521">
        <ele>84.6</ele>
        <time>2020-07-02T07:23:03Z</time>
      </trkpt>
      <trkpt lat="48.77096" lon="2.28529">
        <ele>84.4</ele>
        <time>2020-07-02T07:23:04Z</time>
      </trkpt>
      <trkpt lat="48.77098" lon="2.28536">
        <ele>84.2</ele>
        <time>2020-07-02T07:23:05Z</time>
      </trkpt>
      <trkpt lat="48.77099" lon="2.28543">
        <ele>84</ele>
        <time>2020-07-02T07:23:06Z</time>
      </trkpt>
      <trkpt lat="48.77099" lon="2.28552">
        <ele>83.7</ele>
        <time>2020-07-02T07:23:07Z</time>
      </trkpt>
      <trkpt lat="48.77099" lon="2.28561">
        <ele>83.6</ele>
        <time>2020-07-02T07:23:08Z</time>
      </trkpt>
      <trkpt lat="48.77099" lon="2.28569">
        <ele>83.5</ele>
        <time>2020-07-02T07:23:09Z</time>
      </trkpt>
      <trkpt lat="48.771" lon="2.28575">
        <ele>83.4</ele>
        <time>2020-07-02T07:23:10Z</time>
      </trkpt>
      <trkpt lat="48.771" lon="2.28581">
        <ele>83.3</ele>
        <time>2020-07-02T07:23:11Z</time>
      </trkpt>
      <trkpt lat="48.77101" lon="2.28585">
        <ele>83.2</ele>
        <time>2020-07-02T07:23:12Z</time>
      </trkpt>
      <trkpt lat="48.77102" lon="2.2859">
        <ele>83.1</ele>
        <time>2020-07-02T07:23:13Z</time>
      </trkpt>
      <trkpt lat="48.77103" lon="2.28594">
        <ele>83</ele>
        <time>2020-07-02T07:23:14Z</time>
      </trkpt>
      <trkpt lat="48.77102" lon="2.28598">
        <ele>83</ele>
        <time>2020-07-02T07:23:15Z</time>
      </trkpt>
      <trkpt lat="48.77101" lon="2.286">
        <ele>83</ele>
        <time>2020-07-02T07:23:16Z</time>
      </trkpt>
      <trkpt lat="48.771" lon="2.28603">
        <ele>83</ele>
        <time>2020-07-02T07:23:17Z</time>
      </trkpt>
      <trkpt lat="48.77098" lon="2.28608">
        <ele>82.9</ele>
        <time>2020-07-02T07:23:18Z</time>
      </trkpt>
      <trkpt lat="48.77097" lon="2.28613">
        <ele>82.8</ele>
        <time>2020-07-02T07:23:19Z</time>
      </trkpt>
      <trkpt lat="48.77097" lon="2.28618">
        <ele>82.8</ele>
        <time>2020-07-02T07:23:20Z</time>
      </trkpt>
      <trkpt lat="48.77097" lon="2.28622">
        <ele>82.7</ele>
        <time>2020-07-02T07:23:21Z</time>
      </trkpt>
      <trkpt lat="48.77095" lon="2.28627">
        <ele>82.7</ele>
        <time>2020-07-02T07:23:22Z</time>
      </trkpt>
      <trkpt lat="48.77093" lon="2.2863">
        <ele>82.6</ele>
        <time>2020-07-02T07:23:23Z</time>
      </trkpt>
      <trkpt lat="48.7709" lon="2.28633">
        <ele>82.6</ele>
        <time>2020-07-02T07:23:24Z</time>
      </trkpt>
      <trkpt lat="48.77086" lon="2.28637">
        <ele>82.6</ele>
        <time>2020-07-02T07:23:25Z</time>
      </trkpt>
      <trkpt lat="48.77082" lon="2.2864">
        <ele>82.6</ele>
        <time>2020-07-02T07:23:26Z</time>
      </trkpt>
      <trkpt lat="48.77078" lon="2.28645">
        <ele>82.6</ele>
        <time>2020-07-02T07:23:27Z</time>
      </trkpt>
      <trkpt lat="48.77074" lon="2.28648">
        <ele>82.6</ele>
        <time>2020-07-02T07:23:28Z</time>
      </trkpt>
      <trkpt lat="48.77071" lon="2.28651">
        <ele>82.6</ele>
        <time>2020-07-02T07:23:29Z</time>
      </trkpt>
      <trkpt lat="48.77068" lon="2.28653">
        <ele>82.6</ele>
        <time>2020-07-02T07:23:30Z</time>
      </trkpt>
      <trkpt lat="48.77065" lon="2.28655">
        <ele>82.6</ele>
        <time>2020-07-02T07:23:31Z</time>
      </trkpt>
      <trkpt lat="48.7706" lon="2.28656">
        <ele>82.6</ele>
        <time>2020-07-02T07:23:32Z</time>
      </trkpt>
      <trkpt lat="48.77056" lon="2.28658">
        <ele>82.7</ele>
        <time>2020-07-02T07:23:33Z</time>
      </trkpt>
      <trkpt lat="48.77053" lon="2.2866">
        <ele>82.7</ele>
        <time>2020-07-02T07:23:34Z</time>
      </trkpt>
      <trkpt lat="48.77049" lon="2.28662">
        <ele>82.7</ele>
        <time>2020-07-02T07:23:35Z</time>
      </trkpt>
      <trkpt lat="48.77045" lon="2.28666">
        <ele>82.7</ele>
        <time>2020-07-02T07:23:36Z</time>
      </trkpt>
      <trkpt lat="48.77042" lon="2.28669">
        <ele>82.7</ele>
        <time>2020-07-02T07:23:37Z</time>
      </trkpt>
      <trkpt lat="48.77039" lon="2.28672">
        <ele>82.7</ele>
        <time>2020-07-02T07:23:38Z</time>
      </trkpt>
      <trkpt lat="48.77036" lon="2.28676">
        <ele>82.6</ele>
        <time>2020-07-02T07:23:39Z</time>
      </trkpt>
      <trkpt lat="48.77033" lon="2.28679">
        <ele>82.6</ele>
        <time>2020-07-02T07:23:40Z</time>
      </trkpt>
      <trkpt lat="48.7703" lon="2.28682">
        <ele>82.6</ele>
        <time>2020-07-02T07:23:41Z</time>
      </trkpt>
      <trkpt lat="48.77027" lon="2.28684">
        <ele>82.5</ele>
        <time>2020-07-02T07:23:42Z</time>
      </trkpt>
      <trkpt lat="48.77024" lon="2.28687">
        <ele>82.5</ele>
        <time>2020-07-02T07:23:43Z</time>
      </trkpt>
      <trkpt lat="48.77022" lon="2.28691">
        <ele>82.5</ele>
        <time>2020-07-02T07:23:44Z</time>
      </trkpt>
      <trkpt lat="48.77018" lon="2.28694">
        <ele>82.4</ele>
        <time>2020-07-02T07:23:45Z</time>
      </trkpt>
      <trkpt lat="48.77014" lon="2.28696">
        <ele>82.4</ele>
        <time>2020-07-02T07:23:46Z</time>
      </trkpt>
      <trkpt lat="48.7701" lon="2.28699">
        <ele>82.3</ele>
        <time>2020-07-02T07:23:47Z</time>
      </trkpt>
      <trkpt lat="48.77007" lon="2.28701">
        <ele>82.3</ele>
        <time>2020-07-02T07:23:48Z</time>
      </trkpt>
      <trkpt lat="48.77003" lon="2.28705">
        <ele>82.3</ele>
        <time>2020-07-02T07:23:49Z</time>
      </trkpt>
      <trkpt lat="48.76999" lon="2.28708">
        <ele>82.2</ele>
        <time>2020-07-02T07:23:50Z</time>
      </trkpt>
      <trkpt lat="48.76996" lon="2.2871">
        <ele>82.2</ele>
        <time>2020-07-02T07:23:51Z</time>
      </trkpt>
      <trkpt lat="48.76991" lon="2.28716">
        <ele>82.1</ele>
        <time>2020-07-02T07:23:52Z</time>
      </trkpt>
      <trkpt lat="48.76987" lon="2.28719">
        <ele>82.1</ele>
        <time>2020-07-02T07:23:53Z</time>
      </trkpt>
      <trkpt lat="48.76983" lon="2.28723">
        <ele>82</ele>
        <time>2020-07-02T07:23:54Z</time>
      </trkpt>
      <trkpt lat="48.76978" lon="2.28727">
        <ele>82</ele>
        <time>2020-07-02T07:23:55Z</time>
      </trkpt>
      <trkpt lat="48.76973" lon="2.28732">
        <ele>81.9</ele>
        <time>2020-07-02T07:23:56Z</time>
      </trkpt>
      <trkpt lat="48.76968" lon="2.28735">
        <ele>81.8</ele>
        <time>2020-07-02T07:23:57Z</time>
      </trkpt>
      <trkpt lat="48.76963" lon="2.2874">
        <ele>81.8</ele>
        <time>2020-07-02T07:23:58Z</time>
      </trkpt>
      <trkpt lat="48.76959" lon="2.28744">
        <ele>81.8</ele>
        <time>2020-07-02T07:23:59Z</time>
      </trkpt>
      <trkpt lat="48.76954" lon="2.28747">
        <ele>81.7</ele>
        <time>2020-07-02T07:24:00Z</time>
      </trkpt>
      <trkpt lat="48.76949" lon="2.2875">
        <ele>81.7</ele>
        <time>2020-07-02T07:24:01Z</time>
      </trkpt>
      <trkpt lat="48.76944" lon="2.28753">
        <ele>81.7</ele>
        <time>2020-07-02T07:24:02Z</time>
      </trkpt>
      <trkpt lat="48.7694" lon="2.28755">
        <ele>81.6</ele>
        <time>2020-07-02T07:24:03Z</time>
      </trkpt>
      <trkpt lat="48.76937" lon="2.28758">
        <ele>81.6</ele>
        <time>2020-07-02T07:24:04Z</time>
      </trkpt>
      <trkpt lat="48.76934" lon="2.28761">
        <ele>81.6</ele>
        <time>2020-07-02T07:24:05Z</time>
      </trkpt>
      <trkpt lat="48.7693" lon="2.28765">
        <ele>81.5</ele>
        <time>2020-07-02T07:24:06Z</time>
      </trkpt>
      <trkpt lat="48.76927" lon="2.28769">
        <ele>81.5</ele>
        <time>2020-07-02T07:24:07Z</time>
      </trkpt>
      <trkpt lat="48.76924" lon="2.28774">
        <ele>81.4</ele>
        <time>2020-07-02T07:24:08Z</time>
      </trkpt>
      <trkpt lat="48.7692" lon="2.28777">
        <ele>81.4</ele>
        <time>2020-07-02T07:24:09Z</time>
      </trkpt>
      <trkpt lat="48.76915" lon="2.28781">
        <ele>81.3</ele>
        <time>2020-07-02T07:24:10Z</time>
      </trkpt>
      <trkpt lat="48.76912" lon="2.28785">
        <ele>81.2</ele>
        <time>2020-07-02T07:24:11Z</time>
      </trkpt>
      <trkpt lat="48.76908" lon="2.28788">
        <ele>81.1</ele>
        <time>2020-07-02T07:24:12Z</time>
      </trkpt>
      <trkpt lat="48.76903" lon="2.28791">
        <ele>81</ele>
        <time>2020-07-02T07:24:13Z</time>
      </trkpt>
      <trkpt lat="48.76899" lon="2.28795">
        <ele>81</ele>
        <time>2020-07-02T07:24:14Z</time>
      </trkpt>
      <trkpt lat="48.76895" lon="2.288">
        <ele>80.8</ele>
        <time>2020-07-02T07:24:15Z</time>
      </trkpt>
      <trkpt lat="48.76892" lon="2.28804">
        <ele>80.8</ele>
        <time>2020-07-02T07:24:16Z</time>
      </trkpt>
      <trkpt lat="48.76889" lon="2.28807">
        <ele>80.8</ele>
        <time>2020-07-02T07:24:17Z</time>
      </trkpt>
      <trkpt lat="48.76885" lon="2.28809">
        <ele>80.7</ele>
        <time>2020-07-02T07:24:18Z</time>
      </trkpt>
      <trkpt lat="48.76881" lon="2.28813">
        <ele>80.6</ele>
        <time>2020-07-02T07:24:19Z</time>
      </trkpt>
      <trkpt lat="48.76878" lon="2.28817">
        <ele>80.5</ele>
        <time>2020-07-02T07:24:20Z</time>
      </trkpt>
      <trkpt lat="48.76874" lon="2.28821">
        <ele>80.4</ele>
        <time>2020-07-02T07:24:21Z</time>
      </trkpt>
      <trkpt lat="48.76869" lon="2.28824">
        <ele>80.3</ele>
        <time>2020-07-02T07:24:22Z</time>
      </trkpt>
      <trkpt lat="48.76865" lon="2.28828">
        <ele>80.1</ele>
        <time>2020-07-02T07:24:23Z</time>
      </trkpt>
      <trkpt lat="48.76861" lon="2.28832">
        <ele>80</ele>
        <time>2020-07-02T07:24:24Z</time>
      </trkpt>
      <trkpt lat="48.76857" lon="2.28836">
        <ele>79.8</ele>
        <time>2020-07-02T07:24:25Z</time>
      </trkpt>
      <trkpt lat="48.76852" lon="2.2884">
        <ele>79.7</ele>
        <time>2020-07-02T07:24:26Z</time>
      </trkpt>
      <trkpt lat="48.76848" lon="2.28844">
        <ele>79.6</ele>
        <time>2020-07-02T07:24:27Z</time>
      </trkpt>
      <trkpt lat="48.76844" lon="2.28848">
        <ele>79.4</ele>
        <time>2020-07-02T07:24:28Z</time>
      </trkpt>
      <trkpt lat="48.76841" lon="2.28851">
        <ele>79.3</ele>
        <time>2020-07-02T07:24:29Z</time>
      </trkpt>
      <trkpt lat="48.76837" lon="2.28853">
        <ele>79.1</ele>
        <time>2020-07-02T07:24:30Z</time>
      </trkpt>
      <trkpt lat="48.76833" lon="2.28856">
        <ele>79</ele>
        <time>2020-07-02T07:24:31Z</time>
      </trkpt>
      <trkpt lat="48.76829" lon="2.28859">
        <ele>78.8</ele>
        <time>2020-07-02T07:24:32Z</time>
      </trkpt>
      <trkpt lat="48.76825" lon="2.28863">
        <ele>78.7</ele>
        <time>2020-07-02T07:24:33Z</time>
      </trkpt>
      <trkpt lat="48.76822" lon="2.28867">
        <ele>78.6</ele>
        <time>2020-07-02T07:24:34Z</time>
      </trkpt>
      <trkpt lat="48.76818" lon="2.2887">
        <ele>78.6</ele>
        <time>2020-07-02T07:24:35Z</time>
      </trkpt>
      <trkpt lat="48.76815" lon="2.28873">
        <ele>78.5</ele>
        <time>2020-07-02T07:24:36Z</time>
      </trkpt>
      <trkpt lat="48.76812" lon="2.28876">
        <ele>78.4</ele>
        <time>2020-07-02T07:24:37Z</time>
      </trkpt>
      <trkpt lat="48.76809" lon="2.28879">
        <ele>78.3</ele>
        <time>2020-07-02T07:24:38Z</time>
      </trkpt>
      <trkpt lat="48.76805" lon="2.28881">
        <ele>78.3</ele>
        <time>2020-07-02T07:24:39Z</time>
      </trkpt>
      <trkpt lat="48.76801" lon="2.28883">
        <ele>78.2</ele>
        <time>2020-07-02T07:24:40Z</time>
      </trkpt>
      <trkpt lat="48.76797" lon="2.28884">
        <ele>78.1</ele>
        <time>2020-07-02T07:24:41Z</time>
      </trkpt>
      <trkpt lat="48.76794" lon="2.28887">
        <ele>78</ele>
        <time>2020-07-02T07:24:42Z</time>
      </trkpt>
      <trkpt lat="48.76791" lon="2.28891">
        <ele>77.9</ele>
        <time>2020-07-02T07:24:43Z</time>
      </trkpt>
      <trkpt lat="48.76788" lon="2.28894">
        <ele>77.8</ele>
        <time>2020-07-02T07:24:44Z</time>
      </trkpt>
      <trkpt lat="48.76785" lon="2.28896">
        <ele>77.7</ele>
        <time>2020-07-02T07:24:45Z</time>
      </trkpt>
      <trkpt lat="48.76782" lon="2.28899">
        <ele>77.7</ele>
        <time>2020-07-02T07:24:46Z</time>
      </trkpt>
      <trkpt lat="48.76779" lon="2.28902">
        <ele>77.6</ele>
        <time>2020-07-02T07:24:47Z</time>
      </trkpt>
      <trkpt lat="48.76775" lon="2.28906">
        <ele>77.4</ele>
        <time>2020-07-02T07:24:48Z</time>
      </trkpt>
      <trkpt lat="48.76772" lon="2.28909">
        <ele>77.3</ele>
        <time>2020-07-02T07:24:49Z</time>
      </trkpt>
      <trkpt lat="48.76767" lon="2.28913">
        <ele>77.2</ele>
        <time>2020-07-02T07:24:50Z</time>
      </trkpt>
      <trkpt lat="48.76763" lon="2.28916">
        <ele>77</ele>
        <time>2020-07-02T07:24:51Z</time>
      </trkpt>
      <trkpt lat="48.7676" lon="2.28919">
        <ele>76.9</ele>
        <time>2020-07-02T07:24:52Z</time>
      </trkpt>
      <trkpt lat="48.76756" lon="2.28922">
        <ele>76.7</ele>
        <time>2020-07-02T07:24:53Z</time>
      </trkpt>
      <trkpt lat="48.76752" lon="2.28925">
        <ele>76.6</ele>
        <time>2020-07-02T07:24:54Z</time>
      </trkpt>
      <trkpt lat="48.76748" lon="2.28928">
        <ele>76.4</ele>
        <time>2020-07-02T07:24:55Z</time>
      </trkpt>
      <trkpt lat="48.76745" lon="2.28932">
        <ele>76.3</ele>
        <time>2020-07-02T07:24:56Z</time>
      </trkpt>
      <trkpt lat="48.76741" lon="2.28936">
        <ele>76.2</ele>
        <time>2020-07-02T07:24:57Z</time>
      </trkpt>
      <trkpt lat="48.76738" lon="2.28938">
        <ele>76</ele>
        <time>2020-07-02T07:24:58Z</time>
      </trkpt>
      <trkpt lat="48.76735" lon="2.2894">
        <ele>75.9</ele>
        <time>2020-07-02T07:24:59Z</time>
      </trkpt>
      <trkpt lat="48.76732" lon="2.28941">
        <ele>75.8</ele>
        <time>2020-07-02T07:25:00Z</time>
      </trkpt>
      <trkpt lat="48.76728" lon="2.28942">
        <ele>75.7</ele>
        <time>2020-07-02T07:25:01Z</time>
      </trkpt>
      <trkpt lat="48.76725" lon="2.28944">
        <ele>75.6</ele>
        <time>2020-07-02T07:25:02Z</time>
      </trkpt>
      <trkpt lat="48.76721" lon="2.28948">
        <ele>75.4</ele>
        <time>2020-07-02T07:25:03Z</time>
      </trkpt>
      <trkpt lat="48.76717" lon="2.28951">
        <ele>75.3</ele>
        <time>2020-07-02T07:25:04Z</time>
      </trkpt>
      <trkpt lat="48.76713" lon="2.28953">
        <ele>75.1</ele>
        <time>2020-07-02T07:25:05Z</time>
      </trkpt>
      <trkpt lat="48.76709" lon="2.28954">
        <ele>74.9</ele>
        <time>2020-07-02T07:25:06Z</time>
      </trkpt>
      <trkpt lat="48.76706" lon="2.28958">
        <ele>74.8</ele>
        <time>2020-07-02T07:25:07Z</time>
      </trkpt>
      <trkpt lat="48.76701" lon="2.28964">
        <ele>74.7</ele>
        <time>2020-07-02T07:25:08Z</time>
      </trkpt>
      <trkpt lat="48.76696" lon="2.28967">
        <ele>74.5</ele>
        <time>2020-07-02T07:25:09Z</time>
      </trkpt>
      <trkpt lat="48.7669" lon="2.28971">
        <ele>74.4</ele>
        <time>2020-07-02T07:25:10Z</time>
      </trkpt>
      <trkpt lat="48.76686" lon="2.28974">
        <ele>74.2</ele>
        <time>2020-07-02T07:25:11Z</time>
      </trkpt>
      <trkpt lat="48.76682" lon="2.28977">
        <ele>74.1</ele>
        <time>2020-07-02T07:25:12Z</time>
      </trkpt>
      <trkpt lat="48.76678" lon="2.28978">
        <ele>74</ele>
        <time>2020-07-02T07:25:13Z</time>
      </trkpt>
      <trkpt lat="48.76675" lon="2.2898">
        <ele>74</ele>
        <time>2020-07-02T07:25:14Z</time>
      </trkpt>
      <trkpt lat="48.76673" lon="2.2898">
        <ele>74</ele>
        <time>2020-07-02T07:25:15Z</time>
      </trkpt>
      <trkpt lat="48.7667" lon="2.28978">
        <ele>74</ele>
        <time>2020-07-02T07:25:16Z</time>
      </trkpt>
      <trkpt lat="48.76667" lon="2.28976">
        <ele>74</ele>
        <time>2020-07-02T07:25:17Z</time>
      </trkpt>
      <trkpt lat="48.76664" lon="2.28977">
        <ele>74</ele>
        <time>2020-07-02T07:25:18Z</time>
      </trkpt>
      <trkpt lat="48.76663" lon="2.28977">
        <ele>74</ele>
        <time>2020-07-02T07:25:19Z</time>
      </trkpt>
      <trkpt lat="48.7666" lon="2.2898">
        <ele>73.9</ele>
        <time>2020-07-02T07:25:20Z</time>
      </trkpt>
      <trkpt lat="48.76658" lon="2.28985">
        <ele>73.9</ele>
        <time>2020-07-02T07:25:21Z</time>
      </trkpt>
      <trkpt lat="48.76657" lon="2.28987">
        <ele>73.9</ele>
        <time>2020-07-02T07:25:22Z</time>
      </trkpt>
      <trkpt lat="48.76654" lon="2.28989">
        <ele>73.8</ele>
        <time>2020-07-02T07:25:23Z</time>
      </trkpt>
      <trkpt lat="48.76652" lon="2.28992">
        <ele>73.7</ele>
        <time>2020-07-02T07:25:24Z</time>
      </trkpt>
      <trkpt lat="48.7665" lon="2.28997">
        <ele>73.6</ele>
        <time>2020-07-02T07:25:25Z</time>
      </trkpt>
      <trkpt lat="48.76648" lon="2.29001">
        <ele>73.6</ele>
        <time>2020-07-02T07:25:26Z</time>
      </trkpt>
      <trkpt lat="48.76646" lon="2.29004">
        <ele>73.5</ele>
        <time>2020-07-02T07:25:27Z</time>
      </trkpt>
      <trkpt lat="48.76642" lon="2.29006">
        <ele>73.4</ele>
        <time>2020-07-02T07:25:28Z</time>
      </trkpt>
      <trkpt lat="48.76639" lon="2.29009">
        <ele>73.3</ele>
        <time>2020-07-02T07:25:29Z</time>
      </trkpt>
      <trkpt lat="48.76636" lon="2.29011">
        <ele>73.2</ele>
        <time>2020-07-02T07:25:30Z</time>
      </trkpt>
      <trkpt lat="48.76633" lon="2.29014">
        <ele>73.1</ele>
        <time>2020-07-02T07:25:31Z</time>
      </trkpt>
      <trkpt lat="48.7663" lon="2.29018">
        <ele>73</ele>
        <time>2020-07-02T07:25:32Z</time>
      </trkpt>
      <trkpt lat="48.76627" lon="2.29021">
        <ele>72.9</ele>
        <time>2020-07-02T07:25:33Z</time>
      </trkpt>
      <trkpt lat="48.76624" lon="2.29023">
        <ele>72.8</ele>
        <time>2020-07-02T07:25:34Z</time>
      </trkpt>
      <trkpt lat="48.76619" lon="2.29027">
        <ele>72.6</ele>
        <time>2020-07-02T07:25:35Z</time>
      </trkpt>
      <trkpt lat="48.76615" lon="2.2903">
        <ele>72.5</ele>
        <time>2020-07-02T07:25:36Z</time>
      </trkpt>
      <trkpt lat="48.76611" lon="2.29033">
        <ele>72.3</ele>
        <time>2020-07-02T07:25:37Z</time>
      </trkpt>
      <trkpt lat="48.76607" lon="2.29037">
        <ele>72.2</ele>
        <time>2020-07-02T07:25:38Z</time>
      </trkpt>
      <trkpt lat="48.76604" lon="2.29039">
        <ele>72</ele>
        <time>2020-07-02T07:25:39Z</time>
      </trkpt>
      <trkpt lat="48.76601" lon="2.29042">
        <ele>71.9</ele>
        <time>2020-07-02T07:25:40Z</time>
      </trkpt>
      <trkpt lat="48.76598" lon="2.29044">
        <ele>71.8</ele>
        <time>2020-07-02T07:25:41Z</time>
      </trkpt>
      <trkpt lat="48.76594" lon="2.29047">
        <ele>71.7</ele>
        <time>2020-07-02T07:25:42Z</time>
      </trkpt>
      <trkpt lat="48.76592" lon="2.29051">
        <ele>71.5</ele>
        <time>2020-07-02T07:25:43Z</time>
      </trkpt>
      <trkpt lat="48.76589" lon="2.29054">
        <ele>71.4</ele>
        <time>2020-07-02T07:25:44Z</time>
      </trkpt>
      <trkpt lat="48.76586" lon="2.29056">
        <ele>71.3</ele>
        <time>2020-07-02T07:25:45Z</time>
      </trkpt>
      <trkpt lat="48.76583" lon="2.29058">
        <ele>71.1</ele>
        <time>2020-07-02T07:25:46Z</time>
      </trkpt>
      <trkpt lat="48.7658" lon="2.29061">
        <ele>71</ele>
        <time>2020-07-02T07:25:47Z</time>
      </trkpt>
      <trkpt lat="48.76577" lon="2.29063">
        <ele>70.9</ele>
        <time>2020-07-02T07:25:48Z</time>
      </trkpt>
      <trkpt lat="48.76574" lon="2.29066">
        <ele>70.8</ele>
        <time>2020-07-02T07:25:49Z</time>
      </trkpt>
      <trkpt lat="48.76571" lon="2.29069">
        <ele>70.6</ele>
        <time>2020-07-02T07:25:50Z</time>
      </trkpt>
      <trkpt lat="48.76569" lon="2.29072">
        <ele>70.5</ele>
        <time>2020-07-02T07:25:51Z</time>
      </trkpt>
      <trkpt lat="48.76566" lon="2.29074">
        <ele>70.4</ele>
        <time>2020-07-02T07:25:52Z</time>
      </trkpt>
      <trkpt lat="48.76563" lon="2.29077">
        <ele>70.2</ele>
        <time>2020-07-02T07:25:53Z</time>
      </trkpt>
      <trkpt lat="48.7656" lon="2.29081">
        <ele>70.1</ele>
        <time>2020-07-02T07:25:54Z</time>
      </trkpt>
      <trkpt lat="48.76557" lon="2.29084">
        <ele>69.9</ele>
        <time>2020-07-02T07:25:55Z</time>
      </trkpt>
      <trkpt lat="48.76553" lon="2.29089">
        <ele>69.8</ele>
        <time>2020-07-02T07:25:56Z</time>
      </trkpt>
      <trkpt lat="48.7655" lon="2.29093">
        <ele>69.6</ele>
        <time>2020-07-02T07:25:57Z</time>
      </trkpt>
      <trkpt lat="48.76547" lon="2.29096">
        <ele>69.5</ele>
        <time>2020-07-02T07:25:58Z</time>
      </trkpt>
      <trkpt lat="48.76544" lon="2.29099">
        <ele>69.4</ele>
        <time>2020-07-02T07:25:59Z</time>
      </trkpt>
      <trkpt lat="48.76541" lon="2.29102">
        <ele>69.3</ele>
        <time>2020-07-02T07:26:00Z</time>
      </trkpt>
      <trkpt lat="48.76537" lon="2.29105">
        <ele>69.1</ele>
        <time>2020-07-02T07:26:01Z</time>
      </trkpt>
      <trkpt lat="48.76534" lon="2.29107">
        <ele>69</ele>
        <time>2020-07-02T07:26:02Z</time>
      </trkpt>
      <trkpt lat="48.7653" lon="2.2911">
        <ele>68.9</ele>
        <time>2020-07-02T07:26:03Z</time>
      </trkpt>
      <trkpt lat="48.76527" lon="2.29112">
        <ele>68.8</ele>
        <time>2020-07-02T07:26:04Z</time>
      </trkpt>
      <trkpt lat="48.76523" lon="2.29114">
        <ele>68.7</ele>
        <time>2020-07-02T07:26:05Z</time>
      </trkpt>
      <trkpt lat="48.76519" lon="2.29116">
        <ele>68.6</ele>
        <time>2020-07-02T07:26:06Z</time>
      </trkpt>
      <trkpt lat="48.76515" lon="2.29117">
        <ele>68.4</ele>
        <time>2020-07-02T07:26:07Z</time>
      </trkpt>
      <trkpt lat="48.76511" lon="2.2912">
        <ele>68.3</ele>
        <time>2020-07-02T07:26:08Z</time>
      </trkpt>
      <trkpt lat="48.76507" lon="2.29122">
        <ele>68.2</ele>
        <time>2020-07-02T07:26:09Z</time>
      </trkpt>
      <trkpt lat="48.76504" lon="2.29125">
        <ele>68.1</ele>
        <time>2020-07-02T07:26:10Z</time>
      </trkpt>
      <trkpt lat="48.76499" lon="2.29127">
        <ele>68.1</ele>
        <time>2020-07-02T07:26:11Z</time>
      </trkpt>
      <trkpt lat="48.76495" lon="2.29129">
        <ele>68</ele>
        <time>2020-07-02T07:26:12Z</time>
      </trkpt>
      <trkpt lat="48.76492" lon="2.29131">
        <ele>68</ele>
        <time>2020-07-02T07:26:13Z</time>
      </trkpt>
      <trkpt lat="48.76488" lon="2.29132">
        <ele>68</ele>
        <time>2020-07-02T07:26:14Z</time>
      </trkpt>
      <trkpt lat="48.76485" lon="2.29134">
        <ele>68</ele>
        <time>2020-07-02T07:26:15Z</time>
      </trkpt>
      <trkpt lat="48.76481" lon="2.29137">
        <ele>68</ele>
        <time>2020-07-02T07:26:16Z</time>
      </trkpt>
      <trkpt lat="48.76477" lon="2.29138">
        <ele>68</ele>
        <time>2020-07-02T07:26:17Z</time>
      </trkpt>
      <trkpt lat="48.76473" lon="2.2914">
        <ele>68</ele>
        <time>2020-07-02T07:26:18Z</time>
      </trkpt>
      <trkpt lat="48.7647" lon="2.29143">
        <ele>68</ele>
        <time>2020-07-02T07:26:19Z</time>
      </trkpt>
      <trkpt lat="48.76465" lon="2.29143">
        <ele>68</ele>
        <time>2020-07-02T07:26:20Z</time>
      </trkpt>
      <trkpt lat="48.7646" lon="2.29144">
        <ele>68.1</ele>
        <time>2020-07-02T07:26:21Z</time>
      </trkpt>
      <trkpt lat="48.76457" lon="2.29144">
        <ele>68.2</ele>
        <time>2020-07-02T07:26:22Z</time>
      </trkpt>
      <trkpt lat="48.76453" lon="2.29145">
        <ele>68.2</ele>
        <time>2020-07-02T07:26:23Z</time>
      </trkpt>
      <trkpt lat="48.7645" lon="2.29147">
        <ele>68.3</ele>
        <time>2020-07-02T07:26:24Z</time>
      </trkpt>
      <trkpt lat="48.76446" lon="2.29148">
        <ele>68.3</ele>
        <time>2020-07-02T07:26:25Z</time>
      </trkpt>
      <trkpt lat="48.76443" lon="2.29149">
        <ele>68.4</ele>
        <time>2020-07-02T07:26:26Z</time>
      </trkpt>
      <trkpt lat="48.76439" lon="2.2915">
        <ele>68.5</ele>
        <time>2020-07-02T07:26:27Z</time>
      </trkpt>
      <trkpt lat="48.76435" lon="2.29149">
        <ele>68.6</ele>
        <time>2020-07-02T07:26:28Z</time>
      </trkpt>
      <trkpt lat="48.76431" lon="2.29149">
        <ele>68.7</ele>
        <time>2020-07-02T07:26:29Z</time>
      </trkpt>
      <trkpt lat="48.76428" lon="2.29148">
        <ele>68.8</ele>
        <time>2020-07-02T07:26:30Z</time>
      </trkpt>
      <trkpt lat="48.76423" lon="2.29147">
        <ele>68.9</ele>
        <time>2020-07-02T07:26:31Z</time>
      </trkpt>
      <trkpt lat="48.7642" lon="2.29147">
        <ele>69</ele>
        <time>2020-07-02T07:26:32Z</time>
      </trkpt>
      <trkpt lat="48.76416" lon="2.29146">
        <ele>69.2</ele>
        <time>2020-07-02T07:26:33Z</time>
      </trkpt>
      <trkpt lat="48.76413" lon="2.29146">
        <ele>69.3</ele>
        <time>2020-07-02T07:26:34Z</time>
      </trkpt>
      <trkpt lat="48.7641" lon="2.29146">
        <ele>69.4</ele>
        <time>2020-07-02T07:26:35Z</time>
      </trkpt>
      <trkpt lat="48.76407" lon="2.29147">
        <ele>69.5</ele>
        <time>2020-07-02T07:26:36Z</time>
      </trkpt>
      <trkpt lat="48.76404" lon="2.29146">
        <ele>69.6</ele>
        <time>2020-07-02T07:26:37Z</time>
      </trkpt>
      <trkpt lat="48.76402" lon="2.29146">
        <ele>69.7</ele>
        <time>2020-07-02T07:26:38Z</time>
      </trkpt>
      <trkpt lat="48.76399" lon="2.29145">
        <ele>69.8</ele>
        <time>2020-07-02T07:26:39Z</time>
      </trkpt>
      <trkpt lat="48.76396" lon="2.29144">
        <ele>69.9</ele>
        <time>2020-07-02T07:26:40Z</time>
      </trkpt>
      <trkpt lat="48.76395" lon="2.29144">
        <ele>69.9</ele>
        <time>2020-07-02T07:26:41Z</time>
      </trkpt>
      <trkpt lat="48.76392" lon="2.29143">
        <ele>70</ele>
        <time>2020-07-02T07:26:42Z</time>
      </trkpt>
      <trkpt lat="48.7639" lon="2.29143">
        <ele>70.1</ele>
        <time>2020-07-02T07:26:43Z</time>
      </trkpt>
      <trkpt lat="48.76389" lon="2.29143">
        <ele>70.2</ele>
        <time>2020-07-02T07:26:44Z</time>
      </trkpt>
      <trkpt lat="48.76387" lon="2.29144">
        <ele>70.2</ele>
        <time>2020-07-02T07:26:45Z</time>
      </trkpt>
      <trkpt lat="48.76386" lon="2.29144">
        <ele>70.3</ele>
        <time>2020-07-02T07:26:46Z</time>
      </trkpt>
      <trkpt lat="48.76385" lon="2.29143">
        <ele>70.3</ele>
        <time>2020-07-02T07:26:47Z</time>
      </trkpt>
      <trkpt lat="48.76384" lon="2.29143">
        <ele>70.3</ele>
        <time>2020-07-02T07:26:48Z</time>
      </trkpt>
      <trkpt lat="48.76384" lon="2.29142">
        <ele>70.4</ele>
        <time>2020-07-02T07:26:49Z</time>
      </trkpt>
      <trkpt lat="48.76383" lon="2.29141">
        <ele>70.4</ele>
        <time>2020-07-02T07:26:50Z</time>
      </trkpt>
      <trkpt lat="48.76382" lon="2.29141">
        <ele>70.4</ele>
        <time>2020-07-02T07:26:51Z</time>
      </trkpt>
      <trkpt lat="48.76381" lon="2.2914">
        <ele>70.5</ele>
        <time>2020-07-02T07:26:52Z</time>
      </trkpt>
      <trkpt lat="48.7638" lon="2.2914">
        <ele>70.5</ele>
        <time>2020-07-02T07:26:53Z</time>
      </trkpt>
      <trkpt lat="48.76379" lon="2.2914">
        <ele>70.6</ele>
        <time>2020-07-02T07:26:54Z</time>
      </trkpt>
      <trkpt lat="48.76375" lon="2.29138">
        <ele>70.7</ele>
        <time>2020-07-02T07:26:55Z</time>
      </trkpt>
      <trkpt lat="48.76374" lon="2.29138">
        <ele>70.8</ele>
        <time>2020-07-02T07:26:56Z</time>
      </trkpt>
      <trkpt lat="48.76371" lon="2.29138">
        <ele>70.9</ele>
        <time>2020-07-02T07:26:57Z</time>
      </trkpt>
      <trkpt lat="48.7637" lon="2.29137">
        <ele>70.9</ele>
        <time>2020-07-02T07:26:58Z</time>
      </trkpt>
      <trkpt lat="48.76367" lon="2.29136">
        <ele>71.1</ele>
        <time>2020-07-02T07:26:59Z</time>
      </trkpt>
      <trkpt lat="48.76365" lon="2.29136">
        <ele>71.1</ele>
        <time>2020-07-02T07:27:00Z</time>
      </trkpt>
      <trkpt lat="48.76362" lon="2.29135">
        <ele>71.3</ele>
        <time>2020-07-02T07:27:01Z</time>
      </trkpt>
      <trkpt lat="48.76359" lon="2.29134">
        <ele>71.4</ele>
        <time>2020-07-02T07:27:02Z</time>
      </trkpt>
      <trkpt lat="48.76356" lon="2.29134">
        <ele>71.5</ele>
        <time>2020-07-02T07:27:03Z</time>
      </trkpt>
      <trkpt lat="48.7635" lon="2.29132">
        <ele>71.7</ele>
        <time>2020-07-02T07:27:04Z</time>
      </trkpt>
      <trkpt lat="48.76346" lon="2.29131">
        <ele>71.9</ele>
        <time>2020-07-02T07:27:05Z</time>
      </trkpt>
      <trkpt lat="48.76341" lon="2.2913">
        <ele>72.1</ele>
        <time>2020-07-02T07:27:06Z</time>
      </trkpt>
      <trkpt lat="48.76337" lon="2.2913">
        <ele>72.2</ele>
        <time>2020-07-02T07:27:07Z</time>
      </trkpt>
      <trkpt lat="48.76333" lon="2.29128">
        <ele>72.4</ele>
        <time>2020-07-02T07:27:08Z</time>
      </trkpt>
      <trkpt lat="48.76329" lon="2.29127">
        <ele>72.6</ele>
        <time>2020-07-02T07:27:09Z</time>
      </trkpt>
      <trkpt lat="48.76326" lon="2.29126">
        <ele>72.7</ele>
        <time>2020-07-02T07:27:10Z</time>
      </trkpt>
      <trkpt lat="48.76322" lon="2.29125">
        <ele>72.9</ele>
        <time>2020-07-02T07:27:11Z</time>
      </trkpt>
      <trkpt lat="48.76318" lon="2.29124">
        <ele>73</ele>
        <time>2020-07-02T07:27:12Z</time>
      </trkpt>
      <trkpt lat="48.76315" lon="2.29123">
        <ele>73.1</ele>
        <time>2020-07-02T07:27:13Z</time>
      </trkpt>
      <trkpt lat="48.76312" lon="2.29123">
        <ele>73.2</ele>
        <time>2020-07-02T07:27:14Z</time>
      </trkpt>
      <trkpt lat="48.76308" lon="2.29121">
        <ele>73.3</ele>
        <time>2020-07-02T07:27:15Z</time>
      </trkpt>
      <trkpt lat="48.76304" lon="2.2912">
        <ele>73.5</ele>
        <time>2020-07-02T07:27:16Z</time>
      </trkpt>
      <trkpt lat="48.76301" lon="2.29118">
        <ele>73.6</ele>
        <time>2020-07-02T07:27:17Z</time>
      </trkpt>
      <trkpt lat="48.76297" lon="2.29117">
        <ele>73.7</ele>
        <time>2020-07-02T07:27:18Z</time>
      </trkpt>
      <trkpt lat="48.76296" lon="2.29117">
        <ele>73.8</ele>
        <time>2020-07-02T07:27:19Z</time>
      </trkpt>
      <trkpt lat="48.76293" lon="2.29116">
        <ele>73.9</ele>
        <time>2020-07-02T07:27:20Z</time>
      </trkpt>
      <trkpt lat="48.76292" lon="2.29115">
        <ele>73.9</ele>
        <time>2020-07-02T07:27:21Z</time>
      </trkpt>
      <trkpt lat="48.76289" lon="2.29113">
        <ele>74</ele>
        <time>2020-07-02T07:27:22Z</time>
      </trkpt>
      <trkpt lat="48.76288" lon="2.29113">
        <ele>74.1</ele>
        <time>2020-07-02T07:27:23Z</time>
      </trkpt>
      <trkpt lat="48.76284" lon="2.29112">
        <ele>74.2</ele>
        <time>2020-07-02T07:27:24Z</time>
      </trkpt>
      <trkpt lat="48.76282" lon="2.29111">
        <ele>74.3</ele>
        <time>2020-07-02T07:27:25Z</time>
      </trkpt>
      <trkpt lat="48.7628" lon="2.29111">
        <ele>74.4</ele>
        <time>2020-07-02T07:27:26Z</time>
      </trkpt>
      <trkpt lat="48.76276" lon="2.29109">
        <ele>74.5</ele>
        <time>2020-07-02T07:27:27Z</time>
      </trkpt>
      <trkpt lat="48.76273" lon="2.29109">
        <ele>74.6</ele>
        <time>2020-07-02T07:27:28Z</time>
      </trkpt>
      <trkpt lat="48.7627" lon="2.29107">
        <ele>74.8</ele>
        <time>2020-07-02T07:27:29Z</time>
      </trkpt>
      <trkpt lat="48.76267" lon="2.29105">
        <ele>74.9</ele>
        <time>2020-07-02T07:27:30Z</time>
      </trkpt>
      <trkpt lat="48.76263" lon="2.29104">
        <ele>75.1</ele>
        <time>2020-07-02T07:27:31Z</time>
      </trkpt>
      <trkpt lat="48.76259" lon="2.29102">
        <ele>75.3</ele>
        <time>2020-07-02T07:27:32Z</time>
      </trkpt>
      <trkpt lat="48.76256" lon="2.29101">
        <ele>75.4</ele>
        <time>2020-07-02T07:27:33Z</time>
      </trkpt>
      <trkpt lat="48.76252" lon="2.291">
        <ele>75.6</ele>
        <time>2020-07-02T07:27:34Z</time>
      </trkpt>
      <trkpt lat="48.76249" lon="2.29099">
        <ele>75.7</ele>
        <time>2020-07-02T07:27:35Z</time>
      </trkpt>
      <trkpt lat="48.76246" lon="2.29096">
        <ele>75.9</ele>
        <time>2020-07-02T07:27:36Z</time>
      </trkpt>
      <trkpt lat="48.76243" lon="2.29096">
        <ele>76</ele>
        <time>2020-07-02T07:27:37Z</time>
      </trkpt>
      <trkpt lat="48.7624" lon="2.29095">
        <ele>76.1</ele>
        <time>2020-07-02T07:27:38Z</time>
      </trkpt>
      <trkpt lat="48.76237" lon="2.29094">
        <ele>76.3</ele>
        <time>2020-07-02T07:27:39Z</time>
      </trkpt>
      <trkpt lat="48.76233" lon="2.29094">
        <ele>76.4</ele>
        <time>2020-07-02T07:27:40Z</time>
      </trkpt>
      <trkpt lat="48.7623" lon="2.29095">
        <ele>76.5</ele>
        <time>2020-07-02T07:27:41Z</time>
      </trkpt>
      <trkpt lat="48.76227" lon="2.29099">
        <ele>76.6</ele>
        <time>2020-07-02T07:27:42Z</time>
      </trkpt>
      <trkpt lat="48.76224" lon="2.29101">
        <ele>76.7</ele>
        <time>2020-07-02T07:27:43Z</time>
      </trkpt>
      <trkpt lat="48.7622" lon="2.29103">
        <ele>76.8</ele>
        <time>2020-07-02T07:27:44Z</time>
      </trkpt>
      <trkpt lat="48.76217" lon="2.29104">
        <ele>76.9</ele>
        <time>2020-07-02T07:27:45Z</time>
      </trkpt>
      <trkpt lat="48.76213" lon="2.29104">
        <ele>76.9</ele>
        <time>2020-07-02T07:27:46Z</time>
      </trkpt>
      <trkpt lat="48.76209" lon="2.29104">
        <ele>77</ele>
        <time>2020-07-02T07:27:47Z</time>
      </trkpt>
      <trkpt lat="48.76206" lon="2.29103">
        <ele>77.3</ele>
        <time>2020-07-02T07:27:48Z</time>
      </trkpt>
      <trkpt lat="48.76202" lon="2.29103">
        <ele>77.5</ele>
        <time>2020-07-02T07:27:49Z</time>
      </trkpt>
      <trkpt lat="48.76199" lon="2.29102">
        <ele>77.6</ele>
        <time>2020-07-02T07:27:50Z</time>
      </trkpt>
      <trkpt lat="48.76196" lon="2.29102">
        <ele>77.8</ele>
        <time>2020-07-02T07:27:51Z</time>
      </trkpt>
      <trkpt lat="48.76192" lon="2.29102">
        <ele>78</ele>
        <time>2020-07-02T07:27:52Z</time>
      </trkpt>
      <trkpt lat="48.76189" lon="2.29101">
        <ele>78.1</ele>
        <time>2020-07-02T07:27:53Z</time>
      </trkpt>
      <trkpt lat="48.76185" lon="2.29101">
        <ele>78.3</ele>
        <time>2020-07-02T07:27:54Z</time>
      </trkpt>
      <trkpt lat="48.76181" lon="2.29102">
        <ele>78.5</ele>
        <time>2020-07-02T07:27:55Z</time>
      </trkpt>
      <trkpt lat="48.7618" lon="2.29103">
        <ele>78.6</ele>
        <time>2020-07-02T07:27:56Z</time>
      </trkpt>
      <trkpt lat="48.76176" lon="2.29103">
        <ele>78.8</ele>
        <time>2020-07-02T07:27:57Z</time>
      </trkpt>
      <trkpt lat="48.76175" lon="2.29103">
        <ele>78.9</ele>
        <time>2020-07-02T07:27:58Z</time>
      </trkpt>
      <trkpt lat="48.76172" lon="2.29103">
        <ele>79.1</ele>
        <time>2020-07-02T07:27:59Z</time>
      </trkpt>
      <trkpt lat="48.76169" lon="2.29102">
        <ele>79.2</ele>
        <time>2020-07-02T07:28:00Z</time>
      </trkpt>
      <trkpt lat="48.76166" lon="2.29102">
        <ele>79.4</ele>
        <time>2020-07-02T07:28:01Z</time>
      </trkpt>
      <trkpt lat="48.76162" lon="2.29102">
        <ele>79.6</ele>
        <time>2020-07-02T07:28:02Z</time>
      </trkpt>
      <trkpt lat="48.76161" lon="2.29102">
        <ele>79.6</ele>
        <time>2020-07-02T07:28:03Z</time>
      </trkpt>
      <trkpt lat="48.76158" lon="2.29103">
        <ele>79.8</ele>
        <time>2020-07-02T07:28:04Z</time>
      </trkpt>
      <trkpt lat="48.76157" lon="2.29103">
        <ele>79.9</ele>
        <time>2020-07-02T07:28:05Z</time>
      </trkpt>
      <trkpt lat="48.76154" lon="2.29104">
        <ele>80.1</ele>
        <time>2020-07-02T07:28:06Z</time>
      </trkpt>
      <trkpt lat="48.7615" lon="2.29105">
        <ele>80.3</ele>
        <time>2020-07-02T07:28:07Z</time>
      </trkpt>
      <trkpt lat="48.76149" lon="2.29105">
        <ele>80.4</ele>
        <time>2020-07-02T07:28:08Z</time>
      </trkpt>
      <trkpt lat="48.76145" lon="2.29103">
        <ele>80.6</ele>
        <time>2020-07-02T07:28:09Z</time>
      </trkpt>
      <trkpt lat="48.76142" lon="2.29101">
        <ele>81.2</ele>
        <time>2020-07-02T07:28:10Z</time>
      </trkpt>
      <trkpt lat="48.76139" lon="2.29098">
        <ele>81.2</ele>
        <time>2020-07-02T07:28:11Z</time>
      </trkpt>
      <trkpt lat="48.76136" lon="2.29098">
        <ele>81.2</ele>
        <time>2020-07-02T07:28:12Z</time>
      </trkpt>
      <trkpt lat="48.76133" lon="2.29097">
        <ele>81.3</ele>
        <time>2020-07-02T07:28:13Z</time>
      </trkpt>
      <trkpt lat="48.76132" lon="2.29097">
        <ele>81.4</ele>
        <time>2020-07-02T07:28:14Z</time>
      </trkpt>
      <trkpt lat="48.76129" lon="2.29098">
        <ele>81.4</ele>
        <time>2020-07-02T07:28:15Z</time>
      </trkpt>
      <trkpt lat="48.76126" lon="2.29101">
        <ele>81.5</ele>
        <time>2020-07-02T07:28:16Z</time>
      </trkpt>
      <trkpt lat="48.76125" lon="2.29102">
        <ele>81.4</ele>
        <time>2020-07-02T07:28:17Z</time>
      </trkpt>
      <trkpt lat="48.76124" lon="2.29103">
        <ele>81.4</ele>
        <time>2020-07-02T07:28:18Z</time>
      </trkpt>
      <trkpt lat="48.76123" lon="2.29104">
        <ele>81.4</ele>
        <time>2020-07-02T07:28:19Z</time>
      </trkpt>
      <trkpt lat="48.76123" lon="2.29103">
        <ele>81.4</ele>
        <time>2020-07-02T07:28:20Z</time>
      </trkpt>
      <trkpt lat="48.76124" lon="2.29104">
        <ele>81.4</ele>
        <time>2020-07-02T07:28:21Z</time>
      </trkpt>
      <trkpt lat="48.76124" lon="2.29104">
        <ele>81.4</ele>
        <time>2020-07-02T07:28:22Z</time>
      </trkpt>
      <trkpt lat="48.76124" lon="2.29104">
        <ele>81.4</ele>
        <time>2020-07-02T07:28:23Z</time>
      </trkpt>
      <trkpt lat="48.76124" lon="2.29105">
        <ele>81.4</ele>
        <time>2020-07-02T07:28:24Z</time>
      </trkpt>
      <trkpt lat="48.76123" lon="2.29106">
        <ele>81.4</ele>
        <time>2020-07-02T07:28:25Z</time>
      </trkpt>
      <trkpt lat="48.76123" lon="2.29107">
        <ele>81.4</ele>
        <time>2020-07-02T07:28:26Z</time>
      </trkpt>
      <trkpt lat="48.76122" lon="2.2911">
        <ele>81.4</ele>
        <time>2020-07-02T07:28:27Z</time>
      </trkpt>
      <trkpt lat="48.76122" lon="2.29114">
        <ele>81.4</ele>
        <time>2020-07-02T07:28:28Z</time>
      </trkpt>
      <trkpt lat="48.76122" lon="2.29119">
        <ele>81.2</ele>
        <time>2020-07-02T07:28:29Z</time>
      </trkpt>
      <trkpt lat="48.76123" lon="2.29126">
        <ele>81</ele>
        <time>2020-07-02T07:28:30Z</time>
      </trkpt>
      <trkpt lat="48.76125" lon="2.29133">
        <ele>80.8</ele>
        <time>2020-07-02T07:28:31Z</time>
      </trkpt>
      <trkpt lat="48.76125" lon="2.2914">
        <ele>80.6</ele>
        <time>2020-07-02T07:28:32Z</time>
      </trkpt>
      <trkpt lat="48.76126" lon="2.2915">
        <ele>80.3</ele>
        <time>2020-07-02T07:28:33Z</time>
      </trkpt>
      <trkpt lat="48.76125" lon="2.29158">
        <ele>80.1</ele>
        <time>2020-07-02T07:28:34Z</time>
      </trkpt>
      <trkpt lat="48.76123" lon="2.29165">
        <ele>79.8</ele>
        <time>2020-07-02T07:28:35Z</time>
      </trkpt>
      <trkpt lat="48.76122" lon="2.29174">
        <ele>79.6</ele>
        <time>2020-07-02T07:28:36Z</time>
      </trkpt>
      <trkpt lat="48.76121" lon="2.29182">
        <ele>79.5</ele>
        <time>2020-07-02T07:28:37Z</time>
      </trkpt>
      <trkpt lat="48.7612" lon="2.2919">
        <ele>79.3</ele>
        <time>2020-07-02T07:28:38Z</time>
      </trkpt>
      <trkpt lat="48.76118" lon="2.29199">
        <ele>79.1</ele>
        <time>2020-07-02T07:28:39Z</time>
      </trkpt>
      <trkpt lat="48.76118" lon="2.29208">
        <ele>79</ele>
        <time>2020-07-02T07:28:40Z</time>
      </trkpt>
      <trkpt lat="48.76117" lon="2.29216">
        <ele>78.9</ele>
        <time>2020-07-02T07:28:41Z</time>
      </trkpt>
      <trkpt lat="48.76116" lon="2.29225">
        <ele>78.7</ele>
        <time>2020-07-02T07:28:42Z</time>
      </trkpt>
      <trkpt lat="48.76115" lon="2.29234">
        <ele>78.6</ele>
        <time>2020-07-02T07:28:43Z</time>
      </trkpt>
      <trkpt lat="48.76114" lon="2.29242">
        <ele>78.5</ele>
        <time>2020-07-02T07:28:44Z</time>
      </trkpt>
      <trkpt lat="48.76113" lon="2.2925">
        <ele>78.3</ele>
        <time>2020-07-02T07:28:45Z</time>
      </trkpt>
      <trkpt lat="48.76112" lon="2.29259">
        <ele>78.2</ele>
        <time>2020-07-02T07:28:46Z</time>
      </trkpt>
      <trkpt lat="48.76111" lon="2.29266">
        <ele>78.1</ele>
        <time>2020-07-02T07:28:47Z</time>
      </trkpt>
      <trkpt lat="48.7611" lon="2.29272">
        <ele>78</ele>
        <time>2020-07-02T07:28:48Z</time>
      </trkpt>
      <trkpt lat="48.76109" lon="2.29277">
        <ele>77.9</ele>
        <time>2020-07-02T07:28:49Z</time>
      </trkpt>
      <trkpt lat="48.76109" lon="2.2928">
        <ele>77.9</ele>
        <time>2020-07-02T07:28:50Z</time>
      </trkpt>
      <trkpt lat="48.76108" lon="2.29281">
        <ele>77.9</ele>
        <time>2020-07-02T07:28:51Z</time>
      </trkpt>
      <trkpt lat="48.76107" lon="2.29282">
        <ele>77.8</ele>
        <time>2020-07-02T07:28:52Z</time>
      </trkpt>
      <trkpt lat="48.76106" lon="2.29281">
        <ele>77.8</ele>
        <time>2020-07-02T07:28:53Z</time>
      </trkpt>
      <trkpt lat="48.76106" lon="2.2928">
        <ele>77.8</ele>
        <time>2020-07-02T07:28:54Z</time>
      </trkpt>
      <trkpt lat="48.76105" lon="2.29279">
        <ele>77.8</ele>
        <time>2020-07-02T07:28:55Z</time>
      </trkpt>
      <trkpt lat="48.76105" lon="2.29279">
        <ele>77.8</ele>
        <time>2020-07-02T07:28:56Z</time>
      </trkpt>
      <trkpt lat="48.76106" lon="2.29277">
        <ele>77.7</ele>
        <time>2020-07-02T07:28:57Z</time>
      </trkpt>
      <trkpt lat="48.76105" lon="2.29276">
        <ele>77.7</ele>
        <time>2020-07-02T07:28:58Z</time>
      </trkpt>
      <trkpt lat="48.76104" lon="2.29275">
        <ele>77.7</ele>
        <time>2020-07-02T07:28:59Z</time>
      </trkpt>
      <trkpt lat="48.76105" lon="2.29273">
        <ele>77.7</ele>
        <time>2020-07-02T07:29:00Z</time>
      </trkpt>
      <trkpt lat="48.76105" lon="2.29271">
        <ele>77.6</ele>
        <time>2020-07-02T07:29:01Z</time>
      </trkpt>
      <trkpt lat="48.76105" lon="2.29268">
        <ele>77.6</ele>
        <time>2020-07-02T07:29:02Z</time>
      </trkpt>
      <trkpt lat="48.76105" lon="2.29266">
        <ele>77.7</ele>
        <time>2020-07-02T07:29:03Z</time>
      </trkpt>
      <trkpt lat="48.76106" lon="2.2926">
        <ele>77.8</ele>
        <time>2020-07-02T07:29:04Z</time>
      </trkpt>
      <trkpt lat="48.76106" lon="2.29258">
        <ele>77.8</ele>
        <time>2020-07-02T07:29:05Z</time>
      </trkpt>
      <trkpt lat="48.76107" lon="2.29253">
        <ele>77.9</ele>
        <time>2020-07-02T07:29:06Z</time>
      </trkpt>
      <trkpt lat="48.76107" lon="2.29251">
        <ele>77.9</ele>
        <time>2020-07-02T07:29:07Z</time>
      </trkpt>
      <trkpt lat="48.76108" lon="2.29245">
        <ele>78.1</ele>
        <time>2020-07-02T07:29:08Z</time>
      </trkpt>
      <trkpt lat="48.76108" lon="2.29244">
        <ele>78.1</ele>
        <time>2020-07-02T07:29:09Z</time>
      </trkpt>
      <trkpt lat="48.7611" lon="2.29239">
        <ele>78.2</ele>
        <time>2020-07-02T07:29:10Z</time>
      </trkpt>
      <trkpt lat="48.76112" lon="2.29233">
        <ele>78.4</ele>
        <time>2020-07-02T07:29:11Z</time>
      </trkpt>
      <trkpt lat="48.76113" lon="2.29228">
        <ele>78.5</ele>
        <time>2020-07-02T07:29:12Z</time>
      </trkpt>
      <trkpt lat="48.76114" lon="2.2922">
        <ele>78.6</ele>
        <time>2020-07-02T07:29:13Z</time>
      </trkpt>
      <trkpt lat="48.76115" lon="2.29214">
        <ele>78.8</ele>
        <time>2020-07-02T07:29:14Z</time>
      </trkpt>
      <trkpt lat="48.76116" lon="2.29208">
        <ele>78.9</ele>
        <time>2020-07-02T07:29:15Z</time>
      </trkpt>
      <trkpt lat="48.76116" lon="2.29202">
        <ele>79</ele>
        <time>2020-07-02T07:29:16Z</time>
      </trkpt>
      <trkpt lat="48.76117" lon="2.29197">
        <ele>79.1</ele>
        <time>2020-07-02T07:29:17Z</time>
      </trkpt>
      <trkpt lat="48.76117" lon="2.29191">
        <ele>79.3</ele>
        <time>2020-07-02T07:29:18Z</time>
      </trkpt>
      <trkpt lat="48.76116" lon="2.29184">
        <ele>79.4</ele>
        <time>2020-07-02T07:29:19Z</time>
      </trkpt>
      <trkpt lat="48.76117" lon="2.29178">
        <ele>79.5</ele>
        <time>2020-07-02T07:29:20Z</time>
      </trkpt>
      <trkpt lat="48.76117" lon="2.29173">
        <ele>79.6</ele>
        <time>2020-07-02T07:29:21Z</time>
      </trkpt>
      <trkpt lat="48.76118" lon="2.29167">
        <ele>79.7</ele>
        <time>2020-07-02T07:29:22Z</time>
      </trkpt>
      <trkpt lat="48.76118" lon="2.2916">
        <ele>79.9</ele>
        <time>2020-07-02T07:29:23Z</time>
      </trkpt>
      <trkpt lat="48.76118" lon="2.29154">
        <ele>80.1</ele>
        <time>2020-07-02T07:29:24Z</time>
      </trkpt>
      <trkpt lat="48.76119" lon="2.29149">
        <ele>80.3</ele>
        <time>2020-07-02T07:29:25Z</time>
      </trkpt>
      <trkpt lat="48.76119" lon="2.29142">
        <ele>80.4</ele>
        <time>2020-07-02T07:29:26Z</time>
      </trkpt>
      <trkpt lat="48.76119" lon="2.29136">
        <ele>80.6</ele>
        <time>2020-07-02T07:29:27Z</time>
      </trkpt>
      <trkpt lat="48.76119" lon="2.29131">
        <ele>81</ele>
        <time>2020-07-02T07:29:28Z</time>
      </trkpt>
      <trkpt lat="48.76119" lon="2.29127">
        <ele>81.1</ele>
        <time>2020-07-02T07:29:29Z</time>
      </trkpt>
      <trkpt lat="48.76118" lon="2.29122">
        <ele>81.2</ele>
        <time>2020-07-02T07:29:30Z</time>
      </trkpt>
      <trkpt lat="48.76117" lon="2.29121">
        <ele>81.2</ele>
        <time>2020-07-02T07:29:31Z</time>
      </trkpt>
      <trkpt lat="48.76116" lon="2.29115">
        <ele>81.4</ele>
        <time>2020-07-02T07:29:32Z</time>
      </trkpt>
      <trkpt lat="48.76116" lon="2.29113">
        <ele>81.4</ele>
        <time>2020-07-02T07:29:33Z</time>
      </trkpt>
      <trkpt lat="48.76114" lon="2.29108">
        <ele>81.5</ele>
        <time>2020-07-02T07:29:34Z</time>
      </trkpt>
      <trkpt lat="48.76113" lon="2.29107">
        <ele>81.5</ele>
        <time>2020-07-02T07:29:35Z</time>
      </trkpt>
      <trkpt lat="48.76111" lon="2.29104">
        <ele>81.5</ele>
        <time>2020-07-02T07:29:36Z</time>
      </trkpt>
      <trkpt lat="48.76107" lon="2.29103">
        <ele>81.6</ele>
        <time>2020-07-02T07:29:37Z</time>
      </trkpt>
      <trkpt lat="48.76105" lon="2.29101">
        <ele>81.6</ele>
        <time>2020-07-02T07:29:38Z</time>
      </trkpt>
      <trkpt lat="48.76102" lon="2.29099">
        <ele>81.6</ele>
        <time>2020-07-02T07:29:39Z</time>
      </trkpt>
      <trkpt lat="48.761" lon="2.29096">
        <ele>81.6</ele>
        <time>2020-07-02T07:29:40Z</time>
      </trkpt>
      <trkpt lat="48.76096" lon="2.29094">
        <ele>81.7</ele>
        <time>2020-07-02T07:29:41Z</time>
      </trkpt>
      <trkpt lat="48.76093" lon="2.29091">
        <ele>82</ele>
        <time>2020-07-02T07:29:42Z</time>
      </trkpt>
      <trkpt lat="48.76089" lon="2.29089">
        <ele>82.4</ele>
        <time>2020-07-02T07:29:43Z</time>
      </trkpt>
      <trkpt lat="48.76087" lon="2.29089">
        <ele>82.5</ele>
        <time>2020-07-02T07:29:44Z</time>
      </trkpt>
      <trkpt lat="48.76083" lon="2.29088">
        <ele>82.9</ele>
        <time>2020-07-02T07:29:45Z</time>
      </trkpt>
      <trkpt lat="48.76082" lon="2.29088">
        <ele>83</ele>
        <time>2020-07-02T07:29:46Z</time>
      </trkpt>
      <trkpt lat="48.76079" lon="2.29089">
        <ele>83.2</ele>
        <time>2020-07-02T07:29:47Z</time>
      </trkpt>
      <trkpt lat="48.76075" lon="2.29089">
        <ele>83.5</ele>
        <time>2020-07-02T07:29:48Z</time>
      </trkpt>
      <trkpt lat="48.76072" lon="2.29089">
        <ele>83.9</ele>
        <time>2020-07-02T07:29:49Z</time>
      </trkpt>
      <trkpt lat="48.76069" lon="2.29089">
        <ele>84</ele>
        <time>2020-07-02T07:29:50Z</time>
      </trkpt>
      <trkpt lat="48.76065" lon="2.2909">
        <ele>84.1</ele>
        <time>2020-07-02T07:29:51Z</time>
      </trkpt>
      <trkpt lat="48.76064" lon="2.2909">
        <ele>84.1</ele>
        <time>2020-07-02T07:29:52Z</time>
      </trkpt>
      <trkpt lat="48.76062" lon="2.2909">
        <ele>84.2</ele>
        <time>2020-07-02T07:29:53Z</time>
      </trkpt>
      <trkpt lat="48.7606" lon="2.29091">
        <ele>84.2</ele>
        <time>2020-07-02T07:29:54Z</time>
      </trkpt>
      <trkpt lat="48.76057" lon="2.29092">
        <ele>84.3</ele>
        <time>2020-07-02T07:29:55Z</time>
      </trkpt>
      <trkpt lat="48.76055" lon="2.29092">
        <ele>84.3</ele>
        <time>2020-07-02T07:29:56Z</time>
      </trkpt>
      <trkpt lat="48.76051" lon="2.29093">
        <ele>84.5</ele>
        <time>2020-07-02T07:29:57Z</time>
      </trkpt>
      <trkpt lat="48.7605" lon="2.29093">
        <ele>84.6</ele>
        <time>2020-07-02T07:29:58Z</time>
      </trkpt>
      <trkpt lat="48.76047" lon="2.29093">
        <ele>84.7</ele>
        <time>2020-07-02T07:29:59Z</time>
      </trkpt>
      <trkpt lat="48.76044" lon="2.29093">
        <ele>84.8</ele>
        <time>2020-07-02T07:30:00Z</time>
      </trkpt>
      <trkpt lat="48.76042" lon="2.29093">
        <ele>84.9</ele>
        <time>2020-07-02T07:30:01Z</time>
      </trkpt>
      <trkpt lat="48.76041" lon="2.29093">
        <ele>85</ele>
        <time>2020-07-02T07:30:02Z</time>
      </trkpt>
      <trkpt lat="48.76037" lon="2.29092">
        <ele>85.1</ele>
        <time>2020-07-02T07:30:03Z</time>
      </trkpt>
      <trkpt lat="48.76036" lon="2.29092">
        <ele>85.2</ele>
        <time>2020-07-02T07:30:04Z</time>
      </trkpt>
      <trkpt lat="48.76032" lon="2.29091">
        <ele>85.3</ele>
        <time>2020-07-02T07:30:05Z</time>
      </trkpt>
      <trkpt lat="48.76031" lon="2.29091">
        <ele>85.3</ele>
        <time>2020-07-02T07:30:06Z</time>
      </trkpt>
      <trkpt lat="48.76028" lon="2.29091">
        <ele>85.4</ele>
        <time>2020-07-02T07:30:07Z</time>
      </trkpt>
      <trkpt lat="48.76025" lon="2.2909">
        <ele>85.5</ele>
        <time>2020-07-02T07:30:08Z</time>
      </trkpt>
      <trkpt lat="48.76021" lon="2.2909">
        <ele>85.6</ele>
        <time>2020-07-02T07:30:09Z</time>
      </trkpt>
      <trkpt lat="48.76017" lon="2.2909">
        <ele>85.7</ele>
        <time>2020-07-02T07:30:10Z</time>
      </trkpt>
      <trkpt lat="48.76013" lon="2.29089">
        <ele>85.8</ele>
        <time>2020-07-02T07:30:11Z</time>
      </trkpt>
      <trkpt lat="48.7601" lon="2.29089">
        <ele>85.9</ele>
        <time>2020-07-02T07:30:12Z</time>
      </trkpt>
      <trkpt lat="48.76007" lon="2.29089">
        <ele>86</ele>
        <time>2020-07-02T07:30:13Z</time>
      </trkpt>
      <trkpt lat="48.76003" lon="2.29089">
        <ele>86</ele>
        <time>2020-07-02T07:30:14Z</time>
      </trkpt>
      <trkpt lat="48.76002" lon="2.29089">
        <ele>86</ele>
        <time>2020-07-02T07:30:15Z</time>
      </trkpt>
      <trkpt lat="48.75999" lon="2.29089">
        <ele>86.1</ele>
        <time>2020-07-02T07:30:16Z</time>
      </trkpt>
      <trkpt lat="48.75998" lon="2.29088">
        <ele>86.1</ele>
        <time>2020-07-02T07:30:17Z</time>
      </trkpt>
      <trkpt lat="48.75995" lon="2.29087">
        <ele>86.1</ele>
        <time>2020-07-02T07:30:18Z</time>
      </trkpt>
      <trkpt lat="48.75992" lon="2.29087">
        <ele>86.1</ele>
        <time>2020-07-02T07:30:19Z</time>
      </trkpt>
      <trkpt lat="48.75989" lon="2.29085">
        <ele>86.1</ele>
        <time>2020-07-02T07:30:20Z</time>
      </trkpt>
      <trkpt lat="48.75986" lon="2.29083">
        <ele>86.1</ele>
        <time>2020-07-02T07:30:21Z</time>
      </trkpt>
      <trkpt lat="48.75983" lon="2.2908">
        <ele>86.1</ele>
        <time>2020-07-02T07:30:22Z</time>
      </trkpt>
      <trkpt lat="48.75979" lon="2.29079">
        <ele>86.2</ele>
        <time>2020-07-02T07:30:23Z</time>
      </trkpt>
      <trkpt lat="48.75976" lon="2.29078">
        <ele>86.2</ele>
        <time>2020-07-02T07:30:24Z</time>
      </trkpt>
      <trkpt lat="48.75972" lon="2.29078">
        <ele>86.2</ele>
        <time>2020-07-02T07:30:25Z</time>
      </trkpt>
      <trkpt lat="48.75969" lon="2.29075">
        <ele>86.2</ele>
        <time>2020-07-02T07:30:26Z</time>
      </trkpt>
      <trkpt lat="48.75965" lon="2.29072">
        <ele>86.2</ele>
        <time>2020-07-02T07:30:27Z</time>
      </trkpt>
      <trkpt lat="48.75962" lon="2.29071">
        <ele>86.3</ele>
        <time>2020-07-02T07:30:28Z</time>
      </trkpt>
      <trkpt lat="48.75959" lon="2.2907">
        <ele>86.3</ele>
        <time>2020-07-02T07:30:29Z</time>
      </trkpt>
      <trkpt lat="48.75956" lon="2.29069">
        <ele>86.3</ele>
        <time>2020-07-02T07:30:30Z</time>
      </trkpt>
      <trkpt lat="48.75952" lon="2.2907">
        <ele>86.4</ele>
        <time>2020-07-02T07:30:31Z</time>
      </trkpt>
      <trkpt lat="48.75949" lon="2.29069">
        <ele>86</ele>
        <time>2020-07-02T07:30:32Z</time>
      </trkpt>
      <trkpt lat="48.75946" lon="2.29068">
        <ele>85.9</ele>
        <time>2020-07-02T07:30:33Z</time>
      </trkpt>
      <trkpt lat="48.75943" lon="2.29069">
        <ele>85.8</ele>
        <time>2020-07-02T07:30:34Z</time>
      </trkpt>
      <trkpt lat="48.75939" lon="2.29068">
        <ele>85.6</ele>
        <time>2020-07-02T07:30:35Z</time>
      </trkpt>
      <trkpt lat="48.75936" lon="2.29068">
        <ele>85.5</ele>
        <time>2020-07-02T07:30:36Z</time>
      </trkpt>
      <trkpt lat="48.75933" lon="2.2907">
        <ele>85.4</ele>
        <time>2020-07-02T07:30:37Z</time>
      </trkpt>
      <trkpt lat="48.7593" lon="2.29072">
        <ele>85.3</ele>
        <time>2020-07-02T07:30:38Z</time>
      </trkpt>
      <trkpt lat="48.75928" lon="2.29075">
        <ele>85.2</ele>
        <time>2020-07-02T07:30:39Z</time>
      </trkpt>
      <trkpt lat="48.75925" lon="2.29078">
        <ele>85.2</ele>
        <time>2020-07-02T07:30:40Z</time>
      </trkpt>
      <trkpt lat="48.75922" lon="2.29081">
        <ele>85.1</ele>
        <time>2020-07-02T07:30:41Z</time>
      </trkpt>
      <trkpt lat="48.75919" lon="2.29084">
        <ele>85</ele>
        <time>2020-07-02T07:30:42Z</time>
      </trkpt>
      <trkpt lat="48.75917" lon="2.29086">
        <ele>84.9</ele>
        <time>2020-07-02T07:30:43Z</time>
      </trkpt>
      <trkpt lat="48.75914" lon="2.29088">
        <ele>84.8</ele>
        <time>2020-07-02T07:30:44Z</time>
      </trkpt>
      <trkpt lat="48.75911" lon="2.2909">
        <ele>84.8</ele>
        <time>2020-07-02T07:30:45Z</time>
      </trkpt>
      <trkpt lat="48.75908" lon="2.29093">
        <ele>84.7</ele>
        <time>2020-07-02T07:30:46Z</time>
      </trkpt>
      <trkpt lat="48.75907" lon="2.29094">
        <ele>84.7</ele>
        <time>2020-07-02T07:30:47Z</time>
      </trkpt>
      <trkpt lat="48.75904" lon="2.29095">
        <ele>84.6</ele>
        <time>2020-07-02T07:30:48Z</time>
      </trkpt>
      <trkpt lat="48.75902" lon="2.29098">
        <ele>84.6</ele>
        <time>2020-07-02T07:30:49Z</time>
      </trkpt>
      <trkpt lat="48.75899" lon="2.291">
        <ele>84.5</ele>
        <time>2020-07-02T07:30:50Z</time>
      </trkpt>
      <trkpt lat="48.75896" lon="2.29102">
        <ele>84.5</ele>
        <time>2020-07-02T07:30:51Z</time>
      </trkpt>
      <trkpt lat="48.75892" lon="2.29106">
        <ele>84.4</ele>
        <time>2020-07-02T07:30:52Z</time>
      </trkpt>
      <trkpt lat="48.75891" lon="2.29107">
        <ele>84.4</ele>
        <time>2020-07-02T07:30:53Z</time>
      </trkpt>
      <trkpt lat="48.75889" lon="2.29108">
        <ele>84.3</ele>
        <time>2020-07-02T07:30:54Z</time>
      </trkpt>
      <trkpt lat="48.75886" lon="2.29111">
        <ele>84.2</ele>
        <time>2020-07-02T07:30:55Z</time>
      </trkpt>
      <trkpt lat="48.75882" lon="2.29114">
        <ele>84.1</ele>
        <time>2020-07-02T07:30:56Z</time>
      </trkpt>
      <trkpt lat="48.75877" lon="2.29119">
        <ele>84</ele>
        <time>2020-07-02T07:30:57Z</time>
      </trkpt>
      <trkpt lat="48.75871" lon="2.29124">
        <ele>83.9</ele>
        <time>2020-07-02T07:30:58Z</time>
      </trkpt>
      <trkpt lat="48.75865" lon="2.29131">
        <ele>83.8</ele>
        <time>2020-07-02T07:30:59Z</time>
      </trkpt>
      <trkpt lat="48.7586" lon="2.29137">
        <ele>83.7</ele>
        <time>2020-07-02T07:31:00Z</time>
      </trkpt>
      <trkpt lat="48.75856" lon="2.29141">
        <ele>83.6</ele>
        <time>2020-07-02T07:31:01Z</time>
      </trkpt>
      <trkpt lat="48.75853" lon="2.29143">
        <ele>83.6</ele>
        <time>2020-07-02T07:31:02Z</time>
      </trkpt>
      <trkpt lat="48.75849" lon="2.29145">
        <ele>83.6</ele>
        <time>2020-07-02T07:31:03Z</time>
      </trkpt>
      <trkpt lat="48.75846" lon="2.29147">
        <ele>83.5</ele>
        <time>2020-07-02T07:31:04Z</time>
      </trkpt>
      <trkpt lat="48.75844" lon="2.29149">
        <ele>83.5</ele>
        <time>2020-07-02T07:31:05Z</time>
      </trkpt>
      <trkpt lat="48.7584" lon="2.29154">
        <ele>83.5</ele>
        <time>2020-07-02T07:31:06Z</time>
      </trkpt>
      <trkpt lat="48.75837" lon="2.29158">
        <ele>83.5</ele>
        <time>2020-07-02T07:31:07Z</time>
      </trkpt>
      <trkpt lat="48.75834" lon="2.29162">
        <ele>83.4</ele>
        <time>2020-07-02T07:31:08Z</time>
      </trkpt>
      <trkpt lat="48.75831" lon="2.29165">
        <ele>83.3</ele>
        <time>2020-07-02T07:31:09Z</time>
      </trkpt>
      <trkpt lat="48.75828" lon="2.29171">
        <ele>83.3</ele>
        <time>2020-07-02T07:31:10Z</time>
      </trkpt>
      <trkpt lat="48.75825" lon="2.29176">
        <ele>83.1</ele>
        <time>2020-07-02T07:31:11Z</time>
      </trkpt>
      <trkpt lat="48.75823" lon="2.2918">
        <ele>83</ele>
        <time>2020-07-02T07:31:12Z</time>
      </trkpt>
      <trkpt lat="48.7582" lon="2.29185">
        <ele>82.9</ele>
        <time>2020-07-02T07:31:13Z</time>
      </trkpt>
      <trkpt lat="48.75816" lon="2.29189">
        <ele>82.8</ele>
        <time>2020-07-02T07:31:14Z</time>
      </trkpt>
      <trkpt lat="48.75813" lon="2.29193">
        <ele>82.7</ele>
        <time>2020-07-02T07:31:15Z</time>
      </trkpt>
      <trkpt lat="48.75811" lon="2.29197">
        <ele>82.7</ele>
        <time>2020-07-02T07:31:16Z</time>
      </trkpt>
      <trkpt lat="48.75809" lon="2.29201">
        <ele>82.6</ele>
        <time>2020-07-02T07:31:17Z</time>
      </trkpt>
      <trkpt lat="48.75806" lon="2.29206">
        <ele>82.5</ele>
        <time>2020-07-02T07:31:18Z</time>
      </trkpt>
      <trkpt lat="48.75803" lon="2.2921">
        <ele>82.4</ele>
        <time>2020-07-02T07:31:19Z</time>
      </trkpt>
      <trkpt lat="48.758" lon="2.29216">
        <ele>82.3</ele>
        <time>2020-07-02T07:31:20Z</time>
      </trkpt>
      <trkpt lat="48.75797" lon="2.2922">
        <ele>82.2</ele>
        <time>2020-07-02T07:31:21Z</time>
      </trkpt>
      <trkpt lat="48.75795" lon="2.29225">
        <ele>82.1</ele>
        <time>2020-07-02T07:31:22Z</time>
      </trkpt>
      <trkpt lat="48.75792" lon="2.2923">
        <ele>81.9</ele>
        <time>2020-07-02T07:31:23Z</time>
      </trkpt>
      <trkpt lat="48.75789" lon="2.29236">
        <ele>81.8</ele>
        <time>2020-07-02T07:31:24Z</time>
      </trkpt>
      <trkpt lat="48.75786" lon="2.29242">
        <ele>81.6</ele>
        <time>2020-07-02T07:31:25Z</time>
      </trkpt>
      <trkpt lat="48.75782" lon="2.29248">
        <ele>81.5</ele>
        <time>2020-07-02T07:31:26Z</time>
      </trkpt>
      <trkpt lat="48.75778" lon="2.29254">
        <ele>81.3</ele>
        <time>2020-07-02T07:31:27Z</time>
      </trkpt>
      <trkpt lat="48.75774" lon="2.2926">
        <ele>81.2</ele>
        <time>2020-07-02T07:31:28Z</time>
      </trkpt>
      <trkpt lat="48.7577" lon="2.29266">
        <ele>81</ele>
        <time>2020-07-02T07:31:29Z</time>
      </trkpt>
      <trkpt lat="48.75765" lon="2.29274">
        <ele>80.8</ele>
        <time>2020-07-02T07:31:30Z</time>
      </trkpt>
      <trkpt lat="48.75761" lon="2.29281">
        <ele>80.6</ele>
        <time>2020-07-02T07:31:31Z</time>
      </trkpt>
      <trkpt lat="48.75757" lon="2.29289">
        <ele>80.4</ele>
        <time>2020-07-02T07:31:32Z</time>
      </trkpt>
      <trkpt lat="48.75753" lon="2.29296">
        <ele>80.2</ele>
        <time>2020-07-02T07:31:33Z</time>
      </trkpt>
      <trkpt lat="48.75749" lon="2.29301">
        <ele>80</ele>
        <time>2020-07-02T07:31:34Z</time>
      </trkpt>
      <trkpt lat="48.75745" lon="2.29307">
        <ele>79.8</ele>
        <time>2020-07-02T07:31:35Z</time>
      </trkpt>
      <trkpt lat="48.75742" lon="2.29312">
        <ele>79.6</ele>
        <time>2020-07-02T07:31:36Z</time>
      </trkpt>
      <trkpt lat="48.75739" lon="2.29318">
        <ele>79.5</ele>
        <time>2020-07-02T07:31:37Z</time>
      </trkpt>
      <trkpt lat="48.75736" lon="2.29325">
        <ele>79.3</ele>
        <time>2020-07-02T07:31:38Z</time>
      </trkpt>
      <trkpt lat="48.75733" lon="2.29331">
        <ele>79.1</ele>
        <time>2020-07-02T07:31:39Z</time>
      </trkpt>
      <trkpt lat="48.7573" lon="2.29336">
        <ele>78.8</ele>
        <time>2020-07-02T07:31:40Z</time>
      </trkpt>
      <trkpt lat="48.75727" lon="2.29342">
        <ele>78.6</ele>
        <time>2020-07-02T07:31:41Z</time>
      </trkpt>
      <trkpt lat="48.75725" lon="2.29349">
        <ele>78.5</ele>
        <time>2020-07-02T07:31:42Z</time>
      </trkpt>
      <trkpt lat="48.75722" lon="2.29356">
        <ele>78.3</ele>
        <time>2020-07-02T07:31:43Z</time>
      </trkpt>
      <trkpt lat="48.75719" lon="2.29363">
        <ele>78</ele>
        <time>2020-07-02T07:31:44Z</time>
      </trkpt>
      <trkpt lat="48.75716" lon="2.29372">
        <ele>77.8</ele>
        <time>2020-07-02T07:31:45Z</time>
      </trkpt>
      <trkpt lat="48.75713" lon="2.29381">
        <ele>77.5</ele>
        <time>2020-07-02T07:31:46Z</time>
      </trkpt>
      <trkpt lat="48.7571" lon="2.2939">
        <ele>77.3</ele>
        <time>2020-07-02T07:31:47Z</time>
      </trkpt>
      <trkpt lat="48.75707" lon="2.294">
        <ele>77.1</ele>
        <time>2020-07-02T07:31:48Z</time>
      </trkpt>
      <trkpt lat="48.75704" lon="2.29409">
        <ele>76.8</ele>
        <time>2020-07-02T07:31:49Z</time>
      </trkpt>
      <trkpt lat="48.75701" lon="2.29418">
        <ele>76.4</ele>
        <time>2020-07-02T07:31:50Z</time>
      </trkpt>
      <trkpt lat="48.75699" lon="2.29427">
        <ele>76.1</ele>
        <time>2020-07-02T07:31:51Z</time>
      </trkpt>
      <trkpt lat="48.75698" lon="2.29438">
        <ele>75.7</ele>
        <time>2020-07-02T07:31:52Z</time>
      </trkpt>
      <trkpt lat="48.75695" lon="2.29451">
        <ele>75.3</ele>
        <time>2020-07-02T07:31:53Z</time>
      </trkpt>
      <trkpt lat="48.75691" lon="2.29464">
        <ele>74.8</ele>
        <time>2020-07-02T07:31:54Z</time>
      </trkpt>
      <trkpt lat="48.75685" lon="2.29474">
        <ele>74.4</ele>
        <time>2020-07-02T07:31:55Z</time>
      </trkpt>
      <trkpt lat="48.75679" lon="2.29482">
        <ele>74.1</ele>
        <time>2020-07-02T07:31:56Z</time>
      </trkpt>
      <trkpt lat="48.75674" lon="2.2949">
        <ele>73.7</ele>
        <time>2020-07-02T07:31:57Z</time>
      </trkpt>
      <trkpt lat="48.75669" lon="2.29497">
        <ele>73.5</ele>
        <time>2020-07-02T07:31:58Z</time>
      </trkpt>
      <trkpt lat="48.75663" lon="2.29502">
        <ele>73.4</ele>
        <time>2020-07-02T07:31:59Z</time>
      </trkpt>
      <trkpt lat="48.75657" lon="2.29508">
        <ele>73.3</ele>
        <time>2020-07-02T07:32:00Z</time>
      </trkpt>
      <trkpt lat="48.7565" lon="2.29514">
        <ele>73.1</ele>
        <time>2020-07-02T07:32:01Z</time>
      </trkpt>
      <trkpt lat="48.75643" lon="2.29519">
        <ele>72.8</ele>
        <time>2020-07-02T07:32:02Z</time>
      </trkpt>
      <trkpt lat="48.75636" lon="2.29523">
        <ele>72.5</ele>
        <time>2020-07-02T07:32:03Z</time>
      </trkpt>
      <trkpt lat="48.75629" lon="2.29526">
        <ele>72.3</ele>
        <time>2020-07-02T07:32:04Z</time>
      </trkpt>
      <trkpt lat="48.75622" lon="2.2953">
        <ele>72</ele>
        <time>2020-07-02T07:32:05Z</time>
      </trkpt>
      <trkpt lat="48.75615" lon="2.29533">
        <ele>71.8</ele>
        <time>2020-07-02T07:32:06Z</time>
      </trkpt>
      <trkpt lat="48.75609" lon="2.29537">
        <ele>71.5</ele>
        <time>2020-07-02T07:32:07Z</time>
      </trkpt>
      <trkpt lat="48.75602" lon="2.29539">
        <ele>71.3</ele>
        <time>2020-07-02T07:32:08Z</time>
      </trkpt>
      <trkpt lat="48.75598" lon="2.29541">
        <ele>71.2</ele>
        <time>2020-07-02T07:32:09Z</time>
      </trkpt>
      <trkpt lat="48.75594" lon="2.29543">
        <ele>71</ele>
        <time>2020-07-02T07:32:10Z</time>
      </trkpt>
      <trkpt lat="48.75589" lon="2.29547">
        <ele>70.9</ele>
        <time>2020-07-02T07:32:11Z</time>
      </trkpt>
      <trkpt lat="48.75585" lon="2.29549">
        <ele>70.9</ele>
        <time>2020-07-02T07:32:12Z</time>
      </trkpt>
      <trkpt lat="48.75582" lon="2.29552">
        <ele>70.9</ele>
        <time>2020-07-02T07:32:13Z</time>
      </trkpt>
      <trkpt lat="48.75579" lon="2.29554">
        <ele>70.9</ele>
        <time>2020-07-02T07:32:14Z</time>
      </trkpt>
      <trkpt lat="48.75576" lon="2.29556">
        <ele>70.9</ele>
        <time>2020-07-02T07:32:15Z</time>
      </trkpt>
      <trkpt lat="48.75575" lon="2.29556">
        <ele>70.9</ele>
        <time>2020-07-02T07:32:16Z</time>
      </trkpt>
      <trkpt lat="48.75572" lon="2.29559">
        <ele>70.8</ele>
        <time>2020-07-02T07:32:17Z</time>
      </trkpt>
      <trkpt lat="48.75571" lon="2.29561">
        <ele>70.8</ele>
        <time>2020-07-02T07:32:18Z</time>
      </trkpt>
      <trkpt lat="48.75568" lon="2.29565">
        <ele>70.8</ele>
        <time>2020-07-02T07:32:19Z</time>
      </trkpt>
      <trkpt lat="48.75565" lon="2.29568">
        <ele>70.8</ele>
        <time>2020-07-02T07:32:20Z</time>
      </trkpt>
      <trkpt lat="48.75564" lon="2.29571">
        <ele>70.8</ele>
        <time>2020-07-02T07:32:21Z</time>
      </trkpt>
      <trkpt lat="48.75564" lon="2.29572">
        <ele>70.8</ele>
        <time>2020-07-02T07:32:22Z</time>
      </trkpt>
      <trkpt lat="48.75563" lon="2.29574">
        <ele>70.7</ele>
        <time>2020-07-02T07:32:23Z</time>
      </trkpt>
      <trkpt lat="48.75559" lon="2.2958">
        <ele>70.7</ele>
        <time>2020-07-02T07:32:24Z</time>
      </trkpt>
      <trkpt lat="48.75555" lon="2.29587">
        <ele>71</ele>
        <time>2020-07-02T07:32:25Z</time>
      </trkpt>
      <trkpt lat="48.75551" lon="2.29591">
        <ele>70.7</ele>
        <time>2020-07-02T07:32:26Z</time>
      </trkpt>
      <trkpt lat="48.75549" lon="2.29596">
        <ele>70.5</ele>
        <time>2020-07-02T07:32:27Z</time>
      </trkpt>
      <trkpt lat="48.75546" lon="2.29601">
        <ele>70.3</ele>
        <time>2020-07-02T07:32:28Z</time>
      </trkpt>
      <trkpt lat="48.75542" lon="2.29608">
        <ele>70.1</ele>
        <time>2020-07-02T07:32:29Z</time>
      </trkpt>
      <trkpt lat="48.7554" lon="2.29611">
        <ele>70</ele>
        <time>2020-07-02T07:32:30Z</time>
      </trkpt>
      <trkpt lat="48.75538" lon="2.29615">
        <ele>69.9</ele>
        <time>2020-07-02T07:32:31Z</time>
      </trkpt>
      <trkpt lat="48.75535" lon="2.29619">
        <ele>69.7</ele>
        <time>2020-07-02T07:32:32Z</time>
      </trkpt>
      <trkpt lat="48.75533" lon="2.29625">
        <ele>69.4</ele>
        <time>2020-07-02T07:32:33Z</time>
      </trkpt>
      <trkpt lat="48.7553" lon="2.29632">
        <ele>69.1</ele>
        <time>2020-07-02T07:32:34Z</time>
      </trkpt>
      <trkpt lat="48.75528" lon="2.2964">
        <ele>68.7</ele>
        <time>2020-07-02T07:32:35Z</time>
      </trkpt>
      <trkpt lat="48.75525" lon="2.29646">
        <ele>68.4</ele>
        <time>2020-07-02T07:32:36Z</time>
      </trkpt>
      <trkpt lat="48.75522" lon="2.29651">
        <ele>68.2</ele>
        <time>2020-07-02T07:32:37Z</time>
      </trkpt>
      <trkpt lat="48.75519" lon="2.29657">
        <ele>67.8</ele>
        <time>2020-07-02T07:32:38Z</time>
      </trkpt>
      <trkpt lat="48.75516" lon="2.29663">
        <ele>67.5</ele>
        <time>2020-07-02T07:32:39Z</time>
      </trkpt>
      <trkpt lat="48.75512" lon="2.2967">
        <ele>67.1</ele>
        <time>2020-07-02T07:32:40Z</time>
      </trkpt>
      <trkpt lat="48.75508" lon="2.29676">
        <ele>66.8</ele>
        <time>2020-07-02T07:32:41Z</time>
      </trkpt>
      <trkpt lat="48.75503" lon="2.29683">
        <ele>66.4</ele>
        <time>2020-07-02T07:32:42Z</time>
      </trkpt>
      <trkpt lat="48.75499" lon="2.29689">
        <ele>66.1</ele>
        <time>2020-07-02T07:32:43Z</time>
      </trkpt>
      <trkpt lat="48.75495" lon="2.29695">
        <ele>65.8</ele>
        <time>2020-07-02T07:32:44Z</time>
      </trkpt>
      <trkpt lat="48.7549" lon="2.29701">
        <ele>65.4</ele>
        <time>2020-07-02T07:32:45Z</time>
      </trkpt>
      <trkpt lat="48.75486" lon="2.29706">
        <ele>65.1</ele>
        <time>2020-07-02T07:32:46Z</time>
      </trkpt>
      <trkpt lat="48.75482" lon="2.29712">
        <ele>64.8</ele>
        <time>2020-07-02T07:32:47Z</time>
      </trkpt>
      <trkpt lat="48.75477" lon="2.29717">
        <ele>64.5</ele>
        <time>2020-07-02T07:32:48Z</time>
      </trkpt>
      <trkpt lat="48.75473" lon="2.29722">
        <ele>64.1</ele>
        <time>2020-07-02T07:32:49Z</time>
      </trkpt>
      <trkpt lat="48.75469" lon="2.29728">
        <ele>63.8</ele>
        <time>2020-07-02T07:32:50Z</time>
      </trkpt>
      <trkpt lat="48.75465" lon="2.29735">
        <ele>63.4</ele>
        <time>2020-07-02T07:32:51Z</time>
      </trkpt>
      <trkpt lat="48.75462" lon="2.29744">
        <ele>63</ele>
        <time>2020-07-02T07:32:52Z</time>
      </trkpt>
      <trkpt lat="48.75461" lon="2.29752">
        <ele>62.8</ele>
        <time>2020-07-02T07:32:53Z</time>
      </trkpt>
      <trkpt lat="48.7546" lon="2.29762">
        <ele>62.5</ele>
        <time>2020-07-02T07:32:54Z</time>
      </trkpt>
      <trkpt lat="48.75459" lon="2.29771">
        <ele>62.2</ele>
        <time>2020-07-02T07:32:55Z</time>
      </trkpt>
      <trkpt lat="48.7546" lon="2.29779">
        <ele>61.9</ele>
        <time>2020-07-02T07:32:56Z</time>
      </trkpt>
      <trkpt lat="48.75459" lon="2.29789">
        <ele>61.5</ele>
        <time>2020-07-02T07:32:57Z</time>
      </trkpt>
      <trkpt lat="48.75458" lon="2.29799">
        <ele>61.1</ele>
        <time>2020-07-02T07:32:58Z</time>
      </trkpt>
      <trkpt lat="48.75457" lon="2.29809">
        <ele>60.6</ele>
        <time>2020-07-02T07:32:59Z</time>
      </trkpt>
      <trkpt lat="48.75456" lon="2.29818">
        <ele>60.4</ele>
        <time>2020-07-02T07:33:00Z</time>
      </trkpt>
      <trkpt lat="48.75456" lon="2.29828">
        <ele>60.3</ele>
        <time>2020-07-02T07:33:01Z</time>
      </trkpt>
      <trkpt lat="48.75455" lon="2.29838">
        <ele>60.1</ele>
        <time>2020-07-02T07:33:02Z</time>
      </trkpt>
      <trkpt lat="48.75456" lon="2.29847">
        <ele>60</ele>
        <time>2020-07-02T07:33:03Z</time>
      </trkpt>
      <trkpt lat="48.75456" lon="2.29856">
        <ele>59.9</ele>
        <time>2020-07-02T07:33:04Z</time>
      </trkpt>
      <trkpt lat="48.75456" lon="2.29863">
        <ele>59.7</ele>
        <time>2020-07-02T07:33:05Z</time>
      </trkpt>
      <trkpt lat="48.75456" lon="2.29872">
        <ele>59.6</ele>
        <time>2020-07-02T07:33:06Z</time>
      </trkpt>
      <trkpt lat="48.75456" lon="2.29881">
        <ele>59.3</ele>
        <time>2020-07-02T07:33:07Z</time>
      </trkpt>
      <trkpt lat="48.75456" lon="2.2989">
        <ele>59.2</ele>
        <time>2020-07-02T07:33:08Z</time>
      </trkpt>
      <trkpt lat="48.75456" lon="2.29901">
        <ele>59.1</ele>
        <time>2020-07-02T07:33:09Z</time>
      </trkpt>
      <trkpt lat="48.75456" lon="2.2991">
        <ele>58.9</ele>
        <time>2020-07-02T07:33:10Z</time>
      </trkpt>
      <trkpt lat="48.75456" lon="2.29917">
        <ele>58.9</ele>
        <time>2020-07-02T07:33:11Z</time>
      </trkpt>
      <trkpt lat="48.75457" lon="2.29928">
        <ele>58.7</ele>
        <time>2020-07-02T07:33:12Z</time>
      </trkpt>
      <trkpt lat="48.75457" lon="2.29938">
        <ele>58.6</ele>
        <time>2020-07-02T07:33:13Z</time>
      </trkpt>
      <trkpt lat="48.75456" lon="2.29948">
        <ele>58.5</ele>
        <time>2020-07-02T07:33:14Z</time>
      </trkpt>
      <trkpt lat="48.75456" lon="2.29958">
        <ele>58.5</ele>
        <time>2020-07-02T07:33:15Z</time>
      </trkpt>
      <trkpt lat="48.75454" lon="2.29968">
        <ele>58.3</ele>
        <time>2020-07-02T07:33:16Z</time>
      </trkpt>
      <trkpt lat="48.75453" lon="2.29977">
        <ele>58.3</ele>
        <time>2020-07-02T07:33:17Z</time>
      </trkpt>
      <trkpt lat="48.7545" lon="2.29985">
        <ele>58.3</ele>
        <time>2020-07-02T07:33:18Z</time>
      </trkpt>
      <trkpt lat="48.75447" lon="2.29992">
        <ele>58.3</ele>
        <time>2020-07-02T07:33:19Z</time>
      </trkpt>
      <trkpt lat="48.75445" lon="2.29999">
        <ele>58.2</ele>
        <time>2020-07-02T07:33:20Z</time>
      </trkpt>
      <trkpt lat="48.75443" lon="2.30006">
        <ele>58.2</ele>
        <time>2020-07-02T07:33:21Z</time>
      </trkpt>
      <trkpt lat="48.7544" lon="2.30012">
        <ele>58.2</ele>
        <time>2020-07-02T07:33:22Z</time>
      </trkpt>
      <trkpt lat="48.75438" lon="2.30017">
        <ele>58.2</ele>
        <time>2020-07-02T07:33:23Z</time>
      </trkpt>
      <trkpt lat="48.75438" lon="2.30018">
        <ele>58.2</ele>
        <time>2020-07-02T07:33:24Z</time>
      </trkpt>
      <trkpt lat="48.75437" lon="2.30019">
        <ele>58.2</ele>
        <time>2020-07-02T07:33:25Z</time>
      </trkpt>
      <trkpt lat="48.75436" lon="2.3002">
        <ele>58.2</ele>
        <time>2020-07-02T07:33:26Z</time>
      </trkpt>
      <trkpt lat="48.75434" lon="2.30022">
        <ele>58.3</ele>
        <time>2020-07-02T07:33:27Z</time>
      </trkpt>
      <trkpt lat="48.75434" lon="2.30022">
        <ele>58.3</ele>
        <time>2020-07-02T07:33:28Z</time>
      </trkpt>
      <trkpt lat="48.75433" lon="2.30023">
        <ele>58.3</ele>
        <time>2020-07-02T07:33:29Z</time>
      </trkpt>
      <trkpt lat="48.75432" lon="2.30024">
        <ele>58.3</ele>
        <time>2020-07-02T07:33:30Z</time>
      </trkpt>
      <trkpt lat="48.75432" lon="2.30026">
        <ele>58.3</ele>
        <time>2020-07-02T07:33:31Z</time>
      </trkpt>
      <trkpt lat="48.75431" lon="2.30027">
        <ele>58.3</ele>
        <time>2020-07-02T07:33:32Z</time>
      </trkpt>
      <trkpt lat="48.75431" lon="2.30027">
        <ele>58.3</ele>
        <time>2020-07-02T07:33:33Z</time>
      </trkpt>
      <trkpt lat="48.75432" lon="2.30026">
        <ele>58.3</ele>
        <time>2020-07-02T07:33:34Z</time>
      </trkpt>
      <trkpt lat="48.75432" lon="2.30026">
        <ele>58.3</ele>
        <time>2020-07-02T07:33:35Z</time>
      </trkpt>
      <trkpt lat="48.75432" lon="2.30026">
        <ele>58.3</ele>
        <time>2020-07-02T07:33:36Z</time>
      </trkpt>
      <trkpt lat="48.75431" lon="2.30026">
        <ele>58.3</ele>
        <time>2020-07-02T07:33:37Z</time>
      </trkpt>
      <trkpt lat="48.75431" lon="2.30026">
        <ele>58.3</ele>
        <time>2020-07-02T07:33:38Z</time>
      </trkpt>
      <trkpt lat="48.75428" lon="2.30028">
        <ele>58.4</ele>
        <time>2020-07-02T07:33:44Z</time>
      </trkpt>
      <trkpt lat="48.75427" lon="2.3003">
        <ele>58.4</ele>
        <time>2020-07-02T07:33:45Z</time>
      </trkpt>
      <trkpt lat="48.75426" lon="2.30036">
        <ele>58.5</ele>
        <time>2020-07-02T07:33:46Z</time>
      </trkpt>
      <trkpt lat="48.75426" lon="2.30037">
        <ele>58.5</ele>
        <time>2020-07-02T07:33:47Z</time>
      </trkpt>
      <trkpt lat="48.75425" lon="2.30043">
        <ele>58.6</ele>
        <time>2020-07-02T07:33:48Z</time>
      </trkpt>
      <trkpt lat="48.75426" lon="2.30049">
        <ele>58.4</ele>
        <time>2020-07-02T07:33:49Z</time>
      </trkpt>
      <trkpt lat="48.75426" lon="2.30053">
        <ele>58.4</ele>
        <time>2020-07-02T07:33:50Z</time>
      </trkpt>
      <trkpt lat="48.75428" lon="2.30058">
        <ele>58.4</ele>
        <time>2020-07-02T07:33:51Z</time>
      </trkpt>
      <trkpt lat="48.75428" lon="2.3006">
        <ele>58.3</ele>
        <time>2020-07-02T07:33:52Z</time>
      </trkpt>
      <trkpt lat="48.75429" lon="2.30065">
        <ele>58.2</ele>
        <time>2020-07-02T07:33:53Z</time>
      </trkpt>
      <trkpt lat="48.75429" lon="2.30067">
        <ele>58.2</ele>
        <time>2020-07-02T07:33:54Z</time>
      </trkpt>
      <trkpt lat="48.75429" lon="2.30069">
        <ele>58.2</ele>
        <time>2020-07-02T07:33:55Z</time>
      </trkpt>
      <trkpt lat="48.75429" lon="2.30071">
        <ele>58.1</ele>
        <time>2020-07-02T07:33:56Z</time>
      </trkpt>
      <trkpt lat="48.75428" lon="2.30073">
        <ele>58.1</ele>
        <time>2020-07-02T07:33:57Z</time>
      </trkpt>
      <trkpt lat="48.75428" lon="2.30075">
        <ele>58</ele>
        <time>2020-07-02T07:33:58Z</time>
      </trkpt>
      <trkpt lat="48.75427" lon="2.30079">
        <ele>58</ele>
        <time>2020-07-02T07:33:59Z</time>
      </trkpt>
      <trkpt lat="48.75427" lon="2.3008">
        <ele>57.9</ele>
        <time>2020-07-02T07:34:00Z</time>
      </trkpt>
      <trkpt lat="48.75426" lon="2.30082">
        <ele>57.9</ele>
        <time>2020-07-02T07:34:01Z</time>
      </trkpt>
      <trkpt lat="48.75425" lon="2.30083">
        <ele>57.9</ele>
        <time>2020-07-02T07:34:02Z</time>
      </trkpt>
      <trkpt lat="48.75424" lon="2.30083">
        <ele>57.9</ele>
        <time>2020-07-02T07:34:03Z</time>
      </trkpt>
      <trkpt lat="48.75424" lon="2.30084">
        <ele>57.8</ele>
        <time>2020-07-02T07:34:04Z</time>
      </trkpt>
      <trkpt lat="48.75424" lon="2.30085">
        <ele>57.8</ele>
        <time>2020-07-02T07:34:05Z</time>
      </trkpt>
      <trkpt lat="48.75423" lon="2.30086">
        <ele>57.7</ele>
        <time>2020-07-02T07:34:06Z</time>
      </trkpt>
      <trkpt lat="48.75423" lon="2.30087">
        <ele>57.7</ele>
        <time>2020-07-02T07:34:07Z</time>
      </trkpt>
      <trkpt lat="48.75423" lon="2.30088">
        <ele>57.7</ele>
        <time>2020-07-02T07:34:08Z</time>
      </trkpt>
      <trkpt lat="48.75423" lon="2.30089">
        <ele>57.7</ele>
        <time>2020-07-02T07:34:09Z</time>
      </trkpt>
      <trkpt lat="48.75422" lon="2.3009">
        <ele>57.6</ele>
        <time>2020-07-02T07:34:10Z</time>
      </trkpt>
      <trkpt lat="48.75422" lon="2.30091">
        <ele>57.6</ele>
        <time>2020-07-02T07:34:11Z</time>
      </trkpt>
      <trkpt lat="48.75422" lon="2.30092">
        <ele>57.6</ele>
        <time>2020-07-02T07:34:12Z</time>
      </trkpt>
      <trkpt lat="48.75422" lon="2.30093">
        <ele>57.6</ele>
        <time>2020-07-02T07:34:17Z</time>
      </trkpt>
      <trkpt lat="48.75421" lon="2.30094">
        <ele>57.5</ele>
        <time>2020-07-02T07:34:18Z</time>
      </trkpt>
      <trkpt lat="48.75421" lon="2.30098">
        <ele>57.4</ele>
        <time>2020-07-02T07:34:19Z</time>
      </trkpt>
      <trkpt lat="48.7542" lon="2.30106">
        <ele>57.2</ele>
        <time>2020-07-02T07:34:20Z</time>
      </trkpt>
      <trkpt lat="48.75419" lon="2.30112">
        <ele>57</ele>
        <time>2020-07-02T07:34:21Z</time>
      </trkpt>
      <trkpt lat="48.75418" lon="2.30119">
        <ele>56.8</ele>
        <time>2020-07-02T07:34:22Z</time>
      </trkpt>
      <trkpt lat="48.75417" lon="2.30125">
        <ele>56.6</ele>
        <time>2020-07-02T07:34:23Z</time>
      </trkpt>
      <trkpt lat="48.75416" lon="2.30131">
        <ele>56.5</ele>
        <time>2020-07-02T07:34:24Z</time>
      </trkpt>
      <trkpt lat="48.75416" lon="2.30137">
        <ele>56.4</ele>
        <time>2020-07-02T07:34:25Z</time>
      </trkpt>
      <trkpt lat="48.75415" lon="2.3014">
        <ele>56.3</ele>
        <time>2020-07-02T07:34:26Z</time>
      </trkpt>
      <trkpt lat="48.75414" lon="2.30144">
        <ele>56.2</ele>
        <time>2020-07-02T07:34:27Z</time>
      </trkpt>
      <trkpt lat="48.75413" lon="2.30148">
        <ele>56.1</ele>
        <time>2020-07-02T07:34:28Z</time>
      </trkpt>
      <trkpt lat="48.75412" lon="2.30153">
        <ele>56</ele>
        <time>2020-07-02T07:34:29Z</time>
      </trkpt>
      <trkpt lat="48.75412" lon="2.30154">
        <ele>56</ele>
        <time>2020-07-02T07:34:30Z</time>
      </trkpt>
      <trkpt lat="48.75412" lon="2.30158">
        <ele>55.9</ele>
        <time>2020-07-02T07:34:31Z</time>
      </trkpt>
      <trkpt lat="48.75412" lon="2.3016">
        <ele>55.9</ele>
        <time>2020-07-02T07:34:32Z</time>
      </trkpt>
      <trkpt lat="48.75412" lon="2.30165">
        <ele>55.8</ele>
        <time>2020-07-02T07:34:33Z</time>
      </trkpt>
      <trkpt lat="48.7541" lon="2.30169">
        <ele>55.7</ele>
        <time>2020-07-02T07:34:34Z</time>
      </trkpt>
      <trkpt lat="48.7541" lon="2.3017">
        <ele>55.7</ele>
        <time>2020-07-02T07:34:35Z</time>
      </trkpt>
      <trkpt lat="48.7541" lon="2.30171">
        <ele>55.6</ele>
        <time>2020-07-02T07:34:36Z</time>
      </trkpt>
      <trkpt lat="48.7541" lon="2.30172">
        <ele>55.6</ele>
        <time>2020-07-02T07:34:37Z</time>
      </trkpt>
      <trkpt lat="48.7541" lon="2.30174">
        <ele>55.6</ele>
        <time>2020-07-02T07:34:38Z</time>
      </trkpt>
      <trkpt lat="48.75409" lon="2.30174">
        <ele>55.6</ele>
        <time>2020-07-02T07:34:39Z</time>
      </trkpt>
      <trkpt lat="48.75409" lon="2.30176">
        <ele>55.5</ele>
        <time>2020-07-02T07:34:40Z</time>
      </trkpt>
      <trkpt lat="48.75411" lon="2.30179">
        <ele>55.5</ele>
        <time>2020-07-02T07:34:41Z</time>
      </trkpt>
      <trkpt lat="48.75412" lon="2.30184">
        <ele>55.4</ele>
        <time>2020-07-02T07:34:42Z</time>
      </trkpt>
      <trkpt lat="48.75412" lon="2.30189">
        <ele>55.3</ele>
        <time>2020-07-02T07:34:43Z</time>
      </trkpt>
      <trkpt lat="48.75411" lon="2.30196">
        <ele>55.2</ele>
        <time>2020-07-02T07:34:44Z</time>
      </trkpt>
      <trkpt lat="48.7541" lon="2.30203">
        <ele>55.1</ele>
        <time>2020-07-02T07:34:45Z</time>
      </trkpt>
      <trkpt lat="48.75409" lon="2.30213">
        <ele>54.9</ele>
        <time>2020-07-02T07:34:46Z</time>
      </trkpt>
      <trkpt lat="48.75407" lon="2.30224">
        <ele>54.8</ele>
        <time>2020-07-02T07:34:47Z</time>
      </trkpt>
      <trkpt lat="48.75405" lon="2.30234">
        <ele>54.7</ele>
        <time>2020-07-02T07:34:48Z</time>
      </trkpt>
      <trkpt lat="48.75404" lon="2.30243">
        <ele>54.5</ele>
        <time>2020-07-02T07:34:49Z</time>
      </trkpt>
      <trkpt lat="48.75403" lon="2.30252">
        <ele>54.4</ele>
        <time>2020-07-02T07:34:50Z</time>
      </trkpt>
      <trkpt lat="48.754" lon="2.30261">
        <ele>54.3</ele>
        <time>2020-07-02T07:34:51Z</time>
      </trkpt>
      <trkpt lat="48.75398" lon="2.3027">
        <ele>54.3</ele>
        <time>2020-07-02T07:34:52Z</time>
      </trkpt>
      <trkpt lat="48.75396" lon="2.30279">
        <ele>54.2</ele>
        <time>2020-07-02T07:34:53Z</time>
      </trkpt>
      <trkpt lat="48.75394" lon="2.30288">
        <ele>54.2</ele>
        <time>2020-07-02T07:34:54Z</time>
      </trkpt>
      <trkpt lat="48.75391" lon="2.30298">
        <ele>54.1</ele>
        <time>2020-07-02T07:34:55Z</time>
      </trkpt>
      <trkpt lat="48.75389" lon="2.30304">
        <ele>54.1</ele>
        <time>2020-07-02T07:34:56Z</time>
      </trkpt>
      <trkpt lat="48.75388" lon="2.30312">
        <ele>54.1</ele>
        <time>2020-07-02T07:34:57Z</time>
      </trkpt>
      <trkpt lat="48.75386" lon="2.30318">
        <ele>54.1</ele>
        <time>2020-07-02T07:34:58Z</time>
      </trkpt>
      <trkpt lat="48.75385" lon="2.30325">
        <ele>54.1</ele>
        <time>2020-07-02T07:34:59Z</time>
      </trkpt>
      <trkpt lat="48.75384" lon="2.30331">
        <ele>54.1</ele>
        <time>2020-07-02T07:35:00Z</time>
      </trkpt>
      <trkpt lat="48.75384" lon="2.30336">
        <ele>54</ele>
        <time>2020-07-02T07:35:01Z</time>
      </trkpt>
      <trkpt lat="48.75384" lon="2.3034">
        <ele>54</ele>
        <time>2020-07-02T07:35:02Z</time>
      </trkpt>
      <trkpt lat="48.7538" lon="2.30341">
        <ele>53.9</ele>
        <time>2020-07-02T07:35:03Z</time>
      </trkpt>
      <trkpt lat="48.75378" lon="2.30342">
        <ele>53.9</ele>
        <time>2020-07-02T07:35:04Z</time>
      </trkpt>
      <trkpt lat="48.75377" lon="2.30343">
        <ele>53.9</ele>
        <time>2020-07-02T07:35:05Z</time>
      </trkpt>
      <trkpt lat="48.75376" lon="2.30343">
        <ele>53.9</ele>
        <time>2020-07-02T07:35:06Z</time>
      </trkpt>
      <trkpt lat="48.75377" lon="2.30346">
        <ele>53.9</ele>
        <time>2020-07-02T07:35:07Z</time>
      </trkpt>
      <trkpt lat="48.75377" lon="2.30347">
        <ele>53.8</ele>
        <time>2020-07-02T07:35:08Z</time>
      </trkpt>
      <trkpt lat="48.75376" lon="2.30347">
        <ele>53.8</ele>
        <time>2020-07-02T07:35:09Z</time>
      </trkpt>
      <trkpt lat="48.75375" lon="2.30348">
        <ele>53.8</ele>
        <time>2020-07-02T07:35:10Z</time>
      </trkpt>
      <trkpt lat="48.75374" lon="2.30348">
        <ele>53.8</ele>
        <time>2020-07-02T07:35:11Z</time>
      </trkpt>
      <trkpt lat="48.75373" lon="2.30349">
        <ele>53.8</ele>
        <time>2020-07-02T07:35:12Z</time>
      </trkpt>
      <trkpt lat="48.75372" lon="2.30349">
        <ele>53.8</ele>
        <time>2020-07-02T07:35:13Z</time>
      </trkpt>
      <trkpt lat="48.75372" lon="2.30349">
        <ele>53.8</ele>
        <time>2020-07-02T07:35:14Z</time>
      </trkpt>
      <trkpt lat="48.75371" lon="2.30354">
        <ele>53.8</ele>
        <time>2020-07-02T07:35:15Z</time>
      </trkpt>
      <trkpt lat="48.7537" lon="2.30359">
        <ele>53.7</ele>
        <time>2020-07-02T07:35:16Z</time>
      </trkpt>
      <trkpt lat="48.75369" lon="2.30364">
        <ele>53.7</ele>
        <time>2020-07-02T07:35:45Z</time>
      </trkpt>
      <trkpt lat="48.75368" lon="2.30369">
        <ele>53.6</ele>
        <time>2020-07-02T07:35:46Z</time>
      </trkpt>
      <trkpt lat="48.75367" lon="2.30375">
        <ele>53.6</ele>
        <time>2020-07-02T07:35:47Z</time>
      </trkpt>
      <trkpt lat="48.75366" lon="2.30377">
        <ele>53.5</ele>
        <time>2020-07-02T07:35:48Z</time>
      </trkpt>
      <trkpt lat="48.75365" lon="2.30383">
        <ele>53.5</ele>
        <time>2020-07-02T07:35:49Z</time>
      </trkpt>
      <trkpt lat="48.75364" lon="2.30389">
        <ele>53.5</ele>
        <time>2020-07-02T07:35:50Z</time>
      </trkpt>
      <trkpt lat="48.75363" lon="2.30396">
        <ele>53.4</ele>
        <time>2020-07-02T07:35:51Z</time>
      </trkpt>
      <trkpt lat="48.75361" lon="2.30405">
        <ele>53.4</ele>
        <time>2020-07-02T07:35:52Z</time>
      </trkpt>
      <trkpt lat="48.7536" lon="2.30411">
        <ele>53.3</ele>
        <time>2020-07-02T07:35:53Z</time>
      </trkpt>
      <trkpt lat="48.75359" lon="2.30416">
        <ele>53.3</ele>
        <time>2020-07-02T07:35:54Z</time>
      </trkpt>
      <trkpt lat="48.75357" lon="2.30423">
        <ele>53.2</ele>
        <time>2020-07-02T07:35:55Z</time>
      </trkpt>
      <trkpt lat="48.75356" lon="2.30428">
        <ele>53.2</ele>
        <time>2020-07-02T07:35:56Z</time>
      </trkpt>
      <trkpt lat="48.75354" lon="2.30434">
        <ele>53.2</ele>
        <time>2020-07-02T07:35:57Z</time>
      </trkpt>
      <trkpt lat="48.75353" lon="2.3044">
        <ele>53.2</ele>
        <time>2020-07-02T07:35:58Z</time>
      </trkpt>
      <trkpt lat="48.75352" lon="2.30446">
        <ele>53.1</ele>
        <time>2020-07-02T07:35:59Z</time>
      </trkpt>
      <trkpt lat="48.7535" lon="2.30452">
        <ele>53.1</ele>
        <time>2020-07-02T07:36:00Z</time>
      </trkpt>
      <trkpt lat="48.7535" lon="2.30458">
        <ele>53.1</ele>
        <time>2020-07-02T07:36:01Z</time>
      </trkpt>
      <trkpt lat="48.75348" lon="2.30462">
        <ele>53.1</ele>
        <time>2020-07-02T07:36:02Z</time>
      </trkpt>
      <trkpt lat="48.75346" lon="2.30467">
        <ele>53.1</ele>
        <time>2020-07-02T07:36:03Z</time>
      </trkpt>
      <trkpt lat="48.75344" lon="2.30473">
        <ele>53.1</ele>
        <time>2020-07-02T07:36:04Z</time>
      </trkpt>
      <trkpt lat="48.75342" lon="2.30479">
        <ele>53.2</ele>
        <time>2020-07-02T07:36:05Z</time>
      </trkpt>
      <trkpt lat="48.7534" lon="2.30485">
        <ele>53.2</ele>
        <time>2020-07-02T07:36:06Z</time>
      </trkpt>
      <trkpt lat="48.75339" lon="2.3049">
        <ele>53.2</ele>
        <time>2020-07-02T07:36:07Z</time>
      </trkpt>
      <trkpt lat="48.75339" lon="2.30493">
        <ele>53.2</ele>
        <time>2020-07-02T07:36:08Z</time>
      </trkpt>
      <trkpt lat="48.75337" lon="2.30494">
        <ele>53.3</ele>
        <time>2020-07-02T07:36:09Z</time>
      </trkpt>
      <trkpt lat="48.75337" lon="2.30499">
        <ele>53.3</ele>
        <time>2020-07-02T07:36:10Z</time>
      </trkpt>
      <trkpt lat="48.75334" lon="2.30496">
        <ele>53.1</ele>
        <time>2020-07-02T07:36:11Z</time>
      </trkpt>
      <trkpt lat="48.75331" lon="2.30495">
        <ele>53</ele>
        <time>2020-07-02T07:36:12Z</time>
      </trkpt>
      <trkpt lat="48.75326" lon="2.30494">
        <ele>52.9</ele>
        <time>2020-07-02T07:36:13Z</time>
      </trkpt>
      <trkpt lat="48.75324" lon="2.30493">
        <ele>52.9</ele>
        <time>2020-07-02T07:36:14Z</time>
      </trkpt>
      <trkpt lat="48.75318" lon="2.30491">
        <ele>52.8</ele>
        <time>2020-07-02T07:36:15Z</time>
      </trkpt>
      <trkpt lat="48.75313" lon="2.30489">
        <ele>52.7</ele>
        <time>2020-07-02T07:36:16Z</time>
      </trkpt>
      <trkpt lat="48.75308" lon="2.30487">
        <ele>52.6</ele>
        <time>2020-07-02T07:36:17Z</time>
      </trkpt>
      <trkpt lat="48.75303" lon="2.30486">
        <ele>52.6</ele>
        <time>2020-07-02T07:36:18Z</time>
      </trkpt>
      <trkpt lat="48.75299" lon="2.30486">
        <ele>52.5</ele>
        <time>2020-07-02T07:36:19Z</time>
      </trkpt>
      <trkpt lat="48.75294" lon="2.30484">
        <ele>52.4</ele>
        <time>2020-07-02T07:36:20Z</time>
      </trkpt>
      <trkpt lat="48.75291" lon="2.30483">
        <ele>52.4</ele>
        <time>2020-07-02T07:36:21Z</time>
      </trkpt>
      <trkpt lat="48.75286" lon="2.30482">
        <ele>52.3</ele>
        <time>2020-07-02T07:36:22Z</time>
      </trkpt>
      <trkpt lat="48.75279" lon="2.3048">
        <ele>52.2</ele>
        <time>2020-07-02T07:36:23Z</time>
      </trkpt>
      <trkpt lat="48.75274" lon="2.30478">
        <ele>52.2</ele>
        <time>2020-07-02T07:36:24Z</time>
      </trkpt>
      <trkpt lat="48.75269" lon="2.30475">
        <ele>52.2</ele>
        <time>2020-07-02T07:36:25Z</time>
      </trkpt>
      <trkpt lat="48.75264" lon="2.30473">
        <ele>52.2</ele>
        <time>2020-07-02T07:36:26Z</time>
      </trkpt>
      <trkpt lat="48.75259" lon="2.30472">
        <ele>52.1</ele>
        <time>2020-07-02T07:36:27Z</time>
      </trkpt>
      <trkpt lat="48.75253" lon="2.30469">
        <ele>52.1</ele>
        <time>2020-07-02T07:36:28Z</time>
      </trkpt>
      <trkpt lat="48.75248" lon="2.30468">
        <ele>52.1</ele>
        <time>2020-07-02T07:36:29Z</time>
      </trkpt>
      <trkpt lat="48.75244" lon="2.30468">
        <ele>52.1</ele>
        <time>2020-07-02T07:36:30Z</time>
      </trkpt>
      <trkpt lat="48.75241" lon="2.30467">
        <ele>52.1</ele>
        <time>2020-07-02T07:36:31Z</time>
      </trkpt>
      <trkpt lat="48.75238" lon="2.30467">
        <ele>52.1</ele>
        <time>2020-07-02T07:36:32Z</time>
      </trkpt>
      <trkpt lat="48.75234" lon="2.30467">
        <ele>52.1</ele>
        <time>2020-07-02T07:36:33Z</time>
      </trkpt>
      <trkpt lat="48.75233" lon="2.30466">
        <ele>52.1</ele>
        <time>2020-07-02T07:36:34Z</time>
      </trkpt>
      <trkpt lat="48.7523" lon="2.30465">
        <ele>52.1</ele>
        <time>2020-07-02T07:36:35Z</time>
      </trkpt>
      <trkpt lat="48.75226" lon="2.30465">
        <ele>52.1</ele>
        <time>2020-07-02T07:36:36Z</time>
      </trkpt>
      <trkpt lat="48.75222" lon="2.30464">
        <ele>52.1</ele>
        <time>2020-07-02T07:36:37Z</time>
      </trkpt>
      <trkpt lat="48.75218" lon="2.30464">
        <ele>52.1</ele>
        <time>2020-07-02T07:36:38Z</time>
      </trkpt>
      <trkpt lat="48.75214" lon="2.30464">
        <ele>52.1</ele>
        <time>2020-07-02T07:36:39Z</time>
      </trkpt>
      <trkpt lat="48.7521" lon="2.30464">
        <ele>52.1</ele>
        <time>2020-07-02T07:36:40Z</time>
      </trkpt>
      <trkpt lat="48.75206" lon="2.30463">
        <ele>52.1</ele>
        <time>2020-07-02T07:36:41Z</time>
      </trkpt>
      <trkpt lat="48.75202" lon="2.30463">
        <ele>52.1</ele>
        <time>2020-07-02T07:36:42Z</time>
      </trkpt>
      <trkpt lat="48.75198" lon="2.30462">
        <ele>52.1</ele>
        <time>2020-07-02T07:36:43Z</time>
      </trkpt>
      <trkpt lat="48.75195" lon="2.30462">
        <ele>52.2</ele>
        <time>2020-07-02T07:36:44Z</time>
      </trkpt>
      <trkpt lat="48.75191" lon="2.30461">
        <ele>52.2</ele>
        <time>2020-07-02T07:36:45Z</time>
      </trkpt>
      <trkpt lat="48.75187" lon="2.30461">
        <ele>52.3</ele>
        <time>2020-07-02T07:36:46Z</time>
      </trkpt>
      <trkpt lat="48.75184" lon="2.30462">
        <ele>52.3</ele>
        <time>2020-07-02T07:36:47Z</time>
      </trkpt>
      <trkpt lat="48.7518" lon="2.30462">
        <ele>52.4</ele>
        <time>2020-07-02T07:36:48Z</time>
      </trkpt>
      <trkpt lat="48.75176" lon="2.30461">
        <ele>52.4</ele>
        <time>2020-07-02T07:36:49Z</time>
      </trkpt>
      <trkpt lat="48.75172" lon="2.30461">
        <ele>52.5</ele>
        <time>2020-07-02T07:36:50Z</time>
      </trkpt>
      <trkpt lat="48.75169" lon="2.3046">
        <ele>52.5</ele>
        <time>2020-07-02T07:36:51Z</time>
      </trkpt>
      <trkpt lat="48.75167" lon="2.30459">
        <ele>52.6</ele>
        <time>2020-07-02T07:36:52Z</time>
      </trkpt>
      <trkpt lat="48.75164" lon="2.30457">
        <ele>52.6</ele>
        <time>2020-07-02T07:36:53Z</time>
      </trkpt>
      <trkpt lat="48.75163" lon="2.30457">
        <ele>52.6</ele>
        <time>2020-07-02T07:36:54Z</time>
      </trkpt>
      <trkpt lat="48.75162" lon="2.30456">
        <ele>52.6</ele>
        <time>2020-07-02T07:36:55Z</time>
      </trkpt>
      <trkpt lat="48.75161" lon="2.30455">
        <ele>52.6</ele>
        <time>2020-07-02T07:36:56Z</time>
      </trkpt>
      <trkpt lat="48.75157" lon="2.30455">
        <ele>52.7</ele>
        <time>2020-07-02T07:36:57Z</time>
      </trkpt>
      <trkpt lat="48.75156" lon="2.30455">
        <ele>52.7</ele>
        <time>2020-07-02T07:36:58Z</time>
      </trkpt>
      <trkpt lat="48.75152" lon="2.30457">
        <ele>52.7</ele>
        <time>2020-07-02T07:36:59Z</time>
      </trkpt>
      <trkpt lat="48.75148" lon="2.30458">
        <ele>52.7</ele>
        <time>2020-07-02T07:37:00Z</time>
      </trkpt>
      <trkpt lat="48.75144" lon="2.30458">
        <ele>52.7</ele>
        <time>2020-07-02T07:37:01Z</time>
      </trkpt>
      <trkpt lat="48.7514" lon="2.30456">
        <ele>52.7</ele>
        <time>2020-07-02T07:37:02Z</time>
      </trkpt>
      <trkpt lat="48.75137" lon="2.30456">
        <ele>52.7</ele>
        <time>2020-07-02T07:37:03Z</time>
      </trkpt>
      <trkpt lat="48.75132" lon="2.30454">
        <ele>52.6</ele>
        <time>2020-07-02T07:37:04Z</time>
      </trkpt>
      <trkpt lat="48.75128" lon="2.30453">
        <ele>52.6</ele>
        <time>2020-07-02T07:37:05Z</time>
      </trkpt>
      <trkpt lat="48.75126" lon="2.30452">
        <ele>52.5</ele>
        <time>2020-07-02T07:37:06Z</time>
      </trkpt>
      <trkpt lat="48.75122" lon="2.30452">
        <ele>52.5</ele>
        <time>2020-07-02T07:37:07Z</time>
      </trkpt>
      <trkpt lat="48.75118" lon="2.30451">
        <ele>52.5</ele>
        <time>2020-07-02T07:37:08Z</time>
      </trkpt>
      <trkpt lat="48.75114" lon="2.30449">
        <ele>52.4</ele>
        <time>2020-07-02T07:37:09Z</time>
      </trkpt>
      <trkpt lat="48.75108" lon="2.30448">
        <ele>52.4</ele>
        <time>2020-07-02T07:37:10Z</time>
      </trkpt>
      <trkpt lat="48.75104" lon="2.30447">
        <ele>52.4</ele>
        <time>2020-07-02T07:37:11Z</time>
      </trkpt>
      <trkpt lat="48.75099" lon="2.30447">
        <ele>52.3</ele>
        <time>2020-07-02T07:37:12Z</time>
      </trkpt>
      <trkpt lat="48.75094" lon="2.30446">
        <ele>52.3</ele>
        <time>2020-07-02T07:37:13Z</time>
      </trkpt>
      <trkpt lat="48.75089" lon="2.30447">
        <ele>52.3</ele>
        <time>2020-07-02T07:37:14Z</time>
      </trkpt>
      <trkpt lat="48.75085" lon="2.30447">
        <ele>52.3</ele>
        <time>2020-07-02T07:37:15Z</time>
      </trkpt>
      <trkpt lat="48.7508" lon="2.30447">
        <ele>52.3</ele>
        <time>2020-07-02T07:37:16Z</time>
      </trkpt>
      <trkpt lat="48.75076" lon="2.30446">
        <ele>52.3</ele>
        <time>2020-07-02T07:37:17Z</time>
      </trkpt>
      <trkpt lat="48.75071" lon="2.30446">
        <ele>52.3</ele>
        <time>2020-07-02T07:37:18Z</time>
      </trkpt>
      <trkpt lat="48.75067" lon="2.30447">
        <ele>52.3</ele>
        <time>2020-07-02T07:37:19Z</time>
      </trkpt>
      <trkpt lat="48.75062" lon="2.30446">
        <ele>52.3</ele>
        <time>2020-07-02T07:37:20Z</time>
      </trkpt>
      <trkpt lat="48.75058" lon="2.30444">
        <ele>52.3</ele>
        <time>2020-07-02T07:37:21Z</time>
      </trkpt>
      <trkpt lat="48.75054" lon="2.30443">
        <ele>52.3</ele>
        <time>2020-07-02T07:37:22Z</time>
      </trkpt>
      <trkpt lat="48.75053" lon="2.30442">
        <ele>52.3</ele>
        <time>2020-07-02T07:37:23Z</time>
      </trkpt>
      <trkpt lat="48.75051" lon="2.30443">
        <ele>52.3</ele>
        <time>2020-07-02T07:37:24Z</time>
      </trkpt>
      <trkpt lat="48.7505" lon="2.30443">
        <ele>52.3</ele>
        <time>2020-07-02T07:37:25Z</time>
      </trkpt>
      <trkpt lat="48.75048" lon="2.30443">
        <ele>52.3</ele>
        <time>2020-07-02T07:37:26Z</time>
      </trkpt>
      <trkpt lat="48.75045" lon="2.30445">
        <ele>52.3</ele>
        <time>2020-07-02T07:37:27Z</time>
      </trkpt>
      <trkpt lat="48.75043" lon="2.30444">
        <ele>52.3</ele>
        <time>2020-07-02T07:37:28Z</time>
      </trkpt>
      <trkpt lat="48.75039" lon="2.30445">
        <ele>52.3</ele>
        <time>2020-07-02T07:37:29Z</time>
      </trkpt>
      <trkpt lat="48.75037" lon="2.30444">
        <ele>52.3</ele>
        <time>2020-07-02T07:37:30Z</time>
      </trkpt>
      <trkpt lat="48.75034" lon="2.30445">
        <ele>52.3</ele>
        <time>2020-07-02T07:37:31Z</time>
      </trkpt>
      <trkpt lat="48.7503" lon="2.30445">
        <ele>52.3</ele>
        <time>2020-07-02T07:37:32Z</time>
      </trkpt>
      <trkpt lat="48.75027" lon="2.30444">
        <ele>52.3</ele>
        <time>2020-07-02T07:37:33Z</time>
      </trkpt>
      <trkpt lat="48.75023" lon="2.30443">
        <ele>52.3</ele>
        <time>2020-07-02T07:37:34Z</time>
      </trkpt>
      <trkpt lat="48.75018" lon="2.30441">
        <ele>52.3</ele>
        <time>2020-07-02T07:37:35Z</time>
      </trkpt>
      <trkpt lat="48.75013" lon="2.30439">
        <ele>52.4</ele>
        <time>2020-07-02T07:37:36Z</time>
      </trkpt>
      <trkpt lat="48.75008" lon="2.30436">
        <ele>52.4</ele>
        <time>2020-07-02T07:37:37Z</time>
      </trkpt>
      <trkpt lat="48.75004" lon="2.30433">
        <ele>52.5</ele>
        <time>2020-07-02T07:37:38Z</time>
      </trkpt>
      <trkpt lat="48.75" lon="2.30432">
        <ele>52.5</ele>
        <time>2020-07-02T07:37:39Z</time>
      </trkpt>
      <trkpt lat="48.74995" lon="2.30431">
        <ele>52.5</ele>
        <time>2020-07-02T07:37:40Z</time>
      </trkpt>
      <trkpt lat="48.74989" lon="2.3043">
        <ele>52.5</ele>
        <time>2020-07-02T07:37:41Z</time>
      </trkpt>
      <trkpt lat="48.74984" lon="2.30426">
        <ele>52.6</ele>
        <time>2020-07-02T07:37:42Z</time>
      </trkpt>
      <trkpt lat="48.74978" lon="2.30424">
        <ele>52.6</ele>
        <time>2020-07-02T07:37:43Z</time>
      </trkpt>
      <trkpt lat="48.74974" lon="2.30421">
        <ele>52.6</ele>
        <time>2020-07-02T07:37:44Z</time>
      </trkpt>
      <trkpt lat="48.74968" lon="2.3042">
        <ele>52.9</ele>
        <time>2020-07-02T07:37:45Z</time>
      </trkpt>
      <trkpt lat="48.74962" lon="2.30419">
        <ele>52.9</ele>
        <time>2020-07-02T07:37:46Z</time>
      </trkpt>
      <trkpt lat="48.74957" lon="2.30419">
        <ele>52.9</ele>
        <time>2020-07-02T07:37:47Z</time>
      </trkpt>
      <trkpt lat="48.74952" lon="2.30419">
        <ele>52.9</ele>
        <time>2020-07-02T07:37:48Z</time>
      </trkpt>
      <trkpt lat="48.74948" lon="2.30418">
        <ele>52.9</ele>
        <time>2020-07-02T07:37:49Z</time>
      </trkpt>
      <trkpt lat="48.74945" lon="2.30419">
        <ele>52.9</ele>
        <time>2020-07-02T07:37:50Z</time>
      </trkpt>
      <trkpt lat="48.74942" lon="2.3042">
        <ele>52.9</ele>
        <time>2020-07-02T07:37:51Z</time>
      </trkpt>
      <trkpt lat="48.74939" lon="2.3042">
        <ele>53</ele>
        <time>2020-07-02T07:37:52Z</time>
      </trkpt>
      <trkpt lat="48.74935" lon="2.3042">
        <ele>53</ele>
        <time>2020-07-02T07:37:53Z</time>
      </trkpt>
      <trkpt lat="48.74931" lon="2.3042">
        <ele>53</ele>
        <time>2020-07-02T07:37:54Z</time>
      </trkpt>
      <trkpt lat="48.74928" lon="2.30418">
        <ele>53.1</ele>
        <time>2020-07-02T07:37:55Z</time>
      </trkpt>
      <trkpt lat="48.74924" lon="2.30417">
        <ele>53.1</ele>
        <time>2020-07-02T07:37:56Z</time>
      </trkpt>
      <trkpt lat="48.74919" lon="2.30415">
        <ele>53.2</ele>
        <time>2020-07-02T07:37:57Z</time>
      </trkpt>
      <trkpt lat="48.74914" lon="2.30414">
        <ele>53.2</ele>
        <time>2020-07-02T07:37:58Z</time>
      </trkpt>
      <trkpt lat="48.74909" lon="2.30413">
        <ele>53.3</ele>
        <time>2020-07-02T07:37:59Z</time>
      </trkpt>
      <trkpt lat="48.74906" lon="2.30412">
        <ele>53.4</ele>
        <time>2020-07-02T07:38:00Z</time>
      </trkpt>
      <trkpt lat="48.74901" lon="2.3041">
        <ele>53.4</ele>
        <time>2020-07-02T07:38:01Z</time>
      </trkpt>
      <trkpt lat="48.74897" lon="2.30408">
        <ele>53.5</ele>
        <time>2020-07-02T07:38:02Z</time>
      </trkpt>
      <trkpt lat="48.74892" lon="2.30407">
        <ele>53.5</ele>
        <time>2020-07-02T07:38:03Z</time>
      </trkpt>
      <trkpt lat="48.74888" lon="2.30406">
        <ele>53.5</ele>
        <time>2020-07-02T07:38:04Z</time>
      </trkpt>
      <trkpt lat="48.74884" lon="2.30404">
        <ele>53.5</ele>
        <time>2020-07-02T07:38:05Z</time>
      </trkpt>
      <trkpt lat="48.7488" lon="2.30401">
        <ele>53.5</ele>
        <time>2020-07-02T07:38:06Z</time>
      </trkpt>
      <trkpt lat="48.74875" lon="2.304">
        <ele>53.5</ele>
        <time>2020-07-02T07:38:07Z</time>
      </trkpt>
      <trkpt lat="48.74872" lon="2.30396">
        <ele>53.5</ele>
        <time>2020-07-02T07:38:08Z</time>
      </trkpt>
      <trkpt lat="48.74867" lon="2.30394">
        <ele>53.5</ele>
        <time>2020-07-02T07:38:09Z</time>
      </trkpt>
      <trkpt lat="48.74863" lon="2.30392">
        <ele>53.5</ele>
        <time>2020-07-02T07:38:10Z</time>
      </trkpt>
      <trkpt lat="48.74859" lon="2.30391">
        <ele>53.5</ele>
        <time>2020-07-02T07:38:11Z</time>
      </trkpt>
      <trkpt lat="48.74856" lon="2.3039">
        <ele>53.5</ele>
        <time>2020-07-02T07:38:12Z</time>
      </trkpt>
      <trkpt lat="48.74851" lon="2.3039">
        <ele>53.6</ele>
        <time>2020-07-02T07:38:13Z</time>
      </trkpt>
      <trkpt lat="48.74847" lon="2.30392">
        <ele>53.6</ele>
        <time>2020-07-02T07:38:14Z</time>
      </trkpt>
      <trkpt lat="48.74843" lon="2.30392">
        <ele>53.6</ele>
        <time>2020-07-02T07:38:15Z</time>
      </trkpt>
      <trkpt lat="48.74838" lon="2.30392">
        <ele>53.6</ele>
        <time>2020-07-02T07:38:16Z</time>
      </trkpt>
      <trkpt lat="48.74834" lon="2.30391">
        <ele>53.6</ele>
        <time>2020-07-02T07:38:17Z</time>
      </trkpt>
      <trkpt lat="48.74829" lon="2.30391">
        <ele>53.6</ele>
        <time>2020-07-02T07:38:18Z</time>
      </trkpt>
      <trkpt lat="48.74824" lon="2.3039">
        <ele>53.7</ele>
        <time>2020-07-02T07:38:19Z</time>
      </trkpt>
      <trkpt lat="48.7482" lon="2.3039">
        <ele>53.7</ele>
        <time>2020-07-02T07:38:20Z</time>
      </trkpt>
      <trkpt lat="48.74816" lon="2.30389">
        <ele>53.7</ele>
        <time>2020-07-02T07:38:21Z</time>
      </trkpt>
      <trkpt lat="48.74811" lon="2.30388">
        <ele>53.8</ele>
        <time>2020-07-02T07:38:22Z</time>
      </trkpt>
      <trkpt lat="48.74805" lon="2.30387">
        <ele>53.9</ele>
        <time>2020-07-02T07:38:23Z</time>
      </trkpt>
      <trkpt lat="48.74801" lon="2.30385">
        <ele>53.9</ele>
        <time>2020-07-02T07:38:24Z</time>
      </trkpt>
      <trkpt lat="48.74795" lon="2.30383">
        <ele>54</ele>
        <time>2020-07-02T07:38:25Z</time>
      </trkpt>
      <trkpt lat="48.7479" lon="2.30381">
        <ele>54.1</ele>
        <time>2020-07-02T07:38:26Z</time>
      </trkpt>
      <trkpt lat="48.74786" lon="2.30381">
        <ele>54.1</ele>
        <time>2020-07-02T07:38:27Z</time>
      </trkpt>
      <trkpt lat="48.74782" lon="2.3038">
        <ele>54.2</ele>
        <time>2020-07-02T07:38:28Z</time>
      </trkpt>
      <trkpt lat="48.74777" lon="2.3038">
        <ele>54.3</ele>
        <time>2020-07-02T07:38:29Z</time>
      </trkpt>
      <trkpt lat="48.74772" lon="2.30378">
        <ele>54.3</ele>
        <time>2020-07-02T07:38:30Z</time>
      </trkpt>
      <trkpt lat="48.74767" lon="2.30376">
        <ele>54.4</ele>
        <time>2020-07-02T07:38:31Z</time>
      </trkpt>
      <trkpt lat="48.74762" lon="2.30373">
        <ele>54.5</ele>
        <time>2020-07-02T07:38:32Z</time>
      </trkpt>
      <trkpt lat="48.74758" lon="2.30374">
        <ele>54.5</ele>
        <time>2020-07-02T07:38:33Z</time>
      </trkpt>
      <trkpt lat="48.74753" lon="2.30373">
        <ele>54.6</ele>
        <time>2020-07-02T07:38:34Z</time>
      </trkpt>
      <trkpt lat="48.74749" lon="2.30372">
        <ele>54.6</ele>
        <time>2020-07-02T07:38:35Z</time>
      </trkpt>
      <trkpt lat="48.74744" lon="2.30371">
        <ele>54.6</ele>
        <time>2020-07-02T07:38:36Z</time>
      </trkpt>
      <trkpt lat="48.74739" lon="2.3037">
        <ele>54.7</ele>
        <time>2020-07-02T07:38:37Z</time>
      </trkpt>
      <trkpt lat="48.74735" lon="2.3037">
        <ele>54.8</ele>
        <time>2020-07-02T07:38:38Z</time>
      </trkpt>
      <trkpt lat="48.7473" lon="2.3037">
        <ele>54.9</ele>
        <time>2020-07-02T07:38:39Z</time>
      </trkpt>
      <trkpt lat="48.74725" lon="2.30367">
        <ele>55</ele>
        <time>2020-07-02T07:38:40Z</time>
      </trkpt>
      <trkpt lat="48.7472" lon="2.30368">
        <ele>55</ele>
        <time>2020-07-02T07:38:41Z</time>
      </trkpt>
      <trkpt lat="48.74714" lon="2.30367">
        <ele>55.1</ele>
        <time>2020-07-02T07:38:42Z</time>
      </trkpt>
      <trkpt lat="48.74709" lon="2.30364">
        <ele>55.3</ele>
        <time>2020-07-02T07:38:43Z</time>
      </trkpt>
      <trkpt lat="48.74704" lon="2.30362">
        <ele>55.4</ele>
        <time>2020-07-02T07:38:44Z</time>
      </trkpt>
      <trkpt lat="48.74699" lon="2.30361">
        <ele>55.5</ele>
        <time>2020-07-02T07:38:45Z</time>
      </trkpt>
      <trkpt lat="48.74695" lon="2.30356">
        <ele>55.6</ele>
        <time>2020-07-02T07:38:46Z</time>
      </trkpt>
      <trkpt lat="48.74691" lon="2.30357">
        <ele>55.6</ele>
        <time>2020-07-02T07:38:47Z</time>
      </trkpt>
      <trkpt lat="48.74687" lon="2.30357">
        <ele>55.7</ele>
        <time>2020-07-02T07:38:48Z</time>
      </trkpt>
      <trkpt lat="48.74683" lon="2.30357">
        <ele>55.8</ele>
        <time>2020-07-02T07:38:49Z</time>
      </trkpt>
      <trkpt lat="48.7468" lon="2.30357">
        <ele>55.9</ele>
        <time>2020-07-02T07:38:50Z</time>
      </trkpt>
      <trkpt lat="48.74676" lon="2.30357">
        <ele>55.9</ele>
        <time>2020-07-02T07:38:51Z</time>
      </trkpt>
      <trkpt lat="48.74672" lon="2.30357">
        <ele>56</ele>
        <time>2020-07-02T07:38:52Z</time>
      </trkpt>
      <trkpt lat="48.74668" lon="2.30357">
        <ele>56.1</ele>
        <time>2020-07-02T07:38:53Z</time>
      </trkpt>
      <trkpt lat="48.74663" lon="2.30357">
        <ele>56.2</ele>
        <time>2020-07-02T07:38:54Z</time>
      </trkpt>
      <trkpt lat="48.74659" lon="2.30355">
        <ele>56.3</ele>
        <time>2020-07-02T07:38:55Z</time>
      </trkpt>
      <trkpt lat="48.74653" lon="2.30353">
        <ele>56.4</ele>
        <time>2020-07-02T07:38:56Z</time>
      </trkpt>
      <trkpt lat="48.74649" lon="2.30351">
        <ele>56.5</ele>
        <time>2020-07-02T07:38:57Z</time>
      </trkpt>
      <trkpt lat="48.74644" lon="2.30351">
        <ele>56.6</ele>
        <time>2020-07-02T07:38:58Z</time>
      </trkpt>
      <trkpt lat="48.7464" lon="2.3035">
        <ele>56.8</ele>
        <time>2020-07-02T07:38:59Z</time>
      </trkpt>
      <trkpt lat="48.74637" lon="2.3035">
        <ele>56.8</ele>
        <time>2020-07-02T07:39:00Z</time>
      </trkpt>
      <trkpt lat="48.74634" lon="2.3035">
        <ele>56.9</ele>
        <time>2020-07-02T07:39:01Z</time>
      </trkpt>
      <trkpt lat="48.74629" lon="2.30348">
        <ele>57</ele>
        <time>2020-07-02T07:39:02Z</time>
      </trkpt>
      <trkpt lat="48.74626" lon="2.30348">
        <ele>57.1</ele>
        <time>2020-07-02T07:39:03Z</time>
      </trkpt>
      <trkpt lat="48.74623" lon="2.30348">
        <ele>57.2</ele>
        <time>2020-07-02T07:39:04Z</time>
      </trkpt>
      <trkpt lat="48.74619" lon="2.30348">
        <ele>57.3</ele>
        <time>2020-07-02T07:39:05Z</time>
      </trkpt>
      <trkpt lat="48.74616" lon="2.30347">
        <ele>57.4</ele>
        <time>2020-07-02T07:39:06Z</time>
      </trkpt>
      <trkpt lat="48.74613" lon="2.30347">
        <ele>57.5</ele>
        <time>2020-07-02T07:39:07Z</time>
      </trkpt>
      <trkpt lat="48.74608" lon="2.30347">
        <ele>57.6</ele>
        <time>2020-07-02T07:39:08Z</time>
      </trkpt>
      <trkpt lat="48.74604" lon="2.30347">
        <ele>57.7</ele>
        <time>2020-07-02T07:39:09Z</time>
      </trkpt>
      <trkpt lat="48.74599" lon="2.30346">
        <ele>57.8</ele>
        <time>2020-07-02T07:39:10Z</time>
      </trkpt>
      <trkpt lat="48.74594" lon="2.30347">
        <ele>57.9</ele>
        <time>2020-07-02T07:39:11Z</time>
      </trkpt>
      <trkpt lat="48.7459" lon="2.30347">
        <ele>57.9</ele>
        <time>2020-07-02T07:39:12Z</time>
      </trkpt>
      <trkpt lat="48.74586" lon="2.30347">
        <ele>58</ele>
        <time>2020-07-02T07:39:13Z</time>
      </trkpt>
      <trkpt lat="48.74582" lon="2.30347">
        <ele>58.1</ele>
        <time>2020-07-02T07:39:14Z</time>
      </trkpt>
      <trkpt lat="48.74579" lon="2.30346">
        <ele>58.2</ele>
        <time>2020-07-02T07:39:15Z</time>
      </trkpt>
      <trkpt lat="48.74574" lon="2.30345">
        <ele>58.3</ele>
        <time>2020-07-02T07:39:16Z</time>
      </trkpt>
      <trkpt lat="48.74569" lon="2.30344">
        <ele>58.4</ele>
        <time>2020-07-02T07:39:17Z</time>
      </trkpt>
      <trkpt lat="48.74563" lon="2.30343">
        <ele>58.6</ele>
        <time>2020-07-02T07:39:18Z</time>
      </trkpt>
      <trkpt lat="48.74558" lon="2.3034">
        <ele>58.7</ele>
        <time>2020-07-02T07:39:19Z</time>
      </trkpt>
      <trkpt lat="48.74553" lon="2.30339">
        <ele>58.8</ele>
        <time>2020-07-02T07:39:20Z</time>
      </trkpt>
      <trkpt lat="48.74549" lon="2.30338">
        <ele>58.9</ele>
        <time>2020-07-02T07:39:21Z</time>
      </trkpt>
      <trkpt lat="48.74544" lon="2.30336">
        <ele>59.1</ele>
        <time>2020-07-02T07:39:22Z</time>
      </trkpt>
      <trkpt lat="48.7454" lon="2.30334">
        <ele>59.2</ele>
        <time>2020-07-02T07:39:23Z</time>
      </trkpt>
      <trkpt lat="48.74535" lon="2.30333">
        <ele>59.4</ele>
        <time>2020-07-02T07:39:24Z</time>
      </trkpt>
      <trkpt lat="48.7453" lon="2.30332">
        <ele>59.5</ele>
        <time>2020-07-02T07:39:25Z</time>
      </trkpt>
      <trkpt lat="48.74526" lon="2.30331">
        <ele>59.7</ele>
        <time>2020-07-02T07:39:26Z</time>
      </trkpt>
      <trkpt lat="48.74522" lon="2.30331">
        <ele>59.8</ele>
        <time>2020-07-02T07:39:27Z</time>
      </trkpt>
      <trkpt lat="48.7452" lon="2.30331">
        <ele>59.9</ele>
        <time>2020-07-02T07:39:28Z</time>
      </trkpt>
      <trkpt lat="48.74516" lon="2.30328">
        <ele>60</ele>
        <time>2020-07-02T07:39:29Z</time>
      </trkpt>
      <trkpt lat="48.74512" lon="2.30329">
        <ele>60.1</ele>
        <time>2020-07-02T07:39:30Z</time>
      </trkpt>
      <trkpt lat="48.74508" lon="2.30329">
        <ele>60.3</ele>
        <time>2020-07-02T07:39:31Z</time>
      </trkpt>
      <trkpt lat="48.74503" lon="2.30329">
        <ele>60.4</ele>
        <time>2020-07-02T07:39:32Z</time>
      </trkpt>
      <trkpt lat="48.745" lon="2.30328">
        <ele>60.5</ele>
        <time>2020-07-02T07:39:33Z</time>
      </trkpt>
      <trkpt lat="48.74496" lon="2.30328">
        <ele>60.7</ele>
        <time>2020-07-02T07:39:34Z</time>
      </trkpt>
      <trkpt lat="48.74492" lon="2.30327">
        <ele>60.8</ele>
        <time>2020-07-02T07:39:35Z</time>
      </trkpt>
      <trkpt lat="48.74487" lon="2.30327">
        <ele>61</ele>
        <time>2020-07-02T07:39:36Z</time>
      </trkpt>
      <trkpt lat="48.74483" lon="2.30327">
        <ele>61.1</ele>
        <time>2020-07-02T07:39:37Z</time>
      </trkpt>
      <trkpt lat="48.74479" lon="2.30326">
        <ele>61.3</ele>
        <time>2020-07-02T07:39:38Z</time>
      </trkpt>
      <trkpt lat="48.74475" lon="2.30326">
        <ele>61.4</ele>
        <time>2020-07-02T07:39:39Z</time>
      </trkpt>
      <trkpt lat="48.74472" lon="2.30326">
        <ele>61.5</ele>
        <time>2020-07-02T07:39:40Z</time>
      </trkpt>
      <trkpt lat="48.74469" lon="2.30325">
        <ele>61.6</ele>
        <time>2020-07-02T07:39:41Z</time>
      </trkpt>
      <trkpt lat="48.74466" lon="2.30322">
        <ele>61.7</ele>
        <time>2020-07-02T07:39:42Z</time>
      </trkpt>
      <trkpt lat="48.74462" lon="2.30321">
        <ele>61.8</ele>
        <time>2020-07-02T07:39:43Z</time>
      </trkpt>
      <trkpt lat="48.74459" lon="2.3032">
        <ele>62</ele>
        <time>2020-07-02T07:39:44Z</time>
      </trkpt>
      <trkpt lat="48.74456" lon="2.30319">
        <ele>62.1</ele>
        <time>2020-07-02T07:39:45Z</time>
      </trkpt>
      <trkpt lat="48.74453" lon="2.30317">
        <ele>62.2</ele>
        <time>2020-07-02T07:39:46Z</time>
      </trkpt>
      <trkpt lat="48.7445" lon="2.30316">
        <ele>62.3</ele>
        <time>2020-07-02T07:39:47Z</time>
      </trkpt>
      <trkpt lat="48.74447" lon="2.30316">
        <ele>62.5</ele>
        <time>2020-07-02T07:39:48Z</time>
      </trkpt>
      <trkpt lat="48.74445" lon="2.30315">
        <ele>62.5</ele>
        <time>2020-07-02T07:39:49Z</time>
      </trkpt>
      <trkpt lat="48.74441" lon="2.30316">
        <ele>62.7</ele>
        <time>2020-07-02T07:39:50Z</time>
      </trkpt>
      <trkpt lat="48.74437" lon="2.30315">
        <ele>62.8</ele>
        <time>2020-07-02T07:39:51Z</time>
      </trkpt>
      <trkpt lat="48.74433" lon="2.30314">
        <ele>62.9</ele>
        <time>2020-07-02T07:39:52Z</time>
      </trkpt>
      <trkpt lat="48.7443" lon="2.30312">
        <ele>63.2</ele>
        <time>2020-07-02T07:39:53Z</time>
      </trkpt>
      <trkpt lat="48.74427" lon="2.30308">
        <ele>63.3</ele>
        <time>2020-07-02T07:39:54Z</time>
      </trkpt>
      <trkpt lat="48.74424" lon="2.30305">
        <ele>63.4</ele>
        <time>2020-07-02T07:39:55Z</time>
      </trkpt>
      <trkpt lat="48.74421" lon="2.30304">
        <ele>63.5</ele>
        <time>2020-07-02T07:39:56Z</time>
      </trkpt>
      <trkpt lat="48.74417" lon="2.30303">
        <ele>63.6</ele>
        <time>2020-07-02T07:39:57Z</time>
      </trkpt>
      <trkpt lat="48.74414" lon="2.30302">
        <ele>63.7</ele>
        <time>2020-07-02T07:39:58Z</time>
      </trkpt>
      <trkpt lat="48.7441" lon="2.30301">
        <ele>63.9</ele>
        <time>2020-07-02T07:39:59Z</time>
      </trkpt>
      <trkpt lat="48.74406" lon="2.30301">
        <ele>64</ele>
        <time>2020-07-02T07:40:00Z</time>
      </trkpt>
      <trkpt lat="48.74402" lon="2.303">
        <ele>64.1</ele>
        <time>2020-07-02T07:40:01Z</time>
      </trkpt>
      <trkpt lat="48.744" lon="2.30299">
        <ele>64.2</ele>
        <time>2020-07-02T07:40:02Z</time>
      </trkpt>
      <trkpt lat="48.74396" lon="2.30298">
        <ele>64.3</ele>
        <time>2020-07-02T07:40:03Z</time>
      </trkpt>
      <trkpt lat="48.74393" lon="2.30297">
        <ele>64.4</ele>
        <time>2020-07-02T07:40:04Z</time>
      </trkpt>
      <trkpt lat="48.7439" lon="2.30295">
        <ele>64.7</ele>
        <time>2020-07-02T07:40:05Z</time>
      </trkpt>
      <trkpt lat="48.74387" lon="2.30293">
        <ele>64.8</ele>
        <time>2020-07-02T07:40:06Z</time>
      </trkpt>
      <trkpt lat="48.74383" lon="2.30293">
        <ele>64.9</ele>
        <time>2020-07-02T07:40:07Z</time>
      </trkpt>
      <trkpt lat="48.74379" lon="2.30293">
        <ele>65</ele>
        <time>2020-07-02T07:40:08Z</time>
      </trkpt>
      <trkpt lat="48.74376" lon="2.30292">
        <ele>65.1</ele>
        <time>2020-07-02T07:40:09Z</time>
      </trkpt>
      <trkpt lat="48.74372" lon="2.30292">
        <ele>65.2</ele>
        <time>2020-07-02T07:40:10Z</time>
      </trkpt>
      <trkpt lat="48.74371" lon="2.30292">
        <ele>65.2</ele>
        <time>2020-07-02T07:40:11Z</time>
      </trkpt>
      <trkpt lat="48.74368" lon="2.30292">
        <ele>65.3</ele>
        <time>2020-07-02T07:40:12Z</time>
      </trkpt>
      <trkpt lat="48.74364" lon="2.30291">
        <ele>65.4</ele>
        <time>2020-07-02T07:40:13Z</time>
      </trkpt>
      <trkpt lat="48.74361" lon="2.3029">
        <ele>65.5</ele>
        <time>2020-07-02T07:40:14Z</time>
      </trkpt>
      <trkpt lat="48.74359" lon="2.30289">
        <ele>65.6</ele>
        <time>2020-07-02T07:40:15Z</time>
      </trkpt>
      <trkpt lat="48.74356" lon="2.30288">
        <ele>65.7</ele>
        <time>2020-07-02T07:40:16Z</time>
      </trkpt>
      <trkpt lat="48.74353" lon="2.30287">
        <ele>65.8</ele>
        <time>2020-07-02T07:40:17Z</time>
      </trkpt>
      <trkpt lat="48.7435" lon="2.30287">
        <ele>66</ele>
        <time>2020-07-02T07:40:18Z</time>
      </trkpt>
      <trkpt lat="48.74346" lon="2.30287">
        <ele>66.1</ele>
        <time>2020-07-02T07:40:19Z</time>
      </trkpt>
      <trkpt lat="48.74345" lon="2.30287">
        <ele>66.2</ele>
        <time>2020-07-02T07:40:20Z</time>
      </trkpt>
      <trkpt lat="48.74342" lon="2.30289">
        <ele>66.3</ele>
        <time>2020-07-02T07:40:21Z</time>
      </trkpt>
      <trkpt lat="48.74341" lon="2.3029">
        <ele>66.3</ele>
        <time>2020-07-02T07:40:22Z</time>
      </trkpt>
      <trkpt lat="48.74337" lon="2.3029">
        <ele>66.5</ele>
        <time>2020-07-02T07:40:23Z</time>
      </trkpt>
      <trkpt lat="48.74335" lon="2.30291">
        <ele>66.5</ele>
        <time>2020-07-02T07:40:24Z</time>
      </trkpt>
      <trkpt lat="48.74331" lon="2.30292">
        <ele>66.7</ele>
        <time>2020-07-02T07:40:25Z</time>
      </trkpt>
      <trkpt lat="48.74327" lon="2.30291">
        <ele>66.8</ele>
        <time>2020-07-02T07:40:26Z</time>
      </trkpt>
      <trkpt lat="48.74323" lon="2.3029">
        <ele>67</ele>
        <time>2020-07-02T07:40:27Z</time>
      </trkpt>
      <trkpt lat="48.74319" lon="2.3029">
        <ele>67.1</ele>
        <time>2020-07-02T07:40:28Z</time>
      </trkpt>
      <trkpt lat="48.74315" lon="2.30289">
        <ele>67.2</ele>
        <time>2020-07-02T07:40:29Z</time>
      </trkpt>
      <trkpt lat="48.7431" lon="2.30288">
        <ele>67.4</ele>
        <time>2020-07-02T07:40:30Z</time>
      </trkpt>
      <trkpt lat="48.74306" lon="2.30287">
        <ele>67.5</ele>
        <time>2020-07-02T07:40:31Z</time>
      </trkpt>
      <trkpt lat="48.74302" lon="2.30286">
        <ele>67.6</ele>
        <time>2020-07-02T07:40:32Z</time>
      </trkpt>
      <trkpt lat="48.74298" lon="2.30284">
        <ele>67.7</ele>
        <time>2020-07-02T07:40:33Z</time>
      </trkpt>
      <trkpt lat="48.74294" lon="2.30284">
        <ele>67.9</ele>
        <time>2020-07-02T07:40:34Z</time>
      </trkpt>
      <trkpt lat="48.7429" lon="2.30283">
        <ele>68</ele>
        <time>2020-07-02T07:40:35Z</time>
      </trkpt>
      <trkpt lat="48.74285" lon="2.30285">
        <ele>68.1</ele>
        <time>2020-07-02T07:40:36Z</time>
      </trkpt>
      <trkpt lat="48.7428" lon="2.30285">
        <ele>68.2</ele>
        <time>2020-07-02T07:40:37Z</time>
      </trkpt>
      <trkpt lat="48.74276" lon="2.30285">
        <ele>68.3</ele>
        <time>2020-07-02T07:40:38Z</time>
      </trkpt>
      <trkpt lat="48.74272" lon="2.30285">
        <ele>68.3</ele>
        <time>2020-07-02T07:40:39Z</time>
      </trkpt>
      <trkpt lat="48.74269" lon="2.30284">
        <ele>68.4</ele>
        <time>2020-07-02T07:40:40Z</time>
      </trkpt>
      <trkpt lat="48.74265" lon="2.30284">
        <ele>68.5</ele>
        <time>2020-07-02T07:40:41Z</time>
      </trkpt>
      <trkpt lat="48.74261" lon="2.30283">
        <ele>68.7</ele>
        <time>2020-07-02T07:40:42Z</time>
      </trkpt>
      <trkpt lat="48.74257" lon="2.30281">
        <ele>68.9</ele>
        <time>2020-07-02T07:40:43Z</time>
      </trkpt>
      <trkpt lat="48.74253" lon="2.3028">
        <ele>69</ele>
        <time>2020-07-02T07:40:44Z</time>
      </trkpt>
      <trkpt lat="48.74249" lon="2.30279">
        <ele>69.2</ele>
        <time>2020-07-02T07:40:45Z</time>
      </trkpt>
      <trkpt lat="48.74244" lon="2.30278">
        <ele>69.4</ele>
        <time>2020-07-02T07:40:46Z</time>
      </trkpt>
      <trkpt lat="48.7424" lon="2.30278">
        <ele>69.6</ele>
        <time>2020-07-02T07:40:47Z</time>
      </trkpt>
      <trkpt lat="48.74236" lon="2.30276">
        <ele>69.7</ele>
        <time>2020-07-02T07:40:48Z</time>
      </trkpt>
      <trkpt lat="48.74233" lon="2.30275">
        <ele>69.9</ele>
        <time>2020-07-02T07:40:49Z</time>
      </trkpt>
      <trkpt lat="48.74228" lon="2.30273">
        <ele>70.1</ele>
        <time>2020-07-02T07:40:50Z</time>
      </trkpt>
      <trkpt lat="48.74224" lon="2.30273">
        <ele>70.3</ele>
        <time>2020-07-02T07:40:51Z</time>
      </trkpt>
      <trkpt lat="48.74219" lon="2.30272">
        <ele>70.4</ele>
        <time>2020-07-02T07:40:52Z</time>
      </trkpt>
      <trkpt lat="48.74214" lon="2.30271">
        <ele>70.6</ele>
        <time>2020-07-02T07:40:53Z</time>
      </trkpt>
      <trkpt lat="48.74209" lon="2.30271">
        <ele>70.8</ele>
        <time>2020-07-02T07:40:54Z</time>
      </trkpt>
      <trkpt lat="48.74205" lon="2.3027">
        <ele>71</ele>
        <time>2020-07-02T07:40:55Z</time>
      </trkpt>
      <trkpt lat="48.742" lon="2.30269">
        <ele>71</ele>
        <time>2020-07-02T07:40:56Z</time>
      </trkpt>
      <trkpt lat="48.74195" lon="2.30269">
        <ele>71.1</ele>
        <time>2020-07-02T07:40:57Z</time>
      </trkpt>
      <trkpt lat="48.7419" lon="2.30268">
        <ele>71.1</ele>
        <time>2020-07-02T07:40:58Z</time>
      </trkpt>
      <trkpt lat="48.74186" lon="2.30266">
        <ele>71.2</ele>
        <time>2020-07-02T07:40:59Z</time>
      </trkpt>
      <trkpt lat="48.74181" lon="2.30265">
        <ele>71.2</ele>
        <time>2020-07-02T07:41:00Z</time>
      </trkpt>
      <trkpt lat="48.74176" lon="2.30264">
        <ele>71.3</ele>
        <time>2020-07-02T07:41:01Z</time>
      </trkpt>
      <trkpt lat="48.74172" lon="2.30264">
        <ele>71.3</ele>
        <time>2020-07-02T07:41:02Z</time>
      </trkpt>
      <trkpt lat="48.74168" lon="2.30262">
        <ele>71.3</ele>
        <time>2020-07-02T07:41:03Z</time>
      </trkpt>
      <trkpt lat="48.74164" lon="2.3026">
        <ele>71.4</ele>
        <time>2020-07-02T07:41:04Z</time>
      </trkpt>
      <trkpt lat="48.7416" lon="2.30258">
        <ele>71.5</ele>
        <time>2020-07-02T07:41:05Z</time>
      </trkpt>
      <trkpt lat="48.74156" lon="2.30257">
        <ele>71.6</ele>
        <time>2020-07-02T07:41:06Z</time>
      </trkpt>
      <trkpt lat="48.74153" lon="2.30256">
        <ele>71.7</ele>
        <time>2020-07-02T07:41:07Z</time>
      </trkpt>
      <trkpt lat="48.74149" lon="2.30254">
        <ele>71.8</ele>
        <time>2020-07-02T07:41:08Z</time>
      </trkpt>
      <trkpt lat="48.74146" lon="2.30254">
        <ele>71.8</ele>
        <time>2020-07-02T07:41:09Z</time>
      </trkpt>
      <trkpt lat="48.74142" lon="2.30254">
        <ele>71.9</ele>
        <time>2020-07-02T07:41:10Z</time>
      </trkpt>
      <trkpt lat="48.74138" lon="2.30254">
        <ele>72.1</ele>
        <time>2020-07-02T07:41:11Z</time>
      </trkpt>
      <trkpt lat="48.74133" lon="2.30253">
        <ele>72.2</ele>
        <time>2020-07-02T07:41:12Z</time>
      </trkpt>
      <trkpt lat="48.74128" lon="2.30252">
        <ele>72.3</ele>
        <time>2020-07-02T07:41:13Z</time>
      </trkpt>
      <trkpt lat="48.74123" lon="2.30251">
        <ele>72.5</ele>
        <time>2020-07-02T07:41:14Z</time>
      </trkpt>
      <trkpt lat="48.74119" lon="2.30251">
        <ele>72.6</ele>
        <time>2020-07-02T07:41:15Z</time>
      </trkpt>
      <trkpt lat="48.74115" lon="2.30251">
        <ele>72.7</ele>
        <time>2020-07-02T07:41:16Z</time>
      </trkpt>
      <trkpt lat="48.74112" lon="2.3025">
        <ele>72.8</ele>
        <time>2020-07-02T07:41:17Z</time>
      </trkpt>
      <trkpt lat="48.74108" lon="2.30249">
        <ele>72.9</ele>
        <time>2020-07-02T07:41:18Z</time>
      </trkpt>
      <trkpt lat="48.74103" lon="2.30249">
        <ele>73</ele>
        <time>2020-07-02T07:41:19Z</time>
      </trkpt>
      <trkpt lat="48.74098" lon="2.30248">
        <ele>73.1</ele>
        <time>2020-07-02T07:41:20Z</time>
      </trkpt>
      <trkpt lat="48.74093" lon="2.30247">
        <ele>73.2</ele>
        <time>2020-07-02T07:41:21Z</time>
      </trkpt>
      <trkpt lat="48.74089" lon="2.30246">
        <ele>73.2</ele>
        <time>2020-07-02T07:41:22Z</time>
      </trkpt>
      <trkpt lat="48.74086" lon="2.30242">
        <ele>73.2</ele>
        <time>2020-07-02T07:41:23Z</time>
      </trkpt>
      <trkpt lat="48.74083" lon="2.3024">
        <ele>73.3</ele>
        <time>2020-07-02T07:41:24Z</time>
      </trkpt>
      <trkpt lat="48.74079" lon="2.30237">
        <ele>73.4</ele>
        <time>2020-07-02T07:41:25Z</time>
      </trkpt>
      <trkpt lat="48.74075" lon="2.30233">
        <ele>73.5</ele>
        <time>2020-07-02T07:41:26Z</time>
      </trkpt>
      <trkpt lat="48.74072" lon="2.30231">
        <ele>73.7</ele>
        <time>2020-07-02T07:41:27Z</time>
      </trkpt>
      <trkpt lat="48.74068" lon="2.30227">
        <ele>73.8</ele>
        <time>2020-07-02T07:41:28Z</time>
      </trkpt>
      <trkpt lat="48.74066" lon="2.30225">
        <ele>73.9</ele>
        <time>2020-07-02T07:41:29Z</time>
      </trkpt>
      <trkpt lat="48.74064" lon="2.30222">
        <ele>74.1</ele>
        <time>2020-07-02T07:41:30Z</time>
      </trkpt>
      <trkpt lat="48.74061" lon="2.30217">
        <ele>74.2</ele>
        <time>2020-07-02T07:41:31Z</time>
      </trkpt>
      <trkpt lat="48.74058" lon="2.30213">
        <ele>74.4</ele>
        <time>2020-07-02T07:41:32Z</time>
      </trkpt>
      <trkpt lat="48.74056" lon="2.3021">
        <ele>74.6</ele>
        <time>2020-07-02T07:41:33Z</time>
      </trkpt>
      <trkpt lat="48.74052" lon="2.30207">
        <ele>74.7</ele>
        <time>2020-07-02T07:41:34Z</time>
      </trkpt>
      <trkpt lat="48.74048" lon="2.30206">
        <ele>74.9</ele>
        <time>2020-07-02T07:41:35Z</time>
      </trkpt>
      <trkpt lat="48.74044" lon="2.30205">
        <ele>75</ele>
        <time>2020-07-02T07:41:36Z</time>
      </trkpt>
      <trkpt lat="48.74041" lon="2.30207">
        <ele>75.1</ele>
        <time>2020-07-02T07:41:37Z</time>
      </trkpt>
      <trkpt lat="48.74038" lon="2.3021">
        <ele>75.2</ele>
        <time>2020-07-02T07:41:38Z</time>
      </trkpt>
      <trkpt lat="48.74034" lon="2.30212">
        <ele>75.1</ele>
        <time>2020-07-02T07:41:39Z</time>
      </trkpt>
      <trkpt lat="48.74031" lon="2.30214">
        <ele>75</ele>
        <time>2020-07-02T07:41:40Z</time>
      </trkpt>
      <trkpt lat="48.74028" lon="2.30216">
        <ele>75</ele>
        <time>2020-07-02T07:41:41Z</time>
      </trkpt>
      <trkpt lat="48.74025" lon="2.30217">
        <ele>74.9</ele>
        <time>2020-07-02T07:41:42Z</time>
      </trkpt>
      <trkpt lat="48.74021" lon="2.30219">
        <ele>75</ele>
        <time>2020-07-02T07:41:43Z</time>
      </trkpt>
      <trkpt lat="48.74019" lon="2.30219">
        <ele>75</ele>
        <time>2020-07-02T07:41:44Z</time>
      </trkpt>
      <trkpt lat="48.74016" lon="2.30219">
        <ele>75</ele>
        <time>2020-07-02T07:41:45Z</time>
      </trkpt>
      <trkpt lat="48.74012" lon="2.30217">
        <ele>75</ele>
        <time>2020-07-02T07:41:46Z</time>
      </trkpt>
      <trkpt lat="48.74008" lon="2.30216">
        <ele>75</ele>
        <time>2020-07-02T07:41:47Z</time>
      </trkpt>
      <trkpt lat="48.74004" lon="2.30215">
        <ele>75</ele>
        <time>2020-07-02T07:41:48Z</time>
      </trkpt>
      <trkpt lat="48.74" lon="2.30215">
        <ele>75</ele>
        <time>2020-07-02T07:41:49Z</time>
      </trkpt>
      <trkpt lat="48.73995" lon="2.30216">
        <ele>75.1</ele>
        <time>2020-07-02T07:41:50Z</time>
      </trkpt>
      <trkpt lat="48.73991" lon="2.30216">
        <ele>75.1</ele>
        <time>2020-07-02T07:41:51Z</time>
      </trkpt>
      <trkpt lat="48.73986" lon="2.30216">
        <ele>75.1</ele>
        <time>2020-07-02T07:41:52Z</time>
      </trkpt>
      <trkpt lat="48.73982" lon="2.30215">
        <ele>75.2</ele>
        <time>2020-07-02T07:41:53Z</time>
      </trkpt>
      <trkpt lat="48.73978" lon="2.30214">
        <ele>75.2</ele>
        <time>2020-07-02T07:41:54Z</time>
      </trkpt>
      <trkpt lat="48.73973" lon="2.30214">
        <ele>75.3</ele>
        <time>2020-07-02T07:41:55Z</time>
      </trkpt>
      <trkpt lat="48.73969" lon="2.30214">
        <ele>75.4</ele>
        <time>2020-07-02T07:41:56Z</time>
      </trkpt>
      <trkpt lat="48.73965" lon="2.30213">
        <ele>75.4</ele>
        <time>2020-07-02T07:41:57Z</time>
      </trkpt>
      <trkpt lat="48.7396" lon="2.30212">
        <ele>75.5</ele>
        <time>2020-07-02T07:41:58Z</time>
      </trkpt>
      <trkpt lat="48.73956" lon="2.3021">
        <ele>75.6</ele>
        <time>2020-07-02T07:41:59Z</time>
      </trkpt>
      <trkpt lat="48.73953" lon="2.3021">
        <ele>75.6</ele>
        <time>2020-07-02T07:42:00Z</time>
      </trkpt>
      <trkpt lat="48.73949" lon="2.30209">
        <ele>75.7</ele>
        <time>2020-07-02T07:42:01Z</time>
      </trkpt>
      <trkpt lat="48.73945" lon="2.30207">
        <ele>75.8</ele>
        <time>2020-07-02T07:42:02Z</time>
      </trkpt>
      <trkpt lat="48.73942" lon="2.30205">
        <ele>75.9</ele>
        <time>2020-07-02T07:42:03Z</time>
      </trkpt>
      <trkpt lat="48.73939" lon="2.30204">
        <ele>75.9</ele>
        <time>2020-07-02T07:42:04Z</time>
      </trkpt>
      <trkpt lat="48.73935" lon="2.30203">
        <ele>76</ele>
        <time>2020-07-02T07:42:05Z</time>
      </trkpt>
      <trkpt lat="48.73931" lon="2.30202">
        <ele>76</ele>
        <time>2020-07-02T07:42:06Z</time>
      </trkpt>
      <trkpt lat="48.73928" lon="2.30203">
        <ele>76.1</ele>
        <time>2020-07-02T07:42:07Z</time>
      </trkpt>
      <trkpt lat="48.73923" lon="2.30203">
        <ele>76.2</ele>
        <time>2020-07-02T07:42:08Z</time>
      </trkpt>
      <trkpt lat="48.73918" lon="2.30202">
        <ele>76.3</ele>
        <time>2020-07-02T07:42:09Z</time>
      </trkpt>
      <trkpt lat="48.73914" lon="2.30201">
        <ele>76.3</ele>
        <time>2020-07-02T07:42:10Z</time>
      </trkpt>
      <trkpt lat="48.7391" lon="2.30201">
        <ele>76.4</ele>
        <time>2020-07-02T07:42:11Z</time>
      </trkpt>
      <trkpt lat="48.73906" lon="2.30199">
        <ele>76.5</ele>
        <time>2020-07-02T07:42:12Z</time>
      </trkpt>
      <trkpt lat="48.73901" lon="2.30198">
        <ele>76.6</ele>
        <time>2020-07-02T07:42:13Z</time>
      </trkpt>
      <trkpt lat="48.73896" lon="2.30197">
        <ele>76.7</ele>
        <time>2020-07-02T07:42:14Z</time>
      </trkpt>
      <trkpt lat="48.73891" lon="2.30196">
        <ele>76.8</ele>
        <time>2020-07-02T07:42:15Z</time>
      </trkpt>
      <trkpt lat="48.73887" lon="2.30195">
        <ele>76.8</ele>
        <time>2020-07-02T07:42:16Z</time>
      </trkpt>
      <trkpt lat="48.73883" lon="2.30192">
        <ele>76.9</ele>
        <time>2020-07-02T07:42:17Z</time>
      </trkpt>
      <trkpt lat="48.73879" lon="2.30192">
        <ele>77</ele>
        <time>2020-07-02T07:42:18Z</time>
      </trkpt>
      <trkpt lat="48.73875" lon="2.30191">
        <ele>77.1</ele>
        <time>2020-07-02T07:42:19Z</time>
      </trkpt>
      <trkpt lat="48.73871" lon="2.3019">
        <ele>77.2</ele>
        <time>2020-07-02T07:42:20Z</time>
      </trkpt>
      <trkpt lat="48.73866" lon="2.30189">
        <ele>77.3</ele>
        <time>2020-07-02T07:42:21Z</time>
      </trkpt>
      <trkpt lat="48.73861" lon="2.30187">
        <ele>77.4</ele>
        <time>2020-07-02T07:42:22Z</time>
      </trkpt>
      <trkpt lat="48.73856" lon="2.30185">
        <ele>77.5</ele>
        <time>2020-07-02T07:42:23Z</time>
      </trkpt>
      <trkpt lat="48.73851" lon="2.30184">
        <ele>77.6</ele>
        <time>2020-07-02T07:42:24Z</time>
      </trkpt>
      <trkpt lat="48.73847" lon="2.30184">
        <ele>77.7</ele>
        <time>2020-07-02T07:42:25Z</time>
      </trkpt>
      <trkpt lat="48.73842" lon="2.30183">
        <ele>77.8</ele>
        <time>2020-07-02T07:42:26Z</time>
      </trkpt>
      <trkpt lat="48.73839" lon="2.30182">
        <ele>77.9</ele>
        <time>2020-07-02T07:42:27Z</time>
      </trkpt>
      <trkpt lat="48.73835" lon="2.30181">
        <ele>78</ele>
        <time>2020-07-02T07:42:28Z</time>
      </trkpt>
      <trkpt lat="48.73831" lon="2.3018">
        <ele>78.1</ele>
        <time>2020-07-02T07:42:29Z</time>
      </trkpt>
      <trkpt lat="48.7383" lon="2.3018">
        <ele>78.1</ele>
        <time>2020-07-02T07:42:30Z</time>
      </trkpt>
      <trkpt lat="48.73826" lon="2.30179">
        <ele>78.2</ele>
        <time>2020-07-02T07:42:31Z</time>
      </trkpt>
      <trkpt lat="48.73824" lon="2.30179">
        <ele>78.2</ele>
        <time>2020-07-02T07:42:32Z</time>
      </trkpt>
      <trkpt lat="48.73819" lon="2.30178">
        <ele>78.3</ele>
        <time>2020-07-02T07:42:33Z</time>
      </trkpt>
      <trkpt lat="48.73814" lon="2.30178">
        <ele>78.4</ele>
        <time>2020-07-02T07:42:34Z</time>
      </trkpt>
      <trkpt lat="48.73809" lon="2.30177">
        <ele>78.5</ele>
        <time>2020-07-02T07:42:35Z</time>
      </trkpt>
      <trkpt lat="48.73804" lon="2.30177">
        <ele>78.6</ele>
        <time>2020-07-02T07:42:36Z</time>
      </trkpt>
      <trkpt lat="48.738" lon="2.30177">
        <ele>78.7</ele>
        <time>2020-07-02T07:42:37Z</time>
      </trkpt>
      <trkpt lat="48.73795" lon="2.30176">
        <ele>78.8</ele>
        <time>2020-07-02T07:42:38Z</time>
      </trkpt>
      <trkpt lat="48.7379" lon="2.30175">
        <ele>78.9</ele>
        <time>2020-07-02T07:42:39Z</time>
      </trkpt>
      <trkpt lat="48.73786" lon="2.30175">
        <ele>79</ele>
        <time>2020-07-02T07:42:40Z</time>
      </trkpt>
      <trkpt lat="48.73781" lon="2.30173">
        <ele>79.1</ele>
        <time>2020-07-02T07:42:41Z</time>
      </trkpt>
      <trkpt lat="48.73777" lon="2.30172">
        <ele>79.2</ele>
        <time>2020-07-02T07:42:42Z</time>
      </trkpt>
      <trkpt lat="48.73772" lon="2.3017">
        <ele>79.4</ele>
        <time>2020-07-02T07:42:43Z</time>
      </trkpt>
      <trkpt lat="48.73768" lon="2.30169">
        <ele>79.5</ele>
        <time>2020-07-02T07:42:44Z</time>
      </trkpt>
      <trkpt lat="48.73764" lon="2.30169">
        <ele>79.6</ele>
        <time>2020-07-02T07:42:45Z</time>
      </trkpt>
      <trkpt lat="48.73761" lon="2.30167">
        <ele>79.7</ele>
        <time>2020-07-02T07:42:46Z</time>
      </trkpt>
      <trkpt lat="48.73757" lon="2.30166">
        <ele>79.8</ele>
        <time>2020-07-02T07:42:47Z</time>
      </trkpt>
      <trkpt lat="48.73753" lon="2.30165">
        <ele>80</ele>
        <time>2020-07-02T07:42:48Z</time>
      </trkpt>
      <trkpt lat="48.73748" lon="2.30163">
        <ele>80.1</ele>
        <time>2020-07-02T07:42:49Z</time>
      </trkpt>
      <trkpt lat="48.73745" lon="2.30163">
        <ele>80.3</ele>
        <time>2020-07-02T07:42:50Z</time>
      </trkpt>
      <trkpt lat="48.73741" lon="2.30162">
        <ele>80.4</ele>
        <time>2020-07-02T07:42:51Z</time>
      </trkpt>
      <trkpt lat="48.73737" lon="2.30161">
        <ele>80.5</ele>
        <time>2020-07-02T07:42:52Z</time>
      </trkpt>
      <trkpt lat="48.73733" lon="2.30161">
        <ele>80.6</ele>
        <time>2020-07-02T07:42:53Z</time>
      </trkpt>
      <trkpt lat="48.73729" lon="2.3016">
        <ele>80.7</ele>
        <time>2020-07-02T07:42:54Z</time>
      </trkpt>
      <trkpt lat="48.73725" lon="2.3016">
        <ele>80.9</ele>
        <time>2020-07-02T07:42:55Z</time>
      </trkpt>
      <trkpt lat="48.73721" lon="2.30159">
        <ele>81</ele>
        <time>2020-07-02T07:42:56Z</time>
      </trkpt>
      <trkpt lat="48.73718" lon="2.30159">
        <ele>81.1</ele>
        <time>2020-07-02T07:42:57Z</time>
      </trkpt>
      <trkpt lat="48.73714" lon="2.30158">
        <ele>81.2</ele>
        <time>2020-07-02T07:42:58Z</time>
      </trkpt>
      <trkpt lat="48.73711" lon="2.30158">
        <ele>81.3</ele>
        <time>2020-07-02T07:42:59Z</time>
      </trkpt>
      <trkpt lat="48.73708" lon="2.30157">
        <ele>81.5</ele>
        <time>2020-07-02T07:43:00Z</time>
      </trkpt>
      <trkpt lat="48.73703" lon="2.30156">
        <ele>81.6</ele>
        <time>2020-07-02T07:43:01Z</time>
      </trkpt>
      <trkpt lat="48.73699" lon="2.30155">
        <ele>81.7</ele>
        <time>2020-07-02T07:43:02Z</time>
      </trkpt>
      <trkpt lat="48.73695" lon="2.30154">
        <ele>81.9</ele>
        <time>2020-07-02T07:43:03Z</time>
      </trkpt>
      <trkpt lat="48.73691" lon="2.30154">
        <ele>82</ele>
        <time>2020-07-02T07:43:04Z</time>
      </trkpt>
      <trkpt lat="48.73688" lon="2.30153">
        <ele>82.1</ele>
        <time>2020-07-02T07:43:05Z</time>
      </trkpt>
      <trkpt lat="48.73685" lon="2.30152">
        <ele>82.2</ele>
        <time>2020-07-02T07:43:06Z</time>
      </trkpt>
      <trkpt lat="48.73681" lon="2.30152">
        <ele>82.3</ele>
        <time>2020-07-02T07:43:07Z</time>
      </trkpt>
      <trkpt lat="48.73679" lon="2.30151">
        <ele>82.4</ele>
        <time>2020-07-02T07:43:08Z</time>
      </trkpt>
      <trkpt lat="48.73675" lon="2.30149">
        <ele>82.5</ele>
        <time>2020-07-02T07:43:09Z</time>
      </trkpt>
      <trkpt lat="48.73674" lon="2.30149">
        <ele>82.6</ele>
        <time>2020-07-02T07:43:10Z</time>
      </trkpt>
      <trkpt lat="48.73673" lon="2.30148">
        <ele>82.6</ele>
        <time>2020-07-02T07:43:11Z</time>
      </trkpt>
      <trkpt lat="48.73673" lon="2.30148">
        <ele>82.6</ele>
        <time>2020-07-02T07:43:12Z</time>
      </trkpt>
      <trkpt lat="48.73672" lon="2.30147">
        <ele>82.7</ele>
        <time>2020-07-02T07:43:13Z</time>
      </trkpt>
      <trkpt lat="48.73669" lon="2.30148">
        <ele>82.8</ele>
        <time>2020-07-02T07:43:14Z</time>
      </trkpt>
      <trkpt lat="48.73668" lon="2.30148">
        <ele>82.8</ele>
        <time>2020-07-02T07:43:15Z</time>
      </trkpt>
      <trkpt lat="48.73665" lon="2.30147">
        <ele>82.9</ele>
        <time>2020-07-02T07:43:16Z</time>
      </trkpt>
      <trkpt lat="48.73664" lon="2.30147">
        <ele>82.9</ele>
        <time>2020-07-02T07:43:17Z</time>
      </trkpt>
      <trkpt lat="48.73661" lon="2.30147">
        <ele>83</ele>
        <time>2020-07-02T07:43:18Z</time>
      </trkpt>
      <trkpt lat="48.73658" lon="2.30146">
        <ele>83</ele>
        <time>2020-07-02T07:43:19Z</time>
      </trkpt>
      <trkpt lat="48.73655" lon="2.30145">
        <ele>83.1</ele>
        <time>2020-07-02T07:43:20Z</time>
      </trkpt>
      <trkpt lat="48.73652" lon="2.30143">
        <ele>83.2</ele>
        <time>2020-07-02T07:43:21Z</time>
      </trkpt>
      <trkpt lat="48.73651" lon="2.30143">
        <ele>83.2</ele>
        <time>2020-07-02T07:43:22Z</time>
      </trkpt>
      <trkpt lat="48.7365" lon="2.30143">
        <ele>83.3</ele>
        <time>2020-07-02T07:43:23Z</time>
      </trkpt>
      <trkpt lat="48.73648" lon="2.30144">
        <ele>83.3</ele>
        <time>2020-07-02T07:43:24Z</time>
      </trkpt>
      <trkpt lat="48.73645" lon="2.30142">
        <ele>83.4</ele>
        <time>2020-07-02T07:43:25Z</time>
      </trkpt>
      <trkpt lat="48.73643" lon="2.30141">
        <ele>83.5</ele>
        <time>2020-07-02T07:43:26Z</time>
      </trkpt>
      <trkpt lat="48.7364" lon="2.3014">
        <ele>83.6</ele>
        <time>2020-07-02T07:43:27Z</time>
      </trkpt>
      <trkpt lat="48.73639" lon="2.3014">
        <ele>83.6</ele>
        <time>2020-07-02T07:43:28Z</time>
      </trkpt>
      <trkpt lat="48.73636" lon="2.30139">
        <ele>83.7</ele>
        <time>2020-07-02T07:43:29Z</time>
      </trkpt>
      <trkpt lat="48.73632" lon="2.30138">
        <ele>83.8</ele>
        <time>2020-07-02T07:43:30Z</time>
      </trkpt>
      <trkpt lat="48.73631" lon="2.30138">
        <ele>83.8</ele>
        <time>2020-07-02T07:43:31Z</time>
      </trkpt>
      <trkpt lat="48.73627" lon="2.30138">
        <ele>83.9</ele>
        <time>2020-07-02T07:43:32Z</time>
      </trkpt>
      <trkpt lat="48.73626" lon="2.30138">
        <ele>83.9</ele>
        <time>2020-07-02T07:43:33Z</time>
      </trkpt>
      <trkpt lat="48.73623" lon="2.30136">
        <ele>83.9</ele>
        <time>2020-07-02T07:43:34Z</time>
      </trkpt>
      <trkpt lat="48.73622" lon="2.30136">
        <ele>83.9</ele>
        <time>2020-07-02T07:43:35Z</time>
      </trkpt>
      <trkpt lat="48.7362" lon="2.30134">
        <ele>83.9</ele>
        <time>2020-07-02T07:43:36Z</time>
      </trkpt>
      <trkpt lat="48.73619" lon="2.30134">
        <ele>83.9</ele>
        <time>2020-07-02T07:43:37Z</time>
      </trkpt>
      <trkpt lat="48.73619" lon="2.30133">
        <ele>83.9</ele>
        <time>2020-07-02T07:43:38Z</time>
      </trkpt>
      <trkpt lat="48.73617" lon="2.30135">
        <ele>83.9</ele>
        <time>2020-07-02T07:43:39Z</time>
      </trkpt>
      <trkpt lat="48.73617" lon="2.30135">
        <ele>83.9</ele>
        <time>2020-07-02T07:43:40Z</time>
      </trkpt>
      <trkpt lat="48.73616" lon="2.30135">
        <ele>83.9</ele>
        <time>2020-07-02T07:43:41Z</time>
      </trkpt>
      <trkpt lat="48.73616" lon="2.30136">
        <ele>83.9</ele>
        <time>2020-07-02T07:43:42Z</time>
      </trkpt>
      <trkpt lat="48.73616" lon="2.30138">
        <ele>83.9</ele>
        <time>2020-07-02T07:43:43Z</time>
      </trkpt>
      <trkpt lat="48.73615" lon="2.3014">
        <ele>83.9</ele>
        <time>2020-07-02T07:43:44Z</time>
      </trkpt>
      <trkpt lat="48.73614" lon="2.30146">
        <ele>84</ele>
        <time>2020-07-02T07:43:45Z</time>
      </trkpt>
      <trkpt lat="48.73614" lon="2.30148">
        <ele>84</ele>
        <time>2020-07-02T07:43:46Z</time>
      </trkpt>
      <trkpt lat="48.73614" lon="2.30153">
        <ele>84</ele>
        <time>2020-07-02T07:43:47Z</time>
      </trkpt>
      <trkpt lat="48.73615" lon="2.30158">
        <ele>84.1</ele>
        <time>2020-07-02T07:43:48Z</time>
      </trkpt>
      <trkpt lat="48.73615" lon="2.30159">
        <ele>84.1</ele>
        <time>2020-07-02T07:43:49Z</time>
      </trkpt>
      <trkpt lat="48.73616" lon="2.30161">
        <ele>84.1</ele>
        <time>2020-07-02T07:43:50Z</time>
      </trkpt>
      <trkpt lat="48.73617" lon="2.30162">
        <ele>84.1</ele>
        <time>2020-07-02T07:43:51Z</time>
      </trkpt>
      <trkpt lat="48.73618" lon="2.30164">
        <ele>84.1</ele>
        <time>2020-07-02T07:43:52Z</time>
      </trkpt>
      <trkpt lat="48.73619" lon="2.30167">
        <ele>84.2</ele>
        <time>2020-07-02T07:43:53Z</time>
      </trkpt>
      <trkpt lat="48.73619" lon="2.30168">
        <ele>84.3</ele>
        <time>2020-07-02T07:43:54Z</time>
      </trkpt>
      <trkpt lat="48.73618" lon="2.30171">
        <ele>84.3</ele>
        <time>2020-07-02T07:43:55Z</time>
      </trkpt>
      <trkpt lat="48.73618" lon="2.30173">
        <ele>84.3</ele>
        <time>2020-07-02T07:43:56Z</time>
      </trkpt>
      <trkpt lat="48.73619" lon="2.30174">
        <ele>84.3</ele>
        <time>2020-07-02T07:43:57Z</time>
      </trkpt>
      <trkpt lat="48.73619" lon="2.30174">
        <ele>84.3</ele>
        <time>2020-07-02T07:43:58Z</time>
      </trkpt>
      <trkpt lat="48.7362" lon="2.30175">
        <ele>84.3</ele>
        <time>2020-07-02T07:43:59Z</time>
      </trkpt>
      <trkpt lat="48.7362" lon="2.30175">
        <ele>84.3</ele>
        <time>2020-07-02T07:44:00Z</time>
      </trkpt>
      <trkpt lat="48.7362" lon="2.30175">
        <ele>84.3</ele>
        <time>2020-07-02T07:44:01Z</time>
      </trkpt>
      <trkpt lat="48.7362" lon="2.30175">
        <ele>84.3</ele>
        <time>2020-07-02T07:44:02Z</time>
      </trkpt>
      <trkpt lat="48.7362" lon="2.30175">
        <ele>84.3</ele>
        <time>2020-07-02T07:44:03Z</time>
      </trkpt>
      <trkpt lat="48.7362" lon="2.30175">
        <ele>84.3</ele>
        <time>2020-07-02T07:44:04Z</time>
      </trkpt>
      <trkpt lat="48.7362" lon="2.30175">
        <ele>84.3</ele>
        <time>2020-07-02T07:44:05Z</time>
      </trkpt>
      <trkpt lat="48.7362" lon="2.30175">
        <ele>84.3</ele>
        <time>2020-07-02T07:44:06Z</time>
      </trkpt>
      <trkpt lat="48.7362" lon="2.30175">
        <ele>84.3</ele>
        <time>2020-07-02T07:44:07Z</time>
      </trkpt>
      <trkpt lat="48.7362" lon="2.30176">
        <ele>84.3</ele>
        <time>2020-07-02T07:44:08Z</time>
      </trkpt>
      <trkpt lat="48.7362" lon="2.30176">
        <ele>84.3</ele>
        <time>2020-07-02T07:44:09Z</time>
      </trkpt>
      <trkpt lat="48.73625" lon="2.30179">
        <ele>84.3</ele>
        <time>2020-07-02T07:44:36Z</time>
      </trkpt>
      <trkpt lat="48.73625" lon="2.30178">
        <ele>84.3</ele>
        <time>2020-07-02T07:44:37Z</time>
      </trkpt>
      <trkpt lat="48.73625" lon="2.30176">
        <ele>84.3</ele>
        <time>2020-07-02T07:44:38Z</time>
      </trkpt>
      <trkpt lat="48.73625" lon="2.30176">
        <ele>84.3</ele>
        <time>2020-07-02T07:44:39Z</time>
      </trkpt>
      <trkpt lat="48.73625" lon="2.30175">
        <ele>84.3</ele>
        <time>2020-07-02T07:44:40Z</time>
      </trkpt>
      <trkpt lat="48.73625" lon="2.30174">
        <ele>84.3</ele>
        <time>2020-07-02T07:44:41Z</time>
      </trkpt>
      <trkpt lat="48.73626" lon="2.30172">
        <ele>84.3</ele>
        <time>2020-07-02T07:44:42Z</time>
      </trkpt>
      <trkpt lat="48.73627" lon="2.30172">
        <ele>84.3</ele>
        <time>2020-07-02T07:44:43Z</time>
      </trkpt>
      <trkpt lat="48.73629" lon="2.30172">
        <ele>84.3</ele>
        <time>2020-07-02T07:44:44Z</time>
      </trkpt>
      <trkpt lat="48.73629" lon="2.30172">
        <ele>84.3</ele>
        <time>2020-07-02T07:44:45Z</time>
      </trkpt>
      <trkpt lat="48.7363" lon="2.30172">
        <ele>84.3</ele>
        <time>2020-07-02T07:44:46Z</time>
      </trkpt>
      <trkpt lat="48.7363" lon="2.30172">
        <ele>84.3</ele>
        <time>2020-07-02T07:44:47Z</time>
      </trkpt>
      <trkpt lat="48.73631" lon="2.30172">
        <ele>84.3</ele>
        <time>2020-07-02T07:44:48Z</time>
      </trkpt>
      <trkpt lat="48.73631" lon="2.30172">
        <ele>84.3</ele>
        <time>2020-07-02T07:44:49Z</time>
      </trkpt>
      <trkpt lat="48.73632" lon="2.30171">
        <ele>84.3</ele>
        <time>2020-07-02T07:44:50Z</time>
      </trkpt>
      <trkpt lat="48.73633" lon="2.3017">
        <ele>84.3</ele>
        <time>2020-07-02T07:44:51Z</time>
      </trkpt>
      <trkpt lat="48.73634" lon="2.30169">
        <ele>84.3</ele>
        <time>2020-07-02T07:44:52Z</time>
      </trkpt>
      <trkpt lat="48.73635" lon="2.30167">
        <ele>84.3</ele>
        <time>2020-07-02T07:44:53Z</time>
      </trkpt>
      <trkpt lat="48.73635" lon="2.30166">
        <ele>84.3</ele>
        <time>2020-07-02T07:44:54Z</time>
      </trkpt>
      <trkpt lat="48.73637" lon="2.30163">
        <ele>84.3</ele>
        <time>2020-07-02T07:44:55Z</time>
      </trkpt>
      <trkpt lat="48.73637" lon="2.30162">
        <ele>84.3</ele>
        <time>2020-07-02T07:44:56Z</time>
      </trkpt>
      <trkpt lat="48.73638" lon="2.30161">
        <ele>84.3</ele>
        <time>2020-07-02T07:44:57Z</time>
      </trkpt>
      <trkpt lat="48.73639" lon="2.3016">
        <ele>84.3</ele>
        <time>2020-07-02T07:44:58Z</time>
      </trkpt>
      <trkpt lat="48.73639" lon="2.30159">
        <ele>84.3</ele>
        <time>2020-07-02T07:44:59Z</time>
      </trkpt>
      <trkpt lat="48.73639" lon="2.30159">
        <ele>84.3</ele>
        <time>2020-07-02T07:45:00Z</time>
      </trkpt>
      <trkpt lat="48.73639" lon="2.30158">
        <ele>84.3</ele>
        <time>2020-07-02T07:45:01Z</time>
      </trkpt>
      <trkpt lat="48.73639" lon="2.30158">
        <ele>84.3</ele>
        <time>2020-07-02T07:45:02Z</time>
      </trkpt>
      <trkpt lat="48.73639" lon="2.30158">
        <ele>84.3</ele>
        <time>2020-07-02T07:45:03Z</time>
      </trkpt>
      <trkpt lat="48.73639" lon="2.30158">
        <ele>84.3</ele>
        <time>2020-07-02T07:45:04Z</time>
      </trkpt>
      <trkpt lat="48.7364" lon="2.30158">
        <ele>84.3</ele>
        <time>2020-07-02T07:45:05Z</time>
      </trkpt>
      <trkpt lat="48.7364" lon="2.30157">
        <ele>84.2</ele>
        <time>2020-07-02T07:45:06Z</time>
      </trkpt>
      <trkpt lat="48.7364" lon="2.30156">
        <ele>84.2</ele>
        <time>2020-07-02T07:45:07Z</time>
      </trkpt>
      <trkpt lat="48.7364" lon="2.30156">
        <ele>84.2</ele>
        <time>2020-07-02T07:45:08Z</time>
      </trkpt>
      <trkpt lat="48.7364" lon="2.30155">
        <ele>84.2</ele>
        <time>2020-07-02T07:45:09Z</time>
      </trkpt>
      <trkpt lat="48.7364" lon="2.30154">
        <ele>84.2</ele>
        <time>2020-07-02T07:45:10Z</time>
      </trkpt>
      <trkpt lat="48.7364" lon="2.30154">
        <ele>84.2</ele>
        <time>2020-07-02T07:45:11Z</time>
      </trkpt>
      <trkpt lat="48.7364" lon="2.30154">
        <ele>84.2</ele>
        <time>2020-07-02T07:45:12Z</time>
      </trkpt>
      <trkpt lat="48.73638" lon="2.30155">
        <ele>84.2</ele>
        <time>2020-07-02T07:45:13Z</time>
      </trkpt>
      <trkpt lat="48.73636" lon="2.30157">
        <ele>84.2</ele>
        <time>2020-07-02T07:45:14Z</time>
      </trkpt>
      <trkpt lat="48.73633" lon="2.30159">
        <ele>84.2</ele>
        <time>2020-07-02T07:45:15Z</time>
      </trkpt>
      <trkpt lat="48.73631" lon="2.30161">
        <ele>84.2</ele>
        <time>2020-07-02T07:45:16Z</time>
      </trkpt>
      <trkpt lat="48.73629" lon="2.30163">
        <ele>84.2</ele>
        <time>2020-07-02T07:45:17Z</time>
      </trkpt>
      <trkpt lat="48.73627" lon="2.30165">
        <ele>84.2</ele>
        <time>2020-07-02T07:45:18Z</time>
      </trkpt>
      <trkpt lat="48.73625" lon="2.30167">
        <ele>84.2</ele>
        <time>2020-07-02T07:46:07Z</time>
      </trkpt>
      <trkpt lat="48.73622" lon="2.30169">
        <ele>84.2</ele>
        <time>2020-07-02T07:46:08Z</time>
      </trkpt>
      <trkpt lat="48.7362" lon="2.30171">
        <ele>84.2</ele>
        <time>2020-07-02T07:46:09Z</time>
      </trkpt>
      <trkpt lat="48.73619" lon="2.3017">
        <ele>84.2</ele>
        <time>2020-07-02T07:46:10Z</time>
      </trkpt>
      <trkpt lat="48.73619" lon="2.3017">
        <ele>84.2</ele>
        <time>2020-07-02T07:46:11Z</time>
      </trkpt>
      <trkpt lat="48.73618" lon="2.30169">
        <ele>84.2</ele>
        <time>2020-07-02T07:46:12Z</time>
      </trkpt>
      <trkpt lat="48.73617" lon="2.30169">
        <ele>84.2</ele>
        <time>2020-07-02T07:46:13Z</time>
      </trkpt>
      <trkpt lat="48.73617" lon="2.30169">
        <ele>84.2</ele>
        <time>2020-07-02T07:46:14Z</time>
      </trkpt>
      <trkpt lat="48.73616" lon="2.30169">
        <ele>84.2</ele>
        <time>2020-07-02T07:46:15Z</time>
      </trkpt>
      <trkpt lat="48.73616" lon="2.30168">
        <ele>84.2</ele>
        <time>2020-07-02T07:46:16Z</time>
      </trkpt>
      <trkpt lat="48.73616" lon="2.30168">
        <ele>84.2</ele>
        <time>2020-07-02T07:46:17Z</time>
      </trkpt>
      <trkpt lat="48.73616" lon="2.30166">
        <ele>84.2</ele>
        <time>2020-07-02T07:46:18Z</time>
      </trkpt>
      <trkpt lat="48.73616" lon="2.30165">
        <ele>84.2</ele>
        <time>2020-07-02T07:46:19Z</time>
      </trkpt>
      <trkpt lat="48.73616" lon="2.30166">
        <ele>84.2</ele>
        <time>2020-07-02T07:46:20Z</time>
      </trkpt>
      <trkpt lat="48.73616" lon="2.30166">
        <ele>84.2</ele>
        <time>2020-07-02T07:46:21Z</time>
      </trkpt>
      <trkpt lat="48.73616" lon="2.30167">
        <ele>84.2</ele>
        <time>2020-07-02T07:46:22Z</time>
      </trkpt>
      <trkpt lat="48.73616" lon="2.30167">
        <ele>84.2</ele>
        <time>2020-07-02T07:46:23Z</time>
      </trkpt>
      <trkpt lat="48.73616" lon="2.30167">
        <ele>84.2</ele>
        <time>2020-07-02T07:46:24Z</time>
      </trkpt>
      <trkpt lat="48.73616" lon="2.30168">
        <ele>84.2</ele>
        <time>2020-07-02T07:46:25Z</time>
      </trkpt>
      <trkpt lat="48.73616" lon="2.30168">
        <ele>84.2</ele>
        <time>2020-07-02T07:46:26Z</time>
      </trkpt>
      <trkpt lat="48.73616" lon="2.30168">
        <ele>84.2</ele>
        <time>2020-07-02T07:46:27Z</time>
      </trkpt>
      <trkpt lat="48.73616" lon="2.30168">
        <ele>84.2</ele>
        <time>2020-07-02T07:46:28Z</time>
      </trkpt>
      <trkpt lat="48.73616" lon="2.30168">
        <ele>84.2</ele>
        <time>2020-07-02T07:46:29Z</time>
      </trkpt>
      <trkpt lat="48.73616" lon="2.30168">
        <ele>84.2</ele>
        <time>2020-07-02T07:46:30Z</time>
      </trkpt>
      <trkpt lat="48.73616" lon="2.30168">
        <ele>84.2</ele>
        <time>2020-07-02T07:46:31Z</time>
      </trkpt>
      <trkpt lat="48.73616" lon="2.30168">
        <ele>84.2</ele>
        <time>2020-07-02T07:46:32Z</time>
      </trkpt>
      <trkpt lat="48.73606" lon="2.30177">
        <ele>84.3</ele>
        <time>2020-07-02T07:47:26Z</time>
      </trkpt>
      <trkpt lat="48.73604" lon="2.30177">
        <ele>84.3</ele>
        <time>2020-07-02T07:47:27Z</time>
      </trkpt>
      <trkpt lat="48.73602" lon="2.30176">
        <ele>84.3</ele>
        <time>2020-07-02T07:47:28Z</time>
      </trkpt>
      <trkpt lat="48.73601" lon="2.30176">
        <ele>84.3</ele>
        <time>2020-07-02T07:47:29Z</time>
      </trkpt>
      <trkpt lat="48.736" lon="2.30176">
        <ele>84.3</ele>
        <time>2020-07-02T07:47:30Z</time>
      </trkpt>
      <trkpt lat="48.736" lon="2.30176">
        <ele>84.3</ele>
        <time>2020-07-02T07:47:31Z</time>
      </trkpt>
      <trkpt lat="48.73599" lon="2.30176">
        <ele>84.3</ele>
        <time>2020-07-02T07:47:32Z</time>
      </trkpt>
      <trkpt lat="48.73598" lon="2.30176">
        <ele>84.3</ele>
        <time>2020-07-02T07:47:33Z</time>
      </trkpt>
      <trkpt lat="48.73598" lon="2.30176">
        <ele>84.3</ele>
        <time>2020-07-02T07:47:34Z</time>
      </trkpt>
      <trkpt lat="48.73596" lon="2.30177">
        <ele>84.4</ele>
        <time>2020-07-02T07:47:35Z</time>
      </trkpt>
      <trkpt lat="48.73595" lon="2.30177">
        <ele>84.4</ele>
        <time>2020-07-02T07:47:36Z</time>
      </trkpt>
      <trkpt lat="48.73595" lon="2.30176">
        <ele>84.4</ele>
        <time>2020-07-02T07:47:37Z</time>
      </trkpt>
      <trkpt lat="48.73596" lon="2.30175">
        <ele>84.4</ele>
        <time>2020-07-02T07:47:38Z</time>
      </trkpt>
      <trkpt lat="48.73595" lon="2.30175">
        <ele>84.4</ele>
        <time>2020-07-02T07:47:39Z</time>
      </trkpt>
      <trkpt lat="48.73595" lon="2.30176">
        <ele>84.4</ele>
        <time>2020-07-02T07:47:40Z</time>
      </trkpt>
      <trkpt lat="48.73594" lon="2.30176">
        <ele>84.4</ele>
        <time>2020-07-02T07:47:41Z</time>
      </trkpt>
      <trkpt lat="48.73595" lon="2.30176">
        <ele>84.4</ele>
        <time>2020-07-02T07:47:42Z</time>
      </trkpt>
      <trkpt lat="48.73594" lon="2.30177">
        <ele>84.4</ele>
        <time>2020-07-02T07:47:43Z</time>
      </trkpt>
      <trkpt lat="48.73594" lon="2.30177">
        <ele>84.4</ele>
        <time>2020-07-02T07:47:44Z</time>
      </trkpt>
      <trkpt lat="48.73594" lon="2.30177">
        <ele>84.4</ele>
        <time>2020-07-02T07:47:45Z</time>
      </trkpt>
      <trkpt lat="48.73594" lon="2.30177">
        <ele>84.4</ele>
        <time>2020-07-02T07:47:46Z</time>
      </trkpt>
      <trkpt lat="48.73594" lon="2.30177">
        <ele>84.4</ele>
        <time>2020-07-02T07:47:47Z</time>
      </trkpt>
      <trkpt lat="48.73594" lon="2.30177">
        <ele>84.4</ele>
        <time>2020-07-02T07:47:48Z</time>
      </trkpt>
      <trkpt lat="48.73594" lon="2.30177">
        <ele>84.4</ele>
        <time>2020-07-02T07:47:49Z</time>
      </trkpt>
      <trkpt lat="48.73594" lon="2.30177">
        <ele>84.4</ele>
        <time>2020-07-02T07:47:50Z</time>
      </trkpt>
      <trkpt lat="48.73597" lon="2.30171">
        <ele>84.4</ele>
        <time>2020-07-02T07:49:29Z</time>
      </trkpt>
      <trkpt lat="48.73597" lon="2.30172">
        <ele>84.4</ele>
        <time>2020-07-02T07:49:30Z</time>
      </trkpt>
      <trkpt lat="48.73597" lon="2.30173">
        <ele>84.4</ele>
        <time>2020-07-02T07:49:31Z</time>
      </trkpt>
      <trkpt lat="48.73597" lon="2.30172">
        <ele>84.4</ele>
        <time>2020-07-02T07:49:32Z</time>
      </trkpt>
      <trkpt lat="48.73598" lon="2.30172">
        <ele>84.4</ele>
        <time>2020-07-02T07:49:33Z</time>
      </trkpt>
      <trkpt lat="48.73598" lon="2.30172">
        <ele>84.4</ele>
        <time>2020-07-02T07:49:34Z</time>
      </trkpt>
      <trkpt lat="48.73598" lon="2.30172">
        <ele>84.4</ele>
        <time>2020-07-02T07:49:35Z</time>
      </trkpt>
      <trkpt lat="48.73598" lon="2.30172">
        <ele>84.4</ele>
        <time>2020-07-02T07:49:36Z</time>
      </trkpt>
      <trkpt lat="48.73598" lon="2.30172">
        <ele>84.4</ele>
        <time>2020-07-02T07:49:37Z</time>
      </trkpt>
      <trkpt lat="48.73597" lon="2.30173">
        <ele>84.4</ele>
        <time>2020-07-02T07:49:38Z</time>
      </trkpt>
      <trkpt lat="48.73597" lon="2.30173">
        <ele>84.4</ele>
        <time>2020-07-02T07:49:39Z</time>
      </trkpt>
      <trkpt lat="48.73597" lon="2.30173">
        <ele>84.4</ele>
        <time>2020-07-02T07:49:40Z</time>
      </trkpt>
      <trkpt lat="48.73597" lon="2.30173">
        <ele>84.4</ele>
        <time>2020-07-02T07:49:41Z</time>
      </trkpt>
      <trkpt lat="48.73597" lon="2.30173">
        <ele>84.4</ele>
        <time>2020-07-02T07:49:42Z</time>
      </trkpt>
      <trkpt lat="48.73599" lon="2.30172">
        <ele>84.4</ele>
        <time>2020-07-02T07:49:43Z</time>
      </trkpt>
      <trkpt lat="48.736" lon="2.30173">
        <ele>84.5</ele>
        <time>2020-07-02T07:49:44Z</time>
      </trkpt>
      <trkpt lat="48.73603" lon="2.30173">
        <ele>84.5</ele>
        <time>2020-07-02T07:49:45Z</time>
      </trkpt>
      <trkpt lat="48.73604" lon="2.30174">
        <ele>84.5</ele>
        <time>2020-07-02T07:49:46Z</time>
      </trkpt>
      <trkpt lat="48.73604" lon="2.30174">
        <ele>84.5</ele>
        <time>2020-07-02T07:49:47Z</time>
      </trkpt>
      <trkpt lat="48.73605" lon="2.30174">
        <ele>84.5</ele>
        <time>2020-07-02T07:49:48Z</time>
      </trkpt>
      <trkpt lat="48.73605" lon="2.30174">
        <ele>84.5</ele>
        <time>2020-07-02T07:49:49Z</time>
      </trkpt>
      <trkpt lat="48.73605" lon="2.30174">
        <ele>84.5</ele>
        <time>2020-07-02T07:49:50Z</time>
      </trkpt>
      <trkpt lat="48.73606" lon="2.30174">
        <ele>84.5</ele>
        <time>2020-07-02T07:49:51Z</time>
      </trkpt>
      <trkpt lat="48.73606" lon="2.30175">
        <ele>84.5</ele>
        <time>2020-07-02T07:49:52Z</time>
      </trkpt>
      <trkpt lat="48.73607" lon="2.30175">
        <ele>84.5</ele>
        <time>2020-07-02T07:49:53Z</time>
      </trkpt>
      <trkpt lat="48.73607" lon="2.30175">
        <ele>84.5</ele>
        <time>2020-07-02T07:49:54Z</time>
      </trkpt>
      <trkpt lat="48.73607" lon="2.30175">
        <ele>84.5</ele>
        <time>2020-07-02T07:49:55Z</time>
      </trkpt>
      <trkpt lat="48.73608" lon="2.30175">
        <ele>84.5</ele>
        <time>2020-07-02T07:49:56Z</time>
      </trkpt>
      <trkpt lat="48.73608" lon="2.30175">
        <ele>84.5</ele>
        <time>2020-07-02T07:49:57Z</time>
      </trkpt>
      <trkpt lat="48.73608" lon="2.30175">
        <ele>84.5</ele>
        <time>2020-07-02T07:49:58Z</time>
      </trkpt>
      <trkpt lat="48.73615" lon="2.30179">
        <ele>84.6</ele>
        <time>2020-07-02T07:51:03Z</time>
      </trkpt>
      <trkpt lat="48.73615" lon="2.3018">
        <ele>84.6</ele>
        <time>2020-07-02T07:51:04Z</time>
      </trkpt>
      <trkpt lat="48.73615" lon="2.30179">
        <ele>84.6</ele>
        <time>2020-07-02T07:51:05Z</time>
      </trkpt>
      <trkpt lat="48.73615" lon="2.30178">
        <ele>84.6</ele>
        <time>2020-07-02T07:51:06Z</time>
      </trkpt>
      <trkpt lat="48.73616" lon="2.30177">
        <ele>84.6</ele>
        <time>2020-07-02T07:51:07Z</time>
      </trkpt>
      <trkpt lat="48.73616" lon="2.30177">
        <ele>84.6</ele>
        <time>2020-07-02T07:51:08Z</time>
      </trkpt>
      <trkpt lat="48.73616" lon="2.30177">
        <ele>84.6</ele>
        <time>2020-07-02T07:51:09Z</time>
      </trkpt>
      <trkpt lat="48.73616" lon="2.30177">
        <ele>84.6</ele>
        <time>2020-07-02T07:51:10Z</time>
      </trkpt>
      <trkpt lat="48.73616" lon="2.30177">
        <ele>84.6</ele>
        <time>2020-07-02T07:51:11Z</time>
      </trkpt>
      <trkpt lat="48.73616" lon="2.30177">
        <ele>84.6</ele>
        <time>2020-07-02T07:51:12Z</time>
      </trkpt>
      <trkpt lat="48.73616" lon="2.30177">
        <ele>84.6</ele>
        <time>2020-07-02T07:51:13Z</time>
      </trkpt>
      <trkpt lat="48.73616" lon="2.30177">
        <ele>84.7</ele>
        <time>2020-07-02T07:51:14Z</time>
      </trkpt>
      <trkpt lat="48.73616" lon="2.30177">
        <ele>84.7</ele>
        <time>2020-07-02T07:51:15Z</time>
      </trkpt>
      <trkpt lat="48.73616" lon="2.30177">
        <ele>84.7</ele>
        <time>2020-07-02T07:51:16Z</time>
      </trkpt>
      <trkpt lat="48.73613" lon="2.30185">
        <ele>84.7</ele>
        <time>2020-07-02T07:51:30Z</time>
      </trkpt>
      <trkpt lat="48.73613" lon="2.30187">
        <ele>84.7</ele>
        <time>2020-07-02T07:51:31Z</time>
      </trkpt>
      <trkpt lat="48.73612" lon="2.30189">
        <ele>84.7</ele>
        <time>2020-07-02T07:51:32Z</time>
      </trkpt>
      <trkpt lat="48.73612" lon="2.30189">
        <ele>84.7</ele>
        <time>2020-07-02T07:51:33Z</time>
      </trkpt>
      <trkpt lat="48.73612" lon="2.3019">
        <ele>84.7</ele>
        <time>2020-07-02T07:51:34Z</time>
      </trkpt>
      <trkpt lat="48.73612" lon="2.3019">
        <ele>84.7</ele>
        <time>2020-07-02T07:51:35Z</time>
      </trkpt>
      <trkpt lat="48.73612" lon="2.30191">
        <ele>84.7</ele>
        <time>2020-07-02T07:51:36Z</time>
      </trkpt>
      <trkpt lat="48.73612" lon="2.30191">
        <ele>84.7</ele>
        <time>2020-07-02T07:51:37Z</time>
      </trkpt>
      <trkpt lat="48.73612" lon="2.30192">
        <ele>84.7</ele>
        <time>2020-07-02T07:51:38Z</time>
      </trkpt>
      <trkpt lat="48.73612" lon="2.30192">
        <ele>84.7</ele>
        <time>2020-07-02T07:51:39Z</time>
      </trkpt>
      <trkpt lat="48.73612" lon="2.30193">
        <ele>84.7</ele>
        <time>2020-07-02T07:51:40Z</time>
      </trkpt>
      <trkpt lat="48.73612" lon="2.30194">
        <ele>84.7</ele>
        <time>2020-07-02T07:51:41Z</time>
      </trkpt>
      <trkpt lat="48.73612" lon="2.30195">
        <ele>84.7</ele>
        <time>2020-07-02T07:51:42Z</time>
      </trkpt>
      <trkpt lat="48.73611" lon="2.30196">
        <ele>84.7</ele>
        <time>2020-07-02T07:51:43Z</time>
      </trkpt>
      <trkpt lat="48.73611" lon="2.30197">
        <ele>84.7</ele>
        <time>2020-07-02T07:51:44Z</time>
      </trkpt>
      <trkpt lat="48.73611" lon="2.30198">
        <ele>84.8</ele>
        <time>2020-07-02T07:51:45Z</time>
      </trkpt>
      <trkpt lat="48.7361" lon="2.30199">
        <ele>84.8</ele>
        <time>2020-07-02T07:51:46Z</time>
      </trkpt>
      <trkpt lat="48.73611" lon="2.302">
        <ele>84.8</ele>
        <time>2020-07-02T07:51:47Z</time>
      </trkpt>
      <trkpt lat="48.73611" lon="2.30199">
        <ele>84.8</ele>
        <time>2020-07-02T07:51:48Z</time>
      </trkpt>
      <trkpt lat="48.73611" lon="2.30199">
        <ele>84.8</ele>
        <time>2020-07-02T07:51:49Z</time>
      </trkpt>
      <trkpt lat="48.73612" lon="2.302">
        <ele>84.8</ele>
        <time>2020-07-02T07:51:50Z</time>
      </trkpt>
      <trkpt lat="48.73612" lon="2.302">
        <ele>84.8</ele>
        <time>2020-07-02T07:51:51Z</time>
      </trkpt>
      <trkpt lat="48.73611" lon="2.30201">
        <ele>84.8</ele>
        <time>2020-07-02T07:51:52Z</time>
      </trkpt>
      <trkpt lat="48.7361" lon="2.30201">
        <ele>84.8</ele>
        <time>2020-07-02T07:51:53Z</time>
      </trkpt>
      <trkpt lat="48.73609" lon="2.302">
        <ele>84.8</ele>
        <time>2020-07-02T07:51:54Z</time>
      </trkpt>
      <trkpt lat="48.73609" lon="2.302">
        <ele>84.8</ele>
        <time>2020-07-02T07:51:55Z</time>
      </trkpt>
      <trkpt lat="48.73608" lon="2.302">
        <ele>84.8</ele>
        <time>2020-07-02T07:51:56Z</time>
      </trkpt>
      <trkpt lat="48.73607" lon="2.302">
        <ele>84.8</ele>
        <time>2020-07-02T07:51:57Z</time>
      </trkpt>
      <trkpt lat="48.73606" lon="2.302">
        <ele>84.8</ele>
        <time>2020-07-02T07:51:58Z</time>
      </trkpt>
      <trkpt lat="48.73606" lon="2.302">
        <ele>84.8</ele>
        <time>2020-07-02T07:52:06Z</time>
      </trkpt>
      <trkpt lat="48.73605" lon="2.302">
        <ele>84.8</ele>
        <time>2020-07-02T07:52:07Z</time>
      </trkpt>
      <trkpt lat="48.73604" lon="2.30201">
        <ele>84.8</ele>
        <time>2020-07-02T07:52:08Z</time>
      </trkpt>
      <trkpt lat="48.73603" lon="2.30202">
        <ele>84.8</ele>
        <time>2020-07-02T07:52:09Z</time>
      </trkpt>
      <trkpt lat="48.73602" lon="2.30203">
        <ele>84.8</ele>
        <time>2020-07-02T07:52:10Z</time>
      </trkpt>
      <trkpt lat="48.73602" lon="2.30202">
        <ele>84.8</ele>
        <time>2020-07-02T07:52:11Z</time>
      </trkpt>
      <trkpt lat="48.73601" lon="2.30203">
        <ele>84.8</ele>
        <time>2020-07-02T07:52:12Z</time>
      </trkpt>
      <trkpt lat="48.736" lon="2.30201">
        <ele>84.8</ele>
        <time>2020-07-02T07:52:13Z</time>
      </trkpt>
      <trkpt lat="48.736" lon="2.30201">
        <ele>84.9</ele>
        <time>2020-07-02T07:52:14Z</time>
      </trkpt>
      <trkpt lat="48.73598" lon="2.30201">
        <ele>84.9</ele>
        <time>2020-07-02T07:52:15Z</time>
      </trkpt>
      <trkpt lat="48.73598" lon="2.30201">
        <ele>84.9</ele>
        <time>2020-07-02T07:52:16Z</time>
      </trkpt>
      <trkpt lat="48.73597" lon="2.302">
        <ele>84.9</ele>
        <time>2020-07-02T07:52:17Z</time>
      </trkpt>
      <trkpt lat="48.73597" lon="2.30201">
        <ele>84.9</ele>
        <time>2020-07-02T07:52:18Z</time>
      </trkpt>
      <trkpt lat="48.73597" lon="2.30201">
        <ele>84.9</ele>
        <time>2020-07-02T07:52:19Z</time>
      </trkpt>
      <trkpt lat="48.73596" lon="2.30202">
        <ele>84.9</ele>
        <time>2020-07-02T07:52:20Z</time>
      </trkpt>
      <trkpt lat="48.73595" lon="2.30203">
        <ele>84.9</ele>
        <time>2020-07-02T07:52:21Z</time>
      </trkpt>
      <trkpt lat="48.73595" lon="2.30203">
        <ele>84.9</ele>
        <time>2020-07-02T07:52:22Z</time>
      </trkpt>
      <trkpt lat="48.73594" lon="2.30203">
        <ele>84.9</ele>
        <time>2020-07-02T07:52:23Z</time>
      </trkpt>
      <trkpt lat="48.73594" lon="2.30203">
        <ele>84.9</ele>
        <time>2020-07-02T07:52:24Z</time>
      </trkpt>
      <trkpt lat="48.73594" lon="2.30203">
        <ele>84.9</ele>
        <time>2020-07-02T07:52:25Z</time>
      </trkpt>
      <trkpt lat="48.73594" lon="2.30203">
        <ele>84.9</ele>
        <time>2020-07-02T07:52:26Z</time>
      </trkpt>
      <trkpt lat="48.73594" lon="2.30203">
        <ele>84.9</ele>
        <time>2020-07-02T07:52:27Z</time>
      </trkpt>
      <trkpt lat="48.73594" lon="2.30203">
        <ele>84.9</ele>
        <time>2020-07-02T07:52:28Z</time>
      </trkpt>
      <trkpt lat="48.73594" lon="2.30203">
        <ele>84.9</ele>
        <time>2020-07-02T07:52:29Z</time>
      </trkpt>
      <trkpt lat="48.73594" lon="2.30203">
        <ele>84.9</ele>
        <time>2020-07-02T07:52:30Z</time>
      </trkpt>
      <trkpt lat="48.73594" lon="2.30203">
        <ele>84.9</ele>
        <time>2020-07-02T07:52:31Z</time>
      </trkpt>
      <trkpt lat="48.73594" lon="2.30203">
        <ele>84.9</ele>
        <time>2020-07-02T07:52:32Z</time>
      </trkpt>
      <trkpt lat="48.73594" lon="2.30203">
        <ele>84.9</ele>
        <time>2020-07-02T07:52:33Z</time>
      </trkpt>
      <trkpt lat="48.73594" lon="2.30203">
        <ele>84.9</ele>
        <time>2020-07-02T07:52:34Z</time>
      </trkpt>
      <trkpt lat="48.73594" lon="2.30203">
        <ele>84.9</ele>
        <time>2020-07-02T07:52:35Z</time>
      </trkpt>
      <trkpt lat="48.73589" lon="2.30202">
        <ele>84.9</ele>
        <time>2020-07-02T07:53:54Z</time>
      </trkpt>
      <trkpt lat="48.73588" lon="2.30202">
        <ele>84.9</ele>
        <time>2020-07-02T07:53:55Z</time>
      </trkpt>
      <trkpt lat="48.73587" lon="2.30203">
        <ele>84.9</ele>
        <time>2020-07-02T07:53:56Z</time>
      </trkpt>
      <trkpt lat="48.73587" lon="2.30203">
        <ele>84.9</ele>
        <time>2020-07-02T07:53:57Z</time>
      </trkpt>
      <trkpt lat="48.73586" lon="2.30203">
        <ele>84.9</ele>
        <time>2020-07-02T07:53:58Z</time>
      </trkpt>
      <trkpt lat="48.73588" lon="2.30202">
        <ele>84.9</ele>
        <time>2020-07-02T07:53:59Z</time>
      </trkpt>
      <trkpt lat="48.7359" lon="2.30201">
        <ele>84.9</ele>
        <time>2020-07-02T07:54:00Z</time>
      </trkpt>
      <trkpt lat="48.73591" lon="2.302">
        <ele>85</ele>
        <time>2020-07-02T07:54:01Z</time>
      </trkpt>
      <trkpt lat="48.73592" lon="2.302">
        <ele>85</ele>
        <time>2020-07-02T07:54:02Z</time>
      </trkpt>
      <trkpt lat="48.73593" lon="2.30201">
        <ele>85</ele>
        <time>2020-07-02T07:54:03Z</time>
      </trkpt>
      <trkpt lat="48.73593" lon="2.30201">
        <ele>85</ele>
        <time>2020-07-02T07:54:04Z</time>
      </trkpt>
      <trkpt lat="48.73592" lon="2.30201">
        <ele>85</ele>
        <time>2020-07-02T07:54:05Z</time>
      </trkpt>
      <trkpt lat="48.73592" lon="2.30203">
        <ele>85</ele>
        <time>2020-07-02T07:54:06Z</time>
      </trkpt>
      <trkpt lat="48.73592" lon="2.30203">
        <ele>85</ele>
        <time>2020-07-02T07:54:07Z</time>
      </trkpt>
      <trkpt lat="48.73592" lon="2.30205">
        <ele>85</ele>
        <time>2020-07-02T07:54:08Z</time>
      </trkpt>
      <trkpt lat="48.73592" lon="2.30205">
        <ele>85</ele>
        <time>2020-07-02T07:54:09Z</time>
      </trkpt>
      <trkpt lat="48.73592" lon="2.30205">
        <ele>85</ele>
        <time>2020-07-02T07:54:10Z</time>
      </trkpt>
      <trkpt lat="48.73593" lon="2.30203">
        <ele>85</ele>
        <time>2020-07-02T07:54:11Z</time>
      </trkpt>
      <trkpt lat="48.73593" lon="2.30204">
        <ele>85</ele>
        <time>2020-07-02T07:54:12Z</time>
      </trkpt>
      <trkpt lat="48.73593" lon="2.30205">
        <ele>85</ele>
        <time>2020-07-02T07:54:13Z</time>
      </trkpt>
      <trkpt lat="48.73593" lon="2.30205">
        <ele>85</ele>
        <time>2020-07-02T07:54:14Z</time>
      </trkpt>
      <trkpt lat="48.73593" lon="2.30205">
        <ele>85</ele>
        <time>2020-07-02T07:54:15Z</time>
      </trkpt>
      <trkpt lat="48.73593" lon="2.30205">
        <ele>85</ele>
        <time>2020-07-02T07:54:16Z</time>
      </trkpt>
      <trkpt lat="48.73593" lon="2.30204">
        <ele>85</ele>
        <time>2020-07-02T07:54:17Z</time>
      </trkpt>
      <trkpt lat="48.73594" lon="2.30203">
        <ele>85</ele>
        <time>2020-07-02T07:54:18Z</time>
      </trkpt>
      <trkpt lat="48.73595" lon="2.30202">
        <ele>85</ele>
        <time>2020-07-02T07:54:19Z</time>
      </trkpt>
      <trkpt lat="48.73595" lon="2.302">
        <ele>85</ele>
        <time>2020-07-02T07:54:20Z</time>
      </trkpt>
      <trkpt lat="48.73595" lon="2.302">
        <ele>85</ele>
        <time>2020-07-02T07:54:21Z</time>
      </trkpt>
      <trkpt lat="48.73595" lon="2.302">
        <ele>85</ele>
        <time>2020-07-02T07:54:22Z</time>
      </trkpt>
      <trkpt lat="48.73595" lon="2.302">
        <ele>85</ele>
        <time>2020-07-02T07:54:23Z</time>
      </trkpt>
      <trkpt lat="48.73595" lon="2.30199">
        <ele>85</ele>
        <time>2020-07-02T07:54:24Z</time>
      </trkpt>
      <trkpt lat="48.73596" lon="2.30198">
        <ele>85</ele>
        <time>2020-07-02T07:54:25Z</time>
      </trkpt>
      <trkpt lat="48.73597" lon="2.30198">
        <ele>85</ele>
        <time>2020-07-02T07:54:26Z</time>
      </trkpt>
      <trkpt lat="48.73598" lon="2.30199">
        <ele>85</ele>
        <time>2020-07-02T07:54:27Z</time>
      </trkpt>
      <trkpt lat="48.73599" lon="2.302">
        <ele>85</ele>
        <time>2020-07-02T07:54:28Z</time>
      </trkpt>
      <trkpt lat="48.73599" lon="2.30201">
        <ele>85</ele>
        <time>2020-07-02T07:54:29Z</time>
      </trkpt>
      <trkpt lat="48.736" lon="2.30202">
        <ele>85</ele>
        <time>2020-07-02T07:54:30Z</time>
      </trkpt>
      <trkpt lat="48.73601" lon="2.30204">
        <ele>85</ele>
        <time>2020-07-02T07:54:31Z</time>
      </trkpt>
      <trkpt lat="48.73601" lon="2.30205">
        <ele>85</ele>
        <time>2020-07-02T07:54:32Z</time>
      </trkpt>
      <trkpt lat="48.73602" lon="2.30207">
        <ele>85</ele>
        <time>2020-07-02T07:54:33Z</time>
      </trkpt>
      <trkpt lat="48.73602" lon="2.30208">
        <ele>85.1</ele>
        <time>2020-07-02T07:54:34Z</time>
      </trkpt>
      <trkpt lat="48.73602" lon="2.30209">
        <ele>85.1</ele>
        <time>2020-07-02T07:54:35Z</time>
      </trkpt>
      <trkpt lat="48.73603" lon="2.30211">
        <ele>85.1</ele>
        <time>2020-07-02T07:54:36Z</time>
      </trkpt>
      <trkpt lat="48.73603" lon="2.30211">
        <ele>85.1</ele>
        <time>2020-07-02T07:54:37Z</time>
      </trkpt>
      <trkpt lat="48.73602" lon="2.30213">
        <ele>85.1</ele>
        <time>2020-07-02T07:54:38Z</time>
      </trkpt>
      <trkpt lat="48.73603" lon="2.30213">
        <ele>85.1</ele>
        <time>2020-07-02T07:54:39Z</time>
      </trkpt>
      <trkpt lat="48.73604" lon="2.30215">
        <ele>85.1</ele>
        <time>2020-07-02T07:54:40Z</time>
      </trkpt>
      <trkpt lat="48.73605" lon="2.30215">
        <ele>85.1</ele>
        <time>2020-07-02T07:54:41Z</time>
      </trkpt>
      <trkpt lat="48.73606" lon="2.30216">
        <ele>85.1</ele>
        <time>2020-07-02T07:54:42Z</time>
      </trkpt>
      <trkpt lat="48.73608" lon="2.30218">
        <ele>85.1</ele>
        <time>2020-07-02T07:54:43Z</time>
      </trkpt>
      <trkpt lat="48.73608" lon="2.30219">
        <ele>85.1</ele>
        <time>2020-07-02T07:54:44Z</time>
      </trkpt>
      <trkpt lat="48.73608" lon="2.3022">
        <ele>85.1</ele>
        <time>2020-07-02T07:54:45Z</time>
      </trkpt>
      <trkpt lat="48.73608" lon="2.30221">
        <ele>85.1</ele>
        <time>2020-07-02T07:54:46Z</time>
      </trkpt>
      <trkpt lat="48.73608" lon="2.30222">
        <ele>85.1</ele>
        <time>2020-07-02T07:54:47Z</time>
      </trkpt>
      <trkpt lat="48.73609" lon="2.30224">
        <ele>85.1</ele>
        <time>2020-07-02T07:54:48Z</time>
      </trkpt>
      <trkpt lat="48.7361" lon="2.30224">
        <ele>85.1</ele>
        <time>2020-07-02T07:54:49Z</time>
      </trkpt>
      <trkpt lat="48.7361" lon="2.30226">
        <ele>85.1</ele>
        <time>2020-07-02T07:54:50Z</time>
      </trkpt>
      <trkpt lat="48.73611" lon="2.30226">
        <ele>85.1</ele>
        <time>2020-07-02T07:54:51Z</time>
      </trkpt>
      <trkpt lat="48.73612" lon="2.30228">
        <ele>85.1</ele>
        <time>2020-07-02T07:54:52Z</time>
      </trkpt>
      <trkpt lat="48.73613" lon="2.3023">
        <ele>85.1</ele>
        <time>2020-07-02T07:54:53Z</time>
      </trkpt>
      <trkpt lat="48.73614" lon="2.30232">
        <ele>85.1</ele>
        <time>2020-07-02T07:54:54Z</time>
      </trkpt>
      <trkpt lat="48.73616" lon="2.30233">
        <ele>85.1</ele>
        <time>2020-07-02T07:54:55Z</time>
      </trkpt>
      <trkpt lat="48.73616" lon="2.30235">
        <ele>85.1</ele>
        <time>2020-07-02T07:54:56Z</time>
      </trkpt>
      <trkpt lat="48.73617" lon="2.30236">
        <ele>85.1</ele>
        <time>2020-07-02T07:54:57Z</time>
      </trkpt>
      <trkpt lat="48.73617" lon="2.30239">
        <ele>85.2</ele>
        <time>2020-07-02T07:54:58Z</time>
      </trkpt>
      <trkpt lat="48.73618" lon="2.30241">
        <ele>85.2</ele>
        <time>2020-07-02T07:54:59Z</time>
      </trkpt>
      <trkpt lat="48.73618" lon="2.30242">
        <ele>85.2</ele>
        <time>2020-07-02T07:55:00Z</time>
      </trkpt>
      <trkpt lat="48.73618" lon="2.30244">
        <ele>85.2</ele>
        <time>2020-07-02T07:55:01Z</time>
      </trkpt>
      <trkpt lat="48.73619" lon="2.30246">
        <ele>85.2</ele>
        <time>2020-07-02T07:55:02Z</time>
      </trkpt>
      <trkpt lat="48.73619" lon="2.30247">
        <ele>85.3</ele>
        <time>2020-07-02T07:55:03Z</time>
      </trkpt>
      <trkpt lat="48.7362" lon="2.30249">
        <ele>85.3</ele>
        <time>2020-07-02T07:55:04Z</time>
      </trkpt>
      <trkpt lat="48.73619" lon="2.30251">
        <ele>85.3</ele>
        <time>2020-07-02T07:55:05Z</time>
      </trkpt>
      <trkpt lat="48.73618" lon="2.30251">
        <ele>85.3</ele>
        <time>2020-07-02T07:55:06Z</time>
      </trkpt>
      <trkpt lat="48.73617" lon="2.30252">
        <ele>85.3</ele>
        <time>2020-07-02T07:55:07Z</time>
      </trkpt>
      <trkpt lat="48.73616" lon="2.30252">
        <ele>85.3</ele>
        <time>2020-07-02T07:55:08Z</time>
      </trkpt>
      <trkpt lat="48.73615" lon="2.30252">
        <ele>85.4</ele>
        <time>2020-07-02T07:55:09Z</time>
      </trkpt>
      <trkpt lat="48.73614" lon="2.30253">
        <ele>85.4</ele>
        <time>2020-07-02T07:55:10Z</time>
      </trkpt>
      <trkpt lat="48.73613" lon="2.30253">
        <ele>85.4</ele>
        <time>2020-07-02T07:55:11Z</time>
      </trkpt>
      <trkpt lat="48.73612" lon="2.30253">
        <ele>85.4</ele>
        <time>2020-07-02T07:55:12Z</time>
      </trkpt>
      <trkpt lat="48.73611" lon="2.30253">
        <ele>85.4</ele>
        <time>2020-07-02T07:55:13Z</time>
      </trkpt>
      <trkpt lat="48.7361" lon="2.30254">
        <ele>85.4</ele>
        <time>2020-07-02T07:55:14Z</time>
      </trkpt>
      <trkpt lat="48.7361" lon="2.30254">
        <ele>85.4</ele>
        <time>2020-07-02T07:55:15Z</time>
      </trkpt>
      <trkpt lat="48.73609" lon="2.30254">
        <ele>85.4</ele>
        <time>2020-07-02T07:55:16Z</time>
      </trkpt>
      <trkpt lat="48.73608" lon="2.30255">
        <ele>85.5</ele>
        <time>2020-07-02T07:55:17Z</time>
      </trkpt>
      <trkpt lat="48.73607" lon="2.30255">
        <ele>85.5</ele>
        <time>2020-07-02T07:56:17Z</time>
      </trkpt>
      <trkpt lat="48.73606" lon="2.30255">
        <ele>85.5</ele>
        <time>2020-07-02T07:56:18Z</time>
      </trkpt>
      <trkpt lat="48.73605" lon="2.30256">
        <ele>85.5</ele>
        <time>2020-07-02T07:56:19Z</time>
      </trkpt>
      <trkpt lat="48.73604" lon="2.30256">
        <ele>85.4</ele>
        <time>2020-07-02T07:56:20Z</time>
      </trkpt>
      <trkpt lat="48.73603" lon="2.30256">
        <ele>85.4</ele>
        <time>2020-07-02T07:56:21Z</time>
      </trkpt>
      <trkpt lat="48.73602" lon="2.30257">
        <ele>85.4</ele>
        <time>2020-07-02T07:56:22Z</time>
      </trkpt>
      <trkpt lat="48.73601" lon="2.30257">
        <ele>85.4</ele>
        <time>2020-07-02T07:56:23Z</time>
      </trkpt>
      <trkpt lat="48.736" lon="2.30257">
        <ele>85.4</ele>
        <time>2020-07-02T07:56:24Z</time>
      </trkpt>
      <trkpt lat="48.73601" lon="2.30251">
        <ele>85.4</ele>
        <time>2020-07-02T07:56:25Z</time>
      </trkpt>
      <trkpt lat="48.73601" lon="2.30248">
        <ele>85.3</ele>
        <time>2020-07-02T07:56:26Z</time>
      </trkpt>
      <trkpt lat="48.73601" lon="2.30245">
        <ele>85.3</ele>
        <time>2020-07-02T07:56:27Z</time>
      </trkpt>
      <trkpt lat="48.73601" lon="2.30242">
        <ele>85.3</ele>
        <time>2020-07-02T07:56:28Z</time>
      </trkpt>
      <trkpt lat="48.73601" lon="2.30239">
        <ele>85.3</ele>
        <time>2020-07-02T07:56:29Z</time>
      </trkpt>
      <trkpt lat="48.736" lon="2.30236">
        <ele>85.2</ele>
        <time>2020-07-02T07:56:47Z</time>
      </trkpt>
      <trkpt lat="48.736" lon="2.30233">
        <ele>85.2</ele>
        <time>2020-07-02T07:56:48Z</time>
      </trkpt>
      <trkpt lat="48.736" lon="2.3023">
        <ele>85.2</ele>
        <time>2020-07-02T07:56:49Z</time>
      </trkpt>
      <trkpt lat="48.73599" lon="2.30227">
        <ele>85.1</ele>
        <time>2020-07-02T07:56:50Z</time>
      </trkpt>
      <trkpt lat="48.73598" lon="2.30227">
        <ele>85.1</ele>
        <time>2020-07-02T07:56:51Z</time>
      </trkpt>
      <trkpt lat="48.73597" lon="2.30228">
        <ele>85.1</ele>
        <time>2020-07-02T07:56:52Z</time>
      </trkpt>
      <trkpt lat="48.73597" lon="2.30227">
        <ele>85.1</ele>
        <time>2020-07-02T07:56:53Z</time>
      </trkpt>
      <trkpt lat="48.73597" lon="2.30227">
        <ele>85.1</ele>
        <time>2020-07-02T07:56:54Z</time>
      </trkpt>
      <trkpt lat="48.73598" lon="2.30226">
        <ele>85.1</ele>
        <time>2020-07-02T07:56:55Z</time>
      </trkpt>
      <trkpt lat="48.73598" lon="2.30227">
        <ele>85.1</ele>
        <time>2020-07-02T07:56:56Z</time>
      </trkpt>
      <trkpt lat="48.73598" lon="2.30227">
        <ele>85.1</ele>
        <time>2020-07-02T07:56:57Z</time>
      </trkpt>
      <trkpt lat="48.736" lon="2.30227">
        <ele>85.1</ele>
        <time>2020-07-02T07:56:58Z</time>
      </trkpt>
      <trkpt lat="48.736" lon="2.30227">
        <ele>85.1</ele>
        <time>2020-07-02T07:56:59Z</time>
      </trkpt>
      <trkpt lat="48.736" lon="2.30227">
        <ele>85.1</ele>
        <time>2020-07-02T07:57:00Z</time>
      </trkpt>
      <trkpt lat="48.73601" lon="2.30225">
        <ele>85.1</ele>
        <time>2020-07-02T07:57:01Z</time>
      </trkpt>
      <trkpt lat="48.73601" lon="2.30225">
        <ele>85.1</ele>
        <time>2020-07-02T07:57:02Z</time>
      </trkpt>
      <trkpt lat="48.73602" lon="2.30223">
        <ele>85.1</ele>
        <time>2020-07-02T07:57:03Z</time>
      </trkpt>
      <trkpt lat="48.73603" lon="2.30221">
        <ele>85.1</ele>
        <time>2020-07-02T07:57:04Z</time>
      </trkpt>
      <trkpt lat="48.73603" lon="2.3022">
        <ele>85.1</ele>
        <time>2020-07-02T07:57:05Z</time>
      </trkpt>
      <trkpt lat="48.73603" lon="2.3022">
        <ele>85.1</ele>
        <time>2020-07-02T07:57:06Z</time>
      </trkpt>
      <trkpt lat="48.73603" lon="2.30219">
        <ele>85.1</ele>
        <time>2020-07-02T07:57:07Z</time>
      </trkpt>
      <trkpt lat="48.73603" lon="2.30218">
        <ele>85.1</ele>
        <time>2020-07-02T07:57:08Z</time>
      </trkpt>
      <trkpt lat="48.73603" lon="2.30218">
        <ele>85.1</ele>
        <time>2020-07-02T07:57:09Z</time>
      </trkpt>
      <trkpt lat="48.73605" lon="2.30214">
        <ele>85</ele>
        <time>2020-07-02T07:57:10Z</time>
      </trkpt>
      <trkpt lat="48.73606" lon="2.30213">
        <ele>85</ele>
        <time>2020-07-02T07:57:11Z</time>
      </trkpt>
      <trkpt lat="48.73608" lon="2.30211">
        <ele>85</ele>
        <time>2020-07-02T07:57:12Z</time>
      </trkpt>
      <trkpt lat="48.73609" lon="2.30211">
        <ele>85</ele>
        <time>2020-07-02T07:57:13Z</time>
      </trkpt>
      <trkpt lat="48.7361" lon="2.3021">
        <ele>85</ele>
        <time>2020-07-02T07:57:14Z</time>
      </trkpt>
      <trkpt lat="48.73611" lon="2.30209">
        <ele>85</ele>
        <time>2020-07-02T07:57:15Z</time>
      </trkpt>
      <trkpt lat="48.73613" lon="2.30209">
        <ele>85</ele>
        <time>2020-07-02T07:57:16Z</time>
      </trkpt>
      <trkpt lat="48.73615" lon="2.3021">
        <ele>85</ele>
        <time>2020-07-02T07:57:17Z</time>
      </trkpt>
      <trkpt lat="48.73616" lon="2.30212">
        <ele>85</ele>
        <time>2020-07-02T07:57:18Z</time>
      </trkpt>
      <trkpt lat="48.73617" lon="2.30214">
        <ele>84.9</ele>
        <time>2020-07-02T07:57:19Z</time>
      </trkpt>
      <trkpt lat="48.73618" lon="2.30215">
        <ele>84.9</ele>
        <time>2020-07-02T07:57:20Z</time>
      </trkpt>
      <trkpt lat="48.73619" lon="2.30223">
        <ele>85</ele>
        <time>2020-07-02T07:57:21Z</time>
      </trkpt>
      <trkpt lat="48.73619" lon="2.30226">
        <ele>85</ele>
        <time>2020-07-02T07:57:22Z</time>
      </trkpt>
      <trkpt lat="48.73617" lon="2.30233">
        <ele>85.1</ele>
        <time>2020-07-02T07:57:23Z</time>
      </trkpt>
      <trkpt lat="48.73617" lon="2.30235">
        <ele>85.1</ele>
        <time>2020-07-02T07:57:24Z</time>
      </trkpt>
      <trkpt lat="48.73616" lon="2.30237">
        <ele>85.1</ele>
        <time>2020-07-02T07:57:25Z</time>
      </trkpt>
      <trkpt lat="48.73616" lon="2.3024">
        <ele>85.2</ele>
        <time>2020-07-02T07:57:26Z</time>
      </trkpt>
      <trkpt lat="48.73615" lon="2.30245">
        <ele>85.3</ele>
        <time>2020-07-02T07:57:27Z</time>
      </trkpt>
      <trkpt lat="48.73614" lon="2.30246">
        <ele>85.3</ele>
        <time>2020-07-02T07:57:28Z</time>
      </trkpt>
      <trkpt lat="48.73613" lon="2.30247">
        <ele>85.3</ele>
        <time>2020-07-02T07:57:29Z</time>
      </trkpt>
      <trkpt lat="48.73613" lon="2.30248">
        <ele>85.3</ele>
        <time>2020-07-02T07:57:30Z</time>
      </trkpt>
      <trkpt lat="48.73612" lon="2.30249">
        <ele>85.4</ele>
        <time>2020-07-02T07:57:31Z</time>
      </trkpt>
      <trkpt lat="48.73614" lon="2.30243">
        <ele>85.2</ele>
        <time>2020-07-02T07:57:32Z</time>
      </trkpt>
      <trkpt lat="48.73612" lon="2.30246">
        <ele>85.3</ele>
        <time>2020-07-02T07:57:33Z</time>
      </trkpt>
      <trkpt lat="48.73612" lon="2.30247">
        <ele>85.3</ele>
        <time>2020-07-02T07:57:34Z</time>
      </trkpt>
      <trkpt lat="48.73612" lon="2.30247">
        <ele>85.3</ele>
        <time>2020-07-02T07:57:35Z</time>
      </trkpt>
      <trkpt lat="48.73612" lon="2.30248">
        <ele>85.3</ele>
        <time>2020-07-02T07:57:36Z</time>
      </trkpt>
      <trkpt lat="48.73611" lon="2.30249">
        <ele>85.4</ele>
        <time>2020-07-02T07:57:37Z</time>
      </trkpt>
      <trkpt lat="48.73611" lon="2.3025">
        <ele>85.4</ele>
        <time>2020-07-02T07:57:38Z</time>
      </trkpt>
      <trkpt lat="48.7361" lon="2.3025">
        <ele>85.4</ele>
        <time>2020-07-02T07:57:39Z</time>
      </trkpt>
      <trkpt lat="48.73609" lon="2.30251">
        <ele>85.4</ele>
        <time>2020-07-02T07:57:40Z</time>
      </trkpt>
      <trkpt lat="48.73608" lon="2.30253">
        <ele>85.4</ele>
        <time>2020-07-02T07:57:41Z</time>
      </trkpt>
      <trkpt lat="48.73608" lon="2.30255">
        <ele>85.5</ele>
        <time>2020-07-02T07:57:42Z</time>
      </trkpt>
      <trkpt lat="48.73608" lon="2.30257">
        <ele>85.5</ele>
        <time>2020-07-02T07:57:43Z</time>
      </trkpt>
      <trkpt lat="48.73608" lon="2.30259">
        <ele>85.5</ele>
        <time>2020-07-02T07:57:44Z</time>
      </trkpt>
      <trkpt lat="48.73608" lon="2.30261">
        <ele>85.5</ele>
        <time>2020-07-02T07:57:45Z</time>
      </trkpt>
      <trkpt lat="48.73608" lon="2.30263">
        <ele>85.6</ele>
        <time>2020-07-02T07:57:46Z</time>
      </trkpt>
      <trkpt lat="48.73607" lon="2.30264">
        <ele>85.6</ele>
        <time>2020-07-02T07:57:47Z</time>
      </trkpt>
      <trkpt lat="48.73607" lon="2.30265">
        <ele>85.6</ele>
        <time>2020-07-02T07:57:48Z</time>
      </trkpt>
      <trkpt lat="48.73606" lon="2.30266">
        <ele>85.6</ele>
        <time>2020-07-02T07:57:49Z</time>
      </trkpt>
      <trkpt lat="48.73606" lon="2.30266">
        <ele>85.6</ele>
        <time>2020-07-02T07:57:50Z</time>
      </trkpt>
      <trkpt lat="48.73605" lon="2.30267">
        <ele>85.6</ele>
        <time>2020-07-02T07:57:51Z</time>
      </trkpt>
      <trkpt lat="48.73604" lon="2.30269">
        <ele>85.7</ele>
        <time>2020-07-02T07:57:52Z</time>
      </trkpt>
      <trkpt lat="48.73605" lon="2.30269">
        <ele>85.7</ele>
        <time>2020-07-02T07:57:53Z</time>
      </trkpt>
      <trkpt lat="48.73605" lon="2.30268">
        <ele>85.7</ele>
        <time>2020-07-02T07:57:54Z</time>
      </trkpt>
      <trkpt lat="48.73604" lon="2.3027">
        <ele>85.6</ele>
        <time>2020-07-02T07:57:55Z</time>
      </trkpt>
      <trkpt lat="48.73602" lon="2.30269">
        <ele>85.6</ele>
        <time>2020-07-02T07:57:56Z</time>
      </trkpt>
      <trkpt lat="48.73602" lon="2.30269">
        <ele>85.6</ele>
        <time>2020-07-02T07:57:57Z</time>
      </trkpt>
      <trkpt lat="48.73601" lon="2.30271">
        <ele>85.6</ele>
        <time>2020-07-02T07:57:58Z</time>
      </trkpt>
      <trkpt lat="48.73601" lon="2.30272">
        <ele>85.6</ele>
        <time>2020-07-02T07:57:59Z</time>
      </trkpt>
      <trkpt lat="48.736" lon="2.30273">
        <ele>85.6</ele>
        <time>2020-07-02T07:58:00Z</time>
      </trkpt>
      <trkpt lat="48.736" lon="2.30274">
        <ele>85.6</ele>
        <time>2020-07-02T07:58:01Z</time>
      </trkpt>
      <trkpt lat="48.73598" lon="2.30272">
        <ele>85.6</ele>
        <time>2020-07-02T07:58:02Z</time>
      </trkpt>
      <trkpt lat="48.73598" lon="2.30272">
        <ele>85.6</ele>
        <time>2020-07-02T07:58:03Z</time>
      </trkpt>
      <trkpt lat="48.73599" lon="2.3027">
        <ele>85.6</ele>
        <time>2020-07-02T07:58:04Z</time>
      </trkpt>
      <trkpt lat="48.73599" lon="2.3027">
        <ele>85.6</ele>
        <time>2020-07-02T07:58:05Z</time>
      </trkpt>
      <trkpt lat="48.73599" lon="2.3027">
        <ele>85.6</ele>
        <time>2020-07-02T07:58:06Z</time>
      </trkpt>
      <trkpt lat="48.73599" lon="2.30271">
        <ele>85.6</ele>
        <time>2020-07-02T07:58:07Z</time>
      </trkpt>
      <trkpt lat="48.73599" lon="2.30271">
        <ele>85.6</ele>
        <time>2020-07-02T07:58:08Z</time>
      </trkpt>
      <trkpt lat="48.73596" lon="2.30265">
        <ele>85.6</ele>
        <time>2020-07-02T07:58:30Z</time>
      </trkpt>
      <trkpt lat="48.73597" lon="2.30265">
        <ele>85.6</ele>
        <time>2020-07-02T07:58:31Z</time>
      </trkpt>
      <trkpt lat="48.73597" lon="2.30262">
        <ele>85.5</ele>
        <time>2020-07-02T07:58:32Z</time>
      </trkpt>
      <trkpt lat="48.73597" lon="2.30262">
        <ele>85.5</ele>
        <time>2020-07-02T07:58:33Z</time>
      </trkpt>
      <trkpt lat="48.73598" lon="2.30262">
        <ele>85.5</ele>
        <time>2020-07-02T07:58:34Z</time>
      </trkpt>
      <trkpt lat="48.73598" lon="2.30262">
        <ele>85.5</ele>
        <time>2020-07-02T07:58:35Z</time>
      </trkpt>
      <trkpt lat="48.73598" lon="2.30261">
        <ele>85.5</ele>
        <time>2020-07-02T07:58:36Z</time>
      </trkpt>
      <trkpt lat="48.73598" lon="2.3026">
        <ele>85.5</ele>
        <time>2020-07-02T07:58:37Z</time>
      </trkpt>
      <trkpt lat="48.73598" lon="2.30257">
        <ele>85.5</ele>
        <time>2020-07-02T07:58:38Z</time>
      </trkpt>
      <trkpt lat="48.73597" lon="2.30256">
        <ele>85.5</ele>
        <time>2020-07-02T07:58:39Z</time>
      </trkpt>
      <trkpt lat="48.73597" lon="2.30256">
        <ele>85.5</ele>
        <time>2020-07-02T07:58:40Z</time>
      </trkpt>
      <trkpt lat="48.73597" lon="2.30256">
        <ele>85.5</ele>
        <time>2020-07-02T07:58:41Z</time>
      </trkpt>
      <trkpt lat="48.73597" lon="2.30256">
        <ele>85.5</ele>
        <time>2020-07-02T07:58:42Z</time>
      </trkpt>
      <trkpt lat="48.73596" lon="2.30255">
        <ele>85.5</ele>
        <time>2020-07-02T07:58:43Z</time>
      </trkpt>
      <trkpt lat="48.73596" lon="2.30254">
        <ele>85.5</ele>
        <time>2020-07-02T07:58:44Z</time>
      </trkpt>
      <trkpt lat="48.73595" lon="2.30252">
        <ele>85.5</ele>
        <time>2020-07-02T07:58:45Z</time>
      </trkpt>
      <trkpt lat="48.73594" lon="2.3025">
        <ele>85.5</ele>
        <time>2020-07-02T07:58:46Z</time>
      </trkpt>
      <trkpt lat="48.73594" lon="2.30249">
        <ele>85.5</ele>
        <time>2020-07-02T07:58:47Z</time>
      </trkpt>
      <trkpt lat="48.73594" lon="2.30247">
        <ele>85.5</ele>
        <time>2020-07-02T07:58:48Z</time>
      </trkpt>
      <trkpt lat="48.73594" lon="2.30246">
        <ele>85.5</ele>
        <time>2020-07-02T07:58:49Z</time>
      </trkpt>
      <trkpt lat="48.73594" lon="2.30245">
        <ele>85.5</ele>
        <time>2020-07-02T07:58:50Z</time>
      </trkpt>
      <trkpt lat="48.73594" lon="2.30245">
        <ele>85.5</ele>
        <time>2020-07-02T07:58:51Z</time>
      </trkpt>
      <trkpt lat="48.73594" lon="2.30244">
        <ele>85.5</ele>
        <time>2020-07-02T07:58:52Z</time>
      </trkpt>
      <trkpt lat="48.73594" lon="2.30244">
        <ele>85.5</ele>
        <time>2020-07-02T07:58:53Z</time>
      </trkpt>
      <trkpt lat="48.73594" lon="2.30245">
        <ele>85.5</ele>
        <time>2020-07-02T07:58:54Z</time>
      </trkpt>
      <trkpt lat="48.73594" lon="2.30244">
        <ele>85.5</ele>
        <time>2020-07-02T07:58:55Z</time>
      </trkpt>
      <trkpt lat="48.73594" lon="2.30243">
        <ele>85.5</ele>
        <time>2020-07-02T07:58:56Z</time>
      </trkpt>
      <trkpt lat="48.73594" lon="2.30242">
        <ele>85.4</ele>
        <time>2020-07-02T07:58:57Z</time>
      </trkpt>
      <trkpt lat="48.73594" lon="2.30242">
        <ele>85.4</ele>
        <time>2020-07-02T07:58:58Z</time>
      </trkpt>
      <trkpt lat="48.73594" lon="2.30242">
        <ele>85.4</ele>
        <time>2020-07-02T07:58:59Z</time>
      </trkpt>
      <trkpt lat="48.73594" lon="2.30242">
        <ele>85.4</ele>
        <time>2020-07-02T07:59:00Z</time>
      </trkpt>
      <trkpt lat="48.73593" lon="2.30242">
        <ele>85.4</ele>
        <time>2020-07-02T07:59:01Z</time>
      </trkpt>
      <trkpt lat="48.73594" lon="2.30241">
        <ele>85.4</ele>
        <time>2020-07-02T07:59:02Z</time>
      </trkpt>
      <trkpt lat="48.73594" lon="2.30241">
        <ele>85.4</ele>
        <time>2020-07-02T07:59:03Z</time>
      </trkpt>
      <trkpt lat="48.73594" lon="2.30242">
        <ele>85.4</ele>
        <time>2020-07-02T07:59:04Z</time>
      </trkpt>
      <trkpt lat="48.73595" lon="2.30244">
        <ele>85.4</ele>
        <time>2020-07-02T07:59:05Z</time>
      </trkpt>
      <trkpt lat="48.73595" lon="2.30245">
        <ele>85.4</ele>
        <time>2020-07-02T07:59:06Z</time>
      </trkpt>
      <trkpt lat="48.73593" lon="2.30249">
        <ele>85.4</ele>
        <time>2020-07-02T07:59:07Z</time>
      </trkpt>
      <trkpt lat="48.73599" lon="2.30235">
        <ele>85.3</ele>
        <time>2020-07-02T07:59:38Z</time>
      </trkpt>
      <trkpt lat="48.73599" lon="2.30233">
        <ele>85.3</ele>
        <time>2020-07-02T07:59:39Z</time>
      </trkpt>
      <trkpt lat="48.736" lon="2.30233">
        <ele>85.3</ele>
        <time>2020-07-02T07:59:40Z</time>
      </trkpt>
      <trkpt lat="48.736" lon="2.30233">
        <ele>85.3</ele>
        <time>2020-07-02T07:59:41Z</time>
      </trkpt>
      <trkpt lat="48.736" lon="2.30233">
        <ele>85.3</ele>
        <time>2020-07-02T07:59:42Z</time>
      </trkpt>
      <trkpt lat="48.736" lon="2.30234">
        <ele>85.3</ele>
        <time>2020-07-02T07:59:43Z</time>
      </trkpt>
      <trkpt lat="48.73601" lon="2.30234">
        <ele>85.3</ele>
        <time>2020-07-02T07:59:44Z</time>
      </trkpt>
      <trkpt lat="48.73601" lon="2.30234">
        <ele>85.3</ele>
        <time>2020-07-02T07:59:45Z</time>
      </trkpt>
      <trkpt lat="48.736" lon="2.30235">
        <ele>85.3</ele>
        <time>2020-07-02T07:59:46Z</time>
      </trkpt>
      <trkpt lat="48.73598" lon="2.30237">
        <ele>85.3</ele>
        <time>2020-07-02T07:59:47Z</time>
      </trkpt>
      <trkpt lat="48.73598" lon="2.30237">
        <ele>85.3</ele>
        <time>2020-07-02T07:59:48Z</time>
      </trkpt>
      <trkpt lat="48.73597" lon="2.30238">
        <ele>85.3</ele>
        <time>2020-07-02T07:59:49Z</time>
      </trkpt>
      <trkpt lat="48.73599" lon="2.30206">
        <ele>84.9</ele>
        <time>2020-07-02T08:03:48Z</time>
      </trkpt>
      <trkpt lat="48.73598" lon="2.30206">
        <ele>84.9</ele>
        <time>2020-07-02T08:03:49Z</time>
      </trkpt>
      <trkpt lat="48.73598" lon="2.30205">
        <ele>84.9</ele>
        <time>2020-07-02T08:03:50Z</time>
      </trkpt>
      <trkpt lat="48.73598" lon="2.30205">
        <ele>84.9</ele>
        <time>2020-07-02T08:03:51Z</time>
      </trkpt>
      <trkpt lat="48.73598" lon="2.30205">
        <ele>84.9</ele>
        <time>2020-07-02T08:03:52Z</time>
      </trkpt>
      <trkpt lat="48.73598" lon="2.30203">
        <ele>84.9</ele>
        <time>2020-07-02T08:03:53Z</time>
      </trkpt>
      <trkpt lat="48.73599" lon="2.30203">
        <ele>84.9</ele>
        <time>2020-07-02T08:03:54Z</time>
      </trkpt>
      <trkpt lat="48.73599" lon="2.30201">
        <ele>84.9</ele>
        <time>2020-07-02T08:03:55Z</time>
      </trkpt>
      <trkpt lat="48.73598" lon="2.302">
        <ele>84.9</ele>
        <time>2020-07-02T08:03:56Z</time>
      </trkpt>
      <trkpt lat="48.73599" lon="2.302">
        <ele>84.8</ele>
        <time>2020-07-02T08:03:57Z</time>
      </trkpt>
      <trkpt lat="48.73599" lon="2.30199">
        <ele>84.8</ele>
        <time>2020-07-02T08:03:58Z</time>
      </trkpt>
      <trkpt lat="48.73599" lon="2.30199">
        <ele>84.8</ele>
        <time>2020-07-02T08:03:59Z</time>
      </trkpt>
      <trkpt lat="48.73598" lon="2.302">
        <ele>84.8</ele>
        <time>2020-07-02T08:04:00Z</time>
      </trkpt>
      <trkpt lat="48.73599" lon="2.30201">
        <ele>84.8</ele>
        <time>2020-07-02T08:04:01Z</time>
      </trkpt>
      <trkpt lat="48.73599" lon="2.30201">
        <ele>84.8</ele>
        <time>2020-07-02T08:04:02Z</time>
      </trkpt>
      <trkpt lat="48.73598" lon="2.30201">
        <ele>84.8</ele>
        <time>2020-07-02T08:04:03Z</time>
      </trkpt>
      <trkpt lat="48.73598" lon="2.30202">
        <ele>84.8</ele>
        <time>2020-07-02T08:04:04Z</time>
      </trkpt>
      <trkpt lat="48.73598" lon="2.30202">
        <ele>84.8</ele>
        <time>2020-07-02T08:04:05Z</time>
      </trkpt>
      <trkpt lat="48.73598" lon="2.30202">
        <ele>84.8</ele>
        <time>2020-07-02T08:04:06Z</time>
      </trkpt>
      <trkpt lat="48.73598" lon="2.30202">
        <ele>84.8</ele>
        <time>2020-07-02T08:04:07Z</time>
      </trkpt>
      <trkpt lat="48.73598" lon="2.30202">
        <ele>84.8</ele>
        <time>2020-07-02T08:04:08Z</time>
      </trkpt>
      <trkpt lat="48.73598" lon="2.30202">
        <ele>84.8</ele>
        <time>2020-07-02T08:04:09Z</time>
      </trkpt>
      <trkpt lat="48.73598" lon="2.30202">
        <ele>84.8</ele>
        <time>2020-07-02T08:04:10Z</time>
      </trkpt>
      <trkpt lat="48.73598" lon="2.30202">
        <ele>84.8</ele>
        <time>2020-07-02T08:04:11Z</time>
      </trkpt>
      <trkpt lat="48.73598" lon="2.30202">
        <ele>84.8</ele>
        <time>2020-07-02T08:04:12Z</time>
      </trkpt>
      <trkpt lat="48.73598" lon="2.30202">
        <ele>84.8</ele>
        <time>2020-07-02T08:04:13Z</time>
      </trkpt>
      <trkpt lat="48.73598" lon="2.30202">
        <ele>84.8</ele>
        <time>2020-07-02T08:04:14Z</time>
      </trkpt>
      <trkpt lat="48.73595" lon="2.30187">
        <ele>84.7</ele>
        <time>2020-07-02T08:04:37Z</time>
      </trkpt>
      <trkpt lat="48.73594" lon="2.30185">
        <ele>84.3</ele>
        <time>2020-07-02T08:04:38Z</time>
      </trkpt>
      <trkpt lat="48.73593" lon="2.30179">
        <ele>84.3</ele>
        <time>2020-07-02T08:04:39Z</time>
      </trkpt>
      <trkpt lat="48.73593" lon="2.30177">
        <ele>84.3</ele>
        <time>2020-07-02T08:04:40Z</time>
      </trkpt>
      <trkpt lat="48.73593" lon="2.30174">
        <ele>84.3</ele>
        <time>2020-07-02T08:04:41Z</time>
      </trkpt>
      <trkpt lat="48.73593" lon="2.30173">
        <ele>84.3</ele>
        <time>2020-07-02T08:04:42Z</time>
      </trkpt>
      <trkpt lat="48.73593" lon="2.30169">
        <ele>84.4</ele>
        <time>2020-07-02T08:04:43Z</time>
      </trkpt>
      <trkpt lat="48.73593" lon="2.30167">
        <ele>84.4</ele>
        <time>2020-07-02T08:04:44Z</time>
      </trkpt>
      <trkpt lat="48.73591" lon="2.3016">
        <ele>84.4</ele>
        <time>2020-07-02T08:04:45Z</time>
      </trkpt>
      <trkpt lat="48.73591" lon="2.30156">
        <ele>84.4</ele>
        <time>2020-07-02T08:04:46Z</time>
      </trkpt>
      <trkpt lat="48.73589" lon="2.30153">
        <ele>84.4</ele>
        <time>2020-07-02T08:04:47Z</time>
      </trkpt>
      <trkpt lat="48.73586" lon="2.30153">
        <ele>84.4</ele>
        <time>2020-07-02T08:04:48Z</time>
      </trkpt>
      <trkpt lat="48.73583" lon="2.30151">
        <ele>84.4</ele>
        <time>2020-07-02T08:04:49Z</time>
      </trkpt>
      <trkpt lat="48.73578" lon="2.3015">
        <ele>84.5</ele>
        <time>2020-07-02T08:04:50Z</time>
      </trkpt>
      <trkpt lat="48.73574" lon="2.30149">
        <ele>84.7</ele>
        <time>2020-07-02T08:04:51Z</time>
      </trkpt>
      <trkpt lat="48.73569" lon="2.30148">
        <ele>84.8</ele>
        <time>2020-07-02T08:04:52Z</time>
      </trkpt>
      <trkpt lat="48.73565" lon="2.30147">
        <ele>84.8</ele>
        <time>2020-07-02T08:04:53Z</time>
      </trkpt>
      <trkpt lat="48.73562" lon="2.30146">
        <ele>85</ele>
        <time>2020-07-02T08:04:54Z</time>
      </trkpt>
      <trkpt lat="48.73559" lon="2.30145">
        <ele>85</ele>
        <time>2020-07-02T08:04:55Z</time>
      </trkpt>
      <trkpt lat="48.73556" lon="2.30143">
        <ele>85.1</ele>
        <time>2020-07-02T08:04:56Z</time>
      </trkpt>
      <trkpt lat="48.73552" lon="2.30141">
        <ele>85.2</ele>
        <time>2020-07-02T08:04:57Z</time>
      </trkpt>
      <trkpt lat="48.73549" lon="2.30139">
        <ele>85.3</ele>
        <time>2020-07-02T08:04:58Z</time>
      </trkpt>
      <trkpt lat="48.73546" lon="2.30137">
        <ele>85.4</ele>
        <time>2020-07-02T08:04:59Z</time>
      </trkpt>
      <trkpt lat="48.73542" lon="2.30135">
        <ele>85.5</ele>
        <time>2020-07-02T08:05:00Z</time>
      </trkpt>
      <trkpt lat="48.73538" lon="2.30134">
        <ele>85.6</ele>
        <time>2020-07-02T08:05:01Z</time>
      </trkpt>
      <trkpt lat="48.73534" lon="2.30132">
        <ele>85.7</ele>
        <time>2020-07-02T08:05:02Z</time>
      </trkpt>
      <trkpt lat="48.7353" lon="2.30131">
        <ele>85.8</ele>
        <time>2020-07-02T08:05:03Z</time>
      </trkpt>
      <trkpt lat="48.73525" lon="2.3013">
        <ele>86</ele>
        <time>2020-07-02T08:05:04Z</time>
      </trkpt>
      <trkpt lat="48.73521" lon="2.30128">
        <ele>86.1</ele>
        <time>2020-07-02T08:05:05Z</time>
      </trkpt>
      <trkpt lat="48.73516" lon="2.30127">
        <ele>86.3</ele>
        <time>2020-07-02T08:05:06Z</time>
      </trkpt>
      <trkpt lat="48.73511" lon="2.30126">
        <ele>86.4</ele>
        <time>2020-07-02T08:05:07Z</time>
      </trkpt>
      <trkpt lat="48.73506" lon="2.30124">
        <ele>86.5</ele>
        <time>2020-07-02T08:05:08Z</time>
      </trkpt>
      <trkpt lat="48.73501" lon="2.30123">
        <ele>86.6</ele>
        <time>2020-07-02T08:05:09Z</time>
      </trkpt>
      <trkpt lat="48.73496" lon="2.30121">
        <ele>86.8</ele>
        <time>2020-07-02T08:05:10Z</time>
      </trkpt>
      <trkpt lat="48.73491" lon="2.3012">
        <ele>86.9</ele>
        <time>2020-07-02T08:05:11Z</time>
      </trkpt>
      <trkpt lat="48.73486" lon="2.30118">
        <ele>87.1</ele>
        <time>2020-07-02T08:05:12Z</time>
      </trkpt>
      <trkpt lat="48.7348" lon="2.30118">
        <ele>87.2</ele>
        <time>2020-07-02T08:05:13Z</time>
      </trkpt>
      <trkpt lat="48.73475" lon="2.30116">
        <ele>87.4</ele>
        <time>2020-07-02T08:05:14Z</time>
      </trkpt>
      <trkpt lat="48.7347" lon="2.30114">
        <ele>87.5</ele>
        <time>2020-07-02T08:05:15Z</time>
      </trkpt>
      <trkpt lat="48.73465" lon="2.30113">
        <ele>87.7</ele>
        <time>2020-07-02T08:05:16Z</time>
      </trkpt>
      <trkpt lat="48.7346" lon="2.30112">
        <ele>87.8</ele>
        <time>2020-07-02T08:05:17Z</time>
      </trkpt>
      <trkpt lat="48.73455" lon="2.3011">
        <ele>88</ele>
        <time>2020-07-02T08:05:18Z</time>
      </trkpt>
      <trkpt lat="48.7345" lon="2.30109">
        <ele>88.1</ele>
        <time>2020-07-02T08:05:19Z</time>
      </trkpt>
      <trkpt lat="48.73445" lon="2.30108">
        <ele>88.3</ele>
        <time>2020-07-02T08:05:20Z</time>
      </trkpt>
      <trkpt lat="48.7344" lon="2.30107">
        <ele>88.4</ele>
        <time>2020-07-02T08:05:21Z</time>
      </trkpt>
      <trkpt lat="48.73435" lon="2.30105">
        <ele>88.6</ele>
        <time>2020-07-02T08:05:22Z</time>
      </trkpt>
      <trkpt lat="48.73429" lon="2.30105">
        <ele>88.7</ele>
        <time>2020-07-02T08:05:23Z</time>
      </trkpt>
      <trkpt lat="48.73424" lon="2.30103">
        <ele>88.8</ele>
        <time>2020-07-02T08:05:24Z</time>
      </trkpt>
      <trkpt lat="48.73419" lon="2.30103">
        <ele>88.9</ele>
        <time>2020-07-02T08:05:25Z</time>
      </trkpt>
      <trkpt lat="48.73414" lon="2.30102">
        <ele>89</ele>
        <time>2020-07-02T08:05:26Z</time>
      </trkpt>
      <trkpt lat="48.73409" lon="2.30102">
        <ele>89.1</ele>
        <time>2020-07-02T08:05:27Z</time>
      </trkpt>
      <trkpt lat="48.73405" lon="2.30102">
        <ele>89.2</ele>
        <time>2020-07-02T08:05:28Z</time>
      </trkpt>
      <trkpt lat="48.73401" lon="2.30102">
        <ele>89.2</ele>
        <time>2020-07-02T08:05:29Z</time>
      </trkpt>
      <trkpt lat="48.73396" lon="2.30102">
        <ele>89.3</ele>
        <time>2020-07-02T08:05:30Z</time>
      </trkpt>
      <trkpt lat="48.73391" lon="2.30102">
        <ele>89.4</ele>
        <time>2020-07-02T08:05:31Z</time>
      </trkpt>
      <trkpt lat="48.73386" lon="2.30101">
        <ele>89.5</ele>
        <time>2020-07-02T08:05:32Z</time>
      </trkpt>
      <trkpt lat="48.73381" lon="2.301">
        <ele>89.6</ele>
        <time>2020-07-02T08:05:33Z</time>
      </trkpt>
      <trkpt lat="48.73376" lon="2.30099">
        <ele>89.6</ele>
        <time>2020-07-02T08:05:34Z</time>
      </trkpt>
      <trkpt lat="48.73371" lon="2.30099">
        <ele>89.7</ele>
        <time>2020-07-02T08:05:35Z</time>
      </trkpt>
      <trkpt lat="48.73366" lon="2.301">
        <ele>89.7</ele>
        <time>2020-07-02T08:05:36Z</time>
      </trkpt>
      <trkpt lat="48.73361" lon="2.30099">
        <ele>89.7</ele>
        <time>2020-07-02T08:05:37Z</time>
      </trkpt>
      <trkpt lat="48.73356" lon="2.30099">
        <ele>89.8</ele>
        <time>2020-07-02T08:05:38Z</time>
      </trkpt>
      <trkpt lat="48.7335" lon="2.30098">
        <ele>89.8</ele>
        <time>2020-07-02T08:05:39Z</time>
      </trkpt>
      <trkpt lat="48.73345" lon="2.30097">
        <ele>89.9</ele>
        <time>2020-07-02T08:05:40Z</time>
      </trkpt>
      <trkpt lat="48.7334" lon="2.30094">
        <ele>90</ele>
        <time>2020-07-02T08:05:41Z</time>
      </trkpt>
      <trkpt lat="48.73334" lon="2.30091">
        <ele>90.1</ele>
        <time>2020-07-02T08:05:42Z</time>
      </trkpt>
      <trkpt lat="48.73328" lon="2.30089">
        <ele>90.2</ele>
        <time>2020-07-02T08:05:43Z</time>
      </trkpt>
      <trkpt lat="48.73322" lon="2.30087">
        <ele>90.3</ele>
        <time>2020-07-02T08:05:44Z</time>
      </trkpt>
      <trkpt lat="48.73316" lon="2.30085">
        <ele>90.3</ele>
        <time>2020-07-02T08:05:45Z</time>
      </trkpt>
      <trkpt lat="48.73309" lon="2.30084">
        <ele>90.3</ele>
        <time>2020-07-02T08:05:46Z</time>
      </trkpt>
      <trkpt lat="48.73303" lon="2.30082">
        <ele>90.3</ele>
        <time>2020-07-02T08:05:47Z</time>
      </trkpt>
      <trkpt lat="48.73297" lon="2.30081">
        <ele>90.3</ele>
        <time>2020-07-02T08:05:48Z</time>
      </trkpt>
      <trkpt lat="48.73291" lon="2.3008">
        <ele>90.3</ele>
        <time>2020-07-02T08:05:49Z</time>
      </trkpt>
      <trkpt lat="48.73285" lon="2.30078">
        <ele>90.4</ele>
        <time>2020-07-02T08:05:50Z</time>
      </trkpt>
      <trkpt lat="48.7328" lon="2.30078">
        <ele>90.4</ele>
        <time>2020-07-02T08:05:51Z</time>
      </trkpt>
      <trkpt lat="48.73274" lon="2.30078">
        <ele>90.5</ele>
        <time>2020-07-02T08:05:52Z</time>
      </trkpt>
      <trkpt lat="48.73269" lon="2.30077">
        <ele>90.5</ele>
        <time>2020-07-02T08:05:53Z</time>
      </trkpt>
      <trkpt lat="48.73263" lon="2.30076">
        <ele>90.6</ele>
        <time>2020-07-02T08:05:54Z</time>
      </trkpt>
      <trkpt lat="48.73258" lon="2.30075">
        <ele>90.6</ele>
        <time>2020-07-02T08:05:55Z</time>
      </trkpt>
      <trkpt lat="48.73253" lon="2.30074">
        <ele>90.7</ele>
        <time>2020-07-02T08:05:56Z</time>
      </trkpt>
      <trkpt lat="48.73247" lon="2.30073">
        <ele>90.7</ele>
        <time>2020-07-02T08:05:57Z</time>
      </trkpt>
      <trkpt lat="48.73241" lon="2.30072">
        <ele>90.8</ele>
        <time>2020-07-02T08:05:58Z</time>
      </trkpt>
      <trkpt lat="48.73236" lon="2.30071">
        <ele>90.9</ele>
        <time>2020-07-02T08:05:59Z</time>
      </trkpt>
      <trkpt lat="48.7323" lon="2.3007">
        <ele>90.9</ele>
        <time>2020-07-02T08:06:00Z</time>
      </trkpt>
      <trkpt lat="48.73223" lon="2.30069">
        <ele>90.9</ele>
        <time>2020-07-02T08:06:01Z</time>
      </trkpt>
      <trkpt lat="48.73217" lon="2.30067">
        <ele>90.9</ele>
        <time>2020-07-02T08:06:02Z</time>
      </trkpt>
      <trkpt lat="48.73212" lon="2.30066">
        <ele>90.9</ele>
        <time>2020-07-02T08:06:03Z</time>
      </trkpt>
      <trkpt lat="48.73207" lon="2.30064">
        <ele>90.9</ele>
        <time>2020-07-02T08:06:04Z</time>
      </trkpt>
      <trkpt lat="48.73201" lon="2.30063">
        <ele>91</ele>
        <time>2020-07-02T08:06:05Z</time>
      </trkpt>
      <trkpt lat="48.73195" lon="2.3006">
        <ele>91</ele>
        <time>2020-07-02T08:06:06Z</time>
      </trkpt>
      <trkpt lat="48.73189" lon="2.30059">
        <ele>91</ele>
        <time>2020-07-02T08:06:07Z</time>
      </trkpt>
      <trkpt lat="48.73183" lon="2.30058">
        <ele>91</ele>
        <time>2020-07-02T08:06:08Z</time>
      </trkpt>
      <trkpt lat="48.73176" lon="2.30056">
        <ele>91</ele>
        <time>2020-07-02T08:06:09Z</time>
      </trkpt>
      <trkpt lat="48.73171" lon="2.30055">
        <ele>91.1</ele>
        <time>2020-07-02T08:06:10Z</time>
      </trkpt>
      <trkpt lat="48.73165" lon="2.30054">
        <ele>91.1</ele>
        <time>2020-07-02T08:06:11Z</time>
      </trkpt>
      <trkpt lat="48.73159" lon="2.30053">
        <ele>91.1</ele>
        <time>2020-07-02T08:06:12Z</time>
      </trkpt>
      <trkpt lat="48.73153" lon="2.30052">
        <ele>91.2</ele>
        <time>2020-07-02T08:06:13Z</time>
      </trkpt>
      <trkpt lat="48.73148" lon="2.30051">
        <ele>91.2</ele>
        <time>2020-07-02T08:06:14Z</time>
      </trkpt>
      <trkpt lat="48.73142" lon="2.30049">
        <ele>91.2</ele>
        <time>2020-07-02T08:06:15Z</time>
      </trkpt>
      <trkpt lat="48.73136" lon="2.30048">
        <ele>91.3</ele>
        <time>2020-07-02T08:06:16Z</time>
      </trkpt>
      <trkpt lat="48.7313" lon="2.30047">
        <ele>91.3</ele>
        <time>2020-07-02T08:06:17Z</time>
      </trkpt>
      <trkpt lat="48.73125" lon="2.30047">
        <ele>91.4</ele>
        <time>2020-07-02T08:06:18Z</time>
      </trkpt>
      <trkpt lat="48.73118" lon="2.30046">
        <ele>91.4</ele>
        <time>2020-07-02T08:06:19Z</time>
      </trkpt>
      <trkpt lat="48.73113" lon="2.30045">
        <ele>91.5</ele>
        <time>2020-07-02T08:06:20Z</time>
      </trkpt>
      <trkpt lat="48.73109" lon="2.30045">
        <ele>91.5</ele>
        <time>2020-07-02T08:06:21Z</time>
      </trkpt>
      <trkpt lat="48.73107" lon="2.30045">
        <ele>91.5</ele>
        <time>2020-07-02T08:06:22Z</time>
      </trkpt>
      <trkpt lat="48.73103" lon="2.30045">
        <ele>91.6</ele>
        <time>2020-07-02T08:06:23Z</time>
      </trkpt>
      <trkpt lat="48.73102" lon="2.30045">
        <ele>91.6</ele>
        <time>2020-07-02T08:06:24Z</time>
      </trkpt>
      <trkpt lat="48.73098" lon="2.30044">
        <ele>91.6</ele>
        <time>2020-07-02T08:06:25Z</time>
      </trkpt>
      <trkpt lat="48.73095" lon="2.30044">
        <ele>91.6</ele>
        <time>2020-07-02T08:06:26Z</time>
      </trkpt>
      <trkpt lat="48.73094" lon="2.30044">
        <ele>91.7</ele>
        <time>2020-07-02T08:06:27Z</time>
      </trkpt>
      <trkpt lat="48.73091" lon="2.30044">
        <ele>91.7</ele>
        <time>2020-07-02T08:06:28Z</time>
      </trkpt>
      <trkpt lat="48.7309" lon="2.30045">
        <ele>91.7</ele>
        <time>2020-07-02T08:06:29Z</time>
      </trkpt>
      <trkpt lat="48.73088" lon="2.30044">
        <ele>91.7</ele>
        <time>2020-07-02T08:06:30Z</time>
      </trkpt>
      <trkpt lat="48.73087" lon="2.30044">
        <ele>91.7</ele>
        <time>2020-07-02T08:06:31Z</time>
      </trkpt>
      <trkpt lat="48.73086" lon="2.30043">
        <ele>91.7</ele>
        <time>2020-07-02T08:06:32Z</time>
      </trkpt>
      <trkpt lat="48.73083" lon="2.30043">
        <ele>91.7</ele>
        <time>2020-07-02T08:06:33Z</time>
      </trkpt>
      <trkpt lat="48.73082" lon="2.30043">
        <ele>91.7</ele>
        <time>2020-07-02T08:06:34Z</time>
      </trkpt>
      <trkpt lat="48.7308" lon="2.30043">
        <ele>91.8</ele>
        <time>2020-07-02T08:06:35Z</time>
      </trkpt>
      <trkpt lat="48.73078" lon="2.30044">
        <ele>91.8</ele>
        <time>2020-07-02T08:06:36Z</time>
      </trkpt>
      <trkpt lat="48.73077" lon="2.30044">
        <ele>91.8</ele>
        <time>2020-07-02T08:06:37Z</time>
      </trkpt>
      <trkpt lat="48.73076" lon="2.30044">
        <ele>91.8</ele>
        <time>2020-07-02T08:06:38Z</time>
      </trkpt>
      <trkpt lat="48.73073" lon="2.30043">
        <ele>91.8</ele>
        <time>2020-07-02T08:06:39Z</time>
      </trkpt>
      <trkpt lat="48.73072" lon="2.30043">
        <ele>91.9</ele>
        <time>2020-07-02T08:06:40Z</time>
      </trkpt>
      <trkpt lat="48.73069" lon="2.30044">
        <ele>91.9</ele>
        <time>2020-07-02T08:06:41Z</time>
      </trkpt>
      <trkpt lat="48.73066" lon="2.30043">
        <ele>91.9</ele>
        <time>2020-07-02T08:06:42Z</time>
      </trkpt>
      <trkpt lat="48.73065" lon="2.30043">
        <ele>91.9</ele>
        <time>2020-07-02T08:06:43Z</time>
      </trkpt>
      <trkpt lat="48.73061" lon="2.30043">
        <ele>91.9</ele>
        <time>2020-07-02T08:06:44Z</time>
      </trkpt>
      <trkpt lat="48.7306" lon="2.30042">
        <ele>92</ele>
        <time>2020-07-02T08:06:45Z</time>
      </trkpt>
      <trkpt lat="48.73057" lon="2.30041">
        <ele>92</ele>
        <time>2020-07-02T08:06:46Z</time>
      </trkpt>
      <trkpt lat="48.73055" lon="2.30041">
        <ele>92</ele>
        <time>2020-07-02T08:06:47Z</time>
      </trkpt>
      <trkpt lat="48.73053" lon="2.3004">
        <ele>92</ele>
        <time>2020-07-02T08:06:48Z</time>
      </trkpt>
      <trkpt lat="48.73052" lon="2.30041">
        <ele>92</ele>
        <time>2020-07-02T08:06:49Z</time>
      </trkpt>
      <trkpt lat="48.7305" lon="2.30041">
        <ele>92.1</ele>
        <time>2020-07-02T08:06:50Z</time>
      </trkpt>
      <trkpt lat="48.73048" lon="2.3004">
        <ele>92.1</ele>
        <time>2020-07-02T08:06:51Z</time>
      </trkpt>
      <trkpt lat="48.73047" lon="2.3004">
        <ele>92.1</ele>
        <time>2020-07-02T08:06:52Z</time>
      </trkpt>
      <trkpt lat="48.73046" lon="2.3004">
        <ele>92.1</ele>
        <time>2020-07-02T08:06:53Z</time>
      </trkpt>
      <trkpt lat="48.73045" lon="2.30039">
        <ele>92.1</ele>
        <time>2020-07-02T08:06:54Z</time>
      </trkpt>
      <trkpt lat="48.73044" lon="2.30039">
        <ele>92.1</ele>
        <time>2020-07-02T08:06:55Z</time>
      </trkpt>
      <trkpt lat="48.73043" lon="2.3004">
        <ele>92.1</ele>
        <time>2020-07-02T08:06:56Z</time>
      </trkpt>
      <trkpt lat="48.7304" lon="2.30041">
        <ele>92.2</ele>
        <time>2020-07-02T08:06:57Z</time>
      </trkpt>
      <trkpt lat="48.73039" lon="2.30041">
        <ele>92.2</ele>
        <time>2020-07-02T08:06:58Z</time>
      </trkpt>
      <trkpt lat="48.73036" lon="2.30043">
        <ele>92.2</ele>
        <time>2020-07-02T08:06:59Z</time>
      </trkpt>
      <trkpt lat="48.73033" lon="2.30044">
        <ele>92.3</ele>
        <time>2020-07-02T08:07:00Z</time>
      </trkpt>
      <trkpt lat="48.7303" lon="2.30044">
        <ele>92.3</ele>
        <time>2020-07-02T08:07:01Z</time>
      </trkpt>
      <trkpt lat="48.73026" lon="2.30044">
        <ele>92.4</ele>
        <time>2020-07-02T08:07:02Z</time>
      </trkpt>
      <trkpt lat="48.73024" lon="2.30045">
        <ele>92.4</ele>
        <time>2020-07-02T08:07:03Z</time>
      </trkpt>
      <trkpt lat="48.73021" lon="2.30045">
        <ele>92.4</ele>
        <time>2020-07-02T08:07:04Z</time>
      </trkpt>
      <trkpt lat="48.73018" lon="2.30045">
        <ele>92.3</ele>
        <time>2020-07-02T08:07:05Z</time>
      </trkpt>
      <trkpt lat="48.73017" lon="2.30045">
        <ele>92.3</ele>
        <time>2020-07-02T08:07:06Z</time>
      </trkpt>
      <trkpt lat="48.73015" lon="2.30046">
        <ele>92.5</ele>
        <time>2020-07-02T08:07:07Z</time>
      </trkpt>
      <trkpt lat="48.73014" lon="2.30047">
        <ele>92.5</ele>
        <time>2020-07-02T08:07:08Z</time>
      </trkpt>
      <trkpt lat="48.73014" lon="2.30048">
        <ele>92.5</ele>
        <time>2020-07-02T08:07:09Z</time>
      </trkpt>
      <trkpt lat="48.73014" lon="2.30048">
        <ele>92.5</ele>
        <time>2020-07-02T08:07:10Z</time>
      </trkpt>
      <trkpt lat="48.73015" lon="2.30048">
        <ele>92.5</ele>
        <time>2020-07-02T08:07:11Z</time>
      </trkpt>
      <trkpt lat="48.73016" lon="2.30049">
        <ele>92.5</ele>
        <time>2020-07-02T08:07:12Z</time>
      </trkpt>
      <trkpt lat="48.73015" lon="2.30049">
        <ele>92.5</ele>
        <time>2020-07-02T08:07:13Z</time>
      </trkpt>
      <trkpt lat="48.73015" lon="2.30049">
        <ele>92.5</ele>
        <time>2020-07-02T08:07:14Z</time>
      </trkpt>
      <trkpt lat="48.73014" lon="2.30049">
        <ele>92.5</ele>
        <time>2020-07-02T08:07:15Z</time>
      </trkpt>
      <trkpt lat="48.73014" lon="2.3005">
        <ele>92.5</ele>
        <time>2020-07-02T08:07:16Z</time>
      </trkpt>
      <trkpt lat="48.73013" lon="2.30051">
        <ele>92.5</ele>
        <time>2020-07-02T08:07:17Z</time>
      </trkpt>
      <trkpt lat="48.73011" lon="2.30054">
        <ele>92.5</ele>
        <time>2020-07-02T08:07:18Z</time>
      </trkpt>
      <trkpt lat="48.73008" lon="2.30056">
        <ele>92.5</ele>
        <time>2020-07-02T08:07:19Z</time>
      </trkpt>
      <trkpt lat="48.73005" lon="2.30059">
        <ele>92.5</ele>
        <time>2020-07-02T08:07:20Z</time>
      </trkpt>
      <trkpt lat="48.73" lon="2.30061">
        <ele>92.5</ele>
        <time>2020-07-02T08:07:21Z</time>
      </trkpt>
      <trkpt lat="48.72997" lon="2.30062">
        <ele>92.5</ele>
        <time>2020-07-02T08:07:22Z</time>
      </trkpt>
      <trkpt lat="48.72994" lon="2.30062">
        <ele>92.5</ele>
        <time>2020-07-02T08:07:23Z</time>
      </trkpt>
      <trkpt lat="48.7299" lon="2.30063">
        <ele>92.5</ele>
        <time>2020-07-02T08:07:24Z</time>
      </trkpt>
      <trkpt lat="48.72985" lon="2.30063">
        <ele>92.4</ele>
        <time>2020-07-02T08:07:25Z</time>
      </trkpt>
      <trkpt lat="48.72981" lon="2.30062">
        <ele>92.4</ele>
        <time>2020-07-02T08:07:26Z</time>
      </trkpt>
      <trkpt lat="48.72978" lon="2.30062">
        <ele>92.3</ele>
        <time>2020-07-02T08:07:27Z</time>
      </trkpt>
      <trkpt lat="48.72973" lon="2.30062">
        <ele>92.3</ele>
        <time>2020-07-02T08:07:28Z</time>
      </trkpt>
      <trkpt lat="48.72969" lon="2.30062">
        <ele>92.3</ele>
        <time>2020-07-02T08:07:29Z</time>
      </trkpt>
      <trkpt lat="48.72964" lon="2.30061">
        <ele>92.2</ele>
        <time>2020-07-02T08:07:30Z</time>
      </trkpt>
      <trkpt lat="48.7296" lon="2.3006">
        <ele>92.2</ele>
        <time>2020-07-02T08:07:31Z</time>
      </trkpt>
      <trkpt lat="48.72955" lon="2.30059">
        <ele>92.2</ele>
        <time>2020-07-02T08:07:32Z</time>
      </trkpt>
      <trkpt lat="48.72952" lon="2.30058">
        <ele>92.2</ele>
        <time>2020-07-02T08:07:33Z</time>
      </trkpt>
      <trkpt lat="48.72947" lon="2.30057">
        <ele>92.2</ele>
        <time>2020-07-02T08:07:34Z</time>
      </trkpt>
      <trkpt lat="48.72942" lon="2.30056">
        <ele>92.2</ele>
        <time>2020-07-02T08:07:35Z</time>
      </trkpt>
      <trkpt lat="48.72938" lon="2.30055">
        <ele>92.2</ele>
        <time>2020-07-02T08:07:36Z</time>
      </trkpt>
      <trkpt lat="48.72932" lon="2.30054">
        <ele>92.2</ele>
        <time>2020-07-02T08:07:37Z</time>
      </trkpt>
      <trkpt lat="48.72926" lon="2.30052">
        <ele>92.2</ele>
        <time>2020-07-02T08:07:38Z</time>
      </trkpt>
      <trkpt lat="48.72919" lon="2.3005">
        <ele>92.2</ele>
        <time>2020-07-02T08:07:39Z</time>
      </trkpt>
      <trkpt lat="48.72914" lon="2.30049">
        <ele>92.2</ele>
        <time>2020-07-02T08:07:40Z</time>
      </trkpt>
      <trkpt lat="48.72908" lon="2.30049">
        <ele>92.2</ele>
        <time>2020-07-02T08:07:41Z</time>
      </trkpt>
      <trkpt lat="48.72903" lon="2.30048">
        <ele>92.2</ele>
        <time>2020-07-02T08:07:42Z</time>
      </trkpt>
      <trkpt lat="48.72898" lon="2.30049">
        <ele>92.2</ele>
        <time>2020-07-02T08:07:43Z</time>
      </trkpt>
      <trkpt lat="48.72893" lon="2.30048">
        <ele>92.2</ele>
        <time>2020-07-02T08:07:44Z</time>
      </trkpt>
      <trkpt lat="48.72888" lon="2.30047">
        <ele>92.1</ele>
        <time>2020-07-02T08:07:45Z</time>
      </trkpt>
      <trkpt lat="48.72883" lon="2.30046">
        <ele>92.1</ele>
        <time>2020-07-02T08:07:46Z</time>
      </trkpt>
      <trkpt lat="48.72877" lon="2.30045">
        <ele>92</ele>
        <time>2020-07-02T08:07:47Z</time>
      </trkpt>
      <trkpt lat="48.72873" lon="2.30045">
        <ele>91.9</ele>
        <time>2020-07-02T08:07:48Z</time>
      </trkpt>
      <trkpt lat="48.72868" lon="2.30045">
        <ele>91.9</ele>
        <time>2020-07-02T08:07:49Z</time>
      </trkpt>
      <trkpt lat="48.72863" lon="2.30044">
        <ele>91.8</ele>
        <time>2020-07-02T08:07:50Z</time>
      </trkpt>
      <trkpt lat="48.72858" lon="2.30043">
        <ele>91.8</ele>
        <time>2020-07-02T08:07:51Z</time>
      </trkpt>
      <trkpt lat="48.72854" lon="2.30042">
        <ele>91.7</ele>
        <time>2020-07-02T08:07:52Z</time>
      </trkpt>
      <trkpt lat="48.72849" lon="2.30041">
        <ele>91.7</ele>
        <time>2020-07-02T08:07:53Z</time>
      </trkpt>
      <trkpt lat="48.72843" lon="2.3004">
        <ele>91.6</ele>
        <time>2020-07-02T08:07:54Z</time>
      </trkpt>
      <trkpt lat="48.72837" lon="2.30039">
        <ele>91.6</ele>
        <time>2020-07-02T08:07:55Z</time>
      </trkpt>
      <trkpt lat="48.72831" lon="2.30037">
        <ele>91.6</ele>
        <time>2020-07-02T08:07:56Z</time>
      </trkpt>
      <trkpt lat="48.72825" lon="2.30037">
        <ele>91.5</ele>
        <time>2020-07-02T08:07:57Z</time>
      </trkpt>
      <trkpt lat="48.7282" lon="2.30037">
        <ele>91.5</ele>
        <time>2020-07-02T08:07:58Z</time>
      </trkpt>
      <trkpt lat="48.72814" lon="2.30037">
        <ele>91.4</ele>
        <time>2020-07-02T08:07:59Z</time>
      </trkpt>
      <trkpt lat="48.72808" lon="2.30038">
        <ele>91.4</ele>
        <time>2020-07-02T08:08:00Z</time>
      </trkpt>
      <trkpt lat="48.72801" lon="2.30038">
        <ele>91.3</ele>
        <time>2020-07-02T08:08:01Z</time>
      </trkpt>
      <trkpt lat="48.72795" lon="2.30038">
        <ele>91.3</ele>
        <time>2020-07-02T08:08:02Z</time>
      </trkpt>
      <trkpt lat="48.7279" lon="2.30038">
        <ele>91.3</ele>
        <time>2020-07-02T08:08:03Z</time>
      </trkpt>
      <trkpt lat="48.72784" lon="2.30038">
        <ele>91.3</ele>
        <time>2020-07-02T08:08:04Z</time>
      </trkpt>
      <trkpt lat="48.72778" lon="2.30039">
        <ele>91.2</ele>
        <time>2020-07-02T08:08:05Z</time>
      </trkpt>
      <trkpt lat="48.72772" lon="2.30039">
        <ele>91.2</ele>
        <time>2020-07-02T08:08:06Z</time>
      </trkpt>
      <trkpt lat="48.72766" lon="2.3004">
        <ele>91.1</ele>
        <time>2020-07-02T08:08:07Z</time>
      </trkpt>
      <trkpt lat="48.7276" lon="2.3004">
        <ele>91</ele>
        <time>2020-07-02T08:08:08Z</time>
      </trkpt>
      <trkpt lat="48.72754" lon="2.30042">
        <ele>91</ele>
        <time>2020-07-02T08:08:09Z</time>
      </trkpt>
      <trkpt lat="48.72748" lon="2.30043">
        <ele>90.8</ele>
        <time>2020-07-02T08:08:10Z</time>
      </trkpt>
      <trkpt lat="48.72742" lon="2.30044">
        <ele>90.7</ele>
        <time>2020-07-02T08:08:11Z</time>
      </trkpt>
      <trkpt lat="48.72735" lon="2.30046">
        <ele>90.6</ele>
        <time>2020-07-02T08:08:12Z</time>
      </trkpt>
      <trkpt lat="48.72729" lon="2.30048">
        <ele>90.5</ele>
        <time>2020-07-02T08:08:13Z</time>
      </trkpt>
      <trkpt lat="48.72725" lon="2.30051">
        <ele>90.5</ele>
        <time>2020-07-02T08:08:14Z</time>
      </trkpt>
      <trkpt lat="48.72721" lon="2.30054">
        <ele>90.4</ele>
        <time>2020-07-02T08:08:15Z</time>
      </trkpt>
      <trkpt lat="48.72719" lon="2.30055">
        <ele>90.3</ele>
        <time>2020-07-02T08:08:16Z</time>
      </trkpt>
      <trkpt lat="48.72718" lon="2.30055">
        <ele>90.3</ele>
        <time>2020-07-02T08:08:17Z</time>
      </trkpt>
      <trkpt lat="48.72717" lon="2.30053">
        <ele>90.2</ele>
        <time>2020-07-02T08:08:18Z</time>
      </trkpt>
      <trkpt lat="48.72716" lon="2.30051">
        <ele>90.2</ele>
        <time>2020-07-02T08:08:19Z</time>
      </trkpt>
      <trkpt lat="48.72715" lon="2.30049">
        <ele>90.1</ele>
        <time>2020-07-02T08:08:20Z</time>
      </trkpt>
      <trkpt lat="48.72713" lon="2.30046">
        <ele>90</ele>
        <time>2020-07-02T08:08:21Z</time>
      </trkpt>
      <trkpt lat="48.72712" lon="2.30045">
        <ele>89.9</ele>
        <time>2020-07-02T08:08:22Z</time>
      </trkpt>
      <trkpt lat="48.72708" lon="2.30044">
        <ele>89.7</ele>
        <time>2020-07-02T08:08:23Z</time>
      </trkpt>
      <trkpt lat="48.72707" lon="2.30044">
        <ele>89.6</ele>
        <time>2020-07-02T08:08:24Z</time>
      </trkpt>
      <trkpt lat="48.72703" lon="2.30044">
        <ele>89.5</ele>
        <time>2020-07-02T08:08:25Z</time>
      </trkpt>
      <trkpt lat="48.72699" lon="2.30045">
        <ele>89.2</ele>
        <time>2020-07-02T08:08:26Z</time>
      </trkpt>
      <trkpt lat="48.72694" lon="2.30045">
        <ele>88.9</ele>
        <time>2020-07-02T08:08:27Z</time>
      </trkpt>
      <trkpt lat="48.7269" lon="2.30046">
        <ele>88.7</ele>
        <time>2020-07-02T08:08:28Z</time>
      </trkpt>
      <trkpt lat="48.72685" lon="2.30046">
        <ele>88.4</ele>
        <time>2020-07-02T08:08:29Z</time>
      </trkpt>
      <trkpt lat="48.72679" lon="2.30047">
        <ele>88.1</ele>
        <time>2020-07-02T08:08:30Z</time>
      </trkpt>
      <trkpt lat="48.72672" lon="2.30047">
        <ele>87.7</ele>
        <time>2020-07-02T08:08:31Z</time>
      </trkpt>
      <trkpt lat="48.72665" lon="2.30047">
        <ele>87.3</ele>
        <time>2020-07-02T08:08:32Z</time>
      </trkpt>
      <trkpt lat="48.72656" lon="2.30046">
        <ele>86.9</ele>
        <time>2020-07-02T08:08:33Z</time>
      </trkpt>
      <trkpt lat="48.72649" lon="2.30047">
        <ele>86.6</ele>
        <time>2020-07-02T08:08:34Z</time>
      </trkpt>
      <trkpt lat="48.72642" lon="2.30047">
        <ele>86.4</ele>
        <time>2020-07-02T08:08:35Z</time>
      </trkpt>
      <trkpt lat="48.72634" lon="2.30047">
        <ele>86.2</ele>
        <time>2020-07-02T08:08:36Z</time>
      </trkpt>
      <trkpt lat="48.72627" lon="2.30047">
        <ele>86</ele>
        <time>2020-07-02T08:08:37Z</time>
      </trkpt>
      <trkpt lat="48.72619" lon="2.30045">
        <ele>85.9</ele>
        <time>2020-07-02T08:08:38Z</time>
      </trkpt>
      <trkpt lat="48.72611" lon="2.30043">
        <ele>85.8</ele>
        <time>2020-07-02T08:08:39Z</time>
      </trkpt>
      <trkpt lat="48.72603" lon="2.30043">
        <ele>85.9</ele>
        <time>2020-07-02T08:08:40Z</time>
      </trkpt>
      <trkpt lat="48.72596" lon="2.30042">
        <ele>86.1</ele>
        <time>2020-07-02T08:08:41Z</time>
      </trkpt>
      <trkpt lat="48.72588" lon="2.30042">
        <ele>86.3</ele>
        <time>2020-07-02T08:08:42Z</time>
      </trkpt>
      <trkpt lat="48.7258" lon="2.30043">
        <ele>86.6</ele>
        <time>2020-07-02T08:08:43Z</time>
      </trkpt>
      <trkpt lat="48.72574" lon="2.30046">
        <ele>86.9</ele>
        <time>2020-07-02T08:08:44Z</time>
      </trkpt>
      <trkpt lat="48.72569" lon="2.30049">
        <ele>87.2</ele>
        <time>2020-07-02T08:08:45Z</time>
      </trkpt>
      <trkpt lat="48.72564" lon="2.30049">
        <ele>87.4</ele>
        <time>2020-07-02T08:08:46Z</time>
      </trkpt>
      <trkpt lat="48.7256" lon="2.3005">
        <ele>87.5</ele>
        <time>2020-07-02T08:08:47Z</time>
      </trkpt>
      <trkpt lat="48.72555" lon="2.3005">
        <ele>87.7</ele>
        <time>2020-07-02T08:08:48Z</time>
      </trkpt>
      <trkpt lat="48.7255" lon="2.30049">
        <ele>87.8</ele>
        <time>2020-07-02T08:08:49Z</time>
      </trkpt>
      <trkpt lat="48.72546" lon="2.30047">
        <ele>87.9</ele>
        <time>2020-07-02T08:08:50Z</time>
      </trkpt>
      <trkpt lat="48.7254" lon="2.30046">
        <ele>88</ele>
        <time>2020-07-02T08:08:51Z</time>
      </trkpt>
      <trkpt lat="48.72534" lon="2.30044">
        <ele>88</ele>
        <time>2020-07-02T08:08:52Z</time>
      </trkpt>
      <trkpt lat="48.72529" lon="2.30044">
        <ele>88</ele>
        <time>2020-07-02T08:08:53Z</time>
      </trkpt>
      <trkpt lat="48.72522" lon="2.30046">
        <ele>88</ele>
        <time>2020-07-02T08:08:54Z</time>
      </trkpt>
      <trkpt lat="48.72517" lon="2.30047">
        <ele>88.1</ele>
        <time>2020-07-02T08:08:55Z</time>
      </trkpt>
      <trkpt lat="48.72512" lon="2.30048">
        <ele>88.1</ele>
        <time>2020-07-02T08:08:56Z</time>
      </trkpt>
      <trkpt lat="48.72506" lon="2.30046">
        <ele>88.1</ele>
        <time>2020-07-02T08:08:57Z</time>
      </trkpt>
      <trkpt lat="48.725" lon="2.30045">
        <ele>88.1</ele>
        <time>2020-07-02T08:08:58Z</time>
      </trkpt>
      <trkpt lat="48.72494" lon="2.30044">
        <ele>88.1</ele>
        <time>2020-07-02T08:08:59Z</time>
      </trkpt>
      <trkpt lat="48.72489" lon="2.30043">
        <ele>88.1</ele>
        <time>2020-07-02T08:09:00Z</time>
      </trkpt>
      <trkpt lat="48.72484" lon="2.30042">
        <ele>88.2</ele>
        <time>2020-07-02T08:09:01Z</time>
      </trkpt>
      <trkpt lat="48.72479" lon="2.30039">
        <ele>88.3</ele>
        <time>2020-07-02T08:09:02Z</time>
      </trkpt>
      <trkpt lat="48.72473" lon="2.30037">
        <ele>88.3</ele>
        <time>2020-07-02T08:09:03Z</time>
      </trkpt>
      <trkpt lat="48.72468" lon="2.30035">
        <ele>88.4</ele>
        <time>2020-07-02T08:09:04Z</time>
      </trkpt>
      <trkpt lat="48.72463" lon="2.30034">
        <ele>88.5</ele>
        <time>2020-07-02T08:09:05Z</time>
      </trkpt>
      <trkpt lat="48.72459" lon="2.30034">
        <ele>88.5</ele>
        <time>2020-07-02T08:09:06Z</time>
      </trkpt>
      <trkpt lat="48.72455" lon="2.30036">
        <ele>88.5</ele>
        <time>2020-07-02T08:09:07Z</time>
      </trkpt>
      <trkpt lat="48.72453" lon="2.30041">
        <ele>88.6</ele>
        <time>2020-07-02T08:09:08Z</time>
      </trkpt>
      <trkpt lat="48.72451" lon="2.30047">
        <ele>88.6</ele>
        <time>2020-07-02T08:09:09Z</time>
      </trkpt>
      <trkpt lat="48.72447" lon="2.30052">
        <ele>88.7</ele>
        <time>2020-07-02T08:09:10Z</time>
      </trkpt>
      <trkpt lat="48.72442" lon="2.30056">
        <ele>88.7</ele>
        <time>2020-07-02T08:09:11Z</time>
      </trkpt>
      <trkpt lat="48.72437" lon="2.30059">
        <ele>88.7</ele>
        <time>2020-07-02T08:09:12Z</time>
      </trkpt>
      <trkpt lat="48.72433" lon="2.30056">
        <ele>88.7</ele>
        <time>2020-07-02T08:09:13Z</time>
      </trkpt>
      <trkpt lat="48.72429" lon="2.30053">
        <ele>88.6</ele>
        <time>2020-07-02T08:09:14Z</time>
      </trkpt>
      <trkpt lat="48.72425" lon="2.3005">
        <ele>88.6</ele>
        <time>2020-07-02T08:09:15Z</time>
      </trkpt>
      <trkpt lat="48.7242" lon="2.30047">
        <ele>88.5</ele>
        <time>2020-07-02T08:09:16Z</time>
      </trkpt>
      <trkpt lat="48.72415" lon="2.30043">
        <ele>88.4</ele>
        <time>2020-07-02T08:09:17Z</time>
      </trkpt>
      <trkpt lat="48.7241" lon="2.30039">
        <ele>88.3</ele>
        <time>2020-07-02T08:09:18Z</time>
      </trkpt>
      <trkpt lat="48.72404" lon="2.30035">
        <ele>88.2</ele>
        <time>2020-07-02T08:09:19Z</time>
      </trkpt>
      <trkpt lat="48.72399" lon="2.30032">
        <ele>88.1</ele>
        <time>2020-07-02T08:09:20Z</time>
      </trkpt>
      <trkpt lat="48.72393" lon="2.30029">
        <ele>88</ele>
        <time>2020-07-02T08:09:21Z</time>
      </trkpt>
      <trkpt lat="48.72388" lon="2.30025">
        <ele>87.9</ele>
        <time>2020-07-02T08:09:22Z</time>
      </trkpt>
      <trkpt lat="48.72382" lon="2.30021">
        <ele>87.8</ele>
        <time>2020-07-02T08:09:23Z</time>
      </trkpt>
      <trkpt lat="48.72377" lon="2.30017">
        <ele>87.6</ele>
        <time>2020-07-02T08:09:24Z</time>
      </trkpt>
      <trkpt lat="48.72372" lon="2.30014">
        <ele>87.3</ele>
        <time>2020-07-02T08:09:25Z</time>
      </trkpt>
      <trkpt lat="48.72366" lon="2.30011">
        <ele>87.1</ele>
        <time>2020-07-02T08:09:26Z</time>
      </trkpt>
      <trkpt lat="48.7236" lon="2.30009">
        <ele>87.1</ele>
        <time>2020-07-02T08:09:27Z</time>
      </trkpt>
      <trkpt lat="48.72354" lon="2.30006">
        <ele>87</ele>
        <time>2020-07-02T08:09:28Z</time>
      </trkpt>
      <trkpt lat="48.72348" lon="2.30003">
        <ele>87</ele>
        <time>2020-07-02T08:09:29Z</time>
      </trkpt>
      <trkpt lat="48.72342" lon="2.30001">
        <ele>86.9</ele>
        <time>2020-07-02T08:09:30Z</time>
      </trkpt>
      <trkpt lat="48.72337" lon="2.29998">
        <ele>86.8</ele>
        <time>2020-07-02T08:09:31Z</time>
      </trkpt>
      <trkpt lat="48.7233" lon="2.29996">
        <ele>86.6</ele>
        <time>2020-07-02T08:09:32Z</time>
      </trkpt>
      <trkpt lat="48.72323" lon="2.29993">
        <ele>86.5</ele>
        <time>2020-07-02T08:09:33Z</time>
      </trkpt>
      <trkpt lat="48.72316" lon="2.2999">
        <ele>86.3</ele>
        <time>2020-07-02T08:09:34Z</time>
      </trkpt>
      <trkpt lat="48.72309" lon="2.29988">
        <ele>86.2</ele>
        <time>2020-07-02T08:09:35Z</time>
      </trkpt>
      <trkpt lat="48.72303" lon="2.29986">
        <ele>86.1</ele>
        <time>2020-07-02T08:09:36Z</time>
      </trkpt>
      <trkpt lat="48.72297" lon="2.29983">
        <ele>86.1</ele>
        <time>2020-07-02T08:09:37Z</time>
      </trkpt>
      <trkpt lat="48.7229" lon="2.29981">
        <ele>86</ele>
        <time>2020-07-02T08:09:38Z</time>
      </trkpt>
      <trkpt lat="48.72284" lon="2.29979">
        <ele>85.9</ele>
        <time>2020-07-02T08:09:39Z</time>
      </trkpt>
      <trkpt lat="48.72277" lon="2.29978">
        <ele>85.9</ele>
        <time>2020-07-02T08:09:40Z</time>
      </trkpt>
      <trkpt lat="48.72269" lon="2.29975">
        <ele>85.9</ele>
        <time>2020-07-02T08:09:41Z</time>
      </trkpt>
      <trkpt lat="48.72262" lon="2.29973">
        <ele>85.9</ele>
        <time>2020-07-02T08:09:42Z</time>
      </trkpt>
      <trkpt lat="48.72256" lon="2.2997">
        <ele>85.9</ele>
        <time>2020-07-02T08:09:43Z</time>
      </trkpt>
      <trkpt lat="48.7225" lon="2.29966">
        <ele>85.8</ele>
        <time>2020-07-02T08:09:44Z</time>
      </trkpt>
      <trkpt lat="48.72245" lon="2.29963">
        <ele>85.7</ele>
        <time>2020-07-02T08:09:45Z</time>
      </trkpt>
      <trkpt lat="48.7224" lon="2.2996">
        <ele>85.7</ele>
        <time>2020-07-02T08:09:46Z</time>
      </trkpt>
      <trkpt lat="48.72233" lon="2.29959">
        <ele>85.6</ele>
        <time>2020-07-02T08:09:47Z</time>
      </trkpt>
      <trkpt lat="48.72227" lon="2.29957">
        <ele>85.5</ele>
        <time>2020-07-02T08:09:48Z</time>
      </trkpt>
      <trkpt lat="48.72221" lon="2.29955">
        <ele>85.4</ele>
        <time>2020-07-02T08:09:49Z</time>
      </trkpt>
      <trkpt lat="48.72214" lon="2.29953">
        <ele>85.4</ele>
        <time>2020-07-02T08:09:50Z</time>
      </trkpt>
      <trkpt lat="48.72208" lon="2.29952">
        <ele>85.3</ele>
        <time>2020-07-02T08:09:51Z</time>
      </trkpt>
      <trkpt lat="48.72202" lon="2.29951">
        <ele>85.3</ele>
        <time>2020-07-02T08:09:52Z</time>
      </trkpt>
      <trkpt lat="48.72196" lon="2.2995">
        <ele>85.3</ele>
        <time>2020-07-02T08:09:53Z</time>
      </trkpt>
      <trkpt lat="48.72189" lon="2.2995">
        <ele>85.3</ele>
        <time>2020-07-02T08:09:54Z</time>
      </trkpt>
      <trkpt lat="48.72181" lon="2.29949">
        <ele>85.3</ele>
        <time>2020-07-02T08:09:55Z</time>
      </trkpt>
      <trkpt lat="48.72175" lon="2.29949">
        <ele>85.3</ele>
        <time>2020-07-02T08:09:56Z</time>
      </trkpt>
      <trkpt lat="48.72168" lon="2.29944">
        <ele>85.3</ele>
        <time>2020-07-02T08:09:57Z</time>
      </trkpt>
      <trkpt lat="48.72162" lon="2.29944">
        <ele>85.2</ele>
        <time>2020-07-02T08:09:58Z</time>
      </trkpt>
      <trkpt lat="48.72155" lon="2.29943">
        <ele>85.2</ele>
        <time>2020-07-02T08:09:59Z</time>
      </trkpt>
      <trkpt lat="48.72148" lon="2.29942">
        <ele>85.2</ele>
        <time>2020-07-02T08:10:00Z</time>
      </trkpt>
      <trkpt lat="48.72142" lon="2.29941">
        <ele>85.2</ele>
        <time>2020-07-02T08:10:01Z</time>
      </trkpt>
      <trkpt lat="48.72136" lon="2.29941">
        <ele>85.2</ele>
        <time>2020-07-02T08:10:02Z</time>
      </trkpt>
      <trkpt lat="48.72129" lon="2.2994">
        <ele>85.2</ele>
        <time>2020-07-02T08:10:03Z</time>
      </trkpt>
      <trkpt lat="48.72123" lon="2.2994">
        <ele>85.2</ele>
        <time>2020-07-02T08:10:04Z</time>
      </trkpt>
      <trkpt lat="48.72117" lon="2.29939">
        <ele>85.2</ele>
        <time>2020-07-02T08:10:05Z</time>
      </trkpt>
      <trkpt lat="48.7211" lon="2.29937">
        <ele>85.2</ele>
        <time>2020-07-02T08:10:06Z</time>
      </trkpt>
      <trkpt lat="48.72104" lon="2.29935">
        <ele>85.2</ele>
        <time>2020-07-02T08:10:07Z</time>
      </trkpt>
      <trkpt lat="48.72098" lon="2.29934">
        <ele>85.2</ele>
        <time>2020-07-02T08:10:08Z</time>
      </trkpt>
      <trkpt lat="48.72092" lon="2.29933">
        <ele>85.2</ele>
        <time>2020-07-02T08:10:09Z</time>
      </trkpt>
      <trkpt lat="48.72087" lon="2.29932">
        <ele>85.3</ele>
        <time>2020-07-02T08:10:10Z</time>
      </trkpt>
      <trkpt lat="48.72081" lon="2.29931">
        <ele>85.4</ele>
        <time>2020-07-02T08:10:11Z</time>
      </trkpt>
      <trkpt lat="48.72075" lon="2.29929">
        <ele>85.4</ele>
        <time>2020-07-02T08:10:12Z</time>
      </trkpt>
      <trkpt lat="48.72069" lon="2.29928">
        <ele>85.5</ele>
        <time>2020-07-02T08:10:13Z</time>
      </trkpt>
      <trkpt lat="48.72062" lon="2.29928">
        <ele>85.6</ele>
        <time>2020-07-02T08:10:14Z</time>
      </trkpt>
      <trkpt lat="48.72056" lon="2.29927">
        <ele>85.7</ele>
        <time>2020-07-02T08:10:15Z</time>
      </trkpt>
      <trkpt lat="48.72049" lon="2.29926">
        <ele>85.8</ele>
        <time>2020-07-02T08:10:16Z</time>
      </trkpt>
      <trkpt lat="48.72043" lon="2.29925">
        <ele>85.8</ele>
        <time>2020-07-02T08:10:17Z</time>
      </trkpt>
      <trkpt lat="48.72036" lon="2.29924">
        <ele>85.9</ele>
        <time>2020-07-02T08:10:18Z</time>
      </trkpt>
      <trkpt lat="48.7203" lon="2.29923">
        <ele>86</ele>
        <time>2020-07-02T08:10:19Z</time>
      </trkpt>
      <trkpt lat="48.72023" lon="2.29922">
        <ele>86.1</ele>
        <time>2020-07-02T08:10:20Z</time>
      </trkpt>
      <trkpt lat="48.72017" lon="2.29921">
        <ele>86.2</ele>
        <time>2020-07-02T08:10:21Z</time>
      </trkpt>
      <trkpt lat="48.72011" lon="2.2992">
        <ele>86.2</ele>
        <time>2020-07-02T08:10:22Z</time>
      </trkpt>
      <trkpt lat="48.72005" lon="2.2992">
        <ele>86.3</ele>
        <time>2020-07-02T08:10:23Z</time>
      </trkpt>
      <trkpt lat="48.72" lon="2.2992">
        <ele>86.4</ele>
        <time>2020-07-02T08:10:24Z</time>
      </trkpt>
      <trkpt lat="48.71995" lon="2.29919">
        <ele>86.5</ele>
        <time>2020-07-02T08:10:25Z</time>
      </trkpt>
      <trkpt lat="48.7199" lon="2.29918">
        <ele>86.6</ele>
        <time>2020-07-02T08:10:26Z</time>
      </trkpt>
      <trkpt lat="48.71985" lon="2.29918">
        <ele>86.7</ele>
        <time>2020-07-02T08:10:27Z</time>
      </trkpt>
      <trkpt lat="48.71981" lon="2.29918">
        <ele>86.8</ele>
        <time>2020-07-02T08:10:28Z</time>
      </trkpt>
      <trkpt lat="48.71977" lon="2.2992">
        <ele>86.9</ele>
        <time>2020-07-02T08:10:29Z</time>
      </trkpt>
      <trkpt lat="48.71972" lon="2.29923">
        <ele>86.9</ele>
        <time>2020-07-02T08:10:30Z</time>
      </trkpt>
      <trkpt lat="48.71969" lon="2.29926">
        <ele>87</ele>
        <time>2020-07-02T08:10:31Z</time>
      </trkpt>
      <trkpt lat="48.71965" lon="2.2993">
        <ele>87</ele>
        <time>2020-07-02T08:10:32Z</time>
      </trkpt>
      <trkpt lat="48.71962" lon="2.29934">
        <ele>87.1</ele>
        <time>2020-07-02T08:10:33Z</time>
      </trkpt>
      <trkpt lat="48.71958" lon="2.29938">
        <ele>87.1</ele>
        <time>2020-07-02T08:10:34Z</time>
      </trkpt>
      <trkpt lat="48.71956" lon="2.29942">
        <ele>87.2</ele>
        <time>2020-07-02T08:10:35Z</time>
      </trkpt>
      <trkpt lat="48.71953" lon="2.29945">
        <ele>87.2</ele>
        <time>2020-07-02T08:10:36Z</time>
      </trkpt>
      <trkpt lat="48.7195" lon="2.29948">
        <ele>87.3</ele>
        <time>2020-07-02T08:10:37Z</time>
      </trkpt>
      <trkpt lat="48.71948" lon="2.29951">
        <ele>87.3</ele>
        <time>2020-07-02T08:10:38Z</time>
      </trkpt>
      <trkpt lat="48.71945" lon="2.29953">
        <ele>87.3</ele>
        <time>2020-07-02T08:10:39Z</time>
      </trkpt>
      <trkpt lat="48.71943" lon="2.29954">
        <ele>87.3</ele>
        <time>2020-07-02T08:10:40Z</time>
      </trkpt>
      <trkpt lat="48.7194" lon="2.29954">
        <ele>87.3</ele>
        <time>2020-07-02T08:10:41Z</time>
      </trkpt>
      <trkpt lat="48.71939" lon="2.29954">
        <ele>87.3</ele>
        <time>2020-07-02T08:10:42Z</time>
      </trkpt>
      <trkpt lat="48.71935" lon="2.29956">
        <ele>87.3</ele>
        <time>2020-07-02T08:10:43Z</time>
      </trkpt>
      <trkpt lat="48.71934" lon="2.29956">
        <ele>87.3</ele>
        <time>2020-07-02T08:10:44Z</time>
      </trkpt>
      <trkpt lat="48.71932" lon="2.29957">
        <ele>87.3</ele>
        <time>2020-07-02T08:10:45Z</time>
      </trkpt>
      <trkpt lat="48.71927" lon="2.29959">
        <ele>87.3</ele>
        <time>2020-07-02T08:10:46Z</time>
      </trkpt>
      <trkpt lat="48.71926" lon="2.2996">
        <ele>87.2</ele>
        <time>2020-07-02T08:10:47Z</time>
      </trkpt>
      <trkpt lat="48.71923" lon="2.29961">
        <ele>87.2</ele>
        <time>2020-07-02T08:10:48Z</time>
      </trkpt>
      <trkpt lat="48.7192" lon="2.29962">
        <ele>87.2</ele>
        <time>2020-07-02T08:10:49Z</time>
      </trkpt>
      <trkpt lat="48.71917" lon="2.2996">
        <ele>87.2</ele>
        <time>2020-07-02T08:10:50Z</time>
      </trkpt>
      <trkpt lat="48.71915" lon="2.29956">
        <ele>87.1</ele>
        <time>2020-07-02T08:10:51Z</time>
      </trkpt>
      <trkpt lat="48.71912" lon="2.29951">
        <ele>87.1</ele>
        <time>2020-07-02T08:10:52Z</time>
      </trkpt>
      <trkpt lat="48.71909" lon="2.29947">
        <ele>87.1</ele>
        <time>2020-07-02T08:10:53Z</time>
      </trkpt>
      <trkpt lat="48.71907" lon="2.29944">
        <ele>87.1</ele>
        <time>2020-07-02T08:10:54Z</time>
      </trkpt>
      <trkpt lat="48.71903" lon="2.29941">
        <ele>87.1</ele>
        <time>2020-07-02T08:10:55Z</time>
      </trkpt>
      <trkpt lat="48.719" lon="2.29937">
        <ele>87.1</ele>
        <time>2020-07-02T08:10:56Z</time>
      </trkpt>
      <trkpt lat="48.71895" lon="2.29933">
        <ele>87.1</ele>
        <time>2020-07-02T08:10:57Z</time>
      </trkpt>
      <trkpt lat="48.71892" lon="2.2993">
        <ele>87.1</ele>
        <time>2020-07-02T08:10:58Z</time>
      </trkpt>
      <trkpt lat="48.71887" lon="2.29927">
        <ele>87.1</ele>
        <time>2020-07-02T08:10:59Z</time>
      </trkpt>
      <trkpt lat="48.71882" lon="2.29924">
        <ele>87.2</ele>
        <time>2020-07-02T08:11:00Z</time>
      </trkpt>
      <trkpt lat="48.71877" lon="2.29922">
        <ele>87.2</ele>
        <time>2020-07-02T08:11:01Z</time>
      </trkpt>
      <trkpt lat="48.71873" lon="2.2992">
        <ele>87.3</ele>
        <time>2020-07-02T08:11:02Z</time>
      </trkpt>
      <trkpt lat="48.71869" lon="2.29917">
        <ele>87.3</ele>
        <time>2020-07-02T08:11:03Z</time>
      </trkpt>
      <trkpt lat="48.71863" lon="2.29914">
        <ele>87.4</ele>
        <time>2020-07-02T08:11:04Z</time>
      </trkpt>
      <trkpt lat="48.71858" lon="2.29911">
        <ele>87.4</ele>
        <time>2020-07-02T08:11:05Z</time>
      </trkpt>
      <trkpt lat="48.71853" lon="2.29909">
        <ele>87.5</ele>
        <time>2020-07-02T08:11:06Z</time>
      </trkpt>
      <trkpt lat="48.71848" lon="2.29906">
        <ele>87.6</ele>
        <time>2020-07-02T08:11:07Z</time>
      </trkpt>
      <trkpt lat="48.71843" lon="2.29904">
        <ele>87.6</ele>
        <time>2020-07-02T08:11:08Z</time>
      </trkpt>
      <trkpt lat="48.71838" lon="2.29902">
        <ele>87.7</ele>
        <time>2020-07-02T08:11:09Z</time>
      </trkpt>
      <trkpt lat="48.71832" lon="2.29901">
        <ele>87.8</ele>
        <time>2020-07-02T08:11:10Z</time>
      </trkpt>
      <trkpt lat="48.71826" lon="2.29898">
        <ele>87.8</ele>
        <time>2020-07-02T08:11:11Z</time>
      </trkpt>
      <trkpt lat="48.71821" lon="2.29895">
        <ele>87.9</ele>
        <time>2020-07-02T08:11:12Z</time>
      </trkpt>
      <trkpt lat="48.71816" lon="2.29894">
        <ele>88</ele>
        <time>2020-07-02T08:11:13Z</time>
      </trkpt>
      <trkpt lat="48.71811" lon="2.29893">
        <ele>88.1</ele>
        <time>2020-07-02T08:11:14Z</time>
      </trkpt>
      <trkpt lat="48.71805" lon="2.29893">
        <ele>88.2</ele>
        <time>2020-07-02T08:11:15Z</time>
      </trkpt>
      <trkpt lat="48.71801" lon="2.29892">
        <ele>88.3</ele>
        <time>2020-07-02T08:11:16Z</time>
      </trkpt>
      <trkpt lat="48.71795" lon="2.29891">
        <ele>88.3</ele>
        <time>2020-07-02T08:11:17Z</time>
      </trkpt>
      <trkpt lat="48.7179" lon="2.29889">
        <ele>88.4</ele>
        <time>2020-07-02T08:11:18Z</time>
      </trkpt>
      <trkpt lat="48.71784" lon="2.29888">
        <ele>88.5</ele>
        <time>2020-07-02T08:11:19Z</time>
      </trkpt>
      <trkpt lat="48.71778" lon="2.29886">
        <ele>88.6</ele>
        <time>2020-07-02T08:11:20Z</time>
      </trkpt>
      <trkpt lat="48.71773" lon="2.29885">
        <ele>88.6</ele>
        <time>2020-07-02T08:11:21Z</time>
      </trkpt>
      <trkpt lat="48.71767" lon="2.29884">
        <ele>88.6</ele>
        <time>2020-07-02T08:11:22Z</time>
      </trkpt>
      <trkpt lat="48.71762" lon="2.29884">
        <ele>88.6</ele>
        <time>2020-07-02T08:11:23Z</time>
      </trkpt>
      <trkpt lat="48.71756" lon="2.29883">
        <ele>88.6</ele>
        <time>2020-07-02T08:11:24Z</time>
      </trkpt>
      <trkpt lat="48.71751" lon="2.29883">
        <ele>88.7</ele>
        <time>2020-07-02T08:11:25Z</time>
      </trkpt>
      <trkpt lat="48.71746" lon="2.29882">
        <ele>88.8</ele>
        <time>2020-07-02T08:11:26Z</time>
      </trkpt>
      <trkpt lat="48.7174" lon="2.29882">
        <ele>88.9</ele>
        <time>2020-07-02T08:11:27Z</time>
      </trkpt>
      <trkpt lat="48.71734" lon="2.29881">
        <ele>89</ele>
        <time>2020-07-02T08:11:28Z</time>
      </trkpt>
      <trkpt lat="48.71728" lon="2.2988">
        <ele>89.1</ele>
        <time>2020-07-02T08:11:29Z</time>
      </trkpt>
      <trkpt lat="48.71722" lon="2.29879">
        <ele>89.2</ele>
        <time>2020-07-02T08:11:30Z</time>
      </trkpt>
      <trkpt lat="48.71716" lon="2.29877">
        <ele>89.3</ele>
        <time>2020-07-02T08:11:31Z</time>
      </trkpt>
      <trkpt lat="48.71711" lon="2.29877">
        <ele>89.4</ele>
        <time>2020-07-02T08:11:32Z</time>
      </trkpt>
      <trkpt lat="48.71705" lon="2.29875">
        <ele>89.5</ele>
        <time>2020-07-02T08:11:33Z</time>
      </trkpt>
      <trkpt lat="48.71699" lon="2.29874">
        <ele>89.7</ele>
        <time>2020-07-02T08:11:34Z</time>
      </trkpt>
      <trkpt lat="48.71693" lon="2.29873">
        <ele>89.9</ele>
        <time>2020-07-02T08:11:35Z</time>
      </trkpt>
      <trkpt lat="48.71688" lon="2.29871">
        <ele>90</ele>
        <time>2020-07-02T08:11:36Z</time>
      </trkpt>
      <trkpt lat="48.71682" lon="2.29871">
        <ele>90.2</ele>
        <time>2020-07-02T08:11:37Z</time>
      </trkpt>
      <trkpt lat="48.71677" lon="2.2987">
        <ele>90.3</ele>
        <time>2020-07-02T08:11:38Z</time>
      </trkpt>
      <trkpt lat="48.71671" lon="2.2987">
        <ele>90.4</ele>
        <time>2020-07-02T08:11:39Z</time>
      </trkpt>
      <trkpt lat="48.71665" lon="2.2987">
        <ele>90.5</ele>
        <time>2020-07-02T08:11:40Z</time>
      </trkpt>
      <trkpt lat="48.7166" lon="2.2987">
        <ele>90.6</ele>
        <time>2020-07-02T08:11:41Z</time>
      </trkpt>
      <trkpt lat="48.71655" lon="2.2987">
        <ele>90.7</ele>
        <time>2020-07-02T08:11:42Z</time>
      </trkpt>
      <trkpt lat="48.7165" lon="2.2987">
        <ele>90.8</ele>
        <time>2020-07-02T08:11:43Z</time>
      </trkpt>
      <trkpt lat="48.71645" lon="2.29869">
        <ele>90.8</ele>
        <time>2020-07-02T08:11:44Z</time>
      </trkpt>
      <trkpt lat="48.71639" lon="2.29869">
        <ele>90.9</ele>
        <time>2020-07-02T08:11:45Z</time>
      </trkpt>
      <trkpt lat="48.71634" lon="2.29869">
        <ele>91.1</ele>
        <time>2020-07-02T08:11:46Z</time>
      </trkpt>
      <trkpt lat="48.71629" lon="2.29867">
        <ele>91.2</ele>
        <time>2020-07-02T08:11:47Z</time>
      </trkpt>
      <trkpt lat="48.71623" lon="2.29867">
        <ele>91.3</ele>
        <time>2020-07-02T08:11:48Z</time>
      </trkpt>
      <trkpt lat="48.71618" lon="2.29866">
        <ele>91.5</ele>
        <time>2020-07-02T08:11:49Z</time>
      </trkpt>
      <trkpt lat="48.71612" lon="2.29865">
        <ele>91.6</ele>
        <time>2020-07-02T08:11:50Z</time>
      </trkpt>
      <trkpt lat="48.71607" lon="2.29863">
        <ele>91.7</ele>
        <time>2020-07-02T08:11:51Z</time>
      </trkpt>
      <trkpt lat="48.71602" lon="2.29862">
        <ele>91.8</ele>
        <time>2020-07-02T08:11:52Z</time>
      </trkpt>
      <trkpt lat="48.71597" lon="2.29862">
        <ele>91.9</ele>
        <time>2020-07-02T08:11:53Z</time>
      </trkpt>
      <trkpt lat="48.71593" lon="2.29862">
        <ele>92</ele>
        <time>2020-07-02T08:11:54Z</time>
      </trkpt>
      <trkpt lat="48.71589" lon="2.29861">
        <ele>92.1</ele>
        <time>2020-07-02T08:11:55Z</time>
      </trkpt>
      <trkpt lat="48.71585" lon="2.29861">
        <ele>92.2</ele>
        <time>2020-07-02T08:11:56Z</time>
      </trkpt>
      <trkpt lat="48.71581" lon="2.2986">
        <ele>92.2</ele>
        <time>2020-07-02T08:11:57Z</time>
      </trkpt>
      <trkpt lat="48.71577" lon="2.29859">
        <ele>92.3</ele>
        <time>2020-07-02T08:11:58Z</time>
      </trkpt>
      <trkpt lat="48.71573" lon="2.29858">
        <ele>92.4</ele>
        <time>2020-07-02T08:11:59Z</time>
      </trkpt>
      <trkpt lat="48.71568" lon="2.29857">
        <ele>92.5</ele>
        <time>2020-07-02T08:12:00Z</time>
      </trkpt>
      <trkpt lat="48.71565" lon="2.29856">
        <ele>92.6</ele>
        <time>2020-07-02T08:12:01Z</time>
      </trkpt>
      <trkpt lat="48.71561" lon="2.29855">
        <ele>92.7</ele>
        <time>2020-07-02T08:12:02Z</time>
      </trkpt>
      <trkpt lat="48.71558" lon="2.29855">
        <ele>92.8</ele>
        <time>2020-07-02T08:12:03Z</time>
      </trkpt>
      <trkpt lat="48.71554" lon="2.29856">
        <ele>92.7</ele>
        <time>2020-07-02T08:12:04Z</time>
      </trkpt>
      <trkpt lat="48.71551" lon="2.29858">
        <ele>92.7</ele>
        <time>2020-07-02T08:12:05Z</time>
      </trkpt>
      <trkpt lat="48.71549" lon="2.29861">
        <ele>92.7</ele>
        <time>2020-07-02T08:12:06Z</time>
      </trkpt>
      <trkpt lat="48.71545" lon="2.29864">
        <ele>92.8</ele>
        <time>2020-07-02T08:12:07Z</time>
      </trkpt>
      <trkpt lat="48.71543" lon="2.29866">
        <ele>92.8</ele>
        <time>2020-07-02T08:12:08Z</time>
      </trkpt>
      <trkpt lat="48.71541" lon="2.29869">
        <ele>92.9</ele>
        <time>2020-07-02T08:12:09Z</time>
      </trkpt>
      <trkpt lat="48.71538" lon="2.29871">
        <ele>92.9</ele>
        <time>2020-07-02T08:12:10Z</time>
      </trkpt>
      <trkpt lat="48.71535" lon="2.29873">
        <ele>92.9</ele>
        <time>2020-07-02T08:12:11Z</time>
      </trkpt>
      <trkpt lat="48.71533" lon="2.29874">
        <ele>93</ele>
        <time>2020-07-02T08:12:12Z</time>
      </trkpt>
      <trkpt lat="48.71532" lon="2.29873">
        <ele>93</ele>
        <time>2020-07-02T08:12:13Z</time>
      </trkpt>
      <trkpt lat="48.71529" lon="2.2987">
        <ele>93.2</ele>
        <time>2020-07-02T08:12:14Z</time>
      </trkpt>
      <trkpt lat="48.71527" lon="2.29868">
        <ele>93.3</ele>
        <time>2020-07-02T08:12:15Z</time>
      </trkpt>
      <trkpt lat="48.71525" lon="2.29865">
        <ele>93.3</ele>
        <time>2020-07-02T08:12:16Z</time>
      </trkpt>
      <trkpt lat="48.71522" lon="2.29862">
        <ele>93.3</ele>
        <time>2020-07-02T08:12:17Z</time>
      </trkpt>
      <trkpt lat="48.71519" lon="2.29859">
        <ele>93.4</ele>
        <time>2020-07-02T08:12:18Z</time>
      </trkpt>
      <trkpt lat="48.71516" lon="2.29856">
        <ele>93.3</ele>
        <time>2020-07-02T08:12:19Z</time>
      </trkpt>
      <trkpt lat="48.71513" lon="2.29854">
        <ele>93.3</ele>
        <time>2020-07-02T08:12:20Z</time>
      </trkpt>
      <trkpt lat="48.71513" lon="2.29854">
        <ele>93.3</ele>
        <time>2020-07-02T08:12:21Z</time>
      </trkpt>
      <trkpt lat="48.71512" lon="2.29853">
        <ele>93.3</ele>
        <time>2020-07-02T08:12:22Z</time>
      </trkpt>
      <trkpt lat="48.71513" lon="2.29855">
        <ele>93.2</ele>
        <time>2020-07-02T08:12:23Z</time>
      </trkpt>
      <trkpt lat="48.71513" lon="2.29855">
        <ele>93.2</ele>
        <time>2020-07-02T08:12:24Z</time>
      </trkpt>
      <trkpt lat="48.71512" lon="2.29854">
        <ele>93.2</ele>
        <time>2020-07-02T08:12:25Z</time>
      </trkpt>
      <trkpt lat="48.71511" lon="2.29854">
        <ele>93.2</ele>
        <time>2020-07-02T08:12:26Z</time>
      </trkpt>
      <trkpt lat="48.71511" lon="2.29854">
        <ele>93.2</ele>
        <time>2020-07-02T08:12:27Z</time>
      </trkpt>
      <trkpt lat="48.7151" lon="2.29854">
        <ele>93.2</ele>
        <time>2020-07-02T08:12:28Z</time>
      </trkpt>
      <trkpt lat="48.7151" lon="2.29855">
        <ele>93.2</ele>
        <time>2020-07-02T08:12:29Z</time>
      </trkpt>
      <trkpt lat="48.71507" lon="2.29853">
        <ele>93.2</ele>
        <time>2020-07-02T08:12:30Z</time>
      </trkpt>
      <trkpt lat="48.71506" lon="2.29853">
        <ele>93.2</ele>
        <time>2020-07-02T08:12:31Z</time>
      </trkpt>
      <trkpt lat="48.71503" lon="2.2985">
        <ele>93.2</ele>
        <time>2020-07-02T08:12:32Z</time>
      </trkpt>
      <trkpt lat="48.71502" lon="2.29849">
        <ele>93.3</ele>
        <time>2020-07-02T08:12:33Z</time>
      </trkpt>
      <trkpt lat="48.71498" lon="2.29847">
        <ele>93.2</ele>
        <time>2020-07-02T08:12:34Z</time>
      </trkpt>
      <trkpt lat="48.71497" lon="2.29846">
        <ele>93.2</ele>
        <time>2020-07-02T08:12:35Z</time>
      </trkpt>
      <trkpt lat="48.71493" lon="2.29845">
        <ele>93.2</ele>
        <time>2020-07-02T08:12:36Z</time>
      </trkpt>
      <trkpt lat="48.7149" lon="2.29843">
        <ele>93.1</ele>
        <time>2020-07-02T08:12:37Z</time>
      </trkpt>
      <trkpt lat="48.71486" lon="2.29842">
        <ele>93.1</ele>
        <time>2020-07-02T08:12:38Z</time>
      </trkpt>
      <trkpt lat="48.71482" lon="2.29841">
        <ele>93.1</ele>
        <time>2020-07-02T08:12:39Z</time>
      </trkpt>
      <trkpt lat="48.71478" lon="2.29839">
        <ele>93.1</ele>
        <time>2020-07-02T08:12:40Z</time>
      </trkpt>
      <trkpt lat="48.71473" lon="2.29838">
        <ele>93.1</ele>
        <time>2020-07-02T08:12:41Z</time>
      </trkpt>
      <trkpt lat="48.71468" lon="2.29836">
        <ele>93.1</ele>
        <time>2020-07-02T08:12:42Z</time>
      </trkpt>
      <trkpt lat="48.71463" lon="2.29834">
        <ele>93.2</ele>
        <time>2020-07-02T08:12:43Z</time>
      </trkpt>
      <trkpt lat="48.71458" lon="2.29833">
        <ele>93.2</ele>
        <time>2020-07-02T08:12:44Z</time>
      </trkpt>
      <trkpt lat="48.71453" lon="2.29831">
        <ele>93.2</ele>
        <time>2020-07-02T08:12:45Z</time>
      </trkpt>
      <trkpt lat="48.71448" lon="2.2983">
        <ele>93.2</ele>
        <time>2020-07-02T08:12:46Z</time>
      </trkpt>
      <trkpt lat="48.71442" lon="2.29829">
        <ele>93.2</ele>
        <time>2020-07-02T08:12:47Z</time>
      </trkpt>
      <trkpt lat="48.71436" lon="2.2983">
        <ele>93.2</ele>
        <time>2020-07-02T08:12:48Z</time>
      </trkpt>
      <trkpt lat="48.7143" lon="2.2983">
        <ele>93.2</ele>
        <time>2020-07-02T08:12:49Z</time>
      </trkpt>
      <trkpt lat="48.71424" lon="2.29829">
        <ele>93.2</ele>
        <time>2020-07-02T08:12:50Z</time>
      </trkpt>
      <trkpt lat="48.71418" lon="2.29828">
        <ele>93.2</ele>
        <time>2020-07-02T08:12:51Z</time>
      </trkpt>
      <trkpt lat="48.71412" lon="2.29827">
        <ele>93.2</ele>
        <time>2020-07-02T08:12:52Z</time>
      </trkpt>
      <trkpt lat="48.71405" lon="2.29827">
        <ele>93.2</ele>
        <time>2020-07-02T08:12:53Z</time>
      </trkpt>
      <trkpt lat="48.71399" lon="2.29827">
        <ele>93.3</ele>
        <time>2020-07-02T08:12:54Z</time>
      </trkpt>
      <trkpt lat="48.71393" lon="2.29826">
        <ele>93.3</ele>
        <time>2020-07-02T08:12:55Z</time>
      </trkpt>
      <trkpt lat="48.71387" lon="2.29826">
        <ele>93.4</ele>
        <time>2020-07-02T08:12:56Z</time>
      </trkpt>
      <trkpt lat="48.7138" lon="2.29826">
        <ele>93.4</ele>
        <time>2020-07-02T08:12:57Z</time>
      </trkpt>
      <trkpt lat="48.71374" lon="2.29824">
        <ele>93.5</ele>
        <time>2020-07-02T08:12:58Z</time>
      </trkpt>
      <trkpt lat="48.71367" lon="2.29823">
        <ele>93.5</ele>
        <time>2020-07-02T08:12:59Z</time>
      </trkpt>
      <trkpt lat="48.71361" lon="2.29822">
        <ele>93.6</ele>
        <time>2020-07-02T08:13:00Z</time>
      </trkpt>
      <trkpt lat="48.71355" lon="2.29821">
        <ele>93.6</ele>
        <time>2020-07-02T08:13:01Z</time>
      </trkpt>
      <trkpt lat="48.7135" lon="2.29819">
        <ele>93.7</ele>
        <time>2020-07-02T08:13:02Z</time>
      </trkpt>
      <trkpt lat="48.71345" lon="2.29818">
        <ele>93.7</ele>
        <time>2020-07-02T08:13:03Z</time>
      </trkpt>
      <trkpt lat="48.71339" lon="2.29816">
        <ele>93.8</ele>
        <time>2020-07-02T08:13:04Z</time>
      </trkpt>
      <trkpt lat="48.71334" lon="2.29815">
        <ele>93.9</ele>
        <time>2020-07-02T08:13:05Z</time>
      </trkpt>
      <trkpt lat="48.7133" lon="2.29814">
        <ele>93.9</ele>
        <time>2020-07-02T08:13:06Z</time>
      </trkpt>
      <trkpt lat="48.71327" lon="2.29813">
        <ele>93.9</ele>
        <time>2020-07-02T08:13:07Z</time>
      </trkpt>
      <trkpt lat="48.71323" lon="2.29812">
        <ele>94</ele>
        <time>2020-07-02T08:13:08Z</time>
      </trkpt>
      <trkpt lat="48.7132" lon="2.29811">
        <ele>94</ele>
        <time>2020-07-02T08:13:09Z</time>
      </trkpt>
      <trkpt lat="48.71315" lon="2.29809">
        <ele>94.1</ele>
        <time>2020-07-02T08:13:10Z</time>
      </trkpt>
      <trkpt lat="48.7131" lon="2.29809">
        <ele>94.1</ele>
        <time>2020-07-02T08:13:11Z</time>
      </trkpt>
      <trkpt lat="48.71306" lon="2.29808">
        <ele>94.1</ele>
        <time>2020-07-02T08:13:12Z</time>
      </trkpt>
      <trkpt lat="48.71302" lon="2.29808">
        <ele>94.2</ele>
        <time>2020-07-02T08:13:13Z</time>
      </trkpt>
      <trkpt lat="48.71296" lon="2.29807">
        <ele>94.2</ele>
        <time>2020-07-02T08:13:14Z</time>
      </trkpt>
      <trkpt lat="48.71291" lon="2.29806">
        <ele>94.3</ele>
        <time>2020-07-02T08:13:15Z</time>
      </trkpt>
      <trkpt lat="48.71286" lon="2.29806">
        <ele>94.3</ele>
        <time>2020-07-02T08:13:16Z</time>
      </trkpt>
      <trkpt lat="48.7128" lon="2.29805">
        <ele>94.3</ele>
        <time>2020-07-02T08:13:17Z</time>
      </trkpt>
      <trkpt lat="48.71275" lon="2.29805">
        <ele>94.4</ele>
        <time>2020-07-02T08:13:18Z</time>
      </trkpt>
      <trkpt lat="48.71271" lon="2.29804">
        <ele>94.5</ele>
        <time>2020-07-02T08:13:19Z</time>
      </trkpt>
      <trkpt lat="48.71265" lon="2.29806">
        <ele>94.5</ele>
        <time>2020-07-02T08:13:20Z</time>
      </trkpt>
      <trkpt lat="48.7126" lon="2.29806">
        <ele>94.6</ele>
        <time>2020-07-02T08:13:21Z</time>
      </trkpt>
      <trkpt lat="48.71256" lon="2.29805">
        <ele>94.6</ele>
        <time>2020-07-02T08:13:22Z</time>
      </trkpt>
      <trkpt lat="48.71252" lon="2.29804">
        <ele>94.7</ele>
        <time>2020-07-02T08:13:23Z</time>
      </trkpt>
      <trkpt lat="48.71248" lon="2.29802">
        <ele>94.8</ele>
        <time>2020-07-02T08:13:24Z</time>
      </trkpt>
      <trkpt lat="48.71242" lon="2.29802">
        <ele>94.8</ele>
        <time>2020-07-02T08:13:25Z</time>
      </trkpt>
      <trkpt lat="48.71238" lon="2.29801">
        <ele>94.9</ele>
        <time>2020-07-02T08:13:26Z</time>
      </trkpt>
      <trkpt lat="48.71233" lon="2.298">
        <ele>94.9</ele>
        <time>2020-07-02T08:13:27Z</time>
      </trkpt>
      <trkpt lat="48.71228" lon="2.29799">
        <ele>94.9</ele>
        <time>2020-07-02T08:13:28Z</time>
      </trkpt>
      <trkpt lat="48.71221" lon="2.29798">
        <ele>94.9</ele>
        <time>2020-07-02T08:13:29Z</time>
      </trkpt>
      <trkpt lat="48.71216" lon="2.29798">
        <ele>95</ele>
        <time>2020-07-02T08:13:30Z</time>
      </trkpt>
      <trkpt lat="48.71211" lon="2.29796">
        <ele>95</ele>
        <time>2020-07-02T08:13:31Z</time>
      </trkpt>
      <trkpt lat="48.71206" lon="2.29795">
        <ele>95</ele>
        <time>2020-07-02T08:13:32Z</time>
      </trkpt>
      <trkpt lat="48.71201" lon="2.29794">
        <ele>95.1</ele>
        <time>2020-07-02T08:13:33Z</time>
      </trkpt>
      <trkpt lat="48.71196" lon="2.29794">
        <ele>95.1</ele>
        <time>2020-07-02T08:13:34Z</time>
      </trkpt>
      <trkpt lat="48.71191" lon="2.29791">
        <ele>95.2</ele>
        <time>2020-07-02T08:13:35Z</time>
      </trkpt>
      <trkpt lat="48.71187" lon="2.2979">
        <ele>95.2</ele>
        <time>2020-07-02T08:13:36Z</time>
      </trkpt>
      <trkpt lat="48.71184" lon="2.29791">
        <ele>95.2</ele>
        <time>2020-07-02T08:13:37Z</time>
      </trkpt>
      <trkpt lat="48.71178" lon="2.2979">
        <ele>95.3</ele>
        <time>2020-07-02T08:13:38Z</time>
      </trkpt>
      <trkpt lat="48.71172" lon="2.2979">
        <ele>95.4</ele>
        <time>2020-07-02T08:13:39Z</time>
      </trkpt>
      <trkpt lat="48.71166" lon="2.2979">
        <ele>95.4</ele>
        <time>2020-07-02T08:13:40Z</time>
      </trkpt>
      <trkpt lat="48.71161" lon="2.2979">
        <ele>95.5</ele>
        <time>2020-07-02T08:13:41Z</time>
      </trkpt>
      <trkpt lat="48.71155" lon="2.29788">
        <ele>95.5</ele>
        <time>2020-07-02T08:13:42Z</time>
      </trkpt>
      <trkpt lat="48.71148" lon="2.29787">
        <ele>95.6</ele>
        <time>2020-07-02T08:13:43Z</time>
      </trkpt>
      <trkpt lat="48.71143" lon="2.29787">
        <ele>95.6</ele>
        <time>2020-07-02T08:13:44Z</time>
      </trkpt>
      <trkpt lat="48.71138" lon="2.29786">
        <ele>95.7</ele>
        <time>2020-07-02T08:13:45Z</time>
      </trkpt>
      <trkpt lat="48.71133" lon="2.29785">
        <ele>95.7</ele>
        <time>2020-07-02T08:13:46Z</time>
      </trkpt>
      <trkpt lat="48.71129" lon="2.29784">
        <ele>95.8</ele>
        <time>2020-07-02T08:13:47Z</time>
      </trkpt>
      <trkpt lat="48.71123" lon="2.29783">
        <ele>95.9</ele>
        <time>2020-07-02T08:13:48Z</time>
      </trkpt>
      <trkpt lat="48.71118" lon="2.29782">
        <ele>95.9</ele>
        <time>2020-07-02T08:13:49Z</time>
      </trkpt>
      <trkpt lat="48.71112" lon="2.29781">
        <ele>96</ele>
        <time>2020-07-02T08:13:50Z</time>
      </trkpt>
      <trkpt lat="48.71107" lon="2.29779">
        <ele>96.1</ele>
        <time>2020-07-02T08:13:51Z</time>
      </trkpt>
      <trkpt lat="48.71101" lon="2.29778">
        <ele>96.1</ele>
        <time>2020-07-02T08:13:52Z</time>
      </trkpt>
      <trkpt lat="48.71095" lon="2.29776">
        <ele>96.2</ele>
        <time>2020-07-02T08:13:53Z</time>
      </trkpt>
      <trkpt lat="48.71088" lon="2.29774">
        <ele>96.2</ele>
        <time>2020-07-02T08:13:54Z</time>
      </trkpt>
      <trkpt lat="48.71082" lon="2.29774">
        <ele>96.3</ele>
        <time>2020-07-02T08:13:55Z</time>
      </trkpt>
      <trkpt lat="48.71077" lon="2.29774">
        <ele>96.3</ele>
        <time>2020-07-02T08:13:56Z</time>
      </trkpt>
      <trkpt lat="48.71071" lon="2.29774">
        <ele>96.4</ele>
        <time>2020-07-02T08:13:57Z</time>
      </trkpt>
      <trkpt lat="48.71065" lon="2.29773">
        <ele>96.4</ele>
        <time>2020-07-02T08:13:58Z</time>
      </trkpt>
      <trkpt lat="48.7106" lon="2.29773">
        <ele>96.4</ele>
        <time>2020-07-02T08:13:59Z</time>
      </trkpt>
      <trkpt lat="48.71054" lon="2.29773">
        <ele>96.5</ele>
        <time>2020-07-02T08:14:00Z</time>
      </trkpt>
      <trkpt lat="48.71049" lon="2.29774">
        <ele>96.5</ele>
        <time>2020-07-02T08:14:01Z</time>
      </trkpt>
      <trkpt lat="48.71045" lon="2.29774">
        <ele>96.6</ele>
        <time>2020-07-02T08:14:02Z</time>
      </trkpt>
      <trkpt lat="48.71041" lon="2.29773">
        <ele>96.7</ele>
        <time>2020-07-02T08:14:03Z</time>
      </trkpt>
      <trkpt lat="48.71038" lon="2.29772">
        <ele>96.7</ele>
        <time>2020-07-02T08:14:04Z</time>
      </trkpt>
      <trkpt lat="48.71035" lon="2.29773">
        <ele>96.7</ele>
        <time>2020-07-02T08:14:05Z</time>
      </trkpt>
      <trkpt lat="48.71031" lon="2.29772">
        <ele>96.8</ele>
        <time>2020-07-02T08:14:06Z</time>
      </trkpt>
      <trkpt lat="48.71026" lon="2.29771">
        <ele>96.8</ele>
        <time>2020-07-02T08:14:07Z</time>
      </trkpt>
      <trkpt lat="48.71022" lon="2.29769">
        <ele>96.8</ele>
        <time>2020-07-02T08:14:08Z</time>
      </trkpt>
      <trkpt lat="48.71017" lon="2.29768">
        <ele>96.8</ele>
        <time>2020-07-02T08:14:09Z</time>
      </trkpt>
      <trkpt lat="48.71012" lon="2.29767">
        <ele>96.8</ele>
        <time>2020-07-02T08:14:10Z</time>
      </trkpt>
      <trkpt lat="48.71006" lon="2.29766">
        <ele>96.8</ele>
        <time>2020-07-02T08:14:11Z</time>
      </trkpt>
      <trkpt lat="48.71" lon="2.29765">
        <ele>96.8</ele>
        <time>2020-07-02T08:14:12Z</time>
      </trkpt>
      <trkpt lat="48.70994" lon="2.29763">
        <ele>96.9</ele>
        <time>2020-07-02T08:14:13Z</time>
      </trkpt>
      <trkpt lat="48.70987" lon="2.29761">
        <ele>96.9</ele>
        <time>2020-07-02T08:14:14Z</time>
      </trkpt>
      <trkpt lat="48.70982" lon="2.29762">
        <ele>96.9</ele>
        <time>2020-07-02T08:14:15Z</time>
      </trkpt>
      <trkpt lat="48.70976" lon="2.2976">
        <ele>97</ele>
        <time>2020-07-02T08:14:16Z</time>
      </trkpt>
      <trkpt lat="48.70971" lon="2.2976">
        <ele>97</ele>
        <time>2020-07-02T08:14:17Z</time>
      </trkpt>
      <trkpt lat="48.70965" lon="2.29758">
        <ele>97</ele>
        <time>2020-07-02T08:14:18Z</time>
      </trkpt>
      <trkpt lat="48.7096" lon="2.29757">
        <ele>97.1</ele>
        <time>2020-07-02T08:14:19Z</time>
      </trkpt>
      <trkpt lat="48.70954" lon="2.29756">
        <ele>97.1</ele>
        <time>2020-07-02T08:14:20Z</time>
      </trkpt>
      <trkpt lat="48.70949" lon="2.29755">
        <ele>97.2</ele>
        <time>2020-07-02T08:14:21Z</time>
      </trkpt>
      <trkpt lat="48.70945" lon="2.29753">
        <ele>97.2</ele>
        <time>2020-07-02T08:14:22Z</time>
      </trkpt>
      <trkpt lat="48.70941" lon="2.29754">
        <ele>97.2</ele>
        <time>2020-07-02T08:14:23Z</time>
      </trkpt>
      <trkpt lat="48.70937" lon="2.29754">
        <ele>97.3</ele>
        <time>2020-07-02T08:14:24Z</time>
      </trkpt>
      <trkpt lat="48.70933" lon="2.29755">
        <ele>97.3</ele>
        <time>2020-07-02T08:14:25Z</time>
      </trkpt>
      <trkpt lat="48.70929" lon="2.29755">
        <ele>97.3</ele>
        <time>2020-07-02T08:14:26Z</time>
      </trkpt>
      <trkpt lat="48.70925" lon="2.29754">
        <ele>97.3</ele>
        <time>2020-07-02T08:14:27Z</time>
      </trkpt>
      <trkpt lat="48.70921" lon="2.29754">
        <ele>97.3</ele>
        <time>2020-07-02T08:14:28Z</time>
      </trkpt>
      <trkpt lat="48.70917" lon="2.29753">
        <ele>97.3</ele>
        <time>2020-07-02T08:14:29Z</time>
      </trkpt>
      <trkpt lat="48.70913" lon="2.29752">
        <ele>97.3</ele>
        <time>2020-07-02T08:14:30Z</time>
      </trkpt>
      <trkpt lat="48.7091" lon="2.29751">
        <ele>97.3</ele>
        <time>2020-07-02T08:14:31Z</time>
      </trkpt>
      <trkpt lat="48.70907" lon="2.29751">
        <ele>97.3</ele>
        <time>2020-07-02T08:14:32Z</time>
      </trkpt>
      <trkpt lat="48.70903" lon="2.29751">
        <ele>97.3</ele>
        <time>2020-07-02T08:14:33Z</time>
      </trkpt>
      <trkpt lat="48.70901" lon="2.29751">
        <ele>97.3</ele>
        <time>2020-07-02T08:14:34Z</time>
      </trkpt>
      <trkpt lat="48.709" lon="2.29751">
        <ele>97.3</ele>
        <time>2020-07-02T08:14:35Z</time>
      </trkpt>
      <trkpt lat="48.709" lon="2.2975">
        <ele>97.3</ele>
        <time>2020-07-02T08:14:36Z</time>
      </trkpt>
      <trkpt lat="48.709" lon="2.2975">
        <ele>97.3</ele>
        <time>2020-07-02T08:14:37Z</time>
      </trkpt>
      <trkpt lat="48.70899" lon="2.29751">
        <ele>97.3</ele>
        <time>2020-07-02T08:14:38Z</time>
      </trkpt>
      <trkpt lat="48.709" lon="2.29751">
        <ele>97.3</ele>
        <time>2020-07-02T08:14:39Z</time>
      </trkpt>
      <trkpt lat="48.70899" lon="2.29751">
        <ele>97.3</ele>
        <time>2020-07-02T08:14:40Z</time>
      </trkpt>
      <trkpt lat="48.70899" lon="2.29752">
        <ele>97.3</ele>
        <time>2020-07-02T08:14:41Z</time>
      </trkpt>
      <trkpt lat="48.70899" lon="2.29752">
        <ele>97.3</ele>
        <time>2020-07-02T08:14:42Z</time>
      </trkpt>
      <trkpt lat="48.70899" lon="2.29752">
        <ele>97.3</ele>
        <time>2020-07-02T08:14:43Z</time>
      </trkpt>
      <trkpt lat="48.70899" lon="2.29751">
        <ele>97.3</ele>
        <time>2020-07-02T08:14:44Z</time>
      </trkpt>
      <trkpt lat="48.70899" lon="2.29751">
        <ele>97.3</ele>
        <time>2020-07-02T08:14:45Z</time>
      </trkpt>
      <trkpt lat="48.709" lon="2.29751">
        <ele>97.3</ele>
        <time>2020-07-02T08:14:46Z</time>
      </trkpt>
      <trkpt lat="48.70899" lon="2.29752">
        <ele>97.3</ele>
        <time>2020-07-02T08:14:47Z</time>
      </trkpt>
      <trkpt lat="48.70906" lon="2.29754">
        <ele>97.3</ele>
        <time>2020-07-02T08:14:52Z</time>
      </trkpt>
      <trkpt lat="48.70908" lon="2.29753">
        <ele>97.3</ele>
        <time>2020-07-02T08:14:53Z</time>
      </trkpt>
      <trkpt lat="48.70909" lon="2.2975">
        <ele>97.3</ele>
        <time>2020-07-02T08:14:54Z</time>
      </trkpt>
      <trkpt lat="48.70908" lon="2.29748">
        <ele>97.3</ele>
        <time>2020-07-02T08:14:55Z</time>
      </trkpt>
      <trkpt lat="48.70906" lon="2.29746">
        <ele>97.3</ele>
        <time>2020-07-02T08:14:56Z</time>
      </trkpt>
      <trkpt lat="48.70905" lon="2.29745">
        <ele>97.3</ele>
        <time>2020-07-02T08:14:57Z</time>
      </trkpt>
      <trkpt lat="48.70902" lon="2.29743">
        <ele>97.3</ele>
        <time>2020-07-02T08:14:58Z</time>
      </trkpt>
      <trkpt lat="48.70901" lon="2.29743">
        <ele>97.3</ele>
        <time>2020-07-02T08:14:59Z</time>
      </trkpt>
      <trkpt lat="48.70898" lon="2.29742">
        <ele>97.3</ele>
        <time>2020-07-02T08:15:00Z</time>
      </trkpt>
      <trkpt lat="48.70895" lon="2.29742">
        <ele>97.3</ele>
        <time>2020-07-02T08:15:01Z</time>
      </trkpt>
      <trkpt lat="48.70891" lon="2.2974">
        <ele>97.2</ele>
        <time>2020-07-02T08:15:02Z</time>
      </trkpt>
      <trkpt lat="48.70887" lon="2.29739">
        <ele>97.2</ele>
        <time>2020-07-02T08:15:03Z</time>
      </trkpt>
      <trkpt lat="48.70883" lon="2.29738">
        <ele>97.2</ele>
        <time>2020-07-02T08:15:04Z</time>
      </trkpt>
      <trkpt lat="48.70879" lon="2.29739">
        <ele>97.2</ele>
        <time>2020-07-02T08:15:05Z</time>
      </trkpt>
      <trkpt lat="48.70874" lon="2.29739">
        <ele>97.2</ele>
        <time>2020-07-02T08:15:06Z</time>
      </trkpt>
      <trkpt lat="48.70871" lon="2.2974">
        <ele>97.2</ele>
        <time>2020-07-02T08:15:07Z</time>
      </trkpt>
      <trkpt lat="48.70867" lon="2.29742">
        <ele>97.2</ele>
        <time>2020-07-02T08:15:08Z</time>
      </trkpt>
      <trkpt lat="48.70864" lon="2.29744">
        <ele>97.1</ele>
        <time>2020-07-02T08:15:09Z</time>
      </trkpt>
      <trkpt lat="48.7086" lon="2.29747">
        <ele>97.1</ele>
        <time>2020-07-02T08:15:10Z</time>
      </trkpt>
      <trkpt lat="48.70857" lon="2.29748">
        <ele>97.1</ele>
        <time>2020-07-02T08:15:11Z</time>
      </trkpt>
      <trkpt lat="48.70851" lon="2.29746">
        <ele>97</ele>
        <time>2020-07-02T08:15:12Z</time>
      </trkpt>
      <trkpt lat="48.70845" lon="2.29745">
        <ele>97</ele>
        <time>2020-07-02T08:15:13Z</time>
      </trkpt>
      <trkpt lat="48.70839" lon="2.29744">
        <ele>96.9</ele>
        <time>2020-07-02T08:15:14Z</time>
      </trkpt>
      <trkpt lat="48.70833" lon="2.29743">
        <ele>96.9</ele>
        <time>2020-07-02T08:15:15Z</time>
      </trkpt>
      <trkpt lat="48.70826" lon="2.29743">
        <ele>96.8</ele>
        <time>2020-07-02T08:15:16Z</time>
      </trkpt>
      <trkpt lat="48.70819" lon="2.29741">
        <ele>96.8</ele>
        <time>2020-07-02T08:15:17Z</time>
      </trkpt>
      <trkpt lat="48.70812" lon="2.29742">
        <ele>96.7</ele>
        <time>2020-07-02T08:15:18Z</time>
      </trkpt>
      <trkpt lat="48.70806" lon="2.29742">
        <ele>96.7</ele>
        <time>2020-07-02T08:15:19Z</time>
      </trkpt>
      <trkpt lat="48.708" lon="2.29741">
        <ele>96.6</ele>
        <time>2020-07-02T08:15:20Z</time>
      </trkpt>
      <trkpt lat="48.70795" lon="2.29741">
        <ele>96.6</ele>
        <time>2020-07-02T08:15:21Z</time>
      </trkpt>
      <trkpt lat="48.70789" lon="2.2974">
        <ele>96.6</ele>
        <time>2020-07-02T08:15:22Z</time>
      </trkpt>
      <trkpt lat="48.70784" lon="2.29738">
        <ele>96.5</ele>
        <time>2020-07-02T08:15:23Z</time>
      </trkpt>
      <trkpt lat="48.70778" lon="2.29736">
        <ele>96.5</ele>
        <time>2020-07-02T08:15:24Z</time>
      </trkpt>
      <trkpt lat="48.70773" lon="2.29734">
        <ele>96.4</ele>
        <time>2020-07-02T08:15:25Z</time>
      </trkpt>
      <trkpt lat="48.70767" lon="2.29734">
        <ele>96.3</ele>
        <time>2020-07-02T08:15:26Z</time>
      </trkpt>
      <trkpt lat="48.70761" lon="2.29732">
        <ele>96.2</ele>
        <time>2020-07-02T08:15:27Z</time>
      </trkpt>
      <trkpt lat="48.70754" lon="2.29733">
        <ele>96.2</ele>
        <time>2020-07-02T08:15:28Z</time>
      </trkpt>
      <trkpt lat="48.70748" lon="2.29731">
        <ele>96.2</ele>
        <time>2020-07-02T08:15:29Z</time>
      </trkpt>
      <trkpt lat="48.70742" lon="2.2973">
        <ele>96.1</ele>
        <time>2020-07-02T08:15:30Z</time>
      </trkpt>
      <trkpt lat="48.70735" lon="2.29729">
        <ele>96</ele>
        <time>2020-07-02T08:15:31Z</time>
      </trkpt>
      <trkpt lat="48.70729" lon="2.29727">
        <ele>95.9</ele>
        <time>2020-07-02T08:15:32Z</time>
      </trkpt>
      <trkpt lat="48.70723" lon="2.29725">
        <ele>95.8</ele>
        <time>2020-07-02T08:15:33Z</time>
      </trkpt>
      <trkpt lat="48.70718" lon="2.29724">
        <ele>95.7</ele>
        <time>2020-07-02T08:15:34Z</time>
      </trkpt>
      <trkpt lat="48.70712" lon="2.29723">
        <ele>95.5</ele>
        <time>2020-07-02T08:15:35Z</time>
      </trkpt>
      <trkpt lat="48.70706" lon="2.29723">
        <ele>95.4</ele>
        <time>2020-07-02T08:15:36Z</time>
      </trkpt>
      <trkpt lat="48.70699" lon="2.29723">
        <ele>95.2</ele>
        <time>2020-07-02T08:15:37Z</time>
      </trkpt>
      <trkpt lat="48.70693" lon="2.29722">
        <ele>95</ele>
        <time>2020-07-02T08:15:38Z</time>
      </trkpt>
      <trkpt lat="48.70687" lon="2.29722">
        <ele>94.9</ele>
        <time>2020-07-02T08:15:39Z</time>
      </trkpt>
      <trkpt lat="48.70681" lon="2.29721">
        <ele>94.7</ele>
        <time>2020-07-02T08:15:40Z</time>
      </trkpt>
      <trkpt lat="48.70675" lon="2.2972">
        <ele>94.6</ele>
        <time>2020-07-02T08:15:41Z</time>
      </trkpt>
      <trkpt lat="48.70668" lon="2.29719">
        <ele>94.4</ele>
        <time>2020-07-02T08:15:42Z</time>
      </trkpt>
      <trkpt lat="48.70662" lon="2.29718">
        <ele>94.1</ele>
        <time>2020-07-02T08:15:43Z</time>
      </trkpt>
      <trkpt lat="48.70656" lon="2.29718">
        <ele>93.8</ele>
        <time>2020-07-02T08:15:44Z</time>
      </trkpt>
      <trkpt lat="48.70649" lon="2.29718">
        <ele>93.5</ele>
        <time>2020-07-02T08:15:45Z</time>
      </trkpt>
      <trkpt lat="48.70641" lon="2.29718">
        <ele>93.1</ele>
        <time>2020-07-02T08:15:46Z</time>
      </trkpt>
      <trkpt lat="48.70634" lon="2.29717">
        <ele>92.7</ele>
        <time>2020-07-02T08:15:47Z</time>
      </trkpt>
      <trkpt lat="48.70626" lon="2.29716">
        <ele>92.2</ele>
        <time>2020-07-02T08:15:48Z</time>
      </trkpt>
      <trkpt lat="48.70619" lon="2.29716">
        <ele>91.8</ele>
        <time>2020-07-02T08:15:49Z</time>
      </trkpt>
      <trkpt lat="48.70611" lon="2.29715">
        <ele>91.4</ele>
        <time>2020-07-02T08:15:50Z</time>
      </trkpt>
      <trkpt lat="48.70603" lon="2.29713">
        <ele>90.9</ele>
        <time>2020-07-02T08:15:51Z</time>
      </trkpt>
      <trkpt lat="48.70595" lon="2.29712">
        <ele>90.4</ele>
        <time>2020-07-02T08:15:52Z</time>
      </trkpt>
      <trkpt lat="48.70587" lon="2.29712">
        <ele>89.9</ele>
        <time>2020-07-02T08:15:53Z</time>
      </trkpt>
      <trkpt lat="48.70579" lon="2.29711">
        <ele>89.4</ele>
        <time>2020-07-02T08:15:54Z</time>
      </trkpt>
      <trkpt lat="48.70572" lon="2.29711">
        <ele>89</ele>
        <time>2020-07-02T08:15:55Z</time>
      </trkpt>
      <trkpt lat="48.70565" lon="2.2971">
        <ele>88.5</ele>
        <time>2020-07-02T08:15:56Z</time>
      </trkpt>
      <trkpt lat="48.70559" lon="2.2971">
        <ele>88</ele>
        <time>2020-07-02T08:15:57Z</time>
      </trkpt>
      <trkpt lat="48.70551" lon="2.2971">
        <ele>87.6</ele>
        <time>2020-07-02T08:15:58Z</time>
      </trkpt>
      <trkpt lat="48.70544" lon="2.29709">
        <ele>87.1</ele>
        <time>2020-07-02T08:15:59Z</time>
      </trkpt>
      <trkpt lat="48.70537" lon="2.29708">
        <ele>86.6</ele>
        <time>2020-07-02T08:16:00Z</time>
      </trkpt>
      <trkpt lat="48.70529" lon="2.29706">
        <ele>86.2</ele>
        <time>2020-07-02T08:16:01Z</time>
      </trkpt>
      <trkpt lat="48.70522" lon="2.29704">
        <ele>85.8</ele>
        <time>2020-07-02T08:16:02Z</time>
      </trkpt>
      <trkpt lat="48.70514" lon="2.29703">
        <ele>85.3</ele>
        <time>2020-07-02T08:16:03Z</time>
      </trkpt>
      <trkpt lat="48.70506" lon="2.29702">
        <ele>84.8</ele>
        <time>2020-07-02T08:16:04Z</time>
      </trkpt>
      <trkpt lat="48.70499" lon="2.29701">
        <ele>84.4</ele>
        <time>2020-07-02T08:16:05Z</time>
      </trkpt>
      <trkpt lat="48.70491" lon="2.297">
        <ele>84</ele>
        <time>2020-07-02T08:16:06Z</time>
      </trkpt>
      <trkpt lat="48.70484" lon="2.29699">
        <ele>83.6</ele>
        <time>2020-07-02T08:16:07Z</time>
      </trkpt>
      <trkpt lat="48.70477" lon="2.29697">
        <ele>83.2</ele>
        <time>2020-07-02T08:16:08Z</time>
      </trkpt>
      <trkpt lat="48.7047" lon="2.29696">
        <ele>82.9</ele>
        <time>2020-07-02T08:16:09Z</time>
      </trkpt>
      <trkpt lat="48.70464" lon="2.29695">
        <ele>82.6</ele>
        <time>2020-07-02T08:16:10Z</time>
      </trkpt>
      <trkpt lat="48.70458" lon="2.29694">
        <ele>82.3</ele>
        <time>2020-07-02T08:16:11Z</time>
      </trkpt>
      <trkpt lat="48.70452" lon="2.29693">
        <ele>82</ele>
        <time>2020-07-02T08:16:12Z</time>
      </trkpt>
      <trkpt lat="48.70448" lon="2.29692">
        <ele>81.8</ele>
        <time>2020-07-02T08:16:13Z</time>
      </trkpt>
      <trkpt lat="48.70443" lon="2.29692">
        <ele>81.7</ele>
        <time>2020-07-02T08:16:14Z</time>
      </trkpt>
      <trkpt lat="48.7044" lon="2.29692">
        <ele>81.3</ele>
        <time>2020-07-02T08:16:15Z</time>
      </trkpt>
      <trkpt lat="48.70436" lon="2.29692">
        <ele>81.4</ele>
        <time>2020-07-02T08:16:16Z</time>
      </trkpt>
      <trkpt lat="48.70433" lon="2.29691">
        <ele>81.5</ele>
        <time>2020-07-02T08:16:17Z</time>
      </trkpt>
      <trkpt lat="48.7043" lon="2.2969">
        <ele>81.6</ele>
        <time>2020-07-02T08:16:18Z</time>
      </trkpt>
      <trkpt lat="48.70429" lon="2.29689">
        <ele>81.6</ele>
        <time>2020-07-02T08:16:19Z</time>
      </trkpt>
      <trkpt lat="48.70426" lon="2.29687">
        <ele>81.7</ele>
        <time>2020-07-02T08:16:20Z</time>
      </trkpt>
      <trkpt lat="48.70424" lon="2.29682">
        <ele>81.8</ele>
        <time>2020-07-02T08:16:21Z</time>
      </trkpt>
      <trkpt lat="48.70421" lon="2.29677">
        <ele>81.8</ele>
        <time>2020-07-02T08:16:22Z</time>
      </trkpt>
      <trkpt lat="48.70419" lon="2.29672">
        <ele>81.8</ele>
        <time>2020-07-02T08:16:23Z</time>
      </trkpt>
      <trkpt lat="48.70418" lon="2.29668">
        <ele>81.8</ele>
        <time>2020-07-02T08:16:24Z</time>
      </trkpt>
      <trkpt lat="48.70416" lon="2.29664">
        <ele>81.8</ele>
        <time>2020-07-02T08:16:25Z</time>
      </trkpt>
      <trkpt lat="48.70414" lon="2.29659">
        <ele>81.8</ele>
        <time>2020-07-02T08:16:26Z</time>
      </trkpt>
      <trkpt lat="48.70414" lon="2.29658">
        <ele>81.8</ele>
        <time>2020-07-02T08:16:27Z</time>
      </trkpt>
      <trkpt lat="48.70412" lon="2.29657">
        <ele>81.8</ele>
        <time>2020-07-02T08:16:28Z</time>
      </trkpt>
      <trkpt lat="48.70411" lon="2.29657">
        <ele>81.2</ele>
        <time>2020-07-02T08:16:29Z</time>
      </trkpt>
      <trkpt lat="48.7041" lon="2.29657">
        <ele>81.1</ele>
        <time>2020-07-02T08:16:30Z</time>
      </trkpt>
      <trkpt lat="48.7041" lon="2.29655">
        <ele>81.1</ele>
        <time>2020-07-02T08:16:31Z</time>
      </trkpt>
      <trkpt lat="48.70409" lon="2.29655">
        <ele>81.1</ele>
        <time>2020-07-02T08:16:32Z</time>
      </trkpt>
      <trkpt lat="48.70409" lon="2.29655">
        <ele>81.1</ele>
        <time>2020-07-02T08:16:33Z</time>
      </trkpt>
      <trkpt lat="48.70409" lon="2.29656">
        <ele>81.1</ele>
        <time>2020-07-02T08:16:34Z</time>
      </trkpt>
      <trkpt lat="48.70409" lon="2.29657">
        <ele>81</ele>
        <time>2020-07-02T08:16:35Z</time>
      </trkpt>
      <trkpt lat="48.70409" lon="2.29657">
        <ele>81</ele>
        <time>2020-07-02T08:16:36Z</time>
      </trkpt>
      <trkpt lat="48.70408" lon="2.29657">
        <ele>81</ele>
        <time>2020-07-02T08:16:37Z</time>
      </trkpt>
      <trkpt lat="48.70408" lon="2.29657">
        <ele>81</ele>
        <time>2020-07-02T08:16:38Z</time>
      </trkpt>
      <trkpt lat="48.70408" lon="2.29658">
        <ele>81</ele>
        <time>2020-07-02T08:16:39Z</time>
      </trkpt>
      <trkpt lat="48.70408" lon="2.29658">
        <ele>81</ele>
        <time>2020-07-02T08:16:40Z</time>
      </trkpt>
      <trkpt lat="48.70409" lon="2.29657">
        <ele>80.9</ele>
        <time>2020-07-02T08:16:41Z</time>
      </trkpt>
      <trkpt lat="48.70409" lon="2.29657">
        <ele>80.9</ele>
        <time>2020-07-02T08:16:42Z</time>
      </trkpt>
      <trkpt lat="48.70409" lon="2.29657">
        <ele>80.9</ele>
        <time>2020-07-02T08:16:43Z</time>
      </trkpt>
      <trkpt lat="48.7041" lon="2.29656">
        <ele>80.9</ele>
        <time>2020-07-02T08:16:44Z</time>
      </trkpt>
      <trkpt lat="48.70411" lon="2.29655">
        <ele>80.9</ele>
        <time>2020-07-02T08:16:45Z</time>
      </trkpt>
      <trkpt lat="48.7041" lon="2.29655">
        <ele>80.8</ele>
        <time>2020-07-02T08:16:46Z</time>
      </trkpt>
      <trkpt lat="48.70411" lon="2.29654">
        <ele>80.8</ele>
        <time>2020-07-02T08:16:47Z</time>
      </trkpt>
      <trkpt lat="48.7041" lon="2.29654">
        <ele>80.8</ele>
        <time>2020-07-02T08:16:48Z</time>
      </trkpt>
      <trkpt lat="48.70411" lon="2.29654">
        <ele>80.8</ele>
        <time>2020-07-02T08:16:49Z</time>
      </trkpt>
      <trkpt lat="48.7041" lon="2.29653">
        <ele>80.8</ele>
        <time>2020-07-02T08:16:50Z</time>
      </trkpt>
      <trkpt lat="48.7041" lon="2.29652">
        <ele>80.8</ele>
        <time>2020-07-02T08:16:51Z</time>
      </trkpt>
      <trkpt lat="48.7041" lon="2.29652">
        <ele>80.8</ele>
        <time>2020-07-02T08:16:52Z</time>
      </trkpt>
      <trkpt lat="48.7041" lon="2.29652">
        <ele>80.8</ele>
        <time>2020-07-02T08:16:53Z</time>
      </trkpt>
      <trkpt lat="48.7041" lon="2.29652">
        <ele>80.8</ele>
        <time>2020-07-02T08:16:54Z</time>
      </trkpt>
      <trkpt lat="48.70409" lon="2.29652">
        <ele>80.7</ele>
        <time>2020-07-02T08:16:55Z</time>
      </trkpt>
      <trkpt lat="48.70408" lon="2.29652">
        <ele>80.7</ele>
        <time>2020-07-02T08:16:56Z</time>
      </trkpt>
      <trkpt lat="48.70408" lon="2.29653">
        <ele>80.7</ele>
        <time>2020-07-02T08:16:57Z</time>
      </trkpt>
      <trkpt lat="48.70408" lon="2.29653">
        <ele>80.7</ele>
        <time>2020-07-02T08:16:58Z</time>
      </trkpt>
      <trkpt lat="48.70407" lon="2.29653">
        <ele>80.7</ele>
        <time>2020-07-02T08:16:59Z</time>
      </trkpt>
      <trkpt lat="48.70407" lon="2.29653">
        <ele>80.6</ele>
        <time>2020-07-02T08:17:00Z</time>
      </trkpt>
      <trkpt lat="48.70406" lon="2.29653">
        <ele>80.6</ele>
        <time>2020-07-02T08:17:01Z</time>
      </trkpt>
      <trkpt lat="48.70406" lon="2.29653">
        <ele>80.6</ele>
        <time>2020-07-02T08:17:02Z</time>
      </trkpt>
      <trkpt lat="48.70406" lon="2.29653">
        <ele>80.6</ele>
        <time>2020-07-02T08:17:03Z</time>
      </trkpt>
      <trkpt lat="48.70405" lon="2.29653">
        <ele>80.6</ele>
        <time>2020-07-02T08:17:04Z</time>
      </trkpt>
      <trkpt lat="48.70405" lon="2.29654">
        <ele>80.5</ele>
        <time>2020-07-02T08:17:05Z</time>
      </trkpt>
      <trkpt lat="48.70404" lon="2.29655">
        <ele>80.5</ele>
        <time>2020-07-02T08:17:06Z</time>
      </trkpt>
      <trkpt lat="48.70404" lon="2.29656">
        <ele>80.5</ele>
        <time>2020-07-02T08:17:07Z</time>
      </trkpt>
      <trkpt lat="48.70403" lon="2.29658">
        <ele>80.4</ele>
        <time>2020-07-02T08:17:08Z</time>
      </trkpt>
      <trkpt lat="48.70402" lon="2.29659">
        <ele>80.4</ele>
        <time>2020-07-02T08:17:09Z</time>
      </trkpt>
      <trkpt lat="48.70402" lon="2.2966">
        <ele>80.4</ele>
        <time>2020-07-02T08:17:10Z</time>
      </trkpt>
      <trkpt lat="48.70401" lon="2.29661">
        <ele>79.9</ele>
        <time>2020-07-02T08:17:11Z</time>
      </trkpt>
      <trkpt lat="48.70401" lon="2.29662">
        <ele>79.9</ele>
        <time>2020-07-02T08:17:12Z</time>
      </trkpt>
      <trkpt lat="48.704" lon="2.29663">
        <ele>79.9</ele>
        <time>2020-07-02T08:17:13Z</time>
      </trkpt>
      <trkpt lat="48.704" lon="2.29664">
        <ele>79.9</ele>
        <time>2020-07-02T08:17:14Z</time>
      </trkpt>
      <trkpt lat="48.70399" lon="2.29665">
        <ele>79.9</ele>
        <time>2020-07-02T08:17:15Z</time>
      </trkpt>
      <trkpt lat="48.70398" lon="2.29667">
        <ele>79.9</ele>
        <time>2020-07-02T08:17:58Z</time>
      </trkpt>
      <trkpt lat="48.70398" lon="2.29668">
        <ele>79.8</ele>
        <time>2020-07-02T08:17:59Z</time>
      </trkpt>
      <trkpt lat="48.70396" lon="2.29667">
        <ele>79.8</ele>
        <time>2020-07-02T08:18:00Z</time>
      </trkpt>
      <trkpt lat="48.70394" lon="2.29669">
        <ele>79.7</ele>
        <time>2020-07-02T08:18:01Z</time>
      </trkpt>
      <trkpt lat="48.70393" lon="2.2967">
        <ele>79.6</ele>
        <time>2020-07-02T08:18:02Z</time>
      </trkpt>
      <trkpt lat="48.70393" lon="2.29671">
        <ele>79.5</ele>
        <time>2020-07-02T08:18:03Z</time>
      </trkpt>
      <trkpt lat="48.70394" lon="2.29672">
        <ele>79.5</ele>
        <time>2020-07-02T08:18:04Z</time>
      </trkpt>
      <trkpt lat="48.70394" lon="2.29673">
        <ele>79.4</ele>
        <time>2020-07-02T08:18:05Z</time>
      </trkpt>
      <trkpt lat="48.70393" lon="2.29677">
        <ele>79.2</ele>
        <time>2020-07-02T08:18:06Z</time>
      </trkpt>
      <trkpt lat="48.70392" lon="2.29678">
        <ele>79.2</ele>
        <time>2020-07-02T08:18:07Z</time>
      </trkpt>
      <trkpt lat="48.70389" lon="2.29679">
        <ele>79</ele>
        <time>2020-07-02T08:18:08Z</time>
      </trkpt>
      <trkpt lat="48.70386" lon="2.29679">
        <ele>78.8</ele>
        <time>2020-07-02T08:18:09Z</time>
      </trkpt>
      <trkpt lat="48.70383" lon="2.29679">
        <ele>78.6</ele>
        <time>2020-07-02T08:18:10Z</time>
      </trkpt>
      <trkpt lat="48.7038" lon="2.29679">
        <ele>78.5</ele>
        <time>2020-07-02T08:18:11Z</time>
      </trkpt>
      <trkpt lat="48.70377" lon="2.29679">
        <ele>77.9</ele>
        <time>2020-07-02T08:18:12Z</time>
      </trkpt>
      <trkpt lat="48.70373" lon="2.29678">
        <ele>77.5</ele>
        <time>2020-07-02T08:18:13Z</time>
      </trkpt>
      <trkpt lat="48.70367" lon="2.29678">
        <ele>77.1</ele>
        <time>2020-07-02T08:18:14Z</time>
      </trkpt>
      <trkpt lat="48.70361" lon="2.29678">
        <ele>76.5</ele>
        <time>2020-07-02T08:18:15Z</time>
      </trkpt>
      <trkpt lat="48.70356" lon="2.29678">
        <ele>76.1</ele>
        <time>2020-07-02T08:18:16Z</time>
      </trkpt>
      <trkpt lat="48.7035" lon="2.29677">
        <ele>75.6</ele>
        <time>2020-07-02T08:18:17Z</time>
      </trkpt>
      <trkpt lat="48.70344" lon="2.29676">
        <ele>75.1</ele>
        <time>2020-07-02T08:18:18Z</time>
      </trkpt>
      <trkpt lat="48.70337" lon="2.29676">
        <ele>74.6</ele>
        <time>2020-07-02T08:18:19Z</time>
      </trkpt>
      <trkpt lat="48.7033" lon="2.29675">
        <ele>74</ele>
        <time>2020-07-02T08:18:20Z</time>
      </trkpt>
      <trkpt lat="48.70322" lon="2.29674">
        <ele>73.4</ele>
        <time>2020-07-02T08:18:21Z</time>
      </trkpt>
      <trkpt lat="48.70314" lon="2.29674">
        <ele>72.8</ele>
        <time>2020-07-02T08:18:22Z</time>
      </trkpt>
      <trkpt lat="48.70305" lon="2.29673">
        <ele>72.2</ele>
        <time>2020-07-02T08:18:23Z</time>
      </trkpt>
      <trkpt lat="48.70297" lon="2.29671">
        <ele>71.5</ele>
        <time>2020-07-02T08:18:24Z</time>
      </trkpt>
      <trkpt lat="48.70289" lon="2.2967">
        <ele>70.8</ele>
        <time>2020-07-02T08:18:25Z</time>
      </trkpt>
      <trkpt lat="48.70281" lon="2.29668">
        <ele>70.3</ele>
        <time>2020-07-02T08:18:26Z</time>
      </trkpt>
      <trkpt lat="48.70273" lon="2.29667">
        <ele>69.8</ele>
        <time>2020-07-02T08:18:27Z</time>
      </trkpt>
      <trkpt lat="48.70265" lon="2.29668">
        <ele>69.3</ele>
        <time>2020-07-02T08:18:28Z</time>
      </trkpt>
      <trkpt lat="48.70258" lon="2.29668">
        <ele>68.8</ele>
        <time>2020-07-02T08:18:29Z</time>
      </trkpt>
      <trkpt lat="48.7025" lon="2.29668">
        <ele>68.4</ele>
        <time>2020-07-02T08:18:30Z</time>
      </trkpt>
      <trkpt lat="48.70244" lon="2.29667">
        <ele>68</ele>
        <time>2020-07-02T08:18:31Z</time>
      </trkpt>
      <trkpt lat="48.70238" lon="2.29665">
        <ele>67.6</ele>
        <time>2020-07-02T08:18:32Z</time>
      </trkpt>
      <trkpt lat="48.70232" lon="2.29663">
        <ele>67.2</ele>
        <time>2020-07-02T08:18:33Z</time>
      </trkpt>
      <trkpt lat="48.70226" lon="2.29659">
        <ele>66.9</ele>
        <time>2020-07-02T08:18:34Z</time>
      </trkpt>
      <trkpt lat="48.7022" lon="2.29655">
        <ele>66.7</ele>
        <time>2020-07-02T08:18:35Z</time>
      </trkpt>
      <trkpt lat="48.70215" lon="2.29654">
        <ele>66.5</ele>
        <time>2020-07-02T08:18:36Z</time>
      </trkpt>
      <trkpt lat="48.70211" lon="2.29653">
        <ele>66.3</ele>
        <time>2020-07-02T08:18:37Z</time>
      </trkpt>
      <trkpt lat="48.70208" lon="2.29652">
        <ele>66.1</ele>
        <time>2020-07-02T08:18:38Z</time>
      </trkpt>
      <trkpt lat="48.70203" lon="2.2965">
        <ele>66</ele>
        <time>2020-07-02T08:18:39Z</time>
      </trkpt>
      <trkpt lat="48.70199" lon="2.2965">
        <ele>65.9</ele>
        <time>2020-07-02T08:18:40Z</time>
      </trkpt>
      <trkpt lat="48.70195" lon="2.2965">
        <ele>65.7</ele>
        <time>2020-07-02T08:18:41Z</time>
      </trkpt>
      <trkpt lat="48.70192" lon="2.29651">
        <ele>65.5</ele>
        <time>2020-07-02T08:18:42Z</time>
      </trkpt>
      <trkpt lat="48.70187" lon="2.29653">
        <ele>65.1</ele>
        <time>2020-07-02T08:18:43Z</time>
      </trkpt>
      <trkpt lat="48.70184" lon="2.29654">
        <ele>64.8</ele>
        <time>2020-07-02T08:18:44Z</time>
      </trkpt>
      <trkpt lat="48.7018" lon="2.29654">
        <ele>64.4</ele>
        <time>2020-07-02T08:18:45Z</time>
      </trkpt>
      <trkpt lat="48.70176" lon="2.29654">
        <ele>64.1</ele>
        <time>2020-07-02T08:18:46Z</time>
      </trkpt>
      <trkpt lat="48.70172" lon="2.29656">
        <ele>63.7</ele>
        <time>2020-07-02T08:18:47Z</time>
      </trkpt>
      <trkpt lat="48.70169" lon="2.29656">
        <ele>63.5</ele>
        <time>2020-07-02T08:18:48Z</time>
      </trkpt>
      <trkpt lat="48.70166" lon="2.29655">
        <ele>63.3</ele>
        <time>2020-07-02T08:18:49Z</time>
      </trkpt>
      <trkpt lat="48.70163" lon="2.29652">
        <ele>63</ele>
        <time>2020-07-02T08:18:50Z</time>
      </trkpt>
      <trkpt lat="48.7016" lon="2.29649">
        <ele>62.5</ele>
        <time>2020-07-02T08:18:51Z</time>
      </trkpt>
      <trkpt lat="48.70155" lon="2.29648">
        <ele>62.3</ele>
        <time>2020-07-02T08:18:52Z</time>
      </trkpt>
      <trkpt lat="48.70151" lon="2.29646">
        <ele>62.1</ele>
        <time>2020-07-02T08:18:53Z</time>
      </trkpt>
      <trkpt lat="48.70146" lon="2.29646">
        <ele>61.9</ele>
        <time>2020-07-02T08:18:54Z</time>
      </trkpt>
      <trkpt lat="48.7014" lon="2.29644">
        <ele>61.7</ele>
        <time>2020-07-02T08:18:55Z</time>
      </trkpt>
      <trkpt lat="48.70135" lon="2.29642">
        <ele>61.4</ele>
        <time>2020-07-02T08:18:56Z</time>
      </trkpt>
      <trkpt lat="48.70129" lon="2.29641">
        <ele>61.1</ele>
        <time>2020-07-02T08:18:57Z</time>
      </trkpt>
      <trkpt lat="48.70123" lon="2.29639">
        <ele>60.6</ele>
        <time>2020-07-02T08:18:58Z</time>
      </trkpt>
      <trkpt lat="48.70116" lon="2.29637">
        <ele>60.1</ele>
        <time>2020-07-02T08:18:59Z</time>
      </trkpt>
      <trkpt lat="48.70109" lon="2.29634">
        <ele>59.5</ele>
        <time>2020-07-02T08:19:00Z</time>
      </trkpt>
      <trkpt lat="48.70102" lon="2.29631">
        <ele>59</ele>
        <time>2020-07-02T08:19:01Z</time>
      </trkpt>
      <trkpt lat="48.70095" lon="2.29628">
        <ele>58.4</ele>
        <time>2020-07-02T08:19:02Z</time>
      </trkpt>
      <trkpt lat="48.70087" lon="2.29626">
        <ele>57.7</ele>
        <time>2020-07-02T08:19:03Z</time>
      </trkpt>
      <trkpt lat="48.70079" lon="2.29624">
        <ele>57.1</ele>
        <time>2020-07-02T08:19:04Z</time>
      </trkpt>
      <trkpt lat="48.7007" lon="2.29624">
        <ele>56.7</ele>
        <time>2020-07-02T08:19:05Z</time>
      </trkpt>
      <trkpt lat="48.70061" lon="2.29624">
        <ele>56.2</ele>
        <time>2020-07-02T08:19:06Z</time>
      </trkpt>
      <trkpt lat="48.70053" lon="2.29624">
        <ele>55.7</ele>
        <time>2020-07-02T08:19:07Z</time>
      </trkpt>
      <trkpt lat="48.70043" lon="2.29626">
        <ele>55.1</ele>
        <time>2020-07-02T08:19:08Z</time>
      </trkpt>
      <trkpt lat="48.70034" lon="2.29625">
        <ele>54.6</ele>
        <time>2020-07-02T08:19:09Z</time>
      </trkpt>
      <trkpt lat="48.70025" lon="2.29624">
        <ele>54.1</ele>
        <time>2020-07-02T08:19:10Z</time>
      </trkpt>
      <trkpt lat="48.70017" lon="2.29623">
        <ele>53.6</ele>
        <time>2020-07-02T08:19:11Z</time>
      </trkpt>
      <trkpt lat="48.70008" lon="2.29622">
        <ele>53.1</ele>
        <time>2020-07-02T08:19:12Z</time>
      </trkpt>
      <trkpt lat="48.70001" lon="2.29621">
        <ele>52.7</ele>
        <time>2020-07-02T08:19:13Z</time>
      </trkpt>
      <trkpt lat="48.69993" lon="2.2962">
        <ele>52.3</ele>
        <time>2020-07-02T08:19:14Z</time>
      </trkpt>
      <trkpt lat="48.69985" lon="2.29618">
        <ele>51.9</ele>
        <time>2020-07-02T08:19:15Z</time>
      </trkpt>
      <trkpt lat="48.69977" lon="2.29616">
        <ele>51.4</ele>
        <time>2020-07-02T08:19:16Z</time>
      </trkpt>
      <trkpt lat="48.69969" lon="2.29616">
        <ele>50.9</ele>
        <time>2020-07-02T08:19:17Z</time>
      </trkpt>
      <trkpt lat="48.69961" lon="2.29613">
        <ele>50.4</ele>
        <time>2020-07-02T08:19:18Z</time>
      </trkpt>
      <trkpt lat="48.69953" lon="2.2961">
        <ele>49.9</ele>
        <time>2020-07-02T08:19:19Z</time>
      </trkpt>
      <trkpt lat="48.69945" lon="2.29606">
        <ele>49.5</ele>
        <time>2020-07-02T08:19:20Z</time>
      </trkpt>
      <trkpt lat="48.69938" lon="2.29603">
        <ele>49.2</ele>
        <time>2020-07-02T08:19:21Z</time>
      </trkpt>
      <trkpt lat="48.69933" lon="2.296">
        <ele>49</ele>
        <time>2020-07-02T08:19:22Z</time>
      </trkpt>
      <trkpt lat="48.69928" lon="2.29599">
        <ele>48.8</ele>
        <time>2020-07-02T08:19:23Z</time>
      </trkpt>
      <trkpt lat="48.69924" lon="2.29597">
        <ele>48.7</ele>
        <time>2020-07-02T08:19:24Z</time>
      </trkpt>
      <trkpt lat="48.6992" lon="2.29595">
        <ele>48.6</ele>
        <time>2020-07-02T08:19:25Z</time>
      </trkpt>
      <trkpt lat="48.69916" lon="2.29594">
        <ele>48.4</ele>
        <time>2020-07-02T08:19:26Z</time>
      </trkpt>
      <trkpt lat="48.69912" lon="2.29592">
        <ele>48.3</ele>
        <time>2020-07-02T08:19:27Z</time>
      </trkpt>
      <trkpt lat="48.69907" lon="2.29589">
        <ele>48.2</ele>
        <time>2020-07-02T08:19:28Z</time>
      </trkpt>
      <trkpt lat="48.69903" lon="2.29586">
        <ele>48</ele>
        <time>2020-07-02T08:19:29Z</time>
      </trkpt>
      <trkpt lat="48.69898" lon="2.29584">
        <ele>47.9</ele>
        <time>2020-07-02T08:19:30Z</time>
      </trkpt>
      <trkpt lat="48.69892" lon="2.29579">
        <ele>47.7</ele>
        <time>2020-07-02T08:19:31Z</time>
      </trkpt>
      <trkpt lat="48.69887" lon="2.29576">
        <ele>47.5</ele>
        <time>2020-07-02T08:19:32Z</time>
      </trkpt>
      <trkpt lat="48.69881" lon="2.29573">
        <ele>47.4</ele>
        <time>2020-07-02T08:19:33Z</time>
      </trkpt>
      <trkpt lat="48.69874" lon="2.29571">
        <ele>47.3</ele>
        <time>2020-07-02T08:19:34Z</time>
      </trkpt>
      <trkpt lat="48.69867" lon="2.29568">
        <ele>47.2</ele>
        <time>2020-07-02T08:19:35Z</time>
      </trkpt>
      <trkpt lat="48.6986" lon="2.29565">
        <ele>47.1</ele>
        <time>2020-07-02T08:19:36Z</time>
      </trkpt>
      <trkpt lat="48.69854" lon="2.29561">
        <ele>46.9</ele>
        <time>2020-07-02T08:19:37Z</time>
      </trkpt>
      <trkpt lat="48.69848" lon="2.29557">
        <ele>46.8</ele>
        <time>2020-07-02T08:19:38Z</time>
      </trkpt>
      <trkpt lat="48.69842" lon="2.29553">
        <ele>46.7</ele>
        <time>2020-07-02T08:19:39Z</time>
      </trkpt>
      <trkpt lat="48.69836" lon="2.2955">
        <ele>46.6</ele>
        <time>2020-07-02T08:19:40Z</time>
      </trkpt>
      <trkpt lat="48.69829" lon="2.29547">
        <ele>46.5</ele>
        <time>2020-07-02T08:19:41Z</time>
      </trkpt>
      <trkpt lat="48.69824" lon="2.29544">
        <ele>46.4</ele>
        <time>2020-07-02T08:19:42Z</time>
      </trkpt>
      <trkpt lat="48.69818" lon="2.2954">
        <ele>46.4</ele>
        <time>2020-07-02T08:19:43Z</time>
      </trkpt>
      <trkpt lat="48.69812" lon="2.29537">
        <ele>46.4</ele>
        <time>2020-07-02T08:19:44Z</time>
      </trkpt>
      <trkpt lat="48.69806" lon="2.29534">
        <ele>46.4</ele>
        <time>2020-07-02T08:19:45Z</time>
      </trkpt>
      <trkpt lat="48.698" lon="2.29532">
        <ele>46.3</ele>
        <time>2020-07-02T08:19:46Z</time>
      </trkpt>
      <trkpt lat="48.69795" lon="2.2953">
        <ele>46.3</ele>
        <time>2020-07-02T08:19:47Z</time>
      </trkpt>
      <trkpt lat="48.69789" lon="2.29528">
        <ele>46.3</ele>
        <time>2020-07-02T08:19:48Z</time>
      </trkpt>
      <trkpt lat="48.69784" lon="2.29526">
        <ele>46.3</ele>
        <time>2020-07-02T08:19:49Z</time>
      </trkpt>
      <trkpt lat="48.69779" lon="2.29525">
        <ele>46.3</ele>
        <time>2020-07-02T08:19:50Z</time>
      </trkpt>
      <trkpt lat="48.69774" lon="2.29525">
        <ele>46.3</ele>
        <time>2020-07-02T08:19:51Z</time>
      </trkpt>
      <trkpt lat="48.69769" lon="2.29524">
        <ele>46.2</ele>
        <time>2020-07-02T08:19:52Z</time>
      </trkpt>
      <trkpt lat="48.69765" lon="2.29524">
        <ele>46.2</ele>
        <time>2020-07-02T08:19:53Z</time>
      </trkpt>
      <trkpt lat="48.69761" lon="2.29523">
        <ele>46.2</ele>
        <time>2020-07-02T08:19:54Z</time>
      </trkpt>
      <trkpt lat="48.69758" lon="2.29523">
        <ele>46.2</ele>
        <time>2020-07-02T08:19:55Z</time>
      </trkpt>
      <trkpt lat="48.69754" lon="2.29521">
        <ele>46.2</ele>
        <time>2020-07-02T08:19:56Z</time>
      </trkpt>
      <trkpt lat="48.6975" lon="2.29519">
        <ele>46.2</ele>
        <time>2020-07-02T08:19:57Z</time>
      </trkpt>
      <trkpt lat="48.69746" lon="2.29519">
        <ele>46.3</ele>
        <time>2020-07-02T08:19:58Z</time>
      </trkpt>
      <trkpt lat="48.69741" lon="2.29517">
        <ele>46.2</ele>
        <time>2020-07-02T08:19:59Z</time>
      </trkpt>
      <trkpt lat="48.69737" lon="2.29516">
        <ele>46.1</ele>
        <time>2020-07-02T08:20:00Z</time>
      </trkpt>
      <trkpt lat="48.69732" lon="2.29515">
        <ele>46</ele>
        <time>2020-07-02T08:20:01Z</time>
      </trkpt>
      <trkpt lat="48.69728" lon="2.29512">
        <ele>45.9</ele>
        <time>2020-07-02T08:20:02Z</time>
      </trkpt>
      <trkpt lat="48.69723" lon="2.2951">
        <ele>45.8</ele>
        <time>2020-07-02T08:20:03Z</time>
      </trkpt>
      <trkpt lat="48.69718" lon="2.29506">
        <ele>45.7</ele>
        <time>2020-07-02T08:20:04Z</time>
      </trkpt>
      <trkpt lat="48.69714" lon="2.29505">
        <ele>45.6</ele>
        <time>2020-07-02T08:20:05Z</time>
      </trkpt>
      <trkpt lat="48.69709" lon="2.29504">
        <ele>45.5</ele>
        <time>2020-07-02T08:20:06Z</time>
      </trkpt>
      <trkpt lat="48.69704" lon="2.29501">
        <ele>45.4</ele>
        <time>2020-07-02T08:20:07Z</time>
      </trkpt>
      <trkpt lat="48.697" lon="2.29499">
        <ele>45.4</ele>
        <time>2020-07-02T08:20:08Z</time>
      </trkpt>
      <trkpt lat="48.69695" lon="2.29497">
        <ele>45.3</ele>
        <time>2020-07-02T08:20:09Z</time>
      </trkpt>
      <trkpt lat="48.6969" lon="2.29496">
        <ele>45.2</ele>
        <time>2020-07-02T08:20:10Z</time>
      </trkpt>
      <trkpt lat="48.69684" lon="2.29495">
        <ele>45.2</ele>
        <time>2020-07-02T08:20:11Z</time>
      </trkpt>
      <trkpt lat="48.6968" lon="2.29493">
        <ele>45.1</ele>
        <time>2020-07-02T08:20:12Z</time>
      </trkpt>
      <trkpt lat="48.69674" lon="2.29492">
        <ele>45.1</ele>
        <time>2020-07-02T08:20:13Z</time>
      </trkpt>
      <trkpt lat="48.69669" lon="2.2949">
        <ele>45</ele>
        <time>2020-07-02T08:20:14Z</time>
      </trkpt>
      <trkpt lat="48.69663" lon="2.29489">
        <ele>44.9</ele>
        <time>2020-07-02T08:20:15Z</time>
      </trkpt>
      <trkpt lat="48.69657" lon="2.29488">
        <ele>44.9</ele>
        <time>2020-07-02T08:20:16Z</time>
      </trkpt>
      <trkpt lat="48.69652" lon="2.29486">
        <ele>44.9</ele>
        <time>2020-07-02T08:20:17Z</time>
      </trkpt>
      <trkpt lat="48.69647" lon="2.29485">
        <ele>44.9</ele>
        <time>2020-07-02T08:20:18Z</time>
      </trkpt>
      <trkpt lat="48.69642" lon="2.29484">
        <ele>44.9</ele>
        <time>2020-07-02T08:20:19Z</time>
      </trkpt>
      <trkpt lat="48.69637" lon="2.29482">
        <ele>44.9</ele>
        <time>2020-07-02T08:20:20Z</time>
      </trkpt>
      <trkpt lat="48.69632" lon="2.29483">
        <ele>44.9</ele>
        <time>2020-07-02T08:20:21Z</time>
      </trkpt>
      <trkpt lat="48.69628" lon="2.29483">
        <ele>44.8</ele>
        <time>2020-07-02T08:20:22Z</time>
      </trkpt>
      <trkpt lat="48.69625" lon="2.29481">
        <ele>44.8</ele>
        <time>2020-07-02T08:20:23Z</time>
      </trkpt>
      <trkpt lat="48.6962" lon="2.29481">
        <ele>44.8</ele>
        <time>2020-07-02T08:20:24Z</time>
      </trkpt>
      <trkpt lat="48.69615" lon="2.29479">
        <ele>44.8</ele>
        <time>2020-07-02T08:20:25Z</time>
      </trkpt>
      <trkpt lat="48.69611" lon="2.29478">
        <ele>44.8</ele>
        <time>2020-07-02T08:20:26Z</time>
      </trkpt>
      <trkpt lat="48.69606" lon="2.29477">
        <ele>44.8</ele>
        <time>2020-07-02T08:20:27Z</time>
      </trkpt>
      <trkpt lat="48.69601" lon="2.29476">
        <ele>44.9</ele>
        <time>2020-07-02T08:20:28Z</time>
      </trkpt>
      <trkpt lat="48.69597" lon="2.29473">
        <ele>44.9</ele>
        <time>2020-07-02T08:20:29Z</time>
      </trkpt>
      <trkpt lat="48.69593" lon="2.2947">
        <ele>44.9</ele>
        <time>2020-07-02T08:20:30Z</time>
      </trkpt>
      <trkpt lat="48.69589" lon="2.29466">
        <ele>45</ele>
        <time>2020-07-02T08:20:31Z</time>
      </trkpt>
      <trkpt lat="48.69585" lon="2.29462">
        <ele>45</ele>
        <time>2020-07-02T08:20:32Z</time>
      </trkpt>
      <trkpt lat="48.69581" lon="2.29459">
        <ele>45.1</ele>
        <time>2020-07-02T08:20:33Z</time>
      </trkpt>
      <trkpt lat="48.69576" lon="2.29457">
        <ele>45.2</ele>
        <time>2020-07-02T08:20:34Z</time>
      </trkpt>
      <trkpt lat="48.6957" lon="2.29455">
        <ele>45.3</ele>
        <time>2020-07-02T08:20:35Z</time>
      </trkpt>
      <trkpt lat="48.69565" lon="2.29453">
        <ele>45.4</ele>
        <time>2020-07-02T08:20:36Z</time>
      </trkpt>
      <trkpt lat="48.6956" lon="2.29453">
        <ele>45.4</ele>
        <time>2020-07-02T08:20:37Z</time>
      </trkpt>
      <trkpt lat="48.69554" lon="2.29451">
        <ele>45.4</ele>
        <time>2020-07-02T08:20:38Z</time>
      </trkpt>
      <trkpt lat="48.69549" lon="2.2945">
        <ele>45.4</ele>
        <time>2020-07-02T08:20:39Z</time>
      </trkpt>
      <trkpt lat="48.69545" lon="2.29447">
        <ele>45.3</ele>
        <time>2020-07-02T08:20:40Z</time>
      </trkpt>
      <trkpt lat="48.69539" lon="2.29445">
        <ele>45.2</ele>
        <time>2020-07-02T08:20:41Z</time>
      </trkpt>
      <trkpt lat="48.69534" lon="2.29444">
        <ele>45.1</ele>
        <time>2020-07-02T08:20:42Z</time>
      </trkpt>
      <trkpt lat="48.69528" lon="2.29443">
        <ele>45</ele>
        <time>2020-07-02T08:20:43Z</time>
      </trkpt>
      <trkpt lat="48.69523" lon="2.29443">
        <ele>45</ele>
        <time>2020-07-02T08:20:44Z</time>
      </trkpt>
      <trkpt lat="48.69519" lon="2.29442">
        <ele>45</ele>
        <time>2020-07-02T08:20:45Z</time>
      </trkpt>
      <trkpt lat="48.69516" lon="2.29439">
        <ele>44.9</ele>
        <time>2020-07-02T08:20:46Z</time>
      </trkpt>
      <trkpt lat="48.69513" lon="2.29437">
        <ele>44.9</ele>
        <time>2020-07-02T08:20:47Z</time>
      </trkpt>
      <trkpt lat="48.69509" lon="2.29435">
        <ele>44.9</ele>
        <time>2020-07-02T08:20:48Z</time>
      </trkpt>
      <trkpt lat="48.69508" lon="2.29435">
        <ele>44.9</ele>
        <time>2020-07-02T08:20:49Z</time>
      </trkpt>
      <trkpt lat="48.69505" lon="2.29432">
        <ele>45</ele>
        <time>2020-07-02T08:20:50Z</time>
      </trkpt>
      <trkpt lat="48.69503" lon="2.2943">
        <ele>45</ele>
        <time>2020-07-02T08:20:51Z</time>
      </trkpt>
      <trkpt lat="48.695" lon="2.29427">
        <ele>45</ele>
        <time>2020-07-02T08:20:52Z</time>
      </trkpt>
      <trkpt lat="48.69497" lon="2.29423">
        <ele>45</ele>
        <time>2020-07-02T08:20:53Z</time>
      </trkpt>
      <trkpt lat="48.69496" lon="2.29422">
        <ele>45</ele>
        <time>2020-07-02T08:20:54Z</time>
      </trkpt>
      <trkpt lat="48.69492" lon="2.2942">
        <ele>44.9</ele>
        <time>2020-07-02T08:20:55Z</time>
      </trkpt>
      <trkpt lat="48.69491" lon="2.2942">
        <ele>44.9</ele>
        <time>2020-07-02T08:20:56Z</time>
      </trkpt>
      <trkpt lat="48.69487" lon="2.29418">
        <ele>44.9</ele>
        <time>2020-07-02T08:20:57Z</time>
      </trkpt>
      <trkpt lat="48.69485" lon="2.29418">
        <ele>44.9</ele>
        <time>2020-07-02T08:20:58Z</time>
      </trkpt>
      <trkpt lat="48.69482" lon="2.29416">
        <ele>44.9</ele>
        <time>2020-07-02T08:20:59Z</time>
      </trkpt>
      <trkpt lat="48.6948" lon="2.29415">
        <ele>44.9</ele>
        <time>2020-07-02T08:21:00Z</time>
      </trkpt>
      <trkpt lat="48.69477" lon="2.29413">
        <ele>45</ele>
        <time>2020-07-02T08:21:01Z</time>
      </trkpt>
      <trkpt lat="48.69473" lon="2.29411">
        <ele>45</ele>
        <time>2020-07-02T08:21:02Z</time>
      </trkpt>
      <trkpt lat="48.69472" lon="2.2941">
        <ele>45</ele>
        <time>2020-07-02T08:21:03Z</time>
      </trkpt>
      <trkpt lat="48.69469" lon="2.29408">
        <ele>45</ele>
        <time>2020-07-02T08:21:04Z</time>
      </trkpt>
      <trkpt lat="48.69466" lon="2.29406">
        <ele>45</ele>
        <time>2020-07-02T08:21:05Z</time>
      </trkpt>
      <trkpt lat="48.69462" lon="2.29403">
        <ele>45</ele>
        <time>2020-07-02T08:21:06Z</time>
      </trkpt>
      <trkpt lat="48.69459" lon="2.29402">
        <ele>45.1</ele>
        <time>2020-07-02T08:21:07Z</time>
      </trkpt>
      <trkpt lat="48.69455" lon="2.294">
        <ele>45.1</ele>
        <time>2020-07-02T08:21:08Z</time>
      </trkpt>
      <trkpt lat="48.69452" lon="2.29398">
        <ele>45.2</ele>
        <time>2020-07-02T08:21:09Z</time>
      </trkpt>
      <trkpt lat="48.69449" lon="2.29396">
        <ele>45.2</ele>
        <time>2020-07-02T08:21:10Z</time>
      </trkpt>
      <trkpt lat="48.69446" lon="2.29394">
        <ele>45.3</ele>
        <time>2020-07-02T08:21:11Z</time>
      </trkpt>
      <trkpt lat="48.69444" lon="2.29392">
        <ele>45.3</ele>
        <time>2020-07-02T08:21:12Z</time>
      </trkpt>
      <trkpt lat="48.69441" lon="2.29391">
        <ele>45.4</ele>
        <time>2020-07-02T08:21:13Z</time>
      </trkpt>
      <trkpt lat="48.69438" lon="2.29388">
        <ele>45.5</ele>
        <time>2020-07-02T08:21:14Z</time>
      </trkpt>
      <trkpt lat="48.69436" lon="2.29386">
        <ele>45.5</ele>
        <time>2020-07-02T08:21:15Z</time>
      </trkpt>
      <trkpt lat="48.69435" lon="2.29386">
        <ele>45.5</ele>
        <time>2020-07-02T08:21:16Z</time>
      </trkpt>
      <trkpt lat="48.69434" lon="2.29385">
        <ele>45.6</ele>
        <time>2020-07-02T08:21:17Z</time>
      </trkpt>
      <trkpt lat="48.69432" lon="2.29384">
        <ele>45.6</ele>
        <time>2020-07-02T08:21:18Z</time>
      </trkpt>
      <trkpt lat="48.69431" lon="2.29383">
        <ele>45.7</ele>
        <time>2020-07-02T08:21:19Z</time>
      </trkpt>
      <trkpt lat="48.69429" lon="2.29383">
        <ele>45.7</ele>
        <time>2020-07-02T08:21:20Z</time>
      </trkpt>
      <trkpt lat="48.69427" lon="2.29383">
        <ele>45.7</ele>
        <time>2020-07-02T08:21:21Z</time>
      </trkpt>
      <trkpt lat="48.69426" lon="2.29382">
        <ele>45.8</ele>
        <time>2020-07-02T08:21:22Z</time>
      </trkpt>
      <trkpt lat="48.69426" lon="2.29381">
        <ele>45.8</ele>
        <time>2020-07-02T08:21:23Z</time>
      </trkpt>
      <trkpt lat="48.69424" lon="2.29381">
        <ele>45.8</ele>
        <time>2020-07-02T08:21:24Z</time>
      </trkpt>
      <trkpt lat="48.69424" lon="2.2938">
        <ele>45.9</ele>
        <time>2020-07-02T08:21:25Z</time>
      </trkpt>
      <trkpt lat="48.69423" lon="2.29378">
        <ele>45.9</ele>
        <time>2020-07-02T08:21:26Z</time>
      </trkpt>
      <trkpt lat="48.69422" lon="2.29377">
        <ele>46</ele>
        <time>2020-07-02T08:21:27Z</time>
      </trkpt>
      <trkpt lat="48.69421" lon="2.29377">
        <ele>46</ele>
        <time>2020-07-02T08:21:28Z</time>
      </trkpt>
      <trkpt lat="48.6942" lon="2.29376">
        <ele>46</ele>
        <time>2020-07-02T08:21:29Z</time>
      </trkpt>
      <trkpt lat="48.69418" lon="2.29374">
        <ele>46.1</ele>
        <time>2020-07-02T08:21:30Z</time>
      </trkpt>
      <trkpt lat="48.69416" lon="2.29371">
        <ele>46.2</ele>
        <time>2020-07-02T08:21:31Z</time>
      </trkpt>
      <trkpt lat="48.69415" lon="2.29369">
        <ele>46.3</ele>
        <time>2020-07-02T08:21:32Z</time>
      </trkpt>
      <trkpt lat="48.69413" lon="2.29366">
        <ele>46.4</ele>
        <time>2020-07-02T08:21:33Z</time>
      </trkpt>
      <trkpt lat="48.6941" lon="2.29363">
        <ele>46.5</ele>
        <time>2020-07-02T08:21:34Z</time>
      </trkpt>
      <trkpt lat="48.69407" lon="2.2936">
        <ele>46.6</ele>
        <time>2020-07-02T08:21:35Z</time>
      </trkpt>
      <trkpt lat="48.69404" lon="2.29356">
        <ele>46.7</ele>
        <time>2020-07-02T08:21:36Z</time>
      </trkpt>
      <trkpt lat="48.69401" lon="2.29352">
        <ele>46.9</ele>
        <time>2020-07-02T08:21:37Z</time>
      </trkpt>
      <trkpt lat="48.694" lon="2.29349">
        <ele>47</ele>
        <time>2020-07-02T08:21:38Z</time>
      </trkpt>
      <trkpt lat="48.69397" lon="2.29347">
        <ele>47.1</ele>
        <time>2020-07-02T08:21:39Z</time>
      </trkpt>
      <trkpt lat="48.69396" lon="2.29347">
        <ele>47.1</ele>
        <time>2020-07-02T08:21:40Z</time>
      </trkpt>
      <trkpt lat="48.69394" lon="2.29345">
        <ele>47.2</ele>
        <time>2020-07-02T08:21:41Z</time>
      </trkpt>
      <trkpt lat="48.69393" lon="2.29345">
        <ele>47.3</ele>
        <time>2020-07-02T08:21:42Z</time>
      </trkpt>
      <trkpt lat="48.69393" lon="2.29344">
        <ele>47.3</ele>
        <time>2020-07-02T08:21:43Z</time>
      </trkpt>
      <trkpt lat="48.6939" lon="2.29343">
        <ele>47.4</ele>
        <time>2020-07-02T08:21:44Z</time>
      </trkpt>
      <trkpt lat="48.69388" lon="2.29343">
        <ele>47.5</ele>
        <time>2020-07-02T08:21:45Z</time>
      </trkpt>
      <trkpt lat="48.69384" lon="2.29343">
        <ele>47.7</ele>
        <time>2020-07-02T08:21:46Z</time>
      </trkpt>
      <trkpt lat="48.69382" lon="2.29343">
        <ele>47.8</ele>
        <time>2020-07-02T08:21:47Z</time>
      </trkpt>
      <trkpt lat="48.69379" lon="2.29342">
        <ele>47.9</ele>
        <time>2020-07-02T08:21:48Z</time>
      </trkpt>
      <trkpt lat="48.69375" lon="2.2934">
        <ele>48.1</ele>
        <time>2020-07-02T08:21:49Z</time>
      </trkpt>
      <trkpt lat="48.69374" lon="2.2934">
        <ele>48.2</ele>
        <time>2020-07-02T08:21:50Z</time>
      </trkpt>
      <trkpt lat="48.6937" lon="2.29336">
        <ele>48.5</ele>
        <time>2020-07-02T08:21:51Z</time>
      </trkpt>
      <trkpt lat="48.69369" lon="2.29335">
        <ele>48.6</ele>
        <time>2020-07-02T08:21:52Z</time>
      </trkpt>
      <trkpt lat="48.69367" lon="2.29332">
        <ele>48.7</ele>
        <time>2020-07-02T08:21:53Z</time>
      </trkpt>
      <trkpt lat="48.69365" lon="2.2933">
        <ele>48.9</ele>
        <time>2020-07-02T08:21:54Z</time>
      </trkpt>
      <trkpt lat="48.69362" lon="2.29327">
        <ele>49.1</ele>
        <time>2020-07-02T08:21:55Z</time>
      </trkpt>
      <trkpt lat="48.69359" lon="2.29325">
        <ele>49.3</ele>
        <time>2020-07-02T08:21:56Z</time>
      </trkpt>
      <trkpt lat="48.69355" lon="2.29321">
        <ele>49.6</ele>
        <time>2020-07-02T08:21:57Z</time>
      </trkpt>
      <trkpt lat="48.69352" lon="2.29317">
        <ele>49.7</ele>
        <time>2020-07-02T08:21:58Z</time>
      </trkpt>
      <trkpt lat="48.69349" lon="2.29315">
        <ele>49.8</ele>
        <time>2020-07-02T08:21:59Z</time>
      </trkpt>
      <trkpt lat="48.69345" lon="2.29312">
        <ele>49.9</ele>
        <time>2020-07-02T08:22:00Z</time>
      </trkpt>
      <trkpt lat="48.6934" lon="2.29312">
        <ele>50.1</ele>
        <time>2020-07-02T08:22:01Z</time>
      </trkpt>
      <trkpt lat="48.69336" lon="2.29308">
        <ele>50.2</ele>
        <time>2020-07-02T08:22:02Z</time>
      </trkpt>
      <trkpt lat="48.69333" lon="2.29302">
        <ele>50.8</ele>
        <time>2020-07-02T08:22:03Z</time>
      </trkpt>
      <trkpt lat="48.6933" lon="2.29296">
        <ele>50.8</ele>
        <time>2020-07-02T08:22:04Z</time>
      </trkpt>
      <trkpt lat="48.6933" lon="2.29291">
        <ele>50.8</ele>
        <time>2020-07-02T08:22:05Z</time>
      </trkpt>
      <trkpt lat="48.69331" lon="2.29285">
        <ele>51.3</ele>
        <time>2020-07-02T08:22:06Z</time>
      </trkpt>
      <trkpt lat="48.69331" lon="2.2928">
        <ele>51.3</ele>
        <time>2020-07-02T08:22:07Z</time>
      </trkpt>
      <trkpt lat="48.69331" lon="2.29274">
        <ele>51.4</ele>
        <time>2020-07-02T08:22:08Z</time>
      </trkpt>
      <trkpt lat="48.6933" lon="2.29269">
        <ele>51.5</ele>
        <time>2020-07-02T08:22:09Z</time>
      </trkpt>
      <trkpt lat="48.6933" lon="2.29262">
        <ele>51.6</ele>
        <time>2020-07-02T08:22:10Z</time>
      </trkpt>
      <trkpt lat="48.69329" lon="2.29257">
        <ele>51.7</ele>
        <time>2020-07-02T08:22:11Z</time>
      </trkpt>
      <trkpt lat="48.69328" lon="2.29252">
        <ele>51.8</ele>
        <time>2020-07-02T08:22:12Z</time>
      </trkpt>
      <trkpt lat="48.69329" lon="2.29245">
        <ele>51.9</ele>
        <time>2020-07-02T08:22:13Z</time>
      </trkpt>
      <trkpt lat="48.69329" lon="2.29238">
        <ele>52</ele>
        <time>2020-07-02T08:22:14Z</time>
      </trkpt>
      <trkpt lat="48.6933" lon="2.29232">
        <ele>52.1</ele>
        <time>2020-07-02T08:22:15Z</time>
      </trkpt>
      <trkpt lat="48.69332" lon="2.29226">
        <ele>52.1</ele>
        <time>2020-07-02T08:22:16Z</time>
      </trkpt>
      <trkpt lat="48.69333" lon="2.2922">
        <ele>52.2</ele>
        <time>2020-07-02T08:22:17Z</time>
      </trkpt>
      <trkpt lat="48.69334" lon="2.29213">
        <ele>52.2</ele>
        <time>2020-07-02T08:22:18Z</time>
      </trkpt>
      <trkpt lat="48.69335" lon="2.29207">
        <ele>52.3</ele>
        <time>2020-07-02T08:22:19Z</time>
      </trkpt>
      <trkpt lat="48.69336" lon="2.292">
        <ele>52.4</ele>
        <time>2020-07-02T08:22:20Z</time>
      </trkpt>
      <trkpt lat="48.69337" lon="2.29193">
        <ele>52.4</ele>
        <time>2020-07-02T08:22:21Z</time>
      </trkpt>
      <trkpt lat="48.69337" lon="2.29186">
        <ele>52.4</ele>
        <time>2020-07-02T08:22:22Z</time>
      </trkpt>
      <trkpt lat="48.69341" lon="2.29181">
        <ele>52.5</ele>
        <time>2020-07-02T08:22:23Z</time>
      </trkpt>
      <trkpt lat="48.69341" lon="2.29176">
        <ele>52.5</ele>
        <time>2020-07-02T08:22:24Z</time>
      </trkpt>
      <trkpt lat="48.69342" lon="2.29168">
        <ele>52.5</ele>
        <time>2020-07-02T08:22:25Z</time>
      </trkpt>
      <trkpt lat="48.69343" lon="2.29161">
        <ele>52.4</ele>
        <time>2020-07-02T08:22:26Z</time>
      </trkpt>
      <trkpt lat="48.69345" lon="2.29156">
        <ele>52.4</ele>
        <time>2020-07-02T08:22:27Z</time>
      </trkpt>
      <trkpt lat="48.69346" lon="2.29152">
        <ele>52.3</ele>
        <time>2020-07-02T08:22:28Z</time>
      </trkpt>
      <trkpt lat="48.69347" lon="2.29147">
        <ele>52.3</ele>
        <time>2020-07-02T08:22:29Z</time>
      </trkpt>
      <trkpt lat="48.69347" lon="2.29142">
        <ele>52.1</ele>
        <time>2020-07-02T08:22:30Z</time>
      </trkpt>
      <trkpt lat="48.69348" lon="2.29133">
        <ele>52</ele>
        <time>2020-07-02T08:22:31Z</time>
      </trkpt>
      <trkpt lat="48.69349" lon="2.29128">
        <ele>52</ele>
        <time>2020-07-02T08:22:32Z</time>
      </trkpt>
      <trkpt lat="48.6935" lon="2.29121">
        <ele>51.9</ele>
        <time>2020-07-02T08:22:33Z</time>
      </trkpt>
      <trkpt lat="48.69351" lon="2.29114">
        <ele>51.8</ele>
        <time>2020-07-02T08:22:34Z</time>
      </trkpt>
      <trkpt lat="48.69353" lon="2.29107">
        <ele>51.7</ele>
        <time>2020-07-02T08:22:35Z</time>
      </trkpt>
      <trkpt lat="48.69354" lon="2.291">
        <ele>51.7</ele>
        <time>2020-07-02T08:22:36Z</time>
      </trkpt>
      <trkpt lat="48.69355" lon="2.29093">
        <ele>51.6</ele>
        <time>2020-07-02T08:22:37Z</time>
      </trkpt>
      <trkpt lat="48.69356" lon="2.29086">
        <ele>51.5</ele>
        <time>2020-07-02T08:22:38Z</time>
      </trkpt>
      <trkpt lat="48.69356" lon="2.2908">
        <ele>51.4</ele>
        <time>2020-07-02T08:22:39Z</time>
      </trkpt>
      <trkpt lat="48.69357" lon="2.29073">
        <ele>51.3</ele>
        <time>2020-07-02T08:22:40Z</time>
      </trkpt>
      <trkpt lat="48.69357" lon="2.29066">
        <ele>51.3</ele>
        <time>2020-07-02T08:22:41Z</time>
      </trkpt>
      <trkpt lat="48.69357" lon="2.29059">
        <ele>51.2</ele>
        <time>2020-07-02T08:22:42Z</time>
      </trkpt>
      <trkpt lat="48.69358" lon="2.29051">
        <ele>51.1</ele>
        <time>2020-07-02T08:22:43Z</time>
      </trkpt>
      <trkpt lat="48.69359" lon="2.29044">
        <ele>51</ele>
        <time>2020-07-02T08:22:44Z</time>
      </trkpt>
      <trkpt lat="48.69359" lon="2.29036">
        <ele>50.9</ele>
        <time>2020-07-02T08:22:45Z</time>
      </trkpt>
      <trkpt lat="48.6936" lon="2.2903">
        <ele>50.9</ele>
        <time>2020-07-02T08:22:46Z</time>
      </trkpt>
      <trkpt lat="48.69361" lon="2.29025">
        <ele>50.8</ele>
        <time>2020-07-02T08:22:47Z</time>
      </trkpt>
      <trkpt lat="48.69362" lon="2.29018">
        <ele>50.7</ele>
        <time>2020-07-02T08:22:48Z</time>
      </trkpt>
      <trkpt lat="48.69363" lon="2.29011">
        <ele>50.6</ele>
        <time>2020-07-02T08:22:49Z</time>
      </trkpt>
      <trkpt lat="48.69364" lon="2.29005">
        <ele>50.6</ele>
        <time>2020-07-02T08:22:50Z</time>
      </trkpt>
      <trkpt lat="48.69365" lon="2.28997">
        <ele>50.5</ele>
        <time>2020-07-02T08:22:51Z</time>
      </trkpt>
      <trkpt lat="48.69367" lon="2.28988">
        <ele>50.3</ele>
        <time>2020-07-02T08:22:52Z</time>
      </trkpt>
      <trkpt lat="48.69369" lon="2.28978">
        <ele>50.2</ele>
        <time>2020-07-02T08:22:53Z</time>
      </trkpt>
      <trkpt lat="48.6937" lon="2.28968">
        <ele>50.1</ele>
        <time>2020-07-02T08:22:54Z</time>
      </trkpt>
      <trkpt lat="48.69372" lon="2.28959">
        <ele>50.1</ele>
        <time>2020-07-02T08:22:55Z</time>
      </trkpt>
      <trkpt lat="48.69373" lon="2.28951">
        <ele>50</ele>
        <time>2020-07-02T08:22:56Z</time>
      </trkpt>
      <trkpt lat="48.69373" lon="2.28944">
        <ele>50</ele>
        <time>2020-07-02T08:22:57Z</time>
      </trkpt>
      <trkpt lat="48.69375" lon="2.28935">
        <ele>49.9</ele>
        <time>2020-07-02T08:22:58Z</time>
      </trkpt>
      <trkpt lat="48.69376" lon="2.28928">
        <ele>49.9</ele>
        <time>2020-07-02T08:22:59Z</time>
      </trkpt>
      <trkpt lat="48.69377" lon="2.28921">
        <ele>49.8</ele>
        <time>2020-07-02T08:23:00Z</time>
      </trkpt>
      <trkpt lat="48.69379" lon="2.28914">
        <ele>49.8</ele>
        <time>2020-07-02T08:23:01Z</time>
      </trkpt>
      <trkpt lat="48.6938" lon="2.28907">
        <ele>49.7</ele>
        <time>2020-07-02T08:23:02Z</time>
      </trkpt>
      <trkpt lat="48.69381" lon="2.289">
        <ele>49.6</ele>
        <time>2020-07-02T08:23:03Z</time>
      </trkpt>
      <trkpt lat="48.69382" lon="2.28893">
        <ele>49.6</ele>
        <time>2020-07-02T08:23:04Z</time>
      </trkpt>
      <trkpt lat="48.69383" lon="2.28885">
        <ele>49.5</ele>
        <time>2020-07-02T08:23:05Z</time>
      </trkpt>
      <trkpt lat="48.69384" lon="2.28876">
        <ele>49.5</ele>
        <time>2020-07-02T08:23:06Z</time>
      </trkpt>
      <trkpt lat="48.69385" lon="2.2887">
        <ele>49.5</ele>
        <time>2020-07-02T08:23:07Z</time>
      </trkpt>
      <trkpt lat="48.69386" lon="2.28863">
        <ele>49.5</ele>
        <time>2020-07-02T08:23:08Z</time>
      </trkpt>
      <trkpt lat="48.69388" lon="2.28857">
        <ele>49.4</ele>
        <time>2020-07-02T08:23:09Z</time>
      </trkpt>
      <trkpt lat="48.69389" lon="2.2885">
        <ele>49.4</ele>
        <time>2020-07-02T08:23:10Z</time>
      </trkpt>
      <trkpt lat="48.6939" lon="2.28843">
        <ele>49.3</ele>
        <time>2020-07-02T08:23:11Z</time>
      </trkpt>
      <trkpt lat="48.69391" lon="2.28836">
        <ele>49.3</ele>
        <time>2020-07-02T08:23:12Z</time>
      </trkpt>
      <trkpt lat="48.69392" lon="2.2883">
        <ele>49.2</ele>
        <time>2020-07-02T08:23:13Z</time>
      </trkpt>
      <trkpt lat="48.69393" lon="2.28826">
        <ele>49.2</ele>
        <time>2020-07-02T08:23:14Z</time>
      </trkpt>
      <trkpt lat="48.69397" lon="2.28822">
        <ele>49.2</ele>
        <time>2020-07-02T08:23:15Z</time>
      </trkpt>
      <trkpt lat="48.69399" lon="2.28821">
        <ele>49.2</ele>
        <time>2020-07-02T08:23:16Z</time>
      </trkpt>
      <trkpt lat="48.69402" lon="2.28817">
        <ele>49.2</ele>
        <time>2020-07-02T08:23:17Z</time>
      </trkpt>
      <trkpt lat="48.69405" lon="2.28814">
        <ele>48.6</ele>
        <time>2020-07-02T08:23:18Z</time>
      </trkpt>
      <trkpt lat="48.69407" lon="2.2881">
        <ele>48.7</ele>
        <time>2020-07-02T08:23:19Z</time>
      </trkpt>
      <trkpt lat="48.69409" lon="2.28805">
        <ele>48.7</ele>
        <time>2020-07-02T08:23:20Z</time>
      </trkpt>
      <trkpt lat="48.69409" lon="2.28803">
        <ele>48.7</ele>
        <time>2020-07-02T08:23:21Z</time>
      </trkpt>
      <trkpt lat="48.69409" lon="2.28802">
        <ele>48.7</ele>
        <time>2020-07-02T08:23:22Z</time>
      </trkpt>
      <trkpt lat="48.6941" lon="2.28803">
        <ele>48.7</ele>
        <time>2020-07-02T08:23:23Z</time>
      </trkpt>
      <trkpt lat="48.6941" lon="2.28804">
        <ele>48.7</ele>
        <time>2020-07-02T08:23:24Z</time>
      </trkpt>
      <trkpt lat="48.69411" lon="2.28805">
        <ele>48.7</ele>
        <time>2020-07-02T08:23:25Z</time>
      </trkpt>
      <trkpt lat="48.69411" lon="2.28805">
        <ele>48.7</ele>
        <time>2020-07-02T08:23:26Z</time>
      </trkpt>
      <trkpt lat="48.69411" lon="2.28804">
        <ele>48.7</ele>
        <time>2020-07-02T08:23:27Z</time>
      </trkpt>
      <trkpt lat="48.69411" lon="2.28803">
        <ele>48.7</ele>
        <time>2020-07-02T08:23:28Z</time>
      </trkpt>
      <trkpt lat="48.69411" lon="2.28803">
        <ele>48.7</ele>
        <time>2020-07-02T08:23:29Z</time>
      </trkpt>
      <trkpt lat="48.69411" lon="2.28801">
        <ele>48.7</ele>
        <time>2020-07-02T08:23:30Z</time>
      </trkpt>
      <trkpt lat="48.69412" lon="2.288">
        <ele>48.7</ele>
        <time>2020-07-02T08:23:31Z</time>
      </trkpt>
      <trkpt lat="48.69412" lon="2.288">
        <ele>48.7</ele>
        <time>2020-07-02T08:23:32Z</time>
      </trkpt>
      <trkpt lat="48.69411" lon="2.28801">
        <ele>48.7</ele>
        <time>2020-07-02T08:23:33Z</time>
      </trkpt>
      <trkpt lat="48.69408" lon="2.28802">
        <ele>48.7</ele>
        <time>2020-07-02T08:24:00Z</time>
      </trkpt>
      <trkpt lat="48.69407" lon="2.28801">
        <ele>48.7</ele>
        <time>2020-07-02T08:24:01Z</time>
      </trkpt>
      <trkpt lat="48.69405" lon="2.28801">
        <ele>48.7</ele>
        <time>2020-07-02T08:24:02Z</time>
      </trkpt>
      <trkpt lat="48.69404" lon="2.28803">
        <ele>48.7</ele>
        <time>2020-07-02T08:24:03Z</time>
      </trkpt>
      <trkpt lat="48.69402" lon="2.28807">
        <ele>48.7</ele>
        <time>2020-07-02T08:24:04Z</time>
      </trkpt>
      <trkpt lat="48.694" lon="2.28812">
        <ele>49.3</ele>
        <time>2020-07-02T08:24:05Z</time>
      </trkpt>
      <trkpt lat="48.69399" lon="2.28818">
        <ele>49.4</ele>
        <time>2020-07-02T08:24:06Z</time>
      </trkpt>
      <trkpt lat="48.69397" lon="2.28824">
        <ele>49.2</ele>
        <time>2020-07-02T08:24:07Z</time>
      </trkpt>
      <trkpt lat="48.69396" lon="2.28831">
        <ele>49.2</ele>
        <time>2020-07-02T08:24:08Z</time>
      </trkpt>
      <trkpt lat="48.69395" lon="2.28838">
        <ele>49.3</ele>
        <time>2020-07-02T08:24:09Z</time>
      </trkpt>
      <trkpt lat="48.69394" lon="2.28846">
        <ele>49.3</ele>
        <time>2020-07-02T08:24:10Z</time>
      </trkpt>
      <trkpt lat="48.69392" lon="2.28854">
        <ele>49.4</ele>
        <time>2020-07-02T08:24:11Z</time>
      </trkpt>
      <trkpt lat="48.69391" lon="2.28862">
        <ele>49.4</ele>
        <time>2020-07-02T08:24:12Z</time>
      </trkpt>
      <trkpt lat="48.6939" lon="2.2887">
        <ele>49.5</ele>
        <time>2020-07-02T08:24:13Z</time>
      </trkpt>
      <trkpt lat="48.69388" lon="2.28876">
        <ele>49.5</ele>
        <time>2020-07-02T08:24:14Z</time>
      </trkpt>
      <trkpt lat="48.69387" lon="2.28885">
        <ele>49.5</ele>
        <time>2020-07-02T08:24:15Z</time>
      </trkpt>
      <trkpt lat="48.69385" lon="2.28892">
        <ele>49.6</ele>
        <time>2020-07-02T08:24:16Z</time>
      </trkpt>
      <trkpt lat="48.69384" lon="2.289">
        <ele>49.6</ele>
        <time>2020-07-02T08:24:17Z</time>
      </trkpt>
      <trkpt lat="48.69384" lon="2.28908">
        <ele>49.7</ele>
        <time>2020-07-02T08:24:18Z</time>
      </trkpt>
      <trkpt lat="48.69383" lon="2.28916">
        <ele>49.7</ele>
        <time>2020-07-02T08:24:19Z</time>
      </trkpt>
      <trkpt lat="48.69381" lon="2.28924">
        <ele>49.8</ele>
        <time>2020-07-02T08:24:20Z</time>
      </trkpt>
      <trkpt lat="48.6938" lon="2.28931">
        <ele>49.9</ele>
        <time>2020-07-02T08:24:21Z</time>
      </trkpt>
      <trkpt lat="48.69378" lon="2.28939">
        <ele>49.9</ele>
        <time>2020-07-02T08:24:22Z</time>
      </trkpt>
      <trkpt lat="48.69378" lon="2.28947">
        <ele>50</ele>
        <time>2020-07-02T08:24:23Z</time>
      </trkpt>
      <trkpt lat="48.69376" lon="2.28955">
        <ele>50</ele>
        <time>2020-07-02T08:24:24Z</time>
      </trkpt>
      <trkpt lat="48.69375" lon="2.28963">
        <ele>50.1</ele>
        <time>2020-07-02T08:24:25Z</time>
      </trkpt>
      <trkpt lat="48.69375" lon="2.28971">
        <ele>50.1</ele>
        <time>2020-07-02T08:24:26Z</time>
      </trkpt>
      <trkpt lat="48.69374" lon="2.28979">
        <ele>50.2</ele>
        <time>2020-07-02T08:24:27Z</time>
      </trkpt>
      <trkpt lat="48.69373" lon="2.28986">
        <ele>50.3</ele>
        <time>2020-07-02T08:24:28Z</time>
      </trkpt>
      <trkpt lat="48.69373" lon="2.28995">
        <ele>50.4</ele>
        <time>2020-07-02T08:24:29Z</time>
      </trkpt>
      <trkpt lat="48.69372" lon="2.29003">
        <ele>50.5</ele>
        <time>2020-07-02T08:24:30Z</time>
      </trkpt>
      <trkpt lat="48.69371" lon="2.29011">
        <ele>50.6</ele>
        <time>2020-07-02T08:24:31Z</time>
      </trkpt>
      <trkpt lat="48.6937" lon="2.29019">
        <ele>50.7</ele>
        <time>2020-07-02T08:24:32Z</time>
      </trkpt>
      <trkpt lat="48.69369" lon="2.29027">
        <ele>50.8</ele>
        <time>2020-07-02T08:24:33Z</time>
      </trkpt>
      <trkpt lat="48.69367" lon="2.29033">
        <ele>50.9</ele>
        <time>2020-07-02T08:24:34Z</time>
      </trkpt>
      <trkpt lat="48.69366" lon="2.29041">
        <ele>50.9</ele>
        <time>2020-07-02T08:24:35Z</time>
      </trkpt>
      <trkpt lat="48.69365" lon="2.2905">
        <ele>51</ele>
        <time>2020-07-02T08:24:36Z</time>
      </trkpt>
      <trkpt lat="48.69364" lon="2.29058">
        <ele>51.1</ele>
        <time>2020-07-02T08:24:37Z</time>
      </trkpt>
      <trkpt lat="48.69364" lon="2.29066">
        <ele>51.2</ele>
        <time>2020-07-02T08:24:38Z</time>
      </trkpt>
      <trkpt lat="48.69363" lon="2.29073">
        <ele>51.3</ele>
        <time>2020-07-02T08:24:39Z</time>
      </trkpt>
      <trkpt lat="48.69362" lon="2.29079">
        <ele>51.3</ele>
        <time>2020-07-02T08:24:40Z</time>
      </trkpt>
      <trkpt lat="48.69361" lon="2.29086">
        <ele>51.4</ele>
        <time>2020-07-02T08:24:41Z</time>
      </trkpt>
      <trkpt lat="48.69359" lon="2.29093">
        <ele>51.5</ele>
        <time>2020-07-02T08:24:42Z</time>
      </trkpt>
      <trkpt lat="48.69358" lon="2.291">
        <ele>51.6</ele>
        <time>2020-07-02T08:24:43Z</time>
      </trkpt>
      <trkpt lat="48.69357" lon="2.29106">
        <ele>51.6</ele>
        <time>2020-07-02T08:24:44Z</time>
      </trkpt>
      <trkpt lat="48.69355" lon="2.29111">
        <ele>51.7</ele>
        <time>2020-07-02T08:24:45Z</time>
      </trkpt>
      <trkpt lat="48.69354" lon="2.29118">
        <ele>51.8</ele>
        <time>2020-07-02T08:24:46Z</time>
      </trkpt>
      <trkpt lat="48.69352" lon="2.29124">
        <ele>51.9</ele>
        <time>2020-07-02T08:24:47Z</time>
      </trkpt>
      <trkpt lat="48.6935" lon="2.29129">
        <ele>51.9</ele>
        <time>2020-07-02T08:24:48Z</time>
      </trkpt>
      <trkpt lat="48.69347" lon="2.29134">
        <ele>52</ele>
        <time>2020-07-02T08:24:49Z</time>
      </trkpt>
      <trkpt lat="48.69343" lon="2.29135">
        <ele>52.1</ele>
        <time>2020-07-02T08:24:50Z</time>
      </trkpt>
      <trkpt lat="48.69339" lon="2.29135">
        <ele>52.1</ele>
        <time>2020-07-02T08:24:51Z</time>
      </trkpt>
      <trkpt lat="48.69336" lon="2.29133">
        <ele>52.5</ele>
        <time>2020-07-02T08:24:52Z</time>
      </trkpt>
      <trkpt lat="48.69332" lon="2.2913">
        <ele>52.8</ele>
        <time>2020-07-02T08:24:53Z</time>
      </trkpt>
      <trkpt lat="48.69328" lon="2.29129">
        <ele>53</ele>
        <time>2020-07-02T08:24:54Z</time>
      </trkpt>
      <trkpt lat="48.69323" lon="2.29127">
        <ele>53.3</ele>
        <time>2020-07-02T08:24:55Z</time>
      </trkpt>
      <trkpt lat="48.6932" lon="2.29125">
        <ele>53.6</ele>
        <time>2020-07-02T08:24:56Z</time>
      </trkpt>
      <trkpt lat="48.69316" lon="2.29123">
        <ele>53.9</ele>
        <time>2020-07-02T08:24:57Z</time>
      </trkpt>
      <trkpt lat="48.69312" lon="2.2912">
        <ele>54.2</ele>
        <time>2020-07-02T08:24:58Z</time>
      </trkpt>
      <trkpt lat="48.69308" lon="2.29118">
        <ele>54.5</ele>
        <time>2020-07-02T08:24:59Z</time>
      </trkpt>
      <trkpt lat="48.69304" lon="2.29116">
        <ele>54.9</ele>
        <time>2020-07-02T08:25:00Z</time>
      </trkpt>
      <trkpt lat="48.693" lon="2.29115">
        <ele>55.2</ele>
        <time>2020-07-02T08:25:01Z</time>
      </trkpt>
      <trkpt lat="48.69297" lon="2.29113">
        <ele>55.6</ele>
        <time>2020-07-02T08:25:02Z</time>
      </trkpt>
      <trkpt lat="48.69293" lon="2.29112">
        <ele>55.9</ele>
        <time>2020-07-02T08:25:03Z</time>
      </trkpt>
      <trkpt lat="48.69289" lon="2.29111">
        <ele>56.3</ele>
        <time>2020-07-02T08:25:04Z</time>
      </trkpt>
      <trkpt lat="48.69286" lon="2.29109">
        <ele>56.5</ele>
        <time>2020-07-02T08:25:05Z</time>
      </trkpt>
      <trkpt lat="48.69283" lon="2.29106">
        <ele>56.8</ele>
        <time>2020-07-02T08:25:06Z</time>
      </trkpt>
      <trkpt lat="48.69279" lon="2.29103">
        <ele>57.2</ele>
        <time>2020-07-02T08:25:07Z</time>
      </trkpt>
      <trkpt lat="48.69276" lon="2.29101">
        <ele>57.5</ele>
        <time>2020-07-02T08:25:08Z</time>
      </trkpt>
      <trkpt lat="48.69272" lon="2.29101">
        <ele>57.8</ele>
        <time>2020-07-02T08:25:09Z</time>
      </trkpt>
      <trkpt lat="48.69269" lon="2.29101">
        <ele>58.2</ele>
        <time>2020-07-02T08:25:10Z</time>
      </trkpt>
      <trkpt lat="48.69267" lon="2.291">
        <ele>58.3</ele>
        <time>2020-07-02T08:25:11Z</time>
      </trkpt>
      <trkpt lat="48.69264" lon="2.29099">
        <ele>58.7</ele>
        <time>2020-07-02T08:25:12Z</time>
      </trkpt>
      <trkpt lat="48.69263" lon="2.29099">
        <ele>58.8</ele>
        <time>2020-07-02T08:25:13Z</time>
      </trkpt>
      <trkpt lat="48.69259" lon="2.29096">
        <ele>59.1</ele>
        <time>2020-07-02T08:25:14Z</time>
      </trkpt>
      <trkpt lat="48.69258" lon="2.29095">
        <ele>59.1</ele>
        <time>2020-07-02T08:25:15Z</time>
      </trkpt>
      <trkpt lat="48.69255" lon="2.29093">
        <ele>59.3</ele>
        <time>2020-07-02T08:25:16Z</time>
      </trkpt>
      <trkpt lat="48.69253" lon="2.2909">
        <ele>59.5</ele>
        <time>2020-07-02T08:25:17Z</time>
      </trkpt>
      <trkpt lat="48.6925" lon="2.29085">
        <ele>60</ele>
        <time>2020-07-02T08:25:18Z</time>
      </trkpt>
      <trkpt lat="48.69248" lon="2.2908">
        <ele>60.3</ele>
        <time>2020-07-02T08:25:19Z</time>
      </trkpt>
      <trkpt lat="48.69245" lon="2.29076">
        <ele>60.6</ele>
        <time>2020-07-02T08:25:20Z</time>
      </trkpt>
      <trkpt lat="48.69243" lon="2.29072">
        <ele>60.8</ele>
        <time>2020-07-02T08:25:21Z</time>
      </trkpt>
      <trkpt lat="48.6924" lon="2.29068">
        <ele>61.1</ele>
        <time>2020-07-02T08:25:22Z</time>
      </trkpt>
      <trkpt lat="48.69237" lon="2.29065">
        <ele>61.3</ele>
        <time>2020-07-02T08:25:23Z</time>
      </trkpt>
      <trkpt lat="48.69235" lon="2.29062">
        <ele>61.5</ele>
        <time>2020-07-02T08:25:24Z</time>
      </trkpt>
      <trkpt lat="48.69232" lon="2.29059">
        <ele>61.7</ele>
        <time>2020-07-02T08:25:25Z</time>
      </trkpt>
      <trkpt lat="48.69229" lon="2.29055">
        <ele>61.9</ele>
        <time>2020-07-02T08:25:26Z</time>
      </trkpt>
      <trkpt lat="48.69226" lon="2.29053">
        <ele>62.1</ele>
        <time>2020-07-02T08:25:27Z</time>
      </trkpt>
      <trkpt lat="48.69223" lon="2.29051">
        <ele>62.3</ele>
        <time>2020-07-02T08:25:28Z</time>
      </trkpt>
      <trkpt lat="48.69221" lon="2.29049">
        <ele>62.5</ele>
        <time>2020-07-02T08:25:29Z</time>
      </trkpt>
      <trkpt lat="48.69218" lon="2.29046">
        <ele>62.7</ele>
        <time>2020-07-02T08:25:30Z</time>
      </trkpt>
      <trkpt lat="48.69215" lon="2.29045">
        <ele>62.9</ele>
        <time>2020-07-02T08:25:31Z</time>
      </trkpt>
      <trkpt lat="48.69213" lon="2.29043">
        <ele>63</ele>
        <time>2020-07-02T08:25:32Z</time>
      </trkpt>
      <trkpt lat="48.69208" lon="2.29041">
        <ele>63.3</ele>
        <time>2020-07-02T08:25:33Z</time>
      </trkpt>
      <trkpt lat="48.69205" lon="2.29039">
        <ele>63.6</ele>
        <time>2020-07-02T08:25:34Z</time>
      </trkpt>
      <trkpt lat="48.69202" lon="2.29037">
        <ele>63.7</ele>
        <time>2020-07-02T08:25:35Z</time>
      </trkpt>
      <trkpt lat="48.69198" lon="2.29034">
        <ele>63.8</ele>
        <time>2020-07-02T08:25:36Z</time>
      </trkpt>
      <trkpt lat="48.69194" lon="2.29031">
        <ele>63.9</ele>
        <time>2020-07-02T08:25:37Z</time>
      </trkpt>
      <trkpt lat="48.6919" lon="2.29028">
        <ele>64</ele>
        <time>2020-07-02T08:25:38Z</time>
      </trkpt>
      <trkpt lat="48.69187" lon="2.29026">
        <ele>64.1</ele>
        <time>2020-07-02T08:25:39Z</time>
      </trkpt>
      <trkpt lat="48.69183" lon="2.29024">
        <ele>64.2</ele>
        <time>2020-07-02T08:25:40Z</time>
      </trkpt>
      <trkpt lat="48.6918" lon="2.29021">
        <ele>64.4</ele>
        <time>2020-07-02T08:25:41Z</time>
      </trkpt>
      <trkpt lat="48.69177" lon="2.29019">
        <ele>64.6</ele>
        <time>2020-07-02T08:25:42Z</time>
      </trkpt>
      <trkpt lat="48.69174" lon="2.29015">
        <ele>64.9</ele>
        <time>2020-07-02T08:25:43Z</time>
      </trkpt>
      <trkpt lat="48.69172" lon="2.29012">
        <ele>65.1</ele>
        <time>2020-07-02T08:25:44Z</time>
      </trkpt>
      <trkpt lat="48.69169" lon="2.2901">
        <ele>65.3</ele>
        <time>2020-07-02T08:25:45Z</time>
      </trkpt>
      <trkpt lat="48.69167" lon="2.29007">
        <ele>65.5</ele>
        <time>2020-07-02T08:25:46Z</time>
      </trkpt>
      <trkpt lat="48.69164" lon="2.29004">
        <ele>65.7</ele>
        <time>2020-07-02T08:25:47Z</time>
      </trkpt>
      <trkpt lat="48.69161" lon="2.29001">
        <ele>65.9</ele>
        <time>2020-07-02T08:25:48Z</time>
      </trkpt>
      <trkpt lat="48.69158" lon="2.29001">
        <ele>66.1</ele>
        <time>2020-07-02T08:25:49Z</time>
      </trkpt>
      <trkpt lat="48.69154" lon="2.29">
        <ele>66.3</ele>
        <time>2020-07-02T08:25:50Z</time>
      </trkpt>
      <trkpt lat="48.69151" lon="2.28998">
        <ele>66.5</ele>
        <time>2020-07-02T08:25:51Z</time>
      </trkpt>
      <trkpt lat="48.69149" lon="2.28994">
        <ele>66.8</ele>
        <time>2020-07-02T08:25:52Z</time>
      </trkpt>
      <trkpt lat="48.69146" lon="2.28991">
        <ele>67</ele>
        <time>2020-07-02T08:25:53Z</time>
      </trkpt>
      <trkpt lat="48.69144" lon="2.28988">
        <ele>67.2</ele>
        <time>2020-07-02T08:25:54Z</time>
      </trkpt>
      <trkpt lat="48.69141" lon="2.28985">
        <ele>67.4</ele>
        <time>2020-07-02T08:25:55Z</time>
      </trkpt>
      <trkpt lat="48.69139" lon="2.28982">
        <ele>67.5</ele>
        <time>2020-07-02T08:25:56Z</time>
      </trkpt>
      <trkpt lat="48.69137" lon="2.2898">
        <ele>67.7</ele>
        <time>2020-07-02T08:25:57Z</time>
      </trkpt>
      <trkpt lat="48.69133" lon="2.28977">
        <ele>67.8</ele>
        <time>2020-07-02T08:25:58Z</time>
      </trkpt>
      <trkpt lat="48.69132" lon="2.28976">
        <ele>67.9</ele>
        <time>2020-07-02T08:25:59Z</time>
      </trkpt>
      <trkpt lat="48.69128" lon="2.28972">
        <ele>68</ele>
        <time>2020-07-02T08:26:00Z</time>
      </trkpt>
      <trkpt lat="48.69126" lon="2.2897">
        <ele>68.1</ele>
        <time>2020-07-02T08:26:01Z</time>
      </trkpt>
      <trkpt lat="48.69123" lon="2.28967">
        <ele>68.2</ele>
        <time>2020-07-02T08:26:02Z</time>
      </trkpt>
      <trkpt lat="48.6912" lon="2.28964">
        <ele>68.3</ele>
        <time>2020-07-02T08:26:03Z</time>
      </trkpt>
      <trkpt lat="48.69116" lon="2.28961">
        <ele>68.5</ele>
        <time>2020-07-02T08:26:04Z</time>
      </trkpt>
      <trkpt lat="48.69113" lon="2.28958">
        <ele>68.6</ele>
        <time>2020-07-02T08:26:05Z</time>
      </trkpt>
      <trkpt lat="48.69111" lon="2.28955">
        <ele>68.7</ele>
        <time>2020-07-02T08:26:06Z</time>
      </trkpt>
      <trkpt lat="48.69108" lon="2.28953">
        <ele>68.7</ele>
        <time>2020-07-02T08:26:07Z</time>
      </trkpt>
      <trkpt lat="48.69105" lon="2.28951">
        <ele>68.8</ele>
        <time>2020-07-02T08:26:08Z</time>
      </trkpt>
      <trkpt lat="48.69102" lon="2.28948">
        <ele>68.8</ele>
        <time>2020-07-02T08:26:09Z</time>
      </trkpt>
      <trkpt lat="48.69099" lon="2.28945">
        <ele>68.9</ele>
        <time>2020-07-02T08:26:10Z</time>
      </trkpt>
      <trkpt lat="48.69096" lon="2.28944">
        <ele>69.2</ele>
        <time>2020-07-02T08:26:11Z</time>
      </trkpt>
      <trkpt lat="48.69093" lon="2.28942">
        <ele>69.3</ele>
        <time>2020-07-02T08:26:12Z</time>
      </trkpt>
      <trkpt lat="48.69089" lon="2.2894">
        <ele>69.5</ele>
        <time>2020-07-02T08:26:13Z</time>
      </trkpt>
      <trkpt lat="48.69085" lon="2.28937">
        <ele>69.7</ele>
        <time>2020-07-02T08:26:14Z</time>
      </trkpt>
      <trkpt lat="48.69081" lon="2.28935">
        <ele>70</ele>
        <time>2020-07-02T08:26:15Z</time>
      </trkpt>
      <trkpt lat="48.69076" lon="2.28933">
        <ele>70.2</ele>
        <time>2020-07-02T08:26:16Z</time>
      </trkpt>
      <trkpt lat="48.69072" lon="2.2893">
        <ele>70.4</ele>
        <time>2020-07-02T08:26:17Z</time>
      </trkpt>
      <trkpt lat="48.69068" lon="2.28928">
        <ele>70.5</ele>
        <time>2020-07-02T08:26:18Z</time>
      </trkpt>
      <trkpt lat="48.69064" lon="2.28926">
        <ele>70.8</ele>
        <time>2020-07-02T08:26:19Z</time>
      </trkpt>
      <trkpt lat="48.6906" lon="2.28923">
        <ele>71</ele>
        <time>2020-07-02T08:26:20Z</time>
      </trkpt>
      <trkpt lat="48.69056" lon="2.2892">
        <ele>71.2</ele>
        <time>2020-07-02T08:26:21Z</time>
      </trkpt>
      <trkpt lat="48.69053" lon="2.28919">
        <ele>71.4</ele>
        <time>2020-07-02T08:26:22Z</time>
      </trkpt>
      <trkpt lat="48.6905" lon="2.28917">
        <ele>71.5</ele>
        <time>2020-07-02T08:26:23Z</time>
      </trkpt>
      <trkpt lat="48.69048" lon="2.28915">
        <ele>71.7</ele>
        <time>2020-07-02T08:26:24Z</time>
      </trkpt>
      <trkpt lat="48.69045" lon="2.28913">
        <ele>71.8</ele>
        <time>2020-07-02T08:26:25Z</time>
      </trkpt>
      <trkpt lat="48.69042" lon="2.2891">
        <ele>72</ele>
        <time>2020-07-02T08:26:26Z</time>
      </trkpt>
      <trkpt lat="48.6904" lon="2.28908">
        <ele>72.1</ele>
        <time>2020-07-02T08:26:27Z</time>
      </trkpt>
      <trkpt lat="48.69038" lon="2.28904">
        <ele>72.4</ele>
        <time>2020-07-02T08:26:28Z</time>
      </trkpt>
      <trkpt lat="48.69037" lon="2.28902">
        <ele>72.5</ele>
        <time>2020-07-02T08:26:29Z</time>
      </trkpt>
      <trkpt lat="48.69035" lon="2.28897">
        <ele>72.7</ele>
        <time>2020-07-02T08:26:30Z</time>
      </trkpt>
      <trkpt lat="48.69036" lon="2.28891">
        <ele>72.9</ele>
        <time>2020-07-02T08:26:31Z</time>
      </trkpt>
      <trkpt lat="48.69034" lon="2.28885">
        <ele>73.5</ele>
        <time>2020-07-02T08:26:32Z</time>
      </trkpt>
      <trkpt lat="48.69034" lon="2.28883">
        <ele>73.6</ele>
        <time>2020-07-02T08:26:33Z</time>
      </trkpt>
      <trkpt lat="48.69034" lon="2.28878">
        <ele>73.9</ele>
        <time>2020-07-02T08:26:34Z</time>
      </trkpt>
      <trkpt lat="48.69033" lon="2.28876">
        <ele>74</ele>
        <time>2020-07-02T08:26:35Z</time>
      </trkpt>
      <trkpt lat="48.69033" lon="2.28872">
        <ele>74.4</ele>
        <time>2020-07-02T08:26:36Z</time>
      </trkpt>
      <trkpt lat="48.69034" lon="2.28867">
        <ele>74.7</ele>
        <time>2020-07-02T08:26:37Z</time>
      </trkpt>
      <trkpt lat="48.69034" lon="2.28866">
        <ele>74.8</ele>
        <time>2020-07-02T08:26:38Z</time>
      </trkpt>
      <trkpt lat="48.69034" lon="2.28863">
        <ele>74.9</ele>
        <time>2020-07-02T08:26:39Z</time>
      </trkpt>
      <trkpt lat="48.69034" lon="2.28861">
        <ele>75</ele>
        <time>2020-07-02T08:26:40Z</time>
      </trkpt>
      <trkpt lat="48.69034" lon="2.28859">
        <ele>75.1</ele>
        <time>2020-07-02T08:26:41Z</time>
      </trkpt>
      <trkpt lat="48.69035" lon="2.28858">
        <ele>75.4</ele>
        <time>2020-07-02T08:26:42Z</time>
      </trkpt>
      <trkpt lat="48.69035" lon="2.28856">
        <ele>75.3</ele>
        <time>2020-07-02T08:26:43Z</time>
      </trkpt>
      <trkpt lat="48.69037" lon="2.28855">
        <ele>75.3</ele>
        <time>2020-07-02T08:26:44Z</time>
      </trkpt>
      <trkpt lat="48.69037" lon="2.28853">
        <ele>75.3</ele>
        <time>2020-07-02T08:26:45Z</time>
      </trkpt>
      <trkpt lat="48.69037" lon="2.28852">
        <ele>75.3</ele>
        <time>2020-07-02T08:26:46Z</time>
      </trkpt>
      <trkpt lat="48.69037" lon="2.28849">
        <ele>75.3</ele>
        <time>2020-07-02T08:26:47Z</time>
      </trkpt>
      <trkpt lat="48.69038" lon="2.28847">
        <ele>75.3</ele>
        <time>2020-07-02T08:26:48Z</time>
      </trkpt>
      <trkpt lat="48.69037" lon="2.28847">
        <ele>75.3</ele>
        <time>2020-07-02T08:26:49Z</time>
      </trkpt>
      <trkpt lat="48.69037" lon="2.28848">
        <ele>75.3</ele>
        <time>2020-07-02T08:26:50Z</time>
      </trkpt>
      <trkpt lat="48.69037" lon="2.28849">
        <ele>75.2</ele>
        <time>2020-07-02T08:26:51Z</time>
      </trkpt>
      <trkpt lat="48.69036" lon="2.28852">
        <ele>75.2</ele>
        <time>2020-07-02T08:26:52Z</time>
      </trkpt>
      <trkpt lat="48.69036" lon="2.28857">
        <ele>75.2</ele>
        <time>2020-07-02T08:26:53Z</time>
      </trkpt>
      <trkpt lat="48.69036" lon="2.28859">
        <ele>75.2</ele>
        <time>2020-07-02T08:26:54Z</time>
      </trkpt>
      <trkpt lat="48.69036" lon="2.28863">
        <ele>74.4</ele>
        <time>2020-07-02T08:26:55Z</time>
      </trkpt>
      <trkpt lat="48.69036" lon="2.28868">
        <ele>74.3</ele>
        <time>2020-07-02T08:26:56Z</time>
      </trkpt>
      <trkpt lat="48.69035" lon="2.28874">
        <ele>74.1</ele>
        <time>2020-07-02T08:26:57Z</time>
      </trkpt>
      <trkpt lat="48.69034" lon="2.28879">
        <ele>73.9</ele>
        <time>2020-07-02T08:26:58Z</time>
      </trkpt>
      <trkpt lat="48.69032" lon="2.28882">
        <ele>73.8</ele>
        <time>2020-07-02T08:26:59Z</time>
      </trkpt>
      <trkpt lat="48.69029" lon="2.28884">
        <ele>73.5</ele>
        <time>2020-07-02T08:27:00Z</time>
      </trkpt>
      <trkpt lat="48.69026" lon="2.28885">
        <ele>73.7</ele>
        <time>2020-07-02T08:27:01Z</time>
      </trkpt>
      <trkpt lat="48.69023" lon="2.28883">
        <ele>73.9</ele>
        <time>2020-07-02T08:27:02Z</time>
      </trkpt>
      <trkpt lat="48.69022" lon="2.28883">
        <ele>73.9</ele>
        <time>2020-07-02T08:27:03Z</time>
      </trkpt>
      <trkpt lat="48.69019" lon="2.28881">
        <ele>74.1</ele>
        <time>2020-07-02T08:27:04Z</time>
      </trkpt>
      <trkpt lat="48.69015" lon="2.28879">
        <ele>74.2</ele>
        <time>2020-07-02T08:27:05Z</time>
      </trkpt>
      <trkpt lat="48.69012" lon="2.28877">
        <ele>74.4</ele>
        <time>2020-07-02T08:27:06Z</time>
      </trkpt>
      <trkpt lat="48.69009" lon="2.28874">
        <ele>74.5</ele>
        <time>2020-07-02T08:27:07Z</time>
      </trkpt>
      <trkpt lat="48.69007" lon="2.28871">
        <ele>74.6</ele>
        <time>2020-07-02T08:27:08Z</time>
      </trkpt>
      <trkpt lat="48.69004" lon="2.28868">
        <ele>74.7</ele>
        <time>2020-07-02T08:27:09Z</time>
      </trkpt>
      <trkpt lat="48.69001" lon="2.28865">
        <ele>74.9</ele>
        <time>2020-07-02T08:27:10Z</time>
      </trkpt>
      <trkpt lat="48.68998" lon="2.28862">
        <ele>75</ele>
        <time>2020-07-02T08:27:11Z</time>
      </trkpt>
      <trkpt lat="48.68995" lon="2.28859">
        <ele>75.1</ele>
        <time>2020-07-02T08:27:12Z</time>
      </trkpt>
      <trkpt lat="48.68993" lon="2.28855">
        <ele>75.3</ele>
        <time>2020-07-02T08:27:13Z</time>
      </trkpt>
      <trkpt lat="48.6899" lon="2.28853">
        <ele>75.4</ele>
        <time>2020-07-02T08:27:14Z</time>
      </trkpt>
      <trkpt lat="48.68987" lon="2.28851">
        <ele>75.6</ele>
        <time>2020-07-02T08:27:15Z</time>
      </trkpt>
      <trkpt lat="48.68984" lon="2.28848">
        <ele>75.7</ele>
        <time>2020-07-02T08:27:16Z</time>
      </trkpt>
      <trkpt lat="48.68981" lon="2.28846">
        <ele>75.9</ele>
        <time>2020-07-02T08:27:17Z</time>
      </trkpt>
      <trkpt lat="48.68978" lon="2.28842">
        <ele>76.1</ele>
        <time>2020-07-02T08:27:18Z</time>
      </trkpt>
      <trkpt lat="48.68974" lon="2.2884">
        <ele>76.2</ele>
        <time>2020-07-02T08:27:19Z</time>
      </trkpt>
      <trkpt lat="48.68971" lon="2.28838">
        <ele>76.3</ele>
        <time>2020-07-02T08:27:20Z</time>
      </trkpt>
      <trkpt lat="48.68968" lon="2.28835">
        <ele>76.5</ele>
        <time>2020-07-02T08:27:21Z</time>
      </trkpt>
      <trkpt lat="48.68964" lon="2.28832">
        <ele>76.6</ele>
        <time>2020-07-02T08:27:22Z</time>
      </trkpt>
      <trkpt lat="48.6896" lon="2.28829">
        <ele>76.8</ele>
        <time>2020-07-02T08:27:23Z</time>
      </trkpt>
      <trkpt lat="48.68956" lon="2.28827">
        <ele>76.9</ele>
        <time>2020-07-02T08:27:24Z</time>
      </trkpt>
      <trkpt lat="48.68952" lon="2.28825">
        <ele>77.1</ele>
        <time>2020-07-02T08:27:25Z</time>
      </trkpt>
      <trkpt lat="48.68948" lon="2.28823">
        <ele>77.3</ele>
        <time>2020-07-02T08:27:26Z</time>
      </trkpt>
      <trkpt lat="48.68943" lon="2.28824">
        <ele>77.5</ele>
        <time>2020-07-02T08:27:27Z</time>
      </trkpt>
      <trkpt lat="48.68939" lon="2.28822">
        <ele>77.7</ele>
        <time>2020-07-02T08:27:28Z</time>
      </trkpt>
      <trkpt lat="48.68936" lon="2.2882">
        <ele>77.8</ele>
        <time>2020-07-02T08:27:29Z</time>
      </trkpt>
      <trkpt lat="48.68933" lon="2.28818">
        <ele>78</ele>
        <time>2020-07-02T08:27:30Z</time>
      </trkpt>
      <trkpt lat="48.6893" lon="2.28816">
        <ele>78.1</ele>
        <time>2020-07-02T08:27:31Z</time>
      </trkpt>
      <trkpt lat="48.68926" lon="2.28815">
        <ele>78.2</ele>
        <time>2020-07-02T08:27:32Z</time>
      </trkpt>
      <trkpt lat="48.68923" lon="2.28814">
        <ele>78.4</ele>
        <time>2020-07-02T08:27:33Z</time>
      </trkpt>
      <trkpt lat="48.68919" lon="2.28812">
        <ele>78.5</ele>
        <time>2020-07-02T08:27:34Z</time>
      </trkpt>
      <trkpt lat="48.68918" lon="2.28812">
        <ele>78.6</ele>
        <time>2020-07-02T08:27:35Z</time>
      </trkpt>
      <trkpt lat="48.68915" lon="2.2881">
        <ele>78.7</ele>
        <time>2020-07-02T08:27:36Z</time>
      </trkpt>
      <trkpt lat="48.68912" lon="2.28807">
        <ele>78.9</ele>
        <time>2020-07-02T08:27:37Z</time>
      </trkpt>
      <trkpt lat="48.68911" lon="2.28808">
        <ele>79</ele>
        <time>2020-07-02T08:27:38Z</time>
      </trkpt>
      <trkpt lat="48.68909" lon="2.28807">
        <ele>79</ele>
        <time>2020-07-02T08:27:39Z</time>
      </trkpt>
      <trkpt lat="48.68907" lon="2.28805">
        <ele>79.1</ele>
        <time>2020-07-02T08:27:40Z</time>
      </trkpt>
      <trkpt lat="48.68906" lon="2.28805">
        <ele>79.2</ele>
        <time>2020-07-02T08:27:41Z</time>
      </trkpt>
      <trkpt lat="48.68906" lon="2.28805">
        <ele>79.2</ele>
        <time>2020-07-02T08:27:42Z</time>
      </trkpt>
      <trkpt lat="48.68905" lon="2.28805">
        <ele>79.2</ele>
        <time>2020-07-02T08:27:43Z</time>
      </trkpt>
      <trkpt lat="48.68906" lon="2.28805">
        <ele>79.2</ele>
        <time>2020-07-02T08:27:44Z</time>
      </trkpt>
      <trkpt lat="48.68906" lon="2.28805">
        <ele>79.2</ele>
        <time>2020-07-02T08:27:45Z</time>
      </trkpt>
      <trkpt lat="48.68906" lon="2.28805">
        <ele>79.2</ele>
        <time>2020-07-02T08:27:46Z</time>
      </trkpt>
      <trkpt lat="48.68906" lon="2.28805">
        <ele>79.3</ele>
        <time>2020-07-02T08:27:47Z</time>
      </trkpt>
      <trkpt lat="48.68906" lon="2.28805">
        <ele>79.3</ele>
        <time>2020-07-02T08:27:48Z</time>
      </trkpt>
      <trkpt lat="48.68906" lon="2.28805">
        <ele>79.3</ele>
        <time>2020-07-02T08:27:49Z</time>
      </trkpt>
      <trkpt lat="48.68906" lon="2.28805">
        <ele>79.3</ele>
        <time>2020-07-02T08:27:50Z</time>
      </trkpt>
      <trkpt lat="48.68906" lon="2.28805">
        <ele>79.3</ele>
        <time>2020-07-02T08:27:51Z</time>
      </trkpt>
      <trkpt lat="48.68906" lon="2.28805">
        <ele>79.3</ele>
        <time>2020-07-02T08:27:52Z</time>
      </trkpt>
      <trkpt lat="48.68906" lon="2.28805">
        <ele>79.3</ele>
        <time>2020-07-02T08:27:53Z</time>
      </trkpt>
      <trkpt lat="48.68906" lon="2.28805">
        <ele>79.3</ele>
        <time>2020-07-02T08:27:54Z</time>
      </trkpt>
      <trkpt lat="48.68901" lon="2.28802">
        <ele>79.5</ele>
        <time>2020-07-02T08:28:01Z</time>
      </trkpt>
      <trkpt lat="48.689" lon="2.28802">
        <ele>79.6</ele>
        <time>2020-07-02T08:28:02Z</time>
      </trkpt>
      <trkpt lat="48.689" lon="2.28802">
        <ele>79.6</ele>
        <time>2020-07-02T08:28:03Z</time>
      </trkpt>
      <trkpt lat="48.68899" lon="2.28801">
        <ele>79.6</ele>
        <time>2020-07-02T08:28:04Z</time>
      </trkpt>
      <trkpt lat="48.68899" lon="2.28801">
        <ele>79.6</ele>
        <time>2020-07-02T08:28:05Z</time>
      </trkpt>
      <trkpt lat="48.68899" lon="2.28801">
        <ele>79.6</ele>
        <time>2020-07-02T08:28:06Z</time>
      </trkpt>
      <trkpt lat="48.68899" lon="2.28801">
        <ele>79.6</ele>
        <time>2020-07-02T08:28:07Z</time>
      </trkpt>
      <trkpt lat="48.68899" lon="2.28801">
        <ele>79.6</ele>
        <time>2020-07-02T08:28:08Z</time>
      </trkpt>
      <trkpt lat="48.68899" lon="2.28801">
        <ele>79.6</ele>
        <time>2020-07-02T08:28:09Z</time>
      </trkpt>
      <trkpt lat="48.68899" lon="2.28801">
        <ele>79.6</ele>
        <time>2020-07-02T08:28:10Z</time>
      </trkpt>
      <trkpt lat="48.68899" lon="2.288">
        <ele>79.6</ele>
        <time>2020-07-02T08:28:11Z</time>
      </trkpt>
      <trkpt lat="48.68899" lon="2.288">
        <ele>79.7</ele>
        <time>2020-07-02T08:28:12Z</time>
      </trkpt>
      <trkpt lat="48.68899" lon="2.28799">
        <ele>79.7</ele>
        <time>2020-07-02T08:28:13Z</time>
      </trkpt>
      <trkpt lat="48.68899" lon="2.28799">
        <ele>79.7</ele>
        <time>2020-07-02T08:28:14Z</time>
      </trkpt>
      <trkpt lat="48.68899" lon="2.28799">
        <ele>79.7</ele>
        <time>2020-07-02T08:28:15Z</time>
      </trkpt>
      <trkpt lat="48.68899" lon="2.28799">
        <ele>79.7</ele>
        <time>2020-07-02T08:28:16Z</time>
      </trkpt>
      <trkpt lat="48.68899" lon="2.28799">
        <ele>79.7</ele>
        <time>2020-07-02T08:28:17Z</time>
      </trkpt>
      <trkpt lat="48.68899" lon="2.28799">
        <ele>79.7</ele>
        <time>2020-07-02T08:28:18Z</time>
      </trkpt>
      <trkpt lat="48.68898" lon="2.288">
        <ele>79.8</ele>
        <time>2020-07-02T08:28:19Z</time>
      </trkpt>
      <trkpt lat="48.68897" lon="2.28801">
        <ele>79.8</ele>
        <time>2020-07-02T08:28:20Z</time>
      </trkpt>
      <trkpt lat="48.68896" lon="2.28801">
        <ele>79.8</ele>
        <time>2020-07-02T08:28:21Z</time>
      </trkpt>
      <trkpt lat="48.68895" lon="2.288">
        <ele>79.9</ele>
        <time>2020-07-02T08:28:22Z</time>
      </trkpt>
      <trkpt lat="48.68893" lon="2.28798">
        <ele>80</ele>
        <time>2020-07-02T08:28:23Z</time>
      </trkpt>
      <trkpt lat="48.6889" lon="2.28795">
        <ele>80.1</ele>
        <time>2020-07-02T08:28:24Z</time>
      </trkpt>
      <trkpt lat="48.68889" lon="2.28794">
        <ele>80.2</ele>
        <time>2020-07-02T08:28:25Z</time>
      </trkpt>
      <trkpt lat="48.68887" lon="2.28792">
        <ele>80.3</ele>
        <time>2020-07-02T08:28:26Z</time>
      </trkpt>
      <trkpt lat="48.68884" lon="2.28789">
        <ele>80.5</ele>
        <time>2020-07-02T08:28:27Z</time>
      </trkpt>
      <trkpt lat="48.68881" lon="2.28785">
        <ele>80.7</ele>
        <time>2020-07-02T08:28:28Z</time>
      </trkpt>
      <trkpt lat="48.68879" lon="2.28781">
        <ele>80.9</ele>
        <time>2020-07-02T08:28:29Z</time>
      </trkpt>
      <trkpt lat="48.68876" lon="2.28778">
        <ele>81.1</ele>
        <time>2020-07-02T08:28:30Z</time>
      </trkpt>
      <trkpt lat="48.68872" lon="2.28775">
        <ele>81.3</ele>
        <time>2020-07-02T08:28:31Z</time>
      </trkpt>
      <trkpt lat="48.68868" lon="2.28771">
        <ele>81.6</ele>
        <time>2020-07-02T08:28:32Z</time>
      </trkpt>
      <trkpt lat="48.68862" lon="2.28769">
        <ele>81.8</ele>
        <time>2020-07-02T08:28:33Z</time>
      </trkpt>
      <trkpt lat="48.68857" lon="2.28768">
        <ele>82.2</ele>
        <time>2020-07-02T08:28:34Z</time>
      </trkpt>
      <trkpt lat="48.68852" lon="2.28768">
        <ele>82.3</ele>
        <time>2020-07-02T08:28:35Z</time>
      </trkpt>
      <trkpt lat="48.68849" lon="2.28766">
        <ele>82.3</ele>
        <time>2020-07-02T08:28:36Z</time>
      </trkpt>
      <trkpt lat="48.68846" lon="2.28764">
        <ele>82.4</ele>
        <time>2020-07-02T08:28:37Z</time>
      </trkpt>
      <trkpt lat="48.68844" lon="2.28762">
        <ele>82.6</ele>
        <time>2020-07-02T08:28:38Z</time>
      </trkpt>
      <trkpt lat="48.68841" lon="2.28759">
        <ele>82.8</ele>
        <time>2020-07-02T08:28:39Z</time>
      </trkpt>
      <trkpt lat="48.68839" lon="2.28757">
        <ele>82.9</ele>
        <time>2020-07-02T08:28:40Z</time>
      </trkpt>
      <trkpt lat="48.68837" lon="2.28754">
        <ele>83.2</ele>
        <time>2020-07-02T08:28:41Z</time>
      </trkpt>
      <trkpt lat="48.68834" lon="2.2875">
        <ele>83.2</ele>
        <time>2020-07-02T08:28:42Z</time>
      </trkpt>
      <trkpt lat="48.68832" lon="2.28746">
        <ele>83.2</ele>
        <time>2020-07-02T08:28:43Z</time>
      </trkpt>
      <trkpt lat="48.6883" lon="2.28742">
        <ele>83.2</ele>
        <time>2020-07-02T08:28:44Z</time>
      </trkpt>
      <trkpt lat="48.68827" lon="2.2874">
        <ele>83.2</ele>
        <time>2020-07-02T08:28:45Z</time>
      </trkpt>
      <trkpt lat="48.68824" lon="2.28738">
        <ele>83.3</ele>
        <time>2020-07-02T08:28:46Z</time>
      </trkpt>
      <trkpt lat="48.6882" lon="2.28738">
        <ele>83.3</ele>
        <time>2020-07-02T08:28:47Z</time>
      </trkpt>
      <trkpt lat="48.68816" lon="2.28737">
        <ele>83.6</ele>
        <time>2020-07-02T08:28:48Z</time>
      </trkpt>
      <trkpt lat="48.68812" lon="2.28737">
        <ele>83.8</ele>
        <time>2020-07-02T08:28:49Z</time>
      </trkpt>
      <trkpt lat="48.68809" lon="2.28735">
        <ele>83.9</ele>
        <time>2020-07-02T08:28:50Z</time>
      </trkpt>
      <trkpt lat="48.68805" lon="2.28734">
        <ele>84.1</ele>
        <time>2020-07-02T08:28:51Z</time>
      </trkpt>
      <trkpt lat="48.68801" lon="2.28732">
        <ele>84.2</ele>
        <time>2020-07-02T08:28:52Z</time>
      </trkpt>
      <trkpt lat="48.68797" lon="2.2873">
        <ele>84.4</ele>
        <time>2020-07-02T08:28:53Z</time>
      </trkpt>
      <trkpt lat="48.68793" lon="2.28728">
        <ele>84.6</ele>
        <time>2020-07-02T08:28:54Z</time>
      </trkpt>
      <trkpt lat="48.68789" lon="2.28726">
        <ele>84.7</ele>
        <time>2020-07-02T08:28:55Z</time>
      </trkpt>
      <trkpt lat="48.68785" lon="2.28725">
        <ele>84.9</ele>
        <time>2020-07-02T08:28:56Z</time>
      </trkpt>
      <trkpt lat="48.68781" lon="2.28724">
        <ele>85</ele>
        <time>2020-07-02T08:28:57Z</time>
      </trkpt>
      <trkpt lat="48.68778" lon="2.28723">
        <ele>85.1</ele>
        <time>2020-07-02T08:28:58Z</time>
      </trkpt>
      <trkpt lat="48.68774" lon="2.2872">
        <ele>85.2</ele>
        <time>2020-07-02T08:28:59Z</time>
      </trkpt>
      <trkpt lat="48.68771" lon="2.28718">
        <ele>85.4</ele>
        <time>2020-07-02T08:29:00Z</time>
      </trkpt>
      <trkpt lat="48.68768" lon="2.28716">
        <ele>85.6</ele>
        <time>2020-07-02T08:29:01Z</time>
      </trkpt>
      <trkpt lat="48.68764" lon="2.28713">
        <ele>85.8</ele>
        <time>2020-07-02T08:29:02Z</time>
      </trkpt>
      <trkpt lat="48.6876" lon="2.2871">
        <ele>86.1</ele>
        <time>2020-07-02T08:29:03Z</time>
      </trkpt>
      <trkpt lat="48.68756" lon="2.28708">
        <ele>86.3</ele>
        <time>2020-07-02T08:29:04Z</time>
      </trkpt>
      <trkpt lat="48.68753" lon="2.28705">
        <ele>86.5</ele>
        <time>2020-07-02T08:29:05Z</time>
      </trkpt>
      <trkpt lat="48.6875" lon="2.28702">
        <ele>86.7</ele>
        <time>2020-07-02T08:29:06Z</time>
      </trkpt>
      <trkpt lat="48.68747" lon="2.28701">
        <ele>86.9</ele>
        <time>2020-07-02T08:29:07Z</time>
      </trkpt>
      <trkpt lat="48.68744" lon="2.28698">
        <ele>87.1</ele>
        <time>2020-07-02T08:29:08Z</time>
      </trkpt>
      <trkpt lat="48.68741" lon="2.28696">
        <ele>87.3</ele>
        <time>2020-07-02T08:29:09Z</time>
      </trkpt>
      <trkpt lat="48.68738" lon="2.28693">
        <ele>87.5</ele>
        <time>2020-07-02T08:29:10Z</time>
      </trkpt>
      <trkpt lat="48.68734" lon="2.28691">
        <ele>87.7</ele>
        <time>2020-07-02T08:29:11Z</time>
      </trkpt>
      <trkpt lat="48.68731" lon="2.28688">
        <ele>88</ele>
        <time>2020-07-02T08:29:12Z</time>
      </trkpt>
      <trkpt lat="48.68727" lon="2.28686">
        <ele>88.2</ele>
        <time>2020-07-02T08:29:13Z</time>
      </trkpt>
      <trkpt lat="48.68725" lon="2.28684">
        <ele>88.3</ele>
        <time>2020-07-02T08:29:14Z</time>
      </trkpt>
      <trkpt lat="48.68721" lon="2.28681">
        <ele>88.5</ele>
        <time>2020-07-02T08:29:15Z</time>
      </trkpt>
      <trkpt lat="48.6872" lon="2.2868">
        <ele>88.6</ele>
        <time>2020-07-02T08:29:16Z</time>
      </trkpt>
      <trkpt lat="48.68717" lon="2.28678">
        <ele>88.7</ele>
        <time>2020-07-02T08:29:17Z</time>
      </trkpt>
      <trkpt lat="48.68713" lon="2.28677">
        <ele>88.9</ele>
        <time>2020-07-02T08:29:18Z</time>
      </trkpt>
      <trkpt lat="48.68712" lon="2.28676">
        <ele>88.9</ele>
        <time>2020-07-02T08:29:19Z</time>
      </trkpt>
      <trkpt lat="48.68709" lon="2.28676">
        <ele>89.1</ele>
        <time>2020-07-02T08:29:20Z</time>
      </trkpt>
      <trkpt lat="48.68708" lon="2.28676">
        <ele>89.1</ele>
        <time>2020-07-02T08:29:21Z</time>
      </trkpt>
      <trkpt lat="48.68705" lon="2.28675">
        <ele>89.2</ele>
        <time>2020-07-02T08:29:22Z</time>
      </trkpt>
      <trkpt lat="48.68701" lon="2.28674">
        <ele>89.2</ele>
        <time>2020-07-02T08:29:23Z</time>
      </trkpt>
      <trkpt lat="48.68698" lon="2.28672">
        <ele>89.3</ele>
        <time>2020-07-02T08:29:24Z</time>
      </trkpt>
      <trkpt lat="48.68694" lon="2.2867">
        <ele>89.3</ele>
        <time>2020-07-02T08:29:25Z</time>
      </trkpt>
      <trkpt lat="48.6869" lon="2.28667">
        <ele>89.4</ele>
        <time>2020-07-02T08:29:26Z</time>
      </trkpt>
      <trkpt lat="48.68685" lon="2.28664">
        <ele>89.4</ele>
        <time>2020-07-02T08:29:27Z</time>
      </trkpt>
      <trkpt lat="48.68681" lon="2.28662">
        <ele>89.5</ele>
        <time>2020-07-02T08:29:28Z</time>
      </trkpt>
      <trkpt lat="48.68677" lon="2.2866">
        <ele>89.6</ele>
        <time>2020-07-02T08:29:29Z</time>
      </trkpt>
      <trkpt lat="48.68673" lon="2.28657">
        <ele>89.7</ele>
        <time>2020-07-02T08:29:30Z</time>
      </trkpt>
      <trkpt lat="48.68669" lon="2.28655">
        <ele>89.8</ele>
        <time>2020-07-02T08:29:31Z</time>
      </trkpt>
      <trkpt lat="48.68664" lon="2.28652">
        <ele>89.9</ele>
        <time>2020-07-02T08:29:32Z</time>
      </trkpt>
      <trkpt lat="48.68659" lon="2.2865">
        <ele>90</ele>
        <time>2020-07-02T08:29:33Z</time>
      </trkpt>
      <trkpt lat="48.68655" lon="2.28647">
        <ele>90.1</ele>
        <time>2020-07-02T08:29:34Z</time>
      </trkpt>
      <trkpt lat="48.68651" lon="2.28645">
        <ele>90.2</ele>
        <time>2020-07-02T08:29:35Z</time>
      </trkpt>
      <trkpt lat="48.68647" lon="2.28642">
        <ele>90.3</ele>
        <time>2020-07-02T08:29:36Z</time>
      </trkpt>
      <trkpt lat="48.68643" lon="2.28639">
        <ele>90.4</ele>
        <time>2020-07-02T08:29:37Z</time>
      </trkpt>
      <trkpt lat="48.68638" lon="2.28637">
        <ele>90.5</ele>
        <time>2020-07-02T08:29:38Z</time>
      </trkpt>
      <trkpt lat="48.68635" lon="2.28635">
        <ele>90.6</ele>
        <time>2020-07-02T08:29:39Z</time>
      </trkpt>
      <trkpt lat="48.68631" lon="2.28632">
        <ele>90.7</ele>
        <time>2020-07-02T08:29:40Z</time>
      </trkpt>
      <trkpt lat="48.68628" lon="2.28629">
        <ele>90.8</ele>
        <time>2020-07-02T08:29:41Z</time>
      </trkpt>
      <trkpt lat="48.68624" lon="2.28627">
        <ele>90.9</ele>
        <time>2020-07-02T08:29:42Z</time>
      </trkpt>
      <trkpt lat="48.6862" lon="2.28624">
        <ele>91</ele>
        <time>2020-07-02T08:29:43Z</time>
      </trkpt>
      <trkpt lat="48.68617" lon="2.28623">
        <ele>91.1</ele>
        <time>2020-07-02T08:29:44Z</time>
      </trkpt>
      <trkpt lat="48.68614" lon="2.28621">
        <ele>91.2</ele>
        <time>2020-07-02T08:29:45Z</time>
      </trkpt>
      <trkpt lat="48.68611" lon="2.2862">
        <ele>91.2</ele>
        <time>2020-07-02T08:29:46Z</time>
      </trkpt>
      <trkpt lat="48.68607" lon="2.28618">
        <ele>91.3</ele>
        <time>2020-07-02T08:29:47Z</time>
      </trkpt>
      <trkpt lat="48.68602" lon="2.28616">
        <ele>91.4</ele>
        <time>2020-07-02T08:29:48Z</time>
      </trkpt>
      <trkpt lat="48.68599" lon="2.28615">
        <ele>91.5</ele>
        <time>2020-07-02T08:29:49Z</time>
      </trkpt>
      <trkpt lat="48.68595" lon="2.28613">
        <ele>91.6</ele>
        <time>2020-07-02T08:29:50Z</time>
      </trkpt>
      <trkpt lat="48.68591" lon="2.28612">
        <ele>91.6</ele>
        <time>2020-07-02T08:29:51Z</time>
      </trkpt>
      <trkpt lat="48.68587" lon="2.28609">
        <ele>91.7</ele>
        <time>2020-07-02T08:29:52Z</time>
      </trkpt>
      <trkpt lat="48.68583" lon="2.28607">
        <ele>91.8</ele>
        <time>2020-07-02T08:29:53Z</time>
      </trkpt>
      <trkpt lat="48.68579" lon="2.28606">
        <ele>91.9</ele>
        <time>2020-07-02T08:29:54Z</time>
      </trkpt>
      <trkpt lat="48.68575" lon="2.28604">
        <ele>91.9</ele>
        <time>2020-07-02T08:29:55Z</time>
      </trkpt>
      <trkpt lat="48.68571" lon="2.28602">
        <ele>92</ele>
        <time>2020-07-02T08:29:56Z</time>
      </trkpt>
      <trkpt lat="48.68566" lon="2.28599">
        <ele>92.1</ele>
        <time>2020-07-02T08:29:57Z</time>
      </trkpt>
      <trkpt lat="48.68561" lon="2.28597">
        <ele>92.1</ele>
        <time>2020-07-02T08:29:58Z</time>
      </trkpt>
      <trkpt lat="48.68556" lon="2.28595">
        <ele>92.2</ele>
        <time>2020-07-02T08:29:59Z</time>
      </trkpt>
      <trkpt lat="48.68552" lon="2.28593">
        <ele>92.2</ele>
        <time>2020-07-02T08:30:00Z</time>
      </trkpt>
      <trkpt lat="48.68547" lon="2.28592">
        <ele>92.3</ele>
        <time>2020-07-02T08:30:01Z</time>
      </trkpt>
      <trkpt lat="48.68542" lon="2.2859">
        <ele>92.3</ele>
        <time>2020-07-02T08:30:02Z</time>
      </trkpt>
      <trkpt lat="48.68537" lon="2.28589">
        <ele>92.4</ele>
        <time>2020-07-02T08:30:03Z</time>
      </trkpt>
      <trkpt lat="48.68532" lon="2.28588">
        <ele>92.4</ele>
        <time>2020-07-02T08:30:04Z</time>
      </trkpt>
      <trkpt lat="48.68527" lon="2.28587">
        <ele>92.5</ele>
        <time>2020-07-02T08:30:05Z</time>
      </trkpt>
      <trkpt lat="48.68522" lon="2.28585">
        <ele>92.5</ele>
        <time>2020-07-02T08:30:06Z</time>
      </trkpt>
      <trkpt lat="48.68517" lon="2.28583">
        <ele>92.6</ele>
        <time>2020-07-02T08:30:07Z</time>
      </trkpt>
      <trkpt lat="48.68512" lon="2.28581">
        <ele>92.7</ele>
        <time>2020-07-02T08:30:08Z</time>
      </trkpt>
      <trkpt lat="48.68508" lon="2.28579">
        <ele>92.7</ele>
        <time>2020-07-02T08:30:09Z</time>
      </trkpt>
      <trkpt lat="48.68503" lon="2.28576">
        <ele>92.8</ele>
        <time>2020-07-02T08:30:10Z</time>
      </trkpt>
      <trkpt lat="48.68498" lon="2.28573">
        <ele>92.8</ele>
        <time>2020-07-02T08:30:11Z</time>
      </trkpt>
      <trkpt lat="48.68493" lon="2.2857">
        <ele>92.8</ele>
        <time>2020-07-02T08:30:12Z</time>
      </trkpt>
      <trkpt lat="48.68488" lon="2.28568">
        <ele>92.9</ele>
        <time>2020-07-02T08:30:13Z</time>
      </trkpt>
      <trkpt lat="48.68483" lon="2.28565">
        <ele>92.9</ele>
        <time>2020-07-02T08:30:14Z</time>
      </trkpt>
      <trkpt lat="48.68477" lon="2.28563">
        <ele>92.9</ele>
        <time>2020-07-02T08:30:15Z</time>
      </trkpt>
      <trkpt lat="48.68472" lon="2.28561">
        <ele>93</ele>
        <time>2020-07-02T08:30:16Z</time>
      </trkpt>
      <trkpt lat="48.68466" lon="2.2856">
        <ele>93</ele>
        <time>2020-07-02T08:30:17Z</time>
      </trkpt>
      <trkpt lat="48.6846" lon="2.28557">
        <ele>93.1</ele>
        <time>2020-07-02T08:30:18Z</time>
      </trkpt>
      <trkpt lat="48.68454" lon="2.28555">
        <ele>93.1</ele>
        <time>2020-07-02T08:30:19Z</time>
      </trkpt>
      <trkpt lat="48.68449" lon="2.28553">
        <ele>93.1</ele>
        <time>2020-07-02T08:30:20Z</time>
      </trkpt>
      <trkpt lat="48.68444" lon="2.28552">
        <ele>93.2</ele>
        <time>2020-07-02T08:30:21Z</time>
      </trkpt>
      <trkpt lat="48.68439" lon="2.2855">
        <ele>93.2</ele>
        <time>2020-07-02T08:30:22Z</time>
      </trkpt>
      <trkpt lat="48.68434" lon="2.28547">
        <ele>93.2</ele>
        <time>2020-07-02T08:30:23Z</time>
      </trkpt>
      <trkpt lat="48.68428" lon="2.28545">
        <ele>93.2</ele>
        <time>2020-07-02T08:30:24Z</time>
      </trkpt>
      <trkpt lat="48.68422" lon="2.28543">
        <ele>93.2</ele>
        <time>2020-07-02T08:30:25Z</time>
      </trkpt>
      <trkpt lat="48.68416" lon="2.2854">
        <ele>93.3</ele>
        <time>2020-07-02T08:30:26Z</time>
      </trkpt>
      <trkpt lat="48.6841" lon="2.28538">
        <ele>93.3</ele>
        <time>2020-07-02T08:30:27Z</time>
      </trkpt>
      <trkpt lat="48.68405" lon="2.28536">
        <ele>93.4</ele>
        <time>2020-07-02T08:30:28Z</time>
      </trkpt>
      <trkpt lat="48.684" lon="2.28535">
        <ele>93.4</ele>
        <time>2020-07-02T08:30:29Z</time>
      </trkpt>
      <trkpt lat="48.68394" lon="2.28533">
        <ele>93.4</ele>
        <time>2020-07-02T08:30:30Z</time>
      </trkpt>
      <trkpt lat="48.68388" lon="2.28532">
        <ele>93.4</ele>
        <time>2020-07-02T08:30:31Z</time>
      </trkpt>
      <trkpt lat="48.68383" lon="2.2853">
        <ele>93.4</ele>
        <time>2020-07-02T08:30:32Z</time>
      </trkpt>
      <trkpt lat="48.68379" lon="2.28528">
        <ele>93.4</ele>
        <time>2020-07-02T08:30:33Z</time>
      </trkpt>
      <trkpt lat="48.68374" lon="2.28527">
        <ele>93.4</ele>
        <time>2020-07-02T08:30:34Z</time>
      </trkpt>
      <trkpt lat="48.68369" lon="2.28525">
        <ele>93.4</ele>
        <time>2020-07-02T08:30:35Z</time>
      </trkpt>
      <trkpt lat="48.68364" lon="2.28524">
        <ele>93.3</ele>
        <time>2020-07-02T08:30:36Z</time>
      </trkpt>
      <trkpt lat="48.68359" lon="2.28523">
        <ele>93.2</ele>
        <time>2020-07-02T08:30:37Z</time>
      </trkpt>
      <trkpt lat="48.68355" lon="2.28521">
        <ele>93.1</ele>
        <time>2020-07-02T08:30:38Z</time>
      </trkpt>
      <trkpt lat="48.6835" lon="2.2852">
        <ele>93</ele>
        <time>2020-07-02T08:30:39Z</time>
      </trkpt>
      <trkpt lat="48.68346" lon="2.28518">
        <ele>92.9</ele>
        <time>2020-07-02T08:30:40Z</time>
      </trkpt>
      <trkpt lat="48.68341" lon="2.28516">
        <ele>92.8</ele>
        <time>2020-07-02T08:30:41Z</time>
      </trkpt>
      <trkpt lat="48.68336" lon="2.28514">
        <ele>92.7</ele>
        <time>2020-07-02T08:30:42Z</time>
      </trkpt>
      <trkpt lat="48.68331" lon="2.28513">
        <ele>92.6</ele>
        <time>2020-07-02T08:30:43Z</time>
      </trkpt>
      <trkpt lat="48.68326" lon="2.2851">
        <ele>92.5</ele>
        <time>2020-07-02T08:30:44Z</time>
      </trkpt>
      <trkpt lat="48.6832" lon="2.28508">
        <ele>92.3</ele>
        <time>2020-07-02T08:30:45Z</time>
      </trkpt>
      <trkpt lat="48.68315" lon="2.28506">
        <ele>92.2</ele>
        <time>2020-07-02T08:30:46Z</time>
      </trkpt>
      <trkpt lat="48.6831" lon="2.28504">
        <ele>92.1</ele>
        <time>2020-07-02T08:30:47Z</time>
      </trkpt>
      <trkpt lat="48.68304" lon="2.28501">
        <ele>91.9</ele>
        <time>2020-07-02T08:30:48Z</time>
      </trkpt>
      <trkpt lat="48.68299" lon="2.28499">
        <ele>91.8</ele>
        <time>2020-07-02T08:30:49Z</time>
      </trkpt>
      <trkpt lat="48.68294" lon="2.28497">
        <ele>91.7</ele>
        <time>2020-07-02T08:30:50Z</time>
      </trkpt>
      <trkpt lat="48.68288" lon="2.28494">
        <ele>91.5</ele>
        <time>2020-07-02T08:30:51Z</time>
      </trkpt>
      <trkpt lat="48.68282" lon="2.28492">
        <ele>91.3</ele>
        <time>2020-07-02T08:30:52Z</time>
      </trkpt>
      <trkpt lat="48.68276" lon="2.2849">
        <ele>91.1</ele>
        <time>2020-07-02T08:30:53Z</time>
      </trkpt>
      <trkpt lat="48.6827" lon="2.28488">
        <ele>90.9</ele>
        <time>2020-07-02T08:30:54Z</time>
      </trkpt>
      <trkpt lat="48.68264" lon="2.28486">
        <ele>90.7</ele>
        <time>2020-07-02T08:30:55Z</time>
      </trkpt>
      <trkpt lat="48.68258" lon="2.28485">
        <ele>90.6</ele>
        <time>2020-07-02T08:30:56Z</time>
      </trkpt>
      <trkpt lat="48.68251" lon="2.28483">
        <ele>90.5</ele>
        <time>2020-07-02T08:30:57Z</time>
      </trkpt>
      <trkpt lat="48.68244" lon="2.28481">
        <ele>90.2</ele>
        <time>2020-07-02T08:30:58Z</time>
      </trkpt>
      <trkpt lat="48.68237" lon="2.28478">
        <ele>89.8</ele>
        <time>2020-07-02T08:30:59Z</time>
      </trkpt>
      <trkpt lat="48.6823" lon="2.28475">
        <ele>89.4</ele>
        <time>2020-07-02T08:31:00Z</time>
      </trkpt>
      <trkpt lat="48.68223" lon="2.28472">
        <ele>89.1</ele>
        <time>2020-07-02T08:31:01Z</time>
      </trkpt>
      <trkpt lat="48.68217" lon="2.28469">
        <ele>88.8</ele>
        <time>2020-07-02T08:31:02Z</time>
      </trkpt>
      <trkpt lat="48.6821" lon="2.28466">
        <ele>88.4</ele>
        <time>2020-07-02T08:31:03Z</time>
      </trkpt>
      <trkpt lat="48.68203" lon="2.28463">
        <ele>88.1</ele>
        <time>2020-07-02T08:31:04Z</time>
      </trkpt>
      <trkpt lat="48.68196" lon="2.28461">
        <ele>87.8</ele>
        <time>2020-07-02T08:31:05Z</time>
      </trkpt>
      <trkpt lat="48.6819" lon="2.28458">
        <ele>87.6</ele>
        <time>2020-07-02T08:31:06Z</time>
      </trkpt>
      <trkpt lat="48.68184" lon="2.28455">
        <ele>87.4</ele>
        <time>2020-07-02T08:31:07Z</time>
      </trkpt>
      <trkpt lat="48.68177" lon="2.28452">
        <ele>87.2</ele>
        <time>2020-07-02T08:31:08Z</time>
      </trkpt>
      <trkpt lat="48.68169" lon="2.2845">
        <ele>86.9</ele>
        <time>2020-07-02T08:31:09Z</time>
      </trkpt>
      <trkpt lat="48.68162" lon="2.28448">
        <ele>86.5</ele>
        <time>2020-07-02T08:31:10Z</time>
      </trkpt>
      <trkpt lat="48.68154" lon="2.28446">
        <ele>86.5</ele>
        <time>2020-07-02T08:31:11Z</time>
      </trkpt>
      <trkpt lat="48.68147" lon="2.28443">
        <ele>86.4</ele>
        <time>2020-07-02T08:31:12Z</time>
      </trkpt>
      <trkpt lat="48.6814" lon="2.2844">
        <ele>86.3</ele>
        <time>2020-07-02T08:31:13Z</time>
      </trkpt>
      <trkpt lat="48.68133" lon="2.28437">
        <ele>86.1</ele>
        <time>2020-07-02T08:31:14Z</time>
      </trkpt>
      <trkpt lat="48.68126" lon="2.28434">
        <ele>85.9</ele>
        <time>2020-07-02T08:31:15Z</time>
      </trkpt>
      <trkpt lat="48.68119" lon="2.28431">
        <ele>85.8</ele>
        <time>2020-07-02T08:31:16Z</time>
      </trkpt>
      <trkpt lat="48.68111" lon="2.28429">
        <ele>85.6</ele>
        <time>2020-07-02T08:31:17Z</time>
      </trkpt>
      <trkpt lat="48.68104" lon="2.28426">
        <ele>85.5</ele>
        <time>2020-07-02T08:31:18Z</time>
      </trkpt>
      <trkpt lat="48.68097" lon="2.28423">
        <ele>85.4</ele>
        <time>2020-07-02T08:31:19Z</time>
      </trkpt>
      <trkpt lat="48.6809" lon="2.28421">
        <ele>85.3</ele>
        <time>2020-07-02T08:31:20Z</time>
      </trkpt>
      <trkpt lat="48.68082" lon="2.28418">
        <ele>85.2</ele>
        <time>2020-07-02T08:31:21Z</time>
      </trkpt>
      <trkpt lat="48.68075" lon="2.28415">
        <ele>85.1</ele>
        <time>2020-07-02T08:31:22Z</time>
      </trkpt>
      <trkpt lat="48.68068" lon="2.28412">
        <ele>85</ele>
        <time>2020-07-02T08:31:23Z</time>
      </trkpt>
      <trkpt lat="48.68061" lon="2.2841">
        <ele>84.9</ele>
        <time>2020-07-02T08:31:24Z</time>
      </trkpt>
      <trkpt lat="48.68053" lon="2.28407">
        <ele>84.8</ele>
        <time>2020-07-02T08:31:25Z</time>
      </trkpt>
      <trkpt lat="48.68047" lon="2.28404">
        <ele>84.7</ele>
        <time>2020-07-02T08:31:26Z</time>
      </trkpt>
      <trkpt lat="48.6804" lon="2.28401">
        <ele>84.6</ele>
        <time>2020-07-02T08:31:27Z</time>
      </trkpt>
      <trkpt lat="48.68033" lon="2.28398">
        <ele>84.6</ele>
        <time>2020-07-02T08:31:28Z</time>
      </trkpt>
      <trkpt lat="48.68026" lon="2.28394">
        <ele>84.5</ele>
        <time>2020-07-02T08:31:29Z</time>
      </trkpt>
      <trkpt lat="48.68019" lon="2.28391">
        <ele>84.4</ele>
        <time>2020-07-02T08:31:30Z</time>
      </trkpt>
      <trkpt lat="48.68012" lon="2.28389">
        <ele>84.3</ele>
        <time>2020-07-02T08:31:31Z</time>
      </trkpt>
      <trkpt lat="48.68005" lon="2.28386">
        <ele>84.2</ele>
        <time>2020-07-02T08:31:32Z</time>
      </trkpt>
      <trkpt lat="48.67998" lon="2.28384">
        <ele>84.2</ele>
        <time>2020-07-02T08:31:33Z</time>
      </trkpt>
      <trkpt lat="48.67992" lon="2.28382">
        <ele>84.1</ele>
        <time>2020-07-02T08:31:34Z</time>
      </trkpt>
      <trkpt lat="48.67985" lon="2.28379">
        <ele>84.1</ele>
        <time>2020-07-02T08:31:35Z</time>
      </trkpt>
      <trkpt lat="48.67978" lon="2.28377">
        <ele>84.1</ele>
        <time>2020-07-02T08:31:36Z</time>
      </trkpt>
      <trkpt lat="48.67972" lon="2.28375">
        <ele>84</ele>
        <time>2020-07-02T08:31:37Z</time>
      </trkpt>
      <trkpt lat="48.67965" lon="2.28372">
        <ele>84</ele>
        <time>2020-07-02T08:31:38Z</time>
      </trkpt>
      <trkpt lat="48.67958" lon="2.28369">
        <ele>83.9</ele>
        <time>2020-07-02T08:31:39Z</time>
      </trkpt>
      <trkpt lat="48.67952" lon="2.28367">
        <ele>83.8</ele>
        <time>2020-07-02T08:31:40Z</time>
      </trkpt>
      <trkpt lat="48.67945" lon="2.28364">
        <ele>83.7</ele>
        <time>2020-07-02T08:31:41Z</time>
      </trkpt>
      <trkpt lat="48.67939" lon="2.28362">
        <ele>83.6</ele>
        <time>2020-07-02T08:31:42Z</time>
      </trkpt>
      <trkpt lat="48.67932" lon="2.28359">
        <ele>83.5</ele>
        <time>2020-07-02T08:31:43Z</time>
      </trkpt>
      <trkpt lat="48.67925" lon="2.28357">
        <ele>83.5</ele>
        <time>2020-07-02T08:31:44Z</time>
      </trkpt>
      <trkpt lat="48.67919" lon="2.28354">
        <ele>83.4</ele>
        <time>2020-07-02T08:31:45Z</time>
      </trkpt>
      <trkpt lat="48.67912" lon="2.28352">
        <ele>83.4</ele>
        <time>2020-07-02T08:31:46Z</time>
      </trkpt>
      <trkpt lat="48.67905" lon="2.28349">
        <ele>83.3</ele>
        <time>2020-07-02T08:31:47Z</time>
      </trkpt>
      <trkpt lat="48.67899" lon="2.28346">
        <ele>83.3</ele>
        <time>2020-07-02T08:31:48Z</time>
      </trkpt>
      <trkpt lat="48.67892" lon="2.28343">
        <ele>83.2</ele>
        <time>2020-07-02T08:31:49Z</time>
      </trkpt>
      <trkpt lat="48.67885" lon="2.2834">
        <ele>83.2</ele>
        <time>2020-07-02T08:31:50Z</time>
      </trkpt>
      <trkpt lat="48.67879" lon="2.28338">
        <ele>83.1</ele>
        <time>2020-07-02T08:31:51Z</time>
      </trkpt>
      <trkpt lat="48.67872" lon="2.28335">
        <ele>83.1</ele>
        <time>2020-07-02T08:31:52Z</time>
      </trkpt>
      <trkpt lat="48.67865" lon="2.28332">
        <ele>83</ele>
        <time>2020-07-02T08:31:53Z</time>
      </trkpt>
      <trkpt lat="48.67859" lon="2.28329">
        <ele>83</ele>
        <time>2020-07-02T08:31:54Z</time>
      </trkpt>
      <trkpt lat="48.67852" lon="2.28327">
        <ele>82.9</ele>
        <time>2020-07-02T08:31:55Z</time>
      </trkpt>
      <trkpt lat="48.67845" lon="2.28325">
        <ele>82.9</ele>
        <time>2020-07-02T08:31:56Z</time>
      </trkpt>
      <trkpt lat="48.67838" lon="2.28323">
        <ele>82.8</ele>
        <time>2020-07-02T08:31:57Z</time>
      </trkpt>
      <trkpt lat="48.67832" lon="2.2832">
        <ele>82.8</ele>
        <time>2020-07-02T08:31:58Z</time>
      </trkpt>
      <trkpt lat="48.67826" lon="2.28317">
        <ele>82.7</ele>
        <time>2020-07-02T08:31:59Z</time>
      </trkpt>
      <trkpt lat="48.67819" lon="2.28315">
        <ele>82.7</ele>
        <time>2020-07-02T08:32:00Z</time>
      </trkpt>
      <trkpt lat="48.67813" lon="2.28312">
        <ele>82.6</ele>
        <time>2020-07-02T08:32:01Z</time>
      </trkpt>
      <trkpt lat="48.67807" lon="2.2831">
        <ele>82.5</ele>
        <time>2020-07-02T08:32:02Z</time>
      </trkpt>
      <trkpt lat="48.67801" lon="2.28308">
        <ele>82.4</ele>
        <time>2020-07-02T08:32:03Z</time>
      </trkpt>
      <trkpt lat="48.67795" lon="2.28305">
        <ele>82.4</ele>
        <time>2020-07-02T08:32:04Z</time>
      </trkpt>
      <trkpt lat="48.67788" lon="2.28303">
        <ele>82.3</ele>
        <time>2020-07-02T08:32:05Z</time>
      </trkpt>
      <trkpt lat="48.67782" lon="2.283">
        <ele>82.2</ele>
        <time>2020-07-02T08:32:06Z</time>
      </trkpt>
      <trkpt lat="48.67776" lon="2.28297">
        <ele>82.2</ele>
        <time>2020-07-02T08:32:07Z</time>
      </trkpt>
      <trkpt lat="48.6777" lon="2.28294">
        <ele>82.1</ele>
        <time>2020-07-02T08:32:08Z</time>
      </trkpt>
      <trkpt lat="48.67764" lon="2.28292">
        <ele>82.1</ele>
        <time>2020-07-02T08:32:09Z</time>
      </trkpt>
      <trkpt lat="48.67759" lon="2.2829">
        <ele>82</ele>
        <time>2020-07-02T08:32:10Z</time>
      </trkpt>
      <trkpt lat="48.67753" lon="2.28287">
        <ele>81.9</ele>
        <time>2020-07-02T08:32:11Z</time>
      </trkpt>
      <trkpt lat="48.67747" lon="2.28285">
        <ele>81.9</ele>
        <time>2020-07-02T08:32:12Z</time>
      </trkpt>
      <trkpt lat="48.67741" lon="2.28283">
        <ele>81.9</ele>
        <time>2020-07-02T08:32:13Z</time>
      </trkpt>
      <trkpt lat="48.67735" lon="2.2828">
        <ele>81.8</ele>
        <time>2020-07-02T08:32:14Z</time>
      </trkpt>
      <trkpt lat="48.67729" lon="2.28277">
        <ele>81.7</ele>
        <time>2020-07-02T08:32:15Z</time>
      </trkpt>
      <trkpt lat="48.67723" lon="2.28275">
        <ele>81.7</ele>
        <time>2020-07-02T08:32:16Z</time>
      </trkpt>
      <trkpt lat="48.67717" lon="2.28272">
        <ele>81.6</ele>
        <time>2020-07-02T08:32:17Z</time>
      </trkpt>
      <trkpt lat="48.67711" lon="2.28269">
        <ele>81.5</ele>
        <time>2020-07-02T08:32:18Z</time>
      </trkpt>
      <trkpt lat="48.67704" lon="2.28266">
        <ele>81.5</ele>
        <time>2020-07-02T08:32:19Z</time>
      </trkpt>
      <trkpt lat="48.67698" lon="2.28264">
        <ele>81.4</ele>
        <time>2020-07-02T08:32:20Z</time>
      </trkpt>
      <trkpt lat="48.67692" lon="2.28262">
        <ele>81.4</ele>
        <time>2020-07-02T08:32:21Z</time>
      </trkpt>
      <trkpt lat="48.67686" lon="2.28259">
        <ele>81.3</ele>
        <time>2020-07-02T08:32:22Z</time>
      </trkpt>
      <trkpt lat="48.6768" lon="2.28257">
        <ele>81.3</ele>
        <time>2020-07-02T08:32:23Z</time>
      </trkpt>
      <trkpt lat="48.67673" lon="2.28255">
        <ele>81.4</ele>
        <time>2020-07-02T08:32:24Z</time>
      </trkpt>
      <trkpt lat="48.67667" lon="2.28252">
        <ele>81.4</ele>
        <time>2020-07-02T08:32:25Z</time>
      </trkpt>
      <trkpt lat="48.6766" lon="2.28249">
        <ele>81.4</ele>
        <time>2020-07-02T08:32:26Z</time>
      </trkpt>
      <trkpt lat="48.67654" lon="2.28247">
        <ele>81.4</ele>
        <time>2020-07-02T08:32:27Z</time>
      </trkpt>
      <trkpt lat="48.67648" lon="2.28245">
        <ele>81.5</ele>
        <time>2020-07-02T08:32:28Z</time>
      </trkpt>
      <trkpt lat="48.67642" lon="2.28243">
        <ele>81.5</ele>
        <time>2020-07-02T08:32:29Z</time>
      </trkpt>
      <trkpt lat="48.67635" lon="2.2824">
        <ele>81.5</ele>
        <time>2020-07-02T08:32:30Z</time>
      </trkpt>
      <trkpt lat="48.67628" lon="2.28237">
        <ele>81.6</ele>
        <time>2020-07-02T08:32:31Z</time>
      </trkpt>
      <trkpt lat="48.67622" lon="2.28234">
        <ele>81.6</ele>
        <time>2020-07-02T08:32:32Z</time>
      </trkpt>
      <trkpt lat="48.67616" lon="2.28232">
        <ele>81.7</ele>
        <time>2020-07-02T08:32:33Z</time>
      </trkpt>
      <trkpt lat="48.67611" lon="2.2823">
        <ele>81.7</ele>
        <time>2020-07-02T08:32:34Z</time>
      </trkpt>
      <trkpt lat="48.67605" lon="2.28227">
        <ele>81.8</ele>
        <time>2020-07-02T08:32:35Z</time>
      </trkpt>
      <trkpt lat="48.67599" lon="2.28225">
        <ele>81.8</ele>
        <time>2020-07-02T08:32:36Z</time>
      </trkpt>
      <trkpt lat="48.67593" lon="2.28223">
        <ele>81.9</ele>
        <time>2020-07-02T08:32:37Z</time>
      </trkpt>
      <trkpt lat="48.67587" lon="2.2822">
        <ele>82</ele>
        <time>2020-07-02T08:32:38Z</time>
      </trkpt>
      <trkpt lat="48.67582" lon="2.28218">
        <ele>82</ele>
        <time>2020-07-02T08:32:39Z</time>
      </trkpt>
      <trkpt lat="48.67577" lon="2.28216">
        <ele>82.1</ele>
        <time>2020-07-02T08:32:40Z</time>
      </trkpt>
      <trkpt lat="48.6757" lon="2.28213">
        <ele>82.1</ele>
        <time>2020-07-02T08:32:41Z</time>
      </trkpt>
      <trkpt lat="48.67565" lon="2.28211">
        <ele>82.1</ele>
        <time>2020-07-02T08:32:42Z</time>
      </trkpt>
      <trkpt lat="48.67558" lon="2.28208">
        <ele>82.2</ele>
        <time>2020-07-02T08:32:43Z</time>
      </trkpt>
      <trkpt lat="48.67552" lon="2.28206">
        <ele>82.2</ele>
        <time>2020-07-02T08:32:44Z</time>
      </trkpt>
      <trkpt lat="48.67546" lon="2.28203">
        <ele>82.3</ele>
        <time>2020-07-02T08:32:45Z</time>
      </trkpt>
      <trkpt lat="48.67541" lon="2.28201">
        <ele>82.3</ele>
        <time>2020-07-02T08:32:46Z</time>
      </trkpt>
      <trkpt lat="48.67535" lon="2.28198">
        <ele>82.3</ele>
        <time>2020-07-02T08:32:47Z</time>
      </trkpt>
      <trkpt lat="48.67529" lon="2.28196">
        <ele>82.4</ele>
        <time>2020-07-02T08:32:48Z</time>
      </trkpt>
      <trkpt lat="48.67523" lon="2.28193">
        <ele>82.5</ele>
        <time>2020-07-02T08:32:49Z</time>
      </trkpt>
      <trkpt lat="48.67517" lon="2.28191">
        <ele>82.5</ele>
        <time>2020-07-02T08:32:50Z</time>
      </trkpt>
      <trkpt lat="48.67511" lon="2.28188">
        <ele>82.6</ele>
        <time>2020-07-02T08:32:51Z</time>
      </trkpt>
      <trkpt lat="48.67506" lon="2.28186">
        <ele>82.7</ele>
        <time>2020-07-02T08:32:52Z</time>
      </trkpt>
      <trkpt lat="48.675" lon="2.28184">
        <ele>82.8</ele>
        <time>2020-07-02T08:32:53Z</time>
      </trkpt>
      <trkpt lat="48.67494" lon="2.28181">
        <ele>82.9</ele>
        <time>2020-07-02T08:32:54Z</time>
      </trkpt>
      <trkpt lat="48.67488" lon="2.28178">
        <ele>83</ele>
        <time>2020-07-02T08:32:55Z</time>
      </trkpt>
      <trkpt lat="48.67482" lon="2.28175">
        <ele>83.1</ele>
        <time>2020-07-02T08:32:56Z</time>
      </trkpt>
      <trkpt lat="48.67476" lon="2.28173">
        <ele>83.2</ele>
        <time>2020-07-02T08:32:57Z</time>
      </trkpt>
      <trkpt lat="48.67471" lon="2.2817">
        <ele>83.3</ele>
        <time>2020-07-02T08:32:58Z</time>
      </trkpt>
      <trkpt lat="48.67464" lon="2.28168">
        <ele>83.4</ele>
        <time>2020-07-02T08:32:59Z</time>
      </trkpt>
      <trkpt lat="48.67458" lon="2.28165">
        <ele>83.5</ele>
        <time>2020-07-02T08:33:00Z</time>
      </trkpt>
      <trkpt lat="48.67454" lon="2.28163">
        <ele>83.6</ele>
        <time>2020-07-02T08:33:01Z</time>
      </trkpt>
      <trkpt lat="48.67448" lon="2.28162">
        <ele>83.7</ele>
        <time>2020-07-02T08:33:02Z</time>
      </trkpt>
      <trkpt lat="48.67443" lon="2.28161">
        <ele>83.8</ele>
        <time>2020-07-02T08:33:03Z</time>
      </trkpt>
      <trkpt lat="48.67439" lon="2.28159">
        <ele>84</ele>
        <time>2020-07-02T08:33:04Z</time>
      </trkpt>
      <trkpt lat="48.67433" lon="2.28158">
        <ele>84.1</ele>
        <time>2020-07-02T08:33:05Z</time>
      </trkpt>
      <trkpt lat="48.67428" lon="2.28157">
        <ele>84.3</ele>
        <time>2020-07-02T08:33:06Z</time>
      </trkpt>
      <trkpt lat="48.67422" lon="2.28156">
        <ele>84.4</ele>
        <time>2020-07-02T08:33:07Z</time>
      </trkpt>
      <trkpt lat="48.67417" lon="2.28154">
        <ele>84.5</ele>
        <time>2020-07-02T08:33:08Z</time>
      </trkpt>
      <trkpt lat="48.67411" lon="2.28152">
        <ele>84.7</ele>
        <time>2020-07-02T08:33:09Z</time>
      </trkpt>
      <trkpt lat="48.67404" lon="2.2815">
        <ele>84.8</ele>
        <time>2020-07-02T08:33:10Z</time>
      </trkpt>
      <trkpt lat="48.67399" lon="2.28148">
        <ele>85</ele>
        <time>2020-07-02T08:33:11Z</time>
      </trkpt>
      <trkpt lat="48.67393" lon="2.28145">
        <ele>85.2</ele>
        <time>2020-07-02T08:33:12Z</time>
      </trkpt>
      <trkpt lat="48.67386" lon="2.28142">
        <ele>85.3</ele>
        <time>2020-07-02T08:33:13Z</time>
      </trkpt>
      <trkpt lat="48.67382" lon="2.2814">
        <ele>85.4</ele>
        <time>2020-07-02T08:33:14Z</time>
      </trkpt>
      <trkpt lat="48.67377" lon="2.2814">
        <ele>85.5</ele>
        <time>2020-07-02T08:33:15Z</time>
      </trkpt>
      <trkpt lat="48.67373" lon="2.2814">
        <ele>85.6</ele>
        <time>2020-07-02T08:33:16Z</time>
      </trkpt>
      <trkpt lat="48.67368" lon="2.28141">
        <ele>85.7</ele>
        <time>2020-07-02T08:33:17Z</time>
      </trkpt>
      <trkpt lat="48.67364" lon="2.2814">
        <ele>85.8</ele>
        <time>2020-07-02T08:33:18Z</time>
      </trkpt>
      <trkpt lat="48.6736" lon="2.28139">
        <ele>85.9</ele>
        <time>2020-07-02T08:33:19Z</time>
      </trkpt>
      <trkpt lat="48.67355" lon="2.28138">
        <ele>86</ele>
        <time>2020-07-02T08:33:20Z</time>
      </trkpt>
      <trkpt lat="48.67352" lon="2.28139">
        <ele>86.1</ele>
        <time>2020-07-02T08:33:21Z</time>
      </trkpt>
      <trkpt lat="48.67347" lon="2.28135">
        <ele>86.2</ele>
        <time>2020-07-02T08:33:22Z</time>
      </trkpt>
      <trkpt lat="48.67343" lon="2.28132">
        <ele>86.3</ele>
        <time>2020-07-02T08:33:23Z</time>
      </trkpt>
      <trkpt lat="48.6734" lon="2.2813">
        <ele>86.3</ele>
        <time>2020-07-02T08:33:24Z</time>
      </trkpt>
      <trkpt lat="48.67337" lon="2.28133">
        <ele>86.4</ele>
        <time>2020-07-02T08:33:25Z</time>
      </trkpt>
      <trkpt lat="48.67336" lon="2.28135">
        <ele>86.3</ele>
        <time>2020-07-02T08:33:26Z</time>
      </trkpt>
      <trkpt lat="48.67333" lon="2.28141">
        <ele>86.1</ele>
        <time>2020-07-02T08:33:27Z</time>
      </trkpt>
      <trkpt lat="48.67329" lon="2.28143">
        <ele>86</ele>
        <time>2020-07-02T08:33:28Z</time>
      </trkpt>
      <trkpt lat="48.67325" lon="2.28144">
        <ele>86</ele>
        <time>2020-07-02T08:33:29Z</time>
      </trkpt>
      <trkpt lat="48.67322" lon="2.28143">
        <ele>86</ele>
        <time>2020-07-02T08:33:30Z</time>
      </trkpt>
      <trkpt lat="48.67318" lon="2.28142">
        <ele>85.9</ele>
        <time>2020-07-02T08:33:31Z</time>
      </trkpt>
      <trkpt lat="48.67314" lon="2.2814">
        <ele>85.9</ele>
        <time>2020-07-02T08:33:32Z</time>
      </trkpt>
      <trkpt lat="48.67311" lon="2.28138">
        <ele>85.9</ele>
        <time>2020-07-02T08:33:33Z</time>
      </trkpt>
      <trkpt lat="48.67308" lon="2.28136">
        <ele>85.9</ele>
        <time>2020-07-02T08:33:34Z</time>
      </trkpt>
      <trkpt lat="48.67305" lon="2.28135">
        <ele>85.8</ele>
        <time>2020-07-02T08:33:35Z</time>
      </trkpt>
      <trkpt lat="48.67301" lon="2.28133">
        <ele>85.8</ele>
        <time>2020-07-02T08:33:36Z</time>
      </trkpt>
      <trkpt lat="48.67297" lon="2.2813">
        <ele>85.8</ele>
        <time>2020-07-02T08:33:37Z</time>
      </trkpt>
      <trkpt lat="48.67293" lon="2.28128">
        <ele>85.8</ele>
        <time>2020-07-02T08:33:38Z</time>
      </trkpt>
      <trkpt lat="48.67289" lon="2.28126">
        <ele>85.8</ele>
        <time>2020-07-02T08:33:39Z</time>
      </trkpt>
      <trkpt lat="48.67284" lon="2.28124">
        <ele>85.8</ele>
        <time>2020-07-02T08:33:40Z</time>
      </trkpt>
      <trkpt lat="48.6728" lon="2.28122">
        <ele>85.9</ele>
        <time>2020-07-02T08:33:41Z</time>
      </trkpt>
      <trkpt lat="48.67275" lon="2.28119">
        <ele>85.9</ele>
        <time>2020-07-02T08:33:42Z</time>
      </trkpt>
      <trkpt lat="48.6727" lon="2.28116">
        <ele>85.9</ele>
        <time>2020-07-02T08:33:43Z</time>
      </trkpt>
      <trkpt lat="48.67264" lon="2.28113">
        <ele>86</ele>
        <time>2020-07-02T08:33:44Z</time>
      </trkpt>
      <trkpt lat="48.67259" lon="2.28112">
        <ele>86</ele>
        <time>2020-07-02T08:33:45Z</time>
      </trkpt>
      <trkpt lat="48.67253" lon="2.28109">
        <ele>86.1</ele>
        <time>2020-07-02T08:33:46Z</time>
      </trkpt>
      <trkpt lat="48.67248" lon="2.28107">
        <ele>86.1</ele>
        <time>2020-07-02T08:33:47Z</time>
      </trkpt>
      <trkpt lat="48.67242" lon="2.28104">
        <ele>86.1</ele>
        <time>2020-07-02T08:33:48Z</time>
      </trkpt>
      <trkpt lat="48.67236" lon="2.28102">
        <ele>86.2</ele>
        <time>2020-07-02T08:33:49Z</time>
      </trkpt>
      <trkpt lat="48.67231" lon="2.28099">
        <ele>86.2</ele>
        <time>2020-07-02T08:33:50Z</time>
      </trkpt>
      <trkpt lat="48.67227" lon="2.28096">
        <ele>86.2</ele>
        <time>2020-07-02T08:33:51Z</time>
      </trkpt>
      <trkpt lat="48.67222" lon="2.28093">
        <ele>86.3</ele>
        <time>2020-07-02T08:33:52Z</time>
      </trkpt>
      <trkpt lat="48.67218" lon="2.28088">
        <ele>86.3</ele>
        <time>2020-07-02T08:33:53Z</time>
      </trkpt>
      <trkpt lat="48.67214" lon="2.28081">
        <ele>86.2</ele>
        <time>2020-07-02T08:33:54Z</time>
      </trkpt>
      <trkpt lat="48.67209" lon="2.28077">
        <ele>86.2</ele>
        <time>2020-07-02T08:33:55Z</time>
      </trkpt>
      <trkpt lat="48.67204" lon="2.28073">
        <ele>86.1</ele>
        <time>2020-07-02T08:33:56Z</time>
      </trkpt>
      <trkpt lat="48.67199" lon="2.28071">
        <ele>86.1</ele>
        <time>2020-07-02T08:33:57Z</time>
      </trkpt>
      <trkpt lat="48.67193" lon="2.28069">
        <ele>86</ele>
        <time>2020-07-02T08:33:58Z</time>
      </trkpt>
      <trkpt lat="48.67187" lon="2.28067">
        <ele>85.9</ele>
        <time>2020-07-02T08:33:59Z</time>
      </trkpt>
      <trkpt lat="48.67182" lon="2.28064">
        <ele>85.9</ele>
        <time>2020-07-02T08:34:00Z</time>
      </trkpt>
      <trkpt lat="48.67176" lon="2.28062">
        <ele>85.8</ele>
        <time>2020-07-02T08:34:01Z</time>
      </trkpt>
      <trkpt lat="48.6717" lon="2.2806">
        <ele>85.7</ele>
        <time>2020-07-02T08:34:02Z</time>
      </trkpt>
      <trkpt lat="48.67164" lon="2.28058">
        <ele>85.7</ele>
        <time>2020-07-02T08:34:03Z</time>
      </trkpt>
      <trkpt lat="48.67159" lon="2.28056">
        <ele>85.6</ele>
        <time>2020-07-02T08:34:04Z</time>
      </trkpt>
      <trkpt lat="48.67153" lon="2.28054">
        <ele>85.6</ele>
        <time>2020-07-02T08:34:05Z</time>
      </trkpt>
      <trkpt lat="48.67147" lon="2.28052">
        <ele>85.6</ele>
        <time>2020-07-02T08:34:06Z</time>
      </trkpt>
      <trkpt lat="48.67141" lon="2.2805">
        <ele>85.6</ele>
        <time>2020-07-02T08:34:07Z</time>
      </trkpt>
      <trkpt lat="48.67136" lon="2.28048">
        <ele>85.5</ele>
        <time>2020-07-02T08:34:08Z</time>
      </trkpt>
      <trkpt lat="48.6713" lon="2.28045">
        <ele>85.6</ele>
        <time>2020-07-02T08:34:09Z</time>
      </trkpt>
      <trkpt lat="48.67124" lon="2.28045">
        <ele>85.6</ele>
        <time>2020-07-02T08:34:10Z</time>
      </trkpt>
      <trkpt lat="48.67119" lon="2.28043">
        <ele>85.6</ele>
        <time>2020-07-02T08:34:11Z</time>
      </trkpt>
      <trkpt lat="48.67114" lon="2.28041">
        <ele>85.7</ele>
        <time>2020-07-02T08:34:12Z</time>
      </trkpt>
      <trkpt lat="48.6711" lon="2.28041">
        <ele>85.7</ele>
        <time>2020-07-02T08:34:13Z</time>
      </trkpt>
      <trkpt lat="48.67106" lon="2.28043">
        <ele>85.8</ele>
        <time>2020-07-02T08:34:14Z</time>
      </trkpt>
      <trkpt lat="48.67102" lon="2.28045">
        <ele>85.8</ele>
        <time>2020-07-02T08:34:15Z</time>
      </trkpt>
      <trkpt lat="48.67099" lon="2.28045">
        <ele>85.8</ele>
        <time>2020-07-02T08:34:16Z</time>
      </trkpt>
      <trkpt lat="48.67097" lon="2.28042">
        <ele>85.9</ele>
        <time>2020-07-02T08:34:17Z</time>
      </trkpt>
      <trkpt lat="48.67094" lon="2.28039">
        <ele>85.8</ele>
        <time>2020-07-02T08:34:18Z</time>
      </trkpt>
      <trkpt lat="48.67094" lon="2.28038">
        <ele>85.8</ele>
        <time>2020-07-02T08:34:19Z</time>
      </trkpt>
      <trkpt lat="48.67092" lon="2.28034">
        <ele>85.8</ele>
        <time>2020-07-02T08:34:20Z</time>
      </trkpt>
      <trkpt lat="48.67089" lon="2.28032">
        <ele>85.8</ele>
        <time>2020-07-02T08:34:21Z</time>
      </trkpt>
      <trkpt lat="48.67086" lon="2.28031">
        <ele>85.7</ele>
        <time>2020-07-02T08:34:22Z</time>
      </trkpt>
      <trkpt lat="48.67083" lon="2.2803">
        <ele>85.7</ele>
        <time>2020-07-02T08:34:23Z</time>
      </trkpt>
      <trkpt lat="48.6708" lon="2.2803">
        <ele>85.7</ele>
        <time>2020-07-02T08:34:24Z</time>
      </trkpt>
      <trkpt lat="48.67076" lon="2.28031">
        <ele>85.7</ele>
        <time>2020-07-02T08:34:25Z</time>
      </trkpt>
      <trkpt lat="48.67072" lon="2.2803">
        <ele>85.6</ele>
        <time>2020-07-02T08:34:26Z</time>
      </trkpt>
      <trkpt lat="48.67068" lon="2.28026">
        <ele>85.6</ele>
        <time>2020-07-02T08:34:27Z</time>
      </trkpt>
      <trkpt lat="48.67064" lon="2.28021">
        <ele>85.5</ele>
        <time>2020-07-02T08:34:28Z</time>
      </trkpt>
      <trkpt lat="48.6706" lon="2.28018">
        <ele>85.4</ele>
        <time>2020-07-02T08:34:29Z</time>
      </trkpt>
      <trkpt lat="48.67055" lon="2.28015">
        <ele>85.3</ele>
        <time>2020-07-02T08:34:30Z</time>
      </trkpt>
      <trkpt lat="48.6705" lon="2.28012">
        <ele>85.2</ele>
        <time>2020-07-02T08:34:31Z</time>
      </trkpt>
      <trkpt lat="48.67045" lon="2.28011">
        <ele>85.2</ele>
        <time>2020-07-02T08:34:32Z</time>
      </trkpt>
      <trkpt lat="48.6704" lon="2.28009">
        <ele>85.2</ele>
        <time>2020-07-02T08:34:33Z</time>
      </trkpt>
      <trkpt lat="48.67034" lon="2.28008">
        <ele>85.2</ele>
        <time>2020-07-02T08:34:34Z</time>
      </trkpt>
      <trkpt lat="48.6703" lon="2.28006">
        <ele>85.1</ele>
        <time>2020-07-02T08:34:35Z</time>
      </trkpt>
      <trkpt lat="48.67026" lon="2.28003">
        <ele>85.1</ele>
        <time>2020-07-02T08:34:36Z</time>
      </trkpt>
      <trkpt lat="48.67021" lon="2.28001">
        <ele>85.1</ele>
        <time>2020-07-02T08:34:37Z</time>
      </trkpt>
      <trkpt lat="48.67016" lon="2.27999">
        <ele>85.1</ele>
        <time>2020-07-02T08:34:38Z</time>
      </trkpt>
      <trkpt lat="48.67012" lon="2.27998">
        <ele>85.1</ele>
        <time>2020-07-02T08:34:39Z</time>
      </trkpt>
      <trkpt lat="48.67006" lon="2.27999">
        <ele>85.1</ele>
        <time>2020-07-02T08:34:40Z</time>
      </trkpt>
      <trkpt lat="48.67002" lon="2.28">
        <ele>85.1</ele>
        <time>2020-07-02T08:34:41Z</time>
      </trkpt>
      <trkpt lat="48.66997" lon="2.28">
        <ele>85.2</ele>
        <time>2020-07-02T08:34:42Z</time>
      </trkpt>
      <trkpt lat="48.66993" lon="2.28002">
        <ele>85.2</ele>
        <time>2020-07-02T08:34:43Z</time>
      </trkpt>
      <trkpt lat="48.66989" lon="2.28003">
        <ele>85.3</ele>
        <time>2020-07-02T08:34:44Z</time>
      </trkpt>
      <trkpt lat="48.66985" lon="2.28004">
        <ele>85.3</ele>
        <time>2020-07-02T08:34:45Z</time>
      </trkpt>
      <trkpt lat="48.66981" lon="2.28005">
        <ele>85.4</ele>
        <time>2020-07-02T08:34:46Z</time>
      </trkpt>
      <trkpt lat="48.66978" lon="2.28004">
        <ele>85.4</ele>
        <time>2020-07-02T08:34:47Z</time>
      </trkpt>
      <trkpt lat="48.66975" lon="2.28002">
        <ele>85.5</ele>
        <time>2020-07-02T08:34:48Z</time>
      </trkpt>
      <trkpt lat="48.66975" lon="2.28001">
        <ele>85.5</ele>
        <time>2020-07-02T08:34:49Z</time>
      </trkpt>
      <trkpt lat="48.66973" lon="2.27997">
        <ele>85.5</ele>
        <time>2020-07-02T08:34:50Z</time>
      </trkpt>
      <trkpt lat="48.66972" lon="2.27995">
        <ele>85.5</ele>
        <time>2020-07-02T08:34:51Z</time>
      </trkpt>
      <trkpt lat="48.6697" lon="2.27991">
        <ele>85.5</ele>
        <time>2020-07-02T08:34:52Z</time>
      </trkpt>
      <trkpt lat="48.66969" lon="2.2799">
        <ele>85.5</ele>
        <time>2020-07-02T08:34:53Z</time>
      </trkpt>
      <trkpt lat="48.66965" lon="2.27987">
        <ele>85.5</ele>
        <time>2020-07-02T08:34:54Z</time>
      </trkpt>
      <trkpt lat="48.66964" lon="2.27986">
        <ele>85.5</ele>
        <time>2020-07-02T08:34:55Z</time>
      </trkpt>
      <trkpt lat="48.66961" lon="2.27984">
        <ele>85.5</ele>
        <time>2020-07-02T08:34:56Z</time>
      </trkpt>
      <trkpt lat="48.66958" lon="2.27982">
        <ele>85.5</ele>
        <time>2020-07-02T08:34:57Z</time>
      </trkpt>
      <trkpt lat="48.66955" lon="2.27981">
        <ele>85.5</ele>
        <time>2020-07-02T08:34:58Z</time>
      </trkpt>
      <trkpt lat="48.66953" lon="2.27979">
        <ele>85.6</ele>
        <time>2020-07-02T08:34:59Z</time>
      </trkpt>
      <trkpt lat="48.66949" lon="2.27977">
        <ele>85.6</ele>
        <time>2020-07-02T08:35:00Z</time>
      </trkpt>
      <trkpt lat="48.66947" lon="2.27974">
        <ele>85.6</ele>
        <time>2020-07-02T08:35:01Z</time>
      </trkpt>
      <trkpt lat="48.66943" lon="2.27972">
        <ele>85.6</ele>
        <time>2020-07-02T08:35:02Z</time>
      </trkpt>
      <trkpt lat="48.66938" lon="2.27969">
        <ele>85.6</ele>
        <time>2020-07-02T08:35:03Z</time>
      </trkpt>
      <trkpt lat="48.66934" lon="2.27967">
        <ele>85.7</ele>
        <time>2020-07-02T08:35:04Z</time>
      </trkpt>
      <trkpt lat="48.6693" lon="2.27965">
        <ele>85.7</ele>
        <time>2020-07-02T08:35:05Z</time>
      </trkpt>
      <trkpt lat="48.66926" lon="2.27963">
        <ele>85.8</ele>
        <time>2020-07-02T08:35:06Z</time>
      </trkpt>
      <trkpt lat="48.66923" lon="2.27962">
        <ele>85.8</ele>
        <time>2020-07-02T08:35:07Z</time>
      </trkpt>
      <trkpt lat="48.66919" lon="2.2796">
        <ele>85.9</ele>
        <time>2020-07-02T08:35:08Z</time>
      </trkpt>
      <trkpt lat="48.66914" lon="2.2796">
        <ele>85.9</ele>
        <time>2020-07-02T08:35:09Z</time>
      </trkpt>
      <trkpt lat="48.66909" lon="2.27956">
        <ele>86</ele>
        <time>2020-07-02T08:35:10Z</time>
      </trkpt>
      <trkpt lat="48.66905" lon="2.27955">
        <ele>86.1</ele>
        <time>2020-07-02T08:35:11Z</time>
      </trkpt>
      <trkpt lat="48.66901" lon="2.27954">
        <ele>86.2</ele>
        <time>2020-07-02T08:35:12Z</time>
      </trkpt>
      <trkpt lat="48.66896" lon="2.27953">
        <ele>86.2</ele>
        <time>2020-07-02T08:35:13Z</time>
      </trkpt>
      <trkpt lat="48.66892" lon="2.27953">
        <ele>86.2</ele>
        <time>2020-07-02T08:35:14Z</time>
      </trkpt>
      <trkpt lat="48.66887" lon="2.27951">
        <ele>86.2</ele>
        <time>2020-07-02T08:35:15Z</time>
      </trkpt>
      <trkpt lat="48.66883" lon="2.2795">
        <ele>86.3</ele>
        <time>2020-07-02T08:35:16Z</time>
      </trkpt>
      <trkpt lat="48.66878" lon="2.27948">
        <ele>86.4</ele>
        <time>2020-07-02T08:35:17Z</time>
      </trkpt>
      <trkpt lat="48.66874" lon="2.27946">
        <ele>86.4</ele>
        <time>2020-07-02T08:35:18Z</time>
      </trkpt>
      <trkpt lat="48.66869" lon="2.27946">
        <ele>86.5</ele>
        <time>2020-07-02T08:35:19Z</time>
      </trkpt>
      <trkpt lat="48.66866" lon="2.27942">
        <ele>86.6</ele>
        <time>2020-07-02T08:35:20Z</time>
      </trkpt>
      <trkpt lat="48.66862" lon="2.2794">
        <ele>86.7</ele>
        <time>2020-07-02T08:35:21Z</time>
      </trkpt>
      <trkpt lat="48.66858" lon="2.27938">
        <ele>86.8</ele>
        <time>2020-07-02T08:35:22Z</time>
      </trkpt>
      <trkpt lat="48.66854" lon="2.27937">
        <ele>86.9</ele>
        <time>2020-07-02T08:35:23Z</time>
      </trkpt>
      <trkpt lat="48.66849" lon="2.27935">
        <ele>87</ele>
        <time>2020-07-02T08:35:24Z</time>
      </trkpt>
      <trkpt lat="48.66845" lon="2.27933">
        <ele>87.1</ele>
        <time>2020-07-02T08:35:25Z</time>
      </trkpt>
      <trkpt lat="48.6684" lon="2.27931">
        <ele>87.2</ele>
        <time>2020-07-02T08:35:26Z</time>
      </trkpt>
      <trkpt lat="48.66836" lon="2.2793">
        <ele>87.2</ele>
        <time>2020-07-02T08:35:27Z</time>
      </trkpt>
      <trkpt lat="48.66831" lon="2.27927">
        <ele>87.4</ele>
        <time>2020-07-02T08:35:28Z</time>
      </trkpt>
      <trkpt lat="48.66828" lon="2.27926">
        <ele>87.5</ele>
        <time>2020-07-02T08:35:29Z</time>
      </trkpt>
      <trkpt lat="48.66825" lon="2.27926">
        <ele>87.6</ele>
        <time>2020-07-02T08:35:30Z</time>
      </trkpt>
      <trkpt lat="48.66822" lon="2.27925">
        <ele>87.7</ele>
        <time>2020-07-02T08:35:31Z</time>
      </trkpt>
      <trkpt lat="48.66818" lon="2.27923">
        <ele>87.8</ele>
        <time>2020-07-02T08:35:32Z</time>
      </trkpt>
      <trkpt lat="48.66816" lon="2.27923">
        <ele>87.9</ele>
        <time>2020-07-02T08:35:33Z</time>
      </trkpt>
      <trkpt lat="48.66813" lon="2.27922">
        <ele>88</ele>
        <time>2020-07-02T08:35:34Z</time>
      </trkpt>
      <trkpt lat="48.6681" lon="2.27921">
        <ele>88.1</ele>
        <time>2020-07-02T08:35:35Z</time>
      </trkpt>
      <trkpt lat="48.66806" lon="2.27921">
        <ele>88.3</ele>
        <time>2020-07-02T08:35:36Z</time>
      </trkpt>
      <trkpt lat="48.66801" lon="2.27919">
        <ele>88.4</ele>
        <time>2020-07-02T08:35:37Z</time>
      </trkpt>
      <trkpt lat="48.66797" lon="2.27918">
        <ele>88.6</ele>
        <time>2020-07-02T08:35:38Z</time>
      </trkpt>
      <trkpt lat="48.66793" lon="2.27916">
        <ele>88.7</ele>
        <time>2020-07-02T08:35:39Z</time>
      </trkpt>
      <trkpt lat="48.66788" lon="2.27914">
        <ele>88.9</ele>
        <time>2020-07-02T08:35:40Z</time>
      </trkpt>
      <trkpt lat="48.66783" lon="2.27911">
        <ele>89.1</ele>
        <time>2020-07-02T08:35:41Z</time>
      </trkpt>
      <trkpt lat="48.66778" lon="2.2791">
        <ele>89.2</ele>
        <time>2020-07-02T08:35:42Z</time>
      </trkpt>
      <trkpt lat="48.66774" lon="2.27907">
        <ele>89.4</ele>
        <time>2020-07-02T08:35:43Z</time>
      </trkpt>
      <trkpt lat="48.66769" lon="2.27906">
        <ele>89.5</ele>
        <time>2020-07-02T08:35:44Z</time>
      </trkpt>
      <trkpt lat="48.66763" lon="2.27903">
        <ele>89.7</ele>
        <time>2020-07-02T08:35:45Z</time>
      </trkpt>
      <trkpt lat="48.66758" lon="2.27901">
        <ele>89.9</ele>
        <time>2020-07-02T08:35:46Z</time>
      </trkpt>
      <trkpt lat="48.66753" lon="2.27899">
        <ele>90.1</ele>
        <time>2020-07-02T08:35:47Z</time>
      </trkpt>
      <trkpt lat="48.66748" lon="2.27897">
        <ele>90.2</ele>
        <time>2020-07-02T08:35:48Z</time>
      </trkpt>
      <trkpt lat="48.66744" lon="2.27894">
        <ele>90.4</ele>
        <time>2020-07-02T08:35:49Z</time>
      </trkpt>
      <trkpt lat="48.6674" lon="2.27892">
        <ele>90.5</ele>
        <time>2020-07-02T08:35:50Z</time>
      </trkpt>
      <trkpt lat="48.66735" lon="2.27891">
        <ele>90.7</ele>
        <time>2020-07-02T08:35:51Z</time>
      </trkpt>
      <trkpt lat="48.66731" lon="2.27889">
        <ele>90.8</ele>
        <time>2020-07-02T08:35:52Z</time>
      </trkpt>
      <trkpt lat="48.66725" lon="2.27887">
        <ele>91</ele>
        <time>2020-07-02T08:35:53Z</time>
      </trkpt>
      <trkpt lat="48.66721" lon="2.27884">
        <ele>91.1</ele>
        <time>2020-07-02T08:35:54Z</time>
      </trkpt>
      <trkpt lat="48.66717" lon="2.27882">
        <ele>91.2</ele>
        <time>2020-07-02T08:35:55Z</time>
      </trkpt>
      <trkpt lat="48.66713" lon="2.2788">
        <ele>91.4</ele>
        <time>2020-07-02T08:35:56Z</time>
      </trkpt>
      <trkpt lat="48.66708" lon="2.27877">
        <ele>91.5</ele>
        <time>2020-07-02T08:35:57Z</time>
      </trkpt>
      <trkpt lat="48.66704" lon="2.27875">
        <ele>91.6</ele>
        <time>2020-07-02T08:35:58Z</time>
      </trkpt>
      <trkpt lat="48.667" lon="2.27872">
        <ele>91.7</ele>
        <time>2020-07-02T08:35:59Z</time>
      </trkpt>
      <trkpt lat="48.66695" lon="2.27871">
        <ele>91.9</ele>
        <time>2020-07-02T08:36:00Z</time>
      </trkpt>
      <trkpt lat="48.6669" lon="2.2787">
        <ele>92</ele>
        <time>2020-07-02T08:36:01Z</time>
      </trkpt>
      <trkpt lat="48.66685" lon="2.27869">
        <ele>92.2</ele>
        <time>2020-07-02T08:36:02Z</time>
      </trkpt>
      <trkpt lat="48.6668" lon="2.27868">
        <ele>92.3</ele>
        <time>2020-07-02T08:36:03Z</time>
      </trkpt>
      <trkpt lat="48.66676" lon="2.27866">
        <ele>92.5</ele>
        <time>2020-07-02T08:36:04Z</time>
      </trkpt>
      <trkpt lat="48.66671" lon="2.27863">
        <ele>92.7</ele>
        <time>2020-07-02T08:36:05Z</time>
      </trkpt>
      <trkpt lat="48.66666" lon="2.2786">
        <ele>92.8</ele>
        <time>2020-07-02T08:36:06Z</time>
      </trkpt>
      <trkpt lat="48.66662" lon="2.27859">
        <ele>92.9</ele>
        <time>2020-07-02T08:36:07Z</time>
      </trkpt>
      <trkpt lat="48.66657" lon="2.27856">
        <ele>93</ele>
        <time>2020-07-02T08:36:08Z</time>
      </trkpt>
      <trkpt lat="48.66652" lon="2.27853">
        <ele>93.2</ele>
        <time>2020-07-02T08:36:09Z</time>
      </trkpt>
      <trkpt lat="48.66648" lon="2.27852">
        <ele>93.3</ele>
        <time>2020-07-02T08:36:10Z</time>
      </trkpt>
      <trkpt lat="48.66643" lon="2.2785">
        <ele>93.4</ele>
        <time>2020-07-02T08:36:11Z</time>
      </trkpt>
      <trkpt lat="48.66638" lon="2.27848">
        <ele>93.5</ele>
        <time>2020-07-02T08:36:12Z</time>
      </trkpt>
      <trkpt lat="48.66634" lon="2.27845">
        <ele>93.6</ele>
        <time>2020-07-02T08:36:13Z</time>
      </trkpt>
      <trkpt lat="48.66629" lon="2.27844">
        <ele>93.7</ele>
        <time>2020-07-02T08:36:14Z</time>
      </trkpt>
      <trkpt lat="48.66625" lon="2.27842">
        <ele>93.9</ele>
        <time>2020-07-02T08:36:15Z</time>
      </trkpt>
      <trkpt lat="48.6662" lon="2.2784">
        <ele>94</ele>
        <time>2020-07-02T08:36:16Z</time>
      </trkpt>
      <trkpt lat="48.66615" lon="2.27839">
        <ele>94.1</ele>
        <time>2020-07-02T08:36:17Z</time>
      </trkpt>
      <trkpt lat="48.66612" lon="2.27838">
        <ele>94.2</ele>
        <time>2020-07-02T08:36:18Z</time>
      </trkpt>
      <trkpt lat="48.66607" lon="2.27837">
        <ele>94.3</ele>
        <time>2020-07-02T08:36:19Z</time>
      </trkpt>
      <trkpt lat="48.66602" lon="2.27835">
        <ele>94.5</ele>
        <time>2020-07-02T08:36:20Z</time>
      </trkpt>
      <trkpt lat="48.66598" lon="2.27835">
        <ele>94.6</ele>
        <time>2020-07-02T08:36:21Z</time>
      </trkpt>
      <trkpt lat="48.66595" lon="2.27834">
        <ele>94.7</ele>
        <time>2020-07-02T08:36:22Z</time>
      </trkpt>
      <trkpt lat="48.6659" lon="2.27832">
        <ele>94.9</ele>
        <time>2020-07-02T08:36:23Z</time>
      </trkpt>
      <trkpt lat="48.66586" lon="2.27831">
        <ele>95</ele>
        <time>2020-07-02T08:36:24Z</time>
      </trkpt>
      <trkpt lat="48.66582" lon="2.2783">
        <ele>95.2</ele>
        <time>2020-07-02T08:36:25Z</time>
      </trkpt>
      <trkpt lat="48.66578" lon="2.27829">
        <ele>95.3</ele>
        <time>2020-07-02T08:36:26Z</time>
      </trkpt>
      <trkpt lat="48.66574" lon="2.27827">
        <ele>95.5</ele>
        <time>2020-07-02T08:36:27Z</time>
      </trkpt>
      <trkpt lat="48.66569" lon="2.27824">
        <ele>95.6</ele>
        <time>2020-07-02T08:36:28Z</time>
      </trkpt>
      <trkpt lat="48.66566" lon="2.27821">
        <ele>95.8</ele>
        <time>2020-07-02T08:36:29Z</time>
      </trkpt>
      <trkpt lat="48.66561" lon="2.27819">
        <ele>95.9</ele>
        <time>2020-07-02T08:36:30Z</time>
      </trkpt>
      <trkpt lat="48.66556" lon="2.27817">
        <ele>96</ele>
        <time>2020-07-02T08:36:31Z</time>
      </trkpt>
      <trkpt lat="48.66551" lon="2.27815">
        <ele>96.1</ele>
        <time>2020-07-02T08:36:32Z</time>
      </trkpt>
      <trkpt lat="48.66546" lon="2.27813">
        <ele>96.2</ele>
        <time>2020-07-02T08:36:33Z</time>
      </trkpt>
      <trkpt lat="48.66541" lon="2.27811">
        <ele>96.3</ele>
        <time>2020-07-02T08:36:34Z</time>
      </trkpt>
      <trkpt lat="48.66536" lon="2.27809">
        <ele>96.4</ele>
        <time>2020-07-02T08:36:35Z</time>
      </trkpt>
      <trkpt lat="48.66531" lon="2.27808">
        <ele>96.5</ele>
        <time>2020-07-02T08:36:36Z</time>
      </trkpt>
      <trkpt lat="48.66527" lon="2.27806">
        <ele>96.6</ele>
        <time>2020-07-02T08:36:37Z</time>
      </trkpt>
      <trkpt lat="48.66522" lon="2.27804">
        <ele>96.7</ele>
        <time>2020-07-02T08:36:38Z</time>
      </trkpt>
      <trkpt lat="48.66518" lon="2.27802">
        <ele>96.8</ele>
        <time>2020-07-02T08:36:39Z</time>
      </trkpt>
      <trkpt lat="48.66514" lon="2.278">
        <ele>97</ele>
        <time>2020-07-02T08:36:40Z</time>
      </trkpt>
      <trkpt lat="48.66509" lon="2.27799">
        <ele>97.1</ele>
        <time>2020-07-02T08:36:41Z</time>
      </trkpt>
      <trkpt lat="48.66505" lon="2.27797">
        <ele>97.2</ele>
        <time>2020-07-02T08:36:42Z</time>
      </trkpt>
      <trkpt lat="48.66502" lon="2.27797">
        <ele>97.3</ele>
        <time>2020-07-02T08:36:43Z</time>
      </trkpt>
      <trkpt lat="48.66498" lon="2.27797">
        <ele>97.4</ele>
        <time>2020-07-02T08:36:44Z</time>
      </trkpt>
      <trkpt lat="48.66495" lon="2.27799">
        <ele>97.5</ele>
        <time>2020-07-02T08:36:45Z</time>
      </trkpt>
      <trkpt lat="48.66491" lon="2.27802">
        <ele>97.6</ele>
        <time>2020-07-02T08:36:46Z</time>
      </trkpt>
      <trkpt lat="48.6649" lon="2.27802">
        <ele>97.6</ele>
        <time>2020-07-02T08:36:47Z</time>
      </trkpt>
      <trkpt lat="48.66487" lon="2.27803">
        <ele>97.6</ele>
        <time>2020-07-02T08:36:48Z</time>
      </trkpt>
      <trkpt lat="48.66486" lon="2.27803">
        <ele>97.6</ele>
        <time>2020-07-02T08:36:49Z</time>
      </trkpt>
      <trkpt lat="48.66484" lon="2.27802">
        <ele>97.6</ele>
        <time>2020-07-02T08:36:50Z</time>
      </trkpt>
      <trkpt lat="48.66482" lon="2.27798">
        <ele>97.6</ele>
        <time>2020-07-02T08:36:51Z</time>
      </trkpt>
      <trkpt lat="48.66479" lon="2.27795">
        <ele>97.6</ele>
        <time>2020-07-02T08:36:52Z</time>
      </trkpt>
      <trkpt lat="48.66476" lon="2.27792">
        <ele>97.6</ele>
        <time>2020-07-02T08:36:53Z</time>
      </trkpt>
      <trkpt lat="48.66473" lon="2.27789">
        <ele>97.6</ele>
        <time>2020-07-02T08:36:54Z</time>
      </trkpt>
      <trkpt lat="48.6647" lon="2.27787">
        <ele>97.6</ele>
        <time>2020-07-02T08:36:55Z</time>
      </trkpt>
      <trkpt lat="48.66466" lon="2.27785">
        <ele>97.6</ele>
        <time>2020-07-02T08:36:56Z</time>
      </trkpt>
      <trkpt lat="48.66461" lon="2.27782">
        <ele>97.6</ele>
        <time>2020-07-02T08:36:57Z</time>
      </trkpt>
      <trkpt lat="48.66456" lon="2.2778">
        <ele>97.6</ele>
        <time>2020-07-02T08:36:58Z</time>
      </trkpt>
      <trkpt lat="48.6645" lon="2.27779">
        <ele>97.6</ele>
        <time>2020-07-02T08:36:59Z</time>
      </trkpt>
      <trkpt lat="48.66445" lon="2.27776">
        <ele>97.6</ele>
        <time>2020-07-02T08:37:00Z</time>
      </trkpt>
      <trkpt lat="48.66441" lon="2.27774">
        <ele>97.6</ele>
        <time>2020-07-02T08:37:01Z</time>
      </trkpt>
      <trkpt lat="48.66436" lon="2.27771">
        <ele>97.6</ele>
        <time>2020-07-02T08:37:02Z</time>
      </trkpt>
      <trkpt lat="48.66431" lon="2.27768">
        <ele>97.6</ele>
        <time>2020-07-02T08:37:03Z</time>
      </trkpt>
      <trkpt lat="48.66425" lon="2.27765">
        <ele>97.6</ele>
        <time>2020-07-02T08:37:04Z</time>
      </trkpt>
      <trkpt lat="48.6642" lon="2.27763">
        <ele>97.6</ele>
        <time>2020-07-02T08:37:05Z</time>
      </trkpt>
      <trkpt lat="48.66416" lon="2.2776">
        <ele>97.6</ele>
        <time>2020-07-02T08:37:06Z</time>
      </trkpt>
      <trkpt lat="48.66411" lon="2.27757">
        <ele>97.4</ele>
        <time>2020-07-02T08:37:07Z</time>
      </trkpt>
      <trkpt lat="48.66406" lon="2.27756">
        <ele>97.4</ele>
        <time>2020-07-02T08:37:08Z</time>
      </trkpt>
      <trkpt lat="48.66401" lon="2.27754">
        <ele>97.4</ele>
        <time>2020-07-02T08:37:09Z</time>
      </trkpt>
      <trkpt lat="48.66395" lon="2.27752">
        <ele>97.3</ele>
        <time>2020-07-02T08:37:10Z</time>
      </trkpt>
      <trkpt lat="48.6639" lon="2.27749">
        <ele>97.2</ele>
        <time>2020-07-02T08:37:11Z</time>
      </trkpt>
      <trkpt lat="48.66385" lon="2.27746">
        <ele>97.1</ele>
        <time>2020-07-02T08:37:12Z</time>
      </trkpt>
      <trkpt lat="48.6638" lon="2.27745">
        <ele>97.1</ele>
        <time>2020-07-02T08:37:13Z</time>
      </trkpt>
      <trkpt lat="48.66375" lon="2.27744">
        <ele>97</ele>
        <time>2020-07-02T08:37:14Z</time>
      </trkpt>
      <trkpt lat="48.6637" lon="2.27741">
        <ele>96.9</ele>
        <time>2020-07-02T08:37:15Z</time>
      </trkpt>
      <trkpt lat="48.66366" lon="2.27737">
        <ele>96.8</ele>
        <time>2020-07-02T08:37:16Z</time>
      </trkpt>
      <trkpt lat="48.66362" lon="2.27735">
        <ele>96.7</ele>
        <time>2020-07-02T08:37:17Z</time>
      </trkpt>
      <trkpt lat="48.66357" lon="2.27732">
        <ele>96.6</ele>
        <time>2020-07-02T08:37:18Z</time>
      </trkpt>
      <trkpt lat="48.66352" lon="2.27729">
        <ele>96.5</ele>
        <time>2020-07-02T08:37:19Z</time>
      </trkpt>
      <trkpt lat="48.66347" lon="2.27727">
        <ele>96.4</ele>
        <time>2020-07-02T08:37:20Z</time>
      </trkpt>
      <trkpt lat="48.66343" lon="2.27725">
        <ele>96.3</ele>
        <time>2020-07-02T08:37:21Z</time>
      </trkpt>
      <trkpt lat="48.66339" lon="2.27723">
        <ele>96.3</ele>
        <time>2020-07-02T08:37:22Z</time>
      </trkpt>
      <trkpt lat="48.66335" lon="2.27723">
        <ele>96.2</ele>
        <time>2020-07-02T08:37:23Z</time>
      </trkpt>
      <trkpt lat="48.66332" lon="2.27723">
        <ele>96.2</ele>
        <time>2020-07-02T08:37:24Z</time>
      </trkpt>
      <trkpt lat="48.66328" lon="2.27721">
        <ele>96.1</ele>
        <time>2020-07-02T08:37:25Z</time>
      </trkpt>
      <trkpt lat="48.66328" lon="2.2772">
        <ele>96.1</ele>
        <time>2020-07-02T08:37:26Z</time>
      </trkpt>
      <trkpt lat="48.66326" lon="2.27721">
        <ele>96</ele>
        <time>2020-07-02T08:37:27Z</time>
      </trkpt>
      <trkpt lat="48.66325" lon="2.27722">
        <ele>96</ele>
        <time>2020-07-02T08:37:28Z</time>
      </trkpt>
      <trkpt lat="48.66325" lon="2.27723">
        <ele>96</ele>
        <time>2020-07-02T08:37:29Z</time>
      </trkpt>
      <trkpt lat="48.66324" lon="2.27724">
        <ele>96</ele>
        <time>2020-07-02T08:37:30Z</time>
      </trkpt>
      <trkpt lat="48.66324" lon="2.27725">
        <ele>96</ele>
        <time>2020-07-02T08:37:31Z</time>
      </trkpt>
      <trkpt lat="48.66323" lon="2.27726">
        <ele>95.9</ele>
        <time>2020-07-02T08:37:32Z</time>
      </trkpt>
      <trkpt lat="48.66323" lon="2.27726">
        <ele>95.9</ele>
        <time>2020-07-02T08:37:33Z</time>
      </trkpt>
      <trkpt lat="48.66322" lon="2.27726">
        <ele>95.9</ele>
        <time>2020-07-02T08:37:34Z</time>
      </trkpt>
      <trkpt lat="48.66322" lon="2.27726">
        <ele>95.9</ele>
        <time>2020-07-02T08:37:35Z</time>
      </trkpt>
      <trkpt lat="48.66322" lon="2.27726">
        <ele>95.9</ele>
        <time>2020-07-02T08:37:36Z</time>
      </trkpt>
      <trkpt lat="48.66322" lon="2.27725">
        <ele>95.9</ele>
        <time>2020-07-02T08:37:37Z</time>
      </trkpt>
      <trkpt lat="48.66321" lon="2.27725">
        <ele>95.9</ele>
        <time>2020-07-02T08:37:38Z</time>
      </trkpt>
      <trkpt lat="48.66321" lon="2.27725">
        <ele>95.9</ele>
        <time>2020-07-02T08:37:39Z</time>
      </trkpt>
      <trkpt lat="48.66322" lon="2.27724">
        <ele>95.9</ele>
        <time>2020-07-02T08:37:40Z</time>
      </trkpt>
      <trkpt lat="48.66321" lon="2.27725">
        <ele>95.9</ele>
        <time>2020-07-02T08:37:41Z</time>
      </trkpt>
      <trkpt lat="48.6632" lon="2.27724">
        <ele>95.8</ele>
        <time>2020-07-02T08:37:42Z</time>
      </trkpt>
      <trkpt lat="48.66317" lon="2.27724">
        <ele>95.7</ele>
        <time>2020-07-02T08:37:43Z</time>
      </trkpt>
      <trkpt lat="48.66316" lon="2.27723">
        <ele>95.7</ele>
        <time>2020-07-02T08:37:44Z</time>
      </trkpt>
      <trkpt lat="48.66313" lon="2.27721">
        <ele>95.6</ele>
        <time>2020-07-02T08:37:45Z</time>
      </trkpt>
      <trkpt lat="48.66312" lon="2.2772">
        <ele>95.6</ele>
        <time>2020-07-02T08:37:46Z</time>
      </trkpt>
      <trkpt lat="48.66308" lon="2.27718">
        <ele>95.5</ele>
        <time>2020-07-02T08:37:47Z</time>
      </trkpt>
      <trkpt lat="48.66307" lon="2.27717">
        <ele>95.5</ele>
        <time>2020-07-02T08:37:48Z</time>
      </trkpt>
      <trkpt lat="48.66303" lon="2.27716">
        <ele>95.4</ele>
        <time>2020-07-02T08:37:49Z</time>
      </trkpt>
      <trkpt lat="48.66299" lon="2.27714">
        <ele>95.3</ele>
        <time>2020-07-02T08:37:50Z</time>
      </trkpt>
      <trkpt lat="48.66295" lon="2.27713">
        <ele>95.2</ele>
        <time>2020-07-02T08:37:51Z</time>
      </trkpt>
      <trkpt lat="48.66291" lon="2.2771">
        <ele>95.1</ele>
        <time>2020-07-02T08:37:52Z</time>
      </trkpt>
      <trkpt lat="48.66286" lon="2.27708">
        <ele>95.1</ele>
        <time>2020-07-02T08:37:53Z</time>
      </trkpt>
      <trkpt lat="48.66283" lon="2.27706">
        <ele>95</ele>
        <time>2020-07-02T08:37:54Z</time>
      </trkpt>
      <trkpt lat="48.66278" lon="2.27704">
        <ele>94.9</ele>
        <time>2020-07-02T08:37:55Z</time>
      </trkpt>
      <trkpt lat="48.66274" lon="2.27701">
        <ele>94.8</ele>
        <time>2020-07-02T08:37:56Z</time>
      </trkpt>
      <trkpt lat="48.6627" lon="2.27699">
        <ele>94.8</ele>
        <time>2020-07-02T08:37:57Z</time>
      </trkpt>
      <trkpt lat="48.66265" lon="2.27697">
        <ele>94.7</ele>
        <time>2020-07-02T08:37:58Z</time>
      </trkpt>
      <trkpt lat="48.6626" lon="2.27695">
        <ele>94.6</ele>
        <time>2020-07-02T08:37:59Z</time>
      </trkpt>
      <trkpt lat="48.66256" lon="2.27693">
        <ele>94.5</ele>
        <time>2020-07-02T08:38:00Z</time>
      </trkpt>
      <trkpt lat="48.66251" lon="2.2769">
        <ele>94.4</ele>
        <time>2020-07-02T08:38:01Z</time>
      </trkpt>
      <trkpt lat="48.66246" lon="2.27688">
        <ele>94.3</ele>
        <time>2020-07-02T08:38:02Z</time>
      </trkpt>
      <trkpt lat="48.66239" lon="2.27685">
        <ele>94.1</ele>
        <time>2020-07-02T08:38:03Z</time>
      </trkpt>
      <trkpt lat="48.66233" lon="2.27683">
        <ele>94</ele>
        <time>2020-07-02T08:38:04Z</time>
      </trkpt>
      <trkpt lat="48.66226" lon="2.27681">
        <ele>93.8</ele>
        <time>2020-07-02T08:38:05Z</time>
      </trkpt>
      <trkpt lat="48.6622" lon="2.27678">
        <ele>93.9</ele>
        <time>2020-07-02T08:38:06Z</time>
      </trkpt>
      <trkpt lat="48.66214" lon="2.27675">
        <ele>93.9</ele>
        <time>2020-07-02T08:38:07Z</time>
      </trkpt>
      <trkpt lat="48.66207" lon="2.27673">
        <ele>93.8</ele>
        <time>2020-07-02T08:38:08Z</time>
      </trkpt>
      <trkpt lat="48.66201" lon="2.27671">
        <ele>93.8</ele>
        <time>2020-07-02T08:38:09Z</time>
      </trkpt>
      <trkpt lat="48.66195" lon="2.27668">
        <ele>93.7</ele>
        <time>2020-07-02T08:38:10Z</time>
      </trkpt>
      <trkpt lat="48.66189" lon="2.27667">
        <ele>93.6</ele>
        <time>2020-07-02T08:38:11Z</time>
      </trkpt>
      <trkpt lat="48.66183" lon="2.27665">
        <ele>93.5</ele>
        <time>2020-07-02T08:38:12Z</time>
      </trkpt>
      <trkpt lat="48.66177" lon="2.27662">
        <ele>93.4</ele>
        <time>2020-07-02T08:38:13Z</time>
      </trkpt>
      <trkpt lat="48.66171" lon="2.2766">
        <ele>93.3</ele>
        <time>2020-07-02T08:38:14Z</time>
      </trkpt>
      <trkpt lat="48.66165" lon="2.27658">
        <ele>93.1</ele>
        <time>2020-07-02T08:38:15Z</time>
      </trkpt>
      <trkpt lat="48.66159" lon="2.27657">
        <ele>93</ele>
        <time>2020-07-02T08:38:16Z</time>
      </trkpt>
      <trkpt lat="48.66153" lon="2.27655">
        <ele>92.8</ele>
        <time>2020-07-02T08:38:17Z</time>
      </trkpt>
      <trkpt lat="48.66147" lon="2.27652">
        <ele>92.7</ele>
        <time>2020-07-02T08:38:18Z</time>
      </trkpt>
      <trkpt lat="48.66141" lon="2.2765">
        <ele>92.6</ele>
        <time>2020-07-02T08:38:19Z</time>
      </trkpt>
      <trkpt lat="48.66136" lon="2.27648">
        <ele>92.6</ele>
        <time>2020-07-02T08:38:20Z</time>
      </trkpt>
      <trkpt lat="48.6613" lon="2.27646">
        <ele>92.5</ele>
        <time>2020-07-02T08:38:21Z</time>
      </trkpt>
      <trkpt lat="48.66125" lon="2.27643">
        <ele>92.4</ele>
        <time>2020-07-02T08:38:22Z</time>
      </trkpt>
      <trkpt lat="48.6612" lon="2.27643">
        <ele>92.3</ele>
        <time>2020-07-02T08:38:23Z</time>
      </trkpt>
      <trkpt lat="48.66115" lon="2.27644">
        <ele>92.3</ele>
        <time>2020-07-02T08:38:24Z</time>
      </trkpt>
      <trkpt lat="48.6611" lon="2.27645">
        <ele>92.2</ele>
        <time>2020-07-02T08:38:25Z</time>
      </trkpt>
      <trkpt lat="48.66105" lon="2.27645">
        <ele>92.2</ele>
        <time>2020-07-02T08:38:26Z</time>
      </trkpt>
      <trkpt lat="48.661" lon="2.27642">
        <ele>92.1</ele>
        <time>2020-07-02T08:38:27Z</time>
      </trkpt>
      <trkpt lat="48.66095" lon="2.27638">
        <ele>92.1</ele>
        <time>2020-07-02T08:38:28Z</time>
      </trkpt>
      <trkpt lat="48.66091" lon="2.27635">
        <ele>92</ele>
        <time>2020-07-02T08:38:29Z</time>
      </trkpt>
      <trkpt lat="48.66086" lon="2.27633">
        <ele>92</ele>
        <time>2020-07-02T08:38:30Z</time>
      </trkpt>
      <trkpt lat="48.66081" lon="2.2763">
        <ele>91.9</ele>
        <time>2020-07-02T08:38:31Z</time>
      </trkpt>
      <trkpt lat="48.66077" lon="2.27627">
        <ele>91.8</ele>
        <time>2020-07-02T08:38:32Z</time>
      </trkpt>
      <trkpt lat="48.66072" lon="2.27625">
        <ele>91.8</ele>
        <time>2020-07-02T08:38:33Z</time>
      </trkpt>
      <trkpt lat="48.66067" lon="2.27622">
        <ele>91.7</ele>
        <time>2020-07-02T08:38:34Z</time>
      </trkpt>
      <trkpt lat="48.66062" lon="2.27621">
        <ele>91.6</ele>
        <time>2020-07-02T08:38:35Z</time>
      </trkpt>
      <trkpt lat="48.66057" lon="2.27618">
        <ele>91.6</ele>
        <time>2020-07-02T08:38:36Z</time>
      </trkpt>
      <trkpt lat="48.66053" lon="2.27617">
        <ele>91.6</ele>
        <time>2020-07-02T08:38:37Z</time>
      </trkpt>
      <trkpt lat="48.66048" lon="2.27615">
        <ele>91.6</ele>
        <time>2020-07-02T08:38:38Z</time>
      </trkpt>
      <trkpt lat="48.66043" lon="2.27614">
        <ele>91.6</ele>
        <time>2020-07-02T08:38:39Z</time>
      </trkpt>
      <trkpt lat="48.66039" lon="2.27615">
        <ele>91.5</ele>
        <time>2020-07-02T08:38:40Z</time>
      </trkpt>
      <trkpt lat="48.66035" lon="2.27614">
        <ele>91.4</ele>
        <time>2020-07-02T08:38:41Z</time>
      </trkpt>
      <trkpt lat="48.66031" lon="2.27613">
        <ele>91.3</ele>
        <time>2020-07-02T08:38:42Z</time>
      </trkpt>
      <trkpt lat="48.66027" lon="2.27612">
        <ele>91.2</ele>
        <time>2020-07-02T08:38:43Z</time>
      </trkpt>
      <trkpt lat="48.66023" lon="2.2761">
        <ele>91.1</ele>
        <time>2020-07-02T08:38:44Z</time>
      </trkpt>
      <trkpt lat="48.66018" lon="2.27607">
        <ele>90.9</ele>
        <time>2020-07-02T08:38:45Z</time>
      </trkpt>
      <trkpt lat="48.66012" lon="2.27605">
        <ele>90.8</ele>
        <time>2020-07-02T08:38:46Z</time>
      </trkpt>
      <trkpt lat="48.66007" lon="2.27603">
        <ele>90.7</ele>
        <time>2020-07-02T08:38:47Z</time>
      </trkpt>
      <trkpt lat="48.66003" lon="2.27601">
        <ele>90.6</ele>
        <time>2020-07-02T08:38:48Z</time>
      </trkpt>
      <trkpt lat="48.65999" lon="2.27599">
        <ele>90.5</ele>
        <time>2020-07-02T08:38:49Z</time>
      </trkpt>
      <trkpt lat="48.65995" lon="2.27595">
        <ele>90.4</ele>
        <time>2020-07-02T08:38:50Z</time>
      </trkpt>
      <trkpt lat="48.65991" lon="2.27593">
        <ele>90.2</ele>
        <time>2020-07-02T08:38:51Z</time>
      </trkpt>
      <trkpt lat="48.65987" lon="2.2759">
        <ele>90.1</ele>
        <time>2020-07-02T08:38:52Z</time>
      </trkpt>
      <trkpt lat="48.65982" lon="2.27588">
        <ele>89.9</ele>
        <time>2020-07-02T08:38:53Z</time>
      </trkpt>
      <trkpt lat="48.65977" lon="2.27586">
        <ele>89.7</ele>
        <time>2020-07-02T08:38:54Z</time>
      </trkpt>
      <trkpt lat="48.65972" lon="2.27585">
        <ele>89.6</ele>
        <time>2020-07-02T08:38:55Z</time>
      </trkpt>
      <trkpt lat="48.65968" lon="2.27583">
        <ele>89.4</ele>
        <time>2020-07-02T08:38:56Z</time>
      </trkpt>
      <trkpt lat="48.65963" lon="2.2758">
        <ele>89.2</ele>
        <time>2020-07-02T08:38:57Z</time>
      </trkpt>
      <trkpt lat="48.65958" lon="2.27578">
        <ele>89.1</ele>
        <time>2020-07-02T08:38:58Z</time>
      </trkpt>
      <trkpt lat="48.65954" lon="2.27575">
        <ele>88.9</ele>
        <time>2020-07-02T08:38:59Z</time>
      </trkpt>
      <trkpt lat="48.65949" lon="2.27574">
        <ele>88.7</ele>
        <time>2020-07-02T08:39:00Z</time>
      </trkpt>
      <trkpt lat="48.65944" lon="2.27571">
        <ele>88.5</ele>
        <time>2020-07-02T08:39:01Z</time>
      </trkpt>
      <trkpt lat="48.65938" lon="2.27568">
        <ele>88.2</ele>
        <time>2020-07-02T08:39:02Z</time>
      </trkpt>
      <trkpt lat="48.65934" lon="2.27567">
        <ele>88</ele>
        <time>2020-07-02T08:39:03Z</time>
      </trkpt>
      <trkpt lat="48.65929" lon="2.27565">
        <ele>87.8</ele>
        <time>2020-07-02T08:39:04Z</time>
      </trkpt>
      <trkpt lat="48.65924" lon="2.27563">
        <ele>87.6</ele>
        <time>2020-07-02T08:39:05Z</time>
      </trkpt>
      <trkpt lat="48.6592" lon="2.27562">
        <ele>87.5</ele>
        <time>2020-07-02T08:39:06Z</time>
      </trkpt>
      <trkpt lat="48.65915" lon="2.2756">
        <ele>87.4</ele>
        <time>2020-07-02T08:39:07Z</time>
      </trkpt>
      <trkpt lat="48.65911" lon="2.27559">
        <ele>87.2</ele>
        <time>2020-07-02T08:39:08Z</time>
      </trkpt>
      <trkpt lat="48.65905" lon="2.27559">
        <ele>87.1</ele>
        <time>2020-07-02T08:39:09Z</time>
      </trkpt>
      <trkpt lat="48.65901" lon="2.27558">
        <ele>86.9</ele>
        <time>2020-07-02T08:39:10Z</time>
      </trkpt>
      <trkpt lat="48.65896" lon="2.27556">
        <ele>86.8</ele>
        <time>2020-07-02T08:39:11Z</time>
      </trkpt>
      <trkpt lat="48.6589" lon="2.27554">
        <ele>86.6</ele>
        <time>2020-07-02T08:39:12Z</time>
      </trkpt>
      <trkpt lat="48.65884" lon="2.27553">
        <ele>86.5</ele>
        <time>2020-07-02T08:39:13Z</time>
      </trkpt>
      <trkpt lat="48.65879" lon="2.27551">
        <ele>86.4</ele>
        <time>2020-07-02T08:39:14Z</time>
      </trkpt>
      <trkpt lat="48.65874" lon="2.2755">
        <ele>86.3</ele>
        <time>2020-07-02T08:39:15Z</time>
      </trkpt>
      <trkpt lat="48.65868" lon="2.27548">
        <ele>86.1</ele>
        <time>2020-07-02T08:39:16Z</time>
      </trkpt>
      <trkpt lat="48.65864" lon="2.27547">
        <ele>86</ele>
        <time>2020-07-02T08:39:17Z</time>
      </trkpt>
      <trkpt lat="48.65859" lon="2.27544">
        <ele>85.9</ele>
        <time>2020-07-02T08:39:18Z</time>
      </trkpt>
      <trkpt lat="48.65854" lon="2.27542">
        <ele>85.7</ele>
        <time>2020-07-02T08:39:19Z</time>
      </trkpt>
      <trkpt lat="48.65849" lon="2.27539">
        <ele>85.6</ele>
        <time>2020-07-02T08:39:20Z</time>
      </trkpt>
      <trkpt lat="48.65845" lon="2.27538">
        <ele>85.4</ele>
        <time>2020-07-02T08:39:21Z</time>
      </trkpt>
      <trkpt lat="48.6584" lon="2.27536">
        <ele>85.3</ele>
        <time>2020-07-02T08:39:22Z</time>
      </trkpt>
      <trkpt lat="48.65835" lon="2.27534">
        <ele>85.2</ele>
        <time>2020-07-02T08:39:23Z</time>
      </trkpt>
      <trkpt lat="48.6583" lon="2.27533">
        <ele>85.1</ele>
        <time>2020-07-02T08:39:24Z</time>
      </trkpt>
      <trkpt lat="48.65823" lon="2.27532">
        <ele>84.9</ele>
        <time>2020-07-02T08:39:25Z</time>
      </trkpt>
      <trkpt lat="48.65817" lon="2.27529">
        <ele>84.8</ele>
        <time>2020-07-02T08:39:26Z</time>
      </trkpt>
      <trkpt lat="48.65812" lon="2.27527">
        <ele>84.7</ele>
        <time>2020-07-02T08:39:27Z</time>
      </trkpt>
      <trkpt lat="48.65806" lon="2.27525">
        <ele>84.6</ele>
        <time>2020-07-02T08:39:28Z</time>
      </trkpt>
      <trkpt lat="48.658" lon="2.27525">
        <ele>84.6</ele>
        <time>2020-07-02T08:39:29Z</time>
      </trkpt>
      <trkpt lat="48.65795" lon="2.27523">
        <ele>84.6</ele>
        <time>2020-07-02T08:39:30Z</time>
      </trkpt>
      <trkpt lat="48.65789" lon="2.27523">
        <ele>84.6</ele>
        <time>2020-07-02T08:39:31Z</time>
      </trkpt>
      <trkpt lat="48.65784" lon="2.27522">
        <ele>84.5</ele>
        <time>2020-07-02T08:39:32Z</time>
      </trkpt>
      <trkpt lat="48.65779" lon="2.27521">
        <ele>84.4</ele>
        <time>2020-07-02T08:39:33Z</time>
      </trkpt>
      <trkpt lat="48.65774" lon="2.2752">
        <ele>84.4</ele>
        <time>2020-07-02T08:39:34Z</time>
      </trkpt>
      <trkpt lat="48.65769" lon="2.27519">
        <ele>84.3</ele>
        <time>2020-07-02T08:39:35Z</time>
      </trkpt>
      <trkpt lat="48.65763" lon="2.27516">
        <ele>84.2</ele>
        <time>2020-07-02T08:39:36Z</time>
      </trkpt>
      <trkpt lat="48.65759" lon="2.27515">
        <ele>84.2</ele>
        <time>2020-07-02T08:39:37Z</time>
      </trkpt>
      <trkpt lat="48.65754" lon="2.27512">
        <ele>84.1</ele>
        <time>2020-07-02T08:39:38Z</time>
      </trkpt>
      <trkpt lat="48.65749" lon="2.27509">
        <ele>84.1</ele>
        <time>2020-07-02T08:39:39Z</time>
      </trkpt>
      <trkpt lat="48.65746" lon="2.27506">
        <ele>84.1</ele>
        <time>2020-07-02T08:39:40Z</time>
      </trkpt>
      <trkpt lat="48.65743" lon="2.27505">
        <ele>84.1</ele>
        <time>2020-07-02T08:39:41Z</time>
      </trkpt>
      <trkpt lat="48.65741" lon="2.27505">
        <ele>84.1</ele>
        <time>2020-07-02T08:39:42Z</time>
      </trkpt>
      <trkpt lat="48.65738" lon="2.27506">
        <ele>84.1</ele>
        <time>2020-07-02T08:39:43Z</time>
      </trkpt>
      <trkpt lat="48.65735" lon="2.27507">
        <ele>84.1</ele>
        <time>2020-07-02T08:39:44Z</time>
      </trkpt>
      <trkpt lat="48.65733" lon="2.27507">
        <ele>84.1</ele>
        <time>2020-07-02T08:39:45Z</time>
      </trkpt>
      <trkpt lat="48.65731" lon="2.27505">
        <ele>84.1</ele>
        <time>2020-07-02T08:39:46Z</time>
      </trkpt>
      <trkpt lat="48.6573" lon="2.27503">
        <ele>84.1</ele>
        <time>2020-07-02T08:39:47Z</time>
      </trkpt>
      <trkpt lat="48.65728" lon="2.27501">
        <ele>84.1</ele>
        <time>2020-07-02T08:39:48Z</time>
      </trkpt>
      <trkpt lat="48.65728" lon="2.27501">
        <ele>84.1</ele>
        <time>2020-07-02T08:39:49Z</time>
      </trkpt>
      <trkpt lat="48.65727" lon="2.27501">
        <ele>84.1</ele>
        <time>2020-07-02T08:39:50Z</time>
      </trkpt>
      <trkpt lat="48.65726" lon="2.275">
        <ele>84.1</ele>
        <time>2020-07-02T08:39:51Z</time>
      </trkpt>
      <trkpt lat="48.65724" lon="2.27499">
        <ele>84.1</ele>
        <time>2020-07-02T08:39:52Z</time>
      </trkpt>
      <trkpt lat="48.65721" lon="2.27496">
        <ele>84.1</ele>
        <time>2020-07-02T08:39:53Z</time>
      </trkpt>
      <trkpt lat="48.65719" lon="2.27495">
        <ele>84.1</ele>
        <time>2020-07-02T08:39:54Z</time>
      </trkpt>
      <trkpt lat="48.65715" lon="2.27492">
        <ele>84.1</ele>
        <time>2020-07-02T08:39:55Z</time>
      </trkpt>
      <trkpt lat="48.65712" lon="2.27491">
        <ele>84.1</ele>
        <time>2020-07-02T08:39:56Z</time>
      </trkpt>
      <trkpt lat="48.65708" lon="2.27489">
        <ele>84.1</ele>
        <time>2020-07-02T08:39:57Z</time>
      </trkpt>
      <trkpt lat="48.65704" lon="2.27488">
        <ele>84.1</ele>
        <time>2020-07-02T08:39:58Z</time>
      </trkpt>
      <trkpt lat="48.65699" lon="2.27486">
        <ele>84.2</ele>
        <time>2020-07-02T08:39:59Z</time>
      </trkpt>
      <trkpt lat="48.65694" lon="2.27484">
        <ele>84.2</ele>
        <time>2020-07-02T08:40:00Z</time>
      </trkpt>
      <trkpt lat="48.65689" lon="2.27482">
        <ele>84.2</ele>
        <time>2020-07-02T08:40:01Z</time>
      </trkpt>
      <trkpt lat="48.65684" lon="2.2748">
        <ele>84.2</ele>
        <time>2020-07-02T08:40:02Z</time>
      </trkpt>
      <trkpt lat="48.65679" lon="2.27478">
        <ele>84.2</ele>
        <time>2020-07-02T08:40:03Z</time>
      </trkpt>
      <trkpt lat="48.65674" lon="2.27477">
        <ele>84.2</ele>
        <time>2020-07-02T08:40:04Z</time>
      </trkpt>
      <trkpt lat="48.65669" lon="2.27475">
        <ele>84.2</ele>
        <time>2020-07-02T08:40:05Z</time>
      </trkpt>
      <trkpt lat="48.65664" lon="2.27473">
        <ele>84.2</ele>
        <time>2020-07-02T08:40:06Z</time>
      </trkpt>
      <trkpt lat="48.65659" lon="2.27472">
        <ele>84.2</ele>
        <time>2020-07-02T08:40:07Z</time>
      </trkpt>
      <trkpt lat="48.65654" lon="2.27471">
        <ele>84.2</ele>
        <time>2020-07-02T08:40:08Z</time>
      </trkpt>
      <trkpt lat="48.65649" lon="2.2747">
        <ele>84.1</ele>
        <time>2020-07-02T08:40:09Z</time>
      </trkpt>
      <trkpt lat="48.65643" lon="2.27467">
        <ele>84.1</ele>
        <time>2020-07-02T08:40:10Z</time>
      </trkpt>
      <trkpt lat="48.65639" lon="2.27465">
        <ele>84.1</ele>
        <time>2020-07-02T08:40:11Z</time>
      </trkpt>
      <trkpt lat="48.65635" lon="2.27463">
        <ele>84.1</ele>
        <time>2020-07-02T08:40:12Z</time>
      </trkpt>
      <trkpt lat="48.6563" lon="2.27462">
        <ele>84.1</ele>
        <time>2020-07-02T08:40:13Z</time>
      </trkpt>
      <trkpt lat="48.65626" lon="2.27461">
        <ele>84.1</ele>
        <time>2020-07-02T08:40:14Z</time>
      </trkpt>
      <trkpt lat="48.65621" lon="2.27461">
        <ele>84.1</ele>
        <time>2020-07-02T08:40:15Z</time>
      </trkpt>
      <trkpt lat="48.65616" lon="2.27458">
        <ele>84.2</ele>
        <time>2020-07-02T08:40:16Z</time>
      </trkpt>
      <trkpt lat="48.65611" lon="2.27456">
        <ele>84.2</ele>
        <time>2020-07-02T08:40:17Z</time>
      </trkpt>
      <trkpt lat="48.65606" lon="2.27454">
        <ele>84.2</ele>
        <time>2020-07-02T08:40:18Z</time>
      </trkpt>
      <trkpt lat="48.65601" lon="2.27452">
        <ele>84.2</ele>
        <time>2020-07-02T08:40:19Z</time>
      </trkpt>
      <trkpt lat="48.65597" lon="2.2745">
        <ele>84.2</ele>
        <time>2020-07-02T08:40:20Z</time>
      </trkpt>
      <trkpt lat="48.65592" lon="2.27448">
        <ele>84.2</ele>
        <time>2020-07-02T08:40:21Z</time>
      </trkpt>
      <trkpt lat="48.65588" lon="2.27445">
        <ele>84.3</ele>
        <time>2020-07-02T08:40:22Z</time>
      </trkpt>
      <trkpt lat="48.65583" lon="2.27443">
        <ele>84.3</ele>
        <time>2020-07-02T08:40:23Z</time>
      </trkpt>
      <trkpt lat="48.65578" lon="2.2744">
        <ele>84.4</ele>
        <time>2020-07-02T08:40:24Z</time>
      </trkpt>
      <trkpt lat="48.65573" lon="2.27438">
        <ele>84.4</ele>
        <time>2020-07-02T08:40:25Z</time>
      </trkpt>
      <trkpt lat="48.65568" lon="2.27436">
        <ele>84.5</ele>
        <time>2020-07-02T08:40:26Z</time>
      </trkpt>
      <trkpt lat="48.65563" lon="2.27432">
        <ele>84.5</ele>
        <time>2020-07-02T08:40:27Z</time>
      </trkpt>
      <trkpt lat="48.65558" lon="2.27431">
        <ele>84.6</ele>
        <time>2020-07-02T08:40:28Z</time>
      </trkpt>
      <trkpt lat="48.65553" lon="2.27429">
        <ele>84.6</ele>
        <time>2020-07-02T08:40:29Z</time>
      </trkpt>
      <trkpt lat="48.65549" lon="2.27428">
        <ele>84.7</ele>
        <time>2020-07-02T08:40:30Z</time>
      </trkpt>
      <trkpt lat="48.65545" lon="2.27427">
        <ele>84.7</ele>
        <time>2020-07-02T08:40:31Z</time>
      </trkpt>
      <trkpt lat="48.65541" lon="2.27426">
        <ele>84.7</ele>
        <time>2020-07-02T08:40:32Z</time>
      </trkpt>
      <trkpt lat="48.65536" lon="2.27424">
        <ele>84.8</ele>
        <time>2020-07-02T08:40:33Z</time>
      </trkpt>
      <trkpt lat="48.65532" lon="2.27421">
        <ele>84.8</ele>
        <time>2020-07-02T08:40:34Z</time>
      </trkpt>
      <trkpt lat="48.65528" lon="2.27419">
        <ele>84.8</ele>
        <time>2020-07-02T08:40:35Z</time>
      </trkpt>
      <trkpt lat="48.65523" lon="2.27416">
        <ele>84.8</ele>
        <time>2020-07-02T08:40:36Z</time>
      </trkpt>
      <trkpt lat="48.65519" lon="2.27413">
        <ele>84.9</ele>
        <time>2020-07-02T08:40:37Z</time>
      </trkpt>
      <trkpt lat="48.65514" lon="2.27411">
        <ele>84.9</ele>
        <time>2020-07-02T08:40:38Z</time>
      </trkpt>
      <trkpt lat="48.6551" lon="2.2741">
        <ele>84.9</ele>
        <time>2020-07-02T08:40:39Z</time>
      </trkpt>
      <trkpt lat="48.65505" lon="2.27409">
        <ele>85</ele>
        <time>2020-07-02T08:40:40Z</time>
      </trkpt>
      <trkpt lat="48.655" lon="2.27408">
        <ele>85</ele>
        <time>2020-07-02T08:40:41Z</time>
      </trkpt>
      <trkpt lat="48.65495" lon="2.27407">
        <ele>85.1</ele>
        <time>2020-07-02T08:40:42Z</time>
      </trkpt>
      <trkpt lat="48.65491" lon="2.27407">
        <ele>85.1</ele>
        <time>2020-07-02T08:40:43Z</time>
      </trkpt>
      <trkpt lat="48.65487" lon="2.27406">
        <ele>85.2</ele>
        <time>2020-07-02T08:40:44Z</time>
      </trkpt>
      <trkpt lat="48.65484" lon="2.27405">
        <ele>85.3</ele>
        <time>2020-07-02T08:40:45Z</time>
      </trkpt>
      <trkpt lat="48.65481" lon="2.27407">
        <ele>85.3</ele>
        <time>2020-07-02T08:40:46Z</time>
      </trkpt>
      <trkpt lat="48.65479" lon="2.27408">
        <ele>85.4</ele>
        <time>2020-07-02T08:40:47Z</time>
      </trkpt>
      <trkpt lat="48.65475" lon="2.27409">
        <ele>85.4</ele>
        <time>2020-07-02T08:40:48Z</time>
      </trkpt>
      <trkpt lat="48.65474" lon="2.27409">
        <ele>85.4</ele>
        <time>2020-07-02T08:40:49Z</time>
      </trkpt>
      <trkpt lat="48.65471" lon="2.27408">
        <ele>85.4</ele>
        <time>2020-07-02T08:40:50Z</time>
      </trkpt>
      <trkpt lat="48.6547" lon="2.27407">
        <ele>85.4</ele>
        <time>2020-07-02T08:40:51Z</time>
      </trkpt>
      <trkpt lat="48.65466" lon="2.27405">
        <ele>85.4</ele>
        <time>2020-07-02T08:40:52Z</time>
      </trkpt>
      <trkpt lat="48.65463" lon="2.27404">
        <ele>85.3</ele>
        <time>2020-07-02T08:40:53Z</time>
      </trkpt>
      <trkpt lat="48.6546" lon="2.27404">
        <ele>85.3</ele>
        <time>2020-07-02T08:40:54Z</time>
      </trkpt>
      <trkpt lat="48.65456" lon="2.27402">
        <ele>85.2</ele>
        <time>2020-07-02T08:40:55Z</time>
      </trkpt>
      <trkpt lat="48.65452" lon="2.27401">
        <ele>85.2</ele>
        <time>2020-07-02T08:40:56Z</time>
      </trkpt>
      <trkpt lat="48.65449" lon="2.27399">
        <ele>85.1</ele>
        <time>2020-07-02T08:40:57Z</time>
      </trkpt>
      <trkpt lat="48.65444" lon="2.27397">
        <ele>85.1</ele>
        <time>2020-07-02T08:40:58Z</time>
      </trkpt>
      <trkpt lat="48.65439" lon="2.27395">
        <ele>85.1</ele>
        <time>2020-07-02T08:40:59Z</time>
      </trkpt>
      <trkpt lat="48.65434" lon="2.27393">
        <ele>85</ele>
        <time>2020-07-02T08:41:00Z</time>
      </trkpt>
      <trkpt lat="48.65429" lon="2.27391">
        <ele>85</ele>
        <time>2020-07-02T08:41:01Z</time>
      </trkpt>
      <trkpt lat="48.65425" lon="2.2739">
        <ele>85</ele>
        <time>2020-07-02T08:41:02Z</time>
      </trkpt>
      <trkpt lat="48.65422" lon="2.27387">
        <ele>85</ele>
        <time>2020-07-02T08:41:03Z</time>
      </trkpt>
      <trkpt lat="48.65417" lon="2.27386">
        <ele>84.9</ele>
        <time>2020-07-02T08:41:04Z</time>
      </trkpt>
      <trkpt lat="48.65414" lon="2.27385">
        <ele>84.9</ele>
        <time>2020-07-02T08:41:05Z</time>
      </trkpt>
      <trkpt lat="48.65409" lon="2.27383">
        <ele>84.9</ele>
        <time>2020-07-02T08:41:06Z</time>
      </trkpt>
      <trkpt lat="48.65404" lon="2.27382">
        <ele>84.8</ele>
        <time>2020-07-02T08:41:07Z</time>
      </trkpt>
      <trkpt lat="48.65399" lon="2.2738">
        <ele>84.8</ele>
        <time>2020-07-02T08:41:08Z</time>
      </trkpt>
      <trkpt lat="48.65394" lon="2.27378">
        <ele>84.8</ele>
        <time>2020-07-02T08:41:09Z</time>
      </trkpt>
      <trkpt lat="48.6539" lon="2.27377">
        <ele>84.7</ele>
        <time>2020-07-02T08:41:10Z</time>
      </trkpt>
      <trkpt lat="48.65385" lon="2.27376">
        <ele>84.7</ele>
        <time>2020-07-02T08:41:11Z</time>
      </trkpt>
      <trkpt lat="48.65379" lon="2.27373">
        <ele>84.6</ele>
        <time>2020-07-02T08:41:12Z</time>
      </trkpt>
      <trkpt lat="48.65373" lon="2.27371">
        <ele>84.6</ele>
        <time>2020-07-02T08:41:13Z</time>
      </trkpt>
      <trkpt lat="48.65368" lon="2.27369">
        <ele>84.5</ele>
        <time>2020-07-02T08:41:14Z</time>
      </trkpt>
      <trkpt lat="48.65362" lon="2.27366">
        <ele>84.5</ele>
        <time>2020-07-02T08:41:15Z</time>
      </trkpt>
      <trkpt lat="48.65357" lon="2.27365">
        <ele>84.5</ele>
        <time>2020-07-02T08:41:16Z</time>
      </trkpt>
      <trkpt lat="48.65352" lon="2.27362">
        <ele>84.5</ele>
        <time>2020-07-02T08:41:17Z</time>
      </trkpt>
      <trkpt lat="48.65346" lon="2.2736">
        <ele>84.4</ele>
        <time>2020-07-02T08:41:18Z</time>
      </trkpt>
      <trkpt lat="48.65341" lon="2.27358">
        <ele>84.4</ele>
        <time>2020-07-02T08:41:19Z</time>
      </trkpt>
      <trkpt lat="48.65336" lon="2.27356">
        <ele>84.4</ele>
        <time>2020-07-02T08:41:20Z</time>
      </trkpt>
      <trkpt lat="48.65331" lon="2.27355">
        <ele>84.4</ele>
        <time>2020-07-02T08:41:21Z</time>
      </trkpt>
      <trkpt lat="48.65326" lon="2.27352">
        <ele>84.3</ele>
        <time>2020-07-02T08:41:22Z</time>
      </trkpt>
      <trkpt lat="48.6532" lon="2.2735">
        <ele>84.3</ele>
        <time>2020-07-02T08:41:23Z</time>
      </trkpt>
      <trkpt lat="48.65315" lon="2.27348">
        <ele>84.3</ele>
        <time>2020-07-02T08:41:24Z</time>
      </trkpt>
      <trkpt lat="48.65309" lon="2.27347">
        <ele>84.3</ele>
        <time>2020-07-02T08:41:25Z</time>
      </trkpt>
      <trkpt lat="48.65304" lon="2.27345">
        <ele>84.3</ele>
        <time>2020-07-02T08:41:26Z</time>
      </trkpt>
      <trkpt lat="48.65299" lon="2.27342">
        <ele>84.3</ele>
        <time>2020-07-02T08:41:27Z</time>
      </trkpt>
      <trkpt lat="48.65294" lon="2.27339">
        <ele>84.2</ele>
        <time>2020-07-02T08:41:28Z</time>
      </trkpt>
      <trkpt lat="48.65289" lon="2.27338">
        <ele>84.2</ele>
        <time>2020-07-02T08:41:29Z</time>
      </trkpt>
      <trkpt lat="48.65283" lon="2.27336">
        <ele>84.2</ele>
        <time>2020-07-02T08:41:30Z</time>
      </trkpt>
      <trkpt lat="48.65278" lon="2.27334">
        <ele>84.2</ele>
        <time>2020-07-02T08:41:31Z</time>
      </trkpt>
      <trkpt lat="48.65273" lon="2.27332">
        <ele>84.2</ele>
        <time>2020-07-02T08:41:32Z</time>
      </trkpt>
      <trkpt lat="48.65268" lon="2.27331">
        <ele>84.2</ele>
        <time>2020-07-02T08:41:33Z</time>
      </trkpt>
      <trkpt lat="48.65263" lon="2.2733">
        <ele>84.2</ele>
        <time>2020-07-02T08:41:34Z</time>
      </trkpt>
      <trkpt lat="48.65258" lon="2.27329">
        <ele>84.2</ele>
        <time>2020-07-02T08:41:35Z</time>
      </trkpt>
      <trkpt lat="48.65253" lon="2.27327">
        <ele>84.2</ele>
        <time>2020-07-02T08:41:36Z</time>
      </trkpt>
      <trkpt lat="48.65248" lon="2.27325">
        <ele>84.2</ele>
        <time>2020-07-02T08:41:37Z</time>
      </trkpt>
      <trkpt lat="48.65243" lon="2.27323">
        <ele>84.2</ele>
        <time>2020-07-02T08:41:38Z</time>
      </trkpt>
      <trkpt lat="48.65238" lon="2.27321">
        <ele>84.2</ele>
        <time>2020-07-02T08:41:39Z</time>
      </trkpt>
      <trkpt lat="48.65233" lon="2.27319">
        <ele>84.2</ele>
        <time>2020-07-02T08:41:40Z</time>
      </trkpt>
      <trkpt lat="48.65228" lon="2.27317">
        <ele>84.3</ele>
        <time>2020-07-02T08:41:41Z</time>
      </trkpt>
      <trkpt lat="48.65222" lon="2.27315">
        <ele>84.3</ele>
        <time>2020-07-02T08:41:42Z</time>
      </trkpt>
      <trkpt lat="48.65217" lon="2.27313">
        <ele>84.4</ele>
        <time>2020-07-02T08:41:43Z</time>
      </trkpt>
      <trkpt lat="48.65212" lon="2.27312">
        <ele>84.5</ele>
        <time>2020-07-02T08:41:44Z</time>
      </trkpt>
      <trkpt lat="48.65207" lon="2.2731">
        <ele>84.5</ele>
        <time>2020-07-02T08:41:45Z</time>
      </trkpt>
      <trkpt lat="48.65201" lon="2.27308">
        <ele>84.6</ele>
        <time>2020-07-02T08:41:46Z</time>
      </trkpt>
      <trkpt lat="48.65196" lon="2.27306">
        <ele>84.6</ele>
        <time>2020-07-02T08:41:47Z</time>
      </trkpt>
      <trkpt lat="48.65191" lon="2.27304">
        <ele>84.7</ele>
        <time>2020-07-02T08:41:48Z</time>
      </trkpt>
      <trkpt lat="48.65186" lon="2.27303">
        <ele>84.8</ele>
        <time>2020-07-02T08:41:49Z</time>
      </trkpt>
      <trkpt lat="48.65182" lon="2.27303">
        <ele>84.8</ele>
        <time>2020-07-02T08:41:50Z</time>
      </trkpt>
      <trkpt lat="48.65177" lon="2.27301">
        <ele>84.9</ele>
        <time>2020-07-02T08:41:51Z</time>
      </trkpt>
      <trkpt lat="48.65174" lon="2.27299">
        <ele>84.9</ele>
        <time>2020-07-02T08:41:52Z</time>
      </trkpt>
      <trkpt lat="48.6517" lon="2.27297">
        <ele>85</ele>
        <time>2020-07-02T08:41:53Z</time>
      </trkpt>
      <trkpt lat="48.65166" lon="2.27296">
        <ele>85</ele>
        <time>2020-07-02T08:41:54Z</time>
      </trkpt>
      <trkpt lat="48.65162" lon="2.27294">
        <ele>85</ele>
        <time>2020-07-02T08:41:55Z</time>
      </trkpt>
      <trkpt lat="48.65158" lon="2.27291">
        <ele>85.1</ele>
        <time>2020-07-02T08:41:56Z</time>
      </trkpt>
      <trkpt lat="48.65155" lon="2.27289">
        <ele>85.2</ele>
        <time>2020-07-02T08:41:57Z</time>
      </trkpt>
      <trkpt lat="48.65152" lon="2.27287">
        <ele>85.2</ele>
        <time>2020-07-02T08:41:58Z</time>
      </trkpt>
      <trkpt lat="48.65149" lon="2.27284">
        <ele>85.2</ele>
        <time>2020-07-02T08:41:59Z</time>
      </trkpt>
      <trkpt lat="48.65146" lon="2.27282">
        <ele>85.2</ele>
        <time>2020-07-02T08:42:00Z</time>
      </trkpt>
      <trkpt lat="48.65143" lon="2.27281">
        <ele>85.2</ele>
        <time>2020-07-02T08:42:01Z</time>
      </trkpt>
      <trkpt lat="48.6514" lon="2.27279">
        <ele>85.2</ele>
        <time>2020-07-02T08:42:02Z</time>
      </trkpt>
      <trkpt lat="48.65136" lon="2.27277">
        <ele>85.2</ele>
        <time>2020-07-02T08:42:03Z</time>
      </trkpt>
      <trkpt lat="48.65132" lon="2.27275">
        <ele>85.2</ele>
        <time>2020-07-02T08:42:04Z</time>
      </trkpt>
      <trkpt lat="48.65129" lon="2.27273">
        <ele>85.2</ele>
        <time>2020-07-02T08:42:05Z</time>
      </trkpt>
      <trkpt lat="48.65126" lon="2.27271">
        <ele>85.3</ele>
        <time>2020-07-02T08:42:06Z</time>
      </trkpt>
      <trkpt lat="48.65122" lon="2.2727">
        <ele>85.3</ele>
        <time>2020-07-02T08:42:07Z</time>
      </trkpt>
      <trkpt lat="48.65118" lon="2.27268">
        <ele>85.3</ele>
        <time>2020-07-02T08:42:08Z</time>
      </trkpt>
      <trkpt lat="48.65113" lon="2.27266">
        <ele>85.3</ele>
        <time>2020-07-02T08:42:09Z</time>
      </trkpt>
      <trkpt lat="48.65108" lon="2.27265">
        <ele>85.3</ele>
        <time>2020-07-02T08:42:10Z</time>
      </trkpt>
      <trkpt lat="48.65103" lon="2.27263">
        <ele>85.4</ele>
        <time>2020-07-02T08:42:11Z</time>
      </trkpt>
      <trkpt lat="48.65098" lon="2.2726">
        <ele>85.5</ele>
        <time>2020-07-02T08:42:12Z</time>
      </trkpt>
      <trkpt lat="48.65093" lon="2.27256">
        <ele>85.6</ele>
        <time>2020-07-02T08:42:13Z</time>
      </trkpt>
      <trkpt lat="48.65088" lon="2.27253">
        <ele>85.6</ele>
        <time>2020-07-02T08:42:14Z</time>
      </trkpt>
      <trkpt lat="48.65084" lon="2.27251">
        <ele>85.7</ele>
        <time>2020-07-02T08:42:15Z</time>
      </trkpt>
      <trkpt lat="48.6508" lon="2.27249">
        <ele>85.8</ele>
        <time>2020-07-02T08:42:16Z</time>
      </trkpt>
      <trkpt lat="48.65076" lon="2.27248">
        <ele>85.9</ele>
        <time>2020-07-02T08:42:17Z</time>
      </trkpt>
      <trkpt lat="48.65071" lon="2.27246">
        <ele>86</ele>
        <time>2020-07-02T08:42:18Z</time>
      </trkpt>
      <trkpt lat="48.65066" lon="2.27244">
        <ele>86.2</ele>
        <time>2020-07-02T08:42:19Z</time>
      </trkpt>
      <trkpt lat="48.65062" lon="2.27243">
        <ele>86.3</ele>
        <time>2020-07-02T08:42:20Z</time>
      </trkpt>
      <trkpt lat="48.65057" lon="2.27241">
        <ele>86.4</ele>
        <time>2020-07-02T08:42:21Z</time>
      </trkpt>
      <trkpt lat="48.65053" lon="2.27239">
        <ele>86.6</ele>
        <time>2020-07-02T08:42:22Z</time>
      </trkpt>
      <trkpt lat="48.65049" lon="2.27238">
        <ele>86.7</ele>
        <time>2020-07-02T08:42:23Z</time>
      </trkpt>
      <trkpt lat="48.65044" lon="2.27237">
        <ele>86.9</ele>
        <time>2020-07-02T08:42:24Z</time>
      </trkpt>
      <trkpt lat="48.65039" lon="2.27236">
        <ele>87.1</ele>
        <time>2020-07-02T08:42:25Z</time>
      </trkpt>
      <trkpt lat="48.65034" lon="2.27234">
        <ele>87.2</ele>
        <time>2020-07-02T08:42:26Z</time>
      </trkpt>
      <trkpt lat="48.6503" lon="2.27232">
        <ele>87.3</ele>
        <time>2020-07-02T08:42:27Z</time>
      </trkpt>
      <trkpt lat="48.65027" lon="2.2723">
        <ele>87.5</ele>
        <time>2020-07-02T08:42:28Z</time>
      </trkpt>
      <trkpt lat="48.65023" lon="2.27228">
        <ele>87.6</ele>
        <time>2020-07-02T08:42:29Z</time>
      </trkpt>
      <trkpt lat="48.65019" lon="2.27226">
        <ele>87.8</ele>
        <time>2020-07-02T08:42:30Z</time>
      </trkpt>
      <trkpt lat="48.65016" lon="2.27225">
        <ele>87.9</ele>
        <time>2020-07-02T08:42:31Z</time>
      </trkpt>
      <trkpt lat="48.65012" lon="2.27223">
        <ele>88.1</ele>
        <time>2020-07-02T08:42:32Z</time>
      </trkpt>
      <trkpt lat="48.65008" lon="2.27222">
        <ele>88.3</ele>
        <time>2020-07-02T08:42:33Z</time>
      </trkpt>
      <trkpt lat="48.65004" lon="2.27221">
        <ele>88.4</ele>
        <time>2020-07-02T08:42:34Z</time>
      </trkpt>
      <trkpt lat="48.65" lon="2.27219">
        <ele>88.6</ele>
        <time>2020-07-02T08:42:35Z</time>
      </trkpt>
      <trkpt lat="48.64997" lon="2.27218">
        <ele>88.8</ele>
        <time>2020-07-02T08:42:36Z</time>
      </trkpt>
      <trkpt lat="48.64993" lon="2.27217">
        <ele>89</ele>
        <time>2020-07-02T08:42:37Z</time>
      </trkpt>
      <trkpt lat="48.64989" lon="2.27215">
        <ele>89.1</ele>
        <time>2020-07-02T08:42:38Z</time>
      </trkpt>
      <trkpt lat="48.64986" lon="2.27213">
        <ele>89.3</ele>
        <time>2020-07-02T08:42:39Z</time>
      </trkpt>
      <trkpt lat="48.64983" lon="2.27212">
        <ele>89.4</ele>
        <time>2020-07-02T08:42:40Z</time>
      </trkpt>
      <trkpt lat="48.6498" lon="2.27211">
        <ele>89.5</ele>
        <time>2020-07-02T08:42:41Z</time>
      </trkpt>
      <trkpt lat="48.64977" lon="2.27209">
        <ele>89.6</ele>
        <time>2020-07-02T08:42:42Z</time>
      </trkpt>
      <trkpt lat="48.64974" lon="2.27208">
        <ele>89.8</ele>
        <time>2020-07-02T08:42:43Z</time>
      </trkpt>
      <trkpt lat="48.64971" lon="2.27207">
        <ele>89.9</ele>
        <time>2020-07-02T08:42:44Z</time>
      </trkpt>
      <trkpt lat="48.64968" lon="2.27206">
        <ele>90.1</ele>
        <time>2020-07-02T08:42:45Z</time>
      </trkpt>
      <trkpt lat="48.64964" lon="2.27204">
        <ele>90.2</ele>
        <time>2020-07-02T08:42:46Z</time>
      </trkpt>
      <trkpt lat="48.64961" lon="2.27202">
        <ele>90.4</ele>
        <time>2020-07-02T08:42:47Z</time>
      </trkpt>
      <trkpt lat="48.64957" lon="2.272">
        <ele>90.6</ele>
        <time>2020-07-02T08:42:48Z</time>
      </trkpt>
      <trkpt lat="48.64954" lon="2.272">
        <ele>90.7</ele>
        <time>2020-07-02T08:42:49Z</time>
      </trkpt>
      <trkpt lat="48.6495" lon="2.27198">
        <ele>90.9</ele>
        <time>2020-07-02T08:42:50Z</time>
      </trkpt>
      <trkpt lat="48.64947" lon="2.27196">
        <ele>91</ele>
        <time>2020-07-02T08:42:51Z</time>
      </trkpt>
      <trkpt lat="48.64945" lon="2.27194">
        <ele>91.2</ele>
        <time>2020-07-02T08:42:52Z</time>
      </trkpt>
      <trkpt lat="48.64942" lon="2.27191">
        <ele>91.3</ele>
        <time>2020-07-02T08:42:53Z</time>
      </trkpt>
      <trkpt lat="48.64939" lon="2.27189">
        <ele>91.5</ele>
        <time>2020-07-02T08:42:54Z</time>
      </trkpt>
      <trkpt lat="48.64936" lon="2.27188">
        <ele>91.8</ele>
        <time>2020-07-02T08:42:55Z</time>
      </trkpt>
      <trkpt lat="48.6493" lon="2.27187">
        <ele>92.1</ele>
        <time>2020-07-02T08:42:56Z</time>
      </trkpt>
      <trkpt lat="48.64926" lon="2.27187">
        <ele>92.3</ele>
        <time>2020-07-02T08:42:57Z</time>
      </trkpt>
      <trkpt lat="48.64923" lon="2.27185">
        <ele>92.5</ele>
        <time>2020-07-02T08:42:58Z</time>
      </trkpt>
      <trkpt lat="48.64919" lon="2.27183">
        <ele>92.7</ele>
        <time>2020-07-02T08:42:59Z</time>
      </trkpt>
      <trkpt lat="48.64915" lon="2.27181">
        <ele>92.9</ele>
        <time>2020-07-02T08:43:00Z</time>
      </trkpt>
      <trkpt lat="48.64911" lon="2.2718">
        <ele>93</ele>
        <time>2020-07-02T08:43:01Z</time>
      </trkpt>
      <trkpt lat="48.64907" lon="2.27179">
        <ele>93.2</ele>
        <time>2020-07-02T08:43:02Z</time>
      </trkpt>
      <trkpt lat="48.64904" lon="2.27178">
        <ele>93.4</ele>
        <time>2020-07-02T08:43:03Z</time>
      </trkpt>
      <trkpt lat="48.649" lon="2.27177">
        <ele>93.6</ele>
        <time>2020-07-02T08:43:04Z</time>
      </trkpt>
      <trkpt lat="48.64897" lon="2.27176">
        <ele>93.8</ele>
        <time>2020-07-02T08:43:05Z</time>
      </trkpt>
      <trkpt lat="48.64893" lon="2.27174">
        <ele>94</ele>
        <time>2020-07-02T08:43:06Z</time>
      </trkpt>
      <trkpt lat="48.6489" lon="2.27172">
        <ele>94.1</ele>
        <time>2020-07-02T08:43:07Z</time>
      </trkpt>
      <trkpt lat="48.64887" lon="2.27171">
        <ele>94.2</ele>
        <time>2020-07-02T08:43:08Z</time>
      </trkpt>
      <trkpt lat="48.64884" lon="2.2717">
        <ele>94.3</ele>
        <time>2020-07-02T08:43:09Z</time>
      </trkpt>
      <trkpt lat="48.6488" lon="2.27169">
        <ele>94.5</ele>
        <time>2020-07-02T08:43:10Z</time>
      </trkpt>
      <trkpt lat="48.64876" lon="2.27168">
        <ele>94.6</ele>
        <time>2020-07-02T08:43:11Z</time>
      </trkpt>
      <trkpt lat="48.64872" lon="2.27167">
        <ele>94.8</ele>
        <time>2020-07-02T08:43:12Z</time>
      </trkpt>
      <trkpt lat="48.64868" lon="2.27166">
        <ele>94.9</ele>
        <time>2020-07-02T08:43:13Z</time>
      </trkpt>
      <trkpt lat="48.64864" lon="2.27165">
        <ele>95.1</ele>
        <time>2020-07-02T08:43:14Z</time>
      </trkpt>
      <trkpt lat="48.6486" lon="2.27165">
        <ele>95.2</ele>
        <time>2020-07-02T08:43:15Z</time>
      </trkpt>
      <trkpt lat="48.64856" lon="2.27164">
        <ele>95.4</ele>
        <time>2020-07-02T08:43:16Z</time>
      </trkpt>
      <trkpt lat="48.64852" lon="2.27162">
        <ele>95.5</ele>
        <time>2020-07-02T08:43:17Z</time>
      </trkpt>
      <trkpt lat="48.64847" lon="2.27161">
        <ele>95.7</ele>
        <time>2020-07-02T08:43:18Z</time>
      </trkpt>
      <trkpt lat="48.64843" lon="2.27159">
        <ele>95.8</ele>
        <time>2020-07-02T08:43:19Z</time>
      </trkpt>
      <trkpt lat="48.64839" lon="2.27159">
        <ele>95.9</ele>
        <time>2020-07-02T08:43:20Z</time>
      </trkpt>
      <trkpt lat="48.64835" lon="2.27157">
        <ele>96</ele>
        <time>2020-07-02T08:43:21Z</time>
      </trkpt>
      <trkpt lat="48.64831" lon="2.27155">
        <ele>96.1</ele>
        <time>2020-07-02T08:43:22Z</time>
      </trkpt>
      <trkpt lat="48.64827" lon="2.27153">
        <ele>96.2</ele>
        <time>2020-07-02T08:43:23Z</time>
      </trkpt>
      <trkpt lat="48.64823" lon="2.27151">
        <ele>96.3</ele>
        <time>2020-07-02T08:43:24Z</time>
      </trkpt>
      <trkpt lat="48.64818" lon="2.27149">
        <ele>96.4</ele>
        <time>2020-07-02T08:43:25Z</time>
      </trkpt>
      <trkpt lat="48.64814" lon="2.27147">
        <ele>96.5</ele>
        <time>2020-07-02T08:43:26Z</time>
      </trkpt>
      <trkpt lat="48.64809" lon="2.27148">
        <ele>96.6</ele>
        <time>2020-07-02T08:43:27Z</time>
      </trkpt>
      <trkpt lat="48.64805" lon="2.27147">
        <ele>96.7</ele>
        <time>2020-07-02T08:43:28Z</time>
      </trkpt>
      <trkpt lat="48.648" lon="2.27146">
        <ele>96.7</ele>
        <time>2020-07-02T08:43:29Z</time>
      </trkpt>
      <trkpt lat="48.64796" lon="2.27145">
        <ele>96.7</ele>
        <time>2020-07-02T08:43:30Z</time>
      </trkpt>
      <trkpt lat="48.64792" lon="2.27143">
        <ele>96.8</ele>
        <time>2020-07-02T08:43:31Z</time>
      </trkpt>
      <trkpt lat="48.64787" lon="2.27141">
        <ele>96.8</ele>
        <time>2020-07-02T08:43:32Z</time>
      </trkpt>
      <trkpt lat="48.64782" lon="2.27139">
        <ele>96.8</ele>
        <time>2020-07-02T08:43:33Z</time>
      </trkpt>
      <trkpt lat="48.64777" lon="2.27137">
        <ele>96.8</ele>
        <time>2020-07-02T08:43:34Z</time>
      </trkpt>
      <trkpt lat="48.64773" lon="2.27135">
        <ele>96.8</ele>
        <time>2020-07-02T08:43:35Z</time>
      </trkpt>
      <trkpt lat="48.64769" lon="2.27134">
        <ele>96.8</ele>
        <time>2020-07-02T08:43:36Z</time>
      </trkpt>
      <trkpt lat="48.64764" lon="2.27131">
        <ele>96.9</ele>
        <time>2020-07-02T08:43:37Z</time>
      </trkpt>
      <trkpt lat="48.64761" lon="2.2713">
        <ele>96.9</ele>
        <time>2020-07-02T08:43:38Z</time>
      </trkpt>
      <trkpt lat="48.64757" lon="2.27128">
        <ele>96.9</ele>
        <time>2020-07-02T08:43:39Z</time>
      </trkpt>
      <trkpt lat="48.64754" lon="2.27127">
        <ele>96.8</ele>
        <time>2020-07-02T08:43:40Z</time>
      </trkpt>
      <trkpt lat="48.64751" lon="2.27125">
        <ele>96.8</ele>
        <time>2020-07-02T08:43:41Z</time>
      </trkpt>
      <trkpt lat="48.64747" lon="2.27123">
        <ele>96.8</ele>
        <time>2020-07-02T08:43:42Z</time>
      </trkpt>
      <trkpt lat="48.64744" lon="2.27121">
        <ele>96.8</ele>
        <time>2020-07-02T08:43:43Z</time>
      </trkpt>
      <trkpt lat="48.64741" lon="2.27119">
        <ele>96.8</ele>
        <time>2020-07-02T08:43:44Z</time>
      </trkpt>
      <trkpt lat="48.64738" lon="2.27117">
        <ele>96.8</ele>
        <time>2020-07-02T08:43:45Z</time>
      </trkpt>
      <trkpt lat="48.64735" lon="2.27116">
        <ele>96.8</ele>
        <time>2020-07-02T08:43:46Z</time>
      </trkpt>
      <trkpt lat="48.64731" lon="2.27114">
        <ele>96.8</ele>
        <time>2020-07-02T08:43:47Z</time>
      </trkpt>
      <trkpt lat="48.64727" lon="2.27112">
        <ele>96.8</ele>
        <time>2020-07-02T08:43:48Z</time>
      </trkpt>
      <trkpt lat="48.64721" lon="2.27111">
        <ele>96.7</ele>
        <time>2020-07-02T08:43:49Z</time>
      </trkpt>
      <trkpt lat="48.64716" lon="2.27109">
        <ele>96.7</ele>
        <time>2020-07-02T08:43:50Z</time>
      </trkpt>
      <trkpt lat="48.64712" lon="2.27107">
        <ele>96.7</ele>
        <time>2020-07-02T08:43:51Z</time>
      </trkpt>
      <trkpt lat="48.64707" lon="2.27105">
        <ele>96.6</ele>
        <time>2020-07-02T08:43:52Z</time>
      </trkpt>
      <trkpt lat="48.64702" lon="2.27102">
        <ele>96.6</ele>
        <time>2020-07-02T08:43:53Z</time>
      </trkpt>
      <trkpt lat="48.64697" lon="2.271">
        <ele>96.5</ele>
        <time>2020-07-02T08:43:54Z</time>
      </trkpt>
      <trkpt lat="48.64692" lon="2.27098">
        <ele>96.5</ele>
        <time>2020-07-02T08:43:55Z</time>
      </trkpt>
      <trkpt lat="48.64687" lon="2.27096">
        <ele>96.4</ele>
        <time>2020-07-02T08:43:56Z</time>
      </trkpt>
      <trkpt lat="48.64682" lon="2.27094">
        <ele>96.3</ele>
        <time>2020-07-02T08:43:57Z</time>
      </trkpt>
      <trkpt lat="48.64677" lon="2.27092">
        <ele>96.3</ele>
        <time>2020-07-02T08:43:58Z</time>
      </trkpt>
      <trkpt lat="48.64673" lon="2.27089">
        <ele>96.2</ele>
        <time>2020-07-02T08:43:59Z</time>
      </trkpt>
      <trkpt lat="48.64668" lon="2.27087">
        <ele>96.1</ele>
        <time>2020-07-02T08:44:00Z</time>
      </trkpt>
      <trkpt lat="48.64663" lon="2.27086">
        <ele>96.1</ele>
        <time>2020-07-02T08:44:01Z</time>
      </trkpt>
      <trkpt lat="48.64658" lon="2.27084">
        <ele>96.1</ele>
        <time>2020-07-02T08:44:02Z</time>
      </trkpt>
      <trkpt lat="48.64654" lon="2.27082">
        <ele>96.1</ele>
        <time>2020-07-02T08:44:03Z</time>
      </trkpt>
      <trkpt lat="48.6465" lon="2.2708">
        <ele>96.1</ele>
        <time>2020-07-02T08:44:04Z</time>
      </trkpt>
      <trkpt lat="48.64645" lon="2.27078">
        <ele>96.1</ele>
        <time>2020-07-02T08:44:05Z</time>
      </trkpt>
      <trkpt lat="48.64641" lon="2.27076">
        <ele>96.1</ele>
        <time>2020-07-02T08:44:06Z</time>
      </trkpt>
      <trkpt lat="48.64636" lon="2.27074">
        <ele>96.1</ele>
        <time>2020-07-02T08:44:07Z</time>
      </trkpt>
      <trkpt lat="48.64631" lon="2.27072">
        <ele>96.1</ele>
        <time>2020-07-02T08:44:08Z</time>
      </trkpt>
      <trkpt lat="48.64626" lon="2.2707">
        <ele>96</ele>
        <time>2020-07-02T08:44:09Z</time>
      </trkpt>
      <trkpt lat="48.64621" lon="2.27068">
        <ele>96</ele>
        <time>2020-07-02T08:44:10Z</time>
      </trkpt>
      <trkpt lat="48.64616" lon="2.27066">
        <ele>95.9</ele>
        <time>2020-07-02T08:44:11Z</time>
      </trkpt>
      <trkpt lat="48.64611" lon="2.27065">
        <ele>95.8</ele>
        <time>2020-07-02T08:44:12Z</time>
      </trkpt>
      <trkpt lat="48.64605" lon="2.27064">
        <ele>95.8</ele>
        <time>2020-07-02T08:44:13Z</time>
      </trkpt>
      <trkpt lat="48.64601" lon="2.27063">
        <ele>95.7</ele>
        <time>2020-07-02T08:44:14Z</time>
      </trkpt>
      <trkpt lat="48.64597" lon="2.27061">
        <ele>95.7</ele>
        <time>2020-07-02T08:44:15Z</time>
      </trkpt>
      <trkpt lat="48.64593" lon="2.2706">
        <ele>95.6</ele>
        <time>2020-07-02T08:44:16Z</time>
      </trkpt>
      <trkpt lat="48.64589" lon="2.27059">
        <ele>95.6</ele>
        <time>2020-07-02T08:44:17Z</time>
      </trkpt>
      <trkpt lat="48.64584" lon="2.27057">
        <ele>95.5</ele>
        <time>2020-07-02T08:44:18Z</time>
      </trkpt>
      <trkpt lat="48.6458" lon="2.27055">
        <ele>95.4</ele>
        <time>2020-07-02T08:44:19Z</time>
      </trkpt>
      <trkpt lat="48.64576" lon="2.27053">
        <ele>95.3</ele>
        <time>2020-07-02T08:44:20Z</time>
      </trkpt>
      <trkpt lat="48.64572" lon="2.27051">
        <ele>95.3</ele>
        <time>2020-07-02T08:44:21Z</time>
      </trkpt>
      <trkpt lat="48.64568" lon="2.2705">
        <ele>95.2</ele>
        <time>2020-07-02T08:44:22Z</time>
      </trkpt>
      <trkpt lat="48.64563" lon="2.27048">
        <ele>95.1</ele>
        <time>2020-07-02T08:44:23Z</time>
      </trkpt>
      <trkpt lat="48.64559" lon="2.27046">
        <ele>95.1</ele>
        <time>2020-07-02T08:44:24Z</time>
      </trkpt>
      <trkpt lat="48.64554" lon="2.27044">
        <ele>95</ele>
        <time>2020-07-02T08:44:25Z</time>
      </trkpt>
      <trkpt lat="48.6455" lon="2.27043">
        <ele>94.9</ele>
        <time>2020-07-02T08:44:26Z</time>
      </trkpt>
      <trkpt lat="48.64546" lon="2.27042">
        <ele>94.9</ele>
        <time>2020-07-02T08:44:27Z</time>
      </trkpt>
      <trkpt lat="48.64541" lon="2.2704">
        <ele>94.8</ele>
        <time>2020-07-02T08:44:28Z</time>
      </trkpt>
      <trkpt lat="48.64536" lon="2.27039">
        <ele>94.7</ele>
        <time>2020-07-02T08:44:29Z</time>
      </trkpt>
      <trkpt lat="48.64531" lon="2.27037">
        <ele>94.6</ele>
        <time>2020-07-02T08:44:30Z</time>
      </trkpt>
      <trkpt lat="48.64527" lon="2.27035">
        <ele>94.6</ele>
        <time>2020-07-02T08:44:31Z</time>
      </trkpt>
      <trkpt lat="48.64522" lon="2.27033">
        <ele>94.5</ele>
        <time>2020-07-02T08:44:32Z</time>
      </trkpt>
      <trkpt lat="48.64518" lon="2.27032">
        <ele>94.5</ele>
        <time>2020-07-02T08:44:33Z</time>
      </trkpt>
      <trkpt lat="48.64513" lon="2.27029">
        <ele>94.4</ele>
        <time>2020-07-02T08:44:34Z</time>
      </trkpt>
      <trkpt lat="48.64508" lon="2.27027">
        <ele>94.4</ele>
        <time>2020-07-02T08:44:35Z</time>
      </trkpt>
      <trkpt lat="48.64503" lon="2.27025">
        <ele>94.3</ele>
        <time>2020-07-02T08:44:36Z</time>
      </trkpt>
      <trkpt lat="48.64497" lon="2.27023">
        <ele>94.3</ele>
        <time>2020-07-02T08:44:37Z</time>
      </trkpt>
      <trkpt lat="48.64492" lon="2.2702">
        <ele>94.3</ele>
        <time>2020-07-02T08:44:38Z</time>
      </trkpt>
      <trkpt lat="48.64487" lon="2.27017">
        <ele>94.2</ele>
        <time>2020-07-02T08:44:39Z</time>
      </trkpt>
      <trkpt lat="48.64481" lon="2.27015">
        <ele>94.2</ele>
        <time>2020-07-02T08:44:40Z</time>
      </trkpt>
      <trkpt lat="48.64476" lon="2.27013">
        <ele>94.2</ele>
        <time>2020-07-02T08:44:41Z</time>
      </trkpt>
      <trkpt lat="48.64471" lon="2.27011">
        <ele>94.2</ele>
        <time>2020-07-02T08:44:42Z</time>
      </trkpt>
      <trkpt lat="48.64466" lon="2.27009">
        <ele>94.1</ele>
        <time>2020-07-02T08:44:43Z</time>
      </trkpt>
      <trkpt lat="48.64461" lon="2.27007">
        <ele>94.1</ele>
        <time>2020-07-02T08:44:44Z</time>
      </trkpt>
      <trkpt lat="48.64456" lon="2.27006">
        <ele>94</ele>
        <time>2020-07-02T08:44:45Z</time>
      </trkpt>
      <trkpt lat="48.64451" lon="2.27004">
        <ele>94</ele>
        <time>2020-07-02T08:44:46Z</time>
      </trkpt>
      <trkpt lat="48.64446" lon="2.27003">
        <ele>94</ele>
        <time>2020-07-02T08:44:47Z</time>
      </trkpt>
      <trkpt lat="48.64442" lon="2.27003">
        <ele>93.9</ele>
        <time>2020-07-02T08:44:48Z</time>
      </trkpt>
      <trkpt lat="48.64437" lon="2.27001">
        <ele>93.9</ele>
        <time>2020-07-02T08:44:49Z</time>
      </trkpt>
      <trkpt lat="48.64432" lon="2.27">
        <ele>93.9</ele>
        <time>2020-07-02T08:44:50Z</time>
      </trkpt>
      <trkpt lat="48.64428" lon="2.26998">
        <ele>93.8</ele>
        <time>2020-07-02T08:44:51Z</time>
      </trkpt>
      <trkpt lat="48.64423" lon="2.26996">
        <ele>93.8</ele>
        <time>2020-07-02T08:44:52Z</time>
      </trkpt>
      <trkpt lat="48.64419" lon="2.26995">
        <ele>93.7</ele>
        <time>2020-07-02T08:44:53Z</time>
      </trkpt>
      <trkpt lat="48.64414" lon="2.26994">
        <ele>93.6</ele>
        <time>2020-07-02T08:44:54Z</time>
      </trkpt>
      <trkpt lat="48.64409" lon="2.26991">
        <ele>93.5</ele>
        <time>2020-07-02T08:44:55Z</time>
      </trkpt>
      <trkpt lat="48.64405" lon="2.26988">
        <ele>93.4</ele>
        <time>2020-07-02T08:44:56Z</time>
      </trkpt>
      <trkpt lat="48.64401" lon="2.26985">
        <ele>93.3</ele>
        <time>2020-07-02T08:44:57Z</time>
      </trkpt>
      <trkpt lat="48.64397" lon="2.26984">
        <ele>93.1</ele>
        <time>2020-07-02T08:44:58Z</time>
      </trkpt>
      <trkpt lat="48.64394" lon="2.26984">
        <ele>93</ele>
        <time>2020-07-02T08:44:59Z</time>
      </trkpt>
      <trkpt lat="48.64393" lon="2.26985">
        <ele>93</ele>
        <time>2020-07-02T08:45:00Z</time>
      </trkpt>
      <trkpt lat="48.64391" lon="2.26988">
        <ele>92.9</ele>
        <time>2020-07-02T08:45:01Z</time>
      </trkpt>
      <trkpt lat="48.64391" lon="2.2699">
        <ele>92.9</ele>
        <time>2020-07-02T08:45:02Z</time>
      </trkpt>
      <trkpt lat="48.64389" lon="2.26994">
        <ele>92.8</ele>
        <time>2020-07-02T08:45:03Z</time>
      </trkpt>
      <trkpt lat="48.64388" lon="2.26994">
        <ele>92.8</ele>
        <time>2020-07-02T08:45:04Z</time>
      </trkpt>
      <trkpt lat="48.64386" lon="2.26998">
        <ele>92.8</ele>
        <time>2020-07-02T08:45:05Z</time>
      </trkpt>
      <trkpt lat="48.64385" lon="2.26998">
        <ele>92.8</ele>
        <time>2020-07-02T08:45:06Z</time>
      </trkpt>
      <trkpt lat="48.64384" lon="2.26996">
        <ele>92.7</ele>
        <time>2020-07-02T08:45:07Z</time>
      </trkpt>
      <trkpt lat="48.64383" lon="2.26993">
        <ele>92.7</ele>
        <time>2020-07-02T08:45:08Z</time>
      </trkpt>
      <trkpt lat="48.64382" lon="2.26988">
        <ele>92.7</ele>
        <time>2020-07-02T08:45:09Z</time>
      </trkpt>
      <trkpt lat="48.64382" lon="2.26987">
        <ele>92.7</ele>
        <time>2020-07-02T08:45:10Z</time>
      </trkpt>
      <trkpt lat="48.64382" lon="2.26984">
        <ele>92.6</ele>
        <time>2020-07-02T08:45:11Z</time>
      </trkpt>
      <trkpt lat="48.64383" lon="2.26983">
        <ele>92.6</ele>
        <time>2020-07-02T08:45:12Z</time>
      </trkpt>
      <trkpt lat="48.64383" lon="2.26981">
        <ele>92.6</ele>
        <time>2020-07-02T08:45:13Z</time>
      </trkpt>
      <trkpt lat="48.64382" lon="2.2698">
        <ele>92.6</ele>
        <time>2020-07-02T08:45:14Z</time>
      </trkpt>
      <trkpt lat="48.64381" lon="2.26979">
        <ele>92.6</ele>
        <time>2020-07-02T08:45:15Z</time>
      </trkpt>
      <trkpt lat="48.64377" lon="2.26979">
        <ele>92.5</ele>
        <time>2020-07-02T08:45:16Z</time>
      </trkpt>
      <trkpt lat="48.64376" lon="2.26978">
        <ele>92.5</ele>
        <time>2020-07-02T08:45:17Z</time>
      </trkpt>
      <trkpt lat="48.64373" lon="2.26977">
        <ele>92.4</ele>
        <time>2020-07-02T08:45:18Z</time>
      </trkpt>
      <trkpt lat="48.6437" lon="2.26975">
        <ele>92.4</ele>
        <time>2020-07-02T08:45:19Z</time>
      </trkpt>
      <trkpt lat="48.64367" lon="2.26975">
        <ele>92.3</ele>
        <time>2020-07-02T08:45:20Z</time>
      </trkpt>
      <trkpt lat="48.64364" lon="2.26974">
        <ele>92.2</ele>
        <time>2020-07-02T08:45:21Z</time>
      </trkpt>
      <trkpt lat="48.64361" lon="2.26973">
        <ele>92.2</ele>
        <time>2020-07-02T08:45:22Z</time>
      </trkpt>
      <trkpt lat="48.64357" lon="2.26971">
        <ele>92.1</ele>
        <time>2020-07-02T08:45:23Z</time>
      </trkpt>
      <trkpt lat="48.64355" lon="2.26969">
        <ele>92</ele>
        <time>2020-07-02T08:45:24Z</time>
      </trkpt>
      <trkpt lat="48.64351" lon="2.26967">
        <ele>91.9</ele>
        <time>2020-07-02T08:45:25Z</time>
      </trkpt>
      <trkpt lat="48.64348" lon="2.26965">
        <ele>91.8</ele>
        <time>2020-07-02T08:45:26Z</time>
      </trkpt>
      <trkpt lat="48.64345" lon="2.26965">
        <ele>91.7</ele>
        <time>2020-07-02T08:45:27Z</time>
      </trkpt>
      <trkpt lat="48.64341" lon="2.26963">
        <ele>91.6</ele>
        <time>2020-07-02T08:45:28Z</time>
      </trkpt>
      <trkpt lat="48.64337" lon="2.2696">
        <ele>91.4</ele>
        <time>2020-07-02T08:45:29Z</time>
      </trkpt>
      <trkpt lat="48.64333" lon="2.26959">
        <ele>91.3</ele>
        <time>2020-07-02T08:45:30Z</time>
      </trkpt>
      <trkpt lat="48.64329" lon="2.26959">
        <ele>91.2</ele>
        <time>2020-07-02T08:45:31Z</time>
      </trkpt>
      <trkpt lat="48.64325" lon="2.26957">
        <ele>91.1</ele>
        <time>2020-07-02T08:45:32Z</time>
      </trkpt>
      <trkpt lat="48.64322" lon="2.26955">
        <ele>91</ele>
        <time>2020-07-02T08:45:33Z</time>
      </trkpt>
      <trkpt lat="48.64318" lon="2.26954">
        <ele>90.9</ele>
        <time>2020-07-02T08:45:34Z</time>
      </trkpt>
      <trkpt lat="48.64315" lon="2.26952">
        <ele>90.8</ele>
        <time>2020-07-02T08:45:35Z</time>
      </trkpt>
      <trkpt lat="48.64311" lon="2.26951">
        <ele>90.6</ele>
        <time>2020-07-02T08:45:36Z</time>
      </trkpt>
      <trkpt lat="48.64308" lon="2.26951">
        <ele>90.5</ele>
        <time>2020-07-02T08:45:37Z</time>
      </trkpt>
      <trkpt lat="48.64305" lon="2.2695">
        <ele>90.4</ele>
        <time>2020-07-02T08:45:38Z</time>
      </trkpt>
      <trkpt lat="48.64301" lon="2.26948">
        <ele>90.3</ele>
        <time>2020-07-02T08:45:39Z</time>
      </trkpt>
      <trkpt lat="48.64298" lon="2.26946">
        <ele>90.2</ele>
        <time>2020-07-02T08:45:40Z</time>
      </trkpt>
      <trkpt lat="48.64295" lon="2.26943">
        <ele>90.1</ele>
        <time>2020-07-02T08:45:41Z</time>
      </trkpt>
      <trkpt lat="48.64292" lon="2.26941">
        <ele>90</ele>
        <time>2020-07-02T08:45:42Z</time>
      </trkpt>
      <trkpt lat="48.64289" lon="2.26941">
        <ele>89.9</ele>
        <time>2020-07-02T08:45:43Z</time>
      </trkpt>
      <trkpt lat="48.64286" lon="2.2694">
        <ele>89.8</ele>
        <time>2020-07-02T08:45:44Z</time>
      </trkpt>
      <trkpt lat="48.64282" lon="2.26939">
        <ele>89.7</ele>
        <time>2020-07-02T08:45:45Z</time>
      </trkpt>
      <trkpt lat="48.64278" lon="2.26937">
        <ele>89.5</ele>
        <time>2020-07-02T08:45:46Z</time>
      </trkpt>
      <trkpt lat="48.64274" lon="2.26935">
        <ele>89.4</ele>
        <time>2020-07-02T08:45:47Z</time>
      </trkpt>
      <trkpt lat="48.64271" lon="2.26934">
        <ele>89.3</ele>
        <time>2020-07-02T08:45:48Z</time>
      </trkpt>
      <trkpt lat="48.64267" lon="2.26933">
        <ele>89.2</ele>
        <time>2020-07-02T08:45:49Z</time>
      </trkpt>
      <trkpt lat="48.64263" lon="2.26932">
        <ele>89.1</ele>
        <time>2020-07-02T08:45:50Z</time>
      </trkpt>
      <trkpt lat="48.64257" lon="2.26931">
        <ele>88.9</ele>
        <time>2020-07-02T08:45:51Z</time>
      </trkpt>
      <trkpt lat="48.64252" lon="2.2693">
        <ele>88.8</ele>
        <time>2020-07-02T08:45:52Z</time>
      </trkpt>
      <trkpt lat="48.64248" lon="2.26929">
        <ele>88.6</ele>
        <time>2020-07-02T08:45:53Z</time>
      </trkpt>
      <trkpt lat="48.64243" lon="2.26927">
        <ele>88.5</ele>
        <time>2020-07-02T08:45:54Z</time>
      </trkpt>
      <trkpt lat="48.6424" lon="2.26925">
        <ele>88.4</ele>
        <time>2020-07-02T08:45:55Z</time>
      </trkpt>
      <trkpt lat="48.64236" lon="2.26923">
        <ele>88.3</ele>
        <time>2020-07-02T08:45:56Z</time>
      </trkpt>
      <trkpt lat="48.64232" lon="2.26922">
        <ele>88.2</ele>
        <time>2020-07-02T08:45:57Z</time>
      </trkpt>
      <trkpt lat="48.64228" lon="2.26921">
        <ele>88.1</ele>
        <time>2020-07-02T08:45:58Z</time>
      </trkpt>
      <trkpt lat="48.64225" lon="2.26919">
        <ele>88</ele>
        <time>2020-07-02T08:45:59Z</time>
      </trkpt>
      <trkpt lat="48.64221" lon="2.26919">
        <ele>87.8</ele>
        <time>2020-07-02T08:46:00Z</time>
      </trkpt>
      <trkpt lat="48.64217" lon="2.26917">
        <ele>87.7</ele>
        <time>2020-07-02T08:46:01Z</time>
      </trkpt>
      <trkpt lat="48.64214" lon="2.26916">
        <ele>87.6</ele>
        <time>2020-07-02T08:46:02Z</time>
      </trkpt>
      <trkpt lat="48.6421" lon="2.26915">
        <ele>87.4</ele>
        <time>2020-07-02T08:46:03Z</time>
      </trkpt>
      <trkpt lat="48.64207" lon="2.26915">
        <ele>87.3</ele>
        <time>2020-07-02T08:46:04Z</time>
      </trkpt>
      <trkpt lat="48.64203" lon="2.26914">
        <ele>87.2</ele>
        <time>2020-07-02T08:46:05Z</time>
      </trkpt>
      <trkpt lat="48.642" lon="2.26913">
        <ele>87.1</ele>
        <time>2020-07-02T08:46:06Z</time>
      </trkpt>
      <trkpt lat="48.64196" lon="2.26911">
        <ele>87</ele>
        <time>2020-07-02T08:46:07Z</time>
      </trkpt>
      <trkpt lat="48.64193" lon="2.2691">
        <ele>86.9</ele>
        <time>2020-07-02T08:46:08Z</time>
      </trkpt>
      <trkpt lat="48.6419" lon="2.26908">
        <ele>86.8</ele>
        <time>2020-07-02T08:46:09Z</time>
      </trkpt>
      <trkpt lat="48.64187" lon="2.26905">
        <ele>86.7</ele>
        <time>2020-07-02T08:46:10Z</time>
      </trkpt>
      <trkpt lat="48.64183" lon="2.26904">
        <ele>86.6</ele>
        <time>2020-07-02T08:46:11Z</time>
      </trkpt>
      <trkpt lat="48.64181" lon="2.26903">
        <ele>86.5</ele>
        <time>2020-07-02T08:46:12Z</time>
      </trkpt>
      <trkpt lat="48.64177" lon="2.26902">
        <ele>86.4</ele>
        <time>2020-07-02T08:46:13Z</time>
      </trkpt>
      <trkpt lat="48.64174" lon="2.269">
        <ele>86.3</ele>
        <time>2020-07-02T08:46:14Z</time>
      </trkpt>
      <trkpt lat="48.6417" lon="2.26899">
        <ele>86.2</ele>
        <time>2020-07-02T08:46:15Z</time>
      </trkpt>
      <trkpt lat="48.64167" lon="2.26897">
        <ele>86.1</ele>
        <time>2020-07-02T08:46:16Z</time>
      </trkpt>
      <trkpt lat="48.64163" lon="2.26896">
        <ele>86</ele>
        <time>2020-07-02T08:46:17Z</time>
      </trkpt>
      <trkpt lat="48.64162" lon="2.26896">
        <ele>86</ele>
        <time>2020-07-02T08:46:18Z</time>
      </trkpt>
      <trkpt lat="48.64158" lon="2.26896">
        <ele>85.9</ele>
        <time>2020-07-02T08:46:19Z</time>
      </trkpt>
      <trkpt lat="48.64156" lon="2.26895">
        <ele>85.8</ele>
        <time>2020-07-02T08:46:20Z</time>
      </trkpt>
      <trkpt lat="48.64153" lon="2.26894">
        <ele>85.7</ele>
        <time>2020-07-02T08:46:21Z</time>
      </trkpt>
      <trkpt lat="48.6415" lon="2.26892">
        <ele>85.6</ele>
        <time>2020-07-02T08:46:22Z</time>
      </trkpt>
      <trkpt lat="48.64147" lon="2.26892">
        <ele>85.6</ele>
        <time>2020-07-02T08:46:23Z</time>
      </trkpt>
      <trkpt lat="48.64144" lon="2.2689">
        <ele>85.5</ele>
        <time>2020-07-02T08:46:24Z</time>
      </trkpt>
      <trkpt lat="48.64141" lon="2.26887">
        <ele>85.4</ele>
        <time>2020-07-02T08:46:25Z</time>
      </trkpt>
      <trkpt lat="48.64137" lon="2.26885">
        <ele>85.3</ele>
        <time>2020-07-02T08:46:26Z</time>
      </trkpt>
      <trkpt lat="48.64134" lon="2.26883">
        <ele>85.2</ele>
        <time>2020-07-02T08:46:27Z</time>
      </trkpt>
      <trkpt lat="48.64131" lon="2.26881">
        <ele>85.2</ele>
        <time>2020-07-02T08:46:28Z</time>
      </trkpt>
      <trkpt lat="48.64126" lon="2.26879">
        <ele>85</ele>
        <time>2020-07-02T08:46:29Z</time>
      </trkpt>
      <trkpt lat="48.64123" lon="2.26878">
        <ele>85</ele>
        <time>2020-07-02T08:46:30Z</time>
      </trkpt>
      <trkpt lat="48.64119" lon="2.26876">
        <ele>84.9</ele>
        <time>2020-07-02T08:46:31Z</time>
      </trkpt>
      <trkpt lat="48.64118" lon="2.26876">
        <ele>84.8</ele>
        <time>2020-07-02T08:46:32Z</time>
      </trkpt>
      <trkpt lat="48.64116" lon="2.26874">
        <ele>84.8</ele>
        <time>2020-07-02T08:46:33Z</time>
      </trkpt>
      <trkpt lat="48.64112" lon="2.26872">
        <ele>84.7</ele>
        <time>2020-07-02T08:46:34Z</time>
      </trkpt>
      <trkpt lat="48.64108" lon="2.2687">
        <ele>84.6</ele>
        <time>2020-07-02T08:46:35Z</time>
      </trkpt>
      <trkpt lat="48.64103" lon="2.26867">
        <ele>84.5</ele>
        <time>2020-07-02T08:46:36Z</time>
      </trkpt>
      <trkpt lat="48.641" lon="2.26866">
        <ele>84.5</ele>
        <time>2020-07-02T08:46:37Z</time>
      </trkpt>
      <trkpt lat="48.64094" lon="2.26866">
        <ele>84.5</ele>
        <time>2020-07-02T08:46:38Z</time>
      </trkpt>
      <trkpt lat="48.64091" lon="2.26866">
        <ele>84.5</ele>
        <time>2020-07-02T08:46:39Z</time>
      </trkpt>
      <trkpt lat="48.64087" lon="2.26864">
        <ele>84.5</ele>
        <time>2020-07-02T08:46:40Z</time>
      </trkpt>
      <trkpt lat="48.64083" lon="2.26863">
        <ele>84.4</ele>
        <time>2020-07-02T08:46:41Z</time>
      </trkpt>
      <trkpt lat="48.6408" lon="2.26862">
        <ele>84.4</ele>
        <time>2020-07-02T08:46:42Z</time>
      </trkpt>
      <trkpt lat="48.64077" lon="2.2686">
        <ele>84.4</ele>
        <time>2020-07-02T08:46:43Z</time>
      </trkpt>
      <trkpt lat="48.64073" lon="2.26858">
        <ele>84.4</ele>
        <time>2020-07-02T08:46:44Z</time>
      </trkpt>
      <trkpt lat="48.64071" lon="2.26856">
        <ele>84.4</ele>
        <time>2020-07-02T08:46:45Z</time>
      </trkpt>
      <trkpt lat="48.64067" lon="2.26855">
        <ele>84.4</ele>
        <time>2020-07-02T08:46:46Z</time>
      </trkpt>
      <trkpt lat="48.64066" lon="2.26855">
        <ele>84.4</ele>
        <time>2020-07-02T08:46:47Z</time>
      </trkpt>
      <trkpt lat="48.64064" lon="2.26854">
        <ele>84.4</ele>
        <time>2020-07-02T08:46:48Z</time>
      </trkpt>
      <trkpt lat="48.6406" lon="2.26851">
        <ele>84.4</ele>
        <time>2020-07-02T08:46:49Z</time>
      </trkpt>
      <trkpt lat="48.64059" lon="2.2685">
        <ele>84.4</ele>
        <time>2020-07-02T08:46:50Z</time>
      </trkpt>
      <trkpt lat="48.64057" lon="2.26849">
        <ele>84.4</ele>
        <time>2020-07-02T08:46:51Z</time>
      </trkpt>
      <trkpt lat="48.64056" lon="2.26848">
        <ele>84.4</ele>
        <time>2020-07-02T08:46:52Z</time>
      </trkpt>
      <trkpt lat="48.64054" lon="2.26847">
        <ele>84.4</ele>
        <time>2020-07-02T08:46:53Z</time>
      </trkpt>
      <trkpt lat="48.64053" lon="2.26845">
        <ele>84.4</ele>
        <time>2020-07-02T08:46:54Z</time>
      </trkpt>
      <trkpt lat="48.64054" lon="2.26844">
        <ele>84.4</ele>
        <time>2020-07-02T08:46:55Z</time>
      </trkpt>
      <trkpt lat="48.64053" lon="2.26843">
        <ele>84.4</ele>
        <time>2020-07-02T08:46:56Z</time>
      </trkpt>
      <trkpt lat="48.64053" lon="2.2684">
        <ele>84.4</ele>
        <time>2020-07-02T08:46:57Z</time>
      </trkpt>
      <trkpt lat="48.64056" lon="2.26837">
        <ele>84.5</ele>
        <time>2020-07-02T08:46:58Z</time>
      </trkpt>
      <trkpt lat="48.64056" lon="2.26837">
        <ele>84.5</ele>
        <time>2020-07-02T08:46:59Z</time>
      </trkpt>
      <trkpt lat="48.64058" lon="2.26835">
        <ele>84.5</ele>
        <time>2020-07-02T08:47:00Z</time>
      </trkpt>
      <trkpt lat="48.64058" lon="2.26832">
        <ele>84.5</ele>
        <time>2020-07-02T08:47:01Z</time>
      </trkpt>
      <trkpt lat="48.64057" lon="2.26827">
        <ele>84.5</ele>
        <time>2020-07-02T08:47:02Z</time>
      </trkpt>
      <trkpt lat="48.64056" lon="2.26825">
        <ele>84.5</ele>
        <time>2020-07-02T08:47:03Z</time>
      </trkpt>
      <trkpt lat="48.64055" lon="2.26819">
        <ele>84.5</ele>
        <time>2020-07-02T08:47:04Z</time>
      </trkpt>
      <trkpt lat="48.64055" lon="2.26818">
        <ele>84.4</ele>
        <time>2020-07-02T08:47:05Z</time>
      </trkpt>
      <trkpt lat="48.64053" lon="2.26818">
        <ele>84.4</ele>
        <time>2020-07-02T08:47:06Z</time>
      </trkpt>
      <trkpt lat="48.64053" lon="2.26818">
        <ele>84.4</ele>
        <time>2020-07-02T08:47:07Z</time>
      </trkpt>
      <trkpt lat="48.64054" lon="2.26817">
        <ele>84.4</ele>
        <time>2020-07-02T08:47:08Z</time>
      </trkpt>
      <trkpt lat="48.64054" lon="2.26817">
        <ele>84.4</ele>
        <time>2020-07-02T08:47:09Z</time>
      </trkpt>
      <trkpt lat="48.64054" lon="2.26817">
        <ele>84.4</ele>
        <time>2020-07-02T08:47:10Z</time>
      </trkpt>
      <trkpt lat="48.64054" lon="2.26817">
        <ele>84.4</ele>
        <time>2020-07-02T08:47:11Z</time>
      </trkpt>
      <trkpt lat="48.64053" lon="2.26816">
        <ele>84.4</ele>
        <time>2020-07-02T08:47:12Z</time>
      </trkpt>
      <trkpt lat="48.64053" lon="2.26816">
        <ele>84.4</ele>
        <time>2020-07-02T08:47:13Z</time>
      </trkpt>
      <trkpt lat="48.64053" lon="2.26815">
        <ele>84.4</ele>
        <time>2020-07-02T08:47:14Z</time>
      </trkpt>
      <trkpt lat="48.64053" lon="2.26815">
        <ele>84.4</ele>
        <time>2020-07-02T08:47:15Z</time>
      </trkpt>
      <trkpt lat="48.64053" lon="2.26815">
        <ele>84.4</ele>
        <time>2020-07-02T08:47:16Z</time>
      </trkpt>
      <trkpt lat="48.64053" lon="2.26815">
        <ele>84.4</ele>
        <time>2020-07-02T08:47:17Z</time>
      </trkpt>
      <trkpt lat="48.64051" lon="2.26816">
        <ele>84.3</ele>
        <time>2020-07-02T08:47:36Z</time>
      </trkpt>
      <trkpt lat="48.6405" lon="2.26815">
        <ele>84.3</ele>
        <time>2020-07-02T08:47:37Z</time>
      </trkpt>
      <trkpt lat="48.64048" lon="2.26815">
        <ele>84.3</ele>
        <time>2020-07-02T08:47:38Z</time>
      </trkpt>
      <trkpt lat="48.64047" lon="2.26814">
        <ele>84.3</ele>
        <time>2020-07-02T08:47:39Z</time>
      </trkpt>
      <trkpt lat="48.64047" lon="2.26813">
        <ele>84.3</ele>
        <time>2020-07-02T08:47:40Z</time>
      </trkpt>
      <trkpt lat="48.64046" lon="2.26813">
        <ele>84.3</ele>
        <time>2020-07-02T08:47:41Z</time>
      </trkpt>
      <trkpt lat="48.64046" lon="2.26812">
        <ele>84.3</ele>
        <time>2020-07-02T08:47:42Z</time>
      </trkpt>
      <trkpt lat="48.64046" lon="2.26812">
        <ele>84.2</ele>
        <time>2020-07-02T08:47:43Z</time>
      </trkpt>
      <trkpt lat="48.64044" lon="2.26812">
        <ele>84.2</ele>
        <time>2020-07-02T08:47:44Z</time>
      </trkpt>
      <trkpt lat="48.64043" lon="2.2681">
        <ele>84.2</ele>
        <time>2020-07-02T08:47:45Z</time>
      </trkpt>
      <trkpt lat="48.64041" lon="2.26806">
        <ele>84.1</ele>
        <time>2020-07-02T08:47:46Z</time>
      </trkpt>
      <trkpt lat="48.64041" lon="2.26804">
        <ele>84.1</ele>
        <time>2020-07-02T08:47:47Z</time>
      </trkpt>
      <trkpt lat="48.64039" lon="2.26801">
        <ele>84</ele>
        <time>2020-07-02T08:47:48Z</time>
      </trkpt>
      <trkpt lat="48.64037" lon="2.26797">
        <ele>83.9</ele>
        <time>2020-07-02T08:47:49Z</time>
      </trkpt>
      <trkpt lat="48.64035" lon="2.26795">
        <ele>83.9</ele>
        <time>2020-07-02T08:47:50Z</time>
      </trkpt>
      <trkpt lat="48.64034" lon="2.26796">
        <ele>83.8</ele>
        <time>2020-07-02T08:47:51Z</time>
      </trkpt>
      <trkpt lat="48.64032" lon="2.26798">
        <ele>83.8</ele>
        <time>2020-07-02T08:47:52Z</time>
      </trkpt>
      <trkpt lat="48.64031" lon="2.26799">
        <ele>83.7</ele>
        <time>2020-07-02T08:47:53Z</time>
      </trkpt>
      <trkpt lat="48.64028" lon="2.26801">
        <ele>83.6</ele>
        <time>2020-07-02T08:47:54Z</time>
      </trkpt>
      <trkpt lat="48.64027" lon="2.26801">
        <ele>83.6</ele>
        <time>2020-07-02T08:47:55Z</time>
      </trkpt>
      <trkpt lat="48.64024" lon="2.26801">
        <ele>83.5</ele>
        <time>2020-07-02T08:47:56Z</time>
      </trkpt>
      <trkpt lat="48.6402" lon="2.26799">
        <ele>83.4</ele>
        <time>2020-07-02T08:47:57Z</time>
      </trkpt>
      <trkpt lat="48.64018" lon="2.26798">
        <ele>83.3</ele>
        <time>2020-07-02T08:47:58Z</time>
      </trkpt>
      <trkpt lat="48.64014" lon="2.26797">
        <ele>83.2</ele>
        <time>2020-07-02T08:47:59Z</time>
      </trkpt>
      <trkpt lat="48.64009" lon="2.26794">
        <ele>83</ele>
        <time>2020-07-02T08:48:00Z</time>
      </trkpt>
      <trkpt lat="48.64005" lon="2.26793">
        <ele>82.9</ele>
        <time>2020-07-02T08:48:01Z</time>
      </trkpt>
      <trkpt lat="48.64002" lon="2.26793">
        <ele>82.8</ele>
        <time>2020-07-02T08:48:02Z</time>
      </trkpt>
      <trkpt lat="48.63999" lon="2.26791">
        <ele>82.8</ele>
        <time>2020-07-02T08:48:03Z</time>
      </trkpt>
      <trkpt lat="48.63998" lon="2.2679">
        <ele>82.7</ele>
        <time>2020-07-02T08:48:04Z</time>
      </trkpt>
      <trkpt lat="48.63996" lon="2.26788">
        <ele>82.7</ele>
        <time>2020-07-02T08:48:05Z</time>
      </trkpt>
      <trkpt lat="48.63994" lon="2.26785">
        <ele>82.7</ele>
        <time>2020-07-02T08:48:06Z</time>
      </trkpt>
      <trkpt lat="48.6399" lon="2.26784">
        <ele>82.7</ele>
        <time>2020-07-02T08:48:07Z</time>
      </trkpt>
      <trkpt lat="48.63987" lon="2.26784">
        <ele>82.7</ele>
        <time>2020-07-02T08:48:08Z</time>
      </trkpt>
      <trkpt lat="48.63984" lon="2.26785">
        <ele>82.7</ele>
        <time>2020-07-02T08:48:09Z</time>
      </trkpt>
      <trkpt lat="48.63983" lon="2.26786">
        <ele>82.7</ele>
        <time>2020-07-02T08:48:10Z</time>
      </trkpt>
      <trkpt lat="48.6398" lon="2.26787">
        <ele>82.7</ele>
        <time>2020-07-02T08:48:11Z</time>
      </trkpt>
      <trkpt lat="48.63977" lon="2.26786">
        <ele>82.7</ele>
        <time>2020-07-02T08:48:12Z</time>
      </trkpt>
      <trkpt lat="48.63972" lon="2.26784">
        <ele>82.6</ele>
        <time>2020-07-02T08:48:13Z</time>
      </trkpt>
      <trkpt lat="48.63968" lon="2.26782">
        <ele>82.6</ele>
        <time>2020-07-02T08:48:14Z</time>
      </trkpt>
      <trkpt lat="48.63963" lon="2.2678">
        <ele>82.5</ele>
        <time>2020-07-02T08:48:15Z</time>
      </trkpt>
      <trkpt lat="48.63958" lon="2.2678">
        <ele>82.4</ele>
        <time>2020-07-02T08:48:16Z</time>
      </trkpt>
      <trkpt lat="48.63954" lon="2.26778">
        <ele>82.3</ele>
        <time>2020-07-02T08:48:17Z</time>
      </trkpt>
      <trkpt lat="48.63949" lon="2.26777">
        <ele>82.3</ele>
        <time>2020-07-02T08:48:18Z</time>
      </trkpt>
      <trkpt lat="48.63945" lon="2.26773">
        <ele>82.3</ele>
        <time>2020-07-02T08:48:19Z</time>
      </trkpt>
      <trkpt lat="48.63941" lon="2.26772">
        <ele>82.3</ele>
        <time>2020-07-02T08:48:20Z</time>
      </trkpt>
      <trkpt lat="48.63937" lon="2.26771">
        <ele>82.3</ele>
        <time>2020-07-02T08:48:21Z</time>
      </trkpt>
      <trkpt lat="48.63932" lon="2.26768">
        <ele>82.3</ele>
        <time>2020-07-02T08:48:22Z</time>
      </trkpt>
      <trkpt lat="48.63926" lon="2.26767">
        <ele>82.3</ele>
        <time>2020-07-02T08:48:23Z</time>
      </trkpt>
      <trkpt lat="48.63921" lon="2.26765">
        <ele>82.3</ele>
        <time>2020-07-02T08:48:24Z</time>
      </trkpt>
      <trkpt lat="48.63915" lon="2.26765">
        <ele>82.3</ele>
        <time>2020-07-02T08:48:25Z</time>
      </trkpt>
      <trkpt lat="48.63908" lon="2.26763">
        <ele>82.4</ele>
        <time>2020-07-02T08:48:26Z</time>
      </trkpt>
      <trkpt lat="48.63901" lon="2.26761">
        <ele>82.4</ele>
        <time>2020-07-02T08:48:27Z</time>
      </trkpt>
      <trkpt lat="48.63895" lon="2.26761">
        <ele>82.4</ele>
        <time>2020-07-02T08:48:28Z</time>
      </trkpt>
      <trkpt lat="48.6389" lon="2.26761">
        <ele>82.4</ele>
        <time>2020-07-02T08:48:29Z</time>
      </trkpt>
      <trkpt lat="48.63884" lon="2.2676">
        <ele>82.4</ele>
        <time>2020-07-02T08:48:30Z</time>
      </trkpt>
      <trkpt lat="48.63878" lon="2.26759">
        <ele>82.4</ele>
        <time>2020-07-02T08:48:31Z</time>
      </trkpt>
      <trkpt lat="48.63874" lon="2.26756">
        <ele>82.3</ele>
        <time>2020-07-02T08:48:32Z</time>
      </trkpt>
      <trkpt lat="48.63869" lon="2.26755">
        <ele>82.3</ele>
        <time>2020-07-02T08:48:33Z</time>
      </trkpt>
      <trkpt lat="48.63864" lon="2.26754">
        <ele>82.2</ele>
        <time>2020-07-02T08:48:34Z</time>
      </trkpt>
      <trkpt lat="48.63858" lon="2.26751">
        <ele>82.1</ele>
        <time>2020-07-02T08:48:35Z</time>
      </trkpt>
      <trkpt lat="48.63853" lon="2.26748">
        <ele>82</ele>
        <time>2020-07-02T08:48:36Z</time>
      </trkpt>
      <trkpt lat="48.63848" lon="2.26745">
        <ele>81.9</ele>
        <time>2020-07-02T08:48:37Z</time>
      </trkpt>
      <trkpt lat="48.63843" lon="2.26741">
        <ele>81.9</ele>
        <time>2020-07-02T08:48:38Z</time>
      </trkpt>
      <trkpt lat="48.63838" lon="2.26738">
        <ele>81.9</ele>
        <time>2020-07-02T08:48:39Z</time>
      </trkpt>
      <trkpt lat="48.63832" lon="2.26735">
        <ele>82</ele>
        <time>2020-07-02T08:48:40Z</time>
      </trkpt>
      <trkpt lat="48.63826" lon="2.26732">
        <ele>82</ele>
        <time>2020-07-02T08:48:41Z</time>
      </trkpt>
      <trkpt lat="48.6382" lon="2.26728">
        <ele>82</ele>
        <time>2020-07-02T08:48:42Z</time>
      </trkpt>
      <trkpt lat="48.63815" lon="2.26726">
        <ele>82</ele>
        <time>2020-07-02T08:48:43Z</time>
      </trkpt>
      <trkpt lat="48.63809" lon="2.26723">
        <ele>81.9</ele>
        <time>2020-07-02T08:48:44Z</time>
      </trkpt>
      <trkpt lat="48.63803" lon="2.26721">
        <ele>81.8</ele>
        <time>2020-07-02T08:48:45Z</time>
      </trkpt>
      <trkpt lat="48.63795" lon="2.26718">
        <ele>81.7</ele>
        <time>2020-07-02T08:48:46Z</time>
      </trkpt>
      <trkpt lat="48.63788" lon="2.26716">
        <ele>81.6</ele>
        <time>2020-07-02T08:48:47Z</time>
      </trkpt>
      <trkpt lat="48.63781" lon="2.26713">
        <ele>81.4</ele>
        <time>2020-07-02T08:48:48Z</time>
      </trkpt>
      <trkpt lat="48.63774" lon="2.2671">
        <ele>80.7</ele>
        <time>2020-07-02T08:48:49Z</time>
      </trkpt>
      <trkpt lat="48.63768" lon="2.26708">
        <ele>80.5</ele>
        <time>2020-07-02T08:48:50Z</time>
      </trkpt>
      <trkpt lat="48.63762" lon="2.26706">
        <ele>80.4</ele>
        <time>2020-07-02T08:48:51Z</time>
      </trkpt>
      <trkpt lat="48.63755" lon="2.26704">
        <ele>80.2</ele>
        <time>2020-07-02T08:48:52Z</time>
      </trkpt>
      <trkpt lat="48.63749" lon="2.26702">
        <ele>80.2</ele>
        <time>2020-07-02T08:48:53Z</time>
      </trkpt>
      <trkpt lat="48.63743" lon="2.26699">
        <ele>80.1</ele>
        <time>2020-07-02T08:48:54Z</time>
      </trkpt>
      <trkpt lat="48.63737" lon="2.26697">
        <ele>79.9</ele>
        <time>2020-07-02T08:48:55Z</time>
      </trkpt>
      <trkpt lat="48.63731" lon="2.26694">
        <ele>79.8</ele>
        <time>2020-07-02T08:48:56Z</time>
      </trkpt>
      <trkpt lat="48.63724" lon="2.26692">
        <ele>79.6</ele>
        <time>2020-07-02T08:48:57Z</time>
      </trkpt>
      <trkpt lat="48.63717" lon="2.26689">
        <ele>79.5</ele>
        <time>2020-07-02T08:48:58Z</time>
      </trkpt>
      <trkpt lat="48.63711" lon="2.26687">
        <ele>79.4</ele>
        <time>2020-07-02T08:48:59Z</time>
      </trkpt>
      <trkpt lat="48.63705" lon="2.26684">
        <ele>79.2</ele>
        <time>2020-07-02T08:49:00Z</time>
      </trkpt>
      <trkpt lat="48.63699" lon="2.26682">
        <ele>79.1</ele>
        <time>2020-07-02T08:49:01Z</time>
      </trkpt>
      <trkpt lat="48.63692" lon="2.2668">
        <ele>79</ele>
        <time>2020-07-02T08:49:02Z</time>
      </trkpt>
      <trkpt lat="48.63686" lon="2.26678">
        <ele>78.8</ele>
        <time>2020-07-02T08:49:03Z</time>
      </trkpt>
      <trkpt lat="48.63679" lon="2.26675">
        <ele>78.7</ele>
        <time>2020-07-02T08:49:04Z</time>
      </trkpt>
      <trkpt lat="48.63672" lon="2.26672">
        <ele>78.5</ele>
        <time>2020-07-02T08:49:05Z</time>
      </trkpt>
      <trkpt lat="48.63666" lon="2.2667">
        <ele>78.1</ele>
        <time>2020-07-02T08:49:06Z</time>
      </trkpt>
      <trkpt lat="48.63661" lon="2.26668">
        <ele>77.8</ele>
        <time>2020-07-02T08:49:07Z</time>
      </trkpt>
      <trkpt lat="48.63655" lon="2.26666">
        <ele>77.4</ele>
        <time>2020-07-02T08:49:08Z</time>
      </trkpt>
      <trkpt lat="48.6365" lon="2.26664">
        <ele>77</ele>
        <time>2020-07-02T08:49:09Z</time>
      </trkpt>
      <trkpt lat="48.63644" lon="2.26662">
        <ele>76.5</ele>
        <time>2020-07-02T08:49:10Z</time>
      </trkpt>
      <trkpt lat="48.63639" lon="2.26659">
        <ele>76.1</ele>
        <time>2020-07-02T08:49:11Z</time>
      </trkpt>
      <trkpt lat="48.63634" lon="2.26657">
        <ele>75.6</ele>
        <time>2020-07-02T08:49:12Z</time>
      </trkpt>
      <trkpt lat="48.63629" lon="2.26655">
        <ele>75.2</ele>
        <time>2020-07-02T08:49:13Z</time>
      </trkpt>
      <trkpt lat="48.63624" lon="2.26652">
        <ele>74.7</ele>
        <time>2020-07-02T08:49:14Z</time>
      </trkpt>
      <trkpt lat="48.63619" lon="2.26648">
        <ele>74.3</ele>
        <time>2020-07-02T08:49:15Z</time>
      </trkpt>
      <trkpt lat="48.63616" lon="2.26647">
        <ele>74.1</ele>
        <time>2020-07-02T08:49:16Z</time>
      </trkpt>
      <trkpt lat="48.6361" lon="2.26644">
        <ele>73.6</ele>
        <time>2020-07-02T08:49:17Z</time>
      </trkpt>
      <trkpt lat="48.63605" lon="2.26642">
        <ele>73.2</ele>
        <time>2020-07-02T08:49:18Z</time>
      </trkpt>
      <trkpt lat="48.636" lon="2.26641">
        <ele>72.7</ele>
        <time>2020-07-02T08:49:19Z</time>
      </trkpt>
      <trkpt lat="48.63597" lon="2.26639">
        <ele>72.4</ele>
        <time>2020-07-02T08:49:20Z</time>
      </trkpt>
      <trkpt lat="48.63592" lon="2.26636">
        <ele>72</ele>
        <time>2020-07-02T08:49:21Z</time>
      </trkpt>
      <trkpt lat="48.63588" lon="2.26634">
        <ele>71.6</ele>
        <time>2020-07-02T08:49:22Z</time>
      </trkpt>
      <trkpt lat="48.63583" lon="2.26633">
        <ele>71.3</ele>
        <time>2020-07-02T08:49:23Z</time>
      </trkpt>
      <trkpt lat="48.6358" lon="2.26631">
        <ele>71</ele>
        <time>2020-07-02T08:49:24Z</time>
      </trkpt>
      <trkpt lat="48.63575" lon="2.2663">
        <ele>70.6</ele>
        <time>2020-07-02T08:49:25Z</time>
      </trkpt>
      <trkpt lat="48.6357" lon="2.26629">
        <ele>70.3</ele>
        <time>2020-07-02T08:49:26Z</time>
      </trkpt>
      <trkpt lat="48.63566" lon="2.26629">
        <ele>70.2</ele>
        <time>2020-07-02T08:49:27Z</time>
      </trkpt>
      <trkpt lat="48.63562" lon="2.26629">
        <ele>70.2</ele>
        <time>2020-07-02T08:49:28Z</time>
      </trkpt>
      <trkpt lat="48.63557" lon="2.26628">
        <ele>70.1</ele>
        <time>2020-07-02T08:49:29Z</time>
      </trkpt>
      <trkpt lat="48.63552" lon="2.26627">
        <ele>70.1</ele>
        <time>2020-07-02T08:49:30Z</time>
      </trkpt>
      <trkpt lat="48.63547" lon="2.26625">
        <ele>70.1</ele>
        <time>2020-07-02T08:49:31Z</time>
      </trkpt>
      <trkpt lat="48.63543" lon="2.26625">
        <ele>70.1</ele>
        <time>2020-07-02T08:49:32Z</time>
      </trkpt>
      <trkpt lat="48.63539" lon="2.26624">
        <ele>70.1</ele>
        <time>2020-07-02T08:49:33Z</time>
      </trkpt>
      <trkpt lat="48.63535" lon="2.26623">
        <ele>70</ele>
        <time>2020-07-02T08:49:34Z</time>
      </trkpt>
      <trkpt lat="48.63532" lon="2.26623">
        <ele>69.9</ele>
        <time>2020-07-02T08:49:35Z</time>
      </trkpt>
      <trkpt lat="48.63529" lon="2.26623">
        <ele>69.8</ele>
        <time>2020-07-02T08:49:36Z</time>
      </trkpt>
      <trkpt lat="48.63526" lon="2.26622">
        <ele>69.7</ele>
        <time>2020-07-02T08:49:37Z</time>
      </trkpt>
      <trkpt lat="48.63525" lon="2.26622">
        <ele>69.6</ele>
        <time>2020-07-02T08:49:38Z</time>
      </trkpt>
      <trkpt lat="48.63524" lon="2.26622">
        <ele>69.6</ele>
        <time>2020-07-02T08:49:39Z</time>
      </trkpt>
      <trkpt lat="48.63523" lon="2.26622">
        <ele>69.5</ele>
        <time>2020-07-02T08:49:40Z</time>
      </trkpt>
      <trkpt lat="48.63522" lon="2.26622">
        <ele>69.5</ele>
        <time>2020-07-02T08:49:41Z</time>
      </trkpt>
      <trkpt lat="48.6352" lon="2.26621">
        <ele>69.4</ele>
        <time>2020-07-02T08:49:42Z</time>
      </trkpt>
      <trkpt lat="48.63517" lon="2.26619">
        <ele>69.3</ele>
        <time>2020-07-02T08:49:43Z</time>
      </trkpt>
      <trkpt lat="48.63515" lon="2.26618">
        <ele>69.2</ele>
        <time>2020-07-02T08:49:44Z</time>
      </trkpt>
      <trkpt lat="48.63512" lon="2.26617">
        <ele>69.1</ele>
        <time>2020-07-02T08:49:45Z</time>
      </trkpt>
      <trkpt lat="48.63507" lon="2.26619">
        <ele>69</ele>
        <time>2020-07-02T08:49:46Z</time>
      </trkpt>
      <trkpt lat="48.63504" lon="2.26621">
        <ele>68.8</ele>
        <time>2020-07-02T08:49:47Z</time>
      </trkpt>
      <trkpt lat="48.63501" lon="2.26628">
        <ele>68.2</ele>
        <time>2020-07-02T08:49:48Z</time>
      </trkpt>
      <trkpt lat="48.63498" lon="2.26636">
        <ele>68</ele>
        <time>2020-07-02T08:49:49Z</time>
      </trkpt>
      <trkpt lat="48.63495" lon="2.26642">
        <ele>67.9</ele>
        <time>2020-07-02T08:49:50Z</time>
      </trkpt>
      <trkpt lat="48.6349" lon="2.26647">
        <ele>67.8</ele>
        <time>2020-07-02T08:49:51Z</time>
      </trkpt>
      <trkpt lat="48.63485" lon="2.26651">
        <ele>67.6</ele>
        <time>2020-07-02T08:49:52Z</time>
      </trkpt>
      <trkpt lat="48.63481" lon="2.26655">
        <ele>67.5</ele>
        <time>2020-07-02T08:49:53Z</time>
      </trkpt>
      <trkpt lat="48.63475" lon="2.26658">
        <ele>67.3</ele>
        <time>2020-07-02T08:49:54Z</time>
      </trkpt>
      <trkpt lat="48.63469" lon="2.2666">
        <ele>67.1</ele>
        <time>2020-07-02T08:49:55Z</time>
      </trkpt>
      <trkpt lat="48.63464" lon="2.26664">
        <ele>66.9</ele>
        <time>2020-07-02T08:49:56Z</time>
      </trkpt>
      <trkpt lat="48.63459" lon="2.26666">
        <ele>66.7</ele>
        <time>2020-07-02T08:49:57Z</time>
      </trkpt>
      <trkpt lat="48.63453" lon="2.2667">
        <ele>66.5</ele>
        <time>2020-07-02T08:49:58Z</time>
      </trkpt>
      <trkpt lat="48.63447" lon="2.26672">
        <ele>66.3</ele>
        <time>2020-07-02T08:49:59Z</time>
      </trkpt>
      <trkpt lat="48.63441" lon="2.26674">
        <ele>66.1</ele>
        <time>2020-07-02T08:50:00Z</time>
      </trkpt>
      <trkpt lat="48.63436" lon="2.26676">
        <ele>65.8</ele>
        <time>2020-07-02T08:50:01Z</time>
      </trkpt>
      <trkpt lat="48.63431" lon="2.26677">
        <ele>65.7</ele>
        <time>2020-07-02T08:50:02Z</time>
      </trkpt>
      <trkpt lat="48.63427" lon="2.26679">
        <ele>65.5</ele>
        <time>2020-07-02T08:50:03Z</time>
      </trkpt>
      <trkpt lat="48.63422" lon="2.26682">
        <ele>65.4</ele>
        <time>2020-07-02T08:50:04Z</time>
      </trkpt>
      <trkpt lat="48.63418" lon="2.26684">
        <ele>65.2</ele>
        <time>2020-07-02T08:50:05Z</time>
      </trkpt>
      <trkpt lat="48.63414" lon="2.26688">
        <ele>65.1</ele>
        <time>2020-07-02T08:50:06Z</time>
      </trkpt>
      <trkpt lat="48.6341" lon="2.26691">
        <ele>65</ele>
        <time>2020-07-02T08:50:07Z</time>
      </trkpt>
      <trkpt lat="48.63405" lon="2.26695">
        <ele>64.9</ele>
        <time>2020-07-02T08:50:08Z</time>
      </trkpt>
      <trkpt lat="48.63401" lon="2.26698">
        <ele>64.7</ele>
        <time>2020-07-02T08:50:09Z</time>
      </trkpt>
      <trkpt lat="48.63396" lon="2.26696">
        <ele>64.2</ele>
        <time>2020-07-02T08:50:10Z</time>
      </trkpt>
      <trkpt lat="48.6339" lon="2.26694">
        <ele>63.9</ele>
        <time>2020-07-02T08:50:11Z</time>
      </trkpt>
      <trkpt lat="48.63386" lon="2.26692">
        <ele>63.7</ele>
        <time>2020-07-02T08:50:12Z</time>
      </trkpt>
      <trkpt lat="48.63381" lon="2.2669">
        <ele>63.4</ele>
        <time>2020-07-02T08:50:13Z</time>
      </trkpt>
      <trkpt lat="48.63376" lon="2.26689">
        <ele>63.2</ele>
        <time>2020-07-02T08:50:14Z</time>
      </trkpt>
      <trkpt lat="48.63371" lon="2.26688">
        <ele>62.6</ele>
        <time>2020-07-02T08:50:15Z</time>
      </trkpt>
      <trkpt lat="48.63366" lon="2.26686">
        <ele>62.2</ele>
        <time>2020-07-02T08:50:16Z</time>
      </trkpt>
      <trkpt lat="48.63361" lon="2.26685">
        <ele>61.9</ele>
        <time>2020-07-02T08:50:17Z</time>
      </trkpt>
      <trkpt lat="48.63356" lon="2.26684">
        <ele>61.5</ele>
        <time>2020-07-02T08:50:18Z</time>
      </trkpt>
      <trkpt lat="48.63351" lon="2.26682">
        <ele>61.2</ele>
        <time>2020-07-02T08:50:19Z</time>
      </trkpt>
      <trkpt lat="48.63345" lon="2.2668">
        <ele>60.7</ele>
        <time>2020-07-02T08:50:20Z</time>
      </trkpt>
      <trkpt lat="48.6334" lon="2.26675">
        <ele>60.3</ele>
        <time>2020-07-02T08:50:21Z</time>
      </trkpt>
      <trkpt lat="48.63334" lon="2.26671">
        <ele>59.7</ele>
        <time>2020-07-02T08:50:22Z</time>
      </trkpt>
      <trkpt lat="48.63327" lon="2.26669">
        <ele>59.2</ele>
        <time>2020-07-02T08:50:23Z</time>
      </trkpt>
      <trkpt lat="48.6332" lon="2.26666">
        <ele>58.7</ele>
        <time>2020-07-02T08:50:24Z</time>
      </trkpt>
      <trkpt lat="48.63314" lon="2.26663">
        <ele>58.3</ele>
        <time>2020-07-02T08:50:25Z</time>
      </trkpt>
      <trkpt lat="48.63308" lon="2.26659">
        <ele>57.8</ele>
        <time>2020-07-02T08:50:26Z</time>
      </trkpt>
      <trkpt lat="48.63302" lon="2.26656">
        <ele>57.4</ele>
        <time>2020-07-02T08:50:27Z</time>
      </trkpt>
      <trkpt lat="48.63297" lon="2.26654">
        <ele>56.6</ele>
        <time>2020-07-02T08:50:28Z</time>
      </trkpt>
      <trkpt lat="48.63291" lon="2.26651">
        <ele>56.5</ele>
        <time>2020-07-02T08:50:29Z</time>
      </trkpt>
      <trkpt lat="48.63286" lon="2.26649">
        <ele>56.4</ele>
        <time>2020-07-02T08:50:30Z</time>
      </trkpt>
      <trkpt lat="48.6328" lon="2.26648">
        <ele>56.3</ele>
        <time>2020-07-02T08:50:31Z</time>
      </trkpt>
      <trkpt lat="48.63275" lon="2.26647">
        <ele>56.2</ele>
        <time>2020-07-02T08:50:32Z</time>
      </trkpt>
      <trkpt lat="48.63269" lon="2.26648">
        <ele>56.1</ele>
        <time>2020-07-02T08:50:33Z</time>
      </trkpt>
      <trkpt lat="48.63264" lon="2.26648">
        <ele>56.1</ele>
        <time>2020-07-02T08:50:34Z</time>
      </trkpt>
      <trkpt lat="48.63258" lon="2.26648">
        <ele>55.8</ele>
        <time>2020-07-02T08:50:35Z</time>
      </trkpt>
      <trkpt lat="48.63252" lon="2.26648">
        <ele>55.7</ele>
        <time>2020-07-02T08:50:36Z</time>
      </trkpt>
      <trkpt lat="48.63246" lon="2.26647">
        <ele>55.6</ele>
        <time>2020-07-02T08:50:37Z</time>
      </trkpt>
      <trkpt lat="48.63241" lon="2.26646">
        <ele>55.5</ele>
        <time>2020-07-02T08:50:38Z</time>
      </trkpt>
      <trkpt lat="48.63235" lon="2.26646">
        <ele>55.5</ele>
        <time>2020-07-02T08:50:39Z</time>
      </trkpt>
      <trkpt lat="48.6323" lon="2.26645">
        <ele>55.4</ele>
        <time>2020-07-02T08:50:40Z</time>
      </trkpt>
      <trkpt lat="48.63224" lon="2.26645">
        <ele>55.4</ele>
        <time>2020-07-02T08:50:41Z</time>
      </trkpt>
      <trkpt lat="48.63219" lon="2.26642">
        <ele>55.5</ele>
        <time>2020-07-02T08:50:42Z</time>
      </trkpt>
      <trkpt lat="48.63214" lon="2.26638">
        <ele>55.5</ele>
        <time>2020-07-02T08:50:43Z</time>
      </trkpt>
      <trkpt lat="48.63209" lon="2.26634">
        <ele>55.6</ele>
        <time>2020-07-02T08:50:44Z</time>
      </trkpt>
      <trkpt lat="48.63205" lon="2.26631">
        <ele>55.7</ele>
        <time>2020-07-02T08:50:45Z</time>
      </trkpt>
      <trkpt lat="48.632" lon="2.26629">
        <ele>55.8</ele>
        <time>2020-07-02T08:50:46Z</time>
      </trkpt>
      <trkpt lat="48.63197" lon="2.26626">
        <ele>56</ele>
        <time>2020-07-02T08:50:47Z</time>
      </trkpt>
      <trkpt lat="48.63193" lon="2.26622">
        <ele>56</ele>
        <time>2020-07-02T08:50:48Z</time>
      </trkpt>
      <trkpt lat="48.63189" lon="2.2662">
        <ele>56.1</ele>
        <time>2020-07-02T08:50:49Z</time>
      </trkpt>
      <trkpt lat="48.63185" lon="2.26616">
        <ele>56.1</ele>
        <time>2020-07-02T08:50:50Z</time>
      </trkpt>
      <trkpt lat="48.63182" lon="2.26611">
        <ele>56.2</ele>
        <time>2020-07-02T08:50:51Z</time>
      </trkpt>
      <trkpt lat="48.63178" lon="2.26607">
        <ele>56.2</ele>
        <time>2020-07-02T08:50:52Z</time>
      </trkpt>
      <trkpt lat="48.63174" lon="2.26603">
        <ele>56.3</ele>
        <time>2020-07-02T08:50:53Z</time>
      </trkpt>
      <trkpt lat="48.6317" lon="2.266">
        <ele>56.4</ele>
        <time>2020-07-02T08:50:54Z</time>
      </trkpt>
      <trkpt lat="48.63165" lon="2.26596">
        <ele>56.5</ele>
        <time>2020-07-02T08:50:55Z</time>
      </trkpt>
      <trkpt lat="48.63161" lon="2.26591">
        <ele>56.6</ele>
        <time>2020-07-02T08:50:56Z</time>
      </trkpt>
      <trkpt lat="48.63157" lon="2.26586">
        <ele>56.7</ele>
        <time>2020-07-02T08:50:57Z</time>
      </trkpt>
      <trkpt lat="48.63152" lon="2.26582">
        <ele>56.9</ele>
        <time>2020-07-02T08:50:58Z</time>
      </trkpt>
      <trkpt lat="48.63148" lon="2.26577">
        <ele>57</ele>
        <time>2020-07-02T08:50:59Z</time>
      </trkpt>
      <trkpt lat="48.63144" lon="2.26573">
        <ele>57.1</ele>
        <time>2020-07-02T08:51:00Z</time>
      </trkpt>
      <trkpt lat="48.63141" lon="2.2657">
        <ele>57.2</ele>
        <time>2020-07-02T08:51:01Z</time>
      </trkpt>
      <trkpt lat="48.63138" lon="2.26568">
        <ele>57.3</ele>
        <time>2020-07-02T08:51:02Z</time>
      </trkpt>
      <trkpt lat="48.63135" lon="2.26565">
        <ele>57.3</ele>
        <time>2020-07-02T08:51:03Z</time>
      </trkpt>
      <trkpt lat="48.63131" lon="2.26562">
        <ele>57.3</ele>
        <time>2020-07-02T08:51:04Z</time>
      </trkpt>
      <trkpt lat="48.63128" lon="2.26559">
        <ele>57.6</ele>
        <time>2020-07-02T08:51:05Z</time>
      </trkpt>
      <trkpt lat="48.63125" lon="2.26557">
        <ele>57.7</ele>
        <time>2020-07-02T08:51:06Z</time>
      </trkpt>
      <trkpt lat="48.63121" lon="2.26555">
        <ele>57.8</ele>
        <time>2020-07-02T08:51:07Z</time>
      </trkpt>
      <trkpt lat="48.63117" lon="2.26552">
        <ele>58</ele>
        <time>2020-07-02T08:51:08Z</time>
      </trkpt>
      <trkpt lat="48.63114" lon="2.26548">
        <ele>58.2</ele>
        <time>2020-07-02T08:51:09Z</time>
      </trkpt>
      <trkpt lat="48.6311" lon="2.26546">
        <ele>58.3</ele>
        <time>2020-07-02T08:51:10Z</time>
      </trkpt>
      <trkpt lat="48.63107" lon="2.26543">
        <ele>58.5</ele>
        <time>2020-07-02T08:51:11Z</time>
      </trkpt>
      <trkpt lat="48.63103" lon="2.2654">
        <ele>58.7</ele>
        <time>2020-07-02T08:51:12Z</time>
      </trkpt>
      <trkpt lat="48.63099" lon="2.26538">
        <ele>58.9</ele>
        <time>2020-07-02T08:51:13Z</time>
      </trkpt>
      <trkpt lat="48.63095" lon="2.26537">
        <ele>59.1</ele>
        <time>2020-07-02T08:51:14Z</time>
      </trkpt>
      <trkpt lat="48.63092" lon="2.26535">
        <ele>59.2</ele>
        <time>2020-07-02T08:51:15Z</time>
      </trkpt>
      <trkpt lat="48.6309" lon="2.26532">
        <ele>59.4</ele>
        <time>2020-07-02T08:51:16Z</time>
      </trkpt>
      <trkpt lat="48.63088" lon="2.26529">
        <ele>59.5</ele>
        <time>2020-07-02T08:51:17Z</time>
      </trkpt>
      <trkpt lat="48.63085" lon="2.26526">
        <ele>59.7</ele>
        <time>2020-07-02T08:51:18Z</time>
      </trkpt>
      <trkpt lat="48.63082" lon="2.26524">
        <ele>59.9</ele>
        <time>2020-07-02T08:51:19Z</time>
      </trkpt>
      <trkpt lat="48.63079" lon="2.26522">
        <ele>60.1</ele>
        <time>2020-07-02T08:51:20Z</time>
      </trkpt>
      <trkpt lat="48.63076" lon="2.2652">
        <ele>60.2</ele>
        <time>2020-07-02T08:51:21Z</time>
      </trkpt>
      <trkpt lat="48.63073" lon="2.26518">
        <ele>60.4</ele>
        <time>2020-07-02T08:51:22Z</time>
      </trkpt>
      <trkpt lat="48.6307" lon="2.26516">
        <ele>60.6</ele>
        <time>2020-07-02T08:51:23Z</time>
      </trkpt>
      <trkpt lat="48.63066" lon="2.26515">
        <ele>60.8</ele>
        <time>2020-07-02T08:51:24Z</time>
      </trkpt>
      <trkpt lat="48.63063" lon="2.26513">
        <ele>60.9</ele>
        <time>2020-07-02T08:51:25Z</time>
      </trkpt>
      <trkpt lat="48.6306" lon="2.2651">
        <ele>61.1</ele>
        <time>2020-07-02T08:51:26Z</time>
      </trkpt>
      <trkpt lat="48.63057" lon="2.26508">
        <ele>61.2</ele>
        <time>2020-07-02T08:51:27Z</time>
      </trkpt>
      <trkpt lat="48.63053" lon="2.26507">
        <ele>61.4</ele>
        <time>2020-07-02T08:51:28Z</time>
      </trkpt>
      <trkpt lat="48.6305" lon="2.26505">
        <ele>61.5</ele>
        <time>2020-07-02T08:51:29Z</time>
      </trkpt>
      <trkpt lat="48.63047" lon="2.26502">
        <ele>61.5</ele>
        <time>2020-07-02T08:51:30Z</time>
      </trkpt>
      <trkpt lat="48.63045" lon="2.265">
        <ele>61.6</ele>
        <time>2020-07-02T08:51:31Z</time>
      </trkpt>
      <trkpt lat="48.63041" lon="2.26499">
        <ele>61.6</ele>
        <time>2020-07-02T08:51:32Z</time>
      </trkpt>
      <trkpt lat="48.63038" lon="2.26499">
        <ele>61.7</ele>
        <time>2020-07-02T08:51:33Z</time>
      </trkpt>
      <trkpt lat="48.63035" lon="2.26498">
        <ele>61.9</ele>
        <time>2020-07-02T08:51:34Z</time>
      </trkpt>
      <trkpt lat="48.63032" lon="2.26497">
        <ele>62.1</ele>
        <time>2020-07-02T08:51:35Z</time>
      </trkpt>
      <trkpt lat="48.63029" lon="2.26496">
        <ele>62.3</ele>
        <time>2020-07-02T08:51:36Z</time>
      </trkpt>
      <trkpt lat="48.63026" lon="2.26494">
        <ele>62.5</ele>
        <time>2020-07-02T08:51:37Z</time>
      </trkpt>
      <trkpt lat="48.63022" lon="2.26493">
        <ele>62.7</ele>
        <time>2020-07-02T08:51:38Z</time>
      </trkpt>
      <trkpt lat="48.63019" lon="2.26491">
        <ele>63</ele>
        <time>2020-07-02T08:51:39Z</time>
      </trkpt>
      <trkpt lat="48.63015" lon="2.26489">
        <ele>63.2</ele>
        <time>2020-07-02T08:51:40Z</time>
      </trkpt>
      <trkpt lat="48.63012" lon="2.26487">
        <ele>63.4</ele>
        <time>2020-07-02T08:51:41Z</time>
      </trkpt>
      <trkpt lat="48.63009" lon="2.26485">
        <ele>63.6</ele>
        <time>2020-07-02T08:51:42Z</time>
      </trkpt>
      <trkpt lat="48.63006" lon="2.26483">
        <ele>63.8</ele>
        <time>2020-07-02T08:51:43Z</time>
      </trkpt>
      <trkpt lat="48.63003" lon="2.26482">
        <ele>64</ele>
        <time>2020-07-02T08:51:44Z</time>
      </trkpt>
      <trkpt lat="48.63" lon="2.2648">
        <ele>64.2</ele>
        <time>2020-07-02T08:51:45Z</time>
      </trkpt>
      <trkpt lat="48.62997" lon="2.26478">
        <ele>64.4</ele>
        <time>2020-07-02T08:51:46Z</time>
      </trkpt>
      <trkpt lat="48.62995" lon="2.26476">
        <ele>64.6</ele>
        <time>2020-07-02T08:51:47Z</time>
      </trkpt>
      <trkpt lat="48.62992" lon="2.26474">
        <ele>64.8</ele>
        <time>2020-07-02T08:51:48Z</time>
      </trkpt>
      <trkpt lat="48.6299" lon="2.26472">
        <ele>65</ele>
        <time>2020-07-02T08:51:49Z</time>
      </trkpt>
      <trkpt lat="48.62987" lon="2.2647">
        <ele>65.1</ele>
        <time>2020-07-02T08:51:50Z</time>
      </trkpt>
      <trkpt lat="48.62984" lon="2.26466">
        <ele>65.4</ele>
        <time>2020-07-02T08:51:51Z</time>
      </trkpt>
      <trkpt lat="48.62983" lon="2.26465">
        <ele>65.5</ele>
        <time>2020-07-02T08:51:52Z</time>
      </trkpt>
      <trkpt lat="48.6298" lon="2.26462">
        <ele>65.7</ele>
        <time>2020-07-02T08:51:53Z</time>
      </trkpt>
      <trkpt lat="48.62978" lon="2.26458">
        <ele>65.9</ele>
        <time>2020-07-02T08:51:54Z</time>
      </trkpt>
      <trkpt lat="48.62975" lon="2.26457">
        <ele>66.1</ele>
        <time>2020-07-02T08:51:55Z</time>
      </trkpt>
      <trkpt lat="48.62972" lon="2.26453">
        <ele>66.4</ele>
        <time>2020-07-02T08:51:56Z</time>
      </trkpt>
      <trkpt lat="48.6297" lon="2.26453">
        <ele>66.5</ele>
        <time>2020-07-02T08:51:57Z</time>
      </trkpt>
      <trkpt lat="48.62968" lon="2.26451">
        <ele>66.7</ele>
        <time>2020-07-02T08:51:58Z</time>
      </trkpt>
      <trkpt lat="48.62966" lon="2.26448">
        <ele>66.9</ele>
        <time>2020-07-02T08:51:59Z</time>
      </trkpt>
      <trkpt lat="48.62963" lon="2.26446">
        <ele>67.1</ele>
        <time>2020-07-02T08:52:00Z</time>
      </trkpt>
      <trkpt lat="48.6296" lon="2.26444">
        <ele>67.3</ele>
        <time>2020-07-02T08:52:01Z</time>
      </trkpt>
      <trkpt lat="48.62958" lon="2.26441">
        <ele>67.5</ele>
        <time>2020-07-02T08:52:02Z</time>
      </trkpt>
      <trkpt lat="48.62955" lon="2.26438">
        <ele>67.7</ele>
        <time>2020-07-02T08:52:03Z</time>
      </trkpt>
      <trkpt lat="48.62954" lon="2.26437">
        <ele>67.8</ele>
        <time>2020-07-02T08:52:04Z</time>
      </trkpt>
      <trkpt lat="48.62951" lon="2.26434">
        <ele>68</ele>
        <time>2020-07-02T08:52:05Z</time>
      </trkpt>
      <trkpt lat="48.62948" lon="2.26432">
        <ele>68.3</ele>
        <time>2020-07-02T08:52:06Z</time>
      </trkpt>
      <trkpt lat="48.62946" lon="2.26429">
        <ele>68.5</ele>
        <time>2020-07-02T08:52:07Z</time>
      </trkpt>
      <trkpt lat="48.62945" lon="2.26428">
        <ele>68.5</ele>
        <time>2020-07-02T08:52:08Z</time>
      </trkpt>
      <trkpt lat="48.62943" lon="2.26425">
        <ele>68.7</ele>
        <time>2020-07-02T08:52:09Z</time>
      </trkpt>
      <trkpt lat="48.6294" lon="2.26421">
        <ele>69</ele>
        <time>2020-07-02T08:52:10Z</time>
      </trkpt>
      <trkpt lat="48.62939" lon="2.2642">
        <ele>69.1</ele>
        <time>2020-07-02T08:52:11Z</time>
      </trkpt>
      <trkpt lat="48.62937" lon="2.26417">
        <ele>69.2</ele>
        <time>2020-07-02T08:52:12Z</time>
      </trkpt>
      <trkpt lat="48.62933" lon="2.26414">
        <ele>69.5</ele>
        <time>2020-07-02T08:52:13Z</time>
      </trkpt>
      <trkpt lat="48.6293" lon="2.26412">
        <ele>69.8</ele>
        <time>2020-07-02T08:52:14Z</time>
      </trkpt>
      <trkpt lat="48.62927" lon="2.26409">
        <ele>70</ele>
        <time>2020-07-02T08:52:15Z</time>
      </trkpt>
      <trkpt lat="48.62925" lon="2.26406">
        <ele>70.4</ele>
        <time>2020-07-02T08:52:16Z</time>
      </trkpt>
      <trkpt lat="48.62925" lon="2.26404">
        <ele>70.4</ele>
        <time>2020-07-02T08:52:17Z</time>
      </trkpt>
      <trkpt lat="48.62922" lon="2.26402">
        <ele>70.7</ele>
        <time>2020-07-02T08:52:18Z</time>
      </trkpt>
      <trkpt lat="48.62919" lon="2.26398">
        <ele>71</ele>
        <time>2020-07-02T08:52:19Z</time>
      </trkpt>
      <trkpt lat="48.62918" lon="2.26397">
        <ele>71.1</ele>
        <time>2020-07-02T08:52:20Z</time>
      </trkpt>
      <trkpt lat="48.62915" lon="2.26394">
        <ele>71.3</ele>
        <time>2020-07-02T08:52:21Z</time>
      </trkpt>
      <trkpt lat="48.62913" lon="2.26392">
        <ele>71.5</ele>
        <time>2020-07-02T08:52:22Z</time>
      </trkpt>
      <trkpt lat="48.6291" lon="2.2639">
        <ele>71.7</ele>
        <time>2020-07-02T08:52:23Z</time>
      </trkpt>
      <trkpt lat="48.62908" lon="2.26388">
        <ele>71.9</ele>
        <time>2020-07-02T08:52:24Z</time>
      </trkpt>
      <trkpt lat="48.62906" lon="2.26388">
        <ele>72</ele>
        <time>2020-07-02T08:52:25Z</time>
      </trkpt>
      <trkpt lat="48.62903" lon="2.26387">
        <ele>72.2</ele>
        <time>2020-07-02T08:52:26Z</time>
      </trkpt>
      <trkpt lat="48.629" lon="2.26386">
        <ele>72.5</ele>
        <time>2020-07-02T08:52:27Z</time>
      </trkpt>
      <trkpt lat="48.62897" lon="2.26383">
        <ele>72.7</ele>
        <time>2020-07-02T08:52:28Z</time>
      </trkpt>
      <trkpt lat="48.62895" lon="2.26382">
        <ele>72.8</ele>
        <time>2020-07-02T08:52:29Z</time>
      </trkpt>
      <trkpt lat="48.62892" lon="2.2638">
        <ele>73.1</ele>
        <time>2020-07-02T08:52:30Z</time>
      </trkpt>
      <trkpt lat="48.6289" lon="2.26379">
        <ele>73.2</ele>
        <time>2020-07-02T08:52:31Z</time>
      </trkpt>
      <trkpt lat="48.62887" lon="2.26378">
        <ele>73.4</ele>
        <time>2020-07-02T08:52:32Z</time>
      </trkpt>
      <trkpt lat="48.62883" lon="2.26375">
        <ele>73.7</ele>
        <time>2020-07-02T08:52:33Z</time>
      </trkpt>
      <trkpt lat="48.62882" lon="2.26375">
        <ele>73.8</ele>
        <time>2020-07-02T08:52:34Z</time>
      </trkpt>
      <trkpt lat="48.62879" lon="2.26374">
        <ele>74</ele>
        <time>2020-07-02T08:52:35Z</time>
      </trkpt>
      <trkpt lat="48.62876" lon="2.26373">
        <ele>74.3</ele>
        <time>2020-07-02T08:52:36Z</time>
      </trkpt>
      <trkpt lat="48.62873" lon="2.26372">
        <ele>74.4</ele>
        <time>2020-07-02T08:52:37Z</time>
      </trkpt>
      <trkpt lat="48.62869" lon="2.26371">
        <ele>74.5</ele>
        <time>2020-07-02T08:52:38Z</time>
      </trkpt>
      <trkpt lat="48.62866" lon="2.26369">
        <ele>74.6</ele>
        <time>2020-07-02T08:52:39Z</time>
      </trkpt>
      <trkpt lat="48.62863" lon="2.26368">
        <ele>74.8</ele>
        <time>2020-07-02T08:52:40Z</time>
      </trkpt>
      <trkpt lat="48.6286" lon="2.26367">
        <ele>74.9</ele>
        <time>2020-07-02T08:52:41Z</time>
      </trkpt>
      <trkpt lat="48.62856" lon="2.26364">
        <ele>75.2</ele>
        <time>2020-07-02T08:52:42Z</time>
      </trkpt>
      <trkpt lat="48.62855" lon="2.26362">
        <ele>75.3</ele>
        <time>2020-07-02T08:52:43Z</time>
      </trkpt>
      <trkpt lat="48.62851" lon="2.26361">
        <ele>75.4</ele>
        <time>2020-07-02T08:52:44Z</time>
      </trkpt>
      <trkpt lat="48.62848" lon="2.26359">
        <ele>75.6</ele>
        <time>2020-07-02T08:52:45Z</time>
      </trkpt>
      <trkpt lat="48.62845" lon="2.26357">
        <ele>75.7</ele>
        <time>2020-07-02T08:52:46Z</time>
      </trkpt>
      <trkpt lat="48.62842" lon="2.26356">
        <ele>75.8</ele>
        <time>2020-07-02T08:52:47Z</time>
      </trkpt>
      <trkpt lat="48.62838" lon="2.26355">
        <ele>76</ele>
        <time>2020-07-02T08:52:48Z</time>
      </trkpt>
      <trkpt lat="48.62834" lon="2.26354">
        <ele>76.1</ele>
        <time>2020-07-02T08:52:49Z</time>
      </trkpt>
      <trkpt lat="48.6283" lon="2.26353">
        <ele>76.3</ele>
        <time>2020-07-02T08:52:50Z</time>
      </trkpt>
      <trkpt lat="48.62828" lon="2.26352">
        <ele>76.3</ele>
        <time>2020-07-02T08:52:51Z</time>
      </trkpt>
      <trkpt lat="48.62825" lon="2.2635">
        <ele>76.5</ele>
        <time>2020-07-02T08:52:52Z</time>
      </trkpt>
      <trkpt lat="48.62821" lon="2.26349">
        <ele>76.6</ele>
        <time>2020-07-02T08:52:53Z</time>
      </trkpt>
      <trkpt lat="48.62818" lon="2.26348">
        <ele>76.8</ele>
        <time>2020-07-02T08:52:54Z</time>
      </trkpt>
      <trkpt lat="48.62814" lon="2.26347">
        <ele>77</ele>
        <time>2020-07-02T08:52:55Z</time>
      </trkpt>
      <trkpt lat="48.62813" lon="2.26347">
        <ele>77.1</ele>
        <time>2020-07-02T08:52:56Z</time>
      </trkpt>
      <trkpt lat="48.6281" lon="2.26347">
        <ele>77.2</ele>
        <time>2020-07-02T08:52:57Z</time>
      </trkpt>
      <trkpt lat="48.62807" lon="2.26346">
        <ele>77.4</ele>
        <time>2020-07-02T08:52:58Z</time>
      </trkpt>
      <trkpt lat="48.62804" lon="2.26346">
        <ele>77.6</ele>
        <time>2020-07-02T08:52:59Z</time>
      </trkpt>
      <trkpt lat="48.628" lon="2.26345">
        <ele>77.7</ele>
        <time>2020-07-02T08:53:00Z</time>
      </trkpt>
      <trkpt lat="48.62797" lon="2.26344">
        <ele>77.9</ele>
        <time>2020-07-02T08:53:01Z</time>
      </trkpt>
      <trkpt lat="48.62794" lon="2.26343">
        <ele>78</ele>
        <time>2020-07-02T08:53:02Z</time>
      </trkpt>
      <trkpt lat="48.62791" lon="2.26341">
        <ele>78.2</ele>
        <time>2020-07-02T08:53:03Z</time>
      </trkpt>
      <trkpt lat="48.62788" lon="2.26339">
        <ele>78.4</ele>
        <time>2020-07-02T08:53:04Z</time>
      </trkpt>
      <trkpt lat="48.62785" lon="2.26338">
        <ele>78.5</ele>
        <time>2020-07-02T08:53:05Z</time>
      </trkpt>
      <trkpt lat="48.62782" lon="2.26337">
        <ele>78.7</ele>
        <time>2020-07-02T08:53:06Z</time>
      </trkpt>
      <trkpt lat="48.62778" lon="2.26335">
        <ele>78.9</ele>
        <time>2020-07-02T08:53:07Z</time>
      </trkpt>
      <trkpt lat="48.62777" lon="2.26335">
        <ele>79</ele>
        <time>2020-07-02T08:53:08Z</time>
      </trkpt>
      <trkpt lat="48.62774" lon="2.26334">
        <ele>79.1</ele>
        <time>2020-07-02T08:53:09Z</time>
      </trkpt>
      <trkpt lat="48.62771" lon="2.26332">
        <ele>79.3</ele>
        <time>2020-07-02T08:53:10Z</time>
      </trkpt>
      <trkpt lat="48.62768" lon="2.26331">
        <ele>79.4</ele>
        <time>2020-07-02T08:53:11Z</time>
      </trkpt>
      <trkpt lat="48.62765" lon="2.26329">
        <ele>79.6</ele>
        <time>2020-07-02T08:53:12Z</time>
      </trkpt>
      <trkpt lat="48.62762" lon="2.26328">
        <ele>79.7</ele>
        <time>2020-07-02T08:53:13Z</time>
      </trkpt>
      <trkpt lat="48.62759" lon="2.26327">
        <ele>79.9</ele>
        <time>2020-07-02T08:53:14Z</time>
      </trkpt>
      <trkpt lat="48.62756" lon="2.26326">
        <ele>80.1</ele>
        <time>2020-07-02T08:53:15Z</time>
      </trkpt>
      <trkpt lat="48.62753" lon="2.26325">
        <ele>80.2</ele>
        <time>2020-07-02T08:53:16Z</time>
      </trkpt>
      <trkpt lat="48.6275" lon="2.26323">
        <ele>80.4</ele>
        <time>2020-07-02T08:53:17Z</time>
      </trkpt>
      <trkpt lat="48.62746" lon="2.26323">
        <ele>80.6</ele>
        <time>2020-07-02T08:53:18Z</time>
      </trkpt>
      <trkpt lat="48.62744" lon="2.26322">
        <ele>80.7</ele>
        <time>2020-07-02T08:53:19Z</time>
      </trkpt>
      <trkpt lat="48.62741" lon="2.26321">
        <ele>80.8</ele>
        <time>2020-07-02T08:53:20Z</time>
      </trkpt>
      <trkpt lat="48.62737" lon="2.2632">
        <ele>81</ele>
        <time>2020-07-02T08:53:21Z</time>
      </trkpt>
      <trkpt lat="48.62736" lon="2.2632">
        <ele>81.1</ele>
        <time>2020-07-02T08:53:22Z</time>
      </trkpt>
      <trkpt lat="48.62733" lon="2.26318">
        <ele>81.3</ele>
        <time>2020-07-02T08:53:23Z</time>
      </trkpt>
      <trkpt lat="48.6273" lon="2.26316">
        <ele>81.5</ele>
        <time>2020-07-02T08:53:24Z</time>
      </trkpt>
      <trkpt lat="48.62726" lon="2.26314">
        <ele>81.7</ele>
        <time>2020-07-02T08:53:25Z</time>
      </trkpt>
      <trkpt lat="48.62725" lon="2.26314">
        <ele>81.8</ele>
        <time>2020-07-02T08:53:26Z</time>
      </trkpt>
      <trkpt lat="48.62721" lon="2.26313">
        <ele>82</ele>
        <time>2020-07-02T08:53:27Z</time>
      </trkpt>
      <trkpt lat="48.62719" lon="2.26311">
        <ele>82.1</ele>
        <time>2020-07-02T08:53:28Z</time>
      </trkpt>
      <trkpt lat="48.62716" lon="2.2631">
        <ele>82.3</ele>
        <time>2020-07-02T08:53:29Z</time>
      </trkpt>
      <trkpt lat="48.62713" lon="2.26309">
        <ele>82.4</ele>
        <time>2020-07-02T08:53:30Z</time>
      </trkpt>
      <trkpt lat="48.62709" lon="2.26308">
        <ele>82.6</ele>
        <time>2020-07-02T08:53:31Z</time>
      </trkpt>
      <trkpt lat="48.62708" lon="2.26308">
        <ele>82.7</ele>
        <time>2020-07-02T08:53:32Z</time>
      </trkpt>
      <trkpt lat="48.62705" lon="2.26306">
        <ele>82.8</ele>
        <time>2020-07-02T08:53:33Z</time>
      </trkpt>
      <trkpt lat="48.62704" lon="2.26305">
        <ele>82.9</ele>
        <time>2020-07-02T08:53:34Z</time>
      </trkpt>
      <trkpt lat="48.62702" lon="2.26301">
        <ele>83</ele>
        <time>2020-07-02T08:53:35Z</time>
      </trkpt>
      <trkpt lat="48.62701" lon="2.263">
        <ele>82.3</ele>
        <time>2020-07-02T08:53:36Z</time>
      </trkpt>
      <trkpt lat="48.62699" lon="2.26296">
        <ele>82.4</ele>
        <time>2020-07-02T08:53:37Z</time>
      </trkpt>
      <trkpt lat="48.62699" lon="2.26294">
        <ele>82.5</ele>
        <time>2020-07-02T08:53:38Z</time>
      </trkpt>
      <trkpt lat="48.62696" lon="2.26291">
        <ele>82.6</ele>
        <time>2020-07-02T08:53:39Z</time>
      </trkpt>
      <trkpt lat="48.62696" lon="2.26291">
        <ele>82.6</ele>
        <time>2020-07-02T08:53:40Z</time>
      </trkpt>
      <trkpt lat="48.62694" lon="2.2629">
        <ele>82.6</ele>
        <time>2020-07-02T08:53:41Z</time>
      </trkpt>
      <trkpt lat="48.62692" lon="2.2629">
        <ele>82.7</ele>
        <time>2020-07-02T08:53:42Z</time>
      </trkpt>
      <trkpt lat="48.62691" lon="2.2629">
        <ele>82.7</ele>
        <time>2020-07-02T08:53:43Z</time>
      </trkpt>
      <trkpt lat="48.62689" lon="2.26291">
        <ele>82.8</ele>
        <time>2020-07-02T08:53:44Z</time>
      </trkpt>
      <trkpt lat="48.62688" lon="2.26292">
        <ele>82.8</ele>
        <time>2020-07-02T08:53:45Z</time>
      </trkpt>
      <trkpt lat="48.62687" lon="2.26294">
        <ele>82.9</ele>
        <time>2020-07-02T08:53:46Z</time>
      </trkpt>
      <trkpt lat="48.62685" lon="2.26297">
        <ele>83</ele>
        <time>2020-07-02T08:53:47Z</time>
      </trkpt>
      <trkpt lat="48.62685" lon="2.26299">
        <ele>83</ele>
        <time>2020-07-02T08:53:48Z</time>
      </trkpt>
      <trkpt lat="48.62684" lon="2.26305">
        <ele>83</ele>
        <time>2020-07-02T08:53:49Z</time>
      </trkpt>
      <trkpt lat="48.62683" lon="2.26307">
        <ele>83</ele>
        <time>2020-07-02T08:53:50Z</time>
      </trkpt>
      <trkpt lat="48.62682" lon="2.26312">
        <ele>83</ele>
        <time>2020-07-02T08:53:51Z</time>
      </trkpt>
      <trkpt lat="48.62681" lon="2.26316">
        <ele>83</ele>
        <time>2020-07-02T08:53:52Z</time>
      </trkpt>
      <trkpt lat="48.6268" lon="2.26322">
        <ele>82.9</ele>
        <time>2020-07-02T08:53:53Z</time>
      </trkpt>
      <trkpt lat="48.6268" lon="2.26324">
        <ele>82.9</ele>
        <time>2020-07-02T08:53:54Z</time>
      </trkpt>
      <trkpt lat="48.62678" lon="2.26329">
        <ele>82.9</ele>
        <time>2020-07-02T08:53:55Z</time>
      </trkpt>
      <trkpt lat="48.62676" lon="2.26333">
        <ele>82.9</ele>
        <time>2020-07-02T08:53:56Z</time>
      </trkpt>
      <trkpt lat="48.62674" lon="2.26338">
        <ele>82.9</ele>
        <time>2020-07-02T08:53:57Z</time>
      </trkpt>
      <trkpt lat="48.62672" lon="2.26342">
        <ele>82.9</ele>
        <time>2020-07-02T08:53:58Z</time>
      </trkpt>
      <trkpt lat="48.6267" lon="2.26347">
        <ele>82.8</ele>
        <time>2020-07-02T08:53:59Z</time>
      </trkpt>
      <trkpt lat="48.62668" lon="2.2635">
        <ele>82.8</ele>
        <time>2020-07-02T08:54:00Z</time>
      </trkpt>
      <trkpt lat="48.62666" lon="2.26354">
        <ele>82.8</ele>
        <time>2020-07-02T08:54:01Z</time>
      </trkpt>
      <trkpt lat="48.62665" lon="2.26358">
        <ele>82.7</ele>
        <time>2020-07-02T08:54:02Z</time>
      </trkpt>
      <trkpt lat="48.62663" lon="2.26362">
        <ele>82.6</ele>
        <time>2020-07-02T08:54:03Z</time>
      </trkpt>
      <trkpt lat="48.62662" lon="2.26367">
        <ele>82.6</ele>
        <time>2020-07-02T08:54:04Z</time>
      </trkpt>
      <trkpt lat="48.6266" lon="2.26371">
        <ele>82.5</ele>
        <time>2020-07-02T08:54:05Z</time>
      </trkpt>
      <trkpt lat="48.62658" lon="2.26375">
        <ele>82.5</ele>
        <time>2020-07-02T08:54:06Z</time>
      </trkpt>
      <trkpt lat="48.62657" lon="2.2638">
        <ele>82.4</ele>
        <time>2020-07-02T08:54:07Z</time>
      </trkpt>
      <trkpt lat="48.62655" lon="2.26385">
        <ele>82.3</ele>
        <time>2020-07-02T08:54:08Z</time>
      </trkpt>
      <trkpt lat="48.62653" lon="2.26389">
        <ele>82.2</ele>
        <time>2020-07-02T08:54:09Z</time>
      </trkpt>
      <trkpt lat="48.62652" lon="2.26395">
        <ele>82</ele>
        <time>2020-07-02T08:54:10Z</time>
      </trkpt>
      <trkpt lat="48.6265" lon="2.264">
        <ele>81.9</ele>
        <time>2020-07-02T08:54:11Z</time>
      </trkpt>
      <trkpt lat="48.62649" lon="2.26406">
        <ele>81.8</ele>
        <time>2020-07-02T08:54:12Z</time>
      </trkpt>
      <trkpt lat="48.62647" lon="2.26411">
        <ele>81.6</ele>
        <time>2020-07-02T08:54:13Z</time>
      </trkpt>
      <trkpt lat="48.62646" lon="2.26417">
        <ele>81.5</ele>
        <time>2020-07-02T08:54:14Z</time>
      </trkpt>
      <trkpt lat="48.62644" lon="2.26421">
        <ele>81.4</ele>
        <time>2020-07-02T08:54:15Z</time>
      </trkpt>
      <trkpt lat="48.62643" lon="2.26425">
        <ele>81.3</ele>
        <time>2020-07-02T08:54:16Z</time>
      </trkpt>
      <trkpt lat="48.62643" lon="2.26431">
        <ele>81.2</ele>
        <time>2020-07-02T08:54:17Z</time>
      </trkpt>
      <trkpt lat="48.62642" lon="2.26435">
        <ele>81.1</ele>
        <time>2020-07-02T08:54:18Z</time>
      </trkpt>
      <trkpt lat="48.62641" lon="2.2644">
        <ele>81.1</ele>
        <time>2020-07-02T08:54:19Z</time>
      </trkpt>
      <trkpt lat="48.62639" lon="2.26445">
        <ele>80.9</ele>
        <time>2020-07-02T08:54:20Z</time>
      </trkpt>
      <trkpt lat="48.62638" lon="2.26451">
        <ele>80.8</ele>
        <time>2020-07-02T08:54:21Z</time>
      </trkpt>
      <trkpt lat="48.62637" lon="2.26456">
        <ele>80.7</ele>
        <time>2020-07-02T08:54:22Z</time>
      </trkpt>
      <trkpt lat="48.62635" lon="2.26462">
        <ele>80.6</ele>
        <time>2020-07-02T08:54:23Z</time>
      </trkpt>
      <trkpt lat="48.62633" lon="2.26469">
        <ele>80.4</ele>
        <time>2020-07-02T08:54:24Z</time>
      </trkpt>
      <trkpt lat="48.62631" lon="2.26476">
        <ele>80.2</ele>
        <time>2020-07-02T08:54:25Z</time>
      </trkpt>
      <trkpt lat="48.62629" lon="2.26482">
        <ele>80.1</ele>
        <time>2020-07-02T08:54:26Z</time>
      </trkpt>
      <trkpt lat="48.62627" lon="2.26488">
        <ele>79.9</ele>
        <time>2020-07-02T08:54:27Z</time>
      </trkpt>
      <trkpt lat="48.62625" lon="2.26494">
        <ele>79.7</ele>
        <time>2020-07-02T08:54:28Z</time>
      </trkpt>
      <trkpt lat="48.62623" lon="2.26499">
        <ele>79.6</ele>
        <time>2020-07-02T08:54:29Z</time>
      </trkpt>
      <trkpt lat="48.62621" lon="2.26506">
        <ele>79.4</ele>
        <time>2020-07-02T08:54:30Z</time>
      </trkpt>
      <trkpt lat="48.62618" lon="2.26512">
        <ele>79.2</ele>
        <time>2020-07-02T08:54:31Z</time>
      </trkpt>
      <trkpt lat="48.62616" lon="2.26518">
        <ele>79</ele>
        <time>2020-07-02T08:54:32Z</time>
      </trkpt>
      <trkpt lat="48.62615" lon="2.26525">
        <ele>78.9</ele>
        <time>2020-07-02T08:54:33Z</time>
      </trkpt>
      <trkpt lat="48.62613" lon="2.26531">
        <ele>78.7</ele>
        <time>2020-07-02T08:54:34Z</time>
      </trkpt>
      <trkpt lat="48.62612" lon="2.26536">
        <ele>78.6</ele>
        <time>2020-07-02T08:54:35Z</time>
      </trkpt>
      <trkpt lat="48.62611" lon="2.26541">
        <ele>78.4</ele>
        <time>2020-07-02T08:54:36Z</time>
      </trkpt>
      <trkpt lat="48.6261" lon="2.26546">
        <ele>78.3</ele>
        <time>2020-07-02T08:54:37Z</time>
      </trkpt>
      <trkpt lat="48.62609" lon="2.2655">
        <ele>78.2</ele>
        <time>2020-07-02T08:54:38Z</time>
      </trkpt>
      <trkpt lat="48.62607" lon="2.26556">
        <ele>78.1</ele>
        <time>2020-07-02T08:54:39Z</time>
      </trkpt>
      <trkpt lat="48.62606" lon="2.26562">
        <ele>77.9</ele>
        <time>2020-07-02T08:54:40Z</time>
      </trkpt>
      <trkpt lat="48.62605" lon="2.26567">
        <ele>77.8</ele>
        <time>2020-07-02T08:54:41Z</time>
      </trkpt>
      <trkpt lat="48.62603" lon="2.26573">
        <ele>77.6</ele>
        <time>2020-07-02T08:54:42Z</time>
      </trkpt>
      <trkpt lat="48.62601" lon="2.26579">
        <ele>77.5</ele>
        <time>2020-07-02T08:54:43Z</time>
      </trkpt>
      <trkpt lat="48.62598" lon="2.26585">
        <ele>77.3</ele>
        <time>2020-07-02T08:54:44Z</time>
      </trkpt>
      <trkpt lat="48.62596" lon="2.26593">
        <ele>77.2</ele>
        <time>2020-07-02T08:54:45Z</time>
      </trkpt>
      <trkpt lat="48.62593" lon="2.266">
        <ele>77</ele>
        <time>2020-07-02T08:54:46Z</time>
      </trkpt>
      <trkpt lat="48.6259" lon="2.26607">
        <ele>76.8</ele>
        <time>2020-07-02T08:54:47Z</time>
      </trkpt>
      <trkpt lat="48.62586" lon="2.26613">
        <ele>76.7</ele>
        <time>2020-07-02T08:54:48Z</time>
      </trkpt>
      <trkpt lat="48.62582" lon="2.26619">
        <ele>76.6</ele>
        <time>2020-07-02T08:54:49Z</time>
      </trkpt>
      <trkpt lat="48.62577" lon="2.26623">
        <ele>76.6</ele>
        <time>2020-07-02T08:54:50Z</time>
      </trkpt>
      <trkpt lat="48.62572" lon="2.26627">
        <ele>76.7</ele>
        <time>2020-07-02T08:54:51Z</time>
      </trkpt>
      <trkpt lat="48.62566" lon="2.26629">
        <ele>76.8</ele>
        <time>2020-07-02T08:54:52Z</time>
      </trkpt>
      <trkpt lat="48.62561" lon="2.2663">
        <ele>76.8</ele>
        <time>2020-07-02T08:54:53Z</time>
      </trkpt>
      <trkpt lat="48.62555" lon="2.26631">
        <ele>76.9</ele>
        <time>2020-07-02T08:54:54Z</time>
      </trkpt>
      <trkpt lat="48.6255" lon="2.26631">
        <ele>76.9</ele>
        <time>2020-07-02T08:54:55Z</time>
      </trkpt>
      <trkpt lat="48.62544" lon="2.26632">
        <ele>77.1</ele>
        <time>2020-07-02T08:54:56Z</time>
      </trkpt>
      <trkpt lat="48.6254" lon="2.26634">
        <ele>77.3</ele>
        <time>2020-07-02T08:54:57Z</time>
      </trkpt>
      <trkpt lat="48.62534" lon="2.26635">
        <ele>77.4</ele>
        <time>2020-07-02T08:54:58Z</time>
      </trkpt>
      <trkpt lat="48.62529" lon="2.26637">
        <ele>77.6</ele>
        <time>2020-07-02T08:54:59Z</time>
      </trkpt>
      <trkpt lat="48.62524" lon="2.26637">
        <ele>77.7</ele>
        <time>2020-07-02T08:55:00Z</time>
      </trkpt>
      <trkpt lat="48.6252" lon="2.26637">
        <ele>77.8</ele>
        <time>2020-07-02T08:55:01Z</time>
      </trkpt>
      <trkpt lat="48.62515" lon="2.26637">
        <ele>77.9</ele>
        <time>2020-07-02T08:55:02Z</time>
      </trkpt>
      <trkpt lat="48.62511" lon="2.26636">
        <ele>78</ele>
        <time>2020-07-02T08:55:03Z</time>
      </trkpt>
      <trkpt lat="48.62507" lon="2.26637">
        <ele>78.2</ele>
        <time>2020-07-02T08:55:04Z</time>
      </trkpt>
      <trkpt lat="48.62503" lon="2.26639">
        <ele>78.3</ele>
        <time>2020-07-02T08:55:05Z</time>
      </trkpt>
      <trkpt lat="48.62498" lon="2.26641">
        <ele>78.5</ele>
        <time>2020-07-02T08:55:06Z</time>
      </trkpt>
      <trkpt lat="48.62494" lon="2.26643">
        <ele>78.6</ele>
        <time>2020-07-02T08:55:07Z</time>
      </trkpt>
      <trkpt lat="48.62489" lon="2.26645">
        <ele>78.8</ele>
        <time>2020-07-02T08:55:08Z</time>
      </trkpt>
      <trkpt lat="48.62485" lon="2.26647">
        <ele>78.9</ele>
        <time>2020-07-02T08:55:09Z</time>
      </trkpt>
      <trkpt lat="48.62481" lon="2.26649">
        <ele>79.1</ele>
        <time>2020-07-02T08:55:10Z</time>
      </trkpt>
      <trkpt lat="48.62477" lon="2.26651">
        <ele>79.2</ele>
        <time>2020-07-02T08:55:11Z</time>
      </trkpt>
      <trkpt lat="48.62472" lon="2.26651">
        <ele>79.4</ele>
        <time>2020-07-02T08:55:12Z</time>
      </trkpt>
      <trkpt lat="48.62468" lon="2.26652">
        <ele>79.7</ele>
        <time>2020-07-02T08:55:13Z</time>
      </trkpt>
      <trkpt lat="48.62464" lon="2.26653">
        <ele>79.9</ele>
        <time>2020-07-02T08:55:14Z</time>
      </trkpt>
      <trkpt lat="48.6246" lon="2.26653">
        <ele>80.1</ele>
        <time>2020-07-02T08:55:15Z</time>
      </trkpt>
      <trkpt lat="48.62455" lon="2.26653">
        <ele>80.3</ele>
        <time>2020-07-02T08:55:16Z</time>
      </trkpt>
      <trkpt lat="48.62451" lon="2.26654">
        <ele>80.6</ele>
        <time>2020-07-02T08:55:17Z</time>
      </trkpt>
      <trkpt lat="48.62447" lon="2.26656">
        <ele>80.8</ele>
        <time>2020-07-02T08:55:18Z</time>
      </trkpt>
      <trkpt lat="48.62443" lon="2.26656">
        <ele>81.1</ele>
        <time>2020-07-02T08:55:19Z</time>
      </trkpt>
      <trkpt lat="48.62437" lon="2.26658">
        <ele>81.4</ele>
        <time>2020-07-02T08:55:20Z</time>
      </trkpt>
      <trkpt lat="48.62433" lon="2.26659">
        <ele>81.6</ele>
        <time>2020-07-02T08:55:21Z</time>
      </trkpt>
      <trkpt lat="48.62428" lon="2.2666">
        <ele>81.9</ele>
        <time>2020-07-02T08:55:22Z</time>
      </trkpt>
      <trkpt lat="48.62423" lon="2.26661">
        <ele>82.1</ele>
        <time>2020-07-02T08:55:23Z</time>
      </trkpt>
      <trkpt lat="48.62418" lon="2.26663">
        <ele>82.2</ele>
        <time>2020-07-02T08:55:24Z</time>
      </trkpt>
      <trkpt lat="48.62413" lon="2.26663">
        <ele>82.3</ele>
        <time>2020-07-02T08:55:25Z</time>
      </trkpt>
      <trkpt lat="48.62408" lon="2.26664">
        <ele>82.4</ele>
        <time>2020-07-02T08:55:26Z</time>
      </trkpt>
      <trkpt lat="48.62403" lon="2.26665">
        <ele>82.5</ele>
        <time>2020-07-02T08:55:27Z</time>
      </trkpt>
      <trkpt lat="48.62398" lon="2.26666">
        <ele>82.7</ele>
        <time>2020-07-02T08:55:28Z</time>
      </trkpt>
      <trkpt lat="48.62392" lon="2.26667">
        <ele>82.9</ele>
        <time>2020-07-02T08:55:29Z</time>
      </trkpt>
      <trkpt lat="48.62387" lon="2.26669">
        <ele>83</ele>
        <time>2020-07-02T08:55:30Z</time>
      </trkpt>
      <trkpt lat="48.62383" lon="2.2667">
        <ele>83.1</ele>
        <time>2020-07-02T08:55:31Z</time>
      </trkpt>
      <trkpt lat="48.62379" lon="2.2667">
        <ele>83.1</ele>
        <time>2020-07-02T08:55:32Z</time>
      </trkpt>
      <trkpt lat="48.62374" lon="2.26671">
        <ele>83.2</ele>
        <time>2020-07-02T08:55:33Z</time>
      </trkpt>
      <trkpt lat="48.6237" lon="2.26671">
        <ele>83.2</ele>
        <time>2020-07-02T08:55:34Z</time>
      </trkpt>
      <trkpt lat="48.62366" lon="2.26672">
        <ele>83.3</ele>
        <time>2020-07-02T08:55:35Z</time>
      </trkpt>
      <trkpt lat="48.62362" lon="2.26674">
        <ele>83.3</ele>
        <time>2020-07-02T08:55:36Z</time>
      </trkpt>
      <trkpt lat="48.62357" lon="2.26675">
        <ele>83.3</ele>
        <time>2020-07-02T08:55:37Z</time>
      </trkpt>
      <trkpt lat="48.62352" lon="2.26675">
        <ele>83.4</ele>
        <time>2020-07-02T08:55:38Z</time>
      </trkpt>
      <trkpt lat="48.62347" lon="2.26676">
        <ele>83.4</ele>
        <time>2020-07-02T08:55:39Z</time>
      </trkpt>
      <trkpt lat="48.62342" lon="2.26677">
        <ele>83.4</ele>
        <time>2020-07-02T08:55:40Z</time>
      </trkpt>
      <trkpt lat="48.62337" lon="2.26678">
        <ele>83.4</ele>
        <time>2020-07-02T08:55:41Z</time>
      </trkpt>
      <trkpt lat="48.62333" lon="2.26677">
        <ele>83.3</ele>
        <time>2020-07-02T08:55:42Z</time>
      </trkpt>
      <trkpt lat="48.62329" lon="2.26678">
        <ele>83.2</ele>
        <time>2020-07-02T08:55:43Z</time>
      </trkpt>
      <trkpt lat="48.62325" lon="2.26678">
        <ele>83.2</ele>
        <time>2020-07-02T08:55:44Z</time>
      </trkpt>
      <trkpt lat="48.6232" lon="2.26678">
        <ele>83</ele>
        <time>2020-07-02T08:55:45Z</time>
      </trkpt>
      <trkpt lat="48.62316" lon="2.26676">
        <ele>82.7</ele>
        <time>2020-07-02T08:55:46Z</time>
      </trkpt>
      <trkpt lat="48.62311" lon="2.26676">
        <ele>82.4</ele>
        <time>2020-07-02T08:55:47Z</time>
      </trkpt>
      <trkpt lat="48.62305" lon="2.26675">
        <ele>82.1</ele>
        <time>2020-07-02T08:55:48Z</time>
      </trkpt>
      <trkpt lat="48.62299" lon="2.26677">
        <ele>81.8</ele>
        <time>2020-07-02T08:55:49Z</time>
      </trkpt>
      <trkpt lat="48.62293" lon="2.26678">
        <ele>81.4</ele>
        <time>2020-07-02T08:55:50Z</time>
      </trkpt>
      <trkpt lat="48.62287" lon="2.26682">
        <ele>80.9</ele>
        <time>2020-07-02T08:55:51Z</time>
      </trkpt>
      <trkpt lat="48.6228" lon="2.26686">
        <ele>80.8</ele>
        <time>2020-07-02T08:55:52Z</time>
      </trkpt>
      <trkpt lat="48.62275" lon="2.26689">
        <ele>80.6</ele>
        <time>2020-07-02T08:55:53Z</time>
      </trkpt>
      <trkpt lat="48.62269" lon="2.26691">
        <ele>80.4</ele>
        <time>2020-07-02T08:55:54Z</time>
      </trkpt>
      <trkpt lat="48.62262" lon="2.26692">
        <ele>80.1</ele>
        <time>2020-07-02T08:55:55Z</time>
      </trkpt>
      <trkpt lat="48.62254" lon="2.26694">
        <ele>80</ele>
        <time>2020-07-02T08:55:56Z</time>
      </trkpt>
      <trkpt lat="48.62247" lon="2.26695">
        <ele>79.9</ele>
        <time>2020-07-02T08:55:57Z</time>
      </trkpt>
      <trkpt lat="48.6224" lon="2.26696">
        <ele>79.8</ele>
        <time>2020-07-02T08:55:58Z</time>
      </trkpt>
      <trkpt lat="48.62232" lon="2.26698">
        <ele>79.7</ele>
        <time>2020-07-02T08:55:59Z</time>
      </trkpt>
      <trkpt lat="48.62226" lon="2.26699">
        <ele>79.6</ele>
        <time>2020-07-02T08:56:00Z</time>
      </trkpt>
      <trkpt lat="48.62219" lon="2.267">
        <ele>79.5</ele>
        <time>2020-07-02T08:56:01Z</time>
      </trkpt>
      <trkpt lat="48.62213" lon="2.26701">
        <ele>79.3</ele>
        <time>2020-07-02T08:56:02Z</time>
      </trkpt>
      <trkpt lat="48.62207" lon="2.26701">
        <ele>79.2</ele>
        <time>2020-07-02T08:56:03Z</time>
      </trkpt>
      <trkpt lat="48.62201" lon="2.26701">
        <ele>79.1</ele>
        <time>2020-07-02T08:56:04Z</time>
      </trkpt>
      <trkpt lat="48.62195" lon="2.267">
        <ele>79</ele>
        <time>2020-07-02T08:56:05Z</time>
      </trkpt>
      <trkpt lat="48.6219" lon="2.267">
        <ele>78.9</ele>
        <time>2020-07-02T08:56:06Z</time>
      </trkpt>
      <trkpt lat="48.62184" lon="2.26699">
        <ele>78.9</ele>
        <time>2020-07-02T08:56:07Z</time>
      </trkpt>
      <trkpt lat="48.62177" lon="2.26698">
        <ele>78.9</ele>
        <time>2020-07-02T08:56:08Z</time>
      </trkpt>
      <trkpt lat="48.62171" lon="2.26697">
        <ele>78.9</ele>
        <time>2020-07-02T08:56:09Z</time>
      </trkpt>
      <trkpt lat="48.62165" lon="2.26695">
        <ele>78.8</ele>
        <time>2020-07-02T08:56:10Z</time>
      </trkpt>
      <trkpt lat="48.6216" lon="2.26693">
        <ele>78.8</ele>
        <time>2020-07-02T08:56:11Z</time>
      </trkpt>
      <trkpt lat="48.62153" lon="2.26692">
        <ele>78.7</ele>
        <time>2020-07-02T08:56:12Z</time>
      </trkpt>
      <trkpt lat="48.62148" lon="2.26691">
        <ele>78.7</ele>
        <time>2020-07-02T08:56:13Z</time>
      </trkpt>
      <trkpt lat="48.62141" lon="2.26689">
        <ele>78.5</ele>
        <time>2020-07-02T08:56:14Z</time>
      </trkpt>
      <trkpt lat="48.62134" lon="2.26687">
        <ele>78.4</ele>
        <time>2020-07-02T08:56:15Z</time>
      </trkpt>
      <trkpt lat="48.62128" lon="2.26685">
        <ele>78.3</ele>
        <time>2020-07-02T08:56:16Z</time>
      </trkpt>
      <trkpt lat="48.62123" lon="2.26683">
        <ele>78.2</ele>
        <time>2020-07-02T08:56:17Z</time>
      </trkpt>
      <trkpt lat="48.62117" lon="2.26681">
        <ele>78</ele>
        <time>2020-07-02T08:56:18Z</time>
      </trkpt>
      <trkpt lat="48.62111" lon="2.26678">
        <ele>77.9</ele>
        <time>2020-07-02T08:56:19Z</time>
      </trkpt>
      <trkpt lat="48.62106" lon="2.26675">
        <ele>77.8</ele>
        <time>2020-07-02T08:56:20Z</time>
      </trkpt>
      <trkpt lat="48.62101" lon="2.26672">
        <ele>77.7</ele>
        <time>2020-07-02T08:56:21Z</time>
      </trkpt>
      <trkpt lat="48.62095" lon="2.26668">
        <ele>77.5</ele>
        <time>2020-07-02T08:56:22Z</time>
      </trkpt>
      <trkpt lat="48.6209" lon="2.26664">
        <ele>77.4</ele>
        <time>2020-07-02T08:56:23Z</time>
      </trkpt>
      <trkpt lat="48.62084" lon="2.26661">
        <ele>77.2</ele>
        <time>2020-07-02T08:56:24Z</time>
      </trkpt>
      <trkpt lat="48.62079" lon="2.26658">
        <ele>77.1</ele>
        <time>2020-07-02T08:56:25Z</time>
      </trkpt>
      <trkpt lat="48.62073" lon="2.26655">
        <ele>77</ele>
        <time>2020-07-02T08:56:26Z</time>
      </trkpt>
      <trkpt lat="48.62068" lon="2.26652">
        <ele>76.8</ele>
        <time>2020-07-02T08:56:27Z</time>
      </trkpt>
      <trkpt lat="48.62062" lon="2.26647">
        <ele>76.6</ele>
        <time>2020-07-02T08:56:28Z</time>
      </trkpt>
      <trkpt lat="48.62057" lon="2.26646">
        <ele>76.4</ele>
        <time>2020-07-02T08:56:29Z</time>
      </trkpt>
      <trkpt lat="48.62052" lon="2.26645">
        <ele>76.2</ele>
        <time>2020-07-02T08:56:30Z</time>
      </trkpt>
      <trkpt lat="48.62046" lon="2.26647">
        <ele>76</ele>
        <time>2020-07-02T08:56:31Z</time>
      </trkpt>
      <trkpt lat="48.62041" lon="2.26652">
        <ele>75.7</ele>
        <time>2020-07-02T08:56:32Z</time>
      </trkpt>
      <trkpt lat="48.62035" lon="2.26659">
        <ele>75.5</ele>
        <time>2020-07-02T08:56:33Z</time>
      </trkpt>
      <trkpt lat="48.6203" lon="2.26664">
        <ele>75.3</ele>
        <time>2020-07-02T08:56:34Z</time>
      </trkpt>
      <trkpt lat="48.62026" lon="2.26669">
        <ele>75.2</ele>
        <time>2020-07-02T08:56:35Z</time>
      </trkpt>
      <trkpt lat="48.62022" lon="2.26672">
        <ele>75.1</ele>
        <time>2020-07-02T08:56:36Z</time>
      </trkpt>
      <trkpt lat="48.6202" lon="2.26675">
        <ele>75.1</ele>
        <time>2020-07-02T08:56:37Z</time>
      </trkpt>
      <trkpt lat="48.62016" lon="2.26677">
        <ele>75.1</ele>
        <time>2020-07-02T08:56:38Z</time>
      </trkpt>
      <trkpt lat="48.62015" lon="2.26678">
        <ele>75.1</ele>
        <time>2020-07-02T08:56:39Z</time>
      </trkpt>
      <trkpt lat="48.62013" lon="2.26676">
        <ele>75.2</ele>
        <time>2020-07-02T08:56:40Z</time>
      </trkpt>
      <trkpt lat="48.6201" lon="2.26674">
        <ele>75.2</ele>
        <time>2020-07-02T08:56:41Z</time>
      </trkpt>
      <trkpt lat="48.62007" lon="2.26673">
        <ele>74.9</ele>
        <time>2020-07-02T08:56:42Z</time>
      </trkpt>
      <trkpt lat="48.62005" lon="2.26673">
        <ele>74.8</ele>
        <time>2020-07-02T08:56:43Z</time>
      </trkpt>
      <trkpt lat="48.62002" lon="2.26672">
        <ele>74.5</ele>
        <time>2020-07-02T08:56:44Z</time>
      </trkpt>
      <trkpt lat="48.61998" lon="2.26671">
        <ele>74.2</ele>
        <time>2020-07-02T08:56:45Z</time>
      </trkpt>
      <trkpt lat="48.61995" lon="2.26672">
        <ele>73.9</ele>
        <time>2020-07-02T08:56:46Z</time>
      </trkpt>
      <trkpt lat="48.61992" lon="2.26676">
        <ele>73.6</ele>
        <time>2020-07-02T08:56:47Z</time>
      </trkpt>
      <trkpt lat="48.61989" lon="2.26681">
        <ele>73.2</ele>
        <time>2020-07-02T08:56:48Z</time>
      </trkpt>
      <trkpt lat="48.61985" lon="2.26688">
        <ele>72.8</ele>
        <time>2020-07-02T08:56:49Z</time>
      </trkpt>
      <trkpt lat="48.61982" lon="2.26693">
        <ele>72.4</ele>
        <time>2020-07-02T08:56:50Z</time>
      </trkpt>
      <trkpt lat="48.61978" lon="2.26699">
        <ele>72</ele>
        <time>2020-07-02T08:56:51Z</time>
      </trkpt>
      <trkpt lat="48.61974" lon="2.26706">
        <ele>71.6</ele>
        <time>2020-07-02T08:56:52Z</time>
      </trkpt>
      <trkpt lat="48.61968" lon="2.2671">
        <ele>71.6</ele>
        <time>2020-07-02T08:56:53Z</time>
      </trkpt>
      <trkpt lat="48.61962" lon="2.26714">
        <ele>71.5</ele>
        <time>2020-07-02T08:56:54Z</time>
      </trkpt>
      <trkpt lat="48.61957" lon="2.26716">
        <ele>71.4</ele>
        <time>2020-07-02T08:56:55Z</time>
      </trkpt>
      <trkpt lat="48.61951" lon="2.26717">
        <ele>71.2</ele>
        <time>2020-07-02T08:56:56Z</time>
      </trkpt>
      <trkpt lat="48.61946" lon="2.26717">
        <ele>71.1</ele>
        <time>2020-07-02T08:56:57Z</time>
      </trkpt>
      <trkpt lat="48.61943" lon="2.26716">
        <ele>71</ele>
        <time>2020-07-02T08:56:58Z</time>
      </trkpt>
      <trkpt lat="48.61939" lon="2.26714">
        <ele>70.9</ele>
        <time>2020-07-02T08:56:59Z</time>
      </trkpt>
      <trkpt lat="48.61935" lon="2.26712">
        <ele>70.9</ele>
        <time>2020-07-02T08:57:00Z</time>
      </trkpt>
      <trkpt lat="48.61933" lon="2.2671">
        <ele>70.8</ele>
        <time>2020-07-02T08:57:01Z</time>
      </trkpt>
      <trkpt lat="48.6193" lon="2.26707">
        <ele>70.8</ele>
        <time>2020-07-02T08:57:02Z</time>
      </trkpt>
      <trkpt lat="48.61929" lon="2.267">
        <ele>70.8</ele>
        <time>2020-07-02T08:57:03Z</time>
      </trkpt>
      <trkpt lat="48.61929" lon="2.26695">
        <ele>70.8</ele>
        <time>2020-07-02T08:57:04Z</time>
      </trkpt>
      <trkpt lat="48.61928" lon="2.26691">
        <ele>70.8</ele>
        <time>2020-07-02T08:57:05Z</time>
      </trkpt>
      <trkpt lat="48.61927" lon="2.26684">
        <ele>70.9</ele>
        <time>2020-07-02T08:57:06Z</time>
      </trkpt>
      <trkpt lat="48.61927" lon="2.26679">
        <ele>71</ele>
        <time>2020-07-02T08:57:07Z</time>
      </trkpt>
      <trkpt lat="48.61926" lon="2.26673">
        <ele>71.2</ele>
        <time>2020-07-02T08:57:08Z</time>
      </trkpt>
      <trkpt lat="48.61926" lon="2.26669">
        <ele>71.3</ele>
        <time>2020-07-02T08:57:09Z</time>
      </trkpt>
      <trkpt lat="48.61924" lon="2.26664">
        <ele>71.4</ele>
        <time>2020-07-02T08:57:10Z</time>
      </trkpt>
      <trkpt lat="48.61923" lon="2.26657">
        <ele>71.5</ele>
        <time>2020-07-02T08:57:11Z</time>
      </trkpt>
      <trkpt lat="48.61923" lon="2.26653">
        <ele>71.6</ele>
        <time>2020-07-02T08:57:12Z</time>
      </trkpt>
      <trkpt lat="48.61922" lon="2.26646">
        <ele>71.7</ele>
        <time>2020-07-02T08:57:13Z</time>
      </trkpt>
      <trkpt lat="48.6192" lon="2.2664">
        <ele>71.8</ele>
        <time>2020-07-02T08:57:14Z</time>
      </trkpt>
      <trkpt lat="48.61917" lon="2.26635">
        <ele>71.9</ele>
        <time>2020-07-02T08:57:15Z</time>
      </trkpt>
      <trkpt lat="48.61915" lon="2.26632">
        <ele>72</ele>
        <time>2020-07-02T08:57:16Z</time>
      </trkpt>
      <trkpt lat="48.61912" lon="2.26627">
        <ele>72.1</ele>
        <time>2020-07-02T08:57:17Z</time>
      </trkpt>
      <trkpt lat="48.61908" lon="2.26621">
        <ele>72.3</ele>
        <time>2020-07-02T08:57:18Z</time>
      </trkpt>
      <trkpt lat="48.61904" lon="2.26617">
        <ele>72.5</ele>
        <time>2020-07-02T08:57:19Z</time>
      </trkpt>
      <trkpt lat="48.619" lon="2.26613">
        <ele>72.6</ele>
        <time>2020-07-02T08:57:20Z</time>
      </trkpt>
      <trkpt lat="48.61897" lon="2.2661">
        <ele>72.7</ele>
        <time>2020-07-02T08:57:21Z</time>
      </trkpt>
      <trkpt lat="48.61894" lon="2.26605">
        <ele>72.8</ele>
        <time>2020-07-02T08:57:22Z</time>
      </trkpt>
      <trkpt lat="48.61892" lon="2.26599">
        <ele>72.8</ele>
        <time>2020-07-02T08:57:23Z</time>
      </trkpt>
      <trkpt lat="48.6189" lon="2.26595">
        <ele>72.9</ele>
        <time>2020-07-02T08:57:24Z</time>
      </trkpt>
      <trkpt lat="48.61887" lon="2.2659">
        <ele>72.9</ele>
        <time>2020-07-02T08:57:25Z</time>
      </trkpt>
      <trkpt lat="48.61885" lon="2.26586">
        <ele>72.9</ele>
        <time>2020-07-02T08:57:26Z</time>
      </trkpt>
      <trkpt lat="48.61882" lon="2.26582">
        <ele>73</ele>
        <time>2020-07-02T08:57:27Z</time>
      </trkpt>
      <trkpt lat="48.6188" lon="2.26577">
        <ele>73</ele>
        <time>2020-07-02T08:57:28Z</time>
      </trkpt>
      <trkpt lat="48.61877" lon="2.2657">
        <ele>73.1</ele>
        <time>2020-07-02T08:57:29Z</time>
      </trkpt>
      <trkpt lat="48.61873" lon="2.26566">
        <ele>73.2</ele>
        <time>2020-07-02T08:57:30Z</time>
      </trkpt>
      <trkpt lat="48.6187" lon="2.2656">
        <ele>73.3</ele>
        <time>2020-07-02T08:57:31Z</time>
      </trkpt>
      <trkpt lat="48.61868" lon="2.26558">
        <ele>73.3</ele>
        <time>2020-07-02T08:57:32Z</time>
      </trkpt>
      <trkpt lat="48.61865" lon="2.26553">
        <ele>73.4</ele>
        <time>2020-07-02T08:57:33Z</time>
      </trkpt>
      <trkpt lat="48.61862" lon="2.26549">
        <ele>73.5</ele>
        <time>2020-07-02T08:57:34Z</time>
      </trkpt>
      <trkpt lat="48.61858" lon="2.26545">
        <ele>73.6</ele>
        <time>2020-07-02T08:57:35Z</time>
      </trkpt>
      <trkpt lat="48.61854" lon="2.26541">
        <ele>73.6</ele>
        <time>2020-07-02T08:57:36Z</time>
      </trkpt>
      <trkpt lat="48.6185" lon="2.26537">
        <ele>73.6</ele>
        <time>2020-07-02T08:57:37Z</time>
      </trkpt>
      <trkpt lat="48.61845" lon="2.26534">
        <ele>73.6</ele>
        <time>2020-07-02T08:57:38Z</time>
      </trkpt>
      <trkpt lat="48.61841" lon="2.2653">
        <ele>73.6</ele>
        <time>2020-07-02T08:57:39Z</time>
      </trkpt>
      <trkpt lat="48.61838" lon="2.26526">
        <ele>73.7</ele>
        <time>2020-07-02T08:57:40Z</time>
      </trkpt>
      <trkpt lat="48.61834" lon="2.26522">
        <ele>73.7</ele>
        <time>2020-07-02T08:57:41Z</time>
      </trkpt>
      <trkpt lat="48.61832" lon="2.26519">
        <ele>73.7</ele>
        <time>2020-07-02T08:57:42Z</time>
      </trkpt>
      <trkpt lat="48.61829" lon="2.26515">
        <ele>73.7</ele>
        <time>2020-07-02T08:57:43Z</time>
      </trkpt>
      <trkpt lat="48.61825" lon="2.26511">
        <ele>73.8</ele>
        <time>2020-07-02T08:57:44Z</time>
      </trkpt>
      <trkpt lat="48.6182" lon="2.26507">
        <ele>73.9</ele>
        <time>2020-07-02T08:57:45Z</time>
      </trkpt>
      <trkpt lat="48.61816" lon="2.26504">
        <ele>74</ele>
        <time>2020-07-02T08:57:46Z</time>
      </trkpt>
      <trkpt lat="48.61812" lon="2.26501">
        <ele>74.1</ele>
        <time>2020-07-02T08:57:47Z</time>
      </trkpt>
      <trkpt lat="48.61809" lon="2.26498">
        <ele>74.1</ele>
        <time>2020-07-02T08:57:48Z</time>
      </trkpt>
      <trkpt lat="48.61807" lon="2.26494">
        <ele>74.2</ele>
        <time>2020-07-02T08:57:49Z</time>
      </trkpt>
      <trkpt lat="48.61804" lon="2.26489">
        <ele>74.2</ele>
        <time>2020-07-02T08:57:50Z</time>
      </trkpt>
      <trkpt lat="48.61801" lon="2.26486">
        <ele>74.2</ele>
        <time>2020-07-02T08:57:51Z</time>
      </trkpt>
      <trkpt lat="48.61799" lon="2.26485">
        <ele>74.2</ele>
        <time>2020-07-02T08:57:52Z</time>
      </trkpt>
      <trkpt lat="48.61797" lon="2.26481">
        <ele>74.2</ele>
        <time>2020-07-02T08:57:53Z</time>
      </trkpt>
      <trkpt lat="48.61794" lon="2.26478">
        <ele>74.2</ele>
        <time>2020-07-02T08:57:54Z</time>
      </trkpt>
      <trkpt lat="48.61791" lon="2.26474">
        <ele>74.2</ele>
        <time>2020-07-02T08:57:55Z</time>
      </trkpt>
      <trkpt lat="48.61787" lon="2.2647">
        <ele>74.2</ele>
        <time>2020-07-02T08:57:56Z</time>
      </trkpt>
      <trkpt lat="48.61784" lon="2.26466">
        <ele>74.2</ele>
        <time>2020-07-02T08:57:57Z</time>
      </trkpt>
      <trkpt lat="48.61781" lon="2.26464">
        <ele>74.2</ele>
        <time>2020-07-02T08:57:58Z</time>
      </trkpt>
      <trkpt lat="48.61778" lon="2.26461">
        <ele>74.1</ele>
        <time>2020-07-02T08:57:59Z</time>
      </trkpt>
      <trkpt lat="48.61776" lon="2.26456">
        <ele>74.1</ele>
        <time>2020-07-02T08:58:00Z</time>
      </trkpt>
      <trkpt lat="48.61772" lon="2.26452">
        <ele>74.1</ele>
        <time>2020-07-02T08:58:01Z</time>
      </trkpt>
      <trkpt lat="48.61769" lon="2.26448">
        <ele>74.1</ele>
        <time>2020-07-02T08:58:02Z</time>
      </trkpt>
      <trkpt lat="48.61766" lon="2.26446">
        <ele>74.1</ele>
        <time>2020-07-02T08:58:03Z</time>
      </trkpt>
      <trkpt lat="48.61762" lon="2.26444">
        <ele>74.1</ele>
        <time>2020-07-02T08:58:04Z</time>
      </trkpt>
      <trkpt lat="48.61759" lon="2.26441">
        <ele>74</ele>
        <time>2020-07-02T08:58:05Z</time>
      </trkpt>
      <trkpt lat="48.61756" lon="2.26438">
        <ele>74</ele>
        <time>2020-07-02T08:58:06Z</time>
      </trkpt>
      <trkpt lat="48.61752" lon="2.26437">
        <ele>74</ele>
        <time>2020-07-02T08:58:07Z</time>
      </trkpt>
      <trkpt lat="48.61748" lon="2.26436">
        <ele>74</ele>
        <time>2020-07-02T08:58:08Z</time>
      </trkpt>
      <trkpt lat="48.61746" lon="2.26434">
        <ele>74</ele>
        <time>2020-07-02T08:58:09Z</time>
      </trkpt>
      <trkpt lat="48.61743" lon="2.26432">
        <ele>74</ele>
        <time>2020-07-02T08:58:10Z</time>
      </trkpt>
      <trkpt lat="48.6174" lon="2.26431">
        <ele>74</ele>
        <time>2020-07-02T08:58:11Z</time>
      </trkpt>
      <trkpt lat="48.61736" lon="2.26432">
        <ele>74.1</ele>
        <time>2020-07-02T08:58:12Z</time>
      </trkpt>
      <trkpt lat="48.61731" lon="2.26433">
        <ele>74.2</ele>
        <time>2020-07-02T08:58:13Z</time>
      </trkpt>
      <trkpt lat="48.61727" lon="2.26431">
        <ele>74.2</ele>
        <time>2020-07-02T08:58:14Z</time>
      </trkpt>
      <trkpt lat="48.61723" lon="2.2643">
        <ele>74.1</ele>
        <time>2020-07-02T08:58:15Z</time>
      </trkpt>
      <trkpt lat="48.61719" lon="2.26427">
        <ele>74</ele>
        <time>2020-07-02T08:58:16Z</time>
      </trkpt>
      <trkpt lat="48.61716" lon="2.26424">
        <ele>73.9</ele>
        <time>2020-07-02T08:58:17Z</time>
      </trkpt>
      <trkpt lat="48.61712" lon="2.26421">
        <ele>73.8</ele>
        <time>2020-07-02T08:58:18Z</time>
      </trkpt>
      <trkpt lat="48.61708" lon="2.26418">
        <ele>73.7</ele>
        <time>2020-07-02T08:58:19Z</time>
      </trkpt>
      <trkpt lat="48.61704" lon="2.26417">
        <ele>73.6</ele>
        <time>2020-07-02T08:58:20Z</time>
      </trkpt>
      <trkpt lat="48.61699" lon="2.26414">
        <ele>73.5</ele>
        <time>2020-07-02T08:58:21Z</time>
      </trkpt>
      <trkpt lat="48.61695" lon="2.26409">
        <ele>73.4</ele>
        <time>2020-07-02T08:58:22Z</time>
      </trkpt>
      <trkpt lat="48.61689" lon="2.26406">
        <ele>73.3</ele>
        <time>2020-07-02T08:58:23Z</time>
      </trkpt>
      <trkpt lat="48.61684" lon="2.26403">
        <ele>73.2</ele>
        <time>2020-07-02T08:58:24Z</time>
      </trkpt>
      <trkpt lat="48.61679" lon="2.264">
        <ele>73.1</ele>
        <time>2020-07-02T08:58:25Z</time>
      </trkpt>
      <trkpt lat="48.61673" lon="2.26397">
        <ele>73</ele>
        <time>2020-07-02T08:58:26Z</time>
      </trkpt>
      <trkpt lat="48.6167" lon="2.26394">
        <ele>72.9</ele>
        <time>2020-07-02T08:58:27Z</time>
      </trkpt>
      <trkpt lat="48.61665" lon="2.26391">
        <ele>72.8</ele>
        <time>2020-07-02T08:58:28Z</time>
      </trkpt>
      <trkpt lat="48.61659" lon="2.26389">
        <ele>72.8</ele>
        <time>2020-07-02T08:58:29Z</time>
      </trkpt>
      <trkpt lat="48.61654" lon="2.26387">
        <ele>72.7</ele>
        <time>2020-07-02T08:58:30Z</time>
      </trkpt>
      <trkpt lat="48.6165" lon="2.26384">
        <ele>72.7</ele>
        <time>2020-07-02T08:58:31Z</time>
      </trkpt>
      <trkpt lat="48.61646" lon="2.26381">
        <ele>72.6</ele>
        <time>2020-07-02T08:58:32Z</time>
      </trkpt>
      <trkpt lat="48.61641" lon="2.26377">
        <ele>72.6</ele>
        <time>2020-07-02T08:58:33Z</time>
      </trkpt>
      <trkpt lat="48.61637" lon="2.26373">
        <ele>72.6</ele>
        <time>2020-07-02T08:58:34Z</time>
      </trkpt>
      <trkpt lat="48.61632" lon="2.26369">
        <ele>72.5</ele>
        <time>2020-07-02T08:58:35Z</time>
      </trkpt>
      <trkpt lat="48.61628" lon="2.26364">
        <ele>72.5</ele>
        <time>2020-07-02T08:58:36Z</time>
      </trkpt>
      <trkpt lat="48.61623" lon="2.2636">
        <ele>72.5</ele>
        <time>2020-07-02T08:58:37Z</time>
      </trkpt>
      <trkpt lat="48.61618" lon="2.26355">
        <ele>72.5</ele>
        <time>2020-07-02T08:58:38Z</time>
      </trkpt>
      <trkpt lat="48.61613" lon="2.26351">
        <ele>72.5</ele>
        <time>2020-07-02T08:58:39Z</time>
      </trkpt>
      <trkpt lat="48.61609" lon="2.26347">
        <ele>72.5</ele>
        <time>2020-07-02T08:58:40Z</time>
      </trkpt>
      <trkpt lat="48.61604" lon="2.26345">
        <ele>72.4</ele>
        <time>2020-07-02T08:58:41Z</time>
      </trkpt>
      <trkpt lat="48.61599" lon="2.26342">
        <ele>72.4</ele>
        <time>2020-07-02T08:58:42Z</time>
      </trkpt>
      <trkpt lat="48.61595" lon="2.26339">
        <ele>72.4</ele>
        <time>2020-07-02T08:58:43Z</time>
      </trkpt>
      <trkpt lat="48.61591" lon="2.26336">
        <ele>72.4</ele>
        <time>2020-07-02T08:58:44Z</time>
      </trkpt>
      <trkpt lat="48.61587" lon="2.26332">
        <ele>72.3</ele>
        <time>2020-07-02T08:58:45Z</time>
      </trkpt>
      <trkpt lat="48.61583" lon="2.2633">
        <ele>72.3</ele>
        <time>2020-07-02T08:58:46Z</time>
      </trkpt>
      <trkpt lat="48.61579" lon="2.26328">
        <ele>72.3</ele>
        <time>2020-07-02T08:58:47Z</time>
      </trkpt>
      <trkpt lat="48.61575" lon="2.26327">
        <ele>72.3</ele>
        <time>2020-07-02T08:58:48Z</time>
      </trkpt>
      <trkpt lat="48.61571" lon="2.26325">
        <ele>72.2</ele>
        <time>2020-07-02T08:58:49Z</time>
      </trkpt>
      <trkpt lat="48.61566" lon="2.26322">
        <ele>72.2</ele>
        <time>2020-07-02T08:58:50Z</time>
      </trkpt>
      <trkpt lat="48.61562" lon="2.2632">
        <ele>72.2</ele>
        <time>2020-07-02T08:58:51Z</time>
      </trkpt>
      <trkpt lat="48.61557" lon="2.26318">
        <ele>72.2</ele>
        <time>2020-07-02T08:58:52Z</time>
      </trkpt>
      <trkpt lat="48.61553" lon="2.26316">
        <ele>72.1</ele>
        <time>2020-07-02T08:58:53Z</time>
      </trkpt>
      <trkpt lat="48.61548" lon="2.26314">
        <ele>72.1</ele>
        <time>2020-07-02T08:58:54Z</time>
      </trkpt>
      <trkpt lat="48.61543" lon="2.26311">
        <ele>72.1</ele>
        <time>2020-07-02T08:58:55Z</time>
      </trkpt>
      <trkpt lat="48.61538" lon="2.26308">
        <ele>72.1</ele>
        <time>2020-07-02T08:58:56Z</time>
      </trkpt>
      <trkpt lat="48.61534" lon="2.26305">
        <ele>72.1</ele>
        <time>2020-07-02T08:58:57Z</time>
      </trkpt>
      <trkpt lat="48.61529" lon="2.26303">
        <ele>72.1</ele>
        <time>2020-07-02T08:58:58Z</time>
      </trkpt>
      <trkpt lat="48.61524" lon="2.26301">
        <ele>72.1</ele>
        <time>2020-07-02T08:58:59Z</time>
      </trkpt>
      <trkpt lat="48.61519" lon="2.26298">
        <ele>72.1</ele>
        <time>2020-07-02T08:59:00Z</time>
      </trkpt>
      <trkpt lat="48.61513" lon="2.26295">
        <ele>72.1</ele>
        <time>2020-07-02T08:59:01Z</time>
      </trkpt>
      <trkpt lat="48.61508" lon="2.26292">
        <ele>72.1</ele>
        <time>2020-07-02T08:59:02Z</time>
      </trkpt>
      <trkpt lat="48.61504" lon="2.2629">
        <ele>72.1</ele>
        <time>2020-07-02T08:59:03Z</time>
      </trkpt>
      <trkpt lat="48.615" lon="2.26286">
        <ele>72.1</ele>
        <time>2020-07-02T08:59:04Z</time>
      </trkpt>
      <trkpt lat="48.61496" lon="2.26283">
        <ele>72.1</ele>
        <time>2020-07-02T08:59:05Z</time>
      </trkpt>
      <trkpt lat="48.61494" lon="2.26278">
        <ele>72.1</ele>
        <time>2020-07-02T08:59:06Z</time>
      </trkpt>
      <trkpt lat="48.61494" lon="2.26271">
        <ele>72.1</ele>
        <time>2020-07-02T08:59:07Z</time>
      </trkpt>
      <trkpt lat="48.61494" lon="2.26266">
        <ele>72.2</ele>
        <time>2020-07-02T08:59:08Z</time>
      </trkpt>
      <trkpt lat="48.61495" lon="2.26261">
        <ele>72.2</ele>
        <time>2020-07-02T08:59:09Z</time>
      </trkpt>
      <trkpt lat="48.61497" lon="2.26256">
        <ele>72.2</ele>
        <time>2020-07-02T08:59:10Z</time>
      </trkpt>
      <trkpt lat="48.61498" lon="2.26252">
        <ele>72.3</ele>
        <time>2020-07-02T08:59:11Z</time>
      </trkpt>
      <trkpt lat="48.61498" lon="2.26246">
        <ele>72.3</ele>
        <time>2020-07-02T08:59:12Z</time>
      </trkpt>
      <trkpt lat="48.61497" lon="2.26245">
        <ele>72.3</ele>
        <time>2020-07-02T08:59:13Z</time>
      </trkpt>
      <trkpt lat="48.61495" lon="2.26241">
        <ele>72.3</ele>
        <time>2020-07-02T08:59:14Z</time>
      </trkpt>
      <trkpt lat="48.61495" lon="2.2624">
        <ele>72.3</ele>
        <time>2020-07-02T08:59:15Z</time>
      </trkpt>
      <trkpt lat="48.61493" lon="2.26241">
        <ele>72.3</ele>
        <time>2020-07-02T08:59:16Z</time>
      </trkpt>
      <trkpt lat="48.61493" lon="2.26242">
        <ele>72.4</ele>
        <time>2020-07-02T08:59:17Z</time>
      </trkpt>
      <trkpt lat="48.61492" lon="2.26243">
        <ele>72.4</ele>
        <time>2020-07-02T08:59:18Z</time>
      </trkpt>
      <trkpt lat="48.61491" lon="2.26244">
        <ele>72.4</ele>
        <time>2020-07-02T08:59:19Z</time>
      </trkpt>
      <trkpt lat="48.61488" lon="2.26247">
        <ele>72.4</ele>
        <time>2020-07-02T08:59:20Z</time>
      </trkpt>
      <trkpt lat="48.61487" lon="2.26249">
        <ele>72.3</ele>
        <time>2020-07-02T08:59:21Z</time>
      </trkpt>
      <trkpt lat="48.61483" lon="2.26251">
        <ele>72.3</ele>
        <time>2020-07-02T08:59:22Z</time>
      </trkpt>
      <trkpt lat="48.61477" lon="2.26254">
        <ele>72.1</ele>
        <time>2020-07-02T08:59:23Z</time>
      </trkpt>
      <trkpt lat="48.61472" lon="2.26253">
        <ele>72.1</ele>
        <time>2020-07-02T08:59:24Z</time>
      </trkpt>
      <trkpt lat="48.61468" lon="2.2625">
        <ele>72.2</ele>
        <time>2020-07-02T08:59:25Z</time>
      </trkpt>
      <trkpt lat="48.61467" lon="2.26248">
        <ele>72.2</ele>
        <time>2020-07-02T08:59:26Z</time>
      </trkpt>
      <trkpt lat="48.61464" lon="2.26247">
        <ele>72.2</ele>
        <time>2020-07-02T08:59:27Z</time>
      </trkpt>
      <trkpt lat="48.6146" lon="2.26247">
        <ele>72.2</ele>
        <time>2020-07-02T08:59:28Z</time>
      </trkpt>
      <trkpt lat="48.61456" lon="2.26245">
        <ele>72.2</ele>
        <time>2020-07-02T08:59:29Z</time>
      </trkpt>
      <trkpt lat="48.61452" lon="2.26243">
        <ele>72.3</ele>
        <time>2020-07-02T08:59:30Z</time>
      </trkpt>
      <trkpt lat="48.61447" lon="2.2624">
        <ele>72.3</ele>
        <time>2020-07-02T08:59:31Z</time>
      </trkpt>
      <trkpt lat="48.61442" lon="2.26237">
        <ele>72.2</ele>
        <time>2020-07-02T08:59:32Z</time>
      </trkpt>
      <trkpt lat="48.61437" lon="2.26234">
        <ele>72.2</ele>
        <time>2020-07-02T08:59:33Z</time>
      </trkpt>
      <trkpt lat="48.61432" lon="2.26231">
        <ele>72.2</ele>
        <time>2020-07-02T08:59:34Z</time>
      </trkpt>
      <trkpt lat="48.61429" lon="2.26228">
        <ele>72.2</ele>
        <time>2020-07-02T08:59:35Z</time>
      </trkpt>
      <trkpt lat="48.61425" lon="2.26226">
        <ele>72.2</ele>
        <time>2020-07-02T08:59:36Z</time>
      </trkpt>
      <trkpt lat="48.61421" lon="2.26226">
        <ele>72.2</ele>
        <time>2020-07-02T08:59:37Z</time>
      </trkpt>
      <trkpt lat="48.61416" lon="2.26225">
        <ele>72.3</ele>
        <time>2020-07-02T08:59:38Z</time>
      </trkpt>
      <trkpt lat="48.61411" lon="2.26225">
        <ele>72.4</ele>
        <time>2020-07-02T08:59:39Z</time>
      </trkpt>
      <trkpt lat="48.61405" lon="2.26226">
        <ele>72.4</ele>
        <time>2020-07-02T08:59:40Z</time>
      </trkpt>
      <trkpt lat="48.614" lon="2.26227">
        <ele>72.6</ele>
        <time>2020-07-02T08:59:41Z</time>
      </trkpt>
      <trkpt lat="48.61394" lon="2.26229">
        <ele>72.4</ele>
        <time>2020-07-02T08:59:42Z</time>
      </trkpt>
      <trkpt lat="48.6139" lon="2.26229">
        <ele>72.3</ele>
        <time>2020-07-02T08:59:43Z</time>
      </trkpt>
      <trkpt lat="48.61385" lon="2.26228">
        <ele>72.1</ele>
        <time>2020-07-02T08:59:44Z</time>
      </trkpt>
      <trkpt lat="48.6138" lon="2.26229">
        <ele>72</ele>
        <time>2020-07-02T08:59:45Z</time>
      </trkpt>
      <trkpt lat="48.61376" lon="2.26229">
        <ele>72</ele>
        <time>2020-07-02T08:59:46Z</time>
      </trkpt>
      <trkpt lat="48.61371" lon="2.2623">
        <ele>72</ele>
        <time>2020-07-02T08:59:47Z</time>
      </trkpt>
      <trkpt lat="48.61368" lon="2.26228">
        <ele>72.1</ele>
        <time>2020-07-02T08:59:48Z</time>
      </trkpt>
      <trkpt lat="48.61364" lon="2.26226">
        <ele>72.1</ele>
        <time>2020-07-02T08:59:49Z</time>
      </trkpt>
      <trkpt lat="48.61361" lon="2.26223">
        <ele>72.2</ele>
        <time>2020-07-02T08:59:50Z</time>
      </trkpt>
      <trkpt lat="48.61359" lon="2.26217">
        <ele>72.2</ele>
        <time>2020-07-02T08:59:51Z</time>
      </trkpt>
      <trkpt lat="48.61356" lon="2.26213">
        <ele>72.3</ele>
        <time>2020-07-02T08:59:52Z</time>
      </trkpt>
      <trkpt lat="48.61354" lon="2.26209">
        <ele>72.3</ele>
        <time>2020-07-02T08:59:53Z</time>
      </trkpt>
      <trkpt lat="48.61351" lon="2.26205">
        <ele>72.2</ele>
        <time>2020-07-02T08:59:54Z</time>
      </trkpt>
      <trkpt lat="48.6135" lon="2.26202">
        <ele>72.2</ele>
        <time>2020-07-02T08:59:55Z</time>
      </trkpt>
      <trkpt lat="48.61348" lon="2.26198">
        <ele>72.2</ele>
        <time>2020-07-02T08:59:56Z</time>
      </trkpt>
      <trkpt lat="48.61347" lon="2.26198">
        <ele>72.2</ele>
        <time>2020-07-02T08:59:57Z</time>
      </trkpt>
      <trkpt lat="48.61346" lon="2.26195">
        <ele>72.2</ele>
        <time>2020-07-02T08:59:58Z</time>
      </trkpt>
      <trkpt lat="48.61346" lon="2.26193">
        <ele>72.2</ele>
        <time>2020-07-02T08:59:59Z</time>
      </trkpt>
      <trkpt lat="48.61344" lon="2.2619">
        <ele>72.1</ele>
        <time>2020-07-02T09:00:00Z</time>
      </trkpt>
      <trkpt lat="48.61343" lon="2.26185">
        <ele>72.1</ele>
        <time>2020-07-02T09:00:01Z</time>
      </trkpt>
      <trkpt lat="48.61342" lon="2.26183">
        <ele>72</ele>
        <time>2020-07-02T09:00:02Z</time>
      </trkpt>
      <trkpt lat="48.6134" lon="2.2618">
        <ele>72</ele>
        <time>2020-07-02T09:00:03Z</time>
      </trkpt>
      <trkpt lat="48.61339" lon="2.26179">
        <ele>72</ele>
        <time>2020-07-02T09:00:04Z</time>
      </trkpt>
      <trkpt lat="48.61338" lon="2.26178">
        <ele>71.9</ele>
        <time>2020-07-02T09:00:05Z</time>
      </trkpt>
      <trkpt lat="48.61335" lon="2.26176">
        <ele>71.9</ele>
        <time>2020-07-02T09:00:06Z</time>
      </trkpt>
      <trkpt lat="48.61334" lon="2.26175">
        <ele>71.8</ele>
        <time>2020-07-02T09:00:07Z</time>
      </trkpt>
      <trkpt lat="48.61331" lon="2.26171">
        <ele>71.8</ele>
        <time>2020-07-02T09:00:08Z</time>
      </trkpt>
      <trkpt lat="48.6133" lon="2.2617">
        <ele>71.8</ele>
        <time>2020-07-02T09:00:09Z</time>
      </trkpt>
      <trkpt lat="48.6133" lon="2.26165">
        <ele>71.8</ele>
        <time>2020-07-02T09:00:10Z</time>
      </trkpt>
      <trkpt lat="48.61329" lon="2.26163">
        <ele>71.9</ele>
        <time>2020-07-02T09:00:11Z</time>
      </trkpt>
      <trkpt lat="48.61329" lon="2.26159">
        <ele>71.9</ele>
        <time>2020-07-02T09:00:12Z</time>
      </trkpt>
      <trkpt lat="48.61329" lon="2.26154">
        <ele>72</ele>
        <time>2020-07-02T09:00:13Z</time>
      </trkpt>
      <trkpt lat="48.6133" lon="2.26148">
        <ele>72</ele>
        <time>2020-07-02T09:00:14Z</time>
      </trkpt>
      <trkpt lat="48.6133" lon="2.26143">
        <ele>72.1</ele>
        <time>2020-07-02T09:00:15Z</time>
      </trkpt>
      <trkpt lat="48.6133" lon="2.26138">
        <ele>72.2</ele>
        <time>2020-07-02T09:00:16Z</time>
      </trkpt>
      <trkpt lat="48.61329" lon="2.26132">
        <ele>72.4</ele>
        <time>2020-07-02T09:00:17Z</time>
      </trkpt>
      <trkpt lat="48.6133" lon="2.26125">
        <ele>72.5</ele>
        <time>2020-07-02T09:00:18Z</time>
      </trkpt>
      <trkpt lat="48.6133" lon="2.26119">
        <ele>72.8</ele>
        <time>2020-07-02T09:00:19Z</time>
      </trkpt>
      <trkpt lat="48.61331" lon="2.26114">
        <ele>73</ele>
        <time>2020-07-02T09:00:20Z</time>
      </trkpt>
      <trkpt lat="48.61332" lon="2.26106">
        <ele>73.3</ele>
        <time>2020-07-02T09:00:21Z</time>
      </trkpt>
      <trkpt lat="48.61334" lon="2.26099">
        <ele>73.6</ele>
        <time>2020-07-02T09:00:22Z</time>
      </trkpt>
      <trkpt lat="48.61335" lon="2.26095">
        <ele>73.8</ele>
        <time>2020-07-02T09:00:23Z</time>
      </trkpt>
      <trkpt lat="48.61336" lon="2.2609">
        <ele>74</ele>
        <time>2020-07-02T09:00:24Z</time>
      </trkpt>
      <trkpt lat="48.61336" lon="2.26084">
        <ele>74.2</ele>
        <time>2020-07-02T09:00:25Z</time>
      </trkpt>
      <trkpt lat="48.61337" lon="2.26079">
        <ele>74.4</ele>
        <time>2020-07-02T09:00:26Z</time>
      </trkpt>
      <trkpt lat="48.61337" lon="2.26074">
        <ele>74.6</ele>
        <time>2020-07-02T09:00:27Z</time>
      </trkpt>
      <trkpt lat="48.61337" lon="2.26069">
        <ele>74.8</ele>
        <time>2020-07-02T09:00:28Z</time>
      </trkpt>
      <trkpt lat="48.61337" lon="2.26064">
        <ele>75</ele>
        <time>2020-07-02T09:00:29Z</time>
      </trkpt>
      <trkpt lat="48.61337" lon="2.26059">
        <ele>75.3</ele>
        <time>2020-07-02T09:00:30Z</time>
      </trkpt>
      <trkpt lat="48.61337" lon="2.26054">
        <ele>75.5</ele>
        <time>2020-07-02T09:00:31Z</time>
      </trkpt>
      <trkpt lat="48.61337" lon="2.26049">
        <ele>75.8</ele>
        <time>2020-07-02T09:00:32Z</time>
      </trkpt>
      <trkpt lat="48.61338" lon="2.26043">
        <ele>76</ele>
        <time>2020-07-02T09:00:33Z</time>
      </trkpt>
      <trkpt lat="48.61338" lon="2.26038">
        <ele>76.2</ele>
        <time>2020-07-02T09:00:34Z</time>
      </trkpt>
      <trkpt lat="48.61339" lon="2.26032">
        <ele>76.3</ele>
        <time>2020-07-02T09:00:35Z</time>
      </trkpt>
      <trkpt lat="48.6134" lon="2.26027">
        <ele>76.5</ele>
        <time>2020-07-02T09:00:36Z</time>
      </trkpt>
      <trkpt lat="48.61339" lon="2.26021">
        <ele>76.7</ele>
        <time>2020-07-02T09:00:37Z</time>
      </trkpt>
      <trkpt lat="48.61339" lon="2.26015">
        <ele>76.9</ele>
        <time>2020-07-02T09:00:38Z</time>
      </trkpt>
      <trkpt lat="48.61339" lon="2.26008">
        <ele>77.1</ele>
        <time>2020-07-02T09:00:39Z</time>
      </trkpt>
      <trkpt lat="48.61339" lon="2.26001">
        <ele>77.3</ele>
        <time>2020-07-02T09:00:40Z</time>
      </trkpt>
      <trkpt lat="48.61339" lon="2.25993">
        <ele>77.5</ele>
        <time>2020-07-02T09:00:41Z</time>
      </trkpt>
      <trkpt lat="48.61338" lon="2.25986">
        <ele>77.7</ele>
        <time>2020-07-02T09:00:42Z</time>
      </trkpt>
      <trkpt lat="48.61338" lon="2.25979">
        <ele>77.8</ele>
        <time>2020-07-02T09:00:43Z</time>
      </trkpt>
      <trkpt lat="48.61339" lon="2.25973">
        <ele>77.9</ele>
        <time>2020-07-02T09:00:44Z</time>
      </trkpt>
      <trkpt lat="48.61339" lon="2.25967">
        <ele>78</ele>
        <time>2020-07-02T09:00:45Z</time>
      </trkpt>
      <trkpt lat="48.61339" lon="2.2596">
        <ele>78.2</ele>
        <time>2020-07-02T09:00:46Z</time>
      </trkpt>
      <trkpt lat="48.61339" lon="2.25954">
        <ele>78.3</ele>
        <time>2020-07-02T09:00:47Z</time>
      </trkpt>
      <trkpt lat="48.61339" lon="2.25948">
        <ele>78.5</ele>
        <time>2020-07-02T09:00:48Z</time>
      </trkpt>
      <trkpt lat="48.61339" lon="2.25941">
        <ele>78.7</ele>
        <time>2020-07-02T09:00:49Z</time>
      </trkpt>
      <trkpt lat="48.61339" lon="2.25935">
        <ele>78.9</ele>
        <time>2020-07-02T09:00:50Z</time>
      </trkpt>
      <trkpt lat="48.6134" lon="2.25929">
        <ele>79.2</ele>
        <time>2020-07-02T09:00:51Z</time>
      </trkpt>
      <trkpt lat="48.6134" lon="2.25924">
        <ele>79.3</ele>
        <time>2020-07-02T09:00:52Z</time>
      </trkpt>
      <trkpt lat="48.61339" lon="2.2592">
        <ele>79.3</ele>
        <time>2020-07-02T09:00:53Z</time>
      </trkpt>
      <trkpt lat="48.61337" lon="2.25917">
        <ele>79.3</ele>
        <time>2020-07-02T09:00:54Z</time>
      </trkpt>
      <trkpt lat="48.61335" lon="2.25917">
        <ele>79.3</ele>
        <time>2020-07-02T09:00:55Z</time>
      </trkpt>
      <trkpt lat="48.61332" lon="2.25916">
        <ele>79.3</ele>
        <time>2020-07-02T09:00:56Z</time>
      </trkpt>
      <trkpt lat="48.61329" lon="2.25916">
        <ele>79.3</ele>
        <time>2020-07-02T09:00:57Z</time>
      </trkpt>
      <trkpt lat="48.61327" lon="2.25915">
        <ele>79.4</ele>
        <time>2020-07-02T09:00:58Z</time>
      </trkpt>
      <trkpt lat="48.61324" lon="2.25913">
        <ele>79.5</ele>
        <time>2020-07-02T09:00:59Z</time>
      </trkpt>
      <trkpt lat="48.6132" lon="2.25911">
        <ele>79.6</ele>
        <time>2020-07-02T09:01:00Z</time>
      </trkpt>
      <trkpt lat="48.61317" lon="2.25909">
        <ele>79.7</ele>
        <time>2020-07-02T09:01:01Z</time>
      </trkpt>
      <trkpt lat="48.61313" lon="2.25907">
        <ele>79.9</ele>
        <time>2020-07-02T09:01:02Z</time>
      </trkpt>
      <trkpt lat="48.61309" lon="2.25905">
        <ele>80</ele>
        <time>2020-07-02T09:01:03Z</time>
      </trkpt>
      <trkpt lat="48.61305" lon="2.25903">
        <ele>80.1</ele>
        <time>2020-07-02T09:01:04Z</time>
      </trkpt>
      <trkpt lat="48.61301" lon="2.25902">
        <ele>80.2</ele>
        <time>2020-07-02T09:01:05Z</time>
      </trkpt>
      <trkpt lat="48.61297" lon="2.25898">
        <ele>80.3</ele>
        <time>2020-07-02T09:01:06Z</time>
      </trkpt>
      <trkpt lat="48.61293" lon="2.25894">
        <ele>80.4</ele>
        <time>2020-07-02T09:01:07Z</time>
      </trkpt>
      <trkpt lat="48.6129" lon="2.25891">
        <ele>80.5</ele>
        <time>2020-07-02T09:01:08Z</time>
      </trkpt>
      <trkpt lat="48.61287" lon="2.25889">
        <ele>80.5</ele>
        <time>2020-07-02T09:01:09Z</time>
      </trkpt>
      <trkpt lat="48.61283" lon="2.25887">
        <ele>80.6</ele>
        <time>2020-07-02T09:01:10Z</time>
      </trkpt>
      <trkpt lat="48.61279" lon="2.25886">
        <ele>80.7</ele>
        <time>2020-07-02T09:01:11Z</time>
      </trkpt>
      <trkpt lat="48.61274" lon="2.25883">
        <ele>80.8</ele>
        <time>2020-07-02T09:01:12Z</time>
      </trkpt>
      <trkpt lat="48.61269" lon="2.25882">
        <ele>80.9</ele>
        <time>2020-07-02T09:01:13Z</time>
      </trkpt>
      <trkpt lat="48.61265" lon="2.25879">
        <ele>81</ele>
        <time>2020-07-02T09:01:14Z</time>
      </trkpt>
      <trkpt lat="48.6126" lon="2.25876">
        <ele>81</ele>
        <time>2020-07-02T09:01:15Z</time>
      </trkpt>
      <trkpt lat="48.61255" lon="2.25875">
        <ele>80.9</ele>
        <time>2020-07-02T09:01:16Z</time>
      </trkpt>
      <trkpt lat="48.6125" lon="2.25873">
        <ele>80.8</ele>
        <time>2020-07-02T09:01:17Z</time>
      </trkpt>
      <trkpt lat="48.61246" lon="2.2587">
        <ele>80.7</ele>
        <time>2020-07-02T09:01:18Z</time>
      </trkpt>
      <trkpt lat="48.61241" lon="2.25868">
        <ele>80.6</ele>
        <time>2020-07-02T09:01:19Z</time>
      </trkpt>
      <trkpt lat="48.61236" lon="2.25865">
        <ele>80.6</ele>
        <time>2020-07-02T09:01:20Z</time>
      </trkpt>
      <trkpt lat="48.61231" lon="2.25862">
        <ele>80.5</ele>
        <time>2020-07-02T09:01:21Z</time>
      </trkpt>
      <trkpt lat="48.61227" lon="2.25859">
        <ele>80.4</ele>
        <time>2020-07-02T09:01:22Z</time>
      </trkpt>
      <trkpt lat="48.61222" lon="2.25855">
        <ele>80.4</ele>
        <time>2020-07-02T09:01:23Z</time>
      </trkpt>
      <trkpt lat="48.61218" lon="2.2585">
        <ele>80.3</ele>
        <time>2020-07-02T09:01:24Z</time>
      </trkpt>
      <trkpt lat="48.61214" lon="2.25846">
        <ele>80.3</ele>
        <time>2020-07-02T09:01:25Z</time>
      </trkpt>
      <trkpt lat="48.61209" lon="2.25842">
        <ele>80.3</ele>
        <time>2020-07-02T09:01:26Z</time>
      </trkpt>
      <trkpt lat="48.61204" lon="2.25839">
        <ele>80.2</ele>
        <time>2020-07-02T09:01:27Z</time>
      </trkpt>
      <trkpt lat="48.61201" lon="2.25834">
        <ele>80.1</ele>
        <time>2020-07-02T09:01:28Z</time>
      </trkpt>
      <trkpt lat="48.61196" lon="2.2583">
        <ele>79.9</ele>
        <time>2020-07-02T09:01:29Z</time>
      </trkpt>
      <trkpt lat="48.61191" lon="2.25826">
        <ele>79.8</ele>
        <time>2020-07-02T09:01:30Z</time>
      </trkpt>
      <trkpt lat="48.61186" lon="2.25822">
        <ele>79.7</ele>
        <time>2020-07-02T09:01:31Z</time>
      </trkpt>
      <trkpt lat="48.61181" lon="2.25818">
        <ele>79.7</ele>
        <time>2020-07-02T09:01:32Z</time>
      </trkpt>
      <trkpt lat="48.61176" lon="2.25813">
        <ele>79.6</ele>
        <time>2020-07-02T09:01:33Z</time>
      </trkpt>
      <trkpt lat="48.61172" lon="2.2581">
        <ele>79.6</ele>
        <time>2020-07-02T09:01:34Z</time>
      </trkpt>
      <trkpt lat="48.61167" lon="2.25805">
        <ele>79.5</ele>
        <time>2020-07-02T09:01:35Z</time>
      </trkpt>
      <trkpt lat="48.61162" lon="2.258">
        <ele>79.4</ele>
        <time>2020-07-02T09:01:36Z</time>
      </trkpt>
      <trkpt lat="48.61157" lon="2.25795">
        <ele>79.4</ele>
        <time>2020-07-02T09:01:37Z</time>
      </trkpt>
      <trkpt lat="48.61152" lon="2.2579">
        <ele>79.3</ele>
        <time>2020-07-02T09:01:38Z</time>
      </trkpt>
      <trkpt lat="48.61147" lon="2.25785">
        <ele>79.3</ele>
        <time>2020-07-02T09:01:39Z</time>
      </trkpt>
      <trkpt lat="48.61142" lon="2.2578">
        <ele>79.2</ele>
        <time>2020-07-02T09:01:40Z</time>
      </trkpt>
      <trkpt lat="48.61138" lon="2.25775">
        <ele>79.2</ele>
        <time>2020-07-02T09:01:41Z</time>
      </trkpt>
      <trkpt lat="48.61134" lon="2.25771">
        <ele>79.1</ele>
        <time>2020-07-02T09:01:42Z</time>
      </trkpt>
      <trkpt lat="48.6113" lon="2.25766">
        <ele>79.1</ele>
        <time>2020-07-02T09:01:43Z</time>
      </trkpt>
      <trkpt lat="48.61126" lon="2.25763">
        <ele>79</ele>
        <time>2020-07-02T09:01:44Z</time>
      </trkpt>
      <trkpt lat="48.61122" lon="2.25759">
        <ele>79</ele>
        <time>2020-07-02T09:01:45Z</time>
      </trkpt>
      <trkpt lat="48.61117" lon="2.25755">
        <ele>78.9</ele>
        <time>2020-07-02T09:01:46Z</time>
      </trkpt>
      <trkpt lat="48.61112" lon="2.25752">
        <ele>78.8</ele>
        <time>2020-07-02T09:01:47Z</time>
      </trkpt>
      <trkpt lat="48.61108" lon="2.25749">
        <ele>78.7</ele>
        <time>2020-07-02T09:01:48Z</time>
      </trkpt>
      <trkpt lat="48.61104" lon="2.25746">
        <ele>78.6</ele>
        <time>2020-07-02T09:01:49Z</time>
      </trkpt>
      <trkpt lat="48.611" lon="2.25743">
        <ele>78.4</ele>
        <time>2020-07-02T09:01:50Z</time>
      </trkpt>
      <trkpt lat="48.61096" lon="2.25738">
        <ele>78.3</ele>
        <time>2020-07-02T09:01:51Z</time>
      </trkpt>
      <trkpt lat="48.61093" lon="2.25735">
        <ele>78.1</ele>
        <time>2020-07-02T09:01:52Z</time>
      </trkpt>
      <trkpt lat="48.6109" lon="2.25732">
        <ele>77.9</ele>
        <time>2020-07-02T09:01:53Z</time>
      </trkpt>
      <trkpt lat="48.61087" lon="2.25728">
        <ele>78.1</ele>
        <time>2020-07-02T09:01:54Z</time>
      </trkpt>
      <trkpt lat="48.61085" lon="2.25724">
        <ele>78.1</ele>
        <time>2020-07-02T09:01:55Z</time>
      </trkpt>
      <trkpt lat="48.61084" lon="2.25718">
        <ele>78.2</ele>
        <time>2020-07-02T09:01:56Z</time>
      </trkpt>
      <trkpt lat="48.61082" lon="2.25714">
        <ele>78.2</ele>
        <time>2020-07-02T09:01:57Z</time>
      </trkpt>
      <trkpt lat="48.61081" lon="2.25708">
        <ele>78.2</ele>
        <time>2020-07-02T09:01:58Z</time>
      </trkpt>
      <trkpt lat="48.6108" lon="2.25701">
        <ele>78.2</ele>
        <time>2020-07-02T09:01:59Z</time>
      </trkpt>
      <trkpt lat="48.61081" lon="2.25695">
        <ele>78.2</ele>
        <time>2020-07-02T09:02:00Z</time>
      </trkpt>
      <trkpt lat="48.61082" lon="2.25689">
        <ele>78.2</ele>
        <time>2020-07-02T09:02:01Z</time>
      </trkpt>
      <trkpt lat="48.61084" lon="2.25684">
        <ele>78.3</ele>
        <time>2020-07-02T09:02:02Z</time>
      </trkpt>
      <trkpt lat="48.61085" lon="2.25678">
        <ele>78.3</ele>
        <time>2020-07-02T09:02:03Z</time>
      </trkpt>
      <trkpt lat="48.61086" lon="2.25674">
        <ele>78.3</ele>
        <time>2020-07-02T09:02:04Z</time>
      </trkpt>
      <trkpt lat="48.61087" lon="2.25669">
        <ele>78.4</ele>
        <time>2020-07-02T09:02:05Z</time>
      </trkpt>
      <trkpt lat="48.61086" lon="2.25663">
        <ele>78.4</ele>
        <time>2020-07-02T09:02:06Z</time>
      </trkpt>
      <trkpt lat="48.61085" lon="2.25662">
        <ele>78.4</ele>
        <time>2020-07-02T09:02:07Z</time>
      </trkpt>
      <trkpt lat="48.61081" lon="2.25662">
        <ele>78.3</ele>
        <time>2020-07-02T09:02:08Z</time>
      </trkpt>
      <trkpt lat="48.61077" lon="2.25661">
        <ele>78.3</ele>
        <time>2020-07-02T09:02:09Z</time>
      </trkpt>
      <trkpt lat="48.61072" lon="2.25661">
        <ele>78.2</ele>
        <time>2020-07-02T09:02:10Z</time>
      </trkpt>
      <trkpt lat="48.61068" lon="2.2566">
        <ele>78.1</ele>
        <time>2020-07-02T09:02:11Z</time>
      </trkpt>
      <trkpt lat="48.61062" lon="2.25661">
        <ele>78.1</ele>
        <time>2020-07-02T09:02:12Z</time>
      </trkpt>
      <trkpt lat="48.61057" lon="2.2566">
        <ele>78</ele>
        <time>2020-07-02T09:02:13Z</time>
      </trkpt>
      <trkpt lat="48.61051" lon="2.25659">
        <ele>78</ele>
        <time>2020-07-02T09:02:14Z</time>
      </trkpt>
      <trkpt lat="48.61046" lon="2.25657">
        <ele>77.9</ele>
        <time>2020-07-02T09:02:15Z</time>
      </trkpt>
      <trkpt lat="48.61041" lon="2.25654">
        <ele>77.9</ele>
        <time>2020-07-02T09:02:16Z</time>
      </trkpt>
      <trkpt lat="48.61036" lon="2.2565">
        <ele>77.8</ele>
        <time>2020-07-02T09:02:17Z</time>
      </trkpt>
      <trkpt lat="48.61031" lon="2.25648">
        <ele>77.7</ele>
        <time>2020-07-02T09:02:18Z</time>
      </trkpt>
      <trkpt lat="48.61027" lon="2.25645">
        <ele>77.6</ele>
        <time>2020-07-02T09:02:19Z</time>
      </trkpt>
      <trkpt lat="48.61023" lon="2.25642">
        <ele>77.5</ele>
        <time>2020-07-02T09:02:20Z</time>
      </trkpt>
      <trkpt lat="48.61017" lon="2.2564">
        <ele>77.5</ele>
        <time>2020-07-02T09:02:21Z</time>
      </trkpt>
      <trkpt lat="48.61012" lon="2.25637">
        <ele>77.4</ele>
        <time>2020-07-02T09:02:22Z</time>
      </trkpt>
      <trkpt lat="48.61007" lon="2.25635">
        <ele>77.3</ele>
        <time>2020-07-02T09:02:23Z</time>
      </trkpt>
      <trkpt lat="48.61002" lon="2.25631">
        <ele>77.2</ele>
        <time>2020-07-02T09:02:24Z</time>
      </trkpt>
      <trkpt lat="48.60998" lon="2.25628">
        <ele>77.1</ele>
        <time>2020-07-02T09:02:25Z</time>
      </trkpt>
      <trkpt lat="48.60993" lon="2.25624">
        <ele>77</ele>
        <time>2020-07-02T09:02:26Z</time>
      </trkpt>
      <trkpt lat="48.60988" lon="2.2562">
        <ele>76.9</ele>
        <time>2020-07-02T09:02:27Z</time>
      </trkpt>
      <trkpt lat="48.60983" lon="2.25616">
        <ele>76.8</ele>
        <time>2020-07-02T09:02:28Z</time>
      </trkpt>
      <trkpt lat="48.60978" lon="2.25612">
        <ele>76.8</ele>
        <time>2020-07-02T09:02:29Z</time>
      </trkpt>
      <trkpt lat="48.60972" lon="2.2561">
        <ele>76.7</ele>
        <time>2020-07-02T09:02:30Z</time>
      </trkpt>
      <trkpt lat="48.60967" lon="2.25607">
        <ele>76.6</ele>
        <time>2020-07-02T09:02:31Z</time>
      </trkpt>
      <trkpt lat="48.60961" lon="2.25604">
        <ele>76.4</ele>
        <time>2020-07-02T09:02:32Z</time>
      </trkpt>
      <trkpt lat="48.60956" lon="2.25601">
        <ele>76.3</ele>
        <time>2020-07-02T09:02:33Z</time>
      </trkpt>
      <trkpt lat="48.60951" lon="2.25598">
        <ele>76.1</ele>
        <time>2020-07-02T09:02:34Z</time>
      </trkpt>
      <trkpt lat="48.60945" lon="2.25595">
        <ele>75.9</ele>
        <time>2020-07-02T09:02:35Z</time>
      </trkpt>
      <trkpt lat="48.6094" lon="2.25593">
        <ele>75.7</ele>
        <time>2020-07-02T09:02:36Z</time>
      </trkpt>
      <trkpt lat="48.60935" lon="2.25591">
        <ele>75.6</ele>
        <time>2020-07-02T09:02:37Z</time>
      </trkpt>
      <trkpt lat="48.60929" lon="2.25589">
        <ele>75.4</ele>
        <time>2020-07-02T09:02:38Z</time>
      </trkpt>
      <trkpt lat="48.60924" lon="2.25588">
        <ele>75.2</ele>
        <time>2020-07-02T09:02:39Z</time>
      </trkpt>
      <trkpt lat="48.60919" lon="2.25585">
        <ele>75</ele>
        <time>2020-07-02T09:02:40Z</time>
      </trkpt>
      <trkpt lat="48.60913" lon="2.25583">
        <ele>74.8</ele>
        <time>2020-07-02T09:02:41Z</time>
      </trkpt>
      <trkpt lat="48.60907" lon="2.25582">
        <ele>74.6</ele>
        <time>2020-07-02T09:02:42Z</time>
      </trkpt>
      <trkpt lat="48.609" lon="2.2558">
        <ele>74.4</ele>
        <time>2020-07-02T09:02:43Z</time>
      </trkpt>
      <trkpt lat="48.60894" lon="2.25579">
        <ele>74.1</ele>
        <time>2020-07-02T09:02:44Z</time>
      </trkpt>
      <trkpt lat="48.60888" lon="2.25578">
        <ele>73.9</ele>
        <time>2020-07-02T09:02:45Z</time>
      </trkpt>
      <trkpt lat="48.60882" lon="2.25577">
        <ele>73.7</ele>
        <time>2020-07-02T09:02:46Z</time>
      </trkpt>
      <trkpt lat="48.60875" lon="2.25577">
        <ele>73.4</ele>
        <time>2020-07-02T09:02:47Z</time>
      </trkpt>
      <trkpt lat="48.60869" lon="2.25576">
        <ele>73.2</ele>
        <time>2020-07-02T09:02:48Z</time>
      </trkpt>
      <trkpt lat="48.60863" lon="2.25575">
        <ele>72.9</ele>
        <time>2020-07-02T09:02:49Z</time>
      </trkpt>
      <trkpt lat="48.60856" lon="2.25575">
        <ele>72.6</ele>
        <time>2020-07-02T09:02:50Z</time>
      </trkpt>
      <trkpt lat="48.60849" lon="2.25574">
        <ele>72.2</ele>
        <time>2020-07-02T09:02:51Z</time>
      </trkpt>
      <trkpt lat="48.60843" lon="2.25574">
        <ele>72</ele>
        <time>2020-07-02T09:02:52Z</time>
      </trkpt>
      <trkpt lat="48.60837" lon="2.25574">
        <ele>71.7</ele>
        <time>2020-07-02T09:02:53Z</time>
      </trkpt>
      <trkpt lat="48.60831" lon="2.25573">
        <ele>71.4</ele>
        <time>2020-07-02T09:02:54Z</time>
      </trkpt>
      <trkpt lat="48.60824" lon="2.25573">
        <ele>71</ele>
        <time>2020-07-02T09:02:55Z</time>
      </trkpt>
      <trkpt lat="48.60817" lon="2.25572">
        <ele>70.7</ele>
        <time>2020-07-02T09:02:56Z</time>
      </trkpt>
      <trkpt lat="48.60811" lon="2.25572">
        <ele>70.3</ele>
        <time>2020-07-02T09:02:57Z</time>
      </trkpt>
      <trkpt lat="48.60804" lon="2.25571">
        <ele>69.9</ele>
        <time>2020-07-02T09:02:58Z</time>
      </trkpt>
      <trkpt lat="48.60796" lon="2.2557">
        <ele>69.5</ele>
        <time>2020-07-02T09:02:59Z</time>
      </trkpt>
      <trkpt lat="48.6079" lon="2.25569">
        <ele>69.2</ele>
        <time>2020-07-02T09:03:00Z</time>
      </trkpt>
      <trkpt lat="48.60783" lon="2.25568">
        <ele>68.9</ele>
        <time>2020-07-02T09:03:01Z</time>
      </trkpt>
      <trkpt lat="48.60776" lon="2.25568">
        <ele>68.6</ele>
        <time>2020-07-02T09:03:02Z</time>
      </trkpt>
      <trkpt lat="48.6077" lon="2.25567">
        <ele>68.4</ele>
        <time>2020-07-02T09:03:03Z</time>
      </trkpt>
      <trkpt lat="48.60763" lon="2.25567">
        <ele>68.1</ele>
        <time>2020-07-02T09:03:04Z</time>
      </trkpt>
      <trkpt lat="48.60757" lon="2.25566">
        <ele>67.9</ele>
        <time>2020-07-02T09:03:05Z</time>
      </trkpt>
      <trkpt lat="48.60752" lon="2.25565">
        <ele>67.6</ele>
        <time>2020-07-02T09:03:06Z</time>
      </trkpt>
      <trkpt lat="48.60746" lon="2.25564">
        <ele>67.4</ele>
        <time>2020-07-02T09:03:07Z</time>
      </trkpt>
      <trkpt lat="48.60741" lon="2.25562">
        <ele>67.1</ele>
        <time>2020-07-02T09:03:08Z</time>
      </trkpt>
      <trkpt lat="48.60735" lon="2.25562">
        <ele>66.7</ele>
        <time>2020-07-02T09:03:09Z</time>
      </trkpt>
      <trkpt lat="48.60729" lon="2.25561">
        <ele>66.4</ele>
        <time>2020-07-02T09:03:10Z</time>
      </trkpt>
      <trkpt lat="48.60722" lon="2.2556">
        <ele>66.1</ele>
        <time>2020-07-02T09:03:11Z</time>
      </trkpt>
      <trkpt lat="48.60715" lon="2.25558">
        <ele>65.8</ele>
        <time>2020-07-02T09:03:12Z</time>
      </trkpt>
      <trkpt lat="48.60708" lon="2.25557">
        <ele>65.6</ele>
        <time>2020-07-02T09:03:13Z</time>
      </trkpt>
      <trkpt lat="48.60702" lon="2.25555">
        <ele>65.4</ele>
        <time>2020-07-02T09:03:14Z</time>
      </trkpt>
      <trkpt lat="48.60696" lon="2.25555">
        <ele>65.2</ele>
        <time>2020-07-02T09:03:15Z</time>
      </trkpt>
      <trkpt lat="48.6069" lon="2.25555">
        <ele>64.9</ele>
        <time>2020-07-02T09:03:16Z</time>
      </trkpt>
      <trkpt lat="48.60683" lon="2.25557">
        <ele>64.7</ele>
        <time>2020-07-02T09:03:17Z</time>
      </trkpt>
      <trkpt lat="48.60677" lon="2.25558">
        <ele>64.5</ele>
        <time>2020-07-02T09:03:18Z</time>
      </trkpt>
      <trkpt lat="48.6067" lon="2.25559">
        <ele>64.4</ele>
        <time>2020-07-02T09:03:19Z</time>
      </trkpt>
      <trkpt lat="48.60664" lon="2.2556">
        <ele>64.3</ele>
        <time>2020-07-02T09:03:20Z</time>
      </trkpt>
      <trkpt lat="48.60657" lon="2.25561">
        <ele>64.3</ele>
        <time>2020-07-02T09:03:21Z</time>
      </trkpt>
      <trkpt lat="48.60651" lon="2.25562">
        <ele>64.2</ele>
        <time>2020-07-02T09:03:22Z</time>
      </trkpt>
      <trkpt lat="48.60645" lon="2.25564">
        <ele>64.3</ele>
        <time>2020-07-02T09:03:23Z</time>
      </trkpt>
      <trkpt lat="48.60639" lon="2.25566">
        <ele>64.3</ele>
        <time>2020-07-02T09:03:24Z</time>
      </trkpt>
      <trkpt lat="48.60633" lon="2.25566">
        <ele>64.3</ele>
        <time>2020-07-02T09:03:25Z</time>
      </trkpt>
      <trkpt lat="48.60627" lon="2.25567">
        <ele>64.5</ele>
        <time>2020-07-02T09:03:26Z</time>
      </trkpt>
      <trkpt lat="48.60621" lon="2.25567">
        <ele>64.5</ele>
        <time>2020-07-02T09:03:27Z</time>
      </trkpt>
      <trkpt lat="48.60617" lon="2.25565">
        <ele>64.5</ele>
        <time>2020-07-02T09:03:28Z</time>
      </trkpt>
      <trkpt lat="48.60613" lon="2.25562">
        <ele>64.5</ele>
        <time>2020-07-02T09:03:29Z</time>
      </trkpt>
      <trkpt lat="48.6061" lon="2.25559">
        <ele>64.5</ele>
        <time>2020-07-02T09:03:30Z</time>
      </trkpt>
      <trkpt lat="48.60607" lon="2.25556">
        <ele>64.5</ele>
        <time>2020-07-02T09:03:31Z</time>
      </trkpt>
      <trkpt lat="48.60606" lon="2.25556">
        <ele>64.5</ele>
        <time>2020-07-02T09:03:32Z</time>
      </trkpt>
      <trkpt lat="48.60605" lon="2.25556">
        <ele>64.5</ele>
        <time>2020-07-02T09:03:33Z</time>
      </trkpt>
      <trkpt lat="48.60605" lon="2.25556">
        <ele>64.5</ele>
        <time>2020-07-02T09:03:34Z</time>
      </trkpt>
      <trkpt lat="48.60607" lon="2.25558">
        <ele>64.5</ele>
        <time>2020-07-02T09:03:35Z</time>
      </trkpt>
      <trkpt lat="48.60607" lon="2.2556">
        <ele>64.5</ele>
        <time>2020-07-02T09:03:36Z</time>
      </trkpt>
      <trkpt lat="48.60609" lon="2.25563">
        <ele>64.5</ele>
        <time>2020-07-02T09:03:37Z</time>
      </trkpt>
      <trkpt lat="48.60611" lon="2.25567">
        <ele>64.5</ele>
        <time>2020-07-02T09:03:38Z</time>
      </trkpt>
      <trkpt lat="48.60611" lon="2.25571">
        <ele>64.5</ele>
        <time>2020-07-02T09:03:39Z</time>
      </trkpt>
      <trkpt lat="48.60609" lon="2.25575">
        <ele>64.5</ele>
        <time>2020-07-02T09:03:40Z</time>
      </trkpt>
      <trkpt lat="48.60606" lon="2.25577">
        <ele>64.6</ele>
        <time>2020-07-02T09:03:41Z</time>
      </trkpt>
      <trkpt lat="48.60603" lon="2.2558">
        <ele>64.6</ele>
        <time>2020-07-02T09:03:42Z</time>
      </trkpt>
      <trkpt lat="48.60599" lon="2.25582">
        <ele>64.6</ele>
        <time>2020-07-02T09:03:43Z</time>
      </trkpt>
      <trkpt lat="48.60596" lon="2.25584">
        <ele>64.6</ele>
        <time>2020-07-02T09:03:44Z</time>
      </trkpt>
      <trkpt lat="48.60592" lon="2.25586">
        <ele>64.6</ele>
        <time>2020-07-02T09:03:45Z</time>
      </trkpt>
      <trkpt lat="48.60588" lon="2.25589">
        <ele>64.7</ele>
        <time>2020-07-02T09:03:46Z</time>
      </trkpt>
      <trkpt lat="48.60583" lon="2.25591">
        <ele>64.8</ele>
        <time>2020-07-02T09:03:47Z</time>
      </trkpt>
      <trkpt lat="48.60579" lon="2.25593">
        <ele>64.9</ele>
        <time>2020-07-02T09:03:48Z</time>
      </trkpt>
      <trkpt lat="48.60574" lon="2.25597">
        <ele>65</ele>
        <time>2020-07-02T09:03:49Z</time>
      </trkpt>
      <trkpt lat="48.60569" lon="2.25601">
        <ele>65.1</ele>
        <time>2020-07-02T09:03:50Z</time>
      </trkpt>
      <trkpt lat="48.60565" lon="2.25605">
        <ele>65.2</ele>
        <time>2020-07-02T09:03:51Z</time>
      </trkpt>
      <trkpt lat="48.60561" lon="2.25607">
        <ele>65.3</ele>
        <time>2020-07-02T09:03:52Z</time>
      </trkpt>
      <trkpt lat="48.60556" lon="2.25609">
        <ele>65.4</ele>
        <time>2020-07-02T09:03:53Z</time>
      </trkpt>
      <trkpt lat="48.60552" lon="2.25612">
        <ele>65.5</ele>
        <time>2020-07-02T09:03:54Z</time>
      </trkpt>
      <trkpt lat="48.60548" lon="2.25613">
        <ele>65.6</ele>
        <time>2020-07-02T09:03:55Z</time>
      </trkpt>
      <trkpt lat="48.60543" lon="2.25615">
        <ele>65.8</ele>
        <time>2020-07-02T09:03:56Z</time>
      </trkpt>
      <trkpt lat="48.60538" lon="2.25617">
        <ele>65.9</ele>
        <time>2020-07-02T09:03:57Z</time>
      </trkpt>
      <trkpt lat="48.60534" lon="2.25619">
        <ele>66</ele>
        <time>2020-07-02T09:03:58Z</time>
      </trkpt>
      <trkpt lat="48.60529" lon="2.25621">
        <ele>66.1</ele>
        <time>2020-07-02T09:03:59Z</time>
      </trkpt>
      <trkpt lat="48.60525" lon="2.25623">
        <ele>66.2</ele>
        <time>2020-07-02T09:04:00Z</time>
      </trkpt>
      <trkpt lat="48.6052" lon="2.25625">
        <ele>66.5</ele>
        <time>2020-07-02T09:04:01Z</time>
      </trkpt>
      <trkpt lat="48.60515" lon="2.25627">
        <ele>66.8</ele>
        <time>2020-07-02T09:04:02Z</time>
      </trkpt>
      <trkpt lat="48.6051" lon="2.25628">
        <ele>67</ele>
        <time>2020-07-02T09:04:03Z</time>
      </trkpt>
      <trkpt lat="48.60504" lon="2.25629">
        <ele>67.2</ele>
        <time>2020-07-02T09:04:04Z</time>
      </trkpt>
      <trkpt lat="48.60499" lon="2.25631">
        <ele>67.4</ele>
        <time>2020-07-02T09:04:05Z</time>
      </trkpt>
      <trkpt lat="48.60495" lon="2.25632">
        <ele>67.6</ele>
        <time>2020-07-02T09:04:06Z</time>
      </trkpt>
      <trkpt lat="48.60489" lon="2.25633">
        <ele>67.9</ele>
        <time>2020-07-02T09:04:07Z</time>
      </trkpt>
      <trkpt lat="48.60484" lon="2.25633">
        <ele>68</ele>
        <time>2020-07-02T09:04:08Z</time>
      </trkpt>
      <trkpt lat="48.6048" lon="2.25635">
        <ele>68.2</ele>
        <time>2020-07-02T09:04:09Z</time>
      </trkpt>
      <trkpt lat="48.60476" lon="2.25637">
        <ele>68.3</ele>
        <time>2020-07-02T09:04:10Z</time>
      </trkpt>
      <trkpt lat="48.60472" lon="2.25639">
        <ele>68.5</ele>
        <time>2020-07-02T09:04:11Z</time>
      </trkpt>
      <trkpt lat="48.60469" lon="2.25641">
        <ele>68.6</ele>
        <time>2020-07-02T09:04:12Z</time>
      </trkpt>
      <trkpt lat="48.60466" lon="2.25643">
        <ele>68.7</ele>
        <time>2020-07-02T09:04:13Z</time>
      </trkpt>
      <trkpt lat="48.60462" lon="2.25645">
        <ele>68.9</ele>
        <time>2020-07-02T09:04:14Z</time>
      </trkpt>
      <trkpt lat="48.60459" lon="2.25647">
        <ele>69</ele>
        <time>2020-07-02T09:04:15Z</time>
      </trkpt>
      <trkpt lat="48.60455" lon="2.2565">
        <ele>69.1</ele>
        <time>2020-07-02T09:04:16Z</time>
      </trkpt>
      <trkpt lat="48.60451" lon="2.25651">
        <ele>69.3</ele>
        <time>2020-07-02T09:04:17Z</time>
      </trkpt>
      <trkpt lat="48.60447" lon="2.25653">
        <ele>69.4</ele>
        <time>2020-07-02T09:04:18Z</time>
      </trkpt>
      <trkpt lat="48.60442" lon="2.25654">
        <ele>69.6</ele>
        <time>2020-07-02T09:04:19Z</time>
      </trkpt>
      <trkpt lat="48.60438" lon="2.25655">
        <ele>69.7</ele>
        <time>2020-07-02T09:04:20Z</time>
      </trkpt>
      <trkpt lat="48.60435" lon="2.25656">
        <ele>69.8</ele>
        <time>2020-07-02T09:04:21Z</time>
      </trkpt>
      <trkpt lat="48.6043" lon="2.25658">
        <ele>69.9</ele>
        <time>2020-07-02T09:04:22Z</time>
      </trkpt>
      <trkpt lat="48.60425" lon="2.25658">
        <ele>70</ele>
        <time>2020-07-02T09:04:23Z</time>
      </trkpt>
      <trkpt lat="48.6042" lon="2.25659">
        <ele>70.2</ele>
        <time>2020-07-02T09:04:24Z</time>
      </trkpt>
      <trkpt lat="48.60414" lon="2.25661">
        <ele>70.4</ele>
        <time>2020-07-02T09:04:25Z</time>
      </trkpt>
      <trkpt lat="48.60409" lon="2.25662">
        <ele>70.6</ele>
        <time>2020-07-02T09:04:26Z</time>
      </trkpt>
      <trkpt lat="48.60404" lon="2.25663">
        <ele>70.8</ele>
        <time>2020-07-02T09:04:27Z</time>
      </trkpt>
      <trkpt lat="48.60398" lon="2.25665">
        <ele>71</ele>
        <time>2020-07-02T09:04:28Z</time>
      </trkpt>
      <trkpt lat="48.60393" lon="2.25667">
        <ele>71.2</ele>
        <time>2020-07-02T09:04:29Z</time>
      </trkpt>
      <trkpt lat="48.60387" lon="2.25668">
        <ele>71.3</ele>
        <time>2020-07-02T09:04:30Z</time>
      </trkpt>
      <trkpt lat="48.60381" lon="2.25669">
        <ele>71.5</ele>
        <time>2020-07-02T09:04:31Z</time>
      </trkpt>
      <trkpt lat="48.60375" lon="2.2567">
        <ele>71.6</ele>
        <time>2020-07-02T09:04:32Z</time>
      </trkpt>
      <trkpt lat="48.60371" lon="2.25671">
        <ele>71.8</ele>
        <time>2020-07-02T09:04:33Z</time>
      </trkpt>
      <trkpt lat="48.60367" lon="2.25672">
        <ele>71.9</ele>
        <time>2020-07-02T09:04:34Z</time>
      </trkpt>
      <trkpt lat="48.60363" lon="2.25672">
        <ele>72</ele>
        <time>2020-07-02T09:04:35Z</time>
      </trkpt>
      <trkpt lat="48.60358" lon="2.25673">
        <ele>72.1</ele>
        <time>2020-07-02T09:04:36Z</time>
      </trkpt>
      <trkpt lat="48.60353" lon="2.25673">
        <ele>72.2</ele>
        <time>2020-07-02T09:04:37Z</time>
      </trkpt>
      <trkpt lat="48.60348" lon="2.25674">
        <ele>72.3</ele>
        <time>2020-07-02T09:04:38Z</time>
      </trkpt>
      <trkpt lat="48.60344" lon="2.25675">
        <ele>72.4</ele>
        <time>2020-07-02T09:04:39Z</time>
      </trkpt>
      <trkpt lat="48.60339" lon="2.25675">
        <ele>72.5</ele>
        <time>2020-07-02T09:04:40Z</time>
      </trkpt>
      <trkpt lat="48.60334" lon="2.25675">
        <ele>72.6</ele>
        <time>2020-07-02T09:04:41Z</time>
      </trkpt>
      <trkpt lat="48.60328" lon="2.25677">
        <ele>72.8</ele>
        <time>2020-07-02T09:04:42Z</time>
      </trkpt>
      <trkpt lat="48.60323" lon="2.25678">
        <ele>72.9</ele>
        <time>2020-07-02T09:04:43Z</time>
      </trkpt>
      <trkpt lat="48.60317" lon="2.25679">
        <ele>73</ele>
        <time>2020-07-02T09:04:44Z</time>
      </trkpt>
      <trkpt lat="48.60311" lon="2.2568">
        <ele>73.2</ele>
        <time>2020-07-02T09:04:45Z</time>
      </trkpt>
      <trkpt lat="48.60306" lon="2.25681">
        <ele>73.3</ele>
        <time>2020-07-02T09:04:46Z</time>
      </trkpt>
      <trkpt lat="48.60301" lon="2.25682">
        <ele>73.5</ele>
        <time>2020-07-02T09:04:47Z</time>
      </trkpt>
      <trkpt lat="48.60297" lon="2.25682">
        <ele>73.6</ele>
        <time>2020-07-02T09:04:48Z</time>
      </trkpt>
      <trkpt lat="48.60292" lon="2.25682">
        <ele>73.7</ele>
        <time>2020-07-02T09:04:49Z</time>
      </trkpt>
      <trkpt lat="48.60287" lon="2.25683">
        <ele>73.8</ele>
        <time>2020-07-02T09:04:50Z</time>
      </trkpt>
      <trkpt lat="48.60282" lon="2.25682">
        <ele>73.9</ele>
        <time>2020-07-02T09:04:51Z</time>
      </trkpt>
      <trkpt lat="48.60277" lon="2.25683">
        <ele>74</ele>
        <time>2020-07-02T09:04:52Z</time>
      </trkpt>
      <trkpt lat="48.60271" lon="2.25683">
        <ele>74.2</ele>
        <time>2020-07-02T09:04:53Z</time>
      </trkpt>
      <trkpt lat="48.60266" lon="2.25683">
        <ele>74.4</ele>
        <time>2020-07-02T09:04:54Z</time>
      </trkpt>
      <trkpt lat="48.6026" lon="2.25682">
        <ele>74.5</ele>
        <time>2020-07-02T09:04:55Z</time>
      </trkpt>
      <trkpt lat="48.60255" lon="2.25682">
        <ele>74.7</ele>
        <time>2020-07-02T09:04:56Z</time>
      </trkpt>
      <trkpt lat="48.6025" lon="2.25682">
        <ele>74.8</ele>
        <time>2020-07-02T09:04:57Z</time>
      </trkpt>
      <trkpt lat="48.60245" lon="2.25681">
        <ele>74.9</ele>
        <time>2020-07-02T09:04:58Z</time>
      </trkpt>
      <trkpt lat="48.6024" lon="2.2568">
        <ele>75</ele>
        <time>2020-07-02T09:04:59Z</time>
      </trkpt>
      <trkpt lat="48.60236" lon="2.25679">
        <ele>75.1</ele>
        <time>2020-07-02T09:05:00Z</time>
      </trkpt>
      <trkpt lat="48.60231" lon="2.25679">
        <ele>75.1</ele>
        <time>2020-07-02T09:05:01Z</time>
      </trkpt>
      <trkpt lat="48.60226" lon="2.25678">
        <ele>75.2</ele>
        <time>2020-07-02T09:05:02Z</time>
      </trkpt>
      <trkpt lat="48.60221" lon="2.25677">
        <ele>75.3</ele>
        <time>2020-07-02T09:05:03Z</time>
      </trkpt>
      <trkpt lat="48.60216" lon="2.25675">
        <ele>75.4</ele>
        <time>2020-07-02T09:05:04Z</time>
      </trkpt>
      <trkpt lat="48.60211" lon="2.25674">
        <ele>75.4</ele>
        <time>2020-07-02T09:05:05Z</time>
      </trkpt>
      <trkpt lat="48.60206" lon="2.25672">
        <ele>75.5</ele>
        <time>2020-07-02T09:05:06Z</time>
      </trkpt>
      <trkpt lat="48.60201" lon="2.25671">
        <ele>75.5</ele>
        <time>2020-07-02T09:05:07Z</time>
      </trkpt>
      <trkpt lat="48.60195" lon="2.25671">
        <ele>75.5</ele>
        <time>2020-07-02T09:05:08Z</time>
      </trkpt>
      <trkpt lat="48.6019" lon="2.25671">
        <ele>75.5</ele>
        <time>2020-07-02T09:05:09Z</time>
      </trkpt>
      <trkpt lat="48.60185" lon="2.25669">
        <ele>75.5</ele>
        <time>2020-07-02T09:05:10Z</time>
      </trkpt>
      <trkpt lat="48.6018" lon="2.25669">
        <ele>75.5</ele>
        <time>2020-07-02T09:05:11Z</time>
      </trkpt>
      <trkpt lat="48.60175" lon="2.25669">
        <ele>75.4</ele>
        <time>2020-07-02T09:05:12Z</time>
      </trkpt>
      <trkpt lat="48.6017" lon="2.25668">
        <ele>75.3</ele>
        <time>2020-07-02T09:05:13Z</time>
      </trkpt>
      <trkpt lat="48.60165" lon="2.25668">
        <ele>75.2</ele>
        <time>2020-07-02T09:05:14Z</time>
      </trkpt>
      <trkpt lat="48.60159" lon="2.25667">
        <ele>75.1</ele>
        <time>2020-07-02T09:05:15Z</time>
      </trkpt>
      <trkpt lat="48.60154" lon="2.25668">
        <ele>74.9</ele>
        <time>2020-07-02T09:05:16Z</time>
      </trkpt>
      <trkpt lat="48.60149" lon="2.2567">
        <ele>74.7</ele>
        <time>2020-07-02T09:05:17Z</time>
      </trkpt>
      <trkpt lat="48.60143" lon="2.25671">
        <ele>74.5</ele>
        <time>2020-07-02T09:05:18Z</time>
      </trkpt>
      <trkpt lat="48.60136" lon="2.25672">
        <ele>74.2</ele>
        <time>2020-07-02T09:05:19Z</time>
      </trkpt>
      <trkpt lat="48.6013" lon="2.25673">
        <ele>73.9</ele>
        <time>2020-07-02T09:05:20Z</time>
      </trkpt>
      <trkpt lat="48.60124" lon="2.25674">
        <ele>73.7</ele>
        <time>2020-07-02T09:05:21Z</time>
      </trkpt>
      <trkpt lat="48.60118" lon="2.25676">
        <ele>73.4</ele>
        <time>2020-07-02T09:05:22Z</time>
      </trkpt>
      <trkpt lat="48.60111" lon="2.25678">
        <ele>73</ele>
        <time>2020-07-02T09:05:23Z</time>
      </trkpt>
      <trkpt lat="48.60105" lon="2.25681">
        <ele>72.7</ele>
        <time>2020-07-02T09:05:24Z</time>
      </trkpt>
      <trkpt lat="48.60097" lon="2.25684">
        <ele>72.2</ele>
        <time>2020-07-02T09:05:25Z</time>
      </trkpt>
      <trkpt lat="48.60089" lon="2.25689">
        <ele>71.8</ele>
        <time>2020-07-02T09:05:26Z</time>
      </trkpt>
      <trkpt lat="48.60082" lon="2.25692">
        <ele>71.4</ele>
        <time>2020-07-02T09:05:27Z</time>
      </trkpt>
      <trkpt lat="48.60075" lon="2.25696">
        <ele>71.1</ele>
        <time>2020-07-02T09:05:28Z</time>
      </trkpt>
      <trkpt lat="48.60069" lon="2.25699">
        <ele>70.7</ele>
        <time>2020-07-02T09:05:29Z</time>
      </trkpt>
      <trkpt lat="48.60062" lon="2.257">
        <ele>70.2</ele>
        <time>2020-07-02T09:05:30Z</time>
      </trkpt>
      <trkpt lat="48.60057" lon="2.257">
        <ele>69.9</ele>
        <time>2020-07-02T09:05:31Z</time>
      </trkpt>
      <trkpt lat="48.6005" lon="2.25703">
        <ele>69.5</ele>
        <time>2020-07-02T09:05:32Z</time>
      </trkpt>
      <trkpt lat="48.60044" lon="2.25704">
        <ele>69.1</ele>
        <time>2020-07-02T09:05:33Z</time>
      </trkpt>
      <trkpt lat="48.60037" lon="2.25705">
        <ele>68.8</ele>
        <time>2020-07-02T09:05:34Z</time>
      </trkpt>
      <trkpt lat="48.6003" lon="2.25708">
        <ele>68.3</ele>
        <time>2020-07-02T09:05:35Z</time>
      </trkpt>
      <trkpt lat="48.60023" lon="2.25709">
        <ele>68</ele>
        <time>2020-07-02T09:05:36Z</time>
      </trkpt>
      <trkpt lat="48.60015" lon="2.25711">
        <ele>67.6</ele>
        <time>2020-07-02T09:05:37Z</time>
      </trkpt>
      <trkpt lat="48.60007" lon="2.25714">
        <ele>67.2</ele>
        <time>2020-07-02T09:05:38Z</time>
      </trkpt>
      <trkpt lat="48.59999" lon="2.25717">
        <ele>66.8</ele>
        <time>2020-07-02T09:05:39Z</time>
      </trkpt>
      <trkpt lat="48.59991" lon="2.25719">
        <ele>66.4</ele>
        <time>2020-07-02T09:05:40Z</time>
      </trkpt>
      <trkpt lat="48.59984" lon="2.25722">
        <ele>66</ele>
        <time>2020-07-02T09:05:41Z</time>
      </trkpt>
      <trkpt lat="48.59976" lon="2.25724">
        <ele>65.6</ele>
        <time>2020-07-02T09:05:42Z</time>
      </trkpt>
      <trkpt lat="48.59969" lon="2.25727">
        <ele>65.2</ele>
        <time>2020-07-02T09:05:43Z</time>
      </trkpt>
      <trkpt lat="48.59961" lon="2.25728">
        <ele>64.8</ele>
        <time>2020-07-02T09:05:44Z</time>
      </trkpt>
      <trkpt lat="48.59953" lon="2.25729">
        <ele>64.4</ele>
        <time>2020-07-02T09:05:45Z</time>
      </trkpt>
      <trkpt lat="48.59946" lon="2.25731">
        <ele>64.1</ele>
        <time>2020-07-02T09:05:46Z</time>
      </trkpt>
      <trkpt lat="48.59938" lon="2.25731">
        <ele>63.7</ele>
        <time>2020-07-02T09:05:47Z</time>
      </trkpt>
      <trkpt lat="48.5993" lon="2.25731">
        <ele>63.3</ele>
        <time>2020-07-02T09:05:48Z</time>
      </trkpt>
      <trkpt lat="48.59922" lon="2.25731">
        <ele>63</ele>
        <time>2020-07-02T09:05:49Z</time>
      </trkpt>
      <trkpt lat="48.59914" lon="2.25731">
        <ele>62.6</ele>
        <time>2020-07-02T09:05:50Z</time>
      </trkpt>
      <trkpt lat="48.59906" lon="2.25731">
        <ele>62.2</ele>
        <time>2020-07-02T09:05:51Z</time>
      </trkpt>
      <trkpt lat="48.59899" lon="2.25732">
        <ele>61.9</ele>
        <time>2020-07-02T09:05:52Z</time>
      </trkpt>
      <trkpt lat="48.59892" lon="2.25736">
        <ele>61.4</ele>
        <time>2020-07-02T09:05:53Z</time>
      </trkpt>
      <trkpt lat="48.59884" lon="2.25738">
        <ele>61.1</ele>
        <time>2020-07-02T09:05:54Z</time>
      </trkpt>
      <trkpt lat="48.59877" lon="2.25741">
        <ele>61</ele>
        <time>2020-07-02T09:05:55Z</time>
      </trkpt>
      <trkpt lat="48.59869" lon="2.25742">
        <ele>60.9</ele>
        <time>2020-07-02T09:05:56Z</time>
      </trkpt>
      <trkpt lat="48.59861" lon="2.25743">
        <ele>60.5</ele>
        <time>2020-07-02T09:05:57Z</time>
      </trkpt>
      <trkpt lat="48.59853" lon="2.25744">
        <ele>60</ele>
        <time>2020-07-02T09:05:58Z</time>
      </trkpt>
      <trkpt lat="48.59846" lon="2.25744">
        <ele>59.6</ele>
        <time>2020-07-02T09:05:59Z</time>
      </trkpt>
      <trkpt lat="48.59838" lon="2.25745">
        <ele>59.2</ele>
        <time>2020-07-02T09:06:00Z</time>
      </trkpt>
      <trkpt lat="48.59831" lon="2.25746">
        <ele>58.9</ele>
        <time>2020-07-02T09:06:01Z</time>
      </trkpt>
      <trkpt lat="48.59823" lon="2.25747">
        <ele>58.5</ele>
        <time>2020-07-02T09:06:02Z</time>
      </trkpt>
      <trkpt lat="48.59815" lon="2.25748">
        <ele>58.2</ele>
        <time>2020-07-02T09:06:03Z</time>
      </trkpt>
      <trkpt lat="48.59807" lon="2.25748">
        <ele>57.8</ele>
        <time>2020-07-02T09:06:04Z</time>
      </trkpt>
      <trkpt lat="48.59799" lon="2.25749">
        <ele>57.5</ele>
        <time>2020-07-02T09:06:05Z</time>
      </trkpt>
      <trkpt lat="48.59791" lon="2.25749">
        <ele>57.2</ele>
        <time>2020-07-02T09:06:06Z</time>
      </trkpt>
      <trkpt lat="48.59783" lon="2.25747">
        <ele>56.8</ele>
        <time>2020-07-02T09:06:07Z</time>
      </trkpt>
      <trkpt lat="48.59776" lon="2.25745">
        <ele>56.5</ele>
        <time>2020-07-02T09:06:08Z</time>
      </trkpt>
      <trkpt lat="48.59768" lon="2.25742">
        <ele>56.1</ele>
        <time>2020-07-02T09:06:09Z</time>
      </trkpt>
      <trkpt lat="48.59761" lon="2.25738">
        <ele>55.5</ele>
        <time>2020-07-02T09:06:10Z</time>
      </trkpt>
      <trkpt lat="48.59754" lon="2.25733">
        <ele>55.4</ele>
        <time>2020-07-02T09:06:11Z</time>
      </trkpt>
      <trkpt lat="48.59746" lon="2.25728">
        <ele>55.1</ele>
        <time>2020-07-02T09:06:12Z</time>
      </trkpt>
      <trkpt lat="48.59739" lon="2.25723">
        <ele>54.9</ele>
        <time>2020-07-02T09:06:13Z</time>
      </trkpt>
      <trkpt lat="48.59733" lon="2.25717">
        <ele>54.6</ele>
        <time>2020-07-02T09:06:14Z</time>
      </trkpt>
      <trkpt lat="48.59727" lon="2.25709">
        <ele>54.4</ele>
        <time>2020-07-02T09:06:15Z</time>
      </trkpt>
      <trkpt lat="48.59721" lon="2.25701">
        <ele>54.1</ele>
        <time>2020-07-02T09:06:16Z</time>
      </trkpt>
      <trkpt lat="48.59715" lon="2.25694">
        <ele>53.9</ele>
        <time>2020-07-02T09:06:17Z</time>
      </trkpt>
      <trkpt lat="48.59709" lon="2.25685">
        <ele>53.7</ele>
        <time>2020-07-02T09:06:18Z</time>
      </trkpt>
      <trkpt lat="48.59703" lon="2.25677">
        <ele>53.5</ele>
        <time>2020-07-02T09:06:19Z</time>
      </trkpt>
      <trkpt lat="48.59697" lon="2.25669">
        <ele>53.2</ele>
        <time>2020-07-02T09:06:20Z</time>
      </trkpt>
      <trkpt lat="48.59692" lon="2.25661">
        <ele>53.2</ele>
        <time>2020-07-02T09:06:21Z</time>
      </trkpt>
      <trkpt lat="48.59686" lon="2.25653">
        <ele>53.2</ele>
        <time>2020-07-02T09:06:22Z</time>
      </trkpt>
      <trkpt lat="48.5968" lon="2.25646">
        <ele>53.2</ele>
        <time>2020-07-02T09:06:23Z</time>
      </trkpt>
      <trkpt lat="48.59674" lon="2.25639">
        <ele>53.1</ele>
        <time>2020-07-02T09:06:24Z</time>
      </trkpt>
      <trkpt lat="48.59668" lon="2.25633">
        <ele>53.1</ele>
        <time>2020-07-02T09:06:25Z</time>
      </trkpt>
      <trkpt lat="48.59662" lon="2.25628">
        <ele>53</ele>
        <time>2020-07-02T09:06:26Z</time>
      </trkpt>
      <trkpt lat="48.59656" lon="2.25623">
        <ele>53</ele>
        <time>2020-07-02T09:06:27Z</time>
      </trkpt>
      <trkpt lat="48.5965" lon="2.25619">
        <ele>53</ele>
        <time>2020-07-02T09:06:28Z</time>
      </trkpt>
      <trkpt lat="48.59644" lon="2.25614">
        <ele>53</ele>
        <time>2020-07-02T09:06:29Z</time>
      </trkpt>
      <trkpt lat="48.59638" lon="2.25612">
        <ele>53</ele>
        <time>2020-07-02T09:06:30Z</time>
      </trkpt>
      <trkpt lat="48.59633" lon="2.25608">
        <ele>53.1</ele>
        <time>2020-07-02T09:06:31Z</time>
      </trkpt>
      <trkpt lat="48.59627" lon="2.25604">
        <ele>53.1</ele>
        <time>2020-07-02T09:06:32Z</time>
      </trkpt>
      <trkpt lat="48.59621" lon="2.256">
        <ele>53.1</ele>
        <time>2020-07-02T09:06:33Z</time>
      </trkpt>
      <trkpt lat="48.59616" lon="2.25596">
        <ele>53.2</ele>
        <time>2020-07-02T09:06:34Z</time>
      </trkpt>
      <trkpt lat="48.5961" lon="2.25593">
        <ele>53.2</ele>
        <time>2020-07-02T09:06:35Z</time>
      </trkpt>
      <trkpt lat="48.59605" lon="2.25587">
        <ele>53.3</ele>
        <time>2020-07-02T09:06:36Z</time>
      </trkpt>
      <trkpt lat="48.596" lon="2.25583">
        <ele>53.4</ele>
        <time>2020-07-02T09:06:37Z</time>
      </trkpt>
      <trkpt lat="48.59595" lon="2.25579">
        <ele>53.5</ele>
        <time>2020-07-02T09:06:38Z</time>
      </trkpt>
      <trkpt lat="48.59591" lon="2.25574">
        <ele>53.6</ele>
        <time>2020-07-02T09:06:39Z</time>
      </trkpt>
      <trkpt lat="48.59586" lon="2.25571">
        <ele>53.7</ele>
        <time>2020-07-02T09:06:40Z</time>
      </trkpt>
      <trkpt lat="48.59582" lon="2.25567">
        <ele>53.8</ele>
        <time>2020-07-02T09:06:41Z</time>
      </trkpt>
      <trkpt lat="48.59579" lon="2.25562">
        <ele>53.9</ele>
        <time>2020-07-02T09:06:42Z</time>
      </trkpt>
      <trkpt lat="48.59575" lon="2.25559">
        <ele>54</ele>
        <time>2020-07-02T09:06:43Z</time>
      </trkpt>
      <trkpt lat="48.59572" lon="2.25554">
        <ele>54.1</ele>
        <time>2020-07-02T09:06:44Z</time>
      </trkpt>
      <trkpt lat="48.59567" lon="2.25551">
        <ele>54.1</ele>
        <time>2020-07-02T09:06:45Z</time>
      </trkpt>
      <trkpt lat="48.59563" lon="2.25548">
        <ele>54.3</ele>
        <time>2020-07-02T09:06:46Z</time>
      </trkpt>
      <trkpt lat="48.59559" lon="2.25545">
        <ele>54.4</ele>
        <time>2020-07-02T09:06:47Z</time>
      </trkpt>
      <trkpt lat="48.59555" lon="2.25541">
        <ele>54.5</ele>
        <time>2020-07-02T09:06:48Z</time>
      </trkpt>
      <trkpt lat="48.59552" lon="2.25538">
        <ele>54.6</ele>
        <time>2020-07-02T09:06:49Z</time>
      </trkpt>
      <trkpt lat="48.59549" lon="2.25535">
        <ele>54.7</ele>
        <time>2020-07-02T09:06:50Z</time>
      </trkpt>
      <trkpt lat="48.59546" lon="2.25532">
        <ele>54.8</ele>
        <time>2020-07-02T09:06:51Z</time>
      </trkpt>
      <trkpt lat="48.59543" lon="2.25529">
        <ele>54.8</ele>
        <time>2020-07-02T09:06:52Z</time>
      </trkpt>
      <trkpt lat="48.5954" lon="2.25527">
        <ele>54.8</ele>
        <time>2020-07-02T09:06:53Z</time>
      </trkpt>
      <trkpt lat="48.59537" lon="2.25525">
        <ele>54.7</ele>
        <time>2020-07-02T09:06:54Z</time>
      </trkpt>
      <trkpt lat="48.59534" lon="2.25524">
        <ele>54.7</ele>
        <time>2020-07-02T09:06:55Z</time>
      </trkpt>
      <trkpt lat="48.59531" lon="2.25526">
        <ele>54.6</ele>
        <time>2020-07-02T09:06:56Z</time>
      </trkpt>
      <trkpt lat="48.59528" lon="2.25531">
        <ele>54.5</ele>
        <time>2020-07-02T09:06:57Z</time>
      </trkpt>
      <trkpt lat="48.59525" lon="2.25535">
        <ele>54.3</ele>
        <time>2020-07-02T09:06:58Z</time>
      </trkpt>
      <trkpt lat="48.59521" lon="2.25539">
        <ele>54.2</ele>
        <time>2020-07-02T09:06:59Z</time>
      </trkpt>
      <trkpt lat="48.59518" lon="2.25543">
        <ele>54.1</ele>
        <time>2020-07-02T09:07:00Z</time>
      </trkpt>
      <trkpt lat="48.59516" lon="2.25549">
        <ele>53.9</ele>
        <time>2020-07-02T09:07:01Z</time>
      </trkpt>
      <trkpt lat="48.59513" lon="2.25553">
        <ele>53.8</ele>
        <time>2020-07-02T09:07:02Z</time>
      </trkpt>
      <trkpt lat="48.5951" lon="2.25557">
        <ele>53.6</ele>
        <time>2020-07-02T09:07:03Z</time>
      </trkpt>
      <trkpt lat="48.59507" lon="2.25562">
        <ele>53.5</ele>
        <time>2020-07-02T09:07:04Z</time>
      </trkpt>
      <trkpt lat="48.59503" lon="2.25567">
        <ele>53.3</ele>
        <time>2020-07-02T09:07:05Z</time>
      </trkpt>
      <trkpt lat="48.59499" lon="2.25573">
        <ele>53.2</ele>
        <time>2020-07-02T09:07:06Z</time>
      </trkpt>
      <trkpt lat="48.59496" lon="2.25579">
        <ele>53</ele>
        <time>2020-07-02T09:07:07Z</time>
      </trkpt>
      <trkpt lat="48.59492" lon="2.25585">
        <ele>53</ele>
        <time>2020-07-02T09:07:08Z</time>
      </trkpt>
      <trkpt lat="48.59489" lon="2.25592">
        <ele>53</ele>
        <time>2020-07-02T09:07:09Z</time>
      </trkpt>
      <trkpt lat="48.59486" lon="2.25598">
        <ele>52.9</ele>
        <time>2020-07-02T09:07:10Z</time>
      </trkpt>
      <trkpt lat="48.59482" lon="2.25604">
        <ele>52.9</ele>
        <time>2020-07-02T09:07:11Z</time>
      </trkpt>
      <trkpt lat="48.59479" lon="2.2561">
        <ele>52.8</ele>
        <time>2020-07-02T09:07:12Z</time>
      </trkpt>
      <trkpt lat="48.59476" lon="2.25616">
        <ele>52.7</ele>
        <time>2020-07-02T09:07:13Z</time>
      </trkpt>
      <trkpt lat="48.59473" lon="2.25623">
        <ele>52.5</ele>
        <time>2020-07-02T09:07:14Z</time>
      </trkpt>
      <trkpt lat="48.59471" lon="2.25631">
        <ele>52.3</ele>
        <time>2020-07-02T09:07:15Z</time>
      </trkpt>
      <trkpt lat="48.5947" lon="2.2564">
        <ele>52.1</ele>
        <time>2020-07-02T09:07:16Z</time>
      </trkpt>
      <trkpt lat="48.5947" lon="2.2565">
        <ele>51.9</ele>
        <time>2020-07-02T09:07:17Z</time>
      </trkpt>
      <trkpt lat="48.59471" lon="2.25659">
        <ele>51.6</ele>
        <time>2020-07-02T09:07:18Z</time>
      </trkpt>
      <trkpt lat="48.59473" lon="2.25668">
        <ele>51.4</ele>
        <time>2020-07-02T09:07:19Z</time>
      </trkpt>
      <trkpt lat="48.59475" lon="2.25677">
        <ele>51.1</ele>
        <time>2020-07-02T09:07:20Z</time>
      </trkpt>
      <trkpt lat="48.59477" lon="2.25686">
        <ele>50.9</ele>
        <time>2020-07-02T09:07:21Z</time>
      </trkpt>
      <trkpt lat="48.59479" lon="2.25696">
        <ele>50.6</ele>
        <time>2020-07-02T09:07:22Z</time>
      </trkpt>
      <trkpt lat="48.59481" lon="2.25707">
        <ele>50.3</ele>
        <time>2020-07-02T09:07:23Z</time>
      </trkpt>
      <trkpt lat="48.59483" lon="2.25717">
        <ele>50.1</ele>
        <time>2020-07-02T09:07:24Z</time>
      </trkpt>
      <trkpt lat="48.59485" lon="2.25728">
        <ele>49.7</ele>
        <time>2020-07-02T09:07:25Z</time>
      </trkpt>
      <trkpt lat="48.59488" lon="2.25739">
        <ele>49.4</ele>
        <time>2020-07-02T09:07:26Z</time>
      </trkpt>
      <trkpt lat="48.59491" lon="2.25749">
        <ele>49.1</ele>
        <time>2020-07-02T09:07:27Z</time>
      </trkpt>
      <trkpt lat="48.59494" lon="2.2576">
        <ele>48.8</ele>
        <time>2020-07-02T09:07:28Z</time>
      </trkpt>
      <trkpt lat="48.59497" lon="2.25771">
        <ele>48.5</ele>
        <time>2020-07-02T09:07:29Z</time>
      </trkpt>
      <trkpt lat="48.59499" lon="2.25783">
        <ele>48.2</ele>
        <time>2020-07-02T09:07:30Z</time>
      </trkpt>
      <trkpt lat="48.59501" lon="2.25795">
        <ele>47.9</ele>
        <time>2020-07-02T09:07:31Z</time>
      </trkpt>
      <trkpt lat="48.59502" lon="2.25807">
        <ele>47.6</ele>
        <time>2020-07-02T09:07:32Z</time>
      </trkpt>
      <trkpt lat="48.59502" lon="2.25819">
        <ele>47.5</ele>
        <time>2020-07-02T09:07:33Z</time>
      </trkpt>
      <trkpt lat="48.59501" lon="2.25831">
        <ele>47.4</ele>
        <time>2020-07-02T09:07:34Z</time>
      </trkpt>
      <trkpt lat="48.59501" lon="2.25842">
        <ele>47.3</ele>
        <time>2020-07-02T09:07:35Z</time>
      </trkpt>
      <trkpt lat="48.59501" lon="2.25854">
        <ele>47.2</ele>
        <time>2020-07-02T09:07:36Z</time>
      </trkpt>
      <trkpt lat="48.59501" lon="2.25866">
        <ele>47.1</ele>
        <time>2020-07-02T09:07:37Z</time>
      </trkpt>
      <trkpt lat="48.59501" lon="2.25877">
        <ele>47</ele>
        <time>2020-07-02T09:07:38Z</time>
      </trkpt>
      <trkpt lat="48.59502" lon="2.25888">
        <ele>46.9</ele>
        <time>2020-07-02T09:07:39Z</time>
      </trkpt>
      <trkpt lat="48.59503" lon="2.25899">
        <ele>46.9</ele>
        <time>2020-07-02T09:07:40Z</time>
      </trkpt>
      <trkpt lat="48.59504" lon="2.25909">
        <ele>46.8</ele>
        <time>2020-07-02T09:07:41Z</time>
      </trkpt>
      <trkpt lat="48.59506" lon="2.25919">
        <ele>46.7</ele>
        <time>2020-07-02T09:07:42Z</time>
      </trkpt>
      <trkpt lat="48.59507" lon="2.25929">
        <ele>46.7</ele>
        <time>2020-07-02T09:07:43Z</time>
      </trkpt>
      <trkpt lat="48.59509" lon="2.25939">
        <ele>46.7</ele>
        <time>2020-07-02T09:07:44Z</time>
      </trkpt>
      <trkpt lat="48.59512" lon="2.25948">
        <ele>46.7</ele>
        <time>2020-07-02T09:07:45Z</time>
      </trkpt>
      <trkpt lat="48.59515" lon="2.25958">
        <ele>46.7</ele>
        <time>2020-07-02T09:07:46Z</time>
      </trkpt>
      <trkpt lat="48.59518" lon="2.25967">
        <ele>46.8</ele>
        <time>2020-07-02T09:07:47Z</time>
      </trkpt>
      <trkpt lat="48.5952" lon="2.25976">
        <ele>46.9</ele>
        <time>2020-07-02T09:07:48Z</time>
      </trkpt>
      <trkpt lat="48.59519" lon="2.25986">
        <ele>47</ele>
        <time>2020-07-02T09:07:49Z</time>
      </trkpt>
      <trkpt lat="48.59516" lon="2.25992">
        <ele>47.2</ele>
        <time>2020-07-02T09:07:50Z</time>
      </trkpt>
      <trkpt lat="48.59511" lon="2.25998">
        <ele>47.2</ele>
        <time>2020-07-02T09:07:51Z</time>
      </trkpt>
      <trkpt lat="48.59507" lon="2.26002">
        <ele>47.3</ele>
        <time>2020-07-02T09:07:52Z</time>
      </trkpt>
      <trkpt lat="48.59502" lon="2.26006">
        <ele>47.3</ele>
        <time>2020-07-02T09:07:53Z</time>
      </trkpt>
      <trkpt lat="48.59497" lon="2.2601">
        <ele>47.3</ele>
        <time>2020-07-02T09:07:54Z</time>
      </trkpt>
      <trkpt lat="48.59493" lon="2.26015">
        <ele>47.5</ele>
        <time>2020-07-02T09:07:55Z</time>
      </trkpt>
      <trkpt lat="48.59489" lon="2.26019">
        <ele>47.6</ele>
        <time>2020-07-02T09:07:56Z</time>
      </trkpt>
      <trkpt lat="48.59485" lon="2.26023">
        <ele>47.7</ele>
        <time>2020-07-02T09:07:57Z</time>
      </trkpt>
      <trkpt lat="48.5948" lon="2.26026">
        <ele>47.8</ele>
        <time>2020-07-02T09:07:58Z</time>
      </trkpt>
      <trkpt lat="48.59475" lon="2.26028">
        <ele>47.8</ele>
        <time>2020-07-02T09:07:59Z</time>
      </trkpt>
      <trkpt lat="48.5947" lon="2.26031">
        <ele>47.8</ele>
        <time>2020-07-02T09:08:00Z</time>
      </trkpt>
      <trkpt lat="48.59466" lon="2.26036">
        <ele>47.8</ele>
        <time>2020-07-02T09:08:01Z</time>
      </trkpt>
      <trkpt lat="48.59461" lon="2.2604">
        <ele>47.8</ele>
        <time>2020-07-02T09:08:02Z</time>
      </trkpt>
      <trkpt lat="48.59458" lon="2.26045">
        <ele>47.8</ele>
        <time>2020-07-02T09:08:03Z</time>
      </trkpt>
      <trkpt lat="48.59453" lon="2.26049">
        <ele>47.8</ele>
        <time>2020-07-02T09:08:04Z</time>
      </trkpt>
      <trkpt lat="48.59449" lon="2.26055">
        <ele>47.8</ele>
        <time>2020-07-02T09:08:05Z</time>
      </trkpt>
      <trkpt lat="48.59445" lon="2.26061">
        <ele>47.8</ele>
        <time>2020-07-02T09:08:06Z</time>
      </trkpt>
      <trkpt lat="48.59441" lon="2.26067">
        <ele>47.8</ele>
        <time>2020-07-02T09:08:07Z</time>
      </trkpt>
      <trkpt lat="48.59438" lon="2.26074">
        <ele>47.8</ele>
        <time>2020-07-02T09:08:08Z</time>
      </trkpt>
      <trkpt lat="48.59435" lon="2.26082">
        <ele>47.8</ele>
        <time>2020-07-02T09:08:09Z</time>
      </trkpt>
      <trkpt lat="48.59431" lon="2.26089">
        <ele>47.8</ele>
        <time>2020-07-02T09:08:10Z</time>
      </trkpt>
      <trkpt lat="48.59428" lon="2.26096">
        <ele>47.9</ele>
        <time>2020-07-02T09:08:11Z</time>
      </trkpt>
      <trkpt lat="48.59425" lon="2.26102">
        <ele>47.9</ele>
        <time>2020-07-02T09:08:12Z</time>
      </trkpt>
      <trkpt lat="48.59422" lon="2.26109">
        <ele>47.9</ele>
        <time>2020-07-02T09:08:13Z</time>
      </trkpt>
      <trkpt lat="48.59419" lon="2.26115">
        <ele>47.9</ele>
        <time>2020-07-02T09:08:14Z</time>
      </trkpt>
      <trkpt lat="48.59415" lon="2.26122">
        <ele>47.9</ele>
        <time>2020-07-02T09:08:15Z</time>
      </trkpt>
      <trkpt lat="48.59412" lon="2.26128">
        <ele>47.9</ele>
        <time>2020-07-02T09:08:16Z</time>
      </trkpt>
      <trkpt lat="48.59407" lon="2.26135">
        <ele>47.9</ele>
        <time>2020-07-02T09:08:17Z</time>
      </trkpt>
      <trkpt lat="48.59403" lon="2.26141">
        <ele>47.8</ele>
        <time>2020-07-02T09:08:18Z</time>
      </trkpt>
      <trkpt lat="48.59399" lon="2.26148">
        <ele>47.8</ele>
        <time>2020-07-02T09:08:19Z</time>
      </trkpt>
      <trkpt lat="48.59395" lon="2.26155">
        <ele>47.7</ele>
        <time>2020-07-02T09:08:20Z</time>
      </trkpt>
      <trkpt lat="48.59392" lon="2.26162">
        <ele>47.7</ele>
        <time>2020-07-02T09:08:21Z</time>
      </trkpt>
      <trkpt lat="48.59389" lon="2.26169">
        <ele>47.7</ele>
        <time>2020-07-02T09:08:22Z</time>
      </trkpt>
      <trkpt lat="48.59386" lon="2.26175">
        <ele>47.7</ele>
        <time>2020-07-02T09:08:23Z</time>
      </trkpt>
      <trkpt lat="48.59382" lon="2.26181">
        <ele>47.7</ele>
        <time>2020-07-02T09:08:24Z</time>
      </trkpt>
      <trkpt lat="48.59378" lon="2.26188">
        <ele>47.8</ele>
        <time>2020-07-02T09:08:25Z</time>
      </trkpt>
      <trkpt lat="48.59374" lon="2.26195">
        <ele>47.9</ele>
        <time>2020-07-02T09:08:26Z</time>
      </trkpt>
      <trkpt lat="48.5937" lon="2.26202">
        <ele>47.9</ele>
        <time>2020-07-02T09:08:27Z</time>
      </trkpt>
      <trkpt lat="48.59367" lon="2.26208">
        <ele>48</ele>
        <time>2020-07-02T09:08:28Z</time>
      </trkpt>
      <trkpt lat="48.59364" lon="2.26214">
        <ele>48</ele>
        <time>2020-07-02T09:08:29Z</time>
      </trkpt>
      <trkpt lat="48.59361" lon="2.2622">
        <ele>48</ele>
        <time>2020-07-02T09:08:30Z</time>
      </trkpt>
      <trkpt lat="48.59358" lon="2.26223">
        <ele>48</ele>
        <time>2020-07-02T09:08:31Z</time>
      </trkpt>
      <trkpt lat="48.59354" lon="2.26228">
        <ele>48.1</ele>
        <time>2020-07-02T09:08:32Z</time>
      </trkpt>
      <trkpt lat="48.59347" lon="2.26231">
        <ele>48.1</ele>
        <time>2020-07-02T09:08:33Z</time>
      </trkpt>
      <trkpt lat="48.59343" lon="2.26231">
        <ele>48.1</ele>
        <time>2020-07-02T09:08:34Z</time>
      </trkpt>
      <trkpt lat="48.59338" lon="2.26229">
        <ele>48.1</ele>
        <time>2020-07-02T09:08:35Z</time>
      </trkpt>
      <trkpt lat="48.59333" lon="2.26226">
        <ele>48.1</ele>
        <time>2020-07-02T09:08:36Z</time>
      </trkpt>
      <trkpt lat="48.59329" lon="2.26224">
        <ele>48.1</ele>
        <time>2020-07-02T09:08:37Z</time>
      </trkpt>
      <trkpt lat="48.59325" lon="2.2622">
        <ele>48.1</ele>
        <time>2020-07-02T09:08:38Z</time>
      </trkpt>
      <trkpt lat="48.5932" lon="2.26217">
        <ele>48.1</ele>
        <time>2020-07-02T09:08:39Z</time>
      </trkpt>
      <trkpt lat="48.59315" lon="2.26212">
        <ele>48.1</ele>
        <time>2020-07-02T09:08:40Z</time>
      </trkpt>
      <trkpt lat="48.5931" lon="2.26207">
        <ele>48.1</ele>
        <time>2020-07-02T09:08:41Z</time>
      </trkpt>
      <trkpt lat="48.59306" lon="2.26203">
        <ele>48.1</ele>
        <time>2020-07-02T09:08:42Z</time>
      </trkpt>
      <trkpt lat="48.59301" lon="2.262">
        <ele>48.1</ele>
        <time>2020-07-02T09:08:43Z</time>
      </trkpt>
      <trkpt lat="48.59297" lon="2.26196">
        <ele>48.1</ele>
        <time>2020-07-02T09:08:44Z</time>
      </trkpt>
      <trkpt lat="48.59293" lon="2.26192">
        <ele>48.1</ele>
        <time>2020-07-02T09:08:45Z</time>
      </trkpt>
      <trkpt lat="48.5929" lon="2.26187">
        <ele>48.1</ele>
        <time>2020-07-02T09:08:46Z</time>
      </trkpt>
      <trkpt lat="48.59288" lon="2.26182">
        <ele>48.1</ele>
        <time>2020-07-02T09:08:47Z</time>
      </trkpt>
      <trkpt lat="48.59285" lon="2.26175">
        <ele>48.1</ele>
        <time>2020-07-02T09:08:48Z</time>
      </trkpt>
      <trkpt lat="48.59281" lon="2.26168">
        <ele>48.1</ele>
        <time>2020-07-02T09:08:49Z</time>
      </trkpt>
      <trkpt lat="48.59277" lon="2.26162">
        <ele>48.1</ele>
        <time>2020-07-02T09:08:50Z</time>
      </trkpt>
      <trkpt lat="48.59274" lon="2.26155">
        <ele>48.1</ele>
        <time>2020-07-02T09:08:51Z</time>
      </trkpt>
      <trkpt lat="48.59271" lon="2.26149">
        <ele>48.1</ele>
        <time>2020-07-02T09:08:52Z</time>
      </trkpt>
      <trkpt lat="48.59268" lon="2.26144">
        <ele>48.1</ele>
        <time>2020-07-02T09:08:53Z</time>
      </trkpt>
      <trkpt lat="48.59265" lon="2.2614">
        <ele>48</ele>
        <time>2020-07-02T09:08:54Z</time>
      </trkpt>
      <trkpt lat="48.59262" lon="2.26132">
        <ele>48</ele>
        <time>2020-07-02T09:08:55Z</time>
      </trkpt>
      <trkpt lat="48.59259" lon="2.26124">
        <ele>48</ele>
        <time>2020-07-02T09:08:56Z</time>
      </trkpt>
      <trkpt lat="48.59256" lon="2.26116">
        <ele>48</ele>
        <time>2020-07-02T09:08:57Z</time>
      </trkpt>
      <trkpt lat="48.59252" lon="2.26111">
        <ele>48</ele>
        <time>2020-07-02T09:08:58Z</time>
      </trkpt>
      <trkpt lat="48.5925" lon="2.26103">
        <ele>48</ele>
        <time>2020-07-02T09:08:59Z</time>
      </trkpt>
      <trkpt lat="48.59247" lon="2.26094">
        <ele>47.9</ele>
        <time>2020-07-02T09:09:00Z</time>
      </trkpt>
      <trkpt lat="48.59244" lon="2.26087">
        <ele>47.9</ele>
        <time>2020-07-02T09:09:01Z</time>
      </trkpt>
      <trkpt lat="48.5924" lon="2.26079">
        <ele>47.9</ele>
        <time>2020-07-02T09:09:02Z</time>
      </trkpt>
      <trkpt lat="48.59238" lon="2.26072">
        <ele>47.9</ele>
        <time>2020-07-02T09:09:03Z</time>
      </trkpt>
      <trkpt lat="48.59235" lon="2.26065">
        <ele>47.9</ele>
        <time>2020-07-02T09:09:04Z</time>
      </trkpt>
      <trkpt lat="48.59233" lon="2.26059">
        <ele>47.9</ele>
        <time>2020-07-02T09:09:05Z</time>
      </trkpt>
      <trkpt lat="48.59231" lon="2.26053">
        <ele>47.9</ele>
        <time>2020-07-02T09:09:06Z</time>
      </trkpt>
      <trkpt lat="48.59228" lon="2.26047">
        <ele>47.9</ele>
        <time>2020-07-02T09:09:07Z</time>
      </trkpt>
      <trkpt lat="48.59225" lon="2.26042">
        <ele>47.9</ele>
        <time>2020-07-02T09:09:08Z</time>
      </trkpt>
      <trkpt lat="48.59222" lon="2.26036">
        <ele>47.9</ele>
        <time>2020-07-02T09:09:09Z</time>
      </trkpt>
      <trkpt lat="48.59219" lon="2.26027">
        <ele>47.9</ele>
        <time>2020-07-02T09:09:10Z</time>
      </trkpt>
      <trkpt lat="48.59215" lon="2.26021">
        <ele>47.9</ele>
        <time>2020-07-02T09:09:11Z</time>
      </trkpt>
      <trkpt lat="48.59211" lon="2.26016">
        <ele>47.9</ele>
        <time>2020-07-02T09:09:12Z</time>
      </trkpt>
      <trkpt lat="48.59208" lon="2.2601">
        <ele>47.9</ele>
        <time>2020-07-02T09:09:13Z</time>
      </trkpt>
      <trkpt lat="48.59205" lon="2.26003">
        <ele>47.9</ele>
        <time>2020-07-02T09:09:14Z</time>
      </trkpt>
      <trkpt lat="48.59202" lon="2.25997">
        <ele>47.9</ele>
        <time>2020-07-02T09:09:15Z</time>
      </trkpt>
      <trkpt lat="48.59199" lon="2.2599">
        <ele>47.9</ele>
        <time>2020-07-02T09:09:16Z</time>
      </trkpt>
      <trkpt lat="48.59197" lon="2.25984">
        <ele>47.9</ele>
        <time>2020-07-02T09:09:17Z</time>
      </trkpt>
      <trkpt lat="48.59194" lon="2.25976">
        <ele>47.8</ele>
        <time>2020-07-02T09:09:18Z</time>
      </trkpt>
      <trkpt lat="48.59192" lon="2.25969">
        <ele>47.8</ele>
        <time>2020-07-02T09:09:19Z</time>
      </trkpt>
      <trkpt lat="48.5919" lon="2.25962">
        <ele>47.8</ele>
        <time>2020-07-02T09:09:20Z</time>
      </trkpt>
      <trkpt lat="48.59188" lon="2.25956">
        <ele>47.8</ele>
        <time>2020-07-02T09:09:21Z</time>
      </trkpt>
      <trkpt lat="48.59186" lon="2.25951">
        <ele>47.8</ele>
        <time>2020-07-02T09:09:22Z</time>
      </trkpt>
      <trkpt lat="48.59183" lon="2.25946">
        <ele>47.8</ele>
        <time>2020-07-02T09:09:23Z</time>
      </trkpt>
      <trkpt lat="48.59181" lon="2.25939">
        <ele>47.8</ele>
        <time>2020-07-02T09:09:24Z</time>
      </trkpt>
      <trkpt lat="48.59178" lon="2.25933">
        <ele>47.8</ele>
        <time>2020-07-02T09:09:25Z</time>
      </trkpt>
      <trkpt lat="48.59175" lon="2.25926">
        <ele>47.8</ele>
        <time>2020-07-02T09:09:26Z</time>
      </trkpt>
      <trkpt lat="48.59173" lon="2.25918">
        <ele>47.8</ele>
        <time>2020-07-02T09:09:27Z</time>
      </trkpt>
      <trkpt lat="48.59171" lon="2.25911">
        <ele>47.8</ele>
        <time>2020-07-02T09:09:28Z</time>
      </trkpt>
      <trkpt lat="48.59168" lon="2.25904">
        <ele>47.8</ele>
        <time>2020-07-02T09:09:29Z</time>
      </trkpt>
      <trkpt lat="48.59165" lon="2.25897">
        <ele>47.8</ele>
        <time>2020-07-02T09:09:30Z</time>
      </trkpt>
      <trkpt lat="48.59163" lon="2.25891">
        <ele>47.8</ele>
        <time>2020-07-02T09:09:31Z</time>
      </trkpt>
      <trkpt lat="48.5916" lon="2.25884">
        <ele>47.8</ele>
        <time>2020-07-02T09:09:32Z</time>
      </trkpt>
      <trkpt lat="48.59157" lon="2.25877">
        <ele>47.8</ele>
        <time>2020-07-02T09:09:33Z</time>
      </trkpt>
      <trkpt lat="48.59154" lon="2.25871">
        <ele>47.8</ele>
        <time>2020-07-02T09:09:34Z</time>
      </trkpt>
      <trkpt lat="48.59151" lon="2.25863">
        <ele>47.8</ele>
        <time>2020-07-02T09:09:35Z</time>
      </trkpt>
      <trkpt lat="48.59149" lon="2.25856">
        <ele>47.8</ele>
        <time>2020-07-02T09:09:36Z</time>
      </trkpt>
      <trkpt lat="48.59147" lon="2.25849">
        <ele>47.8</ele>
        <time>2020-07-02T09:09:37Z</time>
      </trkpt>
      <trkpt lat="48.59144" lon="2.25843">
        <ele>47.8</ele>
        <time>2020-07-02T09:09:38Z</time>
      </trkpt>
      <trkpt lat="48.59142" lon="2.25835">
        <ele>47.8</ele>
        <time>2020-07-02T09:09:39Z</time>
      </trkpt>
      <trkpt lat="48.59139" lon="2.25828">
        <ele>47.8</ele>
        <time>2020-07-02T09:09:40Z</time>
      </trkpt>
      <trkpt lat="48.59136" lon="2.25822">
        <ele>47.8</ele>
        <time>2020-07-02T09:09:41Z</time>
      </trkpt>
      <trkpt lat="48.59134" lon="2.25815">
        <ele>47.8</ele>
        <time>2020-07-02T09:09:42Z</time>
      </trkpt>
      <trkpt lat="48.59131" lon="2.25809">
        <ele>47.9</ele>
        <time>2020-07-02T09:09:43Z</time>
      </trkpt>
      <trkpt lat="48.59128" lon="2.25802">
        <ele>47.9</ele>
        <time>2020-07-02T09:09:44Z</time>
      </trkpt>
      <trkpt lat="48.59126" lon="2.25796">
        <ele>47.9</ele>
        <time>2020-07-02T09:09:45Z</time>
      </trkpt>
      <trkpt lat="48.59123" lon="2.2579">
        <ele>47.9</ele>
        <time>2020-07-02T09:09:46Z</time>
      </trkpt>
      <trkpt lat="48.59121" lon="2.25784">
        <ele>47.9</ele>
        <time>2020-07-02T09:09:47Z</time>
      </trkpt>
      <trkpt lat="48.59119" lon="2.25778">
        <ele>47.9</ele>
        <time>2020-07-02T09:09:48Z</time>
      </trkpt>
      <trkpt lat="48.59117" lon="2.25772">
        <ele>47.9</ele>
        <time>2020-07-02T09:09:49Z</time>
      </trkpt>
      <trkpt lat="48.59116" lon="2.25765">
        <ele>47.9</ele>
        <time>2020-07-02T09:09:50Z</time>
      </trkpt>
      <trkpt lat="48.59113" lon="2.2576">
        <ele>47.9</ele>
        <time>2020-07-02T09:09:51Z</time>
      </trkpt>
      <trkpt lat="48.59111" lon="2.25752">
        <ele>47.9</ele>
        <time>2020-07-02T09:09:52Z</time>
      </trkpt>
      <trkpt lat="48.59108" lon="2.25745">
        <ele>47.9</ele>
        <time>2020-07-02T09:09:53Z</time>
      </trkpt>
      <trkpt lat="48.59106" lon="2.25738">
        <ele>47.9</ele>
        <time>2020-07-02T09:09:54Z</time>
      </trkpt>
      <trkpt lat="48.59105" lon="2.25731">
        <ele>47.9</ele>
        <time>2020-07-02T09:09:55Z</time>
      </trkpt>
      <trkpt lat="48.59104" lon="2.25725">
        <ele>47.9</ele>
        <time>2020-07-02T09:09:56Z</time>
      </trkpt>
      <trkpt lat="48.59102" lon="2.25719">
        <ele>47.9</ele>
        <time>2020-07-02T09:09:57Z</time>
      </trkpt>
      <trkpt lat="48.591" lon="2.25711">
        <ele>47.9</ele>
        <time>2020-07-02T09:09:58Z</time>
      </trkpt>
      <trkpt lat="48.59098" lon="2.25704">
        <ele>48</ele>
        <time>2020-07-02T09:09:59Z</time>
      </trkpt>
      <trkpt lat="48.59097" lon="2.25694">
        <ele>48</ele>
        <time>2020-07-02T09:10:00Z</time>
      </trkpt>
      <trkpt lat="48.59096" lon="2.25688">
        <ele>48.1</ele>
        <time>2020-07-02T09:10:01Z</time>
      </trkpt>
      <trkpt lat="48.59094" lon="2.2568">
        <ele>48.1</ele>
        <time>2020-07-02T09:10:02Z</time>
      </trkpt>
      <trkpt lat="48.59093" lon="2.25673">
        <ele>48.1</ele>
        <time>2020-07-02T09:10:03Z</time>
      </trkpt>
      <trkpt lat="48.59092" lon="2.25666">
        <ele>48.1</ele>
        <time>2020-07-02T09:10:04Z</time>
      </trkpt>
      <trkpt lat="48.5909" lon="2.2566">
        <ele>48.1</ele>
        <time>2020-07-02T09:10:05Z</time>
      </trkpt>
      <trkpt lat="48.59088" lon="2.25653">
        <ele>48.2</ele>
        <time>2020-07-02T09:10:06Z</time>
      </trkpt>
      <trkpt lat="48.59086" lon="2.25645">
        <ele>48.2</ele>
        <time>2020-07-02T09:10:07Z</time>
      </trkpt>
      <trkpt lat="48.59084" lon="2.25637">
        <ele>48.2</ele>
        <time>2020-07-02T09:10:08Z</time>
      </trkpt>
      <trkpt lat="48.59082" lon="2.2563">
        <ele>48.3</ele>
        <time>2020-07-02T09:10:09Z</time>
      </trkpt>
      <trkpt lat="48.5908" lon="2.25622">
        <ele>48.3</ele>
        <time>2020-07-02T09:10:10Z</time>
      </trkpt>
      <trkpt lat="48.59079" lon="2.25615">
        <ele>48.4</ele>
        <time>2020-07-02T09:10:11Z</time>
      </trkpt>
      <trkpt lat="48.59078" lon="2.25609">
        <ele>48.4</ele>
        <time>2020-07-02T09:10:12Z</time>
      </trkpt>
      <trkpt lat="48.59076" lon="2.25601">
        <ele>48.5</ele>
        <time>2020-07-02T09:10:13Z</time>
      </trkpt>
      <trkpt lat="48.59073" lon="2.25594">
        <ele>48.5</ele>
        <time>2020-07-02T09:10:14Z</time>
      </trkpt>
      <trkpt lat="48.59069" lon="2.25586">
        <ele>48.6</ele>
        <time>2020-07-02T09:10:15Z</time>
      </trkpt>
      <trkpt lat="48.59066" lon="2.25579">
        <ele>48.6</ele>
        <time>2020-07-02T09:10:16Z</time>
      </trkpt>
      <trkpt lat="48.59063" lon="2.25573">
        <ele>48.7</ele>
        <time>2020-07-02T09:10:17Z</time>
      </trkpt>
      <trkpt lat="48.5906" lon="2.25565">
        <ele>48.7</ele>
        <time>2020-07-02T09:10:18Z</time>
      </trkpt>
      <trkpt lat="48.59057" lon="2.25558">
        <ele>48.8</ele>
        <time>2020-07-02T09:10:19Z</time>
      </trkpt>
      <trkpt lat="48.59054" lon="2.2555">
        <ele>48.9</ele>
        <time>2020-07-02T09:10:20Z</time>
      </trkpt>
      <trkpt lat="48.59052" lon="2.25542">
        <ele>49</ele>
        <time>2020-07-02T09:10:21Z</time>
      </trkpt>
      <trkpt lat="48.5905" lon="2.25534">
        <ele>49.1</ele>
        <time>2020-07-02T09:10:22Z</time>
      </trkpt>
      <trkpt lat="48.59047" lon="2.25526">
        <ele>49.1</ele>
        <time>2020-07-02T09:10:23Z</time>
      </trkpt>
      <trkpt lat="48.59044" lon="2.25517">
        <ele>49.2</ele>
        <time>2020-07-02T09:10:24Z</time>
      </trkpt>
      <trkpt lat="48.59042" lon="2.25511">
        <ele>49.2</ele>
        <time>2020-07-02T09:10:25Z</time>
      </trkpt>
      <trkpt lat="48.59039" lon="2.25504">
        <ele>49.3</ele>
        <time>2020-07-02T09:10:26Z</time>
      </trkpt>
      <trkpt lat="48.59037" lon="2.25496">
        <ele>49.3</ele>
        <time>2020-07-02T09:10:27Z</time>
      </trkpt>
      <trkpt lat="48.59034" lon="2.25488">
        <ele>49.4</ele>
        <time>2020-07-02T09:10:28Z</time>
      </trkpt>
      <trkpt lat="48.59032" lon="2.25482">
        <ele>49.5</ele>
        <time>2020-07-02T09:10:29Z</time>
      </trkpt>
      <trkpt lat="48.5903" lon="2.25474">
        <ele>49.6</ele>
        <time>2020-07-02T09:10:30Z</time>
      </trkpt>
      <trkpt lat="48.59028" lon="2.25467">
        <ele>49.6</ele>
        <time>2020-07-02T09:10:31Z</time>
      </trkpt>
      <trkpt lat="48.59026" lon="2.25461">
        <ele>49.7</ele>
        <time>2020-07-02T09:10:32Z</time>
      </trkpt>
      <trkpt lat="48.59024" lon="2.25455">
        <ele>49.7</ele>
        <time>2020-07-02T09:10:33Z</time>
      </trkpt>
      <trkpt lat="48.59021" lon="2.2545">
        <ele>49.8</ele>
        <time>2020-07-02T09:10:34Z</time>
      </trkpt>
      <trkpt lat="48.59019" lon="2.25446">
        <ele>49.8</ele>
        <time>2020-07-02T09:10:35Z</time>
      </trkpt>
      <trkpt lat="48.59018" lon="2.25441">
        <ele>49.8</ele>
        <time>2020-07-02T09:10:36Z</time>
      </trkpt>
      <trkpt lat="48.59016" lon="2.25436">
        <ele>49.8</ele>
        <time>2020-07-02T09:10:37Z</time>
      </trkpt>
      <trkpt lat="48.59015" lon="2.25433">
        <ele>49.8</ele>
        <time>2020-07-02T09:10:38Z</time>
      </trkpt>
      <trkpt lat="48.59013" lon="2.25429">
        <ele>49.8</ele>
        <time>2020-07-02T09:10:39Z</time>
      </trkpt>
      <trkpt lat="48.59012" lon="2.25424">
        <ele>49.8</ele>
        <time>2020-07-02T09:10:40Z</time>
      </trkpt>
      <trkpt lat="48.5901" lon="2.25418">
        <ele>49.9</ele>
        <time>2020-07-02T09:10:41Z</time>
      </trkpt>
      <trkpt lat="48.5901" lon="2.25417">
        <ele>49.9</ele>
        <time>2020-07-02T09:10:42Z</time>
      </trkpt>
      <trkpt lat="48.59008" lon="2.25412">
        <ele>49.9</ele>
        <time>2020-07-02T09:10:43Z</time>
      </trkpt>
      <trkpt lat="48.59007" lon="2.25406">
        <ele>50</ele>
        <time>2020-07-02T09:10:44Z</time>
      </trkpt>
      <trkpt lat="48.59005" lon="2.254">
        <ele>50</ele>
        <time>2020-07-02T09:10:45Z</time>
      </trkpt>
      <trkpt lat="48.59003" lon="2.25393">
        <ele>50.1</ele>
        <time>2020-07-02T09:10:46Z</time>
      </trkpt>
      <trkpt lat="48.59002" lon="2.25387">
        <ele>50.1</ele>
        <time>2020-07-02T09:10:47Z</time>
      </trkpt>
      <trkpt lat="48.58999" lon="2.25381">
        <ele>50.2</ele>
        <time>2020-07-02T09:10:48Z</time>
      </trkpt>
      <trkpt lat="48.58997" lon="2.25375">
        <ele>50.2</ele>
        <time>2020-07-02T09:10:49Z</time>
      </trkpt>
      <trkpt lat="48.58995" lon="2.25369">
        <ele>50.2</ele>
        <time>2020-07-02T09:10:50Z</time>
      </trkpt>
      <trkpt lat="48.58993" lon="2.25363">
        <ele>50.3</ele>
        <time>2020-07-02T09:10:51Z</time>
      </trkpt>
      <trkpt lat="48.58991" lon="2.25356">
        <ele>50.3</ele>
        <time>2020-07-02T09:10:52Z</time>
      </trkpt>
      <trkpt lat="48.5899" lon="2.25349">
        <ele>50.4</ele>
        <time>2020-07-02T09:10:53Z</time>
      </trkpt>
      <trkpt lat="48.58988" lon="2.25344">
        <ele>50.5</ele>
        <time>2020-07-02T09:10:54Z</time>
      </trkpt>
      <trkpt lat="48.58986" lon="2.25339">
        <ele>50.6</ele>
        <time>2020-07-02T09:10:55Z</time>
      </trkpt>
      <trkpt lat="48.58984" lon="2.25334">
        <ele>50.6</ele>
        <time>2020-07-02T09:10:56Z</time>
      </trkpt>
      <trkpt lat="48.58982" lon="2.25329">
        <ele>50.7</ele>
        <time>2020-07-02T09:10:57Z</time>
      </trkpt>
      <trkpt lat="48.5898" lon="2.25324">
        <ele>50.8</ele>
        <time>2020-07-02T09:10:58Z</time>
      </trkpt>
      <trkpt lat="48.58978" lon="2.25319">
        <ele>50.9</ele>
        <time>2020-07-02T09:10:59Z</time>
      </trkpt>
      <trkpt lat="48.58976" lon="2.25313">
        <ele>50.9</ele>
        <time>2020-07-02T09:11:00Z</time>
      </trkpt>
      <trkpt lat="48.58974" lon="2.25307">
        <ele>51</ele>
        <time>2020-07-02T09:11:01Z</time>
      </trkpt>
      <trkpt lat="48.58972" lon="2.253">
        <ele>51.1</ele>
        <time>2020-07-02T09:11:02Z</time>
      </trkpt>
      <trkpt lat="48.5897" lon="2.25295">
        <ele>51.2</ele>
        <time>2020-07-02T09:11:03Z</time>
      </trkpt>
      <trkpt lat="48.58969" lon="2.2529">
        <ele>51.3</ele>
        <time>2020-07-02T09:11:04Z</time>
      </trkpt>
      <trkpt lat="48.58967" lon="2.25288">
        <ele>51.3</ele>
        <time>2020-07-02T09:11:05Z</time>
      </trkpt>
      <trkpt lat="48.58966" lon="2.25282">
        <ele>51.4</ele>
        <time>2020-07-02T09:11:06Z</time>
      </trkpt>
      <trkpt lat="48.58965" lon="2.2528">
        <ele>51.4</ele>
        <time>2020-07-02T09:11:07Z</time>
      </trkpt>
      <trkpt lat="48.58966" lon="2.25276">
        <ele>51.4</ele>
        <time>2020-07-02T09:11:08Z</time>
      </trkpt>
      <trkpt lat="48.58966" lon="2.25271">
        <ele>51.5</ele>
        <time>2020-07-02T09:11:09Z</time>
      </trkpt>
      <trkpt lat="48.58966" lon="2.25269">
        <ele>51.5</ele>
        <time>2020-07-02T09:11:10Z</time>
      </trkpt>
      <trkpt lat="48.58963" lon="2.25267">
        <ele>51.7</ele>
        <time>2020-07-02T09:11:11Z</time>
      </trkpt>
      <trkpt lat="48.58962" lon="2.25266">
        <ele>51.7</ele>
        <time>2020-07-02T09:11:12Z</time>
      </trkpt>
      <trkpt lat="48.58959" lon="2.25265">
        <ele>51.8</ele>
        <time>2020-07-02T09:11:13Z</time>
      </trkpt>
      <trkpt lat="48.58955" lon="2.25264">
        <ele>52</ele>
        <time>2020-07-02T09:11:14Z</time>
      </trkpt>
      <trkpt lat="48.58954" lon="2.25264">
        <ele>52</ele>
        <time>2020-07-02T09:11:15Z</time>
      </trkpt>
      <trkpt lat="48.58951" lon="2.25264">
        <ele>52.1</ele>
        <time>2020-07-02T09:11:16Z</time>
      </trkpt>
      <trkpt lat="48.5895" lon="2.25264">
        <ele>52.2</ele>
        <time>2020-07-02T09:11:17Z</time>
      </trkpt>
      <trkpt lat="48.58947" lon="2.25261">
        <ele>52.3</ele>
        <time>2020-07-02T09:11:18Z</time>
      </trkpt>
      <trkpt lat="48.58945" lon="2.2526">
        <ele>52.3</ele>
        <time>2020-07-02T09:11:19Z</time>
      </trkpt>
      <trkpt lat="48.58943" lon="2.25257">
        <ele>52.5</ele>
        <time>2020-07-02T09:11:20Z</time>
      </trkpt>
      <trkpt lat="48.58941" lon="2.25255">
        <ele>52.6</ele>
        <time>2020-07-02T09:11:21Z</time>
      </trkpt>
      <trkpt lat="48.58937" lon="2.25253">
        <ele>52.7</ele>
        <time>2020-07-02T09:11:22Z</time>
      </trkpt>
      <trkpt lat="48.58933" lon="2.25253">
        <ele>52.9</ele>
        <time>2020-07-02T09:11:23Z</time>
      </trkpt>
      <trkpt lat="48.58929" lon="2.25251">
        <ele>53</ele>
        <time>2020-07-02T09:11:24Z</time>
      </trkpt>
      <trkpt lat="48.58926" lon="2.25249">
        <ele>53.2</ele>
        <time>2020-07-02T09:11:25Z</time>
      </trkpt>
      <trkpt lat="48.58922" lon="2.25249">
        <ele>53.3</ele>
        <time>2020-07-02T09:11:26Z</time>
      </trkpt>
      <trkpt lat="48.5892" lon="2.25246">
        <ele>53.4</ele>
        <time>2020-07-02T09:11:27Z</time>
      </trkpt>
      <trkpt lat="48.58917" lon="2.25242">
        <ele>53.6</ele>
        <time>2020-07-02T09:11:28Z</time>
      </trkpt>
      <trkpt lat="48.58913" lon="2.25238">
        <ele>53.7</ele>
        <time>2020-07-02T09:11:29Z</time>
      </trkpt>
      <trkpt lat="48.5891" lon="2.25233">
        <ele>53.8</ele>
        <time>2020-07-02T09:11:30Z</time>
      </trkpt>
      <trkpt lat="48.58907" lon="2.25228">
        <ele>53.9</ele>
        <time>2020-07-02T09:11:31Z</time>
      </trkpt>
      <trkpt lat="48.58904" lon="2.25226">
        <ele>54</ele>
        <time>2020-07-02T09:11:32Z</time>
      </trkpt>
      <trkpt lat="48.589" lon="2.25222">
        <ele>54.2</ele>
        <time>2020-07-02T09:11:33Z</time>
      </trkpt>
      <trkpt lat="48.58896" lon="2.2522">
        <ele>54.3</ele>
        <time>2020-07-02T09:11:34Z</time>
      </trkpt>
      <trkpt lat="48.58893" lon="2.25216">
        <ele>54.5</ele>
        <time>2020-07-02T09:11:35Z</time>
      </trkpt>
      <trkpt lat="48.58889" lon="2.25214">
        <ele>54.6</ele>
        <time>2020-07-02T09:11:36Z</time>
      </trkpt>
      <trkpt lat="48.58886" lon="2.25211">
        <ele>54.7</ele>
        <time>2020-07-02T09:11:37Z</time>
      </trkpt>
      <trkpt lat="48.58882" lon="2.2521">
        <ele>54.9</ele>
        <time>2020-07-02T09:11:38Z</time>
      </trkpt>
      <trkpt lat="48.58879" lon="2.25208">
        <ele>55</ele>
        <time>2020-07-02T09:11:39Z</time>
      </trkpt>
      <trkpt lat="48.58875" lon="2.25207">
        <ele>55.2</ele>
        <time>2020-07-02T09:11:40Z</time>
      </trkpt>
      <trkpt lat="48.58872" lon="2.25206">
        <ele>55.3</ele>
        <time>2020-07-02T09:11:41Z</time>
      </trkpt>
      <trkpt lat="48.58867" lon="2.25204">
        <ele>55.5</ele>
        <time>2020-07-02T09:11:42Z</time>
      </trkpt>
      <trkpt lat="48.58864" lon="2.25202">
        <ele>55.6</ele>
        <time>2020-07-02T09:11:43Z</time>
      </trkpt>
      <trkpt lat="48.58861" lon="2.25202">
        <ele>55.7</ele>
        <time>2020-07-02T09:11:44Z</time>
      </trkpt>
      <trkpt lat="48.58857" lon="2.25201">
        <ele>55.9</ele>
        <time>2020-07-02T09:11:45Z</time>
      </trkpt>
      <trkpt lat="48.58853" lon="2.252">
        <ele>56</ele>
        <time>2020-07-02T09:11:46Z</time>
      </trkpt>
      <trkpt lat="48.58849" lon="2.25201">
        <ele>56.1</ele>
        <time>2020-07-02T09:11:47Z</time>
      </trkpt>
      <trkpt lat="48.58844" lon="2.252">
        <ele>56.3</ele>
        <time>2020-07-02T09:11:48Z</time>
      </trkpt>
      <trkpt lat="48.58841" lon="2.25198">
        <ele>56.4</ele>
        <time>2020-07-02T09:11:49Z</time>
      </trkpt>
      <trkpt lat="48.58836" lon="2.25197">
        <ele>56.5</ele>
        <time>2020-07-02T09:11:50Z</time>
      </trkpt>
      <trkpt lat="48.58832" lon="2.25196">
        <ele>56.6</ele>
        <time>2020-07-02T09:11:51Z</time>
      </trkpt>
      <trkpt lat="48.58827" lon="2.25195">
        <ele>56.7</ele>
        <time>2020-07-02T09:11:52Z</time>
      </trkpt>
      <trkpt lat="48.58823" lon="2.25193">
        <ele>56.9</ele>
        <time>2020-07-02T09:11:53Z</time>
      </trkpt>
      <trkpt lat="48.58819" lon="2.25189">
        <ele>57</ele>
        <time>2020-07-02T09:11:54Z</time>
      </trkpt>
      <trkpt lat="48.58815" lon="2.25188">
        <ele>57</ele>
        <time>2020-07-02T09:11:55Z</time>
      </trkpt>
      <trkpt lat="48.58812" lon="2.25186">
        <ele>57.1</ele>
        <time>2020-07-02T09:11:56Z</time>
      </trkpt>
      <trkpt lat="48.58808" lon="2.25184">
        <ele>57.2</ele>
        <time>2020-07-02T09:11:57Z</time>
      </trkpt>
      <trkpt lat="48.58803" lon="2.25183">
        <ele>57.3</ele>
        <time>2020-07-02T09:11:58Z</time>
      </trkpt>
      <trkpt lat="48.58798" lon="2.25181">
        <ele>57.4</ele>
        <time>2020-07-02T09:11:59Z</time>
      </trkpt>
      <trkpt lat="48.58795" lon="2.2518">
        <ele>57.4</ele>
        <time>2020-07-02T09:12:00Z</time>
      </trkpt>
      <trkpt lat="48.58791" lon="2.2518">
        <ele>57.5</ele>
        <time>2020-07-02T09:12:01Z</time>
      </trkpt>
      <trkpt lat="48.58786" lon="2.25178">
        <ele>57.6</ele>
        <time>2020-07-02T09:12:02Z</time>
      </trkpt>
      <trkpt lat="48.58781" lon="2.25176">
        <ele>57.7</ele>
        <time>2020-07-02T09:12:03Z</time>
      </trkpt>
      <trkpt lat="48.58777" lon="2.25173">
        <ele>57.8</ele>
        <time>2020-07-02T09:12:04Z</time>
      </trkpt>
      <trkpt lat="48.58773" lon="2.2517">
        <ele>57.8</ele>
        <time>2020-07-02T09:12:05Z</time>
      </trkpt>
      <trkpt lat="48.58769" lon="2.25168">
        <ele>57.9</ele>
        <time>2020-07-02T09:12:06Z</time>
      </trkpt>
      <trkpt lat="48.58766" lon="2.25163">
        <ele>58</ele>
        <time>2020-07-02T09:12:07Z</time>
      </trkpt>
      <trkpt lat="48.58762" lon="2.2516">
        <ele>58.1</ele>
        <time>2020-07-02T09:12:08Z</time>
      </trkpt>
      <trkpt lat="48.5876" lon="2.25157">
        <ele>58.2</ele>
        <time>2020-07-02T09:12:09Z</time>
      </trkpt>
      <trkpt lat="48.58758" lon="2.25153">
        <ele>58.3</ele>
        <time>2020-07-02T09:12:10Z</time>
      </trkpt>
      <trkpt lat="48.58757" lon="2.25153">
        <ele>58.3</ele>
        <time>2020-07-02T09:12:11Z</time>
      </trkpt>
      <trkpt lat="48.58756" lon="2.25152">
        <ele>58.3</ele>
        <time>2020-07-02T09:12:12Z</time>
      </trkpt>
      <trkpt lat="48.58756" lon="2.25153">
        <ele>58.3</ele>
        <time>2020-07-02T09:12:13Z</time>
      </trkpt>
      <trkpt lat="48.58757" lon="2.25153">
        <ele>58.3</ele>
        <time>2020-07-02T09:12:14Z</time>
      </trkpt>
      <trkpt lat="48.58755" lon="2.25154">
        <ele>58.4</ele>
        <time>2020-07-02T09:12:15Z</time>
      </trkpt>
      <trkpt lat="48.58754" lon="2.25154">
        <ele>58.4</ele>
        <time>2020-07-02T09:12:16Z</time>
      </trkpt>
      <trkpt lat="48.58752" lon="2.25157">
        <ele>58.4</ele>
        <time>2020-07-02T09:12:17Z</time>
      </trkpt>
      <trkpt lat="48.58749" lon="2.2516">
        <ele>58.5</ele>
        <time>2020-07-02T09:12:18Z</time>
      </trkpt>
      <trkpt lat="48.58747" lon="2.25162">
        <ele>58.6</ele>
        <time>2020-07-02T09:12:19Z</time>
      </trkpt>
      <trkpt lat="48.58744" lon="2.25165">
        <ele>58.6</ele>
        <time>2020-07-02T09:12:20Z</time>
      </trkpt>
      <trkpt lat="48.58741" lon="2.25169">
        <ele>58.7</ele>
        <time>2020-07-02T09:12:21Z</time>
      </trkpt>
      <trkpt lat="48.58739" lon="2.25172">
        <ele>58.8</ele>
        <time>2020-07-02T09:12:22Z</time>
      </trkpt>
      <trkpt lat="48.58735" lon="2.25175">
        <ele>59</ele>
        <time>2020-07-02T09:12:23Z</time>
      </trkpt>
      <trkpt lat="48.58731" lon="2.25178">
        <ele>59.2</ele>
        <time>2020-07-02T09:12:24Z</time>
      </trkpt>
      <trkpt lat="48.58726" lon="2.25182">
        <ele>59.5</ele>
        <time>2020-07-02T09:12:25Z</time>
      </trkpt>
      <trkpt lat="48.58722" lon="2.25187">
        <ele>59.8</ele>
        <time>2020-07-02T09:12:26Z</time>
      </trkpt>
      <trkpt lat="48.58719" lon="2.25192">
        <ele>60</ele>
        <time>2020-07-02T09:12:27Z</time>
      </trkpt>
      <trkpt lat="48.58715" lon="2.25197">
        <ele>60.3</ele>
        <time>2020-07-02T09:12:28Z</time>
      </trkpt>
      <trkpt lat="48.58711" lon="2.25202">
        <ele>60.7</ele>
        <time>2020-07-02T09:12:29Z</time>
      </trkpt>
      <trkpt lat="48.58707" lon="2.25206">
        <ele>61.1</ele>
        <time>2020-07-02T09:12:30Z</time>
      </trkpt>
      <trkpt lat="48.58703" lon="2.2521">
        <ele>61.5</ele>
        <time>2020-07-02T09:12:31Z</time>
      </trkpt>
      <trkpt lat="48.58699" lon="2.25215">
        <ele>61.8</ele>
        <time>2020-07-02T09:12:32Z</time>
      </trkpt>
      <trkpt lat="48.58696" lon="2.25218">
        <ele>62.1</ele>
        <time>2020-07-02T09:12:33Z</time>
      </trkpt>
      <trkpt lat="48.58692" lon="2.25221">
        <ele>62.5</ele>
        <time>2020-07-02T09:12:34Z</time>
      </trkpt>
      <trkpt lat="48.58689" lon="2.25223">
        <ele>62.8</ele>
        <time>2020-07-02T09:12:35Z</time>
      </trkpt>
      <trkpt lat="48.58685" lon="2.25225">
        <ele>63.2</ele>
        <time>2020-07-02T09:12:36Z</time>
      </trkpt>
      <trkpt lat="48.58682" lon="2.25229">
        <ele>63.5</ele>
        <time>2020-07-02T09:12:37Z</time>
      </trkpt>
      <trkpt lat="48.58678" lon="2.25232">
        <ele>63.8</ele>
        <time>2020-07-02T09:12:38Z</time>
      </trkpt>
      <trkpt lat="48.58676" lon="2.25235">
        <ele>64.1</ele>
        <time>2020-07-02T09:12:39Z</time>
      </trkpt>
      <trkpt lat="48.58674" lon="2.25239">
        <ele>64.3</ele>
        <time>2020-07-02T09:12:40Z</time>
      </trkpt>
      <trkpt lat="48.58672" lon="2.25243">
        <ele>64.6</ele>
        <time>2020-07-02T09:12:41Z</time>
      </trkpt>
      <trkpt lat="48.58669" lon="2.25246">
        <ele>64.9</ele>
        <time>2020-07-02T09:12:42Z</time>
      </trkpt>
      <trkpt lat="48.58668" lon="2.25246">
        <ele>64.9</ele>
        <time>2020-07-02T09:12:43Z</time>
      </trkpt>
      <trkpt lat="48.58665" lon="2.2525">
        <ele>65.2</ele>
        <time>2020-07-02T09:12:44Z</time>
      </trkpt>
      <trkpt lat="48.58663" lon="2.25255">
        <ele>65.6</ele>
        <time>2020-07-02T09:12:45Z</time>
      </trkpt>
      <trkpt lat="48.58659" lon="2.25258">
        <ele>65.9</ele>
        <time>2020-07-02T09:12:46Z</time>
      </trkpt>
      <trkpt lat="48.58655" lon="2.25259">
        <ele>66.2</ele>
        <time>2020-07-02T09:12:47Z</time>
      </trkpt>
      <trkpt lat="48.58651" lon="2.2526">
        <ele>66.4</ele>
        <time>2020-07-02T09:12:48Z</time>
      </trkpt>
      <trkpt lat="48.58648" lon="2.25263">
        <ele>66.6</ele>
        <time>2020-07-02T09:12:49Z</time>
      </trkpt>
      <trkpt lat="48.58645" lon="2.25266">
        <ele>66.7</ele>
        <time>2020-07-02T09:12:50Z</time>
      </trkpt>
      <trkpt lat="48.58642" lon="2.25268">
        <ele>66.9</ele>
        <time>2020-07-02T09:12:51Z</time>
      </trkpt>
      <trkpt lat="48.58639" lon="2.2527">
        <ele>67</ele>
        <time>2020-07-02T09:12:52Z</time>
      </trkpt>
      <trkpt lat="48.58638" lon="2.2527">
        <ele>67</ele>
        <time>2020-07-02T09:12:53Z</time>
      </trkpt>
      <trkpt lat="48.58635" lon="2.25274">
        <ele>67.2</ele>
        <time>2020-07-02T09:12:54Z</time>
      </trkpt>
      <trkpt lat="48.58634" lon="2.25275">
        <ele>67.2</ele>
        <time>2020-07-02T09:12:55Z</time>
      </trkpt>
      <trkpt lat="48.58631" lon="2.25277">
        <ele>67.3</ele>
        <time>2020-07-02T09:12:56Z</time>
      </trkpt>
      <trkpt lat="48.58629" lon="2.25278">
        <ele>67.5</ele>
        <time>2020-07-02T09:12:57Z</time>
      </trkpt>
      <trkpt lat="48.58626" lon="2.25281">
        <ele>67.8</ele>
        <time>2020-07-02T09:12:58Z</time>
      </trkpt>
      <trkpt lat="48.58623" lon="2.25284">
        <ele>68.1</ele>
        <time>2020-07-02T09:12:59Z</time>
      </trkpt>
      <trkpt lat="48.58621" lon="2.25287">
        <ele>68.3</ele>
        <time>2020-07-02T09:13:00Z</time>
      </trkpt>
      <trkpt lat="48.58618" lon="2.2529">
        <ele>68.6</ele>
        <time>2020-07-02T09:13:01Z</time>
      </trkpt>
      <trkpt lat="48.58617" lon="2.2529">
        <ele>68.7</ele>
        <time>2020-07-02T09:13:02Z</time>
      </trkpt>
      <trkpt lat="48.58614" lon="2.25292">
        <ele>68.9</ele>
        <time>2020-07-02T09:13:03Z</time>
      </trkpt>
      <trkpt lat="48.58612" lon="2.25294">
        <ele>69.2</ele>
        <time>2020-07-02T09:13:04Z</time>
      </trkpt>
      <trkpt lat="48.58609" lon="2.25296">
        <ele>69.4</ele>
        <time>2020-07-02T09:13:05Z</time>
      </trkpt>
      <trkpt lat="48.58606" lon="2.25298">
        <ele>69.6</ele>
        <time>2020-07-02T09:13:06Z</time>
      </trkpt>
      <trkpt lat="48.58603" lon="2.253">
        <ele>69.9</ele>
        <time>2020-07-02T09:13:07Z</time>
      </trkpt>
      <trkpt lat="48.58602" lon="2.25305">
        <ele>70.1</ele>
        <time>2020-07-02T09:13:08Z</time>
      </trkpt>
      <trkpt lat="48.58599" lon="2.25308">
        <ele>70.4</ele>
        <time>2020-07-02T09:13:09Z</time>
      </trkpt>
      <trkpt lat="48.58596" lon="2.25311">
        <ele>70.7</ele>
        <time>2020-07-02T09:13:10Z</time>
      </trkpt>
      <trkpt lat="48.58594" lon="2.25313">
        <ele>70.9</ele>
        <time>2020-07-02T09:13:11Z</time>
      </trkpt>
      <trkpt lat="48.58591" lon="2.25313">
        <ele>71.1</ele>
        <time>2020-07-02T09:13:12Z</time>
      </trkpt>
      <trkpt lat="48.58588" lon="2.25316">
        <ele>71.7</ele>
        <time>2020-07-02T09:13:13Z</time>
      </trkpt>
      <trkpt lat="48.58587" lon="2.25317">
        <ele>71.8</ele>
        <time>2020-07-02T09:13:14Z</time>
      </trkpt>
      <trkpt lat="48.58583" lon="2.2532">
        <ele>71.8</ele>
        <time>2020-07-02T09:13:15Z</time>
      </trkpt>
      <trkpt lat="48.58582" lon="2.25321">
        <ele>71.9</ele>
        <time>2020-07-02T09:13:16Z</time>
      </trkpt>
      <trkpt lat="48.5858" lon="2.25323">
        <ele>71.9</ele>
        <time>2020-07-02T09:13:17Z</time>
      </trkpt>
      <trkpt lat="48.58577" lon="2.25325">
        <ele>72.1</ele>
        <time>2020-07-02T09:13:18Z</time>
      </trkpt>
      <trkpt lat="48.58573" lon="2.25328">
        <ele>72.4</ele>
        <time>2020-07-02T09:13:19Z</time>
      </trkpt>
      <trkpt lat="48.58572" lon="2.25329">
        <ele>72.6</ele>
        <time>2020-07-02T09:13:20Z</time>
      </trkpt>
      <trkpt lat="48.58569" lon="2.25333">
        <ele>72.8</ele>
        <time>2020-07-02T09:13:21Z</time>
      </trkpt>
      <trkpt lat="48.58566" lon="2.25336">
        <ele>73.1</ele>
        <time>2020-07-02T09:13:22Z</time>
      </trkpt>
      <trkpt lat="48.58563" lon="2.2534">
        <ele>73.4</ele>
        <time>2020-07-02T09:13:23Z</time>
      </trkpt>
      <trkpt lat="48.58562" lon="2.25341">
        <ele>73.5</ele>
        <time>2020-07-02T09:13:24Z</time>
      </trkpt>
      <trkpt lat="48.5856" lon="2.25344">
        <ele>73.7</ele>
        <time>2020-07-02T09:13:25Z</time>
      </trkpt>
      <trkpt lat="48.58559" lon="2.25345">
        <ele>73.8</ele>
        <time>2020-07-02T09:13:26Z</time>
      </trkpt>
      <trkpt lat="48.58555" lon="2.25348">
        <ele>74.1</ele>
        <time>2020-07-02T09:13:27Z</time>
      </trkpt>
      <trkpt lat="48.58554" lon="2.25349">
        <ele>74.2</ele>
        <time>2020-07-02T09:13:28Z</time>
      </trkpt>
      <trkpt lat="48.5855" lon="2.25351">
        <ele>74.5</ele>
        <time>2020-07-02T09:13:29Z</time>
      </trkpt>
      <trkpt lat="48.58549" lon="2.25352">
        <ele>74.6</ele>
        <time>2020-07-02T09:13:30Z</time>
      </trkpt>
      <trkpt lat="48.58546" lon="2.25354">
        <ele>74.8</ele>
        <time>2020-07-02T09:13:31Z</time>
      </trkpt>
      <trkpt lat="48.58543" lon="2.25357">
        <ele>75</ele>
        <time>2020-07-02T09:13:32Z</time>
      </trkpt>
      <trkpt lat="48.58541" lon="2.25359">
        <ele>75.2</ele>
        <time>2020-07-02T09:13:33Z</time>
      </trkpt>
      <trkpt lat="48.58539" lon="2.25361">
        <ele>75.4</ele>
        <time>2020-07-02T09:13:34Z</time>
      </trkpt>
      <trkpt lat="48.58535" lon="2.25364">
        <ele>75.7</ele>
        <time>2020-07-02T09:13:35Z</time>
      </trkpt>
      <trkpt lat="48.58534" lon="2.25365">
        <ele>75.8</ele>
        <time>2020-07-02T09:13:36Z</time>
      </trkpt>
      <trkpt lat="48.58531" lon="2.25368">
        <ele>76.1</ele>
        <time>2020-07-02T09:13:37Z</time>
      </trkpt>
      <trkpt lat="48.58529" lon="2.25369">
        <ele>76.2</ele>
        <time>2020-07-02T09:13:38Z</time>
      </trkpt>
      <trkpt lat="48.58526" lon="2.25371">
        <ele>76.4</ele>
        <time>2020-07-02T09:13:39Z</time>
      </trkpt>
      <trkpt lat="48.58524" lon="2.25374">
        <ele>76.6</ele>
        <time>2020-07-02T09:13:40Z</time>
      </trkpt>
      <trkpt lat="48.58522" lon="2.25377">
        <ele>76.8</ele>
        <time>2020-07-02T09:13:41Z</time>
      </trkpt>
      <trkpt lat="48.58519" lon="2.2538">
        <ele>77</ele>
        <time>2020-07-02T09:13:42Z</time>
      </trkpt>
      <trkpt lat="48.58517" lon="2.25382">
        <ele>77.2</ele>
        <time>2020-07-02T09:13:43Z</time>
      </trkpt>
      <trkpt lat="48.58514" lon="2.25385">
        <ele>77.5</ele>
        <time>2020-07-02T09:13:44Z</time>
      </trkpt>
      <trkpt lat="48.58511" lon="2.25389">
        <ele>77.7</ele>
        <time>2020-07-02T09:13:45Z</time>
      </trkpt>
      <trkpt lat="48.58508" lon="2.25391">
        <ele>77.9</ele>
        <time>2020-07-02T09:13:46Z</time>
      </trkpt>
      <trkpt lat="48.58506" lon="2.25393">
        <ele>78.1</ele>
        <time>2020-07-02T09:13:47Z</time>
      </trkpt>
      <trkpt lat="48.58503" lon="2.25396">
        <ele>78.3</ele>
        <time>2020-07-02T09:13:48Z</time>
      </trkpt>
      <trkpt lat="48.585" lon="2.25398">
        <ele>78.5</ele>
        <time>2020-07-02T09:13:49Z</time>
      </trkpt>
      <trkpt lat="48.58499" lon="2.25399">
        <ele>78.5</ele>
        <time>2020-07-02T09:13:50Z</time>
      </trkpt>
      <trkpt lat="48.58496" lon="2.25401">
        <ele>78.7</ele>
        <time>2020-07-02T09:13:51Z</time>
      </trkpt>
      <trkpt lat="48.58494" lon="2.25405">
        <ele>78.9</ele>
        <time>2020-07-02T09:13:52Z</time>
      </trkpt>
      <trkpt lat="48.58491" lon="2.25407">
        <ele>79</ele>
        <time>2020-07-02T09:13:53Z</time>
      </trkpt>
      <trkpt lat="48.58488" lon="2.25409">
        <ele>79.2</ele>
        <time>2020-07-02T09:13:54Z</time>
      </trkpt>
      <trkpt lat="48.58485" lon="2.25414">
        <ele>79.4</ele>
        <time>2020-07-02T09:13:55Z</time>
      </trkpt>
      <trkpt lat="48.58483" lon="2.25416">
        <ele>79.5</ele>
        <time>2020-07-02T09:13:56Z</time>
      </trkpt>
      <trkpt lat="48.5848" lon="2.25417">
        <ele>79.6</ele>
        <time>2020-07-02T09:13:57Z</time>
      </trkpt>
      <trkpt lat="48.58478" lon="2.2542">
        <ele>79.8</ele>
        <time>2020-07-02T09:13:58Z</time>
      </trkpt>
      <trkpt lat="48.58475" lon="2.25422">
        <ele>79.9</ele>
        <time>2020-07-02T09:13:59Z</time>
      </trkpt>
      <trkpt lat="48.58472" lon="2.25424">
        <ele>80.1</ele>
        <time>2020-07-02T09:14:00Z</time>
      </trkpt>
      <trkpt lat="48.5847" lon="2.25427">
        <ele>80.3</ele>
        <time>2020-07-02T09:14:01Z</time>
      </trkpt>
      <trkpt lat="48.58468" lon="2.2543">
        <ele>80.4</ele>
        <time>2020-07-02T09:14:02Z</time>
      </trkpt>
      <trkpt lat="48.58465" lon="2.25433">
        <ele>80.6</ele>
        <time>2020-07-02T09:14:03Z</time>
      </trkpt>
      <trkpt lat="48.58462" lon="2.25436">
        <ele>80.7</ele>
        <time>2020-07-02T09:14:04Z</time>
      </trkpt>
      <trkpt lat="48.5846" lon="2.25437">
        <ele>80.9</ele>
        <time>2020-07-02T09:14:05Z</time>
      </trkpt>
      <trkpt lat="48.58457" lon="2.25438">
        <ele>81</ele>
        <time>2020-07-02T09:14:06Z</time>
      </trkpt>
      <trkpt lat="48.58452" lon="2.2544">
        <ele>81.3</ele>
        <time>2020-07-02T09:14:07Z</time>
      </trkpt>
      <trkpt lat="48.58449" lon="2.25442">
        <ele>81.4</ele>
        <time>2020-07-02T09:14:08Z</time>
      </trkpt>
      <trkpt lat="48.58446" lon="2.25444">
        <ele>81.7</ele>
        <time>2020-07-02T09:14:09Z</time>
      </trkpt>
      <trkpt lat="48.58443" lon="2.25448">
        <ele>82</ele>
        <time>2020-07-02T09:14:10Z</time>
      </trkpt>
      <trkpt lat="48.58441" lon="2.25449">
        <ele>82.1</ele>
        <time>2020-07-02T09:14:11Z</time>
      </trkpt>
      <trkpt lat="48.58439" lon="2.25452">
        <ele>82.2</ele>
        <time>2020-07-02T09:14:12Z</time>
      </trkpt>
      <trkpt lat="48.58436" lon="2.25455">
        <ele>82.5</ele>
        <time>2020-07-02T09:14:13Z</time>
      </trkpt>
      <trkpt lat="48.58432" lon="2.25458">
        <ele>82.7</ele>
        <time>2020-07-02T09:14:14Z</time>
      </trkpt>
      <trkpt lat="48.58429" lon="2.25461">
        <ele>82.9</ele>
        <time>2020-07-02T09:14:15Z</time>
      </trkpt>
      <trkpt lat="48.58426" lon="2.25465">
        <ele>83.2</ele>
        <time>2020-07-02T09:14:16Z</time>
      </trkpt>
      <trkpt lat="48.58423" lon="2.25467">
        <ele>83.3</ele>
        <time>2020-07-02T09:14:17Z</time>
      </trkpt>
      <trkpt lat="48.5842" lon="2.25469">
        <ele>83.5</ele>
        <time>2020-07-02T09:14:18Z</time>
      </trkpt>
      <trkpt lat="48.58418" lon="2.25472">
        <ele>83.7</ele>
        <time>2020-07-02T09:14:19Z</time>
      </trkpt>
      <trkpt lat="48.58414" lon="2.25475">
        <ele>83.8</ele>
        <time>2020-07-02T09:14:20Z</time>
      </trkpt>
      <trkpt lat="48.58411" lon="2.25478">
        <ele>83.9</ele>
        <time>2020-07-02T09:14:21Z</time>
      </trkpt>
      <trkpt lat="48.58408" lon="2.25481">
        <ele>84</ele>
        <time>2020-07-02T09:14:22Z</time>
      </trkpt>
      <trkpt lat="48.58405" lon="2.25482">
        <ele>84.1</ele>
        <time>2020-07-02T09:14:23Z</time>
      </trkpt>
      <trkpt lat="48.58402" lon="2.25484">
        <ele>84.2</ele>
        <time>2020-07-02T09:14:24Z</time>
      </trkpt>
      <trkpt lat="48.58399" lon="2.25487">
        <ele>84.4</ele>
        <time>2020-07-02T09:14:25Z</time>
      </trkpt>
      <trkpt lat="48.58397" lon="2.2549">
        <ele>84.6</ele>
        <time>2020-07-02T09:14:26Z</time>
      </trkpt>
      <trkpt lat="48.58394" lon="2.25492">
        <ele>84.7</ele>
        <time>2020-07-02T09:14:27Z</time>
      </trkpt>
      <trkpt lat="48.58391" lon="2.25495">
        <ele>84.9</ele>
        <time>2020-07-02T09:14:28Z</time>
      </trkpt>
      <trkpt lat="48.58387" lon="2.25497">
        <ele>85</ele>
        <time>2020-07-02T09:14:29Z</time>
      </trkpt>
      <trkpt lat="48.58383" lon="2.255">
        <ele>85.2</ele>
        <time>2020-07-02T09:14:30Z</time>
      </trkpt>
      <trkpt lat="48.5838" lon="2.25504">
        <ele>85.3</ele>
        <time>2020-07-02T09:14:31Z</time>
      </trkpt>
      <trkpt lat="48.58376" lon="2.25507">
        <ele>85.5</ele>
        <time>2020-07-02T09:14:32Z</time>
      </trkpt>
      <trkpt lat="48.58373" lon="2.25509">
        <ele>85.6</ele>
        <time>2020-07-02T09:14:33Z</time>
      </trkpt>
      <trkpt lat="48.58369" lon="2.25513">
        <ele>85.7</ele>
        <time>2020-07-02T09:14:34Z</time>
      </trkpt>
      <trkpt lat="48.58366" lon="2.25516">
        <ele>85.8</ele>
        <time>2020-07-02T09:14:35Z</time>
      </trkpt>
      <trkpt lat="48.58363" lon="2.25519">
        <ele>85.9</ele>
        <time>2020-07-02T09:14:36Z</time>
      </trkpt>
      <trkpt lat="48.58359" lon="2.25523">
        <ele>86</ele>
        <time>2020-07-02T09:14:37Z</time>
      </trkpt>
      <trkpt lat="48.58356" lon="2.25526">
        <ele>86</ele>
        <time>2020-07-02T09:14:38Z</time>
      </trkpt>
      <trkpt lat="48.58352" lon="2.25528">
        <ele>86.1</ele>
        <time>2020-07-02T09:14:39Z</time>
      </trkpt>
      <trkpt lat="48.58348" lon="2.25531">
        <ele>86.2</ele>
        <time>2020-07-02T09:14:40Z</time>
      </trkpt>
      <trkpt lat="48.58345" lon="2.25534">
        <ele>86.3</ele>
        <time>2020-07-02T09:14:41Z</time>
      </trkpt>
      <trkpt lat="48.58342" lon="2.25537">
        <ele>86.4</ele>
        <time>2020-07-02T09:14:42Z</time>
      </trkpt>
      <trkpt lat="48.58338" lon="2.2554">
        <ele>86.5</ele>
        <time>2020-07-02T09:14:43Z</time>
      </trkpt>
      <trkpt lat="48.58335" lon="2.25543">
        <ele>86.5</ele>
        <time>2020-07-02T09:14:44Z</time>
      </trkpt>
      <trkpt lat="48.58331" lon="2.25546">
        <ele>86.6</ele>
        <time>2020-07-02T09:14:45Z</time>
      </trkpt>
      <trkpt lat="48.58328" lon="2.2555">
        <ele>86.7</ele>
        <time>2020-07-02T09:14:46Z</time>
      </trkpt>
      <trkpt lat="48.58324" lon="2.25554">
        <ele>86.8</ele>
        <time>2020-07-02T09:14:47Z</time>
      </trkpt>
      <trkpt lat="48.5832" lon="2.25558">
        <ele>86.8</ele>
        <time>2020-07-02T09:14:48Z</time>
      </trkpt>
      <trkpt lat="48.58315" lon="2.25561">
        <ele>86.9</ele>
        <time>2020-07-02T09:14:49Z</time>
      </trkpt>
      <trkpt lat="48.58311" lon="2.25565">
        <ele>86.9</ele>
        <time>2020-07-02T09:14:50Z</time>
      </trkpt>
      <trkpt lat="48.58307" lon="2.25568">
        <ele>87</ele>
        <time>2020-07-02T09:14:51Z</time>
      </trkpt>
      <trkpt lat="48.58303" lon="2.25572">
        <ele>87</ele>
        <time>2020-07-02T09:14:52Z</time>
      </trkpt>
      <trkpt lat="48.58298" lon="2.25575">
        <ele>87.1</ele>
        <time>2020-07-02T09:14:53Z</time>
      </trkpt>
      <trkpt lat="48.58294" lon="2.25579">
        <ele>87.1</ele>
        <time>2020-07-02T09:14:54Z</time>
      </trkpt>
      <trkpt lat="48.5829" lon="2.25582">
        <ele>87.2</ele>
        <time>2020-07-02T09:14:55Z</time>
      </trkpt>
      <trkpt lat="48.58286" lon="2.25585">
        <ele>87.3</ele>
        <time>2020-07-02T09:14:56Z</time>
      </trkpt>
      <trkpt lat="48.58281" lon="2.25588">
        <ele>87.3</ele>
        <time>2020-07-02T09:14:57Z</time>
      </trkpt>
      <trkpt lat="48.58277" lon="2.25589">
        <ele>87.4</ele>
        <time>2020-07-02T09:14:58Z</time>
      </trkpt>
      <trkpt lat="48.58272" lon="2.2559">
        <ele>87.5</ele>
        <time>2020-07-02T09:14:59Z</time>
      </trkpt>
      <trkpt lat="48.58267" lon="2.25592">
        <ele>87.5</ele>
        <time>2020-07-02T09:15:00Z</time>
      </trkpt>
      <trkpt lat="48.58262" lon="2.25595">
        <ele>87.6</ele>
        <time>2020-07-02T09:15:01Z</time>
      </trkpt>
      <trkpt lat="48.58257" lon="2.25596">
        <ele>87.7</ele>
        <time>2020-07-02T09:15:02Z</time>
      </trkpt>
      <trkpt lat="48.58252" lon="2.25598">
        <ele>87.8</ele>
        <time>2020-07-02T09:15:03Z</time>
      </trkpt>
      <trkpt lat="48.58247" lon="2.256">
        <ele>87.8</ele>
        <time>2020-07-02T09:15:04Z</time>
      </trkpt>
      <trkpt lat="48.58242" lon="2.25602">
        <ele>87.9</ele>
        <time>2020-07-02T09:15:05Z</time>
      </trkpt>
      <trkpt lat="48.58236" lon="2.25605">
        <ele>88</ele>
        <time>2020-07-02T09:15:06Z</time>
      </trkpt>
      <trkpt lat="48.58231" lon="2.25607">
        <ele>88.1</ele>
        <time>2020-07-02T09:15:07Z</time>
      </trkpt>
      <trkpt lat="48.58226" lon="2.25609">
        <ele>88.1</ele>
        <time>2020-07-02T09:15:08Z</time>
      </trkpt>
      <trkpt lat="48.58221" lon="2.25612">
        <ele>88.2</ele>
        <time>2020-07-02T09:15:09Z</time>
      </trkpt>
      <trkpt lat="48.58216" lon="2.25615">
        <ele>88.2</ele>
        <time>2020-07-02T09:15:10Z</time>
      </trkpt>
      <trkpt lat="48.58212" lon="2.25618">
        <ele>88.3</ele>
        <time>2020-07-02T09:15:11Z</time>
      </trkpt>
      <trkpt lat="48.58206" lon="2.25619">
        <ele>88.3</ele>
        <time>2020-07-02T09:15:12Z</time>
      </trkpt>
      <trkpt lat="48.58202" lon="2.25621">
        <ele>88.4</ele>
        <time>2020-07-02T09:15:13Z</time>
      </trkpt>
      <trkpt lat="48.58198" lon="2.25623">
        <ele>88.4</ele>
        <time>2020-07-02T09:15:14Z</time>
      </trkpt>
      <trkpt lat="48.58194" lon="2.25626">
        <ele>88.5</ele>
        <time>2020-07-02T09:15:15Z</time>
      </trkpt>
      <trkpt lat="48.58191" lon="2.25629">
        <ele>88.5</ele>
        <time>2020-07-02T09:15:16Z</time>
      </trkpt>
      <trkpt lat="48.58187" lon="2.2563">
        <ele>88.5</ele>
        <time>2020-07-02T09:15:17Z</time>
      </trkpt>
      <trkpt lat="48.58184" lon="2.25633">
        <ele>88.6</ele>
        <time>2020-07-02T09:15:18Z</time>
      </trkpt>
      <trkpt lat="48.58181" lon="2.25634">
        <ele>88.6</ele>
        <time>2020-07-02T09:15:19Z</time>
      </trkpt>
      <trkpt lat="48.58177" lon="2.25636">
        <ele>88.6</ele>
        <time>2020-07-02T09:15:20Z</time>
      </trkpt>
      <trkpt lat="48.58173" lon="2.25638">
        <ele>88.6</ele>
        <time>2020-07-02T09:15:21Z</time>
      </trkpt>
      <trkpt lat="48.58169" lon="2.2564">
        <ele>88.7</ele>
        <time>2020-07-02T09:15:22Z</time>
      </trkpt>
      <trkpt lat="48.58165" lon="2.25643">
        <ele>88.7</ele>
        <time>2020-07-02T09:15:23Z</time>
      </trkpt>
      <trkpt lat="48.5816" lon="2.25645">
        <ele>88.7</ele>
        <time>2020-07-02T09:15:24Z</time>
      </trkpt>
      <trkpt lat="48.58155" lon="2.25646">
        <ele>88.8</ele>
        <time>2020-07-02T09:15:25Z</time>
      </trkpt>
      <trkpt lat="48.58149" lon="2.25647">
        <ele>88.8</ele>
        <time>2020-07-02T09:15:26Z</time>
      </trkpt>
      <trkpt lat="48.58144" lon="2.25647">
        <ele>88.9</ele>
        <time>2020-07-02T09:15:27Z</time>
      </trkpt>
      <trkpt lat="48.58139" lon="2.25648">
        <ele>88.9</ele>
        <time>2020-07-02T09:15:28Z</time>
      </trkpt>
      <trkpt lat="48.58134" lon="2.25649">
        <ele>88.9</ele>
        <time>2020-07-02T09:15:29Z</time>
      </trkpt>
      <trkpt lat="48.5813" lon="2.2565">
        <ele>89</ele>
        <time>2020-07-02T09:15:30Z</time>
      </trkpt>
      <trkpt lat="48.58125" lon="2.2565">
        <ele>89</ele>
        <time>2020-07-02T09:15:31Z</time>
      </trkpt>
      <trkpt lat="48.5812" lon="2.2565">
        <ele>89</ele>
        <time>2020-07-02T09:15:32Z</time>
      </trkpt>
      <trkpt lat="48.58116" lon="2.2565">
        <ele>89.1</ele>
        <time>2020-07-02T09:15:33Z</time>
      </trkpt>
      <trkpt lat="48.58111" lon="2.25651">
        <ele>89.1</ele>
        <time>2020-07-02T09:15:34Z</time>
      </trkpt>
      <trkpt lat="48.58107" lon="2.25652">
        <ele>89.2</ele>
        <time>2020-07-02T09:15:35Z</time>
      </trkpt>
      <trkpt lat="48.58102" lon="2.25652">
        <ele>89.3</ele>
        <time>2020-07-02T09:15:36Z</time>
      </trkpt>
      <trkpt lat="48.58096" lon="2.25652">
        <ele>89.3</ele>
        <time>2020-07-02T09:15:37Z</time>
      </trkpt>
      <trkpt lat="48.58091" lon="2.25653">
        <ele>89.4</ele>
        <time>2020-07-02T09:15:38Z</time>
      </trkpt>
      <trkpt lat="48.58087" lon="2.25653">
        <ele>89.5</ele>
        <time>2020-07-02T09:15:39Z</time>
      </trkpt>
      <trkpt lat="48.58083" lon="2.25653">
        <ele>89.6</ele>
        <time>2020-07-02T09:15:40Z</time>
      </trkpt>
      <trkpt lat="48.5808" lon="2.25653">
        <ele>89.6</ele>
        <time>2020-07-02T09:15:41Z</time>
      </trkpt>
      <trkpt lat="48.58078" lon="2.25653">
        <ele>89.6</ele>
        <time>2020-07-02T09:15:42Z</time>
      </trkpt>
      <trkpt lat="48.58077" lon="2.25653">
        <ele>89.7</ele>
        <time>2020-07-02T09:15:43Z</time>
      </trkpt>
      <trkpt lat="48.58074" lon="2.25656">
        <ele>89.7</ele>
        <time>2020-07-02T09:15:44Z</time>
      </trkpt>
      <trkpt lat="48.58073" lon="2.25657">
        <ele>89.7</ele>
        <time>2020-07-02T09:15:45Z</time>
      </trkpt>
      <trkpt lat="48.5807" lon="2.25658">
        <ele>89.8</ele>
        <time>2020-07-02T09:15:46Z</time>
      </trkpt>
      <trkpt lat="48.58068" lon="2.25658">
        <ele>89.8</ele>
        <time>2020-07-02T09:15:47Z</time>
      </trkpt>
      <trkpt lat="48.58065" lon="2.2566">
        <ele>89.9</ele>
        <time>2020-07-02T09:15:48Z</time>
      </trkpt>
      <trkpt lat="48.58062" lon="2.25661">
        <ele>89.9</ele>
        <time>2020-07-02T09:15:49Z</time>
      </trkpt>
      <trkpt lat="48.58058" lon="2.25662">
        <ele>90</ele>
        <time>2020-07-02T09:15:50Z</time>
      </trkpt>
      <trkpt lat="48.58055" lon="2.25664">
        <ele>90.1</ele>
        <time>2020-07-02T09:15:51Z</time>
      </trkpt>
      <trkpt lat="48.58051" lon="2.25666">
        <ele>90.1</ele>
        <time>2020-07-02T09:15:52Z</time>
      </trkpt>
      <trkpt lat="48.58047" lon="2.25669">
        <ele>90.1</ele>
        <time>2020-07-02T09:15:53Z</time>
      </trkpt>
      <trkpt lat="48.58044" lon="2.25673">
        <ele>90.1</ele>
        <time>2020-07-02T09:15:54Z</time>
      </trkpt>
      <trkpt lat="48.5804" lon="2.25677">
        <ele>90.2</ele>
        <time>2020-07-02T09:15:55Z</time>
      </trkpt>
      <trkpt lat="48.58037" lon="2.25681">
        <ele>90.2</ele>
        <time>2020-07-02T09:15:56Z</time>
      </trkpt>
      <trkpt lat="48.58033" lon="2.25683">
        <ele>90.2</ele>
        <time>2020-07-02T09:15:57Z</time>
      </trkpt>
      <trkpt lat="48.58029" lon="2.25686">
        <ele>90.2</ele>
        <time>2020-07-02T09:15:58Z</time>
      </trkpt>
      <trkpt lat="48.58025" lon="2.2569">
        <ele>90.3</ele>
        <time>2020-07-02T09:15:59Z</time>
      </trkpt>
      <trkpt lat="48.58022" lon="2.25693">
        <ele>90.3</ele>
        <time>2020-07-02T09:16:00Z</time>
      </trkpt>
      <trkpt lat="48.58017" lon="2.25695">
        <ele>90.3</ele>
        <time>2020-07-02T09:16:01Z</time>
      </trkpt>
      <trkpt lat="48.58013" lon="2.25697">
        <ele>90.3</ele>
        <time>2020-07-02T09:16:02Z</time>
      </trkpt>
      <trkpt lat="48.58009" lon="2.257">
        <ele>90.3</ele>
        <time>2020-07-02T09:16:03Z</time>
      </trkpt>
      <trkpt lat="48.58003" lon="2.25703">
        <ele>90.3</ele>
        <time>2020-07-02T09:16:04Z</time>
      </trkpt>
      <trkpt lat="48.57999" lon="2.25707">
        <ele>90.3</ele>
        <time>2020-07-02T09:16:05Z</time>
      </trkpt>
      <trkpt lat="48.57995" lon="2.25709">
        <ele>90.3</ele>
        <time>2020-07-02T09:16:06Z</time>
      </trkpt>
      <trkpt lat="48.57991" lon="2.25712">
        <ele>90.3</ele>
        <time>2020-07-02T09:16:07Z</time>
      </trkpt>
      <trkpt lat="48.57987" lon="2.25714">
        <ele>90.3</ele>
        <time>2020-07-02T09:16:08Z</time>
      </trkpt>
      <trkpt lat="48.57982" lon="2.25716">
        <ele>90.3</ele>
        <time>2020-07-02T09:16:09Z</time>
      </trkpt>
      <trkpt lat="48.57977" lon="2.25718">
        <ele>90.3</ele>
        <time>2020-07-02T09:16:10Z</time>
      </trkpt>
      <trkpt lat="48.57972" lon="2.25718">
        <ele>90.2</ele>
        <time>2020-07-02T09:16:11Z</time>
      </trkpt>
      <trkpt lat="48.57968" lon="2.25717">
        <ele>90.2</ele>
        <time>2020-07-02T09:16:12Z</time>
      </trkpt>
      <trkpt lat="48.57963" lon="2.25718">
        <ele>90.2</ele>
        <time>2020-07-02T09:16:13Z</time>
      </trkpt>
      <trkpt lat="48.57958" lon="2.25717">
        <ele>90.2</ele>
        <time>2020-07-02T09:16:14Z</time>
      </trkpt>
      <trkpt lat="48.57953" lon="2.25718">
        <ele>90.2</ele>
        <time>2020-07-02T09:16:15Z</time>
      </trkpt>
      <trkpt lat="48.57949" lon="2.25718">
        <ele>90.2</ele>
        <time>2020-07-02T09:16:16Z</time>
      </trkpt>
      <trkpt lat="48.57944" lon="2.25718">
        <ele>90.2</ele>
        <time>2020-07-02T09:16:17Z</time>
      </trkpt>
      <trkpt lat="48.57939" lon="2.25719">
        <ele>90.2</ele>
        <time>2020-07-02T09:16:18Z</time>
      </trkpt>
      <trkpt lat="48.57933" lon="2.25719">
        <ele>90.3</ele>
        <time>2020-07-02T09:16:19Z</time>
      </trkpt>
      <trkpt lat="48.57929" lon="2.2572">
        <ele>90.3</ele>
        <time>2020-07-02T09:16:20Z</time>
      </trkpt>
      <trkpt lat="48.57924" lon="2.25721">
        <ele>90.3</ele>
        <time>2020-07-02T09:16:21Z</time>
      </trkpt>
      <trkpt lat="48.5792" lon="2.25722">
        <ele>90.3</ele>
        <time>2020-07-02T09:16:22Z</time>
      </trkpt>
      <trkpt lat="48.57916" lon="2.25722">
        <ele>90.3</ele>
        <time>2020-07-02T09:16:23Z</time>
      </trkpt>
      <trkpt lat="48.57912" lon="2.25723">
        <ele>90.3</ele>
        <time>2020-07-02T09:16:24Z</time>
      </trkpt>
      <trkpt lat="48.57909" lon="2.25723">
        <ele>90.4</ele>
        <time>2020-07-02T09:16:25Z</time>
      </trkpt>
      <trkpt lat="48.57905" lon="2.25723">
        <ele>90.4</ele>
        <time>2020-07-02T09:16:26Z</time>
      </trkpt>
      <trkpt lat="48.57901" lon="2.25723">
        <ele>90.4</ele>
        <time>2020-07-02T09:16:27Z</time>
      </trkpt>
      <trkpt lat="48.57896" lon="2.25724">
        <ele>90.4</ele>
        <time>2020-07-02T09:16:28Z</time>
      </trkpt>
      <trkpt lat="48.57892" lon="2.25726">
        <ele>90.5</ele>
        <time>2020-07-02T09:16:29Z</time>
      </trkpt>
      <trkpt lat="48.57888" lon="2.25727">
        <ele>90.5</ele>
        <time>2020-07-02T09:16:30Z</time>
      </trkpt>
      <trkpt lat="48.57884" lon="2.25728">
        <ele>90.5</ele>
        <time>2020-07-02T09:16:31Z</time>
      </trkpt>
      <trkpt lat="48.57881" lon="2.25728">
        <ele>90.5</ele>
        <time>2020-07-02T09:16:32Z</time>
      </trkpt>
      <trkpt lat="48.57877" lon="2.25728">
        <ele>90.5</ele>
        <time>2020-07-02T09:16:33Z</time>
      </trkpt>
      <trkpt lat="48.57874" lon="2.25729">
        <ele>90.6</ele>
        <time>2020-07-02T09:16:34Z</time>
      </trkpt>
      <trkpt lat="48.57872" lon="2.2573">
        <ele>90.6</ele>
        <time>2020-07-02T09:16:35Z</time>
      </trkpt>
      <trkpt lat="48.57871" lon="2.25729">
        <ele>90.6</ele>
        <time>2020-07-02T09:16:36Z</time>
      </trkpt>
      <trkpt lat="48.57869" lon="2.2573">
        <ele>90.6</ele>
        <time>2020-07-02T09:16:37Z</time>
      </trkpt>
      <trkpt lat="48.57868" lon="2.25731">
        <ele>90.6</ele>
        <time>2020-07-02T09:16:38Z</time>
      </trkpt>
      <trkpt lat="48.57865" lon="2.25729">
        <ele>90.6</ele>
        <time>2020-07-02T09:16:39Z</time>
      </trkpt>
      <trkpt lat="48.57864" lon="2.25729">
        <ele>90.6</ele>
        <time>2020-07-02T09:16:40Z</time>
      </trkpt>
      <trkpt lat="48.57862" lon="2.2573">
        <ele>90.6</ele>
        <time>2020-07-02T09:16:41Z</time>
      </trkpt>
      <trkpt lat="48.57861" lon="2.2573">
        <ele>90.6</ele>
        <time>2020-07-02T09:16:42Z</time>
      </trkpt>
      <trkpt lat="48.5786" lon="2.2573">
        <ele>90.6</ele>
        <time>2020-07-02T09:16:43Z</time>
      </trkpt>
      <trkpt lat="48.57857" lon="2.2573">
        <ele>90.5</ele>
        <time>2020-07-02T09:16:44Z</time>
      </trkpt>
      <trkpt lat="48.57856" lon="2.2573">
        <ele>90.5</ele>
        <time>2020-07-02T09:16:45Z</time>
      </trkpt>
      <trkpt lat="48.57853" lon="2.2573">
        <ele>90.5</ele>
        <time>2020-07-02T09:16:46Z</time>
      </trkpt>
      <trkpt lat="48.57852" lon="2.2573">
        <ele>90.5</ele>
        <time>2020-07-02T09:16:47Z</time>
      </trkpt>
      <trkpt lat="48.57848" lon="2.25731">
        <ele>90.5</ele>
        <time>2020-07-02T09:16:48Z</time>
      </trkpt>
      <trkpt lat="48.57846" lon="2.25731">
        <ele>90.5</ele>
        <time>2020-07-02T09:16:49Z</time>
      </trkpt>
      <trkpt lat="48.57843" lon="2.25731">
        <ele>90.4</ele>
        <time>2020-07-02T09:16:50Z</time>
      </trkpt>
      <trkpt lat="48.57842" lon="2.25731">
        <ele>90.4</ele>
        <time>2020-07-02T09:16:51Z</time>
      </trkpt>
      <trkpt lat="48.57839" lon="2.25733">
        <ele>90.4</ele>
        <time>2020-07-02T09:16:52Z</time>
      </trkpt>
      <trkpt lat="48.57838" lon="2.25733">
        <ele>90.4</ele>
        <time>2020-07-02T09:16:53Z</time>
      </trkpt>
      <trkpt lat="48.57834" lon="2.25735">
        <ele>90.4</ele>
        <time>2020-07-02T09:16:54Z</time>
      </trkpt>
      <trkpt lat="48.57831" lon="2.25737">
        <ele>90.4</ele>
        <time>2020-07-02T09:16:55Z</time>
      </trkpt>
      <trkpt lat="48.57827" lon="2.25738">
        <ele>90.4</ele>
        <time>2020-07-02T09:16:56Z</time>
      </trkpt>
      <trkpt lat="48.57823" lon="2.25739">
        <ele>90.4</ele>
        <time>2020-07-02T09:16:57Z</time>
      </trkpt>
      <trkpt lat="48.57819" lon="2.25742">
        <ele>90.3</ele>
        <time>2020-07-02T09:16:58Z</time>
      </trkpt>
      <trkpt lat="48.57815" lon="2.25743">
        <ele>90.3</ele>
        <time>2020-07-02T09:16:59Z</time>
      </trkpt>
      <trkpt lat="48.57812" lon="2.25745">
        <ele>90.3</ele>
        <time>2020-07-02T09:17:00Z</time>
      </trkpt>
      <trkpt lat="48.57808" lon="2.25746">
        <ele>90.3</ele>
        <time>2020-07-02T09:17:01Z</time>
      </trkpt>
      <trkpt lat="48.57803" lon="2.25748">
        <ele>90.3</ele>
        <time>2020-07-02T09:17:02Z</time>
      </trkpt>
      <trkpt lat="48.57798" lon="2.25749">
        <ele>90.3</ele>
        <time>2020-07-02T09:17:03Z</time>
      </trkpt>
      <trkpt lat="48.57794" lon="2.2575">
        <ele>90.3</ele>
        <time>2020-07-02T09:17:04Z</time>
      </trkpt>
      <trkpt lat="48.5779" lon="2.25751">
        <ele>90.3</ele>
        <time>2020-07-02T09:17:05Z</time>
      </trkpt>
      <trkpt lat="48.57786" lon="2.25751">
        <ele>90.3</ele>
        <time>2020-07-02T09:17:06Z</time>
      </trkpt>
      <trkpt lat="48.57782" lon="2.25753">
        <ele>90.3</ele>
        <time>2020-07-02T09:17:07Z</time>
      </trkpt>
      <trkpt lat="48.57778" lon="2.25754">
        <ele>90.3</ele>
        <time>2020-07-02T09:17:08Z</time>
      </trkpt>
      <trkpt lat="48.57774" lon="2.25756">
        <ele>90.3</ele>
        <time>2020-07-02T09:17:09Z</time>
      </trkpt>
      <trkpt lat="48.5777" lon="2.25756">
        <ele>90.3</ele>
        <time>2020-07-02T09:17:10Z</time>
      </trkpt>
      <trkpt lat="48.57766" lon="2.25757">
        <ele>90.3</ele>
        <time>2020-07-02T09:17:11Z</time>
      </trkpt>
      <trkpt lat="48.57762" lon="2.25759">
        <ele>90.3</ele>
        <time>2020-07-02T09:17:12Z</time>
      </trkpt>
      <trkpt lat="48.57758" lon="2.25761">
        <ele>90.3</ele>
        <time>2020-07-02T09:17:13Z</time>
      </trkpt>
      <trkpt lat="48.57753" lon="2.25763">
        <ele>90.3</ele>
        <time>2020-07-02T09:17:14Z</time>
      </trkpt>
      <trkpt lat="48.57749" lon="2.25763">
        <ele>90.3</ele>
        <time>2020-07-02T09:17:15Z</time>
      </trkpt>
      <trkpt lat="48.57744" lon="2.25764">
        <ele>90.3</ele>
        <time>2020-07-02T09:17:16Z</time>
      </trkpt>
      <trkpt lat="48.57739" lon="2.25765">
        <ele>90.3</ele>
        <time>2020-07-02T09:17:17Z</time>
      </trkpt>
      <trkpt lat="48.57733" lon="2.25767">
        <ele>90.3</ele>
        <time>2020-07-02T09:17:18Z</time>
      </trkpt>
      <trkpt lat="48.57727" lon="2.25769">
        <ele>90.3</ele>
        <time>2020-07-02T09:17:19Z</time>
      </trkpt>
      <trkpt lat="48.57721" lon="2.25771">
        <ele>90.3</ele>
        <time>2020-07-02T09:17:20Z</time>
      </trkpt>
      <trkpt lat="48.57716" lon="2.25773">
        <ele>90.3</ele>
        <time>2020-07-02T09:17:21Z</time>
      </trkpt>
      <trkpt lat="48.5771" lon="2.25775">
        <ele>90.3</ele>
        <time>2020-07-02T09:17:22Z</time>
      </trkpt>
      <trkpt lat="48.57704" lon="2.25777">
        <ele>90.3</ele>
        <time>2020-07-02T09:17:23Z</time>
      </trkpt>
      <trkpt lat="48.57698" lon="2.25779">
        <ele>90.3</ele>
        <time>2020-07-02T09:17:24Z</time>
      </trkpt>
      <trkpt lat="48.57692" lon="2.25781">
        <ele>90.4</ele>
        <time>2020-07-02T09:17:25Z</time>
      </trkpt>
      <trkpt lat="48.57686" lon="2.25782">
        <ele>90.4</ele>
        <time>2020-07-02T09:17:26Z</time>
      </trkpt>
      <trkpt lat="48.5768" lon="2.25783">
        <ele>90.4</ele>
        <time>2020-07-02T09:17:27Z</time>
      </trkpt>
      <trkpt lat="48.57675" lon="2.25785">
        <ele>90.5</ele>
        <time>2020-07-02T09:17:28Z</time>
      </trkpt>
      <trkpt lat="48.57669" lon="2.25786">
        <ele>90.5</ele>
        <time>2020-07-02T09:17:29Z</time>
      </trkpt>
      <trkpt lat="48.57663" lon="2.25788">
        <ele>90.5</ele>
        <time>2020-07-02T09:17:30Z</time>
      </trkpt>
      <trkpt lat="48.57658" lon="2.2579">
        <ele>90.5</ele>
        <time>2020-07-02T09:17:31Z</time>
      </trkpt>
      <trkpt lat="48.57653" lon="2.25791">
        <ele>90.5</ele>
        <time>2020-07-02T09:17:32Z</time>
      </trkpt>
      <trkpt lat="48.57648" lon="2.25793">
        <ele>90.4</ele>
        <time>2020-07-02T09:17:33Z</time>
      </trkpt>
      <trkpt lat="48.57642" lon="2.25796">
        <ele>90.4</ele>
        <time>2020-07-02T09:17:34Z</time>
      </trkpt>
      <trkpt lat="48.57636" lon="2.25797">
        <ele>90.3</ele>
        <time>2020-07-02T09:17:35Z</time>
      </trkpt>
      <trkpt lat="48.57631" lon="2.25798">
        <ele>90.3</ele>
        <time>2020-07-02T09:17:36Z</time>
      </trkpt>
      <trkpt lat="48.57625" lon="2.25799">
        <ele>90.3</ele>
        <time>2020-07-02T09:17:37Z</time>
      </trkpt>
      <trkpt lat="48.5762" lon="2.25801">
        <ele>90.3</ele>
        <time>2020-07-02T09:17:38Z</time>
      </trkpt>
      <trkpt lat="48.57614" lon="2.25802">
        <ele>90.3</ele>
        <time>2020-07-02T09:17:39Z</time>
      </trkpt>
      <trkpt lat="48.57608" lon="2.25804">
        <ele>90.3</ele>
        <time>2020-07-02T09:17:40Z</time>
      </trkpt>
      <trkpt lat="48.57603" lon="2.25805">
        <ele>90.3</ele>
        <time>2020-07-02T09:17:41Z</time>
      </trkpt>
      <trkpt lat="48.57596" lon="2.25807">
        <ele>90.3</ele>
        <time>2020-07-02T09:17:42Z</time>
      </trkpt>
      <trkpt lat="48.5759" lon="2.25808">
        <ele>90.3</ele>
        <time>2020-07-02T09:17:43Z</time>
      </trkpt>
      <trkpt lat="48.57583" lon="2.25811">
        <ele>90.3</ele>
        <time>2020-07-02T09:17:44Z</time>
      </trkpt>
      <trkpt lat="48.57578" lon="2.25812">
        <ele>90.3</ele>
        <time>2020-07-02T09:17:45Z</time>
      </trkpt>
      <trkpt lat="48.57572" lon="2.25813">
        <ele>90.3</ele>
        <time>2020-07-02T09:17:46Z</time>
      </trkpt>
      <trkpt lat="48.57567" lon="2.25814">
        <ele>90.4</ele>
        <time>2020-07-02T09:17:47Z</time>
      </trkpt>
      <trkpt lat="48.57563" lon="2.25815">
        <ele>90.3</ele>
        <time>2020-07-02T09:17:48Z</time>
      </trkpt>
      <trkpt lat="48.57558" lon="2.25816">
        <ele>90.3</ele>
        <time>2020-07-02T09:17:49Z</time>
      </trkpt>
      <trkpt lat="48.57554" lon="2.25816">
        <ele>90.2</ele>
        <time>2020-07-02T09:17:50Z</time>
      </trkpt>
      <trkpt lat="48.5755" lon="2.25817">
        <ele>90.2</ele>
        <time>2020-07-02T09:17:51Z</time>
      </trkpt>
      <trkpt lat="48.57546" lon="2.25818">
        <ele>90.2</ele>
        <time>2020-07-02T09:17:52Z</time>
      </trkpt>
      <trkpt lat="48.57542" lon="2.25819">
        <ele>90.1</ele>
        <time>2020-07-02T09:17:53Z</time>
      </trkpt>
      <trkpt lat="48.57537" lon="2.25821">
        <ele>90.1</ele>
        <time>2020-07-02T09:17:54Z</time>
      </trkpt>
      <trkpt lat="48.57532" lon="2.25822">
        <ele>90.1</ele>
        <time>2020-07-02T09:17:55Z</time>
      </trkpt>
      <trkpt lat="48.57526" lon="2.25824">
        <ele>90</ele>
        <time>2020-07-02T09:17:56Z</time>
      </trkpt>
      <trkpt lat="48.57521" lon="2.25826">
        <ele>90</ele>
        <time>2020-07-02T09:17:57Z</time>
      </trkpt>
      <trkpt lat="48.57515" lon="2.25827">
        <ele>89.9</ele>
        <time>2020-07-02T09:17:58Z</time>
      </trkpt>
      <trkpt lat="48.57509" lon="2.25829">
        <ele>89.9</ele>
        <time>2020-07-02T09:17:59Z</time>
      </trkpt>
      <trkpt lat="48.57504" lon="2.2583">
        <ele>89.9</ele>
        <time>2020-07-02T09:18:00Z</time>
      </trkpt>
      <trkpt lat="48.57498" lon="2.25832">
        <ele>90</ele>
        <time>2020-07-02T09:18:01Z</time>
      </trkpt>
      <trkpt lat="48.57492" lon="2.25835">
        <ele>90</ele>
        <time>2020-07-02T09:18:02Z</time>
      </trkpt>
      <trkpt lat="48.57486" lon="2.25837">
        <ele>90</ele>
        <time>2020-07-02T09:18:03Z</time>
      </trkpt>
      <trkpt lat="48.5748" lon="2.25839">
        <ele>90.1</ele>
        <time>2020-07-02T09:18:04Z</time>
      </trkpt>
      <trkpt lat="48.57475" lon="2.25841">
        <ele>90.1</ele>
        <time>2020-07-02T09:18:05Z</time>
      </trkpt>
      <trkpt lat="48.5747" lon="2.25843">
        <ele>90.2</ele>
        <time>2020-07-02T09:18:06Z</time>
      </trkpt>
      <trkpt lat="48.57465" lon="2.25845">
        <ele>90.2</ele>
        <time>2020-07-02T09:18:07Z</time>
      </trkpt>
      <trkpt lat="48.5746" lon="2.25848">
        <ele>90.3</ele>
        <time>2020-07-02T09:18:08Z</time>
      </trkpt>
      <trkpt lat="48.57455" lon="2.25849">
        <ele>90.3</ele>
        <time>2020-07-02T09:18:09Z</time>
      </trkpt>
      <trkpt lat="48.57451" lon="2.25851">
        <ele>90.4</ele>
        <time>2020-07-02T09:18:10Z</time>
      </trkpt>
      <trkpt lat="48.57447" lon="2.25852">
        <ele>90.5</ele>
        <time>2020-07-02T09:18:11Z</time>
      </trkpt>
      <trkpt lat="48.57443" lon="2.25853">
        <ele>90.6</ele>
        <time>2020-07-02T09:18:12Z</time>
      </trkpt>
      <trkpt lat="48.57437" lon="2.25852">
        <ele>90.7</ele>
        <time>2020-07-02T09:18:13Z</time>
      </trkpt>
      <trkpt lat="48.57433" lon="2.25852">
        <ele>90.8</ele>
        <time>2020-07-02T09:18:14Z</time>
      </trkpt>
      <trkpt lat="48.5743" lon="2.25852">
        <ele>90.8</ele>
        <time>2020-07-02T09:18:15Z</time>
      </trkpt>
      <trkpt lat="48.57426" lon="2.25852">
        <ele>90.9</ele>
        <time>2020-07-02T09:18:16Z</time>
      </trkpt>
      <trkpt lat="48.57423" lon="2.25853">
        <ele>91</ele>
        <time>2020-07-02T09:18:17Z</time>
      </trkpt>
      <trkpt lat="48.5742" lon="2.25853">
        <ele>91.1</ele>
        <time>2020-07-02T09:18:18Z</time>
      </trkpt>
      <trkpt lat="48.57419" lon="2.25853">
        <ele>91.2</ele>
        <time>2020-07-02T09:18:19Z</time>
      </trkpt>
      <trkpt lat="48.57416" lon="2.2585">
        <ele>91.2</ele>
        <time>2020-07-02T09:18:20Z</time>
      </trkpt>
      <trkpt lat="48.57416" lon="2.25849">
        <ele>91.3</ele>
        <time>2020-07-02T09:18:21Z</time>
      </trkpt>
      <trkpt lat="48.57413" lon="2.25846">
        <ele>91.4</ele>
        <time>2020-07-02T09:18:22Z</time>
      </trkpt>
      <trkpt lat="48.57411" lon="2.25841">
        <ele>91.6</ele>
        <time>2020-07-02T09:18:23Z</time>
      </trkpt>
      <trkpt lat="48.5741" lon="2.2584">
        <ele>91.6</ele>
        <time>2020-07-02T09:18:24Z</time>
      </trkpt>
      <trkpt lat="48.57407" lon="2.25838">
        <ele>91.6</ele>
        <time>2020-07-02T09:18:25Z</time>
      </trkpt>
      <trkpt lat="48.57406" lon="2.25836">
        <ele>91.6</ele>
        <time>2020-07-02T09:18:26Z</time>
      </trkpt>
      <trkpt lat="48.57402" lon="2.25835">
        <ele>91.4</ele>
        <time>2020-07-02T09:18:27Z</time>
      </trkpt>
      <trkpt lat="48.57398" lon="2.25835">
        <ele>91.3</ele>
        <time>2020-07-02T09:18:28Z</time>
      </trkpt>
      <trkpt lat="48.57395" lon="2.25835">
        <ele>91.3</ele>
        <time>2020-07-02T09:18:29Z</time>
      </trkpt>
      <trkpt lat="48.57392" lon="2.25836">
        <ele>91.2</ele>
        <time>2020-07-02T09:18:30Z</time>
      </trkpt>
      <trkpt lat="48.57389" lon="2.25838">
        <ele>91.1</ele>
        <time>2020-07-02T09:18:31Z</time>
      </trkpt>
      <trkpt lat="48.57386" lon="2.25842">
        <ele>91.1</ele>
        <time>2020-07-02T09:18:32Z</time>
      </trkpt>
      <trkpt lat="48.57383" lon="2.25845">
        <ele>91</ele>
        <time>2020-07-02T09:18:33Z</time>
      </trkpt>
      <trkpt lat="48.57381" lon="2.2585">
        <ele>91</ele>
        <time>2020-07-02T09:18:34Z</time>
      </trkpt>
      <trkpt lat="48.57379" lon="2.25855">
        <ele>90.9</ele>
        <time>2020-07-02T09:18:35Z</time>
      </trkpt>
      <trkpt lat="48.57376" lon="2.25861">
        <ele>90.9</ele>
        <time>2020-07-02T09:18:36Z</time>
      </trkpt>
      <trkpt lat="48.57374" lon="2.25867">
        <ele>90.8</ele>
        <time>2020-07-02T09:18:37Z</time>
      </trkpt>
      <trkpt lat="48.57372" lon="2.25873">
        <ele>90.8</ele>
        <time>2020-07-02T09:18:38Z</time>
      </trkpt>
      <trkpt lat="48.5737" lon="2.2588">
        <ele>90.7</ele>
        <time>2020-07-02T09:18:39Z</time>
      </trkpt>
      <trkpt lat="48.57368" lon="2.25887">
        <ele>90.6</ele>
        <time>2020-07-02T09:18:40Z</time>
      </trkpt>
      <trkpt lat="48.57365" lon="2.25893">
        <ele>90.5</ele>
        <time>2020-07-02T09:18:41Z</time>
      </trkpt>
      <trkpt lat="48.57361" lon="2.25897">
        <ele>90.4</ele>
        <time>2020-07-02T09:18:42Z</time>
      </trkpt>
      <trkpt lat="48.57356" lon="2.25898">
        <ele>90.4</ele>
        <time>2020-07-02T09:18:43Z</time>
      </trkpt>
      <trkpt lat="48.5735" lon="2.259">
        <ele>90.3</ele>
        <time>2020-07-02T09:18:44Z</time>
      </trkpt>
      <trkpt lat="48.57345" lon="2.25902">
        <ele>90.3</ele>
        <time>2020-07-02T09:18:45Z</time>
      </trkpt>
      <trkpt lat="48.5734" lon="2.25904">
        <ele>90.3</ele>
        <time>2020-07-02T09:18:46Z</time>
      </trkpt>
      <trkpt lat="48.57335" lon="2.25905">
        <ele>90.2</ele>
        <time>2020-07-02T09:18:47Z</time>
      </trkpt>
      <trkpt lat="48.57329" lon="2.25907">
        <ele>90.2</ele>
        <time>2020-07-02T09:18:48Z</time>
      </trkpt>
      <trkpt lat="48.57324" lon="2.25909">
        <ele>90.2</ele>
        <time>2020-07-02T09:18:49Z</time>
      </trkpt>
      <trkpt lat="48.57319" lon="2.2591">
        <ele>90.1</ele>
        <time>2020-07-02T09:18:50Z</time>
      </trkpt>
      <trkpt lat="48.57314" lon="2.25913">
        <ele>90.1</ele>
        <time>2020-07-02T09:18:51Z</time>
      </trkpt>
      <trkpt lat="48.57308" lon="2.25916">
        <ele>90.1</ele>
        <time>2020-07-02T09:18:52Z</time>
      </trkpt>
      <trkpt lat="48.57302" lon="2.25918">
        <ele>90</ele>
        <time>2020-07-02T09:18:53Z</time>
      </trkpt>
      <trkpt lat="48.57296" lon="2.25921">
        <ele>90</ele>
        <time>2020-07-02T09:18:54Z</time>
      </trkpt>
      <trkpt lat="48.5729" lon="2.25923">
        <ele>89.9</ele>
        <time>2020-07-02T09:18:55Z</time>
      </trkpt>
      <trkpt lat="48.57285" lon="2.25925">
        <ele>89.8</ele>
        <time>2020-07-02T09:18:56Z</time>
      </trkpt>
      <trkpt lat="48.57279" lon="2.25925">
        <ele>89.8</ele>
        <time>2020-07-02T09:18:57Z</time>
      </trkpt>
      <trkpt lat="48.57273" lon="2.25927">
        <ele>89.7</ele>
        <time>2020-07-02T09:18:58Z</time>
      </trkpt>
      <trkpt lat="48.57267" lon="2.25928">
        <ele>89.7</ele>
        <time>2020-07-02T09:18:59Z</time>
      </trkpt>
      <trkpt lat="48.57261" lon="2.2593">
        <ele>89.7</ele>
        <time>2020-07-02T09:19:00Z</time>
      </trkpt>
      <trkpt lat="48.57256" lon="2.25931">
        <ele>89.7</ele>
        <time>2020-07-02T09:19:01Z</time>
      </trkpt>
      <trkpt lat="48.5725" lon="2.25933">
        <ele>89.7</ele>
        <time>2020-07-02T09:19:02Z</time>
      </trkpt>
      <trkpt lat="48.57245" lon="2.25935">
        <ele>89.8</ele>
        <time>2020-07-02T09:19:03Z</time>
      </trkpt>
      <trkpt lat="48.57239" lon="2.25937">
        <ele>89.8</ele>
        <time>2020-07-02T09:19:04Z</time>
      </trkpt>
      <trkpt lat="48.57234" lon="2.25939">
        <ele>89.9</ele>
        <time>2020-07-02T09:19:05Z</time>
      </trkpt>
      <trkpt lat="48.57228" lon="2.2594">
        <ele>89.9</ele>
        <time>2020-07-02T09:19:06Z</time>
      </trkpt>
      <trkpt lat="48.57222" lon="2.25942">
        <ele>89.9</ele>
        <time>2020-07-02T09:19:07Z</time>
      </trkpt>
      <trkpt lat="48.57216" lon="2.25942">
        <ele>89.9</ele>
        <time>2020-07-02T09:19:08Z</time>
      </trkpt>
      <trkpt lat="48.57209" lon="2.25943">
        <ele>89.9</ele>
        <time>2020-07-02T09:19:09Z</time>
      </trkpt>
      <trkpt lat="48.57203" lon="2.25944">
        <ele>89.9</ele>
        <time>2020-07-02T09:19:10Z</time>
      </trkpt>
      <trkpt lat="48.57198" lon="2.25944">
        <ele>89.9</ele>
        <time>2020-07-02T09:19:11Z</time>
      </trkpt>
      <trkpt lat="48.57192" lon="2.25946">
        <ele>89.9</ele>
        <time>2020-07-02T09:19:12Z</time>
      </trkpt>
      <trkpt lat="48.57186" lon="2.25948">
        <ele>89.9</ele>
        <time>2020-07-02T09:19:13Z</time>
      </trkpt>
      <trkpt lat="48.5718" lon="2.2595">
        <ele>89.9</ele>
        <time>2020-07-02T09:19:14Z</time>
      </trkpt>
      <trkpt lat="48.57174" lon="2.25952">
        <ele>89.9</ele>
        <time>2020-07-02T09:19:15Z</time>
      </trkpt>
      <trkpt lat="48.57168" lon="2.25954">
        <ele>89.9</ele>
        <time>2020-07-02T09:19:16Z</time>
      </trkpt>
      <trkpt lat="48.57162" lon="2.25956">
        <ele>89.9</ele>
        <time>2020-07-02T09:19:17Z</time>
      </trkpt>
      <trkpt lat="48.57156" lon="2.25957">
        <ele>89.8</ele>
        <time>2020-07-02T09:19:18Z</time>
      </trkpt>
      <trkpt lat="48.5715" lon="2.25957">
        <ele>89.8</ele>
        <time>2020-07-02T09:19:19Z</time>
      </trkpt>
      <trkpt lat="48.57144" lon="2.25958">
        <ele>89.8</ele>
        <time>2020-07-02T09:19:20Z</time>
      </trkpt>
      <trkpt lat="48.57138" lon="2.2596">
        <ele>89.8</ele>
        <time>2020-07-02T09:19:21Z</time>
      </trkpt>
      <trkpt lat="48.57132" lon="2.25961">
        <ele>89.8</ele>
        <time>2020-07-02T09:19:22Z</time>
      </trkpt>
      <trkpt lat="48.57126" lon="2.25963">
        <ele>89.8</ele>
        <time>2020-07-02T09:19:23Z</time>
      </trkpt>
      <trkpt lat="48.57121" lon="2.25965">
        <ele>89.8</ele>
        <time>2020-07-02T09:19:24Z</time>
      </trkpt>
      <trkpt lat="48.57116" lon="2.25966">
        <ele>89.8</ele>
        <time>2020-07-02T09:19:25Z</time>
      </trkpt>
      <trkpt lat="48.5711" lon="2.25968">
        <ele>89.8</ele>
        <time>2020-07-02T09:19:26Z</time>
      </trkpt>
      <trkpt lat="48.57105" lon="2.2597">
        <ele>89.8</ele>
        <time>2020-07-02T09:19:27Z</time>
      </trkpt>
      <trkpt lat="48.57099" lon="2.25971">
        <ele>89.8</ele>
        <time>2020-07-02T09:19:28Z</time>
      </trkpt>
      <trkpt lat="48.57093" lon="2.25973">
        <ele>89.7</ele>
        <time>2020-07-02T09:19:29Z</time>
      </trkpt>
      <trkpt lat="48.57087" lon="2.25974">
        <ele>89.7</ele>
        <time>2020-07-02T09:19:30Z</time>
      </trkpt>
      <trkpt lat="48.57082" lon="2.25976">
        <ele>89.7</ele>
        <time>2020-07-02T09:19:31Z</time>
      </trkpt>
      <trkpt lat="48.57077" lon="2.25978">
        <ele>89.7</ele>
        <time>2020-07-02T09:19:32Z</time>
      </trkpt>
      <trkpt lat="48.57071" lon="2.2598">
        <ele>89.6</ele>
        <time>2020-07-02T09:19:33Z</time>
      </trkpt>
      <trkpt lat="48.57065" lon="2.25982">
        <ele>89.6</ele>
        <time>2020-07-02T09:19:34Z</time>
      </trkpt>
      <trkpt lat="48.57059" lon="2.25983">
        <ele>89.6</ele>
        <time>2020-07-02T09:19:35Z</time>
      </trkpt>
      <trkpt lat="48.57054" lon="2.25985">
        <ele>89.6</ele>
        <time>2020-07-02T09:19:36Z</time>
      </trkpt>
      <trkpt lat="48.57048" lon="2.25986">
        <ele>89.5</ele>
        <time>2020-07-02T09:19:37Z</time>
      </trkpt>
      <trkpt lat="48.57042" lon="2.25987">
        <ele>89.5</ele>
        <time>2020-07-02T09:19:38Z</time>
      </trkpt>
      <trkpt lat="48.57036" lon="2.2599">
        <ele>89.5</ele>
        <time>2020-07-02T09:19:39Z</time>
      </trkpt>
      <trkpt lat="48.5703" lon="2.25991">
        <ele>89.4</ele>
        <time>2020-07-02T09:19:40Z</time>
      </trkpt>
      <trkpt lat="48.57024" lon="2.25993">
        <ele>89.4</ele>
        <time>2020-07-02T09:19:41Z</time>
      </trkpt>
      <trkpt lat="48.57018" lon="2.25995">
        <ele>89.4</ele>
        <time>2020-07-02T09:19:42Z</time>
      </trkpt>
      <trkpt lat="48.57013" lon="2.25997">
        <ele>89.4</ele>
        <time>2020-07-02T09:19:43Z</time>
      </trkpt>
      <trkpt lat="48.57007" lon="2.25999">
        <ele>89.3</ele>
        <time>2020-07-02T09:19:44Z</time>
      </trkpt>
      <trkpt lat="48.57002" lon="2.26002">
        <ele>89.3</ele>
        <time>2020-07-02T09:19:45Z</time>
      </trkpt>
      <trkpt lat="48.56996" lon="2.26004">
        <ele>89.3</ele>
        <time>2020-07-02T09:19:46Z</time>
      </trkpt>
      <trkpt lat="48.56989" lon="2.26007">
        <ele>89.3</ele>
        <time>2020-07-02T09:19:47Z</time>
      </trkpt>
      <trkpt lat="48.56983" lon="2.26009">
        <ele>89.3</ele>
        <time>2020-07-02T09:19:48Z</time>
      </trkpt>
      <trkpt lat="48.56978" lon="2.2601">
        <ele>89.2</ele>
        <time>2020-07-02T09:19:49Z</time>
      </trkpt>
      <trkpt lat="48.56971" lon="2.26012">
        <ele>89.2</ele>
        <time>2020-07-02T09:19:50Z</time>
      </trkpt>
      <trkpt lat="48.56964" lon="2.26014">
        <ele>89.2</ele>
        <time>2020-07-02T09:19:51Z</time>
      </trkpt>
      <trkpt lat="48.56958" lon="2.26015">
        <ele>89.2</ele>
        <time>2020-07-02T09:19:52Z</time>
      </trkpt>
      <trkpt lat="48.56952" lon="2.26017">
        <ele>89.2</ele>
        <time>2020-07-02T09:19:53Z</time>
      </trkpt>
      <trkpt lat="48.56946" lon="2.26018">
        <ele>89.2</ele>
        <time>2020-07-02T09:19:54Z</time>
      </trkpt>
      <trkpt lat="48.56939" lon="2.26021">
        <ele>89.2</ele>
        <time>2020-07-02T09:19:55Z</time>
      </trkpt>
      <trkpt lat="48.56933" lon="2.26022">
        <ele>89.2</ele>
        <time>2020-07-02T09:19:56Z</time>
      </trkpt>
      <trkpt lat="48.56927" lon="2.26024">
        <ele>89.2</ele>
        <time>2020-07-02T09:19:57Z</time>
      </trkpt>
      <trkpt lat="48.5692" lon="2.26026">
        <ele>89.3</ele>
        <time>2020-07-02T09:19:58Z</time>
      </trkpt>
      <trkpt lat="48.56914" lon="2.26028">
        <ele>89.3</ele>
        <time>2020-07-02T09:19:59Z</time>
      </trkpt>
      <trkpt lat="48.56907" lon="2.26031">
        <ele>89.3</ele>
        <time>2020-07-02T09:20:00Z</time>
      </trkpt>
      <trkpt lat="48.56901" lon="2.26034">
        <ele>89.3</ele>
        <time>2020-07-02T09:20:01Z</time>
      </trkpt>
      <trkpt lat="48.56896" lon="2.26036">
        <ele>89.3</ele>
        <time>2020-07-02T09:20:02Z</time>
      </trkpt>
      <trkpt lat="48.5689" lon="2.26038">
        <ele>89.3</ele>
        <time>2020-07-02T09:20:03Z</time>
      </trkpt>
      <trkpt lat="48.56884" lon="2.2604">
        <ele>89.3</ele>
        <time>2020-07-02T09:20:04Z</time>
      </trkpt>
      <trkpt lat="48.56878" lon="2.26042">
        <ele>89.3</ele>
        <time>2020-07-02T09:20:05Z</time>
      </trkpt>
      <trkpt lat="48.56872" lon="2.26044">
        <ele>89.3</ele>
        <time>2020-07-02T09:20:06Z</time>
      </trkpt>
      <trkpt lat="48.56866" lon="2.26045">
        <ele>89.3</ele>
        <time>2020-07-02T09:20:07Z</time>
      </trkpt>
      <trkpt lat="48.5686" lon="2.26047">
        <ele>89.3</ele>
        <time>2020-07-02T09:20:08Z</time>
      </trkpt>
      <trkpt lat="48.56854" lon="2.26049">
        <ele>89.3</ele>
        <time>2020-07-02T09:20:09Z</time>
      </trkpt>
      <trkpt lat="48.56848" lon="2.26051">
        <ele>89.3</ele>
        <time>2020-07-02T09:20:10Z</time>
      </trkpt>
      <trkpt lat="48.56842" lon="2.26052">
        <ele>89.2</ele>
        <time>2020-07-02T09:20:11Z</time>
      </trkpt>
      <trkpt lat="48.56836" lon="2.26053">
        <ele>89.2</ele>
        <time>2020-07-02T09:20:12Z</time>
      </trkpt>
      <trkpt lat="48.5683" lon="2.26055">
        <ele>89.2</ele>
        <time>2020-07-02T09:20:13Z</time>
      </trkpt>
      <trkpt lat="48.56823" lon="2.26057">
        <ele>89.2</ele>
        <time>2020-07-02T09:20:14Z</time>
      </trkpt>
      <trkpt lat="48.56817" lon="2.26059">
        <ele>89.2</ele>
        <time>2020-07-02T09:20:15Z</time>
      </trkpt>
      <trkpt lat="48.56811" lon="2.26061">
        <ele>89.2</ele>
        <time>2020-07-02T09:20:16Z</time>
      </trkpt>
      <trkpt lat="48.56805" lon="2.26063">
        <ele>89.1</ele>
        <time>2020-07-02T09:20:17Z</time>
      </trkpt>
      <trkpt lat="48.56799" lon="2.26065">
        <ele>89.1</ele>
        <time>2020-07-02T09:20:18Z</time>
      </trkpt>
      <trkpt lat="48.56793" lon="2.26067">
        <ele>89.1</ele>
        <time>2020-07-02T09:20:19Z</time>
      </trkpt>
      <trkpt lat="48.56788" lon="2.26069">
        <ele>89.1</ele>
        <time>2020-07-02T09:20:20Z</time>
      </trkpt>
      <trkpt lat="48.56782" lon="2.2607">
        <ele>89.1</ele>
        <time>2020-07-02T09:20:21Z</time>
      </trkpt>
      <trkpt lat="48.56777" lon="2.26072">
        <ele>89.1</ele>
        <time>2020-07-02T09:20:22Z</time>
      </trkpt>
      <trkpt lat="48.56771" lon="2.26074">
        <ele>89</ele>
        <time>2020-07-02T09:20:23Z</time>
      </trkpt>
      <trkpt lat="48.56765" lon="2.26076">
        <ele>89</ele>
        <time>2020-07-02T09:20:24Z</time>
      </trkpt>
      <trkpt lat="48.56759" lon="2.26077">
        <ele>89</ele>
        <time>2020-07-02T09:20:25Z</time>
      </trkpt>
      <trkpt lat="48.56754" lon="2.26079">
        <ele>89</ele>
        <time>2020-07-02T09:20:26Z</time>
      </trkpt>
      <trkpt lat="48.56749" lon="2.2608">
        <ele>89</ele>
        <time>2020-07-02T09:20:27Z</time>
      </trkpt>
      <trkpt lat="48.56743" lon="2.26081">
        <ele>89</ele>
        <time>2020-07-02T09:20:28Z</time>
      </trkpt>
      <trkpt lat="48.56738" lon="2.26083">
        <ele>89</ele>
        <time>2020-07-02T09:20:29Z</time>
      </trkpt>
      <trkpt lat="48.56733" lon="2.26085">
        <ele>89</ele>
        <time>2020-07-02T09:20:30Z</time>
      </trkpt>
      <trkpt lat="48.56727" lon="2.26087">
        <ele>89</ele>
        <time>2020-07-02T09:20:31Z</time>
      </trkpt>
      <trkpt lat="48.56721" lon="2.26089">
        <ele>89</ele>
        <time>2020-07-02T09:20:32Z</time>
      </trkpt>
      <trkpt lat="48.56715" lon="2.26091">
        <ele>89</ele>
        <time>2020-07-02T09:20:33Z</time>
      </trkpt>
      <trkpt lat="48.56709" lon="2.26094">
        <ele>89</ele>
        <time>2020-07-02T09:20:34Z</time>
      </trkpt>
      <trkpt lat="48.56704" lon="2.26096">
        <ele>89.1</ele>
        <time>2020-07-02T09:20:35Z</time>
      </trkpt>
      <trkpt lat="48.56698" lon="2.26099">
        <ele>89.1</ele>
        <time>2020-07-02T09:20:36Z</time>
      </trkpt>
      <trkpt lat="48.56692" lon="2.26101">
        <ele>89</ele>
        <time>2020-07-02T09:20:37Z</time>
      </trkpt>
      <trkpt lat="48.56688" lon="2.26103">
        <ele>89</ele>
        <time>2020-07-02T09:20:38Z</time>
      </trkpt>
      <trkpt lat="48.56682" lon="2.26105">
        <ele>88.9</ele>
        <time>2020-07-02T09:20:39Z</time>
      </trkpt>
      <trkpt lat="48.56676" lon="2.26108">
        <ele>88.9</ele>
        <time>2020-07-02T09:20:40Z</time>
      </trkpt>
      <trkpt lat="48.5667" lon="2.26111">
        <ele>88.8</ele>
        <time>2020-07-02T09:20:41Z</time>
      </trkpt>
      <trkpt lat="48.56663" lon="2.26113">
        <ele>88.8</ele>
        <time>2020-07-02T09:20:42Z</time>
      </trkpt>
      <trkpt lat="48.56657" lon="2.26115">
        <ele>88.7</ele>
        <time>2020-07-02T09:20:43Z</time>
      </trkpt>
      <trkpt lat="48.56651" lon="2.26117">
        <ele>88.6</ele>
        <time>2020-07-02T09:20:44Z</time>
      </trkpt>
      <trkpt lat="48.56645" lon="2.26119">
        <ele>88.6</ele>
        <time>2020-07-02T09:20:45Z</time>
      </trkpt>
      <trkpt lat="48.56641" lon="2.26121">
        <ele>88.5</ele>
        <time>2020-07-02T09:20:46Z</time>
      </trkpt>
      <trkpt lat="48.56636" lon="2.26122">
        <ele>88.5</ele>
        <time>2020-07-02T09:20:47Z</time>
      </trkpt>
      <trkpt lat="48.56632" lon="2.26124">
        <ele>88.4</ele>
        <time>2020-07-02T09:20:48Z</time>
      </trkpt>
      <trkpt lat="48.56627" lon="2.26126">
        <ele>88.4</ele>
        <time>2020-07-02T09:20:49Z</time>
      </trkpt>
      <trkpt lat="48.56623" lon="2.26128">
        <ele>88.3</ele>
        <time>2020-07-02T09:20:50Z</time>
      </trkpt>
      <trkpt lat="48.56619" lon="2.26129">
        <ele>88.3</ele>
        <time>2020-07-02T09:20:51Z</time>
      </trkpt>
      <trkpt lat="48.56614" lon="2.26131">
        <ele>88.3</ele>
        <time>2020-07-02T09:20:52Z</time>
      </trkpt>
      <trkpt lat="48.5661" lon="2.26133">
        <ele>88.3</ele>
        <time>2020-07-02T09:20:53Z</time>
      </trkpt>
      <trkpt lat="48.56605" lon="2.26134">
        <ele>88.3</ele>
        <time>2020-07-02T09:20:54Z</time>
      </trkpt>
      <trkpt lat="48.566" lon="2.26136">
        <ele>88.2</ele>
        <time>2020-07-02T09:20:55Z</time>
      </trkpt>
      <trkpt lat="48.56595" lon="2.26138">
        <ele>88.2</ele>
        <time>2020-07-02T09:20:56Z</time>
      </trkpt>
      <trkpt lat="48.5659" lon="2.2614">
        <ele>88.2</ele>
        <time>2020-07-02T09:20:57Z</time>
      </trkpt>
      <trkpt lat="48.56585" lon="2.26141">
        <ele>88.2</ele>
        <time>2020-07-02T09:20:58Z</time>
      </trkpt>
      <trkpt lat="48.56579" lon="2.26143">
        <ele>88.1</ele>
        <time>2020-07-02T09:20:59Z</time>
      </trkpt>
      <trkpt lat="48.56575" lon="2.26143">
        <ele>88.1</ele>
        <time>2020-07-02T09:21:00Z</time>
      </trkpt>
      <trkpt lat="48.56571" lon="2.26144">
        <ele>88</ele>
        <time>2020-07-02T09:21:01Z</time>
      </trkpt>
      <trkpt lat="48.56566" lon="2.26142">
        <ele>87.9</ele>
        <time>2020-07-02T09:21:02Z</time>
      </trkpt>
      <trkpt lat="48.56562" lon="2.26139">
        <ele>87.9</ele>
        <time>2020-07-02T09:21:03Z</time>
      </trkpt>
      <trkpt lat="48.56557" lon="2.26134">
        <ele>87.9</ele>
        <time>2020-07-02T09:21:04Z</time>
      </trkpt>
      <trkpt lat="48.56553" lon="2.2613">
        <ele>87.9</ele>
        <time>2020-07-02T09:21:05Z</time>
      </trkpt>
      <trkpt lat="48.56549" lon="2.26129">
        <ele>87.9</ele>
        <time>2020-07-02T09:21:06Z</time>
      </trkpt>
      <trkpt lat="48.56544" lon="2.26128">
        <ele>87.9</ele>
        <time>2020-07-02T09:21:07Z</time>
      </trkpt>
      <trkpt lat="48.5654" lon="2.26129">
        <ele>87.9</ele>
        <time>2020-07-02T09:21:08Z</time>
      </trkpt>
      <trkpt lat="48.56536" lon="2.26131">
        <ele>87.8</ele>
        <time>2020-07-02T09:21:09Z</time>
      </trkpt>
      <trkpt lat="48.56531" lon="2.26135">
        <ele>87.8</ele>
        <time>2020-07-02T09:21:10Z</time>
      </trkpt>
      <trkpt lat="48.56527" lon="2.26138">
        <ele>87.8</ele>
        <time>2020-07-02T09:21:11Z</time>
      </trkpt>
      <trkpt lat="48.56523" lon="2.26142">
        <ele>87.8</ele>
        <time>2020-07-02T09:21:12Z</time>
      </trkpt>
      <trkpt lat="48.5652" lon="2.26146">
        <ele>87.8</ele>
        <time>2020-07-02T09:21:13Z</time>
      </trkpt>
      <trkpt lat="48.56516" lon="2.26152">
        <ele>87.8</ele>
        <time>2020-07-02T09:21:14Z</time>
      </trkpt>
      <trkpt lat="48.56513" lon="2.26161">
        <ele>87.7</ele>
        <time>2020-07-02T09:21:15Z</time>
      </trkpt>
      <trkpt lat="48.56511" lon="2.26169">
        <ele>87.7</ele>
        <time>2020-07-02T09:21:16Z</time>
      </trkpt>
      <trkpt lat="48.56509" lon="2.26179">
        <ele>87.7</ele>
        <time>2020-07-02T09:21:17Z</time>
      </trkpt>
      <trkpt lat="48.56504" lon="2.26187">
        <ele>87.7</ele>
        <time>2020-07-02T09:21:18Z</time>
      </trkpt>
      <trkpt lat="48.56501" lon="2.26193">
        <ele>87.7</ele>
        <time>2020-07-02T09:21:19Z</time>
      </trkpt>
      <trkpt lat="48.56495" lon="2.26195">
        <ele>87.6</ele>
        <time>2020-07-02T09:21:20Z</time>
      </trkpt>
      <trkpt lat="48.56489" lon="2.26197">
        <ele>87.6</ele>
        <time>2020-07-02T09:21:21Z</time>
      </trkpt>
      <trkpt lat="48.56483" lon="2.26201">
        <ele>87.6</ele>
        <time>2020-07-02T09:21:22Z</time>
      </trkpt>
      <trkpt lat="48.56477" lon="2.26204">
        <ele>87.7</ele>
        <time>2020-07-02T09:21:23Z</time>
      </trkpt>
      <trkpt lat="48.56471" lon="2.26208">
        <ele>87.7</ele>
        <time>2020-07-02T09:21:24Z</time>
      </trkpt>
      <trkpt lat="48.56465" lon="2.26211">
        <ele>87.7</ele>
        <time>2020-07-02T09:21:25Z</time>
      </trkpt>
      <trkpt lat="48.56459" lon="2.26214">
        <ele>87.7</ele>
        <time>2020-07-02T09:21:26Z</time>
      </trkpt>
      <trkpt lat="48.56453" lon="2.26217">
        <ele>87.8</ele>
        <time>2020-07-02T09:21:27Z</time>
      </trkpt>
      <trkpt lat="48.56447" lon="2.26221">
        <ele>87.8</ele>
        <time>2020-07-02T09:21:28Z</time>
      </trkpt>
      <trkpt lat="48.56441" lon="2.26224">
        <ele>87.8</ele>
        <time>2020-07-02T09:21:29Z</time>
      </trkpt>
      <trkpt lat="48.56435" lon="2.26227">
        <ele>87.9</ele>
        <time>2020-07-02T09:21:30Z</time>
      </trkpt>
      <trkpt lat="48.56429" lon="2.2623">
        <ele>88</ele>
        <time>2020-07-02T09:21:31Z</time>
      </trkpt>
      <trkpt lat="48.56423" lon="2.26234">
        <ele>88.1</ele>
        <time>2020-07-02T09:21:32Z</time>
      </trkpt>
      <trkpt lat="48.56416" lon="2.26237">
        <ele>88.1</ele>
        <time>2020-07-02T09:21:33Z</time>
      </trkpt>
      <trkpt lat="48.56411" lon="2.26241">
        <ele>88</ele>
        <time>2020-07-02T09:21:34Z</time>
      </trkpt>
      <trkpt lat="48.56405" lon="2.26244">
        <ele>88</ele>
        <time>2020-07-02T09:21:35Z</time>
      </trkpt>
      <trkpt lat="48.564" lon="2.26247">
        <ele>87.9</ele>
        <time>2020-07-02T09:21:36Z</time>
      </trkpt>
      <trkpt lat="48.56394" lon="2.26251">
        <ele>87.9</ele>
        <time>2020-07-02T09:21:37Z</time>
      </trkpt>
      <trkpt lat="48.56388" lon="2.26254">
        <ele>87.9</ele>
        <time>2020-07-02T09:21:38Z</time>
      </trkpt>
      <trkpt lat="48.56381" lon="2.26257">
        <ele>87.9</ele>
        <time>2020-07-02T09:21:39Z</time>
      </trkpt>
      <trkpt lat="48.56375" lon="2.26259">
        <ele>87.8</ele>
        <time>2020-07-02T09:21:40Z</time>
      </trkpt>
      <trkpt lat="48.56368" lon="2.26263">
        <ele>87.8</ele>
        <time>2020-07-02T09:21:41Z</time>
      </trkpt>
      <trkpt lat="48.56363" lon="2.26266">
        <ele>87.7</ele>
        <time>2020-07-02T09:21:42Z</time>
      </trkpt>
      <trkpt lat="48.56356" lon="2.26269">
        <ele>87.7</ele>
        <time>2020-07-02T09:21:43Z</time>
      </trkpt>
      <trkpt lat="48.5635" lon="2.26272">
        <ele>87.6</ele>
        <time>2020-07-02T09:21:44Z</time>
      </trkpt>
      <trkpt lat="48.56344" lon="2.26274">
        <ele>87.6</ele>
        <time>2020-07-02T09:21:45Z</time>
      </trkpt>
      <trkpt lat="48.56338" lon="2.26277">
        <ele>87.6</ele>
        <time>2020-07-02T09:21:46Z</time>
      </trkpt>
      <trkpt lat="48.56332" lon="2.2628">
        <ele>87.5</ele>
        <time>2020-07-02T09:21:47Z</time>
      </trkpt>
      <trkpt lat="48.56326" lon="2.26284">
        <ele>87.4</ele>
        <time>2020-07-02T09:21:48Z</time>
      </trkpt>
      <trkpt lat="48.56319" lon="2.26287">
        <ele>87.3</ele>
        <time>2020-07-02T09:21:49Z</time>
      </trkpt>
      <trkpt lat="48.56312" lon="2.26291">
        <ele>87.3</ele>
        <time>2020-07-02T09:21:50Z</time>
      </trkpt>
      <trkpt lat="48.56306" lon="2.26294">
        <ele>87.2</ele>
        <time>2020-07-02T09:21:51Z</time>
      </trkpt>
      <trkpt lat="48.56299" lon="2.26298">
        <ele>87.2</ele>
        <time>2020-07-02T09:21:52Z</time>
      </trkpt>
      <trkpt lat="48.56293" lon="2.26301">
        <ele>87.1</ele>
        <time>2020-07-02T09:21:53Z</time>
      </trkpt>
      <trkpt lat="48.56286" lon="2.26305">
        <ele>87.1</ele>
        <time>2020-07-02T09:21:54Z</time>
      </trkpt>
      <trkpt lat="48.5628" lon="2.26309">
        <ele>87</ele>
        <time>2020-07-02T09:21:55Z</time>
      </trkpt>
      <trkpt lat="48.56273" lon="2.26313">
        <ele>86.9</ele>
        <time>2020-07-02T09:21:56Z</time>
      </trkpt>
      <trkpt lat="48.56266" lon="2.26317">
        <ele>86.9</ele>
        <time>2020-07-02T09:21:57Z</time>
      </trkpt>
      <trkpt lat="48.56259" lon="2.26321">
        <ele>86.8</ele>
        <time>2020-07-02T09:21:58Z</time>
      </trkpt>
      <trkpt lat="48.56253" lon="2.26326">
        <ele>86.8</ele>
        <time>2020-07-02T09:21:59Z</time>
      </trkpt>
      <trkpt lat="48.56246" lon="2.2633">
        <ele>86.7</ele>
        <time>2020-07-02T09:22:00Z</time>
      </trkpt>
      <trkpt lat="48.5624" lon="2.26334">
        <ele>86.7</ele>
        <time>2020-07-02T09:22:01Z</time>
      </trkpt>
      <trkpt lat="48.56233" lon="2.26339">
        <ele>86.7</ele>
        <time>2020-07-02T09:22:02Z</time>
      </trkpt>
      <trkpt lat="48.56227" lon="2.26343">
        <ele>86.6</ele>
        <time>2020-07-02T09:22:03Z</time>
      </trkpt>
      <trkpt lat="48.5622" lon="2.26348">
        <ele>86.6</ele>
        <time>2020-07-02T09:22:04Z</time>
      </trkpt>
      <trkpt lat="48.56214" lon="2.26352">
        <ele>86.5</ele>
        <time>2020-07-02T09:22:05Z</time>
      </trkpt>
      <trkpt lat="48.56208" lon="2.26357">
        <ele>86.5</ele>
        <time>2020-07-02T09:22:06Z</time>
      </trkpt>
      <trkpt lat="48.56201" lon="2.26362">
        <ele>86.4</ele>
        <time>2020-07-02T09:22:07Z</time>
      </trkpt>
      <trkpt lat="48.56195" lon="2.26367">
        <ele>86.4</ele>
        <time>2020-07-02T09:22:08Z</time>
      </trkpt>
      <trkpt lat="48.56189" lon="2.26371">
        <ele>86.4</ele>
        <time>2020-07-02T09:22:09Z</time>
      </trkpt>
      <trkpt lat="48.56183" lon="2.26377">
        <ele>86.4</ele>
        <time>2020-07-02T09:22:10Z</time>
      </trkpt>
      <trkpt lat="48.56177" lon="2.26382">
        <ele>86.3</ele>
        <time>2020-07-02T09:22:11Z</time>
      </trkpt>
      <trkpt lat="48.56171" lon="2.26387">
        <ele>86.3</ele>
        <time>2020-07-02T09:22:12Z</time>
      </trkpt>
      <trkpt lat="48.56165" lon="2.26392">
        <ele>86.3</ele>
        <time>2020-07-02T09:22:13Z</time>
      </trkpt>
      <trkpt lat="48.56159" lon="2.26396">
        <ele>86.3</ele>
        <time>2020-07-02T09:22:14Z</time>
      </trkpt>
      <trkpt lat="48.56153" lon="2.264">
        <ele>86.3</ele>
        <time>2020-07-02T09:22:15Z</time>
      </trkpt>
      <trkpt lat="48.56147" lon="2.26405">
        <ele>86.3</ele>
        <time>2020-07-02T09:22:16Z</time>
      </trkpt>
      <trkpt lat="48.56141" lon="2.26409">
        <ele>86.3</ele>
        <time>2020-07-02T09:22:17Z</time>
      </trkpt>
      <trkpt lat="48.56135" lon="2.26414">
        <ele>86.3</ele>
        <time>2020-07-02T09:22:18Z</time>
      </trkpt>
      <trkpt lat="48.56129" lon="2.26419">
        <ele>86.3</ele>
        <time>2020-07-02T09:22:19Z</time>
      </trkpt>
      <trkpt lat="48.56123" lon="2.26423">
        <ele>86.4</ele>
        <time>2020-07-02T09:22:20Z</time>
      </trkpt>
      <trkpt lat="48.56117" lon="2.26428">
        <ele>86.4</ele>
        <time>2020-07-02T09:22:21Z</time>
      </trkpt>
      <trkpt lat="48.5611" lon="2.26433">
        <ele>86.4</ele>
        <time>2020-07-02T09:22:22Z</time>
      </trkpt>
      <trkpt lat="48.56104" lon="2.26437">
        <ele>86.4</ele>
        <time>2020-07-02T09:22:23Z</time>
      </trkpt>
      <trkpt lat="48.56097" lon="2.26442">
        <ele>86.4</ele>
        <time>2020-07-02T09:22:24Z</time>
      </trkpt>
      <trkpt lat="48.56091" lon="2.26447">
        <ele>86.4</ele>
        <time>2020-07-02T09:22:25Z</time>
      </trkpt>
      <trkpt lat="48.56085" lon="2.26451">
        <ele>86.3</ele>
        <time>2020-07-02T09:22:26Z</time>
      </trkpt>
      <trkpt lat="48.56079" lon="2.26456">
        <ele>86.3</ele>
        <time>2020-07-02T09:22:27Z</time>
      </trkpt>
      <trkpt lat="48.56073" lon="2.26461">
        <ele>86.3</ele>
        <time>2020-07-02T09:22:28Z</time>
      </trkpt>
      <trkpt lat="48.56067" lon="2.26466">
        <ele>86.2</ele>
        <time>2020-07-02T09:22:29Z</time>
      </trkpt>
      <trkpt lat="48.5606" lon="2.26471">
        <ele>86.2</ele>
        <time>2020-07-02T09:22:30Z</time>
      </trkpt>
      <trkpt lat="48.56054" lon="2.26477">
        <ele>86.1</ele>
        <time>2020-07-02T09:22:31Z</time>
      </trkpt>
      <trkpt lat="48.56048" lon="2.26482">
        <ele>86</ele>
        <time>2020-07-02T09:22:32Z</time>
      </trkpt>
      <trkpt lat="48.56042" lon="2.26488">
        <ele>86</ele>
        <time>2020-07-02T09:22:33Z</time>
      </trkpt>
      <trkpt lat="48.56036" lon="2.26493">
        <ele>85.9</ele>
        <time>2020-07-02T09:22:34Z</time>
      </trkpt>
      <trkpt lat="48.5603" lon="2.26499">
        <ele>85.8</ele>
        <time>2020-07-02T09:22:35Z</time>
      </trkpt>
      <trkpt lat="48.56024" lon="2.26505">
        <ele>85.7</ele>
        <time>2020-07-02T09:22:36Z</time>
      </trkpt>
      <trkpt lat="48.56018" lon="2.26511">
        <ele>85.6</ele>
        <time>2020-07-02T09:22:37Z</time>
      </trkpt>
      <trkpt lat="48.56012" lon="2.26516">
        <ele>85.5</ele>
        <time>2020-07-02T09:22:38Z</time>
      </trkpt>
      <trkpt lat="48.56006" lon="2.26522">
        <ele>85.4</ele>
        <time>2020-07-02T09:22:39Z</time>
      </trkpt>
      <trkpt lat="48.56" lon="2.26528">
        <ele>85.3</ele>
        <time>2020-07-02T09:22:40Z</time>
      </trkpt>
      <trkpt lat="48.55994" lon="2.26534">
        <ele>85.2</ele>
        <time>2020-07-02T09:22:41Z</time>
      </trkpt>
      <trkpt lat="48.55988" lon="2.2654">
        <ele>85.1</ele>
        <time>2020-07-02T09:22:42Z</time>
      </trkpt>
      <trkpt lat="48.55981" lon="2.26546">
        <ele>85</ele>
        <time>2020-07-02T09:22:43Z</time>
      </trkpt>
      <trkpt lat="48.55975" lon="2.26552">
        <ele>84.9</ele>
        <time>2020-07-02T09:22:44Z</time>
      </trkpt>
      <trkpt lat="48.55969" lon="2.26558">
        <ele>84.9</ele>
        <time>2020-07-02T09:22:45Z</time>
      </trkpt>
      <trkpt lat="48.55963" lon="2.26564">
        <ele>84.8</ele>
        <time>2020-07-02T09:22:46Z</time>
      </trkpt>
      <trkpt lat="48.55957" lon="2.2657">
        <ele>84.7</ele>
        <time>2020-07-02T09:22:47Z</time>
      </trkpt>
      <trkpt lat="48.55951" lon="2.26576">
        <ele>84.6</ele>
        <time>2020-07-02T09:22:48Z</time>
      </trkpt>
      <trkpt lat="48.55945" lon="2.26581">
        <ele>84.6</ele>
        <time>2020-07-02T09:22:49Z</time>
      </trkpt>
      <trkpt lat="48.55939" lon="2.26587">
        <ele>84.5</ele>
        <time>2020-07-02T09:22:50Z</time>
      </trkpt>
      <trkpt lat="48.55934" lon="2.26593">
        <ele>84.5</ele>
        <time>2020-07-02T09:22:51Z</time>
      </trkpt>
      <trkpt lat="48.55928" lon="2.26598">
        <ele>84.5</ele>
        <time>2020-07-02T09:22:52Z</time>
      </trkpt>
      <trkpt lat="48.55922" lon="2.26603">
        <ele>84.5</ele>
        <time>2020-07-02T09:22:53Z</time>
      </trkpt>
      <trkpt lat="48.55916" lon="2.26608">
        <ele>84.5</ele>
        <time>2020-07-02T09:22:54Z</time>
      </trkpt>
      <trkpt lat="48.55911" lon="2.26613">
        <ele>84.5</ele>
        <time>2020-07-02T09:22:55Z</time>
      </trkpt>
      <trkpt lat="48.55905" lon="2.26619">
        <ele>84.5</ele>
        <time>2020-07-02T09:22:56Z</time>
      </trkpt>
      <trkpt lat="48.559" lon="2.26623">
        <ele>84.5</ele>
        <time>2020-07-02T09:22:57Z</time>
      </trkpt>
      <trkpt lat="48.55894" lon="2.26628">
        <ele>84.5</ele>
        <time>2020-07-02T09:22:58Z</time>
      </trkpt>
      <trkpt lat="48.55889" lon="2.26633">
        <ele>84.6</ele>
        <time>2020-07-02T09:22:59Z</time>
      </trkpt>
      <trkpt lat="48.55884" lon="2.26638">
        <ele>84.6</ele>
        <time>2020-07-02T09:23:00Z</time>
      </trkpt>
      <trkpt lat="48.55879" lon="2.26643">
        <ele>84.5</ele>
        <time>2020-07-02T09:23:01Z</time>
      </trkpt>
      <trkpt lat="48.55874" lon="2.26648">
        <ele>84.5</ele>
        <time>2020-07-02T09:23:02Z</time>
      </trkpt>
      <trkpt lat="48.55869" lon="2.26652">
        <ele>84.5</ele>
        <time>2020-07-02T09:23:03Z</time>
      </trkpt>
      <trkpt lat="48.55865" lon="2.26657">
        <ele>84.5</ele>
        <time>2020-07-02T09:23:04Z</time>
      </trkpt>
      <trkpt lat="48.5586" lon="2.26661">
        <ele>84.5</ele>
        <time>2020-07-02T09:23:05Z</time>
      </trkpt>
      <trkpt lat="48.55855" lon="2.26664">
        <ele>84.4</ele>
        <time>2020-07-02T09:23:06Z</time>
      </trkpt>
      <trkpt lat="48.5585" lon="2.26665">
        <ele>84.3</ele>
        <time>2020-07-02T09:23:07Z</time>
      </trkpt>
      <trkpt lat="48.55845" lon="2.26663">
        <ele>84.3</ele>
        <time>2020-07-02T09:23:08Z</time>
      </trkpt>
      <trkpt lat="48.55839" lon="2.26663">
        <ele>84.3</ele>
        <time>2020-07-02T09:23:09Z</time>
      </trkpt>
      <trkpt lat="48.55834" lon="2.26663">
        <ele>84.2</ele>
        <time>2020-07-02T09:23:10Z</time>
      </trkpt>
      <trkpt lat="48.55829" lon="2.26666">
        <ele>84.2</ele>
        <time>2020-07-02T09:23:11Z</time>
      </trkpt>
      <trkpt lat="48.55824" lon="2.26671">
        <ele>84.2</ele>
        <time>2020-07-02T09:23:12Z</time>
      </trkpt>
      <trkpt lat="48.55822" lon="2.26679">
        <ele>84.2</ele>
        <time>2020-07-02T09:23:13Z</time>
      </trkpt>
      <trkpt lat="48.55821" lon="2.26687">
        <ele>84.3</ele>
        <time>2020-07-02T09:23:14Z</time>
      </trkpt>
      <trkpt lat="48.5582" lon="2.26696">
        <ele>84.3</ele>
        <time>2020-07-02T09:23:15Z</time>
      </trkpt>
      <trkpt lat="48.55819" lon="2.26704">
        <ele>84.3</ele>
        <time>2020-07-02T09:23:16Z</time>
      </trkpt>
      <trkpt lat="48.55815" lon="2.26712">
        <ele>84.3</ele>
        <time>2020-07-02T09:23:17Z</time>
      </trkpt>
      <trkpt lat="48.55812" lon="2.2672">
        <ele>84.2</ele>
        <time>2020-07-02T09:23:18Z</time>
      </trkpt>
      <trkpt lat="48.55807" lon="2.26725">
        <ele>84.1</ele>
        <time>2020-07-02T09:23:19Z</time>
      </trkpt>
      <trkpt lat="48.55801" lon="2.2673">
        <ele>84</ele>
        <time>2020-07-02T09:23:20Z</time>
      </trkpt>
      <trkpt lat="48.55796" lon="2.26736">
        <ele>84</ele>
        <time>2020-07-02T09:23:21Z</time>
      </trkpt>
      <trkpt lat="48.55791" lon="2.26742">
        <ele>83.9</ele>
        <time>2020-07-02T09:23:22Z</time>
      </trkpt>
      <trkpt lat="48.55786" lon="2.26748">
        <ele>83.8</ele>
        <time>2020-07-02T09:23:23Z</time>
      </trkpt>
      <trkpt lat="48.55781" lon="2.26754">
        <ele>83.7</ele>
        <time>2020-07-02T09:23:24Z</time>
      </trkpt>
      <trkpt lat="48.55776" lon="2.2676">
        <ele>83.7</ele>
        <time>2020-07-02T09:23:25Z</time>
      </trkpt>
      <trkpt lat="48.55771" lon="2.26767">
        <ele>83.6</ele>
        <time>2020-07-02T09:23:26Z</time>
      </trkpt>
      <trkpt lat="48.55765" lon="2.26774">
        <ele>83.5</ele>
        <time>2020-07-02T09:23:27Z</time>
      </trkpt>
      <trkpt lat="48.5576" lon="2.26781">
        <ele>83.4</ele>
        <time>2020-07-02T09:23:28Z</time>
      </trkpt>
      <trkpt lat="48.55754" lon="2.26788">
        <ele>83.3</ele>
        <time>2020-07-02T09:23:29Z</time>
      </trkpt>
      <trkpt lat="48.55749" lon="2.26796">
        <ele>83.2</ele>
        <time>2020-07-02T09:23:30Z</time>
      </trkpt>
      <trkpt lat="48.55743" lon="2.26803">
        <ele>83.1</ele>
        <time>2020-07-02T09:23:31Z</time>
      </trkpt>
      <trkpt lat="48.55738" lon="2.2681">
        <ele>83.1</ele>
        <time>2020-07-02T09:23:32Z</time>
      </trkpt>
      <trkpt lat="48.55732" lon="2.26818">
        <ele>83</ele>
        <time>2020-07-02T09:23:33Z</time>
      </trkpt>
      <trkpt lat="48.55727" lon="2.26825">
        <ele>83</ele>
        <time>2020-07-02T09:23:34Z</time>
      </trkpt>
      <trkpt lat="48.55721" lon="2.26831">
        <ele>82.9</ele>
        <time>2020-07-02T09:23:35Z</time>
      </trkpt>
      <trkpt lat="48.55715" lon="2.26838">
        <ele>82.8</ele>
        <time>2020-07-02T09:23:36Z</time>
      </trkpt>
      <trkpt lat="48.55709" lon="2.26845">
        <ele>82.7</ele>
        <time>2020-07-02T09:23:37Z</time>
      </trkpt>
      <trkpt lat="48.55704" lon="2.26852">
        <ele>82.6</ele>
        <time>2020-07-02T09:23:38Z</time>
      </trkpt>
      <trkpt lat="48.55699" lon="2.26859">
        <ele>82.6</ele>
        <time>2020-07-02T09:23:39Z</time>
      </trkpt>
      <trkpt lat="48.55693" lon="2.26866">
        <ele>82.5</ele>
        <time>2020-07-02T09:23:40Z</time>
      </trkpt>
      <trkpt lat="48.55688" lon="2.26874">
        <ele>82.4</ele>
        <time>2020-07-02T09:23:41Z</time>
      </trkpt>
      <trkpt lat="48.55683" lon="2.26881">
        <ele>82.3</ele>
        <time>2020-07-02T09:23:42Z</time>
      </trkpt>
      <trkpt lat="48.55677" lon="2.26889">
        <ele>82.3</ele>
        <time>2020-07-02T09:23:43Z</time>
      </trkpt>
      <trkpt lat="48.55671" lon="2.26896">
        <ele>82.2</ele>
        <time>2020-07-02T09:23:44Z</time>
      </trkpt>
      <trkpt lat="48.55666" lon="2.26903">
        <ele>82.2</ele>
        <time>2020-07-02T09:23:45Z</time>
      </trkpt>
      <trkpt lat="48.5566" lon="2.2691">
        <ele>82.1</ele>
        <time>2020-07-02T09:23:46Z</time>
      </trkpt>
      <trkpt lat="48.55654" lon="2.26918">
        <ele>82.1</ele>
        <time>2020-07-02T09:23:47Z</time>
      </trkpt>
      <trkpt lat="48.55648" lon="2.26925">
        <ele>82.1</ele>
        <time>2020-07-02T09:23:48Z</time>
      </trkpt>
      <trkpt lat="48.55642" lon="2.26932">
        <ele>82</ele>
        <time>2020-07-02T09:23:49Z</time>
      </trkpt>
      <trkpt lat="48.55637" lon="2.26939">
        <ele>81.9</ele>
        <time>2020-07-02T09:23:50Z</time>
      </trkpt>
      <trkpt lat="48.55631" lon="2.26946">
        <ele>81.9</ele>
        <time>2020-07-02T09:23:51Z</time>
      </trkpt>
      <trkpt lat="48.55625" lon="2.26953">
        <ele>81.9</ele>
        <time>2020-07-02T09:23:52Z</time>
      </trkpt>
      <trkpt lat="48.55619" lon="2.26959">
        <ele>81.8</ele>
        <time>2020-07-02T09:23:53Z</time>
      </trkpt>
      <trkpt lat="48.55613" lon="2.26967">
        <ele>81.8</ele>
        <time>2020-07-02T09:23:54Z</time>
      </trkpt>
      <trkpt lat="48.55608" lon="2.26974">
        <ele>81.7</ele>
        <time>2020-07-02T09:23:55Z</time>
      </trkpt>
      <trkpt lat="48.55603" lon="2.26981">
        <ele>81.7</ele>
        <time>2020-07-02T09:23:56Z</time>
      </trkpt>
      <trkpt lat="48.55598" lon="2.26989">
        <ele>81.6</ele>
        <time>2020-07-02T09:23:57Z</time>
      </trkpt>
      <trkpt lat="48.55592" lon="2.26997">
        <ele>81.6</ele>
        <time>2020-07-02T09:23:58Z</time>
      </trkpt>
      <trkpt lat="48.55587" lon="2.27004">
        <ele>81.5</ele>
        <time>2020-07-02T09:23:59Z</time>
      </trkpt>
      <trkpt lat="48.55581" lon="2.27011">
        <ele>81.5</ele>
        <time>2020-07-02T09:24:00Z</time>
      </trkpt>
      <trkpt lat="48.55576" lon="2.27018">
        <ele>81.5</ele>
        <time>2020-07-02T09:24:01Z</time>
      </trkpt>
      <trkpt lat="48.55571" lon="2.27026">
        <ele>81.5</ele>
        <time>2020-07-02T09:24:02Z</time>
      </trkpt>
      <trkpt lat="48.55566" lon="2.27033">
        <ele>81.5</ele>
        <time>2020-07-02T09:24:03Z</time>
      </trkpt>
      <trkpt lat="48.55561" lon="2.27041">
        <ele>81.5</ele>
        <time>2020-07-02T09:24:04Z</time>
      </trkpt>
      <trkpt lat="48.55556" lon="2.27049">
        <ele>81.5</ele>
        <time>2020-07-02T09:24:05Z</time>
      </trkpt>
      <trkpt lat="48.55551" lon="2.27056">
        <ele>81.5</ele>
        <time>2020-07-02T09:24:06Z</time>
      </trkpt>
      <trkpt lat="48.55545" lon="2.27064">
        <ele>81.5</ele>
        <time>2020-07-02T09:24:07Z</time>
      </trkpt>
      <trkpt lat="48.5554" lon="2.27071">
        <ele>81.5</ele>
        <time>2020-07-02T09:24:08Z</time>
      </trkpt>
      <trkpt lat="48.55535" lon="2.27078">
        <ele>81.5</ele>
        <time>2020-07-02T09:24:09Z</time>
      </trkpt>
      <trkpt lat="48.5553" lon="2.27085">
        <ele>81.5</ele>
        <time>2020-07-02T09:24:10Z</time>
      </trkpt>
      <trkpt lat="48.55525" lon="2.27092">
        <ele>81.5</ele>
        <time>2020-07-02T09:24:11Z</time>
      </trkpt>
      <trkpt lat="48.5552" lon="2.27099">
        <ele>81.4</ele>
        <time>2020-07-02T09:24:12Z</time>
      </trkpt>
      <trkpt lat="48.55515" lon="2.27106">
        <ele>81.4</ele>
        <time>2020-07-02T09:24:13Z</time>
      </trkpt>
      <trkpt lat="48.5551" lon="2.27114">
        <ele>81.3</ele>
        <time>2020-07-02T09:24:14Z</time>
      </trkpt>
      <trkpt lat="48.55506" lon="2.2712">
        <ele>81.2</ele>
        <time>2020-07-02T09:24:15Z</time>
      </trkpt>
      <trkpt lat="48.55501" lon="2.27127">
        <ele>81.2</ele>
        <time>2020-07-02T09:24:16Z</time>
      </trkpt>
      <trkpt lat="48.55497" lon="2.27133">
        <ele>81.2</ele>
        <time>2020-07-02T09:24:17Z</time>
      </trkpt>
      <trkpt lat="48.55492" lon="2.27139">
        <ele>81.1</ele>
        <time>2020-07-02T09:24:18Z</time>
      </trkpt>
      <trkpt lat="48.55488" lon="2.27145">
        <ele>81.1</ele>
        <time>2020-07-02T09:24:19Z</time>
      </trkpt>
      <trkpt lat="48.55483" lon="2.27152">
        <ele>81.1</ele>
        <time>2020-07-02T09:24:20Z</time>
      </trkpt>
      <trkpt lat="48.55478" lon="2.27158">
        <ele>81</ele>
        <time>2020-07-02T09:24:21Z</time>
      </trkpt>
      <trkpt lat="48.55474" lon="2.27164">
        <ele>81</ele>
        <time>2020-07-02T09:24:22Z</time>
      </trkpt>
      <trkpt lat="48.55469" lon="2.27171">
        <ele>80.9</ele>
        <time>2020-07-02T09:24:23Z</time>
      </trkpt>
      <trkpt lat="48.55464" lon="2.27178">
        <ele>80.9</ele>
        <time>2020-07-02T09:24:24Z</time>
      </trkpt>
      <trkpt lat="48.55461" lon="2.27186">
        <ele>80.8</ele>
        <time>2020-07-02T09:24:25Z</time>
      </trkpt>
      <trkpt lat="48.55457" lon="2.27195">
        <ele>80.8</ele>
        <time>2020-07-02T09:24:26Z</time>
      </trkpt>
      <trkpt lat="48.55453" lon="2.27204">
        <ele>80.7</ele>
        <time>2020-07-02T09:24:27Z</time>
      </trkpt>
      <trkpt lat="48.5545" lon="2.27213">
        <ele>80.7</ele>
        <time>2020-07-02T09:24:28Z</time>
      </trkpt>
      <trkpt lat="48.55446" lon="2.27223">
        <ele>80.7</ele>
        <time>2020-07-02T09:24:29Z</time>
      </trkpt>
      <trkpt lat="48.55443" lon="2.27233">
        <ele>80.7</ele>
        <time>2020-07-02T09:24:30Z</time>
      </trkpt>
      <trkpt lat="48.55439" lon="2.27242">
        <ele>80.6</ele>
        <time>2020-07-02T09:24:31Z</time>
      </trkpt>
      <trkpt lat="48.55436" lon="2.27251">
        <ele>80.6</ele>
        <time>2020-07-02T09:24:32Z</time>
      </trkpt>
      <trkpt lat="48.55432" lon="2.2726">
        <ele>80.6</ele>
        <time>2020-07-02T09:24:33Z</time>
      </trkpt>
      <trkpt lat="48.55428" lon="2.27269">
        <ele>80.6</ele>
        <time>2020-07-02T09:24:34Z</time>
      </trkpt>
      <trkpt lat="48.55425" lon="2.27278">
        <ele>80.6</ele>
        <time>2020-07-02T09:24:35Z</time>
      </trkpt>
      <trkpt lat="48.5542" lon="2.27287">
        <ele>80.6</ele>
        <time>2020-07-02T09:24:36Z</time>
      </trkpt>
      <trkpt lat="48.55416" lon="2.27295">
        <ele>80.6</ele>
        <time>2020-07-02T09:24:37Z</time>
      </trkpt>
      <trkpt lat="48.55411" lon="2.27304">
        <ele>80.6</ele>
        <time>2020-07-02T09:24:38Z</time>
      </trkpt>
      <trkpt lat="48.55406" lon="2.27312">
        <ele>80.6</ele>
        <time>2020-07-02T09:24:39Z</time>
      </trkpt>
      <trkpt lat="48.55401" lon="2.2732">
        <ele>80.6</ele>
        <time>2020-07-02T09:24:40Z</time>
      </trkpt>
      <trkpt lat="48.55397" lon="2.27328">
        <ele>80.7</ele>
        <time>2020-07-02T09:24:41Z</time>
      </trkpt>
      <trkpt lat="48.55392" lon="2.27336">
        <ele>80.7</ele>
        <time>2020-07-02T09:24:42Z</time>
      </trkpt>
      <trkpt lat="48.55386" lon="2.27344">
        <ele>80.6</ele>
        <time>2020-07-02T09:24:43Z</time>
      </trkpt>
      <trkpt lat="48.55381" lon="2.27352">
        <ele>80.6</ele>
        <time>2020-07-02T09:24:44Z</time>
      </trkpt>
      <trkpt lat="48.55376" lon="2.2736">
        <ele>80.6</ele>
        <time>2020-07-02T09:24:45Z</time>
      </trkpt>
      <trkpt lat="48.55371" lon="2.27367">
        <ele>80.6</ele>
        <time>2020-07-02T09:24:46Z</time>
      </trkpt>
      <trkpt lat="48.55366" lon="2.27375">
        <ele>80.6</ele>
        <time>2020-07-02T09:24:47Z</time>
      </trkpt>
      <trkpt lat="48.55361" lon="2.27383">
        <ele>80.6</ele>
        <time>2020-07-02T09:24:48Z</time>
      </trkpt>
      <trkpt lat="48.55356" lon="2.27392">
        <ele>80.6</ele>
        <time>2020-07-02T09:24:49Z</time>
      </trkpt>
      <trkpt lat="48.55351" lon="2.27399">
        <ele>80.7</ele>
        <time>2020-07-02T09:24:50Z</time>
      </trkpt>
      <trkpt lat="48.55346" lon="2.27407">
        <ele>80.7</ele>
        <time>2020-07-02T09:24:51Z</time>
      </trkpt>
      <trkpt lat="48.55341" lon="2.27414">
        <ele>80.7</ele>
        <time>2020-07-02T09:24:52Z</time>
      </trkpt>
      <trkpt lat="48.55337" lon="2.27422">
        <ele>80.7</ele>
        <time>2020-07-02T09:24:53Z</time>
      </trkpt>
      <trkpt lat="48.55332" lon="2.27429">
        <ele>80.7</ele>
        <time>2020-07-02T09:24:54Z</time>
      </trkpt>
      <trkpt lat="48.55327" lon="2.27436">
        <ele>80.7</ele>
        <time>2020-07-02T09:24:55Z</time>
      </trkpt>
      <trkpt lat="48.55323" lon="2.27442">
        <ele>80.7</ele>
        <time>2020-07-02T09:24:56Z</time>
      </trkpt>
      <trkpt lat="48.55319" lon="2.27449">
        <ele>80.7</ele>
        <time>2020-07-02T09:24:57Z</time>
      </trkpt>
      <trkpt lat="48.55314" lon="2.27456">
        <ele>80.7</ele>
        <time>2020-07-02T09:24:58Z</time>
      </trkpt>
      <trkpt lat="48.5531" lon="2.27463">
        <ele>80.8</ele>
        <time>2020-07-02T09:24:59Z</time>
      </trkpt>
      <trkpt lat="48.55305" lon="2.27471">
        <ele>80.8</ele>
        <time>2020-07-02T09:25:00Z</time>
      </trkpt>
      <trkpt lat="48.55301" lon="2.27478">
        <ele>80.8</ele>
        <time>2020-07-02T09:25:01Z</time>
      </trkpt>
      <trkpt lat="48.55296" lon="2.27485">
        <ele>80.8</ele>
        <time>2020-07-02T09:25:02Z</time>
      </trkpt>
      <trkpt lat="48.55291" lon="2.27491">
        <ele>80.8</ele>
        <time>2020-07-02T09:25:03Z</time>
      </trkpt>
      <trkpt lat="48.55286" lon="2.27498">
        <ele>80.8</ele>
        <time>2020-07-02T09:25:04Z</time>
      </trkpt>
      <trkpt lat="48.55281" lon="2.27505">
        <ele>80.7</ele>
        <time>2020-07-02T09:25:05Z</time>
      </trkpt>
      <trkpt lat="48.55277" lon="2.27512">
        <ele>80.7</ele>
        <time>2020-07-02T09:25:06Z</time>
      </trkpt>
      <trkpt lat="48.55272" lon="2.27519">
        <ele>80.7</ele>
        <time>2020-07-02T09:25:07Z</time>
      </trkpt>
      <trkpt lat="48.55268" lon="2.27528">
        <ele>80.7</ele>
        <time>2020-07-02T09:25:08Z</time>
      </trkpt>
      <trkpt lat="48.55263" lon="2.27535">
        <ele>80.7</ele>
        <time>2020-07-02T09:25:09Z</time>
      </trkpt>
      <trkpt lat="48.55258" lon="2.27542">
        <ele>80.7</ele>
        <time>2020-07-02T09:25:10Z</time>
      </trkpt>
      <trkpt lat="48.55253" lon="2.27549">
        <ele>80.7</ele>
        <time>2020-07-02T09:25:11Z</time>
      </trkpt>
      <trkpt lat="48.55249" lon="2.27557">
        <ele>80.7</ele>
        <time>2020-07-02T09:25:12Z</time>
      </trkpt>
      <trkpt lat="48.55244" lon="2.27565">
        <ele>80.7</ele>
        <time>2020-07-02T09:25:13Z</time>
      </trkpt>
      <trkpt lat="48.55239" lon="2.27573">
        <ele>80.7</ele>
        <time>2020-07-02T09:25:14Z</time>
      </trkpt>
      <trkpt lat="48.55234" lon="2.2758">
        <ele>80.7</ele>
        <time>2020-07-02T09:25:15Z</time>
      </trkpt>
      <trkpt lat="48.5523" lon="2.27587">
        <ele>80.7</ele>
        <time>2020-07-02T09:25:16Z</time>
      </trkpt>
      <trkpt lat="48.55226" lon="2.27594">
        <ele>80.7</ele>
        <time>2020-07-02T09:25:17Z</time>
      </trkpt>
      <trkpt lat="48.55221" lon="2.27601">
        <ele>80.7</ele>
        <time>2020-07-02T09:25:18Z</time>
      </trkpt>
      <trkpt lat="48.55217" lon="2.27608">
        <ele>80.7</ele>
        <time>2020-07-02T09:25:19Z</time>
      </trkpt>
      <trkpt lat="48.55214" lon="2.27616">
        <ele>80.7</ele>
        <time>2020-07-02T09:25:20Z</time>
      </trkpt>
      <trkpt lat="48.55209" lon="2.27624">
        <ele>80.8</ele>
        <time>2020-07-02T09:25:21Z</time>
      </trkpt>
      <trkpt lat="48.55205" lon="2.2763">
        <ele>80.8</ele>
        <time>2020-07-02T09:25:22Z</time>
      </trkpt>
      <trkpt lat="48.55201" lon="2.27634">
        <ele>80.9</ele>
        <time>2020-07-02T09:25:23Z</time>
      </trkpt>
      <trkpt lat="48.55196" lon="2.27641">
        <ele>80.9</ele>
        <time>2020-07-02T09:25:24Z</time>
      </trkpt>
      <trkpt lat="48.55191" lon="2.27645">
        <ele>80.9</ele>
        <time>2020-07-02T09:25:25Z</time>
      </trkpt>
      <trkpt lat="48.55186" lon="2.27649">
        <ele>80.9</ele>
        <time>2020-07-02T09:25:26Z</time>
      </trkpt>
      <trkpt lat="48.55181" lon="2.27655">
        <ele>81</ele>
        <time>2020-07-02T09:25:27Z</time>
      </trkpt>
      <trkpt lat="48.55175" lon="2.2766">
        <ele>81</ele>
        <time>2020-07-02T09:25:28Z</time>
      </trkpt>
      <trkpt lat="48.5517" lon="2.27665">
        <ele>81</ele>
        <time>2020-07-02T09:25:29Z</time>
      </trkpt>
      <trkpt lat="48.55165" lon="2.2767">
        <ele>81</ele>
        <time>2020-07-02T09:25:30Z</time>
      </trkpt>
      <trkpt lat="48.55161" lon="2.27677">
        <ele>81</ele>
        <time>2020-07-02T09:25:31Z</time>
      </trkpt>
      <trkpt lat="48.55156" lon="2.27682">
        <ele>81</ele>
        <time>2020-07-02T09:25:32Z</time>
      </trkpt>
      <trkpt lat="48.55151" lon="2.27688">
        <ele>81</ele>
        <time>2020-07-02T09:25:33Z</time>
      </trkpt>
      <trkpt lat="48.55145" lon="2.27692">
        <ele>81</ele>
        <time>2020-07-02T09:25:34Z</time>
      </trkpt>
      <trkpt lat="48.5514" lon="2.27696">
        <ele>81</ele>
        <time>2020-07-02T09:25:35Z</time>
      </trkpt>
      <trkpt lat="48.55136" lon="2.277">
        <ele>81</ele>
        <time>2020-07-02T09:25:36Z</time>
      </trkpt>
      <trkpt lat="48.55131" lon="2.27705">
        <ele>81</ele>
        <time>2020-07-02T09:25:37Z</time>
      </trkpt>
      <trkpt lat="48.55125" lon="2.27708">
        <ele>81</ele>
        <time>2020-07-02T09:25:38Z</time>
      </trkpt>
      <trkpt lat="48.55119" lon="2.27711">
        <ele>81</ele>
        <time>2020-07-02T09:25:39Z</time>
      </trkpt>
      <trkpt lat="48.55114" lon="2.27713">
        <ele>81</ele>
        <time>2020-07-02T09:25:40Z</time>
      </trkpt>
      <trkpt lat="48.55109" lon="2.27715">
        <ele>81</ele>
        <time>2020-07-02T09:25:41Z</time>
      </trkpt>
      <trkpt lat="48.55104" lon="2.27718">
        <ele>81</ele>
        <time>2020-07-02T09:25:42Z</time>
      </trkpt>
      <trkpt lat="48.55099" lon="2.2772">
        <ele>81.1</ele>
        <time>2020-07-02T09:25:43Z</time>
      </trkpt>
      <trkpt lat="48.55094" lon="2.27722">
        <ele>81.1</ele>
        <time>2020-07-02T09:25:44Z</time>
      </trkpt>
      <trkpt lat="48.55089" lon="2.27724">
        <ele>81.1</ele>
        <time>2020-07-02T09:25:45Z</time>
      </trkpt>
      <trkpt lat="48.55084" lon="2.27726">
        <ele>81.2</ele>
        <time>2020-07-02T09:25:46Z</time>
      </trkpt>
      <trkpt lat="48.55079" lon="2.27728">
        <ele>81.2</ele>
        <time>2020-07-02T09:25:47Z</time>
      </trkpt>
      <trkpt lat="48.55073" lon="2.27731">
        <ele>81.3</ele>
        <time>2020-07-02T09:25:48Z</time>
      </trkpt>
      <trkpt lat="48.55069" lon="2.27734">
        <ele>81.3</ele>
        <time>2020-07-02T09:25:49Z</time>
      </trkpt>
      <trkpt lat="48.55063" lon="2.27736">
        <ele>81.4</ele>
        <time>2020-07-02T09:25:50Z</time>
      </trkpt>
      <trkpt lat="48.55059" lon="2.2774">
        <ele>81.4</ele>
        <time>2020-07-02T09:25:51Z</time>
      </trkpt>
      <trkpt lat="48.55057" lon="2.27739">
        <ele>81.4</ele>
        <time>2020-07-02T09:25:52Z</time>
      </trkpt>
      <trkpt lat="48.55057" lon="2.2774">
        <ele>81.4</ele>
        <time>2020-07-02T09:25:53Z</time>
      </trkpt>
      <trkpt lat="48.55056" lon="2.27741">
        <ele>81.4</ele>
        <time>2020-07-02T09:25:54Z</time>
      </trkpt>
      <trkpt lat="48.55054" lon="2.27741">
        <ele>81.4</ele>
        <time>2020-07-02T09:25:55Z</time>
      </trkpt>
      <trkpt lat="48.55052" lon="2.27742">
        <ele>81.3</ele>
        <time>2020-07-02T09:25:56Z</time>
      </trkpt>
      <trkpt lat="48.55051" lon="2.27743">
        <ele>81.3</ele>
        <time>2020-07-02T09:25:57Z</time>
      </trkpt>
      <trkpt lat="48.55048" lon="2.27745">
        <ele>81.3</ele>
        <time>2020-07-02T09:25:58Z</time>
      </trkpt>
      <trkpt lat="48.55044" lon="2.27748">
        <ele>81.3</ele>
        <time>2020-07-02T09:25:59Z</time>
      </trkpt>
      <trkpt lat="48.55042" lon="2.27751">
        <ele>81.2</ele>
        <time>2020-07-02T09:26:00Z</time>
      </trkpt>
      <trkpt lat="48.55039" lon="2.27752">
        <ele>81.2</ele>
        <time>2020-07-02T09:26:01Z</time>
      </trkpt>
      <trkpt lat="48.55036" lon="2.27754">
        <ele>81.2</ele>
        <time>2020-07-02T09:26:02Z</time>
      </trkpt>
      <trkpt lat="48.55032" lon="2.27756">
        <ele>81.1</ele>
        <time>2020-07-02T09:26:03Z</time>
      </trkpt>
      <trkpt lat="48.55029" lon="2.27758">
        <ele>81.1</ele>
        <time>2020-07-02T09:26:04Z</time>
      </trkpt>
      <trkpt lat="48.55026" lon="2.2776">
        <ele>81.1</ele>
        <time>2020-07-02T09:26:05Z</time>
      </trkpt>
      <trkpt lat="48.55022" lon="2.27762">
        <ele>81</ele>
        <time>2020-07-02T09:26:06Z</time>
      </trkpt>
      <trkpt lat="48.55017" lon="2.27766">
        <ele>81</ele>
        <time>2020-07-02T09:26:07Z</time>
      </trkpt>
      <trkpt lat="48.55011" lon="2.2777">
        <ele>80.9</ele>
        <time>2020-07-02T09:26:08Z</time>
      </trkpt>
      <trkpt lat="48.55005" lon="2.27774">
        <ele>80.9</ele>
        <time>2020-07-02T09:26:09Z</time>
      </trkpt>
      <trkpt lat="48.55001" lon="2.27776">
        <ele>80.8</ele>
        <time>2020-07-02T09:26:10Z</time>
      </trkpt>
      <trkpt lat="48.54994" lon="2.27781">
        <ele>80.8</ele>
        <time>2020-07-02T09:26:11Z</time>
      </trkpt>
      <trkpt lat="48.54989" lon="2.27783">
        <ele>80.7</ele>
        <time>2020-07-02T09:26:12Z</time>
      </trkpt>
      <trkpt lat="48.54984" lon="2.27786">
        <ele>80.7</ele>
        <time>2020-07-02T09:26:13Z</time>
      </trkpt>
      <trkpt lat="48.54979" lon="2.27789">
        <ele>80.7</ele>
        <time>2020-07-02T09:26:14Z</time>
      </trkpt>
      <trkpt lat="48.54975" lon="2.27792">
        <ele>80.7</ele>
        <time>2020-07-02T09:26:15Z</time>
      </trkpt>
      <trkpt lat="48.54969" lon="2.27794">
        <ele>80.8</ele>
        <time>2020-07-02T09:26:16Z</time>
      </trkpt>
      <trkpt lat="48.54965" lon="2.27797">
        <ele>80.8</ele>
        <time>2020-07-02T09:26:17Z</time>
      </trkpt>
      <trkpt lat="48.54959" lon="2.278">
        <ele>80.8</ele>
        <time>2020-07-02T09:26:18Z</time>
      </trkpt>
      <trkpt lat="48.54955" lon="2.27803">
        <ele>80.9</ele>
        <time>2020-07-02T09:26:19Z</time>
      </trkpt>
      <trkpt lat="48.5495" lon="2.27808">
        <ele>80.9</ele>
        <time>2020-07-02T09:26:20Z</time>
      </trkpt>
      <trkpt lat="48.54945" lon="2.27812">
        <ele>80.9</ele>
        <time>2020-07-02T09:26:21Z</time>
      </trkpt>
      <trkpt lat="48.54941" lon="2.27817">
        <ele>80.9</ele>
        <time>2020-07-02T09:26:22Z</time>
      </trkpt>
      <trkpt lat="48.54937" lon="2.27821">
        <ele>81</ele>
        <time>2020-07-02T09:26:23Z</time>
      </trkpt>
      <trkpt lat="48.54933" lon="2.27824">
        <ele>81</ele>
        <time>2020-07-02T09:26:24Z</time>
      </trkpt>
      <trkpt lat="48.54929" lon="2.27828">
        <ele>81</ele>
        <time>2020-07-02T09:26:25Z</time>
      </trkpt>
      <trkpt lat="48.54924" lon="2.27825">
        <ele>81.1</ele>
        <time>2020-07-02T09:26:26Z</time>
      </trkpt>
      <trkpt lat="48.5492" lon="2.27821">
        <ele>81.1</ele>
        <time>2020-07-02T09:26:27Z</time>
      </trkpt>
      <trkpt lat="48.54916" lon="2.27817">
        <ele>81.1</ele>
        <time>2020-07-02T09:26:28Z</time>
      </trkpt>
      <trkpt lat="48.54912" lon="2.27813">
        <ele>81.2</ele>
        <time>2020-07-02T09:26:29Z</time>
      </trkpt>
      <trkpt lat="48.54908" lon="2.2781">
        <ele>81.2</ele>
        <time>2020-07-02T09:26:30Z</time>
      </trkpt>
      <trkpt lat="48.54905" lon="2.27806">
        <ele>81.2</ele>
        <time>2020-07-02T09:26:31Z</time>
      </trkpt>
      <trkpt lat="48.549" lon="2.27802">
        <ele>81.1</ele>
        <time>2020-07-02T09:26:32Z</time>
      </trkpt>
      <trkpt lat="48.54896" lon="2.27799">
        <ele>81.1</ele>
        <time>2020-07-02T09:26:33Z</time>
      </trkpt>
      <trkpt lat="48.54891" lon="2.27795">
        <ele>81.1</ele>
        <time>2020-07-02T09:26:34Z</time>
      </trkpt>
      <trkpt lat="48.54886" lon="2.2779">
        <ele>81</ele>
        <time>2020-07-02T09:26:35Z</time>
      </trkpt>
      <trkpt lat="48.54881" lon="2.27786">
        <ele>81</ele>
        <time>2020-07-02T09:26:36Z</time>
      </trkpt>
      <trkpt lat="48.54876" lon="2.27782">
        <ele>80.9</ele>
        <time>2020-07-02T09:26:37Z</time>
      </trkpt>
      <trkpt lat="48.54871" lon="2.27778">
        <ele>80.9</ele>
        <time>2020-07-02T09:26:38Z</time>
      </trkpt>
      <trkpt lat="48.54866" lon="2.27774">
        <ele>80.9</ele>
        <time>2020-07-02T09:26:39Z</time>
      </trkpt>
      <trkpt lat="48.5486" lon="2.2777">
        <ele>80.8</ele>
        <time>2020-07-02T09:26:40Z</time>
      </trkpt>
      <trkpt lat="48.54855" lon="2.27765">
        <ele>80.8</ele>
        <time>2020-07-02T09:26:41Z</time>
      </trkpt>
      <trkpt lat="48.5485" lon="2.2776">
        <ele>80.8</ele>
        <time>2020-07-02T09:26:42Z</time>
      </trkpt>
      <trkpt lat="48.54845" lon="2.27757">
        <ele>80.8</ele>
        <time>2020-07-02T09:26:43Z</time>
      </trkpt>
      <trkpt lat="48.5484" lon="2.27754">
        <ele>80.8</ele>
        <time>2020-07-02T09:26:44Z</time>
      </trkpt>
      <trkpt lat="48.54835" lon="2.27751">
        <ele>80.9</ele>
        <time>2020-07-02T09:26:45Z</time>
      </trkpt>
      <trkpt lat="48.5483" lon="2.27747">
        <ele>80.9</ele>
        <time>2020-07-02T09:26:46Z</time>
      </trkpt>
      <trkpt lat="48.54825" lon="2.27743">
        <ele>80.9</ele>
        <time>2020-07-02T09:26:47Z</time>
      </trkpt>
      <trkpt lat="48.54819" lon="2.27738">
        <ele>80.9</ele>
        <time>2020-07-02T09:26:48Z</time>
      </trkpt>
      <trkpt lat="48.54814" lon="2.27733">
        <ele>80.9</ele>
        <time>2020-07-02T09:26:49Z</time>
      </trkpt>
      <trkpt lat="48.54809" lon="2.27729">
        <ele>80.9</ele>
        <time>2020-07-02T09:26:50Z</time>
      </trkpt>
      <trkpt lat="48.54802" lon="2.27726">
        <ele>80.9</ele>
        <time>2020-07-02T09:26:51Z</time>
      </trkpt>
      <trkpt lat="48.54798" lon="2.27723">
        <ele>80.9</ele>
        <time>2020-07-02T09:26:52Z</time>
      </trkpt>
      <trkpt lat="48.54793" lon="2.27719">
        <ele>80.9</ele>
        <time>2020-07-02T09:26:53Z</time>
      </trkpt>
      <trkpt lat="48.54788" lon="2.27715">
        <ele>80.9</ele>
        <time>2020-07-02T09:26:54Z</time>
      </trkpt>
      <trkpt lat="48.54783" lon="2.27711">
        <ele>80.9</ele>
        <time>2020-07-02T09:26:55Z</time>
      </trkpt>
      <trkpt lat="48.54778" lon="2.27707">
        <ele>80.9</ele>
        <time>2020-07-02T09:26:56Z</time>
      </trkpt>
      <trkpt lat="48.54773" lon="2.27703">
        <ele>81</ele>
        <time>2020-07-02T09:26:57Z</time>
      </trkpt>
      <trkpt lat="48.54767" lon="2.27698">
        <ele>81</ele>
        <time>2020-07-02T09:26:58Z</time>
      </trkpt>
      <trkpt lat="48.54761" lon="2.27694">
        <ele>81.1</ele>
        <time>2020-07-02T09:26:59Z</time>
      </trkpt>
      <trkpt lat="48.54757" lon="2.27691">
        <ele>81.1</ele>
        <time>2020-07-02T09:27:00Z</time>
      </trkpt>
      <trkpt lat="48.54754" lon="2.27688">
        <ele>81.1</ele>
        <time>2020-07-02T09:27:01Z</time>
      </trkpt>
      <trkpt lat="48.5475" lon="2.27686">
        <ele>81.1</ele>
        <time>2020-07-02T09:27:02Z</time>
      </trkpt>
      <trkpt lat="48.54746" lon="2.27683">
        <ele>81.1</ele>
        <time>2020-07-02T09:27:03Z</time>
      </trkpt>
      <trkpt lat="48.54741" lon="2.2768">
        <ele>81.1</ele>
        <time>2020-07-02T09:27:04Z</time>
      </trkpt>
      <trkpt lat="48.54736" lon="2.27678">
        <ele>81</ele>
        <time>2020-07-02T09:27:05Z</time>
      </trkpt>
      <trkpt lat="48.54732" lon="2.27675">
        <ele>81</ele>
        <time>2020-07-02T09:27:06Z</time>
      </trkpt>
      <trkpt lat="48.54726" lon="2.27674">
        <ele>81</ele>
        <time>2020-07-02T09:27:07Z</time>
      </trkpt>
      <trkpt lat="48.54721" lon="2.27673">
        <ele>81</ele>
        <time>2020-07-02T09:27:08Z</time>
      </trkpt>
      <trkpt lat="48.54715" lon="2.27672">
        <ele>81</ele>
        <time>2020-07-02T09:27:09Z</time>
      </trkpt>
      <trkpt lat="48.54709" lon="2.27671">
        <ele>81</ele>
        <time>2020-07-02T09:27:10Z</time>
      </trkpt>
      <trkpt lat="48.54704" lon="2.27669">
        <ele>81</ele>
        <time>2020-07-02T09:27:11Z</time>
      </trkpt>
      <trkpt lat="48.547" lon="2.27665">
        <ele>81</ele>
        <time>2020-07-02T09:27:12Z</time>
      </trkpt>
      <trkpt lat="48.54695" lon="2.27661">
        <ele>81.1</ele>
        <time>2020-07-02T09:27:13Z</time>
      </trkpt>
      <trkpt lat="48.54691" lon="2.27657">
        <ele>81.1</ele>
        <time>2020-07-02T09:27:14Z</time>
      </trkpt>
      <trkpt lat="48.54686" lon="2.27655">
        <ele>81.1</ele>
        <time>2020-07-02T09:27:15Z</time>
      </trkpt>
      <trkpt lat="48.54681" lon="2.27652">
        <ele>81.1</ele>
        <time>2020-07-02T09:27:16Z</time>
      </trkpt>
      <trkpt lat="48.54677" lon="2.27648">
        <ele>81.1</ele>
        <time>2020-07-02T09:27:17Z</time>
      </trkpt>
      <trkpt lat="48.54672" lon="2.27644">
        <ele>81.1</ele>
        <time>2020-07-02T09:27:18Z</time>
      </trkpt>
      <trkpt lat="48.54668" lon="2.27638">
        <ele>81.2</ele>
        <time>2020-07-02T09:27:19Z</time>
      </trkpt>
      <trkpt lat="48.54664" lon="2.2763">
        <ele>81.2</ele>
        <time>2020-07-02T09:27:20Z</time>
      </trkpt>
      <trkpt lat="48.5466" lon="2.27623">
        <ele>81.3</ele>
        <time>2020-07-02T09:27:21Z</time>
      </trkpt>
      <trkpt lat="48.54656" lon="2.27616">
        <ele>81.3</ele>
        <time>2020-07-02T09:27:22Z</time>
      </trkpt>
      <trkpt lat="48.54652" lon="2.27611">
        <ele>81.3</ele>
        <time>2020-07-02T09:27:23Z</time>
      </trkpt>
      <trkpt lat="48.54648" lon="2.27607">
        <ele>81.4</ele>
        <time>2020-07-02T09:27:24Z</time>
      </trkpt>
      <trkpt lat="48.54644" lon="2.27601">
        <ele>81.4</ele>
        <time>2020-07-02T09:27:25Z</time>
      </trkpt>
      <trkpt lat="48.5464" lon="2.276">
        <ele>81.5</ele>
        <time>2020-07-02T09:27:26Z</time>
      </trkpt>
      <trkpt lat="48.54636" lon="2.27597">
        <ele>81.5</ele>
        <time>2020-07-02T09:27:27Z</time>
      </trkpt>
      <trkpt lat="48.54632" lon="2.27593">
        <ele>81.6</ele>
        <time>2020-07-02T09:27:28Z</time>
      </trkpt>
      <trkpt lat="48.54628" lon="2.27591">
        <ele>81.6</ele>
        <time>2020-07-02T09:27:29Z</time>
      </trkpt>
      <trkpt lat="48.54623" lon="2.27588">
        <ele>81.7</ele>
        <time>2020-07-02T09:27:30Z</time>
      </trkpt>
      <trkpt lat="48.54619" lon="2.27585">
        <ele>81.7</ele>
        <time>2020-07-02T09:27:31Z</time>
      </trkpt>
      <trkpt lat="48.54614" lon="2.27583">
        <ele>81.8</ele>
        <time>2020-07-02T09:27:32Z</time>
      </trkpt>
      <trkpt lat="48.5461" lon="2.2758">
        <ele>81.8</ele>
        <time>2020-07-02T09:27:33Z</time>
      </trkpt>
      <trkpt lat="48.54605" lon="2.27576">
        <ele>81.9</ele>
        <time>2020-07-02T09:27:34Z</time>
      </trkpt>
      <trkpt lat="48.546" lon="2.27572">
        <ele>81.9</ele>
        <time>2020-07-02T09:27:35Z</time>
      </trkpt>
      <trkpt lat="48.54595" lon="2.27567">
        <ele>81.9</ele>
        <time>2020-07-02T09:27:36Z</time>
      </trkpt>
      <trkpt lat="48.5459" lon="2.27564">
        <ele>82</ele>
        <time>2020-07-02T09:27:37Z</time>
      </trkpt>
      <trkpt lat="48.54586" lon="2.2756">
        <ele>82</ele>
        <time>2020-07-02T09:27:38Z</time>
      </trkpt>
      <trkpt lat="48.54581" lon="2.27557">
        <ele>82.1</ele>
        <time>2020-07-02T09:27:39Z</time>
      </trkpt>
      <trkpt lat="48.54575" lon="2.27555">
        <ele>82.2</ele>
        <time>2020-07-02T09:27:40Z</time>
      </trkpt>
      <trkpt lat="48.54571" lon="2.27551">
        <ele>82.2</ele>
        <time>2020-07-02T09:27:41Z</time>
      </trkpt>
      <trkpt lat="48.54565" lon="2.27548">
        <ele>82.3</ele>
        <time>2020-07-02T09:27:42Z</time>
      </trkpt>
      <trkpt lat="48.54561" lon="2.27545">
        <ele>82.3</ele>
        <time>2020-07-02T09:27:43Z</time>
      </trkpt>
      <trkpt lat="48.54556" lon="2.27541">
        <ele>82.4</ele>
        <time>2020-07-02T09:27:44Z</time>
      </trkpt>
      <trkpt lat="48.54551" lon="2.27537">
        <ele>82.4</ele>
        <time>2020-07-02T09:27:45Z</time>
      </trkpt>
      <trkpt lat="48.54546" lon="2.27533">
        <ele>82.5</ele>
        <time>2020-07-02T09:27:46Z</time>
      </trkpt>
      <trkpt lat="48.54541" lon="2.27529">
        <ele>82.5</ele>
        <time>2020-07-02T09:27:47Z</time>
      </trkpt>
      <trkpt lat="48.54537" lon="2.27525">
        <ele>82.6</ele>
        <time>2020-07-02T09:27:48Z</time>
      </trkpt>
      <trkpt lat="48.54533" lon="2.27521">
        <ele>82.7</ele>
        <time>2020-07-02T09:27:49Z</time>
      </trkpt>
      <trkpt lat="48.54529" lon="2.27518">
        <ele>82.7</ele>
        <time>2020-07-02T09:27:50Z</time>
      </trkpt>
      <trkpt lat="48.54525" lon="2.27515">
        <ele>82.8</ele>
        <time>2020-07-02T09:27:51Z</time>
      </trkpt>
      <trkpt lat="48.54521" lon="2.27512">
        <ele>82.8</ele>
        <time>2020-07-02T09:27:52Z</time>
      </trkpt>
      <trkpt lat="48.54516" lon="2.27508">
        <ele>82.9</ele>
        <time>2020-07-02T09:27:53Z</time>
      </trkpt>
      <trkpt lat="48.54512" lon="2.27504">
        <ele>83</ele>
        <time>2020-07-02T09:27:54Z</time>
      </trkpt>
      <trkpt lat="48.54507" lon="2.27501">
        <ele>83</ele>
        <time>2020-07-02T09:27:55Z</time>
      </trkpt>
      <trkpt lat="48.54503" lon="2.27498">
        <ele>83.1</ele>
        <time>2020-07-02T09:27:56Z</time>
      </trkpt>
      <trkpt lat="48.54499" lon="2.27495">
        <ele>83.2</ele>
        <time>2020-07-02T09:27:57Z</time>
      </trkpt>
      <trkpt lat="48.54495" lon="2.27491">
        <ele>83.2</ele>
        <time>2020-07-02T09:27:58Z</time>
      </trkpt>
      <trkpt lat="48.5449" lon="2.27487">
        <ele>83.3</ele>
        <time>2020-07-02T09:27:59Z</time>
      </trkpt>
      <trkpt lat="48.54485" lon="2.27484">
        <ele>83.4</ele>
        <time>2020-07-02T09:28:00Z</time>
      </trkpt>
      <trkpt lat="48.5448" lon="2.27481">
        <ele>83.5</ele>
        <time>2020-07-02T09:28:01Z</time>
      </trkpt>
      <trkpt lat="48.54476" lon="2.27479">
        <ele>83.5</ele>
        <time>2020-07-02T09:28:02Z</time>
      </trkpt>
      <trkpt lat="48.54471" lon="2.27477">
        <ele>83.6</ele>
        <time>2020-07-02T09:28:03Z</time>
      </trkpt>
      <trkpt lat="48.54466" lon="2.27474">
        <ele>83.6</ele>
        <time>2020-07-02T09:28:04Z</time>
      </trkpt>
      <trkpt lat="48.54462" lon="2.27471">
        <ele>83.7</ele>
        <time>2020-07-02T09:28:05Z</time>
      </trkpt>
      <trkpt lat="48.54457" lon="2.27467">
        <ele>83.8</ele>
        <time>2020-07-02T09:28:06Z</time>
      </trkpt>
      <trkpt lat="48.54453" lon="2.27463">
        <ele>83.8</ele>
        <time>2020-07-02T09:28:07Z</time>
      </trkpt>
      <trkpt lat="48.54447" lon="2.2746">
        <ele>83.9</ele>
        <time>2020-07-02T09:28:08Z</time>
      </trkpt>
      <trkpt lat="48.54442" lon="2.27456">
        <ele>84</ele>
        <time>2020-07-02T09:28:09Z</time>
      </trkpt>
      <trkpt lat="48.54438" lon="2.27453">
        <ele>84.1</ele>
        <time>2020-07-02T09:28:10Z</time>
      </trkpt>
      <trkpt lat="48.54434" lon="2.2745">
        <ele>84.1</ele>
        <time>2020-07-02T09:28:11Z</time>
      </trkpt>
      <trkpt lat="48.54429" lon="2.27447">
        <ele>84.2</ele>
        <time>2020-07-02T09:28:12Z</time>
      </trkpt>
      <trkpt lat="48.54424" lon="2.27443">
        <ele>84.2</ele>
        <time>2020-07-02T09:28:13Z</time>
      </trkpt>
      <trkpt lat="48.54419" lon="2.2744">
        <ele>84.3</ele>
        <time>2020-07-02T09:28:14Z</time>
      </trkpt>
      <trkpt lat="48.54415" lon="2.27436">
        <ele>84.3</ele>
        <time>2020-07-02T09:28:15Z</time>
      </trkpt>
      <trkpt lat="48.5441" lon="2.27433">
        <ele>84.4</ele>
        <time>2020-07-02T09:28:16Z</time>
      </trkpt>
      <trkpt lat="48.54407" lon="2.2743">
        <ele>84.5</ele>
        <time>2020-07-02T09:28:17Z</time>
      </trkpt>
      <trkpt lat="48.54402" lon="2.27426">
        <ele>84.5</ele>
        <time>2020-07-02T09:28:18Z</time>
      </trkpt>
      <trkpt lat="48.54397" lon="2.27422">
        <ele>84.6</ele>
        <time>2020-07-02T09:28:19Z</time>
      </trkpt>
      <trkpt lat="48.54393" lon="2.27418">
        <ele>84.7</ele>
        <time>2020-07-02T09:28:20Z</time>
      </trkpt>
      <trkpt lat="48.54387" lon="2.27416">
        <ele>84.8</ele>
        <time>2020-07-02T09:28:21Z</time>
      </trkpt>
      <trkpt lat="48.54382" lon="2.27412">
        <ele>84.8</ele>
        <time>2020-07-02T09:28:22Z</time>
      </trkpt>
      <trkpt lat="48.54378" lon="2.27408">
        <ele>84.9</ele>
        <time>2020-07-02T09:28:23Z</time>
      </trkpt>
      <trkpt lat="48.54374" lon="2.27404">
        <ele>85</ele>
        <time>2020-07-02T09:28:24Z</time>
      </trkpt>
      <trkpt lat="48.54369" lon="2.274">
        <ele>85.1</ele>
        <time>2020-07-02T09:28:25Z</time>
      </trkpt>
      <trkpt lat="48.54365" lon="2.27396">
        <ele>85.2</ele>
        <time>2020-07-02T09:28:26Z</time>
      </trkpt>
      <trkpt lat="48.5436" lon="2.27393">
        <ele>85.3</ele>
        <time>2020-07-02T09:28:27Z</time>
      </trkpt>
      <trkpt lat="48.54355" lon="2.2739">
        <ele>85.3</ele>
        <time>2020-07-02T09:28:28Z</time>
      </trkpt>
      <trkpt lat="48.54351" lon="2.27387">
        <ele>85.4</ele>
        <time>2020-07-02T09:28:29Z</time>
      </trkpt>
      <trkpt lat="48.54345" lon="2.27384">
        <ele>85.5</ele>
        <time>2020-07-02T09:28:30Z</time>
      </trkpt>
      <trkpt lat="48.5434" lon="2.2738">
        <ele>85.6</ele>
        <time>2020-07-02T09:28:31Z</time>
      </trkpt>
      <trkpt lat="48.54335" lon="2.27377">
        <ele>85.7</ele>
        <time>2020-07-02T09:28:32Z</time>
      </trkpt>
      <trkpt lat="48.54331" lon="2.27374">
        <ele>85.8</ele>
        <time>2020-07-02T09:28:33Z</time>
      </trkpt>
      <trkpt lat="48.54326" lon="2.27371">
        <ele>85.9</ele>
        <time>2020-07-02T09:28:34Z</time>
      </trkpt>
      <trkpt lat="48.54322" lon="2.27367">
        <ele>86</ele>
        <time>2020-07-02T09:28:35Z</time>
      </trkpt>
      <trkpt lat="48.54318" lon="2.27363">
        <ele>86.1</ele>
        <time>2020-07-02T09:28:36Z</time>
      </trkpt>
      <trkpt lat="48.54313" lon="2.27359">
        <ele>86.3</ele>
        <time>2020-07-02T09:28:37Z</time>
      </trkpt>
      <trkpt lat="48.54309" lon="2.27356">
        <ele>86.5</ele>
        <time>2020-07-02T09:28:38Z</time>
      </trkpt>
      <trkpt lat="48.54304" lon="2.27353">
        <ele>86.6</ele>
        <time>2020-07-02T09:28:39Z</time>
      </trkpt>
      <trkpt lat="48.543" lon="2.2735">
        <ele>86.7</ele>
        <time>2020-07-02T09:28:40Z</time>
      </trkpt>
      <trkpt lat="48.54295" lon="2.27349">
        <ele>86.9</ele>
        <time>2020-07-02T09:28:41Z</time>
      </trkpt>
      <trkpt lat="48.5429" lon="2.27345">
        <ele>87</ele>
        <time>2020-07-02T09:28:42Z</time>
      </trkpt>
      <trkpt lat="48.54286" lon="2.27341">
        <ele>87.2</ele>
        <time>2020-07-02T09:28:43Z</time>
      </trkpt>
      <trkpt lat="48.54282" lon="2.27338">
        <ele>87.3</ele>
        <time>2020-07-02T09:28:44Z</time>
      </trkpt>
      <trkpt lat="48.54278" lon="2.27334">
        <ele>87.3</ele>
        <time>2020-07-02T09:28:45Z</time>
      </trkpt>
      <trkpt lat="48.54275" lon="2.27329">
        <ele>87.4</ele>
        <time>2020-07-02T09:28:46Z</time>
      </trkpt>
      <trkpt lat="48.54273" lon="2.27323">
        <ele>87.4</ele>
        <time>2020-07-02T09:28:47Z</time>
      </trkpt>
      <trkpt lat="48.54271" lon="2.27316">
        <ele>87.4</ele>
        <time>2020-07-02T09:28:48Z</time>
      </trkpt>
      <trkpt lat="48.54269" lon="2.27311">
        <ele>87.5</ele>
        <time>2020-07-02T09:28:49Z</time>
      </trkpt>
      <trkpt lat="48.54267" lon="2.27306">
        <ele>87.6</ele>
        <time>2020-07-02T09:28:50Z</time>
      </trkpt>
      <trkpt lat="48.54265" lon="2.27301">
        <ele>87.7</ele>
        <time>2020-07-02T09:28:51Z</time>
      </trkpt>
      <trkpt lat="48.54262" lon="2.27296">
        <ele>87.9</ele>
        <time>2020-07-02T09:28:52Z</time>
      </trkpt>
      <trkpt lat="48.54259" lon="2.27293">
        <ele>88</ele>
        <time>2020-07-02T09:28:53Z</time>
      </trkpt>
      <trkpt lat="48.54255" lon="2.2729">
        <ele>88.1</ele>
        <time>2020-07-02T09:28:54Z</time>
      </trkpt>
      <trkpt lat="48.54252" lon="2.27286">
        <ele>88.3</ele>
        <time>2020-07-02T09:28:55Z</time>
      </trkpt>
      <trkpt lat="48.54248" lon="2.27283">
        <ele>88.5</ele>
        <time>2020-07-02T09:28:56Z</time>
      </trkpt>
      <trkpt lat="48.54244" lon="2.27281">
        <ele>88.7</ele>
        <time>2020-07-02T09:28:57Z</time>
      </trkpt>
      <trkpt lat="48.54241" lon="2.27278">
        <ele>88.9</ele>
        <time>2020-07-02T09:28:58Z</time>
      </trkpt>
      <trkpt lat="48.54237" lon="2.27275">
        <ele>89.1</ele>
        <time>2020-07-02T09:28:59Z</time>
      </trkpt>
      <trkpt lat="48.54234" lon="2.27272">
        <ele>89.2</ele>
        <time>2020-07-02T09:29:00Z</time>
      </trkpt>
      <trkpt lat="48.5423" lon="2.2727">
        <ele>89.4</ele>
        <time>2020-07-02T09:29:01Z</time>
      </trkpt>
      <trkpt lat="48.54226" lon="2.27268">
        <ele>89.6</ele>
        <time>2020-07-02T09:29:02Z</time>
      </trkpt>
      <trkpt lat="48.54223" lon="2.27266">
        <ele>89.8</ele>
        <time>2020-07-02T09:29:03Z</time>
      </trkpt>
      <trkpt lat="48.54219" lon="2.27263">
        <ele>89.9</ele>
        <time>2020-07-02T09:29:04Z</time>
      </trkpt>
      <trkpt lat="48.54216" lon="2.27261">
        <ele>90.1</ele>
        <time>2020-07-02T09:29:05Z</time>
      </trkpt>
      <trkpt lat="48.54213" lon="2.27258">
        <ele>90.3</ele>
        <time>2020-07-02T09:29:06Z</time>
      </trkpt>
      <trkpt lat="48.5421" lon="2.27254">
        <ele>90.4</ele>
        <time>2020-07-02T09:29:07Z</time>
      </trkpt>
      <trkpt lat="48.54207" lon="2.2725">
        <ele>90.6</ele>
        <time>2020-07-02T09:29:08Z</time>
      </trkpt>
      <trkpt lat="48.54204" lon="2.27246">
        <ele>90.8</ele>
        <time>2020-07-02T09:29:09Z</time>
      </trkpt>
      <trkpt lat="48.54201" lon="2.27242">
        <ele>91</ele>
        <time>2020-07-02T09:29:10Z</time>
      </trkpt>
      <trkpt lat="48.54199" lon="2.27237">
        <ele>91.2</ele>
        <time>2020-07-02T09:29:11Z</time>
      </trkpt>
      <trkpt lat="48.54196" lon="2.27234">
        <ele>91.4</ele>
        <time>2020-07-02T09:29:12Z</time>
      </trkpt>
      <trkpt lat="48.54193" lon="2.27231">
        <ele>91.6</ele>
        <time>2020-07-02T09:29:13Z</time>
      </trkpt>
      <trkpt lat="48.5419" lon="2.27227">
        <ele>91.8</ele>
        <time>2020-07-02T09:29:14Z</time>
      </trkpt>
      <trkpt lat="48.54187" lon="2.27225">
        <ele>92</ele>
        <time>2020-07-02T09:29:15Z</time>
      </trkpt>
      <trkpt lat="48.54185" lon="2.27221">
        <ele>92.1</ele>
        <time>2020-07-02T09:29:16Z</time>
      </trkpt>
      <trkpt lat="48.54182" lon="2.27218">
        <ele>92.4</ele>
        <time>2020-07-02T09:29:17Z</time>
      </trkpt>
      <trkpt lat="48.54179" lon="2.27214">
        <ele>92.6</ele>
        <time>2020-07-02T09:29:18Z</time>
      </trkpt>
      <trkpt lat="48.54176" lon="2.27211">
        <ele>92.8</ele>
        <time>2020-07-02T09:29:19Z</time>
      </trkpt>
      <trkpt lat="48.54174" lon="2.27207">
        <ele>92.9</ele>
        <time>2020-07-02T09:29:20Z</time>
      </trkpt>
      <trkpt lat="48.54171" lon="2.27203">
        <ele>93.1</ele>
        <time>2020-07-02T09:29:21Z</time>
      </trkpt>
      <trkpt lat="48.54169" lon="2.27199">
        <ele>93.3</ele>
        <time>2020-07-02T09:29:22Z</time>
      </trkpt>
      <trkpt lat="48.54166" lon="2.27196">
        <ele>93.5</ele>
        <time>2020-07-02T09:29:23Z</time>
      </trkpt>
      <trkpt lat="48.54164" lon="2.27192">
        <ele>93.7</ele>
        <time>2020-07-02T09:29:24Z</time>
      </trkpt>
      <trkpt lat="48.54161" lon="2.27188">
        <ele>94</ele>
        <time>2020-07-02T09:29:25Z</time>
      </trkpt>
      <trkpt lat="48.54158" lon="2.27184">
        <ele>94.2</ele>
        <time>2020-07-02T09:29:26Z</time>
      </trkpt>
      <trkpt lat="48.54156" lon="2.2718">
        <ele>94.4</ele>
        <time>2020-07-02T09:29:27Z</time>
      </trkpt>
      <trkpt lat="48.54154" lon="2.27175">
        <ele>94.6</ele>
        <time>2020-07-02T09:29:28Z</time>
      </trkpt>
      <trkpt lat="48.54152" lon="2.27172">
        <ele>94.8</ele>
        <time>2020-07-02T09:29:29Z</time>
      </trkpt>
      <trkpt lat="48.54149" lon="2.27168">
        <ele>95.1</ele>
        <time>2020-07-02T09:29:30Z</time>
      </trkpt>
      <trkpt lat="48.54146" lon="2.27164">
        <ele>95.3</ele>
        <time>2020-07-02T09:29:31Z</time>
      </trkpt>
      <trkpt lat="48.54144" lon="2.27161">
        <ele>95.5</ele>
        <time>2020-07-02T09:29:32Z</time>
      </trkpt>
      <trkpt lat="48.54142" lon="2.27158">
        <ele>95.7</ele>
        <time>2020-07-02T09:29:33Z</time>
      </trkpt>
      <trkpt lat="48.54139" lon="2.27156">
        <ele>95.9</ele>
        <time>2020-07-02T09:29:34Z</time>
      </trkpt>
      <trkpt lat="48.54137" lon="2.27155">
        <ele>96.1</ele>
        <time>2020-07-02T09:29:35Z</time>
      </trkpt>
      <trkpt lat="48.54133" lon="2.27153">
        <ele>96.4</ele>
        <time>2020-07-02T09:29:36Z</time>
      </trkpt>
      <trkpt lat="48.54129" lon="2.27152">
        <ele>96.7</ele>
        <time>2020-07-02T09:29:37Z</time>
      </trkpt>
      <trkpt lat="48.54126" lon="2.2715">
        <ele>97</ele>
        <time>2020-07-02T09:29:38Z</time>
      </trkpt>
      <trkpt lat="48.54122" lon="2.2715">
        <ele>97.3</ele>
        <time>2020-07-02T09:29:39Z</time>
      </trkpt>
      <trkpt lat="48.5412" lon="2.27148">
        <ele>97.5</ele>
        <time>2020-07-02T09:29:40Z</time>
      </trkpt>
      <trkpt lat="48.54117" lon="2.27146">
        <ele>97.7</ele>
        <time>2020-07-02T09:29:41Z</time>
      </trkpt>
      <trkpt lat="48.54115" lon="2.27145">
        <ele>97.8</ele>
        <time>2020-07-02T09:29:42Z</time>
      </trkpt>
      <trkpt lat="48.54112" lon="2.27144">
        <ele>98.1</ele>
        <time>2020-07-02T09:29:43Z</time>
      </trkpt>
      <trkpt lat="48.54109" lon="2.27141">
        <ele>98.3</ele>
        <time>2020-07-02T09:29:44Z</time>
      </trkpt>
      <trkpt lat="48.54106" lon="2.27139">
        <ele>98.6</ele>
        <time>2020-07-02T09:29:45Z</time>
      </trkpt>
      <trkpt lat="48.54104" lon="2.27138">
        <ele>98.8</ele>
        <time>2020-07-02T09:29:46Z</time>
      </trkpt>
      <trkpt lat="48.54101" lon="2.27137">
        <ele>99</ele>
        <time>2020-07-02T09:29:47Z</time>
      </trkpt>
      <trkpt lat="48.54098" lon="2.27134">
        <ele>99.3</ele>
        <time>2020-07-02T09:29:48Z</time>
      </trkpt>
      <trkpt lat="48.54095" lon="2.27132">
        <ele>99.7</ele>
        <time>2020-07-02T09:29:49Z</time>
      </trkpt>
      <trkpt lat="48.54092" lon="2.2713">
        <ele>100</ele>
        <time>2020-07-02T09:29:50Z</time>
      </trkpt>
      <trkpt lat="48.54089" lon="2.27128">
        <ele>100.4</ele>
        <time>2020-07-02T09:29:51Z</time>
      </trkpt>
      <trkpt lat="48.54088" lon="2.27128">
        <ele>100.5</ele>
        <time>2020-07-02T09:29:52Z</time>
      </trkpt>
      <trkpt lat="48.54084" lon="2.27126">
        <ele>100.9</ele>
        <time>2020-07-02T09:29:53Z</time>
      </trkpt>
      <trkpt lat="48.54083" lon="2.27126">
        <ele>101.1</ele>
        <time>2020-07-02T09:29:54Z</time>
      </trkpt>
      <trkpt lat="48.54081" lon="2.27123">
        <ele>101.4</ele>
        <time>2020-07-02T09:29:55Z</time>
      </trkpt>
      <trkpt lat="48.54078" lon="2.27119">
        <ele>101.8</ele>
        <time>2020-07-02T09:29:56Z</time>
      </trkpt>
      <trkpt lat="48.54077" lon="2.27118">
        <ele>102</ele>
        <time>2020-07-02T09:29:57Z</time>
      </trkpt>
      <trkpt lat="48.54073" lon="2.27116">
        <ele>102.4</ele>
        <time>2020-07-02T09:29:58Z</time>
      </trkpt>
      <trkpt lat="48.54072" lon="2.27116">
        <ele>102.5</ele>
        <time>2020-07-02T09:29:59Z</time>
      </trkpt>
      <trkpt lat="48.54069" lon="2.27114">
        <ele>103</ele>
        <time>2020-07-02T09:30:00Z</time>
      </trkpt>
      <trkpt lat="48.54067" lon="2.27113">
        <ele>103.1</ele>
        <time>2020-07-02T09:30:01Z</time>
      </trkpt>
      <trkpt lat="48.54063" lon="2.27112">
        <ele>103.6</ele>
        <time>2020-07-02T09:30:02Z</time>
      </trkpt>
      <trkpt lat="48.54062" lon="2.27111">
        <ele>103.8</ele>
        <time>2020-07-02T09:30:03Z</time>
      </trkpt>
      <trkpt lat="48.54059" lon="2.27109">
        <ele>104.2</ele>
        <time>2020-07-02T09:30:04Z</time>
      </trkpt>
      <trkpt lat="48.54056" lon="2.27108">
        <ele>104.7</ele>
        <time>2020-07-02T09:30:05Z</time>
      </trkpt>
      <trkpt lat="48.54055" lon="2.27107">
        <ele>104.8</ele>
        <time>2020-07-02T09:30:06Z</time>
      </trkpt>
      <trkpt lat="48.54052" lon="2.27106">
        <ele>105.2</ele>
        <time>2020-07-02T09:30:07Z</time>
      </trkpt>
      <trkpt lat="48.54051" lon="2.27105">
        <ele>105.3</ele>
        <time>2020-07-02T09:30:08Z</time>
      </trkpt>
      <trkpt lat="48.54048" lon="2.27103">
        <ele>105.7</ele>
        <time>2020-07-02T09:30:09Z</time>
      </trkpt>
      <trkpt lat="48.54047" lon="2.27102">
        <ele>105.8</ele>
        <time>2020-07-02T09:30:10Z</time>
      </trkpt>
      <trkpt lat="48.54044" lon="2.27101">
        <ele>106.3</ele>
        <time>2020-07-02T09:30:11Z</time>
      </trkpt>
      <trkpt lat="48.54043" lon="2.271">
        <ele>106.4</ele>
        <time>2020-07-02T09:30:12Z</time>
      </trkpt>
      <trkpt lat="48.5404" lon="2.271">
        <ele>106.9</ele>
        <time>2020-07-02T09:30:13Z</time>
      </trkpt>
      <trkpt lat="48.54038" lon="2.271">
        <ele>107</ele>
        <time>2020-07-02T09:30:14Z</time>
      </trkpt>
      <trkpt lat="48.54035" lon="2.27101">
        <ele>108.3</ele>
        <time>2020-07-02T09:30:15Z</time>
      </trkpt>
      <trkpt lat="48.54034" lon="2.27101">
        <ele>108.3</ele>
        <time>2020-07-02T09:30:16Z</time>
      </trkpt>
      <trkpt lat="48.54032" lon="2.27104">
        <ele>108.6</ele>
        <time>2020-07-02T09:30:17Z</time>
      </trkpt>
      <trkpt lat="48.54031" lon="2.27105">
        <ele>108.6</ele>
        <time>2020-07-02T09:30:18Z</time>
      </trkpt>
      <trkpt lat="48.54029" lon="2.27107">
        <ele>108.7</ele>
        <time>2020-07-02T09:30:19Z</time>
      </trkpt>
      <trkpt lat="48.54028" lon="2.27108">
        <ele>108.8</ele>
        <time>2020-07-02T09:30:20Z</time>
      </trkpt>
      <trkpt lat="48.54027" lon="2.27108">
        <ele>108.8</ele>
        <time>2020-07-02T09:30:21Z</time>
      </trkpt>
      <trkpt lat="48.54027" lon="2.27109">
        <ele>108.8</ele>
        <time>2020-07-02T09:30:22Z</time>
      </trkpt>
      <trkpt lat="48.54026" lon="2.2711">
        <ele>108.9</ele>
        <time>2020-07-02T09:30:23Z</time>
      </trkpt>
      <trkpt lat="48.54025" lon="2.27111">
        <ele>108.9</ele>
        <time>2020-07-02T09:30:24Z</time>
      </trkpt>
      <trkpt lat="48.54025" lon="2.27112">
        <ele>108.9</ele>
        <time>2020-07-02T09:30:25Z</time>
      </trkpt>
      <trkpt lat="48.54024" lon="2.27113">
        <ele>109</ele>
        <time>2020-07-02T09:30:26Z</time>
      </trkpt>
      <trkpt lat="48.54024" lon="2.27115">
        <ele>109</ele>
        <time>2020-07-02T09:30:27Z</time>
      </trkpt>
      <trkpt lat="48.54023" lon="2.27116">
        <ele>109</ele>
        <time>2020-07-02T09:30:28Z</time>
      </trkpt>
      <trkpt lat="48.54022" lon="2.27116">
        <ele>109</ele>
        <time>2020-07-02T09:30:29Z</time>
      </trkpt>
      <trkpt lat="48.54021" lon="2.27118">
        <ele>109.1</ele>
        <time>2020-07-02T09:30:30Z</time>
      </trkpt>
      <trkpt lat="48.5402" lon="2.27119">
        <ele>109.1</ele>
        <time>2020-07-02T09:30:31Z</time>
      </trkpt>
      <trkpt lat="48.5402" lon="2.2712">
        <ele>109.1</ele>
        <time>2020-07-02T09:30:32Z</time>
      </trkpt>
      <trkpt lat="48.54019" lon="2.27121">
        <ele>109.2</ele>
        <time>2020-07-02T09:30:33Z</time>
      </trkpt>
      <trkpt lat="48.54017" lon="2.27125">
        <ele>109.2</ele>
        <time>2020-07-02T09:30:34Z</time>
      </trkpt>
      <trkpt lat="48.54017" lon="2.27126">
        <ele>109.3</ele>
        <time>2020-07-02T09:30:35Z</time>
      </trkpt>
      <trkpt lat="48.54015" lon="2.2713">
        <ele>109.4</ele>
        <time>2020-07-02T09:30:36Z</time>
      </trkpt>
      <trkpt lat="48.54014" lon="2.2713">
        <ele>109.4</ele>
        <time>2020-07-02T09:30:37Z</time>
      </trkpt>
      <trkpt lat="48.54011" lon="2.27134">
        <ele>109.5</ele>
        <time>2020-07-02T09:30:38Z</time>
      </trkpt>
      <trkpt lat="48.5401" lon="2.27135">
        <ele>109.5</ele>
        <time>2020-07-02T09:30:39Z</time>
      </trkpt>
      <trkpt lat="48.54008" lon="2.27139">
        <ele>110</ele>
        <time>2020-07-02T09:30:40Z</time>
      </trkpt>
      <trkpt lat="48.54008" lon="2.27141">
        <ele>110.1</ele>
        <time>2020-07-02T09:30:41Z</time>
      </trkpt>
      <trkpt lat="48.54007" lon="2.27146">
        <ele>110.4</ele>
        <time>2020-07-02T09:30:42Z</time>
      </trkpt>
      <trkpt lat="48.54007" lon="2.27148">
        <ele>110.5</ele>
        <time>2020-07-02T09:30:43Z</time>
      </trkpt>
      <trkpt lat="48.54006" lon="2.27152">
        <ele>110.8</ele>
        <time>2020-07-02T09:30:44Z</time>
      </trkpt>
      <trkpt lat="48.54006" lon="2.27153">
        <ele>110.9</ele>
        <time>2020-07-02T09:30:45Z</time>
      </trkpt>
      <trkpt lat="48.54005" lon="2.27157">
        <ele>111.2</ele>
        <time>2020-07-02T09:30:46Z</time>
      </trkpt>
      <trkpt lat="48.54004" lon="2.27158">
        <ele>111.2</ele>
        <time>2020-07-02T09:30:47Z</time>
      </trkpt>
      <trkpt lat="48.54003" lon="2.27163">
        <ele>111.6</ele>
        <time>2020-07-02T09:30:48Z</time>
      </trkpt>
      <trkpt lat="48.54003" lon="2.27165">
        <ele>111.7</ele>
        <time>2020-07-02T09:30:49Z</time>
      </trkpt>
      <trkpt lat="48.54002" lon="2.27169">
        <ele>111.9</ele>
        <time>2020-07-02T09:30:50Z</time>
      </trkpt>
      <trkpt lat="48.54002" lon="2.27171">
        <ele>112</ele>
        <time>2020-07-02T09:30:51Z</time>
      </trkpt>
      <trkpt lat="48.54001" lon="2.27176">
        <ele>112.3</ele>
        <time>2020-07-02T09:30:52Z</time>
      </trkpt>
      <trkpt lat="48.54001" lon="2.27177">
        <ele>112.4</ele>
        <time>2020-07-02T09:30:53Z</time>
      </trkpt>
      <trkpt lat="48.53999" lon="2.27182">
        <ele>112.8</ele>
        <time>2020-07-02T09:30:54Z</time>
      </trkpt>
      <trkpt lat="48.53998" lon="2.27183">
        <ele>112.9</ele>
        <time>2020-07-02T09:30:55Z</time>
      </trkpt>
      <trkpt lat="48.53997" lon="2.27187">
        <ele>113.2</ele>
        <time>2020-07-02T09:30:56Z</time>
      </trkpt>
      <trkpt lat="48.53996" lon="2.27189">
        <ele>113.3</ele>
        <time>2020-07-02T09:30:57Z</time>
      </trkpt>
      <trkpt lat="48.53994" lon="2.27193">
        <ele>113.6</ele>
        <time>2020-07-02T09:30:58Z</time>
      </trkpt>
      <trkpt lat="48.53993" lon="2.27194">
        <ele>113.7</ele>
        <time>2020-07-02T09:30:59Z</time>
      </trkpt>
      <trkpt lat="48.53991" lon="2.27196">
        <ele>114</ele>
        <time>2020-07-02T09:31:00Z</time>
      </trkpt>
      <trkpt lat="48.5399" lon="2.27197">
        <ele>114.1</ele>
        <time>2020-07-02T09:31:01Z</time>
      </trkpt>
      <trkpt lat="48.53988" lon="2.27201">
        <ele>114.4</ele>
        <time>2020-07-02T09:31:02Z</time>
      </trkpt>
      <trkpt lat="48.53988" lon="2.27202">
        <ele>114.5</ele>
        <time>2020-07-02T09:31:03Z</time>
      </trkpt>
      <trkpt lat="48.53987" lon="2.27204">
        <ele>114.6</ele>
        <time>2020-07-02T09:31:04Z</time>
      </trkpt>
      <trkpt lat="48.53986" lon="2.27206">
        <ele>114.8</ele>
        <time>2020-07-02T09:31:05Z</time>
      </trkpt>
      <trkpt lat="48.53984" lon="2.27209">
        <ele>115.2</ele>
        <time>2020-07-02T09:31:06Z</time>
      </trkpt>
      <trkpt lat="48.53983" lon="2.2721">
        <ele>115.3</ele>
        <time>2020-07-02T09:31:07Z</time>
      </trkpt>
      <trkpt lat="48.53981" lon="2.27214">
        <ele>115.7</ele>
        <time>2020-07-02T09:31:08Z</time>
      </trkpt>
      <trkpt lat="48.5398" lon="2.27216">
        <ele>115.8</ele>
        <time>2020-07-02T09:31:09Z</time>
      </trkpt>
      <trkpt lat="48.53978" lon="2.27219">
        <ele>116.1</ele>
        <time>2020-07-02T09:31:10Z</time>
      </trkpt>
      <trkpt lat="48.53978" lon="2.2722">
        <ele>116.2</ele>
        <time>2020-07-02T09:31:11Z</time>
      </trkpt>
      <trkpt lat="48.53977" lon="2.27222">
        <ele>116.4</ele>
        <time>2020-07-02T09:31:12Z</time>
      </trkpt>
      <trkpt lat="48.53976" lon="2.27225">
        <ele>116.6</ele>
        <time>2020-07-02T09:31:13Z</time>
      </trkpt>
      <trkpt lat="48.53975" lon="2.27226">
        <ele>116.8</ele>
        <time>2020-07-02T09:31:14Z</time>
      </trkpt>
      <trkpt lat="48.53973" lon="2.27227">
        <ele>117</ele>
        <time>2020-07-02T09:31:15Z</time>
      </trkpt>
      <trkpt lat="48.53972" lon="2.27229">
        <ele>117.3</ele>
        <time>2020-07-02T09:31:16Z</time>
      </trkpt>
      <trkpt lat="48.53971" lon="2.2723">
        <ele>117.4</ele>
        <time>2020-07-02T09:31:17Z</time>
      </trkpt>
      <trkpt lat="48.53968" lon="2.27235">
        <ele>117.9</ele>
        <time>2020-07-02T09:31:18Z</time>
      </trkpt>
      <trkpt lat="48.53967" lon="2.27236">
        <ele>118</ele>
        <time>2020-07-02T09:31:19Z</time>
      </trkpt>
      <trkpt lat="48.53965" lon="2.27237">
        <ele>118.3</ele>
        <time>2020-07-02T09:31:20Z</time>
      </trkpt>
      <trkpt lat="48.53965" lon="2.27238">
        <ele>118.4</ele>
        <time>2020-07-02T09:31:21Z</time>
      </trkpt>
      <trkpt lat="48.53964" lon="2.2724">
        <ele>118.5</ele>
        <time>2020-07-02T09:31:22Z</time>
      </trkpt>
      <trkpt lat="48.53963" lon="2.2724">
        <ele>118.6</ele>
        <time>2020-07-02T09:31:23Z</time>
      </trkpt>
      <trkpt lat="48.53962" lon="2.27241">
        <ele>118.8</ele>
        <time>2020-07-02T09:31:24Z</time>
      </trkpt>
      <trkpt lat="48.53959" lon="2.27243">
        <ele>119.1</ele>
        <time>2020-07-02T09:31:25Z</time>
      </trkpt>
      <trkpt lat="48.53958" lon="2.27244">
        <ele>119.2</ele>
        <time>2020-07-02T09:31:26Z</time>
      </trkpt>
      <trkpt lat="48.53956" lon="2.27246">
        <ele>119.6</ele>
        <time>2020-07-02T09:31:27Z</time>
      </trkpt>
      <trkpt lat="48.53954" lon="2.27247">
        <ele>119.8</ele>
        <time>2020-07-02T09:31:28Z</time>
      </trkpt>
      <trkpt lat="48.53953" lon="2.27248">
        <ele>120</ele>
        <time>2020-07-02T09:31:29Z</time>
      </trkpt>
      <trkpt lat="48.53951" lon="2.2725">
        <ele>120.2</ele>
        <time>2020-07-02T09:31:30Z</time>
      </trkpt>
      <trkpt lat="48.5395" lon="2.27251">
        <ele>120.3</ele>
        <time>2020-07-02T09:31:31Z</time>
      </trkpt>
      <trkpt lat="48.5395" lon="2.27252">
        <ele>120.4</ele>
        <time>2020-07-02T09:31:32Z</time>
      </trkpt>
      <trkpt lat="48.53948" lon="2.27255">
        <ele>120.8</ele>
        <time>2020-07-02T09:31:33Z</time>
      </trkpt>
      <trkpt lat="48.53947" lon="2.27257">
        <ele>120.9</ele>
        <time>2020-07-02T09:31:34Z</time>
      </trkpt>
      <trkpt lat="48.53946" lon="2.27259">
        <ele>121.1</ele>
        <time>2020-07-02T09:31:35Z</time>
      </trkpt>
      <trkpt lat="48.53944" lon="2.2726">
        <ele>121.3</ele>
        <time>2020-07-02T09:31:36Z</time>
      </trkpt>
      <trkpt lat="48.53943" lon="2.27262">
        <ele>121.6</ele>
        <time>2020-07-02T09:31:37Z</time>
      </trkpt>
      <trkpt lat="48.53942" lon="2.27264">
        <ele>121.6</ele>
        <time>2020-07-02T09:31:38Z</time>
      </trkpt>
      <trkpt lat="48.53941" lon="2.27265">
        <ele>121.7</ele>
        <time>2020-07-02T09:31:39Z</time>
      </trkpt>
      <trkpt lat="48.53939" lon="2.27266">
        <ele>121.8</ele>
        <time>2020-07-02T09:31:40Z</time>
      </trkpt>
      <trkpt lat="48.53936" lon="2.27267">
        <ele>121.9</ele>
        <time>2020-07-02T09:31:41Z</time>
      </trkpt>
      <trkpt lat="48.53935" lon="2.27268">
        <ele>122</ele>
        <time>2020-07-02T09:31:42Z</time>
      </trkpt>
      <trkpt lat="48.53933" lon="2.27269">
        <ele>122.2</ele>
        <time>2020-07-02T09:31:43Z</time>
      </trkpt>
      <trkpt lat="48.53932" lon="2.27269">
        <ele>122.5</ele>
        <time>2020-07-02T09:31:44Z</time>
      </trkpt>
      <trkpt lat="48.5393" lon="2.27269">
        <ele>122.7</ele>
        <time>2020-07-02T09:31:45Z</time>
      </trkpt>
      <trkpt lat="48.53929" lon="2.2727">
        <ele>122.8</ele>
        <time>2020-07-02T09:31:46Z</time>
      </trkpt>
      <trkpt lat="48.53928" lon="2.2727">
        <ele>122.9</ele>
        <time>2020-07-02T09:31:47Z</time>
      </trkpt>
      <trkpt lat="48.53926" lon="2.27271">
        <ele>123.2</ele>
        <time>2020-07-02T09:31:48Z</time>
      </trkpt>
      <trkpt lat="48.53924" lon="2.27272">
        <ele>123.3</ele>
        <time>2020-07-02T09:31:49Z</time>
      </trkpt>
      <trkpt lat="48.53923" lon="2.27273">
        <ele>123.5</ele>
        <time>2020-07-02T09:31:50Z</time>
      </trkpt>
      <trkpt lat="48.5392" lon="2.27274">
        <ele>123.9</ele>
        <time>2020-07-02T09:31:51Z</time>
      </trkpt>
      <trkpt lat="48.53919" lon="2.27275">
        <ele>124</ele>
        <time>2020-07-02T09:31:52Z</time>
      </trkpt>
      <trkpt lat="48.53916" lon="2.27276">
        <ele>124.4</ele>
        <time>2020-07-02T09:31:53Z</time>
      </trkpt>
      <trkpt lat="48.53915" lon="2.27276">
        <ele>124.5</ele>
        <time>2020-07-02T09:31:54Z</time>
      </trkpt>
      <trkpt lat="48.53912" lon="2.27276">
        <ele>124.8</ele>
        <time>2020-07-02T09:31:55Z</time>
      </trkpt>
      <trkpt lat="48.53911" lon="2.27276">
        <ele>124.9</ele>
        <time>2020-07-02T09:31:56Z</time>
      </trkpt>
      <trkpt lat="48.5391" lon="2.27277">
        <ele>125</ele>
        <time>2020-07-02T09:31:57Z</time>
      </trkpt>
      <trkpt lat="48.53908" lon="2.27277">
        <ele>125.3</ele>
        <time>2020-07-02T09:31:58Z</time>
      </trkpt>
      <trkpt lat="48.53905" lon="2.27278">
        <ele>125.6</ele>
        <time>2020-07-02T09:31:59Z</time>
      </trkpt>
      <trkpt lat="48.53903" lon="2.27278">
        <ele>125.8</ele>
        <time>2020-07-02T09:32:00Z</time>
      </trkpt>
      <trkpt lat="48.539" lon="2.27278">
        <ele>126.2</ele>
        <time>2020-07-02T09:32:01Z</time>
      </trkpt>
      <trkpt lat="48.53899" lon="2.27278">
        <ele>126.3</ele>
        <time>2020-07-02T09:32:02Z</time>
      </trkpt>
      <trkpt lat="48.53895" lon="2.27278">
        <ele>126.7</ele>
        <time>2020-07-02T09:32:03Z</time>
      </trkpt>
      <trkpt lat="48.53893" lon="2.27278">
        <ele>126.9</ele>
        <time>2020-07-02T09:32:04Z</time>
      </trkpt>
      <trkpt lat="48.5389" lon="2.27279">
        <ele>127.3</ele>
        <time>2020-07-02T09:32:05Z</time>
      </trkpt>
      <trkpt lat="48.53888" lon="2.27279">
        <ele>127.4</ele>
        <time>2020-07-02T09:32:06Z</time>
      </trkpt>
      <trkpt lat="48.53886" lon="2.27281">
        <ele>127.7</ele>
        <time>2020-07-02T09:32:07Z</time>
      </trkpt>
      <trkpt lat="48.53885" lon="2.27282">
        <ele>127.8</ele>
        <time>2020-07-02T09:32:08Z</time>
      </trkpt>
      <trkpt lat="48.53883" lon="2.27283">
        <ele>128</ele>
        <time>2020-07-02T09:32:09Z</time>
      </trkpt>
      <trkpt lat="48.53882" lon="2.27283">
        <ele>128.1</ele>
        <time>2020-07-02T09:32:10Z</time>
      </trkpt>
      <trkpt lat="48.5388" lon="2.27285">
        <ele>128.3</ele>
        <time>2020-07-02T09:32:11Z</time>
      </trkpt>
      <trkpt lat="48.53879" lon="2.27285">
        <ele>128.4</ele>
        <time>2020-07-02T09:32:12Z</time>
      </trkpt>
      <trkpt lat="48.53877" lon="2.27285">
        <ele>128.6</ele>
        <time>2020-07-02T09:32:13Z</time>
      </trkpt>
      <trkpt lat="48.53875" lon="2.27285">
        <ele>128.8</ele>
        <time>2020-07-02T09:32:14Z</time>
      </trkpt>
      <trkpt lat="48.53873" lon="2.27286">
        <ele>129</ele>
        <time>2020-07-02T09:32:15Z</time>
      </trkpt>
      <trkpt lat="48.53872" lon="2.27286">
        <ele>129.1</ele>
        <time>2020-07-02T09:32:16Z</time>
      </trkpt>
      <trkpt lat="48.53868" lon="2.27287">
        <ele>129.5</ele>
        <time>2020-07-02T09:32:17Z</time>
      </trkpt>
      <trkpt lat="48.53867" lon="2.27287">
        <ele>129.6</ele>
        <time>2020-07-02T09:32:18Z</time>
      </trkpt>
      <trkpt lat="48.53864" lon="2.27287">
        <ele>129.9</ele>
        <time>2020-07-02T09:32:19Z</time>
      </trkpt>
      <trkpt lat="48.53862" lon="2.27287">
        <ele>130</ele>
        <time>2020-07-02T09:32:20Z</time>
      </trkpt>
      <trkpt lat="48.5386" lon="2.27287">
        <ele>130.3</ele>
        <time>2020-07-02T09:32:21Z</time>
      </trkpt>
      <trkpt lat="48.53859" lon="2.27288">
        <ele>130.4</ele>
        <time>2020-07-02T09:32:22Z</time>
      </trkpt>
      <trkpt lat="48.53856" lon="2.27289">
        <ele>130.6</ele>
        <time>2020-07-02T09:32:23Z</time>
      </trkpt>
      <trkpt lat="48.53855" lon="2.27289">
        <ele>130.8</ele>
        <time>2020-07-02T09:32:24Z</time>
      </trkpt>
      <trkpt lat="48.53852" lon="2.27291">
        <ele>131</ele>
        <time>2020-07-02T09:32:25Z</time>
      </trkpt>
      <trkpt lat="48.53851" lon="2.27291">
        <ele>131.1</ele>
        <time>2020-07-02T09:32:26Z</time>
      </trkpt>
      <trkpt lat="48.53849" lon="2.27292">
        <ele>131.3</ele>
        <time>2020-07-02T09:32:27Z</time>
      </trkpt>
      <trkpt lat="48.53848" lon="2.27293">
        <ele>131.4</ele>
        <time>2020-07-02T09:32:28Z</time>
      </trkpt>
      <trkpt lat="48.53847" lon="2.27293">
        <ele>131.5</ele>
        <time>2020-07-02T09:32:29Z</time>
      </trkpt>
      <trkpt lat="48.53846" lon="2.27294">
        <ele>131.6</ele>
        <time>2020-07-02T09:32:30Z</time>
      </trkpt>
      <trkpt lat="48.53845" lon="2.27296">
        <ele>131.8</ele>
        <time>2020-07-02T09:32:31Z</time>
      </trkpt>
      <trkpt lat="48.53841" lon="2.27297">
        <ele>132.1</ele>
        <time>2020-07-02T09:32:32Z</time>
      </trkpt>
      <trkpt lat="48.53839" lon="2.27297">
        <ele>132.3</ele>
        <time>2020-07-02T09:32:33Z</time>
      </trkpt>
      <trkpt lat="48.53836" lon="2.27297">
        <ele>132.6</ele>
        <time>2020-07-02T09:32:34Z</time>
      </trkpt>
      <trkpt lat="48.53834" lon="2.27297">
        <ele>132.7</ele>
        <time>2020-07-02T09:32:35Z</time>
      </trkpt>
      <trkpt lat="48.53831" lon="2.27299">
        <ele>133</ele>
        <time>2020-07-02T09:32:36Z</time>
      </trkpt>
      <trkpt lat="48.53829" lon="2.27299">
        <ele>133.2</ele>
        <time>2020-07-02T09:32:37Z</time>
      </trkpt>
      <trkpt lat="48.53825" lon="2.27299">
        <ele>133.5</ele>
        <time>2020-07-02T09:32:38Z</time>
      </trkpt>
      <trkpt lat="48.53824" lon="2.27299">
        <ele>133.6</ele>
        <time>2020-07-02T09:32:39Z</time>
      </trkpt>
      <trkpt lat="48.53822" lon="2.27299">
        <ele>133.8</ele>
        <time>2020-07-02T09:32:40Z</time>
      </trkpt>
      <trkpt lat="48.53821" lon="2.273">
        <ele>133.9</ele>
        <time>2020-07-02T09:32:41Z</time>
      </trkpt>
      <trkpt lat="48.53818" lon="2.27302">
        <ele>134.2</ele>
        <time>2020-07-02T09:32:42Z</time>
      </trkpt>
      <trkpt lat="48.53817" lon="2.27302">
        <ele>134.3</ele>
        <time>2020-07-02T09:32:43Z</time>
      </trkpt>
      <trkpt lat="48.53814" lon="2.27303">
        <ele>134.5</ele>
        <time>2020-07-02T09:32:44Z</time>
      </trkpt>
      <trkpt lat="48.53813" lon="2.27303">
        <ele>134.6</ele>
        <time>2020-07-02T09:32:45Z</time>
      </trkpt>
      <trkpt lat="48.5381" lon="2.27305">
        <ele>134.9</ele>
        <time>2020-07-02T09:32:46Z</time>
      </trkpt>
      <trkpt lat="48.53809" lon="2.27305">
        <ele>134.9</ele>
        <time>2020-07-02T09:32:47Z</time>
      </trkpt>
      <trkpt lat="48.53805" lon="2.27306">
        <ele>135.2</ele>
        <time>2020-07-02T09:32:48Z</time>
      </trkpt>
      <trkpt lat="48.53804" lon="2.27306">
        <ele>135.3</ele>
        <time>2020-07-02T09:32:49Z</time>
      </trkpt>
      <trkpt lat="48.53801" lon="2.27308">
        <ele>135.4</ele>
        <time>2020-07-02T09:32:50Z</time>
      </trkpt>
      <trkpt lat="48.53798" lon="2.27308">
        <ele>135.6</ele>
        <time>2020-07-02T09:32:51Z</time>
      </trkpt>
      <trkpt lat="48.53797" lon="2.27309">
        <ele>135.7</ele>
        <time>2020-07-02T09:32:52Z</time>
      </trkpt>
      <trkpt lat="48.53794" lon="2.2731">
        <ele>135.9</ele>
        <time>2020-07-02T09:32:53Z</time>
      </trkpt>
      <trkpt lat="48.53793" lon="2.27311">
        <ele>135.9</ele>
        <time>2020-07-02T09:32:54Z</time>
      </trkpt>
      <trkpt lat="48.53789" lon="2.27312">
        <ele>136.1</ele>
        <time>2020-07-02T09:32:55Z</time>
      </trkpt>
      <trkpt lat="48.53789" lon="2.27313">
        <ele>136.1</ele>
        <time>2020-07-02T09:32:56Z</time>
      </trkpt>
      <trkpt lat="48.53785" lon="2.27315">
        <ele>136.3</ele>
        <time>2020-07-02T09:32:57Z</time>
      </trkpt>
      <trkpt lat="48.53784" lon="2.27316">
        <ele>136.3</ele>
        <time>2020-07-02T09:32:58Z</time>
      </trkpt>
      <trkpt lat="48.53781" lon="2.27316">
        <ele>136.4</ele>
        <time>2020-07-02T09:32:59Z</time>
      </trkpt>
      <trkpt lat="48.5378" lon="2.27316">
        <ele>136.5</ele>
        <time>2020-07-02T09:33:00Z</time>
      </trkpt>
      <trkpt lat="48.53777" lon="2.27318">
        <ele>136.6</ele>
        <time>2020-07-02T09:33:01Z</time>
      </trkpt>
      <trkpt lat="48.53776" lon="2.27318">
        <ele>136.7</ele>
        <time>2020-07-02T09:33:02Z</time>
      </trkpt>
      <trkpt lat="48.53773" lon="2.2732">
        <ele>136.8</ele>
        <time>2020-07-02T09:33:03Z</time>
      </trkpt>
      <trkpt lat="48.53772" lon="2.27321">
        <ele>136.8</ele>
        <time>2020-07-02T09:33:04Z</time>
      </trkpt>
      <trkpt lat="48.53768" lon="2.27323">
        <ele>137</ele>
        <time>2020-07-02T09:33:05Z</time>
      </trkpt>
      <trkpt lat="48.53767" lon="2.27324">
        <ele>137.1</ele>
        <time>2020-07-02T09:33:06Z</time>
      </trkpt>
      <trkpt lat="48.53764" lon="2.27325">
        <ele>137.2</ele>
        <time>2020-07-02T09:33:07Z</time>
      </trkpt>
      <trkpt lat="48.5376" lon="2.27327">
        <ele>137.3</ele>
        <time>2020-07-02T09:33:08Z</time>
      </trkpt>
      <trkpt lat="48.53759" lon="2.27327">
        <ele>137.3</ele>
        <time>2020-07-02T09:33:09Z</time>
      </trkpt>
      <trkpt lat="48.53756" lon="2.27328">
        <ele>137.5</ele>
        <time>2020-07-02T09:33:10Z</time>
      </trkpt>
      <trkpt lat="48.53754" lon="2.27328">
        <ele>137.5</ele>
        <time>2020-07-02T09:33:11Z</time>
      </trkpt>
      <trkpt lat="48.53751" lon="2.27329">
        <ele>137.6</ele>
        <time>2020-07-02T09:33:12Z</time>
      </trkpt>
      <trkpt lat="48.53749" lon="2.27329">
        <ele>137.7</ele>
        <time>2020-07-02T09:33:13Z</time>
      </trkpt>
      <trkpt lat="48.53747" lon="2.27331">
        <ele>137.8</ele>
        <time>2020-07-02T09:33:14Z</time>
      </trkpt>
      <trkpt lat="48.53743" lon="2.27333">
        <ele>137.9</ele>
        <time>2020-07-02T09:33:15Z</time>
      </trkpt>
      <trkpt lat="48.53742" lon="2.27333">
        <ele>137.9</ele>
        <time>2020-07-02T09:33:16Z</time>
      </trkpt>
      <trkpt lat="48.53738" lon="2.27334">
        <ele>138</ele>
        <time>2020-07-02T09:33:17Z</time>
      </trkpt>
      <trkpt lat="48.53737" lon="2.27335">
        <ele>138</ele>
        <time>2020-07-02T09:33:18Z</time>
      </trkpt>
      <trkpt lat="48.53733" lon="2.27334">
        <ele>138.1</ele>
        <time>2020-07-02T09:33:19Z</time>
      </trkpt>
      <trkpt lat="48.5373" lon="2.27335">
        <ele>138.2</ele>
        <time>2020-07-02T09:33:20Z</time>
      </trkpt>
      <trkpt lat="48.53727" lon="2.27336">
        <ele>138.2</ele>
        <time>2020-07-02T09:33:21Z</time>
      </trkpt>
      <trkpt lat="48.53726" lon="2.27337">
        <ele>138.3</ele>
        <time>2020-07-02T09:33:22Z</time>
      </trkpt>
      <trkpt lat="48.53723" lon="2.27338">
        <ele>138.4</ele>
        <time>2020-07-02T09:33:23Z</time>
      </trkpt>
      <trkpt lat="48.53722" lon="2.27338">
        <ele>138.4</ele>
        <time>2020-07-02T09:33:24Z</time>
      </trkpt>
      <trkpt lat="48.53719" lon="2.2734">
        <ele>138.5</ele>
        <time>2020-07-02T09:33:25Z</time>
      </trkpt>
      <trkpt lat="48.53715" lon="2.2734">
        <ele>138.5</ele>
        <time>2020-07-02T09:33:26Z</time>
      </trkpt>
      <trkpt lat="48.53713" lon="2.2734">
        <ele>138.6</ele>
        <time>2020-07-02T09:33:27Z</time>
      </trkpt>
      <trkpt lat="48.5371" lon="2.27342">
        <ele>138.7</ele>
        <time>2020-07-02T09:33:28Z</time>
      </trkpt>
      <trkpt lat="48.53707" lon="2.27343">
        <ele>138.7</ele>
        <time>2020-07-02T09:33:29Z</time>
      </trkpt>
      <trkpt lat="48.53703" lon="2.27345">
        <ele>138.8</ele>
        <time>2020-07-02T09:33:30Z</time>
      </trkpt>
      <trkpt lat="48.53702" lon="2.27346">
        <ele>138.8</ele>
        <time>2020-07-02T09:33:31Z</time>
      </trkpt>
      <trkpt lat="48.53699" lon="2.27346">
        <ele>138.8</ele>
        <time>2020-07-02T09:33:32Z</time>
      </trkpt>
      <trkpt lat="48.53698" lon="2.27347">
        <ele>138.8</ele>
        <time>2020-07-02T09:33:33Z</time>
      </trkpt>
      <trkpt lat="48.53695" lon="2.27348">
        <ele>138.8</ele>
        <time>2020-07-02T09:33:34Z</time>
      </trkpt>
      <trkpt lat="48.53692" lon="2.2735">
        <ele>138.8</ele>
        <time>2020-07-02T09:33:35Z</time>
      </trkpt>
      <trkpt lat="48.53691" lon="2.2735">
        <ele>138.8</ele>
        <time>2020-07-02T09:33:36Z</time>
      </trkpt>
      <trkpt lat="48.5369" lon="2.27352">
        <ele>138.9</ele>
        <time>2020-07-02T09:33:37Z</time>
      </trkpt>
      <trkpt lat="48.53688" lon="2.27353">
        <ele>138.9</ele>
        <time>2020-07-02T09:33:38Z</time>
      </trkpt>
      <trkpt lat="48.53687" lon="2.27353">
        <ele>138.9</ele>
        <time>2020-07-02T09:33:39Z</time>
      </trkpt>
      <trkpt lat="48.53686" lon="2.27351">
        <ele>138.9</ele>
        <time>2020-07-02T09:33:40Z</time>
      </trkpt>
      <trkpt lat="48.53685" lon="2.2735">
        <ele>138.9</ele>
        <time>2020-07-02T09:33:41Z</time>
      </trkpt>
      <trkpt lat="48.53686" lon="2.27351">
        <ele>138.9</ele>
        <time>2020-07-02T09:33:42Z</time>
      </trkpt>
      <trkpt lat="48.53686" lon="2.2735">
        <ele>138.9</ele>
        <time>2020-07-02T09:33:43Z</time>
      </trkpt>
      <trkpt lat="48.53686" lon="2.2735">
        <ele>138.9</ele>
        <time>2020-07-02T09:33:44Z</time>
      </trkpt>
      <trkpt lat="48.53686" lon="2.2735">
        <ele>138.9</ele>
        <time>2020-07-02T09:33:45Z</time>
      </trkpt>
      <trkpt lat="48.53686" lon="2.2735">
        <ele>138.9</ele>
        <time>2020-07-02T09:33:46Z</time>
      </trkpt>
      <trkpt lat="48.53686" lon="2.27351">
        <ele>138.9</ele>
        <time>2020-07-02T09:33:47Z</time>
      </trkpt>
      <trkpt lat="48.53685" lon="2.2735">
        <ele>138.9</ele>
        <time>2020-07-02T09:33:48Z</time>
      </trkpt>
      <trkpt lat="48.53685" lon="2.27351">
        <ele>138.9</ele>
        <time>2020-07-02T09:33:49Z</time>
      </trkpt>
      <trkpt lat="48.53685" lon="2.27351">
        <ele>138.9</ele>
        <time>2020-07-02T09:33:50Z</time>
      </trkpt>
      <trkpt lat="48.53685" lon="2.27351">
        <ele>138.9</ele>
        <time>2020-07-02T09:33:51Z</time>
      </trkpt>
      <trkpt lat="48.53676" lon="2.27353">
        <ele>139</ele>
        <time>2020-07-02T09:34:59Z</time>
      </trkpt>
      <trkpt lat="48.53676" lon="2.27353">
        <ele>139</ele>
        <time>2020-07-02T09:35:00Z</time>
      </trkpt>
      <trkpt lat="48.53676" lon="2.27353">
        <ele>139</ele>
        <time>2020-07-02T09:35:01Z</time>
      </trkpt>
      <trkpt lat="48.53676" lon="2.27353">
        <ele>139</ele>
        <time>2020-07-02T09:35:02Z</time>
      </trkpt>
      <trkpt lat="48.53676" lon="2.27354">
        <ele>139</ele>
        <time>2020-07-02T09:35:03Z</time>
      </trkpt>
      <trkpt lat="48.53677" lon="2.27355">
        <ele>139</ele>
        <time>2020-07-02T09:35:04Z</time>
      </trkpt>
      <trkpt lat="48.53677" lon="2.27356">
        <ele>139</ele>
        <time>2020-07-02T09:35:05Z</time>
      </trkpt>
      <trkpt lat="48.53678" lon="2.27356">
        <ele>139</ele>
        <time>2020-07-02T09:35:06Z</time>
      </trkpt>
      <trkpt lat="48.53678" lon="2.27357">
        <ele>139</ele>
        <time>2020-07-02T09:35:07Z</time>
      </trkpt>
      <trkpt lat="48.53677" lon="2.27359">
        <ele>139</ele>
        <time>2020-07-02T09:35:08Z</time>
      </trkpt>
      <trkpt lat="48.53677" lon="2.27359">
        <ele>139</ele>
        <time>2020-07-02T09:35:09Z</time>
      </trkpt>
      <trkpt lat="48.53676" lon="2.2736">
        <ele>139</ele>
        <time>2020-07-02T09:35:10Z</time>
      </trkpt>
      <trkpt lat="48.53675" lon="2.2736">
        <ele>139</ele>
        <time>2020-07-02T09:35:11Z</time>
      </trkpt>
      <trkpt lat="48.53674" lon="2.27361">
        <ele>139</ele>
        <time>2020-07-02T09:35:12Z</time>
      </trkpt>
      <trkpt lat="48.53674" lon="2.27361">
        <ele>139</ele>
        <time>2020-07-02T09:35:13Z</time>
      </trkpt>
      <trkpt lat="48.53673" lon="2.27362">
        <ele>139</ele>
        <time>2020-07-02T09:35:14Z</time>
      </trkpt>
      <trkpt lat="48.53672" lon="2.27362">
        <ele>139</ele>
        <time>2020-07-02T09:35:15Z</time>
      </trkpt>
      <trkpt lat="48.53671" lon="2.27363">
        <ele>139</ele>
        <time>2020-07-02T09:35:16Z</time>
      </trkpt>
      <trkpt lat="48.53671" lon="2.27363">
        <ele>139</ele>
        <time>2020-07-02T09:35:17Z</time>
      </trkpt>
      <trkpt lat="48.5367" lon="2.27364">
        <ele>139</ele>
        <time>2020-07-02T09:35:18Z</time>
      </trkpt>
      <trkpt lat="48.53669" lon="2.27364">
        <ele>139</ele>
        <time>2020-07-02T09:39:31Z</time>
      </trkpt>
      <trkpt lat="48.53668" lon="2.27365">
        <ele>139</ele>
        <time>2020-07-02T09:39:32Z</time>
      </trkpt>
      <trkpt lat="48.53666" lon="2.27366">
        <ele>139</ele>
        <time>2020-07-02T09:39:33Z</time>
      </trkpt>
      <trkpt lat="48.53663" lon="2.27367">
        <ele>139</ele>
        <time>2020-07-02T09:39:34Z</time>
      </trkpt>
      <trkpt lat="48.5366" lon="2.27368">
        <ele>139</ele>
        <time>2020-07-02T09:39:35Z</time>
      </trkpt>
      <trkpt lat="48.53655" lon="2.2737">
        <ele>139</ele>
        <time>2020-07-02T09:39:36Z</time>
      </trkpt>
      <trkpt lat="48.5365" lon="2.27371">
        <ele>139.1</ele>
        <time>2020-07-02T09:39:37Z</time>
      </trkpt>
      <trkpt lat="48.53645" lon="2.27372">
        <ele>139.1</ele>
        <time>2020-07-02T09:39:38Z</time>
      </trkpt>
      <trkpt lat="48.53641" lon="2.27374">
        <ele>139.1</ele>
        <time>2020-07-02T09:39:39Z</time>
      </trkpt>
      <trkpt lat="48.53638" lon="2.27375">
        <ele>139.2</ele>
        <time>2020-07-02T09:39:40Z</time>
      </trkpt>
      <trkpt lat="48.53633" lon="2.27378">
        <ele>139.2</ele>
        <time>2020-07-02T09:39:41Z</time>
      </trkpt>
      <trkpt lat="48.53629" lon="2.27379">
        <ele>139.2</ele>
        <time>2020-07-02T09:39:42Z</time>
      </trkpt>
      <trkpt lat="48.53626" lon="2.27382">
        <ele>139.2</ele>
        <time>2020-07-02T09:39:43Z</time>
      </trkpt>
      <trkpt lat="48.53622" lon="2.27383">
        <ele>139.2</ele>
        <time>2020-07-02T09:39:44Z</time>
      </trkpt>
      <trkpt lat="48.53617" lon="2.27385">
        <ele>139.2</ele>
        <time>2020-07-02T09:39:45Z</time>
      </trkpt>
      <trkpt lat="48.53613" lon="2.27386">
        <ele>139.1</ele>
        <time>2020-07-02T09:39:46Z</time>
      </trkpt>
      <trkpt lat="48.53609" lon="2.27388">
        <ele>139.1</ele>
        <time>2020-07-02T09:39:47Z</time>
      </trkpt>
      <trkpt lat="48.53605" lon="2.27389">
        <ele>139</ele>
        <time>2020-07-02T09:39:48Z</time>
      </trkpt>
      <trkpt lat="48.53601" lon="2.27391">
        <ele>139</ele>
        <time>2020-07-02T09:39:49Z</time>
      </trkpt>
      <trkpt lat="48.53597" lon="2.27391">
        <ele>138.9</ele>
        <time>2020-07-02T09:39:50Z</time>
      </trkpt>
      <trkpt lat="48.53593" lon="2.27392">
        <ele>138.9</ele>
        <time>2020-07-02T09:39:51Z</time>
      </trkpt>
      <trkpt lat="48.53589" lon="2.27394">
        <ele>138.8</ele>
        <time>2020-07-02T09:39:52Z</time>
      </trkpt>
      <trkpt lat="48.53583" lon="2.27395">
        <ele>138.7</ele>
        <time>2020-07-02T09:39:53Z</time>
      </trkpt>
      <trkpt lat="48.53578" lon="2.27397">
        <ele>138.7</ele>
        <time>2020-07-02T09:39:54Z</time>
      </trkpt>
      <trkpt lat="48.53571" lon="2.27399">
        <ele>138.5</ele>
        <time>2020-07-02T09:39:55Z</time>
      </trkpt>
      <trkpt lat="48.53565" lon="2.27402">
        <ele>138.3</ele>
        <time>2020-07-02T09:39:56Z</time>
      </trkpt>
      <trkpt lat="48.53558" lon="2.27404">
        <ele>138</ele>
        <time>2020-07-02T09:39:57Z</time>
      </trkpt>
      <trkpt lat="48.53551" lon="2.27406">
        <ele>137.7</ele>
        <time>2020-07-02T09:39:58Z</time>
      </trkpt>
      <trkpt lat="48.53544" lon="2.27407">
        <ele>137.5</ele>
        <time>2020-07-02T09:39:59Z</time>
      </trkpt>
      <trkpt lat="48.53538" lon="2.2741">
        <ele>137.2</ele>
        <time>2020-07-02T09:40:00Z</time>
      </trkpt>
      <trkpt lat="48.53531" lon="2.27411">
        <ele>137</ele>
        <time>2020-07-02T09:40:01Z</time>
      </trkpt>
      <trkpt lat="48.53523" lon="2.27409">
        <ele>136.7</ele>
        <time>2020-07-02T09:40:02Z</time>
      </trkpt>
      <trkpt lat="48.53517" lon="2.27405">
        <ele>136.4</ele>
        <time>2020-07-02T09:40:03Z</time>
      </trkpt>
      <trkpt lat="48.53512" lon="2.27399">
        <ele>136</ele>
        <time>2020-07-02T09:40:04Z</time>
      </trkpt>
      <trkpt lat="48.53507" lon="2.27392">
        <ele>135.4</ele>
        <time>2020-07-02T09:40:05Z</time>
      </trkpt>
      <trkpt lat="48.53504" lon="2.27382">
        <ele>134.9</ele>
        <time>2020-07-02T09:40:06Z</time>
      </trkpt>
      <trkpt lat="48.535" lon="2.27371">
        <ele>134.3</ele>
        <time>2020-07-02T09:40:07Z</time>
      </trkpt>
      <trkpt lat="48.53496" lon="2.27361">
        <ele>133.7</ele>
        <time>2020-07-02T09:40:08Z</time>
      </trkpt>
      <trkpt lat="48.53492" lon="2.27352">
        <ele>133.2</ele>
        <time>2020-07-02T09:40:09Z</time>
      </trkpt>
      <trkpt lat="48.53489" lon="2.27343">
        <ele>132.6</ele>
        <time>2020-07-02T09:40:10Z</time>
      </trkpt>
      <trkpt lat="48.53486" lon="2.27333">
        <ele>132.1</ele>
        <time>2020-07-02T09:40:11Z</time>
      </trkpt>
      <trkpt lat="48.53483" lon="2.27326">
        <ele>131.6</ele>
        <time>2020-07-02T09:40:12Z</time>
      </trkpt>
      <trkpt lat="48.5348" lon="2.27318">
        <ele>131.1</ele>
        <time>2020-07-02T09:40:13Z</time>
      </trkpt>
      <trkpt lat="48.53477" lon="2.2731">
        <ele>130.6</ele>
        <time>2020-07-02T09:40:14Z</time>
      </trkpt>
      <trkpt lat="48.53474" lon="2.27304">
        <ele>130.2</ele>
        <time>2020-07-02T09:40:15Z</time>
      </trkpt>
      <trkpt lat="48.5347" lon="2.27297">
        <ele>129.7</ele>
        <time>2020-07-02T09:40:16Z</time>
      </trkpt>
      <trkpt lat="48.53467" lon="2.27292">
        <ele>129.3</ele>
        <time>2020-07-02T09:40:17Z</time>
      </trkpt>
      <trkpt lat="48.53464" lon="2.27287">
        <ele>128.9</ele>
        <time>2020-07-02T09:40:18Z</time>
      </trkpt>
      <trkpt lat="48.5346" lon="2.27283">
        <ele>128.5</ele>
        <time>2020-07-02T09:40:19Z</time>
      </trkpt>
      <trkpt lat="48.53455" lon="2.27278">
        <ele>128</ele>
        <time>2020-07-02T09:40:20Z</time>
      </trkpt>
      <trkpt lat="48.53449" lon="2.27273">
        <ele>127.4</ele>
        <time>2020-07-02T09:40:21Z</time>
      </trkpt>
      <trkpt lat="48.53443" lon="2.27268">
        <ele>126.9</ele>
        <time>2020-07-02T09:40:22Z</time>
      </trkpt>
      <trkpt lat="48.53437" lon="2.27265">
        <ele>126.3</ele>
        <time>2020-07-02T09:40:23Z</time>
      </trkpt>
      <trkpt lat="48.53431" lon="2.27261">
        <ele>125.8</ele>
        <time>2020-07-02T09:40:24Z</time>
      </trkpt>
      <trkpt lat="48.53425" lon="2.27258">
        <ele>125.4</ele>
        <time>2020-07-02T09:40:25Z</time>
      </trkpt>
      <trkpt lat="48.53419" lon="2.27256">
        <ele>124.8</ele>
        <time>2020-07-02T09:40:26Z</time>
      </trkpt>
      <trkpt lat="48.53413" lon="2.27253">
        <ele>124.3</ele>
        <time>2020-07-02T09:40:27Z</time>
      </trkpt>
      <trkpt lat="48.53407" lon="2.27251">
        <ele>123.9</ele>
        <time>2020-07-02T09:40:28Z</time>
      </trkpt>
      <trkpt lat="48.53403" lon="2.27249">
        <ele>123.5</ele>
        <time>2020-07-02T09:40:29Z</time>
      </trkpt>
      <trkpt lat="48.53398" lon="2.27247">
        <ele>123.2</ele>
        <time>2020-07-02T09:40:30Z</time>
      </trkpt>
      <trkpt lat="48.53393" lon="2.27245">
        <ele>122.8</ele>
        <time>2020-07-02T09:40:31Z</time>
      </trkpt>
      <trkpt lat="48.53388" lon="2.27242">
        <ele>122.4</ele>
        <time>2020-07-02T09:40:32Z</time>
      </trkpt>
      <trkpt lat="48.53383" lon="2.2724">
        <ele>121.9</ele>
        <time>2020-07-02T09:40:33Z</time>
      </trkpt>
      <trkpt lat="48.53377" lon="2.27237">
        <ele>121.4</ele>
        <time>2020-07-02T09:40:34Z</time>
      </trkpt>
      <trkpt lat="48.53372" lon="2.27234">
        <ele>120.9</ele>
        <time>2020-07-02T09:40:35Z</time>
      </trkpt>
      <trkpt lat="48.53366" lon="2.2723">
        <ele>120.5</ele>
        <time>2020-07-02T09:40:36Z</time>
      </trkpt>
      <trkpt lat="48.53362" lon="2.27226">
        <ele>120</ele>
        <time>2020-07-02T09:40:37Z</time>
      </trkpt>
      <trkpt lat="48.53357" lon="2.27221">
        <ele>119.6</ele>
        <time>2020-07-02T09:40:38Z</time>
      </trkpt>
      <trkpt lat="48.53352" lon="2.27217">
        <ele>119.1</ele>
        <time>2020-07-02T09:40:39Z</time>
      </trkpt>
      <trkpt lat="48.53346" lon="2.27211">
        <ele>118.6</ele>
        <time>2020-07-02T09:40:40Z</time>
      </trkpt>
      <trkpt lat="48.53341" lon="2.27207">
        <ele>118.1</ele>
        <time>2020-07-02T09:40:41Z</time>
      </trkpt>
      <trkpt lat="48.53336" lon="2.27202">
        <ele>117.7</ele>
        <time>2020-07-02T09:40:42Z</time>
      </trkpt>
      <trkpt lat="48.5333" lon="2.27196">
        <ele>117.1</ele>
        <time>2020-07-02T09:40:43Z</time>
      </trkpt>
      <trkpt lat="48.53323" lon="2.2719">
        <ele>116.4</ele>
        <time>2020-07-02T09:40:44Z</time>
      </trkpt>
      <trkpt lat="48.53315" lon="2.27184">
        <ele>115.7</ele>
        <time>2020-07-02T09:40:45Z</time>
      </trkpt>
      <trkpt lat="48.53308" lon="2.27178">
        <ele>115.1</ele>
        <time>2020-07-02T09:40:46Z</time>
      </trkpt>
      <trkpt lat="48.53301" lon="2.27174">
        <ele>114.6</ele>
        <time>2020-07-02T09:40:47Z</time>
      </trkpt>
      <trkpt lat="48.53293" lon="2.27171">
        <ele>114.1</ele>
        <time>2020-07-02T09:40:48Z</time>
      </trkpt>
      <trkpt lat="48.53285" lon="2.27169">
        <ele>113.6</ele>
        <time>2020-07-02T09:40:49Z</time>
      </trkpt>
      <trkpt lat="48.53278" lon="2.27167">
        <ele>113.1</ele>
        <time>2020-07-02T09:40:50Z</time>
      </trkpt>
      <trkpt lat="48.53271" lon="2.27168">
        <ele>112.7</ele>
        <time>2020-07-02T09:40:51Z</time>
      </trkpt>
      <trkpt lat="48.53264" lon="2.2717">
        <ele>112.2</ele>
        <time>2020-07-02T09:40:52Z</time>
      </trkpt>
      <trkpt lat="48.53255" lon="2.27172">
        <ele>111.6</ele>
        <time>2020-07-02T09:40:53Z</time>
      </trkpt>
      <trkpt lat="48.53246" lon="2.27175">
        <ele>110.9</ele>
        <time>2020-07-02T09:40:54Z</time>
      </trkpt>
      <trkpt lat="48.53238" lon="2.2718">
        <ele>110.4</ele>
        <time>2020-07-02T09:40:55Z</time>
      </trkpt>
      <trkpt lat="48.5323" lon="2.27183">
        <ele>109.7</ele>
        <time>2020-07-02T09:40:56Z</time>
      </trkpt>
      <trkpt lat="48.53223" lon="2.27187">
        <ele>109.1</ele>
        <time>2020-07-02T09:40:57Z</time>
      </trkpt>
      <trkpt lat="48.53214" lon="2.27192">
        <ele>108.5</ele>
        <time>2020-07-02T09:40:58Z</time>
      </trkpt>
      <trkpt lat="48.53207" lon="2.27196">
        <ele>107.9</ele>
        <time>2020-07-02T09:40:59Z</time>
      </trkpt>
      <trkpt lat="48.532" lon="2.272">
        <ele>107.4</ele>
        <time>2020-07-02T09:41:00Z</time>
      </trkpt>
      <trkpt lat="48.53194" lon="2.27204">
        <ele>106.9</ele>
        <time>2020-07-02T09:41:01Z</time>
      </trkpt>
      <trkpt lat="48.53187" lon="2.27207">
        <ele>106.3</ele>
        <time>2020-07-02T09:41:02Z</time>
      </trkpt>
      <trkpt lat="48.5318" lon="2.27211">
        <ele>105.8</ele>
        <time>2020-07-02T09:41:03Z</time>
      </trkpt>
      <trkpt lat="48.53171" lon="2.27213">
        <ele>105.1</ele>
        <time>2020-07-02T09:41:04Z</time>
      </trkpt>
      <trkpt lat="48.53163" lon="2.27216">
        <ele>104.4</ele>
        <time>2020-07-02T09:41:05Z</time>
      </trkpt>
      <trkpt lat="48.53154" lon="2.27216">
        <ele>103.6</ele>
        <time>2020-07-02T09:41:06Z</time>
      </trkpt>
      <trkpt lat="48.53145" lon="2.27215">
        <ele>102.9</ele>
        <time>2020-07-02T09:41:07Z</time>
      </trkpt>
      <trkpt lat="48.53136" lon="2.27215">
        <ele>102.2</ele>
        <time>2020-07-02T09:41:08Z</time>
      </trkpt>
      <trkpt lat="48.53127" lon="2.27214">
        <ele>101.5</ele>
        <time>2020-07-02T09:41:09Z</time>
      </trkpt>
      <trkpt lat="48.53117" lon="2.27211">
        <ele>100.8</ele>
        <time>2020-07-02T09:41:10Z</time>
      </trkpt>
      <trkpt lat="48.53107" lon="2.27207">
        <ele>100</ele>
        <time>2020-07-02T09:41:11Z</time>
      </trkpt>
      <trkpt lat="48.53097" lon="2.27201">
        <ele>99.2</ele>
        <time>2020-07-02T09:41:12Z</time>
      </trkpt>
      <trkpt lat="48.53087" lon="2.27194">
        <ele>98.5</ele>
        <time>2020-07-02T09:41:13Z</time>
      </trkpt>
      <trkpt lat="48.53077" lon="2.27187">
        <ele>97.8</ele>
        <time>2020-07-02T09:41:14Z</time>
      </trkpt>
      <trkpt lat="48.53067" lon="2.27179">
        <ele>97.1</ele>
        <time>2020-07-02T09:41:15Z</time>
      </trkpt>
      <trkpt lat="48.53057" lon="2.27172">
        <ele>96.3</ele>
        <time>2020-07-02T09:41:16Z</time>
      </trkpt>
      <trkpt lat="48.53048" lon="2.27165">
        <ele>95.5</ele>
        <time>2020-07-02T09:41:17Z</time>
      </trkpt>
      <trkpt lat="48.5304" lon="2.27158">
        <ele>94.7</ele>
        <time>2020-07-02T09:41:18Z</time>
      </trkpt>
      <trkpt lat="48.5303" lon="2.27153">
        <ele>93.9</ele>
        <time>2020-07-02T09:41:19Z</time>
      </trkpt>
      <trkpt lat="48.53021" lon="2.27146">
        <ele>93.1</ele>
        <time>2020-07-02T09:41:20Z</time>
      </trkpt>
      <trkpt lat="48.53011" lon="2.27139">
        <ele>92.3</ele>
        <time>2020-07-02T09:41:21Z</time>
      </trkpt>
      <trkpt lat="48.53002" lon="2.27131">
        <ele>91.5</ele>
        <time>2020-07-02T09:41:22Z</time>
      </trkpt>
      <trkpt lat="48.52992" lon="2.27124">
        <ele>90.7</ele>
        <time>2020-07-02T09:41:23Z</time>
      </trkpt>
      <trkpt lat="48.52983" lon="2.27117">
        <ele>89.9</ele>
        <time>2020-07-02T09:41:24Z</time>
      </trkpt>
      <trkpt lat="48.52974" lon="2.27111">
        <ele>89.2</ele>
        <time>2020-07-02T09:41:25Z</time>
      </trkpt>
      <trkpt lat="48.52965" lon="2.27105">
        <ele>88.5</ele>
        <time>2020-07-02T09:41:26Z</time>
      </trkpt>
      <trkpt lat="48.52956" lon="2.27098">
        <ele>87.8</ele>
        <time>2020-07-02T09:41:27Z</time>
      </trkpt>
      <trkpt lat="48.52947" lon="2.27091">
        <ele>87</ele>
        <time>2020-07-02T09:41:28Z</time>
      </trkpt>
      <trkpt lat="48.52938" lon="2.27084">
        <ele>86.3</ele>
        <time>2020-07-02T09:41:29Z</time>
      </trkpt>
      <trkpt lat="48.52929" lon="2.27078">
        <ele>85.6</ele>
        <time>2020-07-02T09:41:30Z</time>
      </trkpt>
      <trkpt lat="48.52921" lon="2.27072">
        <ele>84.9</ele>
        <time>2020-07-02T09:41:31Z</time>
      </trkpt>
      <trkpt lat="48.52913" lon="2.27066">
        <ele>84.2</ele>
        <time>2020-07-02T09:41:32Z</time>
      </trkpt>
      <trkpt lat="48.52905" lon="2.27059">
        <ele>83.4</ele>
        <time>2020-07-02T09:41:33Z</time>
      </trkpt>
      <trkpt lat="48.52897" lon="2.27054">
        <ele>82.7</ele>
        <time>2020-07-02T09:41:34Z</time>
      </trkpt>
      <trkpt lat="48.52889" lon="2.27048">
        <ele>82.1</ele>
        <time>2020-07-02T09:41:35Z</time>
      </trkpt>
      <trkpt lat="48.52882" lon="2.27042">
        <ele>81.4</ele>
        <time>2020-07-02T09:41:36Z</time>
      </trkpt>
      <trkpt lat="48.52875" lon="2.27037">
        <ele>80.7</ele>
        <time>2020-07-02T09:41:37Z</time>
      </trkpt>
      <trkpt lat="48.52869" lon="2.27032">
        <ele>80</ele>
        <time>2020-07-02T09:41:38Z</time>
      </trkpt>
      <trkpt lat="48.52862" lon="2.27027">
        <ele>79.4</ele>
        <time>2020-07-02T09:41:39Z</time>
      </trkpt>
      <trkpt lat="48.52857" lon="2.27022">
        <ele>78.9</ele>
        <time>2020-07-02T09:41:40Z</time>
      </trkpt>
      <trkpt lat="48.52852" lon="2.27017">
        <ele>78.5</ele>
        <time>2020-07-02T09:41:41Z</time>
      </trkpt>
      <trkpt lat="48.52847" lon="2.27012">
        <ele>78.1</ele>
        <time>2020-07-02T09:41:42Z</time>
      </trkpt>
      <trkpt lat="48.52842" lon="2.27008">
        <ele>77.8</ele>
        <time>2020-07-02T09:41:43Z</time>
      </trkpt>
      <trkpt lat="48.52837" lon="2.27008">
        <ele>77.5</ele>
        <time>2020-07-02T09:41:44Z</time>
      </trkpt>
      <trkpt lat="48.52832" lon="2.27009">
        <ele>77</ele>
        <time>2020-07-02T09:41:45Z</time>
      </trkpt>
      <trkpt lat="48.52824" lon="2.27013">
        <ele>76.3</ele>
        <time>2020-07-02T09:41:46Z</time>
      </trkpt>
      <trkpt lat="48.52821" lon="2.27016">
        <ele>76</ele>
        <time>2020-07-02T09:41:47Z</time>
      </trkpt>
      <trkpt lat="48.52813" lon="2.27021">
        <ele>74.9</ele>
        <time>2020-07-02T09:41:48Z</time>
      </trkpt>
      <trkpt lat="48.52805" lon="2.27022">
        <ele>74.9</ele>
        <time>2020-07-02T09:41:49Z</time>
      </trkpt>
      <trkpt lat="48.52798" lon="2.27021">
        <ele>74.7</ele>
        <time>2020-07-02T09:41:50Z</time>
      </trkpt>
      <trkpt lat="48.52791" lon="2.27021">
        <ele>74.4</ele>
        <time>2020-07-02T09:41:51Z</time>
      </trkpt>
      <trkpt lat="48.52784" lon="2.27022">
        <ele>74.1</ele>
        <time>2020-07-02T09:41:52Z</time>
      </trkpt>
      <trkpt lat="48.52777" lon="2.27024">
        <ele>73.7</ele>
        <time>2020-07-02T09:41:53Z</time>
      </trkpt>
      <trkpt lat="48.52771" lon="2.27023">
        <ele>73.5</ele>
        <time>2020-07-02T09:41:54Z</time>
      </trkpt>
      <trkpt lat="48.52765" lon="2.27024">
        <ele>73.2</ele>
        <time>2020-07-02T09:41:55Z</time>
      </trkpt>
      <trkpt lat="48.52758" lon="2.27025">
        <ele>72.9</ele>
        <time>2020-07-02T09:41:56Z</time>
      </trkpt>
      <trkpt lat="48.52751" lon="2.27027">
        <ele>72.6</ele>
        <time>2020-07-02T09:41:57Z</time>
      </trkpt>
      <trkpt lat="48.52745" lon="2.27028">
        <ele>72.3</ele>
        <time>2020-07-02T09:41:58Z</time>
      </trkpt>
      <trkpt lat="48.52738" lon="2.27029">
        <ele>72</ele>
        <time>2020-07-02T09:41:59Z</time>
      </trkpt>
      <trkpt lat="48.52732" lon="2.2703">
        <ele>71.7</ele>
        <time>2020-07-02T09:42:00Z</time>
      </trkpt>
      <trkpt lat="48.52726" lon="2.2703">
        <ele>71.4</ele>
        <time>2020-07-02T09:42:01Z</time>
      </trkpt>
      <trkpt lat="48.52721" lon="2.2703">
        <ele>71.2</ele>
        <time>2020-07-02T09:42:02Z</time>
      </trkpt>
      <trkpt lat="48.52717" lon="2.27029">
        <ele>71.1</ele>
        <time>2020-07-02T09:42:03Z</time>
      </trkpt>
      <trkpt lat="48.52712" lon="2.27029">
        <ele>70.9</ele>
        <time>2020-07-02T09:42:04Z</time>
      </trkpt>
      <trkpt lat="48.52708" lon="2.27029">
        <ele>70.7</ele>
        <time>2020-07-02T09:42:05Z</time>
      </trkpt>
      <trkpt lat="48.52705" lon="2.27029">
        <ele>70.7</ele>
        <time>2020-07-02T09:42:06Z</time>
      </trkpt>
      <trkpt lat="48.52702" lon="2.27028">
        <ele>70.6</ele>
        <time>2020-07-02T09:42:07Z</time>
      </trkpt>
      <trkpt lat="48.52698" lon="2.27029">
        <ele>70.6</ele>
        <time>2020-07-02T09:42:08Z</time>
      </trkpt>
      <trkpt lat="48.52695" lon="2.2703">
        <ele>70.5</ele>
        <time>2020-07-02T09:42:09Z</time>
      </trkpt>
      <trkpt lat="48.52692" lon="2.27031">
        <ele>70.5</ele>
        <time>2020-07-02T09:42:10Z</time>
      </trkpt>
      <trkpt lat="48.52688" lon="2.27032">
        <ele>70.4</ele>
        <time>2020-07-02T09:42:11Z</time>
      </trkpt>
      <trkpt lat="48.52685" lon="2.27032">
        <ele>70.3</ele>
        <time>2020-07-02T09:42:12Z</time>
      </trkpt>
      <trkpt lat="48.52682" lon="2.27033">
        <ele>70.3</ele>
        <time>2020-07-02T09:42:13Z</time>
      </trkpt>
      <trkpt lat="48.52679" lon="2.27033">
        <ele>70.2</ele>
        <time>2020-07-02T09:42:14Z</time>
      </trkpt>
      <trkpt lat="48.52676" lon="2.27034">
        <ele>70.2</ele>
        <time>2020-07-02T09:42:15Z</time>
      </trkpt>
      <trkpt lat="48.52673" lon="2.27035">
        <ele>70.1</ele>
        <time>2020-07-02T09:42:16Z</time>
      </trkpt>
      <trkpt lat="48.52669" lon="2.27035">
        <ele>70.1</ele>
        <time>2020-07-02T09:42:17Z</time>
      </trkpt>
      <trkpt lat="48.52668" lon="2.27035">
        <ele>70.1</ele>
        <time>2020-07-02T09:42:18Z</time>
      </trkpt>
      <trkpt lat="48.52666" lon="2.27034">
        <ele>70</ele>
        <time>2020-07-02T09:42:19Z</time>
      </trkpt>
      <trkpt lat="48.52666" lon="2.27035">
        <ele>70</ele>
        <time>2020-07-02T09:42:20Z</time>
      </trkpt>
      <trkpt lat="48.52666" lon="2.27035">
        <ele>70</ele>
        <time>2020-07-02T09:42:21Z</time>
      </trkpt>
      <trkpt lat="48.52666" lon="2.27035">
        <ele>70</ele>
        <time>2020-07-02T09:42:22Z</time>
      </trkpt>
      <trkpt lat="48.52666" lon="2.27037">
        <ele>70</ele>
        <time>2020-07-02T09:42:23Z</time>
      </trkpt>
      <trkpt lat="48.52666" lon="2.27037">
        <ele>70</ele>
        <time>2020-07-02T09:42:24Z</time>
      </trkpt>
      <trkpt lat="48.52665" lon="2.27038">
        <ele>70</ele>
        <time>2020-07-02T09:42:25Z</time>
      </trkpt>
      <trkpt lat="48.52666" lon="2.27039">
        <ele>70</ele>
        <time>2020-07-02T09:42:26Z</time>
      </trkpt>
      <trkpt lat="48.52665" lon="2.27039">
        <ele>70</ele>
        <time>2020-07-02T09:42:27Z</time>
      </trkpt>
      <trkpt lat="48.52665" lon="2.2704">
        <ele>69.9</ele>
        <time>2020-07-02T09:42:28Z</time>
      </trkpt>
      <trkpt lat="48.52664" lon="2.2704">
        <ele>69.9</ele>
        <time>2020-07-02T09:42:29Z</time>
      </trkpt>
      <trkpt lat="48.52663" lon="2.27038">
        <ele>69.9</ele>
        <time>2020-07-02T09:42:30Z</time>
      </trkpt>
      <trkpt lat="48.52661" lon="2.27039">
        <ele>69.9</ele>
        <time>2020-07-02T09:42:31Z</time>
      </trkpt>
      <trkpt lat="48.5266" lon="2.27038">
        <ele>69.9</ele>
        <time>2020-07-02T09:42:32Z</time>
      </trkpt>
      <trkpt lat="48.52658" lon="2.27034">
        <ele>69.8</ele>
        <time>2020-07-02T09:42:33Z</time>
      </trkpt>
      <trkpt lat="48.52657" lon="2.27032">
        <ele>69.8</ele>
        <time>2020-07-02T09:42:34Z</time>
      </trkpt>
      <trkpt lat="48.52656" lon="2.27027">
        <ele>69.8</ele>
        <time>2020-07-02T09:42:35Z</time>
      </trkpt>
      <trkpt lat="48.52655" lon="2.27025">
        <ele>69.7</ele>
        <time>2020-07-02T09:42:36Z</time>
      </trkpt>
      <trkpt lat="48.52654" lon="2.27019">
        <ele>69.7</ele>
        <time>2020-07-02T09:42:37Z</time>
      </trkpt>
      <trkpt lat="48.52653" lon="2.27013">
        <ele>69.6</ele>
        <time>2020-07-02T09:42:38Z</time>
      </trkpt>
      <trkpt lat="48.52652" lon="2.27008">
        <ele>69.5</ele>
        <time>2020-07-02T09:42:39Z</time>
      </trkpt>
      <trkpt lat="48.5265" lon="2.27002">
        <ele>69.5</ele>
        <time>2020-07-02T09:42:40Z</time>
      </trkpt>
      <trkpt lat="48.52649" lon="2.26996">
        <ele>69.4</ele>
        <time>2020-07-02T09:42:41Z</time>
      </trkpt>
      <trkpt lat="48.52646" lon="2.2699">
        <ele>69.4</ele>
        <time>2020-07-02T09:42:42Z</time>
      </trkpt>
      <trkpt lat="48.52644" lon="2.26983">
        <ele>69.3</ele>
        <time>2020-07-02T09:42:43Z</time>
      </trkpt>
      <trkpt lat="48.52642" lon="2.26976">
        <ele>69.3</ele>
        <time>2020-07-02T09:42:44Z</time>
      </trkpt>
      <trkpt lat="48.5264" lon="2.26968">
        <ele>69.2</ele>
        <time>2020-07-02T09:42:45Z</time>
      </trkpt>
      <trkpt lat="48.52639" lon="2.2696">
        <ele>69.2</ele>
        <time>2020-07-02T09:42:46Z</time>
      </trkpt>
      <trkpt lat="48.52637" lon="2.26951">
        <ele>69.2</ele>
        <time>2020-07-02T09:42:47Z</time>
      </trkpt>
      <trkpt lat="48.52635" lon="2.26943">
        <ele>69.3</ele>
        <time>2020-07-02T09:42:48Z</time>
      </trkpt>
      <trkpt lat="48.52631" lon="2.26936">
        <ele>69.4</ele>
        <time>2020-07-02T09:42:49Z</time>
      </trkpt>
      <trkpt lat="48.52628" lon="2.26928">
        <ele>69.5</ele>
        <time>2020-07-02T09:42:50Z</time>
      </trkpt>
      <trkpt lat="48.52627" lon="2.26919">
        <ele>69.6</ele>
        <time>2020-07-02T09:42:51Z</time>
      </trkpt>
      <trkpt lat="48.52624" lon="2.26912">
        <ele>69.7</ele>
        <time>2020-07-02T09:42:52Z</time>
      </trkpt>
      <trkpt lat="48.5262" lon="2.26905">
        <ele>69.9</ele>
        <time>2020-07-02T09:42:53Z</time>
      </trkpt>
      <trkpt lat="48.52616" lon="2.26899">
        <ele>70</ele>
        <time>2020-07-02T09:42:54Z</time>
      </trkpt>
      <trkpt lat="48.52612" lon="2.26892">
        <ele>70.1</ele>
        <time>2020-07-02T09:42:55Z</time>
      </trkpt>
      <trkpt lat="48.52608" lon="2.26885">
        <ele>70.2</ele>
        <time>2020-07-02T09:42:56Z</time>
      </trkpt>
      <trkpt lat="48.52605" lon="2.26879">
        <ele>70.4</ele>
        <time>2020-07-02T09:42:57Z</time>
      </trkpt>
      <trkpt lat="48.52601" lon="2.26874">
        <ele>70.5</ele>
        <time>2020-07-02T09:42:58Z</time>
      </trkpt>
      <trkpt lat="48.52596" lon="2.26868">
        <ele>70.7</ele>
        <time>2020-07-02T09:42:59Z</time>
      </trkpt>
      <trkpt lat="48.52593" lon="2.2686">
        <ele>70.9</ele>
        <time>2020-07-02T09:43:00Z</time>
      </trkpt>
      <trkpt lat="48.52589" lon="2.26855">
        <ele>71</ele>
        <time>2020-07-02T09:43:01Z</time>
      </trkpt>
      <trkpt lat="48.52586" lon="2.26849">
        <ele>71.1</ele>
        <time>2020-07-02T09:43:02Z</time>
      </trkpt>
      <trkpt lat="48.52582" lon="2.26842">
        <ele>71.3</ele>
        <time>2020-07-02T09:43:03Z</time>
      </trkpt>
      <trkpt lat="48.52578" lon="2.26835">
        <ele>71.4</ele>
        <time>2020-07-02T09:43:04Z</time>
      </trkpt>
      <trkpt lat="48.52575" lon="2.26829">
        <ele>71.5</ele>
        <time>2020-07-02T09:43:05Z</time>
      </trkpt>
      <trkpt lat="48.52571" lon="2.26823">
        <ele>71.7</ele>
        <time>2020-07-02T09:43:06Z</time>
      </trkpt>
      <trkpt lat="48.52567" lon="2.26819">
        <ele>71.8</ele>
        <time>2020-07-02T09:43:07Z</time>
      </trkpt>
      <trkpt lat="48.52563" lon="2.26814">
        <ele>72</ele>
        <time>2020-07-02T09:43:08Z</time>
      </trkpt>
      <trkpt lat="48.52558" lon="2.26809">
        <ele>72.1</ele>
        <time>2020-07-02T09:43:09Z</time>
      </trkpt>
      <trkpt lat="48.52554" lon="2.26804">
        <ele>72.2</ele>
        <time>2020-07-02T09:43:10Z</time>
      </trkpt>
      <trkpt lat="48.5255" lon="2.26797">
        <ele>72.3</ele>
        <time>2020-07-02T09:43:11Z</time>
      </trkpt>
      <trkpt lat="48.52547" lon="2.26791">
        <ele>72.4</ele>
        <time>2020-07-02T09:43:12Z</time>
      </trkpt>
      <trkpt lat="48.52544" lon="2.26785">
        <ele>72.5</ele>
        <time>2020-07-02T09:43:13Z</time>
      </trkpt>
      <trkpt lat="48.52541" lon="2.2678">
        <ele>72.5</ele>
        <time>2020-07-02T09:43:14Z</time>
      </trkpt>
      <trkpt lat="48.5254" lon="2.26775">
        <ele>72.5</ele>
        <time>2020-07-02T09:43:15Z</time>
      </trkpt>
      <trkpt lat="48.52538" lon="2.2677">
        <ele>72.5</ele>
        <time>2020-07-02T09:43:16Z</time>
      </trkpt>
      <trkpt lat="48.52536" lon="2.26762">
        <ele>72.5</ele>
        <time>2020-07-02T09:43:17Z</time>
      </trkpt>
      <trkpt lat="48.52535" lon="2.26754">
        <ele>72.5</ele>
        <time>2020-07-02T09:43:18Z</time>
      </trkpt>
      <trkpt lat="48.52533" lon="2.26745">
        <ele>72.4</ele>
        <time>2020-07-02T09:43:19Z</time>
      </trkpt>
      <trkpt lat="48.52532" lon="2.26737">
        <ele>72.4</ele>
        <time>2020-07-02T09:43:20Z</time>
      </trkpt>
      <trkpt lat="48.5253" lon="2.2673">
        <ele>72.4</ele>
        <time>2020-07-02T09:43:21Z</time>
      </trkpt>
      <trkpt lat="48.52528" lon="2.26723">
        <ele>72.3</ele>
        <time>2020-07-02T09:43:22Z</time>
      </trkpt>
      <trkpt lat="48.52525" lon="2.26717">
        <ele>72.2</ele>
        <time>2020-07-02T09:43:23Z</time>
      </trkpt>
      <trkpt lat="48.52522" lon="2.26709">
        <ele>72.1</ele>
        <time>2020-07-02T09:43:24Z</time>
      </trkpt>
      <trkpt lat="48.52519" lon="2.26701">
        <ele>72</ele>
        <time>2020-07-02T09:43:25Z</time>
      </trkpt>
      <trkpt lat="48.52515" lon="2.26693">
        <ele>72</ele>
        <time>2020-07-02T09:43:26Z</time>
      </trkpt>
      <trkpt lat="48.52512" lon="2.26684">
        <ele>72</ele>
        <time>2020-07-02T09:43:27Z</time>
      </trkpt>
      <trkpt lat="48.5251" lon="2.26676">
        <ele>72</ele>
        <time>2020-07-02T09:43:28Z</time>
      </trkpt>
      <trkpt lat="48.52507" lon="2.26669">
        <ele>72</ele>
        <time>2020-07-02T09:43:29Z</time>
      </trkpt>
      <trkpt lat="48.52504" lon="2.26662">
        <ele>72</ele>
        <time>2020-07-02T09:43:30Z</time>
      </trkpt>
      <trkpt lat="48.52501" lon="2.26655">
        <ele>72</ele>
        <time>2020-07-02T09:43:31Z</time>
      </trkpt>
      <trkpt lat="48.52498" lon="2.26649">
        <ele>72</ele>
        <time>2020-07-02T09:43:32Z</time>
      </trkpt>
      <trkpt lat="48.52495" lon="2.26643">
        <ele>72</ele>
        <time>2020-07-02T09:43:33Z</time>
      </trkpt>
      <trkpt lat="48.52492" lon="2.26635">
        <ele>72</ele>
        <time>2020-07-02T09:43:34Z</time>
      </trkpt>
      <trkpt lat="48.52489" lon="2.26628">
        <ele>71.9</ele>
        <time>2020-07-02T09:43:35Z</time>
      </trkpt>
      <trkpt lat="48.52486" lon="2.26621">
        <ele>71.9</ele>
        <time>2020-07-02T09:43:36Z</time>
      </trkpt>
      <trkpt lat="48.52482" lon="2.26615">
        <ele>71.9</ele>
        <time>2020-07-02T09:43:37Z</time>
      </trkpt>
      <trkpt lat="48.52478" lon="2.26608">
        <ele>71.8</ele>
        <time>2020-07-02T09:43:38Z</time>
      </trkpt>
      <trkpt lat="48.52475" lon="2.26602">
        <ele>71.8</ele>
        <time>2020-07-02T09:43:39Z</time>
      </trkpt>
      <trkpt lat="48.52471" lon="2.26596">
        <ele>71.8</ele>
        <time>2020-07-02T09:43:40Z</time>
      </trkpt>
      <trkpt lat="48.52467" lon="2.26589">
        <ele>71.8</ele>
        <time>2020-07-02T09:43:41Z</time>
      </trkpt>
      <trkpt lat="48.52463" lon="2.26581">
        <ele>71.7</ele>
        <time>2020-07-02T09:43:42Z</time>
      </trkpt>
      <trkpt lat="48.5246" lon="2.26574">
        <ele>72.2</ele>
        <time>2020-07-02T09:43:43Z</time>
      </trkpt>
      <trkpt lat="48.52458" lon="2.26565">
        <ele>72.1</ele>
        <time>2020-07-02T09:43:44Z</time>
      </trkpt>
      <trkpt lat="48.52457" lon="2.26556">
        <ele>72.1</ele>
        <time>2020-07-02T09:43:45Z</time>
      </trkpt>
      <trkpt lat="48.52455" lon="2.26547">
        <ele>72.1</ele>
        <time>2020-07-02T09:43:46Z</time>
      </trkpt>
      <trkpt lat="48.52452" lon="2.26539">
        <ele>72.1</ele>
        <time>2020-07-02T09:43:47Z</time>
      </trkpt>
      <trkpt lat="48.52451" lon="2.2653">
        <ele>72.1</ele>
        <time>2020-07-02T09:43:48Z</time>
      </trkpt>
      <trkpt lat="48.52449" lon="2.26523">
        <ele>72.1</ele>
        <time>2020-07-02T09:43:49Z</time>
      </trkpt>
      <trkpt lat="48.52447" lon="2.26516">
        <ele>72.1</ele>
        <time>2020-07-02T09:43:50Z</time>
      </trkpt>
      <trkpt lat="48.52446" lon="2.2651">
        <ele>72.2</ele>
        <time>2020-07-02T09:43:51Z</time>
      </trkpt>
      <trkpt lat="48.52445" lon="2.26504">
        <ele>72.2</ele>
        <time>2020-07-02T09:43:52Z</time>
      </trkpt>
      <trkpt lat="48.52444" lon="2.26498">
        <ele>72.2</ele>
        <time>2020-07-02T09:43:53Z</time>
      </trkpt>
      <trkpt lat="48.52442" lon="2.26492">
        <ele>72.3</ele>
        <time>2020-07-02T09:43:54Z</time>
      </trkpt>
      <trkpt lat="48.5244" lon="2.26485">
        <ele>72.3</ele>
        <time>2020-07-02T09:43:55Z</time>
      </trkpt>
      <trkpt lat="48.52438" lon="2.26478">
        <ele>72.4</ele>
        <time>2020-07-02T09:43:56Z</time>
      </trkpt>
      <trkpt lat="48.52437" lon="2.26472">
        <ele>72.5</ele>
        <time>2020-07-02T09:43:57Z</time>
      </trkpt>
      <trkpt lat="48.52435" lon="2.26467">
        <ele>72.5</ele>
        <time>2020-07-02T09:43:58Z</time>
      </trkpt>
      <trkpt lat="48.52432" lon="2.26461">
        <ele>72.5</ele>
        <time>2020-07-02T09:43:59Z</time>
      </trkpt>
      <trkpt lat="48.5243" lon="2.26454">
        <ele>72.5</ele>
        <time>2020-07-02T09:44:00Z</time>
      </trkpt>
      <trkpt lat="48.52427" lon="2.26447">
        <ele>72.7</ele>
        <time>2020-07-02T09:44:01Z</time>
      </trkpt>
      <trkpt lat="48.52424" lon="2.2644">
        <ele>72.8</ele>
        <time>2020-07-02T09:44:02Z</time>
      </trkpt>
      <trkpt lat="48.52421" lon="2.26434">
        <ele>72.9</ele>
        <time>2020-07-02T09:44:03Z</time>
      </trkpt>
      <trkpt lat="48.52419" lon="2.26427">
        <ele>73</ele>
        <time>2020-07-02T09:44:04Z</time>
      </trkpt>
      <trkpt lat="48.52416" lon="2.2642">
        <ele>73.2</ele>
        <time>2020-07-02T09:44:05Z</time>
      </trkpt>
      <trkpt lat="48.52414" lon="2.26415">
        <ele>73.3</ele>
        <time>2020-07-02T09:44:06Z</time>
      </trkpt>
      <trkpt lat="48.52412" lon="2.26408">
        <ele>73.5</ele>
        <time>2020-07-02T09:44:07Z</time>
      </trkpt>
      <trkpt lat="48.5241" lon="2.26402">
        <ele>73.6</ele>
        <time>2020-07-02T09:44:08Z</time>
      </trkpt>
      <trkpt lat="48.52408" lon="2.26397">
        <ele>73.7</ele>
        <time>2020-07-02T09:44:09Z</time>
      </trkpt>
      <trkpt lat="48.52405" lon="2.26391">
        <ele>73.8</ele>
        <time>2020-07-02T09:44:10Z</time>
      </trkpt>
      <trkpt lat="48.52403" lon="2.26384">
        <ele>74</ele>
        <time>2020-07-02T09:44:11Z</time>
      </trkpt>
      <trkpt lat="48.52399" lon="2.26378">
        <ele>74.1</ele>
        <time>2020-07-02T09:44:12Z</time>
      </trkpt>
      <trkpt lat="48.52396" lon="2.26371">
        <ele>74.2</ele>
        <time>2020-07-02T09:44:13Z</time>
      </trkpt>
      <trkpt lat="48.52393" lon="2.26365">
        <ele>74.3</ele>
        <time>2020-07-02T09:44:14Z</time>
      </trkpt>
      <trkpt lat="48.52391" lon="2.26359">
        <ele>74.4</ele>
        <time>2020-07-02T09:44:15Z</time>
      </trkpt>
      <trkpt lat="48.52388" lon="2.26352">
        <ele>74.5</ele>
        <time>2020-07-02T09:44:16Z</time>
      </trkpt>
      <trkpt lat="48.52386" lon="2.26346">
        <ele>74.7</ele>
        <time>2020-07-02T09:44:17Z</time>
      </trkpt>
      <trkpt lat="48.52383" lon="2.26339">
        <ele>74.8</ele>
        <time>2020-07-02T09:44:18Z</time>
      </trkpt>
      <trkpt lat="48.5238" lon="2.26332">
        <ele>74.9</ele>
        <time>2020-07-02T09:44:19Z</time>
      </trkpt>
      <trkpt lat="48.52377" lon="2.26326">
        <ele>74.9</ele>
        <time>2020-07-02T09:44:20Z</time>
      </trkpt>
      <trkpt lat="48.52374" lon="2.2632">
        <ele>75</ele>
        <time>2020-07-02T09:44:21Z</time>
      </trkpt>
      <trkpt lat="48.52372" lon="2.26315">
        <ele>75</ele>
        <time>2020-07-02T09:44:22Z</time>
      </trkpt>
      <trkpt lat="48.52369" lon="2.26309">
        <ele>75</ele>
        <time>2020-07-02T09:44:23Z</time>
      </trkpt>
      <trkpt lat="48.52366" lon="2.26303">
        <ele>75</ele>
        <time>2020-07-02T09:44:24Z</time>
      </trkpt>
      <trkpt lat="48.52362" lon="2.26297">
        <ele>75</ele>
        <time>2020-07-02T09:44:25Z</time>
      </trkpt>
      <trkpt lat="48.52359" lon="2.26291">
        <ele>75.1</ele>
        <time>2020-07-02T09:44:26Z</time>
      </trkpt>
      <trkpt lat="48.52356" lon="2.26284">
        <ele>75.1</ele>
        <time>2020-07-02T09:44:27Z</time>
      </trkpt>
      <trkpt lat="48.52353" lon="2.26278">
        <ele>75.2</ele>
        <time>2020-07-02T09:44:28Z</time>
      </trkpt>
      <trkpt lat="48.5235" lon="2.26271">
        <ele>75.3</ele>
        <time>2020-07-02T09:44:29Z</time>
      </trkpt>
      <trkpt lat="48.52347" lon="2.26265">
        <ele>75.4</ele>
        <time>2020-07-02T09:44:30Z</time>
      </trkpt>
      <trkpt lat="48.52343" lon="2.2626">
        <ele>75.5</ele>
        <time>2020-07-02T09:44:31Z</time>
      </trkpt>
      <trkpt lat="48.52339" lon="2.26255">
        <ele>75.6</ele>
        <time>2020-07-02T09:44:32Z</time>
      </trkpt>
      <trkpt lat="48.52336" lon="2.2625">
        <ele>75.6</ele>
        <time>2020-07-02T09:44:33Z</time>
      </trkpt>
      <trkpt lat="48.52333" lon="2.26245">
        <ele>75.7</ele>
        <time>2020-07-02T09:44:34Z</time>
      </trkpt>
      <trkpt lat="48.5233" lon="2.26238">
        <ele>75.8</ele>
        <time>2020-07-02T09:44:35Z</time>
      </trkpt>
      <trkpt lat="48.52326" lon="2.26232">
        <ele>75.9</ele>
        <time>2020-07-02T09:44:36Z</time>
      </trkpt>
      <trkpt lat="48.52322" lon="2.26227">
        <ele>75.9</ele>
        <time>2020-07-02T09:44:37Z</time>
      </trkpt>
      <trkpt lat="48.52318" lon="2.26221">
        <ele>76</ele>
        <time>2020-07-02T09:44:38Z</time>
      </trkpt>
      <trkpt lat="48.52315" lon="2.26215">
        <ele>76.1</ele>
        <time>2020-07-02T09:44:39Z</time>
      </trkpt>
      <trkpt lat="48.52311" lon="2.26209">
        <ele>76.1</ele>
        <time>2020-07-02T09:44:40Z</time>
      </trkpt>
      <trkpt lat="48.52308" lon="2.26202">
        <ele>76.2</ele>
        <time>2020-07-02T09:44:41Z</time>
      </trkpt>
      <trkpt lat="48.52304" lon="2.26197">
        <ele>76.3</ele>
        <time>2020-07-02T09:44:42Z</time>
      </trkpt>
      <trkpt lat="48.523" lon="2.26192">
        <ele>76.3</ele>
        <time>2020-07-02T09:44:43Z</time>
      </trkpt>
      <trkpt lat="48.52297" lon="2.26185">
        <ele>76.4</ele>
        <time>2020-07-02T09:44:44Z</time>
      </trkpt>
      <trkpt lat="48.52295" lon="2.26179">
        <ele>76.4</ele>
        <time>2020-07-02T09:44:45Z</time>
      </trkpt>
      <trkpt lat="48.52291" lon="2.26173">
        <ele>76.5</ele>
        <time>2020-07-02T09:44:46Z</time>
      </trkpt>
      <trkpt lat="48.52289" lon="2.26165">
        <ele>76.6</ele>
        <time>2020-07-02T09:44:47Z</time>
      </trkpt>
      <trkpt lat="48.52286" lon="2.26158">
        <ele>76.7</ele>
        <time>2020-07-02T09:44:48Z</time>
      </trkpt>
      <trkpt lat="48.52284" lon="2.26152">
        <ele>76.8</ele>
        <time>2020-07-02T09:44:49Z</time>
      </trkpt>
      <trkpt lat="48.5228" lon="2.26145">
        <ele>76.9</ele>
        <time>2020-07-02T09:44:50Z</time>
      </trkpt>
      <trkpt lat="48.52276" lon="2.26139">
        <ele>76.9</ele>
        <time>2020-07-02T09:44:51Z</time>
      </trkpt>
      <trkpt lat="48.52272" lon="2.26133">
        <ele>77</ele>
        <time>2020-07-02T09:44:52Z</time>
      </trkpt>
      <trkpt lat="48.52269" lon="2.26125">
        <ele>77</ele>
        <time>2020-07-02T09:44:53Z</time>
      </trkpt>
      <trkpt lat="48.52266" lon="2.26119">
        <ele>77</ele>
        <time>2020-07-02T09:44:54Z</time>
      </trkpt>
      <trkpt lat="48.52262" lon="2.26113">
        <ele>77</ele>
        <time>2020-07-02T09:44:55Z</time>
      </trkpt>
      <trkpt lat="48.52258" lon="2.26108">
        <ele>77.1</ele>
        <time>2020-07-02T09:44:56Z</time>
      </trkpt>
      <trkpt lat="48.52254" lon="2.26103">
        <ele>77.2</ele>
        <time>2020-07-02T09:44:57Z</time>
      </trkpt>
      <trkpt lat="48.52249" lon="2.26099">
        <ele>77.2</ele>
        <time>2020-07-02T09:44:58Z</time>
      </trkpt>
      <trkpt lat="48.52245" lon="2.26093">
        <ele>77.3</ele>
        <time>2020-07-02T09:44:59Z</time>
      </trkpt>
      <trkpt lat="48.52241" lon="2.26088">
        <ele>77.4</ele>
        <time>2020-07-02T09:45:00Z</time>
      </trkpt>
      <trkpt lat="48.52237" lon="2.26084">
        <ele>77.5</ele>
        <time>2020-07-02T09:45:01Z</time>
      </trkpt>
      <trkpt lat="48.52233" lon="2.26079">
        <ele>77.6</ele>
        <time>2020-07-02T09:45:02Z</time>
      </trkpt>
      <trkpt lat="48.5223" lon="2.26074">
        <ele>77.7</ele>
        <time>2020-07-02T09:45:03Z</time>
      </trkpt>
      <trkpt lat="48.52227" lon="2.26068">
        <ele>77.8</ele>
        <time>2020-07-02T09:45:04Z</time>
      </trkpt>
      <trkpt lat="48.52223" lon="2.26062">
        <ele>77.9</ele>
        <time>2020-07-02T09:45:05Z</time>
      </trkpt>
      <trkpt lat="48.52219" lon="2.26056">
        <ele>78.1</ele>
        <time>2020-07-02T09:45:06Z</time>
      </trkpt>
      <trkpt lat="48.52216" lon="2.26051">
        <ele>78.1</ele>
        <time>2020-07-02T09:45:07Z</time>
      </trkpt>
      <trkpt lat="48.52213" lon="2.26047">
        <ele>78.2</ele>
        <time>2020-07-02T09:45:08Z</time>
      </trkpt>
      <trkpt lat="48.52209" lon="2.26042">
        <ele>78.2</ele>
        <time>2020-07-02T09:45:09Z</time>
      </trkpt>
      <trkpt lat="48.52205" lon="2.26037">
        <ele>78.3</ele>
        <time>2020-07-02T09:45:10Z</time>
      </trkpt>
      <trkpt lat="48.52201" lon="2.26031">
        <ele>78.3</ele>
        <time>2020-07-02T09:45:11Z</time>
      </trkpt>
      <trkpt lat="48.52197" lon="2.26026">
        <ele>78.4</ele>
        <time>2020-07-02T09:45:12Z</time>
      </trkpt>
      <trkpt lat="48.52193" lon="2.26019">
        <ele>78.4</ele>
        <time>2020-07-02T09:45:13Z</time>
      </trkpt>
      <trkpt lat="48.52189" lon="2.26013">
        <ele>78.5</ele>
        <time>2020-07-02T09:45:14Z</time>
      </trkpt>
      <trkpt lat="48.52186" lon="2.26007">
        <ele>78.5</ele>
        <time>2020-07-02T09:45:15Z</time>
      </trkpt>
      <trkpt lat="48.52183" lon="2.26001">
        <ele>78.6</ele>
        <time>2020-07-02T09:45:16Z</time>
      </trkpt>
      <trkpt lat="48.5218" lon="2.25994">
        <ele>78.6</ele>
        <time>2020-07-02T09:45:17Z</time>
      </trkpt>
      <trkpt lat="48.52177" lon="2.25987">
        <ele>78.7</ele>
        <time>2020-07-02T09:45:18Z</time>
      </trkpt>
      <trkpt lat="48.52175" lon="2.2598">
        <ele>78.7</ele>
        <time>2020-07-02T09:45:19Z</time>
      </trkpt>
      <trkpt lat="48.52172" lon="2.25972">
        <ele>78.8</ele>
        <time>2020-07-02T09:45:20Z</time>
      </trkpt>
      <trkpt lat="48.52169" lon="2.25965">
        <ele>78.8</ele>
        <time>2020-07-02T09:45:21Z</time>
      </trkpt>
      <trkpt lat="48.52166" lon="2.25957">
        <ele>78.8</ele>
        <time>2020-07-02T09:45:22Z</time>
      </trkpt>
      <trkpt lat="48.52163" lon="2.25949">
        <ele>78.8</ele>
        <time>2020-07-02T09:45:23Z</time>
      </trkpt>
      <trkpt lat="48.5216" lon="2.25941">
        <ele>78.8</ele>
        <time>2020-07-02T09:45:24Z</time>
      </trkpt>
      <trkpt lat="48.52158" lon="2.25933">
        <ele>78.8</ele>
        <time>2020-07-02T09:45:25Z</time>
      </trkpt>
      <trkpt lat="48.52155" lon="2.25925">
        <ele>78.9</ele>
        <time>2020-07-02T09:45:26Z</time>
      </trkpt>
      <trkpt lat="48.52152" lon="2.25917">
        <ele>78.9</ele>
        <time>2020-07-02T09:45:27Z</time>
      </trkpt>
      <trkpt lat="48.52151" lon="2.25909">
        <ele>79</ele>
        <time>2020-07-02T09:45:28Z</time>
      </trkpt>
      <trkpt lat="48.52148" lon="2.25902">
        <ele>79.1</ele>
        <time>2020-07-02T09:45:29Z</time>
      </trkpt>
      <trkpt lat="48.52145" lon="2.25895">
        <ele>79.1</ele>
        <time>2020-07-02T09:45:30Z</time>
      </trkpt>
      <trkpt lat="48.52142" lon="2.25889">
        <ele>79.2</ele>
        <time>2020-07-02T09:45:31Z</time>
      </trkpt>
      <trkpt lat="48.5214" lon="2.25882">
        <ele>79.2</ele>
        <time>2020-07-02T09:45:32Z</time>
      </trkpt>
      <trkpt lat="48.52137" lon="2.25875">
        <ele>79.3</ele>
        <time>2020-07-02T09:45:33Z</time>
      </trkpt>
      <trkpt lat="48.52134" lon="2.25868">
        <ele>79.4</ele>
        <time>2020-07-02T09:45:34Z</time>
      </trkpt>
      <trkpt lat="48.5213" lon="2.25861">
        <ele>79.5</ele>
        <time>2020-07-02T09:45:35Z</time>
      </trkpt>
      <trkpt lat="48.52128" lon="2.25854">
        <ele>79.5</ele>
        <time>2020-07-02T09:45:36Z</time>
      </trkpt>
      <trkpt lat="48.52126" lon="2.25847">
        <ele>79.6</ele>
        <time>2020-07-02T09:45:37Z</time>
      </trkpt>
      <trkpt lat="48.52123" lon="2.25841">
        <ele>79.7</ele>
        <time>2020-07-02T09:45:38Z</time>
      </trkpt>
      <trkpt lat="48.52121" lon="2.25835">
        <ele>79.8</ele>
        <time>2020-07-02T09:45:39Z</time>
      </trkpt>
      <trkpt lat="48.52118" lon="2.25829">
        <ele>79.9</ele>
        <time>2020-07-02T09:45:40Z</time>
      </trkpt>
      <trkpt lat="48.52116" lon="2.25821">
        <ele>80</ele>
        <time>2020-07-02T09:45:41Z</time>
      </trkpt>
      <trkpt lat="48.52114" lon="2.25814">
        <ele>80.1</ele>
        <time>2020-07-02T09:45:42Z</time>
      </trkpt>
      <trkpt lat="48.52112" lon="2.25806">
        <ele>80.1</ele>
        <time>2020-07-02T09:45:43Z</time>
      </trkpt>
      <trkpt lat="48.5211" lon="2.25798">
        <ele>80.2</ele>
        <time>2020-07-02T09:45:44Z</time>
      </trkpt>
      <trkpt lat="48.52108" lon="2.25791">
        <ele>80.3</ele>
        <time>2020-07-02T09:45:45Z</time>
      </trkpt>
      <trkpt lat="48.52106" lon="2.25785">
        <ele>80.4</ele>
        <time>2020-07-02T09:45:46Z</time>
      </trkpt>
      <trkpt lat="48.52103" lon="2.25777">
        <ele>80.5</ele>
        <time>2020-07-02T09:45:47Z</time>
      </trkpt>
      <trkpt lat="48.52102" lon="2.2577">
        <ele>80.6</ele>
        <time>2020-07-02T09:45:48Z</time>
      </trkpt>
      <trkpt lat="48.521" lon="2.25765">
        <ele>80.7</ele>
        <time>2020-07-02T09:45:49Z</time>
      </trkpt>
      <trkpt lat="48.52097" lon="2.25759">
        <ele>80.8</ele>
        <time>2020-07-02T09:45:50Z</time>
      </trkpt>
      <trkpt lat="48.52095" lon="2.25753">
        <ele>80.9</ele>
        <time>2020-07-02T09:45:51Z</time>
      </trkpt>
      <trkpt lat="48.52094" lon="2.25746">
        <ele>81</ele>
        <time>2020-07-02T09:45:52Z</time>
      </trkpt>
      <trkpt lat="48.52093" lon="2.25738">
        <ele>81.1</ele>
        <time>2020-07-02T09:45:53Z</time>
      </trkpt>
      <trkpt lat="48.52093" lon="2.2573">
        <ele>81.2</ele>
        <time>2020-07-02T09:45:54Z</time>
      </trkpt>
      <trkpt lat="48.52091" lon="2.25723">
        <ele>81.2</ele>
        <time>2020-07-02T09:45:55Z</time>
      </trkpt>
      <trkpt lat="48.52089" lon="2.25717">
        <ele>81.3</ele>
        <time>2020-07-02T09:45:56Z</time>
      </trkpt>
      <trkpt lat="48.52088" lon="2.2571">
        <ele>81.5</ele>
        <time>2020-07-02T09:45:57Z</time>
      </trkpt>
      <trkpt lat="48.52087" lon="2.25703">
        <ele>81.6</ele>
        <time>2020-07-02T09:45:58Z</time>
      </trkpt>
      <trkpt lat="48.52086" lon="2.25697">
        <ele>81.8</ele>
        <time>2020-07-02T09:45:59Z</time>
      </trkpt>
      <trkpt lat="48.52085" lon="2.2569">
        <ele>82</ele>
        <time>2020-07-02T09:46:00Z</time>
      </trkpt>
      <trkpt lat="48.52084" lon="2.25684">
        <ele>82.2</ele>
        <time>2020-07-02T09:46:01Z</time>
      </trkpt>
      <trkpt lat="48.52083" lon="2.25676">
        <ele>82.4</ele>
        <time>2020-07-02T09:46:02Z</time>
      </trkpt>
      <trkpt lat="48.52081" lon="2.25668">
        <ele>82.6</ele>
        <time>2020-07-02T09:46:03Z</time>
      </trkpt>
      <trkpt lat="48.5208" lon="2.25661">
        <ele>82.8</ele>
        <time>2020-07-02T09:46:04Z</time>
      </trkpt>
      <trkpt lat="48.52079" lon="2.25655">
        <ele>83</ele>
        <time>2020-07-02T09:46:05Z</time>
      </trkpt>
      <trkpt lat="48.52076" lon="2.2565">
        <ele>83.1</ele>
        <time>2020-07-02T09:46:06Z</time>
      </trkpt>
      <trkpt lat="48.52074" lon="2.25646">
        <ele>83.1</ele>
        <time>2020-07-02T09:46:07Z</time>
      </trkpt>
      <trkpt lat="48.52071" lon="2.25641">
        <ele>83.2</ele>
        <time>2020-07-02T09:46:08Z</time>
      </trkpt>
      <trkpt lat="48.52069" lon="2.25637">
        <ele>83.3</ele>
        <time>2020-07-02T09:46:09Z</time>
      </trkpt>
      <trkpt lat="48.52066" lon="2.25631">
        <ele>83.4</ele>
        <time>2020-07-02T09:46:10Z</time>
      </trkpt>
      <trkpt lat="48.52064" lon="2.25626">
        <ele>83.4</ele>
        <time>2020-07-02T09:46:11Z</time>
      </trkpt>
      <trkpt lat="48.52062" lon="2.2562">
        <ele>83.5</ele>
        <time>2020-07-02T09:46:12Z</time>
      </trkpt>
      <trkpt lat="48.5206" lon="2.25614">
        <ele>83.5</ele>
        <time>2020-07-02T09:46:13Z</time>
      </trkpt>
      <trkpt lat="48.52057" lon="2.25608">
        <ele>83.5</ele>
        <time>2020-07-02T09:46:14Z</time>
      </trkpt>
      <trkpt lat="48.52055" lon="2.25603">
        <ele>83.6</ele>
        <time>2020-07-02T09:46:15Z</time>
      </trkpt>
      <trkpt lat="48.52051" lon="2.25597">
        <ele>83.6</ele>
        <time>2020-07-02T09:46:16Z</time>
      </trkpt>
      <trkpt lat="48.52048" lon="2.25591">
        <ele>83.9</ele>
        <time>2020-07-02T09:46:17Z</time>
      </trkpt>
      <trkpt lat="48.52044" lon="2.25585">
        <ele>83.9</ele>
        <time>2020-07-02T09:46:18Z</time>
      </trkpt>
      <trkpt lat="48.52042" lon="2.25577">
        <ele>83.8</ele>
        <time>2020-07-02T09:46:19Z</time>
      </trkpt>
      <trkpt lat="48.52039" lon="2.25569">
        <ele>83.7</ele>
        <time>2020-07-02T09:46:20Z</time>
      </trkpt>
      <trkpt lat="48.52035" lon="2.25561">
        <ele>83.5</ele>
        <time>2020-07-02T09:46:21Z</time>
      </trkpt>
      <trkpt lat="48.52031" lon="2.25554">
        <ele>83.4</ele>
        <time>2020-07-02T09:46:22Z</time>
      </trkpt>
      <trkpt lat="48.52028" lon="2.25548">
        <ele>83.3</ele>
        <time>2020-07-02T09:46:23Z</time>
      </trkpt>
      <trkpt lat="48.52024" lon="2.2554">
        <ele>83.1</ele>
        <time>2020-07-02T09:46:24Z</time>
      </trkpt>
      <trkpt lat="48.52021" lon="2.25532">
        <ele>83</ele>
        <time>2020-07-02T09:46:25Z</time>
      </trkpt>
      <trkpt lat="48.52018" lon="2.25526">
        <ele>82.9</ele>
        <time>2020-07-02T09:46:26Z</time>
      </trkpt>
      <trkpt lat="48.52013" lon="2.25519">
        <ele>82.8</ele>
        <time>2020-07-02T09:46:27Z</time>
      </trkpt>
      <trkpt lat="48.5201" lon="2.25512">
        <ele>82.6</ele>
        <time>2020-07-02T09:46:28Z</time>
      </trkpt>
      <trkpt lat="48.52006" lon="2.25504">
        <ele>82.5</ele>
        <time>2020-07-02T09:46:29Z</time>
      </trkpt>
      <trkpt lat="48.52003" lon="2.25496">
        <ele>82.4</ele>
        <time>2020-07-02T09:46:30Z</time>
      </trkpt>
      <trkpt lat="48.51999" lon="2.25488">
        <ele>82.3</ele>
        <time>2020-07-02T09:46:31Z</time>
      </trkpt>
      <trkpt lat="48.51996" lon="2.2548">
        <ele>82.2</ele>
        <time>2020-07-02T09:46:32Z</time>
      </trkpt>
      <trkpt lat="48.51993" lon="2.25472">
        <ele>82.2</ele>
        <time>2020-07-02T09:46:33Z</time>
      </trkpt>
      <trkpt lat="48.5199" lon="2.25463">
        <ele>82.1</ele>
        <time>2020-07-02T09:46:34Z</time>
      </trkpt>
      <trkpt lat="48.51988" lon="2.25455">
        <ele>82.1</ele>
        <time>2020-07-02T09:46:35Z</time>
      </trkpt>
      <trkpt lat="48.51986" lon="2.25445">
        <ele>82</ele>
        <time>2020-07-02T09:46:36Z</time>
      </trkpt>
      <trkpt lat="48.51984" lon="2.25436">
        <ele>82</ele>
        <time>2020-07-02T09:46:37Z</time>
      </trkpt>
      <trkpt lat="48.51981" lon="2.25427">
        <ele>81.9</ele>
        <time>2020-07-02T09:46:38Z</time>
      </trkpt>
      <trkpt lat="48.5198" lon="2.2542">
        <ele>81.9</ele>
        <time>2020-07-02T09:46:39Z</time>
      </trkpt>
      <trkpt lat="48.51977" lon="2.25411">
        <ele>81.8</ele>
        <time>2020-07-02T09:46:40Z</time>
      </trkpt>
      <trkpt lat="48.51974" lon="2.25403">
        <ele>81.8</ele>
        <time>2020-07-02T09:46:41Z</time>
      </trkpt>
      <trkpt lat="48.51972" lon="2.25395">
        <ele>81.8</ele>
        <time>2020-07-02T09:46:42Z</time>
      </trkpt>
      <trkpt lat="48.51969" lon="2.25388">
        <ele>81.8</ele>
        <time>2020-07-02T09:46:43Z</time>
      </trkpt>
      <trkpt lat="48.51967" lon="2.25379">
        <ele>81.7</ele>
        <time>2020-07-02T09:46:44Z</time>
      </trkpt>
      <trkpt lat="48.51964" lon="2.2537">
        <ele>81.7</ele>
        <time>2020-07-02T09:46:45Z</time>
      </trkpt>
      <trkpt lat="48.51962" lon="2.25362">
        <ele>81.7</ele>
        <time>2020-07-02T09:46:46Z</time>
      </trkpt>
      <trkpt lat="48.51959" lon="2.25353">
        <ele>81.6</ele>
        <time>2020-07-02T09:46:47Z</time>
      </trkpt>
      <trkpt lat="48.51957" lon="2.25343">
        <ele>81.5</ele>
        <time>2020-07-02T09:46:48Z</time>
      </trkpt>
      <trkpt lat="48.51954" lon="2.25334">
        <ele>81.5</ele>
        <time>2020-07-02T09:46:49Z</time>
      </trkpt>
      <trkpt lat="48.51952" lon="2.25326">
        <ele>81.5</ele>
        <time>2020-07-02T09:46:50Z</time>
      </trkpt>
      <trkpt lat="48.51949" lon="2.25318">
        <ele>81.5</ele>
        <time>2020-07-02T09:46:51Z</time>
      </trkpt>
      <trkpt lat="48.51947" lon="2.25308">
        <ele>81.4</ele>
        <time>2020-07-02T09:46:52Z</time>
      </trkpt>
      <trkpt lat="48.51944" lon="2.25299">
        <ele>81.4</ele>
        <time>2020-07-02T09:46:53Z</time>
      </trkpt>
      <trkpt lat="48.51942" lon="2.25291">
        <ele>81.4</ele>
        <time>2020-07-02T09:46:54Z</time>
      </trkpt>
      <trkpt lat="48.51941" lon="2.25283">
        <ele>81.3</ele>
        <time>2020-07-02T09:46:55Z</time>
      </trkpt>
      <trkpt lat="48.51938" lon="2.25274">
        <ele>81.3</ele>
        <time>2020-07-02T09:46:56Z</time>
      </trkpt>
      <trkpt lat="48.51936" lon="2.25266">
        <ele>81.3</ele>
        <time>2020-07-02T09:46:57Z</time>
      </trkpt>
      <trkpt lat="48.51934" lon="2.25259">
        <ele>81.2</ele>
        <time>2020-07-02T09:46:58Z</time>
      </trkpt>
      <trkpt lat="48.51932" lon="2.2525">
        <ele>81.2</ele>
        <time>2020-07-02T09:46:59Z</time>
      </trkpt>
      <trkpt lat="48.5193" lon="2.25243">
        <ele>81.2</ele>
        <time>2020-07-02T09:47:00Z</time>
      </trkpt>
      <trkpt lat="48.51927" lon="2.25236">
        <ele>81.2</ele>
        <time>2020-07-02T09:47:01Z</time>
      </trkpt>
      <trkpt lat="48.51924" lon="2.25228">
        <ele>81.1</ele>
        <time>2020-07-02T09:47:02Z</time>
      </trkpt>
      <trkpt lat="48.51921" lon="2.25221">
        <ele>81.1</ele>
        <time>2020-07-02T09:47:03Z</time>
      </trkpt>
      <trkpt lat="48.51918" lon="2.25214">
        <ele>81.1</ele>
        <time>2020-07-02T09:47:04Z</time>
      </trkpt>
      <trkpt lat="48.51914" lon="2.25206">
        <ele>81.2</ele>
        <time>2020-07-02T09:47:05Z</time>
      </trkpt>
      <trkpt lat="48.51911" lon="2.25198">
        <ele>81.2</ele>
        <time>2020-07-02T09:47:06Z</time>
      </trkpt>
      <trkpt lat="48.51908" lon="2.2519">
        <ele>81.3</ele>
        <time>2020-07-02T09:47:07Z</time>
      </trkpt>
      <trkpt lat="48.51905" lon="2.25183">
        <ele>81.3</ele>
        <time>2020-07-02T09:47:08Z</time>
      </trkpt>
      <trkpt lat="48.51902" lon="2.25175">
        <ele>81.4</ele>
        <time>2020-07-02T09:47:09Z</time>
      </trkpt>
      <trkpt lat="48.51898" lon="2.25168">
        <ele>81.4</ele>
        <time>2020-07-02T09:47:10Z</time>
      </trkpt>
      <trkpt lat="48.51895" lon="2.2516">
        <ele>81.5</ele>
        <time>2020-07-02T09:47:11Z</time>
      </trkpt>
      <trkpt lat="48.51892" lon="2.25153">
        <ele>81.6</ele>
        <time>2020-07-02T09:47:12Z</time>
      </trkpt>
      <trkpt lat="48.51889" lon="2.25146">
        <ele>81.8</ele>
        <time>2020-07-02T09:47:13Z</time>
      </trkpt>
      <trkpt lat="48.51886" lon="2.2514">
        <ele>81.9</ele>
        <time>2020-07-02T09:47:14Z</time>
      </trkpt>
      <trkpt lat="48.51883" lon="2.25133">
        <ele>82.1</ele>
        <time>2020-07-02T09:47:15Z</time>
      </trkpt>
      <trkpt lat="48.51881" lon="2.25125">
        <ele>82.2</ele>
        <time>2020-07-02T09:47:16Z</time>
      </trkpt>
      <trkpt lat="48.51878" lon="2.25116">
        <ele>82.4</ele>
        <time>2020-07-02T09:47:17Z</time>
      </trkpt>
      <trkpt lat="48.51876" lon="2.25109">
        <ele>82.5</ele>
        <time>2020-07-02T09:47:18Z</time>
      </trkpt>
      <trkpt lat="48.51873" lon="2.25102">
        <ele>82.6</ele>
        <time>2020-07-02T09:47:19Z</time>
      </trkpt>
      <trkpt lat="48.5187" lon="2.25095">
        <ele>82.7</ele>
        <time>2020-07-02T09:47:20Z</time>
      </trkpt>
      <trkpt lat="48.51867" lon="2.25088">
        <ele>82.7</ele>
        <time>2020-07-02T09:47:21Z</time>
      </trkpt>
      <trkpt lat="48.51864" lon="2.25083">
        <ele>82.7</ele>
        <time>2020-07-02T09:47:22Z</time>
      </trkpt>
      <trkpt lat="48.51862" lon="2.25077">
        <ele>82.8</ele>
        <time>2020-07-02T09:47:23Z</time>
      </trkpt>
      <trkpt lat="48.51859" lon="2.2507">
        <ele>82.8</ele>
        <time>2020-07-02T09:47:24Z</time>
      </trkpt>
      <trkpt lat="48.51855" lon="2.25061">
        <ele>82.7</ele>
        <time>2020-07-02T09:47:25Z</time>
      </trkpt>
      <trkpt lat="48.51852" lon="2.25052">
        <ele>82.6</ele>
        <time>2020-07-02T09:47:26Z</time>
      </trkpt>
      <trkpt lat="48.51849" lon="2.25043">
        <ele>82.5</ele>
        <time>2020-07-02T09:47:27Z</time>
      </trkpt>
      <trkpt lat="48.51846" lon="2.25035">
        <ele>82.3</ele>
        <time>2020-07-02T09:47:28Z</time>
      </trkpt>
      <trkpt lat="48.51843" lon="2.25027">
        <ele>82.2</ele>
        <time>2020-07-02T09:47:29Z</time>
      </trkpt>
      <trkpt lat="48.5184" lon="2.25018">
        <ele>82</ele>
        <time>2020-07-02T09:47:30Z</time>
      </trkpt>
      <trkpt lat="48.51837" lon="2.25009">
        <ele>81.8</ele>
        <time>2020-07-02T09:47:31Z</time>
      </trkpt>
      <trkpt lat="48.51835" lon="2.25001">
        <ele>81.6</ele>
        <time>2020-07-02T09:47:32Z</time>
      </trkpt>
      <trkpt lat="48.51832" lon="2.24992">
        <ele>81.3</ele>
        <time>2020-07-02T09:47:33Z</time>
      </trkpt>
      <trkpt lat="48.51828" lon="2.24983">
        <ele>81.1</ele>
        <time>2020-07-02T09:47:34Z</time>
      </trkpt>
      <trkpt lat="48.51826" lon="2.24975">
        <ele>80.9</ele>
        <time>2020-07-02T09:47:35Z</time>
      </trkpt>
      <trkpt lat="48.51824" lon="2.24967">
        <ele>80.7</ele>
        <time>2020-07-02T09:47:36Z</time>
      </trkpt>
      <trkpt lat="48.51822" lon="2.24957">
        <ele>80.5</ele>
        <time>2020-07-02T09:47:37Z</time>
      </trkpt>
      <trkpt lat="48.51819" lon="2.24948">
        <ele>80.3</ele>
        <time>2020-07-02T09:47:38Z</time>
      </trkpt>
      <trkpt lat="48.51816" lon="2.2494">
        <ele>80.1</ele>
        <time>2020-07-02T09:47:39Z</time>
      </trkpt>
      <trkpt lat="48.51814" lon="2.2493">
        <ele>79.9</ele>
        <time>2020-07-02T09:47:40Z</time>
      </trkpt>
      <trkpt lat="48.51812" lon="2.24922">
        <ele>79.7</ele>
        <time>2020-07-02T09:47:41Z</time>
      </trkpt>
      <trkpt lat="48.5181" lon="2.24913">
        <ele>79.5</ele>
        <time>2020-07-02T09:47:42Z</time>
      </trkpt>
      <trkpt lat="48.51808" lon="2.24904">
        <ele>79.4</ele>
        <time>2020-07-02T09:47:43Z</time>
      </trkpt>
      <trkpt lat="48.51806" lon="2.24896">
        <ele>79.3</ele>
        <time>2020-07-02T09:47:44Z</time>
      </trkpt>
      <trkpt lat="48.51804" lon="2.24888">
        <ele>79.2</ele>
        <time>2020-07-02T09:47:45Z</time>
      </trkpt>
      <trkpt lat="48.51802" lon="2.24882">
        <ele>79.1</ele>
        <time>2020-07-02T09:47:46Z</time>
      </trkpt>
      <trkpt lat="48.518" lon="2.24876">
        <ele>79</ele>
        <time>2020-07-02T09:47:47Z</time>
      </trkpt>
      <trkpt lat="48.51798" lon="2.24869">
        <ele>78.9</ele>
        <time>2020-07-02T09:47:48Z</time>
      </trkpt>
      <trkpt lat="48.51795" lon="2.24862">
        <ele>78.9</ele>
        <time>2020-07-02T09:47:49Z</time>
      </trkpt>
      <trkpt lat="48.51794" lon="2.24853">
        <ele>78.8</ele>
        <time>2020-07-02T09:47:50Z</time>
      </trkpt>
      <trkpt lat="48.51793" lon="2.24847">
        <ele>78.7</ele>
        <time>2020-07-02T09:47:51Z</time>
      </trkpt>
      <trkpt lat="48.51791" lon="2.2484">
        <ele>78.6</ele>
        <time>2020-07-02T09:47:52Z</time>
      </trkpt>
      <trkpt lat="48.51791" lon="2.24835">
        <ele>78.5</ele>
        <time>2020-07-02T09:47:53Z</time>
      </trkpt>
      <trkpt lat="48.5179" lon="2.2483">
        <ele>78.4</ele>
        <time>2020-07-02T09:47:54Z</time>
      </trkpt>
      <trkpt lat="48.51789" lon="2.24825">
        <ele>78.3</ele>
        <time>2020-07-02T09:47:55Z</time>
      </trkpt>
      <trkpt lat="48.51784" lon="2.24821">
        <ele>78</ele>
        <time>2020-07-02T09:47:56Z</time>
      </trkpt>
      <trkpt lat="48.51777" lon="2.24821">
        <ele>77.4</ele>
        <time>2020-07-02T09:47:57Z</time>
      </trkpt>
      <trkpt lat="48.5177" lon="2.24825">
        <ele>76.8</ele>
        <time>2020-07-02T09:47:58Z</time>
      </trkpt>
      <trkpt lat="48.51762" lon="2.24826">
        <ele>76.2</ele>
        <time>2020-07-02T09:47:59Z</time>
      </trkpt>
      <trkpt lat="48.51753" lon="2.24828">
        <ele>75.5</ele>
        <time>2020-07-02T09:48:00Z</time>
      </trkpt>
      <trkpt lat="48.51745" lon="2.24832">
        <ele>74.8</ele>
        <time>2020-07-02T09:48:01Z</time>
      </trkpt>
      <trkpt lat="48.51738" lon="2.24836">
        <ele>74.2</ele>
        <time>2020-07-02T09:48:02Z</time>
      </trkpt>
      <trkpt lat="48.5173" lon="2.2484">
        <ele>73.5</ele>
        <time>2020-07-02T09:48:03Z</time>
      </trkpt>
      <trkpt lat="48.51722" lon="2.24844">
        <ele>72.9</ele>
        <time>2020-07-02T09:48:04Z</time>
      </trkpt>
      <trkpt lat="48.51714" lon="2.24847">
        <ele>72.3</ele>
        <time>2020-07-02T09:48:05Z</time>
      </trkpt>
      <trkpt lat="48.51706" lon="2.24849">
        <ele>71.7</ele>
        <time>2020-07-02T09:48:06Z</time>
      </trkpt>
      <trkpt lat="48.51699" lon="2.2485">
        <ele>71.2</ele>
        <time>2020-07-02T09:48:07Z</time>
      </trkpt>
      <trkpt lat="48.51694" lon="2.24851">
        <ele>70.8</ele>
        <time>2020-07-02T09:48:08Z</time>
      </trkpt>
      <trkpt lat="48.51689" lon="2.2485">
        <ele>70.5</ele>
        <time>2020-07-02T09:48:09Z</time>
      </trkpt>
      <trkpt lat="48.51685" lon="2.24849">
        <ele>70.2</ele>
        <time>2020-07-02T09:48:10Z</time>
      </trkpt>
      <trkpt lat="48.51681" lon="2.24847">
        <ele>69.9</ele>
        <time>2020-07-02T09:48:11Z</time>
      </trkpt>
      <trkpt lat="48.51678" lon="2.24844">
        <ele>69.6</ele>
        <time>2020-07-02T09:48:12Z</time>
      </trkpt>
      <trkpt lat="48.51675" lon="2.2484">
        <ele>69.1</ele>
        <time>2020-07-02T09:48:13Z</time>
      </trkpt>
      <trkpt lat="48.51674" lon="2.24833">
        <ele>69</ele>
        <time>2020-07-02T09:48:14Z</time>
      </trkpt>
      <trkpt lat="48.51676" lon="2.24825">
        <ele>68.8</ele>
        <time>2020-07-02T09:48:15Z</time>
      </trkpt>
      <trkpt lat="48.51677" lon="2.24818">
        <ele>68.6</ele>
        <time>2020-07-02T09:48:16Z</time>
      </trkpt>
      <trkpt lat="48.51679" lon="2.24811">
        <ele>68.4</ele>
        <time>2020-07-02T09:48:17Z</time>
      </trkpt>
      <trkpt lat="48.51681" lon="2.24803">
        <ele>68.2</ele>
        <time>2020-07-02T09:48:18Z</time>
      </trkpt>
      <trkpt lat="48.51683" lon="2.24795">
        <ele>68</ele>
        <time>2020-07-02T09:48:19Z</time>
      </trkpt>
      <trkpt lat="48.51685" lon="2.24788">
        <ele>67.9</ele>
        <time>2020-07-02T09:48:20Z</time>
      </trkpt>
      <trkpt lat="48.51687" lon="2.24781">
        <ele>67.7</ele>
        <time>2020-07-02T09:48:21Z</time>
      </trkpt>
      <trkpt lat="48.51688" lon="2.24773">
        <ele>67.5</ele>
        <time>2020-07-02T09:48:22Z</time>
      </trkpt>
      <trkpt lat="48.51689" lon="2.24766">
        <ele>67.4</ele>
        <time>2020-07-02T09:48:23Z</time>
      </trkpt>
      <trkpt lat="48.5169" lon="2.24758">
        <ele>67.2</ele>
        <time>2020-07-02T09:48:24Z</time>
      </trkpt>
      <trkpt lat="48.51691" lon="2.2475">
        <ele>67</ele>
        <time>2020-07-02T09:48:25Z</time>
      </trkpt>
      <trkpt lat="48.51691" lon="2.24742">
        <ele>66.8</ele>
        <time>2020-07-02T09:48:26Z</time>
      </trkpt>
      <trkpt lat="48.51691" lon="2.24734">
        <ele>66.6</ele>
        <time>2020-07-02T09:48:27Z</time>
      </trkpt>
      <trkpt lat="48.51691" lon="2.24724">
        <ele>66.4</ele>
        <time>2020-07-02T09:48:28Z</time>
      </trkpt>
      <trkpt lat="48.5169" lon="2.24714">
        <ele>66.1</ele>
        <time>2020-07-02T09:48:29Z</time>
      </trkpt>
      <trkpt lat="48.51689" lon="2.24703">
        <ele>65.9</ele>
        <time>2020-07-02T09:48:30Z</time>
      </trkpt>
      <trkpt lat="48.51689" lon="2.24692">
        <ele>65.6</ele>
        <time>2020-07-02T09:48:31Z</time>
      </trkpt>
      <trkpt lat="48.51687" lon="2.24681">
        <ele>65.5</ele>
        <time>2020-07-02T09:48:32Z</time>
      </trkpt>
      <trkpt lat="48.51687" lon="2.2467">
        <ele>65.3</ele>
        <time>2020-07-02T09:48:33Z</time>
      </trkpt>
      <trkpt lat="48.51686" lon="2.24661">
        <ele>65.2</ele>
        <time>2020-07-02T09:48:34Z</time>
      </trkpt>
      <trkpt lat="48.51686" lon="2.24651">
        <ele>65.1</ele>
        <time>2020-07-02T09:48:35Z</time>
      </trkpt>
      <trkpt lat="48.51686" lon="2.24641">
        <ele>65</ele>
        <time>2020-07-02T09:48:36Z</time>
      </trkpt>
      <trkpt lat="48.51685" lon="2.2463">
        <ele>64.9</ele>
        <time>2020-07-02T09:48:37Z</time>
      </trkpt>
      <trkpt lat="48.51684" lon="2.2462">
        <ele>64.8</ele>
        <time>2020-07-02T09:48:38Z</time>
      </trkpt>
      <trkpt lat="48.51684" lon="2.24609">
        <ele>64.7</ele>
        <time>2020-07-02T09:48:39Z</time>
      </trkpt>
      <trkpt lat="48.51683" lon="2.24599">
        <ele>64.7</ele>
        <time>2020-07-02T09:48:40Z</time>
      </trkpt>
      <trkpt lat="48.51682" lon="2.24589">
        <ele>64.6</ele>
        <time>2020-07-02T09:48:41Z</time>
      </trkpt>
      <trkpt lat="48.51682" lon="2.24579">
        <ele>64.6</ele>
        <time>2020-07-02T09:48:42Z</time>
      </trkpt>
      <trkpt lat="48.51681" lon="2.24569">
        <ele>64.5</ele>
        <time>2020-07-02T09:48:43Z</time>
      </trkpt>
      <trkpt lat="48.5168" lon="2.2456">
        <ele>64.5</ele>
        <time>2020-07-02T09:48:44Z</time>
      </trkpt>
      <trkpt lat="48.51679" lon="2.2455">
        <ele>64.4</ele>
        <time>2020-07-02T09:48:45Z</time>
      </trkpt>
      <trkpt lat="48.51678" lon="2.2454">
        <ele>64.4</ele>
        <time>2020-07-02T09:48:46Z</time>
      </trkpt>
      <trkpt lat="48.51677" lon="2.24531">
        <ele>64.2</ele>
        <time>2020-07-02T09:48:47Z</time>
      </trkpt>
      <trkpt lat="48.51677" lon="2.24522">
        <ele>64.1</ele>
        <time>2020-07-02T09:48:48Z</time>
      </trkpt>
      <trkpt lat="48.51677" lon="2.24513">
        <ele>63.9</ele>
        <time>2020-07-02T09:48:49Z</time>
      </trkpt>
      <trkpt lat="48.51676" lon="2.24505">
        <ele>63.7</ele>
        <time>2020-07-02T09:48:50Z</time>
      </trkpt>
      <trkpt lat="48.51675" lon="2.24496">
        <ele>63.5</ele>
        <time>2020-07-02T09:48:51Z</time>
      </trkpt>
      <trkpt lat="48.51674" lon="2.24486">
        <ele>63.2</ele>
        <time>2020-07-02T09:48:52Z</time>
      </trkpt>
      <trkpt lat="48.51671" lon="2.24477">
        <ele>63</ele>
        <time>2020-07-02T09:48:53Z</time>
      </trkpt>
      <trkpt lat="48.51669" lon="2.24468">
        <ele>62.8</ele>
        <time>2020-07-02T09:48:54Z</time>
      </trkpt>
      <trkpt lat="48.51666" lon="2.24458">
        <ele>62.7</ele>
        <time>2020-07-02T09:48:55Z</time>
      </trkpt>
      <trkpt lat="48.51664" lon="2.24448">
        <ele>62.6</ele>
        <time>2020-07-02T09:48:56Z</time>
      </trkpt>
      <trkpt lat="48.51662" lon="2.24439">
        <ele>62.4</ele>
        <time>2020-07-02T09:48:57Z</time>
      </trkpt>
      <trkpt lat="48.5166" lon="2.2443">
        <ele>62.3</ele>
        <time>2020-07-02T09:48:58Z</time>
      </trkpt>
      <trkpt lat="48.51657" lon="2.24421">
        <ele>62.2</ele>
        <time>2020-07-02T09:48:59Z</time>
      </trkpt>
      <trkpt lat="48.51655" lon="2.24411">
        <ele>62.2</ele>
        <time>2020-07-02T09:49:00Z</time>
      </trkpt>
      <trkpt lat="48.51652" lon="2.24402">
        <ele>62.1</ele>
        <time>2020-07-02T09:49:01Z</time>
      </trkpt>
      <trkpt lat="48.51649" lon="2.24393">
        <ele>62.1</ele>
        <time>2020-07-02T09:49:02Z</time>
      </trkpt>
      <trkpt lat="48.51647" lon="2.24384">
        <ele>62</ele>
        <time>2020-07-02T09:49:03Z</time>
      </trkpt>
      <trkpt lat="48.51644" lon="2.24374">
        <ele>62</ele>
        <time>2020-07-02T09:49:04Z</time>
      </trkpt>
      <trkpt lat="48.51642" lon="2.24365">
        <ele>62</ele>
        <time>2020-07-02T09:49:05Z</time>
      </trkpt>
      <trkpt lat="48.51639" lon="2.24355">
        <ele>62.1</ele>
        <time>2020-07-02T09:49:06Z</time>
      </trkpt>
      <trkpt lat="48.51637" lon="2.24346">
        <ele>62.1</ele>
        <time>2020-07-02T09:49:07Z</time>
      </trkpt>
      <trkpt lat="48.51634" lon="2.24338">
        <ele>62.1</ele>
        <time>2020-07-02T09:49:08Z</time>
      </trkpt>
      <trkpt lat="48.51632" lon="2.24329">
        <ele>62.2</ele>
        <time>2020-07-02T09:49:09Z</time>
      </trkpt>
      <trkpt lat="48.5163" lon="2.2432">
        <ele>62.2</ele>
        <time>2020-07-02T09:49:10Z</time>
      </trkpt>
      <trkpt lat="48.51628" lon="2.24311">
        <ele>62.3</ele>
        <time>2020-07-02T09:49:11Z</time>
      </trkpt>
      <trkpt lat="48.51626" lon="2.24302">
        <ele>62.4</ele>
        <time>2020-07-02T09:49:12Z</time>
      </trkpt>
      <trkpt lat="48.51624" lon="2.24293">
        <ele>62.5</ele>
        <time>2020-07-02T09:49:13Z</time>
      </trkpt>
      <trkpt lat="48.51622" lon="2.24285">
        <ele>62.6</ele>
        <time>2020-07-02T09:49:14Z</time>
      </trkpt>
      <trkpt lat="48.51619" lon="2.24277">
        <ele>62.8</ele>
        <time>2020-07-02T09:49:15Z</time>
      </trkpt>
      <trkpt lat="48.51618" lon="2.24268">
        <ele>62.9</ele>
        <time>2020-07-02T09:49:16Z</time>
      </trkpt>
      <trkpt lat="48.51616" lon="2.2426">
        <ele>63.1</ele>
        <time>2020-07-02T09:49:17Z</time>
      </trkpt>
      <trkpt lat="48.51614" lon="2.24251">
        <ele>63.3</ele>
        <time>2020-07-02T09:49:18Z</time>
      </trkpt>
      <trkpt lat="48.51612" lon="2.24243">
        <ele>63.5</ele>
        <time>2020-07-02T09:49:19Z</time>
      </trkpt>
      <trkpt lat="48.5161" lon="2.24236">
        <ele>63.7</ele>
        <time>2020-07-02T09:49:20Z</time>
      </trkpt>
      <trkpt lat="48.51609" lon="2.24228">
        <ele>63.8</ele>
        <time>2020-07-02T09:49:21Z</time>
      </trkpt>
      <trkpt lat="48.51607" lon="2.24222">
        <ele>64</ele>
        <time>2020-07-02T09:49:22Z</time>
      </trkpt>
      <trkpt lat="48.51605" lon="2.24215">
        <ele>64.2</ele>
        <time>2020-07-02T09:49:23Z</time>
      </trkpt>
      <trkpt lat="48.51603" lon="2.24209">
        <ele>64.3</ele>
        <time>2020-07-02T09:49:24Z</time>
      </trkpt>
      <trkpt lat="48.51601" lon="2.24203">
        <ele>64.5</ele>
        <time>2020-07-02T09:49:25Z</time>
      </trkpt>
      <trkpt lat="48.516" lon="2.24196">
        <ele>64.6</ele>
        <time>2020-07-02T09:49:26Z</time>
      </trkpt>
      <trkpt lat="48.51599" lon="2.24189">
        <ele>64.7</ele>
        <time>2020-07-02T09:49:27Z</time>
      </trkpt>
      <trkpt lat="48.51598" lon="2.24182">
        <ele>64.8</ele>
        <time>2020-07-02T09:49:28Z</time>
      </trkpt>
      <trkpt lat="48.51598" lon="2.24175">
        <ele>64.9</ele>
        <time>2020-07-02T09:49:29Z</time>
      </trkpt>
      <trkpt lat="48.51596" lon="2.24169">
        <ele>65</ele>
        <time>2020-07-02T09:49:30Z</time>
      </trkpt>
      <trkpt lat="48.51594" lon="2.24163">
        <ele>65.1</ele>
        <time>2020-07-02T09:49:31Z</time>
      </trkpt>
      <trkpt lat="48.51593" lon="2.24157">
        <ele>65.2</ele>
        <time>2020-07-02T09:49:32Z</time>
      </trkpt>
      <trkpt lat="48.51591" lon="2.24151">
        <ele>65.2</ele>
        <time>2020-07-02T09:49:33Z</time>
      </trkpt>
      <trkpt lat="48.51589" lon="2.24144">
        <ele>65.3</ele>
        <time>2020-07-02T09:49:34Z</time>
      </trkpt>
      <trkpt lat="48.51587" lon="2.24138">
        <ele>65.5</ele>
        <time>2020-07-02T09:49:35Z</time>
      </trkpt>
      <trkpt lat="48.51584" lon="2.24132">
        <ele>65.5</ele>
        <time>2020-07-02T09:49:36Z</time>
      </trkpt>
      <trkpt lat="48.51581" lon="2.24125">
        <ele>65.6</ele>
        <time>2020-07-02T09:49:37Z</time>
      </trkpt>
      <trkpt lat="48.51579" lon="2.24118">
        <ele>65.7</ele>
        <time>2020-07-02T09:49:38Z</time>
      </trkpt>
      <trkpt lat="48.51578" lon="2.24111">
        <ele>65.8</ele>
        <time>2020-07-02T09:49:39Z</time>
      </trkpt>
      <trkpt lat="48.51576" lon="2.24104">
        <ele>65.8</ele>
        <time>2020-07-02T09:49:40Z</time>
      </trkpt>
      <trkpt lat="48.51573" lon="2.24098">
        <ele>65.9</ele>
        <time>2020-07-02T09:49:41Z</time>
      </trkpt>
      <trkpt lat="48.51571" lon="2.24091">
        <ele>65.9</ele>
        <time>2020-07-02T09:49:42Z</time>
      </trkpt>
      <trkpt lat="48.51569" lon="2.24084">
        <ele>66</ele>
        <time>2020-07-02T09:49:43Z</time>
      </trkpt>
      <trkpt lat="48.51567" lon="2.24078">
        <ele>66.1</ele>
        <time>2020-07-02T09:49:44Z</time>
      </trkpt>
      <trkpt lat="48.51565" lon="2.24071">
        <ele>66.2</ele>
        <time>2020-07-02T09:49:45Z</time>
      </trkpt>
      <trkpt lat="48.51564" lon="2.24063">
        <ele>66.3</ele>
        <time>2020-07-02T09:49:46Z</time>
      </trkpt>
      <trkpt lat="48.51561" lon="2.24054">
        <ele>66.5</ele>
        <time>2020-07-02T09:49:47Z</time>
      </trkpt>
      <trkpt lat="48.5156" lon="2.24046">
        <ele>66.6</ele>
        <time>2020-07-02T09:49:48Z</time>
      </trkpt>
      <trkpt lat="48.51558" lon="2.24038">
        <ele>66.8</ele>
        <time>2020-07-02T09:49:49Z</time>
      </trkpt>
      <trkpt lat="48.51558" lon="2.2403">
        <ele>66.9</ele>
        <time>2020-07-02T09:49:50Z</time>
      </trkpt>
      <trkpt lat="48.51558" lon="2.24022">
        <ele>67.1</ele>
        <time>2020-07-02T09:49:51Z</time>
      </trkpt>
      <trkpt lat="48.51557" lon="2.24013">
        <ele>67.3</ele>
        <time>2020-07-02T09:49:52Z</time>
      </trkpt>
      <trkpt lat="48.51556" lon="2.24005">
        <ele>67.4</ele>
        <time>2020-07-02T09:49:53Z</time>
      </trkpt>
      <trkpt lat="48.51555" lon="2.23997">
        <ele>67.7</ele>
        <time>2020-07-02T09:49:54Z</time>
      </trkpt>
      <trkpt lat="48.51555" lon="2.23989">
        <ele>67.9</ele>
        <time>2020-07-02T09:49:55Z</time>
      </trkpt>
      <trkpt lat="48.51554" lon="2.23982">
        <ele>68.1</ele>
        <time>2020-07-02T09:49:56Z</time>
      </trkpt>
      <trkpt lat="48.51553" lon="2.23975">
        <ele>68.3</ele>
        <time>2020-07-02T09:49:57Z</time>
      </trkpt>
      <trkpt lat="48.51552" lon="2.23969">
        <ele>68.6</ele>
        <time>2020-07-02T09:49:58Z</time>
      </trkpt>
      <trkpt lat="48.51551" lon="2.23965">
        <ele>68.7</ele>
        <time>2020-07-02T09:49:59Z</time>
      </trkpt>
      <trkpt lat="48.5155" lon="2.23959">
        <ele>68.8</ele>
        <time>2020-07-02T09:50:00Z</time>
      </trkpt>
      <trkpt lat="48.51549" lon="2.23953">
        <ele>69</ele>
        <time>2020-07-02T09:50:01Z</time>
      </trkpt>
      <trkpt lat="48.51547" lon="2.23947">
        <ele>69.1</ele>
        <time>2020-07-02T09:50:02Z</time>
      </trkpt>
      <trkpt lat="48.51545" lon="2.23941">
        <ele>69.2</ele>
        <time>2020-07-02T09:50:03Z</time>
      </trkpt>
      <trkpt lat="48.51544" lon="2.23939">
        <ele>69.3</ele>
        <time>2020-07-02T09:50:04Z</time>
      </trkpt>
      <trkpt lat="48.51543" lon="2.23932">
        <ele>69.4</ele>
        <time>2020-07-02T09:50:05Z</time>
      </trkpt>
      <trkpt lat="48.51542" lon="2.23928">
        <ele>69.4</ele>
        <time>2020-07-02T09:50:06Z</time>
      </trkpt>
      <trkpt lat="48.5154" lon="2.23922">
        <ele>69.5</ele>
        <time>2020-07-02T09:50:07Z</time>
      </trkpt>
      <trkpt lat="48.51539" lon="2.23917">
        <ele>69.5</ele>
        <time>2020-07-02T09:50:08Z</time>
      </trkpt>
      <trkpt lat="48.51537" lon="2.23911">
        <ele>69.5</ele>
        <time>2020-07-02T09:50:09Z</time>
      </trkpt>
      <trkpt lat="48.51536" lon="2.23906">
        <ele>69.6</ele>
        <time>2020-07-02T09:50:10Z</time>
      </trkpt>
      <trkpt lat="48.51534" lon="2.23899">
        <ele>69.6</ele>
        <time>2020-07-02T09:50:11Z</time>
      </trkpt>
      <trkpt lat="48.51531" lon="2.23891">
        <ele>69.6</ele>
        <time>2020-07-02T09:50:12Z</time>
      </trkpt>
      <trkpt lat="48.51529" lon="2.23882">
        <ele>69.7</ele>
        <time>2020-07-02T09:50:13Z</time>
      </trkpt>
      <trkpt lat="48.51527" lon="2.23874">
        <ele>69.7</ele>
        <time>2020-07-02T09:50:14Z</time>
      </trkpt>
      <trkpt lat="48.51525" lon="2.23867">
        <ele>69.8</ele>
        <time>2020-07-02T09:50:15Z</time>
      </trkpt>
      <trkpt lat="48.51523" lon="2.23858">
        <ele>69.8</ele>
        <time>2020-07-02T09:50:16Z</time>
      </trkpt>
      <trkpt lat="48.51522" lon="2.23849">
        <ele>69.9</ele>
        <time>2020-07-02T09:50:17Z</time>
      </trkpt>
      <trkpt lat="48.51521" lon="2.23842">
        <ele>69.9</ele>
        <time>2020-07-02T09:50:18Z</time>
      </trkpt>
      <trkpt lat="48.5152" lon="2.23834">
        <ele>70</ele>
        <time>2020-07-02T09:50:19Z</time>
      </trkpt>
      <trkpt lat="48.51517" lon="2.23826">
        <ele>70</ele>
        <time>2020-07-02T09:50:20Z</time>
      </trkpt>
      <trkpt lat="48.51515" lon="2.23818">
        <ele>70.1</ele>
        <time>2020-07-02T09:50:21Z</time>
      </trkpt>
      <trkpt lat="48.51513" lon="2.23811">
        <ele>70.1</ele>
        <time>2020-07-02T09:50:22Z</time>
      </trkpt>
      <trkpt lat="48.51511" lon="2.23804">
        <ele>70.2</ele>
        <time>2020-07-02T09:50:23Z</time>
      </trkpt>
      <trkpt lat="48.51509" lon="2.23797">
        <ele>70.2</ele>
        <time>2020-07-02T09:50:24Z</time>
      </trkpt>
      <trkpt lat="48.51507" lon="2.23789">
        <ele>70.3</ele>
        <time>2020-07-02T09:50:25Z</time>
      </trkpt>
      <trkpt lat="48.51505" lon="2.23782">
        <ele>70.3</ele>
        <time>2020-07-02T09:50:26Z</time>
      </trkpt>
      <trkpt lat="48.51504" lon="2.23774">
        <ele>70.4</ele>
        <time>2020-07-02T09:50:27Z</time>
      </trkpt>
      <trkpt lat="48.51503" lon="2.23766">
        <ele>70.5</ele>
        <time>2020-07-02T09:50:28Z</time>
      </trkpt>
      <trkpt lat="48.51502" lon="2.2376">
        <ele>70.5</ele>
        <time>2020-07-02T09:50:29Z</time>
      </trkpt>
      <trkpt lat="48.51501" lon="2.23752">
        <ele>70.5</ele>
        <time>2020-07-02T09:50:30Z</time>
      </trkpt>
      <trkpt lat="48.515" lon="2.23744">
        <ele>70.6</ele>
        <time>2020-07-02T09:50:31Z</time>
      </trkpt>
      <trkpt lat="48.515" lon="2.23736">
        <ele>70.6</ele>
        <time>2020-07-02T09:50:32Z</time>
      </trkpt>
      <trkpt lat="48.51499" lon="2.23728">
        <ele>70.6</ele>
        <time>2020-07-02T09:50:33Z</time>
      </trkpt>
      <trkpt lat="48.51498" lon="2.23718">
        <ele>70.6</ele>
        <time>2020-07-02T09:50:34Z</time>
      </trkpt>
      <trkpt lat="48.51497" lon="2.23711">
        <ele>70.6</ele>
        <time>2020-07-02T09:50:35Z</time>
      </trkpt>
      <trkpt lat="48.51495" lon="2.23704">
        <ele>70.6</ele>
        <time>2020-07-02T09:50:36Z</time>
      </trkpt>
      <trkpt lat="48.51494" lon="2.23697">
        <ele>70.5</ele>
        <time>2020-07-02T09:50:37Z</time>
      </trkpt>
      <trkpt lat="48.51493" lon="2.23691">
        <ele>70.5</ele>
        <time>2020-07-02T09:50:38Z</time>
      </trkpt>
      <trkpt lat="48.51491" lon="2.23684">
        <ele>70.5</ele>
        <time>2020-07-02T09:50:39Z</time>
      </trkpt>
      <trkpt lat="48.51488" lon="2.23676">
        <ele>70.5</ele>
        <time>2020-07-02T09:50:40Z</time>
      </trkpt>
      <trkpt lat="48.51485" lon="2.23669">
        <ele>70.4</ele>
        <time>2020-07-02T09:50:41Z</time>
      </trkpt>
      <trkpt lat="48.51483" lon="2.23661">
        <ele>70.4</ele>
        <time>2020-07-02T09:50:42Z</time>
      </trkpt>
      <trkpt lat="48.51481" lon="2.23653">
        <ele>70.3</ele>
        <time>2020-07-02T09:50:43Z</time>
      </trkpt>
      <trkpt lat="48.51478" lon="2.23645">
        <ele>70.3</ele>
        <time>2020-07-02T09:50:44Z</time>
      </trkpt>
      <trkpt lat="48.51477" lon="2.23637">
        <ele>70.2</ele>
        <time>2020-07-02T09:50:45Z</time>
      </trkpt>
      <trkpt lat="48.51475" lon="2.2363">
        <ele>70.1</ele>
        <time>2020-07-02T09:50:46Z</time>
      </trkpt>
      <trkpt lat="48.51474" lon="2.23622">
        <ele>70.1</ele>
        <time>2020-07-02T09:50:47Z</time>
      </trkpt>
      <trkpt lat="48.51472" lon="2.23614">
        <ele>70</ele>
        <time>2020-07-02T09:50:48Z</time>
      </trkpt>
      <trkpt lat="48.5147" lon="2.23606">
        <ele>69.9</ele>
        <time>2020-07-02T09:50:49Z</time>
      </trkpt>
      <trkpt lat="48.51469" lon="2.23597">
        <ele>69.9</ele>
        <time>2020-07-02T09:50:50Z</time>
      </trkpt>
      <trkpt lat="48.51466" lon="2.23587">
        <ele>69.8</ele>
        <time>2020-07-02T09:50:51Z</time>
      </trkpt>
      <trkpt lat="48.51464" lon="2.23577">
        <ele>69.8</ele>
        <time>2020-07-02T09:50:52Z</time>
      </trkpt>
      <trkpt lat="48.51462" lon="2.23567">
        <ele>69.7</ele>
        <time>2020-07-02T09:50:53Z</time>
      </trkpt>
      <trkpt lat="48.51461" lon="2.23558">
        <ele>69.7</ele>
        <time>2020-07-02T09:50:54Z</time>
      </trkpt>
      <trkpt lat="48.51459" lon="2.23549">
        <ele>69.6</ele>
        <time>2020-07-02T09:50:55Z</time>
      </trkpt>
      <trkpt lat="48.51457" lon="2.23539">
        <ele>69.6</ele>
        <time>2020-07-02T09:50:56Z</time>
      </trkpt>
      <trkpt lat="48.51455" lon="2.2353">
        <ele>69.5</ele>
        <time>2020-07-02T09:50:57Z</time>
      </trkpt>
      <trkpt lat="48.51453" lon="2.23521">
        <ele>69.5</ele>
        <time>2020-07-02T09:50:58Z</time>
      </trkpt>
      <trkpt lat="48.5145" lon="2.23513">
        <ele>69.5</ele>
        <time>2020-07-02T09:50:59Z</time>
      </trkpt>
      <trkpt lat="48.51447" lon="2.23504">
        <ele>69.5</ele>
        <time>2020-07-02T09:51:00Z</time>
      </trkpt>
      <trkpt lat="48.51444" lon="2.23495">
        <ele>69.4</ele>
        <time>2020-07-02T09:51:01Z</time>
      </trkpt>
      <trkpt lat="48.51441" lon="2.23485">
        <ele>69.4</ele>
        <time>2020-07-02T09:51:02Z</time>
      </trkpt>
      <trkpt lat="48.51438" lon="2.23475">
        <ele>69.4</ele>
        <time>2020-07-02T09:51:03Z</time>
      </trkpt>
      <trkpt lat="48.51435" lon="2.23466">
        <ele>69.3</ele>
        <time>2020-07-02T09:51:04Z</time>
      </trkpt>
      <trkpt lat="48.51432" lon="2.23454">
        <ele>69.2</ele>
        <time>2020-07-02T09:51:05Z</time>
      </trkpt>
      <trkpt lat="48.51429" lon="2.23444">
        <ele>69.1</ele>
        <time>2020-07-02T09:51:06Z</time>
      </trkpt>
      <trkpt lat="48.51427" lon="2.23435">
        <ele>69</ele>
        <time>2020-07-02T09:51:07Z</time>
      </trkpt>
      <trkpt lat="48.51424" lon="2.23425">
        <ele>68.9</ele>
        <time>2020-07-02T09:51:08Z</time>
      </trkpt>
      <trkpt lat="48.51421" lon="2.23415">
        <ele>68.9</ele>
        <time>2020-07-02T09:51:09Z</time>
      </trkpt>
      <trkpt lat="48.51419" lon="2.23404">
        <ele>68.8</ele>
        <time>2020-07-02T09:51:10Z</time>
      </trkpt>
      <trkpt lat="48.51417" lon="2.23395">
        <ele>68.7</ele>
        <time>2020-07-02T09:51:11Z</time>
      </trkpt>
      <trkpt lat="48.51415" lon="2.23386">
        <ele>68.7</ele>
        <time>2020-07-02T09:51:12Z</time>
      </trkpt>
      <trkpt lat="48.51413" lon="2.23377">
        <ele>68.6</ele>
        <time>2020-07-02T09:51:13Z</time>
      </trkpt>
      <trkpt lat="48.51412" lon="2.23366">
        <ele>68.6</ele>
        <time>2020-07-02T09:51:14Z</time>
      </trkpt>
      <trkpt lat="48.5141" lon="2.23355">
        <ele>68.6</ele>
        <time>2020-07-02T09:51:15Z</time>
      </trkpt>
      <trkpt lat="48.51409" lon="2.23345">
        <ele>68.5</ele>
        <time>2020-07-02T09:51:16Z</time>
      </trkpt>
      <trkpt lat="48.51408" lon="2.23335">
        <ele>68.4</ele>
        <time>2020-07-02T09:51:17Z</time>
      </trkpt>
      <trkpt lat="48.51408" lon="2.23325">
        <ele>68.4</ele>
        <time>2020-07-02T09:51:18Z</time>
      </trkpt>
      <trkpt lat="48.51408" lon="2.23316">
        <ele>68.4</ele>
        <time>2020-07-02T09:51:19Z</time>
      </trkpt>
      <trkpt lat="48.51408" lon="2.23306">
        <ele>68.4</ele>
        <time>2020-07-02T09:51:20Z</time>
      </trkpt>
      <trkpt lat="48.51409" lon="2.23295">
        <ele>68.5</ele>
        <time>2020-07-02T09:51:21Z</time>
      </trkpt>
      <trkpt lat="48.51409" lon="2.23287">
        <ele>68.5</ele>
        <time>2020-07-02T09:51:22Z</time>
      </trkpt>
      <trkpt lat="48.51408" lon="2.23277">
        <ele>68.6</ele>
        <time>2020-07-02T09:51:23Z</time>
      </trkpt>
      <trkpt lat="48.51408" lon="2.23266">
        <ele>68.6</ele>
        <time>2020-07-02T09:51:24Z</time>
      </trkpt>
      <trkpt lat="48.51409" lon="2.23257">
        <ele>68.7</ele>
        <time>2020-07-02T09:51:25Z</time>
      </trkpt>
      <trkpt lat="48.5141" lon="2.23247">
        <ele>68.7</ele>
        <time>2020-07-02T09:51:26Z</time>
      </trkpt>
      <trkpt lat="48.51412" lon="2.23237">
        <ele>68.7</ele>
        <time>2020-07-02T09:51:27Z</time>
      </trkpt>
      <trkpt lat="48.51413" lon="2.23229">
        <ele>68.7</ele>
        <time>2020-07-02T09:51:28Z</time>
      </trkpt>
      <trkpt lat="48.51414" lon="2.23221">
        <ele>68.7</ele>
        <time>2020-07-02T09:51:29Z</time>
      </trkpt>
      <trkpt lat="48.51414" lon="2.23213">
        <ele>68.7</ele>
        <time>2020-07-02T09:51:30Z</time>
      </trkpt>
      <trkpt lat="48.51414" lon="2.23206">
        <ele>68.7</ele>
        <time>2020-07-02T09:51:31Z</time>
      </trkpt>
      <trkpt lat="48.51415" lon="2.232">
        <ele>68.8</ele>
        <time>2020-07-02T09:51:32Z</time>
      </trkpt>
      <trkpt lat="48.51416" lon="2.23194">
        <ele>68.8</ele>
        <time>2020-07-02T09:51:33Z</time>
      </trkpt>
      <trkpt lat="48.51417" lon="2.23187">
        <ele>68.8</ele>
        <time>2020-07-02T09:51:34Z</time>
      </trkpt>
      <trkpt lat="48.51418" lon="2.23179">
        <ele>68.9</ele>
        <time>2020-07-02T09:51:35Z</time>
      </trkpt>
      <trkpt lat="48.5142" lon="2.23171">
        <ele>68.9</ele>
        <time>2020-07-02T09:51:36Z</time>
      </trkpt>
      <trkpt lat="48.51423" lon="2.23163">
        <ele>69</ele>
        <time>2020-07-02T09:51:37Z</time>
      </trkpt>
      <trkpt lat="48.51424" lon="2.23155">
        <ele>69</ele>
        <time>2020-07-02T09:51:38Z</time>
      </trkpt>
      <trkpt lat="48.51426" lon="2.23145">
        <ele>69</ele>
        <time>2020-07-02T09:51:39Z</time>
      </trkpt>
      <trkpt lat="48.51427" lon="2.23138">
        <ele>69</ele>
        <time>2020-07-02T09:51:40Z</time>
      </trkpt>
      <trkpt lat="48.51429" lon="2.23131">
        <ele>69</ele>
        <time>2020-07-02T09:51:41Z</time>
      </trkpt>
      <trkpt lat="48.51431" lon="2.23124">
        <ele>69</ele>
        <time>2020-07-02T09:51:42Z</time>
      </trkpt>
      <trkpt lat="48.51432" lon="2.23119">
        <ele>69</ele>
        <time>2020-07-02T09:51:43Z</time>
      </trkpt>
      <trkpt lat="48.51432" lon="2.23113">
        <ele>68.9</ele>
        <time>2020-07-02T09:51:44Z</time>
      </trkpt>
      <trkpt lat="48.51432" lon="2.23107">
        <ele>68.4</ele>
        <time>2020-07-02T09:51:45Z</time>
      </trkpt>
      <trkpt lat="48.5143" lon="2.23103">
        <ele>68.2</ele>
        <time>2020-07-02T09:51:46Z</time>
      </trkpt>
      <trkpt lat="48.51429" lon="2.23102">
        <ele>68.2</ele>
        <time>2020-07-02T09:51:47Z</time>
      </trkpt>
      <trkpt lat="48.51427" lon="2.23102">
        <ele>68</ele>
        <time>2020-07-02T09:51:48Z</time>
      </trkpt>
      <trkpt lat="48.51421" lon="2.231">
        <ele>67.7</ele>
        <time>2020-07-02T09:51:49Z</time>
      </trkpt>
      <trkpt lat="48.51417" lon="2.23099">
        <ele>67.5</ele>
        <time>2020-07-02T09:51:50Z</time>
      </trkpt>
      <trkpt lat="48.51411" lon="2.23098">
        <ele>67.2</ele>
        <time>2020-07-02T09:51:51Z</time>
      </trkpt>
      <trkpt lat="48.51406" lon="2.23097">
        <ele>66.8</ele>
        <time>2020-07-02T09:51:52Z</time>
      </trkpt>
      <trkpt lat="48.514" lon="2.23096">
        <ele>66.5</ele>
        <time>2020-07-02T09:51:53Z</time>
      </trkpt>
      <trkpt lat="48.51394" lon="2.23095">
        <ele>66.1</ele>
        <time>2020-07-02T09:51:54Z</time>
      </trkpt>
      <trkpt lat="48.51388" lon="2.23096">
        <ele>65.8</ele>
        <time>2020-07-02T09:51:55Z</time>
      </trkpt>
      <trkpt lat="48.51384" lon="2.23094">
        <ele>65.5</ele>
        <time>2020-07-02T09:51:56Z</time>
      </trkpt>
      <trkpt lat="48.51378" lon="2.23094">
        <ele>65.2</ele>
        <time>2020-07-02T09:51:57Z</time>
      </trkpt>
      <trkpt lat="48.51371" lon="2.23093">
        <ele>64.7</ele>
        <time>2020-07-02T09:51:58Z</time>
      </trkpt>
      <trkpt lat="48.51363" lon="2.23092">
        <ele>64.2</ele>
        <time>2020-07-02T09:51:59Z</time>
      </trkpt>
      <trkpt lat="48.51355" lon="2.23092">
        <ele>63.7</ele>
        <time>2020-07-02T09:52:00Z</time>
      </trkpt>
      <trkpt lat="48.51346" lon="2.23091">
        <ele>63.2</ele>
        <time>2020-07-02T09:52:01Z</time>
      </trkpt>
      <trkpt lat="48.51338" lon="2.2309">
        <ele>62.7</ele>
        <time>2020-07-02T09:52:02Z</time>
      </trkpt>
      <trkpt lat="48.51329" lon="2.23089">
        <ele>62.1</ele>
        <time>2020-07-02T09:52:03Z</time>
      </trkpt>
      <trkpt lat="48.5132" lon="2.23088">
        <ele>61.6</ele>
        <time>2020-07-02T09:52:04Z</time>
      </trkpt>
      <trkpt lat="48.51311" lon="2.23088">
        <ele>61.2</ele>
        <time>2020-07-02T09:52:05Z</time>
      </trkpt>
      <trkpt lat="48.51301" lon="2.23087">
        <ele>60.9</ele>
        <time>2020-07-02T09:52:06Z</time>
      </trkpt>
      <trkpt lat="48.51292" lon="2.23086">
        <ele>60.6</ele>
        <time>2020-07-02T09:52:07Z</time>
      </trkpt>
      <trkpt lat="48.51283" lon="2.23085">
        <ele>60.5</ele>
        <time>2020-07-02T09:52:08Z</time>
      </trkpt>
      <trkpt lat="48.51273" lon="2.23083">
        <ele>60.4</ele>
        <time>2020-07-02T09:52:09Z</time>
      </trkpt>
      <trkpt lat="48.51265" lon="2.23082">
        <ele>60.4</ele>
        <time>2020-07-02T09:52:10Z</time>
      </trkpt>
      <trkpt lat="48.51257" lon="2.23079">
        <ele>60.4</ele>
        <time>2020-07-02T09:52:11Z</time>
      </trkpt>
      <trkpt lat="48.51251" lon="2.23078">
        <ele>60.3</ele>
        <time>2020-07-02T09:52:12Z</time>
      </trkpt>
      <trkpt lat="48.51244" lon="2.23076">
        <ele>60.3</ele>
        <time>2020-07-02T09:52:13Z</time>
      </trkpt>
      <trkpt lat="48.51237" lon="2.23075">
        <ele>60.3</ele>
        <time>2020-07-02T09:52:14Z</time>
      </trkpt>
      <trkpt lat="48.51229" lon="2.23074">
        <ele>60.4</ele>
        <time>2020-07-02T09:52:15Z</time>
      </trkpt>
      <trkpt lat="48.51223" lon="2.23072">
        <ele>60.5</ele>
        <time>2020-07-02T09:52:16Z</time>
      </trkpt>
      <trkpt lat="48.51216" lon="2.2307">
        <ele>60.6</ele>
        <time>2020-07-02T09:52:17Z</time>
      </trkpt>
      <trkpt lat="48.5121" lon="2.23068">
        <ele>60.8</ele>
        <time>2020-07-02T09:52:18Z</time>
      </trkpt>
      <trkpt lat="48.51204" lon="2.23068">
        <ele>60.9</ele>
        <time>2020-07-02T09:52:19Z</time>
      </trkpt>
      <trkpt lat="48.51199" lon="2.23068">
        <ele>61.1</ele>
        <time>2020-07-02T09:52:20Z</time>
      </trkpt>
      <trkpt lat="48.51195" lon="2.23068">
        <ele>61.2</ele>
        <time>2020-07-02T09:52:21Z</time>
      </trkpt>
      <trkpt lat="48.5119" lon="2.23068">
        <ele>61.3</ele>
        <time>2020-07-02T09:52:22Z</time>
      </trkpt>
      <trkpt lat="48.51185" lon="2.23067">
        <ele>61.4</ele>
        <time>2020-07-02T09:52:23Z</time>
      </trkpt>
      <trkpt lat="48.5118" lon="2.23069">
        <ele>61.6</ele>
        <time>2020-07-02T09:52:24Z</time>
      </trkpt>
      <trkpt lat="48.51174" lon="2.23067">
        <ele>61.6</ele>
        <time>2020-07-02T09:52:25Z</time>
      </trkpt>
      <trkpt lat="48.51168" lon="2.23068">
        <ele>61.6</ele>
        <time>2020-07-02T09:52:26Z</time>
      </trkpt>
      <trkpt lat="48.51163" lon="2.23069">
        <ele>61.6</ele>
        <time>2020-07-02T09:52:27Z</time>
      </trkpt>
      <trkpt lat="48.51157" lon="2.23069">
        <ele>61.6</ele>
        <time>2020-07-02T09:52:28Z</time>
      </trkpt>
      <trkpt lat="48.51151" lon="2.2307">
        <ele>61.9</ele>
        <time>2020-07-02T09:52:29Z</time>
      </trkpt>
      <trkpt lat="48.51146" lon="2.2307">
        <ele>62</ele>
        <time>2020-07-02T09:52:30Z</time>
      </trkpt>
      <trkpt lat="48.5114" lon="2.23071">
        <ele>62.2</ele>
        <time>2020-07-02T09:52:31Z</time>
      </trkpt>
      <trkpt lat="48.51135" lon="2.23071">
        <ele>62.4</ele>
        <time>2020-07-02T09:52:32Z</time>
      </trkpt>
      <trkpt lat="48.51131" lon="2.23071">
        <ele>62.6</ele>
        <time>2020-07-02T09:52:33Z</time>
      </trkpt>
      <trkpt lat="48.51126" lon="2.23073">
        <ele>62.8</ele>
        <time>2020-07-02T09:52:34Z</time>
      </trkpt>
      <trkpt lat="48.51122" lon="2.23075">
        <ele>63.1</ele>
        <time>2020-07-02T09:52:35Z</time>
      </trkpt>
      <trkpt lat="48.51117" lon="2.23076">
        <ele>63.3</ele>
        <time>2020-07-02T09:52:36Z</time>
      </trkpt>
      <trkpt lat="48.51113" lon="2.23075">
        <ele>63.5</ele>
        <time>2020-07-02T09:52:37Z</time>
      </trkpt>
      <trkpt lat="48.51109" lon="2.23076">
        <ele>63.7</ele>
        <time>2020-07-02T09:52:38Z</time>
      </trkpt>
      <trkpt lat="48.51105" lon="2.23076">
        <ele>63.9</ele>
        <time>2020-07-02T09:52:39Z</time>
      </trkpt>
      <trkpt lat="48.51101" lon="2.23077">
        <ele>64.2</ele>
        <time>2020-07-02T09:52:40Z</time>
      </trkpt>
      <trkpt lat="48.51096" lon="2.23077">
        <ele>64.4</ele>
        <time>2020-07-02T09:52:41Z</time>
      </trkpt>
      <trkpt lat="48.51092" lon="2.23078">
        <ele>64.7</ele>
        <time>2020-07-02T09:52:42Z</time>
      </trkpt>
      <trkpt lat="48.51088" lon="2.2308">
        <ele>64.9</ele>
        <time>2020-07-02T09:52:43Z</time>
      </trkpt>
      <trkpt lat="48.51084" lon="2.23081">
        <ele>65.1</ele>
        <time>2020-07-02T09:52:44Z</time>
      </trkpt>
      <trkpt lat="48.5108" lon="2.23082">
        <ele>65.4</ele>
        <time>2020-07-02T09:52:45Z</time>
      </trkpt>
      <trkpt lat="48.51076" lon="2.23083">
        <ele>65.6</ele>
        <time>2020-07-02T09:52:46Z</time>
      </trkpt>
      <trkpt lat="48.51072" lon="2.23084">
        <ele>65.9</ele>
        <time>2020-07-02T09:52:47Z</time>
      </trkpt>
      <trkpt lat="48.51068" lon="2.23085">
        <ele>66.1</ele>
        <time>2020-07-02T09:52:48Z</time>
      </trkpt>
      <trkpt lat="48.51064" lon="2.23087">
        <ele>66.4</ele>
        <time>2020-07-02T09:52:49Z</time>
      </trkpt>
      <trkpt lat="48.5106" lon="2.23088">
        <ele>66.6</ele>
        <time>2020-07-02T09:52:50Z</time>
      </trkpt>
      <trkpt lat="48.51056" lon="2.2309">
        <ele>66.8</ele>
        <time>2020-07-02T09:52:51Z</time>
      </trkpt>
      <trkpt lat="48.51052" lon="2.2309">
        <ele>67.1</ele>
        <time>2020-07-02T09:52:52Z</time>
      </trkpt>
      <trkpt lat="48.51048" lon="2.23092">
        <ele>67.3</ele>
        <time>2020-07-02T09:52:53Z</time>
      </trkpt>
      <trkpt lat="48.51045" lon="2.23092">
        <ele>67.5</ele>
        <time>2020-07-02T09:52:54Z</time>
      </trkpt>
      <trkpt lat="48.51041" lon="2.23092">
        <ele>67.7</ele>
        <time>2020-07-02T09:52:55Z</time>
      </trkpt>
      <trkpt lat="48.51037" lon="2.23092">
        <ele>68</ele>
        <time>2020-07-02T09:52:56Z</time>
      </trkpt>
      <trkpt lat="48.51034" lon="2.23093">
        <ele>68.2</ele>
        <time>2020-07-02T09:52:57Z</time>
      </trkpt>
      <trkpt lat="48.5103" lon="2.23094">
        <ele>68.5</ele>
        <time>2020-07-02T09:52:58Z</time>
      </trkpt>
      <trkpt lat="48.51026" lon="2.23096">
        <ele>68.7</ele>
        <time>2020-07-02T09:52:59Z</time>
      </trkpt>
      <trkpt lat="48.51023" lon="2.23097">
        <ele>68.9</ele>
        <time>2020-07-02T09:53:00Z</time>
      </trkpt>
      <trkpt lat="48.51019" lon="2.23095">
        <ele>69.4</ele>
        <time>2020-07-02T09:53:01Z</time>
      </trkpt>
      <trkpt lat="48.51017" lon="2.23093">
        <ele>69.5</ele>
        <time>2020-07-02T09:53:02Z</time>
      </trkpt>
      <trkpt lat="48.51015" lon="2.23088">
        <ele>69.6</ele>
        <time>2020-07-02T09:53:03Z</time>
      </trkpt>
      <trkpt lat="48.51013" lon="2.23082">
        <ele>69.7</ele>
        <time>2020-07-02T09:53:04Z</time>
      </trkpt>
      <trkpt lat="48.51012" lon="2.2308">
        <ele>69.7</ele>
        <time>2020-07-02T09:53:05Z</time>
      </trkpt>
      <trkpt lat="48.51009" lon="2.23073">
        <ele>69.8</ele>
        <time>2020-07-02T09:53:06Z</time>
      </trkpt>
      <trkpt lat="48.51007" lon="2.23065">
        <ele>69.9</ele>
        <time>2020-07-02T09:53:07Z</time>
      </trkpt>
      <trkpt lat="48.51004" lon="2.2306">
        <ele>70</ele>
        <time>2020-07-02T09:53:08Z</time>
      </trkpt>
      <trkpt lat="48.51002" lon="2.23054">
        <ele>70.1</ele>
        <time>2020-07-02T09:53:09Z</time>
      </trkpt>
      <trkpt lat="48.51" lon="2.23048">
        <ele>70.2</ele>
        <time>2020-07-02T09:53:10Z</time>
      </trkpt>
      <trkpt lat="48.50997" lon="2.23041">
        <ele>70.3</ele>
        <time>2020-07-02T09:53:11Z</time>
      </trkpt>
      <trkpt lat="48.50996" lon="2.23034">
        <ele>70.4</ele>
        <time>2020-07-02T09:53:12Z</time>
      </trkpt>
      <trkpt lat="48.50993" lon="2.23022">
        <ele>70.5</ele>
        <time>2020-07-02T09:53:13Z</time>
      </trkpt>
      <trkpt lat="48.50991" lon="2.23014">
        <ele>70.6</ele>
        <time>2020-07-02T09:53:14Z</time>
      </trkpt>
      <trkpt lat="48.50988" lon="2.23006">
        <ele>70.7</ele>
        <time>2020-07-02T09:53:15Z</time>
      </trkpt>
      <trkpt lat="48.50986" lon="2.22999">
        <ele>70.8</ele>
        <time>2020-07-02T09:53:16Z</time>
      </trkpt>
      <trkpt lat="48.50984" lon="2.22993">
        <ele>70.8</ele>
        <time>2020-07-02T09:53:17Z</time>
      </trkpt>
      <trkpt lat="48.50983" lon="2.22986">
        <ele>70.9</ele>
        <time>2020-07-02T09:53:18Z</time>
      </trkpt>
      <trkpt lat="48.50981" lon="2.22979">
        <ele>70.9</ele>
        <time>2020-07-02T09:53:19Z</time>
      </trkpt>
      <trkpt lat="48.50979" lon="2.22971">
        <ele>71</ele>
        <time>2020-07-02T09:53:20Z</time>
      </trkpt>
      <trkpt lat="48.50976" lon="2.22965">
        <ele>71</ele>
        <time>2020-07-02T09:53:21Z</time>
      </trkpt>
      <trkpt lat="48.50974" lon="2.2296">
        <ele>71.1</ele>
        <time>2020-07-02T09:53:22Z</time>
      </trkpt>
      <trkpt lat="48.50972" lon="2.22954">
        <ele>71.1</ele>
        <time>2020-07-02T09:53:23Z</time>
      </trkpt>
      <trkpt lat="48.50969" lon="2.22948">
        <ele>71.2</ele>
        <time>2020-07-02T09:53:24Z</time>
      </trkpt>
      <trkpt lat="48.50967" lon="2.22942">
        <ele>71.2</ele>
        <time>2020-07-02T09:53:25Z</time>
      </trkpt>
      <trkpt lat="48.50965" lon="2.22935">
        <ele>71.3</ele>
        <time>2020-07-02T09:53:26Z</time>
      </trkpt>
      <trkpt lat="48.50963" lon="2.22928">
        <ele>71.3</ele>
        <time>2020-07-02T09:53:27Z</time>
      </trkpt>
      <trkpt lat="48.50961" lon="2.2292">
        <ele>71.3</ele>
        <time>2020-07-02T09:53:28Z</time>
      </trkpt>
      <trkpt lat="48.50959" lon="2.22914">
        <ele>71.4</ele>
        <time>2020-07-02T09:53:29Z</time>
      </trkpt>
      <trkpt lat="48.50956" lon="2.22907">
        <ele>71.4</ele>
        <time>2020-07-02T09:53:30Z</time>
      </trkpt>
      <trkpt lat="48.50954" lon="2.229">
        <ele>71.5</ele>
        <time>2020-07-02T09:53:31Z</time>
      </trkpt>
      <trkpt lat="48.50951" lon="2.22893">
        <ele>71.5</ele>
        <time>2020-07-02T09:53:32Z</time>
      </trkpt>
      <trkpt lat="48.50949" lon="2.22885">
        <ele>71.5</ele>
        <time>2020-07-02T09:53:33Z</time>
      </trkpt>
      <trkpt lat="48.50947" lon="2.22878">
        <ele>71.5</ele>
        <time>2020-07-02T09:53:34Z</time>
      </trkpt>
      <trkpt lat="48.50944" lon="2.22871">
        <ele>71.6</ele>
        <time>2020-07-02T09:53:35Z</time>
      </trkpt>
      <trkpt lat="48.50941" lon="2.22864">
        <ele>71.6</ele>
        <time>2020-07-02T09:53:36Z</time>
      </trkpt>
      <trkpt lat="48.50938" lon="2.22857">
        <ele>71.6</ele>
        <time>2020-07-02T09:53:37Z</time>
      </trkpt>
      <trkpt lat="48.50936" lon="2.2285">
        <ele>71.7</ele>
        <time>2020-07-02T09:53:38Z</time>
      </trkpt>
      <trkpt lat="48.50932" lon="2.22842">
        <ele>71.7</ele>
        <time>2020-07-02T09:53:39Z</time>
      </trkpt>
      <trkpt lat="48.50929" lon="2.22835">
        <ele>71.7</ele>
        <time>2020-07-02T09:53:40Z</time>
      </trkpt>
      <trkpt lat="48.50926" lon="2.22829">
        <ele>71.7</ele>
        <time>2020-07-02T09:53:41Z</time>
      </trkpt>
      <trkpt lat="48.50923" lon="2.22823">
        <ele>71.7</ele>
        <time>2020-07-02T09:53:42Z</time>
      </trkpt>
      <trkpt lat="48.50919" lon="2.22816">
        <ele>71.7</ele>
        <time>2020-07-02T09:53:43Z</time>
      </trkpt>
      <trkpt lat="48.50916" lon="2.22811">
        <ele>71.7</ele>
        <time>2020-07-02T09:53:44Z</time>
      </trkpt>
      <trkpt lat="48.50912" lon="2.22803">
        <ele>71.7</ele>
        <time>2020-07-02T09:53:45Z</time>
      </trkpt>
      <trkpt lat="48.50908" lon="2.22797">
        <ele>71.6</ele>
        <time>2020-07-02T09:53:46Z</time>
      </trkpt>
      <trkpt lat="48.50904" lon="2.22792">
        <ele>71.6</ele>
        <time>2020-07-02T09:53:47Z</time>
      </trkpt>
      <trkpt lat="48.50899" lon="2.22786">
        <ele>71.5</ele>
        <time>2020-07-02T09:53:48Z</time>
      </trkpt>
      <trkpt lat="48.50895" lon="2.22782">
        <ele>71.5</ele>
        <time>2020-07-02T09:53:49Z</time>
      </trkpt>
      <trkpt lat="48.50891" lon="2.22777">
        <ele>71.4</ele>
        <time>2020-07-02T09:53:50Z</time>
      </trkpt>
      <trkpt lat="48.50886" lon="2.22772">
        <ele>71.4</ele>
        <time>2020-07-02T09:53:51Z</time>
      </trkpt>
      <trkpt lat="48.50882" lon="2.22767">
        <ele>71.3</ele>
        <time>2020-07-02T09:53:52Z</time>
      </trkpt>
      <trkpt lat="48.50877" lon="2.22761">
        <ele>71.2</ele>
        <time>2020-07-02T09:53:53Z</time>
      </trkpt>
      <trkpt lat="48.50873" lon="2.22757">
        <ele>71.2</ele>
        <time>2020-07-02T09:53:54Z</time>
      </trkpt>
      <trkpt lat="48.50869" lon="2.22753">
        <ele>71.1</ele>
        <time>2020-07-02T09:53:55Z</time>
      </trkpt>
      <trkpt lat="48.50864" lon="2.22748">
        <ele>71</ele>
        <time>2020-07-02T09:53:56Z</time>
      </trkpt>
      <trkpt lat="48.50859" lon="2.22742">
        <ele>70.9</ele>
        <time>2020-07-02T09:53:57Z</time>
      </trkpt>
      <trkpt lat="48.50854" lon="2.22736">
        <ele>70.8</ele>
        <time>2020-07-02T09:53:58Z</time>
      </trkpt>
      <trkpt lat="48.50849" lon="2.22731">
        <ele>70.8</ele>
        <time>2020-07-02T09:53:59Z</time>
      </trkpt>
      <trkpt lat="48.50842" lon="2.22723">
        <ele>70.8</ele>
        <time>2020-07-02T09:54:00Z</time>
      </trkpt>
      <trkpt lat="48.50837" lon="2.2272">
        <ele>70.8</ele>
        <time>2020-07-02T09:54:01Z</time>
      </trkpt>
      <trkpt lat="48.50831" lon="2.22715">
        <ele>70.7</ele>
        <time>2020-07-02T09:54:02Z</time>
      </trkpt>
      <trkpt lat="48.50825" lon="2.2271">
        <ele>70.6</ele>
        <time>2020-07-02T09:54:03Z</time>
      </trkpt>
      <trkpt lat="48.50819" lon="2.22706">
        <ele>70.5</ele>
        <time>2020-07-02T09:54:04Z</time>
      </trkpt>
      <trkpt lat="48.50813" lon="2.22702">
        <ele>70.3</ele>
        <time>2020-07-02T09:54:05Z</time>
      </trkpt>
      <trkpt lat="48.50807" lon="2.22697">
        <ele>70.2</ele>
        <time>2020-07-02T09:54:06Z</time>
      </trkpt>
      <trkpt lat="48.50801" lon="2.22692">
        <ele>70.1</ele>
        <time>2020-07-02T09:54:07Z</time>
      </trkpt>
      <trkpt lat="48.50796" lon="2.22688">
        <ele>70</ele>
        <time>2020-07-02T09:54:08Z</time>
      </trkpt>
      <trkpt lat="48.5079" lon="2.22683">
        <ele>69.9</ele>
        <time>2020-07-02T09:54:09Z</time>
      </trkpt>
      <trkpt lat="48.50784" lon="2.22679">
        <ele>69.8</ele>
        <time>2020-07-02T09:54:10Z</time>
      </trkpt>
      <trkpt lat="48.50778" lon="2.22675">
        <ele>69.7</ele>
        <time>2020-07-02T09:54:11Z</time>
      </trkpt>
      <trkpt lat="48.50772" lon="2.22672">
        <ele>69.7</ele>
        <time>2020-07-02T09:54:12Z</time>
      </trkpt>
      <trkpt lat="48.50766" lon="2.22668">
        <ele>69.6</ele>
        <time>2020-07-02T09:54:13Z</time>
      </trkpt>
      <trkpt lat="48.50761" lon="2.22665">
        <ele>69.6</ele>
        <time>2020-07-02T09:54:14Z</time>
      </trkpt>
      <trkpt lat="48.50755" lon="2.22661">
        <ele>69.6</ele>
        <time>2020-07-02T09:54:15Z</time>
      </trkpt>
      <trkpt lat="48.5075" lon="2.22658">
        <ele>69.6</ele>
        <time>2020-07-02T09:54:16Z</time>
      </trkpt>
      <trkpt lat="48.50746" lon="2.22655">
        <ele>69.6</ele>
        <time>2020-07-02T09:54:17Z</time>
      </trkpt>
      <trkpt lat="48.50741" lon="2.22651">
        <ele>69.6</ele>
        <time>2020-07-02T09:54:18Z</time>
      </trkpt>
      <trkpt lat="48.50736" lon="2.22648">
        <ele>69.6</ele>
        <time>2020-07-02T09:54:19Z</time>
      </trkpt>
      <trkpt lat="48.5073" lon="2.22644">
        <ele>69.6</ele>
        <time>2020-07-02T09:54:20Z</time>
      </trkpt>
      <trkpt lat="48.50725" lon="2.2264">
        <ele>69.6</ele>
        <time>2020-07-02T09:54:21Z</time>
      </trkpt>
      <trkpt lat="48.50719" lon="2.22634">
        <ele>69.6</ele>
        <time>2020-07-02T09:54:22Z</time>
      </trkpt>
      <trkpt lat="48.50713" lon="2.22629">
        <ele>69.6</ele>
        <time>2020-07-02T09:54:23Z</time>
      </trkpt>
      <trkpt lat="48.50707" lon="2.22625">
        <ele>69.6</ele>
        <time>2020-07-02T09:54:24Z</time>
      </trkpt>
      <trkpt lat="48.50702" lon="2.22621">
        <ele>69.6</ele>
        <time>2020-07-02T09:54:25Z</time>
      </trkpt>
      <trkpt lat="48.50697" lon="2.22617">
        <ele>69.7</ele>
        <time>2020-07-02T09:54:26Z</time>
      </trkpt>
      <trkpt lat="48.50691" lon="2.22612">
        <ele>69.7</ele>
        <time>2020-07-02T09:54:27Z</time>
      </trkpt>
      <trkpt lat="48.50686" lon="2.22607">
        <ele>69.8</ele>
        <time>2020-07-02T09:54:28Z</time>
      </trkpt>
      <trkpt lat="48.5068" lon="2.22603">
        <ele>69.8</ele>
        <time>2020-07-02T09:54:29Z</time>
      </trkpt>
      <trkpt lat="48.50674" lon="2.22599">
        <ele>69.7</ele>
        <time>2020-07-02T09:54:30Z</time>
      </trkpt>
      <trkpt lat="48.50668" lon="2.22594">
        <ele>69.7</ele>
        <time>2020-07-02T09:54:31Z</time>
      </trkpt>
      <trkpt lat="48.50662" lon="2.2259">
        <ele>69.7</ele>
        <time>2020-07-02T09:54:32Z</time>
      </trkpt>
      <trkpt lat="48.50656" lon="2.22586">
        <ele>69.6</ele>
        <time>2020-07-02T09:54:33Z</time>
      </trkpt>
      <trkpt lat="48.50651" lon="2.22582">
        <ele>69.7</ele>
        <time>2020-07-02T09:54:34Z</time>
      </trkpt>
      <trkpt lat="48.50645" lon="2.22578">
        <ele>69.7</ele>
        <time>2020-07-02T09:54:35Z</time>
      </trkpt>
      <trkpt lat="48.50639" lon="2.22574">
        <ele>69.7</ele>
        <time>2020-07-02T09:54:36Z</time>
      </trkpt>
      <trkpt lat="48.50633" lon="2.22571">
        <ele>69.7</ele>
        <time>2020-07-02T09:54:37Z</time>
      </trkpt>
      <trkpt lat="48.50627" lon="2.22568">
        <ele>69.7</ele>
        <time>2020-07-02T09:54:38Z</time>
      </trkpt>
      <trkpt lat="48.50621" lon="2.22565">
        <ele>69.7</ele>
        <time>2020-07-02T09:54:39Z</time>
      </trkpt>
      <trkpt lat="48.50616" lon="2.22562">
        <ele>69.7</ele>
        <time>2020-07-02T09:54:40Z</time>
      </trkpt>
      <trkpt lat="48.5061" lon="2.22559">
        <ele>69.7</ele>
        <time>2020-07-02T09:54:41Z</time>
      </trkpt>
      <trkpt lat="48.50607" lon="2.22558">
        <ele>69.7</ele>
        <time>2020-07-02T09:54:42Z</time>
      </trkpt>
      <trkpt lat="48.50602" lon="2.22554">
        <ele>69.7</ele>
        <time>2020-07-02T09:54:43Z</time>
      </trkpt>
      <trkpt lat="48.50598" lon="2.22551">
        <ele>69.7</ele>
        <time>2020-07-02T09:54:44Z</time>
      </trkpt>
      <trkpt lat="48.50593" lon="2.22549">
        <ele>69.7</ele>
        <time>2020-07-02T09:54:45Z</time>
      </trkpt>
      <trkpt lat="48.50589" lon="2.22546">
        <ele>69.7</ele>
        <time>2020-07-02T09:54:46Z</time>
      </trkpt>
      <trkpt lat="48.50585" lon="2.22543">
        <ele>69.7</ele>
        <time>2020-07-02T09:54:47Z</time>
      </trkpt>
      <trkpt lat="48.5058" lon="2.2254">
        <ele>69.7</ele>
        <time>2020-07-02T09:54:48Z</time>
      </trkpt>
      <trkpt lat="48.50576" lon="2.22536">
        <ele>69.7</ele>
        <time>2020-07-02T09:54:49Z</time>
      </trkpt>
      <trkpt lat="48.50572" lon="2.22533">
        <ele>69.7</ele>
        <time>2020-07-02T09:54:50Z</time>
      </trkpt>
      <trkpt lat="48.50568" lon="2.2253">
        <ele>69.7</ele>
        <time>2020-07-02T09:54:51Z</time>
      </trkpt>
      <trkpt lat="48.50564" lon="2.22527">
        <ele>69.7</ele>
        <time>2020-07-02T09:54:52Z</time>
      </trkpt>
      <trkpt lat="48.5056" lon="2.22526">
        <ele>69.7</ele>
        <time>2020-07-02T09:54:53Z</time>
      </trkpt>
      <trkpt lat="48.50558" lon="2.22525">
        <ele>69.7</ele>
        <time>2020-07-02T09:54:54Z</time>
      </trkpt>
      <trkpt lat="48.50555" lon="2.22523">
        <ele>69.6</ele>
        <time>2020-07-02T09:54:55Z</time>
      </trkpt>
      <trkpt lat="48.50551" lon="2.2252">
        <ele>69.6</ele>
        <time>2020-07-02T09:54:56Z</time>
      </trkpt>
      <trkpt lat="48.50547" lon="2.22518">
        <ele>69.6</ele>
        <time>2020-07-02T09:54:57Z</time>
      </trkpt>
      <trkpt lat="48.50542" lon="2.22515">
        <ele>69.5</ele>
        <time>2020-07-02T09:54:58Z</time>
      </trkpt>
      <trkpt lat="48.50538" lon="2.22512">
        <ele>69.5</ele>
        <time>2020-07-02T09:54:59Z</time>
      </trkpt>
      <trkpt lat="48.50534" lon="2.22509">
        <ele>69.5</ele>
        <time>2020-07-02T09:55:00Z</time>
      </trkpt>
      <trkpt lat="48.5053" lon="2.22505">
        <ele>69.4</ele>
        <time>2020-07-02T09:55:01Z</time>
      </trkpt>
      <trkpt lat="48.50525" lon="2.22502">
        <ele>69.4</ele>
        <time>2020-07-02T09:55:02Z</time>
      </trkpt>
      <trkpt lat="48.50519" lon="2.22498">
        <ele>69.4</ele>
        <time>2020-07-02T09:55:03Z</time>
      </trkpt>
      <trkpt lat="48.50514" lon="2.22494">
        <ele>69.3</ele>
        <time>2020-07-02T09:55:04Z</time>
      </trkpt>
      <trkpt lat="48.5051" lon="2.22491">
        <ele>69.3</ele>
        <time>2020-07-02T09:55:05Z</time>
      </trkpt>
      <trkpt lat="48.50505" lon="2.22487">
        <ele>69.2</ele>
        <time>2020-07-02T09:55:06Z</time>
      </trkpt>
      <trkpt lat="48.50501" lon="2.22485">
        <ele>69.2</ele>
        <time>2020-07-02T09:55:07Z</time>
      </trkpt>
      <trkpt lat="48.50497" lon="2.22482">
        <ele>69.1</ele>
        <time>2020-07-02T09:55:08Z</time>
      </trkpt>
      <trkpt lat="48.50493" lon="2.22478">
        <ele>69.1</ele>
        <time>2020-07-02T09:55:09Z</time>
      </trkpt>
      <trkpt lat="48.50489" lon="2.22473">
        <ele>69.1</ele>
        <time>2020-07-02T09:55:10Z</time>
      </trkpt>
      <trkpt lat="48.50484" lon="2.22468">
        <ele>69</ele>
        <time>2020-07-02T09:55:11Z</time>
      </trkpt>
      <trkpt lat="48.50479" lon="2.22463">
        <ele>69</ele>
        <time>2020-07-02T09:55:12Z</time>
      </trkpt>
      <trkpt lat="48.50475" lon="2.22459">
        <ele>68.9</ele>
        <time>2020-07-02T09:55:13Z</time>
      </trkpt>
      <trkpt lat="48.50469" lon="2.22454">
        <ele>68.8</ele>
        <time>2020-07-02T09:55:14Z</time>
      </trkpt>
      <trkpt lat="48.50464" lon="2.22448">
        <ele>68.7</ele>
        <time>2020-07-02T09:55:15Z</time>
      </trkpt>
      <trkpt lat="48.50459" lon="2.22442">
        <ele>68.5</ele>
        <time>2020-07-02T09:55:16Z</time>
      </trkpt>
      <trkpt lat="48.50455" lon="2.22436">
        <ele>68.4</ele>
        <time>2020-07-02T09:55:17Z</time>
      </trkpt>
      <trkpt lat="48.50451" lon="2.22431">
        <ele>68.2</ele>
        <time>2020-07-02T09:55:18Z</time>
      </trkpt>
      <trkpt lat="48.50446" lon="2.22426">
        <ele>68.1</ele>
        <time>2020-07-02T09:55:19Z</time>
      </trkpt>
      <trkpt lat="48.50442" lon="2.2242">
        <ele>67.9</ele>
        <time>2020-07-02T09:55:20Z</time>
      </trkpt>
      <trkpt lat="48.50437" lon="2.22415">
        <ele>67.8</ele>
        <time>2020-07-02T09:55:21Z</time>
      </trkpt>
      <trkpt lat="48.50433" lon="2.22409">
        <ele>67.6</ele>
        <time>2020-07-02T09:55:22Z</time>
      </trkpt>
      <trkpt lat="48.50429" lon="2.22402">
        <ele>67.4</ele>
        <time>2020-07-02T09:55:23Z</time>
      </trkpt>
      <trkpt lat="48.50425" lon="2.22395">
        <ele>67</ele>
        <time>2020-07-02T09:55:24Z</time>
      </trkpt>
      <trkpt lat="48.5042" lon="2.2239">
        <ele>67</ele>
        <time>2020-07-02T09:55:25Z</time>
      </trkpt>
      <trkpt lat="48.50415" lon="2.22384">
        <ele>66.7</ele>
        <time>2020-07-02T09:55:26Z</time>
      </trkpt>
      <trkpt lat="48.50411" lon="2.22379">
        <ele>66.5</ele>
        <time>2020-07-02T09:55:27Z</time>
      </trkpt>
      <trkpt lat="48.50407" lon="2.22374">
        <ele>66.2</ele>
        <time>2020-07-02T09:55:28Z</time>
      </trkpt>
      <trkpt lat="48.50403" lon="2.22369">
        <ele>66</ele>
        <time>2020-07-02T09:55:29Z</time>
      </trkpt>
      <trkpt lat="48.504" lon="2.22364">
        <ele>65.9</ele>
        <time>2020-07-02T09:55:30Z</time>
      </trkpt>
      <trkpt lat="48.50396" lon="2.22359">
        <ele>65.7</ele>
        <time>2020-07-02T09:55:31Z</time>
      </trkpt>
      <trkpt lat="48.50392" lon="2.22353">
        <ele>65.5</ele>
        <time>2020-07-02T09:55:32Z</time>
      </trkpt>
      <trkpt lat="48.50387" lon="2.22349">
        <ele>65.3</ele>
        <time>2020-07-02T09:55:33Z</time>
      </trkpt>
      <trkpt lat="48.50382" lon="2.22343">
        <ele>65</ele>
        <time>2020-07-02T09:55:34Z</time>
      </trkpt>
      <trkpt lat="48.50377" lon="2.22338">
        <ele>64.8</ele>
        <time>2020-07-02T09:55:35Z</time>
      </trkpt>
      <trkpt lat="48.50373" lon="2.22335">
        <ele>64.7</ele>
        <time>2020-07-02T09:55:36Z</time>
      </trkpt>
      <trkpt lat="48.50369" lon="2.22329">
        <ele>64.4</ele>
        <time>2020-07-02T09:55:37Z</time>
      </trkpt>
      <trkpt lat="48.50365" lon="2.22322">
        <ele>64.2</ele>
        <time>2020-07-02T09:55:38Z</time>
      </trkpt>
      <trkpt lat="48.5036" lon="2.22316">
        <ele>64</ele>
        <time>2020-07-02T09:55:39Z</time>
      </trkpt>
      <trkpt lat="48.50356" lon="2.22311">
        <ele>63.8</ele>
        <time>2020-07-02T09:55:40Z</time>
      </trkpt>
      <trkpt lat="48.50351" lon="2.22305">
        <ele>63.6</ele>
        <time>2020-07-02T09:55:41Z</time>
      </trkpt>
      <trkpt lat="48.50346" lon="2.22299">
        <ele>63.4</ele>
        <time>2020-07-02T09:55:42Z</time>
      </trkpt>
      <trkpt lat="48.50342" lon="2.22292">
        <ele>63.3</ele>
        <time>2020-07-02T09:55:43Z</time>
      </trkpt>
      <trkpt lat="48.50338" lon="2.22287">
        <ele>63.2</ele>
        <time>2020-07-02T09:55:44Z</time>
      </trkpt>
      <trkpt lat="48.50333" lon="2.22282">
        <ele>63.1</ele>
        <time>2020-07-02T09:55:45Z</time>
      </trkpt>
      <trkpt lat="48.50328" lon="2.22276">
        <ele>63</ele>
        <time>2020-07-02T09:55:46Z</time>
      </trkpt>
      <trkpt lat="48.50323" lon="2.22271">
        <ele>62.9</ele>
        <time>2020-07-02T09:55:47Z</time>
      </trkpt>
      <trkpt lat="48.50318" lon="2.22265">
        <ele>62.8</ele>
        <time>2020-07-02T09:55:48Z</time>
      </trkpt>
      <trkpt lat="48.50314" lon="2.22259">
        <ele>62.8</ele>
        <time>2020-07-02T09:55:49Z</time>
      </trkpt>
      <trkpt lat="48.5031" lon="2.22254">
        <ele>62.8</ele>
        <time>2020-07-02T09:55:50Z</time>
      </trkpt>
      <trkpt lat="48.50305" lon="2.2225">
        <ele>62.8</ele>
        <time>2020-07-02T09:55:51Z</time>
      </trkpt>
      <trkpt lat="48.50302" lon="2.22244">
        <ele>62.7</ele>
        <time>2020-07-02T09:55:52Z</time>
      </trkpt>
      <trkpt lat="48.50298" lon="2.2224">
        <ele>62.7</ele>
        <time>2020-07-02T09:55:53Z</time>
      </trkpt>
      <trkpt lat="48.50295" lon="2.22236">
        <ele>62.7</ele>
        <time>2020-07-02T09:55:54Z</time>
      </trkpt>
      <trkpt lat="48.50292" lon="2.22231">
        <ele>62.7</ele>
        <time>2020-07-02T09:55:55Z</time>
      </trkpt>
      <trkpt lat="48.50289" lon="2.22227">
        <ele>62.7</ele>
        <time>2020-07-02T09:55:56Z</time>
      </trkpt>
      <trkpt lat="48.50285" lon="2.22222">
        <ele>62.6</ele>
        <time>2020-07-02T09:55:57Z</time>
      </trkpt>
      <trkpt lat="48.50282" lon="2.22218">
        <ele>62.6</ele>
        <time>2020-07-02T09:55:58Z</time>
      </trkpt>
      <trkpt lat="48.50276" lon="2.22213">
        <ele>62.6</ele>
        <time>2020-07-02T09:55:59Z</time>
      </trkpt>
      <trkpt lat="48.50271" lon="2.22208">
        <ele>62.5</ele>
        <time>2020-07-02T09:56:00Z</time>
      </trkpt>
      <trkpt lat="48.50266" lon="2.22204">
        <ele>62.4</ele>
        <time>2020-07-02T09:56:01Z</time>
      </trkpt>
      <trkpt lat="48.50261" lon="2.22201">
        <ele>62.4</ele>
        <time>2020-07-02T09:56:02Z</time>
      </trkpt>
      <trkpt lat="48.50257" lon="2.22198">
        <ele>62.4</ele>
        <time>2020-07-02T09:56:03Z</time>
      </trkpt>
      <trkpt lat="48.50254" lon="2.22195">
        <ele>62.3</ele>
        <time>2020-07-02T09:56:04Z</time>
      </trkpt>
      <trkpt lat="48.50252" lon="2.22192">
        <ele>62.3</ele>
        <time>2020-07-02T09:56:05Z</time>
      </trkpt>
      <trkpt lat="48.5025" lon="2.22191">
        <ele>62.3</ele>
        <time>2020-07-02T09:56:06Z</time>
      </trkpt>
      <trkpt lat="48.50249" lon="2.22193">
        <ele>62.3</ele>
        <time>2020-07-02T09:56:07Z</time>
      </trkpt>
      <trkpt lat="48.5025" lon="2.22196">
        <ele>62.3</ele>
        <time>2020-07-02T09:56:08Z</time>
      </trkpt>
      <trkpt lat="48.5025" lon="2.22198">
        <ele>62.3</ele>
        <time>2020-07-02T09:56:09Z</time>
      </trkpt>
      <trkpt lat="48.50253" lon="2.22199">
        <ele>62.3</ele>
        <time>2020-07-02T09:56:10Z</time>
      </trkpt>
      <trkpt lat="48.50254" lon="2.222">
        <ele>62.3</ele>
        <time>2020-07-02T09:56:11Z</time>
      </trkpt>
      <trkpt lat="48.50257" lon="2.22201">
        <ele>62.3</ele>
        <time>2020-07-02T09:56:12Z</time>
      </trkpt>
      <trkpt lat="48.50262" lon="2.22203">
        <ele>62.3</ele>
        <time>2020-07-02T09:56:13Z</time>
      </trkpt>
      <trkpt lat="48.50266" lon="2.22206">
        <ele>62.3</ele>
        <time>2020-07-02T09:56:14Z</time>
      </trkpt>
      <trkpt lat="48.50271" lon="2.22211">
        <ele>62.4</ele>
        <time>2020-07-02T09:56:15Z</time>
      </trkpt>
      <trkpt lat="48.50275" lon="2.22215">
        <ele>62.5</ele>
        <time>2020-07-02T09:56:16Z</time>
      </trkpt>
      <trkpt lat="48.50279" lon="2.22218">
        <ele>62.5</ele>
        <time>2020-07-02T09:56:17Z</time>
      </trkpt>
      <trkpt lat="48.50282" lon="2.2222">
        <ele>62.6</ele>
        <time>2020-07-02T09:56:18Z</time>
      </trkpt>
      <trkpt lat="48.50285" lon="2.22225">
        <ele>62.6</ele>
        <time>2020-07-02T09:56:19Z</time>
      </trkpt>
      <trkpt lat="48.50288" lon="2.22227">
        <ele>62.6</ele>
        <time>2020-07-02T09:56:20Z</time>
      </trkpt>
      <trkpt lat="48.5029" lon="2.22232">
        <ele>62.7</ele>
        <time>2020-07-02T09:56:21Z</time>
      </trkpt>
      <trkpt lat="48.50293" lon="2.22236">
        <ele>62.7</ele>
        <time>2020-07-02T09:56:22Z</time>
      </trkpt>
      <trkpt lat="48.50297" lon="2.2224">
        <ele>62.7</ele>
        <time>2020-07-02T09:56:23Z</time>
      </trkpt>
      <trkpt lat="48.50299" lon="2.22245">
        <ele>62.7</ele>
        <time>2020-07-02T09:56:24Z</time>
      </trkpt>
      <trkpt lat="48.50298" lon="2.2225">
        <ele>63</ele>
        <time>2020-07-02T09:56:25Z</time>
      </trkpt>
      <trkpt lat="48.50295" lon="2.22254">
        <ele>63.2</ele>
        <time>2020-07-02T09:56:26Z</time>
      </trkpt>
      <trkpt lat="48.50293" lon="2.22259">
        <ele>63.3</ele>
        <time>2020-07-02T09:56:27Z</time>
      </trkpt>
      <trkpt lat="48.50291" lon="2.22263">
        <ele>63.5</ele>
        <time>2020-07-02T09:56:28Z</time>
      </trkpt>
      <trkpt lat="48.50288" lon="2.22268">
        <ele>63.7</ele>
        <time>2020-07-02T09:56:29Z</time>
      </trkpt>
      <trkpt lat="48.50286" lon="2.22272">
        <ele>63.8</ele>
        <time>2020-07-02T09:56:30Z</time>
      </trkpt>
      <trkpt lat="48.50284" lon="2.22276">
        <ele>64</ele>
        <time>2020-07-02T09:56:31Z</time>
      </trkpt>
      <trkpt lat="48.50282" lon="2.22281">
        <ele>64.2</ele>
        <time>2020-07-02T09:56:32Z</time>
      </trkpt>
      <trkpt lat="48.5028" lon="2.22286">
        <ele>64.4</ele>
        <time>2020-07-02T09:56:33Z</time>
      </trkpt>
      <trkpt lat="48.50278" lon="2.2229">
        <ele>64.5</ele>
        <time>2020-07-02T09:56:34Z</time>
      </trkpt>
      <trkpt lat="48.50276" lon="2.22294">
        <ele>64.7</ele>
        <time>2020-07-02T09:56:35Z</time>
      </trkpt>
      <trkpt lat="48.50274" lon="2.22299">
        <ele>64.9</ele>
        <time>2020-07-02T09:56:36Z</time>
      </trkpt>
      <trkpt lat="48.50272" lon="2.22303">
        <ele>65.1</ele>
        <time>2020-07-02T09:56:37Z</time>
      </trkpt>
      <trkpt lat="48.5027" lon="2.22308">
        <ele>65.3</ele>
        <time>2020-07-02T09:56:38Z</time>
      </trkpt>
      <trkpt lat="48.50268" lon="2.22313">
        <ele>65.5</ele>
        <time>2020-07-02T09:56:39Z</time>
      </trkpt>
      <trkpt lat="48.50266" lon="2.22317">
        <ele>65.6</ele>
        <time>2020-07-02T09:56:40Z</time>
      </trkpt>
      <trkpt lat="48.50263" lon="2.22322">
        <ele>65.8</ele>
        <time>2020-07-02T09:56:41Z</time>
      </trkpt>
      <trkpt lat="48.50261" lon="2.22325">
        <ele>65.9</ele>
        <time>2020-07-02T09:56:42Z</time>
      </trkpt>
      <trkpt lat="48.50259" lon="2.22327">
        <ele>66.2</ele>
        <time>2020-07-02T09:56:43Z</time>
      </trkpt>
      <trkpt lat="48.50255" lon="2.22329">
        <ele>66.3</ele>
        <time>2020-07-02T09:56:44Z</time>
      </trkpt>
      <trkpt lat="48.50252" lon="2.22331">
        <ele>66.4</ele>
        <time>2020-07-02T09:56:45Z</time>
      </trkpt>
      <trkpt lat="48.50249" lon="2.22331">
        <ele>66.5</ele>
        <time>2020-07-02T09:56:46Z</time>
      </trkpt>
      <trkpt lat="48.50245" lon="2.22332">
        <ele>66.6</ele>
        <time>2020-07-02T09:56:47Z</time>
      </trkpt>
      <trkpt lat="48.50241" lon="2.22332">
        <ele>66.7</ele>
        <time>2020-07-02T09:56:48Z</time>
      </trkpt>
      <trkpt lat="48.50238" lon="2.22333">
        <ele>66.8</ele>
        <time>2020-07-02T09:56:49Z</time>
      </trkpt>
      <trkpt lat="48.50234" lon="2.22334">
        <ele>66.9</ele>
        <time>2020-07-02T09:56:50Z</time>
      </trkpt>
      <trkpt lat="48.50231" lon="2.22336">
        <ele>66.9</ele>
        <time>2020-07-02T09:56:51Z</time>
      </trkpt>
      <trkpt lat="48.50227" lon="2.22337">
        <ele>67</ele>
        <time>2020-07-02T09:56:52Z</time>
      </trkpt>
      <trkpt lat="48.50222" lon="2.22338">
        <ele>67</ele>
        <time>2020-07-02T09:56:53Z</time>
      </trkpt>
      <trkpt lat="48.50217" lon="2.2234">
        <ele>67.1</ele>
        <time>2020-07-02T09:56:54Z</time>
      </trkpt>
      <trkpt lat="48.50212" lon="2.2234">
        <ele>67.2</ele>
        <time>2020-07-02T09:56:55Z</time>
      </trkpt>
      <trkpt lat="48.50207" lon="2.22341">
        <ele>67.2</ele>
        <time>2020-07-02T09:56:56Z</time>
      </trkpt>
      <trkpt lat="48.50202" lon="2.22342">
        <ele>67.3</ele>
        <time>2020-07-02T09:56:57Z</time>
      </trkpt>
      <trkpt lat="48.50197" lon="2.22344">
        <ele>67.3</ele>
        <time>2020-07-02T09:56:58Z</time>
      </trkpt>
      <trkpt lat="48.50192" lon="2.22347">
        <ele>67.4</ele>
        <time>2020-07-02T09:56:59Z</time>
      </trkpt>
      <trkpt lat="48.50187" lon="2.22349">
        <ele>67.5</ele>
        <time>2020-07-02T09:57:00Z</time>
      </trkpt>
      <trkpt lat="48.50182" lon="2.2235">
        <ele>67.6</ele>
        <time>2020-07-02T09:57:01Z</time>
      </trkpt>
      <trkpt lat="48.50178" lon="2.22352">
        <ele>67.7</ele>
        <time>2020-07-02T09:57:02Z</time>
      </trkpt>
      <trkpt lat="48.50173" lon="2.22354">
        <ele>67.8</ele>
        <time>2020-07-02T09:57:03Z</time>
      </trkpt>
      <trkpt lat="48.50169" lon="2.22356">
        <ele>67.9</ele>
        <time>2020-07-02T09:57:04Z</time>
      </trkpt>
      <trkpt lat="48.50165" lon="2.22357">
        <ele>67.9</ele>
        <time>2020-07-02T09:57:05Z</time>
      </trkpt>
      <trkpt lat="48.50161" lon="2.22359">
        <ele>68</ele>
        <time>2020-07-02T09:57:06Z</time>
      </trkpt>
      <trkpt lat="48.50156" lon="2.22362">
        <ele>68.1</ele>
        <time>2020-07-02T09:57:07Z</time>
      </trkpt>
      <trkpt lat="48.50151" lon="2.22363">
        <ele>68.3</ele>
        <time>2020-07-02T09:57:08Z</time>
      </trkpt>
      <trkpt lat="48.50147" lon="2.22365">
        <ele>68.4</ele>
        <time>2020-07-02T09:57:09Z</time>
      </trkpt>
      <trkpt lat="48.50142" lon="2.22366">
        <ele>68.5</ele>
        <time>2020-07-02T09:57:10Z</time>
      </trkpt>
      <trkpt lat="48.50137" lon="2.22367">
        <ele>68.6</ele>
        <time>2020-07-02T09:57:11Z</time>
      </trkpt>
      <trkpt lat="48.50132" lon="2.2237">
        <ele>68.7</ele>
        <time>2020-07-02T09:57:12Z</time>
      </trkpt>
      <trkpt lat="48.50127" lon="2.22372">
        <ele>68.8</ele>
        <time>2020-07-02T09:57:13Z</time>
      </trkpt>
      <trkpt lat="48.50122" lon="2.22372">
        <ele>68.9</ele>
        <time>2020-07-02T09:57:14Z</time>
      </trkpt>
      <trkpt lat="48.50117" lon="2.22373">
        <ele>69</ele>
        <time>2020-07-02T09:57:15Z</time>
      </trkpt>
      <trkpt lat="48.50112" lon="2.22375">
        <ele>69.1</ele>
        <time>2020-07-02T09:57:16Z</time>
      </trkpt>
      <trkpt lat="48.50107" lon="2.22377">
        <ele>69.2</ele>
        <time>2020-07-02T09:57:17Z</time>
      </trkpt>
      <trkpt lat="48.50102" lon="2.22379">
        <ele>69.4</ele>
        <time>2020-07-02T09:57:18Z</time>
      </trkpt>
      <trkpt lat="48.50097" lon="2.2238">
        <ele>69.4</ele>
        <time>2020-07-02T09:57:19Z</time>
      </trkpt>
      <trkpt lat="48.50092" lon="2.22381">
        <ele>69.5</ele>
        <time>2020-07-02T09:57:20Z</time>
      </trkpt>
      <trkpt lat="48.50087" lon="2.22382">
        <ele>69.6</ele>
        <time>2020-07-02T09:57:21Z</time>
      </trkpt>
      <trkpt lat="48.50083" lon="2.22384">
        <ele>69.6</ele>
        <time>2020-07-02T09:57:22Z</time>
      </trkpt>
      <trkpt lat="48.50078" lon="2.22385">
        <ele>69.7</ele>
        <time>2020-07-02T09:57:23Z</time>
      </trkpt>
      <trkpt lat="48.50073" lon="2.22385">
        <ele>69.8</ele>
        <time>2020-07-02T09:57:24Z</time>
      </trkpt>
      <trkpt lat="48.50068" lon="2.22386">
        <ele>69.9</ele>
        <time>2020-07-02T09:57:25Z</time>
      </trkpt>
      <trkpt lat="48.50063" lon="2.22387">
        <ele>69.9</ele>
        <time>2020-07-02T09:57:26Z</time>
      </trkpt>
      <trkpt lat="48.50058" lon="2.22387">
        <ele>70</ele>
        <time>2020-07-02T09:57:27Z</time>
      </trkpt>
      <trkpt lat="48.50053" lon="2.22387">
        <ele>70.1</ele>
        <time>2020-07-02T09:57:28Z</time>
      </trkpt>
      <trkpt lat="48.50048" lon="2.22388">
        <ele>70.2</ele>
        <time>2020-07-02T09:57:29Z</time>
      </trkpt>
      <trkpt lat="48.50043" lon="2.22389">
        <ele>70.2</ele>
        <time>2020-07-02T09:57:30Z</time>
      </trkpt>
      <trkpt lat="48.50038" lon="2.22391">
        <ele>70.3</ele>
        <time>2020-07-02T09:57:31Z</time>
      </trkpt>
      <trkpt lat="48.50033" lon="2.22392">
        <ele>70.4</ele>
        <time>2020-07-02T09:57:32Z</time>
      </trkpt>
      <trkpt lat="48.50028" lon="2.22392">
        <ele>70.4</ele>
        <time>2020-07-02T09:57:33Z</time>
      </trkpt>
      <trkpt lat="48.50024" lon="2.22393">
        <ele>70.5</ele>
        <time>2020-07-02T09:57:34Z</time>
      </trkpt>
      <trkpt lat="48.50019" lon="2.22393">
        <ele>70.5</ele>
        <time>2020-07-02T09:57:35Z</time>
      </trkpt>
      <trkpt lat="48.50014" lon="2.22393">
        <ele>70.5</ele>
        <time>2020-07-02T09:57:36Z</time>
      </trkpt>
      <trkpt lat="48.50009" lon="2.22393">
        <ele>70.6</ele>
        <time>2020-07-02T09:57:37Z</time>
      </trkpt>
      <trkpt lat="48.50004" lon="2.22392">
        <ele>70.6</ele>
        <time>2020-07-02T09:57:38Z</time>
      </trkpt>
      <trkpt lat="48.49998" lon="2.22393">
        <ele>70.7</ele>
        <time>2020-07-02T09:57:39Z</time>
      </trkpt>
      <trkpt lat="48.49993" lon="2.22394">
        <ele>70.8</ele>
        <time>2020-07-02T09:57:40Z</time>
      </trkpt>
      <trkpt lat="48.49987" lon="2.22394">
        <ele>70.8</ele>
        <time>2020-07-02T09:57:41Z</time>
      </trkpt>
      <trkpt lat="48.49982" lon="2.22394">
        <ele>70.9</ele>
        <time>2020-07-02T09:57:42Z</time>
      </trkpt>
      <trkpt lat="48.49977" lon="2.22394">
        <ele>71</ele>
        <time>2020-07-02T09:57:43Z</time>
      </trkpt>
      <trkpt lat="48.49972" lon="2.22394">
        <ele>71</ele>
        <time>2020-07-02T09:57:44Z</time>
      </trkpt>
      <trkpt lat="48.49967" lon="2.22394">
        <ele>71.1</ele>
        <time>2020-07-02T09:57:45Z</time>
      </trkpt>
      <trkpt lat="48.49962" lon="2.22394">
        <ele>71.1</ele>
        <time>2020-07-02T09:57:46Z</time>
      </trkpt>
      <trkpt lat="48.49957" lon="2.22395">
        <ele>71.2</ele>
        <time>2020-07-02T09:57:47Z</time>
      </trkpt>
      <trkpt lat="48.49952" lon="2.22396">
        <ele>71.2</ele>
        <time>2020-07-02T09:57:48Z</time>
      </trkpt>
      <trkpt lat="48.49946" lon="2.22397">
        <ele>71.3</ele>
        <time>2020-07-02T09:57:49Z</time>
      </trkpt>
      <trkpt lat="48.4994" lon="2.22398">
        <ele>71.3</ele>
        <time>2020-07-02T09:57:50Z</time>
      </trkpt>
      <trkpt lat="48.49933" lon="2.224">
        <ele>71.4</ele>
        <time>2020-07-02T09:57:51Z</time>
      </trkpt>
      <trkpt lat="48.49927" lon="2.22401">
        <ele>71.5</ele>
        <time>2020-07-02T09:57:52Z</time>
      </trkpt>
      <trkpt lat="48.49923" lon="2.224">
        <ele>71.6</ele>
        <time>2020-07-02T09:57:53Z</time>
      </trkpt>
      <trkpt lat="48.49917" lon="2.22399">
        <ele>71.6</ele>
        <time>2020-07-02T09:57:54Z</time>
      </trkpt>
      <trkpt lat="48.49911" lon="2.22398">
        <ele>71.7</ele>
        <time>2020-07-02T09:57:55Z</time>
      </trkpt>
      <trkpt lat="48.49906" lon="2.22398">
        <ele>71.7</ele>
        <time>2020-07-02T09:57:56Z</time>
      </trkpt>
      <trkpt lat="48.499" lon="2.22398">
        <ele>71.8</ele>
        <time>2020-07-02T09:57:57Z</time>
      </trkpt>
      <trkpt lat="48.49895" lon="2.22398">
        <ele>71.8</ele>
        <time>2020-07-02T09:57:58Z</time>
      </trkpt>
      <trkpt lat="48.49889" lon="2.22397">
        <ele>71.9</ele>
        <time>2020-07-02T09:57:59Z</time>
      </trkpt>
      <trkpt lat="48.49883" lon="2.22398">
        <ele>72</ele>
        <time>2020-07-02T09:58:00Z</time>
      </trkpt>
      <trkpt lat="48.49877" lon="2.22398">
        <ele>72</ele>
        <time>2020-07-02T09:58:01Z</time>
      </trkpt>
      <trkpt lat="48.49872" lon="2.22399">
        <ele>72.1</ele>
        <time>2020-07-02T09:58:02Z</time>
      </trkpt>
      <trkpt lat="48.49867" lon="2.224">
        <ele>72.1</ele>
        <time>2020-07-02T09:58:03Z</time>
      </trkpt>
      <trkpt lat="48.49861" lon="2.22401">
        <ele>72.2</ele>
        <time>2020-07-02T09:58:04Z</time>
      </trkpt>
      <trkpt lat="48.49855" lon="2.22402">
        <ele>72.3</ele>
        <time>2020-07-02T09:58:05Z</time>
      </trkpt>
      <trkpt lat="48.4985" lon="2.22402">
        <ele>72.3</ele>
        <time>2020-07-02T09:58:06Z</time>
      </trkpt>
      <trkpt lat="48.49844" lon="2.22404">
        <ele>72.4</ele>
        <time>2020-07-02T09:58:07Z</time>
      </trkpt>
      <trkpt lat="48.49839" lon="2.22406">
        <ele>72.5</ele>
        <time>2020-07-02T09:58:08Z</time>
      </trkpt>
      <trkpt lat="48.49836" lon="2.22404">
        <ele>72.5</ele>
        <time>2020-07-02T09:58:09Z</time>
      </trkpt>
      <trkpt lat="48.49832" lon="2.22404">
        <ele>72.6</ele>
        <time>2020-07-02T09:58:10Z</time>
      </trkpt>
      <trkpt lat="48.49828" lon="2.22403">
        <ele>72.5</ele>
        <time>2020-07-02T09:58:11Z</time>
      </trkpt>
      <trkpt lat="48.49823" lon="2.224">
        <ele>72.5</ele>
        <time>2020-07-02T09:58:12Z</time>
      </trkpt>
      <trkpt lat="48.49817" lon="2.22398">
        <ele>72.3</ele>
        <time>2020-07-02T09:58:13Z</time>
      </trkpt>
      <trkpt lat="48.49812" lon="2.22397">
        <ele>72.1</ele>
        <time>2020-07-02T09:58:14Z</time>
      </trkpt>
      <trkpt lat="48.49807" lon="2.22397">
        <ele>71.9</ele>
        <time>2020-07-02T09:58:15Z</time>
      </trkpt>
      <trkpt lat="48.49803" lon="2.22396">
        <ele>71.6</ele>
        <time>2020-07-02T09:58:16Z</time>
      </trkpt>
      <trkpt lat="48.49798" lon="2.22394">
        <ele>71.5</ele>
        <time>2020-07-02T09:58:17Z</time>
      </trkpt>
      <trkpt lat="48.49793" lon="2.22392">
        <ele>71.4</ele>
        <time>2020-07-02T09:58:18Z</time>
      </trkpt>
      <trkpt lat="48.49788" lon="2.22387">
        <ele>71.3</ele>
        <time>2020-07-02T09:58:19Z</time>
      </trkpt>
      <trkpt lat="48.49783" lon="2.22382">
        <ele>71.2</ele>
        <time>2020-07-02T09:58:20Z</time>
      </trkpt>
      <trkpt lat="48.49777" lon="2.22376">
        <ele>71</ele>
        <time>2020-07-02T09:58:21Z</time>
      </trkpt>
      <trkpt lat="48.49772" lon="2.2237">
        <ele>70.9</ele>
        <time>2020-07-02T09:58:22Z</time>
      </trkpt>
      <trkpt lat="48.49766" lon="2.22365">
        <ele>70.8</ele>
        <time>2020-07-02T09:58:23Z</time>
      </trkpt>
      <trkpt lat="48.49761" lon="2.22359">
        <ele>70.7</ele>
        <time>2020-07-02T09:58:24Z</time>
      </trkpt>
      <trkpt lat="48.49757" lon="2.22355">
        <ele>70.6</ele>
        <time>2020-07-02T09:58:25Z</time>
      </trkpt>
      <trkpt lat="48.49752" lon="2.22351">
        <ele>70.6</ele>
        <time>2020-07-02T09:58:26Z</time>
      </trkpt>
      <trkpt lat="48.49746" lon="2.22347">
        <ele>70.5</ele>
        <time>2020-07-02T09:58:27Z</time>
      </trkpt>
      <trkpt lat="48.4974" lon="2.22342">
        <ele>70.4</ele>
        <time>2020-07-02T09:58:28Z</time>
      </trkpt>
      <trkpt lat="48.49735" lon="2.22338">
        <ele>70.3</ele>
        <time>2020-07-02T09:58:29Z</time>
      </trkpt>
      <trkpt lat="48.49729" lon="2.22334">
        <ele>70.3</ele>
        <time>2020-07-02T09:58:30Z</time>
      </trkpt>
      <trkpt lat="48.49723" lon="2.22329">
        <ele>70.2</ele>
        <time>2020-07-02T09:58:31Z</time>
      </trkpt>
      <trkpt lat="48.49717" lon="2.22324">
        <ele>70.1</ele>
        <time>2020-07-02T09:58:32Z</time>
      </trkpt>
      <trkpt lat="48.49711" lon="2.22319">
        <ele>70</ele>
        <time>2020-07-02T09:58:33Z</time>
      </trkpt>
      <trkpt lat="48.49705" lon="2.22315">
        <ele>70</ele>
        <time>2020-07-02T09:58:34Z</time>
      </trkpt>
      <trkpt lat="48.49699" lon="2.22311">
        <ele>69.9</ele>
        <time>2020-07-02T09:58:35Z</time>
      </trkpt>
      <trkpt lat="48.49694" lon="2.22307">
        <ele>69.8</ele>
        <time>2020-07-02T09:58:36Z</time>
      </trkpt>
      <trkpt lat="48.49688" lon="2.22303">
        <ele>69.7</ele>
        <time>2020-07-02T09:58:37Z</time>
      </trkpt>
      <trkpt lat="48.49682" lon="2.22299">
        <ele>69.7</ele>
        <time>2020-07-02T09:58:38Z</time>
      </trkpt>
      <trkpt lat="48.49676" lon="2.22295">
        <ele>69.6</ele>
        <time>2020-07-02T09:58:39Z</time>
      </trkpt>
      <trkpt lat="48.4967" lon="2.22289">
        <ele>69.5</ele>
        <time>2020-07-02T09:58:40Z</time>
      </trkpt>
      <trkpt lat="48.49664" lon="2.22284">
        <ele>69.4</ele>
        <time>2020-07-02T09:58:41Z</time>
      </trkpt>
      <trkpt lat="48.49658" lon="2.22279">
        <ele>69.3</ele>
        <time>2020-07-02T09:58:42Z</time>
      </trkpt>
      <trkpt lat="48.49652" lon="2.22273">
        <ele>69.3</ele>
        <time>2020-07-02T09:58:43Z</time>
      </trkpt>
      <trkpt lat="48.49646" lon="2.22269">
        <ele>69.2</ele>
        <time>2020-07-02T09:58:44Z</time>
      </trkpt>
      <trkpt lat="48.4964" lon="2.22264">
        <ele>69</ele>
        <time>2020-07-02T09:58:45Z</time>
      </trkpt>
      <trkpt lat="48.49634" lon="2.22258">
        <ele>68.9</ele>
        <time>2020-07-02T09:58:46Z</time>
      </trkpt>
      <trkpt lat="48.49628" lon="2.22254">
        <ele>68.8</ele>
        <time>2020-07-02T09:58:47Z</time>
      </trkpt>
      <trkpt lat="48.49622" lon="2.22249">
        <ele>68.8</ele>
        <time>2020-07-02T09:58:48Z</time>
      </trkpt>
      <trkpt lat="48.49616" lon="2.22244">
        <ele>68.7</ele>
        <time>2020-07-02T09:58:49Z</time>
      </trkpt>
      <trkpt lat="48.49611" lon="2.22241">
        <ele>68.6</ele>
        <time>2020-07-02T09:58:50Z</time>
      </trkpt>
      <trkpt lat="48.49605" lon="2.22237">
        <ele>68.5</ele>
        <time>2020-07-02T09:58:51Z</time>
      </trkpt>
      <trkpt lat="48.49599" lon="2.22232">
        <ele>68.4</ele>
        <time>2020-07-02T09:58:52Z</time>
      </trkpt>
      <trkpt lat="48.49593" lon="2.22228">
        <ele>68.3</ele>
        <time>2020-07-02T09:58:53Z</time>
      </trkpt>
      <trkpt lat="48.49587" lon="2.22223">
        <ele>68.2</ele>
        <time>2020-07-02T09:58:54Z</time>
      </trkpt>
      <trkpt lat="48.49581" lon="2.22219">
        <ele>68.2</ele>
        <time>2020-07-02T09:58:55Z</time>
      </trkpt>
      <trkpt lat="48.49575" lon="2.22215">
        <ele>68.1</ele>
        <time>2020-07-02T09:58:56Z</time>
      </trkpt>
      <trkpt lat="48.49569" lon="2.22209">
        <ele>68.1</ele>
        <time>2020-07-02T09:58:57Z</time>
      </trkpt>
      <trkpt lat="48.49564" lon="2.22204">
        <ele>68.2</ele>
        <time>2020-07-02T09:58:58Z</time>
      </trkpt>
      <trkpt lat="48.49558" lon="2.222">
        <ele>68.2</ele>
        <time>2020-07-02T09:58:59Z</time>
      </trkpt>
      <trkpt lat="48.49552" lon="2.22195">
        <ele>68.2</ele>
        <time>2020-07-02T09:59:00Z</time>
      </trkpt>
      <trkpt lat="48.49546" lon="2.2219">
        <ele>68.2</ele>
        <time>2020-07-02T09:59:01Z</time>
      </trkpt>
      <trkpt lat="48.4954" lon="2.22186">
        <ele>68.1</ele>
        <time>2020-07-02T09:59:02Z</time>
      </trkpt>
      <trkpt lat="48.49534" lon="2.2218">
        <ele>68</ele>
        <time>2020-07-02T09:59:03Z</time>
      </trkpt>
      <trkpt lat="48.49528" lon="2.22176">
        <ele>67.9</ele>
        <time>2020-07-02T09:59:04Z</time>
      </trkpt>
      <trkpt lat="48.49522" lon="2.22171">
        <ele>67.9</ele>
        <time>2020-07-02T09:59:05Z</time>
      </trkpt>
      <trkpt lat="48.49516" lon="2.22166">
        <ele>67.8</ele>
        <time>2020-07-02T09:59:06Z</time>
      </trkpt>
      <trkpt lat="48.49511" lon="2.22161">
        <ele>67.7</ele>
        <time>2020-07-02T09:59:07Z</time>
      </trkpt>
      <trkpt lat="48.49505" lon="2.22157">
        <ele>67.6</ele>
        <time>2020-07-02T09:59:08Z</time>
      </trkpt>
      <trkpt lat="48.49499" lon="2.22152">
        <ele>67.5</ele>
        <time>2020-07-02T09:59:09Z</time>
      </trkpt>
      <trkpt lat="48.49494" lon="2.22147">
        <ele>67.5</ele>
        <time>2020-07-02T09:59:10Z</time>
      </trkpt>
      <trkpt lat="48.49488" lon="2.22143">
        <ele>67.4</ele>
        <time>2020-07-02T09:59:11Z</time>
      </trkpt>
      <trkpt lat="48.49483" lon="2.22139">
        <ele>67.4</ele>
        <time>2020-07-02T09:59:12Z</time>
      </trkpt>
      <trkpt lat="48.49478" lon="2.22134">
        <ele>67.4</ele>
        <time>2020-07-02T09:59:13Z</time>
      </trkpt>
      <trkpt lat="48.49472" lon="2.2213">
        <ele>67.3</ele>
        <time>2020-07-02T09:59:14Z</time>
      </trkpt>
      <trkpt lat="48.49466" lon="2.22125">
        <ele>67.3</ele>
        <time>2020-07-02T09:59:15Z</time>
      </trkpt>
      <trkpt lat="48.49461" lon="2.22119">
        <ele>67.1</ele>
        <time>2020-07-02T09:59:16Z</time>
      </trkpt>
      <trkpt lat="48.49456" lon="2.22113">
        <ele>67</ele>
        <time>2020-07-02T09:59:17Z</time>
      </trkpt>
      <trkpt lat="48.49451" lon="2.22107">
        <ele>66.9</ele>
        <time>2020-07-02T09:59:18Z</time>
      </trkpt>
      <trkpt lat="48.49446" lon="2.22101">
        <ele>66.9</ele>
        <time>2020-07-02T09:59:19Z</time>
      </trkpt>
      <trkpt lat="48.49442" lon="2.22093">
        <ele>66.8</ele>
        <time>2020-07-02T09:59:20Z</time>
      </trkpt>
      <trkpt lat="48.49439" lon="2.22085">
        <ele>66.7</ele>
        <time>2020-07-02T09:59:21Z</time>
      </trkpt>
      <trkpt lat="48.49435" lon="2.22077">
        <ele>66.6</ele>
        <time>2020-07-02T09:59:22Z</time>
      </trkpt>
      <trkpt lat="48.49431" lon="2.2207">
        <ele>66.6</ele>
        <time>2020-07-02T09:59:23Z</time>
      </trkpt>
      <trkpt lat="48.49426" lon="2.22063">
        <ele>66.5</ele>
        <time>2020-07-02T09:59:24Z</time>
      </trkpt>
      <trkpt lat="48.49422" lon="2.22056">
        <ele>66.4</ele>
        <time>2020-07-02T09:59:25Z</time>
      </trkpt>
      <trkpt lat="48.49417" lon="2.2205">
        <ele>66.3</ele>
        <time>2020-07-02T09:59:26Z</time>
      </trkpt>
      <trkpt lat="48.49412" lon="2.22043">
        <ele>66.2</ele>
        <time>2020-07-02T09:59:27Z</time>
      </trkpt>
      <trkpt lat="48.49407" lon="2.22037">
        <ele>66.2</ele>
        <time>2020-07-02T09:59:28Z</time>
      </trkpt>
      <trkpt lat="48.49402" lon="2.22031">
        <ele>66.1</ele>
        <time>2020-07-02T09:59:29Z</time>
      </trkpt>
      <trkpt lat="48.49397" lon="2.22027">
        <ele>66</ele>
        <time>2020-07-02T09:59:30Z</time>
      </trkpt>
      <trkpt lat="48.49391" lon="2.22023">
        <ele>66</ele>
        <time>2020-07-02T09:59:31Z</time>
      </trkpt>
      <trkpt lat="48.49385" lon="2.22019">
        <ele>66</ele>
        <time>2020-07-02T09:59:32Z</time>
      </trkpt>
      <trkpt lat="48.4938" lon="2.22016">
        <ele>65.9</ele>
        <time>2020-07-02T09:59:33Z</time>
      </trkpt>
      <trkpt lat="48.49374" lon="2.22014">
        <ele>65.9</ele>
        <time>2020-07-02T09:59:34Z</time>
      </trkpt>
      <trkpt lat="48.49368" lon="2.22012">
        <ele>65.9</ele>
        <time>2020-07-02T09:59:35Z</time>
      </trkpt>
      <trkpt lat="48.49361" lon="2.2201">
        <ele>65.9</ele>
        <time>2020-07-02T09:59:36Z</time>
      </trkpt>
      <trkpt lat="48.49355" lon="2.22008">
        <ele>65.8</ele>
        <time>2020-07-02T09:59:37Z</time>
      </trkpt>
      <trkpt lat="48.49349" lon="2.22007">
        <ele>65.8</ele>
        <time>2020-07-02T09:59:38Z</time>
      </trkpt>
      <trkpt lat="48.49343" lon="2.22006">
        <ele>65.8</ele>
        <time>2020-07-02T09:59:39Z</time>
      </trkpt>
      <trkpt lat="48.49336" lon="2.22005">
        <ele>65.8</ele>
        <time>2020-07-02T09:59:40Z</time>
      </trkpt>
      <trkpt lat="48.4933" lon="2.22003">
        <ele>65.8</ele>
        <time>2020-07-02T09:59:41Z</time>
      </trkpt>
      <trkpt lat="48.49324" lon="2.22002">
        <ele>65.8</ele>
        <time>2020-07-02T09:59:42Z</time>
      </trkpt>
      <trkpt lat="48.49319" lon="2.22">
        <ele>65.8</ele>
        <time>2020-07-02T09:59:43Z</time>
      </trkpt>
      <trkpt lat="48.49313" lon="2.21998">
        <ele>65.7</ele>
        <time>2020-07-02T09:59:44Z</time>
      </trkpt>
      <trkpt lat="48.49307" lon="2.21996">
        <ele>65.7</ele>
        <time>2020-07-02T09:59:45Z</time>
      </trkpt>
      <trkpt lat="48.49301" lon="2.21995">
        <ele>65.7</ele>
        <time>2020-07-02T09:59:46Z</time>
      </trkpt>
      <trkpt lat="48.49295" lon="2.21993">
        <ele>65.6</ele>
        <time>2020-07-02T09:59:47Z</time>
      </trkpt>
      <trkpt lat="48.49289" lon="2.21989">
        <ele>65.6</ele>
        <time>2020-07-02T09:59:48Z</time>
      </trkpt>
      <trkpt lat="48.49284" lon="2.21984">
        <ele>65.5</ele>
        <time>2020-07-02T09:59:49Z</time>
      </trkpt>
      <trkpt lat="48.49279" lon="2.21979">
        <ele>65.5</ele>
        <time>2020-07-02T09:59:50Z</time>
      </trkpt>
      <trkpt lat="48.49274" lon="2.21974">
        <ele>65.4</ele>
        <time>2020-07-02T09:59:51Z</time>
      </trkpt>
      <trkpt lat="48.49269" lon="2.21968">
        <ele>65.4</ele>
        <time>2020-07-02T09:59:52Z</time>
      </trkpt>
      <trkpt lat="48.49264" lon="2.21962">
        <ele>65.3</ele>
        <time>2020-07-02T09:59:53Z</time>
      </trkpt>
      <trkpt lat="48.49259" lon="2.21955">
        <ele>65.3</ele>
        <time>2020-07-02T09:59:54Z</time>
      </trkpt>
      <trkpt lat="48.49254" lon="2.21948">
        <ele>65.2</ele>
        <time>2020-07-02T09:59:55Z</time>
      </trkpt>
      <trkpt lat="48.4925" lon="2.21942">
        <ele>65.2</ele>
        <time>2020-07-02T09:59:56Z</time>
      </trkpt>
      <trkpt lat="48.49247" lon="2.21932">
        <ele>65</ele>
        <time>2020-07-02T09:59:57Z</time>
      </trkpt>
      <trkpt lat="48.49246" lon="2.21921">
        <ele>64.9</ele>
        <time>2020-07-02T09:59:58Z</time>
      </trkpt>
      <trkpt lat="48.49245" lon="2.21911">
        <ele>64.8</ele>
        <time>2020-07-02T09:59:59Z</time>
      </trkpt>
      <trkpt lat="48.49244" lon="2.21902">
        <ele>64.6</ele>
        <time>2020-07-02T10:00:00Z</time>
      </trkpt>
      <trkpt lat="48.49243" lon="2.21893">
        <ele>64.5</ele>
        <time>2020-07-02T10:00:01Z</time>
      </trkpt>
      <trkpt lat="48.49242" lon="2.21883">
        <ele>64.4</ele>
        <time>2020-07-02T10:00:02Z</time>
      </trkpt>
      <trkpt lat="48.4924" lon="2.21874">
        <ele>64.3</ele>
        <time>2020-07-02T10:00:03Z</time>
      </trkpt>
      <trkpt lat="48.49239" lon="2.21865">
        <ele>64.2</ele>
        <time>2020-07-02T10:00:04Z</time>
      </trkpt>
      <trkpt lat="48.49237" lon="2.21855">
        <ele>64.1</ele>
        <time>2020-07-02T10:00:05Z</time>
      </trkpt>
      <trkpt lat="48.49235" lon="2.21846">
        <ele>64</ele>
        <time>2020-07-02T10:00:06Z</time>
      </trkpt>
      <trkpt lat="48.49233" lon="2.21835">
        <ele>64</ele>
        <time>2020-07-02T10:00:07Z</time>
      </trkpt>
      <trkpt lat="48.49232" lon="2.21824">
        <ele>64</ele>
        <time>2020-07-02T10:00:08Z</time>
      </trkpt>
      <trkpt lat="48.4923" lon="2.21813">
        <ele>63.9</ele>
        <time>2020-07-02T10:00:09Z</time>
      </trkpt>
      <trkpt lat="48.49229" lon="2.21804">
        <ele>63.9</ele>
        <time>2020-07-02T10:00:10Z</time>
      </trkpt>
      <trkpt lat="48.49228" lon="2.21793">
        <ele>63.9</ele>
        <time>2020-07-02T10:00:11Z</time>
      </trkpt>
      <trkpt lat="48.49228" lon="2.21783">
        <ele>63.9</ele>
        <time>2020-07-02T10:00:12Z</time>
      </trkpt>
      <trkpt lat="48.49228" lon="2.21773">
        <ele>63.9</ele>
        <time>2020-07-02T10:00:13Z</time>
      </trkpt>
      <trkpt lat="48.49227" lon="2.21763">
        <ele>63.8</ele>
        <time>2020-07-02T10:00:14Z</time>
      </trkpt>
      <trkpt lat="48.49227" lon="2.21754">
        <ele>63.8</ele>
        <time>2020-07-02T10:00:15Z</time>
      </trkpt>
      <trkpt lat="48.49226" lon="2.21745">
        <ele>63.8</ele>
        <time>2020-07-02T10:00:16Z</time>
      </trkpt>
      <trkpt lat="48.49224" lon="2.21736">
        <ele>63.8</ele>
        <time>2020-07-02T10:00:17Z</time>
      </trkpt>
      <trkpt lat="48.49221" lon="2.21728">
        <ele>63.7</ele>
        <time>2020-07-02T10:00:18Z</time>
      </trkpt>
      <trkpt lat="48.49216" lon="2.21723">
        <ele>63.7</ele>
        <time>2020-07-02T10:00:19Z</time>
      </trkpt>
      <trkpt lat="48.49209" lon="2.21719">
        <ele>63.8</ele>
        <time>2020-07-02T10:00:20Z</time>
      </trkpt>
      <trkpt lat="48.49203" lon="2.21716">
        <ele>63.9</ele>
        <time>2020-07-02T10:00:21Z</time>
      </trkpt>
      <trkpt lat="48.49196" lon="2.21714">
        <ele>64</ele>
        <time>2020-07-02T10:00:22Z</time>
      </trkpt>
      <trkpt lat="48.49189" lon="2.21712">
        <ele>64</ele>
        <time>2020-07-02T10:00:23Z</time>
      </trkpt>
      <trkpt lat="48.49183" lon="2.2171">
        <ele>64</ele>
        <time>2020-07-02T10:00:24Z</time>
      </trkpt>
      <trkpt lat="48.49176" lon="2.21709">
        <ele>64.1</ele>
        <time>2020-07-02T10:00:25Z</time>
      </trkpt>
      <trkpt lat="48.49169" lon="2.2171">
        <ele>64.1</ele>
        <time>2020-07-02T10:00:26Z</time>
      </trkpt>
      <trkpt lat="48.49163" lon="2.21711">
        <ele>64.2</ele>
        <time>2020-07-02T10:00:27Z</time>
      </trkpt>
      <trkpt lat="48.49156" lon="2.21713">
        <ele>64.2</ele>
        <time>2020-07-02T10:00:28Z</time>
      </trkpt>
      <trkpt lat="48.49149" lon="2.21716">
        <ele>64.3</ele>
        <time>2020-07-02T10:00:29Z</time>
      </trkpt>
      <trkpt lat="48.49142" lon="2.21717">
        <ele>64.3</ele>
        <time>2020-07-02T10:00:30Z</time>
      </trkpt>
      <trkpt lat="48.49136" lon="2.2172">
        <ele>64.4</ele>
        <time>2020-07-02T10:00:31Z</time>
      </trkpt>
      <trkpt lat="48.4913" lon="2.21722">
        <ele>64.4</ele>
        <time>2020-07-02T10:00:32Z</time>
      </trkpt>
      <trkpt lat="48.49123" lon="2.21725">
        <ele>64.5</ele>
        <time>2020-07-02T10:00:33Z</time>
      </trkpt>
      <trkpt lat="48.49115" lon="2.21725">
        <ele>64.5</ele>
        <time>2020-07-02T10:00:34Z</time>
      </trkpt>
      <trkpt lat="48.49109" lon="2.21726">
        <ele>64.6</ele>
        <time>2020-07-02T10:00:35Z</time>
      </trkpt>
      <trkpt lat="48.49102" lon="2.21726">
        <ele>64.7</ele>
        <time>2020-07-02T10:00:36Z</time>
      </trkpt>
      <trkpt lat="48.49096" lon="2.21725">
        <ele>64.7</ele>
        <time>2020-07-02T10:00:37Z</time>
      </trkpt>
      <trkpt lat="48.49089" lon="2.21723">
        <ele>64.8</ele>
        <time>2020-07-02T10:00:38Z</time>
      </trkpt>
      <trkpt lat="48.49083" lon="2.2172">
        <ele>64.9</ele>
        <time>2020-07-02T10:00:39Z</time>
      </trkpt>
      <trkpt lat="48.49077" lon="2.21717">
        <ele>65</ele>
        <time>2020-07-02T10:00:40Z</time>
      </trkpt>
      <trkpt lat="48.49072" lon="2.21717">
        <ele>65</ele>
        <time>2020-07-02T10:00:41Z</time>
      </trkpt>
      <trkpt lat="48.49068" lon="2.21716">
        <ele>65</ele>
        <time>2020-07-02T10:00:42Z</time>
      </trkpt>
      <trkpt lat="48.49063" lon="2.21716">
        <ele>65.1</ele>
        <time>2020-07-02T10:00:43Z</time>
      </trkpt>
      <trkpt lat="48.49059" lon="2.21715">
        <ele>65.2</ele>
        <time>2020-07-02T10:00:44Z</time>
      </trkpt>
      <trkpt lat="48.49055" lon="2.21713">
        <ele>65.2</ele>
        <time>2020-07-02T10:00:45Z</time>
      </trkpt>
      <trkpt lat="48.49053" lon="2.21708">
        <ele>65.3</ele>
        <time>2020-07-02T10:00:46Z</time>
      </trkpt>
      <trkpt lat="48.49049" lon="2.21703">
        <ele>65.3</ele>
        <time>2020-07-02T10:00:47Z</time>
      </trkpt>
      <trkpt lat="48.49045" lon="2.21698">
        <ele>65.4</ele>
        <time>2020-07-02T10:00:48Z</time>
      </trkpt>
      <trkpt lat="48.49041" lon="2.21692">
        <ele>65.5</ele>
        <time>2020-07-02T10:00:49Z</time>
      </trkpt>
      <trkpt lat="48.49038" lon="2.21686">
        <ele>65.6</ele>
        <time>2020-07-02T10:00:50Z</time>
      </trkpt>
      <trkpt lat="48.49035" lon="2.21678">
        <ele>65.7</ele>
        <time>2020-07-02T10:00:51Z</time>
      </trkpt>
      <trkpt lat="48.49033" lon="2.21671">
        <ele>65.7</ele>
        <time>2020-07-02T10:00:52Z</time>
      </trkpt>
      <trkpt lat="48.49031" lon="2.21662">
        <ele>65.8</ele>
        <time>2020-07-02T10:00:53Z</time>
      </trkpt>
      <trkpt lat="48.4903" lon="2.21654">
        <ele>65.8</ele>
        <time>2020-07-02T10:00:54Z</time>
      </trkpt>
      <trkpt lat="48.49029" lon="2.21646">
        <ele>65.8</ele>
        <time>2020-07-02T10:00:55Z</time>
      </trkpt>
      <trkpt lat="48.49028" lon="2.21639">
        <ele>65.9</ele>
        <time>2020-07-02T10:00:56Z</time>
      </trkpt>
      <trkpt lat="48.49027" lon="2.21631">
        <ele>66</ele>
        <time>2020-07-02T10:00:57Z</time>
      </trkpt>
      <trkpt lat="48.49025" lon="2.21625">
        <ele>66.1</ele>
        <time>2020-07-02T10:00:58Z</time>
      </trkpt>
      <trkpt lat="48.49025" lon="2.21621">
        <ele>66.1</ele>
        <time>2020-07-02T10:00:59Z</time>
      </trkpt>
      <trkpt lat="48.49024" lon="2.21615">
        <ele>66.2</ele>
        <time>2020-07-02T10:01:00Z</time>
      </trkpt>
      <trkpt lat="48.49023" lon="2.21608">
        <ele>66.3</ele>
        <time>2020-07-02T10:01:01Z</time>
      </trkpt>
      <trkpt lat="48.49023" lon="2.216">
        <ele>66.4</ele>
        <time>2020-07-02T10:01:02Z</time>
      </trkpt>
      <trkpt lat="48.49021" lon="2.21592">
        <ele>66.5</ele>
        <time>2020-07-02T10:01:03Z</time>
      </trkpt>
      <trkpt lat="48.49019" lon="2.21586">
        <ele>66.5</ele>
        <time>2020-07-02T10:01:04Z</time>
      </trkpt>
      <trkpt lat="48.49017" lon="2.21578">
        <ele>66.6</ele>
        <time>2020-07-02T10:01:05Z</time>
      </trkpt>
      <trkpt lat="48.49016" lon="2.2157">
        <ele>66.6</ele>
        <time>2020-07-02T10:01:06Z</time>
      </trkpt>
      <trkpt lat="48.49015" lon="2.21563">
        <ele>66.7</ele>
        <time>2020-07-02T10:01:07Z</time>
      </trkpt>
      <trkpt lat="48.49013" lon="2.21555">
        <ele>66.9</ele>
        <time>2020-07-02T10:01:08Z</time>
      </trkpt>
      <trkpt lat="48.49011" lon="2.21546">
        <ele>67</ele>
        <time>2020-07-02T10:01:09Z</time>
      </trkpt>
      <trkpt lat="48.49009" lon="2.21537">
        <ele>67.2</ele>
        <time>2020-07-02T10:01:10Z</time>
      </trkpt>
      <trkpt lat="48.49007" lon="2.21528">
        <ele>67.4</ele>
        <time>2020-07-02T10:01:11Z</time>
      </trkpt>
      <trkpt lat="48.49004" lon="2.2152">
        <ele>67.6</ele>
        <time>2020-07-02T10:01:12Z</time>
      </trkpt>
      <trkpt lat="48.49001" lon="2.21513">
        <ele>67.7</ele>
        <time>2020-07-02T10:01:13Z</time>
      </trkpt>
      <trkpt lat="48.48998" lon="2.21504">
        <ele>67.8</ele>
        <time>2020-07-02T10:01:14Z</time>
      </trkpt>
      <trkpt lat="48.48994" lon="2.21497">
        <ele>67.9</ele>
        <time>2020-07-02T10:01:15Z</time>
      </trkpt>
      <trkpt lat="48.4899" lon="2.21489">
        <ele>68</ele>
        <time>2020-07-02T10:01:16Z</time>
      </trkpt>
      <trkpt lat="48.48987" lon="2.21482">
        <ele>68.1</ele>
        <time>2020-07-02T10:01:17Z</time>
      </trkpt>
      <trkpt lat="48.48984" lon="2.21476">
        <ele>68.2</ele>
        <time>2020-07-02T10:01:18Z</time>
      </trkpt>
      <trkpt lat="48.48981" lon="2.21468">
        <ele>68.2</ele>
        <time>2020-07-02T10:01:19Z</time>
      </trkpt>
      <trkpt lat="48.48977" lon="2.21461">
        <ele>68.3</ele>
        <time>2020-07-02T10:01:20Z</time>
      </trkpt>
      <trkpt lat="48.48974" lon="2.21453">
        <ele>68.3</ele>
        <time>2020-07-02T10:01:21Z</time>
      </trkpt>
      <trkpt lat="48.4897" lon="2.21446">
        <ele>68.4</ele>
        <time>2020-07-02T10:01:22Z</time>
      </trkpt>
      <trkpt lat="48.48966" lon="2.21438">
        <ele>68.5</ele>
        <time>2020-07-02T10:01:23Z</time>
      </trkpt>
      <trkpt lat="48.48963" lon="2.21431">
        <ele>68.6</ele>
        <time>2020-07-02T10:01:24Z</time>
      </trkpt>
      <trkpt lat="48.4896" lon="2.21424">
        <ele>68.7</ele>
        <time>2020-07-02T10:01:25Z</time>
      </trkpt>
      <trkpt lat="48.48957" lon="2.21416">
        <ele>68.8</ele>
        <time>2020-07-02T10:01:26Z</time>
      </trkpt>
      <trkpt lat="48.48953" lon="2.21409">
        <ele>68.8</ele>
        <time>2020-07-02T10:01:27Z</time>
      </trkpt>
      <trkpt lat="48.4895" lon="2.21402">
        <ele>68.9</ele>
        <time>2020-07-02T10:01:28Z</time>
      </trkpt>
      <trkpt lat="48.48946" lon="2.21395">
        <ele>69</ele>
        <time>2020-07-02T10:01:29Z</time>
      </trkpt>
      <trkpt lat="48.48942" lon="2.21389">
        <ele>69.1</ele>
        <time>2020-07-02T10:01:30Z</time>
      </trkpt>
      <trkpt lat="48.48938" lon="2.21383">
        <ele>69.1</ele>
        <time>2020-07-02T10:01:31Z</time>
      </trkpt>
      <trkpt lat="48.48934" lon="2.21378">
        <ele>69.2</ele>
        <time>2020-07-02T10:01:32Z</time>
      </trkpt>
      <trkpt lat="48.48928" lon="2.21374">
        <ele>69.3</ele>
        <time>2020-07-02T10:01:33Z</time>
      </trkpt>
      <trkpt lat="48.48922" lon="2.21371">
        <ele>69.3</ele>
        <time>2020-07-02T10:01:34Z</time>
      </trkpt>
      <trkpt lat="48.48917" lon="2.21368">
        <ele>69.4</ele>
        <time>2020-07-02T10:01:35Z</time>
      </trkpt>
      <trkpt lat="48.48911" lon="2.21364">
        <ele>69.5</ele>
        <time>2020-07-02T10:01:36Z</time>
      </trkpt>
      <trkpt lat="48.48907" lon="2.2136">
        <ele>69.5</ele>
        <time>2020-07-02T10:01:37Z</time>
      </trkpt>
      <trkpt lat="48.48902" lon="2.21357">
        <ele>69.5</ele>
        <time>2020-07-02T10:01:38Z</time>
      </trkpt>
      <trkpt lat="48.48897" lon="2.21353">
        <ele>69.5</ele>
        <time>2020-07-02T10:01:39Z</time>
      </trkpt>
      <trkpt lat="48.48892" lon="2.21349">
        <ele>69.6</ele>
        <time>2020-07-02T10:01:40Z</time>
      </trkpt>
      <trkpt lat="48.48886" lon="2.21345">
        <ele>69.6</ele>
        <time>2020-07-02T10:01:41Z</time>
      </trkpt>
      <trkpt lat="48.48881" lon="2.21342">
        <ele>69.7</ele>
        <time>2020-07-02T10:01:42Z</time>
      </trkpt>
      <trkpt lat="48.48877" lon="2.21338">
        <ele>69.8</ele>
        <time>2020-07-02T10:01:43Z</time>
      </trkpt>
      <trkpt lat="48.48872" lon="2.21334">
        <ele>69.9</ele>
        <time>2020-07-02T10:01:44Z</time>
      </trkpt>
      <trkpt lat="48.48868" lon="2.21331">
        <ele>69.9</ele>
        <time>2020-07-02T10:01:45Z</time>
      </trkpt>
      <trkpt lat="48.48863" lon="2.21327">
        <ele>69.9</ele>
        <time>2020-07-02T10:01:46Z</time>
      </trkpt>
      <trkpt lat="48.48859" lon="2.21322">
        <ele>70</ele>
        <time>2020-07-02T10:01:47Z</time>
      </trkpt>
      <trkpt lat="48.48854" lon="2.21316">
        <ele>70</ele>
        <time>2020-07-02T10:01:48Z</time>
      </trkpt>
      <trkpt lat="48.48849" lon="2.21309">
        <ele>69.8</ele>
        <time>2020-07-02T10:01:49Z</time>
      </trkpt>
      <trkpt lat="48.48846" lon="2.21304">
        <ele>69.9</ele>
        <time>2020-07-02T10:01:50Z</time>
      </trkpt>
      <trkpt lat="48.48842" lon="2.21298">
        <ele>69.9</ele>
        <time>2020-07-02T10:01:51Z</time>
      </trkpt>
      <trkpt lat="48.48838" lon="2.21292">
        <ele>70</ele>
        <time>2020-07-02T10:01:52Z</time>
      </trkpt>
      <trkpt lat="48.48834" lon="2.21286">
        <ele>70</ele>
        <time>2020-07-02T10:01:53Z</time>
      </trkpt>
      <trkpt lat="48.4883" lon="2.2128">
        <ele>70.1</ele>
        <time>2020-07-02T10:01:54Z</time>
      </trkpt>
      <trkpt lat="48.48826" lon="2.21273">
        <ele>70.1</ele>
        <time>2020-07-02T10:01:55Z</time>
      </trkpt>
      <trkpt lat="48.4882" lon="2.21267">
        <ele>70.2</ele>
        <time>2020-07-02T10:01:56Z</time>
      </trkpt>
      <trkpt lat="48.48815" lon="2.21262">
        <ele>70.3</ele>
        <time>2020-07-02T10:01:57Z</time>
      </trkpt>
      <trkpt lat="48.48811" lon="2.21258">
        <ele>70.3</ele>
        <time>2020-07-02T10:01:58Z</time>
      </trkpt>
      <trkpt lat="48.48808" lon="2.21253">
        <ele>70.4</ele>
        <time>2020-07-02T10:01:59Z</time>
      </trkpt>
      <trkpt lat="48.48804" lon="2.21248">
        <ele>70.4</ele>
        <time>2020-07-02T10:02:00Z</time>
      </trkpt>
      <trkpt lat="48.488" lon="2.21243">
        <ele>70.5</ele>
        <time>2020-07-02T10:02:01Z</time>
      </trkpt>
      <trkpt lat="48.48797" lon="2.21237">
        <ele>70.5</ele>
        <time>2020-07-02T10:02:02Z</time>
      </trkpt>
      <trkpt lat="48.48794" lon="2.21231">
        <ele>70.6</ele>
        <time>2020-07-02T10:02:03Z</time>
      </trkpt>
      <trkpt lat="48.48791" lon="2.21226">
        <ele>70.6</ele>
        <time>2020-07-02T10:02:04Z</time>
      </trkpt>
      <trkpt lat="48.48788" lon="2.2122">
        <ele>70.6</ele>
        <time>2020-07-02T10:02:05Z</time>
      </trkpt>
      <trkpt lat="48.48784" lon="2.21213">
        <ele>70.7</ele>
        <time>2020-07-02T10:02:06Z</time>
      </trkpt>
      <trkpt lat="48.4878" lon="2.21208">
        <ele>70.7</ele>
        <time>2020-07-02T10:02:07Z</time>
      </trkpt>
      <trkpt lat="48.48775" lon="2.21203">
        <ele>70.8</ele>
        <time>2020-07-02T10:02:08Z</time>
      </trkpt>
      <trkpt lat="48.48771" lon="2.21197">
        <ele>70.8</ele>
        <time>2020-07-02T10:02:09Z</time>
      </trkpt>
      <trkpt lat="48.48766" lon="2.21191">
        <ele>70.9</ele>
        <time>2020-07-02T10:02:10Z</time>
      </trkpt>
      <trkpt lat="48.48761" lon="2.21186">
        <ele>71</ele>
        <time>2020-07-02T10:02:11Z</time>
      </trkpt>
      <trkpt lat="48.48757" lon="2.2118">
        <ele>71.1</ele>
        <time>2020-07-02T10:02:12Z</time>
      </trkpt>
      <trkpt lat="48.48753" lon="2.21175">
        <ele>71.2</ele>
        <time>2020-07-02T10:02:13Z</time>
      </trkpt>
      <trkpt lat="48.48748" lon="2.21168">
        <ele>71.3</ele>
        <time>2020-07-02T10:02:14Z</time>
      </trkpt>
      <trkpt lat="48.48743" lon="2.21162">
        <ele>71.4</ele>
        <time>2020-07-02T10:02:15Z</time>
      </trkpt>
      <trkpt lat="48.48738" lon="2.21156">
        <ele>71.4</ele>
        <time>2020-07-02T10:02:16Z</time>
      </trkpt>
      <trkpt lat="48.48734" lon="2.2115">
        <ele>71.5</ele>
        <time>2020-07-02T10:02:17Z</time>
      </trkpt>
      <trkpt lat="48.48729" lon="2.21144">
        <ele>71.5</ele>
        <time>2020-07-02T10:02:18Z</time>
      </trkpt>
      <trkpt lat="48.48725" lon="2.21139">
        <ele>71.5</ele>
        <time>2020-07-02T10:02:19Z</time>
      </trkpt>
      <trkpt lat="48.4872" lon="2.21133">
        <ele>71.7</ele>
        <time>2020-07-02T10:02:20Z</time>
      </trkpt>
      <trkpt lat="48.48716" lon="2.21128">
        <ele>71.9</ele>
        <time>2020-07-02T10:02:21Z</time>
      </trkpt>
      <trkpt lat="48.48712" lon="2.21122">
        <ele>72</ele>
        <time>2020-07-02T10:02:22Z</time>
      </trkpt>
      <trkpt lat="48.48708" lon="2.21115">
        <ele>72</ele>
        <time>2020-07-02T10:02:23Z</time>
      </trkpt>
      <trkpt lat="48.48704" lon="2.21109">
        <ele>72.1</ele>
        <time>2020-07-02T10:02:24Z</time>
      </trkpt>
      <trkpt lat="48.487" lon="2.21103">
        <ele>72.1</ele>
        <time>2020-07-02T10:02:25Z</time>
      </trkpt>
      <trkpt lat="48.48696" lon="2.21096">
        <ele>72.2</ele>
        <time>2020-07-02T10:02:26Z</time>
      </trkpt>
      <trkpt lat="48.48693" lon="2.21088">
        <ele>72.2</ele>
        <time>2020-07-02T10:02:27Z</time>
      </trkpt>
      <trkpt lat="48.48689" lon="2.21081">
        <ele>72.2</ele>
        <time>2020-07-02T10:02:28Z</time>
      </trkpt>
      <trkpt lat="48.48686" lon="2.21075">
        <ele>72.3</ele>
        <time>2020-07-02T10:02:29Z</time>
      </trkpt>
      <trkpt lat="48.48682" lon="2.21069">
        <ele>72.3</ele>
        <time>2020-07-02T10:02:30Z</time>
      </trkpt>
      <trkpt lat="48.48679" lon="2.21062">
        <ele>72.3</ele>
        <time>2020-07-02T10:02:31Z</time>
      </trkpt>
      <trkpt lat="48.48675" lon="2.21056">
        <ele>72.4</ele>
        <time>2020-07-02T10:02:32Z</time>
      </trkpt>
      <trkpt lat="48.48671" lon="2.21049">
        <ele>72.5</ele>
        <time>2020-07-02T10:02:33Z</time>
      </trkpt>
      <trkpt lat="48.48668" lon="2.21042">
        <ele>72.5</ele>
        <time>2020-07-02T10:02:34Z</time>
      </trkpt>
      <trkpt lat="48.48664" lon="2.21034">
        <ele>72.6</ele>
        <time>2020-07-02T10:02:35Z</time>
      </trkpt>
      <trkpt lat="48.4866" lon="2.21026">
        <ele>72.7</ele>
        <time>2020-07-02T10:02:36Z</time>
      </trkpt>
      <trkpt lat="48.48657" lon="2.21019">
        <ele>72.7</ele>
        <time>2020-07-02T10:02:37Z</time>
      </trkpt>
      <trkpt lat="48.48654" lon="2.21011">
        <ele>72.8</ele>
        <time>2020-07-02T10:02:38Z</time>
      </trkpt>
      <trkpt lat="48.4865" lon="2.21004">
        <ele>72.9</ele>
        <time>2020-07-02T10:02:39Z</time>
      </trkpt>
      <trkpt lat="48.48646" lon="2.20996">
        <ele>72.9</ele>
        <time>2020-07-02T10:02:40Z</time>
      </trkpt>
      <trkpt lat="48.48642" lon="2.20989">
        <ele>72.9</ele>
        <time>2020-07-02T10:02:41Z</time>
      </trkpt>
      <trkpt lat="48.48638" lon="2.20981">
        <ele>73</ele>
        <time>2020-07-02T10:02:42Z</time>
      </trkpt>
      <trkpt lat="48.48635" lon="2.20974">
        <ele>73</ele>
        <time>2020-07-02T10:02:43Z</time>
      </trkpt>
      <trkpt lat="48.48632" lon="2.20966">
        <ele>73</ele>
        <time>2020-07-02T10:02:44Z</time>
      </trkpt>
      <trkpt lat="48.48629" lon="2.20957">
        <ele>73.1</ele>
        <time>2020-07-02T10:02:45Z</time>
      </trkpt>
      <trkpt lat="48.48625" lon="2.2095">
        <ele>73.1</ele>
        <time>2020-07-02T10:02:46Z</time>
      </trkpt>
      <trkpt lat="48.48622" lon="2.20943">
        <ele>73.1</ele>
        <time>2020-07-02T10:02:47Z</time>
      </trkpt>
      <trkpt lat="48.48619" lon="2.20935">
        <ele>73.1</ele>
        <time>2020-07-02T10:02:48Z</time>
      </trkpt>
      <trkpt lat="48.48615" lon="2.20927">
        <ele>73.1</ele>
        <time>2020-07-02T10:02:49Z</time>
      </trkpt>
      <trkpt lat="48.48612" lon="2.20919">
        <ele>73.1</ele>
        <time>2020-07-02T10:02:50Z</time>
      </trkpt>
      <trkpt lat="48.48608" lon="2.20912">
        <ele>73.1</ele>
        <time>2020-07-02T10:02:51Z</time>
      </trkpt>
      <trkpt lat="48.48605" lon="2.20906">
        <ele>73.1</ele>
        <time>2020-07-02T10:02:52Z</time>
      </trkpt>
      <trkpt lat="48.48602" lon="2.20898">
        <ele>73</ele>
        <time>2020-07-02T10:02:53Z</time>
      </trkpt>
      <trkpt lat="48.48598" lon="2.2089">
        <ele>73</ele>
        <time>2020-07-02T10:02:54Z</time>
      </trkpt>
      <trkpt lat="48.48595" lon="2.20883">
        <ele>73</ele>
        <time>2020-07-02T10:02:55Z</time>
      </trkpt>
      <trkpt lat="48.48592" lon="2.20875">
        <ele>72.9</ele>
        <time>2020-07-02T10:02:56Z</time>
      </trkpt>
      <trkpt lat="48.48588" lon="2.20866">
        <ele>72.9</ele>
        <time>2020-07-02T10:02:57Z</time>
      </trkpt>
      <trkpt lat="48.48584" lon="2.20858">
        <ele>72.8</ele>
        <time>2020-07-02T10:02:58Z</time>
      </trkpt>
      <trkpt lat="48.4858" lon="2.20851">
        <ele>72.8</ele>
        <time>2020-07-02T10:02:59Z</time>
      </trkpt>
      <trkpt lat="48.48576" lon="2.20843">
        <ele>72.7</ele>
        <time>2020-07-02T10:03:00Z</time>
      </trkpt>
      <trkpt lat="48.48573" lon="2.20836">
        <ele>72.7</ele>
        <time>2020-07-02T10:03:01Z</time>
      </trkpt>
      <trkpt lat="48.48569" lon="2.20828">
        <ele>72.6</ele>
        <time>2020-07-02T10:03:02Z</time>
      </trkpt>
      <trkpt lat="48.48565" lon="2.20819">
        <ele>72.6</ele>
        <time>2020-07-02T10:03:03Z</time>
      </trkpt>
      <trkpt lat="48.48562" lon="2.20811">
        <ele>72.5</ele>
        <time>2020-07-02T10:03:04Z</time>
      </trkpt>
      <trkpt lat="48.48558" lon="2.20803">
        <ele>72.5</ele>
        <time>2020-07-02T10:03:05Z</time>
      </trkpt>
      <trkpt lat="48.48554" lon="2.20794">
        <ele>72.4</ele>
        <time>2020-07-02T10:03:06Z</time>
      </trkpt>
      <trkpt lat="48.4855" lon="2.20786">
        <ele>72.4</ele>
        <time>2020-07-02T10:03:07Z</time>
      </trkpt>
      <trkpt lat="48.48547" lon="2.20777">
        <ele>72.4</ele>
        <time>2020-07-02T10:03:08Z</time>
      </trkpt>
      <trkpt lat="48.48542" lon="2.20769">
        <ele>72.3</ele>
        <time>2020-07-02T10:03:09Z</time>
      </trkpt>
      <trkpt lat="48.48538" lon="2.20761">
        <ele>72.2</ele>
        <time>2020-07-02T10:03:10Z</time>
      </trkpt>
      <trkpt lat="48.48533" lon="2.20751">
        <ele>72.2</ele>
        <time>2020-07-02T10:03:11Z</time>
      </trkpt>
      <trkpt lat="48.48529" lon="2.20743">
        <ele>72.1</ele>
        <time>2020-07-02T10:03:12Z</time>
      </trkpt>
      <trkpt lat="48.48525" lon="2.20735">
        <ele>72.1</ele>
        <time>2020-07-02T10:03:13Z</time>
      </trkpt>
      <trkpt lat="48.4852" lon="2.20728">
        <ele>72.1</ele>
        <time>2020-07-02T10:03:14Z</time>
      </trkpt>
      <trkpt lat="48.48516" lon="2.2072">
        <ele>72</ele>
        <time>2020-07-02T10:03:15Z</time>
      </trkpt>
      <trkpt lat="48.48511" lon="2.20713">
        <ele>72</ele>
        <time>2020-07-02T10:03:16Z</time>
      </trkpt>
      <trkpt lat="48.48507" lon="2.20705">
        <ele>72</ele>
        <time>2020-07-02T10:03:17Z</time>
      </trkpt>
      <trkpt lat="48.48503" lon="2.20697">
        <ele>72</ele>
        <time>2020-07-02T10:03:18Z</time>
      </trkpt>
      <trkpt lat="48.48499" lon="2.20689">
        <ele>71.9</ele>
        <time>2020-07-02T10:03:19Z</time>
      </trkpt>
      <trkpt lat="48.48494" lon="2.20682">
        <ele>71.9</ele>
        <time>2020-07-02T10:03:20Z</time>
      </trkpt>
      <trkpt lat="48.4849" lon="2.20675">
        <ele>71.9</ele>
        <time>2020-07-02T10:03:21Z</time>
      </trkpt>
      <trkpt lat="48.48486" lon="2.20668">
        <ele>71.9</ele>
        <time>2020-07-02T10:03:22Z</time>
      </trkpt>
      <trkpt lat="48.48481" lon="2.20661">
        <ele>71.9</ele>
        <time>2020-07-02T10:03:23Z</time>
      </trkpt>
      <trkpt lat="48.48477" lon="2.20653">
        <ele>71.9</ele>
        <time>2020-07-02T10:03:24Z</time>
      </trkpt>
      <trkpt lat="48.48472" lon="2.20645">
        <ele>72</ele>
        <time>2020-07-02T10:03:25Z</time>
      </trkpt>
      <trkpt lat="48.48468" lon="2.20638">
        <ele>72</ele>
        <time>2020-07-02T10:03:26Z</time>
      </trkpt>
      <trkpt lat="48.48464" lon="2.2063">
        <ele>72</ele>
        <time>2020-07-02T10:03:27Z</time>
      </trkpt>
      <trkpt lat="48.4846" lon="2.20623">
        <ele>72</ele>
        <time>2020-07-02T10:03:28Z</time>
      </trkpt>
      <trkpt lat="48.48455" lon="2.20616">
        <ele>71.9</ele>
        <time>2020-07-02T10:03:29Z</time>
      </trkpt>
      <trkpt lat="48.48451" lon="2.20608">
        <ele>71.9</ele>
        <time>2020-07-02T10:03:30Z</time>
      </trkpt>
      <trkpt lat="48.48446" lon="2.20601">
        <ele>71.9</ele>
        <time>2020-07-02T10:03:31Z</time>
      </trkpt>
      <trkpt lat="48.48442" lon="2.20593">
        <ele>72</ele>
        <time>2020-07-02T10:03:32Z</time>
      </trkpt>
      <trkpt lat="48.48438" lon="2.20586">
        <ele>72</ele>
        <time>2020-07-02T10:03:33Z</time>
      </trkpt>
      <trkpt lat="48.48434" lon="2.20579">
        <ele>72.1</ele>
        <time>2020-07-02T10:03:34Z</time>
      </trkpt>
      <trkpt lat="48.4843" lon="2.20572">
        <ele>72.2</ele>
        <time>2020-07-02T10:03:35Z</time>
      </trkpt>
      <trkpt lat="48.48427" lon="2.20565">
        <ele>72.3</ele>
        <time>2020-07-02T10:03:36Z</time>
      </trkpt>
      <trkpt lat="48.48423" lon="2.20559">
        <ele>72.4</ele>
        <time>2020-07-02T10:03:37Z</time>
      </trkpt>
      <trkpt lat="48.48419" lon="2.20552">
        <ele>72.8</ele>
        <time>2020-07-02T10:03:38Z</time>
      </trkpt>
      <trkpt lat="48.48415" lon="2.20545">
        <ele>73.2</ele>
        <time>2020-07-02T10:03:39Z</time>
      </trkpt>
      <trkpt lat="48.48412" lon="2.20538">
        <ele>73.2</ele>
        <time>2020-07-02T10:03:40Z</time>
      </trkpt>
      <trkpt lat="48.48408" lon="2.20533">
        <ele>73.2</ele>
        <time>2020-07-02T10:03:41Z</time>
      </trkpt>
      <trkpt lat="48.48405" lon="2.20529">
        <ele>72.7</ele>
        <time>2020-07-02T10:03:42Z</time>
      </trkpt>
      <trkpt lat="48.484" lon="2.20524">
        <ele>72.7</ele>
        <time>2020-07-02T10:03:43Z</time>
      </trkpt>
      <trkpt lat="48.48395" lon="2.20521">
        <ele>72.7</ele>
        <time>2020-07-02T10:03:44Z</time>
      </trkpt>
      <trkpt lat="48.48388" lon="2.2052">
        <ele>72.7</ele>
        <time>2020-07-02T10:03:45Z</time>
      </trkpt>
      <trkpt lat="48.48383" lon="2.20516">
        <ele>72.6</ele>
        <time>2020-07-02T10:03:46Z</time>
      </trkpt>
      <trkpt lat="48.48377" lon="2.20512">
        <ele>72.6</ele>
        <time>2020-07-02T10:03:47Z</time>
      </trkpt>
      <trkpt lat="48.48372" lon="2.20507">
        <ele>72.6</ele>
        <time>2020-07-02T10:03:48Z</time>
      </trkpt>
      <trkpt lat="48.48368" lon="2.20501">
        <ele>72.6</ele>
        <time>2020-07-02T10:03:49Z</time>
      </trkpt>
      <trkpt lat="48.48363" lon="2.20497">
        <ele>72.7</ele>
        <time>2020-07-02T10:03:50Z</time>
      </trkpt>
      <trkpt lat="48.48358" lon="2.20492">
        <ele>72.9</ele>
        <time>2020-07-02T10:03:51Z</time>
      </trkpt>
      <trkpt lat="48.48354" lon="2.20485">
        <ele>73</ele>
        <time>2020-07-02T10:03:52Z</time>
      </trkpt>
      <trkpt lat="48.4835" lon="2.20478">
        <ele>73.2</ele>
        <time>2020-07-02T10:03:53Z</time>
      </trkpt>
      <trkpt lat="48.48349" lon="2.20471">
        <ele>73.3</ele>
        <time>2020-07-02T10:03:54Z</time>
      </trkpt>
      <trkpt lat="48.48346" lon="2.20465">
        <ele>73.4</ele>
        <time>2020-07-02T10:03:55Z</time>
      </trkpt>
      <trkpt lat="48.48344" lon="2.20459">
        <ele>73.5</ele>
        <time>2020-07-02T10:03:56Z</time>
      </trkpt>
      <trkpt lat="48.4834" lon="2.20454">
        <ele>73.6</ele>
        <time>2020-07-02T10:03:57Z</time>
      </trkpt>
      <trkpt lat="48.48337" lon="2.20448">
        <ele>73.7</ele>
        <time>2020-07-02T10:03:58Z</time>
      </trkpt>
      <trkpt lat="48.48333" lon="2.20443">
        <ele>73.8</ele>
        <time>2020-07-02T10:03:59Z</time>
      </trkpt>
      <trkpt lat="48.48329" lon="2.20437">
        <ele>74</ele>
        <time>2020-07-02T10:04:00Z</time>
      </trkpt>
      <trkpt lat="48.48326" lon="2.20432">
        <ele>74.1</ele>
        <time>2020-07-02T10:04:01Z</time>
      </trkpt>
      <trkpt lat="48.48322" lon="2.20426">
        <ele>74.2</ele>
        <time>2020-07-02T10:04:02Z</time>
      </trkpt>
      <trkpt lat="48.48318" lon="2.2042">
        <ele>74.3</ele>
        <time>2020-07-02T10:04:03Z</time>
      </trkpt>
      <trkpt lat="48.48314" lon="2.20415">
        <ele>74.4</ele>
        <time>2020-07-02T10:04:04Z</time>
      </trkpt>
      <trkpt lat="48.4831" lon="2.20409">
        <ele>74.6</ele>
        <time>2020-07-02T10:04:05Z</time>
      </trkpt>
      <trkpt lat="48.48305" lon="2.20403">
        <ele>74.7</ele>
        <time>2020-07-02T10:04:06Z</time>
      </trkpt>
      <trkpt lat="48.48302" lon="2.20398">
        <ele>74.8</ele>
        <time>2020-07-02T10:04:07Z</time>
      </trkpt>
      <trkpt lat="48.48298" lon="2.20393">
        <ele>75</ele>
        <time>2020-07-02T10:04:08Z</time>
      </trkpt>
      <trkpt lat="48.48294" lon="2.20387">
        <ele>75.1</ele>
        <time>2020-07-02T10:04:09Z</time>
      </trkpt>
      <trkpt lat="48.4829" lon="2.2038">
        <ele>75.3</ele>
        <time>2020-07-02T10:04:10Z</time>
      </trkpt>
      <trkpt lat="48.48286" lon="2.20374">
        <ele>75.4</ele>
        <time>2020-07-02T10:04:11Z</time>
      </trkpt>
      <trkpt lat="48.48282" lon="2.20368">
        <ele>75.5</ele>
        <time>2020-07-02T10:04:12Z</time>
      </trkpt>
      <trkpt lat="48.48279" lon="2.20363">
        <ele>75.6</ele>
        <time>2020-07-02T10:04:13Z</time>
      </trkpt>
      <trkpt lat="48.48276" lon="2.20358">
        <ele>75.6</ele>
        <time>2020-07-02T10:04:14Z</time>
      </trkpt>
      <trkpt lat="48.48272" lon="2.20352">
        <ele>75.6</ele>
        <time>2020-07-02T10:04:15Z</time>
      </trkpt>
      <trkpt lat="48.48269" lon="2.20348">
        <ele>75.6</ele>
        <time>2020-07-02T10:04:16Z</time>
      </trkpt>
      <trkpt lat="48.48264" lon="2.20343">
        <ele>75.6</ele>
        <time>2020-07-02T10:04:17Z</time>
      </trkpt>
      <trkpt lat="48.48259" lon="2.2034">
        <ele>75.5</ele>
        <time>2020-07-02T10:04:18Z</time>
      </trkpt>
      <trkpt lat="48.48254" lon="2.20337">
        <ele>75.4</ele>
        <time>2020-07-02T10:04:19Z</time>
      </trkpt>
      <trkpt lat="48.48248" lon="2.20335">
        <ele>75.3</ele>
        <time>2020-07-02T10:04:20Z</time>
      </trkpt>
      <trkpt lat="48.48242" lon="2.20334">
        <ele>75.1</ele>
        <time>2020-07-02T10:04:21Z</time>
      </trkpt>
      <trkpt lat="48.48235" lon="2.20333">
        <ele>74.9</ele>
        <time>2020-07-02T10:04:22Z</time>
      </trkpt>
      <trkpt lat="48.48228" lon="2.20332">
        <ele>74.7</ele>
        <time>2020-07-02T10:04:23Z</time>
      </trkpt>
      <trkpt lat="48.4822" lon="2.20331">
        <ele>74.4</ele>
        <time>2020-07-02T10:04:24Z</time>
      </trkpt>
      <trkpt lat="48.48213" lon="2.20329">
        <ele>74.2</ele>
        <time>2020-07-02T10:04:25Z</time>
      </trkpt>
      <trkpt lat="48.48206" lon="2.20327">
        <ele>74</ele>
        <time>2020-07-02T10:04:26Z</time>
      </trkpt>
      <trkpt lat="48.48199" lon="2.20324">
        <ele>73.8</ele>
        <time>2020-07-02T10:04:27Z</time>
      </trkpt>
      <trkpt lat="48.48193" lon="2.2032">
        <ele>73.7</ele>
        <time>2020-07-02T10:04:28Z</time>
      </trkpt>
      <trkpt lat="48.48188" lon="2.20313">
        <ele>73.5</ele>
        <time>2020-07-02T10:04:29Z</time>
      </trkpt>
      <trkpt lat="48.48183" lon="2.20307">
        <ele>73.3</ele>
        <time>2020-07-02T10:04:30Z</time>
      </trkpt>
      <trkpt lat="48.48178" lon="2.203">
        <ele>73.2</ele>
        <time>2020-07-02T10:04:31Z</time>
      </trkpt>
      <trkpt lat="48.48173" lon="2.20291">
        <ele>73</ele>
        <time>2020-07-02T10:04:32Z</time>
      </trkpt>
      <trkpt lat="48.48168" lon="2.20281">
        <ele>72.8</ele>
        <time>2020-07-02T10:04:33Z</time>
      </trkpt>
      <trkpt lat="48.48163" lon="2.20271">
        <ele>72.6</ele>
        <time>2020-07-02T10:04:34Z</time>
      </trkpt>
      <trkpt lat="48.48158" lon="2.20262">
        <ele>72.4</ele>
        <time>2020-07-02T10:04:35Z</time>
      </trkpt>
      <trkpt lat="48.48153" lon="2.20251">
        <ele>72.1</ele>
        <time>2020-07-02T10:04:36Z</time>
      </trkpt>
      <trkpt lat="48.48149" lon="2.20242">
        <ele>72</ele>
        <time>2020-07-02T10:04:37Z</time>
      </trkpt>
      <trkpt lat="48.48145" lon="2.20232">
        <ele>71.8</ele>
        <time>2020-07-02T10:04:38Z</time>
      </trkpt>
      <trkpt lat="48.48141" lon="2.20221">
        <ele>71.6</ele>
        <time>2020-07-02T10:04:39Z</time>
      </trkpt>
      <trkpt lat="48.48137" lon="2.2021">
        <ele>71.4</ele>
        <time>2020-07-02T10:04:40Z</time>
      </trkpt>
      <trkpt lat="48.48134" lon="2.202">
        <ele>71.3</ele>
        <time>2020-07-02T10:04:41Z</time>
      </trkpt>
      <trkpt lat="48.4813" lon="2.2019">
        <ele>71.1</ele>
        <time>2020-07-02T10:04:42Z</time>
      </trkpt>
      <trkpt lat="48.48126" lon="2.2018">
        <ele>70.9</ele>
        <time>2020-07-02T10:04:43Z</time>
      </trkpt>
      <trkpt lat="48.48123" lon="2.2017">
        <ele>70.8</ele>
        <time>2020-07-02T10:04:44Z</time>
      </trkpt>
      <trkpt lat="48.48119" lon="2.20159">
        <ele>70.6</ele>
        <time>2020-07-02T10:04:45Z</time>
      </trkpt>
      <trkpt lat="48.48116" lon="2.20149">
        <ele>70.5</ele>
        <time>2020-07-02T10:04:46Z</time>
      </trkpt>
      <trkpt lat="48.48112" lon="2.2014">
        <ele>70.3</ele>
        <time>2020-07-02T10:04:47Z</time>
      </trkpt>
      <trkpt lat="48.48108" lon="2.2013">
        <ele>70.2</ele>
        <time>2020-07-02T10:04:48Z</time>
      </trkpt>
      <trkpt lat="48.48105" lon="2.2012">
        <ele>70.1</ele>
        <time>2020-07-02T10:04:49Z</time>
      </trkpt>
      <trkpt lat="48.48101" lon="2.20109">
        <ele>70</ele>
        <time>2020-07-02T10:04:50Z</time>
      </trkpt>
      <trkpt lat="48.48098" lon="2.20099">
        <ele>69.9</ele>
        <time>2020-07-02T10:04:51Z</time>
      </trkpt>
      <trkpt lat="48.48095" lon="2.20089">
        <ele>69.8</ele>
        <time>2020-07-02T10:04:52Z</time>
      </trkpt>
      <trkpt lat="48.48091" lon="2.20079">
        <ele>69.7</ele>
        <time>2020-07-02T10:04:53Z</time>
      </trkpt>
      <trkpt lat="48.48086" lon="2.2007">
        <ele>69.6</ele>
        <time>2020-07-02T10:04:54Z</time>
      </trkpt>
      <trkpt lat="48.48081" lon="2.20061">
        <ele>69.5</ele>
        <time>2020-07-02T10:04:55Z</time>
      </trkpt>
      <trkpt lat="48.48076" lon="2.20053">
        <ele>69.4</ele>
        <time>2020-07-02T10:04:56Z</time>
      </trkpt>
      <trkpt lat="48.48071" lon="2.20045">
        <ele>69.3</ele>
        <time>2020-07-02T10:04:57Z</time>
      </trkpt>
      <trkpt lat="48.48065" lon="2.20038">
        <ele>69.2</ele>
        <time>2020-07-02T10:04:58Z</time>
      </trkpt>
      <trkpt lat="48.4806" lon="2.2003">
        <ele>69.2</ele>
        <time>2020-07-02T10:04:59Z</time>
      </trkpt>
      <trkpt lat="48.48054" lon="2.20022">
        <ele>69.1</ele>
        <time>2020-07-02T10:05:00Z</time>
      </trkpt>
      <trkpt lat="48.48049" lon="2.20014">
        <ele>69</ele>
        <time>2020-07-02T10:05:01Z</time>
      </trkpt>
      <trkpt lat="48.48043" lon="2.20007">
        <ele>69</ele>
        <time>2020-07-02T10:05:02Z</time>
      </trkpt>
      <trkpt lat="48.48037" lon="2.19999">
        <ele>68.9</ele>
        <time>2020-07-02T10:05:03Z</time>
      </trkpt>
      <trkpt lat="48.48032" lon="2.19992">
        <ele>68.9</ele>
        <time>2020-07-02T10:05:04Z</time>
      </trkpt>
      <trkpt lat="48.48026" lon="2.19985">
        <ele>68.9</ele>
        <time>2020-07-02T10:05:05Z</time>
      </trkpt>
      <trkpt lat="48.4802" lon="2.19978">
        <ele>68.8</ele>
        <time>2020-07-02T10:05:06Z</time>
      </trkpt>
      <trkpt lat="48.48015" lon="2.1997">
        <ele>68.8</ele>
        <time>2020-07-02T10:05:07Z</time>
      </trkpt>
      <trkpt lat="48.48009" lon="2.19963">
        <ele>68.8</ele>
        <time>2020-07-02T10:05:08Z</time>
      </trkpt>
      <trkpt lat="48.48004" lon="2.19956">
        <ele>68.7</ele>
        <time>2020-07-02T10:05:09Z</time>
      </trkpt>
      <trkpt lat="48.47999" lon="2.19949">
        <ele>68.7</ele>
        <time>2020-07-02T10:05:10Z</time>
      </trkpt>
      <trkpt lat="48.47993" lon="2.19942">
        <ele>68.7</ele>
        <time>2020-07-02T10:05:11Z</time>
      </trkpt>
      <trkpt lat="48.47988" lon="2.19934">
        <ele>68.7</ele>
        <time>2020-07-02T10:05:12Z</time>
      </trkpt>
      <trkpt lat="48.47983" lon="2.19926">
        <ele>68.6</ele>
        <time>2020-07-02T10:05:13Z</time>
      </trkpt>
      <trkpt lat="48.47978" lon="2.19919">
        <ele>68.6</ele>
        <time>2020-07-02T10:05:14Z</time>
      </trkpt>
      <trkpt lat="48.47972" lon="2.19911">
        <ele>68.6</ele>
        <time>2020-07-02T10:05:15Z</time>
      </trkpt>
      <trkpt lat="48.47967" lon="2.19904">
        <ele>68.5</ele>
        <time>2020-07-02T10:05:16Z</time>
      </trkpt>
      <trkpt lat="48.47961" lon="2.19896">
        <ele>68.5</ele>
        <time>2020-07-02T10:05:17Z</time>
      </trkpt>
      <trkpt lat="48.47956" lon="2.19888">
        <ele>68.4</ele>
        <time>2020-07-02T10:05:18Z</time>
      </trkpt>
      <trkpt lat="48.4795" lon="2.1988">
        <ele>68.4</ele>
        <time>2020-07-02T10:05:19Z</time>
      </trkpt>
      <trkpt lat="48.47946" lon="2.19871">
        <ele>68.4</ele>
        <time>2020-07-02T10:05:20Z</time>
      </trkpt>
      <trkpt lat="48.47941" lon="2.19864">
        <ele>68.3</ele>
        <time>2020-07-02T10:05:21Z</time>
      </trkpt>
      <trkpt lat="48.47935" lon="2.19856">
        <ele>68.3</ele>
        <time>2020-07-02T10:05:22Z</time>
      </trkpt>
      <trkpt lat="48.47929" lon="2.19851">
        <ele>68.3</ele>
        <time>2020-07-02T10:05:23Z</time>
      </trkpt>
      <trkpt lat="48.47923" lon="2.19845">
        <ele>68.4</ele>
        <time>2020-07-02T10:05:24Z</time>
      </trkpt>
      <trkpt lat="48.47916" lon="2.1984">
        <ele>68.5</ele>
        <time>2020-07-02T10:05:25Z</time>
      </trkpt>
      <trkpt lat="48.4791" lon="2.19835">
        <ele>68.6</ele>
        <time>2020-07-02T10:05:26Z</time>
      </trkpt>
      <trkpt lat="48.47904" lon="2.19829">
        <ele>68.6</ele>
        <time>2020-07-02T10:05:27Z</time>
      </trkpt>
      <trkpt lat="48.47898" lon="2.19824">
        <ele>68.7</ele>
        <time>2020-07-02T10:05:28Z</time>
      </trkpt>
      <trkpt lat="48.47893" lon="2.19819">
        <ele>68.8</ele>
        <time>2020-07-02T10:05:29Z</time>
      </trkpt>
      <trkpt lat="48.47887" lon="2.19813">
        <ele>69</ele>
        <time>2020-07-02T10:05:30Z</time>
      </trkpt>
      <trkpt lat="48.47881" lon="2.19807">
        <ele>69.1</ele>
        <time>2020-07-02T10:05:31Z</time>
      </trkpt>
      <trkpt lat="48.47875" lon="2.19801">
        <ele>69.3</ele>
        <time>2020-07-02T10:05:32Z</time>
      </trkpt>
      <trkpt lat="48.47869" lon="2.19796">
        <ele>69.4</ele>
        <time>2020-07-02T10:05:33Z</time>
      </trkpt>
      <trkpt lat="48.47864" lon="2.1979">
        <ele>69.6</ele>
        <time>2020-07-02T10:05:34Z</time>
      </trkpt>
      <trkpt lat="48.47858" lon="2.19784">
        <ele>69.8</ele>
        <time>2020-07-02T10:05:35Z</time>
      </trkpt>
      <trkpt lat="48.47853" lon="2.19779">
        <ele>70</ele>
        <time>2020-07-02T10:05:36Z</time>
      </trkpt>
      <trkpt lat="48.47848" lon="2.19774">
        <ele>70.2</ele>
        <time>2020-07-02T10:05:37Z</time>
      </trkpt>
      <trkpt lat="48.47842" lon="2.19769">
        <ele>70.4</ele>
        <time>2020-07-02T10:05:38Z</time>
      </trkpt>
      <trkpt lat="48.47837" lon="2.19764">
        <ele>70.6</ele>
        <time>2020-07-02T10:05:39Z</time>
      </trkpt>
      <trkpt lat="48.47833" lon="2.19757">
        <ele>70.6</ele>
        <time>2020-07-02T10:05:40Z</time>
      </trkpt>
      <trkpt lat="48.47829" lon="2.19749">
        <ele>70.8</ele>
        <time>2020-07-02T10:05:41Z</time>
      </trkpt>
      <trkpt lat="48.47824" lon="2.19742">
        <ele>71</ele>
        <time>2020-07-02T10:05:42Z</time>
      </trkpt>
      <trkpt lat="48.47821" lon="2.19734">
        <ele>71.2</ele>
        <time>2020-07-02T10:05:43Z</time>
      </trkpt>
      <trkpt lat="48.47818" lon="2.19725">
        <ele>71.4</ele>
        <time>2020-07-02T10:05:44Z</time>
      </trkpt>
      <trkpt lat="48.47815" lon="2.19716">
        <ele>71.7</ele>
        <time>2020-07-02T10:05:45Z</time>
      </trkpt>
      <trkpt lat="48.47813" lon="2.19708">
        <ele>71.9</ele>
        <time>2020-07-02T10:05:46Z</time>
      </trkpt>
      <trkpt lat="48.4781" lon="2.19699">
        <ele>72.1</ele>
        <time>2020-07-02T10:05:47Z</time>
      </trkpt>
      <trkpt lat="48.47808" lon="2.19691">
        <ele>72.2</ele>
        <time>2020-07-02T10:05:48Z</time>
      </trkpt>
      <trkpt lat="48.47805" lon="2.19682">
        <ele>72.4</ele>
        <time>2020-07-02T10:05:49Z</time>
      </trkpt>
      <trkpt lat="48.47802" lon="2.19674">
        <ele>72.6</ele>
        <time>2020-07-02T10:05:50Z</time>
      </trkpt>
      <trkpt lat="48.47799" lon="2.19666">
        <ele>72.8</ele>
        <time>2020-07-02T10:05:51Z</time>
      </trkpt>
      <trkpt lat="48.47795" lon="2.19658">
        <ele>73</ele>
        <time>2020-07-02T10:05:52Z</time>
      </trkpt>
      <trkpt lat="48.47791" lon="2.19651">
        <ele>73.2</ele>
        <time>2020-07-02T10:05:53Z</time>
      </trkpt>
      <trkpt lat="48.47785" lon="2.19646">
        <ele>73.4</ele>
        <time>2020-07-02T10:05:54Z</time>
      </trkpt>
      <trkpt lat="48.4778" lon="2.19639">
        <ele>73.5</ele>
        <time>2020-07-02T10:05:55Z</time>
      </trkpt>
      <trkpt lat="48.47775" lon="2.19632">
        <ele>73.7</ele>
        <time>2020-07-02T10:05:56Z</time>
      </trkpt>
      <trkpt lat="48.47769" lon="2.19626">
        <ele>73.9</ele>
        <time>2020-07-02T10:05:57Z</time>
      </trkpt>
      <trkpt lat="48.47762" lon="2.19622">
        <ele>74.1</ele>
        <time>2020-07-02T10:05:58Z</time>
      </trkpt>
      <trkpt lat="48.47756" lon="2.19618">
        <ele>74.3</ele>
        <time>2020-07-02T10:05:59Z</time>
      </trkpt>
      <trkpt lat="48.47751" lon="2.19616">
        <ele>74.4</ele>
        <time>2020-07-02T10:06:00Z</time>
      </trkpt>
      <trkpt lat="48.47744" lon="2.19614">
        <ele>74.5</ele>
        <time>2020-07-02T10:06:01Z</time>
      </trkpt>
      <trkpt lat="48.47738" lon="2.19614">
        <ele>74.7</ele>
        <time>2020-07-02T10:06:02Z</time>
      </trkpt>
      <trkpt lat="48.47731" lon="2.19614">
        <ele>74.8</ele>
        <time>2020-07-02T10:06:03Z</time>
      </trkpt>
      <trkpt lat="48.47724" lon="2.19613">
        <ele>75</ele>
        <time>2020-07-02T10:06:04Z</time>
      </trkpt>
      <trkpt lat="48.47718" lon="2.19612">
        <ele>75.1</ele>
        <time>2020-07-02T10:06:05Z</time>
      </trkpt>
      <trkpt lat="48.47711" lon="2.19611">
        <ele>75.2</ele>
        <time>2020-07-02T10:06:06Z</time>
      </trkpt>
      <trkpt lat="48.47705" lon="2.1961">
        <ele>75.2</ele>
        <time>2020-07-02T10:06:07Z</time>
      </trkpt>
      <trkpt lat="48.47699" lon="2.1961">
        <ele>75.3</ele>
        <time>2020-07-02T10:06:08Z</time>
      </trkpt>
      <trkpt lat="48.47693" lon="2.19609">
        <ele>75.2</ele>
        <time>2020-07-02T10:06:09Z</time>
      </trkpt>
      <trkpt lat="48.47687" lon="2.19609">
        <ele>75.2</ele>
        <time>2020-07-02T10:06:10Z</time>
      </trkpt>
      <trkpt lat="48.47681" lon="2.19609">
        <ele>75.1</ele>
        <time>2020-07-02T10:06:11Z</time>
      </trkpt>
      <trkpt lat="48.47676" lon="2.1961">
        <ele>75</ele>
        <time>2020-07-02T10:06:12Z</time>
      </trkpt>
      <trkpt lat="48.4767" lon="2.19611">
        <ele>75</ele>
        <time>2020-07-02T10:06:13Z</time>
      </trkpt>
      <trkpt lat="48.47663" lon="2.1961">
        <ele>74.9</ele>
        <time>2020-07-02T10:06:14Z</time>
      </trkpt>
      <trkpt lat="48.47656" lon="2.1961">
        <ele>74.9</ele>
        <time>2020-07-02T10:06:15Z</time>
      </trkpt>
      <trkpt lat="48.47649" lon="2.1961">
        <ele>74.8</ele>
        <time>2020-07-02T10:06:16Z</time>
      </trkpt>
      <trkpt lat="48.47642" lon="2.1961">
        <ele>74.7</ele>
        <time>2020-07-02T10:06:17Z</time>
      </trkpt>
      <trkpt lat="48.47634" lon="2.1961">
        <ele>74.7</ele>
        <time>2020-07-02T10:06:18Z</time>
      </trkpt>
      <trkpt lat="48.47626" lon="2.1961">
        <ele>74.5</ele>
        <time>2020-07-02T10:06:19Z</time>
      </trkpt>
      <trkpt lat="48.47619" lon="2.19609">
        <ele>74.5</ele>
        <time>2020-07-02T10:06:20Z</time>
      </trkpt>
      <trkpt lat="48.47612" lon="2.19609">
        <ele>74.4</ele>
        <time>2020-07-02T10:06:21Z</time>
      </trkpt>
      <trkpt lat="48.47606" lon="2.19609">
        <ele>74.3</ele>
        <time>2020-07-02T10:06:22Z</time>
      </trkpt>
      <trkpt lat="48.47598" lon="2.19608">
        <ele>74.2</ele>
        <time>2020-07-02T10:06:23Z</time>
      </trkpt>
      <trkpt lat="48.4759" lon="2.19607">
        <ele>74</ele>
        <time>2020-07-02T10:06:24Z</time>
      </trkpt>
      <trkpt lat="48.47582" lon="2.19606">
        <ele>73.9</ele>
        <time>2020-07-02T10:06:25Z</time>
      </trkpt>
      <trkpt lat="48.47575" lon="2.19604">
        <ele>73.9</ele>
        <time>2020-07-02T10:06:26Z</time>
      </trkpt>
      <trkpt lat="48.47568" lon="2.19604">
        <ele>73.8</ele>
        <time>2020-07-02T10:06:27Z</time>
      </trkpt>
      <trkpt lat="48.47561" lon="2.19604">
        <ele>73.7</ele>
        <time>2020-07-02T10:06:28Z</time>
      </trkpt>
      <trkpt lat="48.47553" lon="2.19603">
        <ele>73.6</ele>
        <time>2020-07-02T10:06:29Z</time>
      </trkpt>
      <trkpt lat="48.47546" lon="2.19603">
        <ele>73.5</ele>
        <time>2020-07-02T10:06:30Z</time>
      </trkpt>
      <trkpt lat="48.47538" lon="2.19602">
        <ele>73.5</ele>
        <time>2020-07-02T10:06:31Z</time>
      </trkpt>
      <trkpt lat="48.4753" lon="2.19602">
        <ele>73.4</ele>
        <time>2020-07-02T10:06:32Z</time>
      </trkpt>
      <trkpt lat="48.47523" lon="2.19601">
        <ele>73.4</ele>
        <time>2020-07-02T10:06:33Z</time>
      </trkpt>
      <trkpt lat="48.47516" lon="2.19602">
        <ele>73.3</ele>
        <time>2020-07-02T10:06:34Z</time>
      </trkpt>
      <trkpt lat="48.47509" lon="2.19602">
        <ele>73.3</ele>
        <time>2020-07-02T10:06:35Z</time>
      </trkpt>
      <trkpt lat="48.47502" lon="2.19602">
        <ele>73.2</ele>
        <time>2020-07-02T10:06:36Z</time>
      </trkpt>
      <trkpt lat="48.47495" lon="2.19601">
        <ele>73.2</ele>
        <time>2020-07-02T10:06:37Z</time>
      </trkpt>
      <trkpt lat="48.47489" lon="2.196">
        <ele>73.2</ele>
        <time>2020-07-02T10:06:38Z</time>
      </trkpt>
      <trkpt lat="48.47481" lon="2.19601">
        <ele>73.2</ele>
        <time>2020-07-02T10:06:39Z</time>
      </trkpt>
      <trkpt lat="48.47474" lon="2.19601">
        <ele>73.2</ele>
        <time>2020-07-02T10:06:40Z</time>
      </trkpt>
      <trkpt lat="48.47467" lon="2.19602">
        <ele>73.2</ele>
        <time>2020-07-02T10:06:41Z</time>
      </trkpt>
      <trkpt lat="48.4746" lon="2.19603">
        <ele>73.3</ele>
        <time>2020-07-02T10:06:42Z</time>
      </trkpt>
      <trkpt lat="48.47453" lon="2.19604">
        <ele>73.3</ele>
        <time>2020-07-02T10:06:43Z</time>
      </trkpt>
      <trkpt lat="48.47447" lon="2.19606">
        <ele>73.4</ele>
        <time>2020-07-02T10:06:44Z</time>
      </trkpt>
      <trkpt lat="48.4744" lon="2.19607">
        <ele>73.4</ele>
        <time>2020-07-02T10:06:45Z</time>
      </trkpt>
      <trkpt lat="48.47432" lon="2.19606">
        <ele>73.5</ele>
        <time>2020-07-02T10:06:46Z</time>
      </trkpt>
      <trkpt lat="48.47425" lon="2.19607">
        <ele>73.6</ele>
        <time>2020-07-02T10:06:47Z</time>
      </trkpt>
      <trkpt lat="48.47418" lon="2.19606">
        <ele>73.7</ele>
        <time>2020-07-02T10:06:48Z</time>
      </trkpt>
      <trkpt lat="48.47411" lon="2.19606">
        <ele>73.8</ele>
        <time>2020-07-02T10:06:49Z</time>
      </trkpt>
      <trkpt lat="48.47404" lon="2.19605">
        <ele>73.9</ele>
        <time>2020-07-02T10:06:50Z</time>
      </trkpt>
      <trkpt lat="48.47397" lon="2.19602">
        <ele>74.1</ele>
        <time>2020-07-02T10:06:51Z</time>
      </trkpt>
      <trkpt lat="48.4739" lon="2.19602">
        <ele>74.3</ele>
        <time>2020-07-02T10:06:52Z</time>
      </trkpt>
      <trkpt lat="48.47382" lon="2.196">
        <ele>74.5</ele>
        <time>2020-07-02T10:06:53Z</time>
      </trkpt>
      <trkpt lat="48.47375" lon="2.19599">
        <ele>74.7</ele>
        <time>2020-07-02T10:06:54Z</time>
      </trkpt>
      <trkpt lat="48.47367" lon="2.19597">
        <ele>74.7</ele>
        <time>2020-07-02T10:06:55Z</time>
      </trkpt>
      <trkpt lat="48.47359" lon="2.19596">
        <ele>74.7</ele>
        <time>2020-07-02T10:06:56Z</time>
      </trkpt>
      <trkpt lat="48.47352" lon="2.19594">
        <ele>74.8</ele>
        <time>2020-07-02T10:06:57Z</time>
      </trkpt>
      <trkpt lat="48.47344" lon="2.19592">
        <ele>74.8</ele>
        <time>2020-07-02T10:06:58Z</time>
      </trkpt>
      <trkpt lat="48.47337" lon="2.1959">
        <ele>75</ele>
        <time>2020-07-02T10:06:59Z</time>
      </trkpt>
      <trkpt lat="48.47329" lon="2.19588">
        <ele>75.1</ele>
        <time>2020-07-02T10:07:00Z</time>
      </trkpt>
      <trkpt lat="48.47322" lon="2.19587">
        <ele>75.2</ele>
        <time>2020-07-02T10:07:01Z</time>
      </trkpt>
      <trkpt lat="48.47315" lon="2.19586">
        <ele>75.3</ele>
        <time>2020-07-02T10:07:02Z</time>
      </trkpt>
      <trkpt lat="48.47307" lon="2.19584">
        <ele>75.4</ele>
        <time>2020-07-02T10:07:03Z</time>
      </trkpt>
      <trkpt lat="48.473" lon="2.19584">
        <ele>75.5</ele>
        <time>2020-07-02T10:07:04Z</time>
      </trkpt>
      <trkpt lat="48.47292" lon="2.19583">
        <ele>75.6</ele>
        <time>2020-07-02T10:07:05Z</time>
      </trkpt>
      <trkpt lat="48.47285" lon="2.19582">
        <ele>75.7</ele>
        <time>2020-07-02T10:07:06Z</time>
      </trkpt>
      <trkpt lat="48.47279" lon="2.19581">
        <ele>75.9</ele>
        <time>2020-07-02T10:07:07Z</time>
      </trkpt>
      <trkpt lat="48.47272" lon="2.1958">
        <ele>76</ele>
        <time>2020-07-02T10:07:08Z</time>
      </trkpt>
      <trkpt lat="48.47265" lon="2.19579">
        <ele>76.1</ele>
        <time>2020-07-02T10:07:09Z</time>
      </trkpt>
      <trkpt lat="48.47258" lon="2.19578">
        <ele>76.2</ele>
        <time>2020-07-02T10:07:10Z</time>
      </trkpt>
      <trkpt lat="48.47251" lon="2.19577">
        <ele>76.3</ele>
        <time>2020-07-02T10:07:11Z</time>
      </trkpt>
      <trkpt lat="48.47244" lon="2.19576">
        <ele>76.4</ele>
        <time>2020-07-02T10:07:12Z</time>
      </trkpt>
      <trkpt lat="48.47237" lon="2.19575">
        <ele>76.5</ele>
        <time>2020-07-02T10:07:13Z</time>
      </trkpt>
      <trkpt lat="48.47231" lon="2.19574">
        <ele>76.6</ele>
        <time>2020-07-02T10:07:14Z</time>
      </trkpt>
      <trkpt lat="48.47224" lon="2.19574">
        <ele>76.8</ele>
        <time>2020-07-02T10:07:15Z</time>
      </trkpt>
      <trkpt lat="48.47218" lon="2.19574">
        <ele>76.9</ele>
        <time>2020-07-02T10:07:16Z</time>
      </trkpt>
      <trkpt lat="48.47211" lon="2.19573">
        <ele>77</ele>
        <time>2020-07-02T10:07:17Z</time>
      </trkpt>
      <trkpt lat="48.47205" lon="2.19572">
        <ele>77.1</ele>
        <time>2020-07-02T10:07:18Z</time>
      </trkpt>
      <trkpt lat="48.47199" lon="2.19571">
        <ele>77.2</ele>
        <time>2020-07-02T10:07:19Z</time>
      </trkpt>
      <trkpt lat="48.47193" lon="2.1957">
        <ele>77.3</ele>
        <time>2020-07-02T10:07:20Z</time>
      </trkpt>
      <trkpt lat="48.47186" lon="2.19569">
        <ele>77.4</ele>
        <time>2020-07-02T10:07:21Z</time>
      </trkpt>
      <trkpt lat="48.4718" lon="2.19568">
        <ele>77.6</ele>
        <time>2020-07-02T10:07:22Z</time>
      </trkpt>
      <trkpt lat="48.47174" lon="2.19567">
        <ele>77.7</ele>
        <time>2020-07-02T10:07:23Z</time>
      </trkpt>
      <trkpt lat="48.47168" lon="2.19567">
        <ele>77.7</ele>
        <time>2020-07-02T10:07:24Z</time>
      </trkpt>
      <trkpt lat="48.47163" lon="2.19566">
        <ele>77.8</ele>
        <time>2020-07-02T10:07:25Z</time>
      </trkpt>
      <trkpt lat="48.47157" lon="2.19566">
        <ele>77.9</ele>
        <time>2020-07-02T10:07:26Z</time>
      </trkpt>
      <trkpt lat="48.47151" lon="2.19565">
        <ele>78</ele>
        <time>2020-07-02T10:07:27Z</time>
      </trkpt>
      <trkpt lat="48.47145" lon="2.19564">
        <ele>78</ele>
        <time>2020-07-02T10:07:28Z</time>
      </trkpt>
      <trkpt lat="48.4714" lon="2.19564">
        <ele>78.1</ele>
        <time>2020-07-02T10:07:29Z</time>
      </trkpt>
      <trkpt lat="48.47135" lon="2.19563">
        <ele>78.1</ele>
        <time>2020-07-02T10:07:30Z</time>
      </trkpt>
      <trkpt lat="48.4713" lon="2.19562">
        <ele>78.2</ele>
        <time>2020-07-02T10:07:31Z</time>
      </trkpt>
      <trkpt lat="48.47124" lon="2.1956">
        <ele>78.2</ele>
        <time>2020-07-02T10:07:32Z</time>
      </trkpt>
      <trkpt lat="48.47119" lon="2.19559">
        <ele>78.2</ele>
        <time>2020-07-02T10:07:33Z</time>
      </trkpt>
      <trkpt lat="48.47114" lon="2.19558">
        <ele>78.2</ele>
        <time>2020-07-02T10:07:34Z</time>
      </trkpt>
      <trkpt lat="48.4711" lon="2.19558">
        <ele>78.2</ele>
        <time>2020-07-02T10:07:35Z</time>
      </trkpt>
      <trkpt lat="48.47105" lon="2.19557">
        <ele>78.1</ele>
        <time>2020-07-02T10:07:36Z</time>
      </trkpt>
      <trkpt lat="48.471" lon="2.19557">
        <ele>78.1</ele>
        <time>2020-07-02T10:07:37Z</time>
      </trkpt>
      <trkpt lat="48.47096" lon="2.19556">
        <ele>78.1</ele>
        <time>2020-07-02T10:07:38Z</time>
      </trkpt>
      <trkpt lat="48.47092" lon="2.19556">
        <ele>78</ele>
        <time>2020-07-02T10:07:39Z</time>
      </trkpt>
      <trkpt lat="48.47087" lon="2.19556">
        <ele>78</ele>
        <time>2020-07-02T10:07:40Z</time>
      </trkpt>
      <trkpt lat="48.47083" lon="2.19555">
        <ele>77.9</ele>
        <time>2020-07-02T10:07:41Z</time>
      </trkpt>
      <trkpt lat="48.47077" lon="2.19554">
        <ele>77.9</ele>
        <time>2020-07-02T10:07:42Z</time>
      </trkpt>
      <trkpt lat="48.47072" lon="2.19552">
        <ele>77.8</ele>
        <time>2020-07-02T10:07:43Z</time>
      </trkpt>
      <trkpt lat="48.47067" lon="2.1955">
        <ele>77.7</ele>
        <time>2020-07-02T10:07:44Z</time>
      </trkpt>
      <trkpt lat="48.47061" lon="2.19548">
        <ele>77.7</ele>
        <time>2020-07-02T10:07:45Z</time>
      </trkpt>
      <trkpt lat="48.47055" lon="2.19547">
        <ele>77.6</ele>
        <time>2020-07-02T10:07:46Z</time>
      </trkpt>
      <trkpt lat="48.4705" lon="2.19547">
        <ele>77.5</ele>
        <time>2020-07-02T10:07:47Z</time>
      </trkpt>
      <trkpt lat="48.47042" lon="2.19546">
        <ele>77.4</ele>
        <time>2020-07-02T10:07:48Z</time>
      </trkpt>
      <trkpt lat="48.47037" lon="2.19544">
        <ele>77.3</ele>
        <time>2020-07-02T10:07:49Z</time>
      </trkpt>
      <trkpt lat="48.4703" lon="2.19543">
        <ele>77.2</ele>
        <time>2020-07-02T10:07:50Z</time>
      </trkpt>
      <trkpt lat="48.47024" lon="2.19541">
        <ele>77.1</ele>
        <time>2020-07-02T10:07:51Z</time>
      </trkpt>
      <trkpt lat="48.47019" lon="2.19539">
        <ele>77.1</ele>
        <time>2020-07-02T10:07:52Z</time>
      </trkpt>
      <trkpt lat="48.47014" lon="2.19537">
        <ele>77</ele>
        <time>2020-07-02T10:07:53Z</time>
      </trkpt>
      <trkpt lat="48.47008" lon="2.19535">
        <ele>76.9</ele>
        <time>2020-07-02T10:07:54Z</time>
      </trkpt>
      <trkpt lat="48.47003" lon="2.19532">
        <ele>76.8</ele>
        <time>2020-07-02T10:07:55Z</time>
      </trkpt>
      <trkpt lat="48.46997" lon="2.19529">
        <ele>76.7</ele>
        <time>2020-07-02T10:07:56Z</time>
      </trkpt>
      <trkpt lat="48.46992" lon="2.19528">
        <ele>76.7</ele>
        <time>2020-07-02T10:07:57Z</time>
      </trkpt>
      <trkpt lat="48.46986" lon="2.19526">
        <ele>76.5</ele>
        <time>2020-07-02T10:07:58Z</time>
      </trkpt>
      <trkpt lat="48.4698" lon="2.19523">
        <ele>76.5</ele>
        <time>2020-07-02T10:07:59Z</time>
      </trkpt>
      <trkpt lat="48.46975" lon="2.19522">
        <ele>76.4</ele>
        <time>2020-07-02T10:08:00Z</time>
      </trkpt>
      <trkpt lat="48.46969" lon="2.19519">
        <ele>76.4</ele>
        <time>2020-07-02T10:08:01Z</time>
      </trkpt>
      <trkpt lat="48.46962" lon="2.19516">
        <ele>76.4</ele>
        <time>2020-07-02T10:08:02Z</time>
      </trkpt>
      <trkpt lat="48.46956" lon="2.19513">
        <ele>76.4</ele>
        <time>2020-07-02T10:08:03Z</time>
      </trkpt>
      <trkpt lat="48.46949" lon="2.1951">
        <ele>76.4</ele>
        <time>2020-07-02T10:08:04Z</time>
      </trkpt>
      <trkpt lat="48.46943" lon="2.19508">
        <ele>76.4</ele>
        <time>2020-07-02T10:08:05Z</time>
      </trkpt>
      <trkpt lat="48.46937" lon="2.19507">
        <ele>76.3</ele>
        <time>2020-07-02T10:08:06Z</time>
      </trkpt>
      <trkpt lat="48.4693" lon="2.19505">
        <ele>76.3</ele>
        <time>2020-07-02T10:08:07Z</time>
      </trkpt>
      <trkpt lat="48.46924" lon="2.19503">
        <ele>76.2</ele>
        <time>2020-07-02T10:08:08Z</time>
      </trkpt>
      <trkpt lat="48.46917" lon="2.195">
        <ele>76.1</ele>
        <time>2020-07-02T10:08:09Z</time>
      </trkpt>
      <trkpt lat="48.4691" lon="2.19497">
        <ele>76</ele>
        <time>2020-07-02T10:08:10Z</time>
      </trkpt>
      <trkpt lat="48.46903" lon="2.19495">
        <ele>76</ele>
        <time>2020-07-02T10:08:11Z</time>
      </trkpt>
      <trkpt lat="48.46897" lon="2.19493">
        <ele>75.9</ele>
        <time>2020-07-02T10:08:12Z</time>
      </trkpt>
      <trkpt lat="48.4689" lon="2.19491">
        <ele>75.8</ele>
        <time>2020-07-02T10:08:13Z</time>
      </trkpt>
      <trkpt lat="48.46883" lon="2.19488">
        <ele>75.8</ele>
        <time>2020-07-02T10:08:14Z</time>
      </trkpt>
      <trkpt lat="48.46876" lon="2.19486">
        <ele>75.7</ele>
        <time>2020-07-02T10:08:15Z</time>
      </trkpt>
      <trkpt lat="48.4687" lon="2.19484">
        <ele>75.7</ele>
        <time>2020-07-02T10:08:16Z</time>
      </trkpt>
      <trkpt lat="48.46863" lon="2.19481">
        <ele>75.6</ele>
        <time>2020-07-02T10:08:17Z</time>
      </trkpt>
      <trkpt lat="48.46856" lon="2.1948">
        <ele>75.6</ele>
        <time>2020-07-02T10:08:18Z</time>
      </trkpt>
      <trkpt lat="48.46849" lon="2.19478">
        <ele>75.5</ele>
        <time>2020-07-02T10:08:19Z</time>
      </trkpt>
      <trkpt lat="48.46842" lon="2.19476">
        <ele>75.5</ele>
        <time>2020-07-02T10:08:20Z</time>
      </trkpt>
      <trkpt lat="48.46835" lon="2.19475">
        <ele>75.4</ele>
        <time>2020-07-02T10:08:21Z</time>
      </trkpt>
      <trkpt lat="48.46829" lon="2.19473">
        <ele>75.3</ele>
        <time>2020-07-02T10:08:22Z</time>
      </trkpt>
      <trkpt lat="48.46822" lon="2.19472">
        <ele>75.3</ele>
        <time>2020-07-02T10:08:23Z</time>
      </trkpt>
      <trkpt lat="48.46815" lon="2.19471">
        <ele>75.2</ele>
        <time>2020-07-02T10:08:24Z</time>
      </trkpt>
      <trkpt lat="48.46808" lon="2.1947">
        <ele>75.1</ele>
        <time>2020-07-02T10:08:25Z</time>
      </trkpt>
      <trkpt lat="48.46802" lon="2.19468">
        <ele>75.1</ele>
        <time>2020-07-02T10:08:26Z</time>
      </trkpt>
      <trkpt lat="48.46795" lon="2.19466">
        <ele>75</ele>
        <time>2020-07-02T10:08:27Z</time>
      </trkpt>
      <trkpt lat="48.46788" lon="2.19464">
        <ele>75</ele>
        <time>2020-07-02T10:08:28Z</time>
      </trkpt>
      <trkpt lat="48.46781" lon="2.19463">
        <ele>75</ele>
        <time>2020-07-02T10:08:29Z</time>
      </trkpt>
      <trkpt lat="48.46774" lon="2.19462">
        <ele>74.9</ele>
        <time>2020-07-02T10:08:30Z</time>
      </trkpt>
      <trkpt lat="48.46767" lon="2.1946">
        <ele>74.8</ele>
        <time>2020-07-02T10:08:31Z</time>
      </trkpt>
      <trkpt lat="48.4676" lon="2.19459">
        <ele>74.8</ele>
        <time>2020-07-02T10:08:32Z</time>
      </trkpt>
      <trkpt lat="48.46752" lon="2.19459">
        <ele>74.7</ele>
        <time>2020-07-02T10:08:33Z</time>
      </trkpt>
      <trkpt lat="48.46745" lon="2.19459">
        <ele>74.6</ele>
        <time>2020-07-02T10:08:34Z</time>
      </trkpt>
      <trkpt lat="48.46739" lon="2.19458">
        <ele>74.5</ele>
        <time>2020-07-02T10:08:35Z</time>
      </trkpt>
      <trkpt lat="48.46732" lon="2.19456">
        <ele>74.5</ele>
        <time>2020-07-02T10:08:36Z</time>
      </trkpt>
      <trkpt lat="48.46725" lon="2.19456">
        <ele>74.4</ele>
        <time>2020-07-02T10:08:37Z</time>
      </trkpt>
      <trkpt lat="48.46719" lon="2.19454">
        <ele>74.4</ele>
        <time>2020-07-02T10:08:38Z</time>
      </trkpt>
      <trkpt lat="48.46712" lon="2.19453">
        <ele>74.3</ele>
        <time>2020-07-02T10:08:39Z</time>
      </trkpt>
      <trkpt lat="48.46705" lon="2.19451">
        <ele>74.2</ele>
        <time>2020-07-02T10:08:40Z</time>
      </trkpt>
      <trkpt lat="48.46699" lon="2.1945">
        <ele>74.1</ele>
        <time>2020-07-02T10:08:41Z</time>
      </trkpt>
      <trkpt lat="48.46693" lon="2.19448">
        <ele>73.9</ele>
        <time>2020-07-02T10:08:42Z</time>
      </trkpt>
      <trkpt lat="48.46687" lon="2.19446">
        <ele>73.8</ele>
        <time>2020-07-02T10:08:43Z</time>
      </trkpt>
      <trkpt lat="48.4668" lon="2.19444">
        <ele>73.6</ele>
        <time>2020-07-02T10:08:44Z</time>
      </trkpt>
      <trkpt lat="48.46674" lon="2.19441">
        <ele>73.5</ele>
        <time>2020-07-02T10:08:45Z</time>
      </trkpt>
      <trkpt lat="48.46667" lon="2.19437">
        <ele>73.3</ele>
        <time>2020-07-02T10:08:46Z</time>
      </trkpt>
      <trkpt lat="48.4666" lon="2.19435">
        <ele>73.2</ele>
        <time>2020-07-02T10:08:47Z</time>
      </trkpt>
      <trkpt lat="48.46653" lon="2.19429">
        <ele>73.1</ele>
        <time>2020-07-02T10:08:48Z</time>
      </trkpt>
      <trkpt lat="48.46647" lon="2.19425">
        <ele>73</ele>
        <time>2020-07-02T10:08:49Z</time>
      </trkpt>
      <trkpt lat="48.4664" lon="2.1942">
        <ele>72.9</ele>
        <time>2020-07-02T10:08:50Z</time>
      </trkpt>
      <trkpt lat="48.46633" lon="2.19416">
        <ele>72.9</ele>
        <time>2020-07-02T10:08:51Z</time>
      </trkpt>
      <trkpt lat="48.46627" lon="2.19413">
        <ele>72.9</ele>
        <time>2020-07-02T10:08:52Z</time>
      </trkpt>
      <trkpt lat="48.4662" lon="2.19409">
        <ele>72.8</ele>
        <time>2020-07-02T10:08:53Z</time>
      </trkpt>
      <trkpt lat="48.46614" lon="2.19405">
        <ele>72.7</ele>
        <time>2020-07-02T10:08:54Z</time>
      </trkpt>
      <trkpt lat="48.46607" lon="2.19402">
        <ele>72.6</ele>
        <time>2020-07-02T10:08:55Z</time>
      </trkpt>
      <trkpt lat="48.46601" lon="2.19398">
        <ele>72.5</ele>
        <time>2020-07-02T10:08:56Z</time>
      </trkpt>
      <trkpt lat="48.46594" lon="2.19394">
        <ele>72.4</ele>
        <time>2020-07-02T10:08:57Z</time>
      </trkpt>
      <trkpt lat="48.46587" lon="2.19391">
        <ele>72.3</ele>
        <time>2020-07-02T10:08:58Z</time>
      </trkpt>
      <trkpt lat="48.46581" lon="2.19388">
        <ele>72.2</ele>
        <time>2020-07-02T10:08:59Z</time>
      </trkpt>
      <trkpt lat="48.46574" lon="2.19384">
        <ele>72.2</ele>
        <time>2020-07-02T10:09:00Z</time>
      </trkpt>
      <trkpt lat="48.46568" lon="2.19381">
        <ele>72.2</ele>
        <time>2020-07-02T10:09:01Z</time>
      </trkpt>
      <trkpt lat="48.46561" lon="2.19378">
        <ele>72.1</ele>
        <time>2020-07-02T10:09:02Z</time>
      </trkpt>
      <trkpt lat="48.46555" lon="2.19375">
        <ele>72.1</ele>
        <time>2020-07-02T10:09:03Z</time>
      </trkpt>
      <trkpt lat="48.46548" lon="2.19372">
        <ele>72</ele>
        <time>2020-07-02T10:09:04Z</time>
      </trkpt>
      <trkpt lat="48.46542" lon="2.19368">
        <ele>72</ele>
        <time>2020-07-02T10:09:05Z</time>
      </trkpt>
      <trkpt lat="48.46535" lon="2.19364">
        <ele>71.9</ele>
        <time>2020-07-02T10:09:06Z</time>
      </trkpt>
      <trkpt lat="48.46529" lon="2.19362">
        <ele>71.8</ele>
        <time>2020-07-02T10:09:07Z</time>
      </trkpt>
      <trkpt lat="48.46522" lon="2.19358">
        <ele>71.7</ele>
        <time>2020-07-02T10:09:08Z</time>
      </trkpt>
      <trkpt lat="48.46516" lon="2.19354">
        <ele>71.7</ele>
        <time>2020-07-02T10:09:09Z</time>
      </trkpt>
      <trkpt lat="48.46509" lon="2.1935">
        <ele>71.6</ele>
        <time>2020-07-02T10:09:10Z</time>
      </trkpt>
      <trkpt lat="48.46503" lon="2.19346">
        <ele>71.6</ele>
        <time>2020-07-02T10:09:11Z</time>
      </trkpt>
      <trkpt lat="48.46496" lon="2.19341">
        <ele>71.7</ele>
        <time>2020-07-02T10:09:12Z</time>
      </trkpt>
      <trkpt lat="48.4649" lon="2.19338">
        <ele>71.7</ele>
        <time>2020-07-02T10:09:13Z</time>
      </trkpt>
      <trkpt lat="48.46483" lon="2.19334">
        <ele>71.7</ele>
        <time>2020-07-02T10:09:14Z</time>
      </trkpt>
      <trkpt lat="48.46477" lon="2.1933">
        <ele>71.6</ele>
        <time>2020-07-02T10:09:15Z</time>
      </trkpt>
      <trkpt lat="48.4647" lon="2.19327">
        <ele>71.6</ele>
        <time>2020-07-02T10:09:16Z</time>
      </trkpt>
      <trkpt lat="48.46463" lon="2.19323">
        <ele>71.5</ele>
        <time>2020-07-02T10:09:17Z</time>
      </trkpt>
      <trkpt lat="48.46457" lon="2.1932">
        <ele>71.5</ele>
        <time>2020-07-02T10:09:18Z</time>
      </trkpt>
      <trkpt lat="48.4645" lon="2.19316">
        <ele>71.5</ele>
        <time>2020-07-02T10:09:19Z</time>
      </trkpt>
      <trkpt lat="48.46443" lon="2.19313">
        <ele>71.4</ele>
        <time>2020-07-02T10:09:20Z</time>
      </trkpt>
      <trkpt lat="48.46437" lon="2.1931">
        <ele>71.4</ele>
        <time>2020-07-02T10:09:21Z</time>
      </trkpt>
      <trkpt lat="48.4643" lon="2.19307">
        <ele>71.4</ele>
        <time>2020-07-02T10:09:22Z</time>
      </trkpt>
      <trkpt lat="48.46423" lon="2.19304">
        <ele>71.3</ele>
        <time>2020-07-02T10:09:23Z</time>
      </trkpt>
      <trkpt lat="48.46416" lon="2.19301">
        <ele>71.3</ele>
        <time>2020-07-02T10:09:24Z</time>
      </trkpt>
      <trkpt lat="48.46409" lon="2.193">
        <ele>71.3</ele>
        <time>2020-07-02T10:09:25Z</time>
      </trkpt>
      <trkpt lat="48.46402" lon="2.19298">
        <ele>71.2</ele>
        <time>2020-07-02T10:09:26Z</time>
      </trkpt>
      <trkpt lat="48.46396" lon="2.19295">
        <ele>71.1</ele>
        <time>2020-07-02T10:09:27Z</time>
      </trkpt>
      <trkpt lat="48.46389" lon="2.19292">
        <ele>71</ele>
        <time>2020-07-02T10:09:28Z</time>
      </trkpt>
      <trkpt lat="48.46382" lon="2.19289">
        <ele>71</ele>
        <time>2020-07-02T10:09:29Z</time>
      </trkpt>
      <trkpt lat="48.46375" lon="2.19286">
        <ele>70.9</ele>
        <time>2020-07-02T10:09:30Z</time>
      </trkpt>
      <trkpt lat="48.46368" lon="2.19285">
        <ele>70.8</ele>
        <time>2020-07-02T10:09:31Z</time>
      </trkpt>
      <trkpt lat="48.46361" lon="2.19283">
        <ele>70.8</ele>
        <time>2020-07-02T10:09:32Z</time>
      </trkpt>
      <trkpt lat="48.46355" lon="2.19282">
        <ele>70.8</ele>
        <time>2020-07-02T10:09:33Z</time>
      </trkpt>
      <trkpt lat="48.46348" lon="2.19281">
        <ele>70.7</ele>
        <time>2020-07-02T10:09:34Z</time>
      </trkpt>
      <trkpt lat="48.46341" lon="2.19279">
        <ele>70.7</ele>
        <time>2020-07-02T10:09:35Z</time>
      </trkpt>
      <trkpt lat="48.46334" lon="2.19278">
        <ele>70.7</ele>
        <time>2020-07-02T10:09:36Z</time>
      </trkpt>
      <trkpt lat="48.46327" lon="2.19276">
        <ele>70.7</ele>
        <time>2020-07-02T10:09:37Z</time>
      </trkpt>
      <trkpt lat="48.4632" lon="2.19276">
        <ele>70.7</ele>
        <time>2020-07-02T10:09:38Z</time>
      </trkpt>
      <trkpt lat="48.46313" lon="2.19274">
        <ele>70.7</ele>
        <time>2020-07-02T10:09:39Z</time>
      </trkpt>
      <trkpt lat="48.46305" lon="2.19272">
        <ele>70.7</ele>
        <time>2020-07-02T10:09:40Z</time>
      </trkpt>
      <trkpt lat="48.46299" lon="2.19269">
        <ele>70.7</ele>
        <time>2020-07-02T10:09:41Z</time>
      </trkpt>
      <trkpt lat="48.46292" lon="2.19268">
        <ele>70.7</ele>
        <time>2020-07-02T10:09:42Z</time>
      </trkpt>
      <trkpt lat="48.46285" lon="2.19267">
        <ele>70.7</ele>
        <time>2020-07-02T10:09:43Z</time>
      </trkpt>
      <trkpt lat="48.46279" lon="2.19266">
        <ele>70.7</ele>
        <time>2020-07-02T10:09:44Z</time>
      </trkpt>
      <trkpt lat="48.46272" lon="2.19265">
        <ele>70.7</ele>
        <time>2020-07-02T10:09:45Z</time>
      </trkpt>
      <trkpt lat="48.46266" lon="2.19263">
        <ele>70.8</ele>
        <time>2020-07-02T10:09:46Z</time>
      </trkpt>
      <trkpt lat="48.4626" lon="2.1926">
        <ele>70.8</ele>
        <time>2020-07-02T10:09:47Z</time>
      </trkpt>
      <trkpt lat="48.46253" lon="2.19259">
        <ele>70.8</ele>
        <time>2020-07-02T10:09:48Z</time>
      </trkpt>
      <trkpt lat="48.46247" lon="2.19258">
        <ele>70.9</ele>
        <time>2020-07-02T10:09:49Z</time>
      </trkpt>
      <trkpt lat="48.4624" lon="2.19257">
        <ele>70.9</ele>
        <time>2020-07-02T10:09:50Z</time>
      </trkpt>
      <trkpt lat="48.46234" lon="2.19255">
        <ele>70.9</ele>
        <time>2020-07-02T10:09:51Z</time>
      </trkpt>
      <trkpt lat="48.46228" lon="2.19254">
        <ele>70.9</ele>
        <time>2020-07-02T10:09:52Z</time>
      </trkpt>
      <trkpt lat="48.46222" lon="2.19253">
        <ele>70.9</ele>
        <time>2020-07-02T10:09:53Z</time>
      </trkpt>
      <trkpt lat="48.46216" lon="2.19252">
        <ele>70.9</ele>
        <time>2020-07-02T10:09:54Z</time>
      </trkpt>
      <trkpt lat="48.46209" lon="2.19252">
        <ele>71</ele>
        <time>2020-07-02T10:09:55Z</time>
      </trkpt>
      <trkpt lat="48.46203" lon="2.19251">
        <ele>71</ele>
        <time>2020-07-02T10:09:56Z</time>
      </trkpt>
      <trkpt lat="48.46196" lon="2.19249">
        <ele>71</ele>
        <time>2020-07-02T10:09:57Z</time>
      </trkpt>
      <trkpt lat="48.4619" lon="2.19248">
        <ele>71.1</ele>
        <time>2020-07-02T10:09:58Z</time>
      </trkpt>
      <trkpt lat="48.46184" lon="2.19246">
        <ele>71.1</ele>
        <time>2020-07-02T10:09:59Z</time>
      </trkpt>
      <trkpt lat="48.46178" lon="2.19245">
        <ele>71.2</ele>
        <time>2020-07-02T10:10:00Z</time>
      </trkpt>
      <trkpt lat="48.46172" lon="2.19243">
        <ele>71.2</ele>
        <time>2020-07-02T10:10:01Z</time>
      </trkpt>
      <trkpt lat="48.46166" lon="2.19242">
        <ele>71.3</ele>
        <time>2020-07-02T10:10:02Z</time>
      </trkpt>
      <trkpt lat="48.4616" lon="2.19241">
        <ele>71.3</ele>
        <time>2020-07-02T10:10:03Z</time>
      </trkpt>
      <trkpt lat="48.46154" lon="2.19241">
        <ele>71.4</ele>
        <time>2020-07-02T10:10:04Z</time>
      </trkpt>
      <trkpt lat="48.46148" lon="2.1924">
        <ele>71.5</ele>
        <time>2020-07-02T10:10:05Z</time>
      </trkpt>
      <trkpt lat="48.46142" lon="2.19239">
        <ele>71.5</ele>
        <time>2020-07-02T10:10:06Z</time>
      </trkpt>
      <trkpt lat="48.46135" lon="2.19239">
        <ele>71.6</ele>
        <time>2020-07-02T10:10:07Z</time>
      </trkpt>
      <trkpt lat="48.46129" lon="2.19239">
        <ele>71.7</ele>
        <time>2020-07-02T10:10:08Z</time>
      </trkpt>
      <trkpt lat="48.46123" lon="2.19239">
        <ele>71.7</ele>
        <time>2020-07-02T10:10:09Z</time>
      </trkpt>
      <trkpt lat="48.46117" lon="2.1924">
        <ele>71.8</ele>
        <time>2020-07-02T10:10:10Z</time>
      </trkpt>
      <trkpt lat="48.46111" lon="2.1924">
        <ele>71.8</ele>
        <time>2020-07-02T10:10:11Z</time>
      </trkpt>
      <trkpt lat="48.46105" lon="2.1924">
        <ele>71.9</ele>
        <time>2020-07-02T10:10:12Z</time>
      </trkpt>
      <trkpt lat="48.46099" lon="2.1924">
        <ele>71.9</ele>
        <time>2020-07-02T10:10:13Z</time>
      </trkpt>
      <trkpt lat="48.46093" lon="2.1924">
        <ele>72</ele>
        <time>2020-07-02T10:10:14Z</time>
      </trkpt>
      <trkpt lat="48.46087" lon="2.1924">
        <ele>72</ele>
        <time>2020-07-02T10:10:15Z</time>
      </trkpt>
      <trkpt lat="48.4608" lon="2.19241">
        <ele>72</ele>
        <time>2020-07-02T10:10:16Z</time>
      </trkpt>
      <trkpt lat="48.46074" lon="2.19241">
        <ele>72</ele>
        <time>2020-07-02T10:10:17Z</time>
      </trkpt>
      <trkpt lat="48.46067" lon="2.19241">
        <ele>72</ele>
        <time>2020-07-02T10:10:18Z</time>
      </trkpt>
      <trkpt lat="48.4606" lon="2.19241">
        <ele>72</ele>
        <time>2020-07-02T10:10:19Z</time>
      </trkpt>
      <trkpt lat="48.46055" lon="2.19241">
        <ele>72</ele>
        <time>2020-07-02T10:10:20Z</time>
      </trkpt>
      <trkpt lat="48.46049" lon="2.19241">
        <ele>72</ele>
        <time>2020-07-02T10:10:21Z</time>
      </trkpt>
      <trkpt lat="48.46043" lon="2.19241">
        <ele>72</ele>
        <time>2020-07-02T10:10:22Z</time>
      </trkpt>
      <trkpt lat="48.46037" lon="2.19241">
        <ele>72</ele>
        <time>2020-07-02T10:10:23Z</time>
      </trkpt>
      <trkpt lat="48.46031" lon="2.19241">
        <ele>72</ele>
        <time>2020-07-02T10:10:24Z</time>
      </trkpt>
      <trkpt lat="48.46024" lon="2.19241">
        <ele>72</ele>
        <time>2020-07-02T10:10:25Z</time>
      </trkpt>
      <trkpt lat="48.46019" lon="2.19241">
        <ele>72</ele>
        <time>2020-07-02T10:10:26Z</time>
      </trkpt>
      <trkpt lat="48.46013" lon="2.19241">
        <ele>72</ele>
        <time>2020-07-02T10:10:27Z</time>
      </trkpt>
      <trkpt lat="48.46007" lon="2.19241">
        <ele>72</ele>
        <time>2020-07-02T10:10:28Z</time>
      </trkpt>
      <trkpt lat="48.46001" lon="2.19242">
        <ele>72.1</ele>
        <time>2020-07-02T10:10:29Z</time>
      </trkpt>
      <trkpt lat="48.45995" lon="2.19242">
        <ele>72.1</ele>
        <time>2020-07-02T10:10:30Z</time>
      </trkpt>
      <trkpt lat="48.45989" lon="2.19242">
        <ele>72.1</ele>
        <time>2020-07-02T10:10:31Z</time>
      </trkpt>
      <trkpt lat="48.45983" lon="2.19241">
        <ele>72.2</ele>
        <time>2020-07-02T10:10:32Z</time>
      </trkpt>
      <trkpt lat="48.45975" lon="2.19239">
        <ele>72.3</ele>
        <time>2020-07-02T10:10:33Z</time>
      </trkpt>
      <trkpt lat="48.45969" lon="2.19238">
        <ele>72.4</ele>
        <time>2020-07-02T10:10:34Z</time>
      </trkpt>
      <trkpt lat="48.45963" lon="2.19237">
        <ele>72.4</ele>
        <time>2020-07-02T10:10:35Z</time>
      </trkpt>
      <trkpt lat="48.45957" lon="2.19234">
        <ele>72.4</ele>
        <time>2020-07-02T10:10:36Z</time>
      </trkpt>
      <trkpt lat="48.4595" lon="2.19232">
        <ele>72.4</ele>
        <time>2020-07-02T10:10:37Z</time>
      </trkpt>
      <trkpt lat="48.45944" lon="2.1923">
        <ele>72.4</ele>
        <time>2020-07-02T10:10:38Z</time>
      </trkpt>
      <trkpt lat="48.45938" lon="2.19227">
        <ele>72.4</ele>
        <time>2020-07-02T10:10:39Z</time>
      </trkpt>
      <trkpt lat="48.45931" lon="2.19225">
        <ele>72.4</ele>
        <time>2020-07-02T10:10:40Z</time>
      </trkpt>
      <trkpt lat="48.45925" lon="2.19222">
        <ele>72.4</ele>
        <time>2020-07-02T10:10:41Z</time>
      </trkpt>
      <trkpt lat="48.45918" lon="2.1922">
        <ele>72.4</ele>
        <time>2020-07-02T10:10:42Z</time>
      </trkpt>
      <trkpt lat="48.45911" lon="2.19217">
        <ele>72.4</ele>
        <time>2020-07-02T10:10:43Z</time>
      </trkpt>
      <trkpt lat="48.45904" lon="2.19215">
        <ele>72.4</ele>
        <time>2020-07-02T10:10:44Z</time>
      </trkpt>
      <trkpt lat="48.45898" lon="2.19212">
        <ele>72.4</ele>
        <time>2020-07-02T10:10:45Z</time>
      </trkpt>
      <trkpt lat="48.45892" lon="2.19209">
        <ele>72.4</ele>
        <time>2020-07-02T10:10:46Z</time>
      </trkpt>
      <trkpt lat="48.45885" lon="2.19207">
        <ele>72.4</ele>
        <time>2020-07-02T10:10:47Z</time>
      </trkpt>
      <trkpt lat="48.45879" lon="2.19204">
        <ele>72.3</ele>
        <time>2020-07-02T10:10:48Z</time>
      </trkpt>
      <trkpt lat="48.45873" lon="2.19201">
        <ele>72.3</ele>
        <time>2020-07-02T10:10:49Z</time>
      </trkpt>
      <trkpt lat="48.45867" lon="2.19199">
        <ele>72.3</ele>
        <time>2020-07-02T10:10:50Z</time>
      </trkpt>
      <trkpt lat="48.4586" lon="2.19196">
        <ele>72.3</ele>
        <time>2020-07-02T10:10:51Z</time>
      </trkpt>
      <trkpt lat="48.45854" lon="2.19193">
        <ele>72.2</ele>
        <time>2020-07-02T10:10:52Z</time>
      </trkpt>
      <trkpt lat="48.45847" lon="2.19191">
        <ele>72.2</ele>
        <time>2020-07-02T10:10:53Z</time>
      </trkpt>
      <trkpt lat="48.45841" lon="2.19189">
        <ele>72.2</ele>
        <time>2020-07-02T10:10:54Z</time>
      </trkpt>
      <trkpt lat="48.45834" lon="2.19187">
        <ele>72.2</ele>
        <time>2020-07-02T10:10:55Z</time>
      </trkpt>
      <trkpt lat="48.45828" lon="2.19184">
        <ele>72.2</ele>
        <time>2020-07-02T10:10:56Z</time>
      </trkpt>
      <trkpt lat="48.45821" lon="2.19181">
        <ele>72.1</ele>
        <time>2020-07-02T10:10:57Z</time>
      </trkpt>
      <trkpt lat="48.45814" lon="2.19178">
        <ele>72.1</ele>
        <time>2020-07-02T10:10:58Z</time>
      </trkpt>
      <trkpt lat="48.45808" lon="2.19174">
        <ele>72</ele>
        <time>2020-07-02T10:10:59Z</time>
      </trkpt>
      <trkpt lat="48.45801" lon="2.19171">
        <ele>71.9</ele>
        <time>2020-07-02T10:11:00Z</time>
      </trkpt>
      <trkpt lat="48.45794" lon="2.19168">
        <ele>71.9</ele>
        <time>2020-07-02T10:11:01Z</time>
      </trkpt>
      <trkpt lat="48.45787" lon="2.19167">
        <ele>71.8</ele>
        <time>2020-07-02T10:11:02Z</time>
      </trkpt>
      <trkpt lat="48.45781" lon="2.19164">
        <ele>71.8</ele>
        <time>2020-07-02T10:11:03Z</time>
      </trkpt>
      <trkpt lat="48.45774" lon="2.19161">
        <ele>71.8</ele>
        <time>2020-07-02T10:11:04Z</time>
      </trkpt>
      <trkpt lat="48.45768" lon="2.19158">
        <ele>71.7</ele>
        <time>2020-07-02T10:11:05Z</time>
      </trkpt>
      <trkpt lat="48.45761" lon="2.19157">
        <ele>71.7</ele>
        <time>2020-07-02T10:11:06Z</time>
      </trkpt>
      <trkpt lat="48.45754" lon="2.19155">
        <ele>71.7</ele>
        <time>2020-07-02T10:11:07Z</time>
      </trkpt>
      <trkpt lat="48.45747" lon="2.19152">
        <ele>71.6</ele>
        <time>2020-07-02T10:11:08Z</time>
      </trkpt>
      <trkpt lat="48.4574" lon="2.1915">
        <ele>71.6</ele>
        <time>2020-07-02T10:11:09Z</time>
      </trkpt>
      <trkpt lat="48.45733" lon="2.19148">
        <ele>71.6</ele>
        <time>2020-07-02T10:11:10Z</time>
      </trkpt>
      <trkpt lat="48.45726" lon="2.19145">
        <ele>71.5</ele>
        <time>2020-07-02T10:11:11Z</time>
      </trkpt>
      <trkpt lat="48.45719" lon="2.19142">
        <ele>71.5</ele>
        <time>2020-07-02T10:11:12Z</time>
      </trkpt>
      <trkpt lat="48.45712" lon="2.1914">
        <ele>71.4</ele>
        <time>2020-07-02T10:11:13Z</time>
      </trkpt>
      <trkpt lat="48.45705" lon="2.19138">
        <ele>71.3</ele>
        <time>2020-07-02T10:11:14Z</time>
      </trkpt>
      <trkpt lat="48.45698" lon="2.19135">
        <ele>71.3</ele>
        <time>2020-07-02T10:11:15Z</time>
      </trkpt>
      <trkpt lat="48.45691" lon="2.19132">
        <ele>71.2</ele>
        <time>2020-07-02T10:11:16Z</time>
      </trkpt>
      <trkpt lat="48.45683" lon="2.1913">
        <ele>71.2</ele>
        <time>2020-07-02T10:11:17Z</time>
      </trkpt>
      <trkpt lat="48.45676" lon="2.19128">
        <ele>71.2</ele>
        <time>2020-07-02T10:11:18Z</time>
      </trkpt>
      <trkpt lat="48.45669" lon="2.19125">
        <ele>71.1</ele>
        <time>2020-07-02T10:11:19Z</time>
      </trkpt>
      <trkpt lat="48.45662" lon="2.19122">
        <ele>71.1</ele>
        <time>2020-07-02T10:11:20Z</time>
      </trkpt>
      <trkpt lat="48.45654" lon="2.19119">
        <ele>71</ele>
        <time>2020-07-02T10:11:21Z</time>
      </trkpt>
      <trkpt lat="48.45647" lon="2.19116">
        <ele>71</ele>
        <time>2020-07-02T10:11:22Z</time>
      </trkpt>
      <trkpt lat="48.4564" lon="2.19113">
        <ele>70.9</ele>
        <time>2020-07-02T10:11:23Z</time>
      </trkpt>
      <trkpt lat="48.45633" lon="2.1911">
        <ele>70.9</ele>
        <time>2020-07-02T10:11:24Z</time>
      </trkpt>
      <trkpt lat="48.45626" lon="2.19107">
        <ele>70.9</ele>
        <time>2020-07-02T10:11:25Z</time>
      </trkpt>
      <trkpt lat="48.4562" lon="2.19104">
        <ele>70.9</ele>
        <time>2020-07-02T10:11:26Z</time>
      </trkpt>
      <trkpt lat="48.45613" lon="2.19102">
        <ele>70.9</ele>
        <time>2020-07-02T10:11:27Z</time>
      </trkpt>
      <trkpt lat="48.45606" lon="2.19101">
        <ele>71</ele>
        <time>2020-07-02T10:11:28Z</time>
      </trkpt>
      <trkpt lat="48.45599" lon="2.19098">
        <ele>71</ele>
        <time>2020-07-02T10:11:29Z</time>
      </trkpt>
      <trkpt lat="48.45592" lon="2.19096">
        <ele>70.9</ele>
        <time>2020-07-02T10:11:30Z</time>
      </trkpt>
      <trkpt lat="48.45585" lon="2.19094">
        <ele>70.8</ele>
        <time>2020-07-02T10:11:31Z</time>
      </trkpt>
      <trkpt lat="48.45578" lon="2.19091">
        <ele>70.7</ele>
        <time>2020-07-02T10:11:32Z</time>
      </trkpt>
      <trkpt lat="48.45571" lon="2.1909">
        <ele>70.7</ele>
        <time>2020-07-02T10:11:33Z</time>
      </trkpt>
      <trkpt lat="48.45564" lon="2.19088">
        <ele>70.5</ele>
        <time>2020-07-02T10:11:34Z</time>
      </trkpt>
      <trkpt lat="48.45557" lon="2.19087">
        <ele>70.4</ele>
        <time>2020-07-02T10:11:35Z</time>
      </trkpt>
      <trkpt lat="48.4555" lon="2.19087">
        <ele>70.3</ele>
        <time>2020-07-02T10:11:36Z</time>
      </trkpt>
      <trkpt lat="48.45542" lon="2.19088">
        <ele>70.1</ele>
        <time>2020-07-02T10:11:37Z</time>
      </trkpt>
      <trkpt lat="48.45535" lon="2.19088">
        <ele>70</ele>
        <time>2020-07-02T10:11:38Z</time>
      </trkpt>
      <trkpt lat="48.45527" lon="2.1909">
        <ele>69.9</ele>
        <time>2020-07-02T10:11:39Z</time>
      </trkpt>
      <trkpt lat="48.4552" lon="2.19092">
        <ele>69.8</ele>
        <time>2020-07-02T10:11:40Z</time>
      </trkpt>
      <trkpt lat="48.45512" lon="2.19094">
        <ele>69.7</ele>
        <time>2020-07-02T10:11:41Z</time>
      </trkpt>
      <trkpt lat="48.45504" lon="2.19097">
        <ele>69.6</ele>
        <time>2020-07-02T10:11:42Z</time>
      </trkpt>
      <trkpt lat="48.45496" lon="2.19099">
        <ele>69.6</ele>
        <time>2020-07-02T10:11:43Z</time>
      </trkpt>
      <trkpt lat="48.45489" lon="2.19102">
        <ele>69.6</ele>
        <time>2020-07-02T10:11:44Z</time>
      </trkpt>
      <trkpt lat="48.45482" lon="2.19106">
        <ele>69.6</ele>
        <time>2020-07-02T10:11:45Z</time>
      </trkpt>
      <trkpt lat="48.45474" lon="2.19109">
        <ele>69.6</ele>
        <time>2020-07-02T10:11:46Z</time>
      </trkpt>
      <trkpt lat="48.45467" lon="2.19112">
        <ele>69.5</ele>
        <time>2020-07-02T10:11:47Z</time>
      </trkpt>
      <trkpt lat="48.45459" lon="2.19115">
        <ele>69.4</ele>
        <time>2020-07-02T10:11:48Z</time>
      </trkpt>
      <trkpt lat="48.45452" lon="2.19117">
        <ele>69.4</ele>
        <time>2020-07-02T10:11:49Z</time>
      </trkpt>
      <trkpt lat="48.45444" lon="2.19117">
        <ele>69.3</ele>
        <time>2020-07-02T10:11:50Z</time>
      </trkpt>
      <trkpt lat="48.45436" lon="2.19117">
        <ele>69.3</ele>
        <time>2020-07-02T10:11:51Z</time>
      </trkpt>
      <trkpt lat="48.45428" lon="2.19115">
        <ele>69.3</ele>
        <time>2020-07-02T10:11:52Z</time>
      </trkpt>
      <trkpt lat="48.45421" lon="2.19112">
        <ele>69.4</ele>
        <time>2020-07-02T10:11:53Z</time>
      </trkpt>
      <trkpt lat="48.45414" lon="2.19109">
        <ele>69.4</ele>
        <time>2020-07-02T10:11:54Z</time>
      </trkpt>
      <trkpt lat="48.45407" lon="2.19105">
        <ele>69.4</ele>
        <time>2020-07-02T10:11:55Z</time>
      </trkpt>
      <trkpt lat="48.454" lon="2.19101">
        <ele>69.5</ele>
        <time>2020-07-02T10:11:56Z</time>
      </trkpt>
      <trkpt lat="48.45393" lon="2.19095">
        <ele>69.6</ele>
        <time>2020-07-02T10:11:57Z</time>
      </trkpt>
      <trkpt lat="48.45387" lon="2.19091">
        <ele>69.7</ele>
        <time>2020-07-02T10:11:58Z</time>
      </trkpt>
      <trkpt lat="48.4538" lon="2.19087">
        <ele>69.8</ele>
        <time>2020-07-02T10:11:59Z</time>
      </trkpt>
      <trkpt lat="48.45374" lon="2.19083">
        <ele>69.9</ele>
        <time>2020-07-02T10:12:00Z</time>
      </trkpt>
      <trkpt lat="48.45368" lon="2.19079">
        <ele>70</ele>
        <time>2020-07-02T10:12:01Z</time>
      </trkpt>
      <trkpt lat="48.45361" lon="2.19076">
        <ele>70.1</ele>
        <time>2020-07-02T10:12:02Z</time>
      </trkpt>
      <trkpt lat="48.45355" lon="2.19073">
        <ele>70.2</ele>
        <time>2020-07-02T10:12:03Z</time>
      </trkpt>
      <trkpt lat="48.45349" lon="2.1907">
        <ele>70.3</ele>
        <time>2020-07-02T10:12:04Z</time>
      </trkpt>
      <trkpt lat="48.45342" lon="2.19067">
        <ele>70.3</ele>
        <time>2020-07-02T10:12:05Z</time>
      </trkpt>
      <trkpt lat="48.45336" lon="2.19064">
        <ele>70.4</ele>
        <time>2020-07-02T10:12:06Z</time>
      </trkpt>
      <trkpt lat="48.45329" lon="2.19062">
        <ele>70.5</ele>
        <time>2020-07-02T10:12:07Z</time>
      </trkpt>
      <trkpt lat="48.45323" lon="2.19059">
        <ele>70.6</ele>
        <time>2020-07-02T10:12:08Z</time>
      </trkpt>
      <trkpt lat="48.45316" lon="2.19056">
        <ele>70.7</ele>
        <time>2020-07-02T10:12:09Z</time>
      </trkpt>
      <trkpt lat="48.4531" lon="2.19054">
        <ele>70.7</ele>
        <time>2020-07-02T10:12:10Z</time>
      </trkpt>
      <trkpt lat="48.45304" lon="2.19052">
        <ele>70.8</ele>
        <time>2020-07-02T10:12:11Z</time>
      </trkpt>
      <trkpt lat="48.45297" lon="2.1905">
        <ele>71</ele>
        <time>2020-07-02T10:12:12Z</time>
      </trkpt>
      <trkpt lat="48.45291" lon="2.19048">
        <ele>71.1</ele>
        <time>2020-07-02T10:12:13Z</time>
      </trkpt>
      <trkpt lat="48.45284" lon="2.19045">
        <ele>71.3</ele>
        <time>2020-07-02T10:12:14Z</time>
      </trkpt>
      <trkpt lat="48.45277" lon="2.19042">
        <ele>71.5</ele>
        <time>2020-07-02T10:12:15Z</time>
      </trkpt>
      <trkpt lat="48.45269" lon="2.19039">
        <ele>71.7</ele>
        <time>2020-07-02T10:12:16Z</time>
      </trkpt>
      <trkpt lat="48.45262" lon="2.19036">
        <ele>71.8</ele>
        <time>2020-07-02T10:12:17Z</time>
      </trkpt>
      <trkpt lat="48.45255" lon="2.19032">
        <ele>72</ele>
        <time>2020-07-02T10:12:18Z</time>
      </trkpt>
      <trkpt lat="48.45248" lon="2.19028">
        <ele>72.2</ele>
        <time>2020-07-02T10:12:19Z</time>
      </trkpt>
      <trkpt lat="48.4524" lon="2.19026">
        <ele>72.3</ele>
        <time>2020-07-02T10:12:20Z</time>
      </trkpt>
      <trkpt lat="48.45234" lon="2.19024">
        <ele>72.5</ele>
        <time>2020-07-02T10:12:21Z</time>
      </trkpt>
      <trkpt lat="48.45227" lon="2.19021">
        <ele>72.6</ele>
        <time>2020-07-02T10:12:22Z</time>
      </trkpt>
      <trkpt lat="48.4522" lon="2.19017">
        <ele>72.8</ele>
        <time>2020-07-02T10:12:23Z</time>
      </trkpt>
      <trkpt lat="48.45214" lon="2.19015">
        <ele>73</ele>
        <time>2020-07-02T10:12:24Z</time>
      </trkpt>
      <trkpt lat="48.45208" lon="2.19012">
        <ele>73.1</ele>
        <time>2020-07-02T10:12:25Z</time>
      </trkpt>
      <trkpt lat="48.45202" lon="2.1901">
        <ele>73.3</ele>
        <time>2020-07-02T10:12:26Z</time>
      </trkpt>
      <trkpt lat="48.45196" lon="2.19007">
        <ele>73.4</ele>
        <time>2020-07-02T10:12:27Z</time>
      </trkpt>
      <trkpt lat="48.4519" lon="2.19005">
        <ele>73.6</ele>
        <time>2020-07-02T10:12:28Z</time>
      </trkpt>
      <trkpt lat="48.45184" lon="2.19002">
        <ele>73.9</ele>
        <time>2020-07-02T10:12:29Z</time>
      </trkpt>
      <trkpt lat="48.45178" lon="2.18999">
        <ele>74</ele>
        <time>2020-07-02T10:12:30Z</time>
      </trkpt>
      <trkpt lat="48.45172" lon="2.18997">
        <ele>74</ele>
        <time>2020-07-02T10:12:31Z</time>
      </trkpt>
      <trkpt lat="48.45167" lon="2.18994">
        <ele>74.1</ele>
        <time>2020-07-02T10:12:32Z</time>
      </trkpt>
      <trkpt lat="48.45161" lon="2.18992">
        <ele>74.2</ele>
        <time>2020-07-02T10:12:33Z</time>
      </trkpt>
      <trkpt lat="48.45155" lon="2.1899">
        <ele>74.3</ele>
        <time>2020-07-02T10:12:34Z</time>
      </trkpt>
      <trkpt lat="48.45149" lon="2.18989">
        <ele>74.4</ele>
        <time>2020-07-02T10:12:35Z</time>
      </trkpt>
      <trkpt lat="48.45144" lon="2.18986">
        <ele>74.5</ele>
        <time>2020-07-02T10:12:36Z</time>
      </trkpt>
      <trkpt lat="48.45138" lon="2.18982">
        <ele>74.6</ele>
        <time>2020-07-02T10:12:37Z</time>
      </trkpt>
      <trkpt lat="48.45133" lon="2.18981">
        <ele>74.7</ele>
        <time>2020-07-02T10:12:38Z</time>
      </trkpt>
      <trkpt lat="48.45127" lon="2.18978">
        <ele>74.8</ele>
        <time>2020-07-02T10:12:39Z</time>
      </trkpt>
      <trkpt lat="48.45122" lon="2.18973">
        <ele>74.8</ele>
        <time>2020-07-02T10:12:40Z</time>
      </trkpt>
      <trkpt lat="48.45117" lon="2.1897">
        <ele>74.9</ele>
        <time>2020-07-02T10:12:41Z</time>
      </trkpt>
      <trkpt lat="48.45112" lon="2.18968">
        <ele>74.9</ele>
        <time>2020-07-02T10:12:42Z</time>
      </trkpt>
      <trkpt lat="48.45107" lon="2.18963">
        <ele>74.9</ele>
        <time>2020-07-02T10:12:43Z</time>
      </trkpt>
      <trkpt lat="48.45101" lon="2.18959">
        <ele>74.9</ele>
        <time>2020-07-02T10:12:44Z</time>
      </trkpt>
      <trkpt lat="48.45097" lon="2.18954">
        <ele>74.9</ele>
        <time>2020-07-02T10:12:45Z</time>
      </trkpt>
      <trkpt lat="48.45091" lon="2.1895">
        <ele>74.9</ele>
        <time>2020-07-02T10:12:46Z</time>
      </trkpt>
      <trkpt lat="48.45087" lon="2.18947">
        <ele>74.9</ele>
        <time>2020-07-02T10:12:47Z</time>
      </trkpt>
      <trkpt lat="48.45081" lon="2.18942">
        <ele>74.8</ele>
        <time>2020-07-02T10:12:48Z</time>
      </trkpt>
      <trkpt lat="48.45077" lon="2.18938">
        <ele>74.8</ele>
        <time>2020-07-02T10:12:49Z</time>
      </trkpt>
      <trkpt lat="48.45072" lon="2.18934">
        <ele>74.7</ele>
        <time>2020-07-02T10:12:50Z</time>
      </trkpt>
      <trkpt lat="48.45067" lon="2.18929">
        <ele>74.6</ele>
        <time>2020-07-02T10:12:51Z</time>
      </trkpt>
      <trkpt lat="48.45061" lon="2.18925">
        <ele>74.5</ele>
        <time>2020-07-02T10:12:52Z</time>
      </trkpt>
      <trkpt lat="48.45056" lon="2.18921">
        <ele>74.4</ele>
        <time>2020-07-02T10:12:53Z</time>
      </trkpt>
      <trkpt lat="48.4505" lon="2.18916">
        <ele>74.3</ele>
        <time>2020-07-02T10:12:54Z</time>
      </trkpt>
      <trkpt lat="48.45045" lon="2.18911">
        <ele>74.2</ele>
        <time>2020-07-02T10:12:55Z</time>
      </trkpt>
      <trkpt lat="48.4504" lon="2.18905">
        <ele>74.1</ele>
        <time>2020-07-02T10:12:56Z</time>
      </trkpt>
      <trkpt lat="48.45035" lon="2.18898">
        <ele>74</ele>
        <time>2020-07-02T10:12:57Z</time>
      </trkpt>
      <trkpt lat="48.45029" lon="2.18892">
        <ele>73.8</ele>
        <time>2020-07-02T10:12:58Z</time>
      </trkpt>
      <trkpt lat="48.45023" lon="2.18886">
        <ele>73.7</ele>
        <time>2020-07-02T10:12:59Z</time>
      </trkpt>
      <trkpt lat="48.45018" lon="2.18881">
        <ele>73.5</ele>
        <time>2020-07-02T10:13:00Z</time>
      </trkpt>
      <trkpt lat="48.45012" lon="2.18875">
        <ele>73.3</ele>
        <time>2020-07-02T10:13:01Z</time>
      </trkpt>
      <trkpt lat="48.45006" lon="2.18869">
        <ele>73.1</ele>
        <time>2020-07-02T10:13:02Z</time>
      </trkpt>
      <trkpt lat="48.44999" lon="2.18862">
        <ele>73</ele>
        <time>2020-07-02T10:13:03Z</time>
      </trkpt>
      <trkpt lat="48.44993" lon="2.18856">
        <ele>72.9</ele>
        <time>2020-07-02T10:13:04Z</time>
      </trkpt>
      <trkpt lat="48.44987" lon="2.18851">
        <ele>72.9</ele>
        <time>2020-07-02T10:13:05Z</time>
      </trkpt>
      <trkpt lat="48.44981" lon="2.18846">
        <ele>72.8</ele>
        <time>2020-07-02T10:13:06Z</time>
      </trkpt>
      <trkpt lat="48.44976" lon="2.1884">
        <ele>72.7</ele>
        <time>2020-07-02T10:13:07Z</time>
      </trkpt>
      <trkpt lat="48.4497" lon="2.18833">
        <ele>72.6</ele>
        <time>2020-07-02T10:13:08Z</time>
      </trkpt>
      <trkpt lat="48.44964" lon="2.18827">
        <ele>72.5</ele>
        <time>2020-07-02T10:13:09Z</time>
      </trkpt>
      <trkpt lat="48.44958" lon="2.18821">
        <ele>72.4</ele>
        <time>2020-07-02T10:13:10Z</time>
      </trkpt>
      <trkpt lat="48.44952" lon="2.18814">
        <ele>72.2</ele>
        <time>2020-07-02T10:13:11Z</time>
      </trkpt>
      <trkpt lat="48.44947" lon="2.18807">
        <ele>72.1</ele>
        <time>2020-07-02T10:13:12Z</time>
      </trkpt>
      <trkpt lat="48.44942" lon="2.188">
        <ele>71.9</ele>
        <time>2020-07-02T10:13:13Z</time>
      </trkpt>
      <trkpt lat="48.44936" lon="2.18793">
        <ele>71.8</ele>
        <time>2020-07-02T10:13:14Z</time>
      </trkpt>
      <trkpt lat="48.44931" lon="2.18786">
        <ele>71.6</ele>
        <time>2020-07-02T10:13:15Z</time>
      </trkpt>
      <trkpt lat="48.44925" lon="2.1878">
        <ele>71.4</ele>
        <time>2020-07-02T10:13:16Z</time>
      </trkpt>
      <trkpt lat="48.4492" lon="2.18775">
        <ele>71.2</ele>
        <time>2020-07-02T10:13:17Z</time>
      </trkpt>
      <trkpt lat="48.44915" lon="2.18768">
        <ele>71</ele>
        <time>2020-07-02T10:13:18Z</time>
      </trkpt>
      <trkpt lat="48.4491" lon="2.18762">
        <ele>70.9</ele>
        <time>2020-07-02T10:13:19Z</time>
      </trkpt>
      <trkpt lat="48.44905" lon="2.18756">
        <ele>70.8</ele>
        <time>2020-07-02T10:13:20Z</time>
      </trkpt>
      <trkpt lat="48.449" lon="2.1875">
        <ele>70.6</ele>
        <time>2020-07-02T10:13:21Z</time>
      </trkpt>
      <trkpt lat="48.44895" lon="2.18744">
        <ele>70.6</ele>
        <time>2020-07-02T10:13:22Z</time>
      </trkpt>
      <trkpt lat="48.44891" lon="2.18739">
        <ele>70.6</ele>
        <time>2020-07-02T10:13:23Z</time>
      </trkpt>
      <trkpt lat="48.44886" lon="2.18735">
        <ele>70.6</ele>
        <time>2020-07-02T10:13:24Z</time>
      </trkpt>
      <trkpt lat="48.44882" lon="2.1873">
        <ele>70.6</ele>
        <time>2020-07-02T10:13:25Z</time>
      </trkpt>
      <trkpt lat="48.44877" lon="2.18725">
        <ele>70.6</ele>
        <time>2020-07-02T10:13:26Z</time>
      </trkpt>
      <trkpt lat="48.44873" lon="2.18721">
        <ele>70.7</ele>
        <time>2020-07-02T10:13:27Z</time>
      </trkpt>
      <trkpt lat="48.44869" lon="2.18717">
        <ele>70.7</ele>
        <time>2020-07-02T10:13:28Z</time>
      </trkpt>
      <trkpt lat="48.44865" lon="2.18711">
        <ele>70.7</ele>
        <time>2020-07-02T10:13:29Z</time>
      </trkpt>
      <trkpt lat="48.4486" lon="2.18706">
        <ele>70.7</ele>
        <time>2020-07-02T10:13:30Z</time>
      </trkpt>
      <trkpt lat="48.44856" lon="2.18701">
        <ele>70.7</ele>
        <time>2020-07-02T10:13:31Z</time>
      </trkpt>
      <trkpt lat="48.44852" lon="2.18696">
        <ele>70.6</ele>
        <time>2020-07-02T10:13:32Z</time>
      </trkpt>
      <trkpt lat="48.44847" lon="2.18691">
        <ele>70.6</ele>
        <time>2020-07-02T10:13:33Z</time>
      </trkpt>
      <trkpt lat="48.44843" lon="2.18685">
        <ele>70.6</ele>
        <time>2020-07-02T10:13:34Z</time>
      </trkpt>
      <trkpt lat="48.44838" lon="2.18679">
        <ele>70.5</ele>
        <time>2020-07-02T10:13:35Z</time>
      </trkpt>
      <trkpt lat="48.44834" lon="2.18673">
        <ele>70.5</ele>
        <time>2020-07-02T10:13:36Z</time>
      </trkpt>
      <trkpt lat="48.44829" lon="2.18667">
        <ele>70.5</ele>
        <time>2020-07-02T10:13:37Z</time>
      </trkpt>
      <trkpt lat="48.44824" lon="2.18662">
        <ele>70.4</ele>
        <time>2020-07-02T10:13:38Z</time>
      </trkpt>
      <trkpt lat="48.4482" lon="2.18655">
        <ele>70.4</ele>
        <time>2020-07-02T10:13:39Z</time>
      </trkpt>
      <trkpt lat="48.44816" lon="2.18649">
        <ele>70.4</ele>
        <time>2020-07-02T10:13:40Z</time>
      </trkpt>
      <trkpt lat="48.44811" lon="2.18642">
        <ele>70.4</ele>
        <time>2020-07-02T10:13:41Z</time>
      </trkpt>
      <trkpt lat="48.44807" lon="2.18635">
        <ele>70.4</ele>
        <time>2020-07-02T10:13:42Z</time>
      </trkpt>
      <trkpt lat="48.44803" lon="2.18628">
        <ele>70.4</ele>
        <time>2020-07-02T10:13:43Z</time>
      </trkpt>
      <trkpt lat="48.44798" lon="2.18623">
        <ele>70.3</ele>
        <time>2020-07-02T10:13:44Z</time>
      </trkpt>
      <trkpt lat="48.44793" lon="2.18616">
        <ele>70.3</ele>
        <time>2020-07-02T10:13:45Z</time>
      </trkpt>
      <trkpt lat="48.44788" lon="2.18611">
        <ele>70.2</ele>
        <time>2020-07-02T10:13:46Z</time>
      </trkpt>
      <trkpt lat="48.44782" lon="2.18604">
        <ele>70.1</ele>
        <time>2020-07-02T10:13:47Z</time>
      </trkpt>
      <trkpt lat="48.44777" lon="2.18599">
        <ele>70</ele>
        <time>2020-07-02T10:13:48Z</time>
      </trkpt>
      <trkpt lat="48.44772" lon="2.18593">
        <ele>70</ele>
        <time>2020-07-02T10:13:49Z</time>
      </trkpt>
      <trkpt lat="48.44766" lon="2.18586">
        <ele>70</ele>
        <time>2020-07-02T10:13:50Z</time>
      </trkpt>
      <trkpt lat="48.44762" lon="2.18579">
        <ele>69.9</ele>
        <time>2020-07-02T10:13:51Z</time>
      </trkpt>
      <trkpt lat="48.44757" lon="2.18572">
        <ele>69.9</ele>
        <time>2020-07-02T10:13:52Z</time>
      </trkpt>
      <trkpt lat="48.44752" lon="2.18565">
        <ele>69.9</ele>
        <time>2020-07-02T10:13:53Z</time>
      </trkpt>
      <trkpt lat="48.44748" lon="2.18559">
        <ele>69.9</ele>
        <time>2020-07-02T10:13:54Z</time>
      </trkpt>
      <trkpt lat="48.44742" lon="2.18554">
        <ele>69.9</ele>
        <time>2020-07-02T10:13:55Z</time>
      </trkpt>
      <trkpt lat="48.44738" lon="2.18549">
        <ele>69.9</ele>
        <time>2020-07-02T10:13:56Z</time>
      </trkpt>
      <trkpt lat="48.44734" lon="2.18543">
        <ele>69.9</ele>
        <time>2020-07-02T10:13:57Z</time>
      </trkpt>
      <trkpt lat="48.4473" lon="2.18537">
        <ele>70</ele>
        <time>2020-07-02T10:13:58Z</time>
      </trkpt>
      <trkpt lat="48.44727" lon="2.18532">
        <ele>70</ele>
        <time>2020-07-02T10:13:59Z</time>
      </trkpt>
      <trkpt lat="48.44724" lon="2.18529">
        <ele>70</ele>
        <time>2020-07-02T10:14:00Z</time>
      </trkpt>
      <trkpt lat="48.44722" lon="2.18526">
        <ele>70</ele>
        <time>2020-07-02T10:14:01Z</time>
      </trkpt>
      <trkpt lat="48.44719" lon="2.18522">
        <ele>69.9</ele>
        <time>2020-07-02T10:14:02Z</time>
      </trkpt>
      <trkpt lat="48.44718" lon="2.1852">
        <ele>69.9</ele>
        <time>2020-07-02T10:14:03Z</time>
      </trkpt>
      <trkpt lat="48.44715" lon="2.18517">
        <ele>69.9</ele>
        <time>2020-07-02T10:14:04Z</time>
      </trkpt>
      <trkpt lat="48.44711" lon="2.18511">
        <ele>69.9</ele>
        <time>2020-07-02T10:14:05Z</time>
      </trkpt>
      <trkpt lat="48.44708" lon="2.18505">
        <ele>69.9</ele>
        <time>2020-07-02T10:14:06Z</time>
      </trkpt>
      <trkpt lat="48.44703" lon="2.185">
        <ele>69.9</ele>
        <time>2020-07-02T10:14:07Z</time>
      </trkpt>
      <trkpt lat="48.44699" lon="2.18494">
        <ele>69.9</ele>
        <time>2020-07-02T10:14:08Z</time>
      </trkpt>
      <trkpt lat="48.44694" lon="2.18489">
        <ele>69.8</ele>
        <time>2020-07-02T10:14:09Z</time>
      </trkpt>
      <trkpt lat="48.4469" lon="2.18485">
        <ele>69.8</ele>
        <time>2020-07-02T10:14:10Z</time>
      </trkpt>
      <trkpt lat="48.44686" lon="2.18481">
        <ele>69.8</ele>
        <time>2020-07-02T10:14:11Z</time>
      </trkpt>
      <trkpt lat="48.44682" lon="2.18476">
        <ele>69.8</ele>
        <time>2020-07-02T10:14:12Z</time>
      </trkpt>
      <trkpt lat="48.44677" lon="2.18471">
        <ele>69.9</ele>
        <time>2020-07-02T10:14:13Z</time>
      </trkpt>
      <trkpt lat="48.44672" lon="2.18467">
        <ele>69.9</ele>
        <time>2020-07-02T10:14:14Z</time>
      </trkpt>
      <trkpt lat="48.44667" lon="2.18463">
        <ele>69.9</ele>
        <time>2020-07-02T10:14:15Z</time>
      </trkpt>
      <trkpt lat="48.44663" lon="2.18457">
        <ele>70</ele>
        <time>2020-07-02T10:14:16Z</time>
      </trkpt>
      <trkpt lat="48.44658" lon="2.18452">
        <ele>70</ele>
        <time>2020-07-02T10:14:17Z</time>
      </trkpt>
      <trkpt lat="48.44653" lon="2.18448">
        <ele>70</ele>
        <time>2020-07-02T10:14:18Z</time>
      </trkpt>
      <trkpt lat="48.44649" lon="2.18442">
        <ele>70</ele>
        <time>2020-07-02T10:14:19Z</time>
      </trkpt>
      <trkpt lat="48.44646" lon="2.18437">
        <ele>70</ele>
        <time>2020-07-02T10:14:20Z</time>
      </trkpt>
      <trkpt lat="48.44642" lon="2.18432">
        <ele>70.1</ele>
        <time>2020-07-02T10:14:21Z</time>
      </trkpt>
      <trkpt lat="48.44639" lon="2.18428">
        <ele>70.1</ele>
        <time>2020-07-02T10:14:22Z</time>
      </trkpt>
      <trkpt lat="48.44636" lon="2.18423">
        <ele>70.1</ele>
        <time>2020-07-02T10:14:23Z</time>
      </trkpt>
      <trkpt lat="48.44633" lon="2.1842">
        <ele>70.1</ele>
        <time>2020-07-02T10:14:24Z</time>
      </trkpt>
      <trkpt lat="48.4463" lon="2.18416">
        <ele>70.2</ele>
        <time>2020-07-02T10:14:25Z</time>
      </trkpt>
      <trkpt lat="48.44627" lon="2.18412">
        <ele>70.2</ele>
        <time>2020-07-02T10:14:26Z</time>
      </trkpt>
      <trkpt lat="48.44625" lon="2.18411">
        <ele>70.3</ele>
        <time>2020-07-02T10:14:27Z</time>
      </trkpt>
      <trkpt lat="48.44622" lon="2.18408">
        <ele>70.3</ele>
        <time>2020-07-02T10:14:28Z</time>
      </trkpt>
      <trkpt lat="48.44617" lon="2.18404">
        <ele>70.4</ele>
        <time>2020-07-02T10:14:29Z</time>
      </trkpt>
      <trkpt lat="48.44613" lon="2.184">
        <ele>70.5</ele>
        <time>2020-07-02T10:14:30Z</time>
      </trkpt>
      <trkpt lat="48.44606" lon="2.18396">
        <ele>70.6</ele>
        <time>2020-07-02T10:14:31Z</time>
      </trkpt>
      <trkpt lat="48.446" lon="2.18392">
        <ele>70.7</ele>
        <time>2020-07-02T10:14:32Z</time>
      </trkpt>
      <trkpt lat="48.44595" lon="2.18389">
        <ele>70.8</ele>
        <time>2020-07-02T10:14:33Z</time>
      </trkpt>
      <trkpt lat="48.4459" lon="2.18385">
        <ele>70.9</ele>
        <time>2020-07-02T10:14:34Z</time>
      </trkpt>
      <trkpt lat="48.44585" lon="2.18382">
        <ele>71</ele>
        <time>2020-07-02T10:14:35Z</time>
      </trkpt>
      <trkpt lat="48.44579" lon="2.18379">
        <ele>71</ele>
        <time>2020-07-02T10:14:36Z</time>
      </trkpt>
      <trkpt lat="48.44573" lon="2.18375">
        <ele>71.1</ele>
        <time>2020-07-02T10:14:37Z</time>
      </trkpt>
      <trkpt lat="48.44567" lon="2.18372">
        <ele>71.2</ele>
        <time>2020-07-02T10:14:38Z</time>
      </trkpt>
      <trkpt lat="48.44562" lon="2.1837">
        <ele>71.2</ele>
        <time>2020-07-02T10:14:39Z</time>
      </trkpt>
      <trkpt lat="48.44557" lon="2.18365">
        <ele>71.3</ele>
        <time>2020-07-02T10:14:40Z</time>
      </trkpt>
      <trkpt lat="48.44553" lon="2.18364">
        <ele>71.4</ele>
        <time>2020-07-02T10:14:41Z</time>
      </trkpt>
      <trkpt lat="48.44547" lon="2.18359">
        <ele>71.4</ele>
        <time>2020-07-02T10:14:42Z</time>
      </trkpt>
      <trkpt lat="48.44541" lon="2.18356">
        <ele>71.5</ele>
        <time>2020-07-02T10:14:43Z</time>
      </trkpt>
      <trkpt lat="48.44536" lon="2.18353">
        <ele>71.5</ele>
        <time>2020-07-02T10:14:44Z</time>
      </trkpt>
      <trkpt lat="48.44531" lon="2.18349">
        <ele>71.6</ele>
        <time>2020-07-02T10:14:45Z</time>
      </trkpt>
      <trkpt lat="48.44527" lon="2.18345">
        <ele>71.6</ele>
        <time>2020-07-02T10:14:46Z</time>
      </trkpt>
      <trkpt lat="48.44522" lon="2.18342">
        <ele>71.6</ele>
        <time>2020-07-02T10:14:47Z</time>
      </trkpt>
      <trkpt lat="48.44518" lon="2.18337">
        <ele>71.6</ele>
        <time>2020-07-02T10:14:48Z</time>
      </trkpt>
      <trkpt lat="48.44514" lon="2.18333">
        <ele>71.6</ele>
        <time>2020-07-02T10:14:49Z</time>
      </trkpt>
      <trkpt lat="48.44509" lon="2.18327">
        <ele>71.6</ele>
        <time>2020-07-02T10:14:50Z</time>
      </trkpt>
      <trkpt lat="48.44503" lon="2.1832">
        <ele>71.7</ele>
        <time>2020-07-02T10:14:51Z</time>
      </trkpt>
      <trkpt lat="48.44499" lon="2.18316">
        <ele>71.8</ele>
        <time>2020-07-02T10:14:52Z</time>
      </trkpt>
      <trkpt lat="48.44495" lon="2.18312">
        <ele>71.8</ele>
        <time>2020-07-02T10:14:53Z</time>
      </trkpt>
      <trkpt lat="48.44488" lon="2.18305">
        <ele>71.9</ele>
        <time>2020-07-02T10:14:54Z</time>
      </trkpt>
      <trkpt lat="48.44482" lon="2.18299">
        <ele>72</ele>
        <time>2020-07-02T10:14:55Z</time>
      </trkpt>
      <trkpt lat="48.44476" lon="2.18295">
        <ele>72</ele>
        <time>2020-07-02T10:14:56Z</time>
      </trkpt>
      <trkpt lat="48.44471" lon="2.18291">
        <ele>72.1</ele>
        <time>2020-07-02T10:14:57Z</time>
      </trkpt>
      <trkpt lat="48.44467" lon="2.18288">
        <ele>72.2</ele>
        <time>2020-07-02T10:14:58Z</time>
      </trkpt>
      <trkpt lat="48.44463" lon="2.18285">
        <ele>72.3</ele>
        <time>2020-07-02T10:14:59Z</time>
      </trkpt>
      <trkpt lat="48.44458" lon="2.18281">
        <ele>72.4</ele>
        <time>2020-07-02T10:15:00Z</time>
      </trkpt>
      <trkpt lat="48.44453" lon="2.18277">
        <ele>72.4</ele>
        <time>2020-07-02T10:15:01Z</time>
      </trkpt>
      <trkpt lat="48.44448" lon="2.18273">
        <ele>72.5</ele>
        <time>2020-07-02T10:15:02Z</time>
      </trkpt>
      <trkpt lat="48.44444" lon="2.18269">
        <ele>72.6</ele>
        <time>2020-07-02T10:15:03Z</time>
      </trkpt>
      <trkpt lat="48.4444" lon="2.18265">
        <ele>72.7</ele>
        <time>2020-07-02T10:15:04Z</time>
      </trkpt>
      <trkpt lat="48.44435" lon="2.18259">
        <ele>72.8</ele>
        <time>2020-07-02T10:15:05Z</time>
      </trkpt>
      <trkpt lat="48.44431" lon="2.18254">
        <ele>72.8</ele>
        <time>2020-07-02T10:15:06Z</time>
      </trkpt>
      <trkpt lat="48.44426" lon="2.1825">
        <ele>72.9</ele>
        <time>2020-07-02T10:15:07Z</time>
      </trkpt>
      <trkpt lat="48.44421" lon="2.18246">
        <ele>73</ele>
        <time>2020-07-02T10:15:08Z</time>
      </trkpt>
      <trkpt lat="48.44417" lon="2.18241">
        <ele>73.1</ele>
        <time>2020-07-02T10:15:09Z</time>
      </trkpt>
      <trkpt lat="48.44413" lon="2.18237">
        <ele>73.1</ele>
        <time>2020-07-02T10:15:10Z</time>
      </trkpt>
      <trkpt lat="48.4441" lon="2.18233">
        <ele>73.2</ele>
        <time>2020-07-02T10:15:11Z</time>
      </trkpt>
      <trkpt lat="48.44405" lon="2.1823">
        <ele>73.3</ele>
        <time>2020-07-02T10:15:12Z</time>
      </trkpt>
      <trkpt lat="48.44402" lon="2.18226">
        <ele>73.4</ele>
        <time>2020-07-02T10:15:13Z</time>
      </trkpt>
      <trkpt lat="48.44399" lon="2.18222">
        <ele>73.5</ele>
        <time>2020-07-02T10:15:14Z</time>
      </trkpt>
      <trkpt lat="48.44396" lon="2.1822">
        <ele>73.6</ele>
        <time>2020-07-02T10:15:15Z</time>
      </trkpt>
      <trkpt lat="48.44392" lon="2.18216">
        <ele>73.7</ele>
        <time>2020-07-02T10:15:16Z</time>
      </trkpt>
      <trkpt lat="48.44388" lon="2.18212">
        <ele>73.8</ele>
        <time>2020-07-02T10:15:17Z</time>
      </trkpt>
      <trkpt lat="48.44384" lon="2.18208">
        <ele>74</ele>
        <time>2020-07-02T10:15:18Z</time>
      </trkpt>
      <trkpt lat="48.4438" lon="2.18204">
        <ele>74.1</ele>
        <time>2020-07-02T10:15:19Z</time>
      </trkpt>
      <trkpt lat="48.44377" lon="2.18199">
        <ele>74.2</ele>
        <time>2020-07-02T10:15:20Z</time>
      </trkpt>
      <trkpt lat="48.44373" lon="2.18196">
        <ele>74.3</ele>
        <time>2020-07-02T10:15:21Z</time>
      </trkpt>
      <trkpt lat="48.4437" lon="2.18193">
        <ele>74.4</ele>
        <time>2020-07-02T10:15:22Z</time>
      </trkpt>
      <trkpt lat="48.44367" lon="2.18189">
        <ele>74.4</ele>
        <time>2020-07-02T10:15:23Z</time>
      </trkpt>
      <trkpt lat="48.44364" lon="2.18185">
        <ele>74.5</ele>
        <time>2020-07-02T10:15:24Z</time>
      </trkpt>
      <trkpt lat="48.44361" lon="2.18181">
        <ele>74.6</ele>
        <time>2020-07-02T10:15:25Z</time>
      </trkpt>
      <trkpt lat="48.44357" lon="2.18176">
        <ele>74.7</ele>
        <time>2020-07-02T10:15:26Z</time>
      </trkpt>
      <trkpt lat="48.44354" lon="2.18173">
        <ele>74.7</ele>
        <time>2020-07-02T10:15:27Z</time>
      </trkpt>
      <trkpt lat="48.44351" lon="2.18169">
        <ele>74.8</ele>
        <time>2020-07-02T10:15:28Z</time>
      </trkpt>
      <trkpt lat="48.44348" lon="2.18167">
        <ele>74.8</ele>
        <time>2020-07-02T10:15:29Z</time>
      </trkpt>
      <trkpt lat="48.44345" lon="2.18164">
        <ele>74.9</ele>
        <time>2020-07-02T10:15:30Z</time>
      </trkpt>
      <trkpt lat="48.44341" lon="2.18162">
        <ele>74.9</ele>
        <time>2020-07-02T10:15:31Z</time>
      </trkpt>
      <trkpt lat="48.44337" lon="2.18158">
        <ele>75</ele>
        <time>2020-07-02T10:15:32Z</time>
      </trkpt>
      <trkpt lat="48.44333" lon="2.18155">
        <ele>75.1</ele>
        <time>2020-07-02T10:15:33Z</time>
      </trkpt>
      <trkpt lat="48.4433" lon="2.18151">
        <ele>75.1</ele>
        <time>2020-07-02T10:15:34Z</time>
      </trkpt>
      <trkpt lat="48.44326" lon="2.18147">
        <ele>75.2</ele>
        <time>2020-07-02T10:15:35Z</time>
      </trkpt>
      <trkpt lat="48.44321" lon="2.18143">
        <ele>75.3</ele>
        <time>2020-07-02T10:15:36Z</time>
      </trkpt>
      <trkpt lat="48.44317" lon="2.1814">
        <ele>75.4</ele>
        <time>2020-07-02T10:15:37Z</time>
      </trkpt>
      <trkpt lat="48.44313" lon="2.18136">
        <ele>75.5</ele>
        <time>2020-07-02T10:15:38Z</time>
      </trkpt>
      <trkpt lat="48.44309" lon="2.18132">
        <ele>75.6</ele>
        <time>2020-07-02T10:15:39Z</time>
      </trkpt>
      <trkpt lat="48.44304" lon="2.18129">
        <ele>75.7</ele>
        <time>2020-07-02T10:15:40Z</time>
      </trkpt>
      <trkpt lat="48.44299" lon="2.18127">
        <ele>75.8</ele>
        <time>2020-07-02T10:15:41Z</time>
      </trkpt>
      <trkpt lat="48.44295" lon="2.18124">
        <ele>75.9</ele>
        <time>2020-07-02T10:15:42Z</time>
      </trkpt>
      <trkpt lat="48.4429" lon="2.18122">
        <ele>76</ele>
        <time>2020-07-02T10:15:43Z</time>
      </trkpt>
      <trkpt lat="48.44286" lon="2.18118">
        <ele>76.1</ele>
        <time>2020-07-02T10:15:44Z</time>
      </trkpt>
      <trkpt lat="48.44281" lon="2.18115">
        <ele>76.2</ele>
        <time>2020-07-02T10:15:45Z</time>
      </trkpt>
      <trkpt lat="48.44277" lon="2.18112">
        <ele>76.3</ele>
        <time>2020-07-02T10:15:46Z</time>
      </trkpt>
      <trkpt lat="48.44273" lon="2.1811">
        <ele>76.4</ele>
        <time>2020-07-02T10:15:47Z</time>
      </trkpt>
      <trkpt lat="48.44268" lon="2.18107">
        <ele>76.5</ele>
        <time>2020-07-02T10:15:48Z</time>
      </trkpt>
      <trkpt lat="48.44264" lon="2.18105">
        <ele>76.6</ele>
        <time>2020-07-02T10:15:49Z</time>
      </trkpt>
      <trkpt lat="48.44259" lon="2.18103">
        <ele>76.7</ele>
        <time>2020-07-02T10:15:50Z</time>
      </trkpt>
      <trkpt lat="48.44254" lon="2.18101">
        <ele>76.8</ele>
        <time>2020-07-02T10:15:51Z</time>
      </trkpt>
      <trkpt lat="48.4425" lon="2.18099">
        <ele>76.9</ele>
        <time>2020-07-02T10:15:52Z</time>
      </trkpt>
      <trkpt lat="48.44244" lon="2.18098">
        <ele>77</ele>
        <time>2020-07-02T10:15:53Z</time>
      </trkpt>
      <trkpt lat="48.44239" lon="2.18096">
        <ele>77.1</ele>
        <time>2020-07-02T10:15:54Z</time>
      </trkpt>
      <trkpt lat="48.44235" lon="2.18094">
        <ele>77.2</ele>
        <time>2020-07-02T10:15:55Z</time>
      </trkpt>
      <trkpt lat="48.4423" lon="2.18091">
        <ele>77.4</ele>
        <time>2020-07-02T10:15:56Z</time>
      </trkpt>
      <trkpt lat="48.44224" lon="2.1809">
        <ele>77.5</ele>
        <time>2020-07-02T10:15:57Z</time>
      </trkpt>
      <trkpt lat="48.44219" lon="2.18086">
        <ele>77.6</ele>
        <time>2020-07-02T10:15:58Z</time>
      </trkpt>
      <trkpt lat="48.44214" lon="2.18084">
        <ele>77.7</ele>
        <time>2020-07-02T10:15:59Z</time>
      </trkpt>
      <trkpt lat="48.44209" lon="2.18082">
        <ele>77.7</ele>
        <time>2020-07-02T10:16:00Z</time>
      </trkpt>
      <trkpt lat="48.44204" lon="2.18081">
        <ele>77.8</ele>
        <time>2020-07-02T10:16:01Z</time>
      </trkpt>
      <trkpt lat="48.44199" lon="2.18079">
        <ele>77.8</ele>
        <time>2020-07-02T10:16:02Z</time>
      </trkpt>
      <trkpt lat="48.44194" lon="2.18076">
        <ele>77.9</ele>
        <time>2020-07-02T10:16:03Z</time>
      </trkpt>
      <trkpt lat="48.44189" lon="2.18075">
        <ele>77.9</ele>
        <time>2020-07-02T10:16:04Z</time>
      </trkpt>
      <trkpt lat="48.44184" lon="2.18074">
        <ele>77.9</ele>
        <time>2020-07-02T10:16:05Z</time>
      </trkpt>
      <trkpt lat="48.44177" lon="2.18071">
        <ele>77.9</ele>
        <time>2020-07-02T10:16:06Z</time>
      </trkpt>
      <trkpt lat="48.44172" lon="2.1807">
        <ele>77.9</ele>
        <time>2020-07-02T10:16:07Z</time>
      </trkpt>
      <trkpt lat="48.44168" lon="2.18068">
        <ele>77.8</ele>
        <time>2020-07-02T10:16:08Z</time>
      </trkpt>
      <trkpt lat="48.44163" lon="2.18067">
        <ele>77.8</ele>
        <time>2020-07-02T10:16:09Z</time>
      </trkpt>
      <trkpt lat="48.44159" lon="2.18066">
        <ele>77.8</ele>
        <time>2020-07-02T10:16:10Z</time>
      </trkpt>
      <trkpt lat="48.44155" lon="2.18065">
        <ele>77.8</ele>
        <time>2020-07-02T10:16:11Z</time>
      </trkpt>
      <trkpt lat="48.4415" lon="2.18062">
        <ele>77.7</ele>
        <time>2020-07-02T10:16:12Z</time>
      </trkpt>
      <trkpt lat="48.44144" lon="2.18059">
        <ele>77.7</ele>
        <time>2020-07-02T10:16:13Z</time>
      </trkpt>
      <trkpt lat="48.44139" lon="2.18056">
        <ele>77.6</ele>
        <time>2020-07-02T10:16:14Z</time>
      </trkpt>
      <trkpt lat="48.44133" lon="2.18053">
        <ele>77.6</ele>
        <time>2020-07-02T10:16:15Z</time>
      </trkpt>
      <trkpt lat="48.44127" lon="2.18051">
        <ele>77.4</ele>
        <time>2020-07-02T10:16:16Z</time>
      </trkpt>
      <trkpt lat="48.44121" lon="2.18049">
        <ele>77.3</ele>
        <time>2020-07-02T10:16:17Z</time>
      </trkpt>
      <trkpt lat="48.44115" lon="2.18045">
        <ele>77.2</ele>
        <time>2020-07-02T10:16:18Z</time>
      </trkpt>
      <trkpt lat="48.44109" lon="2.18043">
        <ele>77</ele>
        <time>2020-07-02T10:16:19Z</time>
      </trkpt>
      <trkpt lat="48.44104" lon="2.18038">
        <ele>76.9</ele>
        <time>2020-07-02T10:16:20Z</time>
      </trkpt>
      <trkpt lat="48.44098" lon="2.18035">
        <ele>76.8</ele>
        <time>2020-07-02T10:16:21Z</time>
      </trkpt>
      <trkpt lat="48.44093" lon="2.18032">
        <ele>76.4</ele>
        <time>2020-07-02T10:16:22Z</time>
      </trkpt>
      <trkpt lat="48.44087" lon="2.18029">
        <ele>76.3</ele>
        <time>2020-07-02T10:16:23Z</time>
      </trkpt>
      <trkpt lat="48.44079" lon="2.18024">
        <ele>76</ele>
        <time>2020-07-02T10:16:24Z</time>
      </trkpt>
      <trkpt lat="48.44074" lon="2.1802">
        <ele>75.7</ele>
        <time>2020-07-02T10:16:25Z</time>
      </trkpt>
      <trkpt lat="48.44068" lon="2.18017">
        <ele>75.5</ele>
        <time>2020-07-02T10:16:26Z</time>
      </trkpt>
      <trkpt lat="48.44061" lon="2.18013">
        <ele>75.3</ele>
        <time>2020-07-02T10:16:27Z</time>
      </trkpt>
      <trkpt lat="48.44055" lon="2.1801">
        <ele>75.1</ele>
        <time>2020-07-02T10:16:28Z</time>
      </trkpt>
      <trkpt lat="48.44049" lon="2.18007">
        <ele>75</ele>
        <time>2020-07-02T10:16:29Z</time>
      </trkpt>
      <trkpt lat="48.44044" lon="2.18004">
        <ele>74.8</ele>
        <time>2020-07-02T10:16:30Z</time>
      </trkpt>
      <trkpt lat="48.4404" lon="2.18002">
        <ele>74.7</ele>
        <time>2020-07-02T10:16:31Z</time>
      </trkpt>
      <trkpt lat="48.44035" lon="2.18001">
        <ele>74.5</ele>
        <time>2020-07-02T10:16:32Z</time>
      </trkpt>
      <trkpt lat="48.44028" lon="2.18">
        <ele>74.4</ele>
        <time>2020-07-02T10:16:33Z</time>
      </trkpt>
      <trkpt lat="48.44024" lon="2.18">
        <ele>74.3</ele>
        <time>2020-07-02T10:16:34Z</time>
      </trkpt>
      <trkpt lat="48.44019" lon="2.18">
        <ele>74.2</ele>
        <time>2020-07-02T10:16:35Z</time>
      </trkpt>
      <trkpt lat="48.44014" lon="2.17999">
        <ele>74.1</ele>
        <time>2020-07-02T10:16:36Z</time>
      </trkpt>
      <trkpt lat="48.44008" lon="2.17997">
        <ele>74</ele>
        <time>2020-07-02T10:16:37Z</time>
      </trkpt>
      <trkpt lat="48.44002" lon="2.17997">
        <ele>73.8</ele>
        <time>2020-07-02T10:16:38Z</time>
      </trkpt>
      <trkpt lat="48.43997" lon="2.17997">
        <ele>73.7</ele>
        <time>2020-07-02T10:16:39Z</time>
      </trkpt>
      <trkpt lat="48.43992" lon="2.17998">
        <ele>73.6</ele>
        <time>2020-07-02T10:16:40Z</time>
      </trkpt>
      <trkpt lat="48.43987" lon="2.18">
        <ele>73.5</ele>
        <time>2020-07-02T10:16:41Z</time>
      </trkpt>
      <trkpt lat="48.43982" lon="2.18003">
        <ele>73.4</ele>
        <time>2020-07-02T10:16:42Z</time>
      </trkpt>
      <trkpt lat="48.43977" lon="2.18006">
        <ele>73.3</ele>
        <time>2020-07-02T10:16:43Z</time>
      </trkpt>
      <trkpt lat="48.43972" lon="2.18009">
        <ele>73.2</ele>
        <time>2020-07-02T10:16:44Z</time>
      </trkpt>
      <trkpt lat="48.43967" lon="2.18013">
        <ele>73.1</ele>
        <time>2020-07-02T10:16:45Z</time>
      </trkpt>
      <trkpt lat="48.43962" lon="2.18016">
        <ele>73</ele>
        <time>2020-07-02T10:16:46Z</time>
      </trkpt>
      <trkpt lat="48.43956" lon="2.18019">
        <ele>73</ele>
        <time>2020-07-02T10:16:47Z</time>
      </trkpt>
      <trkpt lat="48.4395" lon="2.18025">
        <ele>73</ele>
        <time>2020-07-02T10:16:48Z</time>
      </trkpt>
      <trkpt lat="48.43946" lon="2.18029">
        <ele>73</ele>
        <time>2020-07-02T10:16:49Z</time>
      </trkpt>
      <trkpt lat="48.43941" lon="2.18033">
        <ele>73</ele>
        <time>2020-07-02T10:16:50Z</time>
      </trkpt>
      <trkpt lat="48.43936" lon="2.18036">
        <ele>73</ele>
        <time>2020-07-02T10:16:51Z</time>
      </trkpt>
      <trkpt lat="48.43931" lon="2.18039">
        <ele>73</ele>
        <time>2020-07-02T10:16:52Z</time>
      </trkpt>
      <trkpt lat="48.43925" lon="2.18043">
        <ele>72.9</ele>
        <time>2020-07-02T10:16:53Z</time>
      </trkpt>
      <trkpt lat="48.43919" lon="2.18046">
        <ele>72.8</ele>
        <time>2020-07-02T10:16:54Z</time>
      </trkpt>
      <trkpt lat="48.43913" lon="2.18049">
        <ele>72.8</ele>
        <time>2020-07-02T10:16:55Z</time>
      </trkpt>
      <trkpt lat="48.43908" lon="2.18052">
        <ele>72.8</ele>
        <time>2020-07-02T10:16:56Z</time>
      </trkpt>
      <trkpt lat="48.43903" lon="2.18055">
        <ele>72.8</ele>
        <time>2020-07-02T10:16:57Z</time>
      </trkpt>
      <trkpt lat="48.43898" lon="2.18057">
        <ele>72.8</ele>
        <time>2020-07-02T10:16:58Z</time>
      </trkpt>
      <trkpt lat="48.43893" lon="2.1806">
        <ele>72.8</ele>
        <time>2020-07-02T10:16:59Z</time>
      </trkpt>
      <trkpt lat="48.43888" lon="2.1806">
        <ele>72.9</ele>
        <time>2020-07-02T10:17:00Z</time>
      </trkpt>
      <trkpt lat="48.43884" lon="2.1806">
        <ele>72.9</ele>
        <time>2020-07-02T10:17:01Z</time>
      </trkpt>
      <trkpt lat="48.43879" lon="2.18061">
        <ele>72.9</ele>
        <time>2020-07-02T10:17:02Z</time>
      </trkpt>
      <trkpt lat="48.43874" lon="2.18061">
        <ele>73.5</ele>
        <time>2020-07-02T10:17:03Z</time>
      </trkpt>
      <trkpt lat="48.43869" lon="2.18062">
        <ele>73.8</ele>
        <time>2020-07-02T10:17:04Z</time>
      </trkpt>
      <trkpt lat="48.43864" lon="2.18062">
        <ele>73.7</ele>
        <time>2020-07-02T10:17:05Z</time>
      </trkpt>
      <trkpt lat="48.43859" lon="2.18063">
        <ele>73.6</ele>
        <time>2020-07-02T10:17:06Z</time>
      </trkpt>
      <trkpt lat="48.43854" lon="2.18065">
        <ele>73.5</ele>
        <time>2020-07-02T10:17:07Z</time>
      </trkpt>
      <trkpt lat="48.43849" lon="2.18068">
        <ele>73.3</ele>
        <time>2020-07-02T10:17:08Z</time>
      </trkpt>
      <trkpt lat="48.43844" lon="2.18068">
        <ele>73.2</ele>
        <time>2020-07-02T10:17:09Z</time>
      </trkpt>
      <trkpt lat="48.43839" lon="2.18067">
        <ele>73.1</ele>
        <time>2020-07-02T10:17:10Z</time>
      </trkpt>
      <trkpt lat="48.43835" lon="2.18067">
        <ele>73.1</ele>
        <time>2020-07-02T10:17:11Z</time>
      </trkpt>
      <trkpt lat="48.43829" lon="2.18067">
        <ele>73.2</ele>
        <time>2020-07-02T10:17:12Z</time>
      </trkpt>
      <trkpt lat="48.43825" lon="2.18066">
        <ele>73.2</ele>
        <time>2020-07-02T10:17:13Z</time>
      </trkpt>
      <trkpt lat="48.43821" lon="2.18064">
        <ele>73.3</ele>
        <time>2020-07-02T10:17:14Z</time>
      </trkpt>
      <trkpt lat="48.43816" lon="2.18062">
        <ele>73.4</ele>
        <time>2020-07-02T10:17:15Z</time>
      </trkpt>
      <trkpt lat="48.4381" lon="2.1806">
        <ele>73.5</ele>
        <time>2020-07-02T10:17:16Z</time>
      </trkpt>
      <trkpt lat="48.43805" lon="2.18057">
        <ele>73.7</ele>
        <time>2020-07-02T10:17:17Z</time>
      </trkpt>
      <trkpt lat="48.438" lon="2.18054">
        <ele>73.8</ele>
        <time>2020-07-02T10:17:18Z</time>
      </trkpt>
      <trkpt lat="48.43796" lon="2.18051">
        <ele>73.9</ele>
        <time>2020-07-02T10:17:19Z</time>
      </trkpt>
      <trkpt lat="48.43791" lon="2.18047">
        <ele>74.1</ele>
        <time>2020-07-02T10:17:20Z</time>
      </trkpt>
      <trkpt lat="48.43787" lon="2.18045">
        <ele>74.2</ele>
        <time>2020-07-02T10:17:21Z</time>
      </trkpt>
      <trkpt lat="48.43782" lon="2.18042">
        <ele>74.3</ele>
        <time>2020-07-02T10:17:22Z</time>
      </trkpt>
      <trkpt lat="48.43778" lon="2.1804">
        <ele>74.4</ele>
        <time>2020-07-02T10:17:23Z</time>
      </trkpt>
      <trkpt lat="48.43774" lon="2.18037">
        <ele>74.5</ele>
        <time>2020-07-02T10:17:24Z</time>
      </trkpt>
      <trkpt lat="48.4377" lon="2.18034">
        <ele>74.6</ele>
        <time>2020-07-02T10:17:25Z</time>
      </trkpt>
      <trkpt lat="48.43766" lon="2.18032">
        <ele>74.7</ele>
        <time>2020-07-02T10:17:26Z</time>
      </trkpt>
      <trkpt lat="48.43762" lon="2.18029">
        <ele>74.8</ele>
        <time>2020-07-02T10:17:27Z</time>
      </trkpt>
      <trkpt lat="48.43759" lon="2.18026">
        <ele>74.9</ele>
        <time>2020-07-02T10:17:28Z</time>
      </trkpt>
      <trkpt lat="48.43755" lon="2.18023">
        <ele>75</ele>
        <time>2020-07-02T10:17:29Z</time>
      </trkpt>
      <trkpt lat="48.43751" lon="2.1802">
        <ele>75.1</ele>
        <time>2020-07-02T10:17:30Z</time>
      </trkpt>
      <trkpt lat="48.43748" lon="2.18019">
        <ele>75.2</ele>
        <time>2020-07-02T10:17:31Z</time>
      </trkpt>
      <trkpt lat="48.43744" lon="2.18017">
        <ele>75.3</ele>
        <time>2020-07-02T10:17:32Z</time>
      </trkpt>
      <trkpt lat="48.4374" lon="2.18015">
        <ele>75.3</ele>
        <time>2020-07-02T10:17:33Z</time>
      </trkpt>
      <trkpt lat="48.43736" lon="2.18014">
        <ele>75.4</ele>
        <time>2020-07-02T10:17:34Z</time>
      </trkpt>
      <trkpt lat="48.43732" lon="2.18013">
        <ele>75.5</ele>
        <time>2020-07-02T10:17:35Z</time>
      </trkpt>
      <trkpt lat="48.43728" lon="2.18011">
        <ele>75.6</ele>
        <time>2020-07-02T10:17:36Z</time>
      </trkpt>
      <trkpt lat="48.43725" lon="2.18009">
        <ele>75.7</ele>
        <time>2020-07-02T10:17:37Z</time>
      </trkpt>
      <trkpt lat="48.43721" lon="2.18007">
        <ele>75.8</ele>
        <time>2020-07-02T10:17:38Z</time>
      </trkpt>
      <trkpt lat="48.43717" lon="2.18005">
        <ele>75.9</ele>
        <time>2020-07-02T10:17:39Z</time>
      </trkpt>
      <trkpt lat="48.43713" lon="2.18004">
        <ele>76</ele>
        <time>2020-07-02T10:17:40Z</time>
      </trkpt>
      <trkpt lat="48.43708" lon="2.18002">
        <ele>76.2</ele>
        <time>2020-07-02T10:17:41Z</time>
      </trkpt>
      <trkpt lat="48.43705" lon="2.17998">
        <ele>76.2</ele>
        <time>2020-07-02T10:17:42Z</time>
      </trkpt>
      <trkpt lat="48.43701" lon="2.17997">
        <ele>76.3</ele>
        <time>2020-07-02T10:17:43Z</time>
      </trkpt>
      <trkpt lat="48.43697" lon="2.17995">
        <ele>76.5</ele>
        <time>2020-07-02T10:17:44Z</time>
      </trkpt>
      <trkpt lat="48.43694" lon="2.17993">
        <ele>76.6</ele>
        <time>2020-07-02T10:17:45Z</time>
      </trkpt>
      <trkpt lat="48.4369" lon="2.17993">
        <ele>76.6</ele>
        <time>2020-07-02T10:17:46Z</time>
      </trkpt>
      <trkpt lat="48.43685" lon="2.17991">
        <ele>76.8</ele>
        <time>2020-07-02T10:17:47Z</time>
      </trkpt>
      <trkpt lat="48.43681" lon="2.17989">
        <ele>76.9</ele>
        <time>2020-07-02T10:17:48Z</time>
      </trkpt>
      <trkpt lat="48.43677" lon="2.17986">
        <ele>77</ele>
        <time>2020-07-02T10:17:49Z</time>
      </trkpt>
      <trkpt lat="48.43672" lon="2.17984">
        <ele>77</ele>
        <time>2020-07-02T10:17:50Z</time>
      </trkpt>
      <trkpt lat="48.43668" lon="2.17982">
        <ele>77.1</ele>
        <time>2020-07-02T10:17:51Z</time>
      </trkpt>
      <trkpt lat="48.43664" lon="2.1798">
        <ele>77.2</ele>
        <time>2020-07-02T10:17:52Z</time>
      </trkpt>
      <trkpt lat="48.43659" lon="2.17977">
        <ele>77.2</ele>
        <time>2020-07-02T10:17:53Z</time>
      </trkpt>
      <trkpt lat="48.43654" lon="2.17974">
        <ele>77.2</ele>
        <time>2020-07-02T10:17:54Z</time>
      </trkpt>
      <trkpt lat="48.43648" lon="2.17971">
        <ele>77.3</ele>
        <time>2020-07-02T10:17:55Z</time>
      </trkpt>
      <trkpt lat="48.43644" lon="2.17969">
        <ele>77.3</ele>
        <time>2020-07-02T10:17:56Z</time>
      </trkpt>
      <trkpt lat="48.43639" lon="2.17966">
        <ele>77.3</ele>
        <time>2020-07-02T10:17:57Z</time>
      </trkpt>
      <trkpt lat="48.43633" lon="2.17964">
        <ele>77.4</ele>
        <time>2020-07-02T10:17:58Z</time>
      </trkpt>
      <trkpt lat="48.43628" lon="2.17962">
        <ele>77.4</ele>
        <time>2020-07-02T10:17:59Z</time>
      </trkpt>
      <trkpt lat="48.43624" lon="2.17959">
        <ele>77.4</ele>
        <time>2020-07-02T10:18:00Z</time>
      </trkpt>
      <trkpt lat="48.43618" lon="2.17957">
        <ele>77.5</ele>
        <time>2020-07-02T10:18:01Z</time>
      </trkpt>
      <trkpt lat="48.43614" lon="2.17956">
        <ele>77.5</ele>
        <time>2020-07-02T10:18:02Z</time>
      </trkpt>
      <trkpt lat="48.43609" lon="2.17953">
        <ele>77.5</ele>
        <time>2020-07-02T10:18:03Z</time>
      </trkpt>
      <trkpt lat="48.43603" lon="2.17952">
        <ele>77.5</ele>
        <time>2020-07-02T10:18:04Z</time>
      </trkpt>
      <trkpt lat="48.43598" lon="2.17949">
        <ele>77.5</ele>
        <time>2020-07-02T10:18:05Z</time>
      </trkpt>
      <trkpt lat="48.43593" lon="2.17946">
        <ele>77.5</ele>
        <time>2020-07-02T10:18:06Z</time>
      </trkpt>
      <trkpt lat="48.43588" lon="2.17944">
        <ele>77.4</ele>
        <time>2020-07-02T10:18:07Z</time>
      </trkpt>
      <trkpt lat="48.43582" lon="2.1794">
        <ele>77.4</ele>
        <time>2020-07-02T10:18:08Z</time>
      </trkpt>
      <trkpt lat="48.43576" lon="2.17938">
        <ele>77.4</ele>
        <time>2020-07-02T10:18:09Z</time>
      </trkpt>
      <trkpt lat="48.43571" lon="2.17935">
        <ele>77.3</ele>
        <time>2020-07-02T10:18:10Z</time>
      </trkpt>
      <trkpt lat="48.43565" lon="2.17933">
        <ele>77.3</ele>
        <time>2020-07-02T10:18:11Z</time>
      </trkpt>
      <trkpt lat="48.4356" lon="2.17932">
        <ele>77.2</ele>
        <time>2020-07-02T10:18:12Z</time>
      </trkpt>
      <trkpt lat="48.43554" lon="2.17932">
        <ele>77.2</ele>
        <time>2020-07-02T10:18:13Z</time>
      </trkpt>
      <trkpt lat="48.43547" lon="2.17932">
        <ele>77.1</ele>
        <time>2020-07-02T10:18:14Z</time>
      </trkpt>
      <trkpt lat="48.43541" lon="2.17933">
        <ele>77.1</ele>
        <time>2020-07-02T10:18:15Z</time>
      </trkpt>
      <trkpt lat="48.43534" lon="2.17934">
        <ele>77</ele>
        <time>2020-07-02T10:18:16Z</time>
      </trkpt>
      <trkpt lat="48.43529" lon="2.17937">
        <ele>76.9</ele>
        <time>2020-07-02T10:18:17Z</time>
      </trkpt>
      <trkpt lat="48.43521" lon="2.17937">
        <ele>76.8</ele>
        <time>2020-07-02T10:18:18Z</time>
      </trkpt>
      <trkpt lat="48.43514" lon="2.17938">
        <ele>76.7</ele>
        <time>2020-07-02T10:18:19Z</time>
      </trkpt>
      <trkpt lat="48.43507" lon="2.17938">
        <ele>76.6</ele>
        <time>2020-07-02T10:18:20Z</time>
      </trkpt>
      <trkpt lat="48.43499" lon="2.17937">
        <ele>76.5</ele>
        <time>2020-07-02T10:18:21Z</time>
      </trkpt>
      <trkpt lat="48.43492" lon="2.17937">
        <ele>76.4</ele>
        <time>2020-07-02T10:18:22Z</time>
      </trkpt>
      <trkpt lat="48.43483" lon="2.17935">
        <ele>76.3</ele>
        <time>2020-07-02T10:18:23Z</time>
      </trkpt>
      <trkpt lat="48.43476" lon="2.17934">
        <ele>76.2</ele>
        <time>2020-07-02T10:18:24Z</time>
      </trkpt>
      <trkpt lat="48.4347" lon="2.17931">
        <ele>76.2</ele>
        <time>2020-07-02T10:18:25Z</time>
      </trkpt>
      <trkpt lat="48.43464" lon="2.17929">
        <ele>76.1</ele>
        <time>2020-07-02T10:18:26Z</time>
      </trkpt>
      <trkpt lat="48.43458" lon="2.17927">
        <ele>76.1</ele>
        <time>2020-07-02T10:18:27Z</time>
      </trkpt>
      <trkpt lat="48.43451" lon="2.17924">
        <ele>76</ele>
        <time>2020-07-02T10:18:28Z</time>
      </trkpt>
      <trkpt lat="48.43445" lon="2.17921">
        <ele>75.9</ele>
        <time>2020-07-02T10:18:29Z</time>
      </trkpt>
      <trkpt lat="48.43439" lon="2.17918">
        <ele>75.8</ele>
        <time>2020-07-02T10:18:30Z</time>
      </trkpt>
      <trkpt lat="48.43434" lon="2.17914">
        <ele>75.7</ele>
        <time>2020-07-02T10:18:31Z</time>
      </trkpt>
      <trkpt lat="48.43428" lon="2.1791">
        <ele>75.7</ele>
        <time>2020-07-02T10:18:32Z</time>
      </trkpt>
      <trkpt lat="48.43423" lon="2.17906">
        <ele>75.6</ele>
        <time>2020-07-02T10:18:33Z</time>
      </trkpt>
      <trkpt lat="48.43419" lon="2.17901">
        <ele>75.6</ele>
        <time>2020-07-02T10:18:34Z</time>
      </trkpt>
      <trkpt lat="48.43414" lon="2.17896">
        <ele>75.6</ele>
        <time>2020-07-02T10:18:35Z</time>
      </trkpt>
      <trkpt lat="48.4341" lon="2.17892">
        <ele>75.6</ele>
        <time>2020-07-02T10:18:36Z</time>
      </trkpt>
      <trkpt lat="48.43406" lon="2.17887">
        <ele>75.5</ele>
        <time>2020-07-02T10:18:37Z</time>
      </trkpt>
      <trkpt lat="48.43402" lon="2.17883">
        <ele>75.5</ele>
        <time>2020-07-02T10:18:38Z</time>
      </trkpt>
      <trkpt lat="48.43399" lon="2.17879">
        <ele>75.5</ele>
        <time>2020-07-02T10:18:39Z</time>
      </trkpt>
      <trkpt lat="48.43395" lon="2.17874">
        <ele>75.5</ele>
        <time>2020-07-02T10:18:40Z</time>
      </trkpt>
      <trkpt lat="48.43392" lon="2.17868">
        <ele>75.5</ele>
        <time>2020-07-02T10:18:41Z</time>
      </trkpt>
      <trkpt lat="48.43388" lon="2.17863">
        <ele>75.5</ele>
        <time>2020-07-02T10:18:42Z</time>
      </trkpt>
      <trkpt lat="48.43385" lon="2.17857">
        <ele>75.6</ele>
        <time>2020-07-02T10:18:43Z</time>
      </trkpt>
      <trkpt lat="48.43381" lon="2.17852">
        <ele>75.6</ele>
        <time>2020-07-02T10:18:44Z</time>
      </trkpt>
      <trkpt lat="48.43378" lon="2.17846">
        <ele>75.6</ele>
        <time>2020-07-02T10:18:45Z</time>
      </trkpt>
      <trkpt lat="48.43375" lon="2.17841">
        <ele>75.6</ele>
        <time>2020-07-02T10:18:46Z</time>
      </trkpt>
      <trkpt lat="48.43372" lon="2.17834">
        <ele>75.7</ele>
        <time>2020-07-02T10:18:47Z</time>
      </trkpt>
      <trkpt lat="48.43369" lon="2.17828">
        <ele>75.8</ele>
        <time>2020-07-02T10:18:48Z</time>
      </trkpt>
      <trkpt lat="48.43366" lon="2.17822">
        <ele>75.9</ele>
        <time>2020-07-02T10:18:49Z</time>
      </trkpt>
      <trkpt lat="48.43364" lon="2.17814">
        <ele>76</ele>
        <time>2020-07-02T10:18:50Z</time>
      </trkpt>
      <trkpt lat="48.43362" lon="2.17807">
        <ele>76.2</ele>
        <time>2020-07-02T10:18:51Z</time>
      </trkpt>
      <trkpt lat="48.43359" lon="2.17801">
        <ele>76.3</ele>
        <time>2020-07-02T10:18:52Z</time>
      </trkpt>
      <trkpt lat="48.43357" lon="2.17795">
        <ele>76.4</ele>
        <time>2020-07-02T10:18:53Z</time>
      </trkpt>
      <trkpt lat="48.43354" lon="2.17789">
        <ele>76.5</ele>
        <time>2020-07-02T10:18:54Z</time>
      </trkpt>
      <trkpt lat="48.43351" lon="2.17783">
        <ele>76.7</ele>
        <time>2020-07-02T10:18:55Z</time>
      </trkpt>
      <trkpt lat="48.43348" lon="2.17777">
        <ele>76.8</ele>
        <time>2020-07-02T10:18:56Z</time>
      </trkpt>
      <trkpt lat="48.43346" lon="2.1777">
        <ele>76.9</ele>
        <time>2020-07-02T10:18:57Z</time>
      </trkpt>
      <trkpt lat="48.43343" lon="2.17764">
        <ele>77</ele>
        <time>2020-07-02T10:18:58Z</time>
      </trkpt>
      <trkpt lat="48.43341" lon="2.17758">
        <ele>77.2</ele>
        <time>2020-07-02T10:18:59Z</time>
      </trkpt>
      <trkpt lat="48.43339" lon="2.17752">
        <ele>77.3</ele>
        <time>2020-07-02T10:19:00Z</time>
      </trkpt>
      <trkpt lat="48.43336" lon="2.17745">
        <ele>77.4</ele>
        <time>2020-07-02T10:19:01Z</time>
      </trkpt>
      <trkpt lat="48.43334" lon="2.17739">
        <ele>77.6</ele>
        <time>2020-07-02T10:19:02Z</time>
      </trkpt>
      <trkpt lat="48.43331" lon="2.17732">
        <ele>77.8</ele>
        <time>2020-07-02T10:19:03Z</time>
      </trkpt>
      <trkpt lat="48.43328" lon="2.17726">
        <ele>77.9</ele>
        <time>2020-07-02T10:19:04Z</time>
      </trkpt>
      <trkpt lat="48.43326" lon="2.17719">
        <ele>78.1</ele>
        <time>2020-07-02T10:19:05Z</time>
      </trkpt>
      <trkpt lat="48.43324" lon="2.17712">
        <ele>78.3</ele>
        <time>2020-07-02T10:19:06Z</time>
      </trkpt>
      <trkpt lat="48.43322" lon="2.17706">
        <ele>78.4</ele>
        <time>2020-07-02T10:19:07Z</time>
      </trkpt>
      <trkpt lat="48.43319" lon="2.177">
        <ele>78.6</ele>
        <time>2020-07-02T10:19:08Z</time>
      </trkpt>
      <trkpt lat="48.43316" lon="2.17693">
        <ele>78.8</ele>
        <time>2020-07-02T10:19:09Z</time>
      </trkpt>
      <trkpt lat="48.43313" lon="2.17688">
        <ele>78.9</ele>
        <time>2020-07-02T10:19:10Z</time>
      </trkpt>
      <trkpt lat="48.4331" lon="2.17682">
        <ele>79</ele>
        <time>2020-07-02T10:19:11Z</time>
      </trkpt>
      <trkpt lat="48.43307" lon="2.1768">
        <ele>79.1</ele>
        <time>2020-07-02T10:19:12Z</time>
      </trkpt>
      <trkpt lat="48.43303" lon="2.17675">
        <ele>79.2</ele>
        <time>2020-07-02T10:19:13Z</time>
      </trkpt>
      <trkpt lat="48.433" lon="2.17672">
        <ele>79.3</ele>
        <time>2020-07-02T10:19:14Z</time>
      </trkpt>
      <trkpt lat="48.43296" lon="2.17667">
        <ele>79.4</ele>
        <time>2020-07-02T10:19:15Z</time>
      </trkpt>
      <trkpt lat="48.43293" lon="2.17663">
        <ele>79.7</ele>
        <time>2020-07-02T10:19:16Z</time>
      </trkpt>
      <trkpt lat="48.4329" lon="2.17659">
        <ele>79.7</ele>
        <time>2020-07-02T10:19:17Z</time>
      </trkpt>
      <trkpt lat="48.43288" lon="2.17655">
        <ele>79.7</ele>
        <time>2020-07-02T10:19:18Z</time>
      </trkpt>
      <trkpt lat="48.43287" lon="2.17649">
        <ele>79.7</ele>
        <time>2020-07-02T10:19:19Z</time>
      </trkpt>
      <trkpt lat="48.43287" lon="2.17645">
        <ele>79.6</ele>
        <time>2020-07-02T10:19:20Z</time>
      </trkpt>
      <trkpt lat="48.43287" lon="2.1764">
        <ele>79.6</ele>
        <time>2020-07-02T10:19:21Z</time>
      </trkpt>
      <trkpt lat="48.43287" lon="2.17634">
        <ele>79.6</ele>
        <time>2020-07-02T10:19:22Z</time>
      </trkpt>
      <trkpt lat="48.43286" lon="2.17628">
        <ele>79.5</ele>
        <time>2020-07-02T10:19:23Z</time>
      </trkpt>
      <trkpt lat="48.43286" lon="2.17622">
        <ele>79.5</ele>
        <time>2020-07-02T10:19:24Z</time>
      </trkpt>
      <trkpt lat="48.43286" lon="2.17616">
        <ele>79.4</ele>
        <time>2020-07-02T10:19:25Z</time>
      </trkpt>
      <trkpt lat="48.43286" lon="2.17611">
        <ele>79.3</ele>
        <time>2020-07-02T10:19:26Z</time>
      </trkpt>
      <trkpt lat="48.43287" lon="2.17607">
        <ele>79.3</ele>
        <time>2020-07-02T10:19:27Z</time>
      </trkpt>
      <trkpt lat="48.43287" lon="2.17602">
        <ele>79.2</ele>
        <time>2020-07-02T10:19:28Z</time>
      </trkpt>
      <trkpt lat="48.43288" lon="2.17598">
        <ele>79.2</ele>
        <time>2020-07-02T10:19:29Z</time>
      </trkpt>
      <trkpt lat="48.43289" lon="2.17597">
        <ele>79.1</ele>
        <time>2020-07-02T10:19:30Z</time>
      </trkpt>
      <trkpt lat="48.43289" lon="2.17595">
        <ele>79.1</ele>
        <time>2020-07-02T10:19:31Z</time>
      </trkpt>
      <trkpt lat="48.43289" lon="2.17595">
        <ele>79.1</ele>
        <time>2020-07-02T10:19:32Z</time>
      </trkpt>
      <trkpt lat="48.43289" lon="2.17593">
        <ele>79.1</ele>
        <time>2020-07-02T10:19:33Z</time>
      </trkpt>
      <trkpt lat="48.43289" lon="2.17592">
        <ele>79.1</ele>
        <time>2020-07-02T10:19:34Z</time>
      </trkpt>
      <trkpt lat="48.43289" lon="2.17594">
        <ele>79.1</ele>
        <time>2020-07-02T10:19:35Z</time>
      </trkpt>
      <trkpt lat="48.43288" lon="2.17592">
        <ele>79.1</ele>
        <time>2020-07-02T10:19:36Z</time>
      </trkpt>
      <trkpt lat="48.43289" lon="2.17592">
        <ele>79.1</ele>
        <time>2020-07-02T10:19:37Z</time>
      </trkpt>
      <trkpt lat="48.43289" lon="2.17591">
        <ele>79.1</ele>
        <time>2020-07-02T10:19:38Z</time>
      </trkpt>
      <trkpt lat="48.43289" lon="2.17592">
        <ele>79.1</ele>
        <time>2020-07-02T10:19:39Z</time>
      </trkpt>
      <trkpt lat="48.43289" lon="2.17592">
        <ele>79.1</ele>
        <time>2020-07-02T10:19:40Z</time>
      </trkpt>
      <trkpt lat="48.43289" lon="2.17592">
        <ele>79.1</ele>
        <time>2020-07-02T10:19:41Z</time>
      </trkpt>
      <trkpt lat="48.43289" lon="2.17591">
        <ele>79.1</ele>
        <time>2020-07-02T10:19:42Z</time>
      </trkpt>
      <trkpt lat="48.43288" lon="2.17592">
        <ele>79.1</ele>
        <time>2020-07-02T10:19:43Z</time>
      </trkpt>
      <trkpt lat="48.43289" lon="2.17588">
        <ele>79.1</ele>
        <time>2020-07-02T10:19:44Z</time>
      </trkpt>
      <trkpt lat="48.43289" lon="2.17584">
        <ele>79.1</ele>
        <time>2020-07-02T10:19:45Z</time>
      </trkpt>
      <trkpt lat="48.43289" lon="2.17583">
        <ele>79.1</ele>
        <time>2020-07-02T10:19:46Z</time>
      </trkpt>
      <trkpt lat="48.4329" lon="2.17578">
        <ele>79</ele>
        <time>2020-07-02T10:19:47Z</time>
      </trkpt>
      <trkpt lat="48.4329" lon="2.17577">
        <ele>79</ele>
        <time>2020-07-02T10:19:48Z</time>
      </trkpt>
      <trkpt lat="48.4329" lon="2.17572">
        <ele>79</ele>
        <time>2020-07-02T10:19:49Z</time>
      </trkpt>
      <trkpt lat="48.4329" lon="2.17571">
        <ele>79</ele>
        <time>2020-07-02T10:19:50Z</time>
      </trkpt>
      <trkpt lat="48.4329" lon="2.1757">
        <ele>79</ele>
        <time>2020-07-02T10:19:51Z</time>
      </trkpt>
      <trkpt lat="48.4329" lon="2.17569">
        <ele>79</ele>
        <time>2020-07-02T10:19:52Z</time>
      </trkpt>
      <trkpt lat="48.43289" lon="2.17569">
        <ele>79</ele>
        <time>2020-07-02T10:19:53Z</time>
      </trkpt>
      <trkpt lat="48.43289" lon="2.17569">
        <ele>79</ele>
        <time>2020-07-02T10:19:54Z</time>
      </trkpt>
      <trkpt lat="48.4329" lon="2.17568">
        <ele>79</ele>
        <time>2020-07-02T10:19:55Z</time>
      </trkpt>
      <trkpt lat="48.43289" lon="2.17569">
        <ele>79</ele>
        <time>2020-07-02T10:19:56Z</time>
      </trkpt>
      <trkpt lat="48.43289" lon="2.17569">
        <ele>79</ele>
        <time>2020-07-02T10:19:57Z</time>
      </trkpt>
      <trkpt lat="48.43289" lon="2.17569">
        <ele>79</ele>
        <time>2020-07-02T10:19:58Z</time>
      </trkpt>
      <trkpt lat="48.43289" lon="2.17568">
        <ele>79</ele>
        <time>2020-07-02T10:19:59Z</time>
      </trkpt>
      <trkpt lat="48.43288" lon="2.17564">
        <ele>78.9</ele>
        <time>2020-07-02T10:20:00Z</time>
      </trkpt>
      <trkpt lat="48.43286" lon="2.1756">
        <ele>78.9</ele>
        <time>2020-07-02T10:20:01Z</time>
      </trkpt>
      <trkpt lat="48.43282" lon="2.17559">
        <ele>78.9</ele>
        <time>2020-07-02T10:20:02Z</time>
      </trkpt>
      <trkpt lat="48.43278" lon="2.17559">
        <ele>78.8</ele>
        <time>2020-07-02T10:20:03Z</time>
      </trkpt>
      <trkpt lat="48.43273" lon="2.17559">
        <ele>78.5</ele>
        <time>2020-07-02T10:20:04Z</time>
      </trkpt>
      <trkpt lat="48.43268" lon="2.17557">
        <ele>78.2</ele>
        <time>2020-07-02T10:20:05Z</time>
      </trkpt>
      <trkpt lat="48.43264" lon="2.17553">
        <ele>77.8</ele>
        <time>2020-07-02T10:20:06Z</time>
      </trkpt>
      <trkpt lat="48.43259" lon="2.17547">
        <ele>77.8</ele>
        <time>2020-07-02T10:20:07Z</time>
      </trkpt>
      <trkpt lat="48.43254" lon="2.17542">
        <ele>77.6</ele>
        <time>2020-07-02T10:20:08Z</time>
      </trkpt>
      <trkpt lat="48.43249" lon="2.17537">
        <ele>77.5</ele>
        <time>2020-07-02T10:20:09Z</time>
      </trkpt>
      <trkpt lat="48.43245" lon="2.17532">
        <ele>77.4</ele>
        <time>2020-07-02T10:20:10Z</time>
      </trkpt>
      <trkpt lat="48.43238" lon="2.17526">
        <ele>77.2</ele>
        <time>2020-07-02T10:20:11Z</time>
      </trkpt>
      <trkpt lat="48.43234" lon="2.17521">
        <ele>77.1</ele>
        <time>2020-07-02T10:20:12Z</time>
      </trkpt>
      <trkpt lat="48.43229" lon="2.17516">
        <ele>77</ele>
        <time>2020-07-02T10:20:13Z</time>
      </trkpt>
      <trkpt lat="48.43224" lon="2.17511">
        <ele>76.9</ele>
        <time>2020-07-02T10:20:14Z</time>
      </trkpt>
      <trkpt lat="48.43219" lon="2.17508">
        <ele>76.8</ele>
        <time>2020-07-02T10:20:15Z</time>
      </trkpt>
      <trkpt lat="48.43212" lon="2.17504">
        <ele>76.7</ele>
        <time>2020-07-02T10:20:16Z</time>
      </trkpt>
      <trkpt lat="48.43208" lon="2.175">
        <ele>76.6</ele>
        <time>2020-07-02T10:20:17Z</time>
      </trkpt>
      <trkpt lat="48.432" lon="2.17496">
        <ele>76.5</ele>
        <time>2020-07-02T10:20:18Z</time>
      </trkpt>
      <trkpt lat="48.43193" lon="2.17492">
        <ele>76.4</ele>
        <time>2020-07-02T10:20:19Z</time>
      </trkpt>
      <trkpt lat="48.43188" lon="2.17489">
        <ele>76.3</ele>
        <time>2020-07-02T10:20:20Z</time>
      </trkpt>
      <trkpt lat="48.43184" lon="2.17487">
        <ele>76.2</ele>
        <time>2020-07-02T10:20:21Z</time>
      </trkpt>
      <trkpt lat="48.43179" lon="2.17485">
        <ele>76.2</ele>
        <time>2020-07-02T10:20:22Z</time>
      </trkpt>
      <trkpt lat="48.43174" lon="2.17481">
        <ele>76.2</ele>
        <time>2020-07-02T10:20:23Z</time>
      </trkpt>
      <trkpt lat="48.43169" lon="2.17477">
        <ele>76.2</ele>
        <time>2020-07-02T10:20:24Z</time>
      </trkpt>
      <trkpt lat="48.43162" lon="2.17473">
        <ele>76.2</ele>
        <time>2020-07-02T10:20:25Z</time>
      </trkpt>
      <trkpt lat="48.43155" lon="2.17469">
        <ele>76.2</ele>
        <time>2020-07-02T10:20:26Z</time>
      </trkpt>
      <trkpt lat="48.4315" lon="2.17465">
        <ele>76.2</ele>
        <time>2020-07-02T10:20:27Z</time>
      </trkpt>
      <trkpt lat="48.43145" lon="2.17459">
        <ele>76.2</ele>
        <time>2020-07-02T10:20:28Z</time>
      </trkpt>
      <trkpt lat="48.4314" lon="2.17454">
        <ele>76.1</ele>
        <time>2020-07-02T10:20:29Z</time>
      </trkpt>
      <trkpt lat="48.43133" lon="2.17448">
        <ele>76.1</ele>
        <time>2020-07-02T10:20:30Z</time>
      </trkpt>
      <trkpt lat="48.43128" lon="2.17445">
        <ele>76</ele>
        <time>2020-07-02T10:20:31Z</time>
      </trkpt>
      <trkpt lat="48.43122" lon="2.17441">
        <ele>76</ele>
        <time>2020-07-02T10:20:32Z</time>
      </trkpt>
      <trkpt lat="48.43117" lon="2.17438">
        <ele>76</ele>
        <time>2020-07-02T10:20:33Z</time>
      </trkpt>
      <trkpt lat="48.43111" lon="2.17434">
        <ele>75.9</ele>
        <time>2020-07-02T10:20:34Z</time>
      </trkpt>
      <trkpt lat="48.43105" lon="2.17431">
        <ele>75.9</ele>
        <time>2020-07-02T10:20:35Z</time>
      </trkpt>
      <trkpt lat="48.43099" lon="2.17428">
        <ele>75.9</ele>
        <time>2020-07-02T10:20:36Z</time>
      </trkpt>
      <trkpt lat="48.43093" lon="2.17424">
        <ele>75.9</ele>
        <time>2020-07-02T10:20:37Z</time>
      </trkpt>
      <trkpt lat="48.43088" lon="2.17422">
        <ele>75.9</ele>
        <time>2020-07-02T10:20:38Z</time>
      </trkpt>
      <trkpt lat="48.43082" lon="2.17418">
        <ele>76</ele>
        <time>2020-07-02T10:20:39Z</time>
      </trkpt>
      <trkpt lat="48.43077" lon="2.17412">
        <ele>76</ele>
        <time>2020-07-02T10:20:40Z</time>
      </trkpt>
      <trkpt lat="48.43074" lon="2.17409">
        <ele>76</ele>
        <time>2020-07-02T10:20:41Z</time>
      </trkpt>
      <trkpt lat="48.4307" lon="2.17403">
        <ele>76</ele>
        <time>2020-07-02T10:20:42Z</time>
      </trkpt>
      <trkpt lat="48.43065" lon="2.17397">
        <ele>76</ele>
        <time>2020-07-02T10:20:43Z</time>
      </trkpt>
      <trkpt lat="48.43061" lon="2.17392">
        <ele>76</ele>
        <time>2020-07-02T10:20:44Z</time>
      </trkpt>
      <trkpt lat="48.43057" lon="2.17385">
        <ele>75.9</ele>
        <time>2020-07-02T10:20:45Z</time>
      </trkpt>
      <trkpt lat="48.43053" lon="2.1738">
        <ele>75.9</ele>
        <time>2020-07-02T10:20:46Z</time>
      </trkpt>
      <trkpt lat="48.43049" lon="2.17375">
        <ele>75.9</ele>
        <time>2020-07-02T10:20:47Z</time>
      </trkpt>
      <trkpt lat="48.43042" lon="2.17368">
        <ele>75.9</ele>
        <time>2020-07-02T10:20:48Z</time>
      </trkpt>
      <trkpt lat="48.43037" lon="2.17361">
        <ele>75.9</ele>
        <time>2020-07-02T10:20:49Z</time>
      </trkpt>
      <trkpt lat="48.43033" lon="2.17355">
        <ele>75.9</ele>
        <time>2020-07-02T10:20:50Z</time>
      </trkpt>
      <trkpt lat="48.43027" lon="2.17349">
        <ele>75.9</ele>
        <time>2020-07-02T10:20:51Z</time>
      </trkpt>
      <trkpt lat="48.43022" lon="2.17344">
        <ele>75.9</ele>
        <time>2020-07-02T10:20:52Z</time>
      </trkpt>
      <trkpt lat="48.43016" lon="2.17339">
        <ele>75.9</ele>
        <time>2020-07-02T10:20:53Z</time>
      </trkpt>
      <trkpt lat="48.4301" lon="2.17336">
        <ele>75.9</ele>
        <time>2020-07-02T10:20:54Z</time>
      </trkpt>
      <trkpt lat="48.43005" lon="2.17332">
        <ele>75.8</ele>
        <time>2020-07-02T10:20:55Z</time>
      </trkpt>
      <trkpt lat="48.43002" lon="2.17329">
        <ele>75.8</ele>
        <time>2020-07-02T10:20:56Z</time>
      </trkpt>
      <trkpt lat="48.42999" lon="2.17326">
        <ele>75.8</ele>
        <time>2020-07-02T10:20:57Z</time>
      </trkpt>
      <trkpt lat="48.42998" lon="2.17325">
        <ele>75.8</ele>
        <time>2020-07-02T10:20:58Z</time>
      </trkpt>
      <trkpt lat="48.42997" lon="2.17319">
        <ele>75.8</ele>
        <time>2020-07-02T10:20:59Z</time>
      </trkpt>
      <trkpt lat="48.42998" lon="2.17316">
        <ele>75.8</ele>
        <time>2020-07-02T10:21:00Z</time>
      </trkpt>
      <trkpt lat="48.42999" lon="2.1731">
        <ele>75.8</ele>
        <time>2020-07-02T10:21:01Z</time>
      </trkpt>
      <trkpt lat="48.42998" lon="2.17305">
        <ele>75.8</ele>
        <time>2020-07-02T10:21:02Z</time>
      </trkpt>
      <trkpt lat="48.42999" lon="2.17305">
        <ele>75.8</ele>
        <time>2020-07-02T10:21:03Z</time>
      </trkpt>
      <trkpt lat="48.42998" lon="2.17304">
        <ele>75.7</ele>
        <time>2020-07-02T10:21:04Z</time>
      </trkpt>
      <trkpt lat="48.42998" lon="2.17304">
        <ele>75.7</ele>
        <time>2020-07-02T10:21:05Z</time>
      </trkpt>
      <trkpt lat="48.42998" lon="2.17304">
        <ele>75.7</ele>
        <time>2020-07-02T10:21:06Z</time>
      </trkpt>
      <trkpt lat="48.42998" lon="2.17304">
        <ele>75.7</ele>
        <time>2020-07-02T10:21:07Z</time>
      </trkpt>
      <trkpt lat="48.42997" lon="2.17304">
        <ele>75.7</ele>
        <time>2020-07-02T10:21:08Z</time>
      </trkpt>
      <trkpt lat="48.42995" lon="2.17306">
        <ele>75.7</ele>
        <time>2020-07-02T10:21:09Z</time>
      </trkpt>
      <trkpt lat="48.42993" lon="2.17308">
        <ele>75.7</ele>
        <time>2020-07-02T10:21:10Z</time>
      </trkpt>
      <trkpt lat="48.42991" lon="2.1731">
        <ele>75.8</ele>
        <time>2020-07-02T10:21:11Z</time>
      </trkpt>
      <trkpt lat="48.42988" lon="2.17312">
        <ele>75.8</ele>
        <time>2020-07-02T10:21:12Z</time>
      </trkpt>
      <trkpt lat="48.42984" lon="2.17311">
        <ele>75.9</ele>
        <time>2020-07-02T10:21:13Z</time>
      </trkpt>
      <trkpt lat="48.42981" lon="2.1731">
        <ele>76</ele>
        <time>2020-07-02T10:21:14Z</time>
      </trkpt>
      <trkpt lat="48.42976" lon="2.17308">
        <ele>76</ele>
        <time>2020-07-02T10:21:15Z</time>
      </trkpt>
      <trkpt lat="48.42971" lon="2.17306">
        <ele>76.1</ele>
        <time>2020-07-02T10:21:16Z</time>
      </trkpt>
      <trkpt lat="48.42967" lon="2.17304">
        <ele>76.3</ele>
        <time>2020-07-02T10:21:17Z</time>
      </trkpt>
      <trkpt lat="48.42963" lon="2.17303">
        <ele>76.3</ele>
        <time>2020-07-02T10:21:18Z</time>
      </trkpt>
      <trkpt lat="48.42958" lon="2.17302">
        <ele>76.4</ele>
        <time>2020-07-02T10:21:19Z</time>
      </trkpt>
      <trkpt lat="48.42951" lon="2.17298">
        <ele>76.6</ele>
        <time>2020-07-02T10:21:20Z</time>
      </trkpt>
      <trkpt lat="48.42948" lon="2.17296">
        <ele>76.7</ele>
        <time>2020-07-02T10:21:21Z</time>
      </trkpt>
      <trkpt lat="48.42944" lon="2.17294">
        <ele>76.7</ele>
        <time>2020-07-02T10:21:22Z</time>
      </trkpt>
      <trkpt lat="48.4294" lon="2.17293">
        <ele>76.8</ele>
        <time>2020-07-02T10:21:23Z</time>
      </trkpt>
      <trkpt lat="48.42936" lon="2.17291">
        <ele>76.9</ele>
        <time>2020-07-02T10:21:24Z</time>
      </trkpt>
      <trkpt lat="48.42933" lon="2.1729">
        <ele>77</ele>
        <time>2020-07-02T10:21:25Z</time>
      </trkpt>
      <trkpt lat="48.42929" lon="2.17288">
        <ele>77</ele>
        <time>2020-07-02T10:21:26Z</time>
      </trkpt>
      <trkpt lat="48.42925" lon="2.17286">
        <ele>77.1</ele>
        <time>2020-07-02T10:21:27Z</time>
      </trkpt>
      <trkpt lat="48.42922" lon="2.17285">
        <ele>77.2</ele>
        <time>2020-07-02T10:21:28Z</time>
      </trkpt>
      <trkpt lat="48.42919" lon="2.17283">
        <ele>77.2</ele>
        <time>2020-07-02T10:21:29Z</time>
      </trkpt>
      <trkpt lat="48.42915" lon="2.17282">
        <ele>77.2</ele>
        <time>2020-07-02T10:21:30Z</time>
      </trkpt>
      <trkpt lat="48.42912" lon="2.1728">
        <ele>77.3</ele>
        <time>2020-07-02T10:21:31Z</time>
      </trkpt>
      <trkpt lat="48.4291" lon="2.17277">
        <ele>77.2</ele>
        <time>2020-07-02T10:21:32Z</time>
      </trkpt>
      <trkpt lat="48.42907" lon="2.17271">
        <ele>77.2</ele>
        <time>2020-07-02T10:21:33Z</time>
      </trkpt>
      <trkpt lat="48.42903" lon="2.17264">
        <ele>77.1</ele>
        <time>2020-07-02T10:21:34Z</time>
      </trkpt>
      <trkpt lat="48.42899" lon="2.17258">
        <ele>77.1</ele>
        <time>2020-07-02T10:21:35Z</time>
      </trkpt>
      <trkpt lat="48.42896" lon="2.17251">
        <ele>77.1</ele>
        <time>2020-07-02T10:21:36Z</time>
      </trkpt>
      <trkpt lat="48.42893" lon="2.17245">
        <ele>77.1</ele>
        <time>2020-07-02T10:21:37Z</time>
      </trkpt>
      <trkpt lat="48.42889" lon="2.1724">
        <ele>77.1</ele>
        <time>2020-07-02T10:21:38Z</time>
      </trkpt>
      <trkpt lat="48.42885" lon="2.17234">
        <ele>77.1</ele>
        <time>2020-07-02T10:21:39Z</time>
      </trkpt>
      <trkpt lat="48.42881" lon="2.17228">
        <ele>77.1</ele>
        <time>2020-07-02T10:21:40Z</time>
      </trkpt>
      <trkpt lat="48.4288" lon="2.1722">
        <ele>77.1</ele>
        <time>2020-07-02T10:21:41Z</time>
      </trkpt>
      <trkpt lat="48.42876" lon="2.17215">
        <ele>77.1</ele>
        <time>2020-07-02T10:21:42Z</time>
      </trkpt>
      <trkpt lat="48.42873" lon="2.17207">
        <ele>77.1</ele>
        <time>2020-07-02T10:21:43Z</time>
      </trkpt>
      <trkpt lat="48.42869" lon="2.17202">
        <ele>77.2</ele>
        <time>2020-07-02T10:21:44Z</time>
      </trkpt>
      <trkpt lat="48.42866" lon="2.17197">
        <ele>77.2</ele>
        <time>2020-07-02T10:21:45Z</time>
      </trkpt>
      <trkpt lat="48.42862" lon="2.17191">
        <ele>77.2</ele>
        <time>2020-07-02T10:21:46Z</time>
      </trkpt>
      <trkpt lat="48.42858" lon="2.17185">
        <ele>77.2</ele>
        <time>2020-07-02T10:21:47Z</time>
      </trkpt>
      <trkpt lat="48.42853" lon="2.17178">
        <ele>77.2</ele>
        <time>2020-07-02T10:21:48Z</time>
      </trkpt>
      <trkpt lat="48.42848" lon="2.17172">
        <ele>77.1</ele>
        <time>2020-07-02T10:21:49Z</time>
      </trkpt>
      <trkpt lat="48.42845" lon="2.17165">
        <ele>77.1</ele>
        <time>2020-07-02T10:21:50Z</time>
      </trkpt>
      <trkpt lat="48.42841" lon="2.1716">
        <ele>77</ele>
        <time>2020-07-02T10:21:51Z</time>
      </trkpt>
      <trkpt lat="48.42838" lon="2.17154">
        <ele>77</ele>
        <time>2020-07-02T10:21:52Z</time>
      </trkpt>
      <trkpt lat="48.42835" lon="2.17147">
        <ele>77</ele>
        <time>2020-07-02T10:21:53Z</time>
      </trkpt>
      <trkpt lat="48.42832" lon="2.17139">
        <ele>76.9</ele>
        <time>2020-07-02T10:21:54Z</time>
      </trkpt>
      <trkpt lat="48.42829" lon="2.17132">
        <ele>76.7</ele>
        <time>2020-07-02T10:21:55Z</time>
      </trkpt>
      <trkpt lat="48.42826" lon="2.17123">
        <ele>76.5</ele>
        <time>2020-07-02T10:21:56Z</time>
      </trkpt>
      <trkpt lat="48.42823" lon="2.17113">
        <ele>76.2</ele>
        <time>2020-07-02T10:21:57Z</time>
      </trkpt>
      <trkpt lat="48.4282" lon="2.17105">
        <ele>76</ele>
        <time>2020-07-02T10:21:58Z</time>
      </trkpt>
      <trkpt lat="48.42818" lon="2.17095">
        <ele>75.7</ele>
        <time>2020-07-02T10:21:59Z</time>
      </trkpt>
      <trkpt lat="48.42814" lon="2.17086">
        <ele>75.5</ele>
        <time>2020-07-02T10:22:00Z</time>
      </trkpt>
      <trkpt lat="48.42811" lon="2.17075">
        <ele>75.2</ele>
        <time>2020-07-02T10:22:01Z</time>
      </trkpt>
      <trkpt lat="48.42807" lon="2.17063">
        <ele>74.9</ele>
        <time>2020-07-02T10:22:02Z</time>
      </trkpt>
      <trkpt lat="48.42802" lon="2.1705">
        <ele>74.6</ele>
        <time>2020-07-02T10:22:03Z</time>
      </trkpt>
      <trkpt lat="48.42798" lon="2.17037">
        <ele>74.2</ele>
        <time>2020-07-02T10:22:04Z</time>
      </trkpt>
      <trkpt lat="48.42795" lon="2.17025">
        <ele>73.8</ele>
        <time>2020-07-02T10:22:05Z</time>
      </trkpt>
      <trkpt lat="48.42792" lon="2.17011">
        <ele>73.6</ele>
        <time>2020-07-02T10:22:06Z</time>
      </trkpt>
      <trkpt lat="48.4279" lon="2.17">
        <ele>73.2</ele>
        <time>2020-07-02T10:22:07Z</time>
      </trkpt>
      <trkpt lat="48.42787" lon="2.16987">
        <ele>72.9</ele>
        <time>2020-07-02T10:22:08Z</time>
      </trkpt>
      <trkpt lat="48.42784" lon="2.16974">
        <ele>72.5</ele>
        <time>2020-07-02T10:22:09Z</time>
      </trkpt>
      <trkpt lat="48.42781" lon="2.16961">
        <ele>72.2</ele>
        <time>2020-07-02T10:22:10Z</time>
      </trkpt>
      <trkpt lat="48.42779" lon="2.16946">
        <ele>71.8</ele>
        <time>2020-07-02T10:22:11Z</time>
      </trkpt>
      <trkpt lat="48.42776" lon="2.16933">
        <ele>71.5</ele>
        <time>2020-07-02T10:22:12Z</time>
      </trkpt>
      <trkpt lat="48.42773" lon="2.16922">
        <ele>71.4</ele>
        <time>2020-07-02T10:22:13Z</time>
      </trkpt>
      <trkpt lat="48.42769" lon="2.16914">
        <ele>71.3</ele>
        <time>2020-07-02T10:22:14Z</time>
      </trkpt>
      <trkpt lat="48.42765" lon="2.16907">
        <ele>71.3</ele>
        <time>2020-07-02T10:22:15Z</time>
      </trkpt>
      <trkpt lat="48.42761" lon="2.16902">
        <ele>71.2</ele>
        <time>2020-07-02T10:22:16Z</time>
      </trkpt>
      <trkpt lat="48.42757" lon="2.16897">
        <ele>71.2</ele>
        <time>2020-07-02T10:22:17Z</time>
      </trkpt>
      <trkpt lat="48.42754" lon="2.16893">
        <ele>71.2</ele>
        <time>2020-07-02T10:22:18Z</time>
      </trkpt>
      <trkpt lat="48.42751" lon="2.16888">
        <ele>71.2</ele>
        <time>2020-07-02T10:22:19Z</time>
      </trkpt>
      <trkpt lat="48.42749" lon="2.16883">
        <ele>71.1</ele>
        <time>2020-07-02T10:22:20Z</time>
      </trkpt>
      <trkpt lat="48.42745" lon="2.16878">
        <ele>71.1</ele>
        <time>2020-07-02T10:22:21Z</time>
      </trkpt>
      <trkpt lat="48.42742" lon="2.16873">
        <ele>71</ele>
        <time>2020-07-02T10:22:22Z</time>
      </trkpt>
      <trkpt lat="48.42738" lon="2.16868">
        <ele>71</ele>
        <time>2020-07-02T10:22:23Z</time>
      </trkpt>
      <trkpt lat="48.42735" lon="2.16862">
        <ele>70.9</ele>
        <time>2020-07-02T10:22:24Z</time>
      </trkpt>
      <trkpt lat="48.42731" lon="2.16857">
        <ele>70.9</ele>
        <time>2020-07-02T10:22:25Z</time>
      </trkpt>
      <trkpt lat="48.42726" lon="2.16853">
        <ele>70.8</ele>
        <time>2020-07-02T10:22:26Z</time>
      </trkpt>
      <trkpt lat="48.4272" lon="2.1685">
        <ele>70.9</ele>
        <time>2020-07-02T10:22:27Z</time>
      </trkpt>
      <trkpt lat="48.42716" lon="2.16846">
        <ele>70.9</ele>
        <time>2020-07-02T10:22:28Z</time>
      </trkpt>
      <trkpt lat="48.4271" lon="2.16842">
        <ele>70.9</ele>
        <time>2020-07-02T10:22:29Z</time>
      </trkpt>
      <trkpt lat="48.42705" lon="2.16839">
        <ele>71</ele>
        <time>2020-07-02T10:22:30Z</time>
      </trkpt>
      <trkpt lat="48.42701" lon="2.16836">
        <ele>71</ele>
        <time>2020-07-02T10:22:31Z</time>
      </trkpt>
      <trkpt lat="48.42695" lon="2.16834">
        <ele>71</ele>
        <time>2020-07-02T10:22:32Z</time>
      </trkpt>
      <trkpt lat="48.4269" lon="2.16831">
        <ele>71.1</ele>
        <time>2020-07-02T10:22:33Z</time>
      </trkpt>
      <trkpt lat="48.42686" lon="2.16827">
        <ele>71.2</ele>
        <time>2020-07-02T10:22:34Z</time>
      </trkpt>
      <trkpt lat="48.42681" lon="2.16822">
        <ele>71.3</ele>
        <time>2020-07-02T10:22:35Z</time>
      </trkpt>
      <trkpt lat="48.42676" lon="2.16818">
        <ele>71.4</ele>
        <time>2020-07-02T10:22:36Z</time>
      </trkpt>
      <trkpt lat="48.42671" lon="2.16813">
        <ele>71.6</ele>
        <time>2020-07-02T10:22:37Z</time>
      </trkpt>
      <trkpt lat="48.42666" lon="2.16809">
        <ele>71.8</ele>
        <time>2020-07-02T10:22:38Z</time>
      </trkpt>
      <trkpt lat="48.42662" lon="2.16806">
        <ele>71.9</ele>
        <time>2020-07-02T10:22:39Z</time>
      </trkpt>
      <trkpt lat="48.42657" lon="2.16802">
        <ele>72.1</ele>
        <time>2020-07-02T10:22:40Z</time>
      </trkpt>
      <trkpt lat="48.42652" lon="2.16798">
        <ele>72.2</ele>
        <time>2020-07-02T10:22:41Z</time>
      </trkpt>
      <trkpt lat="48.42647" lon="2.16795">
        <ele>72.4</ele>
        <time>2020-07-02T10:22:42Z</time>
      </trkpt>
      <trkpt lat="48.42643" lon="2.16791">
        <ele>72.6</ele>
        <time>2020-07-02T10:22:43Z</time>
      </trkpt>
      <trkpt lat="48.42638" lon="2.16787">
        <ele>72.8</ele>
        <time>2020-07-02T10:22:44Z</time>
      </trkpt>
      <trkpt lat="48.42634" lon="2.16783">
        <ele>73</ele>
        <time>2020-07-02T10:22:45Z</time>
      </trkpt>
      <trkpt lat="48.4263" lon="2.16779">
        <ele>73.2</ele>
        <time>2020-07-02T10:22:46Z</time>
      </trkpt>
      <trkpt lat="48.42626" lon="2.16777">
        <ele>73.3</ele>
        <time>2020-07-02T10:22:47Z</time>
      </trkpt>
      <trkpt lat="48.42623" lon="2.16775">
        <ele>73.5</ele>
        <time>2020-07-02T10:22:48Z</time>
      </trkpt>
      <trkpt lat="48.42618" lon="2.16773">
        <ele>73.7</ele>
        <time>2020-07-02T10:22:49Z</time>
      </trkpt>
      <trkpt lat="48.42614" lon="2.16771">
        <ele>73.9</ele>
        <time>2020-07-02T10:22:50Z</time>
      </trkpt>
      <trkpt lat="48.42609" lon="2.16769">
        <ele>74.1</ele>
        <time>2020-07-02T10:22:51Z</time>
      </trkpt>
      <trkpt lat="48.42606" lon="2.16768">
        <ele>74.2</ele>
        <time>2020-07-02T10:22:52Z</time>
      </trkpt>
      <trkpt lat="48.42601" lon="2.16766">
        <ele>74.4</ele>
        <time>2020-07-02T10:22:53Z</time>
      </trkpt>
      <trkpt lat="48.42597" lon="2.16763">
        <ele>74.6</ele>
        <time>2020-07-02T10:22:54Z</time>
      </trkpt>
      <trkpt lat="48.42592" lon="2.1676">
        <ele>74.9</ele>
        <time>2020-07-02T10:22:55Z</time>
      </trkpt>
      <trkpt lat="48.42587" lon="2.16758">
        <ele>75.1</ele>
        <time>2020-07-02T10:22:56Z</time>
      </trkpt>
      <trkpt lat="48.42582" lon="2.16755">
        <ele>75.4</ele>
        <time>2020-07-02T10:22:57Z</time>
      </trkpt>
      <trkpt lat="48.42578" lon="2.16752">
        <ele>75.7</ele>
        <time>2020-07-02T10:22:58Z</time>
      </trkpt>
      <trkpt lat="48.42573" lon="2.16749">
        <ele>76</ele>
        <time>2020-07-02T10:22:59Z</time>
      </trkpt>
      <trkpt lat="48.42569" lon="2.16745">
        <ele>76.2</ele>
        <time>2020-07-02T10:23:00Z</time>
      </trkpt>
      <trkpt lat="48.42564" lon="2.16743">
        <ele>76.5</ele>
        <time>2020-07-02T10:23:01Z</time>
      </trkpt>
      <trkpt lat="48.42561" lon="2.1674">
        <ele>76.8</ele>
        <time>2020-07-02T10:23:02Z</time>
      </trkpt>
      <trkpt lat="48.42558" lon="2.16735">
        <ele>77</ele>
        <time>2020-07-02T10:23:03Z</time>
      </trkpt>
      <trkpt lat="48.42555" lon="2.16731">
        <ele>77.3</ele>
        <time>2020-07-02T10:23:04Z</time>
      </trkpt>
      <trkpt lat="48.42553" lon="2.16728">
        <ele>77.5</ele>
        <time>2020-07-02T10:23:05Z</time>
      </trkpt>
      <trkpt lat="48.4255" lon="2.16724">
        <ele>77.7</ele>
        <time>2020-07-02T10:23:06Z</time>
      </trkpt>
      <trkpt lat="48.42548" lon="2.16721">
        <ele>77.9</ele>
        <time>2020-07-02T10:23:07Z</time>
      </trkpt>
      <trkpt lat="48.42545" lon="2.16717">
        <ele>78.1</ele>
        <time>2020-07-02T10:23:08Z</time>
      </trkpt>
      <trkpt lat="48.42542" lon="2.16714">
        <ele>78.3</ele>
        <time>2020-07-02T10:23:09Z</time>
      </trkpt>
      <trkpt lat="48.4254" lon="2.1671">
        <ele>78.5</ele>
        <time>2020-07-02T10:23:10Z</time>
      </trkpt>
      <trkpt lat="48.42539" lon="2.16708">
        <ele>78.5</ele>
        <time>2020-07-02T10:23:11Z</time>
      </trkpt>
      <trkpt lat="48.42537" lon="2.16705">
        <ele>78.7</ele>
        <time>2020-07-02T10:23:12Z</time>
      </trkpt>
      <trkpt lat="48.42535" lon="2.16699">
        <ele>78.8</ele>
        <time>2020-07-02T10:23:13Z</time>
      </trkpt>
      <trkpt lat="48.42534" lon="2.16697">
        <ele>78.9</ele>
        <time>2020-07-02T10:23:14Z</time>
      </trkpt>
      <trkpt lat="48.42532" lon="2.16693">
        <ele>78.9</ele>
        <time>2020-07-02T10:23:15Z</time>
      </trkpt>
      <trkpt lat="48.4253" lon="2.16689">
        <ele>79</ele>
        <time>2020-07-02T10:23:16Z</time>
      </trkpt>
      <trkpt lat="48.42529" lon="2.16682">
        <ele>79.1</ele>
        <time>2020-07-02T10:23:17Z</time>
      </trkpt>
      <trkpt lat="48.42528" lon="2.1668">
        <ele>79.1</ele>
        <time>2020-07-02T10:23:18Z</time>
      </trkpt>
      <trkpt lat="48.42528" lon="2.16675">
        <ele>79.1</ele>
        <time>2020-07-02T10:23:19Z</time>
      </trkpt>
      <trkpt lat="48.42526" lon="2.16671">
        <ele>79.1</ele>
        <time>2020-07-02T10:23:20Z</time>
      </trkpt>
      <trkpt lat="48.42524" lon="2.16664">
        <ele>79.1</ele>
        <time>2020-07-02T10:23:21Z</time>
      </trkpt>
      <trkpt lat="48.42521" lon="2.16657">
        <ele>79.1</ele>
        <time>2020-07-02T10:23:22Z</time>
      </trkpt>
      <trkpt lat="48.4252" lon="2.1665">
        <ele>79</ele>
        <time>2020-07-02T10:23:23Z</time>
      </trkpt>
      <trkpt lat="48.42518" lon="2.16643">
        <ele>79</ele>
        <time>2020-07-02T10:23:24Z</time>
      </trkpt>
      <trkpt lat="48.42517" lon="2.16636">
        <ele>78.9</ele>
        <time>2020-07-02T10:23:25Z</time>
      </trkpt>
      <trkpt lat="48.42515" lon="2.16628">
        <ele>78.8</ele>
        <time>2020-07-02T10:23:26Z</time>
      </trkpt>
      <trkpt lat="48.42514" lon="2.16622">
        <ele>78.7</ele>
        <time>2020-07-02T10:23:27Z</time>
      </trkpt>
      <trkpt lat="48.42513" lon="2.16614">
        <ele>78.6</ele>
        <time>2020-07-02T10:23:28Z</time>
      </trkpt>
      <trkpt lat="48.4251" lon="2.16607">
        <ele>78.5</ele>
        <time>2020-07-02T10:23:29Z</time>
      </trkpt>
      <trkpt lat="48.42508" lon="2.16599">
        <ele>78.3</ele>
        <time>2020-07-02T10:23:30Z</time>
      </trkpt>
      <trkpt lat="48.42506" lon="2.16591">
        <ele>78.1</ele>
        <time>2020-07-02T10:23:31Z</time>
      </trkpt>
      <trkpt lat="48.42504" lon="2.16583">
        <ele>77.9</ele>
        <time>2020-07-02T10:23:32Z</time>
      </trkpt>
      <trkpt lat="48.42503" lon="2.16574">
        <ele>77.7</ele>
        <time>2020-07-02T10:23:33Z</time>
      </trkpt>
      <trkpt lat="48.42501" lon="2.16565">
        <ele>77.4</ele>
        <time>2020-07-02T10:23:34Z</time>
      </trkpt>
      <trkpt lat="48.42499" lon="2.16556">
        <ele>77.1</ele>
        <time>2020-07-02T10:23:35Z</time>
      </trkpt>
      <trkpt lat="48.42497" lon="2.16549">
        <ele>76.9</ele>
        <time>2020-07-02T10:23:36Z</time>
      </trkpt>
      <trkpt lat="48.42494" lon="2.16537">
        <ele>76.5</ele>
        <time>2020-07-02T10:23:37Z</time>
      </trkpt>
      <trkpt lat="48.42492" lon="2.16526">
        <ele>76.2</ele>
        <time>2020-07-02T10:23:38Z</time>
      </trkpt>
      <trkpt lat="48.42489" lon="2.16516">
        <ele>75.9</ele>
        <time>2020-07-02T10:23:39Z</time>
      </trkpt>
      <trkpt lat="48.42487" lon="2.16506">
        <ele>75.6</ele>
        <time>2020-07-02T10:23:40Z</time>
      </trkpt>
      <trkpt lat="48.42485" lon="2.16495">
        <ele>75.3</ele>
        <time>2020-07-02T10:23:41Z</time>
      </trkpt>
      <trkpt lat="48.42483" lon="2.16484">
        <ele>75</ele>
        <time>2020-07-02T10:23:42Z</time>
      </trkpt>
      <trkpt lat="48.42481" lon="2.16473">
        <ele>74.6</ele>
        <time>2020-07-02T10:23:43Z</time>
      </trkpt>
      <trkpt lat="48.42479" lon="2.16462">
        <ele>74.3</ele>
        <time>2020-07-02T10:23:44Z</time>
      </trkpt>
      <trkpt lat="48.42477" lon="2.16453">
        <ele>74</ele>
        <time>2020-07-02T10:23:45Z</time>
      </trkpt>
      <trkpt lat="48.42474" lon="2.16443">
        <ele>73.8</ele>
        <time>2020-07-02T10:23:46Z</time>
      </trkpt>
      <trkpt lat="48.42471" lon="2.16434">
        <ele>73.5</ele>
        <time>2020-07-02T10:23:47Z</time>
      </trkpt>
      <trkpt lat="48.42468" lon="2.16424">
        <ele>73.2</ele>
        <time>2020-07-02T10:23:48Z</time>
      </trkpt>
      <trkpt lat="48.42465" lon="2.16415">
        <ele>72.9</ele>
        <time>2020-07-02T10:23:49Z</time>
      </trkpt>
      <trkpt lat="48.42461" lon="2.16406">
        <ele>72.7</ele>
        <time>2020-07-02T10:23:50Z</time>
      </trkpt>
      <trkpt lat="48.42457" lon="2.16398">
        <ele>72.5</ele>
        <time>2020-07-02T10:23:51Z</time>
      </trkpt>
      <trkpt lat="48.42452" lon="2.16389">
        <ele>72.2</ele>
        <time>2020-07-02T10:23:52Z</time>
      </trkpt>
      <trkpt lat="48.42447" lon="2.16382">
        <ele>72</ele>
        <time>2020-07-02T10:23:53Z</time>
      </trkpt>
      <trkpt lat="48.42442" lon="2.16373">
        <ele>71.7</ele>
        <time>2020-07-02T10:23:54Z</time>
      </trkpt>
      <trkpt lat="48.42438" lon="2.16365">
        <ele>71.6</ele>
        <time>2020-07-02T10:23:55Z</time>
      </trkpt>
      <trkpt lat="48.42433" lon="2.16357">
        <ele>71.5</ele>
        <time>2020-07-02T10:23:56Z</time>
      </trkpt>
      <trkpt lat="48.42428" lon="2.1635">
        <ele>71.5</ele>
        <time>2020-07-02T10:23:57Z</time>
      </trkpt>
      <trkpt lat="48.42422" lon="2.16342">
        <ele>71.4</ele>
        <time>2020-07-02T10:23:58Z</time>
      </trkpt>
      <trkpt lat="48.42417" lon="2.16334">
        <ele>71.2</ele>
        <time>2020-07-02T10:23:59Z</time>
      </trkpt>
      <trkpt lat="48.42412" lon="2.16326">
        <ele>71</ele>
        <time>2020-07-02T10:24:00Z</time>
      </trkpt>
      <trkpt lat="48.42407" lon="2.16318">
        <ele>70.8</ele>
        <time>2020-07-02T10:24:01Z</time>
      </trkpt>
      <trkpt lat="48.42402" lon="2.16309">
        <ele>70.7</ele>
        <time>2020-07-02T10:24:02Z</time>
      </trkpt>
      <trkpt lat="48.42397" lon="2.163">
        <ele>70.5</ele>
        <time>2020-07-02T10:24:03Z</time>
      </trkpt>
      <trkpt lat="48.42392" lon="2.16291">
        <ele>70.4</ele>
        <time>2020-07-02T10:24:04Z</time>
      </trkpt>
      <trkpt lat="48.42388" lon="2.16282">
        <ele>70.3</ele>
        <time>2020-07-02T10:24:05Z</time>
      </trkpt>
      <trkpt lat="48.42384" lon="2.16272">
        <ele>70.2</ele>
        <time>2020-07-02T10:24:06Z</time>
      </trkpt>
      <trkpt lat="48.4238" lon="2.16262">
        <ele>70.2</ele>
        <time>2020-07-02T10:24:07Z</time>
      </trkpt>
      <trkpt lat="48.42376" lon="2.16252">
        <ele>70.1</ele>
        <time>2020-07-02T10:24:08Z</time>
      </trkpt>
      <trkpt lat="48.42373" lon="2.16242">
        <ele>70.1</ele>
        <time>2020-07-02T10:24:09Z</time>
      </trkpt>
      <trkpt lat="48.4237" lon="2.16232">
        <ele>70</ele>
        <time>2020-07-02T10:24:10Z</time>
      </trkpt>
      <trkpt lat="48.42366" lon="2.16222">
        <ele>70</ele>
        <time>2020-07-02T10:24:11Z</time>
      </trkpt>
      <trkpt lat="48.42362" lon="2.16213">
        <ele>70</ele>
        <time>2020-07-02T10:24:12Z</time>
      </trkpt>
      <trkpt lat="48.42358" lon="2.16204">
        <ele>70</ele>
        <time>2020-07-02T10:24:13Z</time>
      </trkpt>
      <trkpt lat="48.42354" lon="2.16195">
        <ele>70</ele>
        <time>2020-07-02T10:24:14Z</time>
      </trkpt>
      <trkpt lat="48.42349" lon="2.16186">
        <ele>70.1</ele>
        <time>2020-07-02T10:24:15Z</time>
      </trkpt>
      <trkpt lat="48.42344" lon="2.16178">
        <ele>70.1</ele>
        <time>2020-07-02T10:24:16Z</time>
      </trkpt>
      <trkpt lat="48.42339" lon="2.1617">
        <ele>70.2</ele>
        <time>2020-07-02T10:24:17Z</time>
      </trkpt>
      <trkpt lat="48.42334" lon="2.16163">
        <ele>70.2</ele>
        <time>2020-07-02T10:24:18Z</time>
      </trkpt>
      <trkpt lat="48.42328" lon="2.16156">
        <ele>70.2</ele>
        <time>2020-07-02T10:24:19Z</time>
      </trkpt>
      <trkpt lat="48.42322" lon="2.16149">
        <ele>70.2</ele>
        <time>2020-07-02T10:24:20Z</time>
      </trkpt>
      <trkpt lat="48.42316" lon="2.16143">
        <ele>70.2</ele>
        <time>2020-07-02T10:24:21Z</time>
      </trkpt>
      <trkpt lat="48.4231" lon="2.16136">
        <ele>70.2</ele>
        <time>2020-07-02T10:24:22Z</time>
      </trkpt>
      <trkpt lat="48.42304" lon="2.16129">
        <ele>70.2</ele>
        <time>2020-07-02T10:24:23Z</time>
      </trkpt>
      <trkpt lat="48.42298" lon="2.16121">
        <ele>70.2</ele>
        <time>2020-07-02T10:24:24Z</time>
      </trkpt>
      <trkpt lat="48.42292" lon="2.16114">
        <ele>70.3</ele>
        <time>2020-07-02T10:24:25Z</time>
      </trkpt>
      <trkpt lat="48.42287" lon="2.16106">
        <ele>70.3</ele>
        <time>2020-07-02T10:24:26Z</time>
      </trkpt>
      <trkpt lat="48.42281" lon="2.16098">
        <ele>70.3</ele>
        <time>2020-07-02T10:24:27Z</time>
      </trkpt>
      <trkpt lat="48.42276" lon="2.16091">
        <ele>70.3</ele>
        <time>2020-07-02T10:24:28Z</time>
      </trkpt>
      <trkpt lat="48.4227" lon="2.16084">
        <ele>70.2</ele>
        <time>2020-07-02T10:24:29Z</time>
      </trkpt>
      <trkpt lat="48.42264" lon="2.16077">
        <ele>70.2</ele>
        <time>2020-07-02T10:24:30Z</time>
      </trkpt>
      <trkpt lat="48.42258" lon="2.16069">
        <ele>70.3</ele>
        <time>2020-07-02T10:24:31Z</time>
      </trkpt>
      <trkpt lat="48.42253" lon="2.16061">
        <ele>70.3</ele>
        <time>2020-07-02T10:24:32Z</time>
      </trkpt>
      <trkpt lat="48.42247" lon="2.16054">
        <ele>70.4</ele>
        <time>2020-07-02T10:24:33Z</time>
      </trkpt>
      <trkpt lat="48.42241" lon="2.16046">
        <ele>70.4</ele>
        <time>2020-07-02T10:24:34Z</time>
      </trkpt>
      <trkpt lat="48.42235" lon="2.1604">
        <ele>70.5</ele>
        <time>2020-07-02T10:24:35Z</time>
      </trkpt>
      <trkpt lat="48.42229" lon="2.16033">
        <ele>70.6</ele>
        <time>2020-07-02T10:24:36Z</time>
      </trkpt>
      <trkpt lat="48.42224" lon="2.16027">
        <ele>70.6</ele>
        <time>2020-07-02T10:24:37Z</time>
      </trkpt>
      <trkpt lat="48.42218" lon="2.16022">
        <ele>70.7</ele>
        <time>2020-07-02T10:24:38Z</time>
      </trkpt>
      <trkpt lat="48.42213" lon="2.16017">
        <ele>70.8</ele>
        <time>2020-07-02T10:24:39Z</time>
      </trkpt>
      <trkpt lat="48.42207" lon="2.16013">
        <ele>70.9</ele>
        <time>2020-07-02T10:24:40Z</time>
      </trkpt>
      <trkpt lat="48.42201" lon="2.1601">
        <ele>71</ele>
        <time>2020-07-02T10:24:41Z</time>
      </trkpt>
      <trkpt lat="48.42195" lon="2.16006">
        <ele>71.1</ele>
        <time>2020-07-02T10:24:42Z</time>
      </trkpt>
      <trkpt lat="48.42189" lon="2.16001">
        <ele>71.2</ele>
        <time>2020-07-02T10:24:43Z</time>
      </trkpt>
      <trkpt lat="48.42183" lon="2.15997">
        <ele>71.4</ele>
        <time>2020-07-02T10:24:44Z</time>
      </trkpt>
      <trkpt lat="48.42177" lon="2.15992">
        <ele>71.6</ele>
        <time>2020-07-02T10:24:45Z</time>
      </trkpt>
      <trkpt lat="48.42171" lon="2.15987">
        <ele>71.8</ele>
        <time>2020-07-02T10:24:46Z</time>
      </trkpt>
      <trkpt lat="48.42165" lon="2.15983">
        <ele>72</ele>
        <time>2020-07-02T10:24:47Z</time>
      </trkpt>
      <trkpt lat="48.42161" lon="2.15979">
        <ele>72.1</ele>
        <time>2020-07-02T10:24:48Z</time>
      </trkpt>
      <trkpt lat="48.42156" lon="2.15975">
        <ele>72.3</ele>
        <time>2020-07-02T10:24:49Z</time>
      </trkpt>
      <trkpt lat="48.42151" lon="2.15971">
        <ele>72.4</ele>
        <time>2020-07-02T10:24:50Z</time>
      </trkpt>
      <trkpt lat="48.42146" lon="2.15968">
        <ele>72.5</ele>
        <time>2020-07-02T10:24:51Z</time>
      </trkpt>
      <trkpt lat="48.42142" lon="2.15965">
        <ele>72.7</ele>
        <time>2020-07-02T10:24:52Z</time>
      </trkpt>
      <trkpt lat="48.42138" lon="2.1596">
        <ele>72.8</ele>
        <time>2020-07-02T10:24:53Z</time>
      </trkpt>
      <trkpt lat="48.42132" lon="2.15955">
        <ele>73</ele>
        <time>2020-07-02T10:24:54Z</time>
      </trkpt>
      <trkpt lat="48.42128" lon="2.15949">
        <ele>73.1</ele>
        <time>2020-07-02T10:24:55Z</time>
      </trkpt>
      <trkpt lat="48.42124" lon="2.15944">
        <ele>73.2</ele>
        <time>2020-07-02T10:24:56Z</time>
      </trkpt>
      <trkpt lat="48.4212" lon="2.15938">
        <ele>73.3</ele>
        <time>2020-07-02T10:24:57Z</time>
      </trkpt>
      <trkpt lat="48.42116" lon="2.15932">
        <ele>73.4</ele>
        <time>2020-07-02T10:24:58Z</time>
      </trkpt>
      <trkpt lat="48.42111" lon="2.15925">
        <ele>73.4</ele>
        <time>2020-07-02T10:24:59Z</time>
      </trkpt>
      <trkpt lat="48.42107" lon="2.1592">
        <ele>73.5</ele>
        <time>2020-07-02T10:25:00Z</time>
      </trkpt>
      <trkpt lat="48.42102" lon="2.15916">
        <ele>73.5</ele>
        <time>2020-07-02T10:25:01Z</time>
      </trkpt>
      <trkpt lat="48.42097" lon="2.15911">
        <ele>73.5</ele>
        <time>2020-07-02T10:25:02Z</time>
      </trkpt>
      <trkpt lat="48.42091" lon="2.15905">
        <ele>73.4</ele>
        <time>2020-07-02T10:25:03Z</time>
      </trkpt>
      <trkpt lat="48.42086" lon="2.15898">
        <ele>73.4</ele>
        <time>2020-07-02T10:25:04Z</time>
      </trkpt>
      <trkpt lat="48.4208" lon="2.1589">
        <ele>73.3</ele>
        <time>2020-07-02T10:25:05Z</time>
      </trkpt>
      <trkpt lat="48.42075" lon="2.15884">
        <ele>73.3</ele>
        <time>2020-07-02T10:25:06Z</time>
      </trkpt>
      <trkpt lat="48.4207" lon="2.15877">
        <ele>73.2</ele>
        <time>2020-07-02T10:25:07Z</time>
      </trkpt>
      <trkpt lat="48.42065" lon="2.15873">
        <ele>73.2</ele>
        <time>2020-07-02T10:25:08Z</time>
      </trkpt>
      <trkpt lat="48.4206" lon="2.15867">
        <ele>73.1</ele>
        <time>2020-07-02T10:25:09Z</time>
      </trkpt>
      <trkpt lat="48.42053" lon="2.1586">
        <ele>73.1</ele>
        <time>2020-07-02T10:25:10Z</time>
      </trkpt>
      <trkpt lat="48.42047" lon="2.15852">
        <ele>73</ele>
        <time>2020-07-02T10:25:11Z</time>
      </trkpt>
      <trkpt lat="48.42042" lon="2.15843">
        <ele>73</ele>
        <time>2020-07-02T10:25:12Z</time>
      </trkpt>
      <trkpt lat="48.42038" lon="2.15836">
        <ele>73</ele>
        <time>2020-07-02T10:25:13Z</time>
      </trkpt>
      <trkpt lat="48.42034" lon="2.1583">
        <ele>73</ele>
        <time>2020-07-02T10:25:14Z</time>
      </trkpt>
      <trkpt lat="48.42029" lon="2.15823">
        <ele>73.1</ele>
        <time>2020-07-02T10:25:15Z</time>
      </trkpt>
      <trkpt lat="48.42023" lon="2.15818">
        <ele>73.1</ele>
        <time>2020-07-02T10:25:16Z</time>
      </trkpt>
      <trkpt lat="48.42017" lon="2.15812">
        <ele>73.1</ele>
        <time>2020-07-02T10:25:17Z</time>
      </trkpt>
      <trkpt lat="48.42011" lon="2.15805">
        <ele>73.2</ele>
        <time>2020-07-02T10:25:18Z</time>
      </trkpt>
      <trkpt lat="48.42006" lon="2.15798">
        <ele>73.2</ele>
        <time>2020-07-02T10:25:19Z</time>
      </trkpt>
      <trkpt lat="48.42" lon="2.1579">
        <ele>73.2</ele>
        <time>2020-07-02T10:25:20Z</time>
      </trkpt>
      <trkpt lat="48.41994" lon="2.15781">
        <ele>73.2</ele>
        <time>2020-07-02T10:25:21Z</time>
      </trkpt>
      <trkpt lat="48.41988" lon="2.15773">
        <ele>73.2</ele>
        <time>2020-07-02T10:25:22Z</time>
      </trkpt>
      <trkpt lat="48.41982" lon="2.15765">
        <ele>73.2</ele>
        <time>2020-07-02T10:25:23Z</time>
      </trkpt>
      <trkpt lat="48.41976" lon="2.15758">
        <ele>73.2</ele>
        <time>2020-07-02T10:25:24Z</time>
      </trkpt>
      <trkpt lat="48.41971" lon="2.15752">
        <ele>73.2</ele>
        <time>2020-07-02T10:25:25Z</time>
      </trkpt>
      <trkpt lat="48.41966" lon="2.15745">
        <ele>73.3</ele>
        <time>2020-07-02T10:25:26Z</time>
      </trkpt>
      <trkpt lat="48.41962" lon="2.15738">
        <ele>73.3</ele>
        <time>2020-07-02T10:25:27Z</time>
      </trkpt>
      <trkpt lat="48.41957" lon="2.15731">
        <ele>73.3</ele>
        <time>2020-07-02T10:25:28Z</time>
      </trkpt>
      <trkpt lat="48.41953" lon="2.15724">
        <ele>73.3</ele>
        <time>2020-07-02T10:25:29Z</time>
      </trkpt>
      <trkpt lat="48.41948" lon="2.15717">
        <ele>73.3</ele>
        <time>2020-07-02T10:25:30Z</time>
      </trkpt>
      <trkpt lat="48.41943" lon="2.1571">
        <ele>73.2</ele>
        <time>2020-07-02T10:25:31Z</time>
      </trkpt>
      <trkpt lat="48.41939" lon="2.15701">
        <ele>73.1</ele>
        <time>2020-07-02T10:25:32Z</time>
      </trkpt>
      <trkpt lat="48.41935" lon="2.15692">
        <ele>72.9</ele>
        <time>2020-07-02T10:25:33Z</time>
      </trkpt>
      <trkpt lat="48.4193" lon="2.15683">
        <ele>72.8</ele>
        <time>2020-07-02T10:25:34Z</time>
      </trkpt>
      <trkpt lat="48.41926" lon="2.15674">
        <ele>72.6</ele>
        <time>2020-07-02T10:25:35Z</time>
      </trkpt>
      <trkpt lat="48.4192" lon="2.15664">
        <ele>72.5</ele>
        <time>2020-07-02T10:25:36Z</time>
      </trkpt>
      <trkpt lat="48.41916" lon="2.15655">
        <ele>72.5</ele>
        <time>2020-07-02T10:25:37Z</time>
      </trkpt>
      <trkpt lat="48.41912" lon="2.15645">
        <ele>72.5</ele>
        <time>2020-07-02T10:25:38Z</time>
      </trkpt>
      <trkpt lat="48.41907" lon="2.15636">
        <ele>72.6</ele>
        <time>2020-07-02T10:25:39Z</time>
      </trkpt>
      <trkpt lat="48.41904" lon="2.15626">
        <ele>72.7</ele>
        <time>2020-07-02T10:25:40Z</time>
      </trkpt>
      <trkpt lat="48.419" lon="2.15615">
        <ele>72.8</ele>
        <time>2020-07-02T10:25:41Z</time>
      </trkpt>
      <trkpt lat="48.41897" lon="2.15607">
        <ele>73</ele>
        <time>2020-07-02T10:25:42Z</time>
      </trkpt>
      <trkpt lat="48.41893" lon="2.15598">
        <ele>73.1</ele>
        <time>2020-07-02T10:25:43Z</time>
      </trkpt>
      <trkpt lat="48.41888" lon="2.15589">
        <ele>73.2</ele>
        <time>2020-07-02T10:25:44Z</time>
      </trkpt>
      <trkpt lat="48.41885" lon="2.1558">
        <ele>73.3</ele>
        <time>2020-07-02T10:25:45Z</time>
      </trkpt>
      <trkpt lat="48.41881" lon="2.15571">
        <ele>73.4</ele>
        <time>2020-07-02T10:25:46Z</time>
      </trkpt>
      <trkpt lat="48.41878" lon="2.15565">
        <ele>73.4</ele>
        <time>2020-07-02T10:25:47Z</time>
      </trkpt>
      <trkpt lat="48.41875" lon="2.1556">
        <ele>73.3</ele>
        <time>2020-07-02T10:25:48Z</time>
      </trkpt>
      <trkpt lat="48.41871" lon="2.15554">
        <ele>73.3</ele>
        <time>2020-07-02T10:25:49Z</time>
      </trkpt>
      <trkpt lat="48.41868" lon="2.15548">
        <ele>73.3</ele>
        <time>2020-07-02T10:25:50Z</time>
      </trkpt>
      <trkpt lat="48.41864" lon="2.15542">
        <ele>73.2</ele>
        <time>2020-07-02T10:25:51Z</time>
      </trkpt>
      <trkpt lat="48.41859" lon="2.15535">
        <ele>73.1</ele>
        <time>2020-07-02T10:25:52Z</time>
      </trkpt>
      <trkpt lat="48.41854" lon="2.15528">
        <ele>73</ele>
        <time>2020-07-02T10:25:53Z</time>
      </trkpt>
      <trkpt lat="48.41848" lon="2.15522">
        <ele>73</ele>
        <time>2020-07-02T10:25:54Z</time>
      </trkpt>
      <trkpt lat="48.41843" lon="2.15515">
        <ele>73</ele>
        <time>2020-07-02T10:25:55Z</time>
      </trkpt>
      <trkpt lat="48.41839" lon="2.15509">
        <ele>73</ele>
        <time>2020-07-02T10:25:56Z</time>
      </trkpt>
      <trkpt lat="48.41835" lon="2.15502">
        <ele>73.1</ele>
        <time>2020-07-02T10:25:57Z</time>
      </trkpt>
      <trkpt lat="48.4183" lon="2.15495">
        <ele>73</ele>
        <time>2020-07-02T10:25:58Z</time>
      </trkpt>
      <trkpt lat="48.41825" lon="2.15488">
        <ele>73</ele>
        <time>2020-07-02T10:25:59Z</time>
      </trkpt>
      <trkpt lat="48.4182" lon="2.15482">
        <ele>72.9</ele>
        <time>2020-07-02T10:26:00Z</time>
      </trkpt>
      <trkpt lat="48.41814" lon="2.15476">
        <ele>72.8</ele>
        <time>2020-07-02T10:26:01Z</time>
      </trkpt>
      <trkpt lat="48.41809" lon="2.15469">
        <ele>72.7</ele>
        <time>2020-07-02T10:26:02Z</time>
      </trkpt>
      <trkpt lat="48.41803" lon="2.1546">
        <ele>72.4</ele>
        <time>2020-07-02T10:26:03Z</time>
      </trkpt>
      <trkpt lat="48.41797" lon="2.15452">
        <ele>72.2</ele>
        <time>2020-07-02T10:26:04Z</time>
      </trkpt>
      <trkpt lat="48.41791" lon="2.15446">
        <ele>72.1</ele>
        <time>2020-07-02T10:26:05Z</time>
      </trkpt>
      <trkpt lat="48.41785" lon="2.1544">
        <ele>72</ele>
        <time>2020-07-02T10:26:06Z</time>
      </trkpt>
      <trkpt lat="48.4178" lon="2.15434">
        <ele>71.9</ele>
        <time>2020-07-02T10:26:07Z</time>
      </trkpt>
      <trkpt lat="48.41774" lon="2.15428">
        <ele>71.9</ele>
        <time>2020-07-02T10:26:08Z</time>
      </trkpt>
      <trkpt lat="48.41769" lon="2.15422">
        <ele>71.9</ele>
        <time>2020-07-02T10:26:09Z</time>
      </trkpt>
      <trkpt lat="48.41764" lon="2.15416">
        <ele>71.9</ele>
        <time>2020-07-02T10:26:10Z</time>
      </trkpt>
      <trkpt lat="48.41758" lon="2.15409">
        <ele>71.9</ele>
        <time>2020-07-02T10:26:11Z</time>
      </trkpt>
      <trkpt lat="48.41753" lon="2.154">
        <ele>71.9</ele>
        <time>2020-07-02T10:26:12Z</time>
      </trkpt>
      <trkpt lat="48.41749" lon="2.15394">
        <ele>71.8</ele>
        <time>2020-07-02T10:26:13Z</time>
      </trkpt>
      <trkpt lat="48.41743" lon="2.15387">
        <ele>71.9</ele>
        <time>2020-07-02T10:26:14Z</time>
      </trkpt>
      <trkpt lat="48.41738" lon="2.15381">
        <ele>71.9</ele>
        <time>2020-07-02T10:26:15Z</time>
      </trkpt>
      <trkpt lat="48.41731" lon="2.15373">
        <ele>72</ele>
        <time>2020-07-02T10:26:16Z</time>
      </trkpt>
      <trkpt lat="48.41725" lon="2.15366">
        <ele>72.1</ele>
        <time>2020-07-02T10:26:17Z</time>
      </trkpt>
      <trkpt lat="48.41719" lon="2.15359">
        <ele>72.2</ele>
        <time>2020-07-02T10:26:18Z</time>
      </trkpt>
      <trkpt lat="48.41714" lon="2.15353">
        <ele>72.3</ele>
        <time>2020-07-02T10:26:19Z</time>
      </trkpt>
      <trkpt lat="48.41709" lon="2.15347">
        <ele>72.4</ele>
        <time>2020-07-02T10:26:20Z</time>
      </trkpt>
      <trkpt lat="48.41705" lon="2.15343">
        <ele>72.5</ele>
        <time>2020-07-02T10:26:21Z</time>
      </trkpt>
      <trkpt lat="48.41699" lon="2.15338">
        <ele>72.7</ele>
        <time>2020-07-02T10:26:22Z</time>
      </trkpt>
      <trkpt lat="48.41693" lon="2.15332">
        <ele>72.8</ele>
        <time>2020-07-02T10:26:23Z</time>
      </trkpt>
      <trkpt lat="48.41688" lon="2.15328">
        <ele>73</ele>
        <time>2020-07-02T10:26:24Z</time>
      </trkpt>
      <trkpt lat="48.41682" lon="2.15324">
        <ele>73.3</ele>
        <time>2020-07-02T10:26:25Z</time>
      </trkpt>
      <trkpt lat="48.41677" lon="2.1532">
        <ele>73.6</ele>
        <time>2020-07-02T10:26:26Z</time>
      </trkpt>
      <trkpt lat="48.41672" lon="2.1532">
        <ele>73.8</ele>
        <time>2020-07-02T10:26:27Z</time>
      </trkpt>
      <trkpt lat="48.4167" lon="2.1532">
        <ele>74</ele>
        <time>2020-07-02T10:26:28Z</time>
      </trkpt>
      <trkpt lat="48.41665" lon="2.15319">
        <ele>74.3</ele>
        <time>2020-07-02T10:26:29Z</time>
      </trkpt>
      <trkpt lat="48.41659" lon="2.15317">
        <ele>74.6</ele>
        <time>2020-07-02T10:26:30Z</time>
      </trkpt>
      <trkpt lat="48.41654" lon="2.15316">
        <ele>74.9</ele>
        <time>2020-07-02T10:26:31Z</time>
      </trkpt>
      <trkpt lat="48.41649" lon="2.15315">
        <ele>75.2</ele>
        <time>2020-07-02T10:26:32Z</time>
      </trkpt>
      <trkpt lat="48.41643" lon="2.15314">
        <ele>75.5</ele>
        <time>2020-07-02T10:26:33Z</time>
      </trkpt>
      <trkpt lat="48.41638" lon="2.15312">
        <ele>75.8</ele>
        <time>2020-07-02T10:26:34Z</time>
      </trkpt>
      <trkpt lat="48.41633" lon="2.15311">
        <ele>76</ele>
        <time>2020-07-02T10:26:35Z</time>
      </trkpt>
      <trkpt lat="48.41628" lon="2.15309">
        <ele>76.2</ele>
        <time>2020-07-02T10:26:36Z</time>
      </trkpt>
      <trkpt lat="48.41623" lon="2.15309">
        <ele>76.3</ele>
        <time>2020-07-02T10:26:37Z</time>
      </trkpt>
      <trkpt lat="48.41618" lon="2.15308">
        <ele>76.5</ele>
        <time>2020-07-02T10:26:38Z</time>
      </trkpt>
      <trkpt lat="48.41614" lon="2.15308">
        <ele>76.6</ele>
        <time>2020-07-02T10:26:39Z</time>
      </trkpt>
      <trkpt lat="48.41609" lon="2.15307">
        <ele>76.7</ele>
        <time>2020-07-02T10:26:40Z</time>
      </trkpt>
      <trkpt lat="48.41604" lon="2.15304">
        <ele>76.8</ele>
        <time>2020-07-02T10:26:41Z</time>
      </trkpt>
      <trkpt lat="48.41599" lon="2.15302">
        <ele>76.9</ele>
        <time>2020-07-02T10:26:42Z</time>
      </trkpt>
      <trkpt lat="48.41593" lon="2.153">
        <ele>77</ele>
        <time>2020-07-02T10:26:43Z</time>
      </trkpt>
      <trkpt lat="48.41587" lon="2.15298">
        <ele>77.1</ele>
        <time>2020-07-02T10:26:44Z</time>
      </trkpt>
      <trkpt lat="48.4158" lon="2.15297">
        <ele>77.2</ele>
        <time>2020-07-02T10:26:45Z</time>
      </trkpt>
      <trkpt lat="48.41574" lon="2.15296">
        <ele>77.2</ele>
        <time>2020-07-02T10:26:46Z</time>
      </trkpt>
      <trkpt lat="48.41567" lon="2.15294">
        <ele>77.2</ele>
        <time>2020-07-02T10:26:47Z</time>
      </trkpt>
      <trkpt lat="48.41561" lon="2.15292">
        <ele>77.2</ele>
        <time>2020-07-02T10:26:48Z</time>
      </trkpt>
      <trkpt lat="48.41555" lon="2.1529">
        <ele>77.2</ele>
        <time>2020-07-02T10:26:49Z</time>
      </trkpt>
      <trkpt lat="48.41549" lon="2.15289">
        <ele>77.1</ele>
        <time>2020-07-02T10:26:50Z</time>
      </trkpt>
      <trkpt lat="48.41544" lon="2.15287">
        <ele>77.1</ele>
        <time>2020-07-02T10:26:51Z</time>
      </trkpt>
      <trkpt lat="48.41538" lon="2.15287">
        <ele>77.1</ele>
        <time>2020-07-02T10:26:52Z</time>
      </trkpt>
      <trkpt lat="48.41532" lon="2.15285">
        <ele>77</ele>
        <time>2020-07-02T10:26:53Z</time>
      </trkpt>
      <trkpt lat="48.41526" lon="2.15283">
        <ele>77</ele>
        <time>2020-07-02T10:26:54Z</time>
      </trkpt>
      <trkpt lat="48.41521" lon="2.15281">
        <ele>77</ele>
        <time>2020-07-02T10:26:55Z</time>
      </trkpt>
      <trkpt lat="48.41516" lon="2.1528">
        <ele>76.9</ele>
        <time>2020-07-02T10:26:56Z</time>
      </trkpt>
      <trkpt lat="48.41511" lon="2.15278">
        <ele>76.9</ele>
        <time>2020-07-02T10:26:57Z</time>
      </trkpt>
      <trkpt lat="48.41505" lon="2.15276">
        <ele>76.8</ele>
        <time>2020-07-02T10:26:58Z</time>
      </trkpt>
      <trkpt lat="48.415" lon="2.15274">
        <ele>76.8</ele>
        <time>2020-07-02T10:26:59Z</time>
      </trkpt>
      <trkpt lat="48.41494" lon="2.15272">
        <ele>76.7</ele>
        <time>2020-07-02T10:27:00Z</time>
      </trkpt>
      <trkpt lat="48.41488" lon="2.1527">
        <ele>76.7</ele>
        <time>2020-07-02T10:27:01Z</time>
      </trkpt>
      <trkpt lat="48.41483" lon="2.15268">
        <ele>76.6</ele>
        <time>2020-07-02T10:27:02Z</time>
      </trkpt>
      <trkpt lat="48.41478" lon="2.15265">
        <ele>76.5</ele>
        <time>2020-07-02T10:27:03Z</time>
      </trkpt>
      <trkpt lat="48.41472" lon="2.15264">
        <ele>76.3</ele>
        <time>2020-07-02T10:27:04Z</time>
      </trkpt>
      <trkpt lat="48.41467" lon="2.15261">
        <ele>76.2</ele>
        <time>2020-07-02T10:27:05Z</time>
      </trkpt>
      <trkpt lat="48.41462" lon="2.15259">
        <ele>76.1</ele>
        <time>2020-07-02T10:27:06Z</time>
      </trkpt>
      <trkpt lat="48.41457" lon="2.15257">
        <ele>75.9</ele>
        <time>2020-07-02T10:27:07Z</time>
      </trkpt>
      <trkpt lat="48.41453" lon="2.15254">
        <ele>75.8</ele>
        <time>2020-07-02T10:27:08Z</time>
      </trkpt>
      <trkpt lat="48.41449" lon="2.15252">
        <ele>75.6</ele>
        <time>2020-07-02T10:27:09Z</time>
      </trkpt>
      <trkpt lat="48.41444" lon="2.15249">
        <ele>75.4</ele>
        <time>2020-07-02T10:27:10Z</time>
      </trkpt>
      <trkpt lat="48.4144" lon="2.15245">
        <ele>75.2</ele>
        <time>2020-07-02T10:27:11Z</time>
      </trkpt>
      <trkpt lat="48.41436" lon="2.15243">
        <ele>75.1</ele>
        <time>2020-07-02T10:27:12Z</time>
      </trkpt>
      <trkpt lat="48.41431" lon="2.15239">
        <ele>74.8</ele>
        <time>2020-07-02T10:27:13Z</time>
      </trkpt>
      <trkpt lat="48.41426" lon="2.15236">
        <ele>74.6</ele>
        <time>2020-07-02T10:27:14Z</time>
      </trkpt>
      <trkpt lat="48.4142" lon="2.15234">
        <ele>74.3</ele>
        <time>2020-07-02T10:27:15Z</time>
      </trkpt>
      <trkpt lat="48.41414" lon="2.15231">
        <ele>74.1</ele>
        <time>2020-07-02T10:27:16Z</time>
      </trkpt>
      <trkpt lat="48.41407" lon="2.15228">
        <ele>73.8</ele>
        <time>2020-07-02T10:27:17Z</time>
      </trkpt>
      <trkpt lat="48.414" lon="2.15223">
        <ele>73.5</ele>
        <time>2020-07-02T10:27:18Z</time>
      </trkpt>
      <trkpt lat="48.41393" lon="2.15218">
        <ele>73.3</ele>
        <time>2020-07-02T10:27:19Z</time>
      </trkpt>
      <trkpt lat="48.41386" lon="2.15213">
        <ele>73.1</ele>
        <time>2020-07-02T10:27:20Z</time>
      </trkpt>
      <trkpt lat="48.41379" lon="2.15209">
        <ele>73</ele>
        <time>2020-07-02T10:27:21Z</time>
      </trkpt>
      <trkpt lat="48.41372" lon="2.15204">
        <ele>73</ele>
        <time>2020-07-02T10:27:22Z</time>
      </trkpt>
      <trkpt lat="48.41364" lon="2.15198">
        <ele>73.2</ele>
        <time>2020-07-02T10:27:23Z</time>
      </trkpt>
      <trkpt lat="48.41357" lon="2.15192">
        <ele>73.4</ele>
        <time>2020-07-02T10:27:24Z</time>
      </trkpt>
      <trkpt lat="48.4135" lon="2.15188">
        <ele>73.5</ele>
        <time>2020-07-02T10:27:25Z</time>
      </trkpt>
      <trkpt lat="48.41343" lon="2.15184">
        <ele>73.7</ele>
        <time>2020-07-02T10:27:26Z</time>
      </trkpt>
      <trkpt lat="48.41336" lon="2.15181">
        <ele>73.9</ele>
        <time>2020-07-02T10:27:27Z</time>
      </trkpt>
      <trkpt lat="48.41329" lon="2.15178">
        <ele>74.1</ele>
        <time>2020-07-02T10:27:28Z</time>
      </trkpt>
      <trkpt lat="48.41324" lon="2.15176">
        <ele>74.2</ele>
        <time>2020-07-02T10:27:29Z</time>
      </trkpt>
      <trkpt lat="48.41318" lon="2.15173">
        <ele>74.4</ele>
        <time>2020-07-02T10:27:30Z</time>
      </trkpt>
      <trkpt lat="48.41313" lon="2.15172">
        <ele>74.5</ele>
        <time>2020-07-02T10:27:31Z</time>
      </trkpt>
      <trkpt lat="48.41307" lon="2.15169">
        <ele>74.7</ele>
        <time>2020-07-02T10:27:32Z</time>
      </trkpt>
      <trkpt lat="48.41301" lon="2.15166">
        <ele>74.9</ele>
        <time>2020-07-02T10:27:33Z</time>
      </trkpt>
      <trkpt lat="48.41296" lon="2.15165">
        <ele>75.1</ele>
        <time>2020-07-02T10:27:34Z</time>
      </trkpt>
      <trkpt lat="48.4129" lon="2.15163">
        <ele>75.3</ele>
        <time>2020-07-02T10:27:35Z</time>
      </trkpt>
      <trkpt lat="48.41284" lon="2.15161">
        <ele>75.4</ele>
        <time>2020-07-02T10:27:36Z</time>
      </trkpt>
      <trkpt lat="48.41278" lon="2.15159">
        <ele>75.5</ele>
        <time>2020-07-02T10:27:37Z</time>
      </trkpt>
      <trkpt lat="48.41272" lon="2.15157">
        <ele>75.6</ele>
        <time>2020-07-02T10:27:38Z</time>
      </trkpt>
      <trkpt lat="48.41267" lon="2.15155">
        <ele>75.8</ele>
        <time>2020-07-02T10:27:39Z</time>
      </trkpt>
      <trkpt lat="48.41261" lon="2.15154">
        <ele>75.9</ele>
        <time>2020-07-02T10:27:40Z</time>
      </trkpt>
      <trkpt lat="48.41255" lon="2.15152">
        <ele>76</ele>
        <time>2020-07-02T10:27:41Z</time>
      </trkpt>
      <trkpt lat="48.4125" lon="2.1515">
        <ele>76.2</ele>
        <time>2020-07-02T10:27:42Z</time>
      </trkpt>
      <trkpt lat="48.41242" lon="2.15147">
        <ele>76.5</ele>
        <time>2020-07-02T10:27:43Z</time>
      </trkpt>
      <trkpt lat="48.41236" lon="2.15146">
        <ele>76.6</ele>
        <time>2020-07-02T10:27:44Z</time>
      </trkpt>
      <trkpt lat="48.4123" lon="2.15145">
        <ele>76.8</ele>
        <time>2020-07-02T10:27:45Z</time>
      </trkpt>
      <trkpt lat="48.41224" lon="2.15143">
        <ele>77</ele>
        <time>2020-07-02T10:27:46Z</time>
      </trkpt>
      <trkpt lat="48.41218" lon="2.15142">
        <ele>77.2</ele>
        <time>2020-07-02T10:27:47Z</time>
      </trkpt>
      <trkpt lat="48.41212" lon="2.1514">
        <ele>77.4</ele>
        <time>2020-07-02T10:27:48Z</time>
      </trkpt>
      <trkpt lat="48.41206" lon="2.1514">
        <ele>77.5</ele>
        <time>2020-07-02T10:27:49Z</time>
      </trkpt>
      <trkpt lat="48.41199" lon="2.15138">
        <ele>77.8</ele>
        <time>2020-07-02T10:27:50Z</time>
      </trkpt>
      <trkpt lat="48.41194" lon="2.15138">
        <ele>77.9</ele>
        <time>2020-07-02T10:27:51Z</time>
      </trkpt>
      <trkpt lat="48.41188" lon="2.15136">
        <ele>78.1</ele>
        <time>2020-07-02T10:27:52Z</time>
      </trkpt>
      <trkpt lat="48.41183" lon="2.15134">
        <ele>78.3</ele>
        <time>2020-07-02T10:27:53Z</time>
      </trkpt>
      <trkpt lat="48.41178" lon="2.15132">
        <ele>78.4</ele>
        <time>2020-07-02T10:27:54Z</time>
      </trkpt>
      <trkpt lat="48.41171" lon="2.15129">
        <ele>78.6</ele>
        <time>2020-07-02T10:27:55Z</time>
      </trkpt>
      <trkpt lat="48.41165" lon="2.15127">
        <ele>78.8</ele>
        <time>2020-07-02T10:27:56Z</time>
      </trkpt>
      <trkpt lat="48.41159" lon="2.15125">
        <ele>78.9</ele>
        <time>2020-07-02T10:27:57Z</time>
      </trkpt>
      <trkpt lat="48.41152" lon="2.15123">
        <ele>79.1</ele>
        <time>2020-07-02T10:27:58Z</time>
      </trkpt>
      <trkpt lat="48.41148" lon="2.15121">
        <ele>79.2</ele>
        <time>2020-07-02T10:27:59Z</time>
      </trkpt>
      <trkpt lat="48.41144" lon="2.15118">
        <ele>79.4</ele>
        <time>2020-07-02T10:28:00Z</time>
      </trkpt>
      <trkpt lat="48.41138" lon="2.15116">
        <ele>79.6</ele>
        <time>2020-07-02T10:28:01Z</time>
      </trkpt>
      <trkpt lat="48.41133" lon="2.15114">
        <ele>79.8</ele>
        <time>2020-07-02T10:28:02Z</time>
      </trkpt>
      <trkpt lat="48.41128" lon="2.15113">
        <ele>80</ele>
        <time>2020-07-02T10:28:03Z</time>
      </trkpt>
      <trkpt lat="48.41123" lon="2.15112">
        <ele>80.2</ele>
        <time>2020-07-02T10:28:04Z</time>
      </trkpt>
      <trkpt lat="48.41116" lon="2.15111">
        <ele>80.4</ele>
        <time>2020-07-02T10:28:05Z</time>
      </trkpt>
      <trkpt lat="48.4111" lon="2.1511">
        <ele>80.6</ele>
        <time>2020-07-02T10:28:06Z</time>
      </trkpt>
      <trkpt lat="48.41107" lon="2.15109">
        <ele>80.7</ele>
        <time>2020-07-02T10:28:07Z</time>
      </trkpt>
      <trkpt lat="48.41101" lon="2.15107">
        <ele>80.9</ele>
        <time>2020-07-02T10:28:08Z</time>
      </trkpt>
      <trkpt lat="48.41097" lon="2.15106">
        <ele>81.1</ele>
        <time>2020-07-02T10:28:09Z</time>
      </trkpt>
      <trkpt lat="48.41092" lon="2.15104">
        <ele>81.2</ele>
        <time>2020-07-02T10:28:10Z</time>
      </trkpt>
      <trkpt lat="48.41087" lon="2.15102">
        <ele>81.4</ele>
        <time>2020-07-02T10:28:11Z</time>
      </trkpt>
      <trkpt lat="48.41081" lon="2.15101">
        <ele>81.6</ele>
        <time>2020-07-02T10:28:12Z</time>
      </trkpt>
      <trkpt lat="48.41075" lon="2.151">
        <ele>81.8</ele>
        <time>2020-07-02T10:28:13Z</time>
      </trkpt>
      <trkpt lat="48.41069" lon="2.15098">
        <ele>82</ele>
        <time>2020-07-02T10:28:14Z</time>
      </trkpt>
      <trkpt lat="48.41065" lon="2.15097">
        <ele>82.2</ele>
        <time>2020-07-02T10:28:15Z</time>
      </trkpt>
      <trkpt lat="48.4106" lon="2.15095">
        <ele>82.4</ele>
        <time>2020-07-02T10:28:16Z</time>
      </trkpt>
      <trkpt lat="48.41055" lon="2.15094">
        <ele>82.6</ele>
        <time>2020-07-02T10:28:17Z</time>
      </trkpt>
      <trkpt lat="48.41051" lon="2.15093">
        <ele>82.8</ele>
        <time>2020-07-02T10:28:18Z</time>
      </trkpt>
      <trkpt lat="48.41047" lon="2.15092">
        <ele>82.9</ele>
        <time>2020-07-02T10:28:19Z</time>
      </trkpt>
      <trkpt lat="48.41043" lon="2.15091">
        <ele>83.1</ele>
        <time>2020-07-02T10:28:20Z</time>
      </trkpt>
      <trkpt lat="48.41038" lon="2.15091">
        <ele>83.4</ele>
        <time>2020-07-02T10:28:21Z</time>
      </trkpt>
      <trkpt lat="48.41033" lon="2.1509">
        <ele>83.6</ele>
        <time>2020-07-02T10:28:22Z</time>
      </trkpt>
      <trkpt lat="48.41029" lon="2.1509">
        <ele>83.7</ele>
        <time>2020-07-02T10:28:23Z</time>
      </trkpt>
      <trkpt lat="48.41024" lon="2.1509">
        <ele>83.9</ele>
        <time>2020-07-02T10:28:24Z</time>
      </trkpt>
      <trkpt lat="48.4102" lon="2.15089">
        <ele>84.1</ele>
        <time>2020-07-02T10:28:25Z</time>
      </trkpt>
      <trkpt lat="48.41016" lon="2.15088">
        <ele>84.2</ele>
        <time>2020-07-02T10:28:26Z</time>
      </trkpt>
      <trkpt lat="48.41013" lon="2.15088">
        <ele>84.3</ele>
        <time>2020-07-02T10:28:27Z</time>
      </trkpt>
      <trkpt lat="48.41009" lon="2.15086">
        <ele>84.4</ele>
        <time>2020-07-02T10:28:28Z</time>
      </trkpt>
      <trkpt lat="48.41004" lon="2.15085">
        <ele>84.6</ele>
        <time>2020-07-02T10:28:29Z</time>
      </trkpt>
      <trkpt lat="48.41" lon="2.15086">
        <ele>84.7</ele>
        <time>2020-07-02T10:28:30Z</time>
      </trkpt>
      <trkpt lat="48.40996" lon="2.15085">
        <ele>84.8</ele>
        <time>2020-07-02T10:28:31Z</time>
      </trkpt>
      <trkpt lat="48.4099" lon="2.15084">
        <ele>84.9</ele>
        <time>2020-07-02T10:28:32Z</time>
      </trkpt>
      <trkpt lat="48.40987" lon="2.15083">
        <ele>85</ele>
        <time>2020-07-02T10:28:33Z</time>
      </trkpt>
      <trkpt lat="48.40982" lon="2.15081">
        <ele>85.1</ele>
        <time>2020-07-02T10:28:34Z</time>
      </trkpt>
      <trkpt lat="48.40977" lon="2.1508">
        <ele>85.2</ele>
        <time>2020-07-02T10:28:35Z</time>
      </trkpt>
      <trkpt lat="48.40973" lon="2.15079">
        <ele>85.3</ele>
        <time>2020-07-02T10:28:36Z</time>
      </trkpt>
      <trkpt lat="48.40968" lon="2.15078">
        <ele>85.4</ele>
        <time>2020-07-02T10:28:37Z</time>
      </trkpt>
      <trkpt lat="48.40963" lon="2.15076">
        <ele>85.4</ele>
        <time>2020-07-02T10:28:38Z</time>
      </trkpt>
      <trkpt lat="48.40958" lon="2.15075">
        <ele>85.5</ele>
        <time>2020-07-02T10:28:39Z</time>
      </trkpt>
      <trkpt lat="48.40952" lon="2.15073">
        <ele>85.5</ele>
        <time>2020-07-02T10:28:40Z</time>
      </trkpt>
      <trkpt lat="48.40947" lon="2.15072">
        <ele>85.5</ele>
        <time>2020-07-02T10:28:41Z</time>
      </trkpt>
      <trkpt lat="48.40941" lon="2.15071">
        <ele>85.4</ele>
        <time>2020-07-02T10:28:42Z</time>
      </trkpt>
      <trkpt lat="48.40935" lon="2.15069">
        <ele>85.3</ele>
        <time>2020-07-02T10:28:43Z</time>
      </trkpt>
      <trkpt lat="48.40931" lon="2.15068">
        <ele>85.2</ele>
        <time>2020-07-02T10:28:44Z</time>
      </trkpt>
      <trkpt lat="48.40925" lon="2.15067">
        <ele>85.1</ele>
        <time>2020-07-02T10:28:45Z</time>
      </trkpt>
      <trkpt lat="48.40919" lon="2.15066">
        <ele>84.9</ele>
        <time>2020-07-02T10:28:46Z</time>
      </trkpt>
      <trkpt lat="48.40912" lon="2.15064">
        <ele>84.7</ele>
        <time>2020-07-02T10:28:47Z</time>
      </trkpt>
      <trkpt lat="48.40905" lon="2.15063">
        <ele>84.4</ele>
        <time>2020-07-02T10:28:48Z</time>
      </trkpt>
      <trkpt lat="48.40899" lon="2.1506">
        <ele>84.2</ele>
        <time>2020-07-02T10:28:49Z</time>
      </trkpt>
      <trkpt lat="48.40892" lon="2.15057">
        <ele>83.9</ele>
        <time>2020-07-02T10:28:50Z</time>
      </trkpt>
      <trkpt lat="48.40885" lon="2.15053">
        <ele>83.7</ele>
        <time>2020-07-02T10:28:51Z</time>
      </trkpt>
      <trkpt lat="48.40879" lon="2.15049">
        <ele>83.4</ele>
        <time>2020-07-02T10:28:52Z</time>
      </trkpt>
      <trkpt lat="48.40873" lon="2.15045">
        <ele>83.1</ele>
        <time>2020-07-02T10:28:53Z</time>
      </trkpt>
      <trkpt lat="48.40865" lon="2.15041">
        <ele>82.8</ele>
        <time>2020-07-02T10:28:54Z</time>
      </trkpt>
      <trkpt lat="48.40858" lon="2.15037">
        <ele>82.3</ele>
        <time>2020-07-02T10:28:55Z</time>
      </trkpt>
      <trkpt lat="48.40852" lon="2.15034">
        <ele>82.3</ele>
        <time>2020-07-02T10:28:56Z</time>
      </trkpt>
      <trkpt lat="48.40843" lon="2.1503">
        <ele>82.1</ele>
        <time>2020-07-02T10:28:57Z</time>
      </trkpt>
      <trkpt lat="48.40837" lon="2.15025">
        <ele>81.9</ele>
        <time>2020-07-02T10:28:58Z</time>
      </trkpt>
      <trkpt lat="48.40829" lon="2.1502">
        <ele>81.8</ele>
        <time>2020-07-02T10:28:59Z</time>
      </trkpt>
      <trkpt lat="48.40822" lon="2.15015">
        <ele>81.6</ele>
        <time>2020-07-02T10:29:00Z</time>
      </trkpt>
      <trkpt lat="48.40815" lon="2.15012">
        <ele>81.5</ele>
        <time>2020-07-02T10:29:01Z</time>
      </trkpt>
      <trkpt lat="48.40807" lon="2.15009">
        <ele>81.4</ele>
        <time>2020-07-02T10:29:02Z</time>
      </trkpt>
      <trkpt lat="48.40799" lon="2.15006">
        <ele>81.3</ele>
        <time>2020-07-02T10:29:03Z</time>
      </trkpt>
      <trkpt lat="48.40791" lon="2.15001">
        <ele>81.3</ele>
        <time>2020-07-02T10:29:04Z</time>
      </trkpt>
      <trkpt lat="48.40783" lon="2.14997">
        <ele>81.2</ele>
        <time>2020-07-02T10:29:05Z</time>
      </trkpt>
      <trkpt lat="48.40775" lon="2.14992">
        <ele>81.2</ele>
        <time>2020-07-02T10:29:06Z</time>
      </trkpt>
      <trkpt lat="48.40767" lon="2.14989">
        <ele>81.2</ele>
        <time>2020-07-02T10:29:07Z</time>
      </trkpt>
      <trkpt lat="48.40759" lon="2.14986">
        <ele>81.3</ele>
        <time>2020-07-02T10:29:08Z</time>
      </trkpt>
      <trkpt lat="48.40752" lon="2.14984">
        <ele>81.3</ele>
        <time>2020-07-02T10:29:09Z</time>
      </trkpt>
      <trkpt lat="48.40744" lon="2.14982">
        <ele>81.4</ele>
        <time>2020-07-02T10:29:10Z</time>
      </trkpt>
      <trkpt lat="48.40737" lon="2.1498">
        <ele>81.4</ele>
        <time>2020-07-02T10:29:11Z</time>
      </trkpt>
      <trkpt lat="48.40729" lon="2.14978">
        <ele>81.4</ele>
        <time>2020-07-02T10:29:12Z</time>
      </trkpt>
      <trkpt lat="48.40722" lon="2.14977">
        <ele>81.5</ele>
        <time>2020-07-02T10:29:13Z</time>
      </trkpt>
      <trkpt lat="48.40715" lon="2.14977">
        <ele>81.5</ele>
        <time>2020-07-02T10:29:14Z</time>
      </trkpt>
      <trkpt lat="48.40708" lon="2.14977">
        <ele>81.5</ele>
        <time>2020-07-02T10:29:15Z</time>
      </trkpt>
      <trkpt lat="48.40701" lon="2.14976">
        <ele>81.5</ele>
        <time>2020-07-02T10:29:16Z</time>
      </trkpt>
      <trkpt lat="48.40694" lon="2.14975">
        <ele>81.5</ele>
        <time>2020-07-02T10:29:17Z</time>
      </trkpt>
      <trkpt lat="48.40686" lon="2.14975">
        <ele>81.5</ele>
        <time>2020-07-02T10:29:18Z</time>
      </trkpt>
      <trkpt lat="48.40678" lon="2.14973">
        <ele>81.5</ele>
        <time>2020-07-02T10:29:19Z</time>
      </trkpt>
      <trkpt lat="48.40671" lon="2.14973">
        <ele>81.5</ele>
        <time>2020-07-02T10:29:20Z</time>
      </trkpt>
      <trkpt lat="48.40664" lon="2.14973">
        <ele>81.5</ele>
        <time>2020-07-02T10:29:21Z</time>
      </trkpt>
      <trkpt lat="48.40656" lon="2.14972">
        <ele>81.6</ele>
        <time>2020-07-02T10:29:22Z</time>
      </trkpt>
      <trkpt lat="48.40649" lon="2.14972">
        <ele>81.6</ele>
        <time>2020-07-02T10:29:23Z</time>
      </trkpt>
      <trkpt lat="48.40642" lon="2.14972">
        <ele>81.7</ele>
        <time>2020-07-02T10:29:24Z</time>
      </trkpt>
      <trkpt lat="48.40634" lon="2.14971">
        <ele>81.7</ele>
        <time>2020-07-02T10:29:25Z</time>
      </trkpt>
      <trkpt lat="48.40628" lon="2.14969">
        <ele>81.8</ele>
        <time>2020-07-02T10:29:26Z</time>
      </trkpt>
      <trkpt lat="48.40621" lon="2.14968">
        <ele>81.9</ele>
        <time>2020-07-02T10:29:27Z</time>
      </trkpt>
      <trkpt lat="48.40614" lon="2.14967">
        <ele>82</ele>
        <time>2020-07-02T10:29:28Z</time>
      </trkpt>
      <trkpt lat="48.40607" lon="2.14966">
        <ele>82.1</ele>
        <time>2020-07-02T10:29:29Z</time>
      </trkpt>
      <trkpt lat="48.40601" lon="2.14964">
        <ele>82.2</ele>
        <time>2020-07-02T10:29:30Z</time>
      </trkpt>
      <trkpt lat="48.40595" lon="2.14962">
        <ele>82.3</ele>
        <time>2020-07-02T10:29:31Z</time>
      </trkpt>
      <trkpt lat="48.40589" lon="2.1496">
        <ele>82.3</ele>
        <time>2020-07-02T10:29:32Z</time>
      </trkpt>
      <trkpt lat="48.40583" lon="2.14959">
        <ele>82.4</ele>
        <time>2020-07-02T10:29:33Z</time>
      </trkpt>
      <trkpt lat="48.40577" lon="2.14958">
        <ele>82.4</ele>
        <time>2020-07-02T10:29:34Z</time>
      </trkpt>
      <trkpt lat="48.40571" lon="2.14957">
        <ele>82.4</ele>
        <time>2020-07-02T10:29:35Z</time>
      </trkpt>
      <trkpt lat="48.40565" lon="2.14956">
        <ele>82.4</ele>
        <time>2020-07-02T10:29:36Z</time>
      </trkpt>
      <trkpt lat="48.40559" lon="2.14955">
        <ele>82.4</ele>
        <time>2020-07-02T10:29:37Z</time>
      </trkpt>
      <trkpt lat="48.40553" lon="2.14953">
        <ele>82.4</ele>
        <time>2020-07-02T10:29:38Z</time>
      </trkpt>
      <trkpt lat="48.40546" lon="2.14953">
        <ele>82.4</ele>
        <time>2020-07-02T10:29:39Z</time>
      </trkpt>
      <trkpt lat="48.4054" lon="2.14953">
        <ele>82.4</ele>
        <time>2020-07-02T10:29:40Z</time>
      </trkpt>
      <trkpt lat="48.40534" lon="2.14953">
        <ele>82.4</ele>
        <time>2020-07-02T10:29:41Z</time>
      </trkpt>
      <trkpt lat="48.40528" lon="2.14954">
        <ele>82.4</ele>
        <time>2020-07-02T10:29:42Z</time>
      </trkpt>
      <trkpt lat="48.40522" lon="2.14956">
        <ele>82.4</ele>
        <time>2020-07-02T10:29:43Z</time>
      </trkpt>
      <trkpt lat="48.40516" lon="2.14957">
        <ele>82.4</ele>
        <time>2020-07-02T10:29:44Z</time>
      </trkpt>
      <trkpt lat="48.40509" lon="2.14959">
        <ele>82.5</ele>
        <time>2020-07-02T10:29:45Z</time>
      </trkpt>
      <trkpt lat="48.40503" lon="2.1496">
        <ele>82.5</ele>
        <time>2020-07-02T10:29:46Z</time>
      </trkpt>
      <trkpt lat="48.40497" lon="2.14961">
        <ele>82.5</ele>
        <time>2020-07-02T10:29:47Z</time>
      </trkpt>
      <trkpt lat="48.40491" lon="2.14962">
        <ele>82.5</ele>
        <time>2020-07-02T10:29:48Z</time>
      </trkpt>
      <trkpt lat="48.40485" lon="2.14963">
        <ele>82.4</ele>
        <time>2020-07-02T10:29:49Z</time>
      </trkpt>
      <trkpt lat="48.40479" lon="2.14964">
        <ele>82.4</ele>
        <time>2020-07-02T10:29:50Z</time>
      </trkpt>
      <trkpt lat="48.40473" lon="2.14965">
        <ele>82.4</ele>
        <time>2020-07-02T10:29:51Z</time>
      </trkpt>
      <trkpt lat="48.40467" lon="2.14966">
        <ele>82.4</ele>
        <time>2020-07-02T10:29:52Z</time>
      </trkpt>
      <trkpt lat="48.40461" lon="2.14966">
        <ele>82.4</ele>
        <time>2020-07-02T10:29:53Z</time>
      </trkpt>
      <trkpt lat="48.40455" lon="2.14967">
        <ele>82.4</ele>
        <time>2020-07-02T10:29:54Z</time>
      </trkpt>
      <trkpt lat="48.40449" lon="2.14966">
        <ele>82.4</ele>
        <time>2020-07-02T10:29:55Z</time>
      </trkpt>
      <trkpt lat="48.40443" lon="2.14967">
        <ele>82.3</ele>
        <time>2020-07-02T10:29:56Z</time>
      </trkpt>
      <trkpt lat="48.40438" lon="2.14968">
        <ele>82.2</ele>
        <time>2020-07-02T10:29:57Z</time>
      </trkpt>
      <trkpt lat="48.40432" lon="2.14969">
        <ele>82.1</ele>
        <time>2020-07-02T10:29:58Z</time>
      </trkpt>
      <trkpt lat="48.40426" lon="2.1497">
        <ele>82.1</ele>
        <time>2020-07-02T10:29:59Z</time>
      </trkpt>
      <trkpt lat="48.40421" lon="2.14971">
        <ele>81.9</ele>
        <time>2020-07-02T10:30:00Z</time>
      </trkpt>
      <trkpt lat="48.40415" lon="2.14971">
        <ele>81.8</ele>
        <time>2020-07-02T10:30:01Z</time>
      </trkpt>
      <trkpt lat="48.4041" lon="2.14973">
        <ele>81.7</ele>
        <time>2020-07-02T10:30:02Z</time>
      </trkpt>
      <trkpt lat="48.40406" lon="2.14973">
        <ele>81.6</ele>
        <time>2020-07-02T10:30:03Z</time>
      </trkpt>
      <trkpt lat="48.40401" lon="2.14973">
        <ele>81.5</ele>
        <time>2020-07-02T10:30:04Z</time>
      </trkpt>
      <trkpt lat="48.40395" lon="2.14976">
        <ele>81.4</ele>
        <time>2020-07-02T10:30:05Z</time>
      </trkpt>
      <trkpt lat="48.40389" lon="2.14977">
        <ele>81.3</ele>
        <time>2020-07-02T10:30:06Z</time>
      </trkpt>
      <trkpt lat="48.40384" lon="2.1498">
        <ele>81.3</ele>
        <time>2020-07-02T10:30:07Z</time>
      </trkpt>
      <trkpt lat="48.40379" lon="2.1498">
        <ele>81.2</ele>
        <time>2020-07-02T10:30:08Z</time>
      </trkpt>
      <trkpt lat="48.40375" lon="2.14981">
        <ele>81.1</ele>
        <time>2020-07-02T10:30:09Z</time>
      </trkpt>
      <trkpt lat="48.4037" lon="2.14981">
        <ele>81</ele>
        <time>2020-07-02T10:30:10Z</time>
      </trkpt>
      <trkpt lat="48.40368" lon="2.14978">
        <ele>80.7</ele>
        <time>2020-07-02T10:30:11Z</time>
      </trkpt>
      <trkpt lat="48.40367" lon="2.14973">
        <ele>80.3</ele>
        <time>2020-07-02T10:30:12Z</time>
      </trkpt>
      <trkpt lat="48.40367" lon="2.14965">
        <ele>79.8</ele>
        <time>2020-07-02T10:30:13Z</time>
      </trkpt>
      <trkpt lat="48.40367" lon="2.14957">
        <ele>79.3</ele>
        <time>2020-07-02T10:30:14Z</time>
      </trkpt>
      <trkpt lat="48.40367" lon="2.14949">
        <ele>78.8</ele>
        <time>2020-07-02T10:30:15Z</time>
      </trkpt>
      <trkpt lat="48.40367" lon="2.14941">
        <ele>78.4</ele>
        <time>2020-07-02T10:30:16Z</time>
      </trkpt>
      <trkpt lat="48.40367" lon="2.14933">
        <ele>77.9</ele>
        <time>2020-07-02T10:30:17Z</time>
      </trkpt>
      <trkpt lat="48.40367" lon="2.14924">
        <ele>77.5</ele>
        <time>2020-07-02T10:30:18Z</time>
      </trkpt>
      <trkpt lat="48.40368" lon="2.14917">
        <ele>77.1</ele>
        <time>2020-07-02T10:30:19Z</time>
      </trkpt>
      <trkpt lat="48.40369" lon="2.1491">
        <ele>76.8</ele>
        <time>2020-07-02T10:30:20Z</time>
      </trkpt>
      <trkpt lat="48.40369" lon="2.14905">
        <ele>76.4</ele>
        <time>2020-07-02T10:30:21Z</time>
      </trkpt>
      <trkpt lat="48.40369" lon="2.149">
        <ele>76.2</ele>
        <time>2020-07-02T10:30:22Z</time>
      </trkpt>
      <trkpt lat="48.40369" lon="2.14896">
        <ele>76.3</ele>
        <time>2020-07-02T10:30:23Z</time>
      </trkpt>
      <trkpt lat="48.40369" lon="2.14892">
        <ele>76.4</ele>
        <time>2020-07-02T10:30:24Z</time>
      </trkpt>
      <trkpt lat="48.40369" lon="2.14891">
        <ele>76.5</ele>
        <time>2020-07-02T10:30:25Z</time>
      </trkpt>
      <trkpt lat="48.40369" lon="2.1489">
        <ele>76.5</ele>
        <time>2020-07-02T10:30:26Z</time>
      </trkpt>
      <trkpt lat="48.40368" lon="2.14891">
        <ele>76.6</ele>
        <time>2020-07-02T10:30:27Z</time>
      </trkpt>
      <trkpt lat="48.40368" lon="2.14891">
        <ele>76.6</ele>
        <time>2020-07-02T10:30:28Z</time>
      </trkpt>
      <trkpt lat="48.40368" lon="2.1489">
        <ele>76.6</ele>
        <time>2020-07-02T10:30:29Z</time>
      </trkpt>
      <trkpt lat="48.40368" lon="2.14889">
        <ele>76.6</ele>
        <time>2020-07-02T10:30:30Z</time>
      </trkpt>
      <trkpt lat="48.40368" lon="2.14888">
        <ele>76.7</ele>
        <time>2020-07-02T10:30:31Z</time>
      </trkpt>
      <trkpt lat="48.40368" lon="2.14886">
        <ele>76.7</ele>
        <time>2020-07-02T10:30:32Z</time>
      </trkpt>
      <trkpt lat="48.40367" lon="2.14886">
        <ele>76.7</ele>
        <time>2020-07-02T10:30:33Z</time>
      </trkpt>
      <trkpt lat="48.40368" lon="2.14887">
        <ele>76.8</ele>
        <time>2020-07-02T10:30:34Z</time>
      </trkpt>
      <trkpt lat="48.40367" lon="2.14887">
        <ele>76.8</ele>
        <time>2020-07-02T10:30:35Z</time>
      </trkpt>
      <trkpt lat="48.40367" lon="2.14887">
        <ele>76.8</ele>
        <time>2020-07-02T10:30:36Z</time>
      </trkpt>
      <trkpt lat="48.40367" lon="2.14887">
        <ele>76.8</ele>
        <time>2020-07-02T10:30:37Z</time>
      </trkpt>
      <trkpt lat="48.40367" lon="2.14886">
        <ele>76.8</ele>
        <time>2020-07-02T10:30:38Z</time>
      </trkpt>
      <trkpt lat="48.40367" lon="2.14887">
        <ele>76.9</ele>
        <time>2020-07-02T10:30:39Z</time>
      </trkpt>
      <trkpt lat="48.40367" lon="2.14887">
        <ele>76.9</ele>
        <time>2020-07-02T10:30:40Z</time>
      </trkpt>
      <trkpt lat="48.40367" lon="2.14887">
        <ele>76.9</ele>
        <time>2020-07-02T10:30:41Z</time>
      </trkpt>
      <trkpt lat="48.40366" lon="2.14887">
        <ele>76.9</ele>
        <time>2020-07-02T10:30:42Z</time>
      </trkpt>
      <trkpt lat="48.40366" lon="2.14887">
        <ele>77</ele>
        <time>2020-07-02T10:30:43Z</time>
      </trkpt>
      <trkpt lat="48.40366" lon="2.14886">
        <ele>77</ele>
        <time>2020-07-02T10:30:44Z</time>
      </trkpt>
      <trkpt lat="48.40365" lon="2.14886">
        <ele>77</ele>
        <time>2020-07-02T10:30:45Z</time>
      </trkpt>
      <trkpt lat="48.40365" lon="2.14886">
        <ele>77</ele>
        <time>2020-07-02T10:30:46Z</time>
      </trkpt>
      <trkpt lat="48.40364" lon="2.14888">
        <ele>77.1</ele>
        <time>2020-07-02T10:30:47Z</time>
      </trkpt>
      <trkpt lat="48.40364" lon="2.14888">
        <ele>77.1</ele>
        <time>2020-07-02T10:30:48Z</time>
      </trkpt>
      <trkpt lat="48.40364" lon="2.14889">
        <ele>77.1</ele>
        <time>2020-07-02T10:30:49Z</time>
      </trkpt>
      <trkpt lat="48.40364" lon="2.14889">
        <ele>77.2</ele>
        <time>2020-07-02T10:30:50Z</time>
      </trkpt>
      <trkpt lat="48.40364" lon="2.1489">
        <ele>77.2</ele>
        <time>2020-07-02T10:30:51Z</time>
      </trkpt>
      <trkpt lat="48.40364" lon="2.1489">
        <ele>77.2</ele>
        <time>2020-07-02T10:30:52Z</time>
      </trkpt>
      <trkpt lat="48.40364" lon="2.14891">
        <ele>77.2</ele>
        <time>2020-07-02T10:30:53Z</time>
      </trkpt>
      <trkpt lat="48.40363" lon="2.14891">
        <ele>77.2</ele>
        <time>2020-07-02T10:30:54Z</time>
      </trkpt>
      <trkpt lat="48.40363" lon="2.14893">
        <ele>77.3</ele>
        <time>2020-07-02T10:30:55Z</time>
      </trkpt>
      <trkpt lat="48.40363" lon="2.14895">
        <ele>77.4</ele>
        <time>2020-07-02T10:30:56Z</time>
      </trkpt>
      <trkpt lat="48.40363" lon="2.14898">
        <ele>77.4</ele>
        <time>2020-07-02T10:30:57Z</time>
      </trkpt>
      <trkpt lat="48.40364" lon="2.14899">
        <ele>77.5</ele>
        <time>2020-07-02T10:30:58Z</time>
      </trkpt>
      <trkpt lat="48.40364" lon="2.149">
        <ele>77.5</ele>
        <time>2020-07-02T10:30:59Z</time>
      </trkpt>
      <trkpt lat="48.40364" lon="2.14901">
        <ele>77.6</ele>
        <time>2020-07-02T10:31:00Z</time>
      </trkpt>
      <trkpt lat="48.40367" lon="2.14901">
        <ele>77.7</ele>
        <time>2020-07-02T10:31:01Z</time>
      </trkpt>
      <trkpt lat="48.40367" lon="2.14904">
        <ele>77.8</ele>
        <time>2020-07-02T10:31:02Z</time>
      </trkpt>
      <trkpt lat="48.40367" lon="2.14909">
        <ele>77.9</ele>
        <time>2020-07-02T10:31:03Z</time>
      </trkpt>
      <trkpt lat="48.40368" lon="2.14911">
        <ele>78</ele>
        <time>2020-07-02T10:31:04Z</time>
      </trkpt>
      <trkpt lat="48.40368" lon="2.14914">
        <ele>78.1</ele>
        <time>2020-07-02T10:31:05Z</time>
      </trkpt>
      <trkpt lat="48.40368" lon="2.14916">
        <ele>78.2</ele>
        <time>2020-07-02T10:31:06Z</time>
      </trkpt>
      <trkpt lat="48.40368" lon="2.14918">
        <ele>78.3</ele>
        <time>2020-07-02T10:31:07Z</time>
      </trkpt>
      <trkpt lat="48.40368" lon="2.1492">
        <ele>78.3</ele>
        <time>2020-07-02T10:31:08Z</time>
      </trkpt>
      <trkpt lat="48.40368" lon="2.14925">
        <ele>78.5</ele>
        <time>2020-07-02T10:31:09Z</time>
      </trkpt>
      <trkpt lat="48.40368" lon="2.14927">
        <ele>78.6</ele>
        <time>2020-07-02T10:31:10Z</time>
      </trkpt>
      <trkpt lat="48.40368" lon="2.14933">
        <ele>78.8</ele>
        <time>2020-07-02T10:31:11Z</time>
      </trkpt>
      <trkpt lat="48.40368" lon="2.14935">
        <ele>78.8</ele>
        <time>2020-07-02T10:31:12Z</time>
      </trkpt>
      <trkpt lat="48.40367" lon="2.14939">
        <ele>79</ele>
        <time>2020-07-02T10:31:13Z</time>
      </trkpt>
      <trkpt lat="48.40368" lon="2.14944">
        <ele>79.2</ele>
        <time>2020-07-02T10:31:14Z</time>
      </trkpt>
      <trkpt lat="48.40368" lon="2.14948">
        <ele>79.3</ele>
        <time>2020-07-02T10:31:15Z</time>
      </trkpt>
      <trkpt lat="48.40368" lon="2.14953">
        <ele>79.5</ele>
        <time>2020-07-02T10:31:16Z</time>
      </trkpt>
      <trkpt lat="48.40367" lon="2.14958">
        <ele>79.7</ele>
        <time>2020-07-02T10:31:17Z</time>
      </trkpt>
      <trkpt lat="48.40368" lon="2.14963">
        <ele>79.9</ele>
        <time>2020-07-02T10:31:18Z</time>
      </trkpt>
      <trkpt lat="48.40367" lon="2.14967">
        <ele>80.1</ele>
        <time>2020-07-02T10:31:19Z</time>
      </trkpt>
      <trkpt lat="48.40366" lon="2.14969">
        <ele>80.2</ele>
        <time>2020-07-02T10:31:20Z</time>
      </trkpt>
      <trkpt lat="48.40366" lon="2.14971">
        <ele>80.3</ele>
        <time>2020-07-02T10:31:21Z</time>
      </trkpt>
      <trkpt lat="48.40366" lon="2.14974">
        <ele>80.4</ele>
        <time>2020-07-02T10:31:22Z</time>
      </trkpt>
      <trkpt lat="48.40366" lon="2.14979">
        <ele>80.6</ele>
        <time>2020-07-02T10:31:23Z</time>
      </trkpt>
      <trkpt lat="48.40365" lon="2.14981">
        <ele>80.7</ele>
        <time>2020-07-02T10:31:24Z</time>
      </trkpt>
      <trkpt lat="48.40363" lon="2.14984">
        <ele>80.9</ele>
        <time>2020-07-02T10:31:25Z</time>
      </trkpt>
      <trkpt lat="48.40362" lon="2.14985">
        <ele>81</ele>
        <time>2020-07-02T10:31:26Z</time>
      </trkpt>
      <trkpt lat="48.40358" lon="2.14987">
        <ele>80.8</ele>
        <time>2020-07-02T10:31:27Z</time>
      </trkpt>
      <trkpt lat="48.40357" lon="2.14988">
        <ele>80.8</ele>
        <time>2020-07-02T10:31:28Z</time>
      </trkpt>
      <trkpt lat="48.40354" lon="2.14989">
        <ele>80.7</ele>
        <time>2020-07-02T10:31:29Z</time>
      </trkpt>
      <trkpt lat="48.40353" lon="2.14989">
        <ele>80.7</ele>
        <time>2020-07-02T10:31:30Z</time>
      </trkpt>
      <trkpt lat="48.4035" lon="2.14989">
        <ele>80.7</ele>
        <time>2020-07-02T10:31:31Z</time>
      </trkpt>
      <trkpt lat="48.40347" lon="2.1499">
        <ele>80.6</ele>
        <time>2020-07-02T10:31:32Z</time>
      </trkpt>
      <trkpt lat="48.40344" lon="2.14991">
        <ele>80.5</ele>
        <time>2020-07-02T10:31:33Z</time>
      </trkpt>
      <trkpt lat="48.4034" lon="2.14992">
        <ele>80.5</ele>
        <time>2020-07-02T10:31:34Z</time>
      </trkpt>
      <trkpt lat="48.40336" lon="2.14993">
        <ele>80.4</ele>
        <time>2020-07-02T10:31:35Z</time>
      </trkpt>
      <trkpt lat="48.40332" lon="2.14995">
        <ele>80.3</ele>
        <time>2020-07-02T10:31:36Z</time>
      </trkpt>
      <trkpt lat="48.40328" lon="2.14997">
        <ele>80.3</ele>
        <time>2020-07-02T10:31:37Z</time>
      </trkpt>
      <trkpt lat="48.40324" lon="2.14999">
        <ele>80.2</ele>
        <time>2020-07-02T10:31:38Z</time>
      </trkpt>
      <trkpt lat="48.4032" lon="2.15">
        <ele>80.1</ele>
        <time>2020-07-02T10:31:39Z</time>
      </trkpt>
      <trkpt lat="48.40315" lon="2.15002">
        <ele>80</ele>
        <time>2020-07-02T10:31:40Z</time>
      </trkpt>
      <trkpt lat="48.4031" lon="2.15004">
        <ele>79.8</ele>
        <time>2020-07-02T10:31:41Z</time>
      </trkpt>
      <trkpt lat="48.40305" lon="2.15005">
        <ele>79.7</ele>
        <time>2020-07-02T10:31:42Z</time>
      </trkpt>
      <trkpt lat="48.403" lon="2.15007">
        <ele>79.5</ele>
        <time>2020-07-02T10:31:43Z</time>
      </trkpt>
      <trkpt lat="48.40294" lon="2.15009">
        <ele>79.4</ele>
        <time>2020-07-02T10:31:44Z</time>
      </trkpt>
      <trkpt lat="48.40288" lon="2.15012">
        <ele>79.2</ele>
        <time>2020-07-02T10:31:45Z</time>
      </trkpt>
      <trkpt lat="48.40282" lon="2.15014">
        <ele>78.9</ele>
        <time>2020-07-02T10:31:46Z</time>
      </trkpt>
      <trkpt lat="48.40275" lon="2.15016">
        <ele>78.4</ele>
        <time>2020-07-02T10:31:47Z</time>
      </trkpt>
      <trkpt lat="48.40269" lon="2.15017">
        <ele>78.2</ele>
        <time>2020-07-02T10:31:48Z</time>
      </trkpt>
      <trkpt lat="48.40261" lon="2.15018">
        <ele>77.9</ele>
        <time>2020-07-02T10:31:49Z</time>
      </trkpt>
      <trkpt lat="48.40253" lon="2.15019">
        <ele>77.7</ele>
        <time>2020-07-02T10:31:50Z</time>
      </trkpt>
      <trkpt lat="48.40246" lon="2.15021">
        <ele>77.5</ele>
        <time>2020-07-02T10:31:51Z</time>
      </trkpt>
      <trkpt lat="48.40239" lon="2.15022">
        <ele>77.4</ele>
        <time>2020-07-02T10:31:52Z</time>
      </trkpt>
      <trkpt lat="48.40232" lon="2.15026">
        <ele>77.3</ele>
        <time>2020-07-02T10:31:53Z</time>
      </trkpt>
      <trkpt lat="48.40225" lon="2.15032">
        <ele>77.3</ele>
        <time>2020-07-02T10:31:54Z</time>
      </trkpt>
      <trkpt lat="48.4022" lon="2.15038">
        <ele>77.4</ele>
        <time>2020-07-02T10:31:55Z</time>
      </trkpt>
      <trkpt lat="48.40215" lon="2.15046">
        <ele>77.4</ele>
        <time>2020-07-02T10:31:56Z</time>
      </trkpt>
      <trkpt lat="48.40211" lon="2.15053">
        <ele>77.5</ele>
        <time>2020-07-02T10:31:57Z</time>
      </trkpt>
      <trkpt lat="48.40206" lon="2.1506">
        <ele>77.6</ele>
        <time>2020-07-02T10:31:58Z</time>
      </trkpt>
      <trkpt lat="48.402" lon="2.15067">
        <ele>77.7</ele>
        <time>2020-07-02T10:31:59Z</time>
      </trkpt>
      <trkpt lat="48.40195" lon="2.15073">
        <ele>77.7</ele>
        <time>2020-07-02T10:32:00Z</time>
      </trkpt>
      <trkpt lat="48.40189" lon="2.15076">
        <ele>77.7</ele>
        <time>2020-07-02T10:32:01Z</time>
      </trkpt>
      <trkpt lat="48.40184" lon="2.1508">
        <ele>77.7</ele>
        <time>2020-07-02T10:32:02Z</time>
      </trkpt>
      <trkpt lat="48.40178" lon="2.15083">
        <ele>77.7</ele>
        <time>2020-07-02T10:32:03Z</time>
      </trkpt>
      <trkpt lat="48.40172" lon="2.15084">
        <ele>77.8</ele>
        <time>2020-07-02T10:32:04Z</time>
      </trkpt>
      <trkpt lat="48.40166" lon="2.15085">
        <ele>77.8</ele>
        <time>2020-07-02T10:32:05Z</time>
      </trkpt>
      <trkpt lat="48.4016" lon="2.15085">
        <ele>77.8</ele>
        <time>2020-07-02T10:32:06Z</time>
      </trkpt>
      <trkpt lat="48.40154" lon="2.15085">
        <ele>77.9</ele>
        <time>2020-07-02T10:32:07Z</time>
      </trkpt>
      <trkpt lat="48.40148" lon="2.15082">
        <ele>77.8</ele>
        <time>2020-07-02T10:32:08Z</time>
      </trkpt>
      <trkpt lat="48.40142" lon="2.15078">
        <ele>77.8</ele>
        <time>2020-07-02T10:32:09Z</time>
      </trkpt>
      <trkpt lat="48.40135" lon="2.15074">
        <ele>77.7</ele>
        <time>2020-07-02T10:32:10Z</time>
      </trkpt>
      <trkpt lat="48.40129" lon="2.15069">
        <ele>77.6</ele>
        <time>2020-07-02T10:32:11Z</time>
      </trkpt>
      <trkpt lat="48.40122" lon="2.15065">
        <ele>77.5</ele>
        <time>2020-07-02T10:32:12Z</time>
      </trkpt>
      <trkpt lat="48.40115" lon="2.15061">
        <ele>77.5</ele>
        <time>2020-07-02T10:32:13Z</time>
      </trkpt>
      <trkpt lat="48.40108" lon="2.15056">
        <ele>77.4</ele>
        <time>2020-07-02T10:32:14Z</time>
      </trkpt>
      <trkpt lat="48.40101" lon="2.15052">
        <ele>77.3</ele>
        <time>2020-07-02T10:32:15Z</time>
      </trkpt>
      <trkpt lat="48.40094" lon="2.15047">
        <ele>77.1</ele>
        <time>2020-07-02T10:32:16Z</time>
      </trkpt>
      <trkpt lat="48.40087" lon="2.15043">
        <ele>77</ele>
        <time>2020-07-02T10:32:17Z</time>
      </trkpt>
      <trkpt lat="48.4008" lon="2.15037">
        <ele>77</ele>
        <time>2020-07-02T10:32:18Z</time>
      </trkpt>
      <trkpt lat="48.40073" lon="2.15032">
        <ele>76.9</ele>
        <time>2020-07-02T10:32:19Z</time>
      </trkpt>
      <trkpt lat="48.40066" lon="2.15027">
        <ele>76.8</ele>
        <time>2020-07-02T10:32:20Z</time>
      </trkpt>
      <trkpt lat="48.40059" lon="2.15023">
        <ele>76.8</ele>
        <time>2020-07-02T10:32:21Z</time>
      </trkpt>
      <trkpt lat="48.40052" lon="2.15018">
        <ele>76.8</ele>
        <time>2020-07-02T10:32:22Z</time>
      </trkpt>
      <trkpt lat="48.40045" lon="2.15014">
        <ele>76.8</ele>
        <time>2020-07-02T10:32:23Z</time>
      </trkpt>
      <trkpt lat="48.40038" lon="2.15012">
        <ele>76.9</ele>
        <time>2020-07-02T10:32:24Z</time>
      </trkpt>
      <trkpt lat="48.40031" lon="2.15013">
        <ele>76.9</ele>
        <time>2020-07-02T10:32:25Z</time>
      </trkpt>
      <trkpt lat="48.40024" lon="2.15014">
        <ele>76.9</ele>
        <time>2020-07-02T10:32:26Z</time>
      </trkpt>
      <trkpt lat="48.40017" lon="2.15015">
        <ele>77</ele>
        <time>2020-07-02T10:32:27Z</time>
      </trkpt>
      <trkpt lat="48.40011" lon="2.15015">
        <ele>77</ele>
        <time>2020-07-02T10:32:28Z</time>
      </trkpt>
      <trkpt lat="48.40004" lon="2.15016">
        <ele>77.2</ele>
        <time>2020-07-02T10:32:29Z</time>
      </trkpt>
      <trkpt lat="48.39997" lon="2.15016">
        <ele>77.4</ele>
        <time>2020-07-02T10:32:30Z</time>
      </trkpt>
      <trkpt lat="48.3999" lon="2.15016">
        <ele>77.6</ele>
        <time>2020-07-02T10:32:31Z</time>
      </trkpt>
      <trkpt lat="48.39983" lon="2.15018">
        <ele>77.8</ele>
        <time>2020-07-02T10:32:32Z</time>
      </trkpt>
      <trkpt lat="48.39976" lon="2.15018">
        <ele>78</ele>
        <time>2020-07-02T10:32:33Z</time>
      </trkpt>
      <trkpt lat="48.39969" lon="2.15019">
        <ele>78.2</ele>
        <time>2020-07-02T10:32:34Z</time>
      </trkpt>
      <trkpt lat="48.39963" lon="2.15018">
        <ele>78.4</ele>
        <time>2020-07-02T10:32:35Z</time>
      </trkpt>
      <trkpt lat="48.39958" lon="2.15015">
        <ele>78.6</ele>
        <time>2020-07-02T10:32:36Z</time>
      </trkpt>
      <trkpt lat="48.39952" lon="2.15012">
        <ele>78.9</ele>
        <time>2020-07-02T10:32:37Z</time>
      </trkpt>
      <trkpt lat="48.39946" lon="2.15009">
        <ele>79.1</ele>
        <time>2020-07-02T10:32:38Z</time>
      </trkpt>
      <trkpt lat="48.3994" lon="2.15007">
        <ele>79.3</ele>
        <time>2020-07-02T10:32:39Z</time>
      </trkpt>
      <trkpt lat="48.39935" lon="2.15004">
        <ele>79.5</ele>
        <time>2020-07-02T10:32:40Z</time>
      </trkpt>
      <trkpt lat="48.39929" lon="2.15003">
        <ele>79.7</ele>
        <time>2020-07-02T10:32:41Z</time>
      </trkpt>
      <trkpt lat="48.39923" lon="2.15002">
        <ele>79.9</ele>
        <time>2020-07-02T10:32:42Z</time>
      </trkpt>
      <trkpt lat="48.39917" lon="2.15001">
        <ele>80</ele>
        <time>2020-07-02T10:32:43Z</time>
      </trkpt>
      <trkpt lat="48.39911" lon="2.14999">
        <ele>80.1</ele>
        <time>2020-07-02T10:32:44Z</time>
      </trkpt>
      <trkpt lat="48.39906" lon="2.14996">
        <ele>80.2</ele>
        <time>2020-07-02T10:32:45Z</time>
      </trkpt>
      <trkpt lat="48.39901" lon="2.14994">
        <ele>80.3</ele>
        <time>2020-07-02T10:32:46Z</time>
      </trkpt>
      <trkpt lat="48.39895" lon="2.14993">
        <ele>80.4</ele>
        <time>2020-07-02T10:32:47Z</time>
      </trkpt>
      <trkpt lat="48.39889" lon="2.14992">
        <ele>80.5</ele>
        <time>2020-07-02T10:32:48Z</time>
      </trkpt>
      <trkpt lat="48.39883" lon="2.1499">
        <ele>80.6</ele>
        <time>2020-07-02T10:32:49Z</time>
      </trkpt>
      <trkpt lat="48.39877" lon="2.14988">
        <ele>80.6</ele>
        <time>2020-07-02T10:32:50Z</time>
      </trkpt>
      <trkpt lat="48.39871" lon="2.14987">
        <ele>80.6</ele>
        <time>2020-07-02T10:32:51Z</time>
      </trkpt>
      <trkpt lat="48.39865" lon="2.14985">
        <ele>80.7</ele>
        <time>2020-07-02T10:32:52Z</time>
      </trkpt>
      <trkpt lat="48.39859" lon="2.14984">
        <ele>80.6</ele>
        <time>2020-07-02T10:32:53Z</time>
      </trkpt>
      <trkpt lat="48.39854" lon="2.14981">
        <ele>80.6</ele>
        <time>2020-07-02T10:32:54Z</time>
      </trkpt>
      <trkpt lat="48.39847" lon="2.14978">
        <ele>80.5</ele>
        <time>2020-07-02T10:32:55Z</time>
      </trkpt>
      <trkpt lat="48.39841" lon="2.14975">
        <ele>80.4</ele>
        <time>2020-07-02T10:32:56Z</time>
      </trkpt>
      <trkpt lat="48.39835" lon="2.14973">
        <ele>80.3</ele>
        <time>2020-07-02T10:32:57Z</time>
      </trkpt>
      <trkpt lat="48.39828" lon="2.1497">
        <ele>80.2</ele>
        <time>2020-07-02T10:32:58Z</time>
      </trkpt>
      <trkpt lat="48.39821" lon="2.14967">
        <ele>80.1</ele>
        <time>2020-07-02T10:32:59Z</time>
      </trkpt>
      <trkpt lat="48.39814" lon="2.14963">
        <ele>80</ele>
        <time>2020-07-02T10:33:00Z</time>
      </trkpt>
      <trkpt lat="48.39808" lon="2.14957">
        <ele>79.9</ele>
        <time>2020-07-02T10:33:01Z</time>
      </trkpt>
      <trkpt lat="48.398" lon="2.14951">
        <ele>79.7</ele>
        <time>2020-07-02T10:33:02Z</time>
      </trkpt>
      <trkpt lat="48.39793" lon="2.14945">
        <ele>79.6</ele>
        <time>2020-07-02T10:33:03Z</time>
      </trkpt>
      <trkpt lat="48.39786" lon="2.1494">
        <ele>79.4</ele>
        <time>2020-07-02T10:33:04Z</time>
      </trkpt>
      <trkpt lat="48.39779" lon="2.14935">
        <ele>79.3</ele>
        <time>2020-07-02T10:33:05Z</time>
      </trkpt>
      <trkpt lat="48.39772" lon="2.14929">
        <ele>79.1</ele>
        <time>2020-07-02T10:33:06Z</time>
      </trkpt>
      <trkpt lat="48.39765" lon="2.14924">
        <ele>78.9</ele>
        <time>2020-07-02T10:33:07Z</time>
      </trkpt>
      <trkpt lat="48.39758" lon="2.14919">
        <ele>78.7</ele>
        <time>2020-07-02T10:33:08Z</time>
      </trkpt>
      <trkpt lat="48.39752" lon="2.14915">
        <ele>78.5</ele>
        <time>2020-07-02T10:33:09Z</time>
      </trkpt>
      <trkpt lat="48.39746" lon="2.1491">
        <ele>78.2</ele>
        <time>2020-07-02T10:33:10Z</time>
      </trkpt>
      <trkpt lat="48.39739" lon="2.14904">
        <ele>78</ele>
        <time>2020-07-02T10:33:11Z</time>
      </trkpt>
      <trkpt lat="48.39732" lon="2.14898">
        <ele>77.7</ele>
        <time>2020-07-02T10:33:12Z</time>
      </trkpt>
      <trkpt lat="48.39724" lon="2.14892">
        <ele>77.5</ele>
        <time>2020-07-02T10:33:13Z</time>
      </trkpt>
      <trkpt lat="48.39717" lon="2.14888">
        <ele>77.2</ele>
        <time>2020-07-02T10:33:14Z</time>
      </trkpt>
      <trkpt lat="48.3971" lon="2.14883">
        <ele>76.9</ele>
        <time>2020-07-02T10:33:15Z</time>
      </trkpt>
      <trkpt lat="48.39704" lon="2.14877">
        <ele>76.6</ele>
        <time>2020-07-02T10:33:16Z</time>
      </trkpt>
      <trkpt lat="48.39697" lon="2.1487">
        <ele>76.2</ele>
        <time>2020-07-02T10:33:17Z</time>
      </trkpt>
      <trkpt lat="48.3969" lon="2.14864">
        <ele>75.9</ele>
        <time>2020-07-02T10:33:18Z</time>
      </trkpt>
      <trkpt lat="48.39683" lon="2.14858">
        <ele>75.5</ele>
        <time>2020-07-02T10:33:19Z</time>
      </trkpt>
      <trkpt lat="48.39675" lon="2.14852">
        <ele>75.2</ele>
        <time>2020-07-02T10:33:20Z</time>
      </trkpt>
      <trkpt lat="48.39667" lon="2.14845">
        <ele>74.9</ele>
        <time>2020-07-02T10:33:21Z</time>
      </trkpt>
      <trkpt lat="48.39659" lon="2.1484">
        <ele>74.6</ele>
        <time>2020-07-02T10:33:22Z</time>
      </trkpt>
      <trkpt lat="48.3965" lon="2.14833">
        <ele>74.2</ele>
        <time>2020-07-02T10:33:23Z</time>
      </trkpt>
      <trkpt lat="48.39642" lon="2.14827">
        <ele>73.9</ele>
        <time>2020-07-02T10:33:24Z</time>
      </trkpt>
      <trkpt lat="48.39634" lon="2.1482">
        <ele>73.5</ele>
        <time>2020-07-02T10:33:25Z</time>
      </trkpt>
      <trkpt lat="48.39625" lon="2.14814">
        <ele>73.1</ele>
        <time>2020-07-02T10:33:26Z</time>
      </trkpt>
      <trkpt lat="48.39617" lon="2.14807">
        <ele>72.8</ele>
        <time>2020-07-02T10:33:27Z</time>
      </trkpt>
      <trkpt lat="48.39609" lon="2.148">
        <ele>72.6</ele>
        <time>2020-07-02T10:33:28Z</time>
      </trkpt>
      <trkpt lat="48.39601" lon="2.14796">
        <ele>72.4</ele>
        <time>2020-07-02T10:33:29Z</time>
      </trkpt>
      <trkpt lat="48.39595" lon="2.14791">
        <ele>72.2</ele>
        <time>2020-07-02T10:33:30Z</time>
      </trkpt>
      <trkpt lat="48.39587" lon="2.14787">
        <ele>72.1</ele>
        <time>2020-07-02T10:33:31Z</time>
      </trkpt>
      <trkpt lat="48.39579" lon="2.14781">
        <ele>71.9</ele>
        <time>2020-07-02T10:33:32Z</time>
      </trkpt>
      <trkpt lat="48.39571" lon="2.14775">
        <ele>71.7</ele>
        <time>2020-07-02T10:33:33Z</time>
      </trkpt>
      <trkpt lat="48.39564" lon="2.14768">
        <ele>71.5</ele>
        <time>2020-07-02T10:33:34Z</time>
      </trkpt>
      <trkpt lat="48.39557" lon="2.14761">
        <ele>71.3</ele>
        <time>2020-07-02T10:33:35Z</time>
      </trkpt>
      <trkpt lat="48.39549" lon="2.14755">
        <ele>71.2</ele>
        <time>2020-07-02T10:33:36Z</time>
      </trkpt>
      <trkpt lat="48.39542" lon="2.14749">
        <ele>71.1</ele>
        <time>2020-07-02T10:33:37Z</time>
      </trkpt>
      <trkpt lat="48.39535" lon="2.14743">
        <ele>71</ele>
        <time>2020-07-02T10:33:38Z</time>
      </trkpt>
      <trkpt lat="48.39529" lon="2.14736">
        <ele>71</ele>
        <time>2020-07-02T10:33:39Z</time>
      </trkpt>
      <trkpt lat="48.39522" lon="2.1473">
        <ele>70.9</ele>
        <time>2020-07-02T10:33:40Z</time>
      </trkpt>
      <trkpt lat="48.39515" lon="2.14725">
        <ele>70.9</ele>
        <time>2020-07-02T10:33:41Z</time>
      </trkpt>
      <trkpt lat="48.39508" lon="2.14718">
        <ele>70.9</ele>
        <time>2020-07-02T10:33:42Z</time>
      </trkpt>
      <trkpt lat="48.395" lon="2.14713">
        <ele>70.9</ele>
        <time>2020-07-02T10:33:43Z</time>
      </trkpt>
      <trkpt lat="48.39494" lon="2.14707">
        <ele>70.9</ele>
        <time>2020-07-02T10:33:44Z</time>
      </trkpt>
      <trkpt lat="48.39488" lon="2.14702">
        <ele>70.9</ele>
        <time>2020-07-02T10:33:45Z</time>
      </trkpt>
      <trkpt lat="48.39483" lon="2.14699">
        <ele>70.9</ele>
        <time>2020-07-02T10:33:46Z</time>
      </trkpt>
      <trkpt lat="48.39478" lon="2.14697">
        <ele>70.8</ele>
        <time>2020-07-02T10:33:47Z</time>
      </trkpt>
      <trkpt lat="48.39474" lon="2.14694">
        <ele>70.8</ele>
        <time>2020-07-02T10:33:48Z</time>
      </trkpt>
      <trkpt lat="48.39469" lon="2.1469">
        <ele>70.8</ele>
        <time>2020-07-02T10:33:49Z</time>
      </trkpt>
      <trkpt lat="48.39464" lon="2.14687">
        <ele>70.8</ele>
        <time>2020-07-02T10:33:50Z</time>
      </trkpt>
      <trkpt lat="48.3946" lon="2.14682">
        <ele>70.8</ele>
        <time>2020-07-02T10:33:51Z</time>
      </trkpt>
      <trkpt lat="48.39455" lon="2.14677">
        <ele>70.8</ele>
        <time>2020-07-02T10:33:52Z</time>
      </trkpt>
      <trkpt lat="48.39449" lon="2.14674">
        <ele>70.9</ele>
        <time>2020-07-02T10:33:53Z</time>
      </trkpt>
      <trkpt lat="48.39443" lon="2.14672">
        <ele>70.9</ele>
        <time>2020-07-02T10:33:54Z</time>
      </trkpt>
      <trkpt lat="48.39438" lon="2.14669">
        <ele>71</ele>
        <time>2020-07-02T10:33:55Z</time>
      </trkpt>
      <trkpt lat="48.39434" lon="2.14667">
        <ele>71</ele>
        <time>2020-07-02T10:33:56Z</time>
      </trkpt>
      <trkpt lat="48.39429" lon="2.14665">
        <ele>71</ele>
        <time>2020-07-02T10:33:57Z</time>
      </trkpt>
      <trkpt lat="48.39425" lon="2.14661">
        <ele>71.1</ele>
        <time>2020-07-02T10:33:58Z</time>
      </trkpt>
      <trkpt lat="48.39419" lon="2.14657">
        <ele>71.1</ele>
        <time>2020-07-02T10:33:59Z</time>
      </trkpt>
      <trkpt lat="48.39413" lon="2.14655">
        <ele>71.2</ele>
        <time>2020-07-02T10:34:00Z</time>
      </trkpt>
      <trkpt lat="48.39408" lon="2.14653">
        <ele>71.2</ele>
        <time>2020-07-02T10:34:01Z</time>
      </trkpt>
      <trkpt lat="48.39402" lon="2.14651">
        <ele>71.3</ele>
        <time>2020-07-02T10:34:02Z</time>
      </trkpt>
      <trkpt lat="48.39396" lon="2.14648">
        <ele>71.4</ele>
        <time>2020-07-02T10:34:03Z</time>
      </trkpt>
      <trkpt lat="48.39391" lon="2.14644">
        <ele>71.4</ele>
        <time>2020-07-02T10:34:04Z</time>
      </trkpt>
      <trkpt lat="48.39386" lon="2.1464">
        <ele>71.5</ele>
        <time>2020-07-02T10:34:05Z</time>
      </trkpt>
      <trkpt lat="48.39381" lon="2.14637">
        <ele>71.6</ele>
        <time>2020-07-02T10:34:06Z</time>
      </trkpt>
      <trkpt lat="48.39376" lon="2.14634">
        <ele>71.6</ele>
        <time>2020-07-02T10:34:07Z</time>
      </trkpt>
      <trkpt lat="48.39372" lon="2.1463">
        <ele>71.6</ele>
        <time>2020-07-02T10:34:08Z</time>
      </trkpt>
      <trkpt lat="48.39366" lon="2.14628">
        <ele>71.7</ele>
        <time>2020-07-02T10:34:09Z</time>
      </trkpt>
      <trkpt lat="48.39361" lon="2.14627">
        <ele>71.7</ele>
        <time>2020-07-02T10:34:10Z</time>
      </trkpt>
      <trkpt lat="48.39356" lon="2.14625">
        <ele>71.7</ele>
        <time>2020-07-02T10:34:11Z</time>
      </trkpt>
      <trkpt lat="48.39351" lon="2.14622">
        <ele>71.8</ele>
        <time>2020-07-02T10:34:12Z</time>
      </trkpt>
      <trkpt lat="48.39346" lon="2.1462">
        <ele>71.9</ele>
        <time>2020-07-02T10:34:13Z</time>
      </trkpt>
      <trkpt lat="48.3934" lon="2.14618">
        <ele>72</ele>
        <time>2020-07-02T10:34:14Z</time>
      </trkpt>
      <trkpt lat="48.39333" lon="2.14614">
        <ele>72.1</ele>
        <time>2020-07-02T10:34:15Z</time>
      </trkpt>
      <trkpt lat="48.39327" lon="2.14612">
        <ele>72.2</ele>
        <time>2020-07-02T10:34:16Z</time>
      </trkpt>
      <trkpt lat="48.3932" lon="2.14611">
        <ele>72.4</ele>
        <time>2020-07-02T10:34:17Z</time>
      </trkpt>
      <trkpt lat="48.39315" lon="2.14609">
        <ele>72.5</ele>
        <time>2020-07-02T10:34:18Z</time>
      </trkpt>
      <trkpt lat="48.39307" lon="2.14607">
        <ele>72.6</ele>
        <time>2020-07-02T10:34:19Z</time>
      </trkpt>
      <trkpt lat="48.39301" lon="2.14603">
        <ele>72.8</ele>
        <time>2020-07-02T10:34:20Z</time>
      </trkpt>
      <trkpt lat="48.39297" lon="2.14602">
        <ele>72.8</ele>
        <time>2020-07-02T10:34:21Z</time>
      </trkpt>
      <trkpt lat="48.3929" lon="2.14598">
        <ele>73</ele>
        <time>2020-07-02T10:34:22Z</time>
      </trkpt>
      <trkpt lat="48.39282" lon="2.14595">
        <ele>73.1</ele>
        <time>2020-07-02T10:34:23Z</time>
      </trkpt>
      <trkpt lat="48.39275" lon="2.14593">
        <ele>73.4</ele>
        <time>2020-07-02T10:34:24Z</time>
      </trkpt>
      <trkpt lat="48.39268" lon="2.14592">
        <ele>73.6</ele>
        <time>2020-07-02T10:34:25Z</time>
      </trkpt>
      <trkpt lat="48.39262" lon="2.1459">
        <ele>73.8</ele>
        <time>2020-07-02T10:34:26Z</time>
      </trkpt>
      <trkpt lat="48.39256" lon="2.14588">
        <ele>74</ele>
        <time>2020-07-02T10:34:27Z</time>
      </trkpt>
      <trkpt lat="48.39252" lon="2.14589">
        <ele>74.1</ele>
        <time>2020-07-02T10:34:28Z</time>
      </trkpt>
      <trkpt lat="48.39246" lon="2.14589">
        <ele>74.3</ele>
        <time>2020-07-02T10:34:29Z</time>
      </trkpt>
      <trkpt lat="48.3924" lon="2.14588">
        <ele>74.5</ele>
        <time>2020-07-02T10:34:30Z</time>
      </trkpt>
      <trkpt lat="48.39234" lon="2.14586">
        <ele>74.7</ele>
        <time>2020-07-02T10:34:31Z</time>
      </trkpt>
      <trkpt lat="48.39229" lon="2.14585">
        <ele>74.8</ele>
        <time>2020-07-02T10:34:32Z</time>
      </trkpt>
      <trkpt lat="48.39224" lon="2.14582">
        <ele>74.9</ele>
        <time>2020-07-02T10:34:33Z</time>
      </trkpt>
      <trkpt lat="48.39219" lon="2.14579">
        <ele>74.9</ele>
        <time>2020-07-02T10:34:34Z</time>
      </trkpt>
      <trkpt lat="48.39213" lon="2.14577">
        <ele>75</ele>
        <time>2020-07-02T10:34:35Z</time>
      </trkpt>
      <trkpt lat="48.39206" lon="2.14575">
        <ele>75.1</ele>
        <time>2020-07-02T10:34:36Z</time>
      </trkpt>
      <trkpt lat="48.39199" lon="2.14572">
        <ele>75.2</ele>
        <time>2020-07-02T10:34:37Z</time>
      </trkpt>
      <trkpt lat="48.39194" lon="2.14571">
        <ele>75.3</ele>
        <time>2020-07-02T10:34:38Z</time>
      </trkpt>
      <trkpt lat="48.39189" lon="2.14569">
        <ele>75.5</ele>
        <time>2020-07-02T10:34:39Z</time>
      </trkpt>
      <trkpt lat="48.39183" lon="2.14565">
        <ele>75.7</ele>
        <time>2020-07-02T10:34:40Z</time>
      </trkpt>
      <trkpt lat="48.39178" lon="2.14562">
        <ele>75.8</ele>
        <time>2020-07-02T10:34:41Z</time>
      </trkpt>
      <trkpt lat="48.39174" lon="2.14561">
        <ele>76</ele>
        <time>2020-07-02T10:34:42Z</time>
      </trkpt>
      <trkpt lat="48.3917" lon="2.14559">
        <ele>76.2</ele>
        <time>2020-07-02T10:34:43Z</time>
      </trkpt>
      <trkpt lat="48.39164" lon="2.14556">
        <ele>76.4</ele>
        <time>2020-07-02T10:34:44Z</time>
      </trkpt>
      <trkpt lat="48.39159" lon="2.14555">
        <ele>76.5</ele>
        <time>2020-07-02T10:34:45Z</time>
      </trkpt>
      <trkpt lat="48.39153" lon="2.14553">
        <ele>76.7</ele>
        <time>2020-07-02T10:34:46Z</time>
      </trkpt>
      <trkpt lat="48.39148" lon="2.14551">
        <ele>76.8</ele>
        <time>2020-07-02T10:34:47Z</time>
      </trkpt>
      <trkpt lat="48.39142" lon="2.1455">
        <ele>77</ele>
        <time>2020-07-02T10:34:48Z</time>
      </trkpt>
      <trkpt lat="48.39137" lon="2.14547">
        <ele>77.1</ele>
        <time>2020-07-02T10:34:49Z</time>
      </trkpt>
      <trkpt lat="48.39132" lon="2.14545">
        <ele>77.3</ele>
        <time>2020-07-02T10:34:50Z</time>
      </trkpt>
      <trkpt lat="48.39128" lon="2.14544">
        <ele>77.4</ele>
        <time>2020-07-02T10:34:51Z</time>
      </trkpt>
      <trkpt lat="48.39123" lon="2.14541">
        <ele>77.5</ele>
        <time>2020-07-02T10:34:52Z</time>
      </trkpt>
      <trkpt lat="48.3912" lon="2.1454">
        <ele>77.6</ele>
        <time>2020-07-02T10:34:53Z</time>
      </trkpt>
      <trkpt lat="48.39115" lon="2.14538">
        <ele>77.8</ele>
        <time>2020-07-02T10:34:54Z</time>
      </trkpt>
      <trkpt lat="48.3911" lon="2.14536">
        <ele>77.8</ele>
        <time>2020-07-02T10:34:55Z</time>
      </trkpt>
      <trkpt lat="48.39106" lon="2.14534">
        <ele>77.9</ele>
        <time>2020-07-02T10:34:56Z</time>
      </trkpt>
      <trkpt lat="48.39101" lon="2.14532">
        <ele>78</ele>
        <time>2020-07-02T10:34:57Z</time>
      </trkpt>
      <trkpt lat="48.39096" lon="2.1453">
        <ele>78</ele>
        <time>2020-07-02T10:34:58Z</time>
      </trkpt>
      <trkpt lat="48.39091" lon="2.14528">
        <ele>78.1</ele>
        <time>2020-07-02T10:34:59Z</time>
      </trkpt>
      <trkpt lat="48.39086" lon="2.14525">
        <ele>78.2</ele>
        <time>2020-07-02T10:35:00Z</time>
      </trkpt>
      <trkpt lat="48.39081" lon="2.14522">
        <ele>78.3</ele>
        <time>2020-07-02T10:35:01Z</time>
      </trkpt>
      <trkpt lat="48.39076" lon="2.1452">
        <ele>78.4</ele>
        <time>2020-07-02T10:35:02Z</time>
      </trkpt>
      <trkpt lat="48.3907" lon="2.14517">
        <ele>78.5</ele>
        <time>2020-07-02T10:35:03Z</time>
      </trkpt>
      <trkpt lat="48.39064" lon="2.14514">
        <ele>78.6</ele>
        <time>2020-07-02T10:35:04Z</time>
      </trkpt>
      <trkpt lat="48.39059" lon="2.14512">
        <ele>78.7</ele>
        <time>2020-07-02T10:35:05Z</time>
      </trkpt>
      <trkpt lat="48.39054" lon="2.14511">
        <ele>78.7</ele>
        <time>2020-07-02T10:35:06Z</time>
      </trkpt>
      <trkpt lat="48.39049" lon="2.14509">
        <ele>78.8</ele>
        <time>2020-07-02T10:35:07Z</time>
      </trkpt>
      <trkpt lat="48.39043" lon="2.14506">
        <ele>78.8</ele>
        <time>2020-07-02T10:35:08Z</time>
      </trkpt>
      <trkpt lat="48.39039" lon="2.14503">
        <ele>78.9</ele>
        <time>2020-07-02T10:35:09Z</time>
      </trkpt>
      <trkpt lat="48.39034" lon="2.14501">
        <ele>78.9</ele>
        <time>2020-07-02T10:35:10Z</time>
      </trkpt>
      <trkpt lat="48.39029" lon="2.14499">
        <ele>79</ele>
        <time>2020-07-02T10:35:11Z</time>
      </trkpt>
      <trkpt lat="48.39024" lon="2.14498">
        <ele>79</ele>
        <time>2020-07-02T10:35:12Z</time>
      </trkpt>
      <trkpt lat="48.39019" lon="2.14495">
        <ele>79.1</ele>
        <time>2020-07-02T10:35:13Z</time>
      </trkpt>
      <trkpt lat="48.39014" lon="2.14494">
        <ele>79.2</ele>
        <time>2020-07-02T10:35:14Z</time>
      </trkpt>
      <trkpt lat="48.39008" lon="2.14493">
        <ele>79.3</ele>
        <time>2020-07-02T10:35:15Z</time>
      </trkpt>
      <trkpt lat="48.39003" lon="2.14492">
        <ele>79.3</ele>
        <time>2020-07-02T10:35:16Z</time>
      </trkpt>
      <trkpt lat="48.38998" lon="2.14491">
        <ele>79.4</ele>
        <time>2020-07-02T10:35:17Z</time>
      </trkpt>
      <trkpt lat="48.38993" lon="2.1449">
        <ele>79.5</ele>
        <time>2020-07-02T10:35:18Z</time>
      </trkpt>
      <trkpt lat="48.38988" lon="2.14489">
        <ele>79.6</ele>
        <time>2020-07-02T10:35:19Z</time>
      </trkpt>
      <trkpt lat="48.38984" lon="2.14489">
        <ele>79.7</ele>
        <time>2020-07-02T10:35:20Z</time>
      </trkpt>
      <trkpt lat="48.38979" lon="2.14488">
        <ele>79.8</ele>
        <time>2020-07-02T10:35:21Z</time>
      </trkpt>
      <trkpt lat="48.38973" lon="2.14487">
        <ele>79.9</ele>
        <time>2020-07-02T10:35:22Z</time>
      </trkpt>
      <trkpt lat="48.38968" lon="2.14486">
        <ele>80</ele>
        <time>2020-07-02T10:35:23Z</time>
      </trkpt>
      <trkpt lat="48.38962" lon="2.14486">
        <ele>80.1</ele>
        <time>2020-07-02T10:35:24Z</time>
      </trkpt>
      <trkpt lat="48.38956" lon="2.14485">
        <ele>80.2</ele>
        <time>2020-07-02T10:35:25Z</time>
      </trkpt>
      <trkpt lat="48.38951" lon="2.14484">
        <ele>80.3</ele>
        <time>2020-07-02T10:35:26Z</time>
      </trkpt>
      <trkpt lat="48.38945" lon="2.14483">
        <ele>80.4</ele>
        <time>2020-07-02T10:35:27Z</time>
      </trkpt>
      <trkpt lat="48.38939" lon="2.14482">
        <ele>80.5</ele>
        <time>2020-07-02T10:35:28Z</time>
      </trkpt>
      <trkpt lat="48.38933" lon="2.14481">
        <ele>80.7</ele>
        <time>2020-07-02T10:35:29Z</time>
      </trkpt>
      <trkpt lat="48.38927" lon="2.14481">
        <ele>80.8</ele>
        <time>2020-07-02T10:35:30Z</time>
      </trkpt>
      <trkpt lat="48.38922" lon="2.14482">
        <ele>80.9</ele>
        <time>2020-07-02T10:35:31Z</time>
      </trkpt>
      <trkpt lat="48.38916" lon="2.14483">
        <ele>81</ele>
        <time>2020-07-02T10:35:32Z</time>
      </trkpt>
      <trkpt lat="48.3891" lon="2.14483">
        <ele>81.1</ele>
        <time>2020-07-02T10:35:33Z</time>
      </trkpt>
      <trkpt lat="48.38904" lon="2.14484">
        <ele>81.1</ele>
        <time>2020-07-02T10:35:34Z</time>
      </trkpt>
      <trkpt lat="48.38898" lon="2.14484">
        <ele>81.1</ele>
        <time>2020-07-02T10:35:35Z</time>
      </trkpt>
      <trkpt lat="48.38891" lon="2.14485">
        <ele>81.2</ele>
        <time>2020-07-02T10:35:36Z</time>
      </trkpt>
      <trkpt lat="48.38886" lon="2.14485">
        <ele>81.3</ele>
        <time>2020-07-02T10:35:37Z</time>
      </trkpt>
      <trkpt lat="48.38882" lon="2.14485">
        <ele>81.3</ele>
        <time>2020-07-02T10:35:38Z</time>
      </trkpt>
      <trkpt lat="48.38877" lon="2.14486">
        <ele>81.4</ele>
        <time>2020-07-02T10:35:39Z</time>
      </trkpt>
      <trkpt lat="48.38872" lon="2.14486">
        <ele>81.5</ele>
        <time>2020-07-02T10:35:40Z</time>
      </trkpt>
      <trkpt lat="48.38866" lon="2.14487">
        <ele>81.6</ele>
        <time>2020-07-02T10:35:41Z</time>
      </trkpt>
      <trkpt lat="48.3886" lon="2.14488">
        <ele>81.7</ele>
        <time>2020-07-02T10:35:42Z</time>
      </trkpt>
      <trkpt lat="48.38854" lon="2.14488">
        <ele>81.8</ele>
        <time>2020-07-02T10:35:43Z</time>
      </trkpt>
      <trkpt lat="48.38849" lon="2.14487">
        <ele>81.9</ele>
        <time>2020-07-02T10:35:44Z</time>
      </trkpt>
      <trkpt lat="48.38843" lon="2.14487">
        <ele>82</ele>
        <time>2020-07-02T10:35:45Z</time>
      </trkpt>
      <trkpt lat="48.38837" lon="2.14488">
        <ele>82.1</ele>
        <time>2020-07-02T10:35:46Z</time>
      </trkpt>
      <trkpt lat="48.38832" lon="2.14488">
        <ele>82.1</ele>
        <time>2020-07-02T10:35:47Z</time>
      </trkpt>
      <trkpt lat="48.38827" lon="2.14489">
        <ele>82.2</ele>
        <time>2020-07-02T10:35:48Z</time>
      </trkpt>
      <trkpt lat="48.38821" lon="2.14489">
        <ele>82.2</ele>
        <time>2020-07-02T10:35:49Z</time>
      </trkpt>
      <trkpt lat="48.38816" lon="2.14489">
        <ele>82.3</ele>
        <time>2020-07-02T10:35:50Z</time>
      </trkpt>
      <trkpt lat="48.3881" lon="2.1449">
        <ele>82.4</ele>
        <time>2020-07-02T10:35:51Z</time>
      </trkpt>
      <trkpt lat="48.38804" lon="2.14489">
        <ele>82.5</ele>
        <time>2020-07-02T10:35:52Z</time>
      </trkpt>
      <trkpt lat="48.38797" lon="2.14489">
        <ele>82.6</ele>
        <time>2020-07-02T10:35:53Z</time>
      </trkpt>
      <trkpt lat="48.38791" lon="2.14489">
        <ele>82.7</ele>
        <time>2020-07-02T10:35:54Z</time>
      </trkpt>
      <trkpt lat="48.38785" lon="2.14488">
        <ele>82.8</ele>
        <time>2020-07-02T10:35:55Z</time>
      </trkpt>
      <trkpt lat="48.38778" lon="2.14487">
        <ele>82.9</ele>
        <time>2020-07-02T10:35:56Z</time>
      </trkpt>
      <trkpt lat="48.38772" lon="2.14487">
        <ele>83</ele>
        <time>2020-07-02T10:35:57Z</time>
      </trkpt>
      <trkpt lat="48.38766" lon="2.14486">
        <ele>83.1</ele>
        <time>2020-07-02T10:35:58Z</time>
      </trkpt>
      <trkpt lat="48.3876" lon="2.14484">
        <ele>83.2</ele>
        <time>2020-07-02T10:35:59Z</time>
      </trkpt>
      <trkpt lat="48.38754" lon="2.14484">
        <ele>83.3</ele>
        <time>2020-07-02T10:36:00Z</time>
      </trkpt>
      <trkpt lat="48.38748" lon="2.14485">
        <ele>83.4</ele>
        <time>2020-07-02T10:36:01Z</time>
      </trkpt>
      <trkpt lat="48.38743" lon="2.14484">
        <ele>83.5</ele>
        <time>2020-07-02T10:36:02Z</time>
      </trkpt>
      <trkpt lat="48.38737" lon="2.14485">
        <ele>83.6</ele>
        <time>2020-07-02T10:36:03Z</time>
      </trkpt>
      <trkpt lat="48.38732" lon="2.14485">
        <ele>83.7</ele>
        <time>2020-07-02T10:36:04Z</time>
      </trkpt>
      <trkpt lat="48.38726" lon="2.14485">
        <ele>83.8</ele>
        <time>2020-07-02T10:36:05Z</time>
      </trkpt>
      <trkpt lat="48.3872" lon="2.14486">
        <ele>83.9</ele>
        <time>2020-07-02T10:36:06Z</time>
      </trkpt>
      <trkpt lat="48.38715" lon="2.14485">
        <ele>83.9</ele>
        <time>2020-07-02T10:36:07Z</time>
      </trkpt>
      <trkpt lat="48.3871" lon="2.14485">
        <ele>83.9</ele>
        <time>2020-07-02T10:36:08Z</time>
      </trkpt>
      <trkpt lat="48.38705" lon="2.14485">
        <ele>83.9</ele>
        <time>2020-07-02T10:36:09Z</time>
      </trkpt>
      <trkpt lat="48.38698" lon="2.14486">
        <ele>83.9</ele>
        <time>2020-07-02T10:36:10Z</time>
      </trkpt>
      <trkpt lat="48.38692" lon="2.14487">
        <ele>83.9</ele>
        <time>2020-07-02T10:36:11Z</time>
      </trkpt>
      <trkpt lat="48.38686" lon="2.14488">
        <ele>83.9</ele>
        <time>2020-07-02T10:36:12Z</time>
      </trkpt>
      <trkpt lat="48.3868" lon="2.14488">
        <ele>83.9</ele>
        <time>2020-07-02T10:36:13Z</time>
      </trkpt>
      <trkpt lat="48.38674" lon="2.14488">
        <ele>83.8</ele>
        <time>2020-07-02T10:36:14Z</time>
      </trkpt>
      <trkpt lat="48.38668" lon="2.14488">
        <ele>83.8</ele>
        <time>2020-07-02T10:36:15Z</time>
      </trkpt>
      <trkpt lat="48.38664" lon="2.14487">
        <ele>83.8</ele>
        <time>2020-07-02T10:36:16Z</time>
      </trkpt>
      <trkpt lat="48.38658" lon="2.14487">
        <ele>83.7</ele>
        <time>2020-07-02T10:36:17Z</time>
      </trkpt>
      <trkpt lat="48.38652" lon="2.14488">
        <ele>83.7</ele>
        <time>2020-07-02T10:36:18Z</time>
      </trkpt>
      <trkpt lat="48.38646" lon="2.14488">
        <ele>83.6</ele>
        <time>2020-07-02T10:36:19Z</time>
      </trkpt>
      <trkpt lat="48.38639" lon="2.14489">
        <ele>83.5</ele>
        <time>2020-07-02T10:36:20Z</time>
      </trkpt>
      <trkpt lat="48.38633" lon="2.14489">
        <ele>83.5</ele>
        <time>2020-07-02T10:36:21Z</time>
      </trkpt>
      <trkpt lat="48.38627" lon="2.14489">
        <ele>83.4</ele>
        <time>2020-07-02T10:36:22Z</time>
      </trkpt>
      <trkpt lat="48.38621" lon="2.14489">
        <ele>83.4</ele>
        <time>2020-07-02T10:36:23Z</time>
      </trkpt>
      <trkpt lat="48.38614" lon="2.1449">
        <ele>83.3</ele>
        <time>2020-07-02T10:36:24Z</time>
      </trkpt>
      <trkpt lat="48.38608" lon="2.1449">
        <ele>83.2</ele>
        <time>2020-07-02T10:36:25Z</time>
      </trkpt>
      <trkpt lat="48.38601" lon="2.1449">
        <ele>83.1</ele>
        <time>2020-07-02T10:36:26Z</time>
      </trkpt>
      <trkpt lat="48.38595" lon="2.14491">
        <ele>83</ele>
        <time>2020-07-02T10:36:27Z</time>
      </trkpt>
      <trkpt lat="48.38588" lon="2.14493">
        <ele>82.9</ele>
        <time>2020-07-02T10:36:28Z</time>
      </trkpt>
      <trkpt lat="48.38581" lon="2.14494">
        <ele>82.7</ele>
        <time>2020-07-02T10:36:29Z</time>
      </trkpt>
      <trkpt lat="48.38574" lon="2.14496">
        <ele>82.5</ele>
        <time>2020-07-02T10:36:30Z</time>
      </trkpt>
      <trkpt lat="48.38567" lon="2.14498">
        <ele>82.3</ele>
        <time>2020-07-02T10:36:31Z</time>
      </trkpt>
      <trkpt lat="48.3856" lon="2.145">
        <ele>82.1</ele>
        <time>2020-07-02T10:36:32Z</time>
      </trkpt>
      <trkpt lat="48.38553" lon="2.14502">
        <ele>82</ele>
        <time>2020-07-02T10:36:33Z</time>
      </trkpt>
      <trkpt lat="48.38546" lon="2.14504">
        <ele>81.8</ele>
        <time>2020-07-02T10:36:34Z</time>
      </trkpt>
      <trkpt lat="48.38538" lon="2.14506">
        <ele>81.5</ele>
        <time>2020-07-02T10:36:35Z</time>
      </trkpt>
      <trkpt lat="48.38532" lon="2.14509">
        <ele>81.3</ele>
        <time>2020-07-02T10:36:36Z</time>
      </trkpt>
      <trkpt lat="48.38524" lon="2.1451">
        <ele>81.1</ele>
        <time>2020-07-02T10:36:37Z</time>
      </trkpt>
      <trkpt lat="48.38517" lon="2.14513">
        <ele>80.8</ele>
        <time>2020-07-02T10:36:38Z</time>
      </trkpt>
      <trkpt lat="48.3851" lon="2.14515">
        <ele>80.6</ele>
        <time>2020-07-02T10:36:39Z</time>
      </trkpt>
      <trkpt lat="48.38503" lon="2.14519">
        <ele>80.5</ele>
        <time>2020-07-02T10:36:40Z</time>
      </trkpt>
      <trkpt lat="48.38497" lon="2.14523">
        <ele>80.3</ele>
        <time>2020-07-02T10:36:41Z</time>
      </trkpt>
      <trkpt lat="48.3849" lon="2.14528">
        <ele>80</ele>
        <time>2020-07-02T10:36:42Z</time>
      </trkpt>
      <trkpt lat="48.38484" lon="2.14534">
        <ele>79.8</ele>
        <time>2020-07-02T10:36:43Z</time>
      </trkpt>
      <trkpt lat="48.38477" lon="2.14541">
        <ele>79.6</ele>
        <time>2020-07-02T10:36:44Z</time>
      </trkpt>
      <trkpt lat="48.3847" lon="2.14549">
        <ele>79.4</ele>
        <time>2020-07-02T10:36:45Z</time>
      </trkpt>
      <trkpt lat="48.38463" lon="2.14555">
        <ele>79.1</ele>
        <time>2020-07-02T10:36:46Z</time>
      </trkpt>
      <trkpt lat="48.38457" lon="2.14562">
        <ele>78.9</ele>
        <time>2020-07-02T10:36:47Z</time>
      </trkpt>
      <trkpt lat="48.3845" lon="2.14569">
        <ele>78.7</ele>
        <time>2020-07-02T10:36:48Z</time>
      </trkpt>
      <trkpt lat="48.38443" lon="2.14576">
        <ele>78.4</ele>
        <time>2020-07-02T10:36:49Z</time>
      </trkpt>
      <trkpt lat="48.38436" lon="2.14584">
        <ele>78.2</ele>
        <time>2020-07-02T10:36:50Z</time>
      </trkpt>
      <trkpt lat="48.3843" lon="2.14592">
        <ele>77.9</ele>
        <time>2020-07-02T10:36:51Z</time>
      </trkpt>
      <trkpt lat="48.38423" lon="2.14599">
        <ele>77.7</ele>
        <time>2020-07-02T10:36:52Z</time>
      </trkpt>
      <trkpt lat="48.38416" lon="2.14606">
        <ele>77.4</ele>
        <time>2020-07-02T10:36:53Z</time>
      </trkpt>
      <trkpt lat="48.38409" lon="2.14613">
        <ele>77.1</ele>
        <time>2020-07-02T10:36:54Z</time>
      </trkpt>
      <trkpt lat="48.38402" lon="2.14621">
        <ele>76.9</ele>
        <time>2020-07-02T10:36:55Z</time>
      </trkpt>
      <trkpt lat="48.38396" lon="2.14628">
        <ele>76.6</ele>
        <time>2020-07-02T10:36:56Z</time>
      </trkpt>
      <trkpt lat="48.38389" lon="2.14635">
        <ele>76.4</ele>
        <time>2020-07-02T10:36:57Z</time>
      </trkpt>
      <trkpt lat="48.38383" lon="2.14643">
        <ele>76.2</ele>
        <time>2020-07-02T10:36:58Z</time>
      </trkpt>
      <trkpt lat="48.38377" lon="2.14652">
        <ele>76</ele>
        <time>2020-07-02T10:36:59Z</time>
      </trkpt>
      <trkpt lat="48.38372" lon="2.14662">
        <ele>75.8</ele>
        <time>2020-07-02T10:37:00Z</time>
      </trkpt>
      <trkpt lat="48.38367" lon="2.14671">
        <ele>75.6</ele>
        <time>2020-07-02T10:37:01Z</time>
      </trkpt>
      <trkpt lat="48.38362" lon="2.14681">
        <ele>75.4</ele>
        <time>2020-07-02T10:37:02Z</time>
      </trkpt>
      <trkpt lat="48.38358" lon="2.14692">
        <ele>75.1</ele>
        <time>2020-07-02T10:37:03Z</time>
      </trkpt>
      <trkpt lat="48.38353" lon="2.14703">
        <ele>74.9</ele>
        <time>2020-07-02T10:37:04Z</time>
      </trkpt>
      <trkpt lat="48.38349" lon="2.14713">
        <ele>74.7</ele>
        <time>2020-07-02T10:37:05Z</time>
      </trkpt>
      <trkpt lat="48.38345" lon="2.14725">
        <ele>74.6</ele>
        <time>2020-07-02T10:37:06Z</time>
      </trkpt>
      <trkpt lat="48.38341" lon="2.14736">
        <ele>74.5</ele>
        <time>2020-07-02T10:37:07Z</time>
      </trkpt>
      <trkpt lat="48.38337" lon="2.14747">
        <ele>74.4</ele>
        <time>2020-07-02T10:37:08Z</time>
      </trkpt>
      <trkpt lat="48.38333" lon="2.14758">
        <ele>74.3</ele>
        <time>2020-07-02T10:37:09Z</time>
      </trkpt>
      <trkpt lat="48.38329" lon="2.14769">
        <ele>74.3</ele>
        <time>2020-07-02T10:37:10Z</time>
      </trkpt>
      <trkpt lat="48.38326" lon="2.14781">
        <ele>74.1</ele>
        <time>2020-07-02T10:37:11Z</time>
      </trkpt>
      <trkpt lat="48.38322" lon="2.14792">
        <ele>74</ele>
        <time>2020-07-02T10:37:12Z</time>
      </trkpt>
      <trkpt lat="48.38317" lon="2.14802">
        <ele>73.8</ele>
        <time>2020-07-02T10:37:13Z</time>
      </trkpt>
      <trkpt lat="48.38313" lon="2.14813">
        <ele>73.7</ele>
        <time>2020-07-02T10:37:14Z</time>
      </trkpt>
      <trkpt lat="48.38308" lon="2.14823">
        <ele>73.6</ele>
        <time>2020-07-02T10:37:15Z</time>
      </trkpt>
      <trkpt lat="48.38304" lon="2.14833">
        <ele>73.6</ele>
        <time>2020-07-02T10:37:16Z</time>
      </trkpt>
      <trkpt lat="48.38299" lon="2.14843">
        <ele>73.7</ele>
        <time>2020-07-02T10:37:17Z</time>
      </trkpt>
      <trkpt lat="48.38295" lon="2.14854">
        <ele>73.7</ele>
        <time>2020-07-02T10:37:18Z</time>
      </trkpt>
      <trkpt lat="48.3829" lon="2.14863">
        <ele>73.7</ele>
        <time>2020-07-02T10:37:19Z</time>
      </trkpt>
      <trkpt lat="48.38285" lon="2.1487">
        <ele>73.7</ele>
        <time>2020-07-02T10:37:20Z</time>
      </trkpt>
      <trkpt lat="48.38281" lon="2.14877">
        <ele>73.8</ele>
        <time>2020-07-02T10:37:21Z</time>
      </trkpt>
      <trkpt lat="48.38276" lon="2.14884">
        <ele>73.8</ele>
        <time>2020-07-02T10:37:22Z</time>
      </trkpt>
      <trkpt lat="48.38271" lon="2.14892">
        <ele>73.9</ele>
        <time>2020-07-02T10:37:23Z</time>
      </trkpt>
      <trkpt lat="48.38265" lon="2.14899">
        <ele>73.9</ele>
        <time>2020-07-02T10:37:24Z</time>
      </trkpt>
      <trkpt lat="48.38259" lon="2.14906">
        <ele>73.9</ele>
        <time>2020-07-02T10:37:25Z</time>
      </trkpt>
      <trkpt lat="48.38255" lon="2.14914">
        <ele>74</ele>
        <time>2020-07-02T10:37:26Z</time>
      </trkpt>
      <trkpt lat="48.38249" lon="2.14921">
        <ele>74.1</ele>
        <time>2020-07-02T10:37:27Z</time>
      </trkpt>
      <trkpt lat="48.38244" lon="2.14929">
        <ele>74.2</ele>
        <time>2020-07-02T10:37:28Z</time>
      </trkpt>
      <trkpt lat="48.38239" lon="2.14936">
        <ele>74.3</ele>
        <time>2020-07-02T10:37:29Z</time>
      </trkpt>
      <trkpt lat="48.38235" lon="2.14945">
        <ele>74.5</ele>
        <time>2020-07-02T10:37:30Z</time>
      </trkpt>
      <trkpt lat="48.3823" lon="2.14953">
        <ele>74.7</ele>
        <time>2020-07-02T10:37:31Z</time>
      </trkpt>
      <trkpt lat="48.38225" lon="2.1496">
        <ele>74.9</ele>
        <time>2020-07-02T10:37:32Z</time>
      </trkpt>
      <trkpt lat="48.3822" lon="2.14967">
        <ele>75.1</ele>
        <time>2020-07-02T10:37:33Z</time>
      </trkpt>
      <trkpt lat="48.38215" lon="2.14974">
        <ele>75.3</ele>
        <time>2020-07-02T10:37:34Z</time>
      </trkpt>
      <trkpt lat="48.38209" lon="2.14979">
        <ele>75.6</ele>
        <time>2020-07-02T10:37:35Z</time>
      </trkpt>
      <trkpt lat="48.38204" lon="2.14985">
        <ele>76</ele>
        <time>2020-07-02T10:37:36Z</time>
      </trkpt>
      <trkpt lat="48.38199" lon="2.14991">
        <ele>76.3</ele>
        <time>2020-07-02T10:37:37Z</time>
      </trkpt>
      <trkpt lat="48.38194" lon="2.14997">
        <ele>76.7</ele>
        <time>2020-07-02T10:37:38Z</time>
      </trkpt>
      <trkpt lat="48.38191" lon="2.15004">
        <ele>77.1</ele>
        <time>2020-07-02T10:37:39Z</time>
      </trkpt>
      <trkpt lat="48.38186" lon="2.1501">
        <ele>77.4</ele>
        <time>2020-07-02T10:37:40Z</time>
      </trkpt>
      <trkpt lat="48.38183" lon="2.15016">
        <ele>77.7</ele>
        <time>2020-07-02T10:37:41Z</time>
      </trkpt>
      <trkpt lat="48.38179" lon="2.15022">
        <ele>78</ele>
        <time>2020-07-02T10:37:42Z</time>
      </trkpt>
      <trkpt lat="48.38175" lon="2.15029">
        <ele>78.3</ele>
        <time>2020-07-02T10:37:43Z</time>
      </trkpt>
      <trkpt lat="48.38172" lon="2.15035">
        <ele>78.6</ele>
        <time>2020-07-02T10:37:44Z</time>
      </trkpt>
      <trkpt lat="48.38167" lon="2.15039">
        <ele>78.9</ele>
        <time>2020-07-02T10:37:45Z</time>
      </trkpt>
      <trkpt lat="48.38164" lon="2.15044">
        <ele>79.2</ele>
        <time>2020-07-02T10:37:46Z</time>
      </trkpt>
      <trkpt lat="48.3816" lon="2.15049">
        <ele>79.5</ele>
        <time>2020-07-02T10:37:47Z</time>
      </trkpt>
      <trkpt lat="48.38157" lon="2.15054">
        <ele>79.8</ele>
        <time>2020-07-02T10:37:48Z</time>
      </trkpt>
      <trkpt lat="48.38155" lon="2.15059">
        <ele>80.1</ele>
        <time>2020-07-02T10:37:49Z</time>
      </trkpt>
      <trkpt lat="48.38152" lon="2.15064">
        <ele>80.3</ele>
        <time>2020-07-02T10:37:50Z</time>
      </trkpt>
      <trkpt lat="48.3815" lon="2.15069">
        <ele>80.5</ele>
        <time>2020-07-02T10:37:51Z</time>
      </trkpt>
      <trkpt lat="48.38147" lon="2.15076">
        <ele>80.8</ele>
        <time>2020-07-02T10:37:52Z</time>
      </trkpt>
      <trkpt lat="48.38144" lon="2.15082">
        <ele>81</ele>
        <time>2020-07-02T10:37:53Z</time>
      </trkpt>
      <trkpt lat="48.3814" lon="2.15087">
        <ele>81.3</ele>
        <time>2020-07-02T10:37:54Z</time>
      </trkpt>
      <trkpt lat="48.38137" lon="2.15091">
        <ele>81.5</ele>
        <time>2020-07-02T10:37:55Z</time>
      </trkpt>
      <trkpt lat="48.38133" lon="2.15095">
        <ele>81.7</ele>
        <time>2020-07-02T10:37:56Z</time>
      </trkpt>
      <trkpt lat="48.38129" lon="2.151">
        <ele>81.9</ele>
        <time>2020-07-02T10:37:57Z</time>
      </trkpt>
      <trkpt lat="48.38125" lon="2.15108">
        <ele>82.2</ele>
        <time>2020-07-02T10:37:58Z</time>
      </trkpt>
      <trkpt lat="48.38121" lon="2.15114">
        <ele>82.5</ele>
        <time>2020-07-02T10:37:59Z</time>
      </trkpt>
      <trkpt lat="48.38118" lon="2.15121">
        <ele>82.7</ele>
        <time>2020-07-02T10:38:00Z</time>
      </trkpt>
      <trkpt lat="48.38115" lon="2.15126">
        <ele>82.9</ele>
        <time>2020-07-02T10:38:01Z</time>
      </trkpt>
      <trkpt lat="48.38113" lon="2.15131">
        <ele>83.1</ele>
        <time>2020-07-02T10:38:02Z</time>
      </trkpt>
      <trkpt lat="48.38111" lon="2.15136">
        <ele>83.2</ele>
        <time>2020-07-02T10:38:03Z</time>
      </trkpt>
      <trkpt lat="48.38109" lon="2.15141">
        <ele>83.4</ele>
        <time>2020-07-02T10:38:04Z</time>
      </trkpt>
      <trkpt lat="48.38107" lon="2.15145">
        <ele>83.5</ele>
        <time>2020-07-02T10:38:05Z</time>
      </trkpt>
      <trkpt lat="48.38106" lon="2.15147">
        <ele>83.6</ele>
        <time>2020-07-02T10:38:06Z</time>
      </trkpt>
      <trkpt lat="48.38103" lon="2.15152">
        <ele>83.7</ele>
        <time>2020-07-02T10:38:07Z</time>
      </trkpt>
      <trkpt lat="48.38102" lon="2.15154">
        <ele>83.8</ele>
        <time>2020-07-02T10:38:08Z</time>
      </trkpt>
      <trkpt lat="48.38098" lon="2.15157">
        <ele>83.9</ele>
        <time>2020-07-02T10:38:09Z</time>
      </trkpt>
      <trkpt lat="48.38095" lon="2.1516">
        <ele>84.1</ele>
        <time>2020-07-02T10:38:10Z</time>
      </trkpt>
      <trkpt lat="48.38092" lon="2.15163">
        <ele>84.2</ele>
        <time>2020-07-02T10:38:11Z</time>
      </trkpt>
      <trkpt lat="48.38089" lon="2.15167">
        <ele>84.4</ele>
        <time>2020-07-02T10:38:12Z</time>
      </trkpt>
      <trkpt lat="48.38085" lon="2.15173">
        <ele>84.5</ele>
        <time>2020-07-02T10:38:13Z</time>
      </trkpt>
      <trkpt lat="48.38083" lon="2.15178">
        <ele>84.7</ele>
        <time>2020-07-02T10:38:14Z</time>
      </trkpt>
      <trkpt lat="48.3808" lon="2.15182">
        <ele>84.8</ele>
        <time>2020-07-02T10:38:15Z</time>
      </trkpt>
      <trkpt lat="48.38077" lon="2.15185">
        <ele>84.9</ele>
        <time>2020-07-02T10:38:16Z</time>
      </trkpt>
      <trkpt lat="48.38075" lon="2.15188">
        <ele>85</ele>
        <time>2020-07-02T10:38:17Z</time>
      </trkpt>
      <trkpt lat="48.3807" lon="2.15192">
        <ele>85.2</ele>
        <time>2020-07-02T10:38:18Z</time>
      </trkpt>
      <trkpt lat="48.38068" lon="2.15194">
        <ele>85.3</ele>
        <time>2020-07-02T10:38:19Z</time>
      </trkpt>
      <trkpt lat="48.38064" lon="2.15198">
        <ele>85.4</ele>
        <time>2020-07-02T10:38:20Z</time>
      </trkpt>
      <trkpt lat="48.38062" lon="2.152">
        <ele>85.5</ele>
        <time>2020-07-02T10:38:21Z</time>
      </trkpt>
      <trkpt lat="48.38058" lon="2.15203">
        <ele>85.7</ele>
        <time>2020-07-02T10:38:22Z</time>
      </trkpt>
      <trkpt lat="48.38055" lon="2.15206">
        <ele>85.7</ele>
        <time>2020-07-02T10:38:23Z</time>
      </trkpt>
      <trkpt lat="48.38053" lon="2.15209">
        <ele>85.8</ele>
        <time>2020-07-02T10:38:24Z</time>
      </trkpt>
      <trkpt lat="48.38052" lon="2.1521">
        <ele>85.9</ele>
        <time>2020-07-02T10:38:25Z</time>
      </trkpt>
      <trkpt lat="48.38048" lon="2.15213">
        <ele>86</ele>
        <time>2020-07-02T10:38:26Z</time>
      </trkpt>
      <trkpt lat="48.38047" lon="2.15214">
        <ele>86</ele>
        <time>2020-07-02T10:38:27Z</time>
      </trkpt>
      <trkpt lat="48.38043" lon="2.15217">
        <ele>86.2</ele>
        <time>2020-07-02T10:38:28Z</time>
      </trkpt>
      <trkpt lat="48.3804" lon="2.1522">
        <ele>86.3</ele>
        <time>2020-07-02T10:38:29Z</time>
      </trkpt>
      <trkpt lat="48.38037" lon="2.15222">
        <ele>86.4</ele>
        <time>2020-07-02T10:38:30Z</time>
      </trkpt>
      <trkpt lat="48.38034" lon="2.15224">
        <ele>86.5</ele>
        <time>2020-07-02T10:38:31Z</time>
      </trkpt>
      <trkpt lat="48.3803" lon="2.15227">
        <ele>86.6</ele>
        <time>2020-07-02T10:38:32Z</time>
      </trkpt>
      <trkpt lat="48.38026" lon="2.1523">
        <ele>86.8</ele>
        <time>2020-07-02T10:38:33Z</time>
      </trkpt>
      <trkpt lat="48.38022" lon="2.15233">
        <ele>86.9</ele>
        <time>2020-07-02T10:38:34Z</time>
      </trkpt>
      <trkpt lat="48.38018" lon="2.15236">
        <ele>87</ele>
        <time>2020-07-02T10:38:35Z</time>
      </trkpt>
      <trkpt lat="48.38015" lon="2.15239">
        <ele>87.1</ele>
        <time>2020-07-02T10:38:36Z</time>
      </trkpt>
      <trkpt lat="48.38012" lon="2.15242">
        <ele>87.2</ele>
        <time>2020-07-02T10:38:37Z</time>
      </trkpt>
      <trkpt lat="48.3801" lon="2.15245">
        <ele>87.4</ele>
        <time>2020-07-02T10:38:38Z</time>
      </trkpt>
      <trkpt lat="48.38007" lon="2.15248">
        <ele>87.5</ele>
        <time>2020-07-02T10:38:39Z</time>
      </trkpt>
      <trkpt lat="48.38004" lon="2.15251">
        <ele>87.6</ele>
        <time>2020-07-02T10:38:40Z</time>
      </trkpt>
      <trkpt lat="48.38001" lon="2.15254">
        <ele>87.7</ele>
        <time>2020-07-02T10:38:41Z</time>
      </trkpt>
      <trkpt lat="48.37998" lon="2.15258">
        <ele>87.8</ele>
        <time>2020-07-02T10:38:42Z</time>
      </trkpt>
      <trkpt lat="48.37994" lon="2.15261">
        <ele>87.9</ele>
        <time>2020-07-02T10:38:43Z</time>
      </trkpt>
      <trkpt lat="48.37991" lon="2.15264">
        <ele>88</ele>
        <time>2020-07-02T10:38:44Z</time>
      </trkpt>
      <trkpt lat="48.37987" lon="2.15267">
        <ele>88.1</ele>
        <time>2020-07-02T10:38:45Z</time>
      </trkpt>
      <trkpt lat="48.37984" lon="2.1527">
        <ele>88.2</ele>
        <time>2020-07-02T10:38:46Z</time>
      </trkpt>
      <trkpt lat="48.37981" lon="2.15275">
        <ele>88.3</ele>
        <time>2020-07-02T10:38:47Z</time>
      </trkpt>
      <trkpt lat="48.37977" lon="2.15278">
        <ele>88.4</ele>
        <time>2020-07-02T10:38:48Z</time>
      </trkpt>
      <trkpt lat="48.37973" lon="2.15281">
        <ele>88.4</ele>
        <time>2020-07-02T10:38:49Z</time>
      </trkpt>
      <trkpt lat="48.37969" lon="2.15285">
        <ele>88.5</ele>
        <time>2020-07-02T10:38:50Z</time>
      </trkpt>
      <trkpt lat="48.37965" lon="2.15288">
        <ele>88.6</ele>
        <time>2020-07-02T10:38:51Z</time>
      </trkpt>
      <trkpt lat="48.3796" lon="2.15291">
        <ele>88.6</ele>
        <time>2020-07-02T10:38:52Z</time>
      </trkpt>
      <trkpt lat="48.37956" lon="2.15294">
        <ele>88.7</ele>
        <time>2020-07-02T10:38:53Z</time>
      </trkpt>
      <trkpt lat="48.37953" lon="2.15298">
        <ele>88.8</ele>
        <time>2020-07-02T10:38:54Z</time>
      </trkpt>
      <trkpt lat="48.37948" lon="2.15302">
        <ele>88.9</ele>
        <time>2020-07-02T10:38:55Z</time>
      </trkpt>
      <trkpt lat="48.37944" lon="2.15305">
        <ele>89</ele>
        <time>2020-07-02T10:38:56Z</time>
      </trkpt>
      <trkpt lat="48.3794" lon="2.15308">
        <ele>89.1</ele>
        <time>2020-07-02T10:38:57Z</time>
      </trkpt>
      <trkpt lat="48.37935" lon="2.15311">
        <ele>89.1</ele>
        <time>2020-07-02T10:38:58Z</time>
      </trkpt>
      <trkpt lat="48.3793" lon="2.15313">
        <ele>89.2</ele>
        <time>2020-07-02T10:38:59Z</time>
      </trkpt>
      <trkpt lat="48.37924" lon="2.15315">
        <ele>89.2</ele>
        <time>2020-07-02T10:39:00Z</time>
      </trkpt>
      <trkpt lat="48.37919" lon="2.15317">
        <ele>89.3</ele>
        <time>2020-07-02T10:39:01Z</time>
      </trkpt>
      <trkpt lat="48.37914" lon="2.15319">
        <ele>89.3</ele>
        <time>2020-07-02T10:39:02Z</time>
      </trkpt>
      <trkpt lat="48.37909" lon="2.15322">
        <ele>89.3</ele>
        <time>2020-07-02T10:39:03Z</time>
      </trkpt>
      <trkpt lat="48.37904" lon="2.15324">
        <ele>89.3</ele>
        <time>2020-07-02T10:39:04Z</time>
      </trkpt>
      <trkpt lat="48.37899" lon="2.15326">
        <ele>89.3</ele>
        <time>2020-07-02T10:39:05Z</time>
      </trkpt>
      <trkpt lat="48.37894" lon="2.15328">
        <ele>89.3</ele>
        <time>2020-07-02T10:39:06Z</time>
      </trkpt>
      <trkpt lat="48.37889" lon="2.1533">
        <ele>89.2</ele>
        <time>2020-07-02T10:39:07Z</time>
      </trkpt>
      <trkpt lat="48.37884" lon="2.15331">
        <ele>89.1</ele>
        <time>2020-07-02T10:39:08Z</time>
      </trkpt>
      <trkpt lat="48.37879" lon="2.15331">
        <ele>89.1</ele>
        <time>2020-07-02T10:39:09Z</time>
      </trkpt>
      <trkpt lat="48.37876" lon="2.15331">
        <ele>89</ele>
        <time>2020-07-02T10:39:10Z</time>
      </trkpt>
      <trkpt lat="48.3787" lon="2.1533">
        <ele>89</ele>
        <time>2020-07-02T10:39:11Z</time>
      </trkpt>
      <trkpt lat="48.37864" lon="2.15331">
        <ele>88.9</ele>
        <time>2020-07-02T10:39:12Z</time>
      </trkpt>
      <trkpt lat="48.37858" lon="2.15332">
        <ele>88.9</ele>
        <time>2020-07-02T10:39:13Z</time>
      </trkpt>
      <trkpt lat="48.37852" lon="2.15333">
        <ele>88.9</ele>
        <time>2020-07-02T10:39:14Z</time>
      </trkpt>
      <trkpt lat="48.37846" lon="2.15334">
        <ele>88.9</ele>
        <time>2020-07-02T10:39:15Z</time>
      </trkpt>
      <trkpt lat="48.37842" lon="2.15333">
        <ele>88.9</ele>
        <time>2020-07-02T10:39:16Z</time>
      </trkpt>
      <trkpt lat="48.37837" lon="2.15334">
        <ele>88.9</ele>
        <time>2020-07-02T10:39:17Z</time>
      </trkpt>
      <trkpt lat="48.37832" lon="2.15334">
        <ele>88.9</ele>
        <time>2020-07-02T10:39:18Z</time>
      </trkpt>
      <trkpt lat="48.37827" lon="2.15336">
        <ele>88.9</ele>
        <time>2020-07-02T10:39:19Z</time>
      </trkpt>
      <trkpt lat="48.37822" lon="2.15336">
        <ele>88.9</ele>
        <time>2020-07-02T10:39:20Z</time>
      </trkpt>
      <trkpt lat="48.37817" lon="2.15335">
        <ele>88.9</ele>
        <time>2020-07-02T10:39:21Z</time>
      </trkpt>
      <trkpt lat="48.37812" lon="2.15335">
        <ele>88.9</ele>
        <time>2020-07-02T10:39:22Z</time>
      </trkpt>
      <trkpt lat="48.37807" lon="2.15335">
        <ele>88.9</ele>
        <time>2020-07-02T10:39:23Z</time>
      </trkpt>
      <trkpt lat="48.37802" lon="2.15335">
        <ele>88.9</ele>
        <time>2020-07-02T10:39:24Z</time>
      </trkpt>
      <trkpt lat="48.37796" lon="2.15336">
        <ele>88.8</ele>
        <time>2020-07-02T10:39:25Z</time>
      </trkpt>
      <trkpt lat="48.37791" lon="2.15336">
        <ele>88.8</ele>
        <time>2020-07-02T10:39:26Z</time>
      </trkpt>
      <trkpt lat="48.37786" lon="2.15335">
        <ele>88.8</ele>
        <time>2020-07-02T10:39:27Z</time>
      </trkpt>
      <trkpt lat="48.37781" lon="2.15335">
        <ele>88.8</ele>
        <time>2020-07-02T10:39:28Z</time>
      </trkpt>
      <trkpt lat="48.37777" lon="2.15335">
        <ele>88.7</ele>
        <time>2020-07-02T10:39:29Z</time>
      </trkpt>
      <trkpt lat="48.37772" lon="2.15335">
        <ele>88.7</ele>
        <time>2020-07-02T10:39:30Z</time>
      </trkpt>
      <trkpt lat="48.37767" lon="2.15336">
        <ele>88.7</ele>
        <time>2020-07-02T10:39:31Z</time>
      </trkpt>
      <trkpt lat="48.37762" lon="2.15334">
        <ele>88.6</ele>
        <time>2020-07-02T10:39:32Z</time>
      </trkpt>
      <trkpt lat="48.37757" lon="2.15335">
        <ele>88.6</ele>
        <time>2020-07-02T10:39:33Z</time>
      </trkpt>
      <trkpt lat="48.37753" lon="2.15335">
        <ele>88.5</ele>
        <time>2020-07-02T10:39:34Z</time>
      </trkpt>
      <trkpt lat="48.37748" lon="2.15336">
        <ele>88.5</ele>
        <time>2020-07-02T10:39:35Z</time>
      </trkpt>
      <trkpt lat="48.37744" lon="2.15337">
        <ele>88.4</ele>
        <time>2020-07-02T10:39:36Z</time>
      </trkpt>
      <trkpt lat="48.37739" lon="2.15337">
        <ele>88.2</ele>
        <time>2020-07-02T10:39:37Z</time>
      </trkpt>
      <trkpt lat="48.37734" lon="2.15338">
        <ele>88.1</ele>
        <time>2020-07-02T10:39:38Z</time>
      </trkpt>
      <trkpt lat="48.37729" lon="2.15338">
        <ele>87.9</ele>
        <time>2020-07-02T10:39:39Z</time>
      </trkpt>
      <trkpt lat="48.37724" lon="2.15338">
        <ele>87.8</ele>
        <time>2020-07-02T10:39:40Z</time>
      </trkpt>
      <trkpt lat="48.37719" lon="2.15338">
        <ele>87.7</ele>
        <time>2020-07-02T10:39:41Z</time>
      </trkpt>
      <trkpt lat="48.37714" lon="2.15339">
        <ele>87.5</ele>
        <time>2020-07-02T10:39:42Z</time>
      </trkpt>
      <trkpt lat="48.37709" lon="2.1534">
        <ele>87.4</ele>
        <time>2020-07-02T10:39:43Z</time>
      </trkpt>
      <trkpt lat="48.37704" lon="2.15341">
        <ele>87.2</ele>
        <time>2020-07-02T10:39:44Z</time>
      </trkpt>
      <trkpt lat="48.37698" lon="2.15341">
        <ele>87.1</ele>
        <time>2020-07-02T10:39:45Z</time>
      </trkpt>
      <trkpt lat="48.37694" lon="2.15342">
        <ele>87</ele>
        <time>2020-07-02T10:39:46Z</time>
      </trkpt>
      <trkpt lat="48.37689" lon="2.15342">
        <ele>86.8</ele>
        <time>2020-07-02T10:39:47Z</time>
      </trkpt>
      <trkpt lat="48.37684" lon="2.15343">
        <ele>86.7</ele>
        <time>2020-07-02T10:39:48Z</time>
      </trkpt>
      <trkpt lat="48.3768" lon="2.15344">
        <ele>86.5</ele>
        <time>2020-07-02T10:39:49Z</time>
      </trkpt>
      <trkpt lat="48.37674" lon="2.15344">
        <ele>86.3</ele>
        <time>2020-07-02T10:39:50Z</time>
      </trkpt>
      <trkpt lat="48.37668" lon="2.15345">
        <ele>86.1</ele>
        <time>2020-07-02T10:39:51Z</time>
      </trkpt>
      <trkpt lat="48.37662" lon="2.15346">
        <ele>85.9</ele>
        <time>2020-07-02T10:39:52Z</time>
      </trkpt>
      <trkpt lat="48.37657" lon="2.15347">
        <ele>85.8</ele>
        <time>2020-07-02T10:39:53Z</time>
      </trkpt>
      <trkpt lat="48.37652" lon="2.15348">
        <ele>85.7</ele>
        <time>2020-07-02T10:39:54Z</time>
      </trkpt>
      <trkpt lat="48.37646" lon="2.1535">
        <ele>85.5</ele>
        <time>2020-07-02T10:39:55Z</time>
      </trkpt>
      <trkpt lat="48.37641" lon="2.15352">
        <ele>85.3</ele>
        <time>2020-07-02T10:39:56Z</time>
      </trkpt>
      <trkpt lat="48.37636" lon="2.15355">
        <ele>85.2</ele>
        <time>2020-07-02T10:39:57Z</time>
      </trkpt>
      <trkpt lat="48.37632" lon="2.15359">
        <ele>85.1</ele>
        <time>2020-07-02T10:39:58Z</time>
      </trkpt>
      <trkpt lat="48.37628" lon="2.15365">
        <ele>84.9</ele>
        <time>2020-07-02T10:39:59Z</time>
      </trkpt>
      <trkpt lat="48.37623" lon="2.15372">
        <ele>84.7</ele>
        <time>2020-07-02T10:40:00Z</time>
      </trkpt>
      <trkpt lat="48.37617" lon="2.15381">
        <ele>84.6</ele>
        <time>2020-07-02T10:40:01Z</time>
      </trkpt>
      <trkpt lat="48.37612" lon="2.15388">
        <ele>84.3</ele>
        <time>2020-07-02T10:40:02Z</time>
      </trkpt>
      <trkpt lat="48.37606" lon="2.15394">
        <ele>84.2</ele>
        <time>2020-07-02T10:40:03Z</time>
      </trkpt>
      <trkpt lat="48.37601" lon="2.154">
        <ele>84.1</ele>
        <time>2020-07-02T10:40:04Z</time>
      </trkpt>
      <trkpt lat="48.37595" lon="2.15407">
        <ele>83.9</ele>
        <time>2020-07-02T10:40:05Z</time>
      </trkpt>
      <trkpt lat="48.3759" lon="2.15415">
        <ele>83.7</ele>
        <time>2020-07-02T10:40:06Z</time>
      </trkpt>
      <trkpt lat="48.37585" lon="2.15422">
        <ele>83.6</ele>
        <time>2020-07-02T10:40:07Z</time>
      </trkpt>
      <trkpt lat="48.37581" lon="2.15431">
        <ele>83.5</ele>
        <time>2020-07-02T10:40:08Z</time>
      </trkpt>
      <trkpt lat="48.37576" lon="2.15438">
        <ele>83.5</ele>
        <time>2020-07-02T10:40:09Z</time>
      </trkpt>
      <trkpt lat="48.3757" lon="2.15446">
        <ele>83.4</ele>
        <time>2020-07-02T10:40:10Z</time>
      </trkpt>
      <trkpt lat="48.37565" lon="2.15454">
        <ele>83.4</ele>
        <time>2020-07-02T10:40:11Z</time>
      </trkpt>
      <trkpt lat="48.3756" lon="2.15461">
        <ele>83.4</ele>
        <time>2020-07-02T10:40:12Z</time>
      </trkpt>
      <trkpt lat="48.37556" lon="2.15467">
        <ele>83.5</ele>
        <time>2020-07-02T10:40:13Z</time>
      </trkpt>
      <trkpt lat="48.37553" lon="2.15473">
        <ele>83.6</ele>
        <time>2020-07-02T10:40:14Z</time>
      </trkpt>
      <trkpt lat="48.37548" lon="2.15477">
        <ele>83.7</ele>
        <time>2020-07-02T10:40:15Z</time>
      </trkpt>
      <trkpt lat="48.37544" lon="2.15481">
        <ele>83.8</ele>
        <time>2020-07-02T10:40:16Z</time>
      </trkpt>
      <trkpt lat="48.3754" lon="2.15483">
        <ele>83.9</ele>
        <time>2020-07-02T10:40:17Z</time>
      </trkpt>
      <trkpt lat="48.37536" lon="2.15481">
        <ele>83.9</ele>
        <time>2020-07-02T10:40:18Z</time>
      </trkpt>
      <trkpt lat="48.37533" lon="2.15479">
        <ele>83.9</ele>
        <time>2020-07-02T10:40:19Z</time>
      </trkpt>
      <trkpt lat="48.3753" lon="2.15477">
        <ele>84</ele>
        <time>2020-07-02T10:40:20Z</time>
      </trkpt>
      <trkpt lat="48.37528" lon="2.15474">
        <ele>84</ele>
        <time>2020-07-02T10:40:21Z</time>
      </trkpt>
      <trkpt lat="48.37526" lon="2.15471">
        <ele>84</ele>
        <time>2020-07-02T10:40:22Z</time>
      </trkpt>
      <trkpt lat="48.37526" lon="2.1547">
        <ele>84</ele>
        <time>2020-07-02T10:40:23Z</time>
      </trkpt>
      <trkpt lat="48.37524" lon="2.15469">
        <ele>84.1</ele>
        <time>2020-07-02T10:40:24Z</time>
      </trkpt>
      <trkpt lat="48.37522" lon="2.15468">
        <ele>84.1</ele>
        <time>2020-07-02T10:40:25Z</time>
      </trkpt>
      <trkpt lat="48.37521" lon="2.15468">
        <ele>84.1</ele>
        <time>2020-07-02T10:40:26Z</time>
      </trkpt>
      <trkpt lat="48.3752" lon="2.15467">
        <ele>84.1</ele>
        <time>2020-07-02T10:40:27Z</time>
      </trkpt>
      <trkpt lat="48.3752" lon="2.15466">
        <ele>84.1</ele>
        <time>2020-07-02T10:40:28Z</time>
      </trkpt>
      <trkpt lat="48.37519" lon="2.15465">
        <ele>84.1</ele>
        <time>2020-07-02T10:40:29Z</time>
      </trkpt>
      <trkpt lat="48.37519" lon="2.15464">
        <ele>84.1</ele>
        <time>2020-07-02T10:40:30Z</time>
      </trkpt>
      <trkpt lat="48.37518" lon="2.15465">
        <ele>84.1</ele>
        <time>2020-07-02T10:40:31Z</time>
      </trkpt>
      <trkpt lat="48.37518" lon="2.15467">
        <ele>84.2</ele>
        <time>2020-07-02T10:40:32Z</time>
      </trkpt>
      <trkpt lat="48.37517" lon="2.15469">
        <ele>84.2</ele>
        <time>2020-07-02T10:40:33Z</time>
      </trkpt>
      <trkpt lat="48.37517" lon="2.15471">
        <ele>84.2</ele>
        <time>2020-07-02T10:40:34Z</time>
      </trkpt>
      <trkpt lat="48.37517" lon="2.15472">
        <ele>84.2</ele>
        <time>2020-07-02T10:40:35Z</time>
      </trkpt>
      <trkpt lat="48.37517" lon="2.15472">
        <ele>84.2</ele>
        <time>2020-07-02T10:40:36Z</time>
      </trkpt>
      <trkpt lat="48.37517" lon="2.15472">
        <ele>84.2</ele>
        <time>2020-07-02T10:40:37Z</time>
      </trkpt>
      <trkpt lat="48.37517" lon="2.15472">
        <ele>84.2</ele>
        <time>2020-07-02T10:40:38Z</time>
      </trkpt>
      <trkpt lat="48.37517" lon="2.15471">
        <ele>84.2</ele>
        <time>2020-07-02T10:40:39Z</time>
      </trkpt>
      <trkpt lat="48.37516" lon="2.15471">
        <ele>84.2</ele>
        <time>2020-07-02T10:40:40Z</time>
      </trkpt>
      <trkpt lat="48.37516" lon="2.15471">
        <ele>84.2</ele>
        <time>2020-07-02T10:40:41Z</time>
      </trkpt>
      <trkpt lat="48.37516" lon="2.15471">
        <ele>84.2</ele>
        <time>2020-07-02T10:40:42Z</time>
      </trkpt>
      <trkpt lat="48.37516" lon="2.15472">
        <ele>84.2</ele>
        <time>2020-07-02T10:40:43Z</time>
      </trkpt>
      <trkpt lat="48.37516" lon="2.15472">
        <ele>84.2</ele>
        <time>2020-07-02T10:40:44Z</time>
      </trkpt>
      <trkpt lat="48.37516" lon="2.15473">
        <ele>84.2</ele>
        <time>2020-07-02T10:40:45Z</time>
      </trkpt>
      <trkpt lat="48.37516" lon="2.15466">
        <ele>84.3</ele>
        <time>2020-07-02T10:45:14Z</time>
      </trkpt>
      <trkpt lat="48.37516" lon="2.15465">
        <ele>84.3</ele>
        <time>2020-07-02T10:45:15Z</time>
      </trkpt>
      <trkpt lat="48.37514" lon="2.15463">
        <ele>84.3</ele>
        <time>2020-07-02T10:45:16Z</time>
      </trkpt>
      <trkpt lat="48.37513" lon="2.15463">
        <ele>84.3</ele>
        <time>2020-07-02T10:45:17Z</time>
      </trkpt>
      <trkpt lat="48.3751" lon="2.1546">
        <ele>84.4</ele>
        <time>2020-07-02T10:45:18Z</time>
      </trkpt>
      <trkpt lat="48.37509" lon="2.15459">
        <ele>84.4</ele>
        <time>2020-07-02T10:45:19Z</time>
      </trkpt>
      <trkpt lat="48.37506" lon="2.15457">
        <ele>84.5</ele>
        <time>2020-07-02T10:45:20Z</time>
      </trkpt>
      <trkpt lat="48.37505" lon="2.15456">
        <ele>84.5</ele>
        <time>2020-07-02T10:45:21Z</time>
      </trkpt>
      <trkpt lat="48.37502" lon="2.15454">
        <ele>84.6</ele>
        <time>2020-07-02T10:45:22Z</time>
      </trkpt>
      <trkpt lat="48.37499" lon="2.15452">
        <ele>84.8</ele>
        <time>2020-07-02T10:45:23Z</time>
      </trkpt>
      <trkpt lat="48.37497" lon="2.15451">
        <ele>84.8</ele>
        <time>2020-07-02T10:45:24Z</time>
      </trkpt>
      <trkpt lat="48.37493" lon="2.1545">
        <ele>84.9</ele>
        <time>2020-07-02T10:45:25Z</time>
      </trkpt>
      <trkpt lat="48.37492" lon="2.15449">
        <ele>85</ele>
        <time>2020-07-02T10:45:26Z</time>
      </trkpt>
      <trkpt lat="48.37489" lon="2.15447">
        <ele>85.1</ele>
        <time>2020-07-02T10:45:27Z</time>
      </trkpt>
      <trkpt lat="48.37486" lon="2.15446">
        <ele>85.2</ele>
        <time>2020-07-02T10:45:28Z</time>
      </trkpt>
      <trkpt lat="48.37483" lon="2.15444">
        <ele>85.3</ele>
        <time>2020-07-02T10:45:29Z</time>
      </trkpt>
      <trkpt lat="48.3748" lon="2.15444">
        <ele>85.4</ele>
        <time>2020-07-02T10:45:30Z</time>
      </trkpt>
      <trkpt lat="48.37479" lon="2.15444">
        <ele>85.4</ele>
        <time>2020-07-02T10:45:31Z</time>
      </trkpt>
      <trkpt lat="48.37475" lon="2.15442">
        <ele>85.5</ele>
        <time>2020-07-02T10:45:32Z</time>
      </trkpt>
      <trkpt lat="48.37472" lon="2.15439">
        <ele>85.6</ele>
        <time>2020-07-02T10:45:33Z</time>
      </trkpt>
      <trkpt lat="48.37468" lon="2.15437">
        <ele>85.7</ele>
        <time>2020-07-02T10:45:34Z</time>
      </trkpt>
      <trkpt lat="48.37463" lon="2.15436">
        <ele>85.8</ele>
        <time>2020-07-02T10:45:35Z</time>
      </trkpt>
      <trkpt lat="48.37459" lon="2.15434">
        <ele>85.8</ele>
        <time>2020-07-02T10:45:36Z</time>
      </trkpt>
      <trkpt lat="48.37454" lon="2.15432">
        <ele>85.8</ele>
        <time>2020-07-02T10:45:37Z</time>
      </trkpt>
      <trkpt lat="48.3745" lon="2.1543">
        <ele>85.9</ele>
        <time>2020-07-02T10:45:38Z</time>
      </trkpt>
      <trkpt lat="48.37446" lon="2.15428">
        <ele>85.9</ele>
        <time>2020-07-02T10:45:39Z</time>
      </trkpt>
      <trkpt lat="48.37442" lon="2.15426">
        <ele>85.9</ele>
        <time>2020-07-02T10:45:40Z</time>
      </trkpt>
      <trkpt lat="48.37438" lon="2.15422">
        <ele>85.9</ele>
        <time>2020-07-02T10:45:41Z</time>
      </trkpt>
      <trkpt lat="48.37435" lon="2.15421">
        <ele>85.9</ele>
        <time>2020-07-02T10:45:42Z</time>
      </trkpt>
      <trkpt lat="48.37431" lon="2.15419">
        <ele>85.9</ele>
        <time>2020-07-02T10:45:43Z</time>
      </trkpt>
      <trkpt lat="48.37428" lon="2.15417">
        <ele>85.8</ele>
        <time>2020-07-02T10:45:44Z</time>
      </trkpt>
      <trkpt lat="48.37424" lon="2.15416">
        <ele>85.8</ele>
        <time>2020-07-02T10:45:45Z</time>
      </trkpt>
      <trkpt lat="48.3742" lon="2.15413">
        <ele>85.7</ele>
        <time>2020-07-02T10:45:46Z</time>
      </trkpt>
      <trkpt lat="48.37416" lon="2.1541">
        <ele>85.6</ele>
        <time>2020-07-02T10:45:47Z</time>
      </trkpt>
      <trkpt lat="48.37412" lon="2.15406">
        <ele>85.5</ele>
        <time>2020-07-02T10:45:48Z</time>
      </trkpt>
      <trkpt lat="48.37408" lon="2.15402">
        <ele>85.3</ele>
        <time>2020-07-02T10:45:49Z</time>
      </trkpt>
      <trkpt lat="48.37403" lon="2.15398">
        <ele>85.2</ele>
        <time>2020-07-02T10:45:50Z</time>
      </trkpt>
      <trkpt lat="48.37397" lon="2.15394">
        <ele>84.9</ele>
        <time>2020-07-02T10:45:51Z</time>
      </trkpt>
      <trkpt lat="48.3739" lon="2.1539">
        <ele>84.6</ele>
        <time>2020-07-02T10:45:52Z</time>
      </trkpt>
      <trkpt lat="48.37383" lon="2.15385">
        <ele>84.2</ele>
        <time>2020-07-02T10:45:53Z</time>
      </trkpt>
      <trkpt lat="48.37377" lon="2.15381">
        <ele>83.9</ele>
        <time>2020-07-02T10:45:54Z</time>
      </trkpt>
      <trkpt lat="48.37371" lon="2.15376">
        <ele>83.6</ele>
        <time>2020-07-02T10:45:55Z</time>
      </trkpt>
      <trkpt lat="48.37365" lon="2.15372">
        <ele>83.4</ele>
        <time>2020-07-02T10:45:56Z</time>
      </trkpt>
      <trkpt lat="48.37358" lon="2.15368">
        <ele>83.1</ele>
        <time>2020-07-02T10:45:57Z</time>
      </trkpt>
      <trkpt lat="48.37352" lon="2.15363">
        <ele>82.9</ele>
        <time>2020-07-02T10:45:58Z</time>
      </trkpt>
      <trkpt lat="48.37343" lon="2.15357">
        <ele>82.6</ele>
        <time>2020-07-02T10:45:59Z</time>
      </trkpt>
      <trkpt lat="48.37336" lon="2.15351">
        <ele>82.4</ele>
        <time>2020-07-02T10:46:00Z</time>
      </trkpt>
      <trkpt lat="48.37328" lon="2.15346">
        <ele>82.2</ele>
        <time>2020-07-02T10:46:01Z</time>
      </trkpt>
      <trkpt lat="48.37321" lon="2.15342">
        <ele>82</ele>
        <time>2020-07-02T10:46:02Z</time>
      </trkpt>
      <trkpt lat="48.37313" lon="2.15336">
        <ele>81.9</ele>
        <time>2020-07-02T10:46:03Z</time>
      </trkpt>
      <trkpt lat="48.37306" lon="2.15331">
        <ele>81.7</ele>
        <time>2020-07-02T10:46:04Z</time>
      </trkpt>
      <trkpt lat="48.37298" lon="2.15326">
        <ele>81.5</ele>
        <time>2020-07-02T10:46:05Z</time>
      </trkpt>
      <trkpt lat="48.37292" lon="2.15321">
        <ele>81.4</ele>
        <time>2020-07-02T10:46:06Z</time>
      </trkpt>
      <trkpt lat="48.37285" lon="2.15315">
        <ele>81.2</ele>
        <time>2020-07-02T10:46:07Z</time>
      </trkpt>
      <trkpt lat="48.37278" lon="2.15309">
        <ele>81.1</ele>
        <time>2020-07-02T10:46:08Z</time>
      </trkpt>
      <trkpt lat="48.37272" lon="2.15303">
        <ele>81</ele>
        <time>2020-07-02T10:46:09Z</time>
      </trkpt>
      <trkpt lat="48.37265" lon="2.15298">
        <ele>80.9</ele>
        <time>2020-07-02T10:46:10Z</time>
      </trkpt>
      <trkpt lat="48.37258" lon="2.15292">
        <ele>80.8</ele>
        <time>2020-07-02T10:46:11Z</time>
      </trkpt>
      <trkpt lat="48.37252" lon="2.15287">
        <ele>80.8</ele>
        <time>2020-07-02T10:46:12Z</time>
      </trkpt>
      <trkpt lat="48.37245" lon="2.15282">
        <ele>80.7</ele>
        <time>2020-07-02T10:46:13Z</time>
      </trkpt>
      <trkpt lat="48.37238" lon="2.15277">
        <ele>80.7</ele>
        <time>2020-07-02T10:46:14Z</time>
      </trkpt>
      <trkpt lat="48.37231" lon="2.15271">
        <ele>80.7</ele>
        <time>2020-07-02T10:46:15Z</time>
      </trkpt>
      <trkpt lat="48.37224" lon="2.15266">
        <ele>80.6</ele>
        <time>2020-07-02T10:46:16Z</time>
      </trkpt>
      <trkpt lat="48.37217" lon="2.15262">
        <ele>80.6</ele>
        <time>2020-07-02T10:46:17Z</time>
      </trkpt>
      <trkpt lat="48.3721" lon="2.15257">
        <ele>80.5</ele>
        <time>2020-07-02T10:46:18Z</time>
      </trkpt>
      <trkpt lat="48.37204" lon="2.15251">
        <ele>80.4</ele>
        <time>2020-07-02T10:46:19Z</time>
      </trkpt>
      <trkpt lat="48.37197" lon="2.15246">
        <ele>80.4</ele>
        <time>2020-07-02T10:46:20Z</time>
      </trkpt>
      <trkpt lat="48.37191" lon="2.15242">
        <ele>80.3</ele>
        <time>2020-07-02T10:46:21Z</time>
      </trkpt>
      <trkpt lat="48.37184" lon="2.15236">
        <ele>80.2</ele>
        <time>2020-07-02T10:46:22Z</time>
      </trkpt>
      <trkpt lat="48.37177" lon="2.1523">
        <ele>80.1</ele>
        <time>2020-07-02T10:46:23Z</time>
      </trkpt>
      <trkpt lat="48.3717" lon="2.15225">
        <ele>80.1</ele>
        <time>2020-07-02T10:46:24Z</time>
      </trkpt>
      <trkpt lat="48.37164" lon="2.15219">
        <ele>80</ele>
        <time>2020-07-02T10:46:25Z</time>
      </trkpt>
      <trkpt lat="48.37157" lon="2.15215">
        <ele>79.9</ele>
        <time>2020-07-02T10:46:26Z</time>
      </trkpt>
      <trkpt lat="48.3715" lon="2.1521">
        <ele>79.9</ele>
        <time>2020-07-02T10:46:27Z</time>
      </trkpt>
      <trkpt lat="48.37143" lon="2.15205">
        <ele>79.8</ele>
        <time>2020-07-02T10:46:28Z</time>
      </trkpt>
      <trkpt lat="48.37136" lon="2.152">
        <ele>79.8</ele>
        <time>2020-07-02T10:46:29Z</time>
      </trkpt>
      <trkpt lat="48.37129" lon="2.15195">
        <ele>79.7</ele>
        <time>2020-07-02T10:46:30Z</time>
      </trkpt>
      <trkpt lat="48.37123" lon="2.15191">
        <ele>79.6</ele>
        <time>2020-07-02T10:46:31Z</time>
      </trkpt>
      <trkpt lat="48.37116" lon="2.15187">
        <ele>79.6</ele>
        <time>2020-07-02T10:46:32Z</time>
      </trkpt>
      <trkpt lat="48.37109" lon="2.15182">
        <ele>79.5</ele>
        <time>2020-07-02T10:46:33Z</time>
      </trkpt>
      <trkpt lat="48.37102" lon="2.15177">
        <ele>79.4</ele>
        <time>2020-07-02T10:46:34Z</time>
      </trkpt>
      <trkpt lat="48.37095" lon="2.15172">
        <ele>79.4</ele>
        <time>2020-07-02T10:46:35Z</time>
      </trkpt>
      <trkpt lat="48.37089" lon="2.15167">
        <ele>79.3</ele>
        <time>2020-07-02T10:46:36Z</time>
      </trkpt>
      <trkpt lat="48.37083" lon="2.15162">
        <ele>79.2</ele>
        <time>2020-07-02T10:46:37Z</time>
      </trkpt>
      <trkpt lat="48.37076" lon="2.15158">
        <ele>79.2</ele>
        <time>2020-07-02T10:46:38Z</time>
      </trkpt>
      <trkpt lat="48.3707" lon="2.15153">
        <ele>79.2</ele>
        <time>2020-07-02T10:46:39Z</time>
      </trkpt>
      <trkpt lat="48.37064" lon="2.15148">
        <ele>79.1</ele>
        <time>2020-07-02T10:46:40Z</time>
      </trkpt>
      <trkpt lat="48.37057" lon="2.15144">
        <ele>79.1</ele>
        <time>2020-07-02T10:46:41Z</time>
      </trkpt>
      <trkpt lat="48.37051" lon="2.15139">
        <ele>79.1</ele>
        <time>2020-07-02T10:46:42Z</time>
      </trkpt>
      <trkpt lat="48.37044" lon="2.15134">
        <ele>79</ele>
        <time>2020-07-02T10:46:43Z</time>
      </trkpt>
      <trkpt lat="48.37038" lon="2.15129">
        <ele>78.9</ele>
        <time>2020-07-02T10:46:44Z</time>
      </trkpt>
      <trkpt lat="48.37032" lon="2.15124">
        <ele>78.8</ele>
        <time>2020-07-02T10:46:45Z</time>
      </trkpt>
      <trkpt lat="48.37026" lon="2.15119">
        <ele>78.7</ele>
        <time>2020-07-02T10:46:46Z</time>
      </trkpt>
      <trkpt lat="48.3702" lon="2.15114">
        <ele>78.7</ele>
        <time>2020-07-02T10:46:47Z</time>
      </trkpt>
      <trkpt lat="48.37014" lon="2.15109">
        <ele>78.7</ele>
        <time>2020-07-02T10:46:48Z</time>
      </trkpt>
      <trkpt lat="48.37007" lon="2.15105">
        <ele>78.7</ele>
        <time>2020-07-02T10:46:49Z</time>
      </trkpt>
      <trkpt lat="48.37001" lon="2.15101">
        <ele>78.7</ele>
        <time>2020-07-02T10:46:50Z</time>
      </trkpt>
      <trkpt lat="48.36994" lon="2.15096">
        <ele>78.7</ele>
        <time>2020-07-02T10:46:51Z</time>
      </trkpt>
      <trkpt lat="48.36988" lon="2.15091">
        <ele>78.6</ele>
        <time>2020-07-02T10:46:52Z</time>
      </trkpt>
      <trkpt lat="48.36982" lon="2.15087">
        <ele>78.6</ele>
        <time>2020-07-02T10:46:53Z</time>
      </trkpt>
      <trkpt lat="48.36975" lon="2.15082">
        <ele>78.6</ele>
        <time>2020-07-02T10:46:54Z</time>
      </trkpt>
      <trkpt lat="48.36969" lon="2.15076">
        <ele>78.5</ele>
        <time>2020-07-02T10:46:55Z</time>
      </trkpt>
      <trkpt lat="48.36963" lon="2.1507">
        <ele>78.4</ele>
        <time>2020-07-02T10:46:56Z</time>
      </trkpt>
      <trkpt lat="48.36957" lon="2.15065">
        <ele>78.3</ele>
        <time>2020-07-02T10:46:57Z</time>
      </trkpt>
      <trkpt lat="48.36951" lon="2.15059">
        <ele>78.1</ele>
        <time>2020-07-02T10:46:58Z</time>
      </trkpt>
      <trkpt lat="48.36945" lon="2.15054">
        <ele>78</ele>
        <time>2020-07-02T10:46:59Z</time>
      </trkpt>
      <trkpt lat="48.36939" lon="2.15049">
        <ele>78</ele>
        <time>2020-07-02T10:47:00Z</time>
      </trkpt>
      <trkpt lat="48.36933" lon="2.15043">
        <ele>77.9</ele>
        <time>2020-07-02T10:47:01Z</time>
      </trkpt>
      <trkpt lat="48.36928" lon="2.15038">
        <ele>77.9</ele>
        <time>2020-07-02T10:47:02Z</time>
      </trkpt>
      <trkpt lat="48.36922" lon="2.15033">
        <ele>77.8</ele>
        <time>2020-07-02T10:47:03Z</time>
      </trkpt>
      <trkpt lat="48.36916" lon="2.15029">
        <ele>77.7</ele>
        <time>2020-07-02T10:47:04Z</time>
      </trkpt>
      <trkpt lat="48.36911" lon="2.15024">
        <ele>77.7</ele>
        <time>2020-07-02T10:47:05Z</time>
      </trkpt>
      <trkpt lat="48.36905" lon="2.15019">
        <ele>77.6</ele>
        <time>2020-07-02T10:47:06Z</time>
      </trkpt>
      <trkpt lat="48.369" lon="2.15014">
        <ele>77.6</ele>
        <time>2020-07-02T10:47:07Z</time>
      </trkpt>
      <trkpt lat="48.36894" lon="2.1501">
        <ele>77.5</ele>
        <time>2020-07-02T10:47:08Z</time>
      </trkpt>
      <trkpt lat="48.36888" lon="2.15005">
        <ele>77.5</ele>
        <time>2020-07-02T10:47:09Z</time>
      </trkpt>
      <trkpt lat="48.36883" lon="2.14999">
        <ele>77.5</ele>
        <time>2020-07-02T10:47:10Z</time>
      </trkpt>
      <trkpt lat="48.36877" lon="2.14994">
        <ele>77.5</ele>
        <time>2020-07-02T10:47:11Z</time>
      </trkpt>
      <trkpt lat="48.36871" lon="2.14988">
        <ele>77.4</ele>
        <time>2020-07-02T10:47:12Z</time>
      </trkpt>
      <trkpt lat="48.36866" lon="2.14982">
        <ele>77.4</ele>
        <time>2020-07-02T10:47:13Z</time>
      </trkpt>
      <trkpt lat="48.3686" lon="2.14977">
        <ele>77.3</ele>
        <time>2020-07-02T10:47:14Z</time>
      </trkpt>
      <trkpt lat="48.36855" lon="2.14973">
        <ele>77.3</ele>
        <time>2020-07-02T10:47:15Z</time>
      </trkpt>
      <trkpt lat="48.36849" lon="2.14968">
        <ele>77.2</ele>
        <time>2020-07-02T10:47:16Z</time>
      </trkpt>
      <trkpt lat="48.36845" lon="2.14965">
        <ele>77.2</ele>
        <time>2020-07-02T10:47:17Z</time>
      </trkpt>
      <trkpt lat="48.3684" lon="2.1496">
        <ele>77.1</ele>
        <time>2020-07-02T10:47:18Z</time>
      </trkpt>
      <trkpt lat="48.36834" lon="2.14956">
        <ele>77.1</ele>
        <time>2020-07-02T10:47:19Z</time>
      </trkpt>
      <trkpt lat="48.36829" lon="2.14953">
        <ele>77.1</ele>
        <time>2020-07-02T10:47:20Z</time>
      </trkpt>
      <trkpt lat="48.36824" lon="2.14949">
        <ele>77.2</ele>
        <time>2020-07-02T10:47:21Z</time>
      </trkpt>
      <trkpt lat="48.3682" lon="2.14945">
        <ele>77.1</ele>
        <time>2020-07-02T10:47:22Z</time>
      </trkpt>
      <trkpt lat="48.36816" lon="2.14942">
        <ele>77</ele>
        <time>2020-07-02T10:47:23Z</time>
      </trkpt>
      <trkpt lat="48.36812" lon="2.14938">
        <ele>76.9</ele>
        <time>2020-07-02T10:47:24Z</time>
      </trkpt>
      <trkpt lat="48.36808" lon="2.14935">
        <ele>76.8</ele>
        <time>2020-07-02T10:47:25Z</time>
      </trkpt>
      <trkpt lat="48.36804" lon="2.14932">
        <ele>76.7</ele>
        <time>2020-07-02T10:47:26Z</time>
      </trkpt>
      <trkpt lat="48.368" lon="2.14929">
        <ele>76.6</ele>
        <time>2020-07-02T10:47:27Z</time>
      </trkpt>
      <trkpt lat="48.36797" lon="2.14926">
        <ele>76.5</ele>
        <time>2020-07-02T10:47:28Z</time>
      </trkpt>
      <trkpt lat="48.36793" lon="2.14923">
        <ele>76.5</ele>
        <time>2020-07-02T10:47:29Z</time>
      </trkpt>
      <trkpt lat="48.3679" lon="2.14919">
        <ele>76.4</ele>
        <time>2020-07-02T10:47:30Z</time>
      </trkpt>
      <trkpt lat="48.36787" lon="2.14915">
        <ele>76.4</ele>
        <time>2020-07-02T10:47:31Z</time>
      </trkpt>
      <trkpt lat="48.36784" lon="2.14911">
        <ele>76.4</ele>
        <time>2020-07-02T10:47:32Z</time>
      </trkpt>
      <trkpt lat="48.3678" lon="2.14908">
        <ele>76.3</ele>
        <time>2020-07-02T10:47:33Z</time>
      </trkpt>
      <trkpt lat="48.36776" lon="2.14906">
        <ele>76.3</ele>
        <time>2020-07-02T10:47:34Z</time>
      </trkpt>
      <trkpt lat="48.36772" lon="2.14903">
        <ele>76.3</ele>
        <time>2020-07-02T10:47:35Z</time>
      </trkpt>
      <trkpt lat="48.36769" lon="2.14899">
        <ele>76.2</ele>
        <time>2020-07-02T10:47:36Z</time>
      </trkpt>
      <trkpt lat="48.36765" lon="2.14896">
        <ele>76.2</ele>
        <time>2020-07-02T10:47:37Z</time>
      </trkpt>
      <trkpt lat="48.36762" lon="2.14893">
        <ele>76.2</ele>
        <time>2020-07-02T10:47:38Z</time>
      </trkpt>
      <trkpt lat="48.36758" lon="2.14889">
        <ele>76.2</ele>
        <time>2020-07-02T10:47:39Z</time>
      </trkpt>
      <trkpt lat="48.36754" lon="2.14885">
        <ele>76.2</ele>
        <time>2020-07-02T10:47:40Z</time>
      </trkpt>
      <trkpt lat="48.36749" lon="2.14881">
        <ele>76.1</ele>
        <time>2020-07-02T10:47:41Z</time>
      </trkpt>
      <trkpt lat="48.36745" lon="2.14878">
        <ele>76.1</ele>
        <time>2020-07-02T10:47:42Z</time>
      </trkpt>
      <trkpt lat="48.36741" lon="2.14874">
        <ele>76.1</ele>
        <time>2020-07-02T10:47:43Z</time>
      </trkpt>
      <trkpt lat="48.36737" lon="2.14869">
        <ele>76.1</ele>
        <time>2020-07-02T10:47:44Z</time>
      </trkpt>
      <trkpt lat="48.36733" lon="2.14865">
        <ele>76.1</ele>
        <time>2020-07-02T10:47:45Z</time>
      </trkpt>
      <trkpt lat="48.36728" lon="2.14862">
        <ele>76.1</ele>
        <time>2020-07-02T10:47:46Z</time>
      </trkpt>
      <trkpt lat="48.36724" lon="2.14858">
        <ele>76.1</ele>
        <time>2020-07-02T10:47:47Z</time>
      </trkpt>
      <trkpt lat="48.36719" lon="2.14854">
        <ele>76.1</ele>
        <time>2020-07-02T10:47:48Z</time>
      </trkpt>
      <trkpt lat="48.36715" lon="2.14851">
        <ele>76.2</ele>
        <time>2020-07-02T10:47:49Z</time>
      </trkpt>
      <trkpt lat="48.36709" lon="2.14848">
        <ele>76.2</ele>
        <time>2020-07-02T10:47:50Z</time>
      </trkpt>
      <trkpt lat="48.36705" lon="2.14843">
        <ele>76.2</ele>
        <time>2020-07-02T10:47:51Z</time>
      </trkpt>
      <trkpt lat="48.367" lon="2.14838">
        <ele>76.3</ele>
        <time>2020-07-02T10:47:52Z</time>
      </trkpt>
      <trkpt lat="48.36694" lon="2.14835">
        <ele>76.3</ele>
        <time>2020-07-02T10:47:53Z</time>
      </trkpt>
      <trkpt lat="48.36689" lon="2.1483">
        <ele>76.3</ele>
        <time>2020-07-02T10:47:54Z</time>
      </trkpt>
      <trkpt lat="48.36684" lon="2.14826">
        <ele>76.3</ele>
        <time>2020-07-02T10:47:55Z</time>
      </trkpt>
      <trkpt lat="48.36679" lon="2.14822">
        <ele>76.4</ele>
        <time>2020-07-02T10:47:56Z</time>
      </trkpt>
      <trkpt lat="48.36674" lon="2.14818">
        <ele>76.3</ele>
        <time>2020-07-02T10:47:57Z</time>
      </trkpt>
      <trkpt lat="48.36669" lon="2.14813">
        <ele>76.3</ele>
        <time>2020-07-02T10:47:58Z</time>
      </trkpt>
      <trkpt lat="48.36664" lon="2.14809">
        <ele>76.3</ele>
        <time>2020-07-02T10:47:59Z</time>
      </trkpt>
      <trkpt lat="48.36658" lon="2.14805">
        <ele>76.3</ele>
        <time>2020-07-02T10:48:00Z</time>
      </trkpt>
      <trkpt lat="48.36653" lon="2.14801">
        <ele>76.2</ele>
        <time>2020-07-02T10:48:01Z</time>
      </trkpt>
      <trkpt lat="48.36647" lon="2.14796">
        <ele>76.2</ele>
        <time>2020-07-02T10:48:02Z</time>
      </trkpt>
      <trkpt lat="48.36642" lon="2.1479">
        <ele>76.2</ele>
        <time>2020-07-02T10:48:03Z</time>
      </trkpt>
      <trkpt lat="48.36637" lon="2.14783">
        <ele>76.3</ele>
        <time>2020-07-02T10:48:04Z</time>
      </trkpt>
      <trkpt lat="48.36632" lon="2.14778">
        <ele>76.3</ele>
        <time>2020-07-02T10:48:05Z</time>
      </trkpt>
      <trkpt lat="48.36626" lon="2.14772">
        <ele>76.3</ele>
        <time>2020-07-02T10:48:06Z</time>
      </trkpt>
      <trkpt lat="48.36621" lon="2.14768">
        <ele>76.4</ele>
        <time>2020-07-02T10:48:07Z</time>
      </trkpt>
      <trkpt lat="48.36616" lon="2.14764">
        <ele>76.4</ele>
        <time>2020-07-02T10:48:08Z</time>
      </trkpt>
      <trkpt lat="48.3661" lon="2.1476">
        <ele>76.5</ele>
        <time>2020-07-02T10:48:09Z</time>
      </trkpt>
      <trkpt lat="48.36605" lon="2.14755">
        <ele>76.5</ele>
        <time>2020-07-02T10:48:10Z</time>
      </trkpt>
      <trkpt lat="48.366" lon="2.14749">
        <ele>76.6</ele>
        <time>2020-07-02T10:48:11Z</time>
      </trkpt>
      <trkpt lat="48.36594" lon="2.14745">
        <ele>76.7</ele>
        <time>2020-07-02T10:48:12Z</time>
      </trkpt>
      <trkpt lat="48.3659" lon="2.1474">
        <ele>76.7</ele>
        <time>2020-07-02T10:48:13Z</time>
      </trkpt>
      <trkpt lat="48.36585" lon="2.14736">
        <ele>76.8</ele>
        <time>2020-07-02T10:48:14Z</time>
      </trkpt>
      <trkpt lat="48.3658" lon="2.14732">
        <ele>76.9</ele>
        <time>2020-07-02T10:48:15Z</time>
      </trkpt>
      <trkpt lat="48.36575" lon="2.14728">
        <ele>76.9</ele>
        <time>2020-07-02T10:48:16Z</time>
      </trkpt>
      <trkpt lat="48.3657" lon="2.14724">
        <ele>76.9</ele>
        <time>2020-07-02T10:48:17Z</time>
      </trkpt>
      <trkpt lat="48.36564" lon="2.14721">
        <ele>76.9</ele>
        <time>2020-07-02T10:48:18Z</time>
      </trkpt>
      <trkpt lat="48.36559" lon="2.14718">
        <ele>76.9</ele>
        <time>2020-07-02T10:48:19Z</time>
      </trkpt>
      <trkpt lat="48.36554" lon="2.14715">
        <ele>76.7</ele>
        <time>2020-07-02T10:48:20Z</time>
      </trkpt>
      <trkpt lat="48.36547" lon="2.14713">
        <ele>76.7</ele>
        <time>2020-07-02T10:48:21Z</time>
      </trkpt>
      <trkpt lat="48.36542" lon="2.1471">
        <ele>76.7</ele>
        <time>2020-07-02T10:48:22Z</time>
      </trkpt>
      <trkpt lat="48.36537" lon="2.14708">
        <ele>76.8</ele>
        <time>2020-07-02T10:48:23Z</time>
      </trkpt>
      <trkpt lat="48.36531" lon="2.14705">
        <ele>76.9</ele>
        <time>2020-07-02T10:48:24Z</time>
      </trkpt>
      <trkpt lat="48.36525" lon="2.147">
        <ele>77</ele>
        <time>2020-07-02T10:48:25Z</time>
      </trkpt>
      <trkpt lat="48.36518" lon="2.14696">
        <ele>77.2</ele>
        <time>2020-07-02T10:48:26Z</time>
      </trkpt>
      <trkpt lat="48.36512" lon="2.14694">
        <ele>77.4</ele>
        <time>2020-07-02T10:48:27Z</time>
      </trkpt>
      <trkpt lat="48.36507" lon="2.14693">
        <ele>77.6</ele>
        <time>2020-07-02T10:48:28Z</time>
      </trkpt>
      <trkpt lat="48.36502" lon="2.14691">
        <ele>77.7</ele>
        <time>2020-07-02T10:48:29Z</time>
      </trkpt>
      <trkpt lat="48.36496" lon="2.14689">
        <ele>77.9</ele>
        <time>2020-07-02T10:48:30Z</time>
      </trkpt>
      <trkpt lat="48.36491" lon="2.14688">
        <ele>78.1</ele>
        <time>2020-07-02T10:48:31Z</time>
      </trkpt>
      <trkpt lat="48.36485" lon="2.14687">
        <ele>78.3</ele>
        <time>2020-07-02T10:48:32Z</time>
      </trkpt>
      <trkpt lat="48.3648" lon="2.14686">
        <ele>78.5</ele>
        <time>2020-07-02T10:48:33Z</time>
      </trkpt>
      <trkpt lat="48.36475" lon="2.14685">
        <ele>78.7</ele>
        <time>2020-07-02T10:48:34Z</time>
      </trkpt>
      <trkpt lat="48.3647" lon="2.14684">
        <ele>78.9</ele>
        <time>2020-07-02T10:48:35Z</time>
      </trkpt>
      <trkpt lat="48.36464" lon="2.14683">
        <ele>79.2</ele>
        <time>2020-07-02T10:48:36Z</time>
      </trkpt>
      <trkpt lat="48.3646" lon="2.14682">
        <ele>79.4</ele>
        <time>2020-07-02T10:48:37Z</time>
      </trkpt>
      <trkpt lat="48.36455" lon="2.14682">
        <ele>79.6</ele>
        <time>2020-07-02T10:48:38Z</time>
      </trkpt>
      <trkpt lat="48.36451" lon="2.14681">
        <ele>79.8</ele>
        <time>2020-07-02T10:48:39Z</time>
      </trkpt>
      <trkpt lat="48.36447" lon="2.14682">
        <ele>80</ele>
        <time>2020-07-02T10:48:40Z</time>
      </trkpt>
      <trkpt lat="48.36442" lon="2.14682">
        <ele>80.2</ele>
        <time>2020-07-02T10:48:41Z</time>
      </trkpt>
      <trkpt lat="48.36438" lon="2.14682">
        <ele>80.4</ele>
        <time>2020-07-02T10:48:42Z</time>
      </trkpt>
      <trkpt lat="48.36433" lon="2.14682">
        <ele>80.5</ele>
        <time>2020-07-02T10:48:43Z</time>
      </trkpt>
      <trkpt lat="48.3643" lon="2.14684">
        <ele>80.7</ele>
        <time>2020-07-02T10:48:44Z</time>
      </trkpt>
      <trkpt lat="48.36426" lon="2.14685">
        <ele>80.9</ele>
        <time>2020-07-02T10:48:45Z</time>
      </trkpt>
      <trkpt lat="48.36421" lon="2.14685">
        <ele>81.1</ele>
        <time>2020-07-02T10:48:46Z</time>
      </trkpt>
      <trkpt lat="48.36417" lon="2.14685">
        <ele>81.3</ele>
        <time>2020-07-02T10:48:47Z</time>
      </trkpt>
      <trkpt lat="48.36414" lon="2.14686">
        <ele>81.5</ele>
        <time>2020-07-02T10:48:48Z</time>
      </trkpt>
      <trkpt lat="48.36411" lon="2.14688">
        <ele>81.6</ele>
        <time>2020-07-02T10:48:49Z</time>
      </trkpt>
      <trkpt lat="48.36408" lon="2.14689">
        <ele>81.8</ele>
        <time>2020-07-02T10:48:50Z</time>
      </trkpt>
      <trkpt lat="48.36404" lon="2.14689">
        <ele>81.9</ele>
        <time>2020-07-02T10:48:51Z</time>
      </trkpt>
      <trkpt lat="48.364" lon="2.1469">
        <ele>82.1</ele>
        <time>2020-07-02T10:48:52Z</time>
      </trkpt>
      <trkpt lat="48.36396" lon="2.14691">
        <ele>82.3</ele>
        <time>2020-07-02T10:48:53Z</time>
      </trkpt>
      <trkpt lat="48.36392" lon="2.14693">
        <ele>82.5</ele>
        <time>2020-07-02T10:48:54Z</time>
      </trkpt>
      <trkpt lat="48.36389" lon="2.14694">
        <ele>82.7</ele>
        <time>2020-07-02T10:48:55Z</time>
      </trkpt>
      <trkpt lat="48.36385" lon="2.14696">
        <ele>82.8</ele>
        <time>2020-07-02T10:48:56Z</time>
      </trkpt>
      <trkpt lat="48.36381" lon="2.14698">
        <ele>83</ele>
        <time>2020-07-02T10:48:57Z</time>
      </trkpt>
      <trkpt lat="48.36377" lon="2.147">
        <ele>83.2</ele>
        <time>2020-07-02T10:48:58Z</time>
      </trkpt>
      <trkpt lat="48.36374" lon="2.14701">
        <ele>83.3</ele>
        <time>2020-07-02T10:48:59Z</time>
      </trkpt>
      <trkpt lat="48.3637" lon="2.14702">
        <ele>83.5</ele>
        <time>2020-07-02T10:49:00Z</time>
      </trkpt>
      <trkpt lat="48.36367" lon="2.14703">
        <ele>83.6</ele>
        <time>2020-07-02T10:49:01Z</time>
      </trkpt>
      <trkpt lat="48.36361" lon="2.14705">
        <ele>83.8</ele>
        <time>2020-07-02T10:49:02Z</time>
      </trkpt>
      <trkpt lat="48.36356" lon="2.14706">
        <ele>84</ele>
        <time>2020-07-02T10:49:03Z</time>
      </trkpt>
      <trkpt lat="48.36352" lon="2.14707">
        <ele>84.2</ele>
        <time>2020-07-02T10:49:04Z</time>
      </trkpt>
      <trkpt lat="48.36348" lon="2.14709">
        <ele>84.3</ele>
        <time>2020-07-02T10:49:05Z</time>
      </trkpt>
      <trkpt lat="48.36344" lon="2.1471">
        <ele>84.4</ele>
        <time>2020-07-02T10:49:06Z</time>
      </trkpt>
      <trkpt lat="48.36341" lon="2.14712">
        <ele>84.6</ele>
        <time>2020-07-02T10:49:07Z</time>
      </trkpt>
      <trkpt lat="48.36338" lon="2.14715">
        <ele>84.7</ele>
        <time>2020-07-02T10:49:08Z</time>
      </trkpt>
      <trkpt lat="48.36334" lon="2.14716">
        <ele>84.8</ele>
        <time>2020-07-02T10:49:09Z</time>
      </trkpt>
      <trkpt lat="48.3633" lon="2.14717">
        <ele>84.9</ele>
        <time>2020-07-02T10:49:10Z</time>
      </trkpt>
      <trkpt lat="48.36327" lon="2.14718">
        <ele>84.9</ele>
        <time>2020-07-02T10:49:11Z</time>
      </trkpt>
      <trkpt lat="48.36324" lon="2.1472">
        <ele>85</ele>
        <time>2020-07-02T10:49:12Z</time>
      </trkpt>
      <trkpt lat="48.36319" lon="2.14721">
        <ele>85.1</ele>
        <time>2020-07-02T10:49:13Z</time>
      </trkpt>
      <trkpt lat="48.36314" lon="2.14724">
        <ele>85.2</ele>
        <time>2020-07-02T10:49:14Z</time>
      </trkpt>
      <trkpt lat="48.36311" lon="2.14726">
        <ele>85.3</ele>
        <time>2020-07-02T10:49:15Z</time>
      </trkpt>
      <trkpt lat="48.36307" lon="2.14727">
        <ele>85.3</ele>
        <time>2020-07-02T10:49:16Z</time>
      </trkpt>
      <trkpt lat="48.36303" lon="2.14729">
        <ele>85.4</ele>
        <time>2020-07-02T10:49:17Z</time>
      </trkpt>
      <trkpt lat="48.363" lon="2.14731">
        <ele>85.4</ele>
        <time>2020-07-02T10:49:18Z</time>
      </trkpt>
      <trkpt lat="48.36295" lon="2.14733">
        <ele>85.5</ele>
        <time>2020-07-02T10:49:19Z</time>
      </trkpt>
      <trkpt lat="48.3629" lon="2.14735">
        <ele>85.5</ele>
        <time>2020-07-02T10:49:20Z</time>
      </trkpt>
      <trkpt lat="48.36286" lon="2.14737">
        <ele>85.5</ele>
        <time>2020-07-02T10:49:21Z</time>
      </trkpt>
      <trkpt lat="48.36282" lon="2.14739">
        <ele>85.5</ele>
        <time>2020-07-02T10:49:22Z</time>
      </trkpt>
      <trkpt lat="48.36278" lon="2.14741">
        <ele>85.5</ele>
        <time>2020-07-02T10:49:23Z</time>
      </trkpt>
      <trkpt lat="48.36274" lon="2.14743">
        <ele>85.5</ele>
        <time>2020-07-02T10:49:24Z</time>
      </trkpt>
      <trkpt lat="48.3627" lon="2.14745">
        <ele>85.4</ele>
        <time>2020-07-02T10:49:25Z</time>
      </trkpt>
      <trkpt lat="48.36264" lon="2.14748">
        <ele>85.4</ele>
        <time>2020-07-02T10:49:26Z</time>
      </trkpt>
      <trkpt lat="48.3626" lon="2.14751">
        <ele>85.3</ele>
        <time>2020-07-02T10:49:27Z</time>
      </trkpt>
      <trkpt lat="48.36254" lon="2.14754">
        <ele>85.2</ele>
        <time>2020-07-02T10:49:28Z</time>
      </trkpt>
      <trkpt lat="48.36249" lon="2.14755">
        <ele>85.2</ele>
        <time>2020-07-02T10:49:29Z</time>
      </trkpt>
      <trkpt lat="48.36244" lon="2.14756">
        <ele>85.1</ele>
        <time>2020-07-02T10:49:30Z</time>
      </trkpt>
      <trkpt lat="48.3624" lon="2.14758">
        <ele>85.1</ele>
        <time>2020-07-02T10:49:31Z</time>
      </trkpt>
      <trkpt lat="48.36236" lon="2.14759">
        <ele>85</ele>
        <time>2020-07-02T10:49:32Z</time>
      </trkpt>
      <trkpt lat="48.36233" lon="2.1476">
        <ele>85</ele>
        <time>2020-07-02T10:49:33Z</time>
      </trkpt>
      <trkpt lat="48.36231" lon="2.1476">
        <ele>85</ele>
        <time>2020-07-02T10:49:34Z</time>
      </trkpt>
      <trkpt lat="48.3623" lon="2.1476">
        <ele>85</ele>
        <time>2020-07-02T10:49:35Z</time>
      </trkpt>
      <trkpt lat="48.36231" lon="2.14759">
        <ele>85</ele>
        <time>2020-07-02T10:49:36Z</time>
      </trkpt>
      <trkpt lat="48.36231" lon="2.14758">
        <ele>85</ele>
        <time>2020-07-02T10:49:37Z</time>
      </trkpt>
      <trkpt lat="48.36232" lon="2.14756">
        <ele>85</ele>
        <time>2020-07-02T10:49:38Z</time>
      </trkpt>
      <trkpt lat="48.36232" lon="2.14755">
        <ele>85</ele>
        <time>2020-07-02T10:49:39Z</time>
      </trkpt>
      <trkpt lat="48.36233" lon="2.14754">
        <ele>85</ele>
        <time>2020-07-02T10:49:40Z</time>
      </trkpt>
      <trkpt lat="48.36234" lon="2.14753">
        <ele>85</ele>
        <time>2020-07-02T10:49:41Z</time>
      </trkpt>
      <trkpt lat="48.36234" lon="2.14752">
        <ele>84.8</ele>
        <time>2020-07-02T10:49:42Z</time>
      </trkpt>
      <trkpt lat="48.36235" lon="2.14752">
        <ele>84.8</ele>
        <time>2020-07-02T10:49:43Z</time>
      </trkpt>
      <trkpt lat="48.36236" lon="2.14751">
        <ele>84.7</ele>
        <time>2020-07-02T10:49:44Z</time>
      </trkpt>
      <trkpt lat="48.36236" lon="2.1475">
        <ele>84.6</ele>
        <time>2020-07-02T10:49:45Z</time>
      </trkpt>
      <trkpt lat="48.36237" lon="2.14749">
        <ele>84.6</ele>
        <time>2020-07-02T10:49:46Z</time>
      </trkpt>
      <trkpt lat="48.36238" lon="2.14748">
        <ele>84.5</ele>
        <time>2020-07-02T10:50:13Z</time>
      </trkpt>
      <trkpt lat="48.36238" lon="2.14747">
        <ele>84.4</ele>
        <time>2020-07-02T10:50:14Z</time>
      </trkpt>
      <trkpt lat="48.36239" lon="2.14742">
        <ele>84.1</ele>
        <time>2020-07-02T10:50:15Z</time>
      </trkpt>
      <trkpt lat="48.36238" lon="2.1474">
        <ele>84</ele>
        <time>2020-07-02T10:50:16Z</time>
      </trkpt>
      <trkpt lat="48.36238" lon="2.14735">
        <ele>83.8</ele>
        <time>2020-07-02T10:50:17Z</time>
      </trkpt>
      <trkpt lat="48.36237" lon="2.14729">
        <ele>83.4</ele>
        <time>2020-07-02T10:50:18Z</time>
      </trkpt>
      <trkpt lat="48.36236" lon="2.14723">
        <ele>83.1</ele>
        <time>2020-07-02T10:50:19Z</time>
      </trkpt>
      <trkpt lat="48.36235" lon="2.14717">
        <ele>82.8</ele>
        <time>2020-07-02T10:50:20Z</time>
      </trkpt>
      <trkpt lat="48.36236" lon="2.14712">
        <ele>82.6</ele>
        <time>2020-07-02T10:50:21Z</time>
      </trkpt>
      <trkpt lat="48.36236" lon="2.1471">
        <ele>82.5</ele>
        <time>2020-07-02T10:50:22Z</time>
      </trkpt>
      <trkpt lat="48.36236" lon="2.14705">
        <ele>82.3</ele>
        <time>2020-07-02T10:50:23Z</time>
      </trkpt>
      <trkpt lat="48.36235" lon="2.14701">
        <ele>82.1</ele>
        <time>2020-07-02T10:50:24Z</time>
      </trkpt>
      <trkpt lat="48.36234" lon="2.14699">
        <ele>82</ele>
        <time>2020-07-02T10:50:25Z</time>
      </trkpt>
      <trkpt lat="48.36234" lon="2.14698">
        <ele>81.9</ele>
        <time>2020-07-02T10:50:26Z</time>
      </trkpt>
      <trkpt lat="48.36234" lon="2.14697">
        <ele>81.9</ele>
        <time>2020-07-02T10:50:27Z</time>
      </trkpt>
      <trkpt lat="48.36235" lon="2.14698">
        <ele>81.8</ele>
        <time>2020-07-02T10:50:28Z</time>
      </trkpt>
      <trkpt lat="48.36234" lon="2.14697">
        <ele>81.8</ele>
        <time>2020-07-02T10:50:29Z</time>
      </trkpt>
      <trkpt lat="48.36234" lon="2.14696">
        <ele>81.7</ele>
        <time>2020-07-02T10:50:30Z</time>
      </trkpt>
      <trkpt lat="48.36233" lon="2.14695">
        <ele>81.6</ele>
        <time>2020-07-02T10:50:31Z</time>
      </trkpt>
      <trkpt lat="48.36233" lon="2.14694">
        <ele>81.5</ele>
        <time>2020-07-02T10:50:32Z</time>
      </trkpt>
      <trkpt lat="48.36233" lon="2.14692">
        <ele>81.4</ele>
        <time>2020-07-02T10:50:33Z</time>
      </trkpt>
      <trkpt lat="48.36233" lon="2.14692">
        <ele>81.4</ele>
        <time>2020-07-02T10:50:34Z</time>
      </trkpt>
      <trkpt lat="48.36233" lon="2.14692">
        <ele>81.4</ele>
        <time>2020-07-02T10:50:35Z</time>
      </trkpt>
      <trkpt lat="48.36232" lon="2.14692">
        <ele>81.4</ele>
        <time>2020-07-02T10:50:36Z</time>
      </trkpt>
      <trkpt lat="48.36232" lon="2.14692">
        <ele>81.4</ele>
        <time>2020-07-02T10:50:37Z</time>
      </trkpt>
      <trkpt lat="48.36232" lon="2.14692">
        <ele>81.4</ele>
        <time>2020-07-02T10:50:38Z</time>
      </trkpt>
      <trkpt lat="48.36232" lon="2.14692">
        <ele>81.4</ele>
        <time>2020-07-02T10:50:39Z</time>
      </trkpt>
      <trkpt lat="48.36232" lon="2.14692">
        <ele>81.4</ele>
        <time>2020-07-02T10:50:40Z</time>
      </trkpt>
      <trkpt lat="48.36232" lon="2.14692">
        <ele>81.4</ele>
        <time>2020-07-02T10:50:41Z</time>
      </trkpt>
      <trkpt lat="48.36232" lon="2.14692">
        <ele>81.4</ele>
        <time>2020-07-02T10:50:42Z</time>
      </trkpt>
      <trkpt lat="48.36232" lon="2.14691">
        <ele>81.3</ele>
        <time>2020-07-02T10:50:43Z</time>
      </trkpt>
      <trkpt lat="48.3623" lon="2.14684">
        <ele>80.9</ele>
        <time>2020-07-02T10:50:47Z</time>
      </trkpt>
      <trkpt lat="48.3623" lon="2.14681">
        <ele>80.7</ele>
        <time>2020-07-02T10:50:48Z</time>
      </trkpt>
      <trkpt lat="48.36229" lon="2.14676">
        <ele>80.4</ele>
        <time>2020-07-02T10:50:49Z</time>
      </trkpt>
      <trkpt lat="48.36228" lon="2.14671">
        <ele>80.2</ele>
        <time>2020-07-02T10:50:50Z</time>
      </trkpt>
      <trkpt lat="48.36227" lon="2.14665">
        <ele>79.9</ele>
        <time>2020-07-02T10:50:51Z</time>
      </trkpt>
      <trkpt lat="48.36226" lon="2.14659">
        <ele>79.8</ele>
        <time>2020-07-02T10:50:52Z</time>
      </trkpt>
      <trkpt lat="48.36225" lon="2.14654">
        <ele>79.6</ele>
        <time>2020-07-02T10:50:53Z</time>
      </trkpt>
      <trkpt lat="48.36224" lon="2.14647">
        <ele>79.4</ele>
        <time>2020-07-02T10:50:54Z</time>
      </trkpt>
      <trkpt lat="48.36223" lon="2.14641">
        <ele>79.2</ele>
        <time>2020-07-02T10:50:55Z</time>
      </trkpt>
      <trkpt lat="48.36222" lon="2.14635">
        <ele>79</ele>
        <time>2020-07-02T10:50:56Z</time>
      </trkpt>
      <trkpt lat="48.36221" lon="2.14628">
        <ele>78.8</ele>
        <time>2020-07-02T10:50:57Z</time>
      </trkpt>
      <trkpt lat="48.3622" lon="2.14621">
        <ele>78.7</ele>
        <time>2020-07-02T10:50:58Z</time>
      </trkpt>
      <trkpt lat="48.3622" lon="2.14613">
        <ele>78.5</ele>
        <time>2020-07-02T10:50:59Z</time>
      </trkpt>
      <trkpt lat="48.36219" lon="2.14607">
        <ele>78.5</ele>
        <time>2020-07-02T10:51:00Z</time>
      </trkpt>
      <trkpt lat="48.36218" lon="2.14599">
        <ele>78.4</ele>
        <time>2020-07-02T10:51:01Z</time>
      </trkpt>
      <trkpt lat="48.36216" lon="2.14591">
        <ele>78.4</ele>
        <time>2020-07-02T10:51:02Z</time>
      </trkpt>
      <trkpt lat="48.36215" lon="2.14583">
        <ele>78.3</ele>
        <time>2020-07-02T10:51:03Z</time>
      </trkpt>
      <trkpt lat="48.36214" lon="2.14576">
        <ele>78.3</ele>
        <time>2020-07-02T10:51:04Z</time>
      </trkpt>
      <trkpt lat="48.36213" lon="2.14571">
        <ele>78.3</ele>
        <time>2020-07-02T10:51:05Z</time>
      </trkpt>
      <trkpt lat="48.36211" lon="2.14565">
        <ele>78.3</ele>
        <time>2020-07-02T10:51:06Z</time>
      </trkpt>
      <trkpt lat="48.3621" lon="2.14561">
        <ele>78.3</ele>
        <time>2020-07-02T10:51:07Z</time>
      </trkpt>
      <trkpt lat="48.36209" lon="2.14559">
        <ele>78.3</ele>
        <time>2020-07-02T10:51:08Z</time>
      </trkpt>
      <trkpt lat="48.36207" lon="2.14556">
        <ele>78.3</ele>
        <time>2020-07-02T10:51:09Z</time>
      </trkpt>
      <trkpt lat="48.36206" lon="2.14552">
        <ele>78.3</ele>
        <time>2020-07-02T10:51:10Z</time>
      </trkpt>
      <trkpt lat="48.36205" lon="2.14548">
        <ele>78.2</ele>
        <time>2020-07-02T10:51:11Z</time>
      </trkpt>
      <trkpt lat="48.36205" lon="2.14543">
        <ele>78.1</ele>
        <time>2020-07-02T10:51:12Z</time>
      </trkpt>
      <trkpt lat="48.36203" lon="2.14537">
        <ele>78.1</ele>
        <time>2020-07-02T10:51:13Z</time>
      </trkpt>
      <trkpt lat="48.36203" lon="2.14536">
        <ele>78</ele>
        <time>2020-07-02T10:51:14Z</time>
      </trkpt>
      <trkpt lat="48.36202" lon="2.1453">
        <ele>77.9</ele>
        <time>2020-07-02T10:51:15Z</time>
      </trkpt>
      <trkpt lat="48.36201" lon="2.14528">
        <ele>77.9</ele>
        <time>2020-07-02T10:51:16Z</time>
      </trkpt>
      <trkpt lat="48.36201" lon="2.14523">
        <ele>77.8</ele>
        <time>2020-07-02T10:51:17Z</time>
      </trkpt>
      <trkpt lat="48.362" lon="2.14518">
        <ele>77.7</ele>
        <time>2020-07-02T10:51:18Z</time>
      </trkpt>
      <trkpt lat="48.36199" lon="2.14514">
        <ele>77.7</ele>
        <time>2020-07-02T10:51:19Z</time>
      </trkpt>
      <trkpt lat="48.36198" lon="2.14509">
        <ele>77.7</ele>
        <time>2020-07-02T10:51:20Z</time>
      </trkpt>
      <trkpt lat="48.36198" lon="2.14504">
        <ele>77.7</ele>
        <time>2020-07-02T10:51:21Z</time>
      </trkpt>
      <trkpt lat="48.36198" lon="2.14502">
        <ele>77.7</ele>
        <time>2020-07-02T10:51:22Z</time>
      </trkpt>
      <trkpt lat="48.36197" lon="2.14497">
        <ele>77.7</ele>
        <time>2020-07-02T10:51:23Z</time>
      </trkpt>
      <trkpt lat="48.36196" lon="2.14492">
        <ele>77.7</ele>
        <time>2020-07-02T10:51:24Z</time>
      </trkpt>
      <trkpt lat="48.36195" lon="2.14491">
        <ele>77.7</ele>
        <time>2020-07-02T10:51:25Z</time>
      </trkpt>
      <trkpt lat="48.36194" lon="2.14487">
        <ele>77.7</ele>
        <time>2020-07-02T10:51:26Z</time>
      </trkpt>
      <trkpt lat="48.36194" lon="2.14485">
        <ele>77.7</ele>
        <time>2020-07-02T10:51:27Z</time>
      </trkpt>
      <trkpt lat="48.36192" lon="2.14481">
        <ele>77.7</ele>
        <time>2020-07-02T10:51:28Z</time>
      </trkpt>
      <trkpt lat="48.36191" lon="2.14476">
        <ele>77.7</ele>
        <time>2020-07-02T10:51:29Z</time>
      </trkpt>
      <trkpt lat="48.3619" lon="2.14472">
        <ele>77.7</ele>
        <time>2020-07-02T10:51:30Z</time>
      </trkpt>
      <trkpt lat="48.36189" lon="2.14468">
        <ele>77.7</ele>
        <time>2020-07-02T10:51:31Z</time>
      </trkpt>
      <trkpt lat="48.36188" lon="2.14464">
        <ele>77.7</ele>
        <time>2020-07-02T10:51:32Z</time>
      </trkpt>
      <trkpt lat="48.36186" lon="2.14459">
        <ele>77.8</ele>
        <time>2020-07-02T10:51:33Z</time>
      </trkpt>
      <trkpt lat="48.36185" lon="2.14455">
        <ele>77.8</ele>
        <time>2020-07-02T10:51:34Z</time>
      </trkpt>
      <trkpt lat="48.36184" lon="2.1445">
        <ele>77.8</ele>
        <time>2020-07-02T10:51:35Z</time>
      </trkpt>
      <trkpt lat="48.36183" lon="2.14448">
        <ele>77.8</ele>
        <time>2020-07-02T10:51:36Z</time>
      </trkpt>
      <trkpt lat="48.36183" lon="2.14443">
        <ele>77.9</ele>
        <time>2020-07-02T10:51:37Z</time>
      </trkpt>
      <trkpt lat="48.36183" lon="2.14442">
        <ele>77.9</ele>
        <time>2020-07-02T10:51:38Z</time>
      </trkpt>
      <trkpt lat="48.36182" lon="2.14437">
        <ele>77.9</ele>
        <time>2020-07-02T10:51:39Z</time>
      </trkpt>
      <trkpt lat="48.36182" lon="2.14432">
        <ele>78</ele>
        <time>2020-07-02T10:51:40Z</time>
      </trkpt>
      <trkpt lat="48.36182" lon="2.14431">
        <ele>78</ele>
        <time>2020-07-02T10:51:41Z</time>
      </trkpt>
      <trkpt lat="48.36181" lon="2.14427">
        <ele>78</ele>
        <time>2020-07-02T10:51:42Z</time>
      </trkpt>
      <trkpt lat="48.3618" lon="2.14422">
        <ele>78.1</ele>
        <time>2020-07-02T10:51:43Z</time>
      </trkpt>
      <trkpt lat="48.36179" lon="2.14418">
        <ele>78.1</ele>
        <time>2020-07-02T10:51:44Z</time>
      </trkpt>
      <trkpt lat="48.36179" lon="2.14413">
        <ele>78.2</ele>
        <time>2020-07-02T10:51:45Z</time>
      </trkpt>
      <trkpt lat="48.36178" lon="2.14408">
        <ele>78.3</ele>
        <time>2020-07-02T10:51:46Z</time>
      </trkpt>
      <trkpt lat="48.36178" lon="2.14402">
        <ele>78.4</ele>
        <time>2020-07-02T10:51:47Z</time>
      </trkpt>
      <trkpt lat="48.36177" lon="2.14398">
        <ele>78.5</ele>
        <time>2020-07-02T10:51:48Z</time>
      </trkpt>
      <trkpt lat="48.36175" lon="2.14394">
        <ele>78.6</ele>
        <time>2020-07-02T10:51:49Z</time>
      </trkpt>
      <trkpt lat="48.36174" lon="2.14389">
        <ele>78.7</ele>
        <time>2020-07-02T10:51:50Z</time>
      </trkpt>
      <trkpt lat="48.36172" lon="2.14385">
        <ele>78.8</ele>
        <time>2020-07-02T10:51:51Z</time>
      </trkpt>
      <trkpt lat="48.36171" lon="2.14379">
        <ele>78.9</ele>
        <time>2020-07-02T10:51:52Z</time>
      </trkpt>
      <trkpt lat="48.3617" lon="2.14375">
        <ele>79</ele>
        <time>2020-07-02T10:51:53Z</time>
      </trkpt>
      <trkpt lat="48.36169" lon="2.14371">
        <ele>79.1</ele>
        <time>2020-07-02T10:51:54Z</time>
      </trkpt>
      <trkpt lat="48.36169" lon="2.14366">
        <ele>79.2</ele>
        <time>2020-07-02T10:51:55Z</time>
      </trkpt>
      <trkpt lat="48.36168" lon="2.14361">
        <ele>79.4</ele>
        <time>2020-07-02T10:51:56Z</time>
      </trkpt>
      <trkpt lat="48.36167" lon="2.14356">
        <ele>79.6</ele>
        <time>2020-07-02T10:51:57Z</time>
      </trkpt>
      <trkpt lat="48.36166" lon="2.14354">
        <ele>79.6</ele>
        <time>2020-07-02T10:51:58Z</time>
      </trkpt>
      <trkpt lat="48.36166" lon="2.14349">
        <ele>79.8</ele>
        <time>2020-07-02T10:51:59Z</time>
      </trkpt>
      <trkpt lat="48.36165" lon="2.14348">
        <ele>79.9</ele>
        <time>2020-07-02T10:52:00Z</time>
      </trkpt>
      <trkpt lat="48.36165" lon="2.14342">
        <ele>80</ele>
        <time>2020-07-02T10:52:01Z</time>
      </trkpt>
      <trkpt lat="48.36165" lon="2.14337">
        <ele>80.3</ele>
        <time>2020-07-02T10:52:02Z</time>
      </trkpt>
      <trkpt lat="48.36164" lon="2.14332">
        <ele>80.5</ele>
        <time>2020-07-02T10:52:03Z</time>
      </trkpt>
      <trkpt lat="48.36162" lon="2.14327">
        <ele>80.7</ele>
        <time>2020-07-02T10:52:04Z</time>
      </trkpt>
      <trkpt lat="48.36162" lon="2.14325">
        <ele>80.8</ele>
        <time>2020-07-02T10:52:05Z</time>
      </trkpt>
      <trkpt lat="48.36162" lon="2.1432">
        <ele>81</ele>
        <time>2020-07-02T10:52:06Z</time>
      </trkpt>
      <trkpt lat="48.36161" lon="2.14315">
        <ele>81.3</ele>
        <time>2020-07-02T10:52:07Z</time>
      </trkpt>
      <trkpt lat="48.36161" lon="2.1431">
        <ele>81.5</ele>
        <time>2020-07-02T10:52:08Z</time>
      </trkpt>
      <trkpt lat="48.36161" lon="2.14305">
        <ele>81.7</ele>
        <time>2020-07-02T10:52:09Z</time>
      </trkpt>
      <trkpt lat="48.3616" lon="2.14301">
        <ele>81.9</ele>
        <time>2020-07-02T10:52:10Z</time>
      </trkpt>
      <trkpt lat="48.36159" lon="2.14297">
        <ele>82.1</ele>
        <time>2020-07-02T10:52:11Z</time>
      </trkpt>
      <trkpt lat="48.36158" lon="2.14292">
        <ele>82.4</ele>
        <time>2020-07-02T10:52:12Z</time>
      </trkpt>
      <trkpt lat="48.36158" lon="2.14287">
        <ele>82.6</ele>
        <time>2020-07-02T10:52:13Z</time>
      </trkpt>
      <trkpt lat="48.36158" lon="2.14282">
        <ele>82.9</ele>
        <time>2020-07-02T10:52:14Z</time>
      </trkpt>
      <trkpt lat="48.36157" lon="2.14281">
        <ele>83</ele>
        <time>2020-07-02T10:52:15Z</time>
      </trkpt>
      <trkpt lat="48.36157" lon="2.1428">
        <ele>83</ele>
        <time>2020-07-02T10:52:16Z</time>
      </trkpt>
      <trkpt lat="48.36157" lon="2.14279">
        <ele>83.1</ele>
        <time>2020-07-02T10:52:17Z</time>
      </trkpt>
      <trkpt lat="48.36158" lon="2.14277">
        <ele>83.2</ele>
        <time>2020-07-02T10:52:18Z</time>
      </trkpt>
      <trkpt lat="48.36158" lon="2.14276">
        <ele>83.3</ele>
        <time>2020-07-02T10:52:19Z</time>
      </trkpt>
      <trkpt lat="48.36159" lon="2.14274">
        <ele>83.4</ele>
        <time>2020-07-02T10:52:20Z</time>
      </trkpt>
      <trkpt lat="48.3616" lon="2.14273">
        <ele>83.5</ele>
        <time>2020-07-02T10:52:21Z</time>
      </trkpt>
      <trkpt lat="48.3616" lon="2.14272">
        <ele>83.6</ele>
        <time>2020-07-02T10:52:22Z</time>
      </trkpt>
      <trkpt lat="48.3616" lon="2.14272">
        <ele>83.6</ele>
        <time>2020-07-02T10:52:23Z</time>
      </trkpt>
      <trkpt lat="48.3616" lon="2.14271">
        <ele>83.7</ele>
        <time>2020-07-02T10:52:24Z</time>
      </trkpt>
      <trkpt lat="48.3616" lon="2.14271">
        <ele>83.7</ele>
        <time>2020-07-02T10:52:25Z</time>
      </trkpt>
      <trkpt lat="48.36161" lon="2.14271">
        <ele>83.7</ele>
        <time>2020-07-02T10:52:26Z</time>
      </trkpt>
      <trkpt lat="48.36161" lon="2.1427">
        <ele>84.8</ele>
        <time>2020-07-02T10:52:27Z</time>
      </trkpt>
      <trkpt lat="48.36161" lon="2.1427">
        <ele>84.8</ele>
        <time>2020-07-02T10:52:28Z</time>
      </trkpt>
      <trkpt lat="48.36161" lon="2.1427">
        <ele>84.8</ele>
        <time>2020-07-02T10:52:29Z</time>
      </trkpt>
      <trkpt lat="48.36162" lon="2.1427">
        <ele>84.8</ele>
        <time>2020-07-02T10:52:30Z</time>
      </trkpt>
      <trkpt lat="48.36162" lon="2.1427">
        <ele>84.8</ele>
        <time>2020-07-02T10:52:31Z</time>
      </trkpt>
      <trkpt lat="48.36162" lon="2.14269">
        <ele>84.8</ele>
        <time>2020-07-02T10:52:32Z</time>
      </trkpt>
      <trkpt lat="48.36163" lon="2.14269">
        <ele>84.8</ele>
        <time>2020-07-02T10:52:33Z</time>
      </trkpt>
      <trkpt lat="48.36163" lon="2.14267">
        <ele>84.8</ele>
        <time>2020-07-02T10:52:34Z</time>
      </trkpt>
      <trkpt lat="48.36164" lon="2.14265">
        <ele>84.8</ele>
        <time>2020-07-02T10:52:35Z</time>
      </trkpt>
      <trkpt lat="48.36163" lon="2.14264">
        <ele>84.7</ele>
        <time>2020-07-02T10:52:36Z</time>
      </trkpt>
      <trkpt lat="48.36163" lon="2.14262">
        <ele>84.7</ele>
        <time>2020-07-02T10:52:37Z</time>
      </trkpt>
      <trkpt lat="48.36163" lon="2.1426">
        <ele>84.7</ele>
        <time>2020-07-02T10:52:38Z</time>
      </trkpt>
      <trkpt lat="48.36164" lon="2.14256">
        <ele>84.7</ele>
        <time>2020-07-02T10:52:39Z</time>
      </trkpt>
      <trkpt lat="48.36165" lon="2.14255">
        <ele>84.7</ele>
        <time>2020-07-02T10:52:40Z</time>
      </trkpt>
      <trkpt lat="48.36165" lon="2.14254">
        <ele>84.7</ele>
        <time>2020-07-02T10:52:41Z</time>
      </trkpt>
      <trkpt lat="48.36168" lon="2.14251">
        <ele>84.7</ele>
        <time>2020-07-02T10:52:42Z</time>
      </trkpt>
      <trkpt lat="48.36169" lon="2.1425">
        <ele>84.7</ele>
        <time>2020-07-02T10:52:43Z</time>
      </trkpt>
      <trkpt lat="48.36171" lon="2.14247">
        <ele>84.7</ele>
        <time>2020-07-02T10:52:44Z</time>
      </trkpt>
      <trkpt lat="48.36174" lon="2.14244">
        <ele>84.7</ele>
        <time>2020-07-02T10:52:45Z</time>
      </trkpt>
      <trkpt lat="48.36177" lon="2.14242">
        <ele>84.7</ele>
        <time>2020-07-02T10:52:46Z</time>
      </trkpt>
      <trkpt lat="48.3618" lon="2.14239">
        <ele>84.7</ele>
        <time>2020-07-02T10:52:47Z</time>
      </trkpt>
      <trkpt lat="48.36183" lon="2.14235">
        <ele>84.8</ele>
        <time>2020-07-02T10:52:48Z</time>
      </trkpt>
      <trkpt lat="48.36186" lon="2.14232">
        <ele>84.8</ele>
        <time>2020-07-02T10:52:49Z</time>
      </trkpt>
      <trkpt lat="48.3619" lon="2.14229">
        <ele>84.9</ele>
        <time>2020-07-02T10:52:50Z</time>
      </trkpt>
      <trkpt lat="48.36193" lon="2.14226">
        <ele>84.9</ele>
        <time>2020-07-02T10:52:51Z</time>
      </trkpt>
      <trkpt lat="48.36197" lon="2.14222">
        <ele>85</ele>
        <time>2020-07-02T10:52:52Z</time>
      </trkpt>
      <trkpt lat="48.362" lon="2.14219">
        <ele>85.1</ele>
        <time>2020-07-02T10:52:53Z</time>
      </trkpt>
      <trkpt lat="48.36204" lon="2.14216">
        <ele>85.2</ele>
        <time>2020-07-02T10:52:54Z</time>
      </trkpt>
      <trkpt lat="48.36209" lon="2.14212">
        <ele>85.3</ele>
        <time>2020-07-02T10:52:55Z</time>
      </trkpt>
      <trkpt lat="48.36212" lon="2.14211">
        <ele>85.4</ele>
        <time>2020-07-02T10:52:56Z</time>
      </trkpt>
      <trkpt lat="48.36216" lon="2.14209">
        <ele>85.4</ele>
        <time>2020-07-02T10:52:57Z</time>
      </trkpt>
      <trkpt lat="48.3622" lon="2.14207">
        <ele>85.5</ele>
        <time>2020-07-02T10:52:58Z</time>
      </trkpt>
      <trkpt lat="48.36224" lon="2.14203">
        <ele>85.5</ele>
        <time>2020-07-02T10:52:59Z</time>
      </trkpt>
      <trkpt lat="48.36228" lon="2.14199">
        <ele>85.5</ele>
        <time>2020-07-02T10:53:00Z</time>
      </trkpt>
      <trkpt lat="48.36231" lon="2.14195">
        <ele>85.6</ele>
        <time>2020-07-02T10:53:01Z</time>
      </trkpt>
      <trkpt lat="48.36235" lon="2.14191">
        <ele>85.6</ele>
        <time>2020-07-02T10:53:02Z</time>
      </trkpt>
      <trkpt lat="48.36237" lon="2.14186">
        <ele>85.6</ele>
        <time>2020-07-02T10:53:03Z</time>
      </trkpt>
      <trkpt lat="48.36239" lon="2.14182">
        <ele>85.6</ele>
        <time>2020-07-02T10:53:04Z</time>
      </trkpt>
      <trkpt lat="48.36242" lon="2.14177">
        <ele>85.6</ele>
        <time>2020-07-02T10:53:05Z</time>
      </trkpt>
      <trkpt lat="48.36244" lon="2.14172">
        <ele>85.6</ele>
        <time>2020-07-02T10:53:06Z</time>
      </trkpt>
      <trkpt lat="48.36247" lon="2.14167">
        <ele>85.6</ele>
        <time>2020-07-02T10:53:07Z</time>
      </trkpt>
      <trkpt lat="48.3625" lon="2.14162">
        <ele>85.5</ele>
        <time>2020-07-02T10:53:08Z</time>
      </trkpt>
      <trkpt lat="48.36253" lon="2.14158">
        <ele>85.4</ele>
        <time>2020-07-02T10:53:09Z</time>
      </trkpt>
      <trkpt lat="48.36257" lon="2.14154">
        <ele>85.2</ele>
        <time>2020-07-02T10:53:10Z</time>
      </trkpt>
      <trkpt lat="48.36261" lon="2.14149">
        <ele>85</ele>
        <time>2020-07-02T10:53:11Z</time>
      </trkpt>
      <trkpt lat="48.36264" lon="2.14144">
        <ele>84.8</ele>
        <time>2020-07-02T10:53:12Z</time>
      </trkpt>
      <trkpt lat="48.36267" lon="2.14139">
        <ele>84.6</ele>
        <time>2020-07-02T10:53:13Z</time>
      </trkpt>
      <trkpt lat="48.3627" lon="2.14133">
        <ele>84.5</ele>
        <time>2020-07-02T10:53:14Z</time>
      </trkpt>
      <trkpt lat="48.36274" lon="2.14127">
        <ele>84.4</ele>
        <time>2020-07-02T10:53:15Z</time>
      </trkpt>
      <trkpt lat="48.36278" lon="2.1412">
        <ele>84.2</ele>
        <time>2020-07-02T10:53:16Z</time>
      </trkpt>
      <trkpt lat="48.36282" lon="2.14113">
        <ele>84</ele>
        <time>2020-07-02T10:53:17Z</time>
      </trkpt>
      <trkpt lat="48.36286" lon="2.14105">
        <ele>83.7</ele>
        <time>2020-07-02T10:53:18Z</time>
      </trkpt>
      <trkpt lat="48.3629" lon="2.14096">
        <ele>83.6</ele>
        <time>2020-07-02T10:53:19Z</time>
      </trkpt>
      <trkpt lat="48.36293" lon="2.14087">
        <ele>83.3</ele>
        <time>2020-07-02T10:53:20Z</time>
      </trkpt>
      <trkpt lat="48.36296" lon="2.14077">
        <ele>83.2</ele>
        <time>2020-07-02T10:53:21Z</time>
      </trkpt>
      <trkpt lat="48.36299" lon="2.14067">
        <ele>83.1</ele>
        <time>2020-07-02T10:53:22Z</time>
      </trkpt>
      <trkpt lat="48.36303" lon="2.14056">
        <ele>83</ele>
        <time>2020-07-02T10:53:23Z</time>
      </trkpt>
      <trkpt lat="48.36305" lon="2.14046">
        <ele>82.9</ele>
        <time>2020-07-02T10:53:24Z</time>
      </trkpt>
      <trkpt lat="48.36308" lon="2.14037">
        <ele>82.8</ele>
        <time>2020-07-02T10:53:25Z</time>
      </trkpt>
      <trkpt lat="48.36311" lon="2.14026">
        <ele>82.6</ele>
        <time>2020-07-02T10:53:26Z</time>
      </trkpt>
      <trkpt lat="48.36312" lon="2.14016">
        <ele>82.5</ele>
        <time>2020-07-02T10:53:27Z</time>
      </trkpt>
      <trkpt lat="48.36314" lon="2.14007">
        <ele>82.4</ele>
        <time>2020-07-02T10:53:28Z</time>
      </trkpt>
      <trkpt lat="48.36316" lon="2.13997">
        <ele>82.3</ele>
        <time>2020-07-02T10:53:29Z</time>
      </trkpt>
      <trkpt lat="48.36318" lon="2.13988">
        <ele>82.2</ele>
        <time>2020-07-02T10:53:30Z</time>
      </trkpt>
      <trkpt lat="48.36319" lon="2.13978">
        <ele>82.1</ele>
        <time>2020-07-02T10:53:31Z</time>
      </trkpt>
      <trkpt lat="48.36319" lon="2.13968">
        <ele>82</ele>
        <time>2020-07-02T10:53:32Z</time>
      </trkpt>
      <trkpt lat="48.3632" lon="2.13957">
        <ele>81.9</ele>
        <time>2020-07-02T10:53:33Z</time>
      </trkpt>
      <trkpt lat="48.36322" lon="2.13945">
        <ele>81.8</ele>
        <time>2020-07-02T10:53:34Z</time>
      </trkpt>
      <trkpt lat="48.36323" lon="2.13934">
        <ele>81.7</ele>
        <time>2020-07-02T10:53:35Z</time>
      </trkpt>
      <trkpt lat="48.36324" lon="2.13925">
        <ele>81.6</ele>
        <time>2020-07-02T10:53:36Z</time>
      </trkpt>
      <trkpt lat="48.36326" lon="2.13915">
        <ele>81.5</ele>
        <time>2020-07-02T10:53:37Z</time>
      </trkpt>
      <trkpt lat="48.36327" lon="2.13904">
        <ele>81.4</ele>
        <time>2020-07-02T10:53:38Z</time>
      </trkpt>
      <trkpt lat="48.36329" lon="2.13893">
        <ele>81.4</ele>
        <time>2020-07-02T10:53:39Z</time>
      </trkpt>
      <trkpt lat="48.36331" lon="2.13882">
        <ele>81.3</ele>
        <time>2020-07-02T10:53:40Z</time>
      </trkpt>
      <trkpt lat="48.36332" lon="2.13871">
        <ele>81.2</ele>
        <time>2020-07-02T10:53:41Z</time>
      </trkpt>
      <trkpt lat="48.36333" lon="2.1386">
        <ele>81.2</ele>
        <time>2020-07-02T10:53:42Z</time>
      </trkpt>
      <trkpt lat="48.36334" lon="2.1385">
        <ele>81.1</ele>
        <time>2020-07-02T10:53:43Z</time>
      </trkpt>
      <trkpt lat="48.36335" lon="2.1384">
        <ele>81</ele>
        <time>2020-07-02T10:53:44Z</time>
      </trkpt>
      <trkpt lat="48.36335" lon="2.1383">
        <ele>81</ele>
        <time>2020-07-02T10:53:45Z</time>
      </trkpt>
      <trkpt lat="48.36335" lon="2.1382">
        <ele>80.9</ele>
        <time>2020-07-02T10:53:46Z</time>
      </trkpt>
      <trkpt lat="48.36335" lon="2.1381">
        <ele>80.8</ele>
        <time>2020-07-02T10:53:47Z</time>
      </trkpt>
      <trkpt lat="48.36335" lon="2.13799">
        <ele>80.6</ele>
        <time>2020-07-02T10:53:48Z</time>
      </trkpt>
      <trkpt lat="48.36335" lon="2.13789">
        <ele>80.5</ele>
        <time>2020-07-02T10:53:49Z</time>
      </trkpt>
      <trkpt lat="48.36333" lon="2.13779">
        <ele>80.3</ele>
        <time>2020-07-02T10:53:50Z</time>
      </trkpt>
      <trkpt lat="48.36332" lon="2.13769">
        <ele>80.2</ele>
        <time>2020-07-02T10:53:51Z</time>
      </trkpt>
      <trkpt lat="48.36332" lon="2.13759">
        <ele>80.1</ele>
        <time>2020-07-02T10:53:52Z</time>
      </trkpt>
      <trkpt lat="48.3633" lon="2.13749">
        <ele>80</ele>
        <time>2020-07-02T10:53:53Z</time>
      </trkpt>
      <trkpt lat="48.36329" lon="2.13739">
        <ele>79.8</ele>
        <time>2020-07-02T10:53:54Z</time>
      </trkpt>
      <trkpt lat="48.36327" lon="2.13729">
        <ele>79.7</ele>
        <time>2020-07-02T10:53:55Z</time>
      </trkpt>
      <trkpt lat="48.36325" lon="2.1372">
        <ele>79.5</ele>
        <time>2020-07-02T10:53:56Z</time>
      </trkpt>
      <trkpt lat="48.36324" lon="2.13711">
        <ele>79.3</ele>
        <time>2020-07-02T10:53:57Z</time>
      </trkpt>
      <trkpt lat="48.36323" lon="2.137">
        <ele>79.1</ele>
        <time>2020-07-02T10:53:58Z</time>
      </trkpt>
      <trkpt lat="48.36324" lon="2.13689">
        <ele>78.9</ele>
        <time>2020-07-02T10:53:59Z</time>
      </trkpt>
      <trkpt lat="48.36326" lon="2.13678">
        <ele>78.7</ele>
        <time>2020-07-02T10:54:00Z</time>
      </trkpt>
      <trkpt lat="48.36328" lon="2.13667">
        <ele>78.5</ele>
        <time>2020-07-02T10:54:01Z</time>
      </trkpt>
      <trkpt lat="48.3633" lon="2.13656">
        <ele>78.3</ele>
        <time>2020-07-02T10:54:02Z</time>
      </trkpt>
      <trkpt lat="48.3633" lon="2.13645">
        <ele>78.2</ele>
        <time>2020-07-02T10:54:03Z</time>
      </trkpt>
      <trkpt lat="48.36328" lon="2.13635">
        <ele>78.1</ele>
        <time>2020-07-02T10:54:04Z</time>
      </trkpt>
      <trkpt lat="48.36324" lon="2.13626">
        <ele>78</ele>
        <time>2020-07-02T10:54:05Z</time>
      </trkpt>
      <trkpt lat="48.36319" lon="2.13617">
        <ele>77.9</ele>
        <time>2020-07-02T10:54:06Z</time>
      </trkpt>
      <trkpt lat="48.36314" lon="2.13609">
        <ele>77.9</ele>
        <time>2020-07-02T10:54:07Z</time>
      </trkpt>
      <trkpt lat="48.36309" lon="2.13601">
        <ele>77.8</ele>
        <time>2020-07-02T10:54:08Z</time>
      </trkpt>
      <trkpt lat="48.36304" lon="2.13593">
        <ele>77.8</ele>
        <time>2020-07-02T10:54:09Z</time>
      </trkpt>
      <trkpt lat="48.36299" lon="2.13585">
        <ele>77.8</ele>
        <time>2020-07-02T10:54:10Z</time>
      </trkpt>
      <trkpt lat="48.36295" lon="2.13579">
        <ele>77.8</ele>
        <time>2020-07-02T10:54:11Z</time>
      </trkpt>
      <trkpt lat="48.36291" lon="2.13572">
        <ele>77.8</ele>
        <time>2020-07-02T10:54:12Z</time>
      </trkpt>
      <trkpt lat="48.36288" lon="2.13562">
        <ele>77.8</ele>
        <time>2020-07-02T10:54:13Z</time>
      </trkpt>
      <trkpt lat="48.36286" lon="2.13554">
        <ele>77.9</ele>
        <time>2020-07-02T10:54:14Z</time>
      </trkpt>
      <trkpt lat="48.36283" lon="2.13546">
        <ele>77.9</ele>
        <time>2020-07-02T10:54:15Z</time>
      </trkpt>
      <trkpt lat="48.36281" lon="2.13537">
        <ele>77.9</ele>
        <time>2020-07-02T10:54:16Z</time>
      </trkpt>
      <trkpt lat="48.36278" lon="2.13529">
        <ele>77.9</ele>
        <time>2020-07-02T10:54:17Z</time>
      </trkpt>
      <trkpt lat="48.36274" lon="2.1352">
        <ele>77.8</ele>
        <time>2020-07-02T10:54:18Z</time>
      </trkpt>
      <trkpt lat="48.36271" lon="2.13512">
        <ele>77.8</ele>
        <time>2020-07-02T10:54:19Z</time>
      </trkpt>
      <trkpt lat="48.36267" lon="2.13504">
        <ele>77.8</ele>
        <time>2020-07-02T10:54:20Z</time>
      </trkpt>
      <trkpt lat="48.36263" lon="2.13496">
        <ele>77.9</ele>
        <time>2020-07-02T10:54:21Z</time>
      </trkpt>
      <trkpt lat="48.36259" lon="2.1349">
        <ele>77.9</ele>
        <time>2020-07-02T10:54:22Z</time>
      </trkpt>
      <trkpt lat="48.36255" lon="2.13484">
        <ele>77.9</ele>
        <time>2020-07-02T10:54:23Z</time>
      </trkpt>
      <trkpt lat="48.3625" lon="2.13476">
        <ele>78</ele>
        <time>2020-07-02T10:54:24Z</time>
      </trkpt>
      <trkpt lat="48.36246" lon="2.13469">
        <ele>78</ele>
        <time>2020-07-02T10:54:25Z</time>
      </trkpt>
      <trkpt lat="48.36242" lon="2.13462">
        <ele>78</ele>
        <time>2020-07-02T10:54:26Z</time>
      </trkpt>
      <trkpt lat="48.36235" lon="2.13456">
        <ele>78.1</ele>
        <time>2020-07-02T10:54:27Z</time>
      </trkpt>
      <trkpt lat="48.36229" lon="2.13448">
        <ele>78.1</ele>
        <time>2020-07-02T10:54:28Z</time>
      </trkpt>
      <trkpt lat="48.36222" lon="2.1344">
        <ele>78.1</ele>
        <time>2020-07-02T10:54:29Z</time>
      </trkpt>
      <trkpt lat="48.36216" lon="2.13432">
        <ele>78.1</ele>
        <time>2020-07-02T10:54:30Z</time>
      </trkpt>
      <trkpt lat="48.36211" lon="2.13424">
        <ele>78.1</ele>
        <time>2020-07-02T10:54:31Z</time>
      </trkpt>
      <trkpt lat="48.36207" lon="2.13416">
        <ele>78.2</ele>
        <time>2020-07-02T10:54:32Z</time>
      </trkpt>
      <trkpt lat="48.36203" lon="2.1341">
        <ele>78.3</ele>
        <time>2020-07-02T10:54:33Z</time>
      </trkpt>
      <trkpt lat="48.36198" lon="2.13402">
        <ele>78.4</ele>
        <time>2020-07-02T10:54:34Z</time>
      </trkpt>
      <trkpt lat="48.36194" lon="2.13395">
        <ele>78.4</ele>
        <time>2020-07-02T10:54:35Z</time>
      </trkpt>
      <trkpt lat="48.3619" lon="2.13387">
        <ele>78.4</ele>
        <time>2020-07-02T10:54:36Z</time>
      </trkpt>
      <trkpt lat="48.36186" lon="2.13379">
        <ele>78.5</ele>
        <time>2020-07-02T10:54:37Z</time>
      </trkpt>
      <trkpt lat="48.36183" lon="2.13372">
        <ele>78.5</ele>
        <time>2020-07-02T10:54:38Z</time>
      </trkpt>
      <trkpt lat="48.36179" lon="2.13367">
        <ele>78.5</ele>
        <time>2020-07-02T10:54:39Z</time>
      </trkpt>
      <trkpt lat="48.36176" lon="2.13362">
        <ele>78.5</ele>
        <time>2020-07-02T10:54:40Z</time>
      </trkpt>
      <trkpt lat="48.36174" lon="2.13357">
        <ele>78.5</ele>
        <time>2020-07-02T10:54:41Z</time>
      </trkpt>
      <trkpt lat="48.36172" lon="2.13352">
        <ele>78.5</ele>
        <time>2020-07-02T10:54:42Z</time>
      </trkpt>
      <trkpt lat="48.36169" lon="2.13347">
        <ele>78.6</ele>
        <time>2020-07-02T10:54:43Z</time>
      </trkpt>
      <trkpt lat="48.36167" lon="2.13341">
        <ele>78.6</ele>
        <time>2020-07-02T10:54:44Z</time>
      </trkpt>
      <trkpt lat="48.36165" lon="2.13337">
        <ele>78.6</ele>
        <time>2020-07-02T10:54:45Z</time>
      </trkpt>
      <trkpt lat="48.36165" lon="2.13336">
        <ele>78.6</ele>
        <time>2020-07-02T10:54:46Z</time>
      </trkpt>
      <trkpt lat="48.36162" lon="2.13333">
        <ele>78.7</ele>
        <time>2020-07-02T10:54:47Z</time>
      </trkpt>
      <trkpt lat="48.3616" lon="2.1333">
        <ele>78.7</ele>
        <time>2020-07-02T10:54:48Z</time>
      </trkpt>
      <trkpt lat="48.36158" lon="2.13327">
        <ele>78.7</ele>
        <time>2020-07-02T10:54:49Z</time>
      </trkpt>
      <trkpt lat="48.36156" lon="2.13323">
        <ele>78.8</ele>
        <time>2020-07-02T10:54:50Z</time>
      </trkpt>
      <trkpt lat="48.36154" lon="2.13318">
        <ele>78.8</ele>
        <time>2020-07-02T10:54:51Z</time>
      </trkpt>
      <trkpt lat="48.36152" lon="2.13314">
        <ele>78.8</ele>
        <time>2020-07-02T10:54:52Z</time>
      </trkpt>
      <trkpt lat="48.36151" lon="2.13308">
        <ele>78.9</ele>
        <time>2020-07-02T10:54:53Z</time>
      </trkpt>
      <trkpt lat="48.36149" lon="2.13305">
        <ele>78.9</ele>
        <time>2020-07-02T10:54:54Z</time>
      </trkpt>
      <trkpt lat="48.36146" lon="2.133">
        <ele>78.9</ele>
        <time>2020-07-02T10:54:55Z</time>
      </trkpt>
      <trkpt lat="48.36144" lon="2.13295">
        <ele>78.9</ele>
        <time>2020-07-02T10:54:56Z</time>
      </trkpt>
      <trkpt lat="48.36141" lon="2.13288">
        <ele>79</ele>
        <time>2020-07-02T10:54:57Z</time>
      </trkpt>
      <trkpt lat="48.36139" lon="2.13279">
        <ele>79.1</ele>
        <time>2020-07-02T10:54:58Z</time>
      </trkpt>
      <trkpt lat="48.36137" lon="2.13273">
        <ele>79.2</ele>
        <time>2020-07-02T10:54:59Z</time>
      </trkpt>
      <trkpt lat="48.36135" lon="2.13268">
        <ele>79.3</ele>
        <time>2020-07-02T10:55:00Z</time>
      </trkpt>
      <trkpt lat="48.36133" lon="2.13262">
        <ele>79.4</ele>
        <time>2020-07-02T10:55:01Z</time>
      </trkpt>
      <trkpt lat="48.3613" lon="2.13256">
        <ele>79.5</ele>
        <time>2020-07-02T10:55:02Z</time>
      </trkpt>
      <trkpt lat="48.36127" lon="2.1325">
        <ele>79.7</ele>
        <time>2020-07-02T10:55:03Z</time>
      </trkpt>
      <trkpt lat="48.36124" lon="2.13244">
        <ele>79.8</ele>
        <time>2020-07-02T10:55:04Z</time>
      </trkpt>
      <trkpt lat="48.36121" lon="2.13238">
        <ele>79.9</ele>
        <time>2020-07-02T10:55:05Z</time>
      </trkpt>
      <trkpt lat="48.36118" lon="2.13233">
        <ele>80.1</ele>
        <time>2020-07-02T10:55:06Z</time>
      </trkpt>
      <trkpt lat="48.36114" lon="2.13226">
        <ele>80.3</ele>
        <time>2020-07-02T10:55:07Z</time>
      </trkpt>
      <trkpt lat="48.36111" lon="2.13221">
        <ele>80.4</ele>
        <time>2020-07-02T10:55:08Z</time>
      </trkpt>
      <trkpt lat="48.36107" lon="2.13214">
        <ele>80.6</ele>
        <time>2020-07-02T10:55:09Z</time>
      </trkpt>
      <trkpt lat="48.36104" lon="2.13206">
        <ele>80.9</ele>
        <time>2020-07-02T10:55:10Z</time>
      </trkpt>
      <trkpt lat="48.36102" lon="2.132">
        <ele>81.1</ele>
        <time>2020-07-02T10:55:11Z</time>
      </trkpt>
      <trkpt lat="48.36099" lon="2.13194">
        <ele>81.4</ele>
        <time>2020-07-02T10:55:12Z</time>
      </trkpt>
      <trkpt lat="48.36094" lon="2.13187">
        <ele>81.6</ele>
        <time>2020-07-02T10:55:13Z</time>
      </trkpt>
      <trkpt lat="48.36092" lon="2.13182">
        <ele>81.8</ele>
        <time>2020-07-02T10:55:14Z</time>
      </trkpt>
      <trkpt lat="48.36088" lon="2.13176">
        <ele>82.1</ele>
        <time>2020-07-02T10:55:15Z</time>
      </trkpt>
      <trkpt lat="48.36084" lon="2.1317">
        <ele>82.3</ele>
        <time>2020-07-02T10:55:16Z</time>
      </trkpt>
      <trkpt lat="48.36081" lon="2.13163">
        <ele>82.6</ele>
        <time>2020-07-02T10:55:17Z</time>
      </trkpt>
      <trkpt lat="48.36078" lon="2.13159">
        <ele>82.8</ele>
        <time>2020-07-02T10:55:18Z</time>
      </trkpt>
      <trkpt lat="48.36073" lon="2.13152">
        <ele>83.1</ele>
        <time>2020-07-02T10:55:19Z</time>
      </trkpt>
      <trkpt lat="48.36071" lon="2.13147">
        <ele>83.3</ele>
        <time>2020-07-02T10:55:20Z</time>
      </trkpt>
      <trkpt lat="48.36067" lon="2.13142">
        <ele>83.5</ele>
        <time>2020-07-02T10:55:21Z</time>
      </trkpt>
      <trkpt lat="48.36065" lon="2.13137">
        <ele>83.7</ele>
        <time>2020-07-02T10:55:22Z</time>
      </trkpt>
      <trkpt lat="48.36061" lon="2.13132">
        <ele>83.9</ele>
        <time>2020-07-02T10:55:23Z</time>
      </trkpt>
      <trkpt lat="48.36058" lon="2.13128">
        <ele>84.1</ele>
        <time>2020-07-02T10:55:24Z</time>
      </trkpt>
      <trkpt lat="48.36056" lon="2.13122">
        <ele>84.4</ele>
        <time>2020-07-02T10:55:25Z</time>
      </trkpt>
      <trkpt lat="48.36052" lon="2.13117">
        <ele>84.6</ele>
        <time>2020-07-02T10:55:26Z</time>
      </trkpt>
      <trkpt lat="48.36049" lon="2.13111">
        <ele>84.9</ele>
        <time>2020-07-02T10:55:27Z</time>
      </trkpt>
      <trkpt lat="48.36046" lon="2.13106">
        <ele>85.1</ele>
        <time>2020-07-02T10:55:28Z</time>
      </trkpt>
      <trkpt lat="48.36043" lon="2.131">
        <ele>85.3</ele>
        <time>2020-07-02T10:55:29Z</time>
      </trkpt>
      <trkpt lat="48.3604" lon="2.13094">
        <ele>85.6</ele>
        <time>2020-07-02T10:55:30Z</time>
      </trkpt>
      <trkpt lat="48.36037" lon="2.13089">
        <ele>85.8</ele>
        <time>2020-07-02T10:55:31Z</time>
      </trkpt>
      <trkpt lat="48.36033" lon="2.13084">
        <ele>86</ele>
        <time>2020-07-02T10:55:32Z</time>
      </trkpt>
      <trkpt lat="48.3603" lon="2.1308">
        <ele>86.2</ele>
        <time>2020-07-02T10:55:33Z</time>
      </trkpt>
      <trkpt lat="48.36028" lon="2.13074">
        <ele>86.4</ele>
        <time>2020-07-02T10:55:34Z</time>
      </trkpt>
      <trkpt lat="48.36026" lon="2.1307">
        <ele>86.5</ele>
        <time>2020-07-02T10:55:35Z</time>
      </trkpt>
      <trkpt lat="48.36023" lon="2.13065">
        <ele>86.7</ele>
        <time>2020-07-02T10:55:36Z</time>
      </trkpt>
      <trkpt lat="48.36021" lon="2.13059">
        <ele>86.8</ele>
        <time>2020-07-02T10:55:37Z</time>
      </trkpt>
      <trkpt lat="48.36019" lon="2.13054">
        <ele>87</ele>
        <time>2020-07-02T10:55:38Z</time>
      </trkpt>
      <trkpt lat="48.36017" lon="2.13051">
        <ele>87</ele>
        <time>2020-07-02T10:55:39Z</time>
      </trkpt>
      <trkpt lat="48.36015" lon="2.13046">
        <ele>87.1</ele>
        <time>2020-07-02T10:55:40Z</time>
      </trkpt>
      <trkpt lat="48.36013" lon="2.13041">
        <ele>87.1</ele>
        <time>2020-07-02T10:55:41Z</time>
      </trkpt>
      <trkpt lat="48.36011" lon="2.13036">
        <ele>87.1</ele>
        <time>2020-07-02T10:55:42Z</time>
      </trkpt>
      <trkpt lat="48.36009" lon="2.13031">
        <ele>87</ele>
        <time>2020-07-02T10:55:43Z</time>
      </trkpt>
      <trkpt lat="48.36008" lon="2.13023">
        <ele>86.9</ele>
        <time>2020-07-02T10:55:44Z</time>
      </trkpt>
      <trkpt lat="48.36005" lon="2.13016">
        <ele>86.8</ele>
        <time>2020-07-02T10:55:45Z</time>
      </trkpt>
      <trkpt lat="48.36003" lon="2.13008">
        <ele>86.6</ele>
        <time>2020-07-02T10:55:46Z</time>
      </trkpt>
      <trkpt lat="48.36002" lon="2.13001">
        <ele>86.5</ele>
        <time>2020-07-02T10:55:47Z</time>
      </trkpt>
      <trkpt lat="48.36" lon="2.12993">
        <ele>86.3</ele>
        <time>2020-07-02T10:55:48Z</time>
      </trkpt>
      <trkpt lat="48.35999" lon="2.12984">
        <ele>86.1</ele>
        <time>2020-07-02T10:55:49Z</time>
      </trkpt>
      <trkpt lat="48.35997" lon="2.12976">
        <ele>85.9</ele>
        <time>2020-07-02T10:55:50Z</time>
      </trkpt>
      <trkpt lat="48.35995" lon="2.12969">
        <ele>85.8</ele>
        <time>2020-07-02T10:55:51Z</time>
      </trkpt>
      <trkpt lat="48.35993" lon="2.12961">
        <ele>85.6</ele>
        <time>2020-07-02T10:55:52Z</time>
      </trkpt>
      <trkpt lat="48.35991" lon="2.12956">
        <ele>85.4</ele>
        <time>2020-07-02T10:55:53Z</time>
      </trkpt>
      <trkpt lat="48.35989" lon="2.12948">
        <ele>85.2</ele>
        <time>2020-07-02T10:55:54Z</time>
      </trkpt>
      <trkpt lat="48.35986" lon="2.1294">
        <ele>85</ele>
        <time>2020-07-02T10:55:55Z</time>
      </trkpt>
      <trkpt lat="48.35985" lon="2.12931">
        <ele>84.7</ele>
        <time>2020-07-02T10:55:56Z</time>
      </trkpt>
      <trkpt lat="48.35982" lon="2.12923">
        <ele>84.4</ele>
        <time>2020-07-02T10:55:57Z</time>
      </trkpt>
      <trkpt lat="48.3598" lon="2.12915">
        <ele>84.2</ele>
        <time>2020-07-02T10:55:58Z</time>
      </trkpt>
      <trkpt lat="48.35978" lon="2.12908">
        <ele>83.9</ele>
        <time>2020-07-02T10:55:59Z</time>
      </trkpt>
      <trkpt lat="48.35977" lon="2.129">
        <ele>83.7</ele>
        <time>2020-07-02T10:56:00Z</time>
      </trkpt>
      <trkpt lat="48.35975" lon="2.12892">
        <ele>83.5</ele>
        <time>2020-07-02T10:56:01Z</time>
      </trkpt>
      <trkpt lat="48.35973" lon="2.12884">
        <ele>83.3</ele>
        <time>2020-07-02T10:56:02Z</time>
      </trkpt>
      <trkpt lat="48.35972" lon="2.12874">
        <ele>83.1</ele>
        <time>2020-07-02T10:56:03Z</time>
      </trkpt>
      <trkpt lat="48.35969" lon="2.12866">
        <ele>82.9</ele>
        <time>2020-07-02T10:56:04Z</time>
      </trkpt>
      <trkpt lat="48.35967" lon="2.12858">
        <ele>82.7</ele>
        <time>2020-07-02T10:56:05Z</time>
      </trkpt>
      <trkpt lat="48.35965" lon="2.1285">
        <ele>82.5</ele>
        <time>2020-07-02T10:56:06Z</time>
      </trkpt>
      <trkpt lat="48.35962" lon="2.12841">
        <ele>82.3</ele>
        <time>2020-07-02T10:56:07Z</time>
      </trkpt>
      <trkpt lat="48.3596" lon="2.12832">
        <ele>82.1</ele>
        <time>2020-07-02T10:56:08Z</time>
      </trkpt>
      <trkpt lat="48.35958" lon="2.12824">
        <ele>81.9</ele>
        <time>2020-07-02T10:56:09Z</time>
      </trkpt>
      <trkpt lat="48.35957" lon="2.12817">
        <ele>81.8</ele>
        <time>2020-07-02T10:56:10Z</time>
      </trkpt>
      <trkpt lat="48.35956" lon="2.1281">
        <ele>81.6</ele>
        <time>2020-07-02T10:56:11Z</time>
      </trkpt>
      <trkpt lat="48.35956" lon="2.12805">
        <ele>81.6</ele>
        <time>2020-07-02T10:56:12Z</time>
      </trkpt>
      <trkpt lat="48.35957" lon="2.12801">
        <ele>81.5</ele>
        <time>2020-07-02T10:56:13Z</time>
      </trkpt>
      <trkpt lat="48.35958" lon="2.12799">
        <ele>81.5</ele>
        <time>2020-07-02T10:56:14Z</time>
      </trkpt>
      <trkpt lat="48.35959" lon="2.12798">
        <ele>81.5</ele>
        <time>2020-07-02T10:56:15Z</time>
      </trkpt>
      <trkpt lat="48.3596" lon="2.12796">
        <ele>81.5</ele>
        <time>2020-07-02T10:56:16Z</time>
      </trkpt>
      <trkpt lat="48.3596" lon="2.12795">
        <ele>81.5</ele>
        <time>2020-07-02T10:56:17Z</time>
      </trkpt>
      <trkpt lat="48.3596" lon="2.12795">
        <ele>81.5</ele>
        <time>2020-07-02T10:56:18Z</time>
      </trkpt>
      <trkpt lat="48.3596" lon="2.12794">
        <ele>81.5</ele>
        <time>2020-07-02T10:56:19Z</time>
      </trkpt>
      <trkpt lat="48.3596" lon="2.12793">
        <ele>81.4</ele>
        <time>2020-07-02T10:56:20Z</time>
      </trkpt>
      <trkpt lat="48.35961" lon="2.12793">
        <ele>81.4</ele>
        <time>2020-07-02T10:56:21Z</time>
      </trkpt>
      <trkpt lat="48.35961" lon="2.12792">
        <ele>81.4</ele>
        <time>2020-07-02T10:56:22Z</time>
      </trkpt>
      <trkpt lat="48.35961" lon="2.12791">
        <ele>81.4</ele>
        <time>2020-07-02T10:56:23Z</time>
      </trkpt>
      <trkpt lat="48.35961" lon="2.12791">
        <ele>81.4</ele>
        <time>2020-07-02T10:56:24Z</time>
      </trkpt>
      <trkpt lat="48.35965" lon="2.12787">
        <ele>81.2</ele>
        <time>2020-07-02T10:56:25Z</time>
      </trkpt>
      <trkpt lat="48.35966" lon="2.12786">
        <ele>81.2</ele>
        <time>2020-07-02T10:56:26Z</time>
      </trkpt>
      <trkpt lat="48.3597" lon="2.12782">
        <ele>81</ele>
        <time>2020-07-02T10:56:27Z</time>
      </trkpt>
      <trkpt lat="48.35975" lon="2.12778">
        <ele>80.8</ele>
        <time>2020-07-02T10:56:28Z</time>
      </trkpt>
      <trkpt lat="48.3598" lon="2.12773">
        <ele>80.6</ele>
        <time>2020-07-02T10:56:29Z</time>
      </trkpt>
      <trkpt lat="48.35983" lon="2.12767">
        <ele>80.4</ele>
        <time>2020-07-02T10:56:30Z</time>
      </trkpt>
      <trkpt lat="48.35988" lon="2.12761">
        <ele>80.2</ele>
        <time>2020-07-02T10:56:31Z</time>
      </trkpt>
      <trkpt lat="48.35992" lon="2.12756">
        <ele>80.1</ele>
        <time>2020-07-02T10:56:32Z</time>
      </trkpt>
      <trkpt lat="48.35997" lon="2.12751">
        <ele>80</ele>
        <time>2020-07-02T10:56:33Z</time>
      </trkpt>
      <trkpt lat="48.36002" lon="2.12745">
        <ele>79.9</ele>
        <time>2020-07-02T10:56:34Z</time>
      </trkpt>
      <trkpt lat="48.36006" lon="2.12739">
        <ele>79.8</ele>
        <time>2020-07-02T10:56:35Z</time>
      </trkpt>
      <trkpt lat="48.36011" lon="2.12733">
        <ele>79.7</ele>
        <time>2020-07-02T10:56:36Z</time>
      </trkpt>
      <trkpt lat="48.36016" lon="2.12728">
        <ele>79.7</ele>
        <time>2020-07-02T10:56:37Z</time>
      </trkpt>
      <trkpt lat="48.36021" lon="2.12723">
        <ele>79.6</ele>
        <time>2020-07-02T10:56:38Z</time>
      </trkpt>
      <trkpt lat="48.36025" lon="2.12718">
        <ele>79.6</ele>
        <time>2020-07-02T10:56:39Z</time>
      </trkpt>
      <trkpt lat="48.3603" lon="2.12712">
        <ele>79.5</ele>
        <time>2020-07-02T10:56:40Z</time>
      </trkpt>
      <trkpt lat="48.36034" lon="2.12706">
        <ele>79.5</ele>
        <time>2020-07-02T10:56:41Z</time>
      </trkpt>
      <trkpt lat="48.36039" lon="2.12702">
        <ele>79.5</ele>
        <time>2020-07-02T10:56:42Z</time>
      </trkpt>
      <trkpt lat="48.36043" lon="2.12697">
        <ele>79.5</ele>
        <time>2020-07-02T10:56:43Z</time>
      </trkpt>
      <trkpt lat="48.36048" lon="2.12693">
        <ele>79.5</ele>
        <time>2020-07-02T10:56:44Z</time>
      </trkpt>
      <trkpt lat="48.36052" lon="2.1269">
        <ele>79.4</ele>
        <time>2020-07-02T10:56:45Z</time>
      </trkpt>
      <trkpt lat="48.36057" lon="2.12686">
        <ele>79.4</ele>
        <time>2020-07-02T10:56:46Z</time>
      </trkpt>
      <trkpt lat="48.36061" lon="2.12683">
        <ele>79.4</ele>
        <time>2020-07-02T10:56:47Z</time>
      </trkpt>
      <trkpt lat="48.36064" lon="2.12679">
        <ele>79.4</ele>
        <time>2020-07-02T10:56:48Z</time>
      </trkpt>
      <trkpt lat="48.36068" lon="2.12675">
        <ele>79.3</ele>
        <time>2020-07-02T10:56:49Z</time>
      </trkpt>
      <trkpt lat="48.36072" lon="2.12672">
        <ele>79.3</ele>
        <time>2020-07-02T10:56:50Z</time>
      </trkpt>
      <trkpt lat="48.36077" lon="2.1267">
        <ele>79.3</ele>
        <time>2020-07-02T10:56:51Z</time>
      </trkpt>
      <trkpt lat="48.36081" lon="2.12667">
        <ele>79.4</ele>
        <time>2020-07-02T10:56:52Z</time>
      </trkpt>
      <trkpt lat="48.36085" lon="2.12664">
        <ele>79.4</ele>
        <time>2020-07-02T10:56:53Z</time>
      </trkpt>
      <trkpt lat="48.36087" lon="2.12661">
        <ele>79.4</ele>
        <time>2020-07-02T10:56:54Z</time>
      </trkpt>
      <trkpt lat="48.3609" lon="2.12658">
        <ele>79.5</ele>
        <time>2020-07-02T10:56:55Z</time>
      </trkpt>
      <trkpt lat="48.36094" lon="2.12653">
        <ele>79.5</ele>
        <time>2020-07-02T10:56:56Z</time>
      </trkpt>
      <trkpt lat="48.36098" lon="2.12651">
        <ele>79.6</ele>
        <time>2020-07-02T10:56:57Z</time>
      </trkpt>
      <trkpt lat="48.36102" lon="2.12649">
        <ele>79.6</ele>
        <time>2020-07-02T10:56:58Z</time>
      </trkpt>
      <trkpt lat="48.36104" lon="2.12646">
        <ele>79.6</ele>
        <time>2020-07-02T10:56:59Z</time>
      </trkpt>
      <trkpt lat="48.36105" lon="2.1264">
        <ele>79.6</ele>
        <time>2020-07-02T10:57:00Z</time>
      </trkpt>
      <trkpt lat="48.36105" lon="2.12638">
        <ele>79.6</ele>
        <time>2020-07-02T10:57:01Z</time>
      </trkpt>
      <trkpt lat="48.36105" lon="2.12633">
        <ele>79.5</ele>
        <time>2020-07-02T10:57:02Z</time>
      </trkpt>
      <trkpt lat="48.36105" lon="2.12632">
        <ele>79.5</ele>
        <time>2020-07-02T10:57:03Z</time>
      </trkpt>
      <trkpt lat="48.36103" lon="2.12627">
        <ele>79.5</ele>
        <time>2020-07-02T10:57:04Z</time>
      </trkpt>
      <trkpt lat="48.36102" lon="2.12625">
        <ele>79.5</ele>
        <time>2020-07-02T10:57:05Z</time>
      </trkpt>
      <trkpt lat="48.361" lon="2.12621">
        <ele>79.5</ele>
        <time>2020-07-02T10:57:06Z</time>
      </trkpt>
      <trkpt lat="48.361" lon="2.1262">
        <ele>79.5</ele>
        <time>2020-07-02T10:57:07Z</time>
      </trkpt>
      <trkpt lat="48.36098" lon="2.12615">
        <ele>79.4</ele>
        <time>2020-07-02T10:57:08Z</time>
      </trkpt>
      <trkpt lat="48.36098" lon="2.12614">
        <ele>79.4</ele>
        <time>2020-07-02T10:57:09Z</time>
      </trkpt>
      <trkpt lat="48.36096" lon="2.12609">
        <ele>79.4</ele>
        <time>2020-07-02T10:57:10Z</time>
      </trkpt>
      <trkpt lat="48.36095" lon="2.12607">
        <ele>79.4</ele>
        <time>2020-07-02T10:57:11Z</time>
      </trkpt>
      <trkpt lat="48.36093" lon="2.12603">
        <ele>79.4</ele>
        <time>2020-07-02T10:57:12Z</time>
      </trkpt>
      <trkpt lat="48.36092" lon="2.12602">
        <ele>79.4</ele>
        <time>2020-07-02T10:57:13Z</time>
      </trkpt>
      <trkpt lat="48.3609" lon="2.12599">
        <ele>79.4</ele>
        <time>2020-07-02T10:57:14Z</time>
      </trkpt>
      <trkpt lat="48.36089" lon="2.12598">
        <ele>79.4</ele>
        <time>2020-07-02T10:57:15Z</time>
      </trkpt>
      <trkpt lat="48.36088" lon="2.12597">
        <ele>79.4</ele>
        <time>2020-07-02T10:57:16Z</time>
      </trkpt>
      <trkpt lat="48.36087" lon="2.12597">
        <ele>79.3</ele>
        <time>2020-07-02T10:57:17Z</time>
      </trkpt>
      <trkpt lat="48.36086" lon="2.12596">
        <ele>79.3</ele>
        <time>2020-07-02T10:57:18Z</time>
      </trkpt>
      <trkpt lat="48.36086" lon="2.12594">
        <ele>79.3</ele>
        <time>2020-07-02T10:57:19Z</time>
      </trkpt>
      <trkpt lat="48.36085" lon="2.12592">
        <ele>79.3</ele>
        <time>2020-07-02T10:57:20Z</time>
      </trkpt>
      <trkpt lat="48.36083" lon="2.12588">
        <ele>79.3</ele>
        <time>2020-07-02T10:57:21Z</time>
      </trkpt>
      <trkpt lat="48.36083" lon="2.12587">
        <ele>79.3</ele>
        <time>2020-07-02T10:57:22Z</time>
      </trkpt>
      <trkpt lat="48.36082" lon="2.12584">
        <ele>79.3</ele>
        <time>2020-07-02T10:57:23Z</time>
      </trkpt>
      <trkpt lat="48.36081" lon="2.12583">
        <ele>79.3</ele>
        <time>2020-07-02T10:57:24Z</time>
      </trkpt>
      <trkpt lat="48.36081" lon="2.12582">
        <ele>79.3</ele>
        <time>2020-07-02T10:57:25Z</time>
      </trkpt>
      <trkpt lat="48.3608" lon="2.12581">
        <ele>79.3</ele>
        <time>2020-07-02T10:57:26Z</time>
      </trkpt>
      <trkpt lat="48.36079" lon="2.12579">
        <ele>79.2</ele>
        <time>2020-07-02T10:57:27Z</time>
      </trkpt>
      <trkpt lat="48.36075" lon="2.12578">
        <ele>79.2</ele>
        <time>2020-07-02T10:57:28Z</time>
      </trkpt>
      <trkpt lat="48.36075" lon="2.12577">
        <ele>79.2</ele>
        <time>2020-07-02T10:57:29Z</time>
      </trkpt>
      <trkpt lat="48.36072" lon="2.12574">
        <ele>79.2</ele>
        <time>2020-07-02T10:57:30Z</time>
      </trkpt>
      <trkpt lat="48.36072" lon="2.12573">
        <ele>79.2</ele>
        <time>2020-07-02T10:57:31Z</time>
      </trkpt>
      <trkpt lat="48.3607" lon="2.12571">
        <ele>79.2</ele>
        <time>2020-07-02T10:57:32Z</time>
      </trkpt>
      <trkpt lat="48.36069" lon="2.1257">
        <ele>79.2</ele>
        <time>2020-07-02T10:57:33Z</time>
      </trkpt>
      <trkpt lat="48.36066" lon="2.12567">
        <ele>79.2</ele>
        <time>2020-07-02T10:57:34Z</time>
      </trkpt>
      <trkpt lat="48.36065" lon="2.12566">
        <ele>79.2</ele>
        <time>2020-07-02T10:57:35Z</time>
      </trkpt>
      <trkpt lat="48.36062" lon="2.12563">
        <ele>79.2</ele>
        <time>2020-07-02T10:57:36Z</time>
      </trkpt>
      <trkpt lat="48.36061" lon="2.12562">
        <ele>79.2</ele>
        <time>2020-07-02T10:57:37Z</time>
      </trkpt>
      <trkpt lat="48.36059" lon="2.12559">
        <ele>79.2</ele>
        <time>2020-07-02T10:57:38Z</time>
      </trkpt>
      <trkpt lat="48.36058" lon="2.12558">
        <ele>79.2</ele>
        <time>2020-07-02T10:57:39Z</time>
      </trkpt>
      <trkpt lat="48.36057" lon="2.12557">
        <ele>79.2</ele>
        <time>2020-07-02T10:57:40Z</time>
      </trkpt>
      <trkpt lat="48.36056" lon="2.12556">
        <ele>79.2</ele>
        <time>2020-07-02T10:57:41Z</time>
      </trkpt>
      <trkpt lat="48.36055" lon="2.12554">
        <ele>79.2</ele>
        <time>2020-07-02T10:57:42Z</time>
      </trkpt>
      <trkpt lat="48.36054" lon="2.12553">
        <ele>79.2</ele>
        <time>2020-07-02T10:57:43Z</time>
      </trkpt>
      <trkpt lat="48.36053" lon="2.12552">
        <ele>79.2</ele>
        <time>2020-07-02T10:57:44Z</time>
      </trkpt>
      <trkpt lat="48.36053" lon="2.1255">
        <ele>79.2</ele>
        <time>2020-07-02T10:57:45Z</time>
      </trkpt>
      <trkpt lat="48.36053" lon="2.12548">
        <ele>79.2</ele>
        <time>2020-07-02T10:57:46Z</time>
      </trkpt>
      <trkpt lat="48.36052" lon="2.12547">
        <ele>79.2</ele>
        <time>2020-07-02T10:57:47Z</time>
      </trkpt>
      <trkpt lat="48.36052" lon="2.12546">
        <ele>79.2</ele>
        <time>2020-07-02T10:57:48Z</time>
      </trkpt>
      <trkpt lat="48.36052" lon="2.12545">
        <ele>79.2</ele>
        <time>2020-07-02T10:57:49Z</time>
      </trkpt>
      <trkpt lat="48.36051" lon="2.12544">
        <ele>79.2</ele>
        <time>2020-07-02T10:57:50Z</time>
      </trkpt>
      <trkpt lat="48.36051" lon="2.12543">
        <ele>79.2</ele>
        <time>2020-07-02T10:57:51Z</time>
      </trkpt>
      <trkpt lat="48.3605" lon="2.1254">
        <ele>79.2</ele>
        <time>2020-07-02T10:57:52Z</time>
      </trkpt>
      <trkpt lat="48.3605" lon="2.12539">
        <ele>79.2</ele>
        <time>2020-07-02T10:57:53Z</time>
      </trkpt>
      <trkpt lat="48.3605" lon="2.12537">
        <ele>79.2</ele>
        <time>2020-07-02T10:57:54Z</time>
      </trkpt>
      <trkpt lat="48.36051" lon="2.12536">
        <ele>79.2</ele>
        <time>2020-07-02T10:57:55Z</time>
      </trkpt>
      <trkpt lat="48.36052" lon="2.12536">
        <ele>79.2</ele>
        <time>2020-07-02T10:57:56Z</time>
      </trkpt>
      <trkpt lat="48.36053" lon="2.12536">
        <ele>79.2</ele>
        <time>2020-07-02T10:57:57Z</time>
      </trkpt>
      <trkpt lat="48.36054" lon="2.12536">
        <ele>79.2</ele>
        <time>2020-07-02T10:57:58Z</time>
      </trkpt>
      <trkpt lat="48.36055" lon="2.12536">
        <ele>79.2</ele>
        <time>2020-07-02T10:57:59Z</time>
      </trkpt>
      <trkpt lat="48.36056" lon="2.12536">
        <ele>79.2</ele>
        <time>2020-07-02T10:58:00Z</time>
      </trkpt>
      <trkpt lat="48.36056" lon="2.12536">
        <ele>79.2</ele>
        <time>2020-07-02T10:58:01Z</time>
      </trkpt>
      <trkpt lat="48.36057" lon="2.12536">
        <ele>79.2</ele>
        <time>2020-07-02T10:58:02Z</time>
      </trkpt>
      <trkpt lat="48.36058" lon="2.12536">
        <ele>79.2</ele>
        <time>2020-07-02T10:58:03Z</time>
      </trkpt>
      <trkpt lat="48.36059" lon="2.12536">
        <ele>79.2</ele>
        <time>2020-07-02T10:58:41Z</time>
      </trkpt>
      <trkpt lat="48.3606" lon="2.12536">
        <ele>79.2</ele>
        <time>2020-07-02T10:58:42Z</time>
      </trkpt>
      <trkpt lat="48.36063" lon="2.12539">
        <ele>79.2</ele>
        <time>2020-07-02T10:58:43Z</time>
      </trkpt>
      <trkpt lat="48.36064" lon="2.1254">
        <ele>79.2</ele>
        <time>2020-07-02T10:58:44Z</time>
      </trkpt>
      <trkpt lat="48.36066" lon="2.12544">
        <ele>79.2</ele>
        <time>2020-07-02T10:58:45Z</time>
      </trkpt>
      <trkpt lat="48.36067" lon="2.12546">
        <ele>79.2</ele>
        <time>2020-07-02T10:58:46Z</time>
      </trkpt>
      <trkpt lat="48.36068" lon="2.1255">
        <ele>79.2</ele>
        <time>2020-07-02T10:58:47Z</time>
      </trkpt>
      <trkpt lat="48.3607" lon="2.12555">
        <ele>79.2</ele>
        <time>2020-07-02T10:58:48Z</time>
      </trkpt>
      <trkpt lat="48.3607" lon="2.12557">
        <ele>79.2</ele>
        <time>2020-07-02T10:58:49Z</time>
      </trkpt>
      <trkpt lat="48.36071" lon="2.12562">
        <ele>79.2</ele>
        <time>2020-07-02T10:58:50Z</time>
      </trkpt>
      <trkpt lat="48.36072" lon="2.12566">
        <ele>79.2</ele>
        <time>2020-07-02T10:58:51Z</time>
      </trkpt>
      <trkpt lat="48.36074" lon="2.12571">
        <ele>79.2</ele>
        <time>2020-07-02T10:58:52Z</time>
      </trkpt>
      <trkpt lat="48.36075" lon="2.12574">
        <ele>79.2</ele>
        <time>2020-07-02T10:58:53Z</time>
      </trkpt>
      <trkpt lat="48.36076" lon="2.12576">
        <ele>79.2</ele>
        <time>2020-07-02T10:58:54Z</time>
      </trkpt>
      <trkpt lat="48.36077" lon="2.12578">
        <ele>79.2</ele>
        <time>2020-07-02T10:58:55Z</time>
      </trkpt>
      <trkpt lat="48.36078" lon="2.12579">
        <ele>79.2</ele>
        <time>2020-07-02T10:58:56Z</time>
      </trkpt>
      <trkpt lat="48.36078" lon="2.1258">
        <ele>79.2</ele>
        <time>2020-07-02T10:58:57Z</time>
      </trkpt>
      <trkpt lat="48.3608" lon="2.12583">
        <ele>79.3</ele>
        <time>2020-07-02T10:58:58Z</time>
      </trkpt>
      <trkpt lat="48.3608" lon="2.12585">
        <ele>79.3</ele>
        <time>2020-07-02T10:58:59Z</time>
      </trkpt>
      <trkpt lat="48.36082" lon="2.12588">
        <ele>79.3</ele>
        <time>2020-07-02T10:59:00Z</time>
      </trkpt>
      <trkpt lat="48.36083" lon="2.1259">
        <ele>79.3</ele>
        <time>2020-07-02T10:59:01Z</time>
      </trkpt>
      <trkpt lat="48.36083" lon="2.12591">
        <ele>79.3</ele>
        <time>2020-07-02T10:59:02Z</time>
      </trkpt>
      <trkpt lat="48.36084" lon="2.12593">
        <ele>79.3</ele>
        <time>2020-07-02T10:59:03Z</time>
      </trkpt>
      <trkpt lat="48.36085" lon="2.12597">
        <ele>79.4</ele>
        <time>2020-07-02T10:59:04Z</time>
      </trkpt>
      <trkpt lat="48.36086" lon="2.12598">
        <ele>79.4</ele>
        <time>2020-07-02T10:59:05Z</time>
      </trkpt>
      <trkpt lat="48.36086" lon="2.12601">
        <ele>79.4</ele>
        <time>2020-07-02T10:59:06Z</time>
      </trkpt>
      <trkpt lat="48.36086" lon="2.12604">
        <ele>79.4</ele>
        <time>2020-07-02T10:59:07Z</time>
      </trkpt>
      <trkpt lat="48.36087" lon="2.12606">
        <ele>79.4</ele>
        <time>2020-07-02T10:59:08Z</time>
      </trkpt>
      <trkpt lat="48.36088" lon="2.12607">
        <ele>79.4</ele>
        <time>2020-07-02T10:59:09Z</time>
      </trkpt>
      <trkpt lat="48.36089" lon="2.1261">
        <ele>79.4</ele>
        <time>2020-07-02T10:59:10Z</time>
      </trkpt>
      <trkpt lat="48.3609" lon="2.12612">
        <ele>79.4</ele>
        <time>2020-07-02T10:59:11Z</time>
      </trkpt>
      <trkpt lat="48.3609" lon="2.12614">
        <ele>79.4</ele>
        <time>2020-07-02T10:59:12Z</time>
      </trkpt>
      <trkpt lat="48.3609" lon="2.12615">
        <ele>79.4</ele>
        <time>2020-07-02T10:59:13Z</time>
      </trkpt>
      <trkpt lat="48.36091" lon="2.12616">
        <ele>79.4</ele>
        <time>2020-07-02T10:59:14Z</time>
      </trkpt>
      <trkpt lat="48.3609" lon="2.12616">
        <ele>79.4</ele>
        <time>2020-07-02T10:59:15Z</time>
      </trkpt>
      <trkpt lat="48.3609" lon="2.12616">
        <ele>79.4</ele>
        <time>2020-07-02T10:59:16Z</time>
      </trkpt>
      <trkpt lat="48.36089" lon="2.12615">
        <ele>79.4</ele>
        <time>2020-07-02T10:59:17Z</time>
      </trkpt>
      <trkpt lat="48.36088" lon="2.12614">
        <ele>79.4</ele>
        <time>2020-07-02T10:59:18Z</time>
      </trkpt>
      <trkpt lat="48.36088" lon="2.12614">
        <ele>79.4</ele>
        <time>2020-07-02T10:59:19Z</time>
      </trkpt>
      <trkpt lat="48.36087" lon="2.12613">
        <ele>79.4</ele>
        <time>2020-07-02T10:59:20Z</time>
      </trkpt>
      <trkpt lat="48.36086" lon="2.12612">
        <ele>79.4</ele>
        <time>2020-07-02T10:59:21Z</time>
      </trkpt>
      <trkpt lat="48.36086" lon="2.12612">
        <ele>79.4</ele>
        <time>2020-07-02T10:59:22Z</time>
      </trkpt>
      <trkpt lat="48.36085" lon="2.12611">
        <ele>79.4</ele>
        <time>2020-07-02T10:59:23Z</time>
      </trkpt>
      <trkpt lat="48.36084" lon="2.1261">
        <ele>79.4</ele>
        <time>2020-07-02T10:59:24Z</time>
      </trkpt>
      <trkpt lat="48.36084" lon="2.12609">
        <ele>79.4</ele>
        <time>2020-07-02T10:59:25Z</time>
      </trkpt>
      <trkpt lat="48.36083" lon="2.12609">
        <ele>79.3</ele>
        <time>2020-07-02T10:59:26Z</time>
      </trkpt>
      <trkpt lat="48.36082" lon="2.12608">
        <ele>79.3</ele>
        <time>2020-07-02T11:00:17Z</time>
      </trkpt>
      <trkpt lat="48.36081" lon="2.12607">
        <ele>79.3</ele>
        <time>2020-07-02T11:00:18Z</time>
      </trkpt>
      <trkpt lat="48.3608" lon="2.12604">
        <ele>79.3</ele>
        <time>2020-07-02T11:00:19Z</time>
      </trkpt>
      <trkpt lat="48.36077" lon="2.126">
        <ele>79.3</ele>
        <time>2020-07-02T11:00:20Z</time>
      </trkpt>
      <trkpt lat="48.36075" lon="2.12598">
        <ele>79.3</ele>
        <time>2020-07-02T11:00:21Z</time>
      </trkpt>
      <trkpt lat="48.36073" lon="2.12595">
        <ele>79.2</ele>
        <time>2020-07-02T11:00:22Z</time>
      </trkpt>
      <trkpt lat="48.36071" lon="2.12591">
        <ele>79.2</ele>
        <time>2020-07-02T11:00:23Z</time>
      </trkpt>
      <trkpt lat="48.36069" lon="2.12587">
        <ele>79.2</ele>
        <time>2020-07-02T11:00:24Z</time>
      </trkpt>
      <trkpt lat="48.36067" lon="2.12584">
        <ele>79.2</ele>
        <time>2020-07-02T11:00:25Z</time>
      </trkpt>
      <trkpt lat="48.36064" lon="2.1258">
        <ele>79.2</ele>
        <time>2020-07-02T11:00:26Z</time>
      </trkpt>
      <trkpt lat="48.3606" lon="2.12573">
        <ele>79.2</ele>
        <time>2020-07-02T11:00:27Z</time>
      </trkpt>
      <trkpt lat="48.36058" lon="2.12569">
        <ele>79.2</ele>
        <time>2020-07-02T11:00:28Z</time>
      </trkpt>
      <trkpt lat="48.36057" lon="2.12564">
        <ele>79.2</ele>
        <time>2020-07-02T11:00:29Z</time>
      </trkpt>
      <trkpt lat="48.36055" lon="2.1256">
        <ele>79.2</ele>
        <time>2020-07-02T11:00:30Z</time>
      </trkpt>
      <trkpt lat="48.36053" lon="2.12555">
        <ele>79.2</ele>
        <time>2020-07-02T11:00:31Z</time>
      </trkpt>
      <trkpt lat="48.36052" lon="2.12553">
        <ele>79.2</ele>
        <time>2020-07-02T11:00:32Z</time>
      </trkpt>
      <trkpt lat="48.36051" lon="2.12551">
        <ele>79.2</ele>
        <time>2020-07-02T11:00:33Z</time>
      </trkpt>
      <trkpt lat="48.36046" lon="2.12551">
        <ele>79.2</ele>
        <time>2020-07-02T11:00:34Z</time>
      </trkpt>
      <trkpt lat="48.36042" lon="2.12552">
        <ele>79.1</ele>
        <time>2020-07-02T11:00:35Z</time>
      </trkpt>
      <trkpt lat="48.36037" lon="2.12553">
        <ele>79</ele>
        <time>2020-07-02T11:00:36Z</time>
      </trkpt>
      <trkpt lat="48.36033" lon="2.12555">
        <ele>79</ele>
        <time>2020-07-02T11:00:37Z</time>
      </trkpt>
      <trkpt lat="48.36028" lon="2.12556">
        <ele>78.9</ele>
        <time>2020-07-02T11:00:38Z</time>
      </trkpt>
      <trkpt lat="48.36024" lon="2.12557">
        <ele>78.8</ele>
        <time>2020-07-02T11:00:39Z</time>
      </trkpt>
      <trkpt lat="48.36019" lon="2.12558">
        <ele>78.7</ele>
        <time>2020-07-02T11:00:40Z</time>
      </trkpt>
      <trkpt lat="48.36015" lon="2.12559">
        <ele>78.6</ele>
        <time>2020-07-02T11:00:41Z</time>
      </trkpt>
      <trkpt lat="48.36011" lon="2.1256">
        <ele>78.6</ele>
        <time>2020-07-02T11:00:42Z</time>
      </trkpt>
      <trkpt lat="48.36006" lon="2.12562">
        <ele>78.5</ele>
        <time>2020-07-02T11:00:43Z</time>
      </trkpt>
      <trkpt lat="48.36002" lon="2.12563">
        <ele>78.5</ele>
        <time>2020-07-02T11:08:34Z</time>
      </trkpt>
      <trkpt lat="48.35997" lon="2.12564">
        <ele>78.5</ele>
        <time>2020-07-02T11:08:35Z</time>
      </trkpt>
      <trkpt lat="48.36004" lon="2.12558">
        <ele>78.5</ele>
        <time>2020-07-02T11:08:36Z</time>
      </trkpt>
      <trkpt lat="48.36009" lon="2.12554">
        <ele>78.5</ele>
        <time>2020-07-02T11:08:37Z</time>
      </trkpt>
      <trkpt lat="48.36012" lon="2.12552">
        <ele>78.5</ele>
        <time>2020-07-02T11:08:38Z</time>
      </trkpt>
      <trkpt lat="48.36014" lon="2.12553">
        <ele>78.6</ele>
        <time>2020-07-02T11:08:39Z</time>
      </trkpt>
      <trkpt lat="48.36017" lon="2.12555">
        <ele>78.6</ele>
        <time>2020-07-02T11:08:40Z</time>
      </trkpt>
      <trkpt lat="48.36018" lon="2.12555">
        <ele>78.6</ele>
        <time>2020-07-02T11:08:41Z</time>
      </trkpt>
      <trkpt lat="48.36019" lon="2.12555">
        <ele>78.7</ele>
        <time>2020-07-02T11:08:42Z</time>
      </trkpt>
      <trkpt lat="48.36022" lon="2.12556">
        <ele>78.7</ele>
        <time>2020-07-02T11:08:43Z</time>
      </trkpt>
      <trkpt lat="48.36025" lon="2.12557">
        <ele>78.8</ele>
        <time>2020-07-02T11:08:44Z</time>
      </trkpt>
      <trkpt lat="48.36026" lon="2.12555">
        <ele>78.8</ele>
        <time>2020-07-02T11:08:45Z</time>
      </trkpt>
      <trkpt lat="48.36026" lon="2.12554">
        <ele>78.8</ele>
        <time>2020-07-02T11:08:46Z</time>
      </trkpt>
      <trkpt lat="48.36026" lon="2.12552">
        <ele>78.8</ele>
        <time>2020-07-02T11:08:47Z</time>
      </trkpt>
      <trkpt lat="48.36027" lon="2.1255">
        <ele>78.7</ele>
        <time>2020-07-02T11:08:48Z</time>
      </trkpt>
      <trkpt lat="48.36027" lon="2.12549">
        <ele>78.8</ele>
        <time>2020-07-02T11:08:49Z</time>
      </trkpt>
      <trkpt lat="48.36028" lon="2.12547">
        <ele>78.8</ele>
        <time>2020-07-02T11:08:50Z</time>
      </trkpt>
      <trkpt lat="48.36028" lon="2.12545">
        <ele>78.8</ele>
        <time>2020-07-02T11:08:51Z</time>
      </trkpt>
      <trkpt lat="48.36029" lon="2.12544">
        <ele>78.8</ele>
        <time>2020-07-02T11:08:52Z</time>
      </trkpt>
      <trkpt lat="48.36029" lon="2.12543">
        <ele>78.8</ele>
        <time>2020-07-02T11:08:53Z</time>
      </trkpt>
      <trkpt lat="48.36029" lon="2.12544">
        <ele>78.8</ele>
        <time>2020-07-02T11:08:54Z</time>
      </trkpt>
      <trkpt lat="48.3603" lon="2.12544">
        <ele>78.8</ele>
        <time>2020-07-02T11:08:55Z</time>
      </trkpt>
      <trkpt lat="48.3603" lon="2.12545">
        <ele>78.8</ele>
        <time>2020-07-02T11:08:56Z</time>
      </trkpt>
      <trkpt lat="48.36031" lon="2.12544">
        <ele>78.8</ele>
        <time>2020-07-02T11:08:57Z</time>
      </trkpt>
      <trkpt lat="48.36032" lon="2.12545">
        <ele>78.8</ele>
        <time>2020-07-02T11:08:58Z</time>
      </trkpt>
      <trkpt lat="48.36033" lon="2.12546">
        <ele>78.9</ele>
        <time>2020-07-02T11:08:59Z</time>
      </trkpt>
      <trkpt lat="48.36033" lon="2.12548">
        <ele>78.9</ele>
        <time>2020-07-02T11:09:00Z</time>
      </trkpt>
      <trkpt lat="48.36033" lon="2.1255">
        <ele>78.9</ele>
        <time>2020-07-02T11:09:01Z</time>
      </trkpt>
      <trkpt lat="48.36033" lon="2.12552">
        <ele>78.9</ele>
        <time>2020-07-02T11:09:02Z</time>
      </trkpt>
      <trkpt lat="48.36034" lon="2.12554">
        <ele>78.9</ele>
        <time>2020-07-02T11:09:03Z</time>
      </trkpt>
      <trkpt lat="48.36034" lon="2.12557">
        <ele>78.9</ele>
        <time>2020-07-02T11:09:04Z</time>
      </trkpt>
      <trkpt lat="48.36034" lon="2.12559">
        <ele>78.9</ele>
        <time>2020-07-02T11:09:05Z</time>
      </trkpt>
      <trkpt lat="48.36034" lon="2.12561">
        <ele>79</ele>
        <time>2020-07-02T11:09:06Z</time>
      </trkpt>
      <trkpt lat="48.36035" lon="2.12563">
        <ele>79</ele>
        <time>2020-07-02T11:09:07Z</time>
      </trkpt>
      <trkpt lat="48.36035" lon="2.12565">
        <ele>79</ele>
        <time>2020-07-02T11:09:08Z</time>
      </trkpt>
      <trkpt lat="48.36036" lon="2.12568">
        <ele>79</ele>
        <time>2020-07-02T11:09:09Z</time>
      </trkpt>
      <trkpt lat="48.36036" lon="2.12569">
        <ele>79</ele>
        <time>2020-07-02T11:09:10Z</time>
      </trkpt>
      <trkpt lat="48.36036" lon="2.1257">
        <ele>79</ele>
        <time>2020-07-02T11:09:11Z</time>
      </trkpt>
      <trkpt lat="48.36037" lon="2.12571">
        <ele>79</ele>
        <time>2020-07-02T11:09:12Z</time>
      </trkpt>
      <trkpt lat="48.36037" lon="2.12573">
        <ele>79.1</ele>
        <time>2020-07-02T11:09:13Z</time>
      </trkpt>
      <trkpt lat="48.36038" lon="2.12575">
        <ele>79.1</ele>
        <time>2020-07-02T11:09:14Z</time>
      </trkpt>
      <trkpt lat="48.36038" lon="2.12578">
        <ele>79.1</ele>
        <time>2020-07-02T11:09:15Z</time>
      </trkpt>
      <trkpt lat="48.36039" lon="2.12582">
        <ele>79.1</ele>
        <time>2020-07-02T11:09:16Z</time>
      </trkpt>
      <trkpt lat="48.3604" lon="2.12583">
        <ele>79.1</ele>
        <time>2020-07-02T11:09:17Z</time>
      </trkpt>
      <trkpt lat="48.3604" lon="2.12585">
        <ele>79.1</ele>
        <time>2020-07-02T11:09:18Z</time>
      </trkpt>
      <trkpt lat="48.36041" lon="2.12587">
        <ele>79.1</ele>
        <time>2020-07-02T11:09:19Z</time>
      </trkpt>
      <trkpt lat="48.36043" lon="2.1259">
        <ele>79.2</ele>
        <time>2020-07-02T11:09:20Z</time>
      </trkpt>
      <trkpt lat="48.36044" lon="2.12591">
        <ele>79.2</ele>
        <time>2020-07-02T11:09:21Z</time>
      </trkpt>
      <trkpt lat="48.36046" lon="2.12595">
        <ele>79.2</ele>
        <time>2020-07-02T11:09:22Z</time>
      </trkpt>
      <trkpt lat="48.36047" lon="2.12597">
        <ele>79.2</ele>
        <time>2020-07-02T11:09:23Z</time>
      </trkpt>
      <trkpt lat="48.36048" lon="2.126">
        <ele>79.2</ele>
        <time>2020-07-02T11:09:24Z</time>
      </trkpt>
      <trkpt lat="48.36049" lon="2.12601">
        <ele>79.2</ele>
        <time>2020-07-02T11:09:25Z</time>
      </trkpt>
      <trkpt lat="48.3605" lon="2.12603">
        <ele>79.2</ele>
        <time>2020-07-02T11:09:26Z</time>
      </trkpt>
      <trkpt lat="48.36051" lon="2.12604">
        <ele>79.2</ele>
        <time>2020-07-02T11:09:27Z</time>
      </trkpt>
      <trkpt lat="48.36052" lon="2.12606">
        <ele>79.2</ele>
        <time>2020-07-02T11:09:28Z</time>
      </trkpt>
      <trkpt lat="48.36053" lon="2.12608">
        <ele>79.2</ele>
        <time>2020-07-02T11:09:29Z</time>
      </trkpt>
      <trkpt lat="48.36056" lon="2.12612">
        <ele>79.2</ele>
        <time>2020-07-02T11:09:30Z</time>
      </trkpt>
      <trkpt lat="48.36056" lon="2.12613">
        <ele>79.2</ele>
        <time>2020-07-02T11:09:31Z</time>
      </trkpt>
      <trkpt lat="48.36058" lon="2.12615">
        <ele>79.2</ele>
        <time>2020-07-02T11:09:32Z</time>
      </trkpt>
      <trkpt lat="48.36059" lon="2.12616">
        <ele>79.2</ele>
        <time>2020-07-02T11:09:33Z</time>
      </trkpt>
      <trkpt lat="48.3606" lon="2.12618">
        <ele>79.2</ele>
        <time>2020-07-02T11:09:34Z</time>
      </trkpt>
      <trkpt lat="48.36061" lon="2.12619">
        <ele>79.2</ele>
        <time>2020-07-02T11:09:35Z</time>
      </trkpt>
      <trkpt lat="48.36064" lon="2.12621">
        <ele>79.2</ele>
        <time>2020-07-02T11:09:36Z</time>
      </trkpt>
      <trkpt lat="48.36065" lon="2.12622">
        <ele>79.2</ele>
        <time>2020-07-02T11:09:37Z</time>
      </trkpt>
      <trkpt lat="48.36068" lon="2.12623">
        <ele>79.2</ele>
        <time>2020-07-02T11:09:38Z</time>
      </trkpt>
      <trkpt lat="48.36069" lon="2.12623">
        <ele>79.2</ele>
        <time>2020-07-02T11:09:39Z</time>
      </trkpt>
      <trkpt lat="48.36071" lon="2.12623">
        <ele>79.2</ele>
        <time>2020-07-02T11:09:40Z</time>
      </trkpt>
      <trkpt lat="48.36072" lon="2.12622">
        <ele>79.2</ele>
        <time>2020-07-02T11:09:41Z</time>
      </trkpt>
      <trkpt lat="48.36074" lon="2.12622">
        <ele>79.2</ele>
        <time>2020-07-02T11:09:42Z</time>
      </trkpt>
      <trkpt lat="48.36075" lon="2.12623">
        <ele>79.2</ele>
        <time>2020-07-02T11:09:43Z</time>
      </trkpt>
      <trkpt lat="48.36076" lon="2.12623">
        <ele>79.2</ele>
        <time>2020-07-02T11:09:44Z</time>
      </trkpt>
      <trkpt lat="48.36077" lon="2.12623">
        <ele>79.2</ele>
        <time>2020-07-02T11:09:45Z</time>
      </trkpt>
      <trkpt lat="48.36078" lon="2.12623">
        <ele>79.2</ele>
        <time>2020-07-02T11:09:46Z</time>
      </trkpt>
      <trkpt lat="48.36079" lon="2.12622">
        <ele>79.2</ele>
        <time>2020-07-02T11:09:47Z</time>
      </trkpt>
      <trkpt lat="48.36081" lon="2.12623">
        <ele>79.2</ele>
        <time>2020-07-02T11:09:48Z</time>
      </trkpt>
      <trkpt lat="48.36083" lon="2.12624">
        <ele>79.2</ele>
        <time>2020-07-02T11:09:49Z</time>
      </trkpt>
      <trkpt lat="48.36086" lon="2.12625">
        <ele>79.2</ele>
        <time>2020-07-02T11:09:50Z</time>
      </trkpt>
      <trkpt lat="48.36087" lon="2.12625">
        <ele>79.2</ele>
        <time>2020-07-02T11:09:51Z</time>
      </trkpt>
      <trkpt lat="48.36089" lon="2.12626">
        <ele>79.2</ele>
        <time>2020-07-02T11:09:52Z</time>
      </trkpt>
      <trkpt lat="48.36091" lon="2.12627">
        <ele>79.2</ele>
        <time>2020-07-02T11:09:53Z</time>
      </trkpt>
      <trkpt lat="48.36092" lon="2.12627">
        <ele>79.2</ele>
        <time>2020-07-02T11:09:54Z</time>
      </trkpt>
      <trkpt lat="48.36093" lon="2.12627">
        <ele>79.2</ele>
        <time>2020-07-02T11:09:55Z</time>
      </trkpt>
      <trkpt lat="48.36094" lon="2.12627">
        <ele>79.2</ele>
        <time>2020-07-02T11:09:56Z</time>
      </trkpt>
      <trkpt lat="48.36094" lon="2.12627">
        <ele>79.2</ele>
        <time>2020-07-02T11:09:57Z</time>
      </trkpt>
      <trkpt lat="48.36095" lon="2.12626">
        <ele>79.2</ele>
        <time>2020-07-02T11:09:58Z</time>
      </trkpt>
      <trkpt lat="48.36096" lon="2.12627">
        <ele>79.2</ele>
        <time>2020-07-02T11:09:59Z</time>
      </trkpt>
      <trkpt lat="48.36096" lon="2.12627">
        <ele>79.2</ele>
        <time>2020-07-02T11:10:00Z</time>
      </trkpt>
      <trkpt lat="48.36097" lon="2.12626">
        <ele>79.2</ele>
        <time>2020-07-02T11:10:01Z</time>
      </trkpt>
      <trkpt lat="48.36095" lon="2.12619">
        <ele>79.3</ele>
        <time>2020-07-02T11:10:16Z</time>
      </trkpt>
      <trkpt lat="48.36093" lon="2.12618">
        <ele>79.3</ele>
        <time>2020-07-02T11:10:17Z</time>
      </trkpt>
      <trkpt lat="48.36092" lon="2.12616">
        <ele>79.3</ele>
        <time>2020-07-02T11:10:18Z</time>
      </trkpt>
      <trkpt lat="48.36091" lon="2.12615">
        <ele>79.3</ele>
        <time>2020-07-02T11:10:19Z</time>
      </trkpt>
      <trkpt lat="48.3609" lon="2.12614">
        <ele>79.3</ele>
        <time>2020-07-02T11:10:20Z</time>
      </trkpt>
      <trkpt lat="48.36089" lon="2.12613">
        <ele>79.3</ele>
        <time>2020-07-02T11:10:21Z</time>
      </trkpt>
      <trkpt lat="48.36088" lon="2.12612">
        <ele>79.3</ele>
        <time>2020-07-02T11:10:22Z</time>
      </trkpt>
      <trkpt lat="48.36087" lon="2.12611">
        <ele>79.4</ele>
        <time>2020-07-02T11:10:23Z</time>
      </trkpt>
      <trkpt lat="48.36086" lon="2.1261">
        <ele>79.4</ele>
        <time>2020-07-02T11:10:24Z</time>
      </trkpt>
      <trkpt lat="48.36192" lon="2.12709">
        <ele>83</ele>
        <time>2020-07-02T11:14:01Z</time>
      </trkpt>
      <trkpt lat="48.3619" lon="2.12705">
        <ele>82.3</ele>
        <time>2020-07-02T11:14:02Z</time>
      </trkpt>
      <trkpt lat="48.36187" lon="2.12701">
        <ele>82.4</ele>
        <time>2020-07-02T11:14:03Z</time>
      </trkpt>
      <trkpt lat="48.36183" lon="2.12697">
        <ele>81.7</ele>
        <time>2020-07-02T11:14:04Z</time>
      </trkpt>
      <trkpt lat="48.36179" lon="2.12696">
        <ele>81.5</ele>
        <time>2020-07-02T11:14:05Z</time>
      </trkpt>
      <trkpt lat="48.36176" lon="2.12695">
        <ele>81.2</ele>
        <time>2020-07-02T11:14:06Z</time>
      </trkpt>
      <trkpt lat="48.36173" lon="2.12693">
        <ele>80.9</ele>
        <time>2020-07-02T11:14:07Z</time>
      </trkpt>
      <trkpt lat="48.36171" lon="2.12693">
        <ele>80.7</ele>
        <time>2020-07-02T11:14:08Z</time>
      </trkpt>
      <trkpt lat="48.36168" lon="2.1269">
        <ele>80.4</ele>
        <time>2020-07-02T11:14:09Z</time>
      </trkpt>
      <trkpt lat="48.36167" lon="2.1269">
        <ele>80.4</ele>
        <time>2020-07-02T11:14:10Z</time>
      </trkpt>
      <trkpt lat="48.36165" lon="2.12689">
        <ele>80.2</ele>
        <time>2020-07-02T11:14:11Z</time>
      </trkpt>
      <trkpt lat="48.36162" lon="2.12687">
        <ele>80</ele>
        <time>2020-07-02T11:14:12Z</time>
      </trkpt>
      <trkpt lat="48.36161" lon="2.12686">
        <ele>80</ele>
        <time>2020-07-02T11:14:13Z</time>
      </trkpt>
      <trkpt lat="48.36159" lon="2.12684">
        <ele>79.8</ele>
        <time>2020-07-02T11:14:14Z</time>
      </trkpt>
      <trkpt lat="48.36158" lon="2.12683">
        <ele>79.6</ele>
        <time>2020-07-02T11:14:15Z</time>
      </trkpt>
      <trkpt lat="48.36156" lon="2.12679">
        <ele>79.7</ele>
        <time>2020-07-02T11:14:16Z</time>
      </trkpt>
      <trkpt lat="48.36155" lon="2.12678">
        <ele>79.5</ele>
        <time>2020-07-02T11:14:17Z</time>
      </trkpt>
      <trkpt lat="48.36152" lon="2.12674">
        <ele>79.4</ele>
        <time>2020-07-02T11:14:18Z</time>
      </trkpt>
      <trkpt lat="48.36151" lon="2.12674">
        <ele>79.4</ele>
        <time>2020-07-02T11:14:19Z</time>
      </trkpt>
      <trkpt lat="48.36148" lon="2.12672">
        <ele>79.3</ele>
        <time>2020-07-02T11:14:20Z</time>
      </trkpt>
      <trkpt lat="48.36147" lon="2.12671">
        <ele>79.4</ele>
        <time>2020-07-02T11:14:21Z</time>
      </trkpt>
      <trkpt lat="48.36145" lon="2.1267">
        <ele>79.2</ele>
        <time>2020-07-02T11:14:22Z</time>
      </trkpt>
      <trkpt lat="48.36144" lon="2.12669">
        <ele>79.2</ele>
        <time>2020-07-02T11:14:23Z</time>
      </trkpt>
      <trkpt lat="48.36142" lon="2.12669">
        <ele>79.1</ele>
        <time>2020-07-02T11:14:24Z</time>
      </trkpt>
      <trkpt lat="48.36142" lon="2.12669">
        <ele>79.1</ele>
        <time>2020-07-02T11:14:25Z</time>
      </trkpt>
      <trkpt lat="48.36142" lon="2.12669">
        <ele>79.1</ele>
        <time>2020-07-02T11:14:26Z</time>
      </trkpt>
      <trkpt lat="48.36141" lon="2.12669">
        <ele>79</ele>
        <time>2020-07-02T11:14:27Z</time>
      </trkpt>
      <trkpt lat="48.36141" lon="2.12668">
        <ele>79</ele>
        <time>2020-07-02T11:14:28Z</time>
      </trkpt>
      <trkpt lat="48.36139" lon="2.12665">
        <ele>79</ele>
        <time>2020-07-02T11:14:29Z</time>
      </trkpt>
      <trkpt lat="48.36138" lon="2.12661">
        <ele>79.1</ele>
        <time>2020-07-02T11:14:30Z</time>
      </trkpt>
      <trkpt lat="48.36138" lon="2.1266">
        <ele>79</ele>
        <time>2020-07-02T11:14:31Z</time>
      </trkpt>
      <trkpt lat="48.36138" lon="2.1266">
        <ele>79</ele>
        <time>2020-07-02T11:14:32Z</time>
      </trkpt>
      <trkpt lat="48.36137" lon="2.12659">
        <ele>79</ele>
        <time>2020-07-02T11:14:33Z</time>
      </trkpt>
      <trkpt lat="48.36137" lon="2.12659">
        <ele>79</ele>
        <time>2020-07-02T11:14:34Z</time>
      </trkpt>
      <trkpt lat="48.36106" lon="2.12632">
        <ele>79</ele>
        <time>2020-07-02T11:23:32Z</time>
      </trkpt>
      <trkpt lat="48.36107" lon="2.12633">
        <ele>79</ele>
        <time>2020-07-02T11:23:33Z</time>
      </trkpt>
      <trkpt lat="48.36107" lon="2.12633">
        <ele>79</ele>
        <time>2020-07-02T11:23:34Z</time>
      </trkpt>
      <trkpt lat="48.36107" lon="2.12633">
        <ele>78.9</ele>
        <time>2020-07-02T11:23:35Z</time>
      </trkpt>
      <trkpt lat="48.36107" lon="2.12633">
        <ele>78.9</ele>
        <time>2020-07-02T11:23:36Z</time>
      </trkpt>
      <trkpt lat="48.36107" lon="2.12633">
        <ele>78.9</ele>
        <time>2020-07-02T11:23:37Z</time>
      </trkpt>
      <trkpt lat="48.36107" lon="2.12633">
        <ele>78.9</ele>
        <time>2020-07-02T11:23:38Z</time>
      </trkpt>
      <trkpt lat="48.36107" lon="2.12633">
        <ele>78.9</ele>
        <time>2020-07-02T11:23:39Z</time>
      </trkpt>
      <trkpt lat="48.36109" lon="2.12634">
        <ele>78.9</ele>
        <time>2020-07-02T11:23:40Z</time>
      </trkpt>
      <trkpt lat="48.36109" lon="2.12635">
        <ele>78.9</ele>
        <time>2020-07-02T11:23:41Z</time>
      </trkpt>
      <trkpt lat="48.3611" lon="2.12636">
        <ele>78.9</ele>
        <time>2020-07-02T11:23:42Z</time>
      </trkpt>
      <trkpt lat="48.36112" lon="2.12641">
        <ele>78.9</ele>
        <time>2020-07-02T11:23:43Z</time>
      </trkpt>
      <trkpt lat="48.36115" lon="2.12642">
        <ele>78.8</ele>
        <time>2020-07-02T11:23:44Z</time>
      </trkpt>
      <trkpt lat="48.36119" lon="2.12645">
        <ele>78.9</ele>
        <time>2020-07-02T11:23:46Z</time>
      </trkpt>
      <trkpt lat="48.3612" lon="2.12647">
        <ele>78.8</ele>
        <time>2020-07-02T11:23:47Z</time>
      </trkpt>
      <trkpt lat="48.36123" lon="2.12648">
        <ele>78.8</ele>
        <time>2020-07-02T11:23:48Z</time>
      </trkpt>
      <trkpt lat="48.36123" lon="2.12648">
        <ele>78.8</ele>
        <time>2020-07-02T11:23:49Z</time>
      </trkpt>
      <trkpt lat="48.36123" lon="2.12648">
        <ele>78.8</ele>
        <time>2020-07-02T11:23:50Z</time>
      </trkpt>
      <trkpt lat="48.36123" lon="2.12648">
        <ele>78.8</ele>
        <time>2020-07-02T11:23:51Z</time>
      </trkpt>
      <trkpt lat="48.36124" lon="2.12648">
        <ele>78.8</ele>
        <time>2020-07-02T11:23:52Z</time>
      </trkpt>
      <trkpt lat="48.36124" lon="2.12648">
        <ele>78.8</ele>
        <time>2020-07-02T11:23:53Z</time>
      </trkpt>
      <trkpt lat="48.36124" lon="2.12648">
        <ele>78.8</ele>
        <time>2020-07-02T11:23:54Z</time>
      </trkpt>
      <trkpt lat="48.36125" lon="2.12649">
        <ele>78.8</ele>
        <time>2020-07-02T11:23:55Z</time>
      </trkpt>
      <trkpt lat="48.36125" lon="2.12649">
        <ele>78.8</ele>
        <time>2020-07-02T11:23:56Z</time>
      </trkpt>
      <trkpt lat="48.36125" lon="2.12649">
        <ele>78.8</ele>
        <time>2020-07-02T11:23:57Z</time>
      </trkpt>
      <trkpt lat="48.36126" lon="2.12647">
        <ele>78.8</ele>
        <time>2020-07-02T11:23:58Z</time>
      </trkpt>
      <trkpt lat="48.36126" lon="2.12646">
        <ele>78.9</ele>
        <time>2020-07-02T11:24:08Z</time>
      </trkpt>
      <trkpt lat="48.36127" lon="2.12644">
        <ele>78.9</ele>
        <time>2020-07-02T11:24:09Z</time>
      </trkpt>
      <trkpt lat="48.36127" lon="2.12643">
        <ele>78.9</ele>
        <time>2020-07-02T11:24:10Z</time>
      </trkpt>
      <trkpt lat="48.36128" lon="2.12641">
        <ele>78.9</ele>
        <time>2020-07-02T11:24:11Z</time>
      </trkpt>
      <trkpt lat="48.36128" lon="2.1264">
        <ele>79</ele>
        <time>2020-07-02T11:24:12Z</time>
      </trkpt>
      <trkpt lat="48.36129" lon="2.12639">
        <ele>79</ele>
        <time>2020-07-02T11:24:13Z</time>
      </trkpt>
      <trkpt lat="48.36129" lon="2.12637">
        <ele>79</ele>
        <time>2020-07-02T11:24:14Z</time>
      </trkpt>
      <trkpt lat="48.3613" lon="2.12636">
        <ele>79</ele>
        <time>2020-07-02T11:24:15Z</time>
      </trkpt>
      <trkpt lat="48.36127" lon="2.12633">
        <ele>79.1</ele>
        <time>2020-07-02T11:24:16Z</time>
      </trkpt>
      <trkpt lat="48.36126" lon="2.12631">
        <ele>79</ele>
        <time>2020-07-02T11:24:17Z</time>
      </trkpt>
      <trkpt lat="48.36126" lon="2.1263">
        <ele>79</ele>
        <time>2020-07-02T11:24:18Z</time>
      </trkpt>
      <trkpt lat="48.36126" lon="2.12629">
        <ele>79</ele>
        <time>2020-07-02T11:24:19Z</time>
      </trkpt>
      <trkpt lat="48.36126" lon="2.12627">
        <ele>79.1</ele>
        <time>2020-07-02T11:24:20Z</time>
      </trkpt>
      <trkpt lat="48.36123" lon="2.12622">
        <ele>79.1</ele>
        <time>2020-07-02T11:24:21Z</time>
      </trkpt>
      <trkpt lat="48.36123" lon="2.12621">
        <ele>79.1</ele>
        <time>2020-07-02T11:24:22Z</time>
      </trkpt>
      <trkpt lat="48.36122" lon="2.12616">
        <ele>79.2</ele>
        <time>2020-07-02T11:24:23Z</time>
      </trkpt>
      <trkpt lat="48.36121" lon="2.12617">
        <ele>79.1</ele>
        <time>2020-07-02T11:24:24Z</time>
      </trkpt>
      <trkpt lat="48.36121" lon="2.12615">
        <ele>79.2</ele>
        <time>2020-07-02T11:24:25Z</time>
      </trkpt>
      <trkpt lat="48.3612" lon="2.12613">
        <ele>79.2</ele>
        <time>2020-07-02T11:24:26Z</time>
      </trkpt>
      <trkpt lat="48.3612" lon="2.12611">
        <ele>79.2</ele>
        <time>2020-07-02T11:24:27Z</time>
      </trkpt>
      <trkpt lat="48.36119" lon="2.1261">
        <ele>79.2</ele>
        <time>2020-07-02T11:24:28Z</time>
      </trkpt>
      <trkpt lat="48.36119" lon="2.12609">
        <ele>79.2</ele>
        <time>2020-07-02T11:24:29Z</time>
      </trkpt>
      <trkpt lat="48.36119" lon="2.12607">
        <ele>79.2</ele>
        <time>2020-07-02T11:24:30Z</time>
      </trkpt>
      <trkpt lat="48.36119" lon="2.12606">
        <ele>79.3</ele>
        <time>2020-07-02T11:24:31Z</time>
      </trkpt>
      <trkpt lat="48.36119" lon="2.12604">
        <ele>79.3</ele>
        <time>2020-07-02T11:24:32Z</time>
      </trkpt>
      <trkpt lat="48.36118" lon="2.12603">
        <ele>79.3</ele>
        <time>2020-07-02T11:24:33Z</time>
      </trkpt>
      <trkpt lat="48.36118" lon="2.126">
        <ele>79.3</ele>
        <time>2020-07-02T11:24:34Z</time>
      </trkpt>
      <trkpt lat="48.36119" lon="2.12598">
        <ele>79.4</ele>
        <time>2020-07-02T11:24:35Z</time>
      </trkpt>
      <trkpt lat="48.36119" lon="2.12596">
        <ele>79.4</ele>
        <time>2020-07-02T11:24:36Z</time>
      </trkpt>
      <trkpt lat="48.36119" lon="2.12595">
        <ele>79.4</ele>
        <time>2020-07-02T11:24:37Z</time>
      </trkpt>
      <trkpt lat="48.3612" lon="2.12593">
        <ele>79.4</ele>
        <time>2020-07-02T11:24:38Z</time>
      </trkpt>
      <trkpt lat="48.3612" lon="2.12591">
        <ele>79.4</ele>
        <time>2020-07-02T11:24:39Z</time>
      </trkpt>
      <trkpt lat="48.36121" lon="2.12589">
        <ele>79.5</ele>
        <time>2020-07-02T11:24:40Z</time>
      </trkpt>
      <trkpt lat="48.36122" lon="2.12587">
        <ele>79.5</ele>
        <time>2020-07-02T11:24:41Z</time>
      </trkpt>
      <trkpt lat="48.36123" lon="2.12584">
        <ele>79.5</ele>
        <time>2020-07-02T11:24:42Z</time>
      </trkpt>
      <trkpt lat="48.36123" lon="2.12583">
        <ele>79.5</ele>
        <time>2020-07-02T11:24:43Z</time>
      </trkpt>
      <trkpt lat="48.36124" lon="2.12582">
        <ele>79.5</ele>
        <time>2020-07-02T11:24:44Z</time>
      </trkpt>
      <trkpt lat="48.36124" lon="2.12582">
        <ele>79.5</ele>
        <time>2020-07-02T11:24:45Z</time>
      </trkpt>
      <trkpt lat="48.36124" lon="2.1258">
        <ele>79.6</ele>
        <time>2020-07-02T11:24:46Z</time>
      </trkpt>
      <trkpt lat="48.36124" lon="2.1258">
        <ele>79.6</ele>
        <time>2020-07-02T11:24:47Z</time>
      </trkpt>
      <trkpt lat="48.36124" lon="2.1258">
        <ele>79.6</ele>
        <time>2020-07-02T11:24:48Z</time>
      </trkpt>
      <trkpt lat="48.36124" lon="2.12581">
        <ele>79.6</ele>
        <time>2020-07-02T11:24:49Z</time>
      </trkpt>
      <trkpt lat="48.36124" lon="2.12581">
        <ele>79.5</ele>
        <time>2020-07-02T11:24:50Z</time>
      </trkpt>
      <trkpt lat="48.36123" lon="2.12584">
        <ele>79.5</ele>
        <time>2020-07-02T11:24:51Z</time>
      </trkpt>
      <trkpt lat="48.36122" lon="2.12586">
        <ele>79.4</ele>
        <time>2020-07-02T11:24:52Z</time>
      </trkpt>
      <trkpt lat="48.36122" lon="2.12588">
        <ele>79.4</ele>
        <time>2020-07-02T11:24:53Z</time>
      </trkpt>
      <trkpt lat="48.36121" lon="2.1259">
        <ele>79.4</ele>
        <time>2020-07-02T11:24:54Z</time>
      </trkpt>
      <trkpt lat="48.3612" lon="2.12593">
        <ele>79.4</ele>
        <time>2020-07-02T11:24:55Z</time>
      </trkpt>
      <trkpt lat="48.3612" lon="2.12593">
        <ele>79.4</ele>
        <time>2020-07-02T11:24:56Z</time>
      </trkpt>
      <trkpt lat="48.36101" lon="2.12632">
        <ele>79</ele>
        <time>2020-07-02T11:27:37Z</time>
      </trkpt>
      <trkpt lat="48.36101" lon="2.12633">
        <ele>78.9</ele>
        <time>2020-07-02T11:27:38Z</time>
      </trkpt>
      <trkpt lat="48.36102" lon="2.12634">
        <ele>78.9</ele>
        <time>2020-07-02T11:27:39Z</time>
      </trkpt>
      <trkpt lat="48.36103" lon="2.12635">
        <ele>78.9</ele>
        <time>2020-07-02T11:27:40Z</time>
      </trkpt>
      <trkpt lat="48.36103" lon="2.12636">
        <ele>78.9</ele>
        <time>2020-07-02T11:27:41Z</time>
      </trkpt>
      <trkpt lat="48.36103" lon="2.12636">
        <ele>78.9</ele>
        <time>2020-07-02T11:27:42Z</time>
      </trkpt>
      <trkpt lat="48.36103" lon="2.12636">
        <ele>78.9</ele>
        <time>2020-07-02T11:27:43Z</time>
      </trkpt>
      <trkpt lat="48.36103" lon="2.12636">
        <ele>78.9</ele>
        <time>2020-07-02T11:27:44Z</time>
      </trkpt>
      <trkpt lat="48.36103" lon="2.12636">
        <ele>78.9</ele>
        <time>2020-07-02T11:27:45Z</time>
      </trkpt>
      <trkpt lat="48.36104" lon="2.12637">
        <ele>78.8</ele>
        <time>2020-07-02T11:27:46Z</time>
      </trkpt>
      <trkpt lat="48.36104" lon="2.12638">
        <ele>78.8</ele>
        <time>2020-07-02T11:27:47Z</time>
      </trkpt>
      <trkpt lat="48.36104" lon="2.12639">
        <ele>78.8</ele>
        <time>2020-07-02T11:27:48Z</time>
      </trkpt>
      <trkpt lat="48.36104" lon="2.1264">
        <ele>78.8</ele>
        <time>2020-07-02T11:27:49Z</time>
      </trkpt>
      <trkpt lat="48.36105" lon="2.12641">
        <ele>78.8</ele>
        <time>2020-07-02T11:27:50Z</time>
      </trkpt>
      <trkpt lat="48.36105" lon="2.12641">
        <ele>78.8</ele>
        <time>2020-07-02T11:27:51Z</time>
      </trkpt>
      <trkpt lat="48.36105" lon="2.12641">
        <ele>78.8</ele>
        <time>2020-07-02T11:27:52Z</time>
      </trkpt>
      <trkpt lat="48.36107" lon="2.12646">
        <ele>78.7</ele>
        <time>2020-07-02T11:29:26Z</time>
      </trkpt>
      <trkpt lat="48.36106" lon="2.12646">
        <ele>78.7</ele>
        <time>2020-07-02T11:29:27Z</time>
      </trkpt>
      <trkpt lat="48.36106" lon="2.12647">
        <ele>78.7</ele>
        <time>2020-07-02T11:29:28Z</time>
      </trkpt>
      <trkpt lat="48.36106" lon="2.12647">
        <ele>78.7</ele>
        <time>2020-07-02T11:29:29Z</time>
      </trkpt>
      <trkpt lat="48.36106" lon="2.12647">
        <ele>78.7</ele>
        <time>2020-07-02T11:29:30Z</time>
      </trkpt>
      <trkpt lat="48.36106" lon="2.12648">
        <ele>78.7</ele>
        <time>2020-07-02T11:29:31Z</time>
      </trkpt>
      <trkpt lat="48.36106" lon="2.12648">
        <ele>78.7</ele>
        <time>2020-07-02T11:29:32Z</time>
      </trkpt>
      <trkpt lat="48.36106" lon="2.12648">
        <ele>78.7</ele>
        <time>2020-07-02T11:29:33Z</time>
      </trkpt>
      <trkpt lat="48.36106" lon="2.12648">
        <ele>78.7</ele>
        <time>2020-07-02T11:29:34Z</time>
      </trkpt>
      <trkpt lat="48.36106" lon="2.12648">
        <ele>78.7</ele>
        <time>2020-07-02T11:29:35Z</time>
      </trkpt>
      <trkpt lat="48.36106" lon="2.12648">
        <ele>78.7</ele>
        <time>2020-07-02T11:29:36Z</time>
      </trkpt>
      <trkpt lat="48.36105" lon="2.12648">
        <ele>78.7</ele>
        <time>2020-07-02T11:29:37Z</time>
      </trkpt>
      <trkpt lat="48.36105" lon="2.12647">
        <ele>78.7</ele>
        <time>2020-07-02T11:29:38Z</time>
      </trkpt>
      <trkpt lat="48.36104" lon="2.12646">
        <ele>78.8</ele>
        <time>2020-07-02T11:29:39Z</time>
      </trkpt>
      <trkpt lat="48.36104" lon="2.12646">
        <ele>78.8</ele>
        <time>2020-07-02T11:29:40Z</time>
      </trkpt>
      <trkpt lat="48.36099" lon="2.12641">
        <ele>78.8</ele>
        <time>2020-07-02T11:30:25Z</time>
      </trkpt>
      <trkpt lat="48.36098" lon="2.12639">
        <ele>78.8</ele>
        <time>2020-07-02T11:30:26Z</time>
      </trkpt>
      <trkpt lat="48.36097" lon="2.12638">
        <ele>78.8</ele>
        <time>2020-07-02T11:30:27Z</time>
      </trkpt>
      <trkpt lat="48.36096" lon="2.12637">
        <ele>78.9</ele>
        <time>2020-07-02T11:30:28Z</time>
      </trkpt>
      <trkpt lat="48.36096" lon="2.12636">
        <ele>78.9</ele>
        <time>2020-07-02T11:30:29Z</time>
      </trkpt>
      <trkpt lat="48.36095" lon="2.12634">
        <ele>78.9</ele>
        <time>2020-07-02T11:30:30Z</time>
      </trkpt>
      <trkpt lat="48.36095" lon="2.12633">
        <ele>78.9</ele>
        <time>2020-07-02T11:30:31Z</time>
      </trkpt>
      <trkpt lat="48.36094" lon="2.12632">
        <ele>79</ele>
        <time>2020-07-02T11:30:32Z</time>
      </trkpt>
      <trkpt lat="48.36094" lon="2.1263">
        <ele>79</ele>
        <time>2020-07-02T11:30:33Z</time>
      </trkpt>
      <trkpt lat="48.36093" lon="2.12629">
        <ele>79</ele>
        <time>2020-07-02T11:30:34Z</time>
      </trkpt>
      <trkpt lat="48.36093" lon="2.12628">
        <ele>79</ele>
        <time>2020-07-02T11:30:35Z</time>
      </trkpt>
      <trkpt lat="48.36092" lon="2.12628">
        <ele>79</ele>
        <time>2020-07-02T11:30:36Z</time>
      </trkpt>
      <trkpt lat="48.36092" lon="2.12627">
        <ele>79</ele>
        <time>2020-07-02T11:30:37Z</time>
      </trkpt>
      <trkpt lat="48.36091" lon="2.12627">
        <ele>79</ele>
        <time>2020-07-02T11:30:38Z</time>
      </trkpt>
      <trkpt lat="48.36091" lon="2.12626">
        <ele>79</ele>
        <time>2020-07-02T11:30:39Z</time>
      </trkpt>
      <trkpt lat="48.36091" lon="2.12626">
        <ele>79</ele>
        <time>2020-07-02T11:30:40Z</time>
      </trkpt>
      <trkpt lat="48.3609" lon="2.12625">
        <ele>79</ele>
        <time>2020-07-02T11:30:41Z</time>
      </trkpt>
      <trkpt lat="48.36183" lon="2.12729">
        <ele>80.6</ele>
        <time>2020-07-02T11:32:44Z</time>
      </trkpt>
      <trkpt lat="48.36182" lon="2.12723">
        <ele>80.7</ele>
        <time>2020-07-02T11:32:45Z</time>
      </trkpt>
      <trkpt lat="48.36178" lon="2.12723">
        <ele>80.3</ele>
        <time>2020-07-02T11:32:46Z</time>
      </trkpt>
      <trkpt lat="48.36168" lon="2.12711">
        <ele>79.8</ele>
        <time>2020-07-02T11:32:47Z</time>
      </trkpt>
      <trkpt lat="48.36161" lon="2.12704">
        <ele>79.6</ele>
        <time>2020-07-02T11:32:48Z</time>
      </trkpt>
      <trkpt lat="48.36158" lon="2.127">
        <ele>79.5</ele>
        <time>2020-07-02T11:32:49Z</time>
      </trkpt>
      <trkpt lat="48.36151" lon="2.12692">
        <ele>79.1</ele>
        <time>2020-07-02T11:32:50Z</time>
      </trkpt>
      <trkpt lat="48.36145" lon="2.12685">
        <ele>78.9</ele>
        <time>2020-07-02T11:32:51Z</time>
      </trkpt>
      <trkpt lat="48.36141" lon="2.12676">
        <ele>79</ele>
        <time>2020-07-02T11:32:52Z</time>
      </trkpt>
      <trkpt lat="48.36137" lon="2.12671">
        <ele>79</ele>
        <time>2020-07-02T11:32:53Z</time>
      </trkpt>
      <trkpt lat="48.36128" lon="2.12667">
        <ele>79.1</ele>
        <time>2020-07-02T11:32:54Z</time>
      </trkpt>
      <trkpt lat="48.36124" lon="2.12665">
        <ele>79.2</ele>
        <time>2020-07-02T11:32:55Z</time>
      </trkpt>
      <trkpt lat="48.36122" lon="2.12663">
        <ele>79.2</ele>
        <time>2020-07-02T11:32:56Z</time>
      </trkpt>
      <trkpt lat="48.36121" lon="2.12661">
        <ele>79.2</ele>
        <time>2020-07-02T11:32:57Z</time>
      </trkpt>
      <trkpt lat="48.36121" lon="2.1266">
        <ele>79.2</ele>
        <time>2020-07-02T11:32:58Z</time>
      </trkpt>
      <trkpt lat="48.36121" lon="2.12659">
        <ele>79.2</ele>
        <time>2020-07-02T11:32:59Z</time>
      </trkpt>
      <trkpt lat="48.36122" lon="2.12657">
        <ele>79.3</ele>
        <time>2020-07-02T11:33:00Z</time>
      </trkpt>
      <trkpt lat="48.36121" lon="2.12655">
        <ele>79.3</ele>
        <time>2020-07-02T11:33:01Z</time>
      </trkpt>
      <trkpt lat="48.36119" lon="2.12652">
        <ele>79.3</ele>
        <time>2020-07-02T11:33:02Z</time>
      </trkpt>
      <trkpt lat="48.36118" lon="2.1265">
        <ele>79.3</ele>
        <time>2020-07-02T11:33:03Z</time>
      </trkpt>
      <trkpt lat="48.36116" lon="2.12646">
        <ele>79.4</ele>
        <time>2020-07-02T11:33:04Z</time>
      </trkpt>
      <trkpt lat="48.36115" lon="2.12642">
        <ele>79.4</ele>
        <time>2020-07-02T11:33:05Z</time>
      </trkpt>
      <trkpt lat="48.36114" lon="2.1264">
        <ele>79.4</ele>
        <time>2020-07-02T11:33:06Z</time>
      </trkpt>
      <trkpt lat="48.36113" lon="2.12638">
        <ele>79.5</ele>
        <time>2020-07-02T11:33:07Z</time>
      </trkpt>
      <trkpt lat="48.36112" lon="2.12636">
        <ele>79.5</ele>
        <time>2020-07-02T11:33:08Z</time>
      </trkpt>
      <trkpt lat="48.36111" lon="2.12636">
        <ele>79.5</ele>
        <time>2020-07-02T11:33:09Z</time>
      </trkpt>
      <trkpt lat="48.36109" lon="2.12636">
        <ele>79.5</ele>
        <time>2020-07-02T11:33:10Z</time>
      </trkpt>
      <trkpt lat="48.36107" lon="2.12636">
        <ele>79.6</ele>
        <time>2020-07-02T11:33:11Z</time>
      </trkpt>
      <trkpt lat="48.36104" lon="2.12635">
        <ele>79.6</ele>
        <time>2020-07-02T11:33:12Z</time>
      </trkpt>
      <trkpt lat="48.36103" lon="2.12635">
        <ele>79.6</ele>
        <time>2020-07-02T11:33:13Z</time>
      </trkpt>
      <trkpt lat="48.36102" lon="2.12634">
        <ele>79.6</ele>
        <time>2020-07-02T11:33:14Z</time>
      </trkpt>
      <trkpt lat="48.361" lon="2.12634">
        <ele>79.6</ele>
        <time>2020-07-02T11:33:15Z</time>
      </trkpt>
      <trkpt lat="48.36099" lon="2.12633">
        <ele>79.6</ele>
        <time>2020-07-02T11:33:16Z</time>
      </trkpt>
      <trkpt lat="48.36098" lon="2.12631">
        <ele>79.6</ele>
        <time>2020-07-02T11:33:17Z</time>
      </trkpt>
      <trkpt lat="48.36096" lon="2.1263">
        <ele>79.6</ele>
        <time>2020-07-02T11:33:18Z</time>
      </trkpt>
      <trkpt lat="48.36096" lon="2.1263">
        <ele>79.6</ele>
        <time>2020-07-02T11:33:19Z</time>
      </trkpt>
      <trkpt lat="48.36095" lon="2.12629">
        <ele>79.6</ele>
        <time>2020-07-02T11:33:20Z</time>
      </trkpt>
      <trkpt lat="48.36095" lon="2.12628">
        <ele>79.6</ele>
        <time>2020-07-02T11:33:21Z</time>
      </trkpt>
      <trkpt lat="48.36093" lon="2.12627">
        <ele>79.6</ele>
        <time>2020-07-02T11:33:22Z</time>
      </trkpt>
      <trkpt lat="48.36093" lon="2.12627">
        <ele>79.6</ele>
        <time>2020-07-02T11:33:23Z</time>
      </trkpt>
      <trkpt lat="48.36094" lon="2.12628">
        <ele>79.6</ele>
        <time>2020-07-02T11:33:24Z</time>
      </trkpt>
      <trkpt lat="48.36094" lon="2.12628">
        <ele>79.6</ele>
        <time>2020-07-02T11:33:25Z</time>
      </trkpt>
      <trkpt lat="48.36094" lon="2.12628">
        <ele>79.6</ele>
        <time>2020-07-02T11:33:26Z</time>
      </trkpt>
      <trkpt lat="48.36094" lon="2.12628">
        <ele>79.6</ele>
        <time>2020-07-02T11:33:27Z</time>
      </trkpt>
      <trkpt lat="48.36095" lon="2.12628">
        <ele>79.6</ele>
        <time>2020-07-02T11:33:28Z</time>
      </trkpt>
      <trkpt lat="48.36095" lon="2.12629">
        <ele>79.6</ele>
        <time>2020-07-02T11:33:29Z</time>
      </trkpt>
      <trkpt lat="48.36096" lon="2.12628">
        <ele>79.6</ele>
        <time>2020-07-02T11:33:30Z</time>
      </trkpt>
      <trkpt lat="48.36097" lon="2.12629">
        <ele>79.6</ele>
        <time>2020-07-02T11:33:31Z</time>
      </trkpt>
      <trkpt lat="48.36098" lon="2.12628">
        <ele>79.6</ele>
        <time>2020-07-02T11:33:32Z</time>
      </trkpt>
      <trkpt lat="48.36098" lon="2.12627">
        <ele>79.6</ele>
        <time>2020-07-02T11:33:33Z</time>
      </trkpt>
      <trkpt lat="48.36099" lon="2.12627">
        <ele>79.6</ele>
        <time>2020-07-02T11:33:34Z</time>
      </trkpt>
      <trkpt lat="48.36099" lon="2.12626">
        <ele>79.6</ele>
        <time>2020-07-02T11:33:35Z</time>
      </trkpt>
      <trkpt lat="48.361" lon="2.12626">
        <ele>79.6</ele>
        <time>2020-07-02T11:33:36Z</time>
      </trkpt>
      <trkpt lat="48.361" lon="2.12624">
        <ele>79.5</ele>
        <time>2020-07-02T11:33:37Z</time>
      </trkpt>
      <trkpt lat="48.36101" lon="2.12625">
        <ele>79.5</ele>
        <time>2020-07-02T11:33:38Z</time>
      </trkpt>
      <trkpt lat="48.36102" lon="2.12625">
        <ele>79.5</ele>
        <time>2020-07-02T11:33:39Z</time>
      </trkpt>
      <trkpt lat="48.36102" lon="2.12626">
        <ele>79.5</ele>
        <time>2020-07-02T11:33:40Z</time>
      </trkpt>
      <trkpt lat="48.36102" lon="2.12626">
        <ele>79.5</ele>
        <time>2020-07-02T11:33:41Z</time>
      </trkpt>
      <trkpt lat="48.36103" lon="2.12627">
        <ele>79.5</ele>
        <time>2020-07-02T11:33:42Z</time>
      </trkpt>
      <trkpt lat="48.36103" lon="2.12627">
        <ele>79.5</ele>
        <time>2020-07-02T11:33:43Z</time>
      </trkpt>
      <trkpt lat="48.36104" lon="2.12628">
        <ele>79.5</ele>
        <time>2020-07-02T11:33:44Z</time>
      </trkpt>
      <trkpt lat="48.36104" lon="2.12628">
        <ele>79.5</ele>
        <time>2020-07-02T11:33:45Z</time>
      </trkpt>
      <trkpt lat="48.36104" lon="2.12629">
        <ele>79.5</ele>
        <time>2020-07-02T11:33:46Z</time>
      </trkpt>
      <trkpt lat="48.36105" lon="2.12629">
        <ele>79.5</ele>
        <time>2020-07-02T11:33:47Z</time>
      </trkpt>
      <trkpt lat="48.36105" lon="2.1263">
        <ele>79.5</ele>
        <time>2020-07-02T11:36:48Z</time>
      </trkpt>
      <trkpt lat="48.36106" lon="2.1263">
        <ele>79.5</ele>
        <time>2020-07-02T11:36:49Z</time>
      </trkpt>
      <trkpt lat="48.36105" lon="2.12636">
        <ele>79.4</ele>
        <time>2020-07-02T11:36:50Z</time>
      </trkpt>
      <trkpt lat="48.36103" lon="2.12641">
        <ele>79.4</ele>
        <time>2020-07-02T11:36:51Z</time>
      </trkpt>
      <trkpt lat="48.36102" lon="2.12642">
        <ele>79.4</ele>
        <time>2020-07-02T11:36:52Z</time>
      </trkpt>
      <trkpt lat="48.36098" lon="2.12643">
        <ele>79.4</ele>
        <time>2020-07-02T11:36:53Z</time>
      </trkpt>
      <trkpt lat="48.36094" lon="2.12647">
        <ele>79.3</ele>
        <time>2020-07-02T11:36:54Z</time>
      </trkpt>
      <trkpt lat="48.3609" lon="2.1265">
        <ele>79.3</ele>
        <time>2020-07-02T11:36:55Z</time>
      </trkpt>
      <trkpt lat="48.36086" lon="2.12653">
        <ele>79.3</ele>
        <time>2020-07-02T11:36:56Z</time>
      </trkpt>
      <trkpt lat="48.3608" lon="2.12659">
        <ele>79.4</ele>
        <time>2020-07-02T11:36:57Z</time>
      </trkpt>
      <trkpt lat="48.36075" lon="2.12662">
        <ele>79.4</ele>
        <time>2020-07-02T11:36:58Z</time>
      </trkpt>
      <trkpt lat="48.3607" lon="2.12667">
        <ele>79.4</ele>
        <time>2020-07-02T11:36:59Z</time>
      </trkpt>
      <trkpt lat="48.36067" lon="2.12672">
        <ele>79.4</ele>
        <time>2020-07-02T11:37:00Z</time>
      </trkpt>
      <trkpt lat="48.36062" lon="2.12676">
        <ele>79.5</ele>
        <time>2020-07-02T11:37:01Z</time>
      </trkpt>
      <trkpt lat="48.36056" lon="2.1268">
        <ele>79.5</ele>
        <time>2020-07-02T11:37:02Z</time>
      </trkpt>
      <trkpt lat="48.36051" lon="2.12683">
        <ele>79.5</ele>
        <time>2020-07-02T11:37:03Z</time>
      </trkpt>
      <trkpt lat="48.36047" lon="2.12687">
        <ele>79.5</ele>
        <time>2020-07-02T11:37:04Z</time>
      </trkpt>
      <trkpt lat="48.36042" lon="2.12691">
        <ele>79.5</ele>
        <time>2020-07-02T11:37:05Z</time>
      </trkpt>
      <trkpt lat="48.36037" lon="2.12695">
        <ele>79.5</ele>
        <time>2020-07-02T11:37:06Z</time>
      </trkpt>
      <trkpt lat="48.36033" lon="2.12699">
        <ele>79.6</ele>
        <time>2020-07-02T11:37:07Z</time>
      </trkpt>
      <trkpt lat="48.36028" lon="2.12705">
        <ele>79.6</ele>
        <time>2020-07-02T11:37:08Z</time>
      </trkpt>
      <trkpt lat="48.36022" lon="2.1271">
        <ele>79.7</ele>
        <time>2020-07-02T11:37:09Z</time>
      </trkpt>
      <trkpt lat="48.36019" lon="2.12715">
        <ele>79.7</ele>
        <time>2020-07-02T11:37:10Z</time>
      </trkpt>
      <trkpt lat="48.36015" lon="2.12721">
        <ele>79.7</ele>
        <time>2020-07-02T11:37:11Z</time>
      </trkpt>
      <trkpt lat="48.36011" lon="2.12726">
        <ele>79.8</ele>
        <time>2020-07-02T11:37:12Z</time>
      </trkpt>
      <trkpt lat="48.36007" lon="2.12731">
        <ele>79.8</ele>
        <time>2020-07-02T11:37:13Z</time>
      </trkpt>
      <trkpt lat="48.36003" lon="2.12738">
        <ele>79.9</ele>
        <time>2020-07-02T11:37:14Z</time>
      </trkpt>
      <trkpt lat="48.35999" lon="2.12742">
        <ele>80</ele>
        <time>2020-07-02T11:37:15Z</time>
      </trkpt>
      <trkpt lat="48.35996" lon="2.12747">
        <ele>80.1</ele>
        <time>2020-07-02T11:37:16Z</time>
      </trkpt>
      <trkpt lat="48.35993" lon="2.12752">
        <ele>80.2</ele>
        <time>2020-07-02T11:37:17Z</time>
      </trkpt>
      <trkpt lat="48.3599" lon="2.12757">
        <ele>80.3</ele>
        <time>2020-07-02T11:37:18Z</time>
      </trkpt>
      <trkpt lat="48.35987" lon="2.12763">
        <ele>80.4</ele>
        <time>2020-07-02T11:37:19Z</time>
      </trkpt>
      <trkpt lat="48.35983" lon="2.12767">
        <ele>80.5</ele>
        <time>2020-07-02T11:37:20Z</time>
      </trkpt>
      <trkpt lat="48.35981" lon="2.12773">
        <ele>80.7</ele>
        <time>2020-07-02T11:37:21Z</time>
      </trkpt>
      <trkpt lat="48.35978" lon="2.12777">
        <ele>80.8</ele>
        <time>2020-07-02T11:37:22Z</time>
      </trkpt>
      <trkpt lat="48.35975" lon="2.1278">
        <ele>80.9</ele>
        <time>2020-07-02T11:37:23Z</time>
      </trkpt>
      <trkpt lat="48.35974" lon="2.12782">
        <ele>80.9</ele>
        <time>2020-07-02T11:37:24Z</time>
      </trkpt>
      <trkpt lat="48.35972" lon="2.12785">
        <ele>81</ele>
        <time>2020-07-02T11:37:25Z</time>
      </trkpt>
      <trkpt lat="48.3597" lon="2.12787">
        <ele>81.1</ele>
        <time>2020-07-02T11:37:26Z</time>
      </trkpt>
      <trkpt lat="48.35968" lon="2.1279">
        <ele>81.2</ele>
        <time>2020-07-02T11:37:27Z</time>
      </trkpt>
      <trkpt lat="48.35965" lon="2.12791">
        <ele>81.5</ele>
        <time>2020-07-02T11:37:28Z</time>
      </trkpt>
      <trkpt lat="48.35963" lon="2.12792">
        <ele>81.5</ele>
        <time>2020-07-02T11:37:29Z</time>
      </trkpt>
      <trkpt lat="48.35961" lon="2.12795">
        <ele>81.5</ele>
        <time>2020-07-02T11:37:30Z</time>
      </trkpt>
      <trkpt lat="48.35958" lon="2.12797">
        <ele>81.5</ele>
        <time>2020-07-02T11:37:31Z</time>
      </trkpt>
      <trkpt lat="48.35954" lon="2.12799">
        <ele>81.9</ele>
        <time>2020-07-02T11:37:32Z</time>
      </trkpt>
      <trkpt lat="48.35951" lon="2.128">
        <ele>82.1</ele>
        <time>2020-07-02T11:37:33Z</time>
      </trkpt>
      <trkpt lat="48.35948" lon="2.128">
        <ele>82.2</ele>
        <time>2020-07-02T11:37:34Z</time>
      </trkpt>
      <trkpt lat="48.35945" lon="2.12799">
        <ele>82.4</ele>
        <time>2020-07-02T11:37:35Z</time>
      </trkpt>
      <trkpt lat="48.35943" lon="2.12799">
        <ele>82.5</ele>
        <time>2020-07-02T11:37:36Z</time>
      </trkpt>
      <trkpt lat="48.3594" lon="2.12797">
        <ele>82.7</ele>
        <time>2020-07-02T11:37:37Z</time>
      </trkpt>
      <trkpt lat="48.35939" lon="2.12796">
        <ele>82.7</ele>
        <time>2020-07-02T11:37:38Z</time>
      </trkpt>
      <trkpt lat="48.35936" lon="2.12793">
        <ele>82.9</ele>
        <time>2020-07-02T11:37:39Z</time>
      </trkpt>
      <trkpt lat="48.35935" lon="2.12792">
        <ele>83</ele>
        <time>2020-07-02T11:37:40Z</time>
      </trkpt>
      <trkpt lat="48.35932" lon="2.12789">
        <ele>83.2</ele>
        <time>2020-07-02T11:37:41Z</time>
      </trkpt>
      <trkpt lat="48.35931" lon="2.12787">
        <ele>83.3</ele>
        <time>2020-07-02T11:37:42Z</time>
      </trkpt>
      <trkpt lat="48.35928" lon="2.12785">
        <ele>83.5</ele>
        <time>2020-07-02T11:37:43Z</time>
      </trkpt>
      <trkpt lat="48.35925" lon="2.12783">
        <ele>83.6</ele>
        <time>2020-07-02T11:37:44Z</time>
      </trkpt>
      <trkpt lat="48.35923" lon="2.1278">
        <ele>83.8</ele>
        <time>2020-07-02T11:37:45Z</time>
      </trkpt>
      <trkpt lat="48.3592" lon="2.12776">
        <ele>84.1</ele>
        <time>2020-07-02T11:37:46Z</time>
      </trkpt>
      <trkpt lat="48.35918" lon="2.12775">
        <ele>84.2</ele>
        <time>2020-07-02T11:37:47Z</time>
      </trkpt>
      <trkpt lat="48.35916" lon="2.12772">
        <ele>84.4</ele>
        <time>2020-07-02T11:37:48Z</time>
      </trkpt>
      <trkpt lat="48.35913" lon="2.12769">
        <ele>84.6</ele>
        <time>2020-07-02T11:37:49Z</time>
      </trkpt>
      <trkpt lat="48.35911" lon="2.12766">
        <ele>84.8</ele>
        <time>2020-07-02T11:37:50Z</time>
      </trkpt>
      <trkpt lat="48.35908" lon="2.12764">
        <ele>85</ele>
        <time>2020-07-02T11:37:51Z</time>
      </trkpt>
      <trkpt lat="48.35908" lon="2.12764">
        <ele>85.1</ele>
        <time>2020-07-02T11:37:52Z</time>
      </trkpt>
      <trkpt lat="48.35906" lon="2.12763">
        <ele>85.2</ele>
        <time>2020-07-02T11:37:53Z</time>
      </trkpt>
      <trkpt lat="48.35905" lon="2.12762">
        <ele>85.2</ele>
        <time>2020-07-02T11:37:54Z</time>
      </trkpt>
      <trkpt lat="48.35904" lon="2.12762">
        <ele>85.3</ele>
        <time>2020-07-02T11:37:55Z</time>
      </trkpt>
      <trkpt lat="48.35902" lon="2.12761">
        <ele>85.5</ele>
        <time>2020-07-02T11:37:56Z</time>
      </trkpt>
      <trkpt lat="48.35901" lon="2.12761">
        <ele>85.6</ele>
        <time>2020-07-02T11:37:57Z</time>
      </trkpt>
      <trkpt lat="48.359" lon="2.1276">
        <ele>85.7</ele>
        <time>2020-07-02T11:37:58Z</time>
      </trkpt>
      <trkpt lat="48.35899" lon="2.1276">
        <ele>85.7</ele>
        <time>2020-07-02T11:37:59Z</time>
      </trkpt>
      <trkpt lat="48.35899" lon="2.12759">
        <ele>85.7</ele>
        <time>2020-07-02T11:38:00Z</time>
      </trkpt>
      <trkpt lat="48.359" lon="2.12759">
        <ele>85.8</ele>
        <time>2020-07-02T11:38:01Z</time>
      </trkpt>
      <trkpt lat="48.359" lon="2.12759">
        <ele>85.8</ele>
        <time>2020-07-02T11:38:02Z</time>
      </trkpt>
      <trkpt lat="48.359" lon="2.12759">
        <ele>85.8</ele>
        <time>2020-07-02T11:38:03Z</time>
      </trkpt>
      <trkpt lat="48.359" lon="2.1276">
        <ele>85.8</ele>
        <time>2020-07-02T11:38:04Z</time>
      </trkpt>
      <trkpt lat="48.35901" lon="2.12762">
        <ele>85.9</ele>
        <time>2020-07-02T11:38:05Z</time>
      </trkpt>
      <trkpt lat="48.35901" lon="2.12763">
        <ele>86</ele>
        <time>2020-07-02T11:38:06Z</time>
      </trkpt>
      <trkpt lat="48.35902" lon="2.12765">
        <ele>86.1</ele>
        <time>2020-07-02T11:38:07Z</time>
      </trkpt>
      <trkpt lat="48.35904" lon="2.12768">
        <ele>86.4</ele>
        <time>2020-07-02T11:38:08Z</time>
      </trkpt>
      <trkpt lat="48.35907" lon="2.12773">
        <ele>86.7</ele>
        <time>2020-07-02T11:38:09Z</time>
      </trkpt>
      <trkpt lat="48.3591" lon="2.12778">
        <ele>86.1</ele>
        <time>2020-07-02T11:38:10Z</time>
      </trkpt>
      <trkpt lat="48.35914" lon="2.12785">
        <ele>85.5</ele>
        <time>2020-07-02T11:38:11Z</time>
      </trkpt>
      <trkpt lat="48.35918" lon="2.12789">
        <ele>85</ele>
        <time>2020-07-02T11:38:12Z</time>
      </trkpt>
      <trkpt lat="48.35924" lon="2.12795">
        <ele>84.2</ele>
        <time>2020-07-02T11:38:13Z</time>
      </trkpt>
      <trkpt lat="48.35931" lon="2.12799">
        <ele>83.7</ele>
        <time>2020-07-02T11:38:14Z</time>
      </trkpt>
      <trkpt lat="48.35935" lon="2.128">
        <ele>83.3</ele>
        <time>2020-07-02T11:38:15Z</time>
      </trkpt>
      <trkpt lat="48.3594" lon="2.12798">
        <ele>81.6</ele>
        <time>2020-07-02T11:38:16Z</time>
      </trkpt>
      <trkpt lat="48.35944" lon="2.12795">
        <ele>81.6</ele>
        <time>2020-07-02T11:38:17Z</time>
      </trkpt>
      <trkpt lat="48.35945" lon="2.12788">
        <ele>81.1</ele>
        <time>2020-07-02T11:38:18Z</time>
      </trkpt>
      <trkpt lat="48.35948" lon="2.1278">
        <ele>81</ele>
        <time>2020-07-02T11:38:19Z</time>
      </trkpt>
      <trkpt lat="48.3595" lon="2.12771">
        <ele>80.8</ele>
        <time>2020-07-02T11:38:20Z</time>
      </trkpt>
      <trkpt lat="48.35952" lon="2.12761">
        <ele>80.6</ele>
        <time>2020-07-02T11:38:21Z</time>
      </trkpt>
      <trkpt lat="48.35952" lon="2.12753">
        <ele>80.5</ele>
        <time>2020-07-02T11:38:22Z</time>
      </trkpt>
      <trkpt lat="48.35952" lon="2.12745">
        <ele>80.4</ele>
        <time>2020-07-02T11:38:23Z</time>
      </trkpt>
      <trkpt lat="48.35952" lon="2.12736">
        <ele>80.2</ele>
        <time>2020-07-02T11:38:24Z</time>
      </trkpt>
      <trkpt lat="48.35953" lon="2.12727">
        <ele>80.1</ele>
        <time>2020-07-02T11:38:25Z</time>
      </trkpt>
      <trkpt lat="48.35953" lon="2.12718">
        <ele>80</ele>
        <time>2020-07-02T11:38:26Z</time>
      </trkpt>
      <trkpt lat="48.35954" lon="2.12709">
        <ele>79.9</ele>
        <time>2020-07-02T11:38:27Z</time>
      </trkpt>
      <trkpt lat="48.35954" lon="2.12702">
        <ele>79.8</ele>
        <time>2020-07-02T11:38:28Z</time>
      </trkpt>
      <trkpt lat="48.35954" lon="2.12695">
        <ele>79.7</ele>
        <time>2020-07-02T11:38:29Z</time>
      </trkpt>
      <trkpt lat="48.35954" lon="2.12687">
        <ele>79.7</ele>
        <time>2020-07-02T11:38:30Z</time>
      </trkpt>
      <trkpt lat="48.35954" lon="2.12679">
        <ele>79.7</ele>
        <time>2020-07-02T11:38:31Z</time>
      </trkpt>
      <trkpt lat="48.35954" lon="2.12671">
        <ele>79.6</ele>
        <time>2020-07-02T11:38:32Z</time>
      </trkpt>
      <trkpt lat="48.35955" lon="2.12662">
        <ele>79.6</ele>
        <time>2020-07-02T11:38:33Z</time>
      </trkpt>
      <trkpt lat="48.35955" lon="2.12654">
        <ele>79.5</ele>
        <time>2020-07-02T11:38:34Z</time>
      </trkpt>
      <trkpt lat="48.35955" lon="2.12646">
        <ele>79.5</ele>
        <time>2020-07-02T11:38:35Z</time>
      </trkpt>
      <trkpt lat="48.35954" lon="2.12639">
        <ele>79.4</ele>
        <time>2020-07-02T11:38:36Z</time>
      </trkpt>
      <trkpt lat="48.35952" lon="2.12632">
        <ele>79.4</ele>
        <time>2020-07-02T11:38:37Z</time>
      </trkpt>
      <trkpt lat="48.35951" lon="2.12625">
        <ele>79.4</ele>
        <time>2020-07-02T11:38:38Z</time>
      </trkpt>
      <trkpt lat="48.35949" lon="2.12619">
        <ele>79.3</ele>
        <time>2020-07-02T11:38:39Z</time>
      </trkpt>
      <trkpt lat="48.35946" lon="2.12612">
        <ele>79.3</ele>
        <time>2020-07-02T11:38:40Z</time>
      </trkpt>
      <trkpt lat="48.35942" lon="2.12606">
        <ele>79.3</ele>
        <time>2020-07-02T11:38:41Z</time>
      </trkpt>
      <trkpt lat="48.35939" lon="2.126">
        <ele>79.3</ele>
        <time>2020-07-02T11:38:42Z</time>
      </trkpt>
      <trkpt lat="48.35935" lon="2.12594">
        <ele>79.3</ele>
        <time>2020-07-02T11:38:43Z</time>
      </trkpt>
      <trkpt lat="48.3593" lon="2.1259">
        <ele>79.3</ele>
        <time>2020-07-02T11:38:44Z</time>
      </trkpt>
      <trkpt lat="48.35925" lon="2.12588">
        <ele>79.4</ele>
        <time>2020-07-02T11:38:45Z</time>
      </trkpt>
      <trkpt lat="48.35919" lon="2.12585">
        <ele>79.4</ele>
        <time>2020-07-02T11:38:46Z</time>
      </trkpt>
      <trkpt lat="48.35914" lon="2.12584">
        <ele>79.5</ele>
        <time>2020-07-02T11:38:47Z</time>
      </trkpt>
      <trkpt lat="48.35909" lon="2.12583">
        <ele>79.5</ele>
        <time>2020-07-02T11:38:48Z</time>
      </trkpt>
      <trkpt lat="48.35904" lon="2.12582">
        <ele>79.6</ele>
        <time>2020-07-02T11:38:49Z</time>
      </trkpt>
      <trkpt lat="48.35898" lon="2.1258">
        <ele>79.7</ele>
        <time>2020-07-02T11:38:50Z</time>
      </trkpt>
      <trkpt lat="48.35893" lon="2.12578">
        <ele>79.7</ele>
        <time>2020-07-02T11:38:51Z</time>
      </trkpt>
      <trkpt lat="48.35889" lon="2.12576">
        <ele>79.8</ele>
        <time>2020-07-02T11:38:52Z</time>
      </trkpt>
      <trkpt lat="48.35885" lon="2.12574">
        <ele>79.9</ele>
        <time>2020-07-02T11:38:53Z</time>
      </trkpt>
      <trkpt lat="48.3588" lon="2.1257">
        <ele>80</ele>
        <time>2020-07-02T11:38:54Z</time>
      </trkpt>
      <trkpt lat="48.35875" lon="2.12569">
        <ele>80</ele>
        <time>2020-07-02T11:38:55Z</time>
      </trkpt>
      <trkpt lat="48.3587" lon="2.12568">
        <ele>80.2</ele>
        <time>2020-07-02T11:38:56Z</time>
      </trkpt>
      <trkpt lat="48.35865" lon="2.12566">
        <ele>80.3</ele>
        <time>2020-07-02T11:38:57Z</time>
      </trkpt>
      <trkpt lat="48.3586" lon="2.12565">
        <ele>80.4</ele>
        <time>2020-07-02T11:38:58Z</time>
      </trkpt>
      <trkpt lat="48.35856" lon="2.12563">
        <ele>80.5</ele>
        <time>2020-07-02T11:38:59Z</time>
      </trkpt>
      <trkpt lat="48.35852" lon="2.12562">
        <ele>80.6</ele>
        <time>2020-07-02T11:39:00Z</time>
      </trkpt>
      <trkpt lat="48.35847" lon="2.1256">
        <ele>80.8</ele>
        <time>2020-07-02T11:39:01Z</time>
      </trkpt>
      <trkpt lat="48.35841" lon="2.12557">
        <ele>81</ele>
        <time>2020-07-02T11:39:02Z</time>
      </trkpt>
      <trkpt lat="48.35837" lon="2.12554">
        <ele>81.2</ele>
        <time>2020-07-02T11:39:03Z</time>
      </trkpt>
      <trkpt lat="48.35832" lon="2.12554">
        <ele>81.4</ele>
        <time>2020-07-02T11:39:04Z</time>
      </trkpt>
      <trkpt lat="48.35827" lon="2.12551">
        <ele>81.6</ele>
        <time>2020-07-02T11:39:05Z</time>
      </trkpt>
      <trkpt lat="48.35824" lon="2.1255">
        <ele>81.7</ele>
        <time>2020-07-02T11:39:06Z</time>
      </trkpt>
      <trkpt lat="48.35818" lon="2.12547">
        <ele>81.9</ele>
        <time>2020-07-02T11:39:07Z</time>
      </trkpt>
      <trkpt lat="48.35813" lon="2.12544">
        <ele>82.1</ele>
        <time>2020-07-02T11:39:08Z</time>
      </trkpt>
      <trkpt lat="48.35808" lon="2.12542">
        <ele>82.3</ele>
        <time>2020-07-02T11:39:09Z</time>
      </trkpt>
      <trkpt lat="48.35803" lon="2.1254">
        <ele>82.4</ele>
        <time>2020-07-02T11:39:10Z</time>
      </trkpt>
      <trkpt lat="48.35799" lon="2.12539">
        <ele>82.6</ele>
        <time>2020-07-02T11:39:11Z</time>
      </trkpt>
      <trkpt lat="48.35795" lon="2.12537">
        <ele>82.8</ele>
        <time>2020-07-02T11:39:12Z</time>
      </trkpt>
      <trkpt lat="48.35791" lon="2.12535">
        <ele>82.9</ele>
        <time>2020-07-02T11:39:13Z</time>
      </trkpt>
      <trkpt lat="48.35786" lon="2.12533">
        <ele>83.1</ele>
        <time>2020-07-02T11:39:14Z</time>
      </trkpt>
      <trkpt lat="48.35782" lon="2.12531">
        <ele>83.3</ele>
        <time>2020-07-02T11:39:15Z</time>
      </trkpt>
      <trkpt lat="48.35777" lon="2.12529">
        <ele>83.5</ele>
        <time>2020-07-02T11:39:16Z</time>
      </trkpt>
      <trkpt lat="48.35772" lon="2.12526">
        <ele>83.6</ele>
        <time>2020-07-02T11:39:17Z</time>
      </trkpt>
      <trkpt lat="48.35768" lon="2.12522">
        <ele>83.6</ele>
        <time>2020-07-02T11:39:18Z</time>
      </trkpt>
      <trkpt lat="48.35763" lon="2.12518">
        <ele>83.7</ele>
        <time>2020-07-02T11:39:19Z</time>
      </trkpt>
      <trkpt lat="48.35759" lon="2.12514">
        <ele>83.7</ele>
        <time>2020-07-02T11:39:20Z</time>
      </trkpt>
      <trkpt lat="48.35755" lon="2.1251">
        <ele>83.8</ele>
        <time>2020-07-02T11:39:21Z</time>
      </trkpt>
      <trkpt lat="48.35751" lon="2.12506">
        <ele>83.8</ele>
        <time>2020-07-02T11:39:22Z</time>
      </trkpt>
      <trkpt lat="48.35747" lon="2.12501">
        <ele>83.9</ele>
        <time>2020-07-02T11:39:23Z</time>
      </trkpt>
      <trkpt lat="48.35743" lon="2.12496">
        <ele>83.9</ele>
        <time>2020-07-02T11:39:24Z</time>
      </trkpt>
      <trkpt lat="48.35741" lon="2.1249">
        <ele>83.9</ele>
        <time>2020-07-02T11:39:25Z</time>
      </trkpt>
      <trkpt lat="48.35736" lon="2.12486">
        <ele>83.9</ele>
        <time>2020-07-02T11:39:26Z</time>
      </trkpt>
      <trkpt lat="48.35733" lon="2.12483">
        <ele>83.9</ele>
        <time>2020-07-02T11:39:27Z</time>
      </trkpt>
      <trkpt lat="48.35729" lon="2.12479">
        <ele>83.8</ele>
        <time>2020-07-02T11:39:28Z</time>
      </trkpt>
      <trkpt lat="48.35726" lon="2.12473">
        <ele>83.7</ele>
        <time>2020-07-02T11:39:29Z</time>
      </trkpt>
      <trkpt lat="48.35719" lon="2.12468">
        <ele>83.5</ele>
        <time>2020-07-02T11:39:30Z</time>
      </trkpt>
      <trkpt lat="48.35713" lon="2.12465">
        <ele>83.3</ele>
        <time>2020-07-02T11:39:31Z</time>
      </trkpt>
      <trkpt lat="48.35709" lon="2.1246">
        <ele>83.1</ele>
        <time>2020-07-02T11:39:32Z</time>
      </trkpt>
      <trkpt lat="48.35704" lon="2.12455">
        <ele>82.8</ele>
        <time>2020-07-02T11:39:33Z</time>
      </trkpt>
      <trkpt lat="48.35698" lon="2.12449">
        <ele>82.6</ele>
        <time>2020-07-02T11:39:34Z</time>
      </trkpt>
      <trkpt lat="48.35691" lon="2.12444">
        <ele>82.4</ele>
        <time>2020-07-02T11:39:35Z</time>
      </trkpt>
      <trkpt lat="48.35685" lon="2.12439">
        <ele>82.2</ele>
        <time>2020-07-02T11:39:36Z</time>
      </trkpt>
      <trkpt lat="48.35679" lon="2.12433">
        <ele>82</ele>
        <time>2020-07-02T11:39:37Z</time>
      </trkpt>
      <trkpt lat="48.35671" lon="2.12429">
        <ele>81.8</ele>
        <time>2020-07-02T11:39:38Z</time>
      </trkpt>
      <trkpt lat="48.35666" lon="2.12426">
        <ele>81.7</ele>
        <time>2020-07-02T11:39:39Z</time>
      </trkpt>
      <trkpt lat="48.3566" lon="2.12421">
        <ele>81.6</ele>
        <time>2020-07-02T11:39:40Z</time>
      </trkpt>
      <trkpt lat="48.35655" lon="2.12418">
        <ele>81.5</ele>
        <time>2020-07-02T11:39:41Z</time>
      </trkpt>
      <trkpt lat="48.35649" lon="2.12414">
        <ele>81.3</ele>
        <time>2020-07-02T11:39:42Z</time>
      </trkpt>
      <trkpt lat="48.35642" lon="2.12409">
        <ele>81.3</ele>
        <time>2020-07-02T11:39:43Z</time>
      </trkpt>
      <trkpt lat="48.35635" lon="2.12405">
        <ele>81.2</ele>
        <time>2020-07-02T11:39:44Z</time>
      </trkpt>
      <trkpt lat="48.35629" lon="2.12403">
        <ele>81.2</ele>
        <time>2020-07-02T11:39:45Z</time>
      </trkpt>
      <trkpt lat="48.35624" lon="2.124">
        <ele>81.2</ele>
        <time>2020-07-02T11:39:46Z</time>
      </trkpt>
      <trkpt lat="48.35619" lon="2.12397">
        <ele>81.2</ele>
        <time>2020-07-02T11:39:47Z</time>
      </trkpt>
      <trkpt lat="48.35614" lon="2.12394">
        <ele>81.3</ele>
        <time>2020-07-02T11:39:48Z</time>
      </trkpt>
      <trkpt lat="48.35609" lon="2.1239">
        <ele>81.3</ele>
        <time>2020-07-02T11:39:49Z</time>
      </trkpt>
      <trkpt lat="48.35605" lon="2.12386">
        <ele>81.4</ele>
        <time>2020-07-02T11:39:50Z</time>
      </trkpt>
      <trkpt lat="48.35601" lon="2.12382">
        <ele>81.4</ele>
        <time>2020-07-02T11:39:51Z</time>
      </trkpt>
      <trkpt lat="48.35596" lon="2.12379">
        <ele>81.4</ele>
        <time>2020-07-02T11:39:52Z</time>
      </trkpt>
      <trkpt lat="48.3559" lon="2.12379">
        <ele>81.7</ele>
        <time>2020-07-02T11:39:53Z</time>
      </trkpt>
      <trkpt lat="48.35585" lon="2.12377">
        <ele>81.8</ele>
        <time>2020-07-02T11:39:54Z</time>
      </trkpt>
      <trkpt lat="48.35579" lon="2.12374">
        <ele>81.9</ele>
        <time>2020-07-02T11:39:55Z</time>
      </trkpt>
      <trkpt lat="48.35574" lon="2.12373">
        <ele>82</ele>
        <time>2020-07-02T11:39:56Z</time>
      </trkpt>
      <trkpt lat="48.35568" lon="2.12371">
        <ele>82.1</ele>
        <time>2020-07-02T11:39:57Z</time>
      </trkpt>
      <trkpt lat="48.35563" lon="2.12368">
        <ele>82.2</ele>
        <time>2020-07-02T11:39:58Z</time>
      </trkpt>
      <trkpt lat="48.35557" lon="2.12364">
        <ele>82.3</ele>
        <time>2020-07-02T11:39:59Z</time>
      </trkpt>
      <trkpt lat="48.35553" lon="2.12359">
        <ele>82.3</ele>
        <time>2020-07-02T11:40:00Z</time>
      </trkpt>
      <trkpt lat="48.35547" lon="2.12354">
        <ele>82.5</ele>
        <time>2020-07-02T11:40:01Z</time>
      </trkpt>
      <trkpt lat="48.35541" lon="2.12349">
        <ele>82.6</ele>
        <time>2020-07-02T11:40:02Z</time>
      </trkpt>
      <trkpt lat="48.35536" lon="2.12344">
        <ele>82.7</ele>
        <time>2020-07-02T11:40:03Z</time>
      </trkpt>
      <trkpt lat="48.35532" lon="2.12339">
        <ele>82.8</ele>
        <time>2020-07-02T11:40:04Z</time>
      </trkpt>
      <trkpt lat="48.35527" lon="2.12335">
        <ele>82.9</ele>
        <time>2020-07-02T11:40:05Z</time>
      </trkpt>
      <trkpt lat="48.35521" lon="2.12331">
        <ele>83.1</ele>
        <time>2020-07-02T11:40:06Z</time>
      </trkpt>
      <trkpt lat="48.35515" lon="2.12326">
        <ele>83.2</ele>
        <time>2020-07-02T11:40:07Z</time>
      </trkpt>
      <trkpt lat="48.3551" lon="2.12323">
        <ele>83.3</ele>
        <time>2020-07-02T11:40:08Z</time>
      </trkpt>
      <trkpt lat="48.35505" lon="2.12319">
        <ele>83.3</ele>
        <time>2020-07-02T11:40:09Z</time>
      </trkpt>
      <trkpt lat="48.355" lon="2.12314">
        <ele>83.4</ele>
        <time>2020-07-02T11:40:10Z</time>
      </trkpt>
      <trkpt lat="48.35496" lon="2.12308">
        <ele>83.5</ele>
        <time>2020-07-02T11:40:11Z</time>
      </trkpt>
      <trkpt lat="48.3549" lon="2.12303">
        <ele>83.6</ele>
        <time>2020-07-02T11:40:12Z</time>
      </trkpt>
      <trkpt lat="48.35485" lon="2.12297">
        <ele>83.7</ele>
        <time>2020-07-02T11:40:13Z</time>
      </trkpt>
      <trkpt lat="48.35479" lon="2.12291">
        <ele>83.7</ele>
        <time>2020-07-02T11:40:14Z</time>
      </trkpt>
      <trkpt lat="48.35474" lon="2.12285">
        <ele>83.8</ele>
        <time>2020-07-02T11:40:15Z</time>
      </trkpt>
      <trkpt lat="48.35467" lon="2.12278">
        <ele>83.9</ele>
        <time>2020-07-02T11:40:16Z</time>
      </trkpt>
      <trkpt lat="48.35462" lon="2.12273">
        <ele>84</ele>
        <time>2020-07-02T11:40:17Z</time>
      </trkpt>
      <trkpt lat="48.35459" lon="2.12271">
        <ele>84.1</ele>
        <time>2020-07-02T11:40:18Z</time>
      </trkpt>
      <trkpt lat="48.35455" lon="2.12266">
        <ele>84.2</ele>
        <time>2020-07-02T11:40:19Z</time>
      </trkpt>
      <trkpt lat="48.3545" lon="2.12261">
        <ele>84.4</ele>
        <time>2020-07-02T11:40:20Z</time>
      </trkpt>
      <trkpt lat="48.35445" lon="2.12256">
        <ele>84.6</ele>
        <time>2020-07-02T11:40:21Z</time>
      </trkpt>
      <trkpt lat="48.3544" lon="2.12253">
        <ele>84.9</ele>
        <time>2020-07-02T11:40:22Z</time>
      </trkpt>
      <trkpt lat="48.35434" lon="2.1225">
        <ele>85.2</ele>
        <time>2020-07-02T11:40:23Z</time>
      </trkpt>
      <trkpt lat="48.35429" lon="2.12247">
        <ele>85.5</ele>
        <time>2020-07-02T11:40:24Z</time>
      </trkpt>
      <trkpt lat="48.35423" lon="2.12244">
        <ele>85.8</ele>
        <time>2020-07-02T11:40:25Z</time>
      </trkpt>
      <trkpt lat="48.35419" lon="2.12242">
        <ele>86.1</ele>
        <time>2020-07-02T11:40:26Z</time>
      </trkpt>
      <trkpt lat="48.35416" lon="2.12243">
        <ele>86.3</ele>
        <time>2020-07-02T11:40:27Z</time>
      </trkpt>
      <trkpt lat="48.35411" lon="2.12241">
        <ele>86.6</ele>
        <time>2020-07-02T11:40:28Z</time>
      </trkpt>
      <trkpt lat="48.35408" lon="2.12239">
        <ele>86.8</ele>
        <time>2020-07-02T11:40:29Z</time>
      </trkpt>
      <trkpt lat="48.35405" lon="2.12236">
        <ele>87.1</ele>
        <time>2020-07-02T11:40:30Z</time>
      </trkpt>
      <trkpt lat="48.354" lon="2.12234">
        <ele>87.4</ele>
        <time>2020-07-02T11:40:31Z</time>
      </trkpt>
      <trkpt lat="48.35398" lon="2.12235">
        <ele>87.6</ele>
        <time>2020-07-02T11:40:32Z</time>
      </trkpt>
      <trkpt lat="48.35394" lon="2.12233">
        <ele>87.9</ele>
        <time>2020-07-02T11:40:33Z</time>
      </trkpt>
      <trkpt lat="48.3539" lon="2.1223">
        <ele>88.2</ele>
        <time>2020-07-02T11:40:34Z</time>
      </trkpt>
      <trkpt lat="48.35387" lon="2.12227">
        <ele>88.5</ele>
        <time>2020-07-02T11:40:35Z</time>
      </trkpt>
      <trkpt lat="48.35385" lon="2.12225">
        <ele>88.7</ele>
        <time>2020-07-02T11:40:36Z</time>
      </trkpt>
      <trkpt lat="48.35382" lon="2.12221">
        <ele>89</ele>
        <time>2020-07-02T11:40:37Z</time>
      </trkpt>
      <trkpt lat="48.35379" lon="2.12218">
        <ele>89.3</ele>
        <time>2020-07-02T11:40:38Z</time>
      </trkpt>
      <trkpt lat="48.35375" lon="2.12214">
        <ele>89.7</ele>
        <time>2020-07-02T11:40:39Z</time>
      </trkpt>
      <trkpt lat="48.35371" lon="2.12211">
        <ele>90</ele>
        <time>2020-07-02T11:40:40Z</time>
      </trkpt>
      <trkpt lat="48.35369" lon="2.12209">
        <ele>90.2</ele>
        <time>2020-07-02T11:40:41Z</time>
      </trkpt>
      <trkpt lat="48.35366" lon="2.12205">
        <ele>90.5</ele>
        <time>2020-07-02T11:40:42Z</time>
      </trkpt>
      <trkpt lat="48.35364" lon="2.12203">
        <ele>90.7</ele>
        <time>2020-07-02T11:40:43Z</time>
      </trkpt>
      <trkpt lat="48.3536" lon="2.12201">
        <ele>91</ele>
        <time>2020-07-02T11:40:44Z</time>
      </trkpt>
      <trkpt lat="48.35359" lon="2.12201">
        <ele>91.1</ele>
        <time>2020-07-02T11:40:45Z</time>
      </trkpt>
      <trkpt lat="48.35356" lon="2.12198">
        <ele>91.4</ele>
        <time>2020-07-02T11:40:46Z</time>
      </trkpt>
      <trkpt lat="48.35354" lon="2.12197">
        <ele>91.5</ele>
        <time>2020-07-02T11:40:47Z</time>
      </trkpt>
      <trkpt lat="48.35351" lon="2.12194">
        <ele>91.8</ele>
        <time>2020-07-02T11:40:48Z</time>
      </trkpt>
      <trkpt lat="48.35348" lon="2.12192">
        <ele>92.1</ele>
        <time>2020-07-02T11:40:49Z</time>
      </trkpt>
      <trkpt lat="48.35347" lon="2.1219">
        <ele>92.2</ele>
        <time>2020-07-02T11:40:50Z</time>
      </trkpt>
      <trkpt lat="48.35343" lon="2.12187">
        <ele>92.5</ele>
        <time>2020-07-02T11:40:51Z</time>
      </trkpt>
      <trkpt lat="48.35342" lon="2.12187">
        <ele>92.6</ele>
        <time>2020-07-02T11:40:52Z</time>
      </trkpt>
      <trkpt lat="48.3534" lon="2.12184">
        <ele>92.7</ele>
        <time>2020-07-02T11:40:53Z</time>
      </trkpt>
      <trkpt lat="48.35339" lon="2.12183">
        <ele>92.8</ele>
        <time>2020-07-02T11:40:54Z</time>
      </trkpt>
      <trkpt lat="48.35337" lon="2.12181">
        <ele>93</ele>
        <time>2020-07-02T11:40:55Z</time>
      </trkpt>
      <trkpt lat="48.35336" lon="2.12181">
        <ele>93</ele>
        <time>2020-07-02T11:40:56Z</time>
      </trkpt>
      <trkpt lat="48.35332" lon="2.12176">
        <ele>93.2</ele>
        <time>2020-07-02T11:40:57Z</time>
      </trkpt>
      <trkpt lat="48.35329" lon="2.12173">
        <ele>93.3</ele>
        <time>2020-07-02T11:40:58Z</time>
      </trkpt>
      <trkpt lat="48.35327" lon="2.1217">
        <ele>93.5</ele>
        <time>2020-07-02T11:40:59Z</time>
      </trkpt>
      <trkpt lat="48.35326" lon="2.12169">
        <ele>93.5</ele>
        <time>2020-07-02T11:41:00Z</time>
      </trkpt>
      <trkpt lat="48.35323" lon="2.12164">
        <ele>93.7</ele>
        <time>2020-07-02T11:41:01Z</time>
      </trkpt>
      <trkpt lat="48.35322" lon="2.12161">
        <ele>93.7</ele>
        <time>2020-07-02T11:41:02Z</time>
      </trkpt>
      <trkpt lat="48.3532" lon="2.12156">
        <ele>93.9</ele>
        <time>2020-07-02T11:41:03Z</time>
      </trkpt>
      <trkpt lat="48.35319" lon="2.12154">
        <ele>94</ele>
        <time>2020-07-02T11:41:04Z</time>
      </trkpt>
      <trkpt lat="48.35318" lon="2.1215">
        <ele>94.1</ele>
        <time>2020-07-02T11:41:05Z</time>
      </trkpt>
      <trkpt lat="48.35316" lon="2.12146">
        <ele>94.2</ele>
        <time>2020-07-02T11:41:06Z</time>
      </trkpt>
      <trkpt lat="48.35314" lon="2.1214">
        <ele>94.4</ele>
        <time>2020-07-02T11:41:07Z</time>
      </trkpt>
      <trkpt lat="48.35313" lon="2.12136">
        <ele>94.5</ele>
        <time>2020-07-02T11:41:08Z</time>
      </trkpt>
      <trkpt lat="48.35311" lon="2.12132">
        <ele>94.6</ele>
        <time>2020-07-02T11:41:09Z</time>
      </trkpt>
      <trkpt lat="48.35309" lon="2.12128">
        <ele>94.8</ele>
        <time>2020-07-02T11:41:10Z</time>
      </trkpt>
      <trkpt lat="48.35308" lon="2.12123">
        <ele>94.9</ele>
        <time>2020-07-02T11:41:11Z</time>
      </trkpt>
      <trkpt lat="48.35306" lon="2.12119">
        <ele>95</ele>
        <time>2020-07-02T11:41:12Z</time>
      </trkpt>
      <trkpt lat="48.35303" lon="2.12114">
        <ele>95.2</ele>
        <time>2020-07-02T11:41:13Z</time>
      </trkpt>
      <trkpt lat="48.35302" lon="2.12113">
        <ele>95.3</ele>
        <time>2020-07-02T11:41:14Z</time>
      </trkpt>
      <trkpt lat="48.35299" lon="2.12111">
        <ele>95.4</ele>
        <time>2020-07-02T11:41:15Z</time>
      </trkpt>
      <trkpt lat="48.35298" lon="2.12109">
        <ele>95.5</ele>
        <time>2020-07-02T11:41:16Z</time>
      </trkpt>
      <trkpt lat="48.35297" lon="2.12105">
        <ele>95.6</ele>
        <time>2020-07-02T11:41:17Z</time>
      </trkpt>
      <trkpt lat="48.35295" lon="2.121">
        <ele>95.8</ele>
        <time>2020-07-02T11:41:18Z</time>
      </trkpt>
      <trkpt lat="48.35293" lon="2.12095">
        <ele>96</ele>
        <time>2020-07-02T11:41:19Z</time>
      </trkpt>
      <trkpt lat="48.35292" lon="2.1209">
        <ele>96.2</ele>
        <time>2020-07-02T11:41:20Z</time>
      </trkpt>
      <trkpt lat="48.3529" lon="2.12087">
        <ele>96.3</ele>
        <time>2020-07-02T11:41:21Z</time>
      </trkpt>
      <trkpt lat="48.35288" lon="2.12083">
        <ele>96.5</ele>
        <time>2020-07-02T11:41:22Z</time>
      </trkpt>
      <trkpt lat="48.35286" lon="2.12078">
        <ele>96.7</ele>
        <time>2020-07-02T11:41:23Z</time>
      </trkpt>
      <trkpt lat="48.35284" lon="2.12075">
        <ele>96.9</ele>
        <time>2020-07-02T11:41:24Z</time>
      </trkpt>
      <trkpt lat="48.35282" lon="2.12073">
        <ele>96.9</ele>
        <time>2020-07-02T11:41:25Z</time>
      </trkpt>
      <trkpt lat="48.35281" lon="2.12071">
        <ele>97</ele>
        <time>2020-07-02T11:41:26Z</time>
      </trkpt>
      <trkpt lat="48.35279" lon="2.12067">
        <ele>97.2</ele>
        <time>2020-07-02T11:41:27Z</time>
      </trkpt>
      <trkpt lat="48.35279" lon="2.12065">
        <ele>97.3</ele>
        <time>2020-07-02T11:41:28Z</time>
      </trkpt>
      <trkpt lat="48.35278" lon="2.1206">
        <ele>97.4</ele>
        <time>2020-07-02T11:41:29Z</time>
      </trkpt>
      <trkpt lat="48.35277" lon="2.12054">
        <ele>97.7</ele>
        <time>2020-07-02T11:41:30Z</time>
      </trkpt>
      <trkpt lat="48.35276" lon="2.12052">
        <ele>97.7</ele>
        <time>2020-07-02T11:41:31Z</time>
      </trkpt>
      <trkpt lat="48.35274" lon="2.12048">
        <ele>97.9</ele>
        <time>2020-07-02T11:41:32Z</time>
      </trkpt>
      <trkpt lat="48.35273" lon="2.12046">
        <ele>98</ele>
        <time>2020-07-02T11:41:33Z</time>
      </trkpt>
      <trkpt lat="48.35272" lon="2.12043">
        <ele>98.1</ele>
        <time>2020-07-02T11:41:34Z</time>
      </trkpt>
      <trkpt lat="48.35272" lon="2.12038">
        <ele>98.3</ele>
        <time>2020-07-02T11:41:35Z</time>
      </trkpt>
      <trkpt lat="48.35271" lon="2.12032">
        <ele>98.5</ele>
        <time>2020-07-02T11:41:36Z</time>
      </trkpt>
      <trkpt lat="48.35271" lon="2.12027">
        <ele>98.7</ele>
        <time>2020-07-02T11:41:37Z</time>
      </trkpt>
      <trkpt lat="48.3527" lon="2.12022">
        <ele>98.9</ele>
        <time>2020-07-02T11:41:38Z</time>
      </trkpt>
      <trkpt lat="48.35269" lon="2.12018">
        <ele>99.1</ele>
        <time>2020-07-02T11:41:39Z</time>
      </trkpt>
      <trkpt lat="48.35268" lon="2.12013">
        <ele>99.2</ele>
        <time>2020-07-02T11:41:40Z</time>
      </trkpt>
      <trkpt lat="48.35267" lon="2.12009">
        <ele>99.4</ele>
        <time>2020-07-02T11:41:41Z</time>
      </trkpt>
      <trkpt lat="48.35266" lon="2.12004">
        <ele>99.6</ele>
        <time>2020-07-02T11:41:42Z</time>
      </trkpt>
      <trkpt lat="48.35264" lon="2.11999">
        <ele>99.8</ele>
        <time>2020-07-02T11:41:43Z</time>
      </trkpt>
      <trkpt lat="48.35263" lon="2.11995">
        <ele>100</ele>
        <time>2020-07-02T11:41:44Z</time>
      </trkpt>
      <trkpt lat="48.35262" lon="2.11991">
        <ele>100.2</ele>
        <time>2020-07-02T11:41:45Z</time>
      </trkpt>
      <trkpt lat="48.3526" lon="2.11986">
        <ele>100.4</ele>
        <time>2020-07-02T11:41:46Z</time>
      </trkpt>
      <trkpt lat="48.3526" lon="2.11984">
        <ele>100.5</ele>
        <time>2020-07-02T11:41:47Z</time>
      </trkpt>
      <trkpt lat="48.35259" lon="2.11979">
        <ele>100.7</ele>
        <time>2020-07-02T11:41:48Z</time>
      </trkpt>
      <trkpt lat="48.35258" lon="2.11975">
        <ele>100.9</ele>
        <time>2020-07-02T11:41:49Z</time>
      </trkpt>
      <trkpt lat="48.35257" lon="2.11971">
        <ele>101.1</ele>
        <time>2020-07-02T11:41:50Z</time>
      </trkpt>
      <trkpt lat="48.35255" lon="2.11968">
        <ele>101.2</ele>
        <time>2020-07-02T11:41:51Z</time>
      </trkpt>
      <trkpt lat="48.35253" lon="2.11963">
        <ele>101.5</ele>
        <time>2020-07-02T11:41:52Z</time>
      </trkpt>
      <trkpt lat="48.35252" lon="2.11962">
        <ele>101.6</ele>
        <time>2020-07-02T11:41:53Z</time>
      </trkpt>
      <trkpt lat="48.35249" lon="2.1196">
        <ele>101.7</ele>
        <time>2020-07-02T11:41:54Z</time>
      </trkpt>
      <trkpt lat="48.35246" lon="2.11958">
        <ele>101.9</ele>
        <time>2020-07-02T11:41:55Z</time>
      </trkpt>
      <trkpt lat="48.35245" lon="2.11958">
        <ele>102</ele>
        <time>2020-07-02T11:41:56Z</time>
      </trkpt>
      <trkpt lat="48.35242" lon="2.11957">
        <ele>102.2</ele>
        <time>2020-07-02T11:41:57Z</time>
      </trkpt>
      <trkpt lat="48.35239" lon="2.11956">
        <ele>102.3</ele>
        <time>2020-07-02T11:41:58Z</time>
      </trkpt>
      <trkpt lat="48.35235" lon="2.11955">
        <ele>102.4</ele>
        <time>2020-07-02T11:41:59Z</time>
      </trkpt>
      <trkpt lat="48.35233" lon="2.11954">
        <ele>102.4</ele>
        <time>2020-07-02T11:42:00Z</time>
      </trkpt>
      <trkpt lat="48.35229" lon="2.11954">
        <ele>102.5</ele>
        <time>2020-07-02T11:42:01Z</time>
      </trkpt>
      <trkpt lat="48.35225" lon="2.11954">
        <ele>102.5</ele>
        <time>2020-07-02T11:42:02Z</time>
      </trkpt>
      <trkpt lat="48.35223" lon="2.11954">
        <ele>102.5</ele>
        <time>2020-07-02T11:42:03Z</time>
      </trkpt>
      <trkpt lat="48.35219" lon="2.11954">
        <ele>102.6</ele>
        <time>2020-07-02T11:42:04Z</time>
      </trkpt>
      <trkpt lat="48.35215" lon="2.11954">
        <ele>102.7</ele>
        <time>2020-07-02T11:42:05Z</time>
      </trkpt>
      <trkpt lat="48.35212" lon="2.11953">
        <ele>102.8</ele>
        <time>2020-07-02T11:42:06Z</time>
      </trkpt>
      <trkpt lat="48.35208" lon="2.11952">
        <ele>102.9</ele>
        <time>2020-07-02T11:42:07Z</time>
      </trkpt>
      <trkpt lat="48.35203" lon="2.1195">
        <ele>103.1</ele>
        <time>2020-07-02T11:42:08Z</time>
      </trkpt>
      <trkpt lat="48.35199" lon="2.11947">
        <ele>103.3</ele>
        <time>2020-07-02T11:42:09Z</time>
      </trkpt>
      <trkpt lat="48.35196" lon="2.11945">
        <ele>103.4</ele>
        <time>2020-07-02T11:42:10Z</time>
      </trkpt>
      <trkpt lat="48.35194" lon="2.11941">
        <ele>103.6</ele>
        <time>2020-07-02T11:42:11Z</time>
      </trkpt>
      <trkpt lat="48.35191" lon="2.11937">
        <ele>103.7</ele>
        <time>2020-07-02T11:42:12Z</time>
      </trkpt>
      <trkpt lat="48.3519" lon="2.11933">
        <ele>103.8</ele>
        <time>2020-07-02T11:42:13Z</time>
      </trkpt>
      <trkpt lat="48.35188" lon="2.11928">
        <ele>104</ele>
        <time>2020-07-02T11:42:14Z</time>
      </trkpt>
      <trkpt lat="48.35186" lon="2.11924">
        <ele>104.2</ele>
        <time>2020-07-02T11:42:15Z</time>
      </trkpt>
      <trkpt lat="48.35183" lon="2.11919">
        <ele>104.3</ele>
        <time>2020-07-02T11:42:16Z</time>
      </trkpt>
      <trkpt lat="48.35182" lon="2.11917">
        <ele>104.4</ele>
        <time>2020-07-02T11:42:17Z</time>
      </trkpt>
      <trkpt lat="48.3518" lon="2.11912">
        <ele>104.6</ele>
        <time>2020-07-02T11:42:18Z</time>
      </trkpt>
      <trkpt lat="48.35177" lon="2.11906">
        <ele>104.8</ele>
        <time>2020-07-02T11:42:19Z</time>
      </trkpt>
      <trkpt lat="48.35176" lon="2.11901">
        <ele>105</ele>
        <time>2020-07-02T11:42:20Z</time>
      </trkpt>
      <trkpt lat="48.35174" lon="2.11897">
        <ele>105.1</ele>
        <time>2020-07-02T11:42:21Z</time>
      </trkpt>
      <trkpt lat="48.35173" lon="2.11892">
        <ele>105.3</ele>
        <time>2020-07-02T11:42:22Z</time>
      </trkpt>
      <trkpt lat="48.35169" lon="2.11887">
        <ele>105.5</ele>
        <time>2020-07-02T11:42:23Z</time>
      </trkpt>
      <trkpt lat="48.35168" lon="2.11884">
        <ele>105.6</ele>
        <time>2020-07-02T11:42:24Z</time>
      </trkpt>
      <trkpt lat="48.35166" lon="2.1188">
        <ele>105.8</ele>
        <time>2020-07-02T11:42:25Z</time>
      </trkpt>
      <trkpt lat="48.35163" lon="2.11876">
        <ele>106</ele>
        <time>2020-07-02T11:42:26Z</time>
      </trkpt>
      <trkpt lat="48.3516" lon="2.1187">
        <ele>106.2</ele>
        <time>2020-07-02T11:42:27Z</time>
      </trkpt>
      <trkpt lat="48.35158" lon="2.11867">
        <ele>106.4</ele>
        <time>2020-07-02T11:42:28Z</time>
      </trkpt>
      <trkpt lat="48.35156" lon="2.11862">
        <ele>106.6</ele>
        <time>2020-07-02T11:42:29Z</time>
      </trkpt>
      <trkpt lat="48.35155" lon="2.11859">
        <ele>106.7</ele>
        <time>2020-07-02T11:42:30Z</time>
      </trkpt>
      <trkpt lat="48.35154" lon="2.11855">
        <ele>106.8</ele>
        <time>2020-07-02T11:42:31Z</time>
      </trkpt>
      <trkpt lat="48.35152" lon="2.1185">
        <ele>107</ele>
        <time>2020-07-02T11:42:32Z</time>
      </trkpt>
      <trkpt lat="48.35151" lon="2.11847">
        <ele>107.1</ele>
        <time>2020-07-02T11:42:33Z</time>
      </trkpt>
      <trkpt lat="48.35149" lon="2.11843">
        <ele>107.3</ele>
        <time>2020-07-02T11:42:34Z</time>
      </trkpt>
      <trkpt lat="48.35147" lon="2.11839">
        <ele>107.5</ele>
        <time>2020-07-02T11:42:35Z</time>
      </trkpt>
      <trkpt lat="48.35145" lon="2.11834">
        <ele>107.6</ele>
        <time>2020-07-02T11:42:36Z</time>
      </trkpt>
      <trkpt lat="48.35143" lon="2.11829">
        <ele>107.8</ele>
        <time>2020-07-02T11:42:37Z</time>
      </trkpt>
      <trkpt lat="48.35142" lon="2.11826">
        <ele>108</ele>
        <time>2020-07-02T11:42:38Z</time>
      </trkpt>
      <trkpt lat="48.3514" lon="2.11822">
        <ele>108.1</ele>
        <time>2020-07-02T11:42:39Z</time>
      </trkpt>
      <trkpt lat="48.35138" lon="2.11817">
        <ele>108.4</ele>
        <time>2020-07-02T11:42:40Z</time>
      </trkpt>
      <trkpt lat="48.35136" lon="2.11814">
        <ele>108.5</ele>
        <time>2020-07-02T11:42:41Z</time>
      </trkpt>
      <trkpt lat="48.35134" lon="2.1181">
        <ele>108.7</ele>
        <time>2020-07-02T11:42:42Z</time>
      </trkpt>
      <trkpt lat="48.35132" lon="2.11805">
        <ele>108.9</ele>
        <time>2020-07-02T11:42:43Z</time>
      </trkpt>
      <trkpt lat="48.3513" lon="2.11801">
        <ele>109.1</ele>
        <time>2020-07-02T11:42:44Z</time>
      </trkpt>
      <trkpt lat="48.35127" lon="2.11797">
        <ele>109.3</ele>
        <time>2020-07-02T11:42:45Z</time>
      </trkpt>
      <trkpt lat="48.35125" lon="2.11793">
        <ele>109.5</ele>
        <time>2020-07-02T11:42:46Z</time>
      </trkpt>
      <trkpt lat="48.35123" lon="2.11789">
        <ele>109.7</ele>
        <time>2020-07-02T11:42:47Z</time>
      </trkpt>
      <trkpt lat="48.3512" lon="2.11787">
        <ele>109.9</ele>
        <time>2020-07-02T11:42:48Z</time>
      </trkpt>
      <trkpt lat="48.35117" lon="2.11782">
        <ele>110.1</ele>
        <time>2020-07-02T11:42:49Z</time>
      </trkpt>
      <trkpt lat="48.35116" lon="2.1178">
        <ele>110.2</ele>
        <time>2020-07-02T11:42:50Z</time>
      </trkpt>
      <trkpt lat="48.35114" lon="2.11777">
        <ele>110.4</ele>
        <time>2020-07-02T11:42:51Z</time>
      </trkpt>
      <trkpt lat="48.35112" lon="2.11773">
        <ele>110.5</ele>
        <time>2020-07-02T11:42:52Z</time>
      </trkpt>
      <trkpt lat="48.3511" lon="2.1177">
        <ele>110.7</ele>
        <time>2020-07-02T11:42:53Z</time>
      </trkpt>
      <trkpt lat="48.35109" lon="2.11769">
        <ele>110.8</ele>
        <time>2020-07-02T11:42:54Z</time>
      </trkpt>
      <trkpt lat="48.35106" lon="2.11766">
        <ele>110.9</ele>
        <time>2020-07-02T11:42:55Z</time>
      </trkpt>
      <trkpt lat="48.35105" lon="2.11762">
        <ele>111.1</ele>
        <time>2020-07-02T11:42:56Z</time>
      </trkpt>
      <trkpt lat="48.35102" lon="2.11756">
        <ele>111.3</ele>
        <time>2020-07-02T11:42:57Z</time>
      </trkpt>
      <trkpt lat="48.35101" lon="2.11753">
        <ele>111.4</ele>
        <time>2020-07-02T11:42:58Z</time>
      </trkpt>
      <trkpt lat="48.35098" lon="2.11749">
        <ele>111.6</ele>
        <time>2020-07-02T11:42:59Z</time>
      </trkpt>
      <trkpt lat="48.35095" lon="2.11746">
        <ele>111.8</ele>
        <time>2020-07-02T11:43:00Z</time>
      </trkpt>
      <trkpt lat="48.35092" lon="2.11742">
        <ele>112</ele>
        <time>2020-07-02T11:43:01Z</time>
      </trkpt>
      <trkpt lat="48.35089" lon="2.11737">
        <ele>112.2</ele>
        <time>2020-07-02T11:43:02Z</time>
      </trkpt>
      <trkpt lat="48.35087" lon="2.11732">
        <ele>112.4</ele>
        <time>2020-07-02T11:43:03Z</time>
      </trkpt>
      <trkpt lat="48.35085" lon="2.11729">
        <ele>112.6</ele>
        <time>2020-07-02T11:43:04Z</time>
      </trkpt>
      <trkpt lat="48.35082" lon="2.11727">
        <ele>112.8</ele>
        <time>2020-07-02T11:43:05Z</time>
      </trkpt>
      <trkpt lat="48.35079" lon="2.11723">
        <ele>113</ele>
        <time>2020-07-02T11:43:06Z</time>
      </trkpt>
      <trkpt lat="48.35076" lon="2.1172">
        <ele>113.2</ele>
        <time>2020-07-02T11:43:07Z</time>
      </trkpt>
      <trkpt lat="48.35073" lon="2.11716">
        <ele>113.5</ele>
        <time>2020-07-02T11:43:08Z</time>
      </trkpt>
      <trkpt lat="48.35071" lon="2.11712">
        <ele>113.7</ele>
        <time>2020-07-02T11:43:09Z</time>
      </trkpt>
      <trkpt lat="48.35068" lon="2.11708">
        <ele>113.9</ele>
        <time>2020-07-02T11:43:10Z</time>
      </trkpt>
      <trkpt lat="48.35066" lon="2.11704">
        <ele>114.1</ele>
        <time>2020-07-02T11:43:11Z</time>
      </trkpt>
      <trkpt lat="48.35063" lon="2.117">
        <ele>114.4</ele>
        <time>2020-07-02T11:43:12Z</time>
      </trkpt>
      <trkpt lat="48.35061" lon="2.11698">
        <ele>114.5</ele>
        <time>2020-07-02T11:43:13Z</time>
      </trkpt>
      <trkpt lat="48.35059" lon="2.11694">
        <ele>114.7</ele>
        <time>2020-07-02T11:43:14Z</time>
      </trkpt>
      <trkpt lat="48.35055" lon="2.11692">
        <ele>115</ele>
        <time>2020-07-02T11:43:15Z</time>
      </trkpt>
      <trkpt lat="48.35053" lon="2.1169">
        <ele>115.1</ele>
        <time>2020-07-02T11:43:16Z</time>
      </trkpt>
      <trkpt lat="48.35049" lon="2.11686">
        <ele>115.3</ele>
        <time>2020-07-02T11:43:17Z</time>
      </trkpt>
      <trkpt lat="48.35046" lon="2.11682">
        <ele>115.6</ele>
        <time>2020-07-02T11:43:18Z</time>
      </trkpt>
      <trkpt lat="48.35043" lon="2.11679">
        <ele>115.7</ele>
        <time>2020-07-02T11:43:19Z</time>
      </trkpt>
      <trkpt lat="48.3504" lon="2.11675">
        <ele>115.9</ele>
        <time>2020-07-02T11:43:20Z</time>
      </trkpt>
      <trkpt lat="48.35035" lon="2.11672">
        <ele>116.1</ele>
        <time>2020-07-02T11:43:21Z</time>
      </trkpt>
      <trkpt lat="48.35033" lon="2.1167">
        <ele>116.3</ele>
        <time>2020-07-02T11:43:22Z</time>
      </trkpt>
      <trkpt lat="48.3503" lon="2.11668">
        <ele>116.4</ele>
        <time>2020-07-02T11:43:23Z</time>
      </trkpt>
      <trkpt lat="48.35027" lon="2.11665">
        <ele>116.6</ele>
        <time>2020-07-02T11:43:24Z</time>
      </trkpt>
      <trkpt lat="48.35024" lon="2.11662">
        <ele>116.7</ele>
        <time>2020-07-02T11:43:25Z</time>
      </trkpt>
      <trkpt lat="48.35022" lon="2.11658">
        <ele>116.9</ele>
        <time>2020-07-02T11:43:26Z</time>
      </trkpt>
      <trkpt lat="48.35019" lon="2.11656">
        <ele>117</ele>
        <time>2020-07-02T11:43:27Z</time>
      </trkpt>
      <trkpt lat="48.35017" lon="2.11654">
        <ele>117.1</ele>
        <time>2020-07-02T11:43:28Z</time>
      </trkpt>
      <trkpt lat="48.35013" lon="2.1165">
        <ele>117.3</ele>
        <time>2020-07-02T11:43:29Z</time>
      </trkpt>
      <trkpt lat="48.35011" lon="2.11645">
        <ele>117.4</ele>
        <time>2020-07-02T11:43:30Z</time>
      </trkpt>
      <trkpt lat="48.35007" lon="2.11641">
        <ele>117.6</ele>
        <time>2020-07-02T11:43:31Z</time>
      </trkpt>
      <trkpt lat="48.35004" lon="2.11637">
        <ele>117.8</ele>
        <time>2020-07-02T11:43:32Z</time>
      </trkpt>
      <trkpt lat="48.34999" lon="2.11633">
        <ele>117.9</ele>
        <time>2020-07-02T11:43:33Z</time>
      </trkpt>
      <trkpt lat="48.34997" lon="2.1163">
        <ele>118</ele>
        <time>2020-07-02T11:43:34Z</time>
      </trkpt>
      <trkpt lat="48.34993" lon="2.11627">
        <ele>118.2</ele>
        <time>2020-07-02T11:43:35Z</time>
      </trkpt>
      <trkpt lat="48.3499" lon="2.11623">
        <ele>118.4</ele>
        <time>2020-07-02T11:43:36Z</time>
      </trkpt>
      <trkpt lat="48.34986" lon="2.1162">
        <ele>118.5</ele>
        <time>2020-07-02T11:43:37Z</time>
      </trkpt>
      <trkpt lat="48.34983" lon="2.11617">
        <ele>118.6</ele>
        <time>2020-07-02T11:43:38Z</time>
      </trkpt>
      <trkpt lat="48.3498" lon="2.11614">
        <ele>118.8</ele>
        <time>2020-07-02T11:43:39Z</time>
      </trkpt>
      <trkpt lat="48.34977" lon="2.11611">
        <ele>118.9</ele>
        <time>2020-07-02T11:43:40Z</time>
      </trkpt>
      <trkpt lat="48.34974" lon="2.11608">
        <ele>119</ele>
        <time>2020-07-02T11:43:41Z</time>
      </trkpt>
      <trkpt lat="48.34971" lon="2.11605">
        <ele>119.1</ele>
        <time>2020-07-02T11:43:42Z</time>
      </trkpt>
      <trkpt lat="48.34969" lon="2.11602">
        <ele>119.3</ele>
        <time>2020-07-02T11:43:43Z</time>
      </trkpt>
      <trkpt lat="48.34966" lon="2.11598">
        <ele>119.4</ele>
        <time>2020-07-02T11:43:44Z</time>
      </trkpt>
      <trkpt lat="48.34965" lon="2.11597">
        <ele>119.5</ele>
        <time>2020-07-02T11:43:45Z</time>
      </trkpt>
      <trkpt lat="48.34962" lon="2.11595">
        <ele>119.6</ele>
        <time>2020-07-02T11:43:46Z</time>
      </trkpt>
      <trkpt lat="48.34959" lon="2.11592">
        <ele>119.7</ele>
        <time>2020-07-02T11:43:47Z</time>
      </trkpt>
      <trkpt lat="48.34956" lon="2.11589">
        <ele>119.9</ele>
        <time>2020-07-02T11:43:48Z</time>
      </trkpt>
      <trkpt lat="48.34953" lon="2.11587">
        <ele>120</ele>
        <time>2020-07-02T11:43:49Z</time>
      </trkpt>
      <trkpt lat="48.3495" lon="2.11584">
        <ele>120.1</ele>
        <time>2020-07-02T11:43:50Z</time>
      </trkpt>
      <trkpt lat="48.34947" lon="2.11582">
        <ele>120.3</ele>
        <time>2020-07-02T11:43:51Z</time>
      </trkpt>
      <trkpt lat="48.34942" lon="2.11578">
        <ele>120.5</ele>
        <time>2020-07-02T11:43:52Z</time>
      </trkpt>
      <trkpt lat="48.34938" lon="2.11575">
        <ele>120.6</ele>
        <time>2020-07-02T11:43:53Z</time>
      </trkpt>
      <trkpt lat="48.34934" lon="2.11571">
        <ele>120.8</ele>
        <time>2020-07-02T11:43:54Z</time>
      </trkpt>
      <trkpt lat="48.34931" lon="2.11568">
        <ele>120.9</ele>
        <time>2020-07-02T11:43:55Z</time>
      </trkpt>
      <trkpt lat="48.34927" lon="2.11565">
        <ele>121.1</ele>
        <time>2020-07-02T11:43:56Z</time>
      </trkpt>
      <trkpt lat="48.34924" lon="2.11563">
        <ele>121.2</ele>
        <time>2020-07-02T11:43:57Z</time>
      </trkpt>
      <trkpt lat="48.34922" lon="2.11563">
        <ele>121.3</ele>
        <time>2020-07-02T11:43:58Z</time>
      </trkpt>
      <trkpt lat="48.34918" lon="2.1156">
        <ele>121.4</ele>
        <time>2020-07-02T11:43:59Z</time>
      </trkpt>
      <trkpt lat="48.34914" lon="2.11558">
        <ele>121.6</ele>
        <time>2020-07-02T11:44:00Z</time>
      </trkpt>
      <trkpt lat="48.3491" lon="2.11556">
        <ele>121.7</ele>
        <time>2020-07-02T11:44:01Z</time>
      </trkpt>
      <trkpt lat="48.34907" lon="2.11555">
        <ele>121.9</ele>
        <time>2020-07-02T11:44:02Z</time>
      </trkpt>
      <trkpt lat="48.34903" lon="2.11553">
        <ele>122.1</ele>
        <time>2020-07-02T11:44:03Z</time>
      </trkpt>
      <trkpt lat="48.349" lon="2.11551">
        <ele>122.2</ele>
        <time>2020-07-02T11:44:04Z</time>
      </trkpt>
      <trkpt lat="48.34896" lon="2.11549">
        <ele>122.4</ele>
        <time>2020-07-02T11:44:05Z</time>
      </trkpt>
      <trkpt lat="48.34892" lon="2.11546">
        <ele>122.5</ele>
        <time>2020-07-02T11:44:06Z</time>
      </trkpt>
      <trkpt lat="48.34888" lon="2.11544">
        <ele>122.7</ele>
        <time>2020-07-02T11:44:07Z</time>
      </trkpt>
      <trkpt lat="48.34884" lon="2.11542">
        <ele>122.9</ele>
        <time>2020-07-02T11:44:08Z</time>
      </trkpt>
      <trkpt lat="48.34881" lon="2.11541">
        <ele>123</ele>
        <time>2020-07-02T11:44:09Z</time>
      </trkpt>
      <trkpt lat="48.34877" lon="2.11539">
        <ele>123.2</ele>
        <time>2020-07-02T11:44:10Z</time>
      </trkpt>
      <trkpt lat="48.34873" lon="2.1154">
        <ele>123.3</ele>
        <time>2020-07-02T11:44:11Z</time>
      </trkpt>
      <trkpt lat="48.3487" lon="2.11539">
        <ele>123.4</ele>
        <time>2020-07-02T11:44:12Z</time>
      </trkpt>
      <trkpt lat="48.34867" lon="2.11539">
        <ele>123.5</ele>
        <time>2020-07-02T11:44:13Z</time>
      </trkpt>
      <trkpt lat="48.34864" lon="2.11539">
        <ele>123.7</ele>
        <time>2020-07-02T11:44:14Z</time>
      </trkpt>
      <trkpt lat="48.3486" lon="2.11539">
        <ele>123.8</ele>
        <time>2020-07-02T11:44:15Z</time>
      </trkpt>
      <trkpt lat="48.34857" lon="2.11538">
        <ele>123.9</ele>
        <time>2020-07-02T11:44:16Z</time>
      </trkpt>
      <trkpt lat="48.34854" lon="2.11538">
        <ele>124</ele>
        <time>2020-07-02T11:44:17Z</time>
      </trkpt>
      <trkpt lat="48.34851" lon="2.11538">
        <ele>124</ele>
        <time>2020-07-02T11:44:18Z</time>
      </trkpt>
      <trkpt lat="48.34848" lon="2.11538">
        <ele>124.1</ele>
        <time>2020-07-02T11:44:19Z</time>
      </trkpt>
      <trkpt lat="48.34843" lon="2.11538">
        <ele>124.3</ele>
        <time>2020-07-02T11:44:20Z</time>
      </trkpt>
      <trkpt lat="48.34839" lon="2.11539">
        <ele>124.4</ele>
        <time>2020-07-02T11:44:21Z</time>
      </trkpt>
      <trkpt lat="48.34834" lon="2.1154">
        <ele>124.5</ele>
        <time>2020-07-02T11:44:22Z</time>
      </trkpt>
      <trkpt lat="48.34831" lon="2.11539">
        <ele>124.6</ele>
        <time>2020-07-02T11:44:23Z</time>
      </trkpt>
      <trkpt lat="48.34826" lon="2.11539">
        <ele>124.7</ele>
        <time>2020-07-02T11:44:24Z</time>
      </trkpt>
      <trkpt lat="48.34823" lon="2.11541">
        <ele>124.9</ele>
        <time>2020-07-02T11:44:25Z</time>
      </trkpt>
      <trkpt lat="48.34819" lon="2.11542">
        <ele>125</ele>
        <time>2020-07-02T11:44:26Z</time>
      </trkpt>
      <trkpt lat="48.34815" lon="2.11542">
        <ele>125.1</ele>
        <time>2020-07-02T11:44:27Z</time>
      </trkpt>
      <trkpt lat="48.34811" lon="2.11543">
        <ele>125.3</ele>
        <time>2020-07-02T11:44:28Z</time>
      </trkpt>
      <trkpt lat="48.34807" lon="2.11544">
        <ele>125.4</ele>
        <time>2020-07-02T11:44:29Z</time>
      </trkpt>
      <trkpt lat="48.34803" lon="2.11544">
        <ele>125.6</ele>
        <time>2020-07-02T11:44:30Z</time>
      </trkpt>
      <trkpt lat="48.34798" lon="2.11542">
        <ele>125.7</ele>
        <time>2020-07-02T11:44:31Z</time>
      </trkpt>
      <trkpt lat="48.34794" lon="2.11542">
        <ele>125.9</ele>
        <time>2020-07-02T11:44:32Z</time>
      </trkpt>
      <trkpt lat="48.34793" lon="2.11542">
        <ele>125.9</ele>
        <time>2020-07-02T11:44:33Z</time>
      </trkpt>
      <trkpt lat="48.3479" lon="2.11542">
        <ele>126.1</ele>
        <time>2020-07-02T11:44:34Z</time>
      </trkpt>
      <trkpt lat="48.34787" lon="2.11543">
        <ele>126.2</ele>
        <time>2020-07-02T11:44:35Z</time>
      </trkpt>
      <trkpt lat="48.34783" lon="2.11544">
        <ele>126.3</ele>
        <time>2020-07-02T11:44:36Z</time>
      </trkpt>
      <trkpt lat="48.3478" lon="2.11544">
        <ele>126.5</ele>
        <time>2020-07-02T11:44:37Z</time>
      </trkpt>
      <trkpt lat="48.34776" lon="2.11545">
        <ele>126.6</ele>
        <time>2020-07-02T11:44:38Z</time>
      </trkpt>
      <trkpt lat="48.34772" lon="2.11546">
        <ele>126.8</ele>
        <time>2020-07-02T11:44:39Z</time>
      </trkpt>
      <trkpt lat="48.34768" lon="2.11547">
        <ele>126.9</ele>
        <time>2020-07-02T11:44:40Z</time>
      </trkpt>
      <trkpt lat="48.34765" lon="2.11547">
        <ele>127.1</ele>
        <time>2020-07-02T11:44:41Z</time>
      </trkpt>
      <trkpt lat="48.3476" lon="2.11547">
        <ele>127.3</ele>
        <time>2020-07-02T11:44:42Z</time>
      </trkpt>
      <trkpt lat="48.34756" lon="2.11548">
        <ele>127.5</ele>
        <time>2020-07-02T11:44:43Z</time>
      </trkpt>
      <trkpt lat="48.34751" lon="2.11548">
        <ele>127.7</ele>
        <time>2020-07-02T11:44:44Z</time>
      </trkpt>
      <trkpt lat="48.34748" lon="2.11549">
        <ele>127.9</ele>
        <time>2020-07-02T11:44:45Z</time>
      </trkpt>
      <trkpt lat="48.34744" lon="2.11549">
        <ele>128</ele>
        <time>2020-07-02T11:44:46Z</time>
      </trkpt>
      <trkpt lat="48.3474" lon="2.11549">
        <ele>128.2</ele>
        <time>2020-07-02T11:44:47Z</time>
      </trkpt>
      <trkpt lat="48.34736" lon="2.11549">
        <ele>128.4</ele>
        <time>2020-07-02T11:44:48Z</time>
      </trkpt>
      <trkpt lat="48.34732" lon="2.11549">
        <ele>128.5</ele>
        <time>2020-07-02T11:44:49Z</time>
      </trkpt>
      <trkpt lat="48.34728" lon="2.1155">
        <ele>128.7</ele>
        <time>2020-07-02T11:44:50Z</time>
      </trkpt>
      <trkpt lat="48.34724" lon="2.11551">
        <ele>128.9</ele>
        <time>2020-07-02T11:44:51Z</time>
      </trkpt>
      <trkpt lat="48.3472" lon="2.11551">
        <ele>129.1</ele>
        <time>2020-07-02T11:44:52Z</time>
      </trkpt>
      <trkpt lat="48.34716" lon="2.11552">
        <ele>129.3</ele>
        <time>2020-07-02T11:44:53Z</time>
      </trkpt>
      <trkpt lat="48.34714" lon="2.11553">
        <ele>129.4</ele>
        <time>2020-07-02T11:44:54Z</time>
      </trkpt>
      <trkpt lat="48.3471" lon="2.11552">
        <ele>129.6</ele>
        <time>2020-07-02T11:44:55Z</time>
      </trkpt>
      <trkpt lat="48.34708" lon="2.11553">
        <ele>129.8</ele>
        <time>2020-07-02T11:44:56Z</time>
      </trkpt>
      <trkpt lat="48.34704" lon="2.11553">
        <ele>129.9</ele>
        <time>2020-07-02T11:44:57Z</time>
      </trkpt>
      <trkpt lat="48.34701" lon="2.11554">
        <ele>130.1</ele>
        <time>2020-07-02T11:44:58Z</time>
      </trkpt>
      <trkpt lat="48.34698" lon="2.11554">
        <ele>130.3</ele>
        <time>2020-07-02T11:44:59Z</time>
      </trkpt>
      <trkpt lat="48.34694" lon="2.11554">
        <ele>130.4</ele>
        <time>2020-07-02T11:45:00Z</time>
      </trkpt>
      <trkpt lat="48.3469" lon="2.11555">
        <ele>130.6</ele>
        <time>2020-07-02T11:45:01Z</time>
      </trkpt>
      <trkpt lat="48.34687" lon="2.11556">
        <ele>130.8</ele>
        <time>2020-07-02T11:45:02Z</time>
      </trkpt>
      <trkpt lat="48.34683" lon="2.11557">
        <ele>130.9</ele>
        <time>2020-07-02T11:45:03Z</time>
      </trkpt>
      <trkpt lat="48.34681" lon="2.11557">
        <ele>131</ele>
        <time>2020-07-02T11:45:04Z</time>
      </trkpt>
      <trkpt lat="48.34677" lon="2.11558">
        <ele>131.2</ele>
        <time>2020-07-02T11:45:05Z</time>
      </trkpt>
      <trkpt lat="48.34674" lon="2.11559">
        <ele>131.3</ele>
        <time>2020-07-02T11:45:06Z</time>
      </trkpt>
      <trkpt lat="48.34671" lon="2.1156">
        <ele>131.5</ele>
        <time>2020-07-02T11:45:07Z</time>
      </trkpt>
      <trkpt lat="48.34666" lon="2.11561">
        <ele>131.7</ele>
        <time>2020-07-02T11:45:08Z</time>
      </trkpt>
      <trkpt lat="48.34663" lon="2.11562">
        <ele>131.8</ele>
        <time>2020-07-02T11:45:09Z</time>
      </trkpt>
      <trkpt lat="48.34659" lon="2.11562">
        <ele>132</ele>
        <time>2020-07-02T11:45:10Z</time>
      </trkpt>
      <trkpt lat="48.34654" lon="2.11562">
        <ele>132.2</ele>
        <time>2020-07-02T11:45:11Z</time>
      </trkpt>
      <trkpt lat="48.3465" lon="2.11562">
        <ele>132.4</ele>
        <time>2020-07-02T11:45:12Z</time>
      </trkpt>
      <trkpt lat="48.34647" lon="2.11562">
        <ele>132.5</ele>
        <time>2020-07-02T11:45:13Z</time>
      </trkpt>
      <trkpt lat="48.34644" lon="2.11563">
        <ele>132.7</ele>
        <time>2020-07-02T11:45:14Z</time>
      </trkpt>
      <trkpt lat="48.34641" lon="2.11565">
        <ele>132.8</ele>
        <time>2020-07-02T11:45:15Z</time>
      </trkpt>
      <trkpt lat="48.34637" lon="2.11566">
        <ele>133</ele>
        <time>2020-07-02T11:45:16Z</time>
      </trkpt>
      <trkpt lat="48.34634" lon="2.11569">
        <ele>133.1</ele>
        <time>2020-07-02T11:45:17Z</time>
      </trkpt>
      <trkpt lat="48.3463" lon="2.11571">
        <ele>133.2</ele>
        <time>2020-07-02T11:45:18Z</time>
      </trkpt>
      <trkpt lat="48.34626" lon="2.11573">
        <ele>133.3</ele>
        <time>2020-07-02T11:45:19Z</time>
      </trkpt>
      <trkpt lat="48.34623" lon="2.11575">
        <ele>133.4</ele>
        <time>2020-07-02T11:45:20Z</time>
      </trkpt>
      <trkpt lat="48.34621" lon="2.11576">
        <ele>133.4</ele>
        <time>2020-07-02T11:45:21Z</time>
      </trkpt>
      <trkpt lat="48.34618" lon="2.11578">
        <ele>133.5</ele>
        <time>2020-07-02T11:45:22Z</time>
      </trkpt>
      <trkpt lat="48.34615" lon="2.1158">
        <ele>133.5</ele>
        <time>2020-07-02T11:45:23Z</time>
      </trkpt>
      <trkpt lat="48.34611" lon="2.11582">
        <ele>133.6</ele>
        <time>2020-07-02T11:45:24Z</time>
      </trkpt>
      <trkpt lat="48.34607" lon="2.11585">
        <ele>133.7</ele>
        <time>2020-07-02T11:45:25Z</time>
      </trkpt>
      <trkpt lat="48.34603" lon="2.11588">
        <ele>133.8</ele>
        <time>2020-07-02T11:45:26Z</time>
      </trkpt>
      <trkpt lat="48.34599" lon="2.1159">
        <ele>133.9</ele>
        <time>2020-07-02T11:45:27Z</time>
      </trkpt>
      <trkpt lat="48.34595" lon="2.11592">
        <ele>134</ele>
        <time>2020-07-02T11:45:28Z</time>
      </trkpt>
      <trkpt lat="48.34591" lon="2.11595">
        <ele>134.1</ele>
        <time>2020-07-02T11:45:29Z</time>
      </trkpt>
      <trkpt lat="48.34587" lon="2.11598">
        <ele>134.3</ele>
        <time>2020-07-02T11:45:30Z</time>
      </trkpt>
      <trkpt lat="48.34583" lon="2.116">
        <ele>134.4</ele>
        <time>2020-07-02T11:45:31Z</time>
      </trkpt>
      <trkpt lat="48.3458" lon="2.11603">
        <ele>134.5</ele>
        <time>2020-07-02T11:45:32Z</time>
      </trkpt>
      <trkpt lat="48.34576" lon="2.11606">
        <ele>134.5</ele>
        <time>2020-07-02T11:45:33Z</time>
      </trkpt>
      <trkpt lat="48.34572" lon="2.11608">
        <ele>134.6</ele>
        <time>2020-07-02T11:45:34Z</time>
      </trkpt>
      <trkpt lat="48.34569" lon="2.11611">
        <ele>134.6</ele>
        <time>2020-07-02T11:45:35Z</time>
      </trkpt>
      <trkpt lat="48.34565" lon="2.11614">
        <ele>134.7</ele>
        <time>2020-07-02T11:45:36Z</time>
      </trkpt>
      <trkpt lat="48.34561" lon="2.11616">
        <ele>134.7</ele>
        <time>2020-07-02T11:45:37Z</time>
      </trkpt>
      <trkpt lat="48.34556" lon="2.11618">
        <ele>134.7</ele>
        <time>2020-07-02T11:45:38Z</time>
      </trkpt>
      <trkpt lat="48.34552" lon="2.11622">
        <ele>134.8</ele>
        <time>2020-07-02T11:45:39Z</time>
      </trkpt>
      <trkpt lat="48.34548" lon="2.11625">
        <ele>134.8</ele>
        <time>2020-07-02T11:45:40Z</time>
      </trkpt>
      <trkpt lat="48.34545" lon="2.11627">
        <ele>134.8</ele>
        <time>2020-07-02T11:45:41Z</time>
      </trkpt>
      <trkpt lat="48.34541" lon="2.11629">
        <ele>134.8</ele>
        <time>2020-07-02T11:45:42Z</time>
      </trkpt>
      <trkpt lat="48.34537" lon="2.1163">
        <ele>134.9</ele>
        <time>2020-07-02T11:45:43Z</time>
      </trkpt>
      <trkpt lat="48.34532" lon="2.11633">
        <ele>134.9</ele>
        <time>2020-07-02T11:45:44Z</time>
      </trkpt>
      <trkpt lat="48.34528" lon="2.11635">
        <ele>135</ele>
        <time>2020-07-02T11:45:45Z</time>
      </trkpt>
      <trkpt lat="48.34523" lon="2.11636">
        <ele>135</ele>
        <time>2020-07-02T11:45:46Z</time>
      </trkpt>
      <trkpt lat="48.34519" lon="2.11639">
        <ele>135.1</ele>
        <time>2020-07-02T11:45:47Z</time>
      </trkpt>
      <trkpt lat="48.34515" lon="2.11642">
        <ele>135.2</ele>
        <time>2020-07-02T11:45:48Z</time>
      </trkpt>
      <trkpt lat="48.3451" lon="2.11645">
        <ele>135.3</ele>
        <time>2020-07-02T11:45:49Z</time>
      </trkpt>
      <trkpt lat="48.34506" lon="2.11647">
        <ele>135.3</ele>
        <time>2020-07-02T11:45:50Z</time>
      </trkpt>
      <trkpt lat="48.34501" lon="2.11649">
        <ele>135.4</ele>
        <time>2020-07-02T11:45:51Z</time>
      </trkpt>
      <trkpt lat="48.34498" lon="2.11651">
        <ele>135.4</ele>
        <time>2020-07-02T11:45:52Z</time>
      </trkpt>
      <trkpt lat="48.34494" lon="2.11653">
        <ele>135.5</ele>
        <time>2020-07-02T11:45:53Z</time>
      </trkpt>
      <trkpt lat="48.3449" lon="2.11655">
        <ele>135.5</ele>
        <time>2020-07-02T11:45:54Z</time>
      </trkpt>
      <trkpt lat="48.34485" lon="2.11657">
        <ele>135.5</ele>
        <time>2020-07-02T11:45:55Z</time>
      </trkpt>
      <trkpt lat="48.34481" lon="2.11659">
        <ele>135.6</ele>
        <time>2020-07-02T11:45:56Z</time>
      </trkpt>
      <trkpt lat="48.34476" lon="2.11661">
        <ele>135.6</ele>
        <time>2020-07-02T11:45:57Z</time>
      </trkpt>
      <trkpt lat="48.34472" lon="2.11663">
        <ele>135.6</ele>
        <time>2020-07-02T11:45:58Z</time>
      </trkpt>
      <trkpt lat="48.34467" lon="2.11665">
        <ele>135.6</ele>
        <time>2020-07-02T11:45:59Z</time>
      </trkpt>
      <trkpt lat="48.34463" lon="2.11667">
        <ele>135.6</ele>
        <time>2020-07-02T11:46:00Z</time>
      </trkpt>
      <trkpt lat="48.34458" lon="2.11669">
        <ele>135.5</ele>
        <time>2020-07-02T11:46:01Z</time>
      </trkpt>
      <trkpt lat="48.34454" lon="2.11673">
        <ele>135.5</ele>
        <time>2020-07-02T11:46:02Z</time>
      </trkpt>
      <trkpt lat="48.3445" lon="2.11676">
        <ele>135.5</ele>
        <time>2020-07-02T11:46:03Z</time>
      </trkpt>
      <trkpt lat="48.34445" lon="2.11679">
        <ele>135.5</ele>
        <time>2020-07-02T11:46:04Z</time>
      </trkpt>
      <trkpt lat="48.3444" lon="2.11683">
        <ele>135.4</ele>
        <time>2020-07-02T11:46:05Z</time>
      </trkpt>
      <trkpt lat="48.34436" lon="2.11685">
        <ele>135.4</ele>
        <time>2020-07-02T11:46:06Z</time>
      </trkpt>
      <trkpt lat="48.34431" lon="2.1169">
        <ele>135.3</ele>
        <time>2020-07-02T11:46:07Z</time>
      </trkpt>
      <trkpt lat="48.34427" lon="2.11692">
        <ele>135.2</ele>
        <time>2020-07-02T11:46:08Z</time>
      </trkpt>
      <trkpt lat="48.34423" lon="2.11696">
        <ele>135.2</ele>
        <time>2020-07-02T11:46:09Z</time>
      </trkpt>
      <trkpt lat="48.34418" lon="2.11697">
        <ele>135.1</ele>
        <time>2020-07-02T11:46:10Z</time>
      </trkpt>
      <trkpt lat="48.34414" lon="2.11699">
        <ele>135.1</ele>
        <time>2020-07-02T11:46:11Z</time>
      </trkpt>
      <trkpt lat="48.34408" lon="2.11703">
        <ele>135</ele>
        <time>2020-07-02T11:46:12Z</time>
      </trkpt>
      <trkpt lat="48.34403" lon="2.11707">
        <ele>135</ele>
        <time>2020-07-02T11:46:13Z</time>
      </trkpt>
      <trkpt lat="48.34397" lon="2.11711">
        <ele>134.9</ele>
        <time>2020-07-02T11:46:14Z</time>
      </trkpt>
      <trkpt lat="48.34392" lon="2.11715">
        <ele>134.8</ele>
        <time>2020-07-02T11:46:15Z</time>
      </trkpt>
      <trkpt lat="48.34387" lon="2.11718">
        <ele>134.7</ele>
        <time>2020-07-02T11:46:16Z</time>
      </trkpt>
      <trkpt lat="48.34383" lon="2.11723">
        <ele>134.6</ele>
        <time>2020-07-02T11:46:17Z</time>
      </trkpt>
      <trkpt lat="48.34378" lon="2.11726">
        <ele>134.5</ele>
        <time>2020-07-02T11:46:18Z</time>
      </trkpt>
      <trkpt lat="48.34373" lon="2.11728">
        <ele>134.4</ele>
        <time>2020-07-02T11:46:19Z</time>
      </trkpt>
      <trkpt lat="48.34369" lon="2.11731">
        <ele>134.3</ele>
        <time>2020-07-02T11:46:20Z</time>
      </trkpt>
      <trkpt lat="48.34365" lon="2.11734">
        <ele>134.3</ele>
        <time>2020-07-02T11:46:21Z</time>
      </trkpt>
      <trkpt lat="48.3436" lon="2.11735">
        <ele>134.2</ele>
        <time>2020-07-02T11:46:22Z</time>
      </trkpt>
      <trkpt lat="48.34354" lon="2.11738">
        <ele>134</ele>
        <time>2020-07-02T11:46:23Z</time>
      </trkpt>
      <trkpt lat="48.3435" lon="2.11741">
        <ele>133.9</ele>
        <time>2020-07-02T11:46:24Z</time>
      </trkpt>
      <trkpt lat="48.34345" lon="2.11743">
        <ele>133.8</ele>
        <time>2020-07-02T11:46:25Z</time>
      </trkpt>
      <trkpt lat="48.3434" lon="2.11746">
        <ele>133.7</ele>
        <time>2020-07-02T11:46:26Z</time>
      </trkpt>
      <trkpt lat="48.34335" lon="2.11748">
        <ele>133.7</ele>
        <time>2020-07-02T11:46:27Z</time>
      </trkpt>
      <trkpt lat="48.34329" lon="2.11752">
        <ele>133.5</ele>
        <time>2020-07-02T11:46:28Z</time>
      </trkpt>
      <trkpt lat="48.34323" lon="2.11755">
        <ele>133.4</ele>
        <time>2020-07-02T11:46:29Z</time>
      </trkpt>
      <trkpt lat="48.34317" lon="2.11761">
        <ele>133.2</ele>
        <time>2020-07-02T11:46:30Z</time>
      </trkpt>
      <trkpt lat="48.34311" lon="2.11764">
        <ele>133</ele>
        <time>2020-07-02T11:46:31Z</time>
      </trkpt>
      <trkpt lat="48.34306" lon="2.11768">
        <ele>132.8</ele>
        <time>2020-07-02T11:46:32Z</time>
      </trkpt>
      <trkpt lat="48.34299" lon="2.11771">
        <ele>132.6</ele>
        <time>2020-07-02T11:46:33Z</time>
      </trkpt>
      <trkpt lat="48.34293" lon="2.11775">
        <ele>132.4</ele>
        <time>2020-07-02T11:46:34Z</time>
      </trkpt>
      <trkpt lat="48.34287" lon="2.11778">
        <ele>132.2</ele>
        <time>2020-07-02T11:46:35Z</time>
      </trkpt>
      <trkpt lat="48.3428" lon="2.11781">
        <ele>132</ele>
        <time>2020-07-02T11:46:36Z</time>
      </trkpt>
      <trkpt lat="48.34272" lon="2.11785">
        <ele>131.9</ele>
        <time>2020-07-02T11:46:37Z</time>
      </trkpt>
      <trkpt lat="48.34266" lon="2.11789">
        <ele>131.8</ele>
        <time>2020-07-02T11:46:38Z</time>
      </trkpt>
      <trkpt lat="48.34259" lon="2.11793">
        <ele>131.8</ele>
        <time>2020-07-02T11:46:39Z</time>
      </trkpt>
      <trkpt lat="48.34252" lon="2.11797">
        <ele>131.8</ele>
        <time>2020-07-02T11:46:40Z</time>
      </trkpt>
      <trkpt lat="48.34245" lon="2.11801">
        <ele>131.8</ele>
        <time>2020-07-02T11:46:41Z</time>
      </trkpt>
      <trkpt lat="48.34238" lon="2.11806">
        <ele>131.8</ele>
        <time>2020-07-02T11:46:42Z</time>
      </trkpt>
      <trkpt lat="48.34232" lon="2.1181">
        <ele>131.9</ele>
        <time>2020-07-02T11:46:43Z</time>
      </trkpt>
      <trkpt lat="48.34225" lon="2.11814">
        <ele>132</ele>
        <time>2020-07-02T11:46:44Z</time>
      </trkpt>
      <trkpt lat="48.34219" lon="2.11817">
        <ele>132.1</ele>
        <time>2020-07-02T11:46:45Z</time>
      </trkpt>
      <trkpt lat="48.34213" lon="2.1182">
        <ele>132.1</ele>
        <time>2020-07-02T11:46:46Z</time>
      </trkpt>
      <trkpt lat="48.34208" lon="2.11824">
        <ele>132.1</ele>
        <time>2020-07-02T11:46:47Z</time>
      </trkpt>
      <trkpt lat="48.34202" lon="2.11827">
        <ele>132.2</ele>
        <time>2020-07-02T11:46:48Z</time>
      </trkpt>
      <trkpt lat="48.34197" lon="2.11831">
        <ele>132.3</ele>
        <time>2020-07-02T11:46:49Z</time>
      </trkpt>
      <trkpt lat="48.34192" lon="2.11835">
        <ele>132.5</ele>
        <time>2020-07-02T11:46:50Z</time>
      </trkpt>
      <trkpt lat="48.34185" lon="2.11839">
        <ele>132.7</ele>
        <time>2020-07-02T11:46:51Z</time>
      </trkpt>
      <trkpt lat="48.34179" lon="2.11844">
        <ele>132.9</ele>
        <time>2020-07-02T11:46:52Z</time>
      </trkpt>
      <trkpt lat="48.34175" lon="2.11847">
        <ele>133</ele>
        <time>2020-07-02T11:46:53Z</time>
      </trkpt>
      <trkpt lat="48.3417" lon="2.1185">
        <ele>133.1</ele>
        <time>2020-07-02T11:46:54Z</time>
      </trkpt>
      <trkpt lat="48.34165" lon="2.11853">
        <ele>133.2</ele>
        <time>2020-07-02T11:46:55Z</time>
      </trkpt>
      <trkpt lat="48.3416" lon="2.11855">
        <ele>133.3</ele>
        <time>2020-07-02T11:46:56Z</time>
      </trkpt>
      <trkpt lat="48.34155" lon="2.11858">
        <ele>133.3</ele>
        <time>2020-07-02T11:46:57Z</time>
      </trkpt>
      <trkpt lat="48.34149" lon="2.11862">
        <ele>133.5</ele>
        <time>2020-07-02T11:46:58Z</time>
      </trkpt>
      <trkpt lat="48.34143" lon="2.11865">
        <ele>133.6</ele>
        <time>2020-07-02T11:46:59Z</time>
      </trkpt>
      <trkpt lat="48.34138" lon="2.11868">
        <ele>133.7</ele>
        <time>2020-07-02T11:47:00Z</time>
      </trkpt>
      <trkpt lat="48.34132" lon="2.11872">
        <ele>133.9</ele>
        <time>2020-07-02T11:47:01Z</time>
      </trkpt>
      <trkpt lat="48.34127" lon="2.11875">
        <ele>134.1</ele>
        <time>2020-07-02T11:47:02Z</time>
      </trkpt>
      <trkpt lat="48.34122" lon="2.11877">
        <ele>134.3</ele>
        <time>2020-07-02T11:47:03Z</time>
      </trkpt>
      <trkpt lat="48.34117" lon="2.11879">
        <ele>134.4</ele>
        <time>2020-07-02T11:47:04Z</time>
      </trkpt>
      <trkpt lat="48.34112" lon="2.11883">
        <ele>134.6</ele>
        <time>2020-07-02T11:47:05Z</time>
      </trkpt>
      <trkpt lat="48.34107" lon="2.11887">
        <ele>134.7</ele>
        <time>2020-07-02T11:47:06Z</time>
      </trkpt>
      <trkpt lat="48.34103" lon="2.1189">
        <ele>134.8</ele>
        <time>2020-07-02T11:47:07Z</time>
      </trkpt>
      <trkpt lat="48.34098" lon="2.11892">
        <ele>134.9</ele>
        <time>2020-07-02T11:47:08Z</time>
      </trkpt>
      <trkpt lat="48.34093" lon="2.11896">
        <ele>134.9</ele>
        <time>2020-07-02T11:47:09Z</time>
      </trkpt>
      <trkpt lat="48.34088" lon="2.119">
        <ele>135</ele>
        <time>2020-07-02T11:47:10Z</time>
      </trkpt>
      <trkpt lat="48.34082" lon="2.11903">
        <ele>135.1</ele>
        <time>2020-07-02T11:47:11Z</time>
      </trkpt>
      <trkpt lat="48.34077" lon="2.11906">
        <ele>135.2</ele>
        <time>2020-07-02T11:47:12Z</time>
      </trkpt>
      <trkpt lat="48.34073" lon="2.11909">
        <ele>135.3</ele>
        <time>2020-07-02T11:47:13Z</time>
      </trkpt>
      <trkpt lat="48.34068" lon="2.11912">
        <ele>135.4</ele>
        <time>2020-07-02T11:47:14Z</time>
      </trkpt>
      <trkpt lat="48.34063" lon="2.11914">
        <ele>135.4</ele>
        <time>2020-07-02T11:47:15Z</time>
      </trkpt>
      <trkpt lat="48.34057" lon="2.11917">
        <ele>135.5</ele>
        <time>2020-07-02T11:47:16Z</time>
      </trkpt>
      <trkpt lat="48.34052" lon="2.11919">
        <ele>135.6</ele>
        <time>2020-07-02T11:47:17Z</time>
      </trkpt>
      <trkpt lat="48.34047" lon="2.11923">
        <ele>135.7</ele>
        <time>2020-07-02T11:47:18Z</time>
      </trkpt>
      <trkpt lat="48.34042" lon="2.11926">
        <ele>135.8</ele>
        <time>2020-07-02T11:47:19Z</time>
      </trkpt>
      <trkpt lat="48.34036" lon="2.11928">
        <ele>135.9</ele>
        <time>2020-07-02T11:47:20Z</time>
      </trkpt>
      <trkpt lat="48.3403" lon="2.11932">
        <ele>136</ele>
        <time>2020-07-02T11:47:21Z</time>
      </trkpt>
      <trkpt lat="48.34025" lon="2.11936">
        <ele>136</ele>
        <time>2020-07-02T11:47:22Z</time>
      </trkpt>
      <trkpt lat="48.34018" lon="2.1194">
        <ele>136</ele>
        <time>2020-07-02T11:47:23Z</time>
      </trkpt>
      <trkpt lat="48.34013" lon="2.11943">
        <ele>136</ele>
        <time>2020-07-02T11:47:24Z</time>
      </trkpt>
      <trkpt lat="48.34008" lon="2.11946">
        <ele>136</ele>
        <time>2020-07-02T11:47:25Z</time>
      </trkpt>
      <trkpt lat="48.34003" lon="2.11949">
        <ele>136.1</ele>
        <time>2020-07-02T11:47:26Z</time>
      </trkpt>
      <trkpt lat="48.33996" lon="2.11952">
        <ele>136.1</ele>
        <time>2020-07-02T11:47:27Z</time>
      </trkpt>
      <trkpt lat="48.33989" lon="2.11958">
        <ele>136.1</ele>
        <time>2020-07-02T11:47:28Z</time>
      </trkpt>
      <trkpt lat="48.33983" lon="2.11962">
        <ele>136.2</ele>
        <time>2020-07-02T11:47:29Z</time>
      </trkpt>
      <trkpt lat="48.33977" lon="2.11965">
        <ele>136.3</ele>
        <time>2020-07-02T11:47:30Z</time>
      </trkpt>
      <trkpt lat="48.3397" lon="2.11969">
        <ele>136.4</ele>
        <time>2020-07-02T11:47:31Z</time>
      </trkpt>
      <trkpt lat="48.33964" lon="2.11972">
        <ele>136.5</ele>
        <time>2020-07-02T11:47:32Z</time>
      </trkpt>
      <trkpt lat="48.33958" lon="2.11976">
        <ele>136.6</ele>
        <time>2020-07-02T11:47:33Z</time>
      </trkpt>
      <trkpt lat="48.33952" lon="2.11979">
        <ele>136.6</ele>
        <time>2020-07-02T11:47:34Z</time>
      </trkpt>
      <trkpt lat="48.33946" lon="2.11983">
        <ele>136.7</ele>
        <time>2020-07-02T11:47:35Z</time>
      </trkpt>
      <trkpt lat="48.33941" lon="2.11986">
        <ele>136.7</ele>
        <time>2020-07-02T11:47:36Z</time>
      </trkpt>
      <trkpt lat="48.33935" lon="2.1199">
        <ele>136.7</ele>
        <time>2020-07-02T11:47:37Z</time>
      </trkpt>
      <trkpt lat="48.3393" lon="2.11993">
        <ele>136.7</ele>
        <time>2020-07-02T11:47:38Z</time>
      </trkpt>
      <trkpt lat="48.33924" lon="2.11997">
        <ele>136.7</ele>
        <time>2020-07-02T11:47:39Z</time>
      </trkpt>
      <trkpt lat="48.33918" lon="2.12001">
        <ele>136.7</ele>
        <time>2020-07-02T11:47:40Z</time>
      </trkpt>
      <trkpt lat="48.33913" lon="2.12004">
        <ele>136.7</ele>
        <time>2020-07-02T11:47:41Z</time>
      </trkpt>
      <trkpt lat="48.33907" lon="2.12007">
        <ele>136.7</ele>
        <time>2020-07-02T11:47:42Z</time>
      </trkpt>
      <trkpt lat="48.33901" lon="2.1201">
        <ele>136.8</ele>
        <time>2020-07-02T11:47:43Z</time>
      </trkpt>
      <trkpt lat="48.33896" lon="2.12014">
        <ele>136.8</ele>
        <time>2020-07-02T11:47:44Z</time>
      </trkpt>
      <trkpt lat="48.3389" lon="2.12018">
        <ele>136.8</ele>
        <time>2020-07-02T11:47:45Z</time>
      </trkpt>
      <trkpt lat="48.33884" lon="2.12022">
        <ele>136.8</ele>
        <time>2020-07-02T11:47:46Z</time>
      </trkpt>
      <trkpt lat="48.33878" lon="2.12025">
        <ele>136.8</ele>
        <time>2020-07-02T11:47:47Z</time>
      </trkpt>
      <trkpt lat="48.33872" lon="2.12029">
        <ele>136.8</ele>
        <time>2020-07-02T11:47:48Z</time>
      </trkpt>
      <trkpt lat="48.33867" lon="2.12033">
        <ele>136.8</ele>
        <time>2020-07-02T11:47:49Z</time>
      </trkpt>
      <trkpt lat="48.33861" lon="2.12036">
        <ele>136.8</ele>
        <time>2020-07-02T11:47:50Z</time>
      </trkpt>
      <trkpt lat="48.33855" lon="2.12039">
        <ele>136.8</ele>
        <time>2020-07-02T11:47:51Z</time>
      </trkpt>
      <trkpt lat="48.33849" lon="2.12043">
        <ele>136.9</ele>
        <time>2020-07-02T11:47:52Z</time>
      </trkpt>
      <trkpt lat="48.33843" lon="2.12046">
        <ele>136.9</ele>
        <time>2020-07-02T11:47:53Z</time>
      </trkpt>
      <trkpt lat="48.33837" lon="2.1205">
        <ele>136.9</ele>
        <time>2020-07-02T11:47:54Z</time>
      </trkpt>
      <trkpt lat="48.33831" lon="2.12053">
        <ele>136.9</ele>
        <time>2020-07-02T11:47:55Z</time>
      </trkpt>
      <trkpt lat="48.33826" lon="2.12057">
        <ele>137</ele>
        <time>2020-07-02T11:47:56Z</time>
      </trkpt>
      <trkpt lat="48.3382" lon="2.12061">
        <ele>137</ele>
        <time>2020-07-02T11:47:57Z</time>
      </trkpt>
      <trkpt lat="48.33815" lon="2.12064">
        <ele>137</ele>
        <time>2020-07-02T11:47:58Z</time>
      </trkpt>
      <trkpt lat="48.33809" lon="2.12068">
        <ele>137.1</ele>
        <time>2020-07-02T11:47:59Z</time>
      </trkpt>
      <trkpt lat="48.33802" lon="2.12072">
        <ele>137.1</ele>
        <time>2020-07-02T11:48:00Z</time>
      </trkpt>
      <trkpt lat="48.33797" lon="2.12076">
        <ele>137.1</ele>
        <time>2020-07-02T11:48:01Z</time>
      </trkpt>
      <trkpt lat="48.33791" lon="2.1208">
        <ele>137.1</ele>
        <time>2020-07-02T11:48:02Z</time>
      </trkpt>
      <trkpt lat="48.33784" lon="2.12083">
        <ele>137.1</ele>
        <time>2020-07-02T11:48:03Z</time>
      </trkpt>
      <trkpt lat="48.33779" lon="2.12086">
        <ele>137.1</ele>
        <time>2020-07-02T11:48:04Z</time>
      </trkpt>
      <trkpt lat="48.33773" lon="2.1209">
        <ele>137.1</ele>
        <time>2020-07-02T11:48:05Z</time>
      </trkpt>
      <trkpt lat="48.33767" lon="2.12094">
        <ele>137.1</ele>
        <time>2020-07-02T11:48:06Z</time>
      </trkpt>
      <trkpt lat="48.3376" lon="2.12098">
        <ele>137.1</ele>
        <time>2020-07-02T11:48:07Z</time>
      </trkpt>
      <trkpt lat="48.33754" lon="2.12102">
        <ele>137.1</ele>
        <time>2020-07-02T11:48:08Z</time>
      </trkpt>
      <trkpt lat="48.33748" lon="2.12104">
        <ele>137</ele>
        <time>2020-07-02T11:48:09Z</time>
      </trkpt>
      <trkpt lat="48.33742" lon="2.12108">
        <ele>137</ele>
        <time>2020-07-02T11:48:10Z</time>
      </trkpt>
      <trkpt lat="48.33736" lon="2.12112">
        <ele>136.9</ele>
        <time>2020-07-02T11:48:11Z</time>
      </trkpt>
      <trkpt lat="48.3373" lon="2.12115">
        <ele>136.9</ele>
        <time>2020-07-02T11:48:12Z</time>
      </trkpt>
      <trkpt lat="48.33723" lon="2.12118">
        <ele>136.8</ele>
        <time>2020-07-02T11:48:13Z</time>
      </trkpt>
      <trkpt lat="48.33717" lon="2.12122">
        <ele>136.8</ele>
        <time>2020-07-02T11:48:14Z</time>
      </trkpt>
      <trkpt lat="48.33711" lon="2.12126">
        <ele>136.7</ele>
        <time>2020-07-02T11:48:15Z</time>
      </trkpt>
      <trkpt lat="48.33704" lon="2.12129">
        <ele>136.7</ele>
        <time>2020-07-02T11:48:16Z</time>
      </trkpt>
      <trkpt lat="48.33698" lon="2.12133">
        <ele>136.6</ele>
        <time>2020-07-02T11:48:17Z</time>
      </trkpt>
      <trkpt lat="48.33692" lon="2.12137">
        <ele>136.5</ele>
        <time>2020-07-02T11:48:18Z</time>
      </trkpt>
      <trkpt lat="48.33686" lon="2.12141">
        <ele>136.4</ele>
        <time>2020-07-02T11:48:19Z</time>
      </trkpt>
      <trkpt lat="48.33679" lon="2.12145">
        <ele>136.4</ele>
        <time>2020-07-02T11:48:20Z</time>
      </trkpt>
      <trkpt lat="48.33673" lon="2.12149">
        <ele>136.3</ele>
        <time>2020-07-02T11:48:21Z</time>
      </trkpt>
      <trkpt lat="48.33667" lon="2.12153">
        <ele>136.3</ele>
        <time>2020-07-02T11:48:22Z</time>
      </trkpt>
      <trkpt lat="48.33661" lon="2.12158">
        <ele>136.3</ele>
        <time>2020-07-02T11:48:23Z</time>
      </trkpt>
      <trkpt lat="48.33654" lon="2.12161">
        <ele>136.3</ele>
        <time>2020-07-02T11:48:24Z</time>
      </trkpt>
      <trkpt lat="48.33648" lon="2.12165">
        <ele>136.3</ele>
        <time>2020-07-02T11:48:25Z</time>
      </trkpt>
      <trkpt lat="48.33642" lon="2.12169">
        <ele>136.3</ele>
        <time>2020-07-02T11:48:26Z</time>
      </trkpt>
      <trkpt lat="48.33636" lon="2.12173">
        <ele>136.2</ele>
        <time>2020-07-02T11:48:27Z</time>
      </trkpt>
      <trkpt lat="48.33629" lon="2.12177">
        <ele>136.1</ele>
        <time>2020-07-02T11:48:28Z</time>
      </trkpt>
      <trkpt lat="48.33623" lon="2.12181">
        <ele>136</ele>
        <time>2020-07-02T11:48:29Z</time>
      </trkpt>
      <trkpt lat="48.33617" lon="2.12184">
        <ele>136</ele>
        <time>2020-07-02T11:48:30Z</time>
      </trkpt>
      <trkpt lat="48.33611" lon="2.12188">
        <ele>135.9</ele>
        <time>2020-07-02T11:48:31Z</time>
      </trkpt>
      <trkpt lat="48.33605" lon="2.12191">
        <ele>135.9</ele>
        <time>2020-07-02T11:48:32Z</time>
      </trkpt>
      <trkpt lat="48.33598" lon="2.12194">
        <ele>135.9</ele>
        <time>2020-07-02T11:48:33Z</time>
      </trkpt>
      <trkpt lat="48.33592" lon="2.12198">
        <ele>135.8</ele>
        <time>2020-07-02T11:48:34Z</time>
      </trkpt>
      <trkpt lat="48.33587" lon="2.12202">
        <ele>135.8</ele>
        <time>2020-07-02T11:48:35Z</time>
      </trkpt>
      <trkpt lat="48.33581" lon="2.12205">
        <ele>135.8</ele>
        <time>2020-07-02T11:48:36Z</time>
      </trkpt>
      <trkpt lat="48.33575" lon="2.12209">
        <ele>135.8</ele>
        <time>2020-07-02T11:48:37Z</time>
      </trkpt>
      <trkpt lat="48.33569" lon="2.12212">
        <ele>135.8</ele>
        <time>2020-07-02T11:48:38Z</time>
      </trkpt>
      <trkpt lat="48.33563" lon="2.12215">
        <ele>135.9</ele>
        <time>2020-07-02T11:48:39Z</time>
      </trkpt>
      <trkpt lat="48.33558" lon="2.12219">
        <ele>135.9</ele>
        <time>2020-07-02T11:48:40Z</time>
      </trkpt>
      <trkpt lat="48.33552" lon="2.12222">
        <ele>135.9</ele>
        <time>2020-07-02T11:48:41Z</time>
      </trkpt>
      <trkpt lat="48.33546" lon="2.12226">
        <ele>135.9</ele>
        <time>2020-07-02T11:48:42Z</time>
      </trkpt>
      <trkpt lat="48.33541" lon="2.12229">
        <ele>136</ele>
        <time>2020-07-02T11:48:43Z</time>
      </trkpt>
      <trkpt lat="48.33535" lon="2.12232">
        <ele>136</ele>
        <time>2020-07-02T11:48:44Z</time>
      </trkpt>
      <trkpt lat="48.3353" lon="2.12235">
        <ele>136.1</ele>
        <time>2020-07-02T11:48:45Z</time>
      </trkpt>
      <trkpt lat="48.33524" lon="2.12238">
        <ele>136.2</ele>
        <time>2020-07-02T11:48:46Z</time>
      </trkpt>
      <trkpt lat="48.33518" lon="2.12241">
        <ele>136.2</ele>
        <time>2020-07-02T11:48:47Z</time>
      </trkpt>
      <trkpt lat="48.33512" lon="2.12243">
        <ele>136.2</ele>
        <time>2020-07-02T11:48:48Z</time>
      </trkpt>
      <trkpt lat="48.33507" lon="2.12247">
        <ele>136.2</ele>
        <time>2020-07-02T11:48:49Z</time>
      </trkpt>
      <trkpt lat="48.33502" lon="2.1225">
        <ele>136.2</ele>
        <time>2020-07-02T11:48:50Z</time>
      </trkpt>
      <trkpt lat="48.33496" lon="2.12254">
        <ele>136.2</ele>
        <time>2020-07-02T11:48:51Z</time>
      </trkpt>
      <trkpt lat="48.3349" lon="2.12258">
        <ele>136.2</ele>
        <time>2020-07-02T11:48:52Z</time>
      </trkpt>
      <trkpt lat="48.33484" lon="2.1226">
        <ele>136.2</ele>
        <time>2020-07-02T11:48:53Z</time>
      </trkpt>
      <trkpt lat="48.33479" lon="2.12262">
        <ele>136.2</ele>
        <time>2020-07-02T11:48:54Z</time>
      </trkpt>
      <trkpt lat="48.33473" lon="2.12264">
        <ele>136.2</ele>
        <time>2020-07-02T11:48:55Z</time>
      </trkpt>
      <trkpt lat="48.33466" lon="2.12265">
        <ele>136.2</ele>
        <time>2020-07-02T11:48:56Z</time>
      </trkpt>
      <trkpt lat="48.3346" lon="2.12266">
        <ele>136.2</ele>
        <time>2020-07-02T11:48:57Z</time>
      </trkpt>
      <trkpt lat="48.33454" lon="2.12267">
        <ele>136.2</ele>
        <time>2020-07-02T11:48:58Z</time>
      </trkpt>
      <trkpt lat="48.33449" lon="2.12267">
        <ele>136.3</ele>
        <time>2020-07-02T11:48:59Z</time>
      </trkpt>
      <trkpt lat="48.33442" lon="2.12267">
        <ele>136.4</ele>
        <time>2020-07-02T11:49:00Z</time>
      </trkpt>
      <trkpt lat="48.33436" lon="2.12268">
        <ele>136.5</ele>
        <time>2020-07-02T11:49:01Z</time>
      </trkpt>
      <trkpt lat="48.3343" lon="2.12269">
        <ele>136.6</ele>
        <time>2020-07-02T11:49:02Z</time>
      </trkpt>
      <trkpt lat="48.33424" lon="2.12269">
        <ele>136.8</ele>
        <time>2020-07-02T11:49:03Z</time>
      </trkpt>
      <trkpt lat="48.33418" lon="2.12269">
        <ele>136.8</ele>
        <time>2020-07-02T11:49:04Z</time>
      </trkpt>
      <trkpt lat="48.33412" lon="2.12269">
        <ele>136.7</ele>
        <time>2020-07-02T11:49:05Z</time>
      </trkpt>
      <trkpt lat="48.33406" lon="2.12267">
        <ele>136.7</ele>
        <time>2020-07-02T11:49:06Z</time>
      </trkpt>
      <trkpt lat="48.334" lon="2.12265">
        <ele>136.8</ele>
        <time>2020-07-02T11:49:07Z</time>
      </trkpt>
      <trkpt lat="48.33395" lon="2.12263">
        <ele>136.8</ele>
        <time>2020-07-02T11:49:08Z</time>
      </trkpt>
      <trkpt lat="48.33389" lon="2.12261">
        <ele>136.9</ele>
        <time>2020-07-02T11:49:09Z</time>
      </trkpt>
      <trkpt lat="48.33385" lon="2.12259">
        <ele>136.9</ele>
        <time>2020-07-02T11:49:10Z</time>
      </trkpt>
      <trkpt lat="48.3338" lon="2.12257">
        <ele>137</ele>
        <time>2020-07-02T11:49:11Z</time>
      </trkpt>
      <trkpt lat="48.33375" lon="2.12255">
        <ele>137</ele>
        <time>2020-07-02T11:49:12Z</time>
      </trkpt>
      <trkpt lat="48.3337" lon="2.12253">
        <ele>137</ele>
        <time>2020-07-02T11:49:13Z</time>
      </trkpt>
      <trkpt lat="48.33365" lon="2.12251">
        <ele>137.1</ele>
        <time>2020-07-02T11:49:14Z</time>
      </trkpt>
      <trkpt lat="48.3336" lon="2.12249">
        <ele>137.1</ele>
        <time>2020-07-02T11:49:15Z</time>
      </trkpt>
      <trkpt lat="48.33355" lon="2.12246">
        <ele>137.1</ele>
        <time>2020-07-02T11:49:16Z</time>
      </trkpt>
      <trkpt lat="48.3335" lon="2.12244">
        <ele>137.1</ele>
        <time>2020-07-02T11:49:17Z</time>
      </trkpt>
      <trkpt lat="48.33345" lon="2.12243">
        <ele>137.1</ele>
        <time>2020-07-02T11:49:18Z</time>
      </trkpt>
      <trkpt lat="48.33341" lon="2.1224">
        <ele>137.1</ele>
        <time>2020-07-02T11:49:19Z</time>
      </trkpt>
      <trkpt lat="48.33336" lon="2.12237">
        <ele>137.1</ele>
        <time>2020-07-02T11:49:20Z</time>
      </trkpt>
      <trkpt lat="48.33331" lon="2.12234">
        <ele>137.1</ele>
        <time>2020-07-02T11:49:21Z</time>
      </trkpt>
      <trkpt lat="48.33327" lon="2.12233">
        <ele>137.1</ele>
        <time>2020-07-02T11:49:22Z</time>
      </trkpt>
      <trkpt lat="48.33322" lon="2.1223">
        <ele>137.1</ele>
        <time>2020-07-02T11:49:23Z</time>
      </trkpt>
      <trkpt lat="48.33316" lon="2.12227">
        <ele>137.1</ele>
        <time>2020-07-02T11:49:24Z</time>
      </trkpt>
      <trkpt lat="48.3331" lon="2.12224">
        <ele>137.1</ele>
        <time>2020-07-02T11:49:25Z</time>
      </trkpt>
      <trkpt lat="48.33304" lon="2.12221">
        <ele>137.1</ele>
        <time>2020-07-02T11:49:26Z</time>
      </trkpt>
      <trkpt lat="48.33298" lon="2.12219">
        <ele>137.2</ele>
        <time>2020-07-02T11:49:27Z</time>
      </trkpt>
      <trkpt lat="48.33293" lon="2.12216">
        <ele>137.2</ele>
        <time>2020-07-02T11:49:28Z</time>
      </trkpt>
      <trkpt lat="48.33288" lon="2.12214">
        <ele>137.3</ele>
        <time>2020-07-02T11:49:29Z</time>
      </trkpt>
      <trkpt lat="48.33283" lon="2.12212">
        <ele>137.3</ele>
        <time>2020-07-02T11:49:30Z</time>
      </trkpt>
      <trkpt lat="48.33279" lon="2.1221">
        <ele>137.3</ele>
        <time>2020-07-02T11:49:31Z</time>
      </trkpt>
      <trkpt lat="48.33274" lon="2.12208">
        <ele>137.3</ele>
        <time>2020-07-02T11:49:32Z</time>
      </trkpt>
      <trkpt lat="48.33267" lon="2.12204">
        <ele>137.3</ele>
        <time>2020-07-02T11:49:33Z</time>
      </trkpt>
      <trkpt lat="48.33263" lon="2.12202">
        <ele>137.3</ele>
        <time>2020-07-02T11:49:34Z</time>
      </trkpt>
      <trkpt lat="48.33259" lon="2.122">
        <ele>137.3</ele>
        <time>2020-07-02T11:49:35Z</time>
      </trkpt>
      <trkpt lat="48.33254" lon="2.12197">
        <ele>137.3</ele>
        <time>2020-07-02T11:49:36Z</time>
      </trkpt>
      <trkpt lat="48.33249" lon="2.12194">
        <ele>137.3</ele>
        <time>2020-07-02T11:49:37Z</time>
      </trkpt>
      <trkpt lat="48.33244" lon="2.12192">
        <ele>137.2</ele>
        <time>2020-07-02T11:49:38Z</time>
      </trkpt>
      <trkpt lat="48.33239" lon="2.12189">
        <ele>137.2</ele>
        <time>2020-07-02T11:49:39Z</time>
      </trkpt>
      <trkpt lat="48.33233" lon="2.12187">
        <ele>137.2</ele>
        <time>2020-07-02T11:49:40Z</time>
      </trkpt>
      <trkpt lat="48.33228" lon="2.12185">
        <ele>137.2</ele>
        <time>2020-07-02T11:49:41Z</time>
      </trkpt>
      <trkpt lat="48.33223" lon="2.12181">
        <ele>137.3</ele>
        <time>2020-07-02T11:49:42Z</time>
      </trkpt>
      <trkpt lat="48.33217" lon="2.12178">
        <ele>137.3</ele>
        <time>2020-07-02T11:49:43Z</time>
      </trkpt>
      <trkpt lat="48.33212" lon="2.12175">
        <ele>137.3</ele>
        <time>2020-07-02T11:49:44Z</time>
      </trkpt>
      <trkpt lat="48.33207" lon="2.12173">
        <ele>137.3</ele>
        <time>2020-07-02T11:49:45Z</time>
      </trkpt>
      <trkpt lat="48.33201" lon="2.1217">
        <ele>137.3</ele>
        <time>2020-07-02T11:49:46Z</time>
      </trkpt>
      <trkpt lat="48.33196" lon="2.12168">
        <ele>137.3</ele>
        <time>2020-07-02T11:49:47Z</time>
      </trkpt>
      <trkpt lat="48.3319" lon="2.12166">
        <ele>137.3</ele>
        <time>2020-07-02T11:49:48Z</time>
      </trkpt>
      <trkpt lat="48.33185" lon="2.12164">
        <ele>137.4</ele>
        <time>2020-07-02T11:49:49Z</time>
      </trkpt>
      <trkpt lat="48.3318" lon="2.12162">
        <ele>137.4</ele>
        <time>2020-07-02T11:49:50Z</time>
      </trkpt>
      <trkpt lat="48.33174" lon="2.12159">
        <ele>137.4</ele>
        <time>2020-07-02T11:49:51Z</time>
      </trkpt>
      <trkpt lat="48.33169" lon="2.12156">
        <ele>137.4</ele>
        <time>2020-07-02T11:49:52Z</time>
      </trkpt>
      <trkpt lat="48.33164" lon="2.12153">
        <ele>137.5</ele>
        <time>2020-07-02T11:49:53Z</time>
      </trkpt>
      <trkpt lat="48.33158" lon="2.12151">
        <ele>137.5</ele>
        <time>2020-07-02T11:49:54Z</time>
      </trkpt>
      <trkpt lat="48.33154" lon="2.12148">
        <ele>137.5</ele>
        <time>2020-07-02T11:49:55Z</time>
      </trkpt>
      <trkpt lat="48.33149" lon="2.12146">
        <ele>137.5</ele>
        <time>2020-07-02T11:49:56Z</time>
      </trkpt>
      <trkpt lat="48.33144" lon="2.12144">
        <ele>137.5</ele>
        <time>2020-07-02T11:49:57Z</time>
      </trkpt>
      <trkpt lat="48.33139" lon="2.12141">
        <ele>137.5</ele>
        <time>2020-07-02T11:49:58Z</time>
      </trkpt>
      <trkpt lat="48.33134" lon="2.1214">
        <ele>137.5</ele>
        <time>2020-07-02T11:49:59Z</time>
      </trkpt>
      <trkpt lat="48.33129" lon="2.12138">
        <ele>137.5</ele>
        <time>2020-07-02T11:50:00Z</time>
      </trkpt>
      <trkpt lat="48.33123" lon="2.12135">
        <ele>137.5</ele>
        <time>2020-07-02T11:50:01Z</time>
      </trkpt>
      <trkpt lat="48.33118" lon="2.12133">
        <ele>137.5</ele>
        <time>2020-07-02T11:50:02Z</time>
      </trkpt>
      <trkpt lat="48.33112" lon="2.1213">
        <ele>137.5</ele>
        <time>2020-07-02T11:50:03Z</time>
      </trkpt>
      <trkpt lat="48.33107" lon="2.12126">
        <ele>137.5</ele>
        <time>2020-07-02T11:50:04Z</time>
      </trkpt>
      <trkpt lat="48.33101" lon="2.12123">
        <ele>137.6</ele>
        <time>2020-07-02T11:50:05Z</time>
      </trkpt>
      <trkpt lat="48.33096" lon="2.12121">
        <ele>137.6</ele>
        <time>2020-07-02T11:50:06Z</time>
      </trkpt>
      <trkpt lat="48.3309" lon="2.12119">
        <ele>137.6</ele>
        <time>2020-07-02T11:50:07Z</time>
      </trkpt>
      <trkpt lat="48.33086" lon="2.12116">
        <ele>137.7</ele>
        <time>2020-07-02T11:50:08Z</time>
      </trkpt>
      <trkpt lat="48.3308" lon="2.12113">
        <ele>137.7</ele>
        <time>2020-07-02T11:50:09Z</time>
      </trkpt>
      <trkpt lat="48.33075" lon="2.12111">
        <ele>137.7</ele>
        <time>2020-07-02T11:50:10Z</time>
      </trkpt>
      <trkpt lat="48.33072" lon="2.1211">
        <ele>137.7</ele>
        <time>2020-07-02T11:50:11Z</time>
      </trkpt>
      <trkpt lat="48.33066" lon="2.12108">
        <ele>137.7</ele>
        <time>2020-07-02T11:50:12Z</time>
      </trkpt>
      <trkpt lat="48.33061" lon="2.12105">
        <ele>137.7</ele>
        <time>2020-07-02T11:50:13Z</time>
      </trkpt>
      <trkpt lat="48.33055" lon="2.12102">
        <ele>137.7</ele>
        <time>2020-07-02T11:50:14Z</time>
      </trkpt>
      <trkpt lat="48.3305" lon="2.121">
        <ele>137.7</ele>
        <time>2020-07-02T11:50:15Z</time>
      </trkpt>
      <trkpt lat="48.33045" lon="2.12098">
        <ele>137.7</ele>
        <time>2020-07-02T11:50:16Z</time>
      </trkpt>
      <trkpt lat="48.33039" lon="2.12096">
        <ele>137.7</ele>
        <time>2020-07-02T11:50:17Z</time>
      </trkpt>
      <trkpt lat="48.33034" lon="2.12094">
        <ele>137.8</ele>
        <time>2020-07-02T11:50:18Z</time>
      </trkpt>
      <trkpt lat="48.33028" lon="2.12091">
        <ele>137.8</ele>
        <time>2020-07-02T11:50:19Z</time>
      </trkpt>
      <trkpt lat="48.33024" lon="2.12089">
        <ele>137.8</ele>
        <time>2020-07-02T11:50:20Z</time>
      </trkpt>
      <trkpt lat="48.33019" lon="2.12086">
        <ele>137.8</ele>
        <time>2020-07-02T11:50:21Z</time>
      </trkpt>
      <trkpt lat="48.33013" lon="2.12084">
        <ele>137.8</ele>
        <time>2020-07-02T11:50:22Z</time>
      </trkpt>
      <trkpt lat="48.33009" lon="2.12081">
        <ele>137.8</ele>
        <time>2020-07-02T11:50:23Z</time>
      </trkpt>
      <trkpt lat="48.33005" lon="2.12079">
        <ele>137.8</ele>
        <time>2020-07-02T11:50:24Z</time>
      </trkpt>
      <trkpt lat="48.33" lon="2.12076">
        <ele>137.8</ele>
        <time>2020-07-02T11:50:25Z</time>
      </trkpt>
      <trkpt lat="48.32995" lon="2.12073">
        <ele>137.8</ele>
        <time>2020-07-02T11:50:26Z</time>
      </trkpt>
      <trkpt lat="48.3299" lon="2.12071">
        <ele>137.8</ele>
        <time>2020-07-02T11:50:27Z</time>
      </trkpt>
      <trkpt lat="48.32985" lon="2.12069">
        <ele>137.7</ele>
        <time>2020-07-02T11:50:28Z</time>
      </trkpt>
      <trkpt lat="48.32981" lon="2.12068">
        <ele>137.7</ele>
        <time>2020-07-02T11:50:29Z</time>
      </trkpt>
      <trkpt lat="48.32976" lon="2.12066">
        <ele>137.7</ele>
        <time>2020-07-02T11:50:30Z</time>
      </trkpt>
      <trkpt lat="48.32973" lon="2.12065">
        <ele>137.6</ele>
        <time>2020-07-02T11:50:31Z</time>
      </trkpt>
      <trkpt lat="48.32969" lon="2.12064">
        <ele>137.6</ele>
        <time>2020-07-02T11:50:32Z</time>
      </trkpt>
      <trkpt lat="48.32965" lon="2.12061">
        <ele>137.6</ele>
        <time>2020-07-02T11:50:33Z</time>
      </trkpt>
      <trkpt lat="48.3296" lon="2.12058">
        <ele>137.5</ele>
        <time>2020-07-02T11:50:34Z</time>
      </trkpt>
      <trkpt lat="48.32955" lon="2.12056">
        <ele>137.5</ele>
        <time>2020-07-02T11:50:35Z</time>
      </trkpt>
      <trkpt lat="48.3295" lon="2.12053">
        <ele>137.5</ele>
        <time>2020-07-02T11:50:36Z</time>
      </trkpt>
      <trkpt lat="48.32946" lon="2.12051">
        <ele>137.5</ele>
        <time>2020-07-02T11:50:37Z</time>
      </trkpt>
      <trkpt lat="48.32942" lon="2.1205">
        <ele>137.4</ele>
        <time>2020-07-02T11:50:38Z</time>
      </trkpt>
      <trkpt lat="48.32936" lon="2.12047">
        <ele>137.4</ele>
        <time>2020-07-02T11:50:39Z</time>
      </trkpt>
      <trkpt lat="48.32931" lon="2.12045">
        <ele>137.4</ele>
        <time>2020-07-02T11:50:40Z</time>
      </trkpt>
      <trkpt lat="48.32926" lon="2.12042">
        <ele>137.4</ele>
        <time>2020-07-02T11:50:41Z</time>
      </trkpt>
      <trkpt lat="48.32921" lon="2.1204">
        <ele>137.4</ele>
        <time>2020-07-02T11:50:42Z</time>
      </trkpt>
      <trkpt lat="48.32916" lon="2.12037">
        <ele>137.3</ele>
        <time>2020-07-02T11:50:43Z</time>
      </trkpt>
      <trkpt lat="48.32912" lon="2.12035">
        <ele>137.3</ele>
        <time>2020-07-02T11:50:44Z</time>
      </trkpt>
      <trkpt lat="48.32908" lon="2.12033">
        <ele>137.3</ele>
        <time>2020-07-02T11:50:45Z</time>
      </trkpt>
      <trkpt lat="48.32902" lon="2.1203">
        <ele>137.3</ele>
        <time>2020-07-02T11:50:46Z</time>
      </trkpt>
      <trkpt lat="48.32896" lon="2.12027">
        <ele>137.3</ele>
        <time>2020-07-02T11:50:47Z</time>
      </trkpt>
      <trkpt lat="48.32892" lon="2.12026">
        <ele>137.3</ele>
        <time>2020-07-02T11:50:48Z</time>
      </trkpt>
      <trkpt lat="48.32888" lon="2.12025">
        <ele>137.3</ele>
        <time>2020-07-02T11:50:49Z</time>
      </trkpt>
      <trkpt lat="48.32883" lon="2.12023">
        <ele>137.3</ele>
        <time>2020-07-02T11:50:50Z</time>
      </trkpt>
      <trkpt lat="48.32878" lon="2.1202">
        <ele>137.3</ele>
        <time>2020-07-02T11:50:51Z</time>
      </trkpt>
      <trkpt lat="48.32873" lon="2.12018">
        <ele>137.3</ele>
        <time>2020-07-02T11:50:52Z</time>
      </trkpt>
      <trkpt lat="48.32869" lon="2.12017">
        <ele>137.3</ele>
        <time>2020-07-02T11:50:53Z</time>
      </trkpt>
      <trkpt lat="48.32864" lon="2.12014">
        <ele>137.3</ele>
        <time>2020-07-02T11:50:54Z</time>
      </trkpt>
      <trkpt lat="48.32858" lon="2.12012">
        <ele>137.2</ele>
        <time>2020-07-02T11:50:55Z</time>
      </trkpt>
      <trkpt lat="48.32853" lon="2.1201">
        <ele>137.2</ele>
        <time>2020-07-02T11:50:56Z</time>
      </trkpt>
      <trkpt lat="48.32847" lon="2.12006">
        <ele>137.2</ele>
        <time>2020-07-02T11:50:57Z</time>
      </trkpt>
      <trkpt lat="48.32841" lon="2.12003">
        <ele>137.2</ele>
        <time>2020-07-02T11:50:58Z</time>
      </trkpt>
      <trkpt lat="48.32837" lon="2.12002">
        <ele>137.2</ele>
        <time>2020-07-02T11:50:59Z</time>
      </trkpt>
      <trkpt lat="48.32831" lon="2.12">
        <ele>137.1</ele>
        <time>2020-07-02T11:51:00Z</time>
      </trkpt>
      <trkpt lat="48.32827" lon="2.11998">
        <ele>137.1</ele>
        <time>2020-07-02T11:51:01Z</time>
      </trkpt>
      <trkpt lat="48.32822" lon="2.11996">
        <ele>137.1</ele>
        <time>2020-07-02T11:51:02Z</time>
      </trkpt>
      <trkpt lat="48.32816" lon="2.11993">
        <ele>137.1</ele>
        <time>2020-07-02T11:51:03Z</time>
      </trkpt>
      <trkpt lat="48.3281" lon="2.1199">
        <ele>137</ele>
        <time>2020-07-02T11:51:04Z</time>
      </trkpt>
      <trkpt lat="48.32805" lon="2.11988">
        <ele>137</ele>
        <time>2020-07-02T11:51:05Z</time>
      </trkpt>
      <trkpt lat="48.328" lon="2.11986">
        <ele>137</ele>
        <time>2020-07-02T11:51:06Z</time>
      </trkpt>
      <trkpt lat="48.32794" lon="2.11985">
        <ele>137</ele>
        <time>2020-07-02T11:51:07Z</time>
      </trkpt>
      <trkpt lat="48.32789" lon="2.11984">
        <ele>137</ele>
        <time>2020-07-02T11:51:08Z</time>
      </trkpt>
      <trkpt lat="48.32783" lon="2.11982">
        <ele>137</ele>
        <time>2020-07-02T11:51:09Z</time>
      </trkpt>
      <trkpt lat="48.32779" lon="2.1198">
        <ele>136.9</ele>
        <time>2020-07-02T11:51:10Z</time>
      </trkpt>
      <trkpt lat="48.32772" lon="2.11979">
        <ele>136.8</ele>
        <time>2020-07-02T11:51:11Z</time>
      </trkpt>
      <trkpt lat="48.32767" lon="2.11978">
        <ele>136.7</ele>
        <time>2020-07-02T11:51:12Z</time>
      </trkpt>
      <trkpt lat="48.32761" lon="2.11977">
        <ele>136.7</ele>
        <time>2020-07-02T11:51:13Z</time>
      </trkpt>
      <trkpt lat="48.32756" lon="2.11974">
        <ele>136.6</ele>
        <time>2020-07-02T11:51:14Z</time>
      </trkpt>
      <trkpt lat="48.32751" lon="2.11972">
        <ele>136.5</ele>
        <time>2020-07-02T11:51:15Z</time>
      </trkpt>
      <trkpt lat="48.32746" lon="2.1197">
        <ele>136.5</ele>
        <time>2020-07-02T11:51:16Z</time>
      </trkpt>
      <trkpt lat="48.32741" lon="2.11968">
        <ele>136.4</ele>
        <time>2020-07-02T11:51:17Z</time>
      </trkpt>
      <trkpt lat="48.32736" lon="2.11967">
        <ele>136.4</ele>
        <time>2020-07-02T11:51:18Z</time>
      </trkpt>
      <trkpt lat="48.3273" lon="2.11965">
        <ele>136.4</ele>
        <time>2020-07-02T11:51:19Z</time>
      </trkpt>
      <trkpt lat="48.32724" lon="2.11963">
        <ele>136.4</ele>
        <time>2020-07-02T11:51:20Z</time>
      </trkpt>
      <trkpt lat="48.32719" lon="2.11961">
        <ele>136.4</ele>
        <time>2020-07-02T11:51:21Z</time>
      </trkpt>
      <trkpt lat="48.32713" lon="2.1196">
        <ele>136.4</ele>
        <time>2020-07-02T11:51:22Z</time>
      </trkpt>
      <trkpt lat="48.32707" lon="2.11958">
        <ele>136.4</ele>
        <time>2020-07-02T11:51:23Z</time>
      </trkpt>
      <trkpt lat="48.32702" lon="2.11955">
        <ele>136.4</ele>
        <time>2020-07-02T11:51:24Z</time>
      </trkpt>
      <trkpt lat="48.32697" lon="2.11954">
        <ele>136.4</ele>
        <time>2020-07-02T11:51:25Z</time>
      </trkpt>
      <trkpt lat="48.32691" lon="2.11952">
        <ele>136.4</ele>
        <time>2020-07-02T11:51:26Z</time>
      </trkpt>
      <trkpt lat="48.32685" lon="2.11949">
        <ele>136.4</ele>
        <time>2020-07-02T11:51:27Z</time>
      </trkpt>
      <trkpt lat="48.32679" lon="2.11947">
        <ele>136.4</ele>
        <time>2020-07-02T11:51:28Z</time>
      </trkpt>
      <trkpt lat="48.32674" lon="2.11945">
        <ele>136.3</ele>
        <time>2020-07-02T11:51:29Z</time>
      </trkpt>
      <trkpt lat="48.32669" lon="2.11942">
        <ele>136.3</ele>
        <time>2020-07-02T11:51:30Z</time>
      </trkpt>
      <trkpt lat="48.32665" lon="2.11941">
        <ele>136.3</ele>
        <time>2020-07-02T11:51:31Z</time>
      </trkpt>
      <trkpt lat="48.32659" lon="2.1194">
        <ele>136.3</ele>
        <time>2020-07-02T11:51:32Z</time>
      </trkpt>
      <trkpt lat="48.32654" lon="2.11938">
        <ele>136.3</ele>
        <time>2020-07-02T11:51:33Z</time>
      </trkpt>
      <trkpt lat="48.32649" lon="2.11935">
        <ele>136.3</ele>
        <time>2020-07-02T11:51:34Z</time>
      </trkpt>
      <trkpt lat="48.32644" lon="2.11932">
        <ele>136.2</ele>
        <time>2020-07-02T11:51:35Z</time>
      </trkpt>
      <trkpt lat="48.32638" lon="2.1193">
        <ele>136.2</ele>
        <time>2020-07-02T11:51:36Z</time>
      </trkpt>
      <trkpt lat="48.32631" lon="2.11927">
        <ele>136.2</ele>
        <time>2020-07-02T11:51:37Z</time>
      </trkpt>
      <trkpt lat="48.32625" lon="2.11925">
        <ele>136.2</ele>
        <time>2020-07-02T11:51:38Z</time>
      </trkpt>
      <trkpt lat="48.3262" lon="2.11923">
        <ele>136.2</ele>
        <time>2020-07-02T11:51:39Z</time>
      </trkpt>
      <trkpt lat="48.32614" lon="2.11923">
        <ele>136.2</ele>
        <time>2020-07-02T11:51:40Z</time>
      </trkpt>
      <trkpt lat="48.32608" lon="2.11922">
        <ele>136.2</ele>
        <time>2020-07-02T11:51:41Z</time>
      </trkpt>
      <trkpt lat="48.32604" lon="2.1192">
        <ele>136.1</ele>
        <time>2020-07-02T11:51:42Z</time>
      </trkpt>
      <trkpt lat="48.32598" lon="2.11917">
        <ele>136.1</ele>
        <time>2020-07-02T11:51:43Z</time>
      </trkpt>
      <trkpt lat="48.32592" lon="2.11916">
        <ele>136</ele>
        <time>2020-07-02T11:51:44Z</time>
      </trkpt>
      <trkpt lat="48.32587" lon="2.11915">
        <ele>136</ele>
        <time>2020-07-02T11:51:45Z</time>
      </trkpt>
      <trkpt lat="48.32581" lon="2.11914">
        <ele>135.9</ele>
        <time>2020-07-02T11:51:46Z</time>
      </trkpt>
      <trkpt lat="48.32575" lon="2.11912">
        <ele>135.9</ele>
        <time>2020-07-02T11:51:47Z</time>
      </trkpt>
      <trkpt lat="48.32567" lon="2.11908">
        <ele>135.9</ele>
        <time>2020-07-02T11:51:48Z</time>
      </trkpt>
      <trkpt lat="48.32562" lon="2.11906">
        <ele>135.8</ele>
        <time>2020-07-02T11:51:49Z</time>
      </trkpt>
      <trkpt lat="48.32557" lon="2.11905">
        <ele>135.8</ele>
        <time>2020-07-02T11:51:50Z</time>
      </trkpt>
      <trkpt lat="48.32552" lon="2.11904">
        <ele>135.8</ele>
        <time>2020-07-02T11:51:51Z</time>
      </trkpt>
      <trkpt lat="48.32547" lon="2.11902">
        <ele>135.7</ele>
        <time>2020-07-02T11:51:52Z</time>
      </trkpt>
      <trkpt lat="48.32542" lon="2.11901">
        <ele>135.7</ele>
        <time>2020-07-02T11:51:53Z</time>
      </trkpt>
      <trkpt lat="48.32536" lon="2.11899">
        <ele>135.7</ele>
        <time>2020-07-02T11:51:54Z</time>
      </trkpt>
      <trkpt lat="48.32529" lon="2.11896">
        <ele>135.7</ele>
        <time>2020-07-02T11:51:55Z</time>
      </trkpt>
      <trkpt lat="48.32523" lon="2.11894">
        <ele>135.7</ele>
        <time>2020-07-02T11:51:56Z</time>
      </trkpt>
      <trkpt lat="48.32516" lon="2.11892">
        <ele>135.7</ele>
        <time>2020-07-02T11:51:57Z</time>
      </trkpt>
      <trkpt lat="48.32509" lon="2.11889">
        <ele>135.7</ele>
        <time>2020-07-02T11:51:58Z</time>
      </trkpt>
      <trkpt lat="48.32504" lon="2.11888">
        <ele>135.7</ele>
        <time>2020-07-02T11:51:59Z</time>
      </trkpt>
      <trkpt lat="48.32497" lon="2.11886">
        <ele>135.7</ele>
        <time>2020-07-02T11:52:00Z</time>
      </trkpt>
      <trkpt lat="48.32492" lon="2.11884">
        <ele>135.7</ele>
        <time>2020-07-02T11:52:01Z</time>
      </trkpt>
      <trkpt lat="48.32487" lon="2.11882">
        <ele>135.7</ele>
        <time>2020-07-02T11:52:02Z</time>
      </trkpt>
      <trkpt lat="48.32481" lon="2.1188">
        <ele>135.6</ele>
        <time>2020-07-02T11:52:03Z</time>
      </trkpt>
      <trkpt lat="48.32476" lon="2.11878">
        <ele>135.6</ele>
        <time>2020-07-02T11:52:04Z</time>
      </trkpt>
      <trkpt lat="48.3247" lon="2.11875">
        <ele>135.6</ele>
        <time>2020-07-02T11:52:05Z</time>
      </trkpt>
      <trkpt lat="48.32465" lon="2.11874">
        <ele>135.6</ele>
        <time>2020-07-02T11:52:06Z</time>
      </trkpt>
      <trkpt lat="48.32459" lon="2.11872">
        <ele>135.6</ele>
        <time>2020-07-02T11:52:07Z</time>
      </trkpt>
      <trkpt lat="48.32454" lon="2.11871">
        <ele>135.6</ele>
        <time>2020-07-02T11:52:08Z</time>
      </trkpt>
      <trkpt lat="48.32449" lon="2.11869">
        <ele>135.6</ele>
        <time>2020-07-02T11:52:09Z</time>
      </trkpt>
      <trkpt lat="48.32443" lon="2.11868">
        <ele>135.6</ele>
        <time>2020-07-02T11:52:10Z</time>
      </trkpt>
      <trkpt lat="48.32436" lon="2.11865">
        <ele>135.6</ele>
        <time>2020-07-02T11:52:11Z</time>
      </trkpt>
      <trkpt lat="48.3243" lon="2.11863">
        <ele>135.6</ele>
        <time>2020-07-02T11:52:12Z</time>
      </trkpt>
      <trkpt lat="48.32423" lon="2.11861">
        <ele>135.7</ele>
        <time>2020-07-02T11:52:13Z</time>
      </trkpt>
      <trkpt lat="48.32418" lon="2.11858">
        <ele>135.7</ele>
        <time>2020-07-02T11:52:14Z</time>
      </trkpt>
      <trkpt lat="48.32415" lon="2.11858">
        <ele>135.7</ele>
        <time>2020-07-02T11:52:15Z</time>
      </trkpt>
      <trkpt lat="48.32408" lon="2.11856">
        <ele>135.7</ele>
        <time>2020-07-02T11:52:16Z</time>
      </trkpt>
      <trkpt lat="48.32403" lon="2.11854">
        <ele>135.7</ele>
        <time>2020-07-02T11:52:17Z</time>
      </trkpt>
      <trkpt lat="48.32396" lon="2.11851">
        <ele>135.7</ele>
        <time>2020-07-02T11:52:18Z</time>
      </trkpt>
      <trkpt lat="48.32392" lon="2.11851">
        <ele>135.7</ele>
        <time>2020-07-02T11:52:19Z</time>
      </trkpt>
      <trkpt lat="48.32387" lon="2.1185">
        <ele>135.8</ele>
        <time>2020-07-02T11:52:20Z</time>
      </trkpt>
      <trkpt lat="48.32381" lon="2.11848">
        <ele>135.8</ele>
        <time>2020-07-02T11:52:21Z</time>
      </trkpt>
      <trkpt lat="48.32375" lon="2.11846">
        <ele>135.8</ele>
        <time>2020-07-02T11:52:22Z</time>
      </trkpt>
      <trkpt lat="48.3237" lon="2.11844">
        <ele>135.8</ele>
        <time>2020-07-02T11:52:23Z</time>
      </trkpt>
      <trkpt lat="48.32364" lon="2.11841">
        <ele>135.9</ele>
        <time>2020-07-02T11:52:24Z</time>
      </trkpt>
      <trkpt lat="48.32358" lon="2.11839">
        <ele>135.9</ele>
        <time>2020-07-02T11:52:25Z</time>
      </trkpt>
      <trkpt lat="48.32354" lon="2.11838">
        <ele>135.9</ele>
        <time>2020-07-02T11:52:26Z</time>
      </trkpt>
      <trkpt lat="48.32347" lon="2.11835">
        <ele>135.9</ele>
        <time>2020-07-02T11:52:27Z</time>
      </trkpt>
      <trkpt lat="48.32341" lon="2.11832">
        <ele>135.9</ele>
        <time>2020-07-02T11:52:28Z</time>
      </trkpt>
      <trkpt lat="48.32337" lon="2.11832">
        <ele>136</ele>
        <time>2020-07-02T11:52:29Z</time>
      </trkpt>
      <trkpt lat="48.32332" lon="2.1183">
        <ele>136</ele>
        <time>2020-07-02T11:52:30Z</time>
      </trkpt>
      <trkpt lat="48.32328" lon="2.11828">
        <ele>136</ele>
        <time>2020-07-02T11:52:31Z</time>
      </trkpt>
      <trkpt lat="48.32321" lon="2.11825">
        <ele>136</ele>
        <time>2020-07-02T11:52:32Z</time>
      </trkpt>
      <trkpt lat="48.32316" lon="2.11824">
        <ele>136.1</ele>
        <time>2020-07-02T11:52:33Z</time>
      </trkpt>
      <trkpt lat="48.32311" lon="2.11822">
        <ele>136.1</ele>
        <time>2020-07-02T11:52:34Z</time>
      </trkpt>
      <trkpt lat="48.32307" lon="2.11821">
        <ele>136.2</ele>
        <time>2020-07-02T11:52:35Z</time>
      </trkpt>
      <trkpt lat="48.323" lon="2.11818">
        <ele>136.3</ele>
        <time>2020-07-02T11:52:36Z</time>
      </trkpt>
      <trkpt lat="48.32295" lon="2.11817">
        <ele>136.3</ele>
        <time>2020-07-02T11:52:37Z</time>
      </trkpt>
      <trkpt lat="48.32289" lon="2.11815">
        <ele>136.4</ele>
        <time>2020-07-02T11:52:38Z</time>
      </trkpt>
      <trkpt lat="48.32284" lon="2.11813">
        <ele>136.4</ele>
        <time>2020-07-02T11:52:39Z</time>
      </trkpt>
      <trkpt lat="48.32279" lon="2.11811">
        <ele>136.4</ele>
        <time>2020-07-02T11:52:40Z</time>
      </trkpt>
      <trkpt lat="48.32274" lon="2.1181">
        <ele>136.5</ele>
        <time>2020-07-02T11:52:41Z</time>
      </trkpt>
      <trkpt lat="48.32268" lon="2.11806">
        <ele>136.5</ele>
        <time>2020-07-02T11:52:42Z</time>
      </trkpt>
      <trkpt lat="48.32263" lon="2.11805">
        <ele>136.6</ele>
        <time>2020-07-02T11:52:43Z</time>
      </trkpt>
      <trkpt lat="48.32257" lon="2.11803">
        <ele>136.6</ele>
        <time>2020-07-02T11:52:44Z</time>
      </trkpt>
      <trkpt lat="48.32253" lon="2.11801">
        <ele>136.6</ele>
        <time>2020-07-02T11:52:45Z</time>
      </trkpt>
      <trkpt lat="48.32245" lon="2.11798">
        <ele>136.6</ele>
        <time>2020-07-02T11:52:46Z</time>
      </trkpt>
      <trkpt lat="48.32242" lon="2.11798">
        <ele>136.7</ele>
        <time>2020-07-02T11:52:47Z</time>
      </trkpt>
      <trkpt lat="48.32237" lon="2.11797">
        <ele>136.7</ele>
        <time>2020-07-02T11:52:48Z</time>
      </trkpt>
      <trkpt lat="48.3223" lon="2.11794">
        <ele>136.7</ele>
        <time>2020-07-02T11:52:49Z</time>
      </trkpt>
      <trkpt lat="48.32224" lon="2.11792">
        <ele>136.7</ele>
        <time>2020-07-02T11:52:50Z</time>
      </trkpt>
      <trkpt lat="48.32219" lon="2.1179">
        <ele>136.7</ele>
        <time>2020-07-02T11:52:51Z</time>
      </trkpt>
      <trkpt lat="48.32215" lon="2.1179">
        <ele>136.7</ele>
        <time>2020-07-02T11:52:52Z</time>
      </trkpt>
      <trkpt lat="48.3221" lon="2.11788">
        <ele>136.7</ele>
        <time>2020-07-02T11:52:53Z</time>
      </trkpt>
      <trkpt lat="48.32205" lon="2.11787">
        <ele>136.8</ele>
        <time>2020-07-02T11:52:54Z</time>
      </trkpt>
      <trkpt lat="48.32199" lon="2.11785">
        <ele>136.8</ele>
        <time>2020-07-02T11:52:55Z</time>
      </trkpt>
      <trkpt lat="48.32194" lon="2.11783">
        <ele>136.8</ele>
        <time>2020-07-02T11:52:56Z</time>
      </trkpt>
      <trkpt lat="48.32189" lon="2.11781">
        <ele>136.8</ele>
        <time>2020-07-02T11:52:57Z</time>
      </trkpt>
      <trkpt lat="48.32184" lon="2.1178">
        <ele>136.9</ele>
        <time>2020-07-02T11:52:58Z</time>
      </trkpt>
      <trkpt lat="48.32179" lon="2.11779">
        <ele>136.9</ele>
        <time>2020-07-02T11:52:59Z</time>
      </trkpt>
      <trkpt lat="48.32173" lon="2.11777">
        <ele>136.9</ele>
        <time>2020-07-02T11:53:00Z</time>
      </trkpt>
      <trkpt lat="48.32168" lon="2.11776">
        <ele>137</ele>
        <time>2020-07-02T11:53:01Z</time>
      </trkpt>
      <trkpt lat="48.32163" lon="2.11774">
        <ele>137</ele>
        <time>2020-07-02T11:53:02Z</time>
      </trkpt>
      <trkpt lat="48.32157" lon="2.11772">
        <ele>137</ele>
        <time>2020-07-02T11:53:03Z</time>
      </trkpt>
      <trkpt lat="48.32152" lon="2.1177">
        <ele>137</ele>
        <time>2020-07-02T11:53:04Z</time>
      </trkpt>
      <trkpt lat="48.32147" lon="2.11768">
        <ele>137</ele>
        <time>2020-07-02T11:53:05Z</time>
      </trkpt>
      <trkpt lat="48.32141" lon="2.11764">
        <ele>137.1</ele>
        <time>2020-07-02T11:53:06Z</time>
      </trkpt>
      <trkpt lat="48.32136" lon="2.11762">
        <ele>137.1</ele>
        <time>2020-07-02T11:53:07Z</time>
      </trkpt>
      <trkpt lat="48.32131" lon="2.11761">
        <ele>137.1</ele>
        <time>2020-07-02T11:53:08Z</time>
      </trkpt>
      <trkpt lat="48.32126" lon="2.11759">
        <ele>137.1</ele>
        <time>2020-07-02T11:53:09Z</time>
      </trkpt>
      <trkpt lat="48.3212" lon="2.11757">
        <ele>137.1</ele>
        <time>2020-07-02T11:53:10Z</time>
      </trkpt>
      <trkpt lat="48.32115" lon="2.11756">
        <ele>137.1</ele>
        <time>2020-07-02T11:53:11Z</time>
      </trkpt>
      <trkpt lat="48.3211" lon="2.11753">
        <ele>137.1</ele>
        <time>2020-07-02T11:53:12Z</time>
      </trkpt>
      <trkpt lat="48.32106" lon="2.11752">
        <ele>137.1</ele>
        <time>2020-07-02T11:53:13Z</time>
      </trkpt>
      <trkpt lat="48.32101" lon="2.11751">
        <ele>137.1</ele>
        <time>2020-07-02T11:53:14Z</time>
      </trkpt>
      <trkpt lat="48.32095" lon="2.1175">
        <ele>137.1</ele>
        <time>2020-07-02T11:53:15Z</time>
      </trkpt>
      <trkpt lat="48.32091" lon="2.11749">
        <ele>137.1</ele>
        <time>2020-07-02T11:53:16Z</time>
      </trkpt>
      <trkpt lat="48.32086" lon="2.11748">
        <ele>137.2</ele>
        <time>2020-07-02T11:53:17Z</time>
      </trkpt>
      <trkpt lat="48.32081" lon="2.11746">
        <ele>137.2</ele>
        <time>2020-07-02T11:53:18Z</time>
      </trkpt>
      <trkpt lat="48.32075" lon="2.11744">
        <ele>137.2</ele>
        <time>2020-07-02T11:53:19Z</time>
      </trkpt>
      <trkpt lat="48.3207" lon="2.11743">
        <ele>137.3</ele>
        <time>2020-07-02T11:53:20Z</time>
      </trkpt>
      <trkpt lat="48.32066" lon="2.11742">
        <ele>137.3</ele>
        <time>2020-07-02T11:53:21Z</time>
      </trkpt>
      <trkpt lat="48.32061" lon="2.11741">
        <ele>137.3</ele>
        <time>2020-07-02T11:53:22Z</time>
      </trkpt>
      <trkpt lat="48.32057" lon="2.1174">
        <ele>137.3</ele>
        <time>2020-07-02T11:53:23Z</time>
      </trkpt>
      <trkpt lat="48.32051" lon="2.11736">
        <ele>137.3</ele>
        <time>2020-07-02T11:53:24Z</time>
      </trkpt>
      <trkpt lat="48.32046" lon="2.11732">
        <ele>137.4</ele>
        <time>2020-07-02T11:53:25Z</time>
      </trkpt>
      <trkpt lat="48.3204" lon="2.1173">
        <ele>137.4</ele>
        <time>2020-07-02T11:53:26Z</time>
      </trkpt>
      <trkpt lat="48.32036" lon="2.11728">
        <ele>137.4</ele>
        <time>2020-07-02T11:53:27Z</time>
      </trkpt>
      <trkpt lat="48.32032" lon="2.11727">
        <ele>137.4</ele>
        <time>2020-07-02T11:53:28Z</time>
      </trkpt>
      <trkpt lat="48.32028" lon="2.11727">
        <ele>137.4</ele>
        <time>2020-07-02T11:53:29Z</time>
      </trkpt>
      <trkpt lat="48.32023" lon="2.11726">
        <ele>137.4</ele>
        <time>2020-07-02T11:53:30Z</time>
      </trkpt>
      <trkpt lat="48.32018" lon="2.11723">
        <ele>137.5</ele>
        <time>2020-07-02T11:53:31Z</time>
      </trkpt>
      <trkpt lat="48.32012" lon="2.11721">
        <ele>137.5</ele>
        <time>2020-07-02T11:53:32Z</time>
      </trkpt>
      <trkpt lat="48.32008" lon="2.11721">
        <ele>137.5</ele>
        <time>2020-07-02T11:53:33Z</time>
      </trkpt>
      <trkpt lat="48.32003" lon="2.11719">
        <ele>137.5</ele>
        <time>2020-07-02T11:53:34Z</time>
      </trkpt>
      <trkpt lat="48.31998" lon="2.11718">
        <ele>137.5</ele>
        <time>2020-07-02T11:53:35Z</time>
      </trkpt>
      <trkpt lat="48.31994" lon="2.11717">
        <ele>137.5</ele>
        <time>2020-07-02T11:53:36Z</time>
      </trkpt>
      <trkpt lat="48.31989" lon="2.11715">
        <ele>137.6</ele>
        <time>2020-07-02T11:53:37Z</time>
      </trkpt>
      <trkpt lat="48.31983" lon="2.11713">
        <ele>137.6</ele>
        <time>2020-07-02T11:53:38Z</time>
      </trkpt>
      <trkpt lat="48.31978" lon="2.11711">
        <ele>137.6</ele>
        <time>2020-07-02T11:53:39Z</time>
      </trkpt>
      <trkpt lat="48.31972" lon="2.11709">
        <ele>137.5</ele>
        <time>2020-07-02T11:53:40Z</time>
      </trkpt>
      <trkpt lat="48.31967" lon="2.11707">
        <ele>137.4</ele>
        <time>2020-07-02T11:53:41Z</time>
      </trkpt>
      <trkpt lat="48.31961" lon="2.11705">
        <ele>136.8</ele>
        <time>2020-07-02T11:53:42Z</time>
      </trkpt>
      <trkpt lat="48.31956" lon="2.11703">
        <ele>136.8</ele>
        <time>2020-07-02T11:53:43Z</time>
      </trkpt>
      <trkpt lat="48.31951" lon="2.11701">
        <ele>136.7</ele>
        <time>2020-07-02T11:53:44Z</time>
      </trkpt>
      <trkpt lat="48.31946" lon="2.117">
        <ele>136.7</ele>
        <time>2020-07-02T11:53:45Z</time>
      </trkpt>
      <trkpt lat="48.3194" lon="2.11698">
        <ele>136.6</ele>
        <time>2020-07-02T11:53:46Z</time>
      </trkpt>
      <trkpt lat="48.31934" lon="2.11696">
        <ele>136.6</ele>
        <time>2020-07-02T11:53:47Z</time>
      </trkpt>
      <trkpt lat="48.31929" lon="2.11695">
        <ele>136.6</ele>
        <time>2020-07-02T11:53:48Z</time>
      </trkpt>
      <trkpt lat="48.31924" lon="2.11693">
        <ele>136.6</ele>
        <time>2020-07-02T11:53:49Z</time>
      </trkpt>
      <trkpt lat="48.31918" lon="2.11691">
        <ele>136.6</ele>
        <time>2020-07-02T11:53:50Z</time>
      </trkpt>
      <trkpt lat="48.31913" lon="2.11689">
        <ele>136.6</ele>
        <time>2020-07-02T11:53:51Z</time>
      </trkpt>
      <trkpt lat="48.31908" lon="2.11688">
        <ele>136.5</ele>
        <time>2020-07-02T11:53:52Z</time>
      </trkpt>
      <trkpt lat="48.31902" lon="2.11685">
        <ele>136.5</ele>
        <time>2020-07-02T11:53:53Z</time>
      </trkpt>
      <trkpt lat="48.31897" lon="2.11684">
        <ele>136.5</ele>
        <time>2020-07-02T11:53:54Z</time>
      </trkpt>
      <trkpt lat="48.31892" lon="2.11682">
        <ele>136.5</ele>
        <time>2020-07-02T11:53:55Z</time>
      </trkpt>
      <trkpt lat="48.31889" lon="2.11682">
        <ele>136.5</ele>
        <time>2020-07-02T11:53:56Z</time>
      </trkpt>
      <trkpt lat="48.31883" lon="2.1168">
        <ele>136.5</ele>
        <time>2020-07-02T11:53:57Z</time>
      </trkpt>
      <trkpt lat="48.31878" lon="2.11677">
        <ele>136.4</ele>
        <time>2020-07-02T11:53:58Z</time>
      </trkpt>
      <trkpt lat="48.31874" lon="2.11677">
        <ele>136.4</ele>
        <time>2020-07-02T11:53:59Z</time>
      </trkpt>
      <trkpt lat="48.31869" lon="2.11676">
        <ele>136.4</ele>
        <time>2020-07-02T11:54:00Z</time>
      </trkpt>
      <trkpt lat="48.31864" lon="2.11674">
        <ele>136.4</ele>
        <time>2020-07-02T11:54:01Z</time>
      </trkpt>
      <trkpt lat="48.31859" lon="2.11672">
        <ele>136.4</ele>
        <time>2020-07-02T11:54:02Z</time>
      </trkpt>
      <trkpt lat="48.31852" lon="2.11669">
        <ele>136.3</ele>
        <time>2020-07-02T11:54:03Z</time>
      </trkpt>
      <trkpt lat="48.31847" lon="2.11667">
        <ele>136.3</ele>
        <time>2020-07-02T11:54:04Z</time>
      </trkpt>
      <trkpt lat="48.3184" lon="2.11665">
        <ele>136.3</ele>
        <time>2020-07-02T11:54:05Z</time>
      </trkpt>
      <trkpt lat="48.31835" lon="2.11663">
        <ele>136.2</ele>
        <time>2020-07-02T11:54:06Z</time>
      </trkpt>
      <trkpt lat="48.3183" lon="2.11662">
        <ele>136.2</ele>
        <time>2020-07-02T11:54:07Z</time>
      </trkpt>
      <trkpt lat="48.31824" lon="2.11661">
        <ele>136.1</ele>
        <time>2020-07-02T11:54:08Z</time>
      </trkpt>
      <trkpt lat="48.31817" lon="2.11657">
        <ele>136.1</ele>
        <time>2020-07-02T11:54:09Z</time>
      </trkpt>
      <trkpt lat="48.31813" lon="2.11656">
        <ele>136.1</ele>
        <time>2020-07-02T11:54:10Z</time>
      </trkpt>
      <trkpt lat="48.31808" lon="2.11655">
        <ele>136</ele>
        <time>2020-07-02T11:54:11Z</time>
      </trkpt>
      <trkpt lat="48.31803" lon="2.11654">
        <ele>136</ele>
        <time>2020-07-02T11:54:12Z</time>
      </trkpt>
      <trkpt lat="48.31797" lon="2.11652">
        <ele>136</ele>
        <time>2020-07-02T11:54:13Z</time>
      </trkpt>
      <trkpt lat="48.31792" lon="2.1165">
        <ele>136</ele>
        <time>2020-07-02T11:54:14Z</time>
      </trkpt>
      <trkpt lat="48.31786" lon="2.11649">
        <ele>135.9</ele>
        <time>2020-07-02T11:54:15Z</time>
      </trkpt>
      <trkpt lat="48.31781" lon="2.11647">
        <ele>135.9</ele>
        <time>2020-07-02T11:54:16Z</time>
      </trkpt>
      <trkpt lat="48.31777" lon="2.11646">
        <ele>135.8</ele>
        <time>2020-07-02T11:54:17Z</time>
      </trkpt>
      <trkpt lat="48.31771" lon="2.11645">
        <ele>135.7</ele>
        <time>2020-07-02T11:54:18Z</time>
      </trkpt>
      <trkpt lat="48.31765" lon="2.11642">
        <ele>135.7</ele>
        <time>2020-07-02T11:54:19Z</time>
      </trkpt>
      <trkpt lat="48.31759" lon="2.1164">
        <ele>135.6</ele>
        <time>2020-07-02T11:54:20Z</time>
      </trkpt>
      <trkpt lat="48.31753" lon="2.11638">
        <ele>135.6</ele>
        <time>2020-07-02T11:54:21Z</time>
      </trkpt>
      <trkpt lat="48.31747" lon="2.11635">
        <ele>135.5</ele>
        <time>2020-07-02T11:54:22Z</time>
      </trkpt>
      <trkpt lat="48.31741" lon="2.11632">
        <ele>135.5</ele>
        <time>2020-07-02T11:54:23Z</time>
      </trkpt>
      <trkpt lat="48.31736" lon="2.1163">
        <ele>135.6</ele>
        <time>2020-07-02T11:54:24Z</time>
      </trkpt>
      <trkpt lat="48.31732" lon="2.11628">
        <ele>135.6</ele>
        <time>2020-07-02T11:54:25Z</time>
      </trkpt>
      <trkpt lat="48.31727" lon="2.11627">
        <ele>135.6</ele>
        <time>2020-07-02T11:54:26Z</time>
      </trkpt>
      <trkpt lat="48.31722" lon="2.11625">
        <ele>135.7</ele>
        <time>2020-07-02T11:54:27Z</time>
      </trkpt>
      <trkpt lat="48.31716" lon="2.11624">
        <ele>135.7</ele>
        <time>2020-07-02T11:54:28Z</time>
      </trkpt>
      <trkpt lat="48.31711" lon="2.11624">
        <ele>135.6</ele>
        <time>2020-07-02T11:54:29Z</time>
      </trkpt>
      <trkpt lat="48.31705" lon="2.11622">
        <ele>135.5</ele>
        <time>2020-07-02T11:54:30Z</time>
      </trkpt>
      <trkpt lat="48.31699" lon="2.11619">
        <ele>135.4</ele>
        <time>2020-07-02T11:54:31Z</time>
      </trkpt>
      <trkpt lat="48.31695" lon="2.11619">
        <ele>135.3</ele>
        <time>2020-07-02T11:54:32Z</time>
      </trkpt>
      <trkpt lat="48.31689" lon="2.11617">
        <ele>135.3</ele>
        <time>2020-07-02T11:54:33Z</time>
      </trkpt>
      <trkpt lat="48.31682" lon="2.11617">
        <ele>135.2</ele>
        <time>2020-07-02T11:54:34Z</time>
      </trkpt>
      <trkpt lat="48.31678" lon="2.11614">
        <ele>135.2</ele>
        <time>2020-07-02T11:54:35Z</time>
      </trkpt>
      <trkpt lat="48.31672" lon="2.11612">
        <ele>135.1</ele>
        <time>2020-07-02T11:54:36Z</time>
      </trkpt>
      <trkpt lat="48.31666" lon="2.11611">
        <ele>135.1</ele>
        <time>2020-07-02T11:54:37Z</time>
      </trkpt>
      <trkpt lat="48.3166" lon="2.11609">
        <ele>135</ele>
        <time>2020-07-02T11:54:38Z</time>
      </trkpt>
      <trkpt lat="48.31654" lon="2.11607">
        <ele>134.9</ele>
        <time>2020-07-02T11:54:39Z</time>
      </trkpt>
      <trkpt lat="48.31648" lon="2.11606">
        <ele>134.9</ele>
        <time>2020-07-02T11:54:40Z</time>
      </trkpt>
      <trkpt lat="48.31643" lon="2.11605">
        <ele>134.8</ele>
        <time>2020-07-02T11:54:41Z</time>
      </trkpt>
      <trkpt lat="48.31636" lon="2.11604">
        <ele>134.8</ele>
        <time>2020-07-02T11:54:42Z</time>
      </trkpt>
      <trkpt lat="48.31629" lon="2.11601">
        <ele>134.8</ele>
        <time>2020-07-02T11:54:43Z</time>
      </trkpt>
      <trkpt lat="48.31624" lon="2.116">
        <ele>134.7</ele>
        <time>2020-07-02T11:54:44Z</time>
      </trkpt>
      <trkpt lat="48.31618" lon="2.116">
        <ele>134.7</ele>
        <time>2020-07-02T11:54:45Z</time>
      </trkpt>
      <trkpt lat="48.31612" lon="2.11598">
        <ele>134.7</ele>
        <time>2020-07-02T11:54:46Z</time>
      </trkpt>
      <trkpt lat="48.31606" lon="2.11597">
        <ele>134.7</ele>
        <time>2020-07-02T11:54:47Z</time>
      </trkpt>
      <trkpt lat="48.316" lon="2.11596">
        <ele>134.6</ele>
        <time>2020-07-02T11:54:48Z</time>
      </trkpt>
      <trkpt lat="48.31594" lon="2.11595">
        <ele>134.6</ele>
        <time>2020-07-02T11:54:49Z</time>
      </trkpt>
      <trkpt lat="48.31588" lon="2.11594">
        <ele>134.6</ele>
        <time>2020-07-02T11:54:50Z</time>
      </trkpt>
      <trkpt lat="48.31581" lon="2.11592">
        <ele>134.5</ele>
        <time>2020-07-02T11:54:51Z</time>
      </trkpt>
      <trkpt lat="48.31575" lon="2.1159">
        <ele>134.5</ele>
        <time>2020-07-02T11:54:52Z</time>
      </trkpt>
      <trkpt lat="48.31568" lon="2.11588">
        <ele>134.5</ele>
        <time>2020-07-02T11:54:53Z</time>
      </trkpt>
      <trkpt lat="48.31563" lon="2.11587">
        <ele>134.5</ele>
        <time>2020-07-02T11:54:54Z</time>
      </trkpt>
      <trkpt lat="48.31557" lon="2.11585">
        <ele>134.4</ele>
        <time>2020-07-02T11:54:55Z</time>
      </trkpt>
      <trkpt lat="48.31551" lon="2.11583">
        <ele>134.4</ele>
        <time>2020-07-02T11:54:56Z</time>
      </trkpt>
      <trkpt lat="48.31544" lon="2.11581">
        <ele>134.4</ele>
        <time>2020-07-02T11:54:57Z</time>
      </trkpt>
      <trkpt lat="48.31538" lon="2.1158">
        <ele>134.3</ele>
        <time>2020-07-02T11:54:58Z</time>
      </trkpt>
      <trkpt lat="48.31533" lon="2.11578">
        <ele>134.2</ele>
        <time>2020-07-02T11:54:59Z</time>
      </trkpt>
      <trkpt lat="48.31527" lon="2.11577">
        <ele>134.2</ele>
        <time>2020-07-02T11:55:00Z</time>
      </trkpt>
      <trkpt lat="48.31521" lon="2.11576">
        <ele>134.1</ele>
        <time>2020-07-02T11:55:01Z</time>
      </trkpt>
      <trkpt lat="48.31515" lon="2.11575">
        <ele>134</ele>
        <time>2020-07-02T11:55:02Z</time>
      </trkpt>
      <trkpt lat="48.31509" lon="2.11573">
        <ele>133.9</ele>
        <time>2020-07-02T11:55:03Z</time>
      </trkpt>
      <trkpt lat="48.31503" lon="2.11571">
        <ele>133.9</ele>
        <time>2020-07-02T11:55:04Z</time>
      </trkpt>
      <trkpt lat="48.31497" lon="2.11569">
        <ele>133.8</ele>
        <time>2020-07-02T11:55:05Z</time>
      </trkpt>
      <trkpt lat="48.31492" lon="2.11567">
        <ele>133.8</ele>
        <time>2020-07-02T11:55:06Z</time>
      </trkpt>
      <trkpt lat="48.31486" lon="2.11566">
        <ele>133.7</ele>
        <time>2020-07-02T11:55:07Z</time>
      </trkpt>
      <trkpt lat="48.3148" lon="2.11565">
        <ele>133.7</ele>
        <time>2020-07-02T11:55:08Z</time>
      </trkpt>
      <trkpt lat="48.31474" lon="2.11564">
        <ele>133.7</ele>
        <time>2020-07-02T11:55:09Z</time>
      </trkpt>
      <trkpt lat="48.31468" lon="2.11562">
        <ele>133.6</ele>
        <time>2020-07-02T11:55:10Z</time>
      </trkpt>
      <trkpt lat="48.31461" lon="2.11561">
        <ele>133.6</ele>
        <time>2020-07-02T11:55:11Z</time>
      </trkpt>
      <trkpt lat="48.31455" lon="2.11558">
        <ele>133.5</ele>
        <time>2020-07-02T11:55:12Z</time>
      </trkpt>
      <trkpt lat="48.31449" lon="2.11556">
        <ele>133.4</ele>
        <time>2020-07-02T11:55:13Z</time>
      </trkpt>
      <trkpt lat="48.31442" lon="2.11555">
        <ele>133.4</ele>
        <time>2020-07-02T11:55:14Z</time>
      </trkpt>
      <trkpt lat="48.31436" lon="2.11553">
        <ele>133.3</ele>
        <time>2020-07-02T11:55:15Z</time>
      </trkpt>
      <trkpt lat="48.31429" lon="2.11552">
        <ele>133.2</ele>
        <time>2020-07-02T11:55:16Z</time>
      </trkpt>
      <trkpt lat="48.31423" lon="2.1155">
        <ele>133.1</ele>
        <time>2020-07-02T11:55:17Z</time>
      </trkpt>
      <trkpt lat="48.31416" lon="2.11548">
        <ele>133.1</ele>
        <time>2020-07-02T11:55:18Z</time>
      </trkpt>
      <trkpt lat="48.31409" lon="2.11547">
        <ele>133</ele>
        <time>2020-07-02T11:55:19Z</time>
      </trkpt>
      <trkpt lat="48.31403" lon="2.11545">
        <ele>132.9</ele>
        <time>2020-07-02T11:55:20Z</time>
      </trkpt>
      <trkpt lat="48.31397" lon="2.11543">
        <ele>132.9</ele>
        <time>2020-07-02T11:55:21Z</time>
      </trkpt>
      <trkpt lat="48.3139" lon="2.11542">
        <ele>132.9</ele>
        <time>2020-07-02T11:55:22Z</time>
      </trkpt>
      <trkpt lat="48.31382" lon="2.1154">
        <ele>132.9</ele>
        <time>2020-07-02T11:55:23Z</time>
      </trkpt>
      <trkpt lat="48.31375" lon="2.11539">
        <ele>132.9</ele>
        <time>2020-07-02T11:55:24Z</time>
      </trkpt>
      <trkpt lat="48.31369" lon="2.11537">
        <ele>133</ele>
        <time>2020-07-02T11:55:25Z</time>
      </trkpt>
      <trkpt lat="48.31362" lon="2.11535">
        <ele>133.1</ele>
        <time>2020-07-02T11:55:26Z</time>
      </trkpt>
      <trkpt lat="48.31355" lon="2.11534">
        <ele>133.2</ele>
        <time>2020-07-02T11:55:27Z</time>
      </trkpt>
      <trkpt lat="48.31349" lon="2.11532">
        <ele>133.2</ele>
        <time>2020-07-02T11:55:28Z</time>
      </trkpt>
      <trkpt lat="48.31344" lon="2.11531">
        <ele>133.3</ele>
        <time>2020-07-02T11:55:29Z</time>
      </trkpt>
      <trkpt lat="48.31338" lon="2.11529">
        <ele>133.3</ele>
        <time>2020-07-02T11:55:30Z</time>
      </trkpt>
      <trkpt lat="48.31333" lon="2.11528">
        <ele>133.4</ele>
        <time>2020-07-02T11:55:31Z</time>
      </trkpt>
      <trkpt lat="48.31328" lon="2.11526">
        <ele>133.3</ele>
        <time>2020-07-02T11:55:32Z</time>
      </trkpt>
      <trkpt lat="48.31323" lon="2.11524">
        <ele>133.3</ele>
        <time>2020-07-02T11:55:33Z</time>
      </trkpt>
      <trkpt lat="48.31318" lon="2.11521">
        <ele>133.2</ele>
        <time>2020-07-02T11:55:34Z</time>
      </trkpt>
      <trkpt lat="48.31313" lon="2.1152">
        <ele>133.1</ele>
        <time>2020-07-02T11:55:35Z</time>
      </trkpt>
      <trkpt lat="48.31308" lon="2.11519">
        <ele>133</ele>
        <time>2020-07-02T11:55:36Z</time>
      </trkpt>
      <trkpt lat="48.31303" lon="2.11517">
        <ele>132.8</ele>
        <time>2020-07-02T11:55:37Z</time>
      </trkpt>
      <trkpt lat="48.31298" lon="2.11516">
        <ele>132.7</ele>
        <time>2020-07-02T11:55:38Z</time>
      </trkpt>
      <trkpt lat="48.31294" lon="2.11514">
        <ele>132.6</ele>
        <time>2020-07-02T11:55:39Z</time>
      </trkpt>
      <trkpt lat="48.31289" lon="2.11513">
        <ele>132.4</ele>
        <time>2020-07-02T11:55:40Z</time>
      </trkpt>
      <trkpt lat="48.31284" lon="2.11512">
        <ele>132.2</ele>
        <time>2020-07-02T11:55:41Z</time>
      </trkpt>
      <trkpt lat="48.31279" lon="2.11511">
        <ele>132</ele>
        <time>2020-07-02T11:55:42Z</time>
      </trkpt>
      <trkpt lat="48.31274" lon="2.11509">
        <ele>131.8</ele>
        <time>2020-07-02T11:55:43Z</time>
      </trkpt>
      <trkpt lat="48.31269" lon="2.11508">
        <ele>131.6</ele>
        <time>2020-07-02T11:55:44Z</time>
      </trkpt>
      <trkpt lat="48.31263" lon="2.11506">
        <ele>131.4</ele>
        <time>2020-07-02T11:55:45Z</time>
      </trkpt>
      <trkpt lat="48.31256" lon="2.11504">
        <ele>131.1</ele>
        <time>2020-07-02T11:55:46Z</time>
      </trkpt>
      <trkpt lat="48.3125" lon="2.11503">
        <ele>131</ele>
        <time>2020-07-02T11:55:47Z</time>
      </trkpt>
      <trkpt lat="48.31242" lon="2.11503">
        <ele>130.8</ele>
        <time>2020-07-02T11:55:48Z</time>
      </trkpt>
      <trkpt lat="48.31236" lon="2.11502">
        <ele>130.6</ele>
        <time>2020-07-02T11:55:49Z</time>
      </trkpt>
      <trkpt lat="48.3123" lon="2.115">
        <ele>130.5</ele>
        <time>2020-07-02T11:55:50Z</time>
      </trkpt>
      <trkpt lat="48.31224" lon="2.11498">
        <ele>130.3</ele>
        <time>2020-07-02T11:55:51Z</time>
      </trkpt>
      <trkpt lat="48.31217" lon="2.11496">
        <ele>130.1</ele>
        <time>2020-07-02T11:55:52Z</time>
      </trkpt>
      <trkpt lat="48.31211" lon="2.11494">
        <ele>130</ele>
        <time>2020-07-02T11:55:53Z</time>
      </trkpt>
      <trkpt lat="48.31204" lon="2.11492">
        <ele>129.9</ele>
        <time>2020-07-02T11:55:54Z</time>
      </trkpt>
      <trkpt lat="48.31197" lon="2.1149">
        <ele>129.7</ele>
        <time>2020-07-02T11:55:55Z</time>
      </trkpt>
      <trkpt lat="48.31191" lon="2.11488">
        <ele>129.6</ele>
        <time>2020-07-02T11:55:56Z</time>
      </trkpt>
      <trkpt lat="48.31184" lon="2.11487">
        <ele>129.5</ele>
        <time>2020-07-02T11:55:57Z</time>
      </trkpt>
      <trkpt lat="48.31178" lon="2.11485">
        <ele>129.4</ele>
        <time>2020-07-02T11:55:58Z</time>
      </trkpt>
      <trkpt lat="48.31172" lon="2.11484">
        <ele>129.4</ele>
        <time>2020-07-02T11:55:59Z</time>
      </trkpt>
      <trkpt lat="48.31165" lon="2.11482">
        <ele>129.3</ele>
        <time>2020-07-02T11:56:00Z</time>
      </trkpt>
      <trkpt lat="48.31158" lon="2.11479">
        <ele>129.2</ele>
        <time>2020-07-02T11:56:01Z</time>
      </trkpt>
      <trkpt lat="48.31152" lon="2.11477">
        <ele>129.1</ele>
        <time>2020-07-02T11:56:02Z</time>
      </trkpt>
      <trkpt lat="48.31146" lon="2.11476">
        <ele>129.1</ele>
        <time>2020-07-02T11:56:03Z</time>
      </trkpt>
      <trkpt lat="48.31139" lon="2.11474">
        <ele>129</ele>
        <time>2020-07-02T11:56:04Z</time>
      </trkpt>
      <trkpt lat="48.31133" lon="2.11472">
        <ele>129</ele>
        <time>2020-07-02T11:56:05Z</time>
      </trkpt>
      <trkpt lat="48.31127" lon="2.1147">
        <ele>129</ele>
        <time>2020-07-02T11:56:06Z</time>
      </trkpt>
      <trkpt lat="48.3112" lon="2.11468">
        <ele>128.9</ele>
        <time>2020-07-02T11:56:07Z</time>
      </trkpt>
      <trkpt lat="48.31114" lon="2.11466">
        <ele>128.8</ele>
        <time>2020-07-02T11:56:08Z</time>
      </trkpt>
      <trkpt lat="48.31108" lon="2.11465">
        <ele>128.8</ele>
        <time>2020-07-02T11:56:09Z</time>
      </trkpt>
      <trkpt lat="48.31102" lon="2.11464">
        <ele>128.8</ele>
        <time>2020-07-02T11:56:10Z</time>
      </trkpt>
      <trkpt lat="48.31096" lon="2.11462">
        <ele>128.8</ele>
        <time>2020-07-02T11:56:11Z</time>
      </trkpt>
      <trkpt lat="48.3109" lon="2.11461">
        <ele>128.8</ele>
        <time>2020-07-02T11:56:12Z</time>
      </trkpt>
      <trkpt lat="48.31083" lon="2.11459">
        <ele>128.9</ele>
        <time>2020-07-02T11:56:13Z</time>
      </trkpt>
      <trkpt lat="48.31078" lon="2.11458">
        <ele>128.9</ele>
        <time>2020-07-02T11:56:14Z</time>
      </trkpt>
      <trkpt lat="48.31072" lon="2.11456">
        <ele>129</ele>
        <time>2020-07-02T11:56:15Z</time>
      </trkpt>
      <trkpt lat="48.31067" lon="2.11455">
        <ele>129</ele>
        <time>2020-07-02T11:56:16Z</time>
      </trkpt>
      <trkpt lat="48.31063" lon="2.11455">
        <ele>129</ele>
        <time>2020-07-02T11:56:17Z</time>
      </trkpt>
      <trkpt lat="48.31057" lon="2.11454">
        <ele>129</ele>
        <time>2020-07-02T11:56:18Z</time>
      </trkpt>
      <trkpt lat="48.31053" lon="2.11453">
        <ele>129.1</ele>
        <time>2020-07-02T11:56:19Z</time>
      </trkpt>
      <trkpt lat="48.31049" lon="2.11451">
        <ele>129.1</ele>
        <time>2020-07-02T11:56:20Z</time>
      </trkpt>
      <trkpt lat="48.31045" lon="2.11449">
        <ele>129.1</ele>
        <time>2020-07-02T11:56:21Z</time>
      </trkpt>
      <trkpt lat="48.3104" lon="2.11448">
        <ele>129.2</ele>
        <time>2020-07-02T11:56:22Z</time>
      </trkpt>
      <trkpt lat="48.31036" lon="2.11447">
        <ele>129.2</ele>
        <time>2020-07-02T11:56:23Z</time>
      </trkpt>
      <trkpt lat="48.31033" lon="2.11446">
        <ele>129.3</ele>
        <time>2020-07-02T11:56:24Z</time>
      </trkpt>
      <trkpt lat="48.31028" lon="2.11446">
        <ele>129.3</ele>
        <time>2020-07-02T11:56:25Z</time>
      </trkpt>
      <trkpt lat="48.31024" lon="2.11444">
        <ele>129.4</ele>
        <time>2020-07-02T11:56:26Z</time>
      </trkpt>
      <trkpt lat="48.31022" lon="2.11443">
        <ele>129.4</ele>
        <time>2020-07-02T11:56:27Z</time>
      </trkpt>
      <trkpt lat="48.31019" lon="2.11442">
        <ele>129.4</ele>
        <time>2020-07-02T11:56:28Z</time>
      </trkpt>
      <trkpt lat="48.31017" lon="2.11441">
        <ele>129.5</ele>
        <time>2020-07-02T11:56:29Z</time>
      </trkpt>
      <trkpt lat="48.31012" lon="2.11441">
        <ele>129.5</ele>
        <time>2020-07-02T11:56:30Z</time>
      </trkpt>
      <trkpt lat="48.3101" lon="2.1144">
        <ele>129.5</ele>
        <time>2020-07-02T11:56:31Z</time>
      </trkpt>
      <trkpt lat="48.31007" lon="2.1144">
        <ele>129.6</ele>
        <time>2020-07-02T11:56:32Z</time>
      </trkpt>
      <trkpt lat="48.31003" lon="2.11439">
        <ele>129.6</ele>
        <time>2020-07-02T11:56:33Z</time>
      </trkpt>
      <trkpt lat="48.30998" lon="2.11438">
        <ele>129.7</ele>
        <time>2020-07-02T11:56:34Z</time>
      </trkpt>
      <trkpt lat="48.30994" lon="2.11437">
        <ele>129.7</ele>
        <time>2020-07-02T11:56:35Z</time>
      </trkpt>
      <trkpt lat="48.3099" lon="2.11436">
        <ele>129.8</ele>
        <time>2020-07-02T11:56:36Z</time>
      </trkpt>
      <trkpt lat="48.30985" lon="2.11434">
        <ele>129.8</ele>
        <time>2020-07-02T11:56:37Z</time>
      </trkpt>
      <trkpt lat="48.3098" lon="2.11433">
        <ele>129.9</ele>
        <time>2020-07-02T11:56:38Z</time>
      </trkpt>
      <trkpt lat="48.30976" lon="2.11432">
        <ele>130</ele>
        <time>2020-07-02T11:56:39Z</time>
      </trkpt>
      <trkpt lat="48.30972" lon="2.11431">
        <ele>130</ele>
        <time>2020-07-02T11:56:40Z</time>
      </trkpt>
      <trkpt lat="48.30968" lon="2.11429">
        <ele>130.1</ele>
        <time>2020-07-02T11:56:41Z</time>
      </trkpt>
      <trkpt lat="48.30964" lon="2.11428">
        <ele>130.1</ele>
        <time>2020-07-02T11:56:42Z</time>
      </trkpt>
      <trkpt lat="48.30961" lon="2.11425">
        <ele>130.2</ele>
        <time>2020-07-02T11:56:43Z</time>
      </trkpt>
      <trkpt lat="48.30957" lon="2.11424">
        <ele>130.2</ele>
        <time>2020-07-02T11:56:44Z</time>
      </trkpt>
      <trkpt lat="48.30953" lon="2.11423">
        <ele>130.3</ele>
        <time>2020-07-02T11:56:45Z</time>
      </trkpt>
      <trkpt lat="48.30949" lon="2.11422">
        <ele>130.3</ele>
        <time>2020-07-02T11:56:46Z</time>
      </trkpt>
      <trkpt lat="48.30944" lon="2.11421">
        <ele>130.4</ele>
        <time>2020-07-02T11:56:47Z</time>
      </trkpt>
      <trkpt lat="48.3094" lon="2.1142">
        <ele>130.5</ele>
        <time>2020-07-02T11:56:48Z</time>
      </trkpt>
      <trkpt lat="48.30935" lon="2.11418">
        <ele>130.6</ele>
        <time>2020-07-02T11:56:49Z</time>
      </trkpt>
      <trkpt lat="48.30929" lon="2.11417">
        <ele>130.7</ele>
        <time>2020-07-02T11:56:50Z</time>
      </trkpt>
      <trkpt lat="48.30923" lon="2.11415">
        <ele>130.8</ele>
        <time>2020-07-02T11:56:51Z</time>
      </trkpt>
      <trkpt lat="48.30917" lon="2.11414">
        <ele>130.9</ele>
        <time>2020-07-02T11:56:52Z</time>
      </trkpt>
      <trkpt lat="48.30912" lon="2.11412">
        <ele>131</ele>
        <time>2020-07-02T11:56:53Z</time>
      </trkpt>
      <trkpt lat="48.30907" lon="2.1141">
        <ele>131</ele>
        <time>2020-07-02T11:56:54Z</time>
      </trkpt>
      <trkpt lat="48.30902" lon="2.11408">
        <ele>131.1</ele>
        <time>2020-07-02T11:56:55Z</time>
      </trkpt>
      <trkpt lat="48.30898" lon="2.11406">
        <ele>131.2</ele>
        <time>2020-07-02T11:56:56Z</time>
      </trkpt>
      <trkpt lat="48.30893" lon="2.11405">
        <ele>131.2</ele>
        <time>2020-07-02T11:56:57Z</time>
      </trkpt>
      <trkpt lat="48.30889" lon="2.11406">
        <ele>131.3</ele>
        <time>2020-07-02T11:56:58Z</time>
      </trkpt>
      <trkpt lat="48.30887" lon="2.11406">
        <ele>131.3</ele>
        <time>2020-07-02T11:56:59Z</time>
      </trkpt>
      <trkpt lat="48.30883" lon="2.11406">
        <ele>131.4</ele>
        <time>2020-07-02T11:57:00Z</time>
      </trkpt>
      <trkpt lat="48.30878" lon="2.11404">
        <ele>131.5</ele>
        <time>2020-07-02T11:57:01Z</time>
      </trkpt>
      <trkpt lat="48.30872" lon="2.114">
        <ele>131.7</ele>
        <time>2020-07-02T11:57:02Z</time>
      </trkpt>
      <trkpt lat="48.30869" lon="2.11399">
        <ele>131.8</ele>
        <time>2020-07-02T11:57:03Z</time>
      </trkpt>
      <trkpt lat="48.30865" lon="2.11398">
        <ele>131.9</ele>
        <time>2020-07-02T11:57:04Z</time>
      </trkpt>
      <trkpt lat="48.30861" lon="2.11397">
        <ele>131.9</ele>
        <time>2020-07-02T11:57:05Z</time>
      </trkpt>
      <trkpt lat="48.30856" lon="2.11395">
        <ele>131.9</ele>
        <time>2020-07-02T11:57:06Z</time>
      </trkpt>
      <trkpt lat="48.30852" lon="2.11394">
        <ele>131.9</ele>
        <time>2020-07-02T11:57:07Z</time>
      </trkpt>
      <trkpt lat="48.30848" lon="2.11393">
        <ele>131.9</ele>
        <time>2020-07-02T11:57:08Z</time>
      </trkpt>
      <trkpt lat="48.30842" lon="2.11391">
        <ele>131.9</ele>
        <time>2020-07-02T11:57:09Z</time>
      </trkpt>
      <trkpt lat="48.30837" lon="2.11389">
        <ele>132</ele>
        <time>2020-07-02T11:57:10Z</time>
      </trkpt>
      <trkpt lat="48.30833" lon="2.11388">
        <ele>132</ele>
        <time>2020-07-02T11:57:11Z</time>
      </trkpt>
      <trkpt lat="48.3083" lon="2.11387">
        <ele>132</ele>
        <time>2020-07-02T11:57:12Z</time>
      </trkpt>
      <trkpt lat="48.30825" lon="2.11386">
        <ele>132</ele>
        <time>2020-07-02T11:57:13Z</time>
      </trkpt>
      <trkpt lat="48.3082" lon="2.11385">
        <ele>132.1</ele>
        <time>2020-07-02T11:57:14Z</time>
      </trkpt>
      <trkpt lat="48.30815" lon="2.11382">
        <ele>132.1</ele>
        <time>2020-07-02T11:57:15Z</time>
      </trkpt>
      <trkpt lat="48.30812" lon="2.11381">
        <ele>132.1</ele>
        <time>2020-07-02T11:57:16Z</time>
      </trkpt>
      <trkpt lat="48.30808" lon="2.11381">
        <ele>132.1</ele>
        <time>2020-07-02T11:57:17Z</time>
      </trkpt>
      <trkpt lat="48.30804" lon="2.1138">
        <ele>132.1</ele>
        <time>2020-07-02T11:57:18Z</time>
      </trkpt>
      <trkpt lat="48.308" lon="2.11378">
        <ele>132.1</ele>
        <time>2020-07-02T11:57:19Z</time>
      </trkpt>
      <trkpt lat="48.30796" lon="2.11377">
        <ele>132.2</ele>
        <time>2020-07-02T11:57:20Z</time>
      </trkpt>
      <trkpt lat="48.30791" lon="2.11376">
        <ele>132.3</ele>
        <time>2020-07-02T11:57:21Z</time>
      </trkpt>
      <trkpt lat="48.30787" lon="2.11374">
        <ele>132.3</ele>
        <time>2020-07-02T11:57:22Z</time>
      </trkpt>
      <trkpt lat="48.30782" lon="2.11373">
        <ele>132.4</ele>
        <time>2020-07-02T11:57:23Z</time>
      </trkpt>
      <trkpt lat="48.30777" lon="2.1137">
        <ele>132.5</ele>
        <time>2020-07-02T11:57:24Z</time>
      </trkpt>
      <trkpt lat="48.30771" lon="2.11366">
        <ele>132.6</ele>
        <time>2020-07-02T11:57:25Z</time>
      </trkpt>
      <trkpt lat="48.30767" lon="2.11364">
        <ele>132.6</ele>
        <time>2020-07-02T11:57:26Z</time>
      </trkpt>
      <trkpt lat="48.30764" lon="2.11363">
        <ele>132.7</ele>
        <time>2020-07-02T11:57:27Z</time>
      </trkpt>
      <trkpt lat="48.30761" lon="2.11359">
        <ele>132.7</ele>
        <time>2020-07-02T11:57:28Z</time>
      </trkpt>
      <trkpt lat="48.30758" lon="2.11355">
        <ele>132.7</ele>
        <time>2020-07-02T11:57:29Z</time>
      </trkpt>
      <trkpt lat="48.30757" lon="2.11351">
        <ele>132.6</ele>
        <time>2020-07-02T11:57:30Z</time>
      </trkpt>
      <trkpt lat="48.30754" lon="2.11347">
        <ele>132.6</ele>
        <time>2020-07-02T11:57:31Z</time>
      </trkpt>
      <trkpt lat="48.30752" lon="2.11343">
        <ele>132.6</ele>
        <time>2020-07-02T11:57:32Z</time>
      </trkpt>
      <trkpt lat="48.30749" lon="2.11341">
        <ele>132.6</ele>
        <time>2020-07-02T11:57:33Z</time>
      </trkpt>
      <trkpt lat="48.30745" lon="2.11339">
        <ele>132.6</ele>
        <time>2020-07-02T11:57:34Z</time>
      </trkpt>
      <trkpt lat="48.30742" lon="2.11338">
        <ele>132.6</ele>
        <time>2020-07-02T11:57:35Z</time>
      </trkpt>
      <trkpt lat="48.30739" lon="2.11336">
        <ele>132.8</ele>
        <time>2020-07-02T11:57:36Z</time>
      </trkpt>
      <trkpt lat="48.30736" lon="2.11332">
        <ele>132.8</ele>
        <time>2020-07-02T11:57:37Z</time>
      </trkpt>
      <trkpt lat="48.30735" lon="2.11328">
        <ele>132.9</ele>
        <time>2020-07-02T11:57:38Z</time>
      </trkpt>
      <trkpt lat="48.30734" lon="2.11323">
        <ele>132.8</ele>
        <time>2020-07-02T11:57:39Z</time>
      </trkpt>
      <trkpt lat="48.30734" lon="2.11322">
        <ele>132.8</ele>
        <time>2020-07-02T11:57:40Z</time>
      </trkpt>
      <trkpt lat="48.30734" lon="2.11319">
        <ele>132.9</ele>
        <time>2020-07-02T11:57:41Z</time>
      </trkpt>
      <trkpt lat="48.30734" lon="2.11318">
        <ele>132.9</ele>
        <time>2020-07-02T11:57:42Z</time>
      </trkpt>
      <trkpt lat="48.30734" lon="2.11316">
        <ele>132.9</ele>
        <time>2020-07-02T11:57:43Z</time>
      </trkpt>
      <trkpt lat="48.30733" lon="2.11315">
        <ele>132.9</ele>
        <time>2020-07-02T11:57:44Z</time>
      </trkpt>
      <trkpt lat="48.30734" lon="2.11316">
        <ele>132.9</ele>
        <time>2020-07-02T11:57:45Z</time>
      </trkpt>
      <trkpt lat="48.30734" lon="2.11316">
        <ele>132.9</ele>
        <time>2020-07-02T11:57:46Z</time>
      </trkpt>
      <trkpt lat="48.30734" lon="2.11316">
        <ele>132.9</ele>
        <time>2020-07-02T11:57:47Z</time>
      </trkpt>
      <trkpt lat="48.30734" lon="2.11315">
        <ele>132.9</ele>
        <time>2020-07-02T11:57:48Z</time>
      </trkpt>
      <trkpt lat="48.30735" lon="2.11314">
        <ele>132.9</ele>
        <time>2020-07-02T11:57:49Z</time>
      </trkpt>
      <trkpt lat="48.30735" lon="2.11312">
        <ele>132.9</ele>
        <time>2020-07-02T11:57:50Z</time>
      </trkpt>
      <trkpt lat="48.30735" lon="2.1131">
        <ele>132.9</ele>
        <time>2020-07-02T11:57:51Z</time>
      </trkpt>
      <trkpt lat="48.30735" lon="2.1131">
        <ele>132.9</ele>
        <time>2020-07-02T11:57:52Z</time>
      </trkpt>
      <trkpt lat="48.30736" lon="2.1131">
        <ele>132.9</ele>
        <time>2020-07-02T11:57:53Z</time>
      </trkpt>
      <trkpt lat="48.30735" lon="2.1131">
        <ele>132.9</ele>
        <time>2020-07-02T11:57:54Z</time>
      </trkpt>
      <trkpt lat="48.30735" lon="2.1131">
        <ele>132.9</ele>
        <time>2020-07-02T11:57:55Z</time>
      </trkpt>
      <trkpt lat="48.30735" lon="2.1131">
        <ele>132.9</ele>
        <time>2020-07-02T11:57:56Z</time>
      </trkpt>
      <trkpt lat="48.30736" lon="2.11311">
        <ele>132.9</ele>
        <time>2020-07-02T11:57:57Z</time>
      </trkpt>
      <trkpt lat="48.30736" lon="2.11312">
        <ele>132.9</ele>
        <time>2020-07-02T11:57:58Z</time>
      </trkpt>
      <trkpt lat="48.30736" lon="2.11312">
        <ele>132.9</ele>
        <time>2020-07-02T11:57:59Z</time>
      </trkpt>
      <trkpt lat="48.30736" lon="2.11312">
        <ele>132.9</ele>
        <time>2020-07-02T11:58:00Z</time>
      </trkpt>
      <trkpt lat="48.30736" lon="2.11312">
        <ele>132.9</ele>
        <time>2020-07-02T11:58:01Z</time>
      </trkpt>
      <trkpt lat="48.30736" lon="2.11312">
        <ele>132.9</ele>
        <time>2020-07-02T11:58:02Z</time>
      </trkpt>
      <trkpt lat="48.30732" lon="2.11317">
        <ele>132.9</ele>
        <time>2020-07-02T12:15:11Z</time>
      </trkpt>
      <trkpt lat="48.30732" lon="2.11318">
        <ele>132.9</ele>
        <time>2020-07-02T12:15:12Z</time>
      </trkpt>
      <trkpt lat="48.30732" lon="2.11318">
        <ele>132.9</ele>
        <time>2020-07-02T12:15:13Z</time>
      </trkpt>
      <trkpt lat="48.30732" lon="2.11318">
        <ele>132.9</ele>
        <time>2020-07-02T12:15:14Z</time>
      </trkpt>
      <trkpt lat="48.30732" lon="2.11318">
        <ele>132.9</ele>
        <time>2020-07-02T12:15:15Z</time>
      </trkpt>
      <trkpt lat="48.30732" lon="2.11318">
        <ele>132.9</ele>
        <time>2020-07-02T12:15:16Z</time>
      </trkpt>
      <trkpt lat="48.30732" lon="2.11318">
        <ele>132.9</ele>
        <time>2020-07-02T12:15:17Z</time>
      </trkpt>
      <trkpt lat="48.30732" lon="2.11318">
        <ele>132.9</ele>
        <time>2020-07-02T12:15:18Z</time>
      </trkpt>
      <trkpt lat="48.30732" lon="2.11318">
        <ele>132.9</ele>
        <time>2020-07-02T12:15:19Z</time>
      </trkpt>
      <trkpt lat="48.30732" lon="2.11318">
        <ele>132.9</ele>
        <time>2020-07-02T12:15:20Z</time>
      </trkpt>
      <trkpt lat="48.30732" lon="2.11318">
        <ele>132.9</ele>
        <time>2020-07-02T12:15:21Z</time>
      </trkpt>
      <trkpt lat="48.30734" lon="2.11322">
        <ele>132.9</ele>
        <time>2020-07-02T12:15:35Z</time>
      </trkpt>
      <trkpt lat="48.30734" lon="2.11323">
        <ele>132.9</ele>
        <time>2020-07-02T12:15:36Z</time>
      </trkpt>
      <trkpt lat="48.30734" lon="2.11325">
        <ele>132.9</ele>
        <time>2020-07-02T12:15:37Z</time>
      </trkpt>
      <trkpt lat="48.30735" lon="2.11327">
        <ele>132.9</ele>
        <time>2020-07-02T12:15:38Z</time>
      </trkpt>
      <trkpt lat="48.30735" lon="2.11329">
        <ele>132.9</ele>
        <time>2020-07-02T12:15:39Z</time>
      </trkpt>
      <trkpt lat="48.30735" lon="2.11331">
        <ele>132.9</ele>
        <time>2020-07-02T12:15:40Z</time>
      </trkpt>
      <trkpt lat="48.30735" lon="2.11333">
        <ele>132.9</ele>
        <time>2020-07-02T12:15:41Z</time>
      </trkpt>
      <trkpt lat="48.30734" lon="2.11334">
        <ele>132.9</ele>
        <time>2020-07-02T12:15:42Z</time>
      </trkpt>
      <trkpt lat="48.30734" lon="2.11336">
        <ele>132.9</ele>
        <time>2020-07-02T12:15:43Z</time>
      </trkpt>
      <trkpt lat="48.30734" lon="2.11338">
        <ele>132.9</ele>
        <time>2020-07-02T12:15:44Z</time>
      </trkpt>
      <trkpt lat="48.30735" lon="2.11341">
        <ele>132.9</ele>
        <time>2020-07-02T12:15:45Z</time>
      </trkpt>
      <trkpt lat="48.30735" lon="2.11342">
        <ele>132.9</ele>
        <time>2020-07-02T12:15:46Z</time>
      </trkpt>
      <trkpt lat="48.30734" lon="2.11344">
        <ele>132.9</ele>
        <time>2020-07-02T12:15:47Z</time>
      </trkpt>
      <trkpt lat="48.30733" lon="2.11346">
        <ele>133</ele>
        <time>2020-07-02T12:15:48Z</time>
      </trkpt>
      <trkpt lat="48.30732" lon="2.11346">
        <ele>133</ele>
        <time>2020-07-02T12:15:49Z</time>
      </trkpt>
      <trkpt lat="48.30729" lon="2.11346">
        <ele>133</ele>
        <time>2020-07-02T12:15:50Z</time>
      </trkpt>
      <trkpt lat="48.30728" lon="2.11345">
        <ele>133</ele>
        <time>2020-07-02T12:15:51Z</time>
      </trkpt>
      <trkpt lat="48.30725" lon="2.11345">
        <ele>132.9</ele>
        <time>2020-07-02T12:15:52Z</time>
      </trkpt>
      <trkpt lat="48.30722" lon="2.11344">
        <ele>132.9</ele>
        <time>2020-07-02T12:15:53Z</time>
      </trkpt>
      <trkpt lat="48.30719" lon="2.11345">
        <ele>132.9</ele>
        <time>2020-07-02T12:15:54Z</time>
      </trkpt>
      <trkpt lat="48.30716" lon="2.11345">
        <ele>132.8</ele>
        <time>2020-07-02T12:15:55Z</time>
      </trkpt>
      <trkpt lat="48.30713" lon="2.11345">
        <ele>132.8</ele>
        <time>2020-07-02T12:15:56Z</time>
      </trkpt>
      <trkpt lat="48.30709" lon="2.11345">
        <ele>132.8</ele>
        <time>2020-07-02T12:15:57Z</time>
      </trkpt>
      <trkpt lat="48.30705" lon="2.11347">
        <ele>132.8</ele>
        <time>2020-07-02T12:15:58Z</time>
      </trkpt>
      <trkpt lat="48.30702" lon="2.11348">
        <ele>132.8</ele>
        <time>2020-07-02T12:15:59Z</time>
      </trkpt>
      <trkpt lat="48.30698" lon="2.11349">
        <ele>132.8</ele>
        <time>2020-07-02T12:16:00Z</time>
      </trkpt>
      <trkpt lat="48.30695" lon="2.11348">
        <ele>132.8</ele>
        <time>2020-07-02T12:16:01Z</time>
      </trkpt>
      <trkpt lat="48.30692" lon="2.11347">
        <ele>132.8</ele>
        <time>2020-07-02T12:16:02Z</time>
      </trkpt>
      <trkpt lat="48.30687" lon="2.11345">
        <ele>132.8</ele>
        <time>2020-07-02T12:16:03Z</time>
      </trkpt>
      <trkpt lat="48.30684" lon="2.11343">
        <ele>132.8</ele>
        <time>2020-07-02T12:16:04Z</time>
      </trkpt>
      <trkpt lat="48.30679" lon="2.1134">
        <ele>132.8</ele>
        <time>2020-07-02T12:16:05Z</time>
      </trkpt>
      <trkpt lat="48.30674" lon="2.11339">
        <ele>132.8</ele>
        <time>2020-07-02T12:16:06Z</time>
      </trkpt>
      <trkpt lat="48.3067" lon="2.11338">
        <ele>132.8</ele>
        <time>2020-07-02T12:16:07Z</time>
      </trkpt>
      <trkpt lat="48.30666" lon="2.11338">
        <ele>132.8</ele>
        <time>2020-07-02T12:16:08Z</time>
      </trkpt>
      <trkpt lat="48.3066" lon="2.11337">
        <ele>132.8</ele>
        <time>2020-07-02T12:16:09Z</time>
      </trkpt>
      <trkpt lat="48.30655" lon="2.11335">
        <ele>132.8</ele>
        <time>2020-07-02T12:16:10Z</time>
      </trkpt>
      <trkpt lat="48.3065" lon="2.11333">
        <ele>132.9</ele>
        <time>2020-07-02T12:16:11Z</time>
      </trkpt>
      <trkpt lat="48.30646" lon="2.11333">
        <ele>132.9</ele>
        <time>2020-07-02T12:16:12Z</time>
      </trkpt>
      <trkpt lat="48.30641" lon="2.11331">
        <ele>132.9</ele>
        <time>2020-07-02T12:16:13Z</time>
      </trkpt>
      <trkpt lat="48.30637" lon="2.1133">
        <ele>133</ele>
        <time>2020-07-02T12:16:14Z</time>
      </trkpt>
      <trkpt lat="48.30632" lon="2.11327">
        <ele>133</ele>
        <time>2020-07-02T12:16:15Z</time>
      </trkpt>
      <trkpt lat="48.30627" lon="2.11326">
        <ele>133</ele>
        <time>2020-07-02T12:16:16Z</time>
      </trkpt>
      <trkpt lat="48.30623" lon="2.11325">
        <ele>133.1</ele>
        <time>2020-07-02T12:16:17Z</time>
      </trkpt>
      <trkpt lat="48.30618" lon="2.11324">
        <ele>133.1</ele>
        <time>2020-07-02T12:16:18Z</time>
      </trkpt>
      <trkpt lat="48.30613" lon="2.11323">
        <ele>133.1</ele>
        <time>2020-07-02T12:16:19Z</time>
      </trkpt>
      <trkpt lat="48.30607" lon="2.11322">
        <ele>133.1</ele>
        <time>2020-07-02T12:16:20Z</time>
      </trkpt>
      <trkpt lat="48.30603" lon="2.11319">
        <ele>133.1</ele>
        <time>2020-07-02T12:16:21Z</time>
      </trkpt>
      <trkpt lat="48.30598" lon="2.11317">
        <ele>133.1</ele>
        <time>2020-07-02T12:16:22Z</time>
      </trkpt>
      <trkpt lat="48.30593" lon="2.11317">
        <ele>133.1</ele>
        <time>2020-07-02T12:16:23Z</time>
      </trkpt>
      <trkpt lat="48.30588" lon="2.11316">
        <ele>133.1</ele>
        <time>2020-07-02T12:16:24Z</time>
      </trkpt>
      <trkpt lat="48.30583" lon="2.11315">
        <ele>133</ele>
        <time>2020-07-02T12:16:25Z</time>
      </trkpt>
      <trkpt lat="48.30578" lon="2.11314">
        <ele>133</ele>
        <time>2020-07-02T12:16:26Z</time>
      </trkpt>
      <trkpt lat="48.30573" lon="2.11313">
        <ele>133</ele>
        <time>2020-07-02T12:16:27Z</time>
      </trkpt>
      <trkpt lat="48.30567" lon="2.11313">
        <ele>133</ele>
        <time>2020-07-02T12:16:28Z</time>
      </trkpt>
      <trkpt lat="48.30562" lon="2.11311">
        <ele>132.9</ele>
        <time>2020-07-02T12:16:29Z</time>
      </trkpt>
      <trkpt lat="48.30556" lon="2.1131">
        <ele>132.9</ele>
        <time>2020-07-02T12:16:30Z</time>
      </trkpt>
      <trkpt lat="48.30551" lon="2.11307">
        <ele>132.9</ele>
        <time>2020-07-02T12:16:31Z</time>
      </trkpt>
      <trkpt lat="48.30546" lon="2.11305">
        <ele>132.9</ele>
        <time>2020-07-02T12:16:32Z</time>
      </trkpt>
      <trkpt lat="48.3054" lon="2.11302">
        <ele>132.9</ele>
        <time>2020-07-02T12:16:33Z</time>
      </trkpt>
      <trkpt lat="48.30534" lon="2.11299">
        <ele>132.9</ele>
        <time>2020-07-02T12:16:34Z</time>
      </trkpt>
      <trkpt lat="48.30529" lon="2.11298">
        <ele>132.9</ele>
        <time>2020-07-02T12:16:35Z</time>
      </trkpt>
      <trkpt lat="48.30523" lon="2.11296">
        <ele>132.8</ele>
        <time>2020-07-02T12:16:36Z</time>
      </trkpt>
      <trkpt lat="48.30517" lon="2.11294">
        <ele>132.8</ele>
        <time>2020-07-02T12:16:37Z</time>
      </trkpt>
      <trkpt lat="48.30511" lon="2.11291">
        <ele>132.8</ele>
        <time>2020-07-02T12:16:38Z</time>
      </trkpt>
      <trkpt lat="48.30505" lon="2.11289">
        <ele>132.7</ele>
        <time>2020-07-02T12:16:39Z</time>
      </trkpt>
      <trkpt lat="48.30499" lon="2.11288">
        <ele>132.7</ele>
        <time>2020-07-02T12:16:40Z</time>
      </trkpt>
      <trkpt lat="48.30491" lon="2.11286">
        <ele>132.6</ele>
        <time>2020-07-02T12:16:41Z</time>
      </trkpt>
      <trkpt lat="48.30484" lon="2.11284">
        <ele>132.6</ele>
        <time>2020-07-02T12:16:42Z</time>
      </trkpt>
      <trkpt lat="48.30478" lon="2.11283">
        <ele>132.6</ele>
        <time>2020-07-02T12:16:43Z</time>
      </trkpt>
      <trkpt lat="48.30472" lon="2.11282">
        <ele>132.6</ele>
        <time>2020-07-02T12:16:44Z</time>
      </trkpt>
      <trkpt lat="48.30465" lon="2.1128">
        <ele>132.5</ele>
        <time>2020-07-02T12:16:45Z</time>
      </trkpt>
      <trkpt lat="48.30458" lon="2.11279">
        <ele>132.5</ele>
        <time>2020-07-02T12:16:46Z</time>
      </trkpt>
      <trkpt lat="48.30451" lon="2.11277">
        <ele>132.4</ele>
        <time>2020-07-02T12:16:47Z</time>
      </trkpt>
      <trkpt lat="48.30444" lon="2.11275">
        <ele>132.4</ele>
        <time>2020-07-02T12:16:48Z</time>
      </trkpt>
      <trkpt lat="48.30437" lon="2.11273">
        <ele>132.4</ele>
        <time>2020-07-02T12:16:49Z</time>
      </trkpt>
      <trkpt lat="48.3043" lon="2.11271">
        <ele>132.3</ele>
        <time>2020-07-02T12:16:50Z</time>
      </trkpt>
      <trkpt lat="48.30424" lon="2.11269">
        <ele>132.3</ele>
        <time>2020-07-02T12:16:51Z</time>
      </trkpt>
      <trkpt lat="48.30418" lon="2.11267">
        <ele>132.3</ele>
        <time>2020-07-02T12:16:52Z</time>
      </trkpt>
      <trkpt lat="48.30411" lon="2.11265">
        <ele>132.2</ele>
        <time>2020-07-02T12:16:53Z</time>
      </trkpt>
      <trkpt lat="48.30405" lon="2.11263">
        <ele>132.1</ele>
        <time>2020-07-02T12:16:54Z</time>
      </trkpt>
      <trkpt lat="48.30399" lon="2.11261">
        <ele>132</ele>
        <time>2020-07-02T12:16:55Z</time>
      </trkpt>
      <trkpt lat="48.30392" lon="2.11259">
        <ele>131.9</ele>
        <time>2020-07-02T12:16:56Z</time>
      </trkpt>
      <trkpt lat="48.30387" lon="2.11257">
        <ele>131.8</ele>
        <time>2020-07-02T12:16:57Z</time>
      </trkpt>
      <trkpt lat="48.3038" lon="2.11254">
        <ele>131.8</ele>
        <time>2020-07-02T12:16:58Z</time>
      </trkpt>
      <trkpt lat="48.30373" lon="2.11253">
        <ele>131.7</ele>
        <time>2020-07-02T12:16:59Z</time>
      </trkpt>
      <trkpt lat="48.30367" lon="2.11251">
        <ele>131.6</ele>
        <time>2020-07-02T12:17:00Z</time>
      </trkpt>
      <trkpt lat="48.3036" lon="2.11249">
        <ele>131.5</ele>
        <time>2020-07-02T12:17:01Z</time>
      </trkpt>
      <trkpt lat="48.30353" lon="2.11246">
        <ele>131.5</ele>
        <time>2020-07-02T12:17:02Z</time>
      </trkpt>
      <trkpt lat="48.30347" lon="2.11244">
        <ele>131.4</ele>
        <time>2020-07-02T12:17:03Z</time>
      </trkpt>
      <trkpt lat="48.30341" lon="2.11242">
        <ele>131.3</ele>
        <time>2020-07-02T12:17:04Z</time>
      </trkpt>
      <trkpt lat="48.30335" lon="2.1124">
        <ele>131.2</ele>
        <time>2020-07-02T12:17:05Z</time>
      </trkpt>
      <trkpt lat="48.30329" lon="2.11238">
        <ele>131.1</ele>
        <time>2020-07-02T12:17:06Z</time>
      </trkpt>
      <trkpt lat="48.30322" lon="2.11236">
        <ele>131</ele>
        <time>2020-07-02T12:17:07Z</time>
      </trkpt>
      <trkpt lat="48.30315" lon="2.11235">
        <ele>130.9</ele>
        <time>2020-07-02T12:17:08Z</time>
      </trkpt>
      <trkpt lat="48.30308" lon="2.11233">
        <ele>130.8</ele>
        <time>2020-07-02T12:17:09Z</time>
      </trkpt>
      <trkpt lat="48.30302" lon="2.11231">
        <ele>130.6</ele>
        <time>2020-07-02T12:17:10Z</time>
      </trkpt>
      <trkpt lat="48.30295" lon="2.11229">
        <ele>130.5</ele>
        <time>2020-07-02T12:17:11Z</time>
      </trkpt>
      <trkpt lat="48.30289" lon="2.11227">
        <ele>130.3</ele>
        <time>2020-07-02T12:17:12Z</time>
      </trkpt>
      <trkpt lat="48.30282" lon="2.11225">
        <ele>130.2</ele>
        <time>2020-07-02T12:17:13Z</time>
      </trkpt>
      <trkpt lat="48.30275" lon="2.11223">
        <ele>130</ele>
        <time>2020-07-02T12:17:14Z</time>
      </trkpt>
      <trkpt lat="48.30269" lon="2.11221">
        <ele>129.9</ele>
        <time>2020-07-02T12:17:15Z</time>
      </trkpt>
      <trkpt lat="48.30262" lon="2.11219">
        <ele>129.7</ele>
        <time>2020-07-02T12:17:16Z</time>
      </trkpt>
      <trkpt lat="48.30255" lon="2.11217">
        <ele>129.5</ele>
        <time>2020-07-02T12:17:17Z</time>
      </trkpt>
      <trkpt lat="48.30248" lon="2.11215">
        <ele>129.2</ele>
        <time>2020-07-02T12:17:18Z</time>
      </trkpt>
      <trkpt lat="48.3024" lon="2.11213">
        <ele>129</ele>
        <time>2020-07-02T12:17:19Z</time>
      </trkpt>
      <trkpt lat="48.30233" lon="2.11211">
        <ele>128.8</ele>
        <time>2020-07-02T12:17:20Z</time>
      </trkpt>
      <trkpt lat="48.30226" lon="2.11209">
        <ele>128.5</ele>
        <time>2020-07-02T12:17:21Z</time>
      </trkpt>
      <trkpt lat="48.30219" lon="2.11206">
        <ele>128.2</ele>
        <time>2020-07-02T12:17:22Z</time>
      </trkpt>
      <trkpt lat="48.30212" lon="2.11204">
        <ele>127.9</ele>
        <time>2020-07-02T12:17:23Z</time>
      </trkpt>
      <trkpt lat="48.30205" lon="2.11202">
        <ele>127.6</ele>
        <time>2020-07-02T12:17:24Z</time>
      </trkpt>
      <trkpt lat="48.30197" lon="2.11199">
        <ele>127.3</ele>
        <time>2020-07-02T12:17:25Z</time>
      </trkpt>
      <trkpt lat="48.30189" lon="2.11197">
        <ele>126.9</ele>
        <time>2020-07-02T12:17:26Z</time>
      </trkpt>
      <trkpt lat="48.30182" lon="2.11194">
        <ele>126.6</ele>
        <time>2020-07-02T12:17:27Z</time>
      </trkpt>
      <trkpt lat="48.30174" lon="2.11192">
        <ele>126.3</ele>
        <time>2020-07-02T12:17:28Z</time>
      </trkpt>
      <trkpt lat="48.30165" lon="2.11189">
        <ele>125.9</ele>
        <time>2020-07-02T12:17:29Z</time>
      </trkpt>
      <trkpt lat="48.30157" lon="2.11187">
        <ele>125.6</ele>
        <time>2020-07-02T12:17:30Z</time>
      </trkpt>
      <trkpt lat="48.30149" lon="2.11184">
        <ele>125.3</ele>
        <time>2020-07-02T12:17:31Z</time>
      </trkpt>
      <trkpt lat="48.30141" lon="2.11181">
        <ele>125</ele>
        <time>2020-07-02T12:17:32Z</time>
      </trkpt>
      <trkpt lat="48.30133" lon="2.11179">
        <ele>124.7</ele>
        <time>2020-07-02T12:17:33Z</time>
      </trkpt>
      <trkpt lat="48.30124" lon="2.11176">
        <ele>124.4</ele>
        <time>2020-07-02T12:17:34Z</time>
      </trkpt>
      <trkpt lat="48.30116" lon="2.11174">
        <ele>124.2</ele>
        <time>2020-07-02T12:17:35Z</time>
      </trkpt>
      <trkpt lat="48.30108" lon="2.11171">
        <ele>123.9</ele>
        <time>2020-07-02T12:17:36Z</time>
      </trkpt>
      <trkpt lat="48.301" lon="2.11169">
        <ele>123.8</ele>
        <time>2020-07-02T12:17:37Z</time>
      </trkpt>
      <trkpt lat="48.30092" lon="2.11166">
        <ele>123.6</ele>
        <time>2020-07-02T12:17:38Z</time>
      </trkpt>
      <trkpt lat="48.30084" lon="2.11164">
        <ele>123.5</ele>
        <time>2020-07-02T12:17:39Z</time>
      </trkpt>
      <trkpt lat="48.30076" lon="2.11162">
        <ele>123.3</ele>
        <time>2020-07-02T12:17:40Z</time>
      </trkpt>
      <trkpt lat="48.30068" lon="2.11159">
        <ele>123.2</ele>
        <time>2020-07-02T12:17:41Z</time>
      </trkpt>
      <trkpt lat="48.30061" lon="2.11157">
        <ele>123.2</ele>
        <time>2020-07-02T12:17:42Z</time>
      </trkpt>
      <trkpt lat="48.30053" lon="2.11155">
        <ele>123.1</ele>
        <time>2020-07-02T12:17:43Z</time>
      </trkpt>
      <trkpt lat="48.30046" lon="2.11153">
        <ele>123.1</ele>
        <time>2020-07-02T12:17:44Z</time>
      </trkpt>
      <trkpt lat="48.30039" lon="2.11151">
        <ele>123.1</ele>
        <time>2020-07-02T12:17:45Z</time>
      </trkpt>
      <trkpt lat="48.30032" lon="2.11148">
        <ele>123.1</ele>
        <time>2020-07-02T12:17:46Z</time>
      </trkpt>
      <trkpt lat="48.30025" lon="2.11146">
        <ele>123.2</ele>
        <time>2020-07-02T12:17:47Z</time>
      </trkpt>
      <trkpt lat="48.30018" lon="2.11144">
        <ele>123.3</ele>
        <time>2020-07-02T12:17:48Z</time>
      </trkpt>
      <trkpt lat="48.30012" lon="2.11141">
        <ele>123.4</ele>
        <time>2020-07-02T12:17:49Z</time>
      </trkpt>
      <trkpt lat="48.30005" lon="2.11139">
        <ele>123.4</ele>
        <time>2020-07-02T12:17:50Z</time>
      </trkpt>
      <trkpt lat="48.29999" lon="2.11137">
        <ele>123.5</ele>
        <time>2020-07-02T12:17:51Z</time>
      </trkpt>
      <trkpt lat="48.29993" lon="2.11135">
        <ele>123.6</ele>
        <time>2020-07-02T12:17:52Z</time>
      </trkpt>
      <trkpt lat="48.29987" lon="2.11133">
        <ele>123.7</ele>
        <time>2020-07-02T12:17:53Z</time>
      </trkpt>
      <trkpt lat="48.29981" lon="2.11131">
        <ele>123.8</ele>
        <time>2020-07-02T12:17:54Z</time>
      </trkpt>
      <trkpt lat="48.29975" lon="2.11128">
        <ele>123.9</ele>
        <time>2020-07-02T12:17:55Z</time>
      </trkpt>
      <trkpt lat="48.29969" lon="2.11126">
        <ele>124</ele>
        <time>2020-07-02T12:17:56Z</time>
      </trkpt>
      <trkpt lat="48.29963" lon="2.11123">
        <ele>124.1</ele>
        <time>2020-07-02T12:17:57Z</time>
      </trkpt>
      <trkpt lat="48.29957" lon="2.11121">
        <ele>124.3</ele>
        <time>2020-07-02T12:17:58Z</time>
      </trkpt>
      <trkpt lat="48.2995" lon="2.1112">
        <ele>124.4</ele>
        <time>2020-07-02T12:17:59Z</time>
      </trkpt>
      <trkpt lat="48.29944" lon="2.11117">
        <ele>124.6</ele>
        <time>2020-07-02T12:18:00Z</time>
      </trkpt>
      <trkpt lat="48.29939" lon="2.11115">
        <ele>124.8</ele>
        <time>2020-07-02T12:18:01Z</time>
      </trkpt>
      <trkpt lat="48.29933" lon="2.11114">
        <ele>124.9</ele>
        <time>2020-07-02T12:18:02Z</time>
      </trkpt>
      <trkpt lat="48.29927" lon="2.11113">
        <ele>125</ele>
        <time>2020-07-02T12:18:03Z</time>
      </trkpt>
      <trkpt lat="48.29922" lon="2.11111">
        <ele>125.2</ele>
        <time>2020-07-02T12:18:04Z</time>
      </trkpt>
      <trkpt lat="48.29916" lon="2.1111">
        <ele>125.2</ele>
        <time>2020-07-02T12:18:05Z</time>
      </trkpt>
      <trkpt lat="48.29911" lon="2.11108">
        <ele>125.3</ele>
        <time>2020-07-02T12:18:06Z</time>
      </trkpt>
      <trkpt lat="48.29906" lon="2.11106">
        <ele>125.4</ele>
        <time>2020-07-02T12:18:07Z</time>
      </trkpt>
      <trkpt lat="48.299" lon="2.11104">
        <ele>125.5</ele>
        <time>2020-07-02T12:18:08Z</time>
      </trkpt>
      <trkpt lat="48.29894" lon="2.11103">
        <ele>125.6</ele>
        <time>2020-07-02T12:18:09Z</time>
      </trkpt>
      <trkpt lat="48.29889" lon="2.11102">
        <ele>125.7</ele>
        <time>2020-07-02T12:18:10Z</time>
      </trkpt>
      <trkpt lat="48.29884" lon="2.11101">
        <ele>125.8</ele>
        <time>2020-07-02T12:18:11Z</time>
      </trkpt>
      <trkpt lat="48.29878" lon="2.11099">
        <ele>125.8</ele>
        <time>2020-07-02T12:18:12Z</time>
      </trkpt>
      <trkpt lat="48.29872" lon="2.11098">
        <ele>125.9</ele>
        <time>2020-07-02T12:18:13Z</time>
      </trkpt>
      <trkpt lat="48.29867" lon="2.11096">
        <ele>126</ele>
        <time>2020-07-02T12:18:14Z</time>
      </trkpt>
      <trkpt lat="48.29861" lon="2.11094">
        <ele>126.1</ele>
        <time>2020-07-02T12:18:15Z</time>
      </trkpt>
      <trkpt lat="48.29855" lon="2.11092">
        <ele>126.2</ele>
        <time>2020-07-02T12:18:16Z</time>
      </trkpt>
      <trkpt lat="48.2985" lon="2.11091">
        <ele>126.3</ele>
        <time>2020-07-02T12:18:17Z</time>
      </trkpt>
      <trkpt lat="48.29845" lon="2.11089">
        <ele>126.4</ele>
        <time>2020-07-02T12:18:18Z</time>
      </trkpt>
      <trkpt lat="48.29839" lon="2.11087">
        <ele>126.5</ele>
        <time>2020-07-02T12:18:19Z</time>
      </trkpt>
      <trkpt lat="48.29834" lon="2.11085">
        <ele>126.4</ele>
        <time>2020-07-02T12:18:20Z</time>
      </trkpt>
      <trkpt lat="48.29829" lon="2.11083">
        <ele>126.4</ele>
        <time>2020-07-02T12:18:21Z</time>
      </trkpt>
      <trkpt lat="48.29824" lon="2.11081">
        <ele>126.4</ele>
        <time>2020-07-02T12:18:22Z</time>
      </trkpt>
      <trkpt lat="48.29818" lon="2.11079">
        <ele>126.5</ele>
        <time>2020-07-02T12:18:23Z</time>
      </trkpt>
      <trkpt lat="48.29813" lon="2.11076">
        <ele>126.5</ele>
        <time>2020-07-02T12:18:24Z</time>
      </trkpt>
      <trkpt lat="48.29807" lon="2.11074">
        <ele>126.5</ele>
        <time>2020-07-02T12:18:25Z</time>
      </trkpt>
      <trkpt lat="48.29802" lon="2.11072">
        <ele>126.5</ele>
        <time>2020-07-02T12:18:26Z</time>
      </trkpt>
      <trkpt lat="48.29796" lon="2.1107">
        <ele>126.5</ele>
        <time>2020-07-02T12:18:27Z</time>
      </trkpt>
      <trkpt lat="48.29791" lon="2.11068">
        <ele>126.5</ele>
        <time>2020-07-02T12:18:28Z</time>
      </trkpt>
      <trkpt lat="48.29785" lon="2.11066">
        <ele>126.6</ele>
        <time>2020-07-02T12:18:29Z</time>
      </trkpt>
      <trkpt lat="48.2978" lon="2.11064">
        <ele>126.6</ele>
        <time>2020-07-02T12:18:30Z</time>
      </trkpt>
      <trkpt lat="48.29775" lon="2.11063">
        <ele>126.6</ele>
        <time>2020-07-02T12:18:31Z</time>
      </trkpt>
      <trkpt lat="48.29769" lon="2.11061">
        <ele>126.7</ele>
        <time>2020-07-02T12:18:32Z</time>
      </trkpt>
      <trkpt lat="48.29764" lon="2.1106">
        <ele>126.7</ele>
        <time>2020-07-02T12:18:33Z</time>
      </trkpt>
      <trkpt lat="48.29759" lon="2.11059">
        <ele>126.8</ele>
        <time>2020-07-02T12:18:34Z</time>
      </trkpt>
      <trkpt lat="48.29754" lon="2.11057">
        <ele>126.9</ele>
        <time>2020-07-02T12:18:35Z</time>
      </trkpt>
      <trkpt lat="48.29748" lon="2.11055">
        <ele>126.9</ele>
        <time>2020-07-02T12:18:36Z</time>
      </trkpt>
      <trkpt lat="48.29742" lon="2.11053">
        <ele>127</ele>
        <time>2020-07-02T12:18:37Z</time>
      </trkpt>
      <trkpt lat="48.29737" lon="2.11051">
        <ele>127.1</ele>
        <time>2020-07-02T12:18:38Z</time>
      </trkpt>
      <trkpt lat="48.29732" lon="2.11049">
        <ele>127.1</ele>
        <time>2020-07-02T12:18:39Z</time>
      </trkpt>
      <trkpt lat="48.29727" lon="2.11047">
        <ele>127.2</ele>
        <time>2020-07-02T12:18:40Z</time>
      </trkpt>
      <trkpt lat="48.29722" lon="2.11045">
        <ele>127.3</ele>
        <time>2020-07-02T12:18:41Z</time>
      </trkpt>
      <trkpt lat="48.29717" lon="2.11042">
        <ele>127.4</ele>
        <time>2020-07-02T12:18:42Z</time>
      </trkpt>
      <trkpt lat="48.29711" lon="2.11039">
        <ele>127.5</ele>
        <time>2020-07-02T12:18:43Z</time>
      </trkpt>
      <trkpt lat="48.29706" lon="2.11037">
        <ele>127.6</ele>
        <time>2020-07-02T12:18:44Z</time>
      </trkpt>
      <trkpt lat="48.29702" lon="2.11036">
        <ele>127.7</ele>
        <time>2020-07-02T12:18:45Z</time>
      </trkpt>
      <trkpt lat="48.29697" lon="2.11034">
        <ele>127.9</ele>
        <time>2020-07-02T12:18:46Z</time>
      </trkpt>
      <trkpt lat="48.29692" lon="2.11032">
        <ele>127.8</ele>
        <time>2020-07-02T12:18:47Z</time>
      </trkpt>
      <trkpt lat="48.29686" lon="2.1103">
        <ele>127.8</ele>
        <time>2020-07-02T12:18:48Z</time>
      </trkpt>
      <trkpt lat="48.29681" lon="2.11028">
        <ele>127.6</ele>
        <time>2020-07-02T12:18:49Z</time>
      </trkpt>
      <trkpt lat="48.29676" lon="2.11025">
        <ele>127.5</ele>
        <time>2020-07-02T12:18:50Z</time>
      </trkpt>
      <trkpt lat="48.2967" lon="2.11023">
        <ele>127.4</ele>
        <time>2020-07-02T12:18:51Z</time>
      </trkpt>
      <trkpt lat="48.29666" lon="2.11022">
        <ele>127.4</ele>
        <time>2020-07-02T12:18:52Z</time>
      </trkpt>
      <trkpt lat="48.29661" lon="2.1102">
        <ele>127.3</ele>
        <time>2020-07-02T12:18:53Z</time>
      </trkpt>
      <trkpt lat="48.29656" lon="2.11018">
        <ele>127.3</ele>
        <time>2020-07-02T12:18:54Z</time>
      </trkpt>
      <trkpt lat="48.29652" lon="2.11016">
        <ele>127.2</ele>
        <time>2020-07-02T12:18:55Z</time>
      </trkpt>
      <trkpt lat="48.29647" lon="2.11014">
        <ele>127.2</ele>
        <time>2020-07-02T12:18:56Z</time>
      </trkpt>
      <trkpt lat="48.29642" lon="2.11012">
        <ele>127.1</ele>
        <time>2020-07-02T12:18:57Z</time>
      </trkpt>
      <trkpt lat="48.29638" lon="2.1101">
        <ele>127.1</ele>
        <time>2020-07-02T12:18:58Z</time>
      </trkpt>
      <trkpt lat="48.29633" lon="2.11009">
        <ele>127.1</ele>
        <time>2020-07-02T12:18:59Z</time>
      </trkpt>
      <trkpt lat="48.29628" lon="2.11007">
        <ele>127</ele>
        <time>2020-07-02T12:19:00Z</time>
      </trkpt>
      <trkpt lat="48.29623" lon="2.11005">
        <ele>127</ele>
        <time>2020-07-02T12:19:01Z</time>
      </trkpt>
      <trkpt lat="48.29617" lon="2.11003">
        <ele>126.9</ele>
        <time>2020-07-02T12:19:02Z</time>
      </trkpt>
      <trkpt lat="48.29613" lon="2.11001">
        <ele>126.9</ele>
        <time>2020-07-02T12:19:03Z</time>
      </trkpt>
      <trkpt lat="48.29607" lon="2.10998">
        <ele>126.8</ele>
        <time>2020-07-02T12:19:04Z</time>
      </trkpt>
      <trkpt lat="48.296" lon="2.10995">
        <ele>126.7</ele>
        <time>2020-07-02T12:19:05Z</time>
      </trkpt>
      <trkpt lat="48.29594" lon="2.10993">
        <ele>126.6</ele>
        <time>2020-07-02T12:19:06Z</time>
      </trkpt>
      <trkpt lat="48.29588" lon="2.10991">
        <ele>126.5</ele>
        <time>2020-07-02T12:19:07Z</time>
      </trkpt>
      <trkpt lat="48.29582" lon="2.1099">
        <ele>126.4</ele>
        <time>2020-07-02T12:19:08Z</time>
      </trkpt>
      <trkpt lat="48.29577" lon="2.10987">
        <ele>126.3</ele>
        <time>2020-07-02T12:19:09Z</time>
      </trkpt>
      <trkpt lat="48.29572" lon="2.10985">
        <ele>126.2</ele>
        <time>2020-07-02T12:19:10Z</time>
      </trkpt>
      <trkpt lat="48.29567" lon="2.10983">
        <ele>126.1</ele>
        <time>2020-07-02T12:19:11Z</time>
      </trkpt>
      <trkpt lat="48.29561" lon="2.10981">
        <ele>126</ele>
        <time>2020-07-02T12:19:12Z</time>
      </trkpt>
      <trkpt lat="48.29556" lon="2.10978">
        <ele>125.9</ele>
        <time>2020-07-02T12:19:13Z</time>
      </trkpt>
      <trkpt lat="48.29551" lon="2.10976">
        <ele>125.7</ele>
        <time>2020-07-02T12:19:14Z</time>
      </trkpt>
      <trkpt lat="48.29545" lon="2.10974">
        <ele>125.6</ele>
        <time>2020-07-02T12:19:15Z</time>
      </trkpt>
      <trkpt lat="48.29538" lon="2.10972">
        <ele>125.4</ele>
        <time>2020-07-02T12:19:16Z</time>
      </trkpt>
      <trkpt lat="48.29531" lon="2.10969">
        <ele>125.2</ele>
        <time>2020-07-02T12:19:17Z</time>
      </trkpt>
      <trkpt lat="48.29525" lon="2.10967">
        <ele>125.1</ele>
        <time>2020-07-02T12:19:18Z</time>
      </trkpt>
      <trkpt lat="48.29519" lon="2.10964">
        <ele>124.9</ele>
        <time>2020-07-02T12:19:19Z</time>
      </trkpt>
      <trkpt lat="48.29513" lon="2.10962">
        <ele>124.8</ele>
        <time>2020-07-02T12:19:20Z</time>
      </trkpt>
      <trkpt lat="48.29506" lon="2.10959">
        <ele>124.6</ele>
        <time>2020-07-02T12:19:21Z</time>
      </trkpt>
      <trkpt lat="48.295" lon="2.10956">
        <ele>124.4</ele>
        <time>2020-07-02T12:19:22Z</time>
      </trkpt>
      <trkpt lat="48.29494" lon="2.10953">
        <ele>124.2</ele>
        <time>2020-07-02T12:19:23Z</time>
      </trkpt>
      <trkpt lat="48.29489" lon="2.10951">
        <ele>124</ele>
        <time>2020-07-02T12:19:24Z</time>
      </trkpt>
      <trkpt lat="48.29482" lon="2.10948">
        <ele>123.7</ele>
        <time>2020-07-02T12:19:25Z</time>
      </trkpt>
      <trkpt lat="48.29475" lon="2.10945">
        <ele>123.6</ele>
        <time>2020-07-02T12:19:26Z</time>
      </trkpt>
      <trkpt lat="48.29469" lon="2.10943">
        <ele>123.4</ele>
        <time>2020-07-02T12:19:27Z</time>
      </trkpt>
      <trkpt lat="48.29462" lon="2.1094">
        <ele>123.2</ele>
        <time>2020-07-02T12:19:28Z</time>
      </trkpt>
      <trkpt lat="48.29455" lon="2.10937">
        <ele>122.9</ele>
        <time>2020-07-02T12:19:29Z</time>
      </trkpt>
      <trkpt lat="48.29448" lon="2.10935">
        <ele>122.7</ele>
        <time>2020-07-02T12:19:30Z</time>
      </trkpt>
      <trkpt lat="48.29441" lon="2.10932">
        <ele>122.5</ele>
        <time>2020-07-02T12:19:31Z</time>
      </trkpt>
      <trkpt lat="48.29434" lon="2.1093">
        <ele>122.3</ele>
        <time>2020-07-02T12:19:32Z</time>
      </trkpt>
      <trkpt lat="48.29426" lon="2.10928">
        <ele>122.2</ele>
        <time>2020-07-02T12:19:33Z</time>
      </trkpt>
      <trkpt lat="48.29419" lon="2.10925">
        <ele>122.2</ele>
        <time>2020-07-02T12:19:34Z</time>
      </trkpt>
      <trkpt lat="48.29412" lon="2.10923">
        <ele>122.2</ele>
        <time>2020-07-02T12:19:35Z</time>
      </trkpt>
      <trkpt lat="48.29404" lon="2.1092">
        <ele>122.2</ele>
        <time>2020-07-02T12:19:36Z</time>
      </trkpt>
      <trkpt lat="48.29397" lon="2.10917">
        <ele>121.8</ele>
        <time>2020-07-02T12:19:37Z</time>
      </trkpt>
      <trkpt lat="48.2939" lon="2.10914">
        <ele>121.5</ele>
        <time>2020-07-02T12:19:38Z</time>
      </trkpt>
      <trkpt lat="48.29382" lon="2.10912">
        <ele>121.1</ele>
        <time>2020-07-02T12:19:39Z</time>
      </trkpt>
      <trkpt lat="48.29375" lon="2.10909">
        <ele>120.8</ele>
        <time>2020-07-02T12:19:40Z</time>
      </trkpt>
      <trkpt lat="48.29367" lon="2.10905">
        <ele>120.6</ele>
        <time>2020-07-02T12:19:41Z</time>
      </trkpt>
      <trkpt lat="48.2936" lon="2.10903">
        <ele>120.3</ele>
        <time>2020-07-02T12:19:42Z</time>
      </trkpt>
      <trkpt lat="48.29353" lon="2.10899">
        <ele>120.1</ele>
        <time>2020-07-02T12:19:43Z</time>
      </trkpt>
      <trkpt lat="48.29345" lon="2.10896">
        <ele>119.9</ele>
        <time>2020-07-02T12:19:44Z</time>
      </trkpt>
      <trkpt lat="48.29338" lon="2.10894">
        <ele>119.7</ele>
        <time>2020-07-02T12:19:45Z</time>
      </trkpt>
      <trkpt lat="48.29331" lon="2.1089">
        <ele>119.5</ele>
        <time>2020-07-02T12:19:46Z</time>
      </trkpt>
      <trkpt lat="48.29323" lon="2.10888">
        <ele>119.3</ele>
        <time>2020-07-02T12:19:47Z</time>
      </trkpt>
      <trkpt lat="48.29316" lon="2.10885">
        <ele>119.1</ele>
        <time>2020-07-02T12:19:48Z</time>
      </trkpt>
      <trkpt lat="48.29308" lon="2.10882">
        <ele>118.9</ele>
        <time>2020-07-02T12:19:49Z</time>
      </trkpt>
      <trkpt lat="48.29301" lon="2.10879">
        <ele>118.8</ele>
        <time>2020-07-02T12:19:50Z</time>
      </trkpt>
      <trkpt lat="48.29294" lon="2.10876">
        <ele>118.7</ele>
        <time>2020-07-02T12:19:51Z</time>
      </trkpt>
      <trkpt lat="48.29287" lon="2.10873">
        <ele>118.5</ele>
        <time>2020-07-02T12:19:52Z</time>
      </trkpt>
      <trkpt lat="48.29281" lon="2.1087">
        <ele>118.4</ele>
        <time>2020-07-02T12:19:53Z</time>
      </trkpt>
      <trkpt lat="48.29274" lon="2.10867">
        <ele>118.4</ele>
        <time>2020-07-02T12:19:54Z</time>
      </trkpt>
      <trkpt lat="48.29267" lon="2.10864">
        <ele>118.3</ele>
        <time>2020-07-02T12:19:55Z</time>
      </trkpt>
      <trkpt lat="48.29261" lon="2.10862">
        <ele>118.3</ele>
        <time>2020-07-02T12:19:56Z</time>
      </trkpt>
      <trkpt lat="48.29255" lon="2.1086">
        <ele>118.3</ele>
        <time>2020-07-02T12:19:57Z</time>
      </trkpt>
      <trkpt lat="48.29248" lon="2.10858">
        <ele>118.3</ele>
        <time>2020-07-02T12:19:58Z</time>
      </trkpt>
      <trkpt lat="48.29242" lon="2.10856">
        <ele>118.3</ele>
        <time>2020-07-02T12:19:59Z</time>
      </trkpt>
      <trkpt lat="48.29236" lon="2.10854">
        <ele>118.3</ele>
        <time>2020-07-02T12:20:00Z</time>
      </trkpt>
      <trkpt lat="48.2923" lon="2.10853">
        <ele>118.3</ele>
        <time>2020-07-02T12:20:01Z</time>
      </trkpt>
      <trkpt lat="48.29224" lon="2.1085">
        <ele>118.4</ele>
        <time>2020-07-02T12:20:02Z</time>
      </trkpt>
      <trkpt lat="48.29219" lon="2.10848">
        <ele>118.5</ele>
        <time>2020-07-02T12:20:03Z</time>
      </trkpt>
      <trkpt lat="48.29213" lon="2.10846">
        <ele>118.6</ele>
        <time>2020-07-02T12:20:04Z</time>
      </trkpt>
      <trkpt lat="48.29207" lon="2.10844">
        <ele>118.7</ele>
        <time>2020-07-02T12:20:05Z</time>
      </trkpt>
      <trkpt lat="48.29202" lon="2.10842">
        <ele>118.9</ele>
        <time>2020-07-02T12:20:06Z</time>
      </trkpt>
      <trkpt lat="48.29196" lon="2.10839">
        <ele>119.1</ele>
        <time>2020-07-02T12:20:07Z</time>
      </trkpt>
      <trkpt lat="48.29191" lon="2.10836">
        <ele>119.2</ele>
        <time>2020-07-02T12:20:08Z</time>
      </trkpt>
      <trkpt lat="48.29186" lon="2.10834">
        <ele>119.3</ele>
        <time>2020-07-02T12:20:09Z</time>
      </trkpt>
      <trkpt lat="48.29181" lon="2.10832">
        <ele>119.3</ele>
        <time>2020-07-02T12:20:10Z</time>
      </trkpt>
      <trkpt lat="48.29176" lon="2.1083">
        <ele>119.4</ele>
        <time>2020-07-02T12:20:11Z</time>
      </trkpt>
      <trkpt lat="48.2917" lon="2.10828">
        <ele>119.5</ele>
        <time>2020-07-02T12:20:12Z</time>
      </trkpt>
      <trkpt lat="48.29165" lon="2.10825">
        <ele>119.6</ele>
        <time>2020-07-02T12:20:13Z</time>
      </trkpt>
      <trkpt lat="48.2916" lon="2.10824">
        <ele>119.7</ele>
        <time>2020-07-02T12:20:14Z</time>
      </trkpt>
      <trkpt lat="48.29155" lon="2.10821">
        <ele>119.8</ele>
        <time>2020-07-02T12:20:15Z</time>
      </trkpt>
      <trkpt lat="48.2915" lon="2.10819">
        <ele>120</ele>
        <time>2020-07-02T12:20:16Z</time>
      </trkpt>
      <trkpt lat="48.29145" lon="2.10818">
        <ele>120.1</ele>
        <time>2020-07-02T12:20:17Z</time>
      </trkpt>
      <trkpt lat="48.29139" lon="2.10816">
        <ele>120.3</ele>
        <time>2020-07-02T12:20:18Z</time>
      </trkpt>
      <trkpt lat="48.29134" lon="2.10813">
        <ele>120.5</ele>
        <time>2020-07-02T12:20:19Z</time>
      </trkpt>
      <trkpt lat="48.29129" lon="2.1081">
        <ele>120.7</ele>
        <time>2020-07-02T12:20:20Z</time>
      </trkpt>
      <trkpt lat="48.29124" lon="2.10808">
        <ele>120.9</ele>
        <time>2020-07-02T12:20:21Z</time>
      </trkpt>
      <trkpt lat="48.29119" lon="2.10806">
        <ele>121.1</ele>
        <time>2020-07-02T12:20:22Z</time>
      </trkpt>
      <trkpt lat="48.29114" lon="2.10805">
        <ele>121.2</ele>
        <time>2020-07-02T12:20:23Z</time>
      </trkpt>
      <trkpt lat="48.29109" lon="2.10803">
        <ele>121.4</ele>
        <time>2020-07-02T12:20:24Z</time>
      </trkpt>
      <trkpt lat="48.29103" lon="2.10801">
        <ele>121.7</ele>
        <time>2020-07-02T12:20:25Z</time>
      </trkpt>
      <trkpt lat="48.29098" lon="2.108">
        <ele>121.9</ele>
        <time>2020-07-02T12:20:26Z</time>
      </trkpt>
      <trkpt lat="48.29094" lon="2.10798">
        <ele>122</ele>
        <time>2020-07-02T12:20:27Z</time>
      </trkpt>
      <trkpt lat="48.2909" lon="2.10797">
        <ele>122.2</ele>
        <time>2020-07-02T12:20:28Z</time>
      </trkpt>
      <trkpt lat="48.29086" lon="2.10795">
        <ele>122.3</ele>
        <time>2020-07-02T12:20:29Z</time>
      </trkpt>
      <trkpt lat="48.29081" lon="2.10793">
        <ele>122.5</ele>
        <time>2020-07-02T12:20:30Z</time>
      </trkpt>
      <trkpt lat="48.29076" lon="2.10791">
        <ele>122.7</ele>
        <time>2020-07-02T12:20:31Z</time>
      </trkpt>
      <trkpt lat="48.29071" lon="2.10789">
        <ele>122.9</ele>
        <time>2020-07-02T12:20:32Z</time>
      </trkpt>
      <trkpt lat="48.29066" lon="2.10787">
        <ele>123</ele>
        <time>2020-07-02T12:20:33Z</time>
      </trkpt>
      <trkpt lat="48.29061" lon="2.10785">
        <ele>123.2</ele>
        <time>2020-07-02T12:20:34Z</time>
      </trkpt>
      <trkpt lat="48.29056" lon="2.10782">
        <ele>123.3</ele>
        <time>2020-07-02T12:20:35Z</time>
      </trkpt>
      <trkpt lat="48.29051" lon="2.1078">
        <ele>123.5</ele>
        <time>2020-07-02T12:20:36Z</time>
      </trkpt>
      <trkpt lat="48.29046" lon="2.10778">
        <ele>123.6</ele>
        <time>2020-07-02T12:20:37Z</time>
      </trkpt>
      <trkpt lat="48.29041" lon="2.10775">
        <ele>123.8</ele>
        <time>2020-07-02T12:20:38Z</time>
      </trkpt>
      <trkpt lat="48.29036" lon="2.10774">
        <ele>123.9</ele>
        <time>2020-07-02T12:20:39Z</time>
      </trkpt>
      <trkpt lat="48.29032" lon="2.10774">
        <ele>124</ele>
        <time>2020-07-02T12:20:40Z</time>
      </trkpt>
      <trkpt lat="48.29027" lon="2.10772">
        <ele>124.2</ele>
        <time>2020-07-02T12:20:41Z</time>
      </trkpt>
      <trkpt lat="48.29023" lon="2.1077">
        <ele>124.3</ele>
        <time>2020-07-02T12:20:42Z</time>
      </trkpt>
      <trkpt lat="48.29017" lon="2.10768">
        <ele>124.5</ele>
        <time>2020-07-02T12:20:43Z</time>
      </trkpt>
      <trkpt lat="48.29012" lon="2.10766">
        <ele>124.6</ele>
        <time>2020-07-02T12:20:44Z</time>
      </trkpt>
      <trkpt lat="48.29007" lon="2.10764">
        <ele>124.7</ele>
        <time>2020-07-02T12:20:45Z</time>
      </trkpt>
      <trkpt lat="48.29002" lon="2.10762">
        <ele>124.8</ele>
        <time>2020-07-02T12:20:46Z</time>
      </trkpt>
      <trkpt lat="48.28996" lon="2.1076">
        <ele>125</ele>
        <time>2020-07-02T12:20:47Z</time>
      </trkpt>
      <trkpt lat="48.28992" lon="2.10758">
        <ele>125.1</ele>
        <time>2020-07-02T12:20:48Z</time>
      </trkpt>
      <trkpt lat="48.28988" lon="2.10757">
        <ele>125.2</ele>
        <time>2020-07-02T12:20:49Z</time>
      </trkpt>
      <trkpt lat="48.28983" lon="2.10756">
        <ele>125.3</ele>
        <time>2020-07-02T12:20:50Z</time>
      </trkpt>
      <trkpt lat="48.28977" lon="2.10754">
        <ele>125.4</ele>
        <time>2020-07-02T12:20:51Z</time>
      </trkpt>
      <trkpt lat="48.28972" lon="2.10751">
        <ele>125.5</ele>
        <time>2020-07-02T12:20:52Z</time>
      </trkpt>
      <trkpt lat="48.28966" lon="2.10749">
        <ele>125.6</ele>
        <time>2020-07-02T12:20:53Z</time>
      </trkpt>
      <trkpt lat="48.28961" lon="2.10746">
        <ele>125.7</ele>
        <time>2020-07-02T12:20:54Z</time>
      </trkpt>
      <trkpt lat="48.28955" lon="2.10743">
        <ele>125.8</ele>
        <time>2020-07-02T12:20:55Z</time>
      </trkpt>
      <trkpt lat="48.2895" lon="2.10741">
        <ele>125.9</ele>
        <time>2020-07-02T12:20:56Z</time>
      </trkpt>
      <trkpt lat="48.28944" lon="2.10738">
        <ele>125.9</ele>
        <time>2020-07-02T12:20:57Z</time>
      </trkpt>
      <trkpt lat="48.28938" lon="2.10735">
        <ele>126</ele>
        <time>2020-07-02T12:20:58Z</time>
      </trkpt>
      <trkpt lat="48.28933" lon="2.10733">
        <ele>126.1</ele>
        <time>2020-07-02T12:20:59Z</time>
      </trkpt>
      <trkpt lat="48.28928" lon="2.10731">
        <ele>126.2</ele>
        <time>2020-07-02T12:21:00Z</time>
      </trkpt>
      <trkpt lat="48.28923" lon="2.10729">
        <ele>126.2</ele>
        <time>2020-07-02T12:21:01Z</time>
      </trkpt>
      <trkpt lat="48.28918" lon="2.10727">
        <ele>126.2</ele>
        <time>2020-07-02T12:21:02Z</time>
      </trkpt>
      <trkpt lat="48.28913" lon="2.10724">
        <ele>126.3</ele>
        <time>2020-07-02T12:21:03Z</time>
      </trkpt>
      <trkpt lat="48.28908" lon="2.10721">
        <ele>126.3</ele>
        <time>2020-07-02T12:21:04Z</time>
      </trkpt>
      <trkpt lat="48.28903" lon="2.10719">
        <ele>126.3</ele>
        <time>2020-07-02T12:21:05Z</time>
      </trkpt>
      <trkpt lat="48.28898" lon="2.10716">
        <ele>126.4</ele>
        <time>2020-07-02T12:21:06Z</time>
      </trkpt>
      <trkpt lat="48.28893" lon="2.10714">
        <ele>126.4</ele>
        <time>2020-07-02T12:21:07Z</time>
      </trkpt>
      <trkpt lat="48.28888" lon="2.10713">
        <ele>126.4</ele>
        <time>2020-07-02T12:21:08Z</time>
      </trkpt>
      <trkpt lat="48.28883" lon="2.10711">
        <ele>126.5</ele>
        <time>2020-07-02T12:21:09Z</time>
      </trkpt>
      <trkpt lat="48.28877" lon="2.10708">
        <ele>126.5</ele>
        <time>2020-07-02T12:21:10Z</time>
      </trkpt>
      <trkpt lat="48.28872" lon="2.10706">
        <ele>126.5</ele>
        <time>2020-07-02T12:21:11Z</time>
      </trkpt>
      <trkpt lat="48.28867" lon="2.10703">
        <ele>126.5</ele>
        <time>2020-07-02T12:21:12Z</time>
      </trkpt>
      <trkpt lat="48.28862" lon="2.107">
        <ele>126.5</ele>
        <time>2020-07-02T12:21:13Z</time>
      </trkpt>
      <trkpt lat="48.28856" lon="2.10698">
        <ele>126.6</ele>
        <time>2020-07-02T12:21:14Z</time>
      </trkpt>
      <trkpt lat="48.28851" lon="2.10696">
        <ele>126.6</ele>
        <time>2020-07-02T12:21:15Z</time>
      </trkpt>
      <trkpt lat="48.28846" lon="2.10695">
        <ele>126.6</ele>
        <time>2020-07-02T12:21:16Z</time>
      </trkpt>
      <trkpt lat="48.2884" lon="2.10693">
        <ele>126.6</ele>
        <time>2020-07-02T12:21:17Z</time>
      </trkpt>
      <trkpt lat="48.28834" lon="2.1069">
        <ele>126.6</ele>
        <time>2020-07-02T12:21:18Z</time>
      </trkpt>
      <trkpt lat="48.28828" lon="2.10688">
        <ele>126.6</ele>
        <time>2020-07-02T12:21:19Z</time>
      </trkpt>
      <trkpt lat="48.28822" lon="2.10686">
        <ele>126.6</ele>
        <time>2020-07-02T12:21:20Z</time>
      </trkpt>
      <trkpt lat="48.28816" lon="2.10683">
        <ele>126.5</ele>
        <time>2020-07-02T12:21:21Z</time>
      </trkpt>
      <trkpt lat="48.28811" lon="2.1068">
        <ele>126.2</ele>
        <time>2020-07-02T12:21:22Z</time>
      </trkpt>
      <trkpt lat="48.28805" lon="2.10678">
        <ele>125.5</ele>
        <time>2020-07-02T12:21:23Z</time>
      </trkpt>
      <trkpt lat="48.28799" lon="2.10675">
        <ele>124.4</ele>
        <time>2020-07-02T12:21:24Z</time>
      </trkpt>
      <trkpt lat="48.28793" lon="2.10672">
        <ele>124.2</ele>
        <time>2020-07-02T12:21:25Z</time>
      </trkpt>
      <trkpt lat="48.28786" lon="2.10669">
        <ele>124</ele>
        <time>2020-07-02T12:21:26Z</time>
      </trkpt>
      <trkpt lat="48.2878" lon="2.10666">
        <ele>123.8</ele>
        <time>2020-07-02T12:21:27Z</time>
      </trkpt>
      <trkpt lat="48.28774" lon="2.10664">
        <ele>123.7</ele>
        <time>2020-07-02T12:21:28Z</time>
      </trkpt>
      <trkpt lat="48.28767" lon="2.10661">
        <ele>123.6</ele>
        <time>2020-07-02T12:21:29Z</time>
      </trkpt>
      <trkpt lat="48.2876" lon="2.10659">
        <ele>123.4</ele>
        <time>2020-07-02T12:21:30Z</time>
      </trkpt>
      <trkpt lat="48.28754" lon="2.10656">
        <ele>123.3</ele>
        <time>2020-07-02T12:21:31Z</time>
      </trkpt>
      <trkpt lat="48.28747" lon="2.10654">
        <ele>123.2</ele>
        <time>2020-07-02T12:21:32Z</time>
      </trkpt>
      <trkpt lat="48.28741" lon="2.10652">
        <ele>123</ele>
        <time>2020-07-02T12:21:33Z</time>
      </trkpt>
      <trkpt lat="48.28734" lon="2.10649">
        <ele>122.9</ele>
        <time>2020-07-02T12:21:34Z</time>
      </trkpt>
      <trkpt lat="48.28727" lon="2.10646">
        <ele>122.6</ele>
        <time>2020-07-02T12:21:35Z</time>
      </trkpt>
      <trkpt lat="48.28721" lon="2.10643">
        <ele>122.4</ele>
        <time>2020-07-02T12:21:36Z</time>
      </trkpt>
      <trkpt lat="48.28714" lon="2.10639">
        <ele>122.2</ele>
        <time>2020-07-02T12:21:37Z</time>
      </trkpt>
      <trkpt lat="48.28707" lon="2.10636">
        <ele>121.9</ele>
        <time>2020-07-02T12:21:38Z</time>
      </trkpt>
      <trkpt lat="48.287" lon="2.10632">
        <ele>121.7</ele>
        <time>2020-07-02T12:21:39Z</time>
      </trkpt>
      <trkpt lat="48.28693" lon="2.10629">
        <ele>121.5</ele>
        <time>2020-07-02T12:21:40Z</time>
      </trkpt>
      <trkpt lat="48.28686" lon="2.10625">
        <ele>121.2</ele>
        <time>2020-07-02T12:21:41Z</time>
      </trkpt>
      <trkpt lat="48.28678" lon="2.10622">
        <ele>121</ele>
        <time>2020-07-02T12:21:42Z</time>
      </trkpt>
      <trkpt lat="48.2867" lon="2.1062">
        <ele>120.7</ele>
        <time>2020-07-02T12:21:43Z</time>
      </trkpt>
      <trkpt lat="48.28663" lon="2.10617">
        <ele>120.5</ele>
        <time>2020-07-02T12:21:44Z</time>
      </trkpt>
      <trkpt lat="48.28655" lon="2.10614">
        <ele>120.2</ele>
        <time>2020-07-02T12:21:45Z</time>
      </trkpt>
      <trkpt lat="48.28647" lon="2.1061">
        <ele>120</ele>
        <time>2020-07-02T12:21:46Z</time>
      </trkpt>
      <trkpt lat="48.28639" lon="2.10607">
        <ele>119.8</ele>
        <time>2020-07-02T12:21:47Z</time>
      </trkpt>
      <trkpt lat="48.28631" lon="2.10603">
        <ele>119.6</ele>
        <time>2020-07-02T12:21:48Z</time>
      </trkpt>
      <trkpt lat="48.28623" lon="2.106">
        <ele>119.5</ele>
        <time>2020-07-02T12:21:49Z</time>
      </trkpt>
      <trkpt lat="48.28616" lon="2.10597">
        <ele>119.3</ele>
        <time>2020-07-02T12:21:50Z</time>
      </trkpt>
      <trkpt lat="48.28608" lon="2.10594">
        <ele>119.1</ele>
        <time>2020-07-02T12:21:51Z</time>
      </trkpt>
      <trkpt lat="48.286" lon="2.10591">
        <ele>119</ele>
        <time>2020-07-02T12:21:52Z</time>
      </trkpt>
      <trkpt lat="48.28592" lon="2.10588">
        <ele>118.9</ele>
        <time>2020-07-02T12:21:53Z</time>
      </trkpt>
      <trkpt lat="48.28584" lon="2.10585">
        <ele>118.8</ele>
        <time>2020-07-02T12:21:54Z</time>
      </trkpt>
      <trkpt lat="48.28577" lon="2.10582">
        <ele>118.8</ele>
        <time>2020-07-02T12:21:55Z</time>
      </trkpt>
      <trkpt lat="48.2857" lon="2.10579">
        <ele>118.7</ele>
        <time>2020-07-02T12:21:56Z</time>
      </trkpt>
      <trkpt lat="48.28563" lon="2.10575">
        <ele>118.7</ele>
        <time>2020-07-02T12:21:57Z</time>
      </trkpt>
      <trkpt lat="48.28556" lon="2.10572">
        <ele>118.7</ele>
        <time>2020-07-02T12:21:58Z</time>
      </trkpt>
      <trkpt lat="48.28549" lon="2.10569">
        <ele>118.7</ele>
        <time>2020-07-02T12:21:59Z</time>
      </trkpt>
      <trkpt lat="48.28542" lon="2.10566">
        <ele>118.7</ele>
        <time>2020-07-02T12:22:00Z</time>
      </trkpt>
      <trkpt lat="48.28535" lon="2.10563">
        <ele>118.8</ele>
        <time>2020-07-02T12:22:01Z</time>
      </trkpt>
      <trkpt lat="48.28528" lon="2.1056">
        <ele>118.8</ele>
        <time>2020-07-02T12:22:02Z</time>
      </trkpt>
      <trkpt lat="48.28522" lon="2.10557">
        <ele>119</ele>
        <time>2020-07-02T12:22:03Z</time>
      </trkpt>
      <trkpt lat="48.28515" lon="2.10554">
        <ele>119.1</ele>
        <time>2020-07-02T12:22:04Z</time>
      </trkpt>
      <trkpt lat="48.28509" lon="2.10551">
        <ele>119.3</ele>
        <time>2020-07-02T12:22:05Z</time>
      </trkpt>
      <trkpt lat="48.28503" lon="2.10548">
        <ele>119.3</ele>
        <time>2020-07-02T12:22:06Z</time>
      </trkpt>
      <trkpt lat="48.28497" lon="2.10545">
        <ele>119.3</ele>
        <time>2020-07-02T12:22:07Z</time>
      </trkpt>
      <trkpt lat="48.28491" lon="2.10542">
        <ele>119.3</ele>
        <time>2020-07-02T12:22:08Z</time>
      </trkpt>
      <trkpt lat="48.28484" lon="2.10539">
        <ele>119.4</ele>
        <time>2020-07-02T12:22:09Z</time>
      </trkpt>
      <trkpt lat="48.28478" lon="2.10536">
        <ele>119.5</ele>
        <time>2020-07-02T12:22:10Z</time>
      </trkpt>
      <trkpt lat="48.28472" lon="2.10534">
        <ele>119.7</ele>
        <time>2020-07-02T12:22:11Z</time>
      </trkpt>
      <trkpt lat="48.28466" lon="2.10531">
        <ele>119.8</ele>
        <time>2020-07-02T12:22:12Z</time>
      </trkpt>
      <trkpt lat="48.2846" lon="2.10529">
        <ele>120</ele>
        <time>2020-07-02T12:22:13Z</time>
      </trkpt>
      <trkpt lat="48.28454" lon="2.10527">
        <ele>120.2</ele>
        <time>2020-07-02T12:22:14Z</time>
      </trkpt>
      <trkpt lat="48.28448" lon="2.10525">
        <ele>120.4</ele>
        <time>2020-07-02T12:22:15Z</time>
      </trkpt>
      <trkpt lat="48.28442" lon="2.10522">
        <ele>120.6</ele>
        <time>2020-07-02T12:22:16Z</time>
      </trkpt>
      <trkpt lat="48.28437" lon="2.10519">
        <ele>120.9</ele>
        <time>2020-07-02T12:22:17Z</time>
      </trkpt>
      <trkpt lat="48.28431" lon="2.10517">
        <ele>121.1</ele>
        <time>2020-07-02T12:22:18Z</time>
      </trkpt>
      <trkpt lat="48.28426" lon="2.10515">
        <ele>121.3</ele>
        <time>2020-07-02T12:22:19Z</time>
      </trkpt>
      <trkpt lat="48.28421" lon="2.10512">
        <ele>121.4</ele>
        <time>2020-07-02T12:22:20Z</time>
      </trkpt>
      <trkpt lat="48.28416" lon="2.10509">
        <ele>121.5</ele>
        <time>2020-07-02T12:22:21Z</time>
      </trkpt>
      <trkpt lat="48.2841" lon="2.10507">
        <ele>121.7</ele>
        <time>2020-07-02T12:22:22Z</time>
      </trkpt>
      <trkpt lat="48.28405" lon="2.10505">
        <ele>121.8</ele>
        <time>2020-07-02T12:22:23Z</time>
      </trkpt>
      <trkpt lat="48.28399" lon="2.10502">
        <ele>122</ele>
        <time>2020-07-02T12:22:24Z</time>
      </trkpt>
      <trkpt lat="48.28394" lon="2.10499">
        <ele>122.2</ele>
        <time>2020-07-02T12:22:25Z</time>
      </trkpt>
      <trkpt lat="48.28388" lon="2.10497">
        <ele>122.3</ele>
        <time>2020-07-02T12:22:26Z</time>
      </trkpt>
      <trkpt lat="48.28383" lon="2.10496">
        <ele>122.4</ele>
        <time>2020-07-02T12:22:27Z</time>
      </trkpt>
      <trkpt lat="48.28379" lon="2.10494">
        <ele>122.5</ele>
        <time>2020-07-02T12:22:28Z</time>
      </trkpt>
      <trkpt lat="48.28375" lon="2.10492">
        <ele>122.6</ele>
        <time>2020-07-02T12:22:29Z</time>
      </trkpt>
      <trkpt lat="48.28371" lon="2.10491">
        <ele>122.7</ele>
        <time>2020-07-02T12:22:30Z</time>
      </trkpt>
      <trkpt lat="48.28366" lon="2.10489">
        <ele>122.8</ele>
        <time>2020-07-02T12:22:31Z</time>
      </trkpt>
      <trkpt lat="48.28361" lon="2.10487">
        <ele>122.9</ele>
        <time>2020-07-02T12:22:32Z</time>
      </trkpt>
      <trkpt lat="48.28355" lon="2.10485">
        <ele>123</ele>
        <time>2020-07-02T12:22:33Z</time>
      </trkpt>
      <trkpt lat="48.2835" lon="2.10482">
        <ele>123.1</ele>
        <time>2020-07-02T12:22:34Z</time>
      </trkpt>
      <trkpt lat="48.28345" lon="2.10479">
        <ele>123.2</ele>
        <time>2020-07-02T12:22:35Z</time>
      </trkpt>
      <trkpt lat="48.28341" lon="2.10477">
        <ele>123.2</ele>
        <time>2020-07-02T12:22:36Z</time>
      </trkpt>
      <trkpt lat="48.28336" lon="2.10476">
        <ele>123.3</ele>
        <time>2020-07-02T12:22:37Z</time>
      </trkpt>
      <trkpt lat="48.28331" lon="2.10474">
        <ele>123.4</ele>
        <time>2020-07-02T12:22:38Z</time>
      </trkpt>
      <trkpt lat="48.28326" lon="2.10471">
        <ele>123.4</ele>
        <time>2020-07-02T12:22:39Z</time>
      </trkpt>
      <trkpt lat="48.28321" lon="2.10469">
        <ele>123.5</ele>
        <time>2020-07-02T12:22:40Z</time>
      </trkpt>
      <trkpt lat="48.28315" lon="2.10467">
        <ele>123.5</ele>
        <time>2020-07-02T12:22:41Z</time>
      </trkpt>
      <trkpt lat="48.28309" lon="2.10465">
        <ele>123.5</ele>
        <time>2020-07-02T12:22:42Z</time>
      </trkpt>
      <trkpt lat="48.28304" lon="2.10462">
        <ele>123.6</ele>
        <time>2020-07-02T12:22:43Z</time>
      </trkpt>
      <trkpt lat="48.28299" lon="2.1046">
        <ele>123.6</ele>
        <time>2020-07-02T12:22:44Z</time>
      </trkpt>
      <trkpt lat="48.28293" lon="2.10456">
        <ele>123.6</ele>
        <time>2020-07-02T12:22:45Z</time>
      </trkpt>
      <trkpt lat="48.28288" lon="2.10453">
        <ele>123.7</ele>
        <time>2020-07-02T12:22:46Z</time>
      </trkpt>
      <trkpt lat="48.28283" lon="2.10452">
        <ele>123.7</ele>
        <time>2020-07-02T12:22:47Z</time>
      </trkpt>
      <trkpt lat="48.28277" lon="2.1045">
        <ele>123.7</ele>
        <time>2020-07-02T12:22:48Z</time>
      </trkpt>
      <trkpt lat="48.28272" lon="2.10447">
        <ele>123.7</ele>
        <time>2020-07-02T12:22:49Z</time>
      </trkpt>
      <trkpt lat="48.28266" lon="2.10445">
        <ele>123.7</ele>
        <time>2020-07-02T12:22:50Z</time>
      </trkpt>
      <trkpt lat="48.2826" lon="2.10443">
        <ele>123.8</ele>
        <time>2020-07-02T12:22:51Z</time>
      </trkpt>
      <trkpt lat="48.28254" lon="2.10441">
        <ele>123.8</ele>
        <time>2020-07-02T12:22:52Z</time>
      </trkpt>
      <trkpt lat="48.28249" lon="2.1044">
        <ele>123.8</ele>
        <time>2020-07-02T12:22:53Z</time>
      </trkpt>
      <trkpt lat="48.28244" lon="2.10437">
        <ele>123.8</ele>
        <time>2020-07-02T12:22:54Z</time>
      </trkpt>
      <trkpt lat="48.28239" lon="2.10435">
        <ele>123.8</ele>
        <time>2020-07-02T12:22:55Z</time>
      </trkpt>
      <trkpt lat="48.28233" lon="2.10432">
        <ele>123.9</ele>
        <time>2020-07-02T12:22:56Z</time>
      </trkpt>
      <trkpt lat="48.28228" lon="2.10431">
        <ele>123.9</ele>
        <time>2020-07-02T12:22:57Z</time>
      </trkpt>
      <trkpt lat="48.28222" lon="2.10428">
        <ele>123.9</ele>
        <time>2020-07-02T12:22:58Z</time>
      </trkpt>
      <trkpt lat="48.28216" lon="2.10425">
        <ele>123.9</ele>
        <time>2020-07-02T12:22:59Z</time>
      </trkpt>
      <trkpt lat="48.2821" lon="2.10422">
        <ele>123.9</ele>
        <time>2020-07-02T12:23:00Z</time>
      </trkpt>
      <trkpt lat="48.28205" lon="2.10419">
        <ele>123.8</ele>
        <time>2020-07-02T12:23:01Z</time>
      </trkpt>
      <trkpt lat="48.28201" lon="2.10417">
        <ele>123.8</ele>
        <time>2020-07-02T12:23:02Z</time>
      </trkpt>
      <trkpt lat="48.28195" lon="2.10415">
        <ele>123.7</ele>
        <time>2020-07-02T12:23:03Z</time>
      </trkpt>
      <trkpt lat="48.28189" lon="2.10412">
        <ele>123.7</ele>
        <time>2020-07-02T12:23:04Z</time>
      </trkpt>
      <trkpt lat="48.28184" lon="2.1041">
        <ele>123.7</ele>
        <time>2020-07-02T12:23:05Z</time>
      </trkpt>
      <trkpt lat="48.28178" lon="2.10406">
        <ele>123.7</ele>
        <time>2020-07-02T12:23:06Z</time>
      </trkpt>
      <trkpt lat="48.28172" lon="2.10404">
        <ele>123.7</ele>
        <time>2020-07-02T12:23:07Z</time>
      </trkpt>
      <trkpt lat="48.28166" lon="2.10402">
        <ele>123.7</ele>
        <time>2020-07-02T12:23:08Z</time>
      </trkpt>
      <trkpt lat="48.2816" lon="2.10399">
        <ele>123.7</ele>
        <time>2020-07-02T12:23:09Z</time>
      </trkpt>
      <trkpt lat="48.28155" lon="2.10397">
        <ele>123.7</ele>
        <time>2020-07-02T12:23:10Z</time>
      </trkpt>
      <trkpt lat="48.28148" lon="2.10394">
        <ele>123.6</ele>
        <time>2020-07-02T12:23:11Z</time>
      </trkpt>
      <trkpt lat="48.28142" lon="2.10392">
        <ele>123.6</ele>
        <time>2020-07-02T12:23:12Z</time>
      </trkpt>
      <trkpt lat="48.28136" lon="2.1039">
        <ele>123.6</ele>
        <time>2020-07-02T12:23:13Z</time>
      </trkpt>
      <trkpt lat="48.28131" lon="2.10388">
        <ele>123.6</ele>
        <time>2020-07-02T12:23:14Z</time>
      </trkpt>
      <trkpt lat="48.28125" lon="2.10385">
        <ele>123.6</ele>
        <time>2020-07-02T12:23:15Z</time>
      </trkpt>
      <trkpt lat="48.28119" lon="2.10382">
        <ele>123.5</ele>
        <time>2020-07-02T12:23:16Z</time>
      </trkpt>
      <trkpt lat="48.28112" lon="2.1038">
        <ele>123.5</ele>
        <time>2020-07-02T12:23:17Z</time>
      </trkpt>
      <trkpt lat="48.28105" lon="2.10377">
        <ele>123.5</ele>
        <time>2020-07-02T12:23:18Z</time>
      </trkpt>
      <trkpt lat="48.28099" lon="2.10374">
        <ele>123.5</ele>
        <time>2020-07-02T12:23:19Z</time>
      </trkpt>
      <trkpt lat="48.28094" lon="2.10371">
        <ele>123.4</ele>
        <time>2020-07-02T12:23:20Z</time>
      </trkpt>
      <trkpt lat="48.28088" lon="2.10369">
        <ele>123.4</ele>
        <time>2020-07-02T12:23:21Z</time>
      </trkpt>
      <trkpt lat="48.28082" lon="2.10367">
        <ele>123.4</ele>
        <time>2020-07-02T12:23:22Z</time>
      </trkpt>
      <trkpt lat="48.28076" lon="2.10364">
        <ele>123.4</ele>
        <time>2020-07-02T12:23:23Z</time>
      </trkpt>
      <trkpt lat="48.28071" lon="2.10362">
        <ele>123.4</ele>
        <time>2020-07-02T12:23:24Z</time>
      </trkpt>
      <trkpt lat="48.28065" lon="2.10359">
        <ele>123.3</ele>
        <time>2020-07-02T12:23:25Z</time>
      </trkpt>
      <trkpt lat="48.28059" lon="2.10357">
        <ele>123.3</ele>
        <time>2020-07-02T12:23:26Z</time>
      </trkpt>
      <trkpt lat="48.28053" lon="2.10354">
        <ele>123.3</ele>
        <time>2020-07-02T12:23:27Z</time>
      </trkpt>
      <trkpt lat="48.28047" lon="2.10352">
        <ele>123.2</ele>
        <time>2020-07-02T12:23:28Z</time>
      </trkpt>
      <trkpt lat="48.28041" lon="2.1035">
        <ele>123.2</ele>
        <time>2020-07-02T12:23:29Z</time>
      </trkpt>
      <trkpt lat="48.28035" lon="2.10347">
        <ele>123.1</ele>
        <time>2020-07-02T12:23:30Z</time>
      </trkpt>
      <trkpt lat="48.2803" lon="2.10345">
        <ele>123.1</ele>
        <time>2020-07-02T12:23:31Z</time>
      </trkpt>
      <trkpt lat="48.28025" lon="2.10343">
        <ele>123</ele>
        <time>2020-07-02T12:23:32Z</time>
      </trkpt>
      <trkpt lat="48.28019" lon="2.1034">
        <ele>122.9</ele>
        <time>2020-07-02T12:23:33Z</time>
      </trkpt>
      <trkpt lat="48.28013" lon="2.10337">
        <ele>122.9</ele>
        <time>2020-07-02T12:23:34Z</time>
      </trkpt>
      <trkpt lat="48.28007" lon="2.10335">
        <ele>122.8</ele>
        <time>2020-07-02T12:23:35Z</time>
      </trkpt>
      <trkpt lat="48.28001" lon="2.10332">
        <ele>122.7</ele>
        <time>2020-07-02T12:23:36Z</time>
      </trkpt>
      <trkpt lat="48.27995" lon="2.1033">
        <ele>122.7</ele>
        <time>2020-07-02T12:23:37Z</time>
      </trkpt>
      <trkpt lat="48.27989" lon="2.10327">
        <ele>122.6</ele>
        <time>2020-07-02T12:23:38Z</time>
      </trkpt>
      <trkpt lat="48.27983" lon="2.10324">
        <ele>122.6</ele>
        <time>2020-07-02T12:23:39Z</time>
      </trkpt>
      <trkpt lat="48.27977" lon="2.10322">
        <ele>122.5</ele>
        <time>2020-07-02T12:23:40Z</time>
      </trkpt>
      <trkpt lat="48.2797" lon="2.1032">
        <ele>122.5</ele>
        <time>2020-07-02T12:23:41Z</time>
      </trkpt>
      <trkpt lat="48.27964" lon="2.10317">
        <ele>122.4</ele>
        <time>2020-07-02T12:23:42Z</time>
      </trkpt>
      <trkpt lat="48.27957" lon="2.10314">
        <ele>122.4</ele>
        <time>2020-07-02T12:23:43Z</time>
      </trkpt>
      <trkpt lat="48.2795" lon="2.10311">
        <ele>122.3</ele>
        <time>2020-07-02T12:23:44Z</time>
      </trkpt>
      <trkpt lat="48.27944" lon="2.10308">
        <ele>122.3</ele>
        <time>2020-07-02T12:23:45Z</time>
      </trkpt>
      <trkpt lat="48.27938" lon="2.10306">
        <ele>122.2</ele>
        <time>2020-07-02T12:23:46Z</time>
      </trkpt>
      <trkpt lat="48.27932" lon="2.10303">
        <ele>122.1</ele>
        <time>2020-07-02T12:23:47Z</time>
      </trkpt>
      <trkpt lat="48.27926" lon="2.103">
        <ele>122</ele>
        <time>2020-07-02T12:23:48Z</time>
      </trkpt>
      <trkpt lat="48.27919" lon="2.10297">
        <ele>122</ele>
        <time>2020-07-02T12:23:49Z</time>
      </trkpt>
      <trkpt lat="48.27912" lon="2.10294">
        <ele>121.9</ele>
        <time>2020-07-02T12:23:50Z</time>
      </trkpt>
      <trkpt lat="48.27906" lon="2.10291">
        <ele>121.8</ele>
        <time>2020-07-02T12:23:51Z</time>
      </trkpt>
      <trkpt lat="48.279" lon="2.10288">
        <ele>121.7</ele>
        <time>2020-07-02T12:23:52Z</time>
      </trkpt>
      <trkpt lat="48.27893" lon="2.10285">
        <ele>121.6</ele>
        <time>2020-07-02T12:23:53Z</time>
      </trkpt>
      <trkpt lat="48.27887" lon="2.10282">
        <ele>121.5</ele>
        <time>2020-07-02T12:23:54Z</time>
      </trkpt>
      <trkpt lat="48.2788" lon="2.10281">
        <ele>121.4</ele>
        <time>2020-07-02T12:23:55Z</time>
      </trkpt>
      <trkpt lat="48.27874" lon="2.10278">
        <ele>121.4</ele>
        <time>2020-07-02T12:23:56Z</time>
      </trkpt>
      <trkpt lat="48.27867" lon="2.10276">
        <ele>121.3</ele>
        <time>2020-07-02T12:23:57Z</time>
      </trkpt>
      <trkpt lat="48.27861" lon="2.10272">
        <ele>121.2</ele>
        <time>2020-07-02T12:23:58Z</time>
      </trkpt>
      <trkpt lat="48.27855" lon="2.1027">
        <ele>121.2</ele>
        <time>2020-07-02T12:23:59Z</time>
      </trkpt>
      <trkpt lat="48.27848" lon="2.10267">
        <ele>121.1</ele>
        <time>2020-07-02T12:24:00Z</time>
      </trkpt>
      <trkpt lat="48.27842" lon="2.10264">
        <ele>121</ele>
        <time>2020-07-02T12:24:01Z</time>
      </trkpt>
      <trkpt lat="48.27835" lon="2.10261">
        <ele>120.9</ele>
        <time>2020-07-02T12:24:02Z</time>
      </trkpt>
      <trkpt lat="48.27829" lon="2.10258">
        <ele>120.8</ele>
        <time>2020-07-02T12:24:03Z</time>
      </trkpt>
      <trkpt lat="48.27822" lon="2.10255">
        <ele>120.6</ele>
        <time>2020-07-02T12:24:04Z</time>
      </trkpt>
      <trkpt lat="48.27815" lon="2.10251">
        <ele>120.3</ele>
        <time>2020-07-02T12:24:05Z</time>
      </trkpt>
      <trkpt lat="48.27809" lon="2.10247">
        <ele>120.1</ele>
        <time>2020-07-02T12:24:06Z</time>
      </trkpt>
      <trkpt lat="48.27802" lon="2.10244">
        <ele>120</ele>
        <time>2020-07-02T12:24:07Z</time>
      </trkpt>
      <trkpt lat="48.27795" lon="2.10241">
        <ele>120</ele>
        <time>2020-07-02T12:24:08Z</time>
      </trkpt>
      <trkpt lat="48.27787" lon="2.10238">
        <ele>119.9</ele>
        <time>2020-07-02T12:24:09Z</time>
      </trkpt>
      <trkpt lat="48.2778" lon="2.10236">
        <ele>119.8</ele>
        <time>2020-07-02T12:24:10Z</time>
      </trkpt>
      <trkpt lat="48.27773" lon="2.10232">
        <ele>119.8</ele>
        <time>2020-07-02T12:24:11Z</time>
      </trkpt>
      <trkpt lat="48.27766" lon="2.10229">
        <ele>119.6</ele>
        <time>2020-07-02T12:24:12Z</time>
      </trkpt>
      <trkpt lat="48.27759" lon="2.10225">
        <ele>119.5</ele>
        <time>2020-07-02T12:24:13Z</time>
      </trkpt>
      <trkpt lat="48.27751" lon="2.10224">
        <ele>119.3</ele>
        <time>2020-07-02T12:24:14Z</time>
      </trkpt>
      <trkpt lat="48.27744" lon="2.10222">
        <ele>119.2</ele>
        <time>2020-07-02T12:24:15Z</time>
      </trkpt>
      <trkpt lat="48.27737" lon="2.10218">
        <ele>119</ele>
        <time>2020-07-02T12:24:16Z</time>
      </trkpt>
      <trkpt lat="48.27729" lon="2.10214">
        <ele>118.8</ele>
        <time>2020-07-02T12:24:17Z</time>
      </trkpt>
      <trkpt lat="48.27722" lon="2.10211">
        <ele>118.6</ele>
        <time>2020-07-02T12:24:18Z</time>
      </trkpt>
      <trkpt lat="48.27715" lon="2.10207">
        <ele>118.4</ele>
        <time>2020-07-02T12:24:19Z</time>
      </trkpt>
      <trkpt lat="48.27708" lon="2.10204">
        <ele>118.3</ele>
        <time>2020-07-02T12:24:20Z</time>
      </trkpt>
      <trkpt lat="48.277" lon="2.10201">
        <ele>118.1</ele>
        <time>2020-07-02T12:24:21Z</time>
      </trkpt>
      <trkpt lat="48.27693" lon="2.10198">
        <ele>117.9</ele>
        <time>2020-07-02T12:24:22Z</time>
      </trkpt>
      <trkpt lat="48.27686" lon="2.10195">
        <ele>117.6</ele>
        <time>2020-07-02T12:24:23Z</time>
      </trkpt>
      <trkpt lat="48.27678" lon="2.10192">
        <ele>117.4</ele>
        <time>2020-07-02T12:24:24Z</time>
      </trkpt>
      <trkpt lat="48.2767" lon="2.10188">
        <ele>117.1</ele>
        <time>2020-07-02T12:24:25Z</time>
      </trkpt>
      <trkpt lat="48.27663" lon="2.10185">
        <ele>116.8</ele>
        <time>2020-07-02T12:24:26Z</time>
      </trkpt>
      <trkpt lat="48.27655" lon="2.10181">
        <ele>116.5</ele>
        <time>2020-07-02T12:24:27Z</time>
      </trkpt>
      <trkpt lat="48.27648" lon="2.10178">
        <ele>116.2</ele>
        <time>2020-07-02T12:24:28Z</time>
      </trkpt>
      <trkpt lat="48.2764" lon="2.10174">
        <ele>115.9</ele>
        <time>2020-07-02T12:24:29Z</time>
      </trkpt>
      <trkpt lat="48.27633" lon="2.10171">
        <ele>115.6</ele>
        <time>2020-07-02T12:24:30Z</time>
      </trkpt>
      <trkpt lat="48.27626" lon="2.10167">
        <ele>115.4</ele>
        <time>2020-07-02T12:24:31Z</time>
      </trkpt>
      <trkpt lat="48.27619" lon="2.10164">
        <ele>115.1</ele>
        <time>2020-07-02T12:24:32Z</time>
      </trkpt>
      <trkpt lat="48.27612" lon="2.10161">
        <ele>114.8</ele>
        <time>2020-07-02T12:24:33Z</time>
      </trkpt>
      <trkpt lat="48.27606" lon="2.10158">
        <ele>114.6</ele>
        <time>2020-07-02T12:24:34Z</time>
      </trkpt>
      <trkpt lat="48.27599" lon="2.10155">
        <ele>114.3</ele>
        <time>2020-07-02T12:24:35Z</time>
      </trkpt>
      <trkpt lat="48.27593" lon="2.10153">
        <ele>114.2</ele>
        <time>2020-07-02T12:24:36Z</time>
      </trkpt>
      <trkpt lat="48.27586" lon="2.1015">
        <ele>114.1</ele>
        <time>2020-07-02T12:24:37Z</time>
      </trkpt>
      <trkpt lat="48.2758" lon="2.10147">
        <ele>114</ele>
        <time>2020-07-02T12:24:38Z</time>
      </trkpt>
      <trkpt lat="48.27574" lon="2.10144">
        <ele>113.8</ele>
        <time>2020-07-02T12:24:39Z</time>
      </trkpt>
      <trkpt lat="48.27569" lon="2.10142">
        <ele>113.6</ele>
        <time>2020-07-02T12:24:40Z</time>
      </trkpt>
      <trkpt lat="48.27564" lon="2.1014">
        <ele>113.4</ele>
        <time>2020-07-02T12:24:41Z</time>
      </trkpt>
      <trkpt lat="48.27558" lon="2.10139">
        <ele>113.3</ele>
        <time>2020-07-02T12:24:42Z</time>
      </trkpt>
      <trkpt lat="48.27553" lon="2.10136">
        <ele>113.1</ele>
        <time>2020-07-02T12:24:43Z</time>
      </trkpt>
      <trkpt lat="48.27548" lon="2.10134">
        <ele>112.3</ele>
        <time>2020-07-02T12:24:44Z</time>
      </trkpt>
      <trkpt lat="48.27542" lon="2.10132">
        <ele>111.8</ele>
        <time>2020-07-02T12:24:45Z</time>
      </trkpt>
      <trkpt lat="48.27536" lon="2.1013">
        <ele>111.2</ele>
        <time>2020-07-02T12:24:46Z</time>
      </trkpt>
      <trkpt lat="48.2753" lon="2.10126">
        <ele>110.6</ele>
        <time>2020-07-02T12:24:47Z</time>
      </trkpt>
      <trkpt lat="48.27523" lon="2.10123">
        <ele>109.9</ele>
        <time>2020-07-02T12:24:48Z</time>
      </trkpt>
      <trkpt lat="48.27515" lon="2.10121">
        <ele>109.1</ele>
        <time>2020-07-02T12:24:49Z</time>
      </trkpt>
      <trkpt lat="48.27507" lon="2.10118">
        <ele>108.4</ele>
        <time>2020-07-02T12:24:50Z</time>
      </trkpt>
      <trkpt lat="48.27498" lon="2.10115">
        <ele>107.5</ele>
        <time>2020-07-02T12:24:51Z</time>
      </trkpt>
      <trkpt lat="48.2749" lon="2.10112">
        <ele>106.8</ele>
        <time>2020-07-02T12:24:52Z</time>
      </trkpt>
      <trkpt lat="48.27481" lon="2.10109">
        <ele>106.3</ele>
        <time>2020-07-02T12:24:53Z</time>
      </trkpt>
      <trkpt lat="48.27472" lon="2.10107">
        <ele>105.7</ele>
        <time>2020-07-02T12:24:54Z</time>
      </trkpt>
      <trkpt lat="48.27464" lon="2.10101">
        <ele>105.3</ele>
        <time>2020-07-02T12:24:55Z</time>
      </trkpt>
      <trkpt lat="48.27455" lon="2.10095">
        <ele>104.8</ele>
        <time>2020-07-02T12:24:56Z</time>
      </trkpt>
      <trkpt lat="48.27446" lon="2.10091">
        <ele>104.6</ele>
        <time>2020-07-02T12:24:57Z</time>
      </trkpt>
      <trkpt lat="48.27438" lon="2.10088">
        <ele>104.4</ele>
        <time>2020-07-02T12:24:58Z</time>
      </trkpt>
      <trkpt lat="48.2743" lon="2.10085">
        <ele>104.2</ele>
        <time>2020-07-02T12:24:59Z</time>
      </trkpt>
      <trkpt lat="48.27422" lon="2.10081">
        <ele>104.2</ele>
        <time>2020-07-02T12:25:00Z</time>
      </trkpt>
      <trkpt lat="48.27414" lon="2.10076">
        <ele>104.1</ele>
        <time>2020-07-02T12:25:01Z</time>
      </trkpt>
      <trkpt lat="48.27406" lon="2.10073">
        <ele>104.1</ele>
        <time>2020-07-02T12:25:02Z</time>
      </trkpt>
      <trkpt lat="48.27399" lon="2.10069">
        <ele>104.1</ele>
        <time>2020-07-02T12:25:03Z</time>
      </trkpt>
      <trkpt lat="48.27392" lon="2.10065">
        <ele>104.2</ele>
        <time>2020-07-02T12:25:04Z</time>
      </trkpt>
      <trkpt lat="48.27385" lon="2.10061">
        <ele>104.3</ele>
        <time>2020-07-02T12:25:05Z</time>
      </trkpt>
      <trkpt lat="48.27378" lon="2.10059">
        <ele>104.4</ele>
        <time>2020-07-02T12:25:06Z</time>
      </trkpt>
      <trkpt lat="48.27371" lon="2.10055">
        <ele>104.6</ele>
        <time>2020-07-02T12:25:07Z</time>
      </trkpt>
      <trkpt lat="48.27364" lon="2.10053">
        <ele>104.8</ele>
        <time>2020-07-02T12:25:08Z</time>
      </trkpt>
      <trkpt lat="48.27357" lon="2.10051">
        <ele>105</ele>
        <time>2020-07-02T12:25:09Z</time>
      </trkpt>
      <trkpt lat="48.27351" lon="2.10048">
        <ele>105.1</ele>
        <time>2020-07-02T12:25:10Z</time>
      </trkpt>
      <trkpt lat="48.27345" lon="2.10045">
        <ele>105.3</ele>
        <time>2020-07-02T12:25:11Z</time>
      </trkpt>
      <trkpt lat="48.27339" lon="2.10043">
        <ele>105.5</ele>
        <time>2020-07-02T12:25:12Z</time>
      </trkpt>
      <trkpt lat="48.27333" lon="2.10041">
        <ele>105.7</ele>
        <time>2020-07-02T12:25:13Z</time>
      </trkpt>
      <trkpt lat="48.27328" lon="2.10038">
        <ele>105.9</ele>
        <time>2020-07-02T12:25:14Z</time>
      </trkpt>
      <trkpt lat="48.27323" lon="2.10035">
        <ele>106.1</ele>
        <time>2020-07-02T12:25:15Z</time>
      </trkpt>
      <trkpt lat="48.27318" lon="2.10032">
        <ele>106.3</ele>
        <time>2020-07-02T12:25:16Z</time>
      </trkpt>
      <trkpt lat="48.27312" lon="2.1003">
        <ele>106.5</ele>
        <time>2020-07-02T12:25:17Z</time>
      </trkpt>
      <trkpt lat="48.27307" lon="2.10028">
        <ele>106.8</ele>
        <time>2020-07-02T12:25:18Z</time>
      </trkpt>
      <trkpt lat="48.27303" lon="2.10026">
        <ele>106.9</ele>
        <time>2020-07-02T12:25:19Z</time>
      </trkpt>
      <trkpt lat="48.27299" lon="2.10023">
        <ele>107</ele>
        <time>2020-07-02T12:25:20Z</time>
      </trkpt>
      <trkpt lat="48.27294" lon="2.10021">
        <ele>107.1</ele>
        <time>2020-07-02T12:25:21Z</time>
      </trkpt>
      <trkpt lat="48.2729" lon="2.10019">
        <ele>107.2</ele>
        <time>2020-07-02T12:25:22Z</time>
      </trkpt>
      <trkpt lat="48.27286" lon="2.10019">
        <ele>107.3</ele>
        <time>2020-07-02T12:25:23Z</time>
      </trkpt>
      <trkpt lat="48.27282" lon="2.10018">
        <ele>107.4</ele>
        <time>2020-07-02T12:25:24Z</time>
      </trkpt>
      <trkpt lat="48.27278" lon="2.10017">
        <ele>107.5</ele>
        <time>2020-07-02T12:25:25Z</time>
      </trkpt>
      <trkpt lat="48.27274" lon="2.10015">
        <ele>107.8</ele>
        <time>2020-07-02T12:25:26Z</time>
      </trkpt>
      <trkpt lat="48.2727" lon="2.10013">
        <ele>108</ele>
        <time>2020-07-02T12:25:27Z</time>
      </trkpt>
      <trkpt lat="48.27266" lon="2.1001">
        <ele>108.2</ele>
        <time>2020-07-02T12:25:28Z</time>
      </trkpt>
      <trkpt lat="48.27262" lon="2.10008">
        <ele>108.5</ele>
        <time>2020-07-02T12:25:29Z</time>
      </trkpt>
      <trkpt lat="48.27257" lon="2.10007">
        <ele>108.7</ele>
        <time>2020-07-02T12:25:30Z</time>
      </trkpt>
      <trkpt lat="48.27253" lon="2.10005">
        <ele>109</ele>
        <time>2020-07-02T12:25:31Z</time>
      </trkpt>
      <trkpt lat="48.27249" lon="2.10002">
        <ele>109.2</ele>
        <time>2020-07-02T12:25:32Z</time>
      </trkpt>
      <trkpt lat="48.27244" lon="2.10001">
        <ele>109.5</ele>
        <time>2020-07-02T12:25:33Z</time>
      </trkpt>
      <trkpt lat="48.2724" lon="2.09998">
        <ele>109.7</ele>
        <time>2020-07-02T12:25:34Z</time>
      </trkpt>
      <trkpt lat="48.27236" lon="2.09996">
        <ele>109.9</ele>
        <time>2020-07-02T12:25:35Z</time>
      </trkpt>
      <trkpt lat="48.27232" lon="2.09995">
        <ele>110.2</ele>
        <time>2020-07-02T12:25:36Z</time>
      </trkpt>
      <trkpt lat="48.27227" lon="2.09991">
        <ele>110.4</ele>
        <time>2020-07-02T12:25:37Z</time>
      </trkpt>
      <trkpt lat="48.27223" lon="2.09989">
        <ele>110.6</ele>
        <time>2020-07-02T12:25:38Z</time>
      </trkpt>
      <trkpt lat="48.27219" lon="2.09987">
        <ele>110.9</ele>
        <time>2020-07-02T12:25:39Z</time>
      </trkpt>
      <trkpt lat="48.27215" lon="2.09986">
        <ele>111.1</ele>
        <time>2020-07-02T12:25:40Z</time>
      </trkpt>
      <trkpt lat="48.2721" lon="2.09984">
        <ele>111.3</ele>
        <time>2020-07-02T12:25:41Z</time>
      </trkpt>
      <trkpt lat="48.27206" lon="2.09982">
        <ele>111.5</ele>
        <time>2020-07-02T12:25:42Z</time>
      </trkpt>
      <trkpt lat="48.27202" lon="2.0998">
        <ele>111.8</ele>
        <time>2020-07-02T12:25:43Z</time>
      </trkpt>
      <trkpt lat="48.27198" lon="2.09976">
        <ele>112</ele>
        <time>2020-07-02T12:25:44Z</time>
      </trkpt>
      <trkpt lat="48.27193" lon="2.09975">
        <ele>112.2</ele>
        <time>2020-07-02T12:25:45Z</time>
      </trkpt>
      <trkpt lat="48.2719" lon="2.09975">
        <ele>112.4</ele>
        <time>2020-07-02T12:25:46Z</time>
      </trkpt>
      <trkpt lat="48.27186" lon="2.09973">
        <ele>112.6</ele>
        <time>2020-07-02T12:25:47Z</time>
      </trkpt>
      <trkpt lat="48.27182" lon="2.09971">
        <ele>112.8</ele>
        <time>2020-07-02T12:25:48Z</time>
      </trkpt>
      <trkpt lat="48.27179" lon="2.0997">
        <ele>113</ele>
        <time>2020-07-02T12:25:49Z</time>
      </trkpt>
      <trkpt lat="48.27174" lon="2.09968">
        <ele>113.3</ele>
        <time>2020-07-02T12:25:50Z</time>
      </trkpt>
      <trkpt lat="48.27171" lon="2.09967">
        <ele>113.4</ele>
        <time>2020-07-02T12:25:51Z</time>
      </trkpt>
      <trkpt lat="48.27167" lon="2.09966">
        <ele>113.4</ele>
        <time>2020-07-02T12:25:52Z</time>
      </trkpt>
      <trkpt lat="48.27163" lon="2.09964">
        <ele>113.4</ele>
        <time>2020-07-02T12:25:53Z</time>
      </trkpt>
      <trkpt lat="48.27158" lon="2.09963">
        <ele>113.5</ele>
        <time>2020-07-02T12:25:54Z</time>
      </trkpt>
      <trkpt lat="48.27154" lon="2.09961">
        <ele>113.5</ele>
        <time>2020-07-02T12:25:55Z</time>
      </trkpt>
      <trkpt lat="48.27152" lon="2.0996">
        <ele>113.7</ele>
        <time>2020-07-02T12:25:56Z</time>
      </trkpt>
      <trkpt lat="48.27147" lon="2.09956">
        <ele>113.9</ele>
        <time>2020-07-02T12:25:57Z</time>
      </trkpt>
      <trkpt lat="48.27143" lon="2.09955">
        <ele>114.1</ele>
        <time>2020-07-02T12:25:58Z</time>
      </trkpt>
      <trkpt lat="48.27139" lon="2.09953">
        <ele>114.3</ele>
        <time>2020-07-02T12:25:59Z</time>
      </trkpt>
      <trkpt lat="48.27136" lon="2.09952">
        <ele>114.4</ele>
        <time>2020-07-02T12:26:00Z</time>
      </trkpt>
      <trkpt lat="48.27132" lon="2.0995">
        <ele>114.5</ele>
        <time>2020-07-02T12:26:01Z</time>
      </trkpt>
      <trkpt lat="48.27128" lon="2.09949">
        <ele>114.7</ele>
        <time>2020-07-02T12:26:02Z</time>
      </trkpt>
      <trkpt lat="48.27124" lon="2.09947">
        <ele>114.8</ele>
        <time>2020-07-02T12:26:03Z</time>
      </trkpt>
      <trkpt lat="48.27121" lon="2.09946">
        <ele>115</ele>
        <time>2020-07-02T12:26:04Z</time>
      </trkpt>
      <trkpt lat="48.27116" lon="2.09945">
        <ele>115.1</ele>
        <time>2020-07-02T12:26:05Z</time>
      </trkpt>
      <trkpt lat="48.27112" lon="2.09943">
        <ele>115.3</ele>
        <time>2020-07-02T12:26:06Z</time>
      </trkpt>
      <trkpt lat="48.27109" lon="2.0994">
        <ele>115.5</ele>
        <time>2020-07-02T12:26:07Z</time>
      </trkpt>
      <trkpt lat="48.27104" lon="2.09939">
        <ele>115.6</ele>
        <time>2020-07-02T12:26:08Z</time>
      </trkpt>
      <trkpt lat="48.271" lon="2.09937">
        <ele>115.8</ele>
        <time>2020-07-02T12:26:09Z</time>
      </trkpt>
      <trkpt lat="48.27096" lon="2.09935">
        <ele>115.9</ele>
        <time>2020-07-02T12:26:10Z</time>
      </trkpt>
      <trkpt lat="48.27092" lon="2.09934">
        <ele>116.1</ele>
        <time>2020-07-02T12:26:11Z</time>
      </trkpt>
      <trkpt lat="48.27089" lon="2.09932">
        <ele>116.2</ele>
        <time>2020-07-02T12:26:12Z</time>
      </trkpt>
      <trkpt lat="48.27085" lon="2.0993">
        <ele>116.4</ele>
        <time>2020-07-02T12:26:13Z</time>
      </trkpt>
      <trkpt lat="48.2708" lon="2.09927">
        <ele>116.5</ele>
        <time>2020-07-02T12:26:14Z</time>
      </trkpt>
      <trkpt lat="48.27076" lon="2.09925">
        <ele>116.7</ele>
        <time>2020-07-02T12:26:15Z</time>
      </trkpt>
      <trkpt lat="48.27074" lon="2.09925">
        <ele>116.8</ele>
        <time>2020-07-02T12:26:16Z</time>
      </trkpt>
      <trkpt lat="48.27069" lon="2.09923">
        <ele>116.9</ele>
        <time>2020-07-02T12:26:17Z</time>
      </trkpt>
      <trkpt lat="48.27065" lon="2.09921">
        <ele>117</ele>
        <time>2020-07-02T12:26:18Z</time>
      </trkpt>
      <trkpt lat="48.2706" lon="2.09919">
        <ele>117.2</ele>
        <time>2020-07-02T12:26:19Z</time>
      </trkpt>
      <trkpt lat="48.27056" lon="2.09917">
        <ele>117.3</ele>
        <time>2020-07-02T12:26:20Z</time>
      </trkpt>
      <trkpt lat="48.27051" lon="2.09915">
        <ele>117.4</ele>
        <time>2020-07-02T12:26:21Z</time>
      </trkpt>
      <trkpt lat="48.27047" lon="2.09913">
        <ele>117.5</ele>
        <time>2020-07-02T12:26:22Z</time>
      </trkpt>
      <trkpt lat="48.27043" lon="2.09911">
        <ele>117.6</ele>
        <time>2020-07-02T12:26:23Z</time>
      </trkpt>
      <trkpt lat="48.27038" lon="2.09909">
        <ele>117.7</ele>
        <time>2020-07-02T12:26:24Z</time>
      </trkpt>
      <trkpt lat="48.27034" lon="2.09907">
        <ele>117.8</ele>
        <time>2020-07-02T12:26:25Z</time>
      </trkpt>
      <trkpt lat="48.27031" lon="2.09906">
        <ele>117.9</ele>
        <time>2020-07-02T12:26:26Z</time>
      </trkpt>
      <trkpt lat="48.27027" lon="2.09904">
        <ele>117.9</ele>
        <time>2020-07-02T12:26:27Z</time>
      </trkpt>
      <trkpt lat="48.27022" lon="2.09902">
        <ele>118.1</ele>
        <time>2020-07-02T12:26:28Z</time>
      </trkpt>
      <trkpt lat="48.27017" lon="2.09901">
        <ele>118.2</ele>
        <time>2020-07-02T12:26:29Z</time>
      </trkpt>
      <trkpt lat="48.27013" lon="2.09899">
        <ele>118.2</ele>
        <time>2020-07-02T12:26:30Z</time>
      </trkpt>
      <trkpt lat="48.27009" lon="2.09898">
        <ele>118.3</ele>
        <time>2020-07-02T12:26:31Z</time>
      </trkpt>
      <trkpt lat="48.27004" lon="2.09896">
        <ele>118.4</ele>
        <time>2020-07-02T12:26:32Z</time>
      </trkpt>
      <trkpt lat="48.27001" lon="2.09894">
        <ele>118.5</ele>
        <time>2020-07-02T12:26:33Z</time>
      </trkpt>
      <trkpt lat="48.26997" lon="2.09892">
        <ele>118.6</ele>
        <time>2020-07-02T12:26:34Z</time>
      </trkpt>
      <trkpt lat="48.26993" lon="2.0989">
        <ele>118.6</ele>
        <time>2020-07-02T12:26:35Z</time>
      </trkpt>
      <trkpt lat="48.26989" lon="2.09888">
        <ele>118.7</ele>
        <time>2020-07-02T12:26:36Z</time>
      </trkpt>
      <trkpt lat="48.26984" lon="2.09886">
        <ele>118.8</ele>
        <time>2020-07-02T12:26:37Z</time>
      </trkpt>
      <trkpt lat="48.2698" lon="2.09884">
        <ele>119</ele>
        <time>2020-07-02T12:26:38Z</time>
      </trkpt>
      <trkpt lat="48.26976" lon="2.0988">
        <ele>119.1</ele>
        <time>2020-07-02T12:26:39Z</time>
      </trkpt>
      <trkpt lat="48.26971" lon="2.09877">
        <ele>119.3</ele>
        <time>2020-07-02T12:26:40Z</time>
      </trkpt>
      <trkpt lat="48.26967" lon="2.09874">
        <ele>119.4</ele>
        <time>2020-07-02T12:26:41Z</time>
      </trkpt>
      <trkpt lat="48.26962" lon="2.09872">
        <ele>119.4</ele>
        <time>2020-07-02T12:26:42Z</time>
      </trkpt>
      <trkpt lat="48.26958" lon="2.09869">
        <ele>119.5</ele>
        <time>2020-07-02T12:26:43Z</time>
      </trkpt>
      <trkpt lat="48.26953" lon="2.09867">
        <ele>119.5</ele>
        <time>2020-07-02T12:26:44Z</time>
      </trkpt>
      <trkpt lat="48.26949" lon="2.09865">
        <ele>119.6</ele>
        <time>2020-07-02T12:26:45Z</time>
      </trkpt>
      <trkpt lat="48.26947" lon="2.09864">
        <ele>119.6</ele>
        <time>2020-07-02T12:26:46Z</time>
      </trkpt>
      <trkpt lat="48.26943" lon="2.09861">
        <ele>119.6</ele>
        <time>2020-07-02T12:26:47Z</time>
      </trkpt>
      <trkpt lat="48.26938" lon="2.09858">
        <ele>119.7</ele>
        <time>2020-07-02T12:26:48Z</time>
      </trkpt>
      <trkpt lat="48.26934" lon="2.09856">
        <ele>119.7</ele>
        <time>2020-07-02T12:26:49Z</time>
      </trkpt>
      <trkpt lat="48.26928" lon="2.09852">
        <ele>119.7</ele>
        <time>2020-07-02T12:26:50Z</time>
      </trkpt>
      <trkpt lat="48.26923" lon="2.0985">
        <ele>119.8</ele>
        <time>2020-07-02T12:26:51Z</time>
      </trkpt>
      <trkpt lat="48.26918" lon="2.09847">
        <ele>119.8</ele>
        <time>2020-07-02T12:26:52Z</time>
      </trkpt>
      <trkpt lat="48.26915" lon="2.09846">
        <ele>119.9</ele>
        <time>2020-07-02T12:26:53Z</time>
      </trkpt>
      <trkpt lat="48.26909" lon="2.09842">
        <ele>119.9</ele>
        <time>2020-07-02T12:26:54Z</time>
      </trkpt>
      <trkpt lat="48.26904" lon="2.09839">
        <ele>119.9</ele>
        <time>2020-07-02T12:26:55Z</time>
      </trkpt>
      <trkpt lat="48.26899" lon="2.09837">
        <ele>119.9</ele>
        <time>2020-07-02T12:26:56Z</time>
      </trkpt>
      <trkpt lat="48.26893" lon="2.09834">
        <ele>119.9</ele>
        <time>2020-07-02T12:26:57Z</time>
      </trkpt>
      <trkpt lat="48.26889" lon="2.09831">
        <ele>119.9</ele>
        <time>2020-07-02T12:26:58Z</time>
      </trkpt>
      <trkpt lat="48.26884" lon="2.09828">
        <ele>119.9</ele>
        <time>2020-07-02T12:26:59Z</time>
      </trkpt>
      <trkpt lat="48.26879" lon="2.09827">
        <ele>119.9</ele>
        <time>2020-07-02T12:27:00Z</time>
      </trkpt>
      <trkpt lat="48.26874" lon="2.09824">
        <ele>119.9</ele>
        <time>2020-07-02T12:27:01Z</time>
      </trkpt>
      <trkpt lat="48.26869" lon="2.09821">
        <ele>120</ele>
        <time>2020-07-02T12:27:02Z</time>
      </trkpt>
      <trkpt lat="48.26864" lon="2.09818">
        <ele>120</ele>
        <time>2020-07-02T12:27:03Z</time>
      </trkpt>
      <trkpt lat="48.2686" lon="2.09815">
        <ele>119.9</ele>
        <time>2020-07-02T12:27:04Z</time>
      </trkpt>
      <trkpt lat="48.26854" lon="2.0981">
        <ele>119.8</ele>
        <time>2020-07-02T12:27:05Z</time>
      </trkpt>
      <trkpt lat="48.2685" lon="2.09808">
        <ele>119.8</ele>
        <time>2020-07-02T12:27:06Z</time>
      </trkpt>
      <trkpt lat="48.26845" lon="2.09805">
        <ele>119.8</ele>
        <time>2020-07-02T12:27:07Z</time>
      </trkpt>
      <trkpt lat="48.26839" lon="2.09802">
        <ele>119.7</ele>
        <time>2020-07-02T12:27:08Z</time>
      </trkpt>
      <trkpt lat="48.26834" lon="2.098">
        <ele>119.7</ele>
        <time>2020-07-02T12:27:09Z</time>
      </trkpt>
      <trkpt lat="48.2683" lon="2.09799">
        <ele>119.7</ele>
        <time>2020-07-02T12:27:10Z</time>
      </trkpt>
      <trkpt lat="48.26825" lon="2.09796">
        <ele>119.7</ele>
        <time>2020-07-02T12:27:11Z</time>
      </trkpt>
      <trkpt lat="48.26821" lon="2.09795">
        <ele>119.6</ele>
        <time>2020-07-02T12:27:12Z</time>
      </trkpt>
      <trkpt lat="48.26817" lon="2.09793">
        <ele>119.6</ele>
        <time>2020-07-02T12:27:13Z</time>
      </trkpt>
      <trkpt lat="48.26812" lon="2.09791">
        <ele>119.6</ele>
        <time>2020-07-02T12:27:14Z</time>
      </trkpt>
      <trkpt lat="48.26807" lon="2.09788">
        <ele>119.6</ele>
        <time>2020-07-02T12:27:15Z</time>
      </trkpt>
      <trkpt lat="48.26803" lon="2.09785">
        <ele>119.6</ele>
        <time>2020-07-02T12:27:16Z</time>
      </trkpt>
      <trkpt lat="48.26798" lon="2.09783">
        <ele>119.5</ele>
        <time>2020-07-02T12:27:17Z</time>
      </trkpt>
      <trkpt lat="48.26793" lon="2.09781">
        <ele>119.5</ele>
        <time>2020-07-02T12:27:18Z</time>
      </trkpt>
      <trkpt lat="48.26787" lon="2.09777">
        <ele>119.4</ele>
        <time>2020-07-02T12:27:19Z</time>
      </trkpt>
      <trkpt lat="48.26783" lon="2.09777">
        <ele>119.4</ele>
        <time>2020-07-02T12:27:20Z</time>
      </trkpt>
      <trkpt lat="48.26778" lon="2.09774">
        <ele>119.4</ele>
        <time>2020-07-02T12:27:21Z</time>
      </trkpt>
      <trkpt lat="48.26772" lon="2.09771">
        <ele>119.4</ele>
        <time>2020-07-02T12:27:22Z</time>
      </trkpt>
      <trkpt lat="48.26767" lon="2.09768">
        <ele>119.4</ele>
        <time>2020-07-02T12:27:23Z</time>
      </trkpt>
      <trkpt lat="48.26762" lon="2.09765">
        <ele>119.4</ele>
        <time>2020-07-02T12:27:24Z</time>
      </trkpt>
      <trkpt lat="48.26757" lon="2.09762">
        <ele>119.4</ele>
        <time>2020-07-02T12:27:25Z</time>
      </trkpt>
      <trkpt lat="48.26753" lon="2.0976">
        <ele>119.4</ele>
        <time>2020-07-02T12:27:26Z</time>
      </trkpt>
      <trkpt lat="48.26748" lon="2.09758">
        <ele>119.3</ele>
        <time>2020-07-02T12:27:27Z</time>
      </trkpt>
      <trkpt lat="48.26743" lon="2.09756">
        <ele>119.3</ele>
        <time>2020-07-02T12:27:28Z</time>
      </trkpt>
      <trkpt lat="48.26737" lon="2.09753">
        <ele>119.3</ele>
        <time>2020-07-02T12:27:29Z</time>
      </trkpt>
      <trkpt lat="48.26731" lon="2.09748">
        <ele>119.2</ele>
        <time>2020-07-02T12:27:30Z</time>
      </trkpt>
      <trkpt lat="48.26725" lon="2.09746">
        <ele>119.2</ele>
        <time>2020-07-02T12:27:31Z</time>
      </trkpt>
      <trkpt lat="48.2672" lon="2.09743">
        <ele>119.2</ele>
        <time>2020-07-02T12:27:32Z</time>
      </trkpt>
      <trkpt lat="48.26715" lon="2.0974">
        <ele>119.1</ele>
        <time>2020-07-02T12:27:33Z</time>
      </trkpt>
      <trkpt lat="48.2671" lon="2.09738">
        <ele>119.1</ele>
        <time>2020-07-02T12:27:34Z</time>
      </trkpt>
      <trkpt lat="48.26704" lon="2.09734">
        <ele>119.1</ele>
        <time>2020-07-02T12:27:35Z</time>
      </trkpt>
      <trkpt lat="48.26701" lon="2.09731">
        <ele>119.1</ele>
        <time>2020-07-02T12:27:36Z</time>
      </trkpt>
      <trkpt lat="48.26695" lon="2.09728">
        <ele>119</ele>
        <time>2020-07-02T12:27:37Z</time>
      </trkpt>
      <trkpt lat="48.2669" lon="2.09726">
        <ele>119</ele>
        <time>2020-07-02T12:27:38Z</time>
      </trkpt>
      <trkpt lat="48.26685" lon="2.09722">
        <ele>119</ele>
        <time>2020-07-02T12:27:39Z</time>
      </trkpt>
      <trkpt lat="48.26679" lon="2.0972">
        <ele>119</ele>
        <time>2020-07-02T12:27:40Z</time>
      </trkpt>
      <trkpt lat="48.26675" lon="2.09717">
        <ele>119</ele>
        <time>2020-07-02T12:27:41Z</time>
      </trkpt>
      <trkpt lat="48.26669" lon="2.09713">
        <ele>118.9</ele>
        <time>2020-07-02T12:27:42Z</time>
      </trkpt>
      <trkpt lat="48.26663" lon="2.0971">
        <ele>118.9</ele>
        <time>2020-07-02T12:27:43Z</time>
      </trkpt>
      <trkpt lat="48.26658" lon="2.09708">
        <ele>118.8</ele>
        <time>2020-07-02T12:27:44Z</time>
      </trkpt>
      <trkpt lat="48.26654" lon="2.09705">
        <ele>118.8</ele>
        <time>2020-07-02T12:27:45Z</time>
      </trkpt>
      <trkpt lat="48.26649" lon="2.09703">
        <ele>118.8</ele>
        <time>2020-07-02T12:27:46Z</time>
      </trkpt>
      <trkpt lat="48.26642" lon="2.09699">
        <ele>118.8</ele>
        <time>2020-07-02T12:27:47Z</time>
      </trkpt>
      <trkpt lat="48.26636" lon="2.09694">
        <ele>118.8</ele>
        <time>2020-07-02T12:27:48Z</time>
      </trkpt>
      <trkpt lat="48.26631" lon="2.09691">
        <ele>118.8</ele>
        <time>2020-07-02T12:27:49Z</time>
      </trkpt>
      <trkpt lat="48.26625" lon="2.09687">
        <ele>118.7</ele>
        <time>2020-07-02T12:27:50Z</time>
      </trkpt>
      <trkpt lat="48.2662" lon="2.09683">
        <ele>118.7</ele>
        <time>2020-07-02T12:27:51Z</time>
      </trkpt>
      <trkpt lat="48.26614" lon="2.0968">
        <ele>118.7</ele>
        <time>2020-07-02T12:27:52Z</time>
      </trkpt>
      <trkpt lat="48.26609" lon="2.09677">
        <ele>118.7</ele>
        <time>2020-07-02T12:27:53Z</time>
      </trkpt>
      <trkpt lat="48.26603" lon="2.09674">
        <ele>118.7</ele>
        <time>2020-07-02T12:27:54Z</time>
      </trkpt>
      <trkpt lat="48.26597" lon="2.09671">
        <ele>118.6</ele>
        <time>2020-07-02T12:27:55Z</time>
      </trkpt>
      <trkpt lat="48.26592" lon="2.09669">
        <ele>118.6</ele>
        <time>2020-07-02T12:27:56Z</time>
      </trkpt>
      <trkpt lat="48.26586" lon="2.09665">
        <ele>118.6</ele>
        <time>2020-07-02T12:27:57Z</time>
      </trkpt>
      <trkpt lat="48.2658" lon="2.09663">
        <ele>118.6</ele>
        <time>2020-07-02T12:27:58Z</time>
      </trkpt>
      <trkpt lat="48.26575" lon="2.0966">
        <ele>118.7</ele>
        <time>2020-07-02T12:27:59Z</time>
      </trkpt>
      <trkpt lat="48.2657" lon="2.09658">
        <ele>118.7</ele>
        <time>2020-07-02T12:28:00Z</time>
      </trkpt>
      <trkpt lat="48.26565" lon="2.09654">
        <ele>118.7</ele>
        <time>2020-07-02T12:28:01Z</time>
      </trkpt>
      <trkpt lat="48.26559" lon="2.09651">
        <ele>118.7</ele>
        <time>2020-07-02T12:28:02Z</time>
      </trkpt>
      <trkpt lat="48.26553" lon="2.09648">
        <ele>118.8</ele>
        <time>2020-07-02T12:28:03Z</time>
      </trkpt>
      <trkpt lat="48.26546" lon="2.09644">
        <ele>118.8</ele>
        <time>2020-07-02T12:28:04Z</time>
      </trkpt>
      <trkpt lat="48.2654" lon="2.09641">
        <ele>118.8</ele>
        <time>2020-07-02T12:28:05Z</time>
      </trkpt>
      <trkpt lat="48.26534" lon="2.09638">
        <ele>118.8</ele>
        <time>2020-07-02T12:28:06Z</time>
      </trkpt>
      <trkpt lat="48.2653" lon="2.09636">
        <ele>118.8</ele>
        <time>2020-07-02T12:28:07Z</time>
      </trkpt>
      <trkpt lat="48.26524" lon="2.09633">
        <ele>118.8</ele>
        <time>2020-07-02T12:28:08Z</time>
      </trkpt>
      <trkpt lat="48.2652" lon="2.09631">
        <ele>118.8</ele>
        <time>2020-07-02T12:28:09Z</time>
      </trkpt>
      <trkpt lat="48.26514" lon="2.09629">
        <ele>118.8</ele>
        <time>2020-07-02T12:28:10Z</time>
      </trkpt>
      <trkpt lat="48.26508" lon="2.09626">
        <ele>118.8</ele>
        <time>2020-07-02T12:28:11Z</time>
      </trkpt>
      <trkpt lat="48.26502" lon="2.09623">
        <ele>118.9</ele>
        <time>2020-07-02T12:28:12Z</time>
      </trkpt>
      <trkpt lat="48.26496" lon="2.0962">
        <ele>118.9</ele>
        <time>2020-07-02T12:28:13Z</time>
      </trkpt>
      <trkpt lat="48.26492" lon="2.09618">
        <ele>118.9</ele>
        <time>2020-07-02T12:28:14Z</time>
      </trkpt>
      <trkpt lat="48.26487" lon="2.09615">
        <ele>118.9</ele>
        <time>2020-07-02T12:28:15Z</time>
      </trkpt>
      <trkpt lat="48.26483" lon="2.09611">
        <ele>119</ele>
        <time>2020-07-02T12:28:16Z</time>
      </trkpt>
      <trkpt lat="48.26478" lon="2.09609">
        <ele>119</ele>
        <time>2020-07-02T12:28:17Z</time>
      </trkpt>
      <trkpt lat="48.26472" lon="2.09606">
        <ele>119.1</ele>
        <time>2020-07-02T12:28:18Z</time>
      </trkpt>
      <trkpt lat="48.26468" lon="2.09604">
        <ele>119.1</ele>
        <time>2020-07-02T12:28:19Z</time>
      </trkpt>
      <trkpt lat="48.26463" lon="2.09602">
        <ele>119.2</ele>
        <time>2020-07-02T12:28:20Z</time>
      </trkpt>
      <trkpt lat="48.26458" lon="2.09599">
        <ele>119.2</ele>
        <time>2020-07-02T12:28:21Z</time>
      </trkpt>
      <trkpt lat="48.26452" lon="2.09596">
        <ele>119.3</ele>
        <time>2020-07-02T12:28:22Z</time>
      </trkpt>
      <trkpt lat="48.26447" lon="2.09593">
        <ele>119.4</ele>
        <time>2020-07-02T12:28:23Z</time>
      </trkpt>
      <trkpt lat="48.26441" lon="2.09589">
        <ele>119.4</ele>
        <time>2020-07-02T12:28:24Z</time>
      </trkpt>
      <trkpt lat="48.26437" lon="2.09587">
        <ele>119.4</ele>
        <time>2020-07-02T12:28:25Z</time>
      </trkpt>
      <trkpt lat="48.26432" lon="2.09584">
        <ele>119.5</ele>
        <time>2020-07-02T12:28:26Z</time>
      </trkpt>
      <trkpt lat="48.26427" lon="2.09582">
        <ele>119.5</ele>
        <time>2020-07-02T12:28:27Z</time>
      </trkpt>
      <trkpt lat="48.26422" lon="2.0958">
        <ele>119.6</ele>
        <time>2020-07-02T12:28:28Z</time>
      </trkpt>
      <trkpt lat="48.26416" lon="2.09578">
        <ele>119.7</ele>
        <time>2020-07-02T12:28:29Z</time>
      </trkpt>
      <trkpt lat="48.26411" lon="2.09575">
        <ele>119.7</ele>
        <time>2020-07-02T12:28:30Z</time>
      </trkpt>
      <trkpt lat="48.26406" lon="2.09572">
        <ele>119.8</ele>
        <time>2020-07-02T12:28:31Z</time>
      </trkpt>
      <trkpt lat="48.26402" lon="2.0957">
        <ele>119.9</ele>
        <time>2020-07-02T12:28:32Z</time>
      </trkpt>
      <trkpt lat="48.26397" lon="2.09567">
        <ele>120</ele>
        <time>2020-07-02T12:28:33Z</time>
      </trkpt>
      <trkpt lat="48.26391" lon="2.09564">
        <ele>120</ele>
        <time>2020-07-02T12:28:34Z</time>
      </trkpt>
      <trkpt lat="48.26385" lon="2.09561">
        <ele>120.1</ele>
        <time>2020-07-02T12:28:35Z</time>
      </trkpt>
      <trkpt lat="48.2638" lon="2.09558">
        <ele>120.2</ele>
        <time>2020-07-02T12:28:36Z</time>
      </trkpt>
      <trkpt lat="48.26374" lon="2.09555">
        <ele>120.3</ele>
        <time>2020-07-02T12:28:37Z</time>
      </trkpt>
      <trkpt lat="48.26369" lon="2.09552">
        <ele>120.4</ele>
        <time>2020-07-02T12:28:38Z</time>
      </trkpt>
      <trkpt lat="48.26365" lon="2.0955">
        <ele>120.4</ele>
        <time>2020-07-02T12:28:39Z</time>
      </trkpt>
      <trkpt lat="48.2636" lon="2.09546">
        <ele>120.5</ele>
        <time>2020-07-02T12:28:40Z</time>
      </trkpt>
      <trkpt lat="48.26354" lon="2.09543">
        <ele>120.6</ele>
        <time>2020-07-02T12:28:41Z</time>
      </trkpt>
      <trkpt lat="48.2635" lon="2.0954">
        <ele>120.7</ele>
        <time>2020-07-02T12:28:42Z</time>
      </trkpt>
      <trkpt lat="48.26345" lon="2.09537">
        <ele>120.8</ele>
        <time>2020-07-02T12:28:43Z</time>
      </trkpt>
      <trkpt lat="48.26341" lon="2.09535">
        <ele>120.9</ele>
        <time>2020-07-02T12:28:44Z</time>
      </trkpt>
      <trkpt lat="48.26336" lon="2.09532">
        <ele>121</ele>
        <time>2020-07-02T12:28:45Z</time>
      </trkpt>
      <trkpt lat="48.2633" lon="2.09529">
        <ele>121</ele>
        <time>2020-07-02T12:28:46Z</time>
      </trkpt>
      <trkpt lat="48.26326" lon="2.09528">
        <ele>121.1</ele>
        <time>2020-07-02T12:28:47Z</time>
      </trkpt>
      <trkpt lat="48.26321" lon="2.09525">
        <ele>121.2</ele>
        <time>2020-07-02T12:28:48Z</time>
      </trkpt>
      <trkpt lat="48.26316" lon="2.09521">
        <ele>121.4</ele>
        <time>2020-07-02T12:28:49Z</time>
      </trkpt>
      <trkpt lat="48.26311" lon="2.09518">
        <ele>121.5</ele>
        <time>2020-07-02T12:28:50Z</time>
      </trkpt>
      <trkpt lat="48.26307" lon="2.09516">
        <ele>121.6</ele>
        <time>2020-07-02T12:28:51Z</time>
      </trkpt>
      <trkpt lat="48.26302" lon="2.09513">
        <ele>121.6</ele>
        <time>2020-07-02T12:28:52Z</time>
      </trkpt>
      <trkpt lat="48.26297" lon="2.0951">
        <ele>121.6</ele>
        <time>2020-07-02T12:28:53Z</time>
      </trkpt>
      <trkpt lat="48.26292" lon="2.09508">
        <ele>121.5</ele>
        <time>2020-07-02T12:28:54Z</time>
      </trkpt>
      <trkpt lat="48.26288" lon="2.09505">
        <ele>121.4</ele>
        <time>2020-07-02T12:28:55Z</time>
      </trkpt>
      <trkpt lat="48.26283" lon="2.09503">
        <ele>121.4</ele>
        <time>2020-07-02T12:28:56Z</time>
      </trkpt>
      <trkpt lat="48.26278" lon="2.095">
        <ele>121.4</ele>
        <time>2020-07-02T12:28:57Z</time>
      </trkpt>
      <trkpt lat="48.26273" lon="2.09496">
        <ele>121.4</ele>
        <time>2020-07-02T12:28:58Z</time>
      </trkpt>
      <trkpt lat="48.26268" lon="2.09493">
        <ele>121.5</ele>
        <time>2020-07-02T12:28:59Z</time>
      </trkpt>
      <trkpt lat="48.26264" lon="2.0949">
        <ele>121.6</ele>
        <time>2020-07-02T12:29:00Z</time>
      </trkpt>
      <trkpt lat="48.26259" lon="2.09486">
        <ele>121.7</ele>
        <time>2020-07-02T12:29:01Z</time>
      </trkpt>
      <trkpt lat="48.26254" lon="2.09483">
        <ele>121.7</ele>
        <time>2020-07-02T12:29:02Z</time>
      </trkpt>
      <trkpt lat="48.2625" lon="2.0948">
        <ele>121.8</ele>
        <time>2020-07-02T12:29:03Z</time>
      </trkpt>
      <trkpt lat="48.26245" lon="2.09477">
        <ele>121.9</ele>
        <time>2020-07-02T12:29:04Z</time>
      </trkpt>
      <trkpt lat="48.26241" lon="2.09473">
        <ele>122</ele>
        <time>2020-07-02T12:29:05Z</time>
      </trkpt>
      <trkpt lat="48.26236" lon="2.0947">
        <ele>122.1</ele>
        <time>2020-07-02T12:29:06Z</time>
      </trkpt>
      <trkpt lat="48.26232" lon="2.09466">
        <ele>122.2</ele>
        <time>2020-07-02T12:29:07Z</time>
      </trkpt>
      <trkpt lat="48.26227" lon="2.09463">
        <ele>122.3</ele>
        <time>2020-07-02T12:29:08Z</time>
      </trkpt>
      <trkpt lat="48.26223" lon="2.0946">
        <ele>122.3</ele>
        <time>2020-07-02T12:29:09Z</time>
      </trkpt>
      <trkpt lat="48.26218" lon="2.09457">
        <ele>122.5</ele>
        <time>2020-07-02T12:29:10Z</time>
      </trkpt>
      <trkpt lat="48.26213" lon="2.09454">
        <ele>122.6</ele>
        <time>2020-07-02T12:29:11Z</time>
      </trkpt>
      <trkpt lat="48.26209" lon="2.09451">
        <ele>122.7</ele>
        <time>2020-07-02T12:29:12Z</time>
      </trkpt>
      <trkpt lat="48.26205" lon="2.09448">
        <ele>122.8</ele>
        <time>2020-07-02T12:29:13Z</time>
      </trkpt>
      <trkpt lat="48.26202" lon="2.09446">
        <ele>122.9</ele>
        <time>2020-07-02T12:29:14Z</time>
      </trkpt>
      <trkpt lat="48.26198" lon="2.09444">
        <ele>123</ele>
        <time>2020-07-02T12:29:15Z</time>
      </trkpt>
      <trkpt lat="48.26195" lon="2.09442">
        <ele>123.1</ele>
        <time>2020-07-02T12:29:16Z</time>
      </trkpt>
      <trkpt lat="48.26191" lon="2.09438">
        <ele>123.2</ele>
        <time>2020-07-02T12:29:17Z</time>
      </trkpt>
      <trkpt lat="48.26186" lon="2.09435">
        <ele>123.3</ele>
        <time>2020-07-02T12:29:18Z</time>
      </trkpt>
      <trkpt lat="48.26181" lon="2.09432">
        <ele>123.4</ele>
        <time>2020-07-02T12:29:19Z</time>
      </trkpt>
      <trkpt lat="48.26177" lon="2.0943">
        <ele>123.4</ele>
        <time>2020-07-02T12:29:20Z</time>
      </trkpt>
      <trkpt lat="48.26172" lon="2.09427">
        <ele>123.5</ele>
        <time>2020-07-02T12:29:21Z</time>
      </trkpt>
      <trkpt lat="48.26168" lon="2.09424">
        <ele>123.6</ele>
        <time>2020-07-02T12:29:22Z</time>
      </trkpt>
      <trkpt lat="48.26164" lon="2.09421">
        <ele>123.7</ele>
        <time>2020-07-02T12:29:23Z</time>
      </trkpt>
      <trkpt lat="48.2616" lon="2.09418">
        <ele>123.7</ele>
        <time>2020-07-02T12:29:24Z</time>
      </trkpt>
      <trkpt lat="48.26155" lon="2.09415">
        <ele>123.8</ele>
        <time>2020-07-02T12:29:25Z</time>
      </trkpt>
      <trkpt lat="48.26151" lon="2.09412">
        <ele>123.9</ele>
        <time>2020-07-02T12:29:26Z</time>
      </trkpt>
      <trkpt lat="48.26148" lon="2.09409">
        <ele>123.9</ele>
        <time>2020-07-02T12:29:27Z</time>
      </trkpt>
      <trkpt lat="48.26143" lon="2.09406">
        <ele>124</ele>
        <time>2020-07-02T12:29:28Z</time>
      </trkpt>
      <trkpt lat="48.26139" lon="2.09403">
        <ele>124.1</ele>
        <time>2020-07-02T12:29:29Z</time>
      </trkpt>
      <trkpt lat="48.26134" lon="2.09399">
        <ele>124.1</ele>
        <time>2020-07-02T12:29:30Z</time>
      </trkpt>
      <trkpt lat="48.2613" lon="2.09396">
        <ele>124.2</ele>
        <time>2020-07-02T12:29:31Z</time>
      </trkpt>
      <trkpt lat="48.26127" lon="2.09395">
        <ele>124.2</ele>
        <time>2020-07-02T12:29:32Z</time>
      </trkpt>
      <trkpt lat="48.26122" lon="2.09392">
        <ele>124.2</ele>
        <time>2020-07-02T12:29:33Z</time>
      </trkpt>
      <trkpt lat="48.26118" lon="2.0939">
        <ele>124.3</ele>
        <time>2020-07-02T12:29:34Z</time>
      </trkpt>
      <trkpt lat="48.26112" lon="2.09386">
        <ele>124.3</ele>
        <time>2020-07-02T12:29:35Z</time>
      </trkpt>
      <trkpt lat="48.26107" lon="2.09383">
        <ele>124.4</ele>
        <time>2020-07-02T12:29:36Z</time>
      </trkpt>
      <trkpt lat="48.26101" lon="2.09382">
        <ele>124.4</ele>
        <time>2020-07-02T12:29:37Z</time>
      </trkpt>
      <trkpt lat="48.26096" lon="2.09379">
        <ele>124.5</ele>
        <time>2020-07-02T12:29:38Z</time>
      </trkpt>
      <trkpt lat="48.26091" lon="2.09375">
        <ele>124.6</ele>
        <time>2020-07-02T12:29:39Z</time>
      </trkpt>
      <trkpt lat="48.26085" lon="2.0937">
        <ele>124.6</ele>
        <time>2020-07-02T12:29:40Z</time>
      </trkpt>
      <trkpt lat="48.26079" lon="2.09366">
        <ele>124.7</ele>
        <time>2020-07-02T12:29:41Z</time>
      </trkpt>
      <trkpt lat="48.26075" lon="2.09363">
        <ele>124.7</ele>
        <time>2020-07-02T12:29:42Z</time>
      </trkpt>
      <trkpt lat="48.2607" lon="2.09359">
        <ele>124.8</ele>
        <time>2020-07-02T12:29:43Z</time>
      </trkpt>
      <trkpt lat="48.26065" lon="2.09358">
        <ele>124.8</ele>
        <time>2020-07-02T12:29:44Z</time>
      </trkpt>
      <trkpt lat="48.2606" lon="2.09354">
        <ele>124.8</ele>
        <time>2020-07-02T12:29:45Z</time>
      </trkpt>
      <trkpt lat="48.26055" lon="2.09351">
        <ele>124.8</ele>
        <time>2020-07-02T12:29:46Z</time>
      </trkpt>
      <trkpt lat="48.2605" lon="2.09347">
        <ele>124.9</ele>
        <time>2020-07-02T12:29:47Z</time>
      </trkpt>
      <trkpt lat="48.26045" lon="2.09344">
        <ele>124.9</ele>
        <time>2020-07-02T12:29:48Z</time>
      </trkpt>
      <trkpt lat="48.2604" lon="2.0934">
        <ele>124.9</ele>
        <time>2020-07-02T12:29:49Z</time>
      </trkpt>
      <trkpt lat="48.26036" lon="2.09338">
        <ele>124.9</ele>
        <time>2020-07-02T12:29:50Z</time>
      </trkpt>
      <trkpt lat="48.26031" lon="2.09333">
        <ele>124.9</ele>
        <time>2020-07-02T12:29:51Z</time>
      </trkpt>
      <trkpt lat="48.26025" lon="2.09329">
        <ele>124.9</ele>
        <time>2020-07-02T12:29:52Z</time>
      </trkpt>
      <trkpt lat="48.2602" lon="2.09325">
        <ele>124.9</ele>
        <time>2020-07-02T12:29:53Z</time>
      </trkpt>
      <trkpt lat="48.26015" lon="2.09323">
        <ele>124.9</ele>
        <time>2020-07-02T12:29:54Z</time>
      </trkpt>
      <trkpt lat="48.26011" lon="2.0932">
        <ele>124.9</ele>
        <time>2020-07-02T12:29:55Z</time>
      </trkpt>
      <trkpt lat="48.26006" lon="2.09317">
        <ele>124.9</ele>
        <time>2020-07-02T12:29:56Z</time>
      </trkpt>
      <trkpt lat="48.26" lon="2.09314">
        <ele>124.9</ele>
        <time>2020-07-02T12:29:57Z</time>
      </trkpt>
      <trkpt lat="48.25995" lon="2.0931">
        <ele>124.9</ele>
        <time>2020-07-02T12:29:58Z</time>
      </trkpt>
      <trkpt lat="48.2599" lon="2.09308">
        <ele>125</ele>
        <time>2020-07-02T12:29:59Z</time>
      </trkpt>
      <trkpt lat="48.25985" lon="2.09305">
        <ele>125</ele>
        <time>2020-07-02T12:30:00Z</time>
      </trkpt>
      <trkpt lat="48.2598" lon="2.09301">
        <ele>125</ele>
        <time>2020-07-02T12:30:01Z</time>
      </trkpt>
      <trkpt lat="48.25975" lon="2.09297">
        <ele>125</ele>
        <time>2020-07-02T12:30:02Z</time>
      </trkpt>
      <trkpt lat="48.2597" lon="2.09293">
        <ele>125.1</ele>
        <time>2020-07-02T12:30:03Z</time>
      </trkpt>
      <trkpt lat="48.25965" lon="2.0929">
        <ele>125.2</ele>
        <time>2020-07-02T12:30:04Z</time>
      </trkpt>
      <trkpt lat="48.2596" lon="2.09288">
        <ele>125.2</ele>
        <time>2020-07-02T12:30:05Z</time>
      </trkpt>
      <trkpt lat="48.25956" lon="2.09285">
        <ele>125.3</ele>
        <time>2020-07-02T12:30:06Z</time>
      </trkpt>
      <trkpt lat="48.25952" lon="2.09281">
        <ele>125.4</ele>
        <time>2020-07-02T12:30:07Z</time>
      </trkpt>
      <trkpt lat="48.25947" lon="2.09278">
        <ele>125.4</ele>
        <time>2020-07-02T12:30:08Z</time>
      </trkpt>
      <trkpt lat="48.25941" lon="2.09274">
        <ele>125.3</ele>
        <time>2020-07-02T12:30:09Z</time>
      </trkpt>
      <trkpt lat="48.25936" lon="2.0927">
        <ele>125.2</ele>
        <time>2020-07-02T12:30:10Z</time>
      </trkpt>
      <trkpt lat="48.2593" lon="2.09266">
        <ele>125.2</ele>
        <time>2020-07-02T12:30:11Z</time>
      </trkpt>
      <trkpt lat="48.25925" lon="2.09263">
        <ele>125.2</ele>
        <time>2020-07-02T12:30:12Z</time>
      </trkpt>
      <trkpt lat="48.2592" lon="2.0926">
        <ele>125.1</ele>
        <time>2020-07-02T12:30:13Z</time>
      </trkpt>
      <trkpt lat="48.25917" lon="2.09257">
        <ele>125.1</ele>
        <time>2020-07-02T12:30:14Z</time>
      </trkpt>
      <trkpt lat="48.25913" lon="2.09255">
        <ele>125.1</ele>
        <time>2020-07-02T12:30:15Z</time>
      </trkpt>
      <trkpt lat="48.25909" lon="2.09252">
        <ele>125</ele>
        <time>2020-07-02T12:30:16Z</time>
      </trkpt>
      <trkpt lat="48.25904" lon="2.09249">
        <ele>125</ele>
        <time>2020-07-02T12:30:17Z</time>
      </trkpt>
      <trkpt lat="48.259" lon="2.09246">
        <ele>125</ele>
        <time>2020-07-02T12:30:18Z</time>
      </trkpt>
      <trkpt lat="48.25896" lon="2.09244">
        <ele>125</ele>
        <time>2020-07-02T12:30:19Z</time>
      </trkpt>
      <trkpt lat="48.25892" lon="2.0924">
        <ele>125.1</ele>
        <time>2020-07-02T12:30:20Z</time>
      </trkpt>
      <trkpt lat="48.25888" lon="2.09236">
        <ele>125.1</ele>
        <time>2020-07-02T12:30:21Z</time>
      </trkpt>
      <trkpt lat="48.25883" lon="2.09233">
        <ele>125.1</ele>
        <time>2020-07-02T12:30:22Z</time>
      </trkpt>
      <trkpt lat="48.25878" lon="2.09229">
        <ele>125.2</ele>
        <time>2020-07-02T12:30:23Z</time>
      </trkpt>
      <trkpt lat="48.25873" lon="2.09226">
        <ele>125.3</ele>
        <time>2020-07-02T12:30:24Z</time>
      </trkpt>
      <trkpt lat="48.25868" lon="2.09223">
        <ele>125.4</ele>
        <time>2020-07-02T12:30:25Z</time>
      </trkpt>
      <trkpt lat="48.25863" lon="2.09219">
        <ele>125.2</ele>
        <time>2020-07-02T12:30:26Z</time>
      </trkpt>
      <trkpt lat="48.25858" lon="2.09215">
        <ele>125</ele>
        <time>2020-07-02T12:30:27Z</time>
      </trkpt>
      <trkpt lat="48.25853" lon="2.09211">
        <ele>125</ele>
        <time>2020-07-02T12:30:28Z</time>
      </trkpt>
      <trkpt lat="48.25848" lon="2.09208">
        <ele>124.9</ele>
        <time>2020-07-02T12:30:29Z</time>
      </trkpt>
      <trkpt lat="48.25842" lon="2.09205">
        <ele>124.9</ele>
        <time>2020-07-02T12:30:30Z</time>
      </trkpt>
      <trkpt lat="48.25836" lon="2.09202">
        <ele>124.9</ele>
        <time>2020-07-02T12:30:31Z</time>
      </trkpt>
      <trkpt lat="48.25832" lon="2.09199">
        <ele>124.9</ele>
        <time>2020-07-02T12:30:32Z</time>
      </trkpt>
      <trkpt lat="48.25828" lon="2.09197">
        <ele>124.9</ele>
        <time>2020-07-02T12:30:33Z</time>
      </trkpt>
      <trkpt lat="48.25823" lon="2.09193">
        <ele>124.9</ele>
        <time>2020-07-02T12:30:34Z</time>
      </trkpt>
      <trkpt lat="48.25819" lon="2.09189">
        <ele>124.9</ele>
        <time>2020-07-02T12:30:35Z</time>
      </trkpt>
      <trkpt lat="48.25815" lon="2.09185">
        <ele>125</ele>
        <time>2020-07-02T12:30:36Z</time>
      </trkpt>
      <trkpt lat="48.2581" lon="2.0918">
        <ele>125</ele>
        <time>2020-07-02T12:30:37Z</time>
      </trkpt>
      <trkpt lat="48.25805" lon="2.09176">
        <ele>125</ele>
        <time>2020-07-02T12:30:38Z</time>
      </trkpt>
      <trkpt lat="48.258" lon="2.09171">
        <ele>125.1</ele>
        <time>2020-07-02T12:30:39Z</time>
      </trkpt>
      <trkpt lat="48.25795" lon="2.09168">
        <ele>125.1</ele>
        <time>2020-07-02T12:30:40Z</time>
      </trkpt>
      <trkpt lat="48.25791" lon="2.09167">
        <ele>125.1</ele>
        <time>2020-07-02T12:30:41Z</time>
      </trkpt>
      <trkpt lat="48.25785" lon="2.09164">
        <ele>125.2</ele>
        <time>2020-07-02T12:30:42Z</time>
      </trkpt>
      <trkpt lat="48.2578" lon="2.09162">
        <ele>125.2</ele>
        <time>2020-07-02T12:30:43Z</time>
      </trkpt>
      <trkpt lat="48.25775" lon="2.0916">
        <ele>125.3</ele>
        <time>2020-07-02T12:30:44Z</time>
      </trkpt>
      <trkpt lat="48.25769" lon="2.09157">
        <ele>125.4</ele>
        <time>2020-07-02T12:30:45Z</time>
      </trkpt>
      <trkpt lat="48.25763" lon="2.09153">
        <ele>125.4</ele>
        <time>2020-07-02T12:30:46Z</time>
      </trkpt>
      <trkpt lat="48.25758" lon="2.0915">
        <ele>125.5</ele>
        <time>2020-07-02T12:30:47Z</time>
      </trkpt>
      <trkpt lat="48.25754" lon="2.09147">
        <ele>125.5</ele>
        <time>2020-07-02T12:30:48Z</time>
      </trkpt>
      <trkpt lat="48.25749" lon="2.09143">
        <ele>125.6</ele>
        <time>2020-07-02T12:30:49Z</time>
      </trkpt>
      <trkpt lat="48.25744" lon="2.09139">
        <ele>125.7</ele>
        <time>2020-07-02T12:30:50Z</time>
      </trkpt>
      <trkpt lat="48.2574" lon="2.09138">
        <ele>125.7</ele>
        <time>2020-07-02T12:30:51Z</time>
      </trkpt>
      <trkpt lat="48.25736" lon="2.09135">
        <ele>125.8</ele>
        <time>2020-07-02T12:30:52Z</time>
      </trkpt>
      <trkpt lat="48.25732" lon="2.09132">
        <ele>125.8</ele>
        <time>2020-07-02T12:30:53Z</time>
      </trkpt>
      <trkpt lat="48.25728" lon="2.09129">
        <ele>125.9</ele>
        <time>2020-07-02T12:30:54Z</time>
      </trkpt>
      <trkpt lat="48.25724" lon="2.09126">
        <ele>125.9</ele>
        <time>2020-07-02T12:30:55Z</time>
      </trkpt>
      <trkpt lat="48.2572" lon="2.09122">
        <ele>125.9</ele>
        <time>2020-07-02T12:30:56Z</time>
      </trkpt>
      <trkpt lat="48.25715" lon="2.09117">
        <ele>126</ele>
        <time>2020-07-02T12:30:57Z</time>
      </trkpt>
      <trkpt lat="48.25711" lon="2.09113">
        <ele>126</ele>
        <time>2020-07-02T12:30:58Z</time>
      </trkpt>
      <trkpt lat="48.25706" lon="2.09109">
        <ele>126.1</ele>
        <time>2020-07-02T12:30:59Z</time>
      </trkpt>
      <trkpt lat="48.25701" lon="2.09105">
        <ele>126.1</ele>
        <time>2020-07-02T12:31:00Z</time>
      </trkpt>
      <trkpt lat="48.25696" lon="2.09102">
        <ele>126.2</ele>
        <time>2020-07-02T12:31:01Z</time>
      </trkpt>
      <trkpt lat="48.2569" lon="2.09098">
        <ele>126.2</ele>
        <time>2020-07-02T12:31:02Z</time>
      </trkpt>
      <trkpt lat="48.25687" lon="2.09097">
        <ele>126.3</ele>
        <time>2020-07-02T12:31:03Z</time>
      </trkpt>
      <trkpt lat="48.25682" lon="2.09095">
        <ele>126.3</ele>
        <time>2020-07-02T12:31:04Z</time>
      </trkpt>
      <trkpt lat="48.25677" lon="2.09091">
        <ele>126.4</ele>
        <time>2020-07-02T12:31:05Z</time>
      </trkpt>
      <trkpt lat="48.25672" lon="2.09088">
        <ele>126.4</ele>
        <time>2020-07-02T12:31:06Z</time>
      </trkpt>
      <trkpt lat="48.25667" lon="2.09084">
        <ele>126.5</ele>
        <time>2020-07-02T12:31:07Z</time>
      </trkpt>
      <trkpt lat="48.25663" lon="2.09082">
        <ele>126.5</ele>
        <time>2020-07-02T12:31:08Z</time>
      </trkpt>
      <trkpt lat="48.25658" lon="2.09078">
        <ele>126.6</ele>
        <time>2020-07-02T12:31:09Z</time>
      </trkpt>
      <trkpt lat="48.25654" lon="2.09074">
        <ele>126.6</ele>
        <time>2020-07-02T12:31:10Z</time>
      </trkpt>
      <trkpt lat="48.2565" lon="2.09071">
        <ele>126.7</ele>
        <time>2020-07-02T12:31:11Z</time>
      </trkpt>
      <trkpt lat="48.25645" lon="2.09068">
        <ele>126.7</ele>
        <time>2020-07-02T12:31:12Z</time>
      </trkpt>
      <trkpt lat="48.2564" lon="2.09064">
        <ele>126.8</ele>
        <time>2020-07-02T12:31:13Z</time>
      </trkpt>
      <trkpt lat="48.25635" lon="2.09062">
        <ele>126.8</ele>
        <time>2020-07-02T12:31:14Z</time>
      </trkpt>
      <trkpt lat="48.2563" lon="2.09059">
        <ele>126.9</ele>
        <time>2020-07-02T12:31:15Z</time>
      </trkpt>
      <trkpt lat="48.25626" lon="2.09056">
        <ele>126.9</ele>
        <time>2020-07-02T12:31:16Z</time>
      </trkpt>
      <trkpt lat="48.2562" lon="2.09052">
        <ele>127</ele>
        <time>2020-07-02T12:31:17Z</time>
      </trkpt>
      <trkpt lat="48.25616" lon="2.0905">
        <ele>127</ele>
        <time>2020-07-02T12:31:18Z</time>
      </trkpt>
      <trkpt lat="48.25611" lon="2.09047">
        <ele>127.1</ele>
        <time>2020-07-02T12:31:19Z</time>
      </trkpt>
      <trkpt lat="48.25605" lon="2.09044">
        <ele>127.2</ele>
        <time>2020-07-02T12:31:20Z</time>
      </trkpt>
      <trkpt lat="48.256" lon="2.09041">
        <ele>127.2</ele>
        <time>2020-07-02T12:31:21Z</time>
      </trkpt>
      <trkpt lat="48.25596" lon="2.09039">
        <ele>127.3</ele>
        <time>2020-07-02T12:31:22Z</time>
      </trkpt>
      <trkpt lat="48.25591" lon="2.09036">
        <ele>127.3</ele>
        <time>2020-07-02T12:31:23Z</time>
      </trkpt>
      <trkpt lat="48.25586" lon="2.09032">
        <ele>127.4</ele>
        <time>2020-07-02T12:31:24Z</time>
      </trkpt>
      <trkpt lat="48.25582" lon="2.09028">
        <ele>127.5</ele>
        <time>2020-07-02T12:31:25Z</time>
      </trkpt>
      <trkpt lat="48.25577" lon="2.09024">
        <ele>127.6</ele>
        <time>2020-07-02T12:31:26Z</time>
      </trkpt>
      <trkpt lat="48.25572" lon="2.0902">
        <ele>127.7</ele>
        <time>2020-07-02T12:31:27Z</time>
      </trkpt>
      <trkpt lat="48.25567" lon="2.09016">
        <ele>127.7</ele>
        <time>2020-07-02T12:31:28Z</time>
      </trkpt>
      <trkpt lat="48.25563" lon="2.09013">
        <ele>127.8</ele>
        <time>2020-07-02T12:31:29Z</time>
      </trkpt>
      <trkpt lat="48.25558" lon="2.0901">
        <ele>127.9</ele>
        <time>2020-07-02T12:31:30Z</time>
      </trkpt>
      <trkpt lat="48.25554" lon="2.09007">
        <ele>127.9</ele>
        <time>2020-07-02T12:31:31Z</time>
      </trkpt>
      <trkpt lat="48.25549" lon="2.09004">
        <ele>128</ele>
        <time>2020-07-02T12:31:32Z</time>
      </trkpt>
      <trkpt lat="48.25544" lon="2.09001">
        <ele>128.1</ele>
        <time>2020-07-02T12:31:33Z</time>
      </trkpt>
      <trkpt lat="48.2554" lon="2.08998">
        <ele>128.2</ele>
        <time>2020-07-02T12:31:34Z</time>
      </trkpt>
      <trkpt lat="48.25534" lon="2.08994">
        <ele>128.2</ele>
        <time>2020-07-02T12:31:35Z</time>
      </trkpt>
      <trkpt lat="48.25529" lon="2.08992">
        <ele>128.3</ele>
        <time>2020-07-02T12:31:36Z</time>
      </trkpt>
      <trkpt lat="48.25524" lon="2.08989">
        <ele>128.3</ele>
        <time>2020-07-02T12:31:37Z</time>
      </trkpt>
      <trkpt lat="48.25519" lon="2.08986">
        <ele>128.4</ele>
        <time>2020-07-02T12:31:38Z</time>
      </trkpt>
      <trkpt lat="48.25515" lon="2.08982">
        <ele>128.4</ele>
        <time>2020-07-02T12:31:39Z</time>
      </trkpt>
      <trkpt lat="48.2551" lon="2.08978">
        <ele>128.5</ele>
        <time>2020-07-02T12:31:40Z</time>
      </trkpt>
      <trkpt lat="48.25504" lon="2.08974">
        <ele>128.6</ele>
        <time>2020-07-02T12:31:41Z</time>
      </trkpt>
      <trkpt lat="48.25499" lon="2.0897">
        <ele>128.6</ele>
        <time>2020-07-02T12:31:42Z</time>
      </trkpt>
      <trkpt lat="48.25494" lon="2.08966">
        <ele>128.7</ele>
        <time>2020-07-02T12:31:43Z</time>
      </trkpt>
      <trkpt lat="48.25489" lon="2.08962">
        <ele>128.8</ele>
        <time>2020-07-02T12:31:44Z</time>
      </trkpt>
      <trkpt lat="48.25484" lon="2.08959">
        <ele>128.8</ele>
        <time>2020-07-02T12:31:45Z</time>
      </trkpt>
      <trkpt lat="48.25479" lon="2.08956">
        <ele>128.9</ele>
        <time>2020-07-02T12:31:46Z</time>
      </trkpt>
      <trkpt lat="48.25475" lon="2.08953">
        <ele>128.9</ele>
        <time>2020-07-02T12:31:47Z</time>
      </trkpt>
      <trkpt lat="48.25469" lon="2.0895">
        <ele>129</ele>
        <time>2020-07-02T12:31:48Z</time>
      </trkpt>
      <trkpt lat="48.25464" lon="2.08947">
        <ele>129</ele>
        <time>2020-07-02T12:31:49Z</time>
      </trkpt>
      <trkpt lat="48.25458" lon="2.08943">
        <ele>129</ele>
        <time>2020-07-02T12:31:50Z</time>
      </trkpt>
      <trkpt lat="48.25453" lon="2.0894">
        <ele>129.1</ele>
        <time>2020-07-02T12:31:51Z</time>
      </trkpt>
      <trkpt lat="48.25447" lon="2.08937">
        <ele>129.2</ele>
        <time>2020-07-02T12:31:52Z</time>
      </trkpt>
      <trkpt lat="48.25441" lon="2.08933">
        <ele>129.2</ele>
        <time>2020-07-02T12:31:53Z</time>
      </trkpt>
      <trkpt lat="48.25437" lon="2.0893">
        <ele>129.3</ele>
        <time>2020-07-02T12:31:54Z</time>
      </trkpt>
      <trkpt lat="48.25432" lon="2.08926">
        <ele>129.3</ele>
        <time>2020-07-02T12:31:55Z</time>
      </trkpt>
      <trkpt lat="48.25427" lon="2.08923">
        <ele>129.3</ele>
        <time>2020-07-02T12:31:56Z</time>
      </trkpt>
      <trkpt lat="48.25422" lon="2.0892">
        <ele>129.3</ele>
        <time>2020-07-02T12:31:57Z</time>
      </trkpt>
      <trkpt lat="48.25417" lon="2.08917">
        <ele>129.3</ele>
        <time>2020-07-02T12:31:58Z</time>
      </trkpt>
      <trkpt lat="48.25412" lon="2.08914">
        <ele>129.3</ele>
        <time>2020-07-02T12:31:59Z</time>
      </trkpt>
      <trkpt lat="48.25407" lon="2.08912">
        <ele>129.3</ele>
        <time>2020-07-02T12:32:00Z</time>
      </trkpt>
      <trkpt lat="48.25401" lon="2.08908">
        <ele>129.3</ele>
        <time>2020-07-02T12:32:01Z</time>
      </trkpt>
      <trkpt lat="48.25396" lon="2.08905">
        <ele>129.3</ele>
        <time>2020-07-02T12:32:02Z</time>
      </trkpt>
      <trkpt lat="48.25391" lon="2.08903">
        <ele>129.3</ele>
        <time>2020-07-02T12:32:03Z</time>
      </trkpt>
      <trkpt lat="48.25385" lon="2.08899">
        <ele>129.3</ele>
        <time>2020-07-02T12:32:04Z</time>
      </trkpt>
      <trkpt lat="48.25379" lon="2.08896">
        <ele>129.4</ele>
        <time>2020-07-02T12:32:05Z</time>
      </trkpt>
      <trkpt lat="48.25374" lon="2.08893">
        <ele>129.4</ele>
        <time>2020-07-02T12:32:06Z</time>
      </trkpt>
      <trkpt lat="48.25368" lon="2.08889">
        <ele>129.4</ele>
        <time>2020-07-02T12:32:07Z</time>
      </trkpt>
      <trkpt lat="48.25362" lon="2.08886">
        <ele>129.3</ele>
        <time>2020-07-02T12:32:08Z</time>
      </trkpt>
      <trkpt lat="48.25356" lon="2.08883">
        <ele>129.3</ele>
        <time>2020-07-02T12:32:09Z</time>
      </trkpt>
      <trkpt lat="48.2535" lon="2.0888">
        <ele>129.3</ele>
        <time>2020-07-02T12:32:10Z</time>
      </trkpt>
      <trkpt lat="48.25345" lon="2.08879">
        <ele>129.3</ele>
        <time>2020-07-02T12:32:11Z</time>
      </trkpt>
      <trkpt lat="48.25338" lon="2.08875">
        <ele>129.3</ele>
        <time>2020-07-02T12:32:12Z</time>
      </trkpt>
      <trkpt lat="48.25332" lon="2.08872">
        <ele>129.2</ele>
        <time>2020-07-02T12:32:13Z</time>
      </trkpt>
      <trkpt lat="48.25327" lon="2.08869">
        <ele>129.2</ele>
        <time>2020-07-02T12:32:14Z</time>
      </trkpt>
      <trkpt lat="48.25322" lon="2.08866">
        <ele>129.2</ele>
        <time>2020-07-02T12:32:15Z</time>
      </trkpt>
      <trkpt lat="48.25317" lon="2.08864">
        <ele>129.2</ele>
        <time>2020-07-02T12:32:16Z</time>
      </trkpt>
      <trkpt lat="48.25311" lon="2.08861">
        <ele>129.2</ele>
        <time>2020-07-02T12:32:17Z</time>
      </trkpt>
      <trkpt lat="48.25305" lon="2.08858">
        <ele>129.2</ele>
        <time>2020-07-02T12:32:18Z</time>
      </trkpt>
      <trkpt lat="48.253" lon="2.08855">
        <ele>129.1</ele>
        <time>2020-07-02T12:32:19Z</time>
      </trkpt>
      <trkpt lat="48.25295" lon="2.08852">
        <ele>129.1</ele>
        <time>2020-07-02T12:32:20Z</time>
      </trkpt>
      <trkpt lat="48.25288" lon="2.08847">
        <ele>129.1</ele>
        <time>2020-07-02T12:32:21Z</time>
      </trkpt>
      <trkpt lat="48.25283" lon="2.08844">
        <ele>129.1</ele>
        <time>2020-07-02T12:32:22Z</time>
      </trkpt>
      <trkpt lat="48.25277" lon="2.08841">
        <ele>129.1</ele>
        <time>2020-07-02T12:32:23Z</time>
      </trkpt>
      <trkpt lat="48.25271" lon="2.08839">
        <ele>129.1</ele>
        <time>2020-07-02T12:32:24Z</time>
      </trkpt>
      <trkpt lat="48.25265" lon="2.08836">
        <ele>129.1</ele>
        <time>2020-07-02T12:32:25Z</time>
      </trkpt>
      <trkpt lat="48.25259" lon="2.08833">
        <ele>129.1</ele>
        <time>2020-07-02T12:32:26Z</time>
      </trkpt>
      <trkpt lat="48.25254" lon="2.08831">
        <ele>129.1</ele>
        <time>2020-07-02T12:32:27Z</time>
      </trkpt>
      <trkpt lat="48.25247" lon="2.08827">
        <ele>129.1</ele>
        <time>2020-07-02T12:32:28Z</time>
      </trkpt>
      <trkpt lat="48.25241" lon="2.08825">
        <ele>129.1</ele>
        <time>2020-07-02T12:32:29Z</time>
      </trkpt>
      <trkpt lat="48.25235" lon="2.08822">
        <ele>129.1</ele>
        <time>2020-07-02T12:32:30Z</time>
      </trkpt>
      <trkpt lat="48.25229" lon="2.08819">
        <ele>129.1</ele>
        <time>2020-07-02T12:32:31Z</time>
      </trkpt>
      <trkpt lat="48.25223" lon="2.08815">
        <ele>129.1</ele>
        <time>2020-07-02T12:32:32Z</time>
      </trkpt>
      <trkpt lat="48.25217" lon="2.08812">
        <ele>129</ele>
        <time>2020-07-02T12:32:33Z</time>
      </trkpt>
      <trkpt lat="48.25211" lon="2.08809">
        <ele>128.8</ele>
        <time>2020-07-02T12:32:34Z</time>
      </trkpt>
      <trkpt lat="48.25205" lon="2.08805">
        <ele>128.4</ele>
        <time>2020-07-02T12:32:35Z</time>
      </trkpt>
      <trkpt lat="48.25198" lon="2.08801">
        <ele>128</ele>
        <time>2020-07-02T12:32:36Z</time>
      </trkpt>
      <trkpt lat="48.25193" lon="2.08798">
        <ele>127.9</ele>
        <time>2020-07-02T12:32:37Z</time>
      </trkpt>
      <trkpt lat="48.25187" lon="2.08795">
        <ele>127.7</ele>
        <time>2020-07-02T12:32:38Z</time>
      </trkpt>
      <trkpt lat="48.25181" lon="2.08792">
        <ele>127.6</ele>
        <time>2020-07-02T12:32:39Z</time>
      </trkpt>
      <trkpt lat="48.25174" lon="2.08789">
        <ele>127.6</ele>
        <time>2020-07-02T12:32:40Z</time>
      </trkpt>
      <trkpt lat="48.25168" lon="2.08786">
        <ele>127.5</ele>
        <time>2020-07-02T12:32:41Z</time>
      </trkpt>
      <trkpt lat="48.25162" lon="2.08783">
        <ele>127.4</ele>
        <time>2020-07-02T12:32:42Z</time>
      </trkpt>
      <trkpt lat="48.25156" lon="2.08779">
        <ele>127.4</ele>
        <time>2020-07-02T12:32:43Z</time>
      </trkpt>
      <trkpt lat="48.2515" lon="2.08776">
        <ele>127.3</ele>
        <time>2020-07-02T12:32:44Z</time>
      </trkpt>
      <trkpt lat="48.25144" lon="2.08773">
        <ele>127.3</ele>
        <time>2020-07-02T12:32:45Z</time>
      </trkpt>
      <trkpt lat="48.25138" lon="2.0877">
        <ele>127.2</ele>
        <time>2020-07-02T12:32:46Z</time>
      </trkpt>
      <trkpt lat="48.25132" lon="2.08768">
        <ele>127.2</ele>
        <time>2020-07-02T12:32:47Z</time>
      </trkpt>
      <trkpt lat="48.25126" lon="2.08764">
        <ele>127.3</ele>
        <time>2020-07-02T12:32:48Z</time>
      </trkpt>
      <trkpt lat="48.2512" lon="2.08761">
        <ele>127.3</ele>
        <time>2020-07-02T12:32:49Z</time>
      </trkpt>
      <trkpt lat="48.25114" lon="2.08758">
        <ele>127.3</ele>
        <time>2020-07-02T12:32:50Z</time>
      </trkpt>
      <trkpt lat="48.25108" lon="2.08755">
        <ele>127.3</ele>
        <time>2020-07-02T12:32:51Z</time>
      </trkpt>
      <trkpt lat="48.25101" lon="2.08751">
        <ele>127.3</ele>
        <time>2020-07-02T12:32:52Z</time>
      </trkpt>
      <trkpt lat="48.25095" lon="2.08747">
        <ele>127.3</ele>
        <time>2020-07-02T12:32:53Z</time>
      </trkpt>
      <trkpt lat="48.25089" lon="2.08743">
        <ele>127.3</ele>
        <time>2020-07-02T12:32:54Z</time>
      </trkpt>
      <trkpt lat="48.25083" lon="2.08739">
        <ele>127.2</ele>
        <time>2020-07-02T12:32:55Z</time>
      </trkpt>
      <trkpt lat="48.25076" lon="2.08736">
        <ele>127.2</ele>
        <time>2020-07-02T12:32:56Z</time>
      </trkpt>
      <trkpt lat="48.2507" lon="2.08733">
        <ele>127.2</ele>
        <time>2020-07-02T12:32:57Z</time>
      </trkpt>
      <trkpt lat="48.25064" lon="2.0873">
        <ele>127.2</ele>
        <time>2020-07-02T12:32:58Z</time>
      </trkpt>
      <trkpt lat="48.25059" lon="2.08728">
        <ele>127.2</ele>
        <time>2020-07-02T12:32:59Z</time>
      </trkpt>
      <trkpt lat="48.25053" lon="2.08725">
        <ele>127.2</ele>
        <time>2020-07-02T12:33:00Z</time>
      </trkpt>
      <trkpt lat="48.25048" lon="2.08723">
        <ele>127.2</ele>
        <time>2020-07-02T12:33:01Z</time>
      </trkpt>
      <trkpt lat="48.25042" lon="2.08719">
        <ele>127.2</ele>
        <time>2020-07-02T12:33:02Z</time>
      </trkpt>
      <trkpt lat="48.25037" lon="2.08716">
        <ele>127.2</ele>
        <time>2020-07-02T12:33:03Z</time>
      </trkpt>
      <trkpt lat="48.25032" lon="2.08713">
        <ele>127.2</ele>
        <time>2020-07-02T12:33:04Z</time>
      </trkpt>
      <trkpt lat="48.25026" lon="2.0871">
        <ele>127.3</ele>
        <time>2020-07-02T12:33:05Z</time>
      </trkpt>
      <trkpt lat="48.2502" lon="2.08708">
        <ele>127.3</ele>
        <time>2020-07-02T12:33:06Z</time>
      </trkpt>
      <trkpt lat="48.25015" lon="2.08705">
        <ele>127.3</ele>
        <time>2020-07-02T12:33:07Z</time>
      </trkpt>
      <trkpt lat="48.25008" lon="2.08702">
        <ele>127.2</ele>
        <time>2020-07-02T12:33:08Z</time>
      </trkpt>
      <trkpt lat="48.25002" lon="2.08699">
        <ele>127.2</ele>
        <time>2020-07-02T12:33:09Z</time>
      </trkpt>
      <trkpt lat="48.24997" lon="2.08695">
        <ele>127.2</ele>
        <time>2020-07-02T12:33:10Z</time>
      </trkpt>
      <trkpt lat="48.24991" lon="2.08691">
        <ele>127.2</ele>
        <time>2020-07-02T12:33:11Z</time>
      </trkpt>
      <trkpt lat="48.24985" lon="2.08689">
        <ele>127.2</ele>
        <time>2020-07-02T12:33:12Z</time>
      </trkpt>
      <trkpt lat="48.24979" lon="2.08685">
        <ele>127.2</ele>
        <time>2020-07-02T12:33:13Z</time>
      </trkpt>
      <trkpt lat="48.24973" lon="2.08683">
        <ele>127.2</ele>
        <time>2020-07-02T12:33:14Z</time>
      </trkpt>
      <trkpt lat="48.24967" lon="2.0868">
        <ele>127.2</ele>
        <time>2020-07-02T12:33:15Z</time>
      </trkpt>
      <trkpt lat="48.24961" lon="2.08677">
        <ele>127.2</ele>
        <time>2020-07-02T12:33:16Z</time>
      </trkpt>
      <trkpt lat="48.24955" lon="2.08674">
        <ele>127.2</ele>
        <time>2020-07-02T12:33:17Z</time>
      </trkpt>
      <trkpt lat="48.24949" lon="2.08671">
        <ele>127.1</ele>
        <time>2020-07-02T12:33:18Z</time>
      </trkpt>
      <trkpt lat="48.24943" lon="2.08668">
        <ele>127.1</ele>
        <time>2020-07-02T12:33:19Z</time>
      </trkpt>
      <trkpt lat="48.24936" lon="2.08664">
        <ele>127.1</ele>
        <time>2020-07-02T12:33:20Z</time>
      </trkpt>
      <trkpt lat="48.24931" lon="2.08661">
        <ele>127.2</ele>
        <time>2020-07-02T12:33:21Z</time>
      </trkpt>
      <trkpt lat="48.24925" lon="2.08659">
        <ele>127.2</ele>
        <time>2020-07-02T12:33:22Z</time>
      </trkpt>
      <trkpt lat="48.2492" lon="2.08655">
        <ele>127.2</ele>
        <time>2020-07-02T12:33:23Z</time>
      </trkpt>
      <trkpt lat="48.24914" lon="2.08652">
        <ele>127.2</ele>
        <time>2020-07-02T12:33:24Z</time>
      </trkpt>
      <trkpt lat="48.24908" lon="2.08649">
        <ele>127.2</ele>
        <time>2020-07-02T12:33:25Z</time>
      </trkpt>
      <trkpt lat="48.24902" lon="2.08646">
        <ele>127.2</ele>
        <time>2020-07-02T12:33:26Z</time>
      </trkpt>
      <trkpt lat="48.24896" lon="2.08643">
        <ele>127.2</ele>
        <time>2020-07-02T12:33:27Z</time>
      </trkpt>
      <trkpt lat="48.2489" lon="2.0864">
        <ele>127.3</ele>
        <time>2020-07-02T12:33:28Z</time>
      </trkpt>
      <trkpt lat="48.24884" lon="2.08637">
        <ele>127.3</ele>
        <time>2020-07-02T12:33:29Z</time>
      </trkpt>
      <trkpt lat="48.24878" lon="2.08635">
        <ele>127.3</ele>
        <time>2020-07-02T12:33:30Z</time>
      </trkpt>
      <trkpt lat="48.24872" lon="2.08631">
        <ele>127.3</ele>
        <time>2020-07-02T12:33:31Z</time>
      </trkpt>
      <trkpt lat="48.24867" lon="2.08627">
        <ele>127.4</ele>
        <time>2020-07-02T12:33:32Z</time>
      </trkpt>
      <trkpt lat="48.24861" lon="2.08624">
        <ele>127.4</ele>
        <time>2020-07-02T12:33:33Z</time>
      </trkpt>
      <trkpt lat="48.24855" lon="2.0862">
        <ele>127.4</ele>
        <time>2020-07-02T12:33:34Z</time>
      </trkpt>
      <trkpt lat="48.24849" lon="2.08617">
        <ele>127.5</ele>
        <time>2020-07-02T12:33:35Z</time>
      </trkpt>
      <trkpt lat="48.24844" lon="2.08614">
        <ele>127.5</ele>
        <time>2020-07-02T12:33:36Z</time>
      </trkpt>
      <trkpt lat="48.24838" lon="2.08611">
        <ele>127.6</ele>
        <time>2020-07-02T12:33:37Z</time>
      </trkpt>
      <trkpt lat="48.24832" lon="2.08609">
        <ele>127.6</ele>
        <time>2020-07-02T12:33:38Z</time>
      </trkpt>
      <trkpt lat="48.24826" lon="2.08606">
        <ele>127.6</ele>
        <time>2020-07-02T12:33:39Z</time>
      </trkpt>
      <trkpt lat="48.24821" lon="2.08603">
        <ele>127.6</ele>
        <time>2020-07-02T12:33:40Z</time>
      </trkpt>
      <trkpt lat="48.24815" lon="2.08599">
        <ele>127.7</ele>
        <time>2020-07-02T12:33:41Z</time>
      </trkpt>
      <trkpt lat="48.2481" lon="2.08596">
        <ele>127.7</ele>
        <time>2020-07-02T12:33:42Z</time>
      </trkpt>
      <trkpt lat="48.24804" lon="2.08593">
        <ele>127.8</ele>
        <time>2020-07-02T12:33:43Z</time>
      </trkpt>
      <trkpt lat="48.24799" lon="2.0859">
        <ele>127.8</ele>
        <time>2020-07-02T12:33:44Z</time>
      </trkpt>
      <trkpt lat="48.24792" lon="2.08587">
        <ele>127.8</ele>
        <time>2020-07-02T12:33:45Z</time>
      </trkpt>
      <trkpt lat="48.24786" lon="2.08584">
        <ele>127.7</ele>
        <time>2020-07-02T12:33:46Z</time>
      </trkpt>
      <trkpt lat="48.24781" lon="2.08581">
        <ele>127.5</ele>
        <time>2020-07-02T12:33:47Z</time>
      </trkpt>
      <trkpt lat="48.24775" lon="2.08578">
        <ele>127.3</ele>
        <time>2020-07-02T12:33:48Z</time>
      </trkpt>
      <trkpt lat="48.24769" lon="2.08575">
        <ele>127.2</ele>
        <time>2020-07-02T12:33:49Z</time>
      </trkpt>
      <trkpt lat="48.24764" lon="2.08572">
        <ele>127.1</ele>
        <time>2020-07-02T12:33:50Z</time>
      </trkpt>
      <trkpt lat="48.24758" lon="2.08568">
        <ele>127</ele>
        <time>2020-07-02T12:33:51Z</time>
      </trkpt>
      <trkpt lat="48.24753" lon="2.08566">
        <ele>127</ele>
        <time>2020-07-02T12:33:52Z</time>
      </trkpt>
      <trkpt lat="48.24747" lon="2.08562">
        <ele>126.9</ele>
        <time>2020-07-02T12:33:53Z</time>
      </trkpt>
      <trkpt lat="48.24742" lon="2.08559">
        <ele>126.9</ele>
        <time>2020-07-02T12:33:54Z</time>
      </trkpt>
      <trkpt lat="48.24736" lon="2.08556">
        <ele>126.9</ele>
        <time>2020-07-02T12:33:55Z</time>
      </trkpt>
      <trkpt lat="48.2473" lon="2.08553">
        <ele>126.9</ele>
        <time>2020-07-02T12:33:56Z</time>
      </trkpt>
      <trkpt lat="48.24726" lon="2.08552">
        <ele>127</ele>
        <time>2020-07-02T12:33:57Z</time>
      </trkpt>
      <trkpt lat="48.2472" lon="2.08548">
        <ele>127.1</ele>
        <time>2020-07-02T12:33:58Z</time>
      </trkpt>
      <trkpt lat="48.24715" lon="2.08545">
        <ele>127.2</ele>
        <time>2020-07-02T12:33:59Z</time>
      </trkpt>
      <trkpt lat="48.24709" lon="2.08542">
        <ele>127.3</ele>
        <time>2020-07-02T12:34:00Z</time>
      </trkpt>
      <trkpt lat="48.24704" lon="2.0854">
        <ele>127.5</ele>
        <time>2020-07-02T12:34:01Z</time>
      </trkpt>
      <trkpt lat="48.24698" lon="2.08537">
        <ele>127.7</ele>
        <time>2020-07-02T12:34:02Z</time>
      </trkpt>
      <trkpt lat="48.24692" lon="2.08534">
        <ele>127.6</ele>
        <time>2020-07-02T12:34:03Z</time>
      </trkpt>
      <trkpt lat="48.24687" lon="2.08532">
        <ele>127.6</ele>
        <time>2020-07-02T12:34:04Z</time>
      </trkpt>
      <trkpt lat="48.2468" lon="2.08528">
        <ele>127.6</ele>
        <time>2020-07-02T12:34:05Z</time>
      </trkpt>
      <trkpt lat="48.24674" lon="2.08524">
        <ele>127.6</ele>
        <time>2020-07-02T12:34:06Z</time>
      </trkpt>
      <trkpt lat="48.24668" lon="2.08521">
        <ele>127.6</ele>
        <time>2020-07-02T12:34:07Z</time>
      </trkpt>
      <trkpt lat="48.24662" lon="2.08517">
        <ele>127.6</ele>
        <time>2020-07-02T12:34:08Z</time>
      </trkpt>
      <trkpt lat="48.24657" lon="2.08516">
        <ele>127.6</ele>
        <time>2020-07-02T12:34:09Z</time>
      </trkpt>
      <trkpt lat="48.24652" lon="2.08514">
        <ele>127.6</ele>
        <time>2020-07-02T12:34:10Z</time>
      </trkpt>
      <trkpt lat="48.24646" lon="2.0851">
        <ele>127.6</ele>
        <time>2020-07-02T12:34:11Z</time>
      </trkpt>
      <trkpt lat="48.2464" lon="2.08507">
        <ele>127.6</ele>
        <time>2020-07-02T12:34:12Z</time>
      </trkpt>
      <trkpt lat="48.24635" lon="2.08504">
        <ele>127.7</ele>
        <time>2020-07-02T12:34:13Z</time>
      </trkpt>
      <trkpt lat="48.24629" lon="2.08501">
        <ele>127.7</ele>
        <time>2020-07-02T12:34:14Z</time>
      </trkpt>
      <trkpt lat="48.24624" lon="2.08497">
        <ele>127.7</ele>
        <time>2020-07-02T12:34:15Z</time>
      </trkpt>
      <trkpt lat="48.24618" lon="2.08494">
        <ele>127.8</ele>
        <time>2020-07-02T12:34:16Z</time>
      </trkpt>
      <trkpt lat="48.24612" lon="2.08491">
        <ele>127.8</ele>
        <time>2020-07-02T12:34:17Z</time>
      </trkpt>
      <trkpt lat="48.24606" lon="2.08487">
        <ele>127.9</ele>
        <time>2020-07-02T12:34:18Z</time>
      </trkpt>
      <trkpt lat="48.24601" lon="2.08483">
        <ele>128</ele>
        <time>2020-07-02T12:34:19Z</time>
      </trkpt>
      <trkpt lat="48.24595" lon="2.0848">
        <ele>128</ele>
        <time>2020-07-02T12:34:20Z</time>
      </trkpt>
      <trkpt lat="48.2459" lon="2.08477">
        <ele>128.1</ele>
        <time>2020-07-02T12:34:21Z</time>
      </trkpt>
      <trkpt lat="48.24585" lon="2.08474">
        <ele>128.2</ele>
        <time>2020-07-02T12:34:22Z</time>
      </trkpt>
      <trkpt lat="48.2458" lon="2.08472">
        <ele>128.2</ele>
        <time>2020-07-02T12:34:23Z</time>
      </trkpt>
      <trkpt lat="48.24573" lon="2.08469">
        <ele>128.3</ele>
        <time>2020-07-02T12:34:24Z</time>
      </trkpt>
      <trkpt lat="48.24568" lon="2.08466">
        <ele>128.3</ele>
        <time>2020-07-02T12:34:25Z</time>
      </trkpt>
      <trkpt lat="48.24562" lon="2.08464">
        <ele>128.4</ele>
        <time>2020-07-02T12:34:26Z</time>
      </trkpt>
      <trkpt lat="48.24556" lon="2.08461">
        <ele>128.4</ele>
        <time>2020-07-02T12:34:27Z</time>
      </trkpt>
      <trkpt lat="48.24551" lon="2.08458">
        <ele>128.5</ele>
        <time>2020-07-02T12:34:28Z</time>
      </trkpt>
      <trkpt lat="48.24546" lon="2.08456">
        <ele>128.6</ele>
        <time>2020-07-02T12:34:29Z</time>
      </trkpt>
      <trkpt lat="48.2454" lon="2.08453">
        <ele>128.7</ele>
        <time>2020-07-02T12:34:30Z</time>
      </trkpt>
      <trkpt lat="48.24534" lon="2.0845">
        <ele>128.8</ele>
        <time>2020-07-02T12:34:31Z</time>
      </trkpt>
      <trkpt lat="48.24528" lon="2.08447">
        <ele>128.8</ele>
        <time>2020-07-02T12:34:32Z</time>
      </trkpt>
      <trkpt lat="48.24522" lon="2.08444">
        <ele>128.9</ele>
        <time>2020-07-02T12:34:33Z</time>
      </trkpt>
      <trkpt lat="48.24517" lon="2.08441">
        <ele>129</ele>
        <time>2020-07-02T12:34:34Z</time>
      </trkpt>
      <trkpt lat="48.24511" lon="2.08438">
        <ele>129.1</ele>
        <time>2020-07-02T12:34:35Z</time>
      </trkpt>
      <trkpt lat="48.24507" lon="2.08435">
        <ele>129.1</ele>
        <time>2020-07-02T12:34:36Z</time>
      </trkpt>
      <trkpt lat="48.24501" lon="2.08432">
        <ele>129.2</ele>
        <time>2020-07-02T12:34:37Z</time>
      </trkpt>
      <trkpt lat="48.24496" lon="2.08431">
        <ele>129.3</ele>
        <time>2020-07-02T12:34:38Z</time>
      </trkpt>
      <trkpt lat="48.2449" lon="2.08429">
        <ele>129.3</ele>
        <time>2020-07-02T12:34:39Z</time>
      </trkpt>
      <trkpt lat="48.24485" lon="2.08426">
        <ele>129.2</ele>
        <time>2020-07-02T12:34:40Z</time>
      </trkpt>
      <trkpt lat="48.2448" lon="2.08424">
        <ele>128.9</ele>
        <time>2020-07-02T12:34:41Z</time>
      </trkpt>
      <trkpt lat="48.24475" lon="2.08421">
        <ele>128.4</ele>
        <time>2020-07-02T12:34:42Z</time>
      </trkpt>
      <trkpt lat="48.24469" lon="2.08418">
        <ele>128.4</ele>
        <time>2020-07-02T12:34:43Z</time>
      </trkpt>
      <trkpt lat="48.24464" lon="2.08415">
        <ele>128.4</ele>
        <time>2020-07-02T12:34:44Z</time>
      </trkpt>
      <trkpt lat="48.2446" lon="2.08412">
        <ele>128.4</ele>
        <time>2020-07-02T12:34:45Z</time>
      </trkpt>
      <trkpt lat="48.24454" lon="2.08409">
        <ele>128.4</ele>
        <time>2020-07-02T12:34:46Z</time>
      </trkpt>
      <trkpt lat="48.24449" lon="2.08406">
        <ele>128.4</ele>
        <time>2020-07-02T12:34:47Z</time>
      </trkpt>
      <trkpt lat="48.24444" lon="2.08404">
        <ele>128.4</ele>
        <time>2020-07-02T12:34:48Z</time>
      </trkpt>
      <trkpt lat="48.24438" lon="2.08401">
        <ele>128.4</ele>
        <time>2020-07-02T12:34:49Z</time>
      </trkpt>
      <trkpt lat="48.24433" lon="2.08398">
        <ele>128.5</ele>
        <time>2020-07-02T12:34:50Z</time>
      </trkpt>
      <trkpt lat="48.24428" lon="2.08395">
        <ele>128.5</ele>
        <time>2020-07-02T12:34:51Z</time>
      </trkpt>
      <trkpt lat="48.24424" lon="2.08394">
        <ele>128.6</ele>
        <time>2020-07-02T12:34:52Z</time>
      </trkpt>
      <trkpt lat="48.2442" lon="2.08391">
        <ele>128.6</ele>
        <time>2020-07-02T12:34:53Z</time>
      </trkpt>
      <trkpt lat="48.24414" lon="2.08388">
        <ele>128.6</ele>
        <time>2020-07-02T12:34:54Z</time>
      </trkpt>
      <trkpt lat="48.24409" lon="2.08385">
        <ele>128.5</ele>
        <time>2020-07-02T12:34:55Z</time>
      </trkpt>
      <trkpt lat="48.24404" lon="2.08382">
        <ele>128.4</ele>
        <time>2020-07-02T12:34:56Z</time>
      </trkpt>
      <trkpt lat="48.24399" lon="2.0838">
        <ele>128.4</ele>
        <time>2020-07-02T12:34:57Z</time>
      </trkpt>
      <trkpt lat="48.24394" lon="2.08377">
        <ele>128.4</ele>
        <time>2020-07-02T12:34:58Z</time>
      </trkpt>
      <trkpt lat="48.2439" lon="2.08375">
        <ele>128.4</ele>
        <time>2020-07-02T12:34:59Z</time>
      </trkpt>
      <trkpt lat="48.24384" lon="2.08372">
        <ele>128.4</ele>
        <time>2020-07-02T12:35:00Z</time>
      </trkpt>
      <trkpt lat="48.24379" lon="2.0837">
        <ele>128.4</ele>
        <time>2020-07-02T12:35:01Z</time>
      </trkpt>
      <trkpt lat="48.24374" lon="2.08368">
        <ele>128.4</ele>
        <time>2020-07-02T12:35:02Z</time>
      </trkpt>
      <trkpt lat="48.2437" lon="2.08365">
        <ele>128.4</ele>
        <time>2020-07-02T12:35:03Z</time>
      </trkpt>
      <trkpt lat="48.24366" lon="2.08362">
        <ele>128.4</ele>
        <time>2020-07-02T12:35:04Z</time>
      </trkpt>
      <trkpt lat="48.24361" lon="2.08359">
        <ele>128.4</ele>
        <time>2020-07-02T12:35:05Z</time>
      </trkpt>
      <trkpt lat="48.24357" lon="2.08356">
        <ele>128.4</ele>
        <time>2020-07-02T12:35:06Z</time>
      </trkpt>
      <trkpt lat="48.24352" lon="2.08353">
        <ele>128.4</ele>
        <time>2020-07-02T12:35:07Z</time>
      </trkpt>
      <trkpt lat="48.24347" lon="2.08351">
        <ele>128.4</ele>
        <time>2020-07-02T12:35:08Z</time>
      </trkpt>
      <trkpt lat="48.24343" lon="2.08347">
        <ele>128.4</ele>
        <time>2020-07-02T12:35:09Z</time>
      </trkpt>
      <trkpt lat="48.24338" lon="2.08344">
        <ele>128.4</ele>
        <time>2020-07-02T12:35:10Z</time>
      </trkpt>
      <trkpt lat="48.24332" lon="2.0834">
        <ele>128.4</ele>
        <time>2020-07-02T12:35:11Z</time>
      </trkpt>
      <trkpt lat="48.24327" lon="2.08337">
        <ele>128.4</ele>
        <time>2020-07-02T12:35:12Z</time>
      </trkpt>
      <trkpt lat="48.24321" lon="2.08334">
        <ele>128.4</ele>
        <time>2020-07-02T12:35:13Z</time>
      </trkpt>
      <trkpt lat="48.24316" lon="2.08331">
        <ele>128.4</ele>
        <time>2020-07-02T12:35:14Z</time>
      </trkpt>
      <trkpt lat="48.24311" lon="2.08329">
        <ele>128.4</ele>
        <time>2020-07-02T12:35:15Z</time>
      </trkpt>
      <trkpt lat="48.24306" lon="2.08326">
        <ele>128.4</ele>
        <time>2020-07-02T12:35:16Z</time>
      </trkpt>
      <trkpt lat="48.24302" lon="2.08323">
        <ele>128.4</ele>
        <time>2020-07-02T12:35:17Z</time>
      </trkpt>
      <trkpt lat="48.24297" lon="2.0832">
        <ele>128.4</ele>
        <time>2020-07-02T12:35:18Z</time>
      </trkpt>
      <trkpt lat="48.24293" lon="2.08318">
        <ele>128.4</ele>
        <time>2020-07-02T12:35:19Z</time>
      </trkpt>
      <trkpt lat="48.24289" lon="2.08315">
        <ele>128.4</ele>
        <time>2020-07-02T12:35:20Z</time>
      </trkpt>
      <trkpt lat="48.24285" lon="2.08311">
        <ele>128.4</ele>
        <time>2020-07-02T12:35:21Z</time>
      </trkpt>
      <trkpt lat="48.2428" lon="2.08307">
        <ele>128.4</ele>
        <time>2020-07-02T12:35:22Z</time>
      </trkpt>
      <trkpt lat="48.24275" lon="2.08304">
        <ele>128.4</ele>
        <time>2020-07-02T12:35:23Z</time>
      </trkpt>
      <trkpt lat="48.2427" lon="2.083">
        <ele>128.4</ele>
        <time>2020-07-02T12:35:24Z</time>
      </trkpt>
      <trkpt lat="48.24264" lon="2.08296">
        <ele>128.4</ele>
        <time>2020-07-02T12:35:25Z</time>
      </trkpt>
      <trkpt lat="48.24259" lon="2.08291">
        <ele>128.3</ele>
        <time>2020-07-02T12:35:26Z</time>
      </trkpt>
      <trkpt lat="48.24254" lon="2.08288">
        <ele>128.3</ele>
        <time>2020-07-02T12:35:27Z</time>
      </trkpt>
      <trkpt lat="48.2425" lon="2.08285">
        <ele>128.3</ele>
        <time>2020-07-02T12:35:28Z</time>
      </trkpt>
      <trkpt lat="48.24245" lon="2.08281">
        <ele>128.3</ele>
        <time>2020-07-02T12:35:29Z</time>
      </trkpt>
      <trkpt lat="48.2424" lon="2.08278">
        <ele>128.2</ele>
        <time>2020-07-02T12:35:30Z</time>
      </trkpt>
      <trkpt lat="48.24235" lon="2.08275">
        <ele>128.1</ele>
        <time>2020-07-02T12:35:31Z</time>
      </trkpt>
      <trkpt lat="48.2423" lon="2.08272">
        <ele>128.1</ele>
        <time>2020-07-02T12:35:32Z</time>
      </trkpt>
      <trkpt lat="48.24225" lon="2.08268">
        <ele>128</ele>
        <time>2020-07-02T12:35:33Z</time>
      </trkpt>
      <trkpt lat="48.24219" lon="2.08264">
        <ele>127.9</ele>
        <time>2020-07-02T12:35:34Z</time>
      </trkpt>
      <trkpt lat="48.24214" lon="2.08261">
        <ele>127.9</ele>
        <time>2020-07-02T12:35:35Z</time>
      </trkpt>
      <trkpt lat="48.24208" lon="2.08257">
        <ele>127.8</ele>
        <time>2020-07-02T12:35:36Z</time>
      </trkpt>
      <trkpt lat="48.24203" lon="2.08253">
        <ele>127.7</ele>
        <time>2020-07-02T12:35:37Z</time>
      </trkpt>
      <trkpt lat="48.24196" lon="2.08249">
        <ele>127.7</ele>
        <time>2020-07-02T12:35:38Z</time>
      </trkpt>
      <trkpt lat="48.24191" lon="2.08245">
        <ele>127.6</ele>
        <time>2020-07-02T12:35:39Z</time>
      </trkpt>
      <trkpt lat="48.24185" lon="2.08242">
        <ele>127.5</ele>
        <time>2020-07-02T12:35:40Z</time>
      </trkpt>
      <trkpt lat="48.24179" lon="2.08237">
        <ele>127.4</ele>
        <time>2020-07-02T12:35:41Z</time>
      </trkpt>
      <trkpt lat="48.24173" lon="2.08234">
        <ele>127.4</ele>
        <time>2020-07-02T12:35:42Z</time>
      </trkpt>
      <trkpt lat="48.24167" lon="2.08229">
        <ele>127.3</ele>
        <time>2020-07-02T12:35:43Z</time>
      </trkpt>
      <trkpt lat="48.24161" lon="2.08225">
        <ele>127.2</ele>
        <time>2020-07-02T12:35:44Z</time>
      </trkpt>
      <trkpt lat="48.24155" lon="2.08222">
        <ele>127.2</ele>
        <time>2020-07-02T12:35:45Z</time>
      </trkpt>
      <trkpt lat="48.24149" lon="2.08218">
        <ele>127.1</ele>
        <time>2020-07-02T12:35:46Z</time>
      </trkpt>
      <trkpt lat="48.24143" lon="2.08215">
        <ele>127</ele>
        <time>2020-07-02T12:35:47Z</time>
      </trkpt>
      <trkpt lat="48.24138" lon="2.08211">
        <ele>126.9</ele>
        <time>2020-07-02T12:35:48Z</time>
      </trkpt>
      <trkpt lat="48.24132" lon="2.08207">
        <ele>126.8</ele>
        <time>2020-07-02T12:35:49Z</time>
      </trkpt>
      <trkpt lat="48.24127" lon="2.08204">
        <ele>126.7</ele>
        <time>2020-07-02T12:35:50Z</time>
      </trkpt>
      <trkpt lat="48.24121" lon="2.08199">
        <ele>126.6</ele>
        <time>2020-07-02T12:35:51Z</time>
      </trkpt>
      <trkpt lat="48.24116" lon="2.08195">
        <ele>126.5</ele>
        <time>2020-07-02T12:35:52Z</time>
      </trkpt>
      <trkpt lat="48.24112" lon="2.08192">
        <ele>126.4</ele>
        <time>2020-07-02T12:35:53Z</time>
      </trkpt>
      <trkpt lat="48.24106" lon="2.08189">
        <ele>126.3</ele>
        <time>2020-07-02T12:35:54Z</time>
      </trkpt>
      <trkpt lat="48.24101" lon="2.08184">
        <ele>126.2</ele>
        <time>2020-07-02T12:35:55Z</time>
      </trkpt>
      <trkpt lat="48.24095" lon="2.08181">
        <ele>126.1</ele>
        <time>2020-07-02T12:35:56Z</time>
      </trkpt>
      <trkpt lat="48.24089" lon="2.08176">
        <ele>126</ele>
        <time>2020-07-02T12:35:57Z</time>
      </trkpt>
      <trkpt lat="48.24082" lon="2.08172">
        <ele>125.9</ele>
        <time>2020-07-02T12:35:58Z</time>
      </trkpt>
      <trkpt lat="48.24077" lon="2.08169">
        <ele>125.8</ele>
        <time>2020-07-02T12:35:59Z</time>
      </trkpt>
      <trkpt lat="48.24071" lon="2.08165">
        <ele>125.7</ele>
        <time>2020-07-02T12:36:00Z</time>
      </trkpt>
      <trkpt lat="48.24064" lon="2.08161">
        <ele>125.5</ele>
        <time>2020-07-02T12:36:01Z</time>
      </trkpt>
      <trkpt lat="48.24058" lon="2.08157">
        <ele>125.4</ele>
        <time>2020-07-02T12:36:02Z</time>
      </trkpt>
      <trkpt lat="48.24051" lon="2.08152">
        <ele>125.2</ele>
        <time>2020-07-02T12:36:03Z</time>
      </trkpt>
      <trkpt lat="48.24045" lon="2.08149">
        <ele>125.2</ele>
        <time>2020-07-02T12:36:04Z</time>
      </trkpt>
      <trkpt lat="48.24039" lon="2.08145">
        <ele>125.1</ele>
        <time>2020-07-02T12:36:05Z</time>
      </trkpt>
      <trkpt lat="48.24033" lon="2.08141">
        <ele>125.1</ele>
        <time>2020-07-02T12:36:06Z</time>
      </trkpt>
      <trkpt lat="48.24026" lon="2.08137">
        <ele>124.9</ele>
        <time>2020-07-02T12:36:07Z</time>
      </trkpt>
      <trkpt lat="48.2402" lon="2.08133">
        <ele>124.7</ele>
        <time>2020-07-02T12:36:08Z</time>
      </trkpt>
      <trkpt lat="48.24014" lon="2.08129">
        <ele>124.4</ele>
        <time>2020-07-02T12:36:09Z</time>
      </trkpt>
      <trkpt lat="48.24007" lon="2.08124">
        <ele>124.2</ele>
        <time>2020-07-02T12:36:10Z</time>
      </trkpt>
      <trkpt lat="48.24001" lon="2.0812">
        <ele>124.1</ele>
        <time>2020-07-02T12:36:11Z</time>
      </trkpt>
      <trkpt lat="48.23995" lon="2.08115">
        <ele>123.9</ele>
        <time>2020-07-02T12:36:12Z</time>
      </trkpt>
      <trkpt lat="48.23989" lon="2.08111">
        <ele>123.8</ele>
        <time>2020-07-02T12:36:13Z</time>
      </trkpt>
      <trkpt lat="48.23982" lon="2.08106">
        <ele>123.7</ele>
        <time>2020-07-02T12:36:14Z</time>
      </trkpt>
      <trkpt lat="48.23976" lon="2.08102">
        <ele>123.6</ele>
        <time>2020-07-02T12:36:15Z</time>
      </trkpt>
      <trkpt lat="48.2397" lon="2.08098">
        <ele>123.4</ele>
        <time>2020-07-02T12:36:16Z</time>
      </trkpt>
      <trkpt lat="48.23964" lon="2.08093">
        <ele>123.4</ele>
        <time>2020-07-02T12:36:17Z</time>
      </trkpt>
      <trkpt lat="48.23958" lon="2.08089">
        <ele>123.3</ele>
        <time>2020-07-02T12:36:18Z</time>
      </trkpt>
      <trkpt lat="48.23951" lon="2.08084">
        <ele>123.3</ele>
        <time>2020-07-02T12:36:19Z</time>
      </trkpt>
      <trkpt lat="48.23945" lon="2.08081">
        <ele>123.2</ele>
        <time>2020-07-02T12:36:20Z</time>
      </trkpt>
      <trkpt lat="48.23939" lon="2.08076">
        <ele>123.2</ele>
        <time>2020-07-02T12:36:21Z</time>
      </trkpt>
      <trkpt lat="48.23933" lon="2.08072">
        <ele>123.2</ele>
        <time>2020-07-02T12:36:22Z</time>
      </trkpt>
      <trkpt lat="48.23927" lon="2.08068">
        <ele>123.2</ele>
        <time>2020-07-02T12:36:23Z</time>
      </trkpt>
      <trkpt lat="48.23921" lon="2.08064">
        <ele>123.2</ele>
        <time>2020-07-02T12:36:24Z</time>
      </trkpt>
      <trkpt lat="48.23915" lon="2.0806">
        <ele>123.2</ele>
        <time>2020-07-02T12:36:25Z</time>
      </trkpt>
      <trkpt lat="48.23909" lon="2.08056">
        <ele>123.2</ele>
        <time>2020-07-02T12:36:26Z</time>
      </trkpt>
      <trkpt lat="48.23904" lon="2.08052">
        <ele>123.2</ele>
        <time>2020-07-02T12:36:27Z</time>
      </trkpt>
      <trkpt lat="48.23898" lon="2.08049">
        <ele>123.1</ele>
        <time>2020-07-02T12:36:28Z</time>
      </trkpt>
      <trkpt lat="48.23892" lon="2.08045">
        <ele>123.1</ele>
        <time>2020-07-02T12:36:29Z</time>
      </trkpt>
      <trkpt lat="48.23886" lon="2.08041">
        <ele>123.1</ele>
        <time>2020-07-02T12:36:30Z</time>
      </trkpt>
      <trkpt lat="48.2388" lon="2.08038">
        <ele>123.1</ele>
        <time>2020-07-02T12:36:31Z</time>
      </trkpt>
      <trkpt lat="48.23874" lon="2.08033">
        <ele>123.1</ele>
        <time>2020-07-02T12:36:32Z</time>
      </trkpt>
      <trkpt lat="48.23869" lon="2.0803">
        <ele>123.1</ele>
        <time>2020-07-02T12:36:33Z</time>
      </trkpt>
      <trkpt lat="48.23863" lon="2.08026">
        <ele>123.2</ele>
        <time>2020-07-02T12:36:34Z</time>
      </trkpt>
      <trkpt lat="48.23857" lon="2.08023">
        <ele>123.2</ele>
        <time>2020-07-02T12:36:35Z</time>
      </trkpt>
      <trkpt lat="48.23852" lon="2.08019">
        <ele>123.3</ele>
        <time>2020-07-02T12:36:36Z</time>
      </trkpt>
      <trkpt lat="48.23846" lon="2.08016">
        <ele>123.3</ele>
        <time>2020-07-02T12:36:37Z</time>
      </trkpt>
      <trkpt lat="48.23841" lon="2.08012">
        <ele>123.4</ele>
        <time>2020-07-02T12:36:38Z</time>
      </trkpt>
      <trkpt lat="48.23835" lon="2.08009">
        <ele>123.4</ele>
        <time>2020-07-02T12:36:39Z</time>
      </trkpt>
      <trkpt lat="48.23829" lon="2.08006">
        <ele>123.5</ele>
        <time>2020-07-02T12:36:40Z</time>
      </trkpt>
      <trkpt lat="48.23824" lon="2.08002">
        <ele>123.5</ele>
        <time>2020-07-02T12:36:41Z</time>
      </trkpt>
      <trkpt lat="48.23819" lon="2.07998">
        <ele>123.5</ele>
        <time>2020-07-02T12:36:42Z</time>
      </trkpt>
      <trkpt lat="48.23814" lon="2.07994">
        <ele>123.6</ele>
        <time>2020-07-02T12:36:43Z</time>
      </trkpt>
      <trkpt lat="48.23809" lon="2.07989">
        <ele>123.6</ele>
        <time>2020-07-02T12:36:44Z</time>
      </trkpt>
      <trkpt lat="48.23803" lon="2.07985">
        <ele>123.7</ele>
        <time>2020-07-02T12:36:45Z</time>
      </trkpt>
      <trkpt lat="48.23798" lon="2.07982">
        <ele>123.7</ele>
        <time>2020-07-02T12:36:46Z</time>
      </trkpt>
      <trkpt lat="48.23794" lon="2.07979">
        <ele>123.8</ele>
        <time>2020-07-02T12:36:47Z</time>
      </trkpt>
      <trkpt lat="48.23788" lon="2.07976">
        <ele>123.9</ele>
        <time>2020-07-02T12:36:48Z</time>
      </trkpt>
      <trkpt lat="48.23783" lon="2.07972">
        <ele>124</ele>
        <time>2020-07-02T12:36:49Z</time>
      </trkpt>
      <trkpt lat="48.23779" lon="2.0797">
        <ele>124</ele>
        <time>2020-07-02T12:36:50Z</time>
      </trkpt>
      <trkpt lat="48.23775" lon="2.07966">
        <ele>124.1</ele>
        <time>2020-07-02T12:36:51Z</time>
      </trkpt>
      <trkpt lat="48.23769" lon="2.07963">
        <ele>124.2</ele>
        <time>2020-07-02T12:36:52Z</time>
      </trkpt>
      <trkpt lat="48.23764" lon="2.07958">
        <ele>124.2</ele>
        <time>2020-07-02T12:36:53Z</time>
      </trkpt>
      <trkpt lat="48.23758" lon="2.07954">
        <ele>124.3</ele>
        <time>2020-07-02T12:36:54Z</time>
      </trkpt>
      <trkpt lat="48.23753" lon="2.0795">
        <ele>124.4</ele>
        <time>2020-07-02T12:36:55Z</time>
      </trkpt>
      <trkpt lat="48.23748" lon="2.07947">
        <ele>124.4</ele>
        <time>2020-07-02T12:36:56Z</time>
      </trkpt>
      <trkpt lat="48.23742" lon="2.07943">
        <ele>124.5</ele>
        <time>2020-07-02T12:36:57Z</time>
      </trkpt>
      <trkpt lat="48.23738" lon="2.07939">
        <ele>124.5</ele>
        <time>2020-07-02T12:36:58Z</time>
      </trkpt>
      <trkpt lat="48.23734" lon="2.07937">
        <ele>124.6</ele>
        <time>2020-07-02T12:36:59Z</time>
      </trkpt>
      <trkpt lat="48.2373" lon="2.07933">
        <ele>124.7</ele>
        <time>2020-07-02T12:37:00Z</time>
      </trkpt>
      <trkpt lat="48.23725" lon="2.07931">
        <ele>124.8</ele>
        <time>2020-07-02T12:37:01Z</time>
      </trkpt>
      <trkpt lat="48.2372" lon="2.07928">
        <ele>124.9</ele>
        <time>2020-07-02T12:37:02Z</time>
      </trkpt>
      <trkpt lat="48.23715" lon="2.07926">
        <ele>124.9</ele>
        <time>2020-07-02T12:37:03Z</time>
      </trkpt>
      <trkpt lat="48.2371" lon="2.07922">
        <ele>125</ele>
        <time>2020-07-02T12:37:04Z</time>
      </trkpt>
      <trkpt lat="48.23704" lon="2.07919">
        <ele>125.1</ele>
        <time>2020-07-02T12:37:05Z</time>
      </trkpt>
      <trkpt lat="48.23699" lon="2.07916">
        <ele>125.2</ele>
        <time>2020-07-02T12:37:06Z</time>
      </trkpt>
      <trkpt lat="48.23693" lon="2.07913">
        <ele>125.3</ele>
        <time>2020-07-02T12:37:07Z</time>
      </trkpt>
      <trkpt lat="48.23689" lon="2.0791">
        <ele>125.4</ele>
        <time>2020-07-02T12:37:08Z</time>
      </trkpt>
      <trkpt lat="48.23684" lon="2.07907">
        <ele>125.5</ele>
        <time>2020-07-02T12:37:09Z</time>
      </trkpt>
      <trkpt lat="48.2368" lon="2.07904">
        <ele>125.6</ele>
        <time>2020-07-02T12:37:10Z</time>
      </trkpt>
      <trkpt lat="48.23676" lon="2.07901">
        <ele>125.6</ele>
        <time>2020-07-02T12:37:11Z</time>
      </trkpt>
      <trkpt lat="48.23672" lon="2.07898">
        <ele>125.7</ele>
        <time>2020-07-02T12:37:12Z</time>
      </trkpt>
      <trkpt lat="48.23667" lon="2.07895">
        <ele>125.8</ele>
        <time>2020-07-02T12:37:13Z</time>
      </trkpt>
      <trkpt lat="48.23663" lon="2.07892">
        <ele>125.9</ele>
        <time>2020-07-02T12:37:14Z</time>
      </trkpt>
      <trkpt lat="48.23658" lon="2.07889">
        <ele>126</ele>
        <time>2020-07-02T12:37:15Z</time>
      </trkpt>
      <trkpt lat="48.23653" lon="2.07885">
        <ele>126.1</ele>
        <time>2020-07-02T12:37:16Z</time>
      </trkpt>
      <trkpt lat="48.23649" lon="2.07884">
        <ele>126.2</ele>
        <time>2020-07-02T12:37:17Z</time>
      </trkpt>
      <trkpt lat="48.23645" lon="2.07882">
        <ele>126.2</ele>
        <time>2020-07-02T12:37:18Z</time>
      </trkpt>
      <trkpt lat="48.23641" lon="2.07878">
        <ele>126.3</ele>
        <time>2020-07-02T12:37:19Z</time>
      </trkpt>
      <trkpt lat="48.23636" lon="2.07875">
        <ele>126.3</ele>
        <time>2020-07-02T12:37:20Z</time>
      </trkpt>
      <trkpt lat="48.23632" lon="2.07873">
        <ele>126.4</ele>
        <time>2020-07-02T12:37:21Z</time>
      </trkpt>
      <trkpt lat="48.23626" lon="2.07869">
        <ele>126.5</ele>
        <time>2020-07-02T12:37:22Z</time>
      </trkpt>
      <trkpt lat="48.23621" lon="2.07865">
        <ele>126.6</ele>
        <time>2020-07-02T12:37:23Z</time>
      </trkpt>
      <trkpt lat="48.23615" lon="2.07862">
        <ele>126.7</ele>
        <time>2020-07-02T12:37:24Z</time>
      </trkpt>
      <trkpt lat="48.2361" lon="2.07858">
        <ele>126.7</ele>
        <time>2020-07-02T12:37:25Z</time>
      </trkpt>
      <trkpt lat="48.23604" lon="2.07854">
        <ele>126.8</ele>
        <time>2020-07-02T12:37:26Z</time>
      </trkpt>
      <trkpt lat="48.23598" lon="2.07849">
        <ele>126.9</ele>
        <time>2020-07-02T12:37:27Z</time>
      </trkpt>
      <trkpt lat="48.23593" lon="2.07846">
        <ele>127</ele>
        <time>2020-07-02T12:37:28Z</time>
      </trkpt>
      <trkpt lat="48.23589" lon="2.07843">
        <ele>127.1</ele>
        <time>2020-07-02T12:37:29Z</time>
      </trkpt>
      <trkpt lat="48.23585" lon="2.0784">
        <ele>127.2</ele>
        <time>2020-07-02T12:37:30Z</time>
      </trkpt>
      <trkpt lat="48.2358" lon="2.07837">
        <ele>127.2</ele>
        <time>2020-07-02T12:37:31Z</time>
      </trkpt>
      <trkpt lat="48.23575" lon="2.07833">
        <ele>127.3</ele>
        <time>2020-07-02T12:37:32Z</time>
      </trkpt>
      <trkpt lat="48.2357" lon="2.07829">
        <ele>127.4</ele>
        <time>2020-07-02T12:37:33Z</time>
      </trkpt>
      <trkpt lat="48.23565" lon="2.07826">
        <ele>127.4</ele>
        <time>2020-07-02T12:37:34Z</time>
      </trkpt>
      <trkpt lat="48.23559" lon="2.07823">
        <ele>127.5</ele>
        <time>2020-07-02T12:37:35Z</time>
      </trkpt>
      <trkpt lat="48.23554" lon="2.07819">
        <ele>127.6</ele>
        <time>2020-07-02T12:37:36Z</time>
      </trkpt>
      <trkpt lat="48.23549" lon="2.07815">
        <ele>127.6</ele>
        <time>2020-07-02T12:37:37Z</time>
      </trkpt>
      <trkpt lat="48.23544" lon="2.07812">
        <ele>127.7</ele>
        <time>2020-07-02T12:37:38Z</time>
      </trkpt>
      <trkpt lat="48.23539" lon="2.07809">
        <ele>127.8</ele>
        <time>2020-07-02T12:37:39Z</time>
      </trkpt>
      <trkpt lat="48.23534" lon="2.07806">
        <ele>127.9</ele>
        <time>2020-07-02T12:37:40Z</time>
      </trkpt>
      <trkpt lat="48.23529" lon="2.07802">
        <ele>128</ele>
        <time>2020-07-02T12:37:41Z</time>
      </trkpt>
      <trkpt lat="48.23524" lon="2.07799">
        <ele>128.1</ele>
        <time>2020-07-02T12:37:42Z</time>
      </trkpt>
      <trkpt lat="48.23519" lon="2.07796">
        <ele>128.2</ele>
        <time>2020-07-02T12:37:43Z</time>
      </trkpt>
      <trkpt lat="48.23514" lon="2.07793">
        <ele>128.3</ele>
        <time>2020-07-02T12:37:44Z</time>
      </trkpt>
      <trkpt lat="48.23509" lon="2.0779">
        <ele>128.3</ele>
        <time>2020-07-02T12:37:45Z</time>
      </trkpt>
      <trkpt lat="48.23504" lon="2.07788">
        <ele>128.4</ele>
        <time>2020-07-02T12:37:46Z</time>
      </trkpt>
      <trkpt lat="48.23499" lon="2.07784">
        <ele>128.5</ele>
        <time>2020-07-02T12:37:47Z</time>
      </trkpt>
      <trkpt lat="48.23494" lon="2.07781">
        <ele>128.6</ele>
        <time>2020-07-02T12:37:48Z</time>
      </trkpt>
      <trkpt lat="48.23489" lon="2.07777">
        <ele>128.7</ele>
        <time>2020-07-02T12:37:49Z</time>
      </trkpt>
      <trkpt lat="48.23485" lon="2.07773">
        <ele>128.8</ele>
        <time>2020-07-02T12:37:50Z</time>
      </trkpt>
      <trkpt lat="48.2348" lon="2.0777">
        <ele>128.9</ele>
        <time>2020-07-02T12:37:51Z</time>
      </trkpt>
      <trkpt lat="48.23476" lon="2.07766">
        <ele>129</ele>
        <time>2020-07-02T12:37:52Z</time>
      </trkpt>
      <trkpt lat="48.23471" lon="2.07763">
        <ele>129.1</ele>
        <time>2020-07-02T12:37:53Z</time>
      </trkpt>
      <trkpt lat="48.23467" lon="2.0776">
        <ele>129.3</ele>
        <time>2020-07-02T12:37:54Z</time>
      </trkpt>
      <trkpt lat="48.23462" lon="2.07757">
        <ele>129.4</ele>
        <time>2020-07-02T12:37:55Z</time>
      </trkpt>
      <trkpt lat="48.23458" lon="2.07754">
        <ele>129.5</ele>
        <time>2020-07-02T12:37:56Z</time>
      </trkpt>
      <trkpt lat="48.23453" lon="2.07751">
        <ele>129.6</ele>
        <time>2020-07-02T12:37:57Z</time>
      </trkpt>
      <trkpt lat="48.23449" lon="2.07748">
        <ele>129.7</ele>
        <time>2020-07-02T12:37:58Z</time>
      </trkpt>
      <trkpt lat="48.23444" lon="2.07746">
        <ele>129.8</ele>
        <time>2020-07-02T12:37:59Z</time>
      </trkpt>
      <trkpt lat="48.2344" lon="2.07743">
        <ele>130</ele>
        <time>2020-07-02T12:38:00Z</time>
      </trkpt>
      <trkpt lat="48.23436" lon="2.0774">
        <ele>130.1</ele>
        <time>2020-07-02T12:38:01Z</time>
      </trkpt>
      <trkpt lat="48.23431" lon="2.07736">
        <ele>130.2</ele>
        <time>2020-07-02T12:38:02Z</time>
      </trkpt>
      <trkpt lat="48.23426" lon="2.07733">
        <ele>130.3</ele>
        <time>2020-07-02T12:38:03Z</time>
      </trkpt>
      <trkpt lat="48.23421" lon="2.0773">
        <ele>130.4</ele>
        <time>2020-07-02T12:38:04Z</time>
      </trkpt>
      <trkpt lat="48.23416" lon="2.07725">
        <ele>130.6</ele>
        <time>2020-07-02T12:38:05Z</time>
      </trkpt>
      <trkpt lat="48.23412" lon="2.07721">
        <ele>130.7</ele>
        <time>2020-07-02T12:38:06Z</time>
      </trkpt>
      <trkpt lat="48.23406" lon="2.07719">
        <ele>130.8</ele>
        <time>2020-07-02T12:38:07Z</time>
      </trkpt>
      <trkpt lat="48.23401" lon="2.07717">
        <ele>130.9</ele>
        <time>2020-07-02T12:38:08Z</time>
      </trkpt>
      <trkpt lat="48.23397" lon="2.07714">
        <ele>131.1</ele>
        <time>2020-07-02T12:38:09Z</time>
      </trkpt>
      <trkpt lat="48.23391" lon="2.07711">
        <ele>131.3</ele>
        <time>2020-07-02T12:38:10Z</time>
      </trkpt>
      <trkpt lat="48.23386" lon="2.07708">
        <ele>131.5</ele>
        <time>2020-07-02T12:38:11Z</time>
      </trkpt>
      <trkpt lat="48.23381" lon="2.07704">
        <ele>131.7</ele>
        <time>2020-07-02T12:38:12Z</time>
      </trkpt>
      <trkpt lat="48.23377" lon="2.07701">
        <ele>131.8</ele>
        <time>2020-07-02T12:38:13Z</time>
      </trkpt>
      <trkpt lat="48.23373" lon="2.07699">
        <ele>132</ele>
        <time>2020-07-02T12:38:14Z</time>
      </trkpt>
      <trkpt lat="48.2337" lon="2.07696">
        <ele>132.1</ele>
        <time>2020-07-02T12:38:15Z</time>
      </trkpt>
      <trkpt lat="48.23365" lon="2.07692">
        <ele>132.2</ele>
        <time>2020-07-02T12:38:16Z</time>
      </trkpt>
      <trkpt lat="48.23361" lon="2.07689">
        <ele>132.3</ele>
        <time>2020-07-02T12:38:17Z</time>
      </trkpt>
      <trkpt lat="48.23357" lon="2.07686">
        <ele>132.4</ele>
        <time>2020-07-02T12:38:18Z</time>
      </trkpt>
      <trkpt lat="48.23353" lon="2.07683">
        <ele>132.5</ele>
        <time>2020-07-02T12:38:19Z</time>
      </trkpt>
      <trkpt lat="48.23349" lon="2.0768">
        <ele>132.5</ele>
        <time>2020-07-02T12:38:20Z</time>
      </trkpt>
      <trkpt lat="48.23345" lon="2.07677">
        <ele>132.4</ele>
        <time>2020-07-02T12:38:21Z</time>
      </trkpt>
      <trkpt lat="48.23343" lon="2.07672">
        <ele>132.2</ele>
        <time>2020-07-02T12:38:22Z</time>
      </trkpt>
      <trkpt lat="48.2334" lon="2.07667">
        <ele>132.2</ele>
        <time>2020-07-02T12:38:23Z</time>
      </trkpt>
      <trkpt lat="48.23338" lon="2.07663">
        <ele>132.2</ele>
        <time>2020-07-02T12:38:24Z</time>
      </trkpt>
      <trkpt lat="48.23334" lon="2.07657">
        <ele>132.2</ele>
        <time>2020-07-02T12:38:25Z</time>
      </trkpt>
      <trkpt lat="48.23331" lon="2.07653">
        <ele>132.2</ele>
        <time>2020-07-02T12:38:26Z</time>
      </trkpt>
      <trkpt lat="48.23326" lon="2.07652">
        <ele>132.2</ele>
        <time>2020-07-02T12:38:27Z</time>
      </trkpt>
      <trkpt lat="48.23322" lon="2.07654">
        <ele>132.2</ele>
        <time>2020-07-02T12:38:28Z</time>
      </trkpt>
      <trkpt lat="48.23317" lon="2.07656">
        <ele>132.3</ele>
        <time>2020-07-02T12:38:29Z</time>
      </trkpt>
      <trkpt lat="48.23314" lon="2.07657">
        <ele>132.4</ele>
        <time>2020-07-02T12:38:30Z</time>
      </trkpt>
      <trkpt lat="48.23309" lon="2.07657">
        <ele>132.4</ele>
        <time>2020-07-02T12:38:31Z</time>
      </trkpt>
      <trkpt lat="48.23304" lon="2.07653">
        <ele>132.4</ele>
        <time>2020-07-02T12:38:32Z</time>
      </trkpt>
      <trkpt lat="48.233" lon="2.07649">
        <ele>132.4</ele>
        <time>2020-07-02T12:38:33Z</time>
      </trkpt>
      <trkpt lat="48.23295" lon="2.07646">
        <ele>132.4</ele>
        <time>2020-07-02T12:38:34Z</time>
      </trkpt>
      <trkpt lat="48.23291" lon="2.07642">
        <ele>132.4</ele>
        <time>2020-07-02T12:38:35Z</time>
      </trkpt>
      <trkpt lat="48.23286" lon="2.07639">
        <ele>132.4</ele>
        <time>2020-07-02T12:38:36Z</time>
      </trkpt>
      <trkpt lat="48.23281" lon="2.07636">
        <ele>132.4</ele>
        <time>2020-07-02T12:38:37Z</time>
      </trkpt>
      <trkpt lat="48.23276" lon="2.07634">
        <ele>132.4</ele>
        <time>2020-07-02T12:38:38Z</time>
      </trkpt>
      <trkpt lat="48.23272" lon="2.07631">
        <ele>132.4</ele>
        <time>2020-07-02T12:38:39Z</time>
      </trkpt>
      <trkpt lat="48.23268" lon="2.07629">
        <ele>132.4</ele>
        <time>2020-07-02T12:38:40Z</time>
      </trkpt>
      <trkpt lat="48.23263" lon="2.07626">
        <ele>132.4</ele>
        <time>2020-07-02T12:38:41Z</time>
      </trkpt>
      <trkpt lat="48.23259" lon="2.07624">
        <ele>132.4</ele>
        <time>2020-07-02T12:38:42Z</time>
      </trkpt>
      <trkpt lat="48.23254" lon="2.07621">
        <ele>132.4</ele>
        <time>2020-07-02T12:38:43Z</time>
      </trkpt>
      <trkpt lat="48.2325" lon="2.07618">
        <ele>132.4</ele>
        <time>2020-07-02T12:38:44Z</time>
      </trkpt>
      <trkpt lat="48.23244" lon="2.07614">
        <ele>132.4</ele>
        <time>2020-07-02T12:38:45Z</time>
      </trkpt>
      <trkpt lat="48.23239" lon="2.07612">
        <ele>132.4</ele>
        <time>2020-07-02T12:38:46Z</time>
      </trkpt>
      <trkpt lat="48.23234" lon="2.07609">
        <ele>132.4</ele>
        <time>2020-07-02T12:38:47Z</time>
      </trkpt>
      <trkpt lat="48.23228" lon="2.07606">
        <ele>132.3</ele>
        <time>2020-07-02T12:38:48Z</time>
      </trkpt>
      <trkpt lat="48.23223" lon="2.07604">
        <ele>132.3</ele>
        <time>2020-07-02T12:38:49Z</time>
      </trkpt>
      <trkpt lat="48.23218" lon="2.07601">
        <ele>132.3</ele>
        <time>2020-07-02T12:38:50Z</time>
      </trkpt>
      <trkpt lat="48.23212" lon="2.07598">
        <ele>132.3</ele>
        <time>2020-07-02T12:38:51Z</time>
      </trkpt>
      <trkpt lat="48.23207" lon="2.07595">
        <ele>132.2</ele>
        <time>2020-07-02T12:38:52Z</time>
      </trkpt>
      <trkpt lat="48.232" lon="2.07593">
        <ele>132.2</ele>
        <time>2020-07-02T12:38:53Z</time>
      </trkpt>
      <trkpt lat="48.23194" lon="2.0759">
        <ele>132.2</ele>
        <time>2020-07-02T12:38:54Z</time>
      </trkpt>
      <trkpt lat="48.23189" lon="2.07588">
        <ele>132.2</ele>
        <time>2020-07-02T12:38:55Z</time>
      </trkpt>
      <trkpt lat="48.23183" lon="2.07584">
        <ele>132.1</ele>
        <time>2020-07-02T12:38:56Z</time>
      </trkpt>
      <trkpt lat="48.23178" lon="2.07581">
        <ele>132.1</ele>
        <time>2020-07-02T12:38:57Z</time>
      </trkpt>
      <trkpt lat="48.23172" lon="2.07578">
        <ele>132</ele>
        <time>2020-07-02T12:38:58Z</time>
      </trkpt>
      <trkpt lat="48.23166" lon="2.07574">
        <ele>132</ele>
        <time>2020-07-02T12:38:59Z</time>
      </trkpt>
      <trkpt lat="48.2316" lon="2.0757">
        <ele>131.9</ele>
        <time>2020-07-02T12:39:00Z</time>
      </trkpt>
      <trkpt lat="48.23154" lon="2.07567">
        <ele>131.9</ele>
        <time>2020-07-02T12:39:01Z</time>
      </trkpt>
      <trkpt lat="48.23148" lon="2.07564">
        <ele>131.8</ele>
        <time>2020-07-02T12:39:02Z</time>
      </trkpt>
      <trkpt lat="48.23141" lon="2.07561">
        <ele>131.7</ele>
        <time>2020-07-02T12:39:03Z</time>
      </trkpt>
      <trkpt lat="48.23135" lon="2.07558">
        <ele>131.7</ele>
        <time>2020-07-02T12:39:04Z</time>
      </trkpt>
      <trkpt lat="48.23129" lon="2.07556">
        <ele>131.7</ele>
        <time>2020-07-02T12:39:05Z</time>
      </trkpt>
      <trkpt lat="48.23123" lon="2.07554">
        <ele>131.6</ele>
        <time>2020-07-02T12:39:06Z</time>
      </trkpt>
      <trkpt lat="48.23116" lon="2.07552">
        <ele>131.6</ele>
        <time>2020-07-02T12:39:07Z</time>
      </trkpt>
      <trkpt lat="48.2311" lon="2.0755">
        <ele>131.6</ele>
        <time>2020-07-02T12:39:08Z</time>
      </trkpt>
      <trkpt lat="48.23104" lon="2.07547">
        <ele>131.6</ele>
        <time>2020-07-02T12:39:09Z</time>
      </trkpt>
      <trkpt lat="48.23098" lon="2.07545">
        <ele>131.6</ele>
        <time>2020-07-02T12:39:10Z</time>
      </trkpt>
      <trkpt lat="48.23092" lon="2.07543">
        <ele>131.6</ele>
        <time>2020-07-02T12:39:11Z</time>
      </trkpt>
      <trkpt lat="48.23086" lon="2.0754">
        <ele>131.6</ele>
        <time>2020-07-02T12:39:12Z</time>
      </trkpt>
      <trkpt lat="48.2308" lon="2.07538">
        <ele>131.5</ele>
        <time>2020-07-02T12:39:13Z</time>
      </trkpt>
      <trkpt lat="48.23074" lon="2.07535">
        <ele>131.5</ele>
        <time>2020-07-02T12:39:14Z</time>
      </trkpt>
      <trkpt lat="48.23068" lon="2.07532">
        <ele>131.5</ele>
        <time>2020-07-02T12:39:15Z</time>
      </trkpt>
      <trkpt lat="48.23061" lon="2.07529">
        <ele>131.4</ele>
        <time>2020-07-02T12:39:16Z</time>
      </trkpt>
      <trkpt lat="48.23055" lon="2.07526">
        <ele>131.3</ele>
        <time>2020-07-02T12:39:17Z</time>
      </trkpt>
      <trkpt lat="48.23049" lon="2.07523">
        <ele>131.3</ele>
        <time>2020-07-02T12:39:18Z</time>
      </trkpt>
      <trkpt lat="48.23043" lon="2.07519">
        <ele>131.2</ele>
        <time>2020-07-02T12:39:19Z</time>
      </trkpt>
      <trkpt lat="48.23037" lon="2.07516">
        <ele>131.2</ele>
        <time>2020-07-02T12:39:20Z</time>
      </trkpt>
      <trkpt lat="48.23031" lon="2.07514">
        <ele>131.1</ele>
        <time>2020-07-02T12:39:21Z</time>
      </trkpt>
      <trkpt lat="48.23024" lon="2.07511">
        <ele>131</ele>
        <time>2020-07-02T12:39:22Z</time>
      </trkpt>
      <trkpt lat="48.23018" lon="2.07509">
        <ele>131</ele>
        <time>2020-07-02T12:39:23Z</time>
      </trkpt>
      <trkpt lat="48.23012" lon="2.07506">
        <ele>130.9</ele>
        <time>2020-07-02T12:39:24Z</time>
      </trkpt>
      <trkpt lat="48.23006" lon="2.07503">
        <ele>130.9</ele>
        <time>2020-07-02T12:39:25Z</time>
      </trkpt>
      <trkpt lat="48.22999" lon="2.075">
        <ele>130.8</ele>
        <time>2020-07-02T12:39:26Z</time>
      </trkpt>
      <trkpt lat="48.22993" lon="2.07497">
        <ele>130.7</ele>
        <time>2020-07-02T12:39:27Z</time>
      </trkpt>
      <trkpt lat="48.22987" lon="2.07495">
        <ele>130.7</ele>
        <time>2020-07-02T12:39:28Z</time>
      </trkpt>
      <trkpt lat="48.22981" lon="2.07493">
        <ele>130.6</ele>
        <time>2020-07-02T12:39:29Z</time>
      </trkpt>
      <trkpt lat="48.22974" lon="2.0749">
        <ele>130.5</ele>
        <time>2020-07-02T12:39:30Z</time>
      </trkpt>
      <trkpt lat="48.22968" lon="2.07487">
        <ele>130.5</ele>
        <time>2020-07-02T12:39:31Z</time>
      </trkpt>
      <trkpt lat="48.22962" lon="2.07484">
        <ele>130.4</ele>
        <time>2020-07-02T12:39:32Z</time>
      </trkpt>
      <trkpt lat="48.22955" lon="2.07482">
        <ele>130.3</ele>
        <time>2020-07-02T12:39:33Z</time>
      </trkpt>
      <trkpt lat="48.22949" lon="2.07479">
        <ele>129.9</ele>
        <time>2020-07-02T12:39:34Z</time>
      </trkpt>
      <trkpt lat="48.22943" lon="2.07476">
        <ele>129.6</ele>
        <time>2020-07-02T12:39:35Z</time>
      </trkpt>
      <trkpt lat="48.22937" lon="2.07473">
        <ele>129.4</ele>
        <time>2020-07-02T12:39:36Z</time>
      </trkpt>
      <trkpt lat="48.2293" lon="2.07471">
        <ele>129.4</ele>
        <time>2020-07-02T12:39:37Z</time>
      </trkpt>
      <trkpt lat="48.22924" lon="2.07468">
        <ele>129.3</ele>
        <time>2020-07-02T12:39:38Z</time>
      </trkpt>
      <trkpt lat="48.22918" lon="2.07465">
        <ele>129.3</ele>
        <time>2020-07-02T12:39:39Z</time>
      </trkpt>
      <trkpt lat="48.22912" lon="2.07462">
        <ele>129.3</ele>
        <time>2020-07-02T12:39:40Z</time>
      </trkpt>
      <trkpt lat="48.22906" lon="2.0746">
        <ele>129.3</ele>
        <time>2020-07-02T12:39:41Z</time>
      </trkpt>
      <trkpt lat="48.229" lon="2.07457">
        <ele>129.3</ele>
        <time>2020-07-02T12:39:42Z</time>
      </trkpt>
      <trkpt lat="48.22895" lon="2.07453">
        <ele>129.3</ele>
        <time>2020-07-02T12:39:43Z</time>
      </trkpt>
      <trkpt lat="48.22889" lon="2.0745">
        <ele>129.3</ele>
        <time>2020-07-02T12:39:44Z</time>
      </trkpt>
      <trkpt lat="48.22883" lon="2.07447">
        <ele>129.3</ele>
        <time>2020-07-02T12:39:45Z</time>
      </trkpt>
      <trkpt lat="48.22877" lon="2.07445">
        <ele>129.3</ele>
        <time>2020-07-02T12:39:46Z</time>
      </trkpt>
      <trkpt lat="48.22871" lon="2.07442">
        <ele>129.3</ele>
        <time>2020-07-02T12:39:47Z</time>
      </trkpt>
      <trkpt lat="48.22865" lon="2.0744">
        <ele>129.4</ele>
        <time>2020-07-02T12:39:48Z</time>
      </trkpt>
      <trkpt lat="48.22859" lon="2.07438">
        <ele>129.4</ele>
        <time>2020-07-02T12:39:49Z</time>
      </trkpt>
      <trkpt lat="48.22854" lon="2.07435">
        <ele>129.5</ele>
        <time>2020-07-02T12:39:50Z</time>
      </trkpt>
      <trkpt lat="48.22848" lon="2.07432">
        <ele>129.6</ele>
        <time>2020-07-02T12:39:51Z</time>
      </trkpt>
      <trkpt lat="48.22844" lon="2.07431">
        <ele>129.6</ele>
        <time>2020-07-02T12:39:52Z</time>
      </trkpt>
      <trkpt lat="48.22839" lon="2.07429">
        <ele>129.7</ele>
        <time>2020-07-02T12:39:53Z</time>
      </trkpt>
      <trkpt lat="48.22833" lon="2.07427">
        <ele>129.8</ele>
        <time>2020-07-02T12:39:54Z</time>
      </trkpt>
      <trkpt lat="48.22828" lon="2.07425">
        <ele>129.8</ele>
        <time>2020-07-02T12:39:55Z</time>
      </trkpt>
      <trkpt lat="48.22823" lon="2.07422">
        <ele>129.9</ele>
        <time>2020-07-02T12:39:56Z</time>
      </trkpt>
      <trkpt lat="48.22818" lon="2.0742">
        <ele>129.9</ele>
        <time>2020-07-02T12:39:57Z</time>
      </trkpt>
      <trkpt lat="48.22812" lon="2.07419">
        <ele>130</ele>
        <time>2020-07-02T12:39:58Z</time>
      </trkpt>
      <trkpt lat="48.22807" lon="2.07417">
        <ele>130</ele>
        <time>2020-07-02T12:39:59Z</time>
      </trkpt>
      <trkpt lat="48.22801" lon="2.07414">
        <ele>130.1</ele>
        <time>2020-07-02T12:40:00Z</time>
      </trkpt>
      <trkpt lat="48.22796" lon="2.07411">
        <ele>130.1</ele>
        <time>2020-07-02T12:40:01Z</time>
      </trkpt>
      <trkpt lat="48.22791" lon="2.07408">
        <ele>130.2</ele>
        <time>2020-07-02T12:40:02Z</time>
      </trkpt>
      <trkpt lat="48.22788" lon="2.07405">
        <ele>130.2</ele>
        <time>2020-07-02T12:40:03Z</time>
      </trkpt>
      <trkpt lat="48.22783" lon="2.07403">
        <ele>130.3</ele>
        <time>2020-07-02T12:40:04Z</time>
      </trkpt>
      <trkpt lat="48.22778" lon="2.07401">
        <ele>130.3</ele>
        <time>2020-07-02T12:40:05Z</time>
      </trkpt>
      <trkpt lat="48.22773" lon="2.07398">
        <ele>130.4</ele>
        <time>2020-07-02T12:40:06Z</time>
      </trkpt>
      <trkpt lat="48.22767" lon="2.07395">
        <ele>130.5</ele>
        <time>2020-07-02T12:40:07Z</time>
      </trkpt>
      <trkpt lat="48.22762" lon="2.07393">
        <ele>130.5</ele>
        <time>2020-07-02T12:40:08Z</time>
      </trkpt>
      <trkpt lat="48.22757" lon="2.07391">
        <ele>130.6</ele>
        <time>2020-07-02T12:40:09Z</time>
      </trkpt>
      <trkpt lat="48.22753" lon="2.07388">
        <ele>130.6</ele>
        <time>2020-07-02T12:40:10Z</time>
      </trkpt>
      <trkpt lat="48.22747" lon="2.07387">
        <ele>130.7</ele>
        <time>2020-07-02T12:40:11Z</time>
      </trkpt>
      <trkpt lat="48.22742" lon="2.07385">
        <ele>130.7</ele>
        <time>2020-07-02T12:40:12Z</time>
      </trkpt>
      <trkpt lat="48.22737" lon="2.07383">
        <ele>130.8</ele>
        <time>2020-07-02T12:40:13Z</time>
      </trkpt>
      <trkpt lat="48.22732" lon="2.07381">
        <ele>130.8</ele>
        <time>2020-07-02T12:40:14Z</time>
      </trkpt>
      <trkpt lat="48.22726" lon="2.07378">
        <ele>130.9</ele>
        <time>2020-07-02T12:40:15Z</time>
      </trkpt>
      <trkpt lat="48.2272" lon="2.07375">
        <ele>131</ele>
        <time>2020-07-02T12:40:16Z</time>
      </trkpt>
      <trkpt lat="48.22715" lon="2.07373">
        <ele>131</ele>
        <time>2020-07-02T12:40:17Z</time>
      </trkpt>
      <trkpt lat="48.2271" lon="2.0737">
        <ele>131.1</ele>
        <time>2020-07-02T12:40:18Z</time>
      </trkpt>
      <trkpt lat="48.22704" lon="2.07368">
        <ele>131.1</ele>
        <time>2020-07-02T12:40:19Z</time>
      </trkpt>
      <trkpt lat="48.22699" lon="2.07365">
        <ele>131.2</ele>
        <time>2020-07-02T12:40:20Z</time>
      </trkpt>
      <trkpt lat="48.22693" lon="2.07363">
        <ele>131.2</ele>
        <time>2020-07-02T12:40:21Z</time>
      </trkpt>
      <trkpt lat="48.22687" lon="2.07361">
        <ele>131.2</ele>
        <time>2020-07-02T12:40:22Z</time>
      </trkpt>
      <trkpt lat="48.22682" lon="2.07358">
        <ele>131.3</ele>
        <time>2020-07-02T12:40:23Z</time>
      </trkpt>
      <trkpt lat="48.22677" lon="2.07355">
        <ele>131.3</ele>
        <time>2020-07-02T12:40:24Z</time>
      </trkpt>
      <trkpt lat="48.22672" lon="2.07354">
        <ele>131.3</ele>
        <time>2020-07-02T12:40:25Z</time>
      </trkpt>
      <trkpt lat="48.22667" lon="2.07352">
        <ele>131.3</ele>
        <time>2020-07-02T12:40:26Z</time>
      </trkpt>
      <trkpt lat="48.22662" lon="2.07349">
        <ele>131.4</ele>
        <time>2020-07-02T12:40:27Z</time>
      </trkpt>
      <trkpt lat="48.22656" lon="2.07347">
        <ele>131.4</ele>
        <time>2020-07-02T12:40:28Z</time>
      </trkpt>
      <trkpt lat="48.22651" lon="2.07344">
        <ele>131.4</ele>
        <time>2020-07-02T12:40:29Z</time>
      </trkpt>
      <trkpt lat="48.22647" lon="2.07344">
        <ele>131.5</ele>
        <time>2020-07-02T12:40:30Z</time>
      </trkpt>
      <trkpt lat="48.22642" lon="2.07342">
        <ele>131.5</ele>
        <time>2020-07-02T12:40:31Z</time>
      </trkpt>
      <trkpt lat="48.22635" lon="2.07339">
        <ele>131.6</ele>
        <time>2020-07-02T12:40:32Z</time>
      </trkpt>
      <trkpt lat="48.2263" lon="2.07336">
        <ele>131.6</ele>
        <time>2020-07-02T12:40:33Z</time>
      </trkpt>
      <trkpt lat="48.22625" lon="2.07333">
        <ele>131.7</ele>
        <time>2020-07-02T12:40:34Z</time>
      </trkpt>
      <trkpt lat="48.2262" lon="2.0733">
        <ele>131.7</ele>
        <time>2020-07-02T12:40:35Z</time>
      </trkpt>
      <trkpt lat="48.22615" lon="2.07328">
        <ele>131.8</ele>
        <time>2020-07-02T12:40:36Z</time>
      </trkpt>
      <trkpt lat="48.2261" lon="2.07325">
        <ele>131.8</ele>
        <time>2020-07-02T12:40:37Z</time>
      </trkpt>
      <trkpt lat="48.22604" lon="2.07322">
        <ele>131.9</ele>
        <time>2020-07-02T12:40:38Z</time>
      </trkpt>
      <trkpt lat="48.22599" lon="2.07318">
        <ele>131.9</ele>
        <time>2020-07-02T12:40:39Z</time>
      </trkpt>
      <trkpt lat="48.22594" lon="2.07316">
        <ele>132</ele>
        <time>2020-07-02T12:40:40Z</time>
      </trkpt>
      <trkpt lat="48.22589" lon="2.07313">
        <ele>132</ele>
        <time>2020-07-02T12:40:41Z</time>
      </trkpt>
      <trkpt lat="48.22583" lon="2.07311">
        <ele>132</ele>
        <time>2020-07-02T12:40:42Z</time>
      </trkpt>
      <trkpt lat="48.22578" lon="2.07308">
        <ele>131.9</ele>
        <time>2020-07-02T12:40:43Z</time>
      </trkpt>
      <trkpt lat="48.22572" lon="2.07306">
        <ele>131.8</ele>
        <time>2020-07-02T12:40:44Z</time>
      </trkpt>
      <trkpt lat="48.22566" lon="2.07304">
        <ele>131.8</ele>
        <time>2020-07-02T12:40:45Z</time>
      </trkpt>
      <trkpt lat="48.22561" lon="2.07301">
        <ele>131.8</ele>
        <time>2020-07-02T12:40:46Z</time>
      </trkpt>
      <trkpt lat="48.22556" lon="2.07299">
        <ele>131.8</ele>
        <time>2020-07-02T12:40:47Z</time>
      </trkpt>
      <trkpt lat="48.2255" lon="2.07296">
        <ele>131.8</ele>
        <time>2020-07-02T12:40:48Z</time>
      </trkpt>
      <trkpt lat="48.22546" lon="2.07294">
        <ele>131.8</ele>
        <time>2020-07-02T12:40:49Z</time>
      </trkpt>
      <trkpt lat="48.2254" lon="2.07291">
        <ele>131.5</ele>
        <time>2020-07-02T12:40:50Z</time>
      </trkpt>
      <trkpt lat="48.22535" lon="2.07289">
        <ele>131.4</ele>
        <time>2020-07-02T12:40:51Z</time>
      </trkpt>
      <trkpt lat="48.2253" lon="2.07287">
        <ele>131.3</ele>
        <time>2020-07-02T12:40:52Z</time>
      </trkpt>
      <trkpt lat="48.22525" lon="2.07285">
        <ele>131.2</ele>
        <time>2020-07-02T12:40:53Z</time>
      </trkpt>
      <trkpt lat="48.2252" lon="2.07283">
        <ele>131.1</ele>
        <time>2020-07-02T12:40:54Z</time>
      </trkpt>
      <trkpt lat="48.22514" lon="2.07281">
        <ele>131.1</ele>
        <time>2020-07-02T12:40:55Z</time>
      </trkpt>
      <trkpt lat="48.22509" lon="2.07278">
        <ele>131.1</ele>
        <time>2020-07-02T12:40:56Z</time>
      </trkpt>
      <trkpt lat="48.22503" lon="2.07276">
        <ele>131</ele>
        <time>2020-07-02T12:40:57Z</time>
      </trkpt>
      <trkpt lat="48.22499" lon="2.07273">
        <ele>131</ele>
        <time>2020-07-02T12:40:58Z</time>
      </trkpt>
      <trkpt lat="48.22493" lon="2.0727">
        <ele>130.9</ele>
        <time>2020-07-02T12:40:59Z</time>
      </trkpt>
      <trkpt lat="48.22488" lon="2.07268">
        <ele>130.9</ele>
        <time>2020-07-02T12:41:00Z</time>
      </trkpt>
      <trkpt lat="48.22482" lon="2.07265">
        <ele>130.9</ele>
        <time>2020-07-02T12:41:01Z</time>
      </trkpt>
      <trkpt lat="48.22478" lon="2.07263">
        <ele>130.9</ele>
        <time>2020-07-02T12:41:02Z</time>
      </trkpt>
      <trkpt lat="48.22472" lon="2.07262">
        <ele>130.9</ele>
        <time>2020-07-02T12:41:03Z</time>
      </trkpt>
      <trkpt lat="48.22467" lon="2.07259">
        <ele>130.9</ele>
        <time>2020-07-02T12:41:04Z</time>
      </trkpt>
      <trkpt lat="48.22461" lon="2.07258">
        <ele>130.9</ele>
        <time>2020-07-02T12:41:05Z</time>
      </trkpt>
      <trkpt lat="48.22456" lon="2.07256">
        <ele>130.9</ele>
        <time>2020-07-02T12:41:06Z</time>
      </trkpt>
      <trkpt lat="48.22452" lon="2.07254">
        <ele>130.9</ele>
        <time>2020-07-02T12:41:07Z</time>
      </trkpt>
      <trkpt lat="48.22446" lon="2.07251">
        <ele>130.9</ele>
        <time>2020-07-02T12:41:08Z</time>
      </trkpt>
      <trkpt lat="48.22442" lon="2.07249">
        <ele>130.9</ele>
        <time>2020-07-02T12:41:09Z</time>
      </trkpt>
      <trkpt lat="48.22436" lon="2.07247">
        <ele>130.9</ele>
        <time>2020-07-02T12:41:10Z</time>
      </trkpt>
      <trkpt lat="48.2243" lon="2.07245">
        <ele>130.9</ele>
        <time>2020-07-02T12:41:11Z</time>
      </trkpt>
      <trkpt lat="48.22425" lon="2.07242">
        <ele>130.9</ele>
        <time>2020-07-02T12:41:12Z</time>
      </trkpt>
      <trkpt lat="48.22419" lon="2.07238">
        <ele>130.9</ele>
        <time>2020-07-02T12:41:13Z</time>
      </trkpt>
      <trkpt lat="48.22414" lon="2.07235">
        <ele>130.9</ele>
        <time>2020-07-02T12:41:14Z</time>
      </trkpt>
      <trkpt lat="48.22409" lon="2.07233">
        <ele>130.9</ele>
        <time>2020-07-02T12:41:15Z</time>
      </trkpt>
      <trkpt lat="48.22403" lon="2.0723">
        <ele>130.9</ele>
        <time>2020-07-02T12:41:16Z</time>
      </trkpt>
      <trkpt lat="48.22397" lon="2.07226">
        <ele>130.9</ele>
        <time>2020-07-02T12:41:17Z</time>
      </trkpt>
      <trkpt lat="48.22391" lon="2.07224">
        <ele>130.9</ele>
        <time>2020-07-02T12:41:18Z</time>
      </trkpt>
      <trkpt lat="48.22386" lon="2.07221">
        <ele>131</ele>
        <time>2020-07-02T12:41:19Z</time>
      </trkpt>
      <trkpt lat="48.2238" lon="2.07218">
        <ele>131</ele>
        <time>2020-07-02T12:41:20Z</time>
      </trkpt>
      <trkpt lat="48.22374" lon="2.07216">
        <ele>131</ele>
        <time>2020-07-02T12:41:21Z</time>
      </trkpt>
      <trkpt lat="48.22368" lon="2.07213">
        <ele>131.1</ele>
        <time>2020-07-02T12:41:22Z</time>
      </trkpt>
      <trkpt lat="48.22363" lon="2.07211">
        <ele>131.1</ele>
        <time>2020-07-02T12:41:23Z</time>
      </trkpt>
      <trkpt lat="48.22357" lon="2.07209">
        <ele>131.1</ele>
        <time>2020-07-02T12:41:24Z</time>
      </trkpt>
      <trkpt lat="48.22353" lon="2.07207">
        <ele>131.1</ele>
        <time>2020-07-02T12:41:25Z</time>
      </trkpt>
      <trkpt lat="48.22347" lon="2.07204">
        <ele>131.2</ele>
        <time>2020-07-02T12:41:26Z</time>
      </trkpt>
      <trkpt lat="48.22342" lon="2.07202">
        <ele>131.2</ele>
        <time>2020-07-02T12:41:27Z</time>
      </trkpt>
      <trkpt lat="48.22337" lon="2.07199">
        <ele>131.3</ele>
        <time>2020-07-02T12:41:28Z</time>
      </trkpt>
      <trkpt lat="48.22333" lon="2.07198">
        <ele>131.4</ele>
        <time>2020-07-02T12:41:29Z</time>
      </trkpt>
      <trkpt lat="48.22327" lon="2.07194">
        <ele>131.5</ele>
        <time>2020-07-02T12:41:30Z</time>
      </trkpt>
      <trkpt lat="48.22322" lon="2.07192">
        <ele>131.5</ele>
        <time>2020-07-02T12:41:31Z</time>
      </trkpt>
      <trkpt lat="48.22316" lon="2.0719">
        <ele>131.7</ele>
        <time>2020-07-02T12:41:32Z</time>
      </trkpt>
      <trkpt lat="48.2231" lon="2.07187">
        <ele>131.8</ele>
        <time>2020-07-02T12:41:33Z</time>
      </trkpt>
      <trkpt lat="48.22305" lon="2.07185">
        <ele>131.9</ele>
        <time>2020-07-02T12:41:34Z</time>
      </trkpt>
      <trkpt lat="48.223" lon="2.07182">
        <ele>132</ele>
        <time>2020-07-02T12:41:35Z</time>
      </trkpt>
      <trkpt lat="48.22294" lon="2.0718">
        <ele>132.2</ele>
        <time>2020-07-02T12:41:36Z</time>
      </trkpt>
      <trkpt lat="48.22288" lon="2.07177">
        <ele>132.3</ele>
        <time>2020-07-02T12:41:37Z</time>
      </trkpt>
      <trkpt lat="48.22283" lon="2.07173">
        <ele>132.4</ele>
        <time>2020-07-02T12:41:38Z</time>
      </trkpt>
      <trkpt lat="48.22278" lon="2.07171">
        <ele>132.5</ele>
        <time>2020-07-02T12:41:39Z</time>
      </trkpt>
      <trkpt lat="48.22273" lon="2.07168">
        <ele>132.6</ele>
        <time>2020-07-02T12:41:40Z</time>
      </trkpt>
      <trkpt lat="48.22268" lon="2.07166">
        <ele>132.7</ele>
        <time>2020-07-02T12:41:41Z</time>
      </trkpt>
      <trkpt lat="48.22261" lon="2.07163">
        <ele>132.8</ele>
        <time>2020-07-02T12:41:42Z</time>
      </trkpt>
      <trkpt lat="48.22257" lon="2.07162">
        <ele>132.9</ele>
        <time>2020-07-02T12:41:43Z</time>
      </trkpt>
      <trkpt lat="48.22251" lon="2.0716">
        <ele>133</ele>
        <time>2020-07-02T12:41:44Z</time>
      </trkpt>
      <trkpt lat="48.22246" lon="2.07158">
        <ele>133.1</ele>
        <time>2020-07-02T12:41:45Z</time>
      </trkpt>
      <trkpt lat="48.22242" lon="2.07156">
        <ele>133.2</ele>
        <time>2020-07-02T12:41:46Z</time>
      </trkpt>
      <trkpt lat="48.22237" lon="2.07154">
        <ele>133.3</ele>
        <time>2020-07-02T12:41:47Z</time>
      </trkpt>
      <trkpt lat="48.22232" lon="2.07152">
        <ele>133.4</ele>
        <time>2020-07-02T12:41:48Z</time>
      </trkpt>
      <trkpt lat="48.22226" lon="2.07149">
        <ele>133.5</ele>
        <time>2020-07-02T12:41:49Z</time>
      </trkpt>
      <trkpt lat="48.22221" lon="2.07147">
        <ele>133.6</ele>
        <time>2020-07-02T12:41:50Z</time>
      </trkpt>
      <trkpt lat="48.22216" lon="2.07145">
        <ele>133.7</ele>
        <time>2020-07-02T12:41:51Z</time>
      </trkpt>
      <trkpt lat="48.22212" lon="2.07143">
        <ele>133.7</ele>
        <time>2020-07-02T12:41:52Z</time>
      </trkpt>
      <trkpt lat="48.22206" lon="2.07141">
        <ele>133.8</ele>
        <time>2020-07-02T12:41:53Z</time>
      </trkpt>
      <trkpt lat="48.22201" lon="2.0714">
        <ele>133.9</ele>
        <time>2020-07-02T12:41:54Z</time>
      </trkpt>
      <trkpt lat="48.22197" lon="2.07139">
        <ele>134</ele>
        <time>2020-07-02T12:41:55Z</time>
      </trkpt>
      <trkpt lat="48.22192" lon="2.07137">
        <ele>134.1</ele>
        <time>2020-07-02T12:41:56Z</time>
      </trkpt>
      <trkpt lat="48.22187" lon="2.07135">
        <ele>134.2</ele>
        <time>2020-07-02T12:41:57Z</time>
      </trkpt>
      <trkpt lat="48.22181" lon="2.07133">
        <ele>134.2</ele>
        <time>2020-07-02T12:41:58Z</time>
      </trkpt>
      <trkpt lat="48.22176" lon="2.0713">
        <ele>134.1</ele>
        <time>2020-07-02T12:41:59Z</time>
      </trkpt>
      <trkpt lat="48.2217" lon="2.07127">
        <ele>134.1</ele>
        <time>2020-07-02T12:42:00Z</time>
      </trkpt>
      <trkpt lat="48.22165" lon="2.07124">
        <ele>134</ele>
        <time>2020-07-02T12:42:01Z</time>
      </trkpt>
      <trkpt lat="48.22159" lon="2.07121">
        <ele>134</ele>
        <time>2020-07-02T12:42:02Z</time>
      </trkpt>
      <trkpt lat="48.22154" lon="2.07118">
        <ele>134</ele>
        <time>2020-07-02T12:42:03Z</time>
      </trkpt>
      <trkpt lat="48.22149" lon="2.07116">
        <ele>134</ele>
        <time>2020-07-02T12:42:04Z</time>
      </trkpt>
      <trkpt lat="48.22144" lon="2.07114">
        <ele>134</ele>
        <time>2020-07-02T12:42:05Z</time>
      </trkpt>
      <trkpt lat="48.22137" lon="2.07111">
        <ele>134</ele>
        <time>2020-07-02T12:42:06Z</time>
      </trkpt>
      <trkpt lat="48.22132" lon="2.07109">
        <ele>134</ele>
        <time>2020-07-02T12:42:07Z</time>
      </trkpt>
      <trkpt lat="48.22126" lon="2.07106">
        <ele>134.1</ele>
        <time>2020-07-02T12:42:08Z</time>
      </trkpt>
      <trkpt lat="48.22122" lon="2.07104">
        <ele>134.1</ele>
        <time>2020-07-02T12:42:09Z</time>
      </trkpt>
      <trkpt lat="48.22116" lon="2.07101">
        <ele>134.2</ele>
        <time>2020-07-02T12:42:10Z</time>
      </trkpt>
      <trkpt lat="48.2211" lon="2.07098">
        <ele>134.2</ele>
        <time>2020-07-02T12:42:11Z</time>
      </trkpt>
      <trkpt lat="48.22104" lon="2.07095">
        <ele>134.1</ele>
        <time>2020-07-02T12:42:12Z</time>
      </trkpt>
      <trkpt lat="48.22099" lon="2.07092">
        <ele>133.9</ele>
        <time>2020-07-02T12:42:13Z</time>
      </trkpt>
      <trkpt lat="48.22094" lon="2.07089">
        <ele>133.8</ele>
        <time>2020-07-02T12:42:14Z</time>
      </trkpt>
      <trkpt lat="48.22088" lon="2.07086">
        <ele>133.7</ele>
        <time>2020-07-02T12:42:15Z</time>
      </trkpt>
      <trkpt lat="48.22082" lon="2.07084">
        <ele>133.6</ele>
        <time>2020-07-02T12:42:16Z</time>
      </trkpt>
      <trkpt lat="48.22076" lon="2.07082">
        <ele>133.5</ele>
        <time>2020-07-02T12:42:17Z</time>
      </trkpt>
      <trkpt lat="48.2207" lon="2.07079">
        <ele>133.4</ele>
        <time>2020-07-02T12:42:18Z</time>
      </trkpt>
      <trkpt lat="48.22065" lon="2.07077">
        <ele>133.4</ele>
        <time>2020-07-02T12:42:19Z</time>
      </trkpt>
      <trkpt lat="48.22059" lon="2.07074">
        <ele>133.4</ele>
        <time>2020-07-02T12:42:20Z</time>
      </trkpt>
      <trkpt lat="48.22052" lon="2.07071">
        <ele>133.4</ele>
        <time>2020-07-02T12:42:21Z</time>
      </trkpt>
      <trkpt lat="48.22046" lon="2.07067">
        <ele>133.5</ele>
        <time>2020-07-02T12:42:22Z</time>
      </trkpt>
      <trkpt lat="48.2204" lon="2.07064">
        <ele>133.5</ele>
        <time>2020-07-02T12:42:23Z</time>
      </trkpt>
      <trkpt lat="48.22033" lon="2.07061">
        <ele>133.5</ele>
        <time>2020-07-02T12:42:24Z</time>
      </trkpt>
      <trkpt lat="48.22029" lon="2.07058">
        <ele>133.5</ele>
        <time>2020-07-02T12:42:25Z</time>
      </trkpt>
      <trkpt lat="48.22023" lon="2.07055">
        <ele>133.6</ele>
        <time>2020-07-02T12:42:26Z</time>
      </trkpt>
      <trkpt lat="48.22017" lon="2.07053">
        <ele>133.6</ele>
        <time>2020-07-02T12:42:27Z</time>
      </trkpt>
      <trkpt lat="48.22011" lon="2.0705">
        <ele>133.6</ele>
        <time>2020-07-02T12:42:28Z</time>
      </trkpt>
      <trkpt lat="48.22006" lon="2.07048">
        <ele>133.6</ele>
        <time>2020-07-02T12:42:29Z</time>
      </trkpt>
      <trkpt lat="48.21999" lon="2.07046">
        <ele>133.6</ele>
        <time>2020-07-02T12:42:30Z</time>
      </trkpt>
      <trkpt lat="48.21993" lon="2.07043">
        <ele>133.6</ele>
        <time>2020-07-02T12:42:31Z</time>
      </trkpt>
      <trkpt lat="48.21988" lon="2.0704">
        <ele>133.6</ele>
        <time>2020-07-02T12:42:32Z</time>
      </trkpt>
      <trkpt lat="48.21982" lon="2.07038">
        <ele>133.6</ele>
        <time>2020-07-02T12:42:33Z</time>
      </trkpt>
      <trkpt lat="48.21976" lon="2.07036">
        <ele>133.7</ele>
        <time>2020-07-02T12:42:34Z</time>
      </trkpt>
      <trkpt lat="48.2197" lon="2.07033">
        <ele>133.7</ele>
        <time>2020-07-02T12:42:35Z</time>
      </trkpt>
      <trkpt lat="48.21964" lon="2.0703">
        <ele>133.7</ele>
        <time>2020-07-02T12:42:36Z</time>
      </trkpt>
      <trkpt lat="48.21958" lon="2.07028">
        <ele>133.8</ele>
        <time>2020-07-02T12:42:37Z</time>
      </trkpt>
      <trkpt lat="48.21952" lon="2.07025">
        <ele>133.8</ele>
        <time>2020-07-02T12:42:38Z</time>
      </trkpt>
      <trkpt lat="48.21947" lon="2.07023">
        <ele>133.9</ele>
        <time>2020-07-02T12:42:39Z</time>
      </trkpt>
      <trkpt lat="48.2194" lon="2.07019">
        <ele>133.9</ele>
        <time>2020-07-02T12:42:40Z</time>
      </trkpt>
      <trkpt lat="48.21934" lon="2.07017">
        <ele>133.9</ele>
        <time>2020-07-02T12:42:41Z</time>
      </trkpt>
      <trkpt lat="48.21929" lon="2.07014">
        <ele>134</ele>
        <time>2020-07-02T12:42:42Z</time>
      </trkpt>
      <trkpt lat="48.21923" lon="2.07011">
        <ele>134</ele>
        <time>2020-07-02T12:42:43Z</time>
      </trkpt>
      <trkpt lat="48.21918" lon="2.07009">
        <ele>134</ele>
        <time>2020-07-02T12:42:44Z</time>
      </trkpt>
      <trkpt lat="48.21913" lon="2.07007">
        <ele>134.1</ele>
        <time>2020-07-02T12:42:45Z</time>
      </trkpt>
      <trkpt lat="48.21907" lon="2.07004">
        <ele>134.1</ele>
        <time>2020-07-02T12:42:46Z</time>
      </trkpt>
      <trkpt lat="48.21902" lon="2.07001">
        <ele>134.1</ele>
        <time>2020-07-02T12:42:47Z</time>
      </trkpt>
      <trkpt lat="48.21897" lon="2.06998">
        <ele>134.2</ele>
        <time>2020-07-02T12:42:48Z</time>
      </trkpt>
      <trkpt lat="48.21891" lon="2.06995">
        <ele>134.2</ele>
        <time>2020-07-02T12:42:49Z</time>
      </trkpt>
      <trkpt lat="48.21884" lon="2.06992">
        <ele>134.3</ele>
        <time>2020-07-02T12:42:50Z</time>
      </trkpt>
      <trkpt lat="48.21878" lon="2.06991">
        <ele>134.3</ele>
        <time>2020-07-02T12:42:51Z</time>
      </trkpt>
      <trkpt lat="48.21872" lon="2.06989">
        <ele>134.4</ele>
        <time>2020-07-02T12:42:52Z</time>
      </trkpt>
      <trkpt lat="48.21867" lon="2.06987">
        <ele>134.4</ele>
        <time>2020-07-02T12:42:53Z</time>
      </trkpt>
      <trkpt lat="48.21862" lon="2.06984">
        <ele>134.4</ele>
        <time>2020-07-02T12:42:54Z</time>
      </trkpt>
      <trkpt lat="48.21857" lon="2.06981">
        <ele>134.4</ele>
        <time>2020-07-02T12:42:55Z</time>
      </trkpt>
      <trkpt lat="48.21851" lon="2.06978">
        <ele>134.4</ele>
        <time>2020-07-02T12:42:56Z</time>
      </trkpt>
      <trkpt lat="48.21846" lon="2.06976">
        <ele>134.5</ele>
        <time>2020-07-02T12:42:57Z</time>
      </trkpt>
      <trkpt lat="48.2184" lon="2.06973">
        <ele>134.5</ele>
        <time>2020-07-02T12:42:58Z</time>
      </trkpt>
      <trkpt lat="48.21834" lon="2.06971">
        <ele>134.5</ele>
        <time>2020-07-02T12:42:59Z</time>
      </trkpt>
      <trkpt lat="48.21828" lon="2.06969">
        <ele>134.6</ele>
        <time>2020-07-02T12:43:00Z</time>
      </trkpt>
      <trkpt lat="48.21823" lon="2.06967">
        <ele>134.7</ele>
        <time>2020-07-02T12:43:01Z</time>
      </trkpt>
      <trkpt lat="48.21818" lon="2.06965">
        <ele>134.8</ele>
        <time>2020-07-02T12:43:02Z</time>
      </trkpt>
      <trkpt lat="48.21812" lon="2.06963">
        <ele>134.9</ele>
        <time>2020-07-02T12:43:03Z</time>
      </trkpt>
      <trkpt lat="48.21806" lon="2.0696">
        <ele>134.6</ele>
        <time>2020-07-02T12:43:04Z</time>
      </trkpt>
      <trkpt lat="48.21799" lon="2.06958">
        <ele>134.4</ele>
        <time>2020-07-02T12:43:05Z</time>
      </trkpt>
      <trkpt lat="48.21794" lon="2.06955">
        <ele>134.3</ele>
        <time>2020-07-02T12:43:06Z</time>
      </trkpt>
      <trkpt lat="48.21788" lon="2.06954">
        <ele>134.3</ele>
        <time>2020-07-02T12:43:07Z</time>
      </trkpt>
      <trkpt lat="48.21782" lon="2.06953">
        <ele>134.2</ele>
        <time>2020-07-02T12:43:08Z</time>
      </trkpt>
      <trkpt lat="48.21776" lon="2.06951">
        <ele>134.1</ele>
        <time>2020-07-02T12:43:09Z</time>
      </trkpt>
      <trkpt lat="48.2177" lon="2.06948">
        <ele>133.9</ele>
        <time>2020-07-02T12:43:10Z</time>
      </trkpt>
      <trkpt lat="48.21764" lon="2.06946">
        <ele>133.8</ele>
        <time>2020-07-02T12:43:11Z</time>
      </trkpt>
      <trkpt lat="48.21757" lon="2.06944">
        <ele>133.7</ele>
        <time>2020-07-02T12:43:12Z</time>
      </trkpt>
      <trkpt lat="48.21751" lon="2.06943">
        <ele>133.6</ele>
        <time>2020-07-02T12:43:13Z</time>
      </trkpt>
      <trkpt lat="48.21745" lon="2.06941">
        <ele>133.5</ele>
        <time>2020-07-02T12:43:14Z</time>
      </trkpt>
      <trkpt lat="48.21739" lon="2.06939">
        <ele>133.4</ele>
        <time>2020-07-02T12:43:15Z</time>
      </trkpt>
      <trkpt lat="48.21733" lon="2.06937">
        <ele>133.4</ele>
        <time>2020-07-02T12:43:16Z</time>
      </trkpt>
      <trkpt lat="48.21727" lon="2.06935">
        <ele>133.4</ele>
        <time>2020-07-02T12:43:17Z</time>
      </trkpt>
      <trkpt lat="48.2172" lon="2.06933">
        <ele>133.4</ele>
        <time>2020-07-02T12:43:18Z</time>
      </trkpt>
      <trkpt lat="48.21714" lon="2.06931">
        <ele>133.4</ele>
        <time>2020-07-02T12:43:19Z</time>
      </trkpt>
      <trkpt lat="48.21707" lon="2.06929">
        <ele>133.3</ele>
        <time>2020-07-02T12:43:20Z</time>
      </trkpt>
      <trkpt lat="48.217" lon="2.06928">
        <ele>133</ele>
        <time>2020-07-02T12:43:21Z</time>
      </trkpt>
      <trkpt lat="48.21694" lon="2.06926">
        <ele>132.8</ele>
        <time>2020-07-02T12:43:22Z</time>
      </trkpt>
      <trkpt lat="48.21688" lon="2.06924">
        <ele>132.6</ele>
        <time>2020-07-02T12:43:23Z</time>
      </trkpt>
      <trkpt lat="48.21681" lon="2.06922">
        <ele>132.4</ele>
        <time>2020-07-02T12:43:24Z</time>
      </trkpt>
      <trkpt lat="48.21675" lon="2.0692">
        <ele>132.2</ele>
        <time>2020-07-02T12:43:25Z</time>
      </trkpt>
      <trkpt lat="48.21668" lon="2.06918">
        <ele>132.1</ele>
        <time>2020-07-02T12:43:26Z</time>
      </trkpt>
      <trkpt lat="48.21662" lon="2.06916">
        <ele>132.1</ele>
        <time>2020-07-02T12:43:27Z</time>
      </trkpt>
      <trkpt lat="48.21656" lon="2.06914">
        <ele>132</ele>
        <time>2020-07-02T12:43:28Z</time>
      </trkpt>
      <trkpt lat="48.21649" lon="2.06912">
        <ele>132</ele>
        <time>2020-07-02T12:43:29Z</time>
      </trkpt>
      <trkpt lat="48.21643" lon="2.0691">
        <ele>131.9</ele>
        <time>2020-07-02T12:43:30Z</time>
      </trkpt>
      <trkpt lat="48.21637" lon="2.06908">
        <ele>131.9</ele>
        <time>2020-07-02T12:43:31Z</time>
      </trkpt>
      <trkpt lat="48.2163" lon="2.06906">
        <ele>131.8</ele>
        <time>2020-07-02T12:43:32Z</time>
      </trkpt>
      <trkpt lat="48.21624" lon="2.06904">
        <ele>131.7</ele>
        <time>2020-07-02T12:43:33Z</time>
      </trkpt>
      <trkpt lat="48.21618" lon="2.06902">
        <ele>131.7</ele>
        <time>2020-07-02T12:43:34Z</time>
      </trkpt>
      <trkpt lat="48.21611" lon="2.06899">
        <ele>131.7</ele>
        <time>2020-07-02T12:43:35Z</time>
      </trkpt>
      <trkpt lat="48.21605" lon="2.06897">
        <ele>131.6</ele>
        <time>2020-07-02T12:43:36Z</time>
      </trkpt>
      <trkpt lat="48.21599" lon="2.06896">
        <ele>131.6</ele>
        <time>2020-07-02T12:43:37Z</time>
      </trkpt>
      <trkpt lat="48.21593" lon="2.06893">
        <ele>131.6</ele>
        <time>2020-07-02T12:43:38Z</time>
      </trkpt>
      <trkpt lat="48.21586" lon="2.06891">
        <ele>131.6</ele>
        <time>2020-07-02T12:43:39Z</time>
      </trkpt>
      <trkpt lat="48.2158" lon="2.06889">
        <ele>131.5</ele>
        <time>2020-07-02T12:43:40Z</time>
      </trkpt>
      <trkpt lat="48.21574" lon="2.06886">
        <ele>131.5</ele>
        <time>2020-07-02T12:43:41Z</time>
      </trkpt>
      <trkpt lat="48.21568" lon="2.06884">
        <ele>131.5</ele>
        <time>2020-07-02T12:43:42Z</time>
      </trkpt>
      <trkpt lat="48.21561" lon="2.06882">
        <ele>131.4</ele>
        <time>2020-07-02T12:43:43Z</time>
      </trkpt>
      <trkpt lat="48.21555" lon="2.0688">
        <ele>131.4</ele>
        <time>2020-07-02T12:43:44Z</time>
      </trkpt>
      <trkpt lat="48.21549" lon="2.06877">
        <ele>131.4</ele>
        <time>2020-07-02T12:43:45Z</time>
      </trkpt>
      <trkpt lat="48.21542" lon="2.06875">
        <ele>131.4</ele>
        <time>2020-07-02T12:43:46Z</time>
      </trkpt>
      <trkpt lat="48.21536" lon="2.06873">
        <ele>131.4</ele>
        <time>2020-07-02T12:43:47Z</time>
      </trkpt>
      <trkpt lat="48.2153" lon="2.06872">
        <ele>131.4</ele>
        <time>2020-07-02T12:43:48Z</time>
      </trkpt>
      <trkpt lat="48.21524" lon="2.0687">
        <ele>131.3</ele>
        <time>2020-07-02T12:43:49Z</time>
      </trkpt>
      <trkpt lat="48.21517" lon="2.06868">
        <ele>131.3</ele>
        <time>2020-07-02T12:43:50Z</time>
      </trkpt>
      <trkpt lat="48.21511" lon="2.06866">
        <ele>131.3</ele>
        <time>2020-07-02T12:43:51Z</time>
      </trkpt>
      <trkpt lat="48.21505" lon="2.06864">
        <ele>131.3</ele>
        <time>2020-07-02T12:43:52Z</time>
      </trkpt>
      <trkpt lat="48.21498" lon="2.06862">
        <ele>131.3</ele>
        <time>2020-07-02T12:43:53Z</time>
      </trkpt>
      <trkpt lat="48.21492" lon="2.0686">
        <ele>131.4</ele>
        <time>2020-07-02T12:43:54Z</time>
      </trkpt>
      <trkpt lat="48.21486" lon="2.06858">
        <ele>131.4</ele>
        <time>2020-07-02T12:43:55Z</time>
      </trkpt>
      <trkpt lat="48.2148" lon="2.06856">
        <ele>131.5</ele>
        <time>2020-07-02T12:43:56Z</time>
      </trkpt>
      <trkpt lat="48.21474" lon="2.06855">
        <ele>131.5</ele>
        <time>2020-07-02T12:43:57Z</time>
      </trkpt>
      <trkpt lat="48.21467" lon="2.06853">
        <ele>131.6</ele>
        <time>2020-07-02T12:43:58Z</time>
      </trkpt>
      <trkpt lat="48.21461" lon="2.06851">
        <ele>131.6</ele>
        <time>2020-07-02T12:43:59Z</time>
      </trkpt>
      <trkpt lat="48.21455" lon="2.0685">
        <ele>131.7</ele>
        <time>2020-07-02T12:44:00Z</time>
      </trkpt>
      <trkpt lat="48.21449" lon="2.06848">
        <ele>131.7</ele>
        <time>2020-07-02T12:44:01Z</time>
      </trkpt>
      <trkpt lat="48.21443" lon="2.06846">
        <ele>131.8</ele>
        <time>2020-07-02T12:44:02Z</time>
      </trkpt>
      <trkpt lat="48.21437" lon="2.06844">
        <ele>131.8</ele>
        <time>2020-07-02T12:44:03Z</time>
      </trkpt>
      <trkpt lat="48.21431" lon="2.06842">
        <ele>131.9</ele>
        <time>2020-07-02T12:44:04Z</time>
      </trkpt>
      <trkpt lat="48.21425" lon="2.0684">
        <ele>131.9</ele>
        <time>2020-07-02T12:44:05Z</time>
      </trkpt>
      <trkpt lat="48.21419" lon="2.06839">
        <ele>132</ele>
        <time>2020-07-02T12:44:06Z</time>
      </trkpt>
      <trkpt lat="48.21413" lon="2.06836">
        <ele>132</ele>
        <time>2020-07-02T12:44:07Z</time>
      </trkpt>
      <trkpt lat="48.21407" lon="2.06834">
        <ele>132.1</ele>
        <time>2020-07-02T12:44:08Z</time>
      </trkpt>
      <trkpt lat="48.21401" lon="2.06833">
        <ele>132.1</ele>
        <time>2020-07-02T12:44:09Z</time>
      </trkpt>
      <trkpt lat="48.21396" lon="2.0683">
        <ele>132.2</ele>
        <time>2020-07-02T12:44:10Z</time>
      </trkpt>
      <trkpt lat="48.21391" lon="2.0683">
        <ele>132.2</ele>
        <time>2020-07-02T12:44:11Z</time>
      </trkpt>
      <trkpt lat="48.21385" lon="2.06828">
        <ele>132.2</ele>
        <time>2020-07-02T12:44:12Z</time>
      </trkpt>
      <trkpt lat="48.21379" lon="2.06826">
        <ele>132.3</ele>
        <time>2020-07-02T12:44:13Z</time>
      </trkpt>
      <trkpt lat="48.21374" lon="2.06824">
        <ele>132.3</ele>
        <time>2020-07-02T12:44:14Z</time>
      </trkpt>
      <trkpt lat="48.21368" lon="2.06823">
        <ele>132.4</ele>
        <time>2020-07-02T12:44:15Z</time>
      </trkpt>
      <trkpt lat="48.21362" lon="2.06821">
        <ele>132.4</ele>
        <time>2020-07-02T12:44:16Z</time>
      </trkpt>
      <trkpt lat="48.21357" lon="2.06818">
        <ele>132.5</ele>
        <time>2020-07-02T12:44:17Z</time>
      </trkpt>
      <trkpt lat="48.21351" lon="2.06816">
        <ele>132.6</ele>
        <time>2020-07-02T12:44:18Z</time>
      </trkpt>
      <trkpt lat="48.21345" lon="2.06814">
        <ele>132.6</ele>
        <time>2020-07-02T12:44:19Z</time>
      </trkpt>
      <trkpt lat="48.2134" lon="2.06812">
        <ele>132.7</ele>
        <time>2020-07-02T12:44:20Z</time>
      </trkpt>
      <trkpt lat="48.21334" lon="2.0681">
        <ele>132.8</ele>
        <time>2020-07-02T12:44:21Z</time>
      </trkpt>
      <trkpt lat="48.21329" lon="2.06808">
        <ele>132.8</ele>
        <time>2020-07-02T12:44:22Z</time>
      </trkpt>
      <trkpt lat="48.21323" lon="2.06806">
        <ele>132.8</ele>
        <time>2020-07-02T12:44:23Z</time>
      </trkpt>
      <trkpt lat="48.21318" lon="2.06804">
        <ele>132.9</ele>
        <time>2020-07-02T12:44:24Z</time>
      </trkpt>
      <trkpt lat="48.21312" lon="2.06803">
        <ele>133</ele>
        <time>2020-07-02T12:44:25Z</time>
      </trkpt>
      <trkpt lat="48.21307" lon="2.06801">
        <ele>133</ele>
        <time>2020-07-02T12:44:26Z</time>
      </trkpt>
      <trkpt lat="48.21301" lon="2.06799">
        <ele>133.1</ele>
        <time>2020-07-02T12:44:27Z</time>
      </trkpt>
      <trkpt lat="48.21296" lon="2.06798">
        <ele>133.2</ele>
        <time>2020-07-02T12:44:28Z</time>
      </trkpt>
      <trkpt lat="48.21291" lon="2.06797">
        <ele>133.2</ele>
        <time>2020-07-02T12:44:29Z</time>
      </trkpt>
      <trkpt lat="48.21285" lon="2.06795">
        <ele>133.3</ele>
        <time>2020-07-02T12:44:30Z</time>
      </trkpt>
      <trkpt lat="48.21279" lon="2.06792">
        <ele>133.5</ele>
        <time>2020-07-02T12:44:31Z</time>
      </trkpt>
      <trkpt lat="48.21273" lon="2.0679">
        <ele>133.6</ele>
        <time>2020-07-02T12:44:32Z</time>
      </trkpt>
      <trkpt lat="48.21268" lon="2.06789">
        <ele>133.7</ele>
        <time>2020-07-02T12:44:33Z</time>
      </trkpt>
      <trkpt lat="48.21263" lon="2.06787">
        <ele>133.7</ele>
        <time>2020-07-02T12:44:34Z</time>
      </trkpt>
      <trkpt lat="48.21257" lon="2.06785">
        <ele>133.7</ele>
        <time>2020-07-02T12:44:35Z</time>
      </trkpt>
      <trkpt lat="48.21252" lon="2.06784">
        <ele>133.7</ele>
        <time>2020-07-02T12:44:36Z</time>
      </trkpt>
      <trkpt lat="48.21246" lon="2.06781">
        <ele>133.7</ele>
        <time>2020-07-02T12:44:37Z</time>
      </trkpt>
      <trkpt lat="48.2124" lon="2.06779">
        <ele>133.8</ele>
        <time>2020-07-02T12:44:38Z</time>
      </trkpt>
      <trkpt lat="48.21235" lon="2.06777">
        <ele>133.8</ele>
        <time>2020-07-02T12:44:39Z</time>
      </trkpt>
      <trkpt lat="48.21229" lon="2.06774">
        <ele>133.8</ele>
        <time>2020-07-02T12:44:40Z</time>
      </trkpt>
      <trkpt lat="48.21223" lon="2.06772">
        <ele>133.9</ele>
        <time>2020-07-02T12:44:41Z</time>
      </trkpt>
      <trkpt lat="48.21217" lon="2.06771">
        <ele>133.9</ele>
        <time>2020-07-02T12:44:42Z</time>
      </trkpt>
      <trkpt lat="48.21212" lon="2.06769">
        <ele>134</ele>
        <time>2020-07-02T12:44:43Z</time>
      </trkpt>
      <trkpt lat="48.21206" lon="2.06768">
        <ele>134</ele>
        <time>2020-07-02T12:44:44Z</time>
      </trkpt>
      <trkpt lat="48.21202" lon="2.06767">
        <ele>134.1</ele>
        <time>2020-07-02T12:44:45Z</time>
      </trkpt>
      <trkpt lat="48.21197" lon="2.06766">
        <ele>134.1</ele>
        <time>2020-07-02T12:44:46Z</time>
      </trkpt>
      <trkpt lat="48.21192" lon="2.06766">
        <ele>134.2</ele>
        <time>2020-07-02T12:44:47Z</time>
      </trkpt>
      <trkpt lat="48.21186" lon="2.06764">
        <ele>134.2</ele>
        <time>2020-07-02T12:44:48Z</time>
      </trkpt>
      <trkpt lat="48.2118" lon="2.06761">
        <ele>134.3</ele>
        <time>2020-07-02T12:44:49Z</time>
      </trkpt>
      <trkpt lat="48.21175" lon="2.06759">
        <ele>134.3</ele>
        <time>2020-07-02T12:44:50Z</time>
      </trkpt>
      <trkpt lat="48.21171" lon="2.06758">
        <ele>134.3</ele>
        <time>2020-07-02T12:44:51Z</time>
      </trkpt>
      <trkpt lat="48.21165" lon="2.06756">
        <ele>134.4</ele>
        <time>2020-07-02T12:44:52Z</time>
      </trkpt>
      <trkpt lat="48.2116" lon="2.06755">
        <ele>134.4</ele>
        <time>2020-07-02T12:44:53Z</time>
      </trkpt>
      <trkpt lat="48.21154" lon="2.06754">
        <ele>134.5</ele>
        <time>2020-07-02T12:44:54Z</time>
      </trkpt>
      <trkpt lat="48.21149" lon="2.06752">
        <ele>134.6</ele>
        <time>2020-07-02T12:44:55Z</time>
      </trkpt>
      <trkpt lat="48.21143" lon="2.0675">
        <ele>134.6</ele>
        <time>2020-07-02T12:44:56Z</time>
      </trkpt>
      <trkpt lat="48.21138" lon="2.06748">
        <ele>134.5</ele>
        <time>2020-07-02T12:44:57Z</time>
      </trkpt>
      <trkpt lat="48.21133" lon="2.06746">
        <ele>134.4</ele>
        <time>2020-07-02T12:44:58Z</time>
      </trkpt>
      <trkpt lat="48.21128" lon="2.06745">
        <ele>134.3</ele>
        <time>2020-07-02T12:44:59Z</time>
      </trkpt>
      <trkpt lat="48.21122" lon="2.06744">
        <ele>134.2</ele>
        <time>2020-07-02T12:45:00Z</time>
      </trkpt>
      <trkpt lat="48.21118" lon="2.06742">
        <ele>134.2</ele>
        <time>2020-07-02T12:45:01Z</time>
      </trkpt>
      <trkpt lat="48.21112" lon="2.06739">
        <ele>134.1</ele>
        <time>2020-07-02T12:45:02Z</time>
      </trkpt>
      <trkpt lat="48.21107" lon="2.06737">
        <ele>134.1</ele>
        <time>2020-07-02T12:45:03Z</time>
      </trkpt>
      <trkpt lat="48.21102" lon="2.06736">
        <ele>134.1</ele>
        <time>2020-07-02T12:45:04Z</time>
      </trkpt>
      <trkpt lat="48.21096" lon="2.06734">
        <ele>134.1</ele>
        <time>2020-07-02T12:45:05Z</time>
      </trkpt>
      <trkpt lat="48.21091" lon="2.06733">
        <ele>134.1</ele>
        <time>2020-07-02T12:45:06Z</time>
      </trkpt>
      <trkpt lat="48.21085" lon="2.06732">
        <ele>134.1</ele>
        <time>2020-07-02T12:45:07Z</time>
      </trkpt>
      <trkpt lat="48.2108" lon="2.06732">
        <ele>134.1</ele>
        <time>2020-07-02T12:45:08Z</time>
      </trkpt>
      <trkpt lat="48.21074" lon="2.0673">
        <ele>134.1</ele>
        <time>2020-07-02T12:45:09Z</time>
      </trkpt>
      <trkpt lat="48.21069" lon="2.06728">
        <ele>134.1</ele>
        <time>2020-07-02T12:45:10Z</time>
      </trkpt>
      <trkpt lat="48.21063" lon="2.06727">
        <ele>134.1</ele>
        <time>2020-07-02T12:45:11Z</time>
      </trkpt>
      <trkpt lat="48.21058" lon="2.06724">
        <ele>134.1</ele>
        <time>2020-07-02T12:45:12Z</time>
      </trkpt>
      <trkpt lat="48.21051" lon="2.06722">
        <ele>134</ele>
        <time>2020-07-02T12:45:13Z</time>
      </trkpt>
      <trkpt lat="48.21046" lon="2.06721">
        <ele>134</ele>
        <time>2020-07-02T12:45:14Z</time>
      </trkpt>
      <trkpt lat="48.21039" lon="2.06718">
        <ele>133.9</ele>
        <time>2020-07-02T12:45:15Z</time>
      </trkpt>
      <trkpt lat="48.21033" lon="2.06716">
        <ele>133.9</ele>
        <time>2020-07-02T12:45:16Z</time>
      </trkpt>
      <trkpt lat="48.21027" lon="2.06715">
        <ele>133.8</ele>
        <time>2020-07-02T12:45:17Z</time>
      </trkpt>
      <trkpt lat="48.2102" lon="2.06713">
        <ele>133.7</ele>
        <time>2020-07-02T12:45:18Z</time>
      </trkpt>
      <trkpt lat="48.21015" lon="2.06711">
        <ele>133.7</ele>
        <time>2020-07-02T12:45:19Z</time>
      </trkpt>
      <trkpt lat="48.21008" lon="2.06709">
        <ele>133.6</ele>
        <time>2020-07-02T12:45:20Z</time>
      </trkpt>
      <trkpt lat="48.21001" lon="2.06707">
        <ele>133.5</ele>
        <time>2020-07-02T12:45:21Z</time>
      </trkpt>
      <trkpt lat="48.20995" lon="2.06705">
        <ele>133.4</ele>
        <time>2020-07-02T12:45:22Z</time>
      </trkpt>
      <trkpt lat="48.20989" lon="2.06703">
        <ele>133.3</ele>
        <time>2020-07-02T12:45:23Z</time>
      </trkpt>
      <trkpt lat="48.20982" lon="2.06701">
        <ele>133.2</ele>
        <time>2020-07-02T12:45:24Z</time>
      </trkpt>
      <trkpt lat="48.20976" lon="2.06699">
        <ele>133.1</ele>
        <time>2020-07-02T12:45:25Z</time>
      </trkpt>
      <trkpt lat="48.20969" lon="2.06696">
        <ele>133</ele>
        <time>2020-07-02T12:45:26Z</time>
      </trkpt>
      <trkpt lat="48.20962" lon="2.06693">
        <ele>132.9</ele>
        <time>2020-07-02T12:45:27Z</time>
      </trkpt>
      <trkpt lat="48.20956" lon="2.06691">
        <ele>132.8</ele>
        <time>2020-07-02T12:45:28Z</time>
      </trkpt>
      <trkpt lat="48.20949" lon="2.06689">
        <ele>132.6</ele>
        <time>2020-07-02T12:45:29Z</time>
      </trkpt>
      <trkpt lat="48.20943" lon="2.06687">
        <ele>132.5</ele>
        <time>2020-07-02T12:45:30Z</time>
      </trkpt>
      <trkpt lat="48.20937" lon="2.06684">
        <ele>132.4</ele>
        <time>2020-07-02T12:45:31Z</time>
      </trkpt>
      <trkpt lat="48.2093" lon="2.06682">
        <ele>132.4</ele>
        <time>2020-07-02T12:45:32Z</time>
      </trkpt>
      <trkpt lat="48.20923" lon="2.06679">
        <ele>132.3</ele>
        <time>2020-07-02T12:45:33Z</time>
      </trkpt>
      <trkpt lat="48.20917" lon="2.06676">
        <ele>132.2</ele>
        <time>2020-07-02T12:45:34Z</time>
      </trkpt>
      <trkpt lat="48.2091" lon="2.06673">
        <ele>132</ele>
        <time>2020-07-02T12:45:35Z</time>
      </trkpt>
      <trkpt lat="48.20904" lon="2.0667">
        <ele>131.9</ele>
        <time>2020-07-02T12:45:36Z</time>
      </trkpt>
      <trkpt lat="48.20898" lon="2.06667">
        <ele>131.8</ele>
        <time>2020-07-02T12:45:37Z</time>
      </trkpt>
      <trkpt lat="48.20891" lon="2.06664">
        <ele>131.7</ele>
        <time>2020-07-02T12:45:38Z</time>
      </trkpt>
      <trkpt lat="48.20885" lon="2.06661">
        <ele>131.6</ele>
        <time>2020-07-02T12:45:39Z</time>
      </trkpt>
      <trkpt lat="48.20879" lon="2.06658">
        <ele>131.4</ele>
        <time>2020-07-02T12:45:40Z</time>
      </trkpt>
      <trkpt lat="48.20873" lon="2.06655">
        <ele>131.3</ele>
        <time>2020-07-02T12:45:41Z</time>
      </trkpt>
      <trkpt lat="48.20866" lon="2.06652">
        <ele>131.2</ele>
        <time>2020-07-02T12:45:42Z</time>
      </trkpt>
      <trkpt lat="48.2086" lon="2.0665">
        <ele>131.2</ele>
        <time>2020-07-02T12:45:43Z</time>
      </trkpt>
      <trkpt lat="48.20854" lon="2.06647">
        <ele>131.1</ele>
        <time>2020-07-02T12:45:44Z</time>
      </trkpt>
      <trkpt lat="48.20848" lon="2.06645">
        <ele>131</ele>
        <time>2020-07-02T12:45:45Z</time>
      </trkpt>
      <trkpt lat="48.20842" lon="2.06642">
        <ele>130.9</ele>
        <time>2020-07-02T12:45:46Z</time>
      </trkpt>
      <trkpt lat="48.20836" lon="2.06639">
        <ele>130.9</ele>
        <time>2020-07-02T12:45:47Z</time>
      </trkpt>
      <trkpt lat="48.2083" lon="2.06636">
        <ele>130.8</ele>
        <time>2020-07-02T12:45:48Z</time>
      </trkpt>
      <trkpt lat="48.20824" lon="2.06633">
        <ele>130.7</ele>
        <time>2020-07-02T12:45:49Z</time>
      </trkpt>
      <trkpt lat="48.20818" lon="2.0663">
        <ele>130.7</ele>
        <time>2020-07-02T12:45:50Z</time>
      </trkpt>
      <trkpt lat="48.20812" lon="2.06627">
        <ele>130.6</ele>
        <time>2020-07-02T12:45:51Z</time>
      </trkpt>
      <trkpt lat="48.20806" lon="2.06624">
        <ele>130.5</ele>
        <time>2020-07-02T12:45:52Z</time>
      </trkpt>
      <trkpt lat="48.208" lon="2.06621">
        <ele>130.5</ele>
        <time>2020-07-02T12:45:53Z</time>
      </trkpt>
      <trkpt lat="48.20794" lon="2.06618">
        <ele>130.4</ele>
        <time>2020-07-02T12:45:54Z</time>
      </trkpt>
      <trkpt lat="48.20788" lon="2.06615">
        <ele>130.4</ele>
        <time>2020-07-02T12:45:55Z</time>
      </trkpt>
      <trkpt lat="48.20782" lon="2.06612">
        <ele>130.3</ele>
        <time>2020-07-02T12:45:56Z</time>
      </trkpt>
      <trkpt lat="48.20776" lon="2.06609">
        <ele>130.3</ele>
        <time>2020-07-02T12:45:57Z</time>
      </trkpt>
      <trkpt lat="48.2077" lon="2.06606">
        <ele>130.3</ele>
        <time>2020-07-02T12:45:58Z</time>
      </trkpt>
      <trkpt lat="48.20764" lon="2.06602">
        <ele>130.1</ele>
        <time>2020-07-02T12:45:59Z</time>
      </trkpt>
      <trkpt lat="48.20758" lon="2.06599">
        <ele>129.8</ele>
        <time>2020-07-02T12:46:00Z</time>
      </trkpt>
      <trkpt lat="48.20752" lon="2.06596">
        <ele>129.7</ele>
        <time>2020-07-02T12:46:01Z</time>
      </trkpt>
      <trkpt lat="48.20746" lon="2.06593">
        <ele>129.9</ele>
        <time>2020-07-02T12:46:02Z</time>
      </trkpt>
      <trkpt lat="48.2074" lon="2.06591">
        <ele>130</ele>
        <time>2020-07-02T12:46:03Z</time>
      </trkpt>
      <trkpt lat="48.20734" lon="2.06588">
        <ele>129.8</ele>
        <time>2020-07-02T12:46:04Z</time>
      </trkpt>
      <trkpt lat="48.20728" lon="2.06585">
        <ele>129.6</ele>
        <time>2020-07-02T12:46:05Z</time>
      </trkpt>
      <trkpt lat="48.20722" lon="2.06582">
        <ele>129.5</ele>
        <time>2020-07-02T12:46:06Z</time>
      </trkpt>
      <trkpt lat="48.20716" lon="2.06579">
        <ele>129.3</ele>
        <time>2020-07-02T12:46:07Z</time>
      </trkpt>
      <trkpt lat="48.2071" lon="2.06576">
        <ele>129.2</ele>
        <time>2020-07-02T12:46:08Z</time>
      </trkpt>
      <trkpt lat="48.20703" lon="2.06573">
        <ele>129.1</ele>
        <time>2020-07-02T12:46:09Z</time>
      </trkpt>
      <trkpt lat="48.20697" lon="2.0657">
        <ele>129</ele>
        <time>2020-07-02T12:46:10Z</time>
      </trkpt>
      <trkpt lat="48.2069" lon="2.06567">
        <ele>128.9</ele>
        <time>2020-07-02T12:46:11Z</time>
      </trkpt>
      <trkpt lat="48.20683" lon="2.06564">
        <ele>128.8</ele>
        <time>2020-07-02T12:46:12Z</time>
      </trkpt>
      <trkpt lat="48.20676" lon="2.06561">
        <ele>128.8</ele>
        <time>2020-07-02T12:46:13Z</time>
      </trkpt>
      <trkpt lat="48.2067" lon="2.06558">
        <ele>128.7</ele>
        <time>2020-07-02T12:46:14Z</time>
      </trkpt>
      <trkpt lat="48.20664" lon="2.06554">
        <ele>128.7</ele>
        <time>2020-07-02T12:46:15Z</time>
      </trkpt>
      <trkpt lat="48.20657" lon="2.06552">
        <ele>128.6</ele>
        <time>2020-07-02T12:46:16Z</time>
      </trkpt>
      <trkpt lat="48.20651" lon="2.06547">
        <ele>128.6</ele>
        <time>2020-07-02T12:46:17Z</time>
      </trkpt>
      <trkpt lat="48.20644" lon="2.06545">
        <ele>128.5</ele>
        <time>2020-07-02T12:46:18Z</time>
      </trkpt>
      <trkpt lat="48.20637" lon="2.06542">
        <ele>128.4</ele>
        <time>2020-07-02T12:46:19Z</time>
      </trkpt>
      <trkpt lat="48.20631" lon="2.0654">
        <ele>128.3</ele>
        <time>2020-07-02T12:46:20Z</time>
      </trkpt>
      <trkpt lat="48.20624" lon="2.06536">
        <ele>128.2</ele>
        <time>2020-07-02T12:46:21Z</time>
      </trkpt>
      <trkpt lat="48.20617" lon="2.06534">
        <ele>128.1</ele>
        <time>2020-07-02T12:46:22Z</time>
      </trkpt>
      <trkpt lat="48.20611" lon="2.0653">
        <ele>128</ele>
        <time>2020-07-02T12:46:23Z</time>
      </trkpt>
      <trkpt lat="48.20604" lon="2.06527">
        <ele>127.9</ele>
        <time>2020-07-02T12:46:24Z</time>
      </trkpt>
      <trkpt lat="48.20598" lon="2.06523">
        <ele>127.9</ele>
        <time>2020-07-02T12:46:25Z</time>
      </trkpt>
      <trkpt lat="48.20592" lon="2.06519">
        <ele>127.9</ele>
        <time>2020-07-02T12:46:26Z</time>
      </trkpt>
      <trkpt lat="48.20585" lon="2.06516">
        <ele>127.9</ele>
        <time>2020-07-02T12:46:27Z</time>
      </trkpt>
      <trkpt lat="48.20579" lon="2.06513">
        <ele>127.9</ele>
        <time>2020-07-02T12:46:28Z</time>
      </trkpt>
      <trkpt lat="48.20572" lon="2.06509">
        <ele>127.8</ele>
        <time>2020-07-02T12:46:29Z</time>
      </trkpt>
      <trkpt lat="48.20565" lon="2.06507">
        <ele>127.8</ele>
        <time>2020-07-02T12:46:30Z</time>
      </trkpt>
      <trkpt lat="48.20558" lon="2.06504">
        <ele>127.7</ele>
        <time>2020-07-02T12:46:31Z</time>
      </trkpt>
      <trkpt lat="48.20551" lon="2.06501">
        <ele>127.7</ele>
        <time>2020-07-02T12:46:32Z</time>
      </trkpt>
      <trkpt lat="48.20545" lon="2.06498">
        <ele>127.7</ele>
        <time>2020-07-02T12:46:33Z</time>
      </trkpt>
      <trkpt lat="48.20538" lon="2.06495">
        <ele>127.6</ele>
        <time>2020-07-02T12:46:34Z</time>
      </trkpt>
      <trkpt lat="48.20531" lon="2.06493">
        <ele>127.6</ele>
        <time>2020-07-02T12:46:35Z</time>
      </trkpt>
      <trkpt lat="48.20525" lon="2.0649">
        <ele>127.5</ele>
        <time>2020-07-02T12:46:36Z</time>
      </trkpt>
      <trkpt lat="48.20518" lon="2.06486">
        <ele>127.5</ele>
        <time>2020-07-02T12:46:37Z</time>
      </trkpt>
      <trkpt lat="48.20512" lon="2.06483">
        <ele>127.5</ele>
        <time>2020-07-02T12:46:38Z</time>
      </trkpt>
      <trkpt lat="48.20505" lon="2.0648">
        <ele>127.4</ele>
        <time>2020-07-02T12:46:39Z</time>
      </trkpt>
      <trkpt lat="48.20499" lon="2.06476">
        <ele>127.5</ele>
        <time>2020-07-02T12:46:40Z</time>
      </trkpt>
      <trkpt lat="48.20492" lon="2.06472">
        <ele>127.5</ele>
        <time>2020-07-02T12:46:41Z</time>
      </trkpt>
      <trkpt lat="48.20486" lon="2.06469">
        <ele>127.5</ele>
        <time>2020-07-02T12:46:42Z</time>
      </trkpt>
      <trkpt lat="48.20479" lon="2.06466">
        <ele>127.5</ele>
        <time>2020-07-02T12:46:43Z</time>
      </trkpt>
      <trkpt lat="48.20473" lon="2.06464">
        <ele>127.5</ele>
        <time>2020-07-02T12:46:44Z</time>
      </trkpt>
      <trkpt lat="48.20466" lon="2.06461">
        <ele>127.5</ele>
        <time>2020-07-02T12:46:45Z</time>
      </trkpt>
      <trkpt lat="48.2046" lon="2.06458">
        <ele>127.5</ele>
        <time>2020-07-02T12:46:46Z</time>
      </trkpt>
      <trkpt lat="48.20453" lon="2.06454">
        <ele>127.5</ele>
        <time>2020-07-02T12:46:47Z</time>
      </trkpt>
      <trkpt lat="48.20447" lon="2.06451">
        <ele>127.5</ele>
        <time>2020-07-02T12:46:48Z</time>
      </trkpt>
      <trkpt lat="48.2044" lon="2.06448">
        <ele>127.5</ele>
        <time>2020-07-02T12:46:49Z</time>
      </trkpt>
      <trkpt lat="48.20433" lon="2.06444">
        <ele>127.5</ele>
        <time>2020-07-02T12:46:50Z</time>
      </trkpt>
      <trkpt lat="48.20426" lon="2.06441">
        <ele>127.6</ele>
        <time>2020-07-02T12:46:51Z</time>
      </trkpt>
      <trkpt lat="48.2042" lon="2.06438">
        <ele>127.6</ele>
        <time>2020-07-02T12:46:52Z</time>
      </trkpt>
      <trkpt lat="48.20413" lon="2.06435">
        <ele>127.7</ele>
        <time>2020-07-02T12:46:53Z</time>
      </trkpt>
      <trkpt lat="48.20406" lon="2.06431">
        <ele>127.7</ele>
        <time>2020-07-02T12:46:54Z</time>
      </trkpt>
      <trkpt lat="48.204" lon="2.06427">
        <ele>127.8</ele>
        <time>2020-07-02T12:46:55Z</time>
      </trkpt>
      <trkpt lat="48.20395" lon="2.06424">
        <ele>127.8</ele>
        <time>2020-07-02T12:46:56Z</time>
      </trkpt>
      <trkpt lat="48.20389" lon="2.0642">
        <ele>127.9</ele>
        <time>2020-07-02T12:46:57Z</time>
      </trkpt>
      <trkpt lat="48.20383" lon="2.06416">
        <ele>127.9</ele>
        <time>2020-07-02T12:46:58Z</time>
      </trkpt>
      <trkpt lat="48.20378" lon="2.06412">
        <ele>128</ele>
        <time>2020-07-02T12:46:59Z</time>
      </trkpt>
      <trkpt lat="48.20372" lon="2.06409">
        <ele>128</ele>
        <time>2020-07-02T12:47:00Z</time>
      </trkpt>
      <trkpt lat="48.20366" lon="2.06405">
        <ele>128.1</ele>
        <time>2020-07-02T12:47:01Z</time>
      </trkpt>
      <trkpt lat="48.2036" lon="2.06404">
        <ele>128.1</ele>
        <time>2020-07-02T12:47:02Z</time>
      </trkpt>
      <trkpt lat="48.20354" lon="2.06401">
        <ele>128.2</ele>
        <time>2020-07-02T12:47:03Z</time>
      </trkpt>
      <trkpt lat="48.20349" lon="2.06397">
        <ele>128.2</ele>
        <time>2020-07-02T12:47:04Z</time>
      </trkpt>
      <trkpt lat="48.20344" lon="2.06395">
        <ele>128.3</ele>
        <time>2020-07-02T12:47:05Z</time>
      </trkpt>
      <trkpt lat="48.20339" lon="2.06392">
        <ele>128.3</ele>
        <time>2020-07-02T12:47:06Z</time>
      </trkpt>
      <trkpt lat="48.20334" lon="2.06388">
        <ele>128.4</ele>
        <time>2020-07-02T12:47:07Z</time>
      </trkpt>
      <trkpt lat="48.20328" lon="2.06385">
        <ele>128.4</ele>
        <time>2020-07-02T12:47:08Z</time>
      </trkpt>
      <trkpt lat="48.20322" lon="2.06383">
        <ele>128.4</ele>
        <time>2020-07-02T12:47:09Z</time>
      </trkpt>
      <trkpt lat="48.20317" lon="2.06381">
        <ele>128.4</ele>
        <time>2020-07-02T12:47:10Z</time>
      </trkpt>
      <trkpt lat="48.20312" lon="2.06379">
        <ele>128.4</ele>
        <time>2020-07-02T12:47:11Z</time>
      </trkpt>
      <trkpt lat="48.20306" lon="2.06377">
        <ele>128.4</ele>
        <time>2020-07-02T12:47:12Z</time>
      </trkpt>
      <trkpt lat="48.203" lon="2.06374">
        <ele>128.4</ele>
        <time>2020-07-02T12:47:13Z</time>
      </trkpt>
      <trkpt lat="48.20295" lon="2.06372">
        <ele>128.4</ele>
        <time>2020-07-02T12:47:14Z</time>
      </trkpt>
      <trkpt lat="48.2029" lon="2.06369">
        <ele>128.4</ele>
        <time>2020-07-02T12:47:15Z</time>
      </trkpt>
      <trkpt lat="48.20285" lon="2.06366">
        <ele>128.4</ele>
        <time>2020-07-02T12:47:16Z</time>
      </trkpt>
      <trkpt lat="48.2028" lon="2.06362">
        <ele>128.4</ele>
        <time>2020-07-02T12:47:17Z</time>
      </trkpt>
      <trkpt lat="48.20275" lon="2.06358">
        <ele>128.4</ele>
        <time>2020-07-02T12:47:18Z</time>
      </trkpt>
      <trkpt lat="48.20269" lon="2.06355">
        <ele>128.5</ele>
        <time>2020-07-02T12:47:19Z</time>
      </trkpt>
      <trkpt lat="48.20263" lon="2.06352">
        <ele>128.5</ele>
        <time>2020-07-02T12:47:20Z</time>
      </trkpt>
      <trkpt lat="48.20258" lon="2.0635">
        <ele>128.6</ele>
        <time>2020-07-02T12:47:21Z</time>
      </trkpt>
      <trkpt lat="48.20252" lon="2.06346">
        <ele>128.8</ele>
        <time>2020-07-02T12:47:22Z</time>
      </trkpt>
      <trkpt lat="48.20247" lon="2.06344">
        <ele>128.9</ele>
        <time>2020-07-02T12:47:23Z</time>
      </trkpt>
      <trkpt lat="48.2024" lon="2.0634">
        <ele>128.9</ele>
        <time>2020-07-02T12:47:24Z</time>
      </trkpt>
      <trkpt lat="48.20236" lon="2.06336">
        <ele>128.8</ele>
        <time>2020-07-02T12:47:25Z</time>
      </trkpt>
      <trkpt lat="48.20231" lon="2.06333">
        <ele>128.8</ele>
        <time>2020-07-02T12:47:26Z</time>
      </trkpt>
      <trkpt lat="48.20225" lon="2.06329">
        <ele>128.8</ele>
        <time>2020-07-02T12:47:27Z</time>
      </trkpt>
      <trkpt lat="48.20219" lon="2.06326">
        <ele>128.8</ele>
        <time>2020-07-02T12:47:28Z</time>
      </trkpt>
      <trkpt lat="48.20213" lon="2.06322">
        <ele>128.8</ele>
        <time>2020-07-02T12:47:29Z</time>
      </trkpt>
      <trkpt lat="48.20208" lon="2.0632">
        <ele>128.8</ele>
        <time>2020-07-02T12:47:30Z</time>
      </trkpt>
      <trkpt lat="48.20203" lon="2.06317">
        <ele>128.8</ele>
        <time>2020-07-02T12:47:31Z</time>
      </trkpt>
      <trkpt lat="48.20198" lon="2.06313">
        <ele>128.8</ele>
        <time>2020-07-02T12:47:32Z</time>
      </trkpt>
      <trkpt lat="48.20193" lon="2.0631">
        <ele>128.7</ele>
        <time>2020-07-02T12:47:33Z</time>
      </trkpt>
      <trkpt lat="48.20188" lon="2.06307">
        <ele>128.7</ele>
        <time>2020-07-02T12:47:34Z</time>
      </trkpt>
      <trkpt lat="48.20182" lon="2.06305">
        <ele>128.7</ele>
        <time>2020-07-02T12:47:35Z</time>
      </trkpt>
      <trkpt lat="48.20177" lon="2.06303">
        <ele>128.7</ele>
        <time>2020-07-02T12:47:36Z</time>
      </trkpt>
      <trkpt lat="48.20171" lon="2.06302">
        <ele>128.7</ele>
        <time>2020-07-02T12:47:37Z</time>
      </trkpt>
      <trkpt lat="48.20165" lon="2.063">
        <ele>128.6</ele>
        <time>2020-07-02T12:47:38Z</time>
      </trkpt>
      <trkpt lat="48.20158" lon="2.06297">
        <ele>128.6</ele>
        <time>2020-07-02T12:47:39Z</time>
      </trkpt>
      <trkpt lat="48.20152" lon="2.06294">
        <ele>128.6</ele>
        <time>2020-07-02T12:47:40Z</time>
      </trkpt>
      <trkpt lat="48.20145" lon="2.0629">
        <ele>128.5</ele>
        <time>2020-07-02T12:47:41Z</time>
      </trkpt>
      <trkpt lat="48.20139" lon="2.06287">
        <ele>128.5</ele>
        <time>2020-07-02T12:47:42Z</time>
      </trkpt>
      <trkpt lat="48.20133" lon="2.06284">
        <ele>128.5</ele>
        <time>2020-07-02T12:47:43Z</time>
      </trkpt>
      <trkpt lat="48.20127" lon="2.0628">
        <ele>128.5</ele>
        <time>2020-07-02T12:47:44Z</time>
      </trkpt>
      <trkpt lat="48.20121" lon="2.06278">
        <ele>128.5</ele>
        <time>2020-07-02T12:47:45Z</time>
      </trkpt>
      <trkpt lat="48.20115" lon="2.06275">
        <ele>128.5</ele>
        <time>2020-07-02T12:47:46Z</time>
      </trkpt>
      <trkpt lat="48.20108" lon="2.06271">
        <ele>128.5</ele>
        <time>2020-07-02T12:47:47Z</time>
      </trkpt>
      <trkpt lat="48.20103" lon="2.06268">
        <ele>128.5</ele>
        <time>2020-07-02T12:47:48Z</time>
      </trkpt>
      <trkpt lat="48.20097" lon="2.06265">
        <ele>128.5</ele>
        <time>2020-07-02T12:47:49Z</time>
      </trkpt>
      <trkpt lat="48.20091" lon="2.06262">
        <ele>128.6</ele>
        <time>2020-07-02T12:47:50Z</time>
      </trkpt>
      <trkpt lat="48.20085" lon="2.06258">
        <ele>128.6</ele>
        <time>2020-07-02T12:47:51Z</time>
      </trkpt>
      <trkpt lat="48.20079" lon="2.06255">
        <ele>128.6</ele>
        <time>2020-07-02T12:47:52Z</time>
      </trkpt>
      <trkpt lat="48.20074" lon="2.06252">
        <ele>128.5</ele>
        <time>2020-07-02T12:47:53Z</time>
      </trkpt>
      <trkpt lat="48.20069" lon="2.06249">
        <ele>128.5</ele>
        <time>2020-07-02T12:47:54Z</time>
      </trkpt>
      <trkpt lat="48.20063" lon="2.06246">
        <ele>128.4</ele>
        <time>2020-07-02T12:47:55Z</time>
      </trkpt>
      <trkpt lat="48.20058" lon="2.06243">
        <ele>128.4</ele>
        <time>2020-07-02T12:47:56Z</time>
      </trkpt>
      <trkpt lat="48.20051" lon="2.0624">
        <ele>128.4</ele>
        <time>2020-07-02T12:47:57Z</time>
      </trkpt>
      <trkpt lat="48.20046" lon="2.06237">
        <ele>128.4</ele>
        <time>2020-07-02T12:47:58Z</time>
      </trkpt>
      <trkpt lat="48.20039" lon="2.06233">
        <ele>128.4</ele>
        <time>2020-07-02T12:47:59Z</time>
      </trkpt>
      <trkpt lat="48.20033" lon="2.0623">
        <ele>128.4</ele>
        <time>2020-07-02T12:48:00Z</time>
      </trkpt>
      <trkpt lat="48.20027" lon="2.06227">
        <ele>128.4</ele>
        <time>2020-07-02T12:48:01Z</time>
      </trkpt>
      <trkpt lat="48.2002" lon="2.06225">
        <ele>128.4</ele>
        <time>2020-07-02T12:48:02Z</time>
      </trkpt>
      <trkpt lat="48.20014" lon="2.06221">
        <ele>128.3</ele>
        <time>2020-07-02T12:48:03Z</time>
      </trkpt>
      <trkpt lat="48.20008" lon="2.06218">
        <ele>128.2</ele>
        <time>2020-07-02T12:48:04Z</time>
      </trkpt>
      <trkpt lat="48.20001" lon="2.06215">
        <ele>128.1</ele>
        <time>2020-07-02T12:48:05Z</time>
      </trkpt>
      <trkpt lat="48.19995" lon="2.06212">
        <ele>128.1</ele>
        <time>2020-07-02T12:48:06Z</time>
      </trkpt>
      <trkpt lat="48.19989" lon="2.06209">
        <ele>128.1</ele>
        <time>2020-07-02T12:48:07Z</time>
      </trkpt>
      <trkpt lat="48.19983" lon="2.06206">
        <ele>128.1</ele>
        <time>2020-07-02T12:48:08Z</time>
      </trkpt>
      <trkpt lat="48.19977" lon="2.06203">
        <ele>128.1</ele>
        <time>2020-07-02T12:48:09Z</time>
      </trkpt>
      <trkpt lat="48.1997" lon="2.062">
        <ele>128.1</ele>
        <time>2020-07-02T12:48:10Z</time>
      </trkpt>
      <trkpt lat="48.19964" lon="2.06197">
        <ele>128.1</ele>
        <time>2020-07-02T12:48:11Z</time>
      </trkpt>
      <trkpt lat="48.19957" lon="2.06194">
        <ele>128.1</ele>
        <time>2020-07-02T12:48:12Z</time>
      </trkpt>
      <trkpt lat="48.19952" lon="2.06191">
        <ele>128.2</ele>
        <time>2020-07-02T12:48:13Z</time>
      </trkpt>
      <trkpt lat="48.19946" lon="2.06187">
        <ele>128.2</ele>
        <time>2020-07-02T12:48:14Z</time>
      </trkpt>
      <trkpt lat="48.19939" lon="2.06183">
        <ele>128.4</ele>
        <time>2020-07-02T12:48:15Z</time>
      </trkpt>
      <trkpt lat="48.19933" lon="2.0618">
        <ele>128.5</ele>
        <time>2020-07-02T12:48:16Z</time>
      </trkpt>
      <trkpt lat="48.19926" lon="2.06178">
        <ele>128.7</ele>
        <time>2020-07-02T12:48:17Z</time>
      </trkpt>
      <trkpt lat="48.19921" lon="2.06175">
        <ele>128.8</ele>
        <time>2020-07-02T12:48:18Z</time>
      </trkpt>
      <trkpt lat="48.19915" lon="2.06172">
        <ele>128.9</ele>
        <time>2020-07-02T12:48:19Z</time>
      </trkpt>
      <trkpt lat="48.19909" lon="2.06168">
        <ele>128.9</ele>
        <time>2020-07-02T12:48:20Z</time>
      </trkpt>
      <trkpt lat="48.19904" lon="2.06165">
        <ele>129</ele>
        <time>2020-07-02T12:48:21Z</time>
      </trkpt>
      <trkpt lat="48.19899" lon="2.06162">
        <ele>129.1</ele>
        <time>2020-07-02T12:48:22Z</time>
      </trkpt>
      <trkpt lat="48.19893" lon="2.06158">
        <ele>129.2</ele>
        <time>2020-07-02T12:48:23Z</time>
      </trkpt>
      <trkpt lat="48.19889" lon="2.06155">
        <ele>129.3</ele>
        <time>2020-07-02T12:48:24Z</time>
      </trkpt>
      <trkpt lat="48.19882" lon="2.06152">
        <ele>129.4</ele>
        <time>2020-07-02T12:48:25Z</time>
      </trkpt>
      <trkpt lat="48.19878" lon="2.06151">
        <ele>129.5</ele>
        <time>2020-07-02T12:48:26Z</time>
      </trkpt>
      <trkpt lat="48.19871" lon="2.06146">
        <ele>129.7</ele>
        <time>2020-07-02T12:48:27Z</time>
      </trkpt>
      <trkpt lat="48.19866" lon="2.06144">
        <ele>129.8</ele>
        <time>2020-07-02T12:48:28Z</time>
      </trkpt>
      <trkpt lat="48.1986" lon="2.06141">
        <ele>130</ele>
        <time>2020-07-02T12:48:29Z</time>
      </trkpt>
      <trkpt lat="48.19855" lon="2.06139">
        <ele>130.2</ele>
        <time>2020-07-02T12:48:30Z</time>
      </trkpt>
      <trkpt lat="48.1985" lon="2.06136">
        <ele>130.3</ele>
        <time>2020-07-02T12:48:31Z</time>
      </trkpt>
      <trkpt lat="48.19845" lon="2.06134">
        <ele>130.4</ele>
        <time>2020-07-02T12:48:32Z</time>
      </trkpt>
      <trkpt lat="48.19841" lon="2.06131">
        <ele>130.6</ele>
        <time>2020-07-02T12:48:33Z</time>
      </trkpt>
      <trkpt lat="48.19836" lon="2.06128">
        <ele>130.7</ele>
        <time>2020-07-02T12:48:34Z</time>
      </trkpt>
      <trkpt lat="48.19831" lon="2.06125">
        <ele>130.7</ele>
        <time>2020-07-02T12:48:35Z</time>
      </trkpt>
      <trkpt lat="48.19826" lon="2.06122">
        <ele>130.8</ele>
        <time>2020-07-02T12:48:36Z</time>
      </trkpt>
      <trkpt lat="48.19822" lon="2.06121">
        <ele>130.9</ele>
        <time>2020-07-02T12:48:37Z</time>
      </trkpt>
      <trkpt lat="48.19816" lon="2.06118">
        <ele>131</ele>
        <time>2020-07-02T12:48:38Z</time>
      </trkpt>
      <trkpt lat="48.19811" lon="2.06116">
        <ele>131.1</ele>
        <time>2020-07-02T12:48:39Z</time>
      </trkpt>
      <trkpt lat="48.19806" lon="2.06113">
        <ele>131.3</ele>
        <time>2020-07-02T12:48:40Z</time>
      </trkpt>
      <trkpt lat="48.19801" lon="2.0611">
        <ele>131.5</ele>
        <time>2020-07-02T12:48:41Z</time>
      </trkpt>
      <trkpt lat="48.19796" lon="2.06108">
        <ele>131.6</ele>
        <time>2020-07-02T12:48:42Z</time>
      </trkpt>
      <trkpt lat="48.19792" lon="2.06105">
        <ele>131.7</ele>
        <time>2020-07-02T12:48:43Z</time>
      </trkpt>
      <trkpt lat="48.19787" lon="2.06102">
        <ele>131.9</ele>
        <time>2020-07-02T12:48:44Z</time>
      </trkpt>
      <trkpt lat="48.19781" lon="2.06099">
        <ele>132.1</ele>
        <time>2020-07-02T12:48:45Z</time>
      </trkpt>
      <trkpt lat="48.19776" lon="2.06096">
        <ele>132.2</ele>
        <time>2020-07-02T12:48:46Z</time>
      </trkpt>
      <trkpt lat="48.19771" lon="2.06094">
        <ele>132.4</ele>
        <time>2020-07-02T12:48:47Z</time>
      </trkpt>
      <trkpt lat="48.19767" lon="2.06091">
        <ele>132.5</ele>
        <time>2020-07-02T12:48:48Z</time>
      </trkpt>
      <trkpt lat="48.19762" lon="2.06089">
        <ele>132.6</ele>
        <time>2020-07-02T12:48:49Z</time>
      </trkpt>
      <trkpt lat="48.19757" lon="2.06086">
        <ele>132.8</ele>
        <time>2020-07-02T12:48:50Z</time>
      </trkpt>
      <trkpt lat="48.19753" lon="2.06083">
        <ele>132.9</ele>
        <time>2020-07-02T12:48:51Z</time>
      </trkpt>
      <trkpt lat="48.19749" lon="2.06081">
        <ele>133</ele>
        <time>2020-07-02T12:48:52Z</time>
      </trkpt>
      <trkpt lat="48.19745" lon="2.06078">
        <ele>133.1</ele>
        <time>2020-07-02T12:48:53Z</time>
      </trkpt>
      <trkpt lat="48.19741" lon="2.06075">
        <ele>133.2</ele>
        <time>2020-07-02T12:48:54Z</time>
      </trkpt>
      <trkpt lat="48.19737" lon="2.06072">
        <ele>133.4</ele>
        <time>2020-07-02T12:48:55Z</time>
      </trkpt>
      <trkpt lat="48.19732" lon="2.06069">
        <ele>133.5</ele>
        <time>2020-07-02T12:48:56Z</time>
      </trkpt>
      <trkpt lat="48.19728" lon="2.06065">
        <ele>133.6</ele>
        <time>2020-07-02T12:48:57Z</time>
      </trkpt>
      <trkpt lat="48.19723" lon="2.06061">
        <ele>133.7</ele>
        <time>2020-07-02T12:48:58Z</time>
      </trkpt>
      <trkpt lat="48.19718" lon="2.06058">
        <ele>133.8</ele>
        <time>2020-07-02T12:48:59Z</time>
      </trkpt>
      <trkpt lat="48.19714" lon="2.06054">
        <ele>133.9</ele>
        <time>2020-07-02T12:49:00Z</time>
      </trkpt>
      <trkpt lat="48.1971" lon="2.06051">
        <ele>133.9</ele>
        <time>2020-07-02T12:49:01Z</time>
      </trkpt>
      <trkpt lat="48.19706" lon="2.06046">
        <ele>134</ele>
        <time>2020-07-02T12:49:02Z</time>
      </trkpt>
      <trkpt lat="48.19701" lon="2.06043">
        <ele>134.1</ele>
        <time>2020-07-02T12:49:03Z</time>
      </trkpt>
      <trkpt lat="48.19696" lon="2.06039">
        <ele>134.3</ele>
        <time>2020-07-02T12:49:04Z</time>
      </trkpt>
      <trkpt lat="48.19692" lon="2.06035">
        <ele>134.3</ele>
        <time>2020-07-02T12:49:05Z</time>
      </trkpt>
      <trkpt lat="48.19688" lon="2.06032">
        <ele>134.4</ele>
        <time>2020-07-02T12:49:06Z</time>
      </trkpt>
      <trkpt lat="48.19683" lon="2.06029">
        <ele>134.5</ele>
        <time>2020-07-02T12:49:07Z</time>
      </trkpt>
      <trkpt lat="48.19677" lon="2.06025">
        <ele>134.6</ele>
        <time>2020-07-02T12:49:08Z</time>
      </trkpt>
      <trkpt lat="48.19671" lon="2.06021">
        <ele>134.6</ele>
        <time>2020-07-02T12:49:09Z</time>
      </trkpt>
      <trkpt lat="48.19665" lon="2.06018">
        <ele>134.6</ele>
        <time>2020-07-02T12:49:10Z</time>
      </trkpt>
      <trkpt lat="48.19659" lon="2.06014">
        <ele>134.7</ele>
        <time>2020-07-02T12:49:11Z</time>
      </trkpt>
      <trkpt lat="48.19655" lon="2.0601">
        <ele>134.7</ele>
        <time>2020-07-02T12:49:12Z</time>
      </trkpt>
      <trkpt lat="48.1965" lon="2.06006">
        <ele>134.8</ele>
        <time>2020-07-02T12:49:13Z</time>
      </trkpt>
      <trkpt lat="48.19644" lon="2.06001">
        <ele>134.8</ele>
        <time>2020-07-02T12:49:14Z</time>
      </trkpt>
      <trkpt lat="48.19639" lon="2.05996">
        <ele>134.8</ele>
        <time>2020-07-02T12:49:15Z</time>
      </trkpt>
      <trkpt lat="48.19636" lon="2.05994">
        <ele>134.8</ele>
        <time>2020-07-02T12:49:16Z</time>
      </trkpt>
      <trkpt lat="48.19631" lon="2.0599">
        <ele>134.8</ele>
        <time>2020-07-02T12:49:17Z</time>
      </trkpt>
      <trkpt lat="48.19626" lon="2.05987">
        <ele>134.8</ele>
        <time>2020-07-02T12:49:18Z</time>
      </trkpt>
      <trkpt lat="48.19621" lon="2.05982">
        <ele>134.8</ele>
        <time>2020-07-02T12:49:19Z</time>
      </trkpt>
      <trkpt lat="48.19616" lon="2.05978">
        <ele>134.9</ele>
        <time>2020-07-02T12:49:20Z</time>
      </trkpt>
      <trkpt lat="48.19611" lon="2.05974">
        <ele>134.9</ele>
        <time>2020-07-02T12:49:21Z</time>
      </trkpt>
      <trkpt lat="48.19606" lon="2.05971">
        <ele>134.9</ele>
        <time>2020-07-02T12:49:22Z</time>
      </trkpt>
      <trkpt lat="48.19601" lon="2.05967">
        <ele>134.9</ele>
        <time>2020-07-02T12:49:23Z</time>
      </trkpt>
      <trkpt lat="48.19596" lon="2.05964">
        <ele>135</ele>
        <time>2020-07-02T12:49:24Z</time>
      </trkpt>
      <trkpt lat="48.1959" lon="2.05959">
        <ele>135</ele>
        <time>2020-07-02T12:49:25Z</time>
      </trkpt>
      <trkpt lat="48.19585" lon="2.05957">
        <ele>135</ele>
        <time>2020-07-02T12:49:26Z</time>
      </trkpt>
      <trkpt lat="48.19581" lon="2.05955">
        <ele>135</ele>
        <time>2020-07-02T12:49:27Z</time>
      </trkpt>
      <trkpt lat="48.19577" lon="2.05951">
        <ele>135</ele>
        <time>2020-07-02T12:49:28Z</time>
      </trkpt>
      <trkpt lat="48.19572" lon="2.05948">
        <ele>135</ele>
        <time>2020-07-02T12:49:29Z</time>
      </trkpt>
      <trkpt lat="48.19567" lon="2.05945">
        <ele>135</ele>
        <time>2020-07-02T12:49:30Z</time>
      </trkpt>
      <trkpt lat="48.19561" lon="2.05942">
        <ele>135</ele>
        <time>2020-07-02T12:49:31Z</time>
      </trkpt>
      <trkpt lat="48.19555" lon="2.05937">
        <ele>135</ele>
        <time>2020-07-02T12:49:32Z</time>
      </trkpt>
      <trkpt lat="48.19551" lon="2.05935">
        <ele>134.9</ele>
        <time>2020-07-02T12:49:33Z</time>
      </trkpt>
      <trkpt lat="48.19545" lon="2.05932">
        <ele>134.9</ele>
        <time>2020-07-02T12:49:34Z</time>
      </trkpt>
      <trkpt lat="48.19541" lon="2.0593">
        <ele>134.9</ele>
        <time>2020-07-02T12:49:35Z</time>
      </trkpt>
      <trkpt lat="48.19536" lon="2.05927">
        <ele>134.9</ele>
        <time>2020-07-02T12:49:36Z</time>
      </trkpt>
      <trkpt lat="48.19529" lon="2.05922">
        <ele>134.8</ele>
        <time>2020-07-02T12:49:37Z</time>
      </trkpt>
      <trkpt lat="48.19523" lon="2.05918">
        <ele>134.8</ele>
        <time>2020-07-02T12:49:38Z</time>
      </trkpt>
      <trkpt lat="48.19517" lon="2.05914">
        <ele>134.9</ele>
        <time>2020-07-02T12:49:39Z</time>
      </trkpt>
      <trkpt lat="48.19512" lon="2.05912">
        <ele>134.9</ele>
        <time>2020-07-02T12:49:40Z</time>
      </trkpt>
      <trkpt lat="48.19507" lon="2.0591">
        <ele>134.9</ele>
        <time>2020-07-02T12:49:41Z</time>
      </trkpt>
      <trkpt lat="48.19502" lon="2.05907">
        <ele>134.9</ele>
        <time>2020-07-02T12:49:42Z</time>
      </trkpt>
      <trkpt lat="48.19495" lon="2.05902">
        <ele>134.9</ele>
        <time>2020-07-02T12:49:43Z</time>
      </trkpt>
      <trkpt lat="48.19489" lon="2.05899">
        <ele>134.8</ele>
        <time>2020-07-02T12:49:44Z</time>
      </trkpt>
      <trkpt lat="48.19484" lon="2.05896">
        <ele>134.8</ele>
        <time>2020-07-02T12:49:45Z</time>
      </trkpt>
      <trkpt lat="48.19478" lon="2.05893">
        <ele>134.8</ele>
        <time>2020-07-02T12:49:46Z</time>
      </trkpt>
      <trkpt lat="48.19472" lon="2.0589">
        <ele>134.8</ele>
        <time>2020-07-02T12:49:47Z</time>
      </trkpt>
      <trkpt lat="48.19466" lon="2.05886">
        <ele>134.7</ele>
        <time>2020-07-02T12:49:48Z</time>
      </trkpt>
      <trkpt lat="48.1946" lon="2.05882">
        <ele>134.7</ele>
        <time>2020-07-02T12:49:49Z</time>
      </trkpt>
      <trkpt lat="48.19454" lon="2.05879">
        <ele>134.7</ele>
        <time>2020-07-02T12:49:50Z</time>
      </trkpt>
      <trkpt lat="48.19448" lon="2.05876">
        <ele>134.7</ele>
        <time>2020-07-02T12:49:51Z</time>
      </trkpt>
      <trkpt lat="48.19442" lon="2.05873">
        <ele>134.6</ele>
        <time>2020-07-02T12:49:52Z</time>
      </trkpt>
      <trkpt lat="48.19436" lon="2.05869">
        <ele>134.6</ele>
        <time>2020-07-02T12:49:53Z</time>
      </trkpt>
      <trkpt lat="48.1943" lon="2.05866">
        <ele>134.5</ele>
        <time>2020-07-02T12:49:54Z</time>
      </trkpt>
      <trkpt lat="48.19424" lon="2.05863">
        <ele>134.5</ele>
        <time>2020-07-02T12:49:55Z</time>
      </trkpt>
      <trkpt lat="48.19418" lon="2.0586">
        <ele>134.5</ele>
        <time>2020-07-02T12:49:56Z</time>
      </trkpt>
      <trkpt lat="48.19412" lon="2.05856">
        <ele>134.5</ele>
        <time>2020-07-02T12:49:57Z</time>
      </trkpt>
      <trkpt lat="48.19407" lon="2.05853">
        <ele>134.5</ele>
        <time>2020-07-02T12:49:58Z</time>
      </trkpt>
      <trkpt lat="48.19401" lon="2.05849">
        <ele>134.5</ele>
        <time>2020-07-02T12:49:59Z</time>
      </trkpt>
      <trkpt lat="48.19395" lon="2.05845">
        <ele>134.4</ele>
        <time>2020-07-02T12:50:00Z</time>
      </trkpt>
      <trkpt lat="48.1939" lon="2.05842">
        <ele>134.4</ele>
        <time>2020-07-02T12:50:01Z</time>
      </trkpt>
      <trkpt lat="48.19384" lon="2.05839">
        <ele>134.4</ele>
        <time>2020-07-02T12:50:02Z</time>
      </trkpt>
      <trkpt lat="48.19377" lon="2.05835">
        <ele>134.3</ele>
        <time>2020-07-02T12:50:03Z</time>
      </trkpt>
      <trkpt lat="48.19372" lon="2.05832">
        <ele>134.3</ele>
        <time>2020-07-02T12:50:04Z</time>
      </trkpt>
      <trkpt lat="48.19366" lon="2.05828">
        <ele>134.3</ele>
        <time>2020-07-02T12:50:05Z</time>
      </trkpt>
      <trkpt lat="48.1936" lon="2.05824">
        <ele>134.3</ele>
        <time>2020-07-02T12:50:06Z</time>
      </trkpt>
      <trkpt lat="48.19354" lon="2.05821">
        <ele>134.2</ele>
        <time>2020-07-02T12:50:07Z</time>
      </trkpt>
      <trkpt lat="48.19348" lon="2.05817">
        <ele>134.2</ele>
        <time>2020-07-02T12:50:08Z</time>
      </trkpt>
      <trkpt lat="48.19342" lon="2.05814">
        <ele>134.2</ele>
        <time>2020-07-02T12:50:09Z</time>
      </trkpt>
      <trkpt lat="48.19336" lon="2.05811">
        <ele>134.2</ele>
        <time>2020-07-02T12:50:10Z</time>
      </trkpt>
      <trkpt lat="48.1933" lon="2.05807">
        <ele>134.1</ele>
        <time>2020-07-02T12:50:11Z</time>
      </trkpt>
      <trkpt lat="48.19324" lon="2.05804">
        <ele>133.9</ele>
        <time>2020-07-02T12:50:12Z</time>
      </trkpt>
      <trkpt lat="48.19318" lon="2.058">
        <ele>133.6</ele>
        <time>2020-07-02T12:50:13Z</time>
      </trkpt>
      <trkpt lat="48.19312" lon="2.05797">
        <ele>133.6</ele>
        <time>2020-07-02T12:50:14Z</time>
      </trkpt>
      <trkpt lat="48.19307" lon="2.05793">
        <ele>133.5</ele>
        <time>2020-07-02T12:50:15Z</time>
      </trkpt>
      <trkpt lat="48.19302" lon="2.0579">
        <ele>133.5</ele>
        <time>2020-07-02T12:50:16Z</time>
      </trkpt>
      <trkpt lat="48.19296" lon="2.05788">
        <ele>133.5</ele>
        <time>2020-07-02T12:50:17Z</time>
      </trkpt>
      <trkpt lat="48.19291" lon="2.05785">
        <ele>133.4</ele>
        <time>2020-07-02T12:50:18Z</time>
      </trkpt>
      <trkpt lat="48.19286" lon="2.05782">
        <ele>133.4</ele>
        <time>2020-07-02T12:50:19Z</time>
      </trkpt>
      <trkpt lat="48.19281" lon="2.05779">
        <ele>133.4</ele>
        <time>2020-07-02T12:50:20Z</time>
      </trkpt>
      <trkpt lat="48.19275" lon="2.05775">
        <ele>133.4</ele>
        <time>2020-07-02T12:50:21Z</time>
      </trkpt>
      <trkpt lat="48.19269" lon="2.05772">
        <ele>133.1</ele>
        <time>2020-07-02T12:50:22Z</time>
      </trkpt>
      <trkpt lat="48.19263" lon="2.05768">
        <ele>133</ele>
        <time>2020-07-02T12:50:23Z</time>
      </trkpt>
      <trkpt lat="48.19258" lon="2.05763">
        <ele>132.8</ele>
        <time>2020-07-02T12:50:24Z</time>
      </trkpt>
      <trkpt lat="48.19253" lon="2.0576">
        <ele>132.8</ele>
        <time>2020-07-02T12:50:25Z</time>
      </trkpt>
      <trkpt lat="48.19247" lon="2.05756">
        <ele>132.7</ele>
        <time>2020-07-02T12:50:26Z</time>
      </trkpt>
      <trkpt lat="48.19241" lon="2.05752">
        <ele>132.7</ele>
        <time>2020-07-02T12:50:27Z</time>
      </trkpt>
      <trkpt lat="48.19235" lon="2.05748">
        <ele>132.7</ele>
        <time>2020-07-02T12:50:28Z</time>
      </trkpt>
      <trkpt lat="48.19229" lon="2.05744">
        <ele>132.6</ele>
        <time>2020-07-02T12:50:29Z</time>
      </trkpt>
      <trkpt lat="48.19224" lon="2.05741">
        <ele>132.6</ele>
        <time>2020-07-02T12:50:30Z</time>
      </trkpt>
      <trkpt lat="48.19219" lon="2.05738">
        <ele>132.6</ele>
        <time>2020-07-02T12:50:31Z</time>
      </trkpt>
      <trkpt lat="48.19214" lon="2.05735">
        <ele>132.6</ele>
        <time>2020-07-02T12:50:32Z</time>
      </trkpt>
      <trkpt lat="48.19208" lon="2.05732">
        <ele>132.5</ele>
        <time>2020-07-02T12:50:33Z</time>
      </trkpt>
      <trkpt lat="48.19203" lon="2.05728">
        <ele>132.5</ele>
        <time>2020-07-02T12:50:34Z</time>
      </trkpt>
      <trkpt lat="48.19197" lon="2.05725">
        <ele>132.5</ele>
        <time>2020-07-02T12:50:35Z</time>
      </trkpt>
      <trkpt lat="48.19191" lon="2.05721">
        <ele>132.5</ele>
        <time>2020-07-02T12:50:36Z</time>
      </trkpt>
      <trkpt lat="48.19186" lon="2.05717">
        <ele>132.6</ele>
        <time>2020-07-02T12:50:37Z</time>
      </trkpt>
      <trkpt lat="48.19181" lon="2.05713">
        <ele>132.6</ele>
        <time>2020-07-02T12:50:38Z</time>
      </trkpt>
      <trkpt lat="48.19176" lon="2.0571">
        <ele>132.6</ele>
        <time>2020-07-02T12:50:39Z</time>
      </trkpt>
      <trkpt lat="48.1917" lon="2.05708">
        <ele>132.6</ele>
        <time>2020-07-02T12:50:40Z</time>
      </trkpt>
      <trkpt lat="48.19164" lon="2.05704">
        <ele>132.6</ele>
        <time>2020-07-02T12:50:41Z</time>
      </trkpt>
      <trkpt lat="48.19159" lon="2.05702">
        <ele>132.6</ele>
        <time>2020-07-02T12:50:42Z</time>
      </trkpt>
      <trkpt lat="48.19154" lon="2.05699">
        <ele>132.6</ele>
        <time>2020-07-02T12:50:43Z</time>
      </trkpt>
      <trkpt lat="48.19148" lon="2.05696">
        <ele>132.6</ele>
        <time>2020-07-02T12:50:44Z</time>
      </trkpt>
      <trkpt lat="48.19142" lon="2.05693">
        <ele>132.5</ele>
        <time>2020-07-02T12:50:45Z</time>
      </trkpt>
      <trkpt lat="48.19136" lon="2.05689">
        <ele>132.5</ele>
        <time>2020-07-02T12:50:46Z</time>
      </trkpt>
      <trkpt lat="48.19131" lon="2.05687">
        <ele>132.5</ele>
        <time>2020-07-02T12:50:47Z</time>
      </trkpt>
      <trkpt lat="48.19124" lon="2.05682">
        <ele>132.5</ele>
        <time>2020-07-02T12:50:48Z</time>
      </trkpt>
      <trkpt lat="48.19119" lon="2.05679">
        <ele>132.5</ele>
        <time>2020-07-02T12:50:49Z</time>
      </trkpt>
      <trkpt lat="48.19114" lon="2.05676">
        <ele>132.5</ele>
        <time>2020-07-02T12:50:50Z</time>
      </trkpt>
      <trkpt lat="48.19108" lon="2.05672">
        <ele>132.5</ele>
        <time>2020-07-02T12:50:51Z</time>
      </trkpt>
      <trkpt lat="48.19102" lon="2.05669">
        <ele>132.5</ele>
        <time>2020-07-02T12:50:52Z</time>
      </trkpt>
      <trkpt lat="48.19097" lon="2.05666">
        <ele>132.4</ele>
        <time>2020-07-02T12:50:53Z</time>
      </trkpt>
      <trkpt lat="48.19091" lon="2.05662">
        <ele>132.4</ele>
        <time>2020-07-02T12:50:54Z</time>
      </trkpt>
      <trkpt lat="48.19084" lon="2.05659">
        <ele>132.4</ele>
        <time>2020-07-02T12:50:55Z</time>
      </trkpt>
      <trkpt lat="48.19078" lon="2.05655">
        <ele>132.3</ele>
        <time>2020-07-02T12:50:56Z</time>
      </trkpt>
      <trkpt lat="48.19072" lon="2.05652">
        <ele>132.3</ele>
        <time>2020-07-02T12:50:57Z</time>
      </trkpt>
      <trkpt lat="48.19066" lon="2.05648">
        <ele>132.3</ele>
        <time>2020-07-02T12:50:58Z</time>
      </trkpt>
      <trkpt lat="48.1906" lon="2.05645">
        <ele>132.2</ele>
        <time>2020-07-02T12:50:59Z</time>
      </trkpt>
      <trkpt lat="48.19054" lon="2.05642">
        <ele>132.2</ele>
        <time>2020-07-02T12:51:00Z</time>
      </trkpt>
      <trkpt lat="48.19048" lon="2.05639">
        <ele>132.1</ele>
        <time>2020-07-02T12:51:01Z</time>
      </trkpt>
      <trkpt lat="48.19042" lon="2.05636">
        <ele>132.1</ele>
        <time>2020-07-02T12:51:02Z</time>
      </trkpt>
      <trkpt lat="48.19037" lon="2.05634">
        <ele>132.1</ele>
        <time>2020-07-02T12:51:03Z</time>
      </trkpt>
      <trkpt lat="48.19031" lon="2.05631">
        <ele>132.1</ele>
        <time>2020-07-02T12:51:04Z</time>
      </trkpt>
      <trkpt lat="48.19025" lon="2.05628">
        <ele>132.2</ele>
        <time>2020-07-02T12:51:05Z</time>
      </trkpt>
      <trkpt lat="48.1902" lon="2.05626">
        <ele>132.1</ele>
        <time>2020-07-02T12:51:06Z</time>
      </trkpt>
      <trkpt lat="48.19014" lon="2.05623">
        <ele>132</ele>
        <time>2020-07-02T12:51:07Z</time>
      </trkpt>
      <trkpt lat="48.19008" lon="2.0562">
        <ele>131.9</ele>
        <time>2020-07-02T12:51:08Z</time>
      </trkpt>
      <trkpt lat="48.19002" lon="2.05617">
        <ele>131.7</ele>
        <time>2020-07-02T12:51:09Z</time>
      </trkpt>
      <trkpt lat="48.18997" lon="2.05615">
        <ele>131.5</ele>
        <time>2020-07-02T12:51:10Z</time>
      </trkpt>
      <trkpt lat="48.1899" lon="2.05613">
        <ele>131.4</ele>
        <time>2020-07-02T12:51:11Z</time>
      </trkpt>
      <trkpt lat="48.18984" lon="2.0561">
        <ele>131.2</ele>
        <time>2020-07-02T12:51:12Z</time>
      </trkpt>
      <trkpt lat="48.18977" lon="2.05608">
        <ele>131.2</ele>
        <time>2020-07-02T12:51:13Z</time>
      </trkpt>
      <trkpt lat="48.1897" lon="2.05606">
        <ele>131.1</ele>
        <time>2020-07-02T12:51:14Z</time>
      </trkpt>
      <trkpt lat="48.18963" lon="2.05604">
        <ele>131</ele>
        <time>2020-07-02T12:51:15Z</time>
      </trkpt>
      <trkpt lat="48.18957" lon="2.05603">
        <ele>131</ele>
        <time>2020-07-02T12:51:16Z</time>
      </trkpt>
      <trkpt lat="48.1895" lon="2.05601">
        <ele>130.9</ele>
        <time>2020-07-02T12:51:17Z</time>
      </trkpt>
      <trkpt lat="48.18943" lon="2.056">
        <ele>130.8</ele>
        <time>2020-07-02T12:51:18Z</time>
      </trkpt>
      <trkpt lat="48.18936" lon="2.05598">
        <ele>130.8</ele>
        <time>2020-07-02T12:51:19Z</time>
      </trkpt>
      <trkpt lat="48.18929" lon="2.05597">
        <ele>130.7</ele>
        <time>2020-07-02T12:51:20Z</time>
      </trkpt>
      <trkpt lat="48.18922" lon="2.05596">
        <ele>130.6</ele>
        <time>2020-07-02T12:51:21Z</time>
      </trkpt>
      <trkpt lat="48.18916" lon="2.05594">
        <ele>130.5</ele>
        <time>2020-07-02T12:51:22Z</time>
      </trkpt>
      <trkpt lat="48.18909" lon="2.05593">
        <ele>130.5</ele>
        <time>2020-07-02T12:51:23Z</time>
      </trkpt>
      <trkpt lat="48.18902" lon="2.05591">
        <ele>130.4</ele>
        <time>2020-07-02T12:51:24Z</time>
      </trkpt>
      <trkpt lat="48.18895" lon="2.0559">
        <ele>130.4</ele>
        <time>2020-07-02T12:51:25Z</time>
      </trkpt>
      <trkpt lat="48.18888" lon="2.05588">
        <ele>130.3</ele>
        <time>2020-07-02T12:51:26Z</time>
      </trkpt>
      <trkpt lat="48.18882" lon="2.05587">
        <ele>130.3</ele>
        <time>2020-07-02T12:51:27Z</time>
      </trkpt>
      <trkpt lat="48.18875" lon="2.05586">
        <ele>130.2</ele>
        <time>2020-07-02T12:51:28Z</time>
      </trkpt>
      <trkpt lat="48.18868" lon="2.05584">
        <ele>130.1</ele>
        <time>2020-07-02T12:51:29Z</time>
      </trkpt>
      <trkpt lat="48.1886" lon="2.05583">
        <ele>130.1</ele>
        <time>2020-07-02T12:51:30Z</time>
      </trkpt>
      <trkpt lat="48.18853" lon="2.05582">
        <ele>130.1</ele>
        <time>2020-07-02T12:51:31Z</time>
      </trkpt>
      <trkpt lat="48.18847" lon="2.05581">
        <ele>130.1</ele>
        <time>2020-07-02T12:51:32Z</time>
      </trkpt>
      <trkpt lat="48.1884" lon="2.05579">
        <ele>130.1</ele>
        <time>2020-07-02T12:51:33Z</time>
      </trkpt>
      <trkpt lat="48.18833" lon="2.05577">
        <ele>130.1</ele>
        <time>2020-07-02T12:51:34Z</time>
      </trkpt>
      <trkpt lat="48.18826" lon="2.05576">
        <ele>130</ele>
        <time>2020-07-02T12:51:35Z</time>
      </trkpt>
      <trkpt lat="48.18819" lon="2.05574">
        <ele>130</ele>
        <time>2020-07-02T12:51:36Z</time>
      </trkpt>
      <trkpt lat="48.18812" lon="2.05573">
        <ele>130</ele>
        <time>2020-07-02T12:51:37Z</time>
      </trkpt>
      <trkpt lat="48.18805" lon="2.05572">
        <ele>130</ele>
        <time>2020-07-02T12:51:38Z</time>
      </trkpt>
      <trkpt lat="48.18798" lon="2.0557">
        <ele>130</ele>
        <time>2020-07-02T12:51:39Z</time>
      </trkpt>
      <trkpt lat="48.18791" lon="2.05569">
        <ele>130</ele>
        <time>2020-07-02T12:51:40Z</time>
      </trkpt>
      <trkpt lat="48.18784" lon="2.05567">
        <ele>130</ele>
        <time>2020-07-02T12:51:41Z</time>
      </trkpt>
      <trkpt lat="48.18777" lon="2.05565">
        <ele>129.9</ele>
        <time>2020-07-02T12:51:42Z</time>
      </trkpt>
      <trkpt lat="48.18769" lon="2.05563">
        <ele>129.9</ele>
        <time>2020-07-02T12:51:43Z</time>
      </trkpt>
      <trkpt lat="48.18762" lon="2.05562">
        <ele>129.9</ele>
        <time>2020-07-02T12:51:44Z</time>
      </trkpt>
      <trkpt lat="48.18755" lon="2.05559">
        <ele>129.9</ele>
        <time>2020-07-02T12:51:45Z</time>
      </trkpt>
      <trkpt lat="48.18748" lon="2.05557">
        <ele>129.9</ele>
        <time>2020-07-02T12:51:46Z</time>
      </trkpt>
      <trkpt lat="48.18741" lon="2.05556">
        <ele>129.9</ele>
        <time>2020-07-02T12:51:47Z</time>
      </trkpt>
      <trkpt lat="48.18734" lon="2.05554">
        <ele>129.9</ele>
        <time>2020-07-02T12:51:48Z</time>
      </trkpt>
      <trkpt lat="48.18726" lon="2.05552">
        <ele>130</ele>
        <time>2020-07-02T12:51:49Z</time>
      </trkpt>
      <trkpt lat="48.18719" lon="2.05551">
        <ele>130</ele>
        <time>2020-07-02T12:51:50Z</time>
      </trkpt>
      <trkpt lat="48.18712" lon="2.05549">
        <ele>130</ele>
        <time>2020-07-02T12:51:51Z</time>
      </trkpt>
      <trkpt lat="48.18705" lon="2.05548">
        <ele>129.7</ele>
        <time>2020-07-02T12:51:52Z</time>
      </trkpt>
      <trkpt lat="48.18698" lon="2.05545">
        <ele>129.2</ele>
        <time>2020-07-02T12:51:53Z</time>
      </trkpt>
      <trkpt lat="48.18691" lon="2.05544">
        <ele>128.9</ele>
        <time>2020-07-02T12:51:54Z</time>
      </trkpt>
      <trkpt lat="48.18683" lon="2.05542">
        <ele>128.8</ele>
        <time>2020-07-02T12:51:55Z</time>
      </trkpt>
      <trkpt lat="48.18676" lon="2.05541">
        <ele>128.8</ele>
        <time>2020-07-02T12:51:56Z</time>
      </trkpt>
      <trkpt lat="48.18669" lon="2.0554">
        <ele>128.8</ele>
        <time>2020-07-02T12:51:57Z</time>
      </trkpt>
      <trkpt lat="48.18662" lon="2.05538">
        <ele>128.8</ele>
        <time>2020-07-02T12:51:58Z</time>
      </trkpt>
      <trkpt lat="48.18655" lon="2.05536">
        <ele>128.9</ele>
        <time>2020-07-02T12:51:59Z</time>
      </trkpt>
      <trkpt lat="48.18649" lon="2.05536">
        <ele>128.9</ele>
        <time>2020-07-02T12:52:00Z</time>
      </trkpt>
      <trkpt lat="48.18642" lon="2.05534">
        <ele>129</ele>
        <time>2020-07-02T12:52:01Z</time>
      </trkpt>
      <trkpt lat="48.18635" lon="2.05532">
        <ele>129</ele>
        <time>2020-07-02T12:52:02Z</time>
      </trkpt>
      <trkpt lat="48.18629" lon="2.05531">
        <ele>129.1</ele>
        <time>2020-07-02T12:52:03Z</time>
      </trkpt>
      <trkpt lat="48.18622" lon="2.05529">
        <ele>129.1</ele>
        <time>2020-07-02T12:52:04Z</time>
      </trkpt>
      <trkpt lat="48.18616" lon="2.05527">
        <ele>129.2</ele>
        <time>2020-07-02T12:52:05Z</time>
      </trkpt>
      <trkpt lat="48.18609" lon="2.05526">
        <ele>129.4</ele>
        <time>2020-07-02T12:52:06Z</time>
      </trkpt>
      <trkpt lat="48.18602" lon="2.05524">
        <ele>129.5</ele>
        <time>2020-07-02T12:52:07Z</time>
      </trkpt>
      <trkpt lat="48.18596" lon="2.05523">
        <ele>129.7</ele>
        <time>2020-07-02T12:52:08Z</time>
      </trkpt>
      <trkpt lat="48.18589" lon="2.05521">
        <ele>129.9</ele>
        <time>2020-07-02T12:52:09Z</time>
      </trkpt>
      <trkpt lat="48.18582" lon="2.05519">
        <ele>129.8</ele>
        <time>2020-07-02T12:52:10Z</time>
      </trkpt>
      <trkpt lat="48.18576" lon="2.05517">
        <ele>129.8</ele>
        <time>2020-07-02T12:52:11Z</time>
      </trkpt>
      <trkpt lat="48.1857" lon="2.05515">
        <ele>129.8</ele>
        <time>2020-07-02T12:52:12Z</time>
      </trkpt>
      <trkpt lat="48.18563" lon="2.05513">
        <ele>129.7</ele>
        <time>2020-07-02T12:52:13Z</time>
      </trkpt>
      <trkpt lat="48.18556" lon="2.05512">
        <ele>129.7</ele>
        <time>2020-07-02T12:52:14Z</time>
      </trkpt>
      <trkpt lat="48.18549" lon="2.05511">
        <ele>129.7</ele>
        <time>2020-07-02T12:52:15Z</time>
      </trkpt>
      <trkpt lat="48.18543" lon="2.05509">
        <ele>129.7</ele>
        <time>2020-07-02T12:52:16Z</time>
      </trkpt>
      <trkpt lat="48.18536" lon="2.05508">
        <ele>129.7</ele>
        <time>2020-07-02T12:52:17Z</time>
      </trkpt>
      <trkpt lat="48.18529" lon="2.05506">
        <ele>129.7</ele>
        <time>2020-07-02T12:52:18Z</time>
      </trkpt>
      <trkpt lat="48.18522" lon="2.05505">
        <ele>129.7</ele>
        <time>2020-07-02T12:52:19Z</time>
      </trkpt>
      <trkpt lat="48.18516" lon="2.05503">
        <ele>129.7</ele>
        <time>2020-07-02T12:52:20Z</time>
      </trkpt>
      <trkpt lat="48.18509" lon="2.05502">
        <ele>129.7</ele>
        <time>2020-07-02T12:52:21Z</time>
      </trkpt>
      <trkpt lat="48.18502" lon="2.05501">
        <ele>129.7</ele>
        <time>2020-07-02T12:52:22Z</time>
      </trkpt>
      <trkpt lat="48.18495" lon="2.05499">
        <ele>129.7</ele>
        <time>2020-07-02T12:52:23Z</time>
      </trkpt>
      <trkpt lat="48.18488" lon="2.05498">
        <ele>129.7</ele>
        <time>2020-07-02T12:52:24Z</time>
      </trkpt>
      <trkpt lat="48.18482" lon="2.05496">
        <ele>129.6</ele>
        <time>2020-07-02T12:52:25Z</time>
      </trkpt>
      <trkpt lat="48.18475" lon="2.05495">
        <ele>129.6</ele>
        <time>2020-07-02T12:52:26Z</time>
      </trkpt>
      <trkpt lat="48.18468" lon="2.05493">
        <ele>129.6</ele>
        <time>2020-07-02T12:52:27Z</time>
      </trkpt>
      <trkpt lat="48.18461" lon="2.05491">
        <ele>129.6</ele>
        <time>2020-07-02T12:52:28Z</time>
      </trkpt>
      <trkpt lat="48.18455" lon="2.0549">
        <ele>129.6</ele>
        <time>2020-07-02T12:52:29Z</time>
      </trkpt>
      <trkpt lat="48.18448" lon="2.05489">
        <ele>129.6</ele>
        <time>2020-07-02T12:52:30Z</time>
      </trkpt>
      <trkpt lat="48.18441" lon="2.05487">
        <ele>129.6</ele>
        <time>2020-07-02T12:52:31Z</time>
      </trkpt>
      <trkpt lat="48.18435" lon="2.05485">
        <ele>129.7</ele>
        <time>2020-07-02T12:52:32Z</time>
      </trkpt>
      <trkpt lat="48.18428" lon="2.05484">
        <ele>129.7</ele>
        <time>2020-07-02T12:52:33Z</time>
      </trkpt>
      <trkpt lat="48.18421" lon="2.05483">
        <ele>129.7</ele>
        <time>2020-07-02T12:52:34Z</time>
      </trkpt>
      <trkpt lat="48.18414" lon="2.05483">
        <ele>129.7</ele>
        <time>2020-07-02T12:52:35Z</time>
      </trkpt>
      <trkpt lat="48.18407" lon="2.05482">
        <ele>129.7</ele>
        <time>2020-07-02T12:52:36Z</time>
      </trkpt>
      <trkpt lat="48.18401" lon="2.0548">
        <ele>129.7</ele>
        <time>2020-07-02T12:52:37Z</time>
      </trkpt>
      <trkpt lat="48.18394" lon="2.05478">
        <ele>129.8</ele>
        <time>2020-07-02T12:52:38Z</time>
      </trkpt>
      <trkpt lat="48.18388" lon="2.05475">
        <ele>129.8</ele>
        <time>2020-07-02T12:52:39Z</time>
      </trkpt>
      <trkpt lat="48.18382" lon="2.05474">
        <ele>129.8</ele>
        <time>2020-07-02T12:52:40Z</time>
      </trkpt>
      <trkpt lat="48.18375" lon="2.05472">
        <ele>129.9</ele>
        <time>2020-07-02T12:52:41Z</time>
      </trkpt>
      <trkpt lat="48.18369" lon="2.0547">
        <ele>129.9</ele>
        <time>2020-07-02T12:52:42Z</time>
      </trkpt>
      <trkpt lat="48.18362" lon="2.05468">
        <ele>130</ele>
        <time>2020-07-02T12:52:43Z</time>
      </trkpt>
      <trkpt lat="48.18356" lon="2.05467">
        <ele>130</ele>
        <time>2020-07-02T12:52:44Z</time>
      </trkpt>
      <trkpt lat="48.1835" lon="2.05465">
        <ele>130.1</ele>
        <time>2020-07-02T12:52:45Z</time>
      </trkpt>
      <trkpt lat="48.18344" lon="2.05464">
        <ele>130.2</ele>
        <time>2020-07-02T12:52:46Z</time>
      </trkpt>
      <trkpt lat="48.18338" lon="2.05462">
        <ele>130.2</ele>
        <time>2020-07-02T12:52:47Z</time>
      </trkpt>
      <trkpt lat="48.18331" lon="2.05462">
        <ele>130.3</ele>
        <time>2020-07-02T12:52:48Z</time>
      </trkpt>
      <trkpt lat="48.18325" lon="2.05461">
        <ele>130.4</ele>
        <time>2020-07-02T12:52:49Z</time>
      </trkpt>
      <trkpt lat="48.18319" lon="2.0546">
        <ele>130.4</ele>
        <time>2020-07-02T12:52:50Z</time>
      </trkpt>
      <trkpt lat="48.18312" lon="2.05458">
        <ele>130.5</ele>
        <time>2020-07-02T12:52:51Z</time>
      </trkpt>
      <trkpt lat="48.18306" lon="2.05457">
        <ele>130.6</ele>
        <time>2020-07-02T12:52:52Z</time>
      </trkpt>
      <trkpt lat="48.183" lon="2.05456">
        <ele>130.6</ele>
        <time>2020-07-02T12:52:53Z</time>
      </trkpt>
      <trkpt lat="48.18294" lon="2.05454">
        <ele>130.7</ele>
        <time>2020-07-02T12:52:54Z</time>
      </trkpt>
      <trkpt lat="48.18287" lon="2.05453">
        <ele>130.8</ele>
        <time>2020-07-02T12:52:55Z</time>
      </trkpt>
      <trkpt lat="48.18281" lon="2.05452">
        <ele>130.9</ele>
        <time>2020-07-02T12:52:56Z</time>
      </trkpt>
      <trkpt lat="48.18275" lon="2.05451">
        <ele>130.9</ele>
        <time>2020-07-02T12:52:57Z</time>
      </trkpt>
      <trkpt lat="48.18269" lon="2.0545">
        <ele>131</ele>
        <time>2020-07-02T12:52:58Z</time>
      </trkpt>
      <trkpt lat="48.18263" lon="2.05448">
        <ele>131.1</ele>
        <time>2020-07-02T12:52:59Z</time>
      </trkpt>
      <trkpt lat="48.18257" lon="2.05446">
        <ele>131.1</ele>
        <time>2020-07-02T12:53:00Z</time>
      </trkpt>
      <trkpt lat="48.18251" lon="2.05445">
        <ele>131.3</ele>
        <time>2020-07-02T12:53:01Z</time>
      </trkpt>
      <trkpt lat="48.18245" lon="2.05443">
        <ele>131.4</ele>
        <time>2020-07-02T12:53:02Z</time>
      </trkpt>
      <trkpt lat="48.18239" lon="2.05442">
        <ele>131.5</ele>
        <time>2020-07-02T12:53:03Z</time>
      </trkpt>
      <trkpt lat="48.18233" lon="2.0544">
        <ele>131.5</ele>
        <time>2020-07-02T12:53:04Z</time>
      </trkpt>
      <trkpt lat="48.18227" lon="2.05438">
        <ele>131.6</ele>
        <time>2020-07-02T12:53:05Z</time>
      </trkpt>
      <trkpt lat="48.18221" lon="2.05437">
        <ele>131.7</ele>
        <time>2020-07-02T12:53:06Z</time>
      </trkpt>
      <trkpt lat="48.18215" lon="2.05436">
        <ele>131.7</ele>
        <time>2020-07-02T12:53:07Z</time>
      </trkpt>
      <trkpt lat="48.1821" lon="2.05434">
        <ele>131.8</ele>
        <time>2020-07-02T12:53:08Z</time>
      </trkpt>
      <trkpt lat="48.18206" lon="2.05432">
        <ele>131.8</ele>
        <time>2020-07-02T12:53:09Z</time>
      </trkpt>
      <trkpt lat="48.18201" lon="2.0543">
        <ele>131.9</ele>
        <time>2020-07-02T12:53:10Z</time>
      </trkpt>
      <trkpt lat="48.18194" lon="2.05429">
        <ele>132</ele>
        <time>2020-07-02T12:53:11Z</time>
      </trkpt>
      <trkpt lat="48.18189" lon="2.05429">
        <ele>132</ele>
        <time>2020-07-02T12:53:12Z</time>
      </trkpt>
      <trkpt lat="48.18183" lon="2.05428">
        <ele>132.1</ele>
        <time>2020-07-02T12:53:13Z</time>
      </trkpt>
      <trkpt lat="48.18178" lon="2.05426">
        <ele>132.2</ele>
        <time>2020-07-02T12:53:14Z</time>
      </trkpt>
      <trkpt lat="48.18171" lon="2.05426">
        <ele>132.2</ele>
        <time>2020-07-02T12:53:15Z</time>
      </trkpt>
      <trkpt lat="48.18165" lon="2.05425">
        <ele>132.2</ele>
        <time>2020-07-02T12:53:16Z</time>
      </trkpt>
      <trkpt lat="48.18159" lon="2.05425">
        <ele>132.2</ele>
        <time>2020-07-02T12:53:17Z</time>
      </trkpt>
      <trkpt lat="48.18153" lon="2.05425">
        <ele>132.2</ele>
        <time>2020-07-02T12:53:18Z</time>
      </trkpt>
      <trkpt lat="48.18148" lon="2.05424">
        <ele>132.2</ele>
        <time>2020-07-02T12:53:19Z</time>
      </trkpt>
      <trkpt lat="48.18142" lon="2.05423">
        <ele>132.3</ele>
        <time>2020-07-02T12:53:20Z</time>
      </trkpt>
      <trkpt lat="48.18135" lon="2.05423">
        <ele>132.3</ele>
        <time>2020-07-02T12:53:21Z</time>
      </trkpt>
      <trkpt lat="48.18128" lon="2.05423">
        <ele>132.4</ele>
        <time>2020-07-02T12:53:22Z</time>
      </trkpt>
      <trkpt lat="48.18122" lon="2.05424">
        <ele>132.4</ele>
        <time>2020-07-02T12:53:23Z</time>
      </trkpt>
      <trkpt lat="48.18116" lon="2.05424">
        <ele>132.5</ele>
        <time>2020-07-02T12:53:24Z</time>
      </trkpt>
      <trkpt lat="48.18109" lon="2.05425">
        <ele>132.5</ele>
        <time>2020-07-02T12:53:25Z</time>
      </trkpt>
      <trkpt lat="48.18102" lon="2.05426">
        <ele>132.5</ele>
        <time>2020-07-02T12:53:26Z</time>
      </trkpt>
      <trkpt lat="48.18095" lon="2.05426">
        <ele>132.5</ele>
        <time>2020-07-02T12:53:27Z</time>
      </trkpt>
      <trkpt lat="48.18088" lon="2.05426">
        <ele>132.5</ele>
        <time>2020-07-02T12:53:28Z</time>
      </trkpt>
      <trkpt lat="48.18082" lon="2.05426">
        <ele>132.5</ele>
        <time>2020-07-02T12:53:29Z</time>
      </trkpt>
      <trkpt lat="48.18075" lon="2.05427">
        <ele>132.5</ele>
        <time>2020-07-02T12:53:30Z</time>
      </trkpt>
      <trkpt lat="48.18069" lon="2.05427">
        <ele>132.5</ele>
        <time>2020-07-02T12:53:31Z</time>
      </trkpt>
      <trkpt lat="48.18063" lon="2.05427">
        <ele>132.5</ele>
        <time>2020-07-02T12:53:32Z</time>
      </trkpt>
      <trkpt lat="48.18056" lon="2.05427">
        <ele>132.5</ele>
        <time>2020-07-02T12:53:33Z</time>
      </trkpt>
      <trkpt lat="48.1805" lon="2.05427">
        <ele>132.5</ele>
        <time>2020-07-02T12:53:34Z</time>
      </trkpt>
      <trkpt lat="48.18044" lon="2.05428">
        <ele>132.5</ele>
        <time>2020-07-02T12:53:35Z</time>
      </trkpt>
      <trkpt lat="48.18038" lon="2.05429">
        <ele>132.5</ele>
        <time>2020-07-02T12:53:36Z</time>
      </trkpt>
      <trkpt lat="48.18032" lon="2.05429">
        <ele>132.5</ele>
        <time>2020-07-02T12:53:37Z</time>
      </trkpt>
      <trkpt lat="48.18026" lon="2.0543">
        <ele>132.6</ele>
        <time>2020-07-02T12:53:38Z</time>
      </trkpt>
      <trkpt lat="48.1802" lon="2.05431">
        <ele>132.6</ele>
        <time>2020-07-02T12:53:39Z</time>
      </trkpt>
      <trkpt lat="48.18014" lon="2.05431">
        <ele>132.6</ele>
        <time>2020-07-02T12:53:40Z</time>
      </trkpt>
      <trkpt lat="48.18008" lon="2.05432">
        <ele>132.6</ele>
        <time>2020-07-02T12:53:41Z</time>
      </trkpt>
      <trkpt lat="48.18002" lon="2.05432">
        <ele>132.7</ele>
        <time>2020-07-02T12:53:42Z</time>
      </trkpt>
      <trkpt lat="48.17995" lon="2.05433">
        <ele>132.7</ele>
        <time>2020-07-02T12:53:43Z</time>
      </trkpt>
      <trkpt lat="48.17989" lon="2.05432">
        <ele>132.7</ele>
        <time>2020-07-02T12:53:44Z</time>
      </trkpt>
      <trkpt lat="48.17983" lon="2.05432">
        <ele>132.8</ele>
        <time>2020-07-02T12:53:45Z</time>
      </trkpt>
      <trkpt lat="48.17977" lon="2.05432">
        <ele>132.8</ele>
        <time>2020-07-02T12:53:46Z</time>
      </trkpt>
      <trkpt lat="48.17972" lon="2.05432">
        <ele>132.8</ele>
        <time>2020-07-02T12:53:47Z</time>
      </trkpt>
      <trkpt lat="48.17966" lon="2.05432">
        <ele>132.9</ele>
        <time>2020-07-02T12:53:48Z</time>
      </trkpt>
      <trkpt lat="48.17959" lon="2.05433">
        <ele>132.9</ele>
        <time>2020-07-02T12:53:49Z</time>
      </trkpt>
      <trkpt lat="48.17954" lon="2.05433">
        <ele>133</ele>
        <time>2020-07-02T12:53:50Z</time>
      </trkpt>
      <trkpt lat="48.17948" lon="2.05434">
        <ele>133</ele>
        <time>2020-07-02T12:53:51Z</time>
      </trkpt>
      <trkpt lat="48.17942" lon="2.05435">
        <ele>133.1</ele>
        <time>2020-07-02T12:53:52Z</time>
      </trkpt>
      <trkpt lat="48.17935" lon="2.05436">
        <ele>133.1</ele>
        <time>2020-07-02T12:53:53Z</time>
      </trkpt>
      <trkpt lat="48.17929" lon="2.05436">
        <ele>133.2</ele>
        <time>2020-07-02T12:53:54Z</time>
      </trkpt>
      <trkpt lat="48.17922" lon="2.05437">
        <ele>133.2</ele>
        <time>2020-07-02T12:53:55Z</time>
      </trkpt>
      <trkpt lat="48.17915" lon="2.05438">
        <ele>133.3</ele>
        <time>2020-07-02T12:53:56Z</time>
      </trkpt>
      <trkpt lat="48.17909" lon="2.05438">
        <ele>133.3</ele>
        <time>2020-07-02T12:53:57Z</time>
      </trkpt>
      <trkpt lat="48.17903" lon="2.05437">
        <ele>133.3</ele>
        <time>2020-07-02T12:53:58Z</time>
      </trkpt>
      <trkpt lat="48.17897" lon="2.05438">
        <ele>133.3</ele>
        <time>2020-07-02T12:53:59Z</time>
      </trkpt>
      <trkpt lat="48.17892" lon="2.05438">
        <ele>133.3</ele>
        <time>2020-07-02T12:54:00Z</time>
      </trkpt>
      <trkpt lat="48.17886" lon="2.05438">
        <ele>133.3</ele>
        <time>2020-07-02T12:54:01Z</time>
      </trkpt>
      <trkpt lat="48.1788" lon="2.05439">
        <ele>133.4</ele>
        <time>2020-07-02T12:54:02Z</time>
      </trkpt>
      <trkpt lat="48.17873" lon="2.05439">
        <ele>133.4</ele>
        <time>2020-07-02T12:54:03Z</time>
      </trkpt>
      <trkpt lat="48.17867" lon="2.0544">
        <ele>133.4</ele>
        <time>2020-07-02T12:54:04Z</time>
      </trkpt>
      <trkpt lat="48.1786" lon="2.0544">
        <ele>133.4</ele>
        <time>2020-07-02T12:54:05Z</time>
      </trkpt>
      <trkpt lat="48.17854" lon="2.05439">
        <ele>133.4</ele>
        <time>2020-07-02T12:54:06Z</time>
      </trkpt>
      <trkpt lat="48.17848" lon="2.05439">
        <ele>133.5</ele>
        <time>2020-07-02T12:54:07Z</time>
      </trkpt>
      <trkpt lat="48.17841" lon="2.0544">
        <ele>133.5</ele>
        <time>2020-07-02T12:54:08Z</time>
      </trkpt>
      <trkpt lat="48.17835" lon="2.0544">
        <ele>133.6</ele>
        <time>2020-07-02T12:54:09Z</time>
      </trkpt>
      <trkpt lat="48.17829" lon="2.05441">
        <ele>133.6</ele>
        <time>2020-07-02T12:54:10Z</time>
      </trkpt>
      <trkpt lat="48.17823" lon="2.05441">
        <ele>133.6</ele>
        <time>2020-07-02T12:54:11Z</time>
      </trkpt>
      <trkpt lat="48.17817" lon="2.05442">
        <ele>133.5</ele>
        <time>2020-07-02T12:54:12Z</time>
      </trkpt>
      <trkpt lat="48.1781" lon="2.05442">
        <ele>133.4</ele>
        <time>2020-07-02T12:54:13Z</time>
      </trkpt>
      <trkpt lat="48.17804" lon="2.05442">
        <ele>133.3</ele>
        <time>2020-07-02T12:54:14Z</time>
      </trkpt>
      <trkpt lat="48.17798" lon="2.05442">
        <ele>133.3</ele>
        <time>2020-07-02T12:54:15Z</time>
      </trkpt>
      <trkpt lat="48.17792" lon="2.05443">
        <ele>133.3</ele>
        <time>2020-07-02T12:54:16Z</time>
      </trkpt>
      <trkpt lat="48.17786" lon="2.05443">
        <ele>133.3</ele>
        <time>2020-07-02T12:54:17Z</time>
      </trkpt>
      <trkpt lat="48.1778" lon="2.05444">
        <ele>133.3</ele>
        <time>2020-07-02T12:54:18Z</time>
      </trkpt>
      <trkpt lat="48.17773" lon="2.05444">
        <ele>133.3</ele>
        <time>2020-07-02T12:54:19Z</time>
      </trkpt>
      <trkpt lat="48.17768" lon="2.05444">
        <ele>133.3</ele>
        <time>2020-07-02T12:54:20Z</time>
      </trkpt>
      <trkpt lat="48.17761" lon="2.05445">
        <ele>133.3</ele>
        <time>2020-07-02T12:54:21Z</time>
      </trkpt>
      <trkpt lat="48.17755" lon="2.05444">
        <ele>133.4</ele>
        <time>2020-07-02T12:54:22Z</time>
      </trkpt>
      <trkpt lat="48.17748" lon="2.05445">
        <ele>133.4</ele>
        <time>2020-07-02T12:54:23Z</time>
      </trkpt>
      <trkpt lat="48.17742" lon="2.05444">
        <ele>133.5</ele>
        <time>2020-07-02T12:54:24Z</time>
      </trkpt>
      <trkpt lat="48.17736" lon="2.05444">
        <ele>133.5</ele>
        <time>2020-07-02T12:54:25Z</time>
      </trkpt>
      <trkpt lat="48.1773" lon="2.05444">
        <ele>133.6</ele>
        <time>2020-07-02T12:54:26Z</time>
      </trkpt>
      <trkpt lat="48.17723" lon="2.05444">
        <ele>133.7</ele>
        <time>2020-07-02T12:54:27Z</time>
      </trkpt>
      <trkpt lat="48.17718" lon="2.05444">
        <ele>133.5</ele>
        <time>2020-07-02T12:54:28Z</time>
      </trkpt>
      <trkpt lat="48.17712" lon="2.05444">
        <ele>133.4</ele>
        <time>2020-07-02T12:54:29Z</time>
      </trkpt>
      <trkpt lat="48.17707" lon="2.05444">
        <ele>133.3</ele>
        <time>2020-07-02T12:54:30Z</time>
      </trkpt>
      <trkpt lat="48.17701" lon="2.05443">
        <ele>133.2</ele>
        <time>2020-07-02T12:54:31Z</time>
      </trkpt>
      <trkpt lat="48.17694" lon="2.05442">
        <ele>133.1</ele>
        <time>2020-07-02T12:54:32Z</time>
      </trkpt>
      <trkpt lat="48.17688" lon="2.05441">
        <ele>133</ele>
        <time>2020-07-02T12:54:33Z</time>
      </trkpt>
      <trkpt lat="48.17682" lon="2.0544">
        <ele>133</ele>
        <time>2020-07-02T12:54:34Z</time>
      </trkpt>
      <trkpt lat="48.17675" lon="2.05439">
        <ele>132.9</ele>
        <time>2020-07-02T12:54:35Z</time>
      </trkpt>
      <trkpt lat="48.17668" lon="2.05438">
        <ele>132.9</ele>
        <time>2020-07-02T12:54:36Z</time>
      </trkpt>
      <trkpt lat="48.17662" lon="2.05437">
        <ele>132.8</ele>
        <time>2020-07-02T12:54:37Z</time>
      </trkpt>
      <trkpt lat="48.17655" lon="2.05435">
        <ele>132.8</ele>
        <time>2020-07-02T12:54:38Z</time>
      </trkpt>
      <trkpt lat="48.17648" lon="2.05433">
        <ele>132.7</ele>
        <time>2020-07-02T12:54:39Z</time>
      </trkpt>
      <trkpt lat="48.17641" lon="2.05431">
        <ele>132.6</ele>
        <time>2020-07-02T12:54:40Z</time>
      </trkpt>
      <trkpt lat="48.17635" lon="2.0543">
        <ele>132.6</ele>
        <time>2020-07-02T12:54:41Z</time>
      </trkpt>
      <trkpt lat="48.17628" lon="2.05429">
        <ele>132.5</ele>
        <time>2020-07-02T12:54:42Z</time>
      </trkpt>
      <trkpt lat="48.17621" lon="2.05428">
        <ele>132.4</ele>
        <time>2020-07-02T12:54:43Z</time>
      </trkpt>
      <trkpt lat="48.17614" lon="2.05427">
        <ele>132.4</ele>
        <time>2020-07-02T12:54:44Z</time>
      </trkpt>
      <trkpt lat="48.17607" lon="2.05426">
        <ele>132.3</ele>
        <time>2020-07-02T12:54:45Z</time>
      </trkpt>
      <trkpt lat="48.176" lon="2.05425">
        <ele>132.3</ele>
        <time>2020-07-02T12:54:46Z</time>
      </trkpt>
      <trkpt lat="48.17593" lon="2.05423">
        <ele>132.2</ele>
        <time>2020-07-02T12:54:47Z</time>
      </trkpt>
      <trkpt lat="48.17586" lon="2.05422">
        <ele>132.2</ele>
        <time>2020-07-02T12:54:48Z</time>
      </trkpt>
      <trkpt lat="48.1758" lon="2.0542">
        <ele>132.2</ele>
        <time>2020-07-02T12:54:49Z</time>
      </trkpt>
      <trkpt lat="48.17573" lon="2.05418">
        <ele>132.1</ele>
        <time>2020-07-02T12:54:50Z</time>
      </trkpt>
      <trkpt lat="48.17566" lon="2.05416">
        <ele>132.1</ele>
        <time>2020-07-02T12:54:51Z</time>
      </trkpt>
      <trkpt lat="48.17559" lon="2.05415">
        <ele>132.1</ele>
        <time>2020-07-02T12:54:52Z</time>
      </trkpt>
      <trkpt lat="48.17552" lon="2.05414">
        <ele>132</ele>
        <time>2020-07-02T12:54:53Z</time>
      </trkpt>
      <trkpt lat="48.17545" lon="2.05413">
        <ele>132</ele>
        <time>2020-07-02T12:54:54Z</time>
      </trkpt>
      <trkpt lat="48.17538" lon="2.05412">
        <ele>131.9</ele>
        <time>2020-07-02T12:54:55Z</time>
      </trkpt>
      <trkpt lat="48.1753" lon="2.05411">
        <ele>131.8</ele>
        <time>2020-07-02T12:54:56Z</time>
      </trkpt>
      <trkpt lat="48.17523" lon="2.0541">
        <ele>131.8</ele>
        <time>2020-07-02T12:54:57Z</time>
      </trkpt>
      <trkpt lat="48.17516" lon="2.05409">
        <ele>131.7</ele>
        <time>2020-07-02T12:54:58Z</time>
      </trkpt>
      <trkpt lat="48.17508" lon="2.05407">
        <ele>131.7</ele>
        <time>2020-07-02T12:54:59Z</time>
      </trkpt>
      <trkpt lat="48.17501" lon="2.05406">
        <ele>131.7</ele>
        <time>2020-07-02T12:55:00Z</time>
      </trkpt>
      <trkpt lat="48.17494" lon="2.05404">
        <ele>131.6</ele>
        <time>2020-07-02T12:55:01Z</time>
      </trkpt>
      <trkpt lat="48.17487" lon="2.05402">
        <ele>131.6</ele>
        <time>2020-07-02T12:55:02Z</time>
      </trkpt>
      <trkpt lat="48.1748" lon="2.05401">
        <ele>131.6</ele>
        <time>2020-07-02T12:55:03Z</time>
      </trkpt>
      <trkpt lat="48.17473" lon="2.05399">
        <ele>131.6</ele>
        <time>2020-07-02T12:55:04Z</time>
      </trkpt>
      <trkpt lat="48.17466" lon="2.05398">
        <ele>131.6</ele>
        <time>2020-07-02T12:55:05Z</time>
      </trkpt>
      <trkpt lat="48.17459" lon="2.05396">
        <ele>131.6</ele>
        <time>2020-07-02T12:55:06Z</time>
      </trkpt>
      <trkpt lat="48.17452" lon="2.05395">
        <ele>131.7</ele>
        <time>2020-07-02T12:55:07Z</time>
      </trkpt>
      <trkpt lat="48.17445" lon="2.05394">
        <ele>131.9</ele>
        <time>2020-07-02T12:55:08Z</time>
      </trkpt>
      <trkpt lat="48.17438" lon="2.05392">
        <ele>132.2</ele>
        <time>2020-07-02T12:55:09Z</time>
      </trkpt>
      <trkpt lat="48.17432" lon="2.05391">
        <ele>132.1</ele>
        <time>2020-07-02T12:55:10Z</time>
      </trkpt>
      <trkpt lat="48.17425" lon="2.0539">
        <ele>132</ele>
        <time>2020-07-02T12:55:11Z</time>
      </trkpt>
      <trkpt lat="48.17419" lon="2.05389">
        <ele>132</ele>
        <time>2020-07-02T12:55:12Z</time>
      </trkpt>
      <trkpt lat="48.17412" lon="2.05387">
        <ele>132</ele>
        <time>2020-07-02T12:55:13Z</time>
      </trkpt>
      <trkpt lat="48.17406" lon="2.05385">
        <ele>132</ele>
        <time>2020-07-02T12:55:14Z</time>
      </trkpt>
      <trkpt lat="48.17399" lon="2.05384">
        <ele>132.1</ele>
        <time>2020-07-02T12:55:15Z</time>
      </trkpt>
      <trkpt lat="48.17393" lon="2.05383">
        <ele>132.1</ele>
        <time>2020-07-02T12:55:16Z</time>
      </trkpt>
      <trkpt lat="48.17387" lon="2.05382">
        <ele>132.2</ele>
        <time>2020-07-02T12:55:17Z</time>
      </trkpt>
      <trkpt lat="48.1738" lon="2.0538">
        <ele>132.2</ele>
        <time>2020-07-02T12:55:18Z</time>
      </trkpt>
      <trkpt lat="48.17374" lon="2.05379">
        <ele>132.3</ele>
        <time>2020-07-02T12:55:19Z</time>
      </trkpt>
      <trkpt lat="48.17368" lon="2.05378">
        <ele>132.4</ele>
        <time>2020-07-02T12:55:20Z</time>
      </trkpt>
      <trkpt lat="48.17361" lon="2.05376">
        <ele>132.4</ele>
        <time>2020-07-02T12:55:21Z</time>
      </trkpt>
      <trkpt lat="48.17355" lon="2.05375">
        <ele>132.5</ele>
        <time>2020-07-02T12:55:22Z</time>
      </trkpt>
      <trkpt lat="48.17349" lon="2.05373">
        <ele>132.5</ele>
        <time>2020-07-02T12:55:23Z</time>
      </trkpt>
      <trkpt lat="48.17343" lon="2.05371">
        <ele>132.6</ele>
        <time>2020-07-02T12:55:24Z</time>
      </trkpt>
      <trkpt lat="48.17337" lon="2.05369">
        <ele>132.6</ele>
        <time>2020-07-02T12:55:25Z</time>
      </trkpt>
      <trkpt lat="48.17331" lon="2.05368">
        <ele>132.7</ele>
        <time>2020-07-02T12:55:26Z</time>
      </trkpt>
      <trkpt lat="48.17324" lon="2.05366">
        <ele>132.7</ele>
        <time>2020-07-02T12:55:27Z</time>
      </trkpt>
      <trkpt lat="48.17318" lon="2.05365">
        <ele>132.8</ele>
        <time>2020-07-02T12:55:28Z</time>
      </trkpt>
      <trkpt lat="48.17312" lon="2.05364">
        <ele>132.8</ele>
        <time>2020-07-02T12:55:29Z</time>
      </trkpt>
      <trkpt lat="48.17305" lon="2.05363">
        <ele>132.8</ele>
        <time>2020-07-02T12:55:30Z</time>
      </trkpt>
      <trkpt lat="48.17299" lon="2.05362">
        <ele>132.9</ele>
        <time>2020-07-02T12:55:31Z</time>
      </trkpt>
      <trkpt lat="48.17293" lon="2.05361">
        <ele>132.9</ele>
        <time>2020-07-02T12:55:32Z</time>
      </trkpt>
      <trkpt lat="48.17287" lon="2.05359">
        <ele>132.9</ele>
        <time>2020-07-02T12:55:33Z</time>
      </trkpt>
      <trkpt lat="48.17281" lon="2.05358">
        <ele>132.9</ele>
        <time>2020-07-02T12:55:34Z</time>
      </trkpt>
      <trkpt lat="48.17275" lon="2.05357">
        <ele>133</ele>
        <time>2020-07-02T12:55:35Z</time>
      </trkpt>
      <trkpt lat="48.17269" lon="2.05356">
        <ele>133</ele>
        <time>2020-07-02T12:55:36Z</time>
      </trkpt>
      <trkpt lat="48.17262" lon="2.05355">
        <ele>133</ele>
        <time>2020-07-02T12:55:37Z</time>
      </trkpt>
      <trkpt lat="48.17256" lon="2.05354">
        <ele>133.1</ele>
        <time>2020-07-02T12:55:38Z</time>
      </trkpt>
      <trkpt lat="48.1725" lon="2.05353">
        <ele>133.1</ele>
        <time>2020-07-02T12:55:39Z</time>
      </trkpt>
      <trkpt lat="48.17243" lon="2.0535">
        <ele>133.1</ele>
        <time>2020-07-02T12:55:40Z</time>
      </trkpt>
      <trkpt lat="48.17236" lon="2.05349">
        <ele>133.1</ele>
        <time>2020-07-02T12:55:41Z</time>
      </trkpt>
      <trkpt lat="48.1723" lon="2.05348">
        <ele>133.1</ele>
        <time>2020-07-02T12:55:42Z</time>
      </trkpt>
      <trkpt lat="48.17224" lon="2.05347">
        <ele>133.1</ele>
        <time>2020-07-02T12:55:43Z</time>
      </trkpt>
      <trkpt lat="48.17218" lon="2.05346">
        <ele>133.2</ele>
        <time>2020-07-02T12:55:44Z</time>
      </trkpt>
      <trkpt lat="48.17211" lon="2.05344">
        <ele>133.2</ele>
        <time>2020-07-02T12:55:45Z</time>
      </trkpt>
      <trkpt lat="48.17204" lon="2.05343">
        <ele>133.2</ele>
        <time>2020-07-02T12:55:46Z</time>
      </trkpt>
      <trkpt lat="48.17198" lon="2.05341">
        <ele>133.2</ele>
        <time>2020-07-02T12:55:47Z</time>
      </trkpt>
      <trkpt lat="48.17191" lon="2.0534">
        <ele>133.2</ele>
        <time>2020-07-02T12:55:48Z</time>
      </trkpt>
      <trkpt lat="48.17185" lon="2.05339">
        <ele>133.2</ele>
        <time>2020-07-02T12:55:49Z</time>
      </trkpt>
      <trkpt lat="48.17178" lon="2.05338">
        <ele>133.2</ele>
        <time>2020-07-02T12:55:50Z</time>
      </trkpt>
      <trkpt lat="48.17171" lon="2.05336">
        <ele>133.2</ele>
        <time>2020-07-02T12:55:51Z</time>
      </trkpt>
      <trkpt lat="48.17165" lon="2.05335">
        <ele>133.3</ele>
        <time>2020-07-02T12:55:52Z</time>
      </trkpt>
      <trkpt lat="48.17158" lon="2.05334">
        <ele>133.3</ele>
        <time>2020-07-02T12:55:53Z</time>
      </trkpt>
      <trkpt lat="48.17151" lon="2.05333">
        <ele>133.3</ele>
        <time>2020-07-02T12:55:54Z</time>
      </trkpt>
      <trkpt lat="48.17145" lon="2.05332">
        <ele>133.3</ele>
        <time>2020-07-02T12:55:55Z</time>
      </trkpt>
      <trkpt lat="48.17138" lon="2.0533">
        <ele>133.3</ele>
        <time>2020-07-02T12:55:56Z</time>
      </trkpt>
      <trkpt lat="48.17131" lon="2.05329">
        <ele>133.3</ele>
        <time>2020-07-02T12:55:57Z</time>
      </trkpt>
      <trkpt lat="48.17125" lon="2.05327">
        <ele>133.3</ele>
        <time>2020-07-02T12:55:58Z</time>
      </trkpt>
      <trkpt lat="48.17118" lon="2.05326">
        <ele>133.3</ele>
        <time>2020-07-02T12:55:59Z</time>
      </trkpt>
      <trkpt lat="48.17111" lon="2.05325">
        <ele>133.3</ele>
        <time>2020-07-02T12:56:00Z</time>
      </trkpt>
      <trkpt lat="48.17105" lon="2.05324">
        <ele>133.3</ele>
        <time>2020-07-02T12:56:01Z</time>
      </trkpt>
      <trkpt lat="48.17098" lon="2.05323">
        <ele>133.3</ele>
        <time>2020-07-02T12:56:02Z</time>
      </trkpt>
      <trkpt lat="48.17091" lon="2.05322">
        <ele>133.3</ele>
        <time>2020-07-02T12:56:03Z</time>
      </trkpt>
      <trkpt lat="48.17084" lon="2.0532">
        <ele>133.3</ele>
        <time>2020-07-02T12:56:04Z</time>
      </trkpt>
      <trkpt lat="48.17077" lon="2.0532">
        <ele>133.3</ele>
        <time>2020-07-02T12:56:05Z</time>
      </trkpt>
      <trkpt lat="48.1707" lon="2.05319">
        <ele>133.3</ele>
        <time>2020-07-02T12:56:06Z</time>
      </trkpt>
      <trkpt lat="48.17063" lon="2.05318">
        <ele>133.3</ele>
        <time>2020-07-02T12:56:07Z</time>
      </trkpt>
      <trkpt lat="48.17056" lon="2.05317">
        <ele>133.3</ele>
        <time>2020-07-02T12:56:08Z</time>
      </trkpt>
      <trkpt lat="48.17049" lon="2.05317">
        <ele>133.3</ele>
        <time>2020-07-02T12:56:09Z</time>
      </trkpt>
      <trkpt lat="48.17042" lon="2.05316">
        <ele>133.3</ele>
        <time>2020-07-02T12:56:10Z</time>
      </trkpt>
      <trkpt lat="48.17035" lon="2.05315">
        <ele>133.4</ele>
        <time>2020-07-02T12:56:11Z</time>
      </trkpt>
      <trkpt lat="48.17028" lon="2.05314">
        <ele>133.5</ele>
        <time>2020-07-02T12:56:12Z</time>
      </trkpt>
      <trkpt lat="48.17022" lon="2.05314">
        <ele>133.6</ele>
        <time>2020-07-02T12:56:13Z</time>
      </trkpt>
      <trkpt lat="48.17015" lon="2.05313">
        <ele>133.5</ele>
        <time>2020-07-02T12:56:14Z</time>
      </trkpt>
      <trkpt lat="48.17008" lon="2.05312">
        <ele>133.4</ele>
        <time>2020-07-02T12:56:15Z</time>
      </trkpt>
      <trkpt lat="48.17001" lon="2.05312">
        <ele>133.4</ele>
        <time>2020-07-02T12:56:16Z</time>
      </trkpt>
      <trkpt lat="48.16994" lon="2.05311">
        <ele>133.3</ele>
        <time>2020-07-02T12:56:17Z</time>
      </trkpt>
      <trkpt lat="48.16987" lon="2.05311">
        <ele>133.3</ele>
        <time>2020-07-02T12:56:18Z</time>
      </trkpt>
      <trkpt lat="48.1698" lon="2.0531">
        <ele>133.3</ele>
        <time>2020-07-02T12:56:19Z</time>
      </trkpt>
      <trkpt lat="48.16974" lon="2.05309">
        <ele>133.2</ele>
        <time>2020-07-02T12:56:20Z</time>
      </trkpt>
      <trkpt lat="48.16967" lon="2.05308">
        <ele>133.2</ele>
        <time>2020-07-02T12:56:21Z</time>
      </trkpt>
      <trkpt lat="48.1696" lon="2.05308">
        <ele>133.2</ele>
        <time>2020-07-02T12:56:22Z</time>
      </trkpt>
      <trkpt lat="48.16953" lon="2.05307">
        <ele>133.1</ele>
        <time>2020-07-02T12:56:23Z</time>
      </trkpt>
      <trkpt lat="48.16946" lon="2.05308">
        <ele>133</ele>
        <time>2020-07-02T12:56:24Z</time>
      </trkpt>
      <trkpt lat="48.16939" lon="2.05308">
        <ele>133</ele>
        <time>2020-07-02T12:56:25Z</time>
      </trkpt>
      <trkpt lat="48.16932" lon="2.05307">
        <ele>133</ele>
        <time>2020-07-02T12:56:26Z</time>
      </trkpt>
      <trkpt lat="48.16925" lon="2.05305">
        <ele>133.1</ele>
        <time>2020-07-02T12:56:27Z</time>
      </trkpt>
      <trkpt lat="48.16918" lon="2.05304">
        <ele>133.1</ele>
        <time>2020-07-02T12:56:28Z</time>
      </trkpt>
      <trkpt lat="48.16911" lon="2.05302">
        <ele>133.2</ele>
        <time>2020-07-02T12:56:29Z</time>
      </trkpt>
      <trkpt lat="48.16904" lon="2.05301">
        <ele>133</ele>
        <time>2020-07-02T12:56:30Z</time>
      </trkpt>
      <trkpt lat="48.16897" lon="2.05301">
        <ele>132.8</ele>
        <time>2020-07-02T12:56:31Z</time>
      </trkpt>
      <trkpt lat="48.1689" lon="2.05301">
        <ele>132.7</ele>
        <time>2020-07-02T12:56:32Z</time>
      </trkpt>
      <trkpt lat="48.16883" lon="2.05301">
        <ele>132.6</ele>
        <time>2020-07-02T12:56:33Z</time>
      </trkpt>
      <trkpt lat="48.16876" lon="2.05299">
        <ele>132.5</ele>
        <time>2020-07-02T12:56:34Z</time>
      </trkpt>
      <trkpt lat="48.16869" lon="2.05299">
        <ele>132.5</ele>
        <time>2020-07-02T12:56:35Z</time>
      </trkpt>
      <trkpt lat="48.16862" lon="2.05299">
        <ele>132.4</ele>
        <time>2020-07-02T12:56:36Z</time>
      </trkpt>
      <trkpt lat="48.16854" lon="2.05298">
        <ele>132.3</ele>
        <time>2020-07-02T12:56:37Z</time>
      </trkpt>
      <trkpt lat="48.16847" lon="2.05297">
        <ele>132.2</ele>
        <time>2020-07-02T12:56:38Z</time>
      </trkpt>
      <trkpt lat="48.1684" lon="2.05296">
        <ele>132.1</ele>
        <time>2020-07-02T12:56:39Z</time>
      </trkpt>
      <trkpt lat="48.16833" lon="2.05295">
        <ele>132.1</ele>
        <time>2020-07-02T12:56:40Z</time>
      </trkpt>
      <trkpt lat="48.16826" lon="2.05294">
        <ele>132.1</ele>
        <time>2020-07-02T12:56:41Z</time>
      </trkpt>
      <trkpt lat="48.16818" lon="2.05294">
        <ele>132</ele>
        <time>2020-07-02T12:56:42Z</time>
      </trkpt>
      <trkpt lat="48.16811" lon="2.05294">
        <ele>132</ele>
        <time>2020-07-02T12:56:43Z</time>
      </trkpt>
      <trkpt lat="48.16803" lon="2.05293">
        <ele>131.9</ele>
        <time>2020-07-02T12:56:44Z</time>
      </trkpt>
      <trkpt lat="48.16795" lon="2.05292">
        <ele>132</ele>
        <time>2020-07-02T12:56:45Z</time>
      </trkpt>
      <trkpt lat="48.16788" lon="2.0529">
        <ele>132.1</ele>
        <time>2020-07-02T12:56:46Z</time>
      </trkpt>
      <trkpt lat="48.1678" lon="2.0529">
        <ele>132.3</ele>
        <time>2020-07-02T12:56:47Z</time>
      </trkpt>
      <trkpt lat="48.16772" lon="2.05289">
        <ele>132.2</ele>
        <time>2020-07-02T12:56:48Z</time>
      </trkpt>
      <trkpt lat="48.16765" lon="2.0529">
        <ele>132.1</ele>
        <time>2020-07-02T12:56:49Z</time>
      </trkpt>
      <trkpt lat="48.16757" lon="2.05289">
        <ele>132</ele>
        <time>2020-07-02T12:56:50Z</time>
      </trkpt>
      <trkpt lat="48.1675" lon="2.05287">
        <ele>131.9</ele>
        <time>2020-07-02T12:56:51Z</time>
      </trkpt>
      <trkpt lat="48.16742" lon="2.05287">
        <ele>131.9</ele>
        <time>2020-07-02T12:56:52Z</time>
      </trkpt>
      <trkpt lat="48.16735" lon="2.05285">
        <ele>131.8</ele>
        <time>2020-07-02T12:56:53Z</time>
      </trkpt>
      <trkpt lat="48.16727" lon="2.05285">
        <ele>131.8</ele>
        <time>2020-07-02T12:56:54Z</time>
      </trkpt>
      <trkpt lat="48.1672" lon="2.05284">
        <ele>131.7</ele>
        <time>2020-07-02T12:56:55Z</time>
      </trkpt>
      <trkpt lat="48.16712" lon="2.05283">
        <ele>131.7</ele>
        <time>2020-07-02T12:56:56Z</time>
      </trkpt>
      <trkpt lat="48.16705" lon="2.05282">
        <ele>131.7</ele>
        <time>2020-07-02T12:56:57Z</time>
      </trkpt>
      <trkpt lat="48.16698" lon="2.05282">
        <ele>131.7</ele>
        <time>2020-07-02T12:56:58Z</time>
      </trkpt>
      <trkpt lat="48.1669" lon="2.05281">
        <ele>131.8</ele>
        <time>2020-07-02T12:56:59Z</time>
      </trkpt>
      <trkpt lat="48.16683" lon="2.0528">
        <ele>131.9</ele>
        <time>2020-07-02T12:57:00Z</time>
      </trkpt>
      <trkpt lat="48.16676" lon="2.05279">
        <ele>132</ele>
        <time>2020-07-02T12:57:01Z</time>
      </trkpt>
      <trkpt lat="48.16669" lon="2.05277">
        <ele>131.9</ele>
        <time>2020-07-02T12:57:02Z</time>
      </trkpt>
      <trkpt lat="48.16662" lon="2.05276">
        <ele>131.8</ele>
        <time>2020-07-02T12:57:03Z</time>
      </trkpt>
      <trkpt lat="48.16655" lon="2.05273">
        <ele>131.7</ele>
        <time>2020-07-02T12:57:04Z</time>
      </trkpt>
      <trkpt lat="48.16648" lon="2.05271">
        <ele>131.6</ele>
        <time>2020-07-02T12:57:05Z</time>
      </trkpt>
      <trkpt lat="48.16641" lon="2.05269">
        <ele>131.5</ele>
        <time>2020-07-02T12:57:06Z</time>
      </trkpt>
      <trkpt lat="48.16634" lon="2.05268">
        <ele>131.5</ele>
        <time>2020-07-02T12:57:07Z</time>
      </trkpt>
      <trkpt lat="48.16627" lon="2.05266">
        <ele>131.5</ele>
        <time>2020-07-02T12:57:08Z</time>
      </trkpt>
      <trkpt lat="48.1662" lon="2.05265">
        <ele>131.5</ele>
        <time>2020-07-02T12:57:09Z</time>
      </trkpt>
      <trkpt lat="48.16613" lon="2.05263">
        <ele>131.4</ele>
        <time>2020-07-02T12:57:10Z</time>
      </trkpt>
      <trkpt lat="48.16606" lon="2.05261">
        <ele>131.4</ele>
        <time>2020-07-02T12:57:11Z</time>
      </trkpt>
      <trkpt lat="48.166" lon="2.05259">
        <ele>131.4</ele>
        <time>2020-07-02T12:57:12Z</time>
      </trkpt>
      <trkpt lat="48.16593" lon="2.05257">
        <ele>131.4</ele>
        <time>2020-07-02T12:57:13Z</time>
      </trkpt>
      <trkpt lat="48.16586" lon="2.05255">
        <ele>131.3</ele>
        <time>2020-07-02T12:57:14Z</time>
      </trkpt>
      <trkpt lat="48.16579" lon="2.05254">
        <ele>131.2</ele>
        <time>2020-07-02T12:57:15Z</time>
      </trkpt>
      <trkpt lat="48.16572" lon="2.05252">
        <ele>131.2</ele>
        <time>2020-07-02T12:57:16Z</time>
      </trkpt>
      <trkpt lat="48.16566" lon="2.05249">
        <ele>131.1</ele>
        <time>2020-07-02T12:57:17Z</time>
      </trkpt>
      <trkpt lat="48.16559" lon="2.05248">
        <ele>131.1</ele>
        <time>2020-07-02T12:57:18Z</time>
      </trkpt>
      <trkpt lat="48.16552" lon="2.05247">
        <ele>131</ele>
        <time>2020-07-02T12:57:19Z</time>
      </trkpt>
      <trkpt lat="48.16545" lon="2.05245">
        <ele>131</ele>
        <time>2020-07-02T12:57:20Z</time>
      </trkpt>
      <trkpt lat="48.16538" lon="2.05243">
        <ele>131</ele>
        <time>2020-07-02T12:57:21Z</time>
      </trkpt>
      <trkpt lat="48.16531" lon="2.05241">
        <ele>131</ele>
        <time>2020-07-02T12:57:22Z</time>
      </trkpt>
      <trkpt lat="48.16524" lon="2.05239">
        <ele>130.9</ele>
        <time>2020-07-02T12:57:23Z</time>
      </trkpt>
      <trkpt lat="48.16517" lon="2.05237">
        <ele>130.9</ele>
        <time>2020-07-02T12:57:24Z</time>
      </trkpt>
      <trkpt lat="48.1651" lon="2.05235">
        <ele>130.8</ele>
        <time>2020-07-02T12:57:25Z</time>
      </trkpt>
      <trkpt lat="48.16503" lon="2.05234">
        <ele>130.8</ele>
        <time>2020-07-02T12:57:26Z</time>
      </trkpt>
      <trkpt lat="48.16496" lon="2.05232">
        <ele>130.7</ele>
        <time>2020-07-02T12:57:27Z</time>
      </trkpt>
      <trkpt lat="48.16489" lon="2.05231">
        <ele>130.7</ele>
        <time>2020-07-02T12:57:28Z</time>
      </trkpt>
      <trkpt lat="48.16482" lon="2.05229">
        <ele>130.6</ele>
        <time>2020-07-02T12:57:29Z</time>
      </trkpt>
      <trkpt lat="48.16475" lon="2.05228">
        <ele>130.6</ele>
        <time>2020-07-02T12:57:30Z</time>
      </trkpt>
      <trkpt lat="48.16468" lon="2.05227">
        <ele>130.6</ele>
        <time>2020-07-02T12:57:31Z</time>
      </trkpt>
      <trkpt lat="48.16461" lon="2.05225">
        <ele>130.6</ele>
        <time>2020-07-02T12:57:32Z</time>
      </trkpt>
      <trkpt lat="48.16454" lon="2.05224">
        <ele>130.6</ele>
        <time>2020-07-02T12:57:33Z</time>
      </trkpt>
      <trkpt lat="48.16447" lon="2.05223">
        <ele>130.5</ele>
        <time>2020-07-02T12:57:34Z</time>
      </trkpt>
      <trkpt lat="48.16439" lon="2.05222">
        <ele>130.5</ele>
        <time>2020-07-02T12:57:35Z</time>
      </trkpt>
      <trkpt lat="48.16432" lon="2.0522">
        <ele>130.4</ele>
        <time>2020-07-02T12:57:36Z</time>
      </trkpt>
      <trkpt lat="48.16425" lon="2.0522">
        <ele>130.4</ele>
        <time>2020-07-02T12:57:37Z</time>
      </trkpt>
      <trkpt lat="48.16418" lon="2.05219">
        <ele>130.4</ele>
        <time>2020-07-02T12:57:38Z</time>
      </trkpt>
      <trkpt lat="48.16411" lon="2.05218">
        <ele>130.4</ele>
        <time>2020-07-02T12:57:39Z</time>
      </trkpt>
      <trkpt lat="48.16404" lon="2.05217">
        <ele>130.4</ele>
        <time>2020-07-02T12:57:40Z</time>
      </trkpt>
      <trkpt lat="48.16398" lon="2.05217">
        <ele>130.4</ele>
        <time>2020-07-02T12:57:41Z</time>
      </trkpt>
      <trkpt lat="48.16391" lon="2.05216">
        <ele>130.4</ele>
        <time>2020-07-02T12:57:42Z</time>
      </trkpt>
      <trkpt lat="48.16384" lon="2.05216">
        <ele>130.4</ele>
        <time>2020-07-02T12:57:43Z</time>
      </trkpt>
      <trkpt lat="48.16377" lon="2.05216">
        <ele>130.3</ele>
        <time>2020-07-02T12:57:44Z</time>
      </trkpt>
      <trkpt lat="48.1637" lon="2.05216">
        <ele>130.3</ele>
        <time>2020-07-02T12:57:45Z</time>
      </trkpt>
      <trkpt lat="48.16363" lon="2.05216">
        <ele>130.2</ele>
        <time>2020-07-02T12:57:46Z</time>
      </trkpt>
      <trkpt lat="48.16356" lon="2.05216">
        <ele>130.2</ele>
        <time>2020-07-02T12:57:47Z</time>
      </trkpt>
      <trkpt lat="48.16348" lon="2.05216">
        <ele>130.2</ele>
        <time>2020-07-02T12:57:48Z</time>
      </trkpt>
      <trkpt lat="48.16341" lon="2.05215">
        <ele>130.1</ele>
        <time>2020-07-02T12:57:49Z</time>
      </trkpt>
      <trkpt lat="48.16334" lon="2.05215">
        <ele>130.1</ele>
        <time>2020-07-02T12:57:50Z</time>
      </trkpt>
      <trkpt lat="48.16327" lon="2.05215">
        <ele>130.1</ele>
        <time>2020-07-02T12:57:51Z</time>
      </trkpt>
      <trkpt lat="48.1632" lon="2.05215">
        <ele>130</ele>
        <time>2020-07-02T12:57:52Z</time>
      </trkpt>
      <trkpt lat="48.16312" lon="2.05215">
        <ele>130</ele>
        <time>2020-07-02T12:57:53Z</time>
      </trkpt>
      <trkpt lat="48.16305" lon="2.05215">
        <ele>130</ele>
        <time>2020-07-02T12:57:54Z</time>
      </trkpt>
      <trkpt lat="48.16298" lon="2.05214">
        <ele>130</ele>
        <time>2020-07-02T12:57:55Z</time>
      </trkpt>
      <trkpt lat="48.16291" lon="2.05215">
        <ele>130</ele>
        <time>2020-07-02T12:57:56Z</time>
      </trkpt>
      <trkpt lat="48.16284" lon="2.05216">
        <ele>130</ele>
        <time>2020-07-02T12:57:57Z</time>
      </trkpt>
      <trkpt lat="48.16277" lon="2.05216">
        <ele>129.9</ele>
        <time>2020-07-02T12:57:58Z</time>
      </trkpt>
      <trkpt lat="48.1627" lon="2.05215">
        <ele>129.9</ele>
        <time>2020-07-02T12:57:59Z</time>
      </trkpt>
      <trkpt lat="48.16263" lon="2.05215">
        <ele>129.9</ele>
        <time>2020-07-02T12:58:00Z</time>
      </trkpt>
      <trkpt lat="48.16256" lon="2.05215">
        <ele>129.9</ele>
        <time>2020-07-02T12:58:01Z</time>
      </trkpt>
      <trkpt lat="48.16249" lon="2.05215">
        <ele>129.9</ele>
        <time>2020-07-02T12:58:02Z</time>
      </trkpt>
      <trkpt lat="48.16242" lon="2.05215">
        <ele>129.9</ele>
        <time>2020-07-02T12:58:03Z</time>
      </trkpt>
      <trkpt lat="48.16235" lon="2.05216">
        <ele>129.9</ele>
        <time>2020-07-02T12:58:04Z</time>
      </trkpt>
      <trkpt lat="48.16228" lon="2.05217">
        <ele>129.9</ele>
        <time>2020-07-02T12:58:05Z</time>
      </trkpt>
      <trkpt lat="48.16221" lon="2.05217">
        <ele>130</ele>
        <time>2020-07-02T12:58:06Z</time>
      </trkpt>
      <trkpt lat="48.16214" lon="2.05218">
        <ele>130.1</ele>
        <time>2020-07-02T12:58:07Z</time>
      </trkpt>
      <trkpt lat="48.16207" lon="2.05218">
        <ele>130.3</ele>
        <time>2020-07-02T12:58:08Z</time>
      </trkpt>
      <trkpt lat="48.162" lon="2.05218">
        <ele>130.4</ele>
        <time>2020-07-02T12:58:09Z</time>
      </trkpt>
      <trkpt lat="48.16194" lon="2.05218">
        <ele>130.4</ele>
        <time>2020-07-02T12:58:10Z</time>
      </trkpt>
      <trkpt lat="48.16187" lon="2.05218">
        <ele>130.4</ele>
        <time>2020-07-02T12:58:11Z</time>
      </trkpt>
      <trkpt lat="48.1618" lon="2.05218">
        <ele>130.4</ele>
        <time>2020-07-02T12:58:12Z</time>
      </trkpt>
      <trkpt lat="48.16173" lon="2.05218">
        <ele>130.5</ele>
        <time>2020-07-02T12:58:13Z</time>
      </trkpt>
      <trkpt lat="48.16166" lon="2.05218">
        <ele>130.6</ele>
        <time>2020-07-02T12:58:14Z</time>
      </trkpt>
      <trkpt lat="48.1616" lon="2.05219">
        <ele>130.6</ele>
        <time>2020-07-02T12:58:15Z</time>
      </trkpt>
      <trkpt lat="48.16153" lon="2.0522">
        <ele>130.7</ele>
        <time>2020-07-02T12:58:16Z</time>
      </trkpt>
      <trkpt lat="48.16147" lon="2.05221">
        <ele>130.7</ele>
        <time>2020-07-02T12:58:17Z</time>
      </trkpt>
      <trkpt lat="48.16141" lon="2.05222">
        <ele>130.7</ele>
        <time>2020-07-02T12:58:18Z</time>
      </trkpt>
      <trkpt lat="48.16135" lon="2.05223">
        <ele>130.7</ele>
        <time>2020-07-02T12:58:19Z</time>
      </trkpt>
      <trkpt lat="48.16129" lon="2.05224">
        <ele>130.7</ele>
        <time>2020-07-02T12:58:20Z</time>
      </trkpt>
      <trkpt lat="48.16124" lon="2.05226">
        <ele>130.7</ele>
        <time>2020-07-02T12:58:21Z</time>
      </trkpt>
      <trkpt lat="48.16118" lon="2.05226">
        <ele>130.7</ele>
        <time>2020-07-02T12:58:22Z</time>
      </trkpt>
      <trkpt lat="48.16113" lon="2.05227">
        <ele>130.6</ele>
        <time>2020-07-02T12:58:23Z</time>
      </trkpt>
      <trkpt lat="48.16107" lon="2.05227">
        <ele>130.5</ele>
        <time>2020-07-02T12:58:24Z</time>
      </trkpt>
      <trkpt lat="48.16101" lon="2.05224">
        <ele>130.4</ele>
        <time>2020-07-02T12:58:25Z</time>
      </trkpt>
      <trkpt lat="48.16096" lon="2.0522">
        <ele>130.4</ele>
        <time>2020-07-02T12:58:26Z</time>
      </trkpt>
      <trkpt lat="48.16091" lon="2.05215">
        <ele>130.4</ele>
        <time>2020-07-02T12:58:27Z</time>
      </trkpt>
      <trkpt lat="48.16086" lon="2.05211">
        <ele>130.4</ele>
        <time>2020-07-02T12:58:28Z</time>
      </trkpt>
      <trkpt lat="48.16081" lon="2.05211">
        <ele>130.4</ele>
        <time>2020-07-02T12:58:29Z</time>
      </trkpt>
      <trkpt lat="48.16075" lon="2.05212">
        <ele>130.5</ele>
        <time>2020-07-02T12:58:30Z</time>
      </trkpt>
      <trkpt lat="48.16069" lon="2.05214">
        <ele>130.5</ele>
        <time>2020-07-02T12:58:31Z</time>
      </trkpt>
      <trkpt lat="48.16064" lon="2.05218">
        <ele>130.4</ele>
        <time>2020-07-02T12:58:32Z</time>
      </trkpt>
      <trkpt lat="48.16059" lon="2.05222">
        <ele>130.4</ele>
        <time>2020-07-02T12:58:33Z</time>
      </trkpt>
      <trkpt lat="48.16053" lon="2.05225">
        <ele>130.4</ele>
        <time>2020-07-02T12:58:34Z</time>
      </trkpt>
      <trkpt lat="48.16048" lon="2.05231">
        <ele>130.3</ele>
        <time>2020-07-02T12:58:35Z</time>
      </trkpt>
      <trkpt lat="48.16043" lon="2.05234">
        <ele>130.3</ele>
        <time>2020-07-02T12:58:36Z</time>
      </trkpt>
      <trkpt lat="48.16036" lon="2.05237">
        <ele>130.2</ele>
        <time>2020-07-02T12:58:37Z</time>
      </trkpt>
      <trkpt lat="48.16029" lon="2.05238">
        <ele>130.2</ele>
        <time>2020-07-02T12:58:38Z</time>
      </trkpt>
      <trkpt lat="48.16021" lon="2.05235">
        <ele>130.3</ele>
        <time>2020-07-02T12:58:39Z</time>
      </trkpt>
      <trkpt lat="48.16015" lon="2.0523">
        <ele>130.1</ele>
        <time>2020-07-02T12:58:40Z</time>
      </trkpt>
      <trkpt lat="48.16009" lon="2.05226">
        <ele>130</ele>
        <time>2020-07-02T12:58:41Z</time>
      </trkpt>
      <trkpt lat="48.16003" lon="2.05223">
        <ele>130</ele>
        <time>2020-07-02T12:58:42Z</time>
      </trkpt>
      <trkpt lat="48.15997" lon="2.05221">
        <ele>130</ele>
        <time>2020-07-02T12:58:43Z</time>
      </trkpt>
      <trkpt lat="48.1599" lon="2.0522">
        <ele>130</ele>
        <time>2020-07-02T12:58:44Z</time>
      </trkpt>
      <trkpt lat="48.15984" lon="2.05219">
        <ele>130</ele>
        <time>2020-07-02T12:58:45Z</time>
      </trkpt>
      <trkpt lat="48.15978" lon="2.05218">
        <ele>130</ele>
        <time>2020-07-02T12:58:46Z</time>
      </trkpt>
      <trkpt lat="48.15971" lon="2.05217">
        <ele>130</ele>
        <time>2020-07-02T12:58:47Z</time>
      </trkpt>
      <trkpt lat="48.15965" lon="2.05217">
        <ele>130.1</ele>
        <time>2020-07-02T12:58:48Z</time>
      </trkpt>
      <trkpt lat="48.15958" lon="2.05217">
        <ele>130.1</ele>
        <time>2020-07-02T12:58:49Z</time>
      </trkpt>
      <trkpt lat="48.15952" lon="2.05217">
        <ele>130.1</ele>
        <time>2020-07-02T12:58:50Z</time>
      </trkpt>
      <trkpt lat="48.15945" lon="2.05217">
        <ele>130.1</ele>
        <time>2020-07-02T12:58:51Z</time>
      </trkpt>
      <trkpt lat="48.15938" lon="2.05218">
        <ele>130.1</ele>
        <time>2020-07-02T12:58:52Z</time>
      </trkpt>
      <trkpt lat="48.15932" lon="2.05217">
        <ele>130.1</ele>
        <time>2020-07-02T12:58:53Z</time>
      </trkpt>
      <trkpt lat="48.15925" lon="2.05218">
        <ele>130.1</ele>
        <time>2020-07-02T12:58:54Z</time>
      </trkpt>
      <trkpt lat="48.15918" lon="2.05217">
        <ele>130.1</ele>
        <time>2020-07-02T12:58:55Z</time>
      </trkpt>
      <trkpt lat="48.15912" lon="2.05217">
        <ele>130.2</ele>
        <time>2020-07-02T12:58:56Z</time>
      </trkpt>
      <trkpt lat="48.15905" lon="2.05217">
        <ele>130.2</ele>
        <time>2020-07-02T12:58:57Z</time>
      </trkpt>
      <trkpt lat="48.15898" lon="2.05217">
        <ele>130.2</ele>
        <time>2020-07-02T12:58:58Z</time>
      </trkpt>
      <trkpt lat="48.15892" lon="2.05218">
        <ele>130.2</ele>
        <time>2020-07-02T12:58:59Z</time>
      </trkpt>
      <trkpt lat="48.15885" lon="2.05218">
        <ele>130.2</ele>
        <time>2020-07-02T12:59:00Z</time>
      </trkpt>
      <trkpt lat="48.15879" lon="2.05219">
        <ele>130.3</ele>
        <time>2020-07-02T12:59:01Z</time>
      </trkpt>
      <trkpt lat="48.15873" lon="2.05219">
        <ele>130.3</ele>
        <time>2020-07-02T12:59:02Z</time>
      </trkpt>
      <trkpt lat="48.15866" lon="2.05219">
        <ele>130.4</ele>
        <time>2020-07-02T12:59:03Z</time>
      </trkpt>
      <trkpt lat="48.1586" lon="2.05219">
        <ele>130.4</ele>
        <time>2020-07-02T12:59:04Z</time>
      </trkpt>
      <trkpt lat="48.15853" lon="2.0522">
        <ele>130.5</ele>
        <time>2020-07-02T12:59:05Z</time>
      </trkpt>
      <trkpt lat="48.15847" lon="2.05221">
        <ele>130.5</ele>
        <time>2020-07-02T12:59:06Z</time>
      </trkpt>
      <trkpt lat="48.15841" lon="2.05222">
        <ele>130.6</ele>
        <time>2020-07-02T12:59:07Z</time>
      </trkpt>
      <trkpt lat="48.15834" lon="2.05222">
        <ele>130.6</ele>
        <time>2020-07-02T12:59:08Z</time>
      </trkpt>
      <trkpt lat="48.15828" lon="2.05222">
        <ele>130.7</ele>
        <time>2020-07-02T12:59:09Z</time>
      </trkpt>
      <trkpt lat="48.15822" lon="2.05221">
        <ele>130.7</ele>
        <time>2020-07-02T12:59:10Z</time>
      </trkpt>
      <trkpt lat="48.15816" lon="2.05221">
        <ele>130.8</ele>
        <time>2020-07-02T12:59:11Z</time>
      </trkpt>
      <trkpt lat="48.1581" lon="2.05221">
        <ele>130.8</ele>
        <time>2020-07-02T12:59:12Z</time>
      </trkpt>
      <trkpt lat="48.15804" lon="2.05221">
        <ele>130.9</ele>
        <time>2020-07-02T12:59:13Z</time>
      </trkpt>
      <trkpt lat="48.15797" lon="2.05221">
        <ele>131</ele>
        <time>2020-07-02T12:59:14Z</time>
      </trkpt>
      <trkpt lat="48.15791" lon="2.05221">
        <ele>131.1</ele>
        <time>2020-07-02T12:59:15Z</time>
      </trkpt>
      <trkpt lat="48.15785" lon="2.05221">
        <ele>131.2</ele>
        <time>2020-07-02T12:59:16Z</time>
      </trkpt>
      <trkpt lat="48.15779" lon="2.05221">
        <ele>131.4</ele>
        <time>2020-07-02T12:59:17Z</time>
      </trkpt>
      <trkpt lat="48.15773" lon="2.05221">
        <ele>131.5</ele>
        <time>2020-07-02T12:59:18Z</time>
      </trkpt>
      <trkpt lat="48.15767" lon="2.05221">
        <ele>131.5</ele>
        <time>2020-07-02T12:59:19Z</time>
      </trkpt>
      <trkpt lat="48.15761" lon="2.0522">
        <ele>131.5</ele>
        <time>2020-07-02T12:59:20Z</time>
      </trkpt>
      <trkpt lat="48.15756" lon="2.0522">
        <ele>131.5</ele>
        <time>2020-07-02T12:59:21Z</time>
      </trkpt>
      <trkpt lat="48.15749" lon="2.0522">
        <ele>131.5</ele>
        <time>2020-07-02T12:59:22Z</time>
      </trkpt>
      <trkpt lat="48.15743" lon="2.0522">
        <ele>131.5</ele>
        <time>2020-07-02T12:59:23Z</time>
      </trkpt>
      <trkpt lat="48.15736" lon="2.0522">
        <ele>131.5</ele>
        <time>2020-07-02T12:59:24Z</time>
      </trkpt>
      <trkpt lat="48.15729" lon="2.0522">
        <ele>131.5</ele>
        <time>2020-07-02T12:59:25Z</time>
      </trkpt>
      <trkpt lat="48.15723" lon="2.0522">
        <ele>131.5</ele>
        <time>2020-07-02T12:59:26Z</time>
      </trkpt>
      <trkpt lat="48.15717" lon="2.0522">
        <ele>131.4</ele>
        <time>2020-07-02T12:59:27Z</time>
      </trkpt>
      <trkpt lat="48.1571" lon="2.05219">
        <ele>131.4</ele>
        <time>2020-07-02T12:59:28Z</time>
      </trkpt>
      <trkpt lat="48.15704" lon="2.05219">
        <ele>131.4</ele>
        <time>2020-07-02T12:59:29Z</time>
      </trkpt>
      <trkpt lat="48.15697" lon="2.05218">
        <ele>131.4</ele>
        <time>2020-07-02T12:59:30Z</time>
      </trkpt>
      <trkpt lat="48.1569" lon="2.05219">
        <ele>131.4</ele>
        <time>2020-07-02T12:59:31Z</time>
      </trkpt>
      <trkpt lat="48.15684" lon="2.05219">
        <ele>131.4</ele>
        <time>2020-07-02T12:59:32Z</time>
      </trkpt>
      <trkpt lat="48.15677" lon="2.05219">
        <ele>131.5</ele>
        <time>2020-07-02T12:59:33Z</time>
      </trkpt>
      <trkpt lat="48.1567" lon="2.05219">
        <ele>131.5</ele>
        <time>2020-07-02T12:59:34Z</time>
      </trkpt>
      <trkpt lat="48.15663" lon="2.05219">
        <ele>131.6</ele>
        <time>2020-07-02T12:59:35Z</time>
      </trkpt>
      <trkpt lat="48.15657" lon="2.05218">
        <ele>131.6</ele>
        <time>2020-07-02T12:59:36Z</time>
      </trkpt>
      <trkpt lat="48.1565" lon="2.05218">
        <ele>131.7</ele>
        <time>2020-07-02T12:59:37Z</time>
      </trkpt>
      <trkpt lat="48.15643" lon="2.05218">
        <ele>131.7</ele>
        <time>2020-07-02T12:59:38Z</time>
      </trkpt>
      <trkpt lat="48.15637" lon="2.05218">
        <ele>131.8</ele>
        <time>2020-07-02T12:59:39Z</time>
      </trkpt>
      <trkpt lat="48.15631" lon="2.05218">
        <ele>131.7</ele>
        <time>2020-07-02T12:59:40Z</time>
      </trkpt>
      <trkpt lat="48.15624" lon="2.05218">
        <ele>131.6</ele>
        <time>2020-07-02T12:59:41Z</time>
      </trkpt>
      <trkpt lat="48.15617" lon="2.05218">
        <ele>131.6</ele>
        <time>2020-07-02T12:59:42Z</time>
      </trkpt>
      <trkpt lat="48.1561" lon="2.05217">
        <ele>131.6</ele>
        <time>2020-07-02T12:59:43Z</time>
      </trkpt>
      <trkpt lat="48.15603" lon="2.05217">
        <ele>131.6</ele>
        <time>2020-07-02T12:59:44Z</time>
      </trkpt>
      <trkpt lat="48.15596" lon="2.05216">
        <ele>131.5</ele>
        <time>2020-07-02T12:59:45Z</time>
      </trkpt>
      <trkpt lat="48.1559" lon="2.05217">
        <ele>131.5</ele>
        <time>2020-07-02T12:59:46Z</time>
      </trkpt>
      <trkpt lat="48.15583" lon="2.05216">
        <ele>131.5</ele>
        <time>2020-07-02T12:59:47Z</time>
      </trkpt>
      <trkpt lat="48.15576" lon="2.05216">
        <ele>131.5</ele>
        <time>2020-07-02T12:59:48Z</time>
      </trkpt>
      <trkpt lat="48.1557" lon="2.05215">
        <ele>131.5</ele>
        <time>2020-07-02T12:59:49Z</time>
      </trkpt>
      <trkpt lat="48.15563" lon="2.05214">
        <ele>131.6</ele>
        <time>2020-07-02T12:59:50Z</time>
      </trkpt>
      <trkpt lat="48.15556" lon="2.05214">
        <ele>131.7</ele>
        <time>2020-07-02T12:59:51Z</time>
      </trkpt>
      <trkpt lat="48.15549" lon="2.05214">
        <ele>131.6</ele>
        <time>2020-07-02T12:59:52Z</time>
      </trkpt>
      <trkpt lat="48.15542" lon="2.05214">
        <ele>131.4</ele>
        <time>2020-07-02T12:59:53Z</time>
      </trkpt>
      <trkpt lat="48.15535" lon="2.05213">
        <ele>131.3</ele>
        <time>2020-07-02T12:59:54Z</time>
      </trkpt>
      <trkpt lat="48.15528" lon="2.05214">
        <ele>131.2</ele>
        <time>2020-07-02T12:59:55Z</time>
      </trkpt>
      <trkpt lat="48.15521" lon="2.05214">
        <ele>131.2</ele>
        <time>2020-07-02T12:59:56Z</time>
      </trkpt>
      <trkpt lat="48.15514" lon="2.05214">
        <ele>131.1</ele>
        <time>2020-07-02T12:59:57Z</time>
      </trkpt>
      <trkpt lat="48.15507" lon="2.05214">
        <ele>131.1</ele>
        <time>2020-07-02T12:59:58Z</time>
      </trkpt>
      <trkpt lat="48.155" lon="2.05214">
        <ele>131</ele>
        <time>2020-07-02T12:59:59Z</time>
      </trkpt>
      <trkpt lat="48.15493" lon="2.05214">
        <ele>130.9</ele>
        <time>2020-07-02T13:00:00Z</time>
      </trkpt>
      <trkpt lat="48.15486" lon="2.05213">
        <ele>130.9</ele>
        <time>2020-07-02T13:00:01Z</time>
      </trkpt>
      <trkpt lat="48.15479" lon="2.05212">
        <ele>130.8</ele>
        <time>2020-07-02T13:00:02Z</time>
      </trkpt>
      <trkpt lat="48.15471" lon="2.05212">
        <ele>130.8</ele>
        <time>2020-07-02T13:00:03Z</time>
      </trkpt>
      <trkpt lat="48.15464" lon="2.0521">
        <ele>130.7</ele>
        <time>2020-07-02T13:00:04Z</time>
      </trkpt>
      <trkpt lat="48.15457" lon="2.0521">
        <ele>130.7</ele>
        <time>2020-07-02T13:00:05Z</time>
      </trkpt>
      <trkpt lat="48.15449" lon="2.0521">
        <ele>130.5</ele>
        <time>2020-07-02T13:00:06Z</time>
      </trkpt>
      <trkpt lat="48.15442" lon="2.05211">
        <ele>130.4</ele>
        <time>2020-07-02T13:00:07Z</time>
      </trkpt>
      <trkpt lat="48.15434" lon="2.0521">
        <ele>130.4</ele>
        <time>2020-07-02T13:00:08Z</time>
      </trkpt>
      <trkpt lat="48.15427" lon="2.0521">
        <ele>130.3</ele>
        <time>2020-07-02T13:00:09Z</time>
      </trkpt>
      <trkpt lat="48.1542" lon="2.0521">
        <ele>130.3</ele>
        <time>2020-07-02T13:00:10Z</time>
      </trkpt>
      <trkpt lat="48.15412" lon="2.0521">
        <ele>130.2</ele>
        <time>2020-07-02T13:00:11Z</time>
      </trkpt>
      <trkpt lat="48.15405" lon="2.0521">
        <ele>130.2</ele>
        <time>2020-07-02T13:00:12Z</time>
      </trkpt>
      <trkpt lat="48.15398" lon="2.0521">
        <ele>130.2</ele>
        <time>2020-07-02T13:00:13Z</time>
      </trkpt>
      <trkpt lat="48.1539" lon="2.05209">
        <ele>130.2</ele>
        <time>2020-07-02T13:00:14Z</time>
      </trkpt>
      <trkpt lat="48.15383" lon="2.0521">
        <ele>130.1</ele>
        <time>2020-07-02T13:00:15Z</time>
      </trkpt>
      <trkpt lat="48.15376" lon="2.05209">
        <ele>130.1</ele>
        <time>2020-07-02T13:00:16Z</time>
      </trkpt>
      <trkpt lat="48.15369" lon="2.05208">
        <ele>130.1</ele>
        <time>2020-07-02T13:00:17Z</time>
      </trkpt>
      <trkpt lat="48.15362" lon="2.05208">
        <ele>130</ele>
        <time>2020-07-02T13:00:18Z</time>
      </trkpt>
      <trkpt lat="48.15355" lon="2.05207">
        <ele>130</ele>
        <time>2020-07-02T13:00:19Z</time>
      </trkpt>
      <trkpt lat="48.15348" lon="2.05207">
        <ele>129.9</ele>
        <time>2020-07-02T13:00:20Z</time>
      </trkpt>
      <trkpt lat="48.1534" lon="2.05207">
        <ele>129.9</ele>
        <time>2020-07-02T13:00:21Z</time>
      </trkpt>
      <trkpt lat="48.15333" lon="2.05206">
        <ele>129.9</ele>
        <time>2020-07-02T13:00:22Z</time>
      </trkpt>
      <trkpt lat="48.15326" lon="2.05205">
        <ele>129.8</ele>
        <time>2020-07-02T13:00:23Z</time>
      </trkpt>
      <trkpt lat="48.15319" lon="2.05204">
        <ele>129.8</ele>
        <time>2020-07-02T13:00:24Z</time>
      </trkpt>
      <trkpt lat="48.15311" lon="2.05205">
        <ele>129.8</ele>
        <time>2020-07-02T13:00:25Z</time>
      </trkpt>
      <trkpt lat="48.15304" lon="2.05206">
        <ele>129.8</ele>
        <time>2020-07-02T13:00:26Z</time>
      </trkpt>
      <trkpt lat="48.15297" lon="2.05206">
        <ele>129.8</ele>
        <time>2020-07-02T13:00:27Z</time>
      </trkpt>
      <trkpt lat="48.1529" lon="2.05206">
        <ele>129.8</ele>
        <time>2020-07-02T13:00:28Z</time>
      </trkpt>
      <trkpt lat="48.15283" lon="2.05205">
        <ele>129.9</ele>
        <time>2020-07-02T13:00:29Z</time>
      </trkpt>
      <trkpt lat="48.15275" lon="2.05205">
        <ele>130</ele>
        <time>2020-07-02T13:00:30Z</time>
      </trkpt>
      <trkpt lat="48.15268" lon="2.05205">
        <ele>130.1</ele>
        <time>2020-07-02T13:00:31Z</time>
      </trkpt>
      <trkpt lat="48.15261" lon="2.05205">
        <ele>130.1</ele>
        <time>2020-07-02T13:00:32Z</time>
      </trkpt>
      <trkpt lat="48.15254" lon="2.05204">
        <ele>130</ele>
        <time>2020-07-02T13:00:33Z</time>
      </trkpt>
      <trkpt lat="48.15247" lon="2.05204">
        <ele>130</ele>
        <time>2020-07-02T13:00:34Z</time>
      </trkpt>
      <trkpt lat="48.15241" lon="2.05204">
        <ele>130</ele>
        <time>2020-07-02T13:00:35Z</time>
      </trkpt>
      <trkpt lat="48.15234" lon="2.05204">
        <ele>130</ele>
        <time>2020-07-02T13:00:36Z</time>
      </trkpt>
      <trkpt lat="48.15227" lon="2.05204">
        <ele>130</ele>
        <time>2020-07-02T13:00:37Z</time>
      </trkpt>
      <trkpt lat="48.1522" lon="2.05204">
        <ele>130</ele>
        <time>2020-07-02T13:00:38Z</time>
      </trkpt>
      <trkpt lat="48.15213" lon="2.05204">
        <ele>130.1</ele>
        <time>2020-07-02T13:00:39Z</time>
      </trkpt>
      <trkpt lat="48.15206" lon="2.05203">
        <ele>130.1</ele>
        <time>2020-07-02T13:00:40Z</time>
      </trkpt>
      <trkpt lat="48.15199" lon="2.05203">
        <ele>130.1</ele>
        <time>2020-07-02T13:00:41Z</time>
      </trkpt>
      <trkpt lat="48.15193" lon="2.05203">
        <ele>130.2</ele>
        <time>2020-07-02T13:00:42Z</time>
      </trkpt>
      <trkpt lat="48.15186" lon="2.05203">
        <ele>130.2</ele>
        <time>2020-07-02T13:00:43Z</time>
      </trkpt>
      <trkpt lat="48.15179" lon="2.05202">
        <ele>130.2</ele>
        <time>2020-07-02T13:00:44Z</time>
      </trkpt>
      <trkpt lat="48.15173" lon="2.05202">
        <ele>130.3</ele>
        <time>2020-07-02T13:00:45Z</time>
      </trkpt>
      <trkpt lat="48.15166" lon="2.05201">
        <ele>130.3</ele>
        <time>2020-07-02T13:00:46Z</time>
      </trkpt>
      <trkpt lat="48.15159" lon="2.05201">
        <ele>130.3</ele>
        <time>2020-07-02T13:00:47Z</time>
      </trkpt>
      <trkpt lat="48.15152" lon="2.05201">
        <ele>130.4</ele>
        <time>2020-07-02T13:00:48Z</time>
      </trkpt>
      <trkpt lat="48.15146" lon="2.05202">
        <ele>130.4</ele>
        <time>2020-07-02T13:00:49Z</time>
      </trkpt>
      <trkpt lat="48.15139" lon="2.05202">
        <ele>130.4</ele>
        <time>2020-07-02T13:00:50Z</time>
      </trkpt>
      <trkpt lat="48.15132" lon="2.05201">
        <ele>130.5</ele>
        <time>2020-07-02T13:00:51Z</time>
      </trkpt>
      <trkpt lat="48.15126" lon="2.05202">
        <ele>130.5</ele>
        <time>2020-07-02T13:00:52Z</time>
      </trkpt>
      <trkpt lat="48.15119" lon="2.05201">
        <ele>130.6</ele>
        <time>2020-07-02T13:00:53Z</time>
      </trkpt>
      <trkpt lat="48.15112" lon="2.05201">
        <ele>130.6</ele>
        <time>2020-07-02T13:00:54Z</time>
      </trkpt>
      <trkpt lat="48.15105" lon="2.052">
        <ele>130.7</ele>
        <time>2020-07-02T13:00:55Z</time>
      </trkpt>
      <trkpt lat="48.15099" lon="2.05199">
        <ele>130.7</ele>
        <time>2020-07-02T13:00:56Z</time>
      </trkpt>
      <trkpt lat="48.15092" lon="2.05199">
        <ele>130.7</ele>
        <time>2020-07-02T13:00:57Z</time>
      </trkpt>
      <trkpt lat="48.15086" lon="2.05199">
        <ele>130.7</ele>
        <time>2020-07-02T13:00:58Z</time>
      </trkpt>
      <trkpt lat="48.1508" lon="2.05199">
        <ele>130.7</ele>
        <time>2020-07-02T13:00:59Z</time>
      </trkpt>
      <trkpt lat="48.15073" lon="2.05198">
        <ele>130.7</ele>
        <time>2020-07-02T13:01:00Z</time>
      </trkpt>
      <trkpt lat="48.15067" lon="2.05198">
        <ele>130.8</ele>
        <time>2020-07-02T13:01:01Z</time>
      </trkpt>
      <trkpt lat="48.15061" lon="2.05198">
        <ele>130.9</ele>
        <time>2020-07-02T13:01:02Z</time>
      </trkpt>
      <trkpt lat="48.15054" lon="2.05197">
        <ele>130.9</ele>
        <time>2020-07-02T13:01:03Z</time>
      </trkpt>
      <trkpt lat="48.15048" lon="2.05197">
        <ele>131</ele>
        <time>2020-07-02T13:01:04Z</time>
      </trkpt>
      <trkpt lat="48.15042" lon="2.05197">
        <ele>131.1</ele>
        <time>2020-07-02T13:01:05Z</time>
      </trkpt>
      <trkpt lat="48.15036" lon="2.05197">
        <ele>131.1</ele>
        <time>2020-07-02T13:01:06Z</time>
      </trkpt>
      <trkpt lat="48.1503" lon="2.05198">
        <ele>131.2</ele>
        <time>2020-07-02T13:01:07Z</time>
      </trkpt>
      <trkpt lat="48.15024" lon="2.05198">
        <ele>131.2</ele>
        <time>2020-07-02T13:01:08Z</time>
      </trkpt>
      <trkpt lat="48.15018" lon="2.05198">
        <ele>131.2</ele>
        <time>2020-07-02T13:01:09Z</time>
      </trkpt>
      <trkpt lat="48.15012" lon="2.05197">
        <ele>131.3</ele>
        <time>2020-07-02T13:01:10Z</time>
      </trkpt>
      <trkpt lat="48.15005" lon="2.05197">
        <ele>131.3</ele>
        <time>2020-07-02T13:01:11Z</time>
      </trkpt>
      <trkpt lat="48.14999" lon="2.05197">
        <ele>131.4</ele>
        <time>2020-07-02T13:01:12Z</time>
      </trkpt>
      <trkpt lat="48.14993" lon="2.05198">
        <ele>131.4</ele>
        <time>2020-07-02T13:01:13Z</time>
      </trkpt>
      <trkpt lat="48.14987" lon="2.05197">
        <ele>131.3</ele>
        <time>2020-07-02T13:01:14Z</time>
      </trkpt>
      <trkpt lat="48.1498" lon="2.05198">
        <ele>131</ele>
        <time>2020-07-02T13:01:15Z</time>
      </trkpt>
      <trkpt lat="48.14975" lon="2.05197">
        <ele>130.9</ele>
        <time>2020-07-02T13:01:16Z</time>
      </trkpt>
      <trkpt lat="48.14969" lon="2.05197">
        <ele>130.8</ele>
        <time>2020-07-02T13:01:17Z</time>
      </trkpt>
      <trkpt lat="48.14963" lon="2.05197">
        <ele>130.7</ele>
        <time>2020-07-02T13:01:18Z</time>
      </trkpt>
      <trkpt lat="48.14957" lon="2.05197">
        <ele>130.7</ele>
        <time>2020-07-02T13:01:19Z</time>
      </trkpt>
      <trkpt lat="48.14951" lon="2.05196">
        <ele>130.7</ele>
        <time>2020-07-02T13:01:20Z</time>
      </trkpt>
      <trkpt lat="48.14944" lon="2.05196">
        <ele>130.7</ele>
        <time>2020-07-02T13:01:21Z</time>
      </trkpt>
      <trkpt lat="48.14938" lon="2.05195">
        <ele>130.8</ele>
        <time>2020-07-02T13:01:22Z</time>
      </trkpt>
      <trkpt lat="48.14931" lon="2.05195">
        <ele>130.8</ele>
        <time>2020-07-02T13:01:23Z</time>
      </trkpt>
      <trkpt lat="48.14925" lon="2.05195">
        <ele>130.9</ele>
        <time>2020-07-02T13:01:24Z</time>
      </trkpt>
      <trkpt lat="48.14919" lon="2.05195">
        <ele>130.9</ele>
        <time>2020-07-02T13:01:25Z</time>
      </trkpt>
      <trkpt lat="48.14913" lon="2.05195">
        <ele>130.9</ele>
        <time>2020-07-02T13:01:26Z</time>
      </trkpt>
      <trkpt lat="48.14906" lon="2.05195">
        <ele>131</ele>
        <time>2020-07-02T13:01:27Z</time>
      </trkpt>
      <trkpt lat="48.14901" lon="2.05194">
        <ele>131</ele>
        <time>2020-07-02T13:01:28Z</time>
      </trkpt>
      <trkpt lat="48.14895" lon="2.05194">
        <ele>131.1</ele>
        <time>2020-07-02T13:01:29Z</time>
      </trkpt>
      <trkpt lat="48.14888" lon="2.05193">
        <ele>131.1</ele>
        <time>2020-07-02T13:01:30Z</time>
      </trkpt>
      <trkpt lat="48.14882" lon="2.05192">
        <ele>131.1</ele>
        <time>2020-07-02T13:01:31Z</time>
      </trkpt>
      <trkpt lat="48.14876" lon="2.05192">
        <ele>131.2</ele>
        <time>2020-07-02T13:01:32Z</time>
      </trkpt>
      <trkpt lat="48.14869" lon="2.05192">
        <ele>131.2</ele>
        <time>2020-07-02T13:01:33Z</time>
      </trkpt>
      <trkpt lat="48.14862" lon="2.05192">
        <ele>131.3</ele>
        <time>2020-07-02T13:01:34Z</time>
      </trkpt>
      <trkpt lat="48.14856" lon="2.05192">
        <ele>131.3</ele>
        <time>2020-07-02T13:01:35Z</time>
      </trkpt>
      <trkpt lat="48.1485" lon="2.05192">
        <ele>131.4</ele>
        <time>2020-07-02T13:01:36Z</time>
      </trkpt>
      <trkpt lat="48.14844" lon="2.05192">
        <ele>131.4</ele>
        <time>2020-07-02T13:01:37Z</time>
      </trkpt>
      <trkpt lat="48.14838" lon="2.05191">
        <ele>131.5</ele>
        <time>2020-07-02T13:01:38Z</time>
      </trkpt>
      <trkpt lat="48.1483" lon="2.05191">
        <ele>131.7</ele>
        <time>2020-07-02T13:01:39Z</time>
      </trkpt>
      <trkpt lat="48.14823" lon="2.05192">
        <ele>131.8</ele>
        <time>2020-07-02T13:01:40Z</time>
      </trkpt>
      <trkpt lat="48.14817" lon="2.05191">
        <ele>132</ele>
        <time>2020-07-02T13:01:41Z</time>
      </trkpt>
      <trkpt lat="48.14811" lon="2.05191">
        <ele>131.9</ele>
        <time>2020-07-02T13:01:42Z</time>
      </trkpt>
      <trkpt lat="48.14804" lon="2.05191">
        <ele>131.8</ele>
        <time>2020-07-02T13:01:43Z</time>
      </trkpt>
      <trkpt lat="48.14798" lon="2.0519">
        <ele>131.7</ele>
        <time>2020-07-02T13:01:44Z</time>
      </trkpt>
      <trkpt lat="48.14792" lon="2.0519">
        <ele>131.7</ele>
        <time>2020-07-02T13:01:45Z</time>
      </trkpt>
      <trkpt lat="48.14786" lon="2.0519">
        <ele>131.7</ele>
        <time>2020-07-02T13:01:46Z</time>
      </trkpt>
      <trkpt lat="48.1478" lon="2.0519">
        <ele>131.8</ele>
        <time>2020-07-02T13:01:47Z</time>
      </trkpt>
      <trkpt lat="48.14774" lon="2.0519">
        <ele>131.8</ele>
        <time>2020-07-02T13:01:48Z</time>
      </trkpt>
      <trkpt lat="48.14767" lon="2.05189">
        <ele>131.8</ele>
        <time>2020-07-02T13:01:49Z</time>
      </trkpt>
      <trkpt lat="48.1476" lon="2.05189">
        <ele>131.8</ele>
        <time>2020-07-02T13:01:50Z</time>
      </trkpt>
      <trkpt lat="48.14754" lon="2.05189">
        <ele>131.9</ele>
        <time>2020-07-02T13:01:51Z</time>
      </trkpt>
      <trkpt lat="48.14747" lon="2.05188">
        <ele>131.9</ele>
        <time>2020-07-02T13:01:52Z</time>
      </trkpt>
      <trkpt lat="48.14741" lon="2.05188">
        <ele>131.9</ele>
        <time>2020-07-02T13:01:53Z</time>
      </trkpt>
      <trkpt lat="48.14734" lon="2.05188">
        <ele>132</ele>
        <time>2020-07-02T13:01:54Z</time>
      </trkpt>
      <trkpt lat="48.14727" lon="2.05187">
        <ele>132</ele>
        <time>2020-07-02T13:01:55Z</time>
      </trkpt>
      <trkpt lat="48.14721" lon="2.05185">
        <ele>132.1</ele>
        <time>2020-07-02T13:01:56Z</time>
      </trkpt>
      <trkpt lat="48.14714" lon="2.05184">
        <ele>132.2</ele>
        <time>2020-07-02T13:01:57Z</time>
      </trkpt>
      <trkpt lat="48.14707" lon="2.05182">
        <ele>132.2</ele>
        <time>2020-07-02T13:01:58Z</time>
      </trkpt>
      <trkpt lat="48.147" lon="2.0518">
        <ele>132.3</ele>
        <time>2020-07-02T13:01:59Z</time>
      </trkpt>
      <trkpt lat="48.14693" lon="2.0518">
        <ele>132.3</ele>
        <time>2020-07-02T13:02:00Z</time>
      </trkpt>
      <trkpt lat="48.14687" lon="2.05178">
        <ele>132.3</ele>
        <time>2020-07-02T13:02:01Z</time>
      </trkpt>
      <trkpt lat="48.1468" lon="2.05177">
        <ele>132.3</ele>
        <time>2020-07-02T13:02:02Z</time>
      </trkpt>
      <trkpt lat="48.14674" lon="2.05176">
        <ele>132.3</ele>
        <time>2020-07-02T13:02:03Z</time>
      </trkpt>
      <trkpt lat="48.14668" lon="2.05174">
        <ele>132.3</ele>
        <time>2020-07-02T13:02:04Z</time>
      </trkpt>
      <trkpt lat="48.14662" lon="2.05172">
        <ele>132.3</ele>
        <time>2020-07-02T13:02:05Z</time>
      </trkpt>
      <trkpt lat="48.14655" lon="2.05171">
        <ele>132.4</ele>
        <time>2020-07-02T13:02:06Z</time>
      </trkpt>
      <trkpt lat="48.14649" lon="2.05169">
        <ele>132.4</ele>
        <time>2020-07-02T13:02:07Z</time>
      </trkpt>
      <trkpt lat="48.14642" lon="2.05168">
        <ele>132.4</ele>
        <time>2020-07-02T13:02:08Z</time>
      </trkpt>
      <trkpt lat="48.14635" lon="2.05166">
        <ele>132.5</ele>
        <time>2020-07-02T13:02:09Z</time>
      </trkpt>
      <trkpt lat="48.14629" lon="2.05165">
        <ele>132.5</ele>
        <time>2020-07-02T13:02:10Z</time>
      </trkpt>
      <trkpt lat="48.14622" lon="2.05164">
        <ele>132.6</ele>
        <time>2020-07-02T13:02:11Z</time>
      </trkpt>
      <trkpt lat="48.14616" lon="2.05163">
        <ele>132.6</ele>
        <time>2020-07-02T13:02:12Z</time>
      </trkpt>
      <trkpt lat="48.14609" lon="2.05161">
        <ele>132.6</ele>
        <time>2020-07-02T13:02:13Z</time>
      </trkpt>
      <trkpt lat="48.14602" lon="2.0516">
        <ele>132.6</ele>
        <time>2020-07-02T13:02:14Z</time>
      </trkpt>
      <trkpt lat="48.14595" lon="2.0516">
        <ele>132.6</ele>
        <time>2020-07-02T13:02:15Z</time>
      </trkpt>
      <trkpt lat="48.14588" lon="2.05158">
        <ele>132.6</ele>
        <time>2020-07-02T13:02:16Z</time>
      </trkpt>
      <trkpt lat="48.14582" lon="2.05156">
        <ele>132.7</ele>
        <time>2020-07-02T13:02:17Z</time>
      </trkpt>
      <trkpt lat="48.14575" lon="2.05155">
        <ele>132.7</ele>
        <time>2020-07-02T13:02:18Z</time>
      </trkpt>
      <trkpt lat="48.14568" lon="2.05154">
        <ele>132.7</ele>
        <time>2020-07-02T13:02:19Z</time>
      </trkpt>
      <trkpt lat="48.14561" lon="2.05153">
        <ele>132.7</ele>
        <time>2020-07-02T13:02:20Z</time>
      </trkpt>
      <trkpt lat="48.14554" lon="2.05151">
        <ele>132.8</ele>
        <time>2020-07-02T13:02:21Z</time>
      </trkpt>
      <trkpt lat="48.14547" lon="2.0515">
        <ele>132.8</ele>
        <time>2020-07-02T13:02:22Z</time>
      </trkpt>
      <trkpt lat="48.1454" lon="2.05148">
        <ele>132.9</ele>
        <time>2020-07-02T13:02:23Z</time>
      </trkpt>
      <trkpt lat="48.14533" lon="2.05147">
        <ele>132.9</ele>
        <time>2020-07-02T13:02:24Z</time>
      </trkpt>
      <trkpt lat="48.14526" lon="2.05146">
        <ele>133</ele>
        <time>2020-07-02T13:02:25Z</time>
      </trkpt>
      <trkpt lat="48.1452" lon="2.05144">
        <ele>133</ele>
        <time>2020-07-02T13:02:26Z</time>
      </trkpt>
      <trkpt lat="48.14513" lon="2.05143">
        <ele>133.1</ele>
        <time>2020-07-02T13:02:27Z</time>
      </trkpt>
      <trkpt lat="48.14506" lon="2.05142">
        <ele>133.1</ele>
        <time>2020-07-02T13:02:28Z</time>
      </trkpt>
      <trkpt lat="48.145" lon="2.0514">
        <ele>133.2</ele>
        <time>2020-07-02T13:02:29Z</time>
      </trkpt>
      <trkpt lat="48.14494" lon="2.05138">
        <ele>133.3</ele>
        <time>2020-07-02T13:02:30Z</time>
      </trkpt>
      <trkpt lat="48.14487" lon="2.05137">
        <ele>133.3</ele>
        <time>2020-07-02T13:02:31Z</time>
      </trkpt>
      <trkpt lat="48.1448" lon="2.05137">
        <ele>133.4</ele>
        <time>2020-07-02T13:02:32Z</time>
      </trkpt>
      <trkpt lat="48.14474" lon="2.05135">
        <ele>133.4</ele>
        <time>2020-07-02T13:02:33Z</time>
      </trkpt>
      <trkpt lat="48.14467" lon="2.05134">
        <ele>133.5</ele>
        <time>2020-07-02T13:02:34Z</time>
      </trkpt>
      <trkpt lat="48.14461" lon="2.05132">
        <ele>133.5</ele>
        <time>2020-07-02T13:02:35Z</time>
      </trkpt>
      <trkpt lat="48.14454" lon="2.05131">
        <ele>133.5</ele>
        <time>2020-07-02T13:02:36Z</time>
      </trkpt>
      <trkpt lat="48.14448" lon="2.05129">
        <ele>133.6</ele>
        <time>2020-07-02T13:02:37Z</time>
      </trkpt>
      <trkpt lat="48.14441" lon="2.05128">
        <ele>133.6</ele>
        <time>2020-07-02T13:02:38Z</time>
      </trkpt>
      <trkpt lat="48.14435" lon="2.05126">
        <ele>133.7</ele>
        <time>2020-07-02T13:02:39Z</time>
      </trkpt>
      <trkpt lat="48.14428" lon="2.05125">
        <ele>133.7</ele>
        <time>2020-07-02T13:02:40Z</time>
      </trkpt>
      <trkpt lat="48.14422" lon="2.05124">
        <ele>133.8</ele>
        <time>2020-07-02T13:02:41Z</time>
      </trkpt>
      <trkpt lat="48.14415" lon="2.05122">
        <ele>133.8</ele>
        <time>2020-07-02T13:02:42Z</time>
      </trkpt>
      <trkpt lat="48.14409" lon="2.05121">
        <ele>133.8</ele>
        <time>2020-07-02T13:02:43Z</time>
      </trkpt>
      <trkpt lat="48.14402" lon="2.0512">
        <ele>133.8</ele>
        <time>2020-07-02T13:02:44Z</time>
      </trkpt>
      <trkpt lat="48.14396" lon="2.05118">
        <ele>133.9</ele>
        <time>2020-07-02T13:02:45Z</time>
      </trkpt>
      <trkpt lat="48.1439" lon="2.05116">
        <ele>133.9</ele>
        <time>2020-07-02T13:02:46Z</time>
      </trkpt>
      <trkpt lat="48.14384" lon="2.05114">
        <ele>133.9</ele>
        <time>2020-07-02T13:02:47Z</time>
      </trkpt>
      <trkpt lat="48.14377" lon="2.05113">
        <ele>134</ele>
        <time>2020-07-02T13:02:48Z</time>
      </trkpt>
      <trkpt lat="48.14371" lon="2.05113">
        <ele>134</ele>
        <time>2020-07-02T13:02:49Z</time>
      </trkpt>
      <trkpt lat="48.14364" lon="2.05111">
        <ele>134.1</ele>
        <time>2020-07-02T13:02:50Z</time>
      </trkpt>
      <trkpt lat="48.14357" lon="2.0511">
        <ele>134.1</ele>
        <time>2020-07-02T13:02:51Z</time>
      </trkpt>
      <trkpt lat="48.14351" lon="2.05109">
        <ele>134.1</ele>
        <time>2020-07-02T13:02:52Z</time>
      </trkpt>
      <trkpt lat="48.14345" lon="2.05108">
        <ele>134.2</ele>
        <time>2020-07-02T13:02:53Z</time>
      </trkpt>
      <trkpt lat="48.14338" lon="2.05107">
        <ele>134.2</ele>
        <time>2020-07-02T13:02:54Z</time>
      </trkpt>
      <trkpt lat="48.14332" lon="2.05106">
        <ele>134.3</ele>
        <time>2020-07-02T13:02:55Z</time>
      </trkpt>
      <trkpt lat="48.14325" lon="2.05105">
        <ele>134.3</ele>
        <time>2020-07-02T13:02:56Z</time>
      </trkpt>
      <trkpt lat="48.14318" lon="2.05103">
        <ele>134.3</ele>
        <time>2020-07-02T13:02:57Z</time>
      </trkpt>
      <trkpt lat="48.14311" lon="2.05101">
        <ele>134.4</ele>
        <time>2020-07-02T13:02:58Z</time>
      </trkpt>
      <trkpt lat="48.14306" lon="2.051">
        <ele>134.2</ele>
        <time>2020-07-02T13:02:59Z</time>
      </trkpt>
      <trkpt lat="48.14299" lon="2.05099">
        <ele>133.9</ele>
        <time>2020-07-02T13:03:00Z</time>
      </trkpt>
      <trkpt lat="48.14293" lon="2.05098">
        <ele>133.7</ele>
        <time>2020-07-02T13:03:01Z</time>
      </trkpt>
      <trkpt lat="48.14287" lon="2.05096">
        <ele>133.6</ele>
        <time>2020-07-02T13:03:02Z</time>
      </trkpt>
      <trkpt lat="48.14281" lon="2.05095">
        <ele>133.5</ele>
        <time>2020-07-02T13:03:03Z</time>
      </trkpt>
      <trkpt lat="48.14274" lon="2.05093">
        <ele>133.5</ele>
        <time>2020-07-02T13:03:04Z</time>
      </trkpt>
      <trkpt lat="48.14267" lon="2.05092">
        <ele>133.5</ele>
        <time>2020-07-02T13:03:05Z</time>
      </trkpt>
      <trkpt lat="48.1426" lon="2.05091">
        <ele>133.5</ele>
        <time>2020-07-02T13:03:06Z</time>
      </trkpt>
      <trkpt lat="48.14254" lon="2.0509">
        <ele>133.5</ele>
        <time>2020-07-02T13:03:07Z</time>
      </trkpt>
      <trkpt lat="48.14247" lon="2.05089">
        <ele>133.5</ele>
        <time>2020-07-02T13:03:08Z</time>
      </trkpt>
      <trkpt lat="48.1424" lon="2.05087">
        <ele>133.5</ele>
        <time>2020-07-02T13:03:09Z</time>
      </trkpt>
      <trkpt lat="48.14234" lon="2.05086">
        <ele>133.6</ele>
        <time>2020-07-02T13:03:10Z</time>
      </trkpt>
      <trkpt lat="48.14226" lon="2.05084">
        <ele>133.6</ele>
        <time>2020-07-02T13:03:11Z</time>
      </trkpt>
      <trkpt lat="48.14219" lon="2.05082">
        <ele>133.7</ele>
        <time>2020-07-02T13:03:12Z</time>
      </trkpt>
      <trkpt lat="48.14213" lon="2.05081">
        <ele>133.7</ele>
        <time>2020-07-02T13:03:13Z</time>
      </trkpt>
      <trkpt lat="48.14207" lon="2.0508">
        <ele>133.8</ele>
        <time>2020-07-02T13:03:14Z</time>
      </trkpt>
      <trkpt lat="48.142" lon="2.05078">
        <ele>133.9</ele>
        <time>2020-07-02T13:03:15Z</time>
      </trkpt>
      <trkpt lat="48.14194" lon="2.05076">
        <ele>133.9</ele>
        <time>2020-07-02T13:03:16Z</time>
      </trkpt>
      <trkpt lat="48.14188" lon="2.05075">
        <ele>134</ele>
        <time>2020-07-02T13:03:17Z</time>
      </trkpt>
      <trkpt lat="48.14182" lon="2.05074">
        <ele>134</ele>
        <time>2020-07-02T13:03:18Z</time>
      </trkpt>
      <trkpt lat="48.14176" lon="2.05073">
        <ele>134</ele>
        <time>2020-07-02T13:03:19Z</time>
      </trkpt>
      <trkpt lat="48.1417" lon="2.05072">
        <ele>134.1</ele>
        <time>2020-07-02T13:03:20Z</time>
      </trkpt>
      <trkpt lat="48.14163" lon="2.05071">
        <ele>134.1</ele>
        <time>2020-07-02T13:03:21Z</time>
      </trkpt>
      <trkpt lat="48.14157" lon="2.0507">
        <ele>134.1</ele>
        <time>2020-07-02T13:03:22Z</time>
      </trkpt>
      <trkpt lat="48.1415" lon="2.05069">
        <ele>134.1</ele>
        <time>2020-07-02T13:03:23Z</time>
      </trkpt>
      <trkpt lat="48.14144" lon="2.05068">
        <ele>134.2</ele>
        <time>2020-07-02T13:03:24Z</time>
      </trkpt>
      <trkpt lat="48.14137" lon="2.05067">
        <ele>134.2</ele>
        <time>2020-07-02T13:03:25Z</time>
      </trkpt>
      <trkpt lat="48.14131" lon="2.05065">
        <ele>134.3</ele>
        <time>2020-07-02T13:03:26Z</time>
      </trkpt>
      <trkpt lat="48.14124" lon="2.05064">
        <ele>134.3</ele>
        <time>2020-07-02T13:03:27Z</time>
      </trkpt>
      <trkpt lat="48.14118" lon="2.05062">
        <ele>134.4</ele>
        <time>2020-07-02T13:03:28Z</time>
      </trkpt>
      <trkpt lat="48.14111" lon="2.05062">
        <ele>134.4</ele>
        <time>2020-07-02T13:03:29Z</time>
      </trkpt>
      <trkpt lat="48.14104" lon="2.05061">
        <ele>134.4</ele>
        <time>2020-07-02T13:03:30Z</time>
      </trkpt>
      <trkpt lat="48.14098" lon="2.0506">
        <ele>134.5</ele>
        <time>2020-07-02T13:03:31Z</time>
      </trkpt>
      <trkpt lat="48.14092" lon="2.05058">
        <ele>134.5</ele>
        <time>2020-07-02T13:03:32Z</time>
      </trkpt>
      <trkpt lat="48.14085" lon="2.05057">
        <ele>134.6</ele>
        <time>2020-07-02T13:03:33Z</time>
      </trkpt>
      <trkpt lat="48.14079" lon="2.05055">
        <ele>134.7</ele>
        <time>2020-07-02T13:03:34Z</time>
      </trkpt>
      <trkpt lat="48.14072" lon="2.05054">
        <ele>134.8</ele>
        <time>2020-07-02T13:03:35Z</time>
      </trkpt>
      <trkpt lat="48.14066" lon="2.05053">
        <ele>134.8</ele>
        <time>2020-07-02T13:03:36Z</time>
      </trkpt>
      <trkpt lat="48.1406" lon="2.05051">
        <ele>134.9</ele>
        <time>2020-07-02T13:03:37Z</time>
      </trkpt>
      <trkpt lat="48.14054" lon="2.05049">
        <ele>134.9</ele>
        <time>2020-07-02T13:03:38Z</time>
      </trkpt>
      <trkpt lat="48.14048" lon="2.05047">
        <ele>134.9</ele>
        <time>2020-07-02T13:03:39Z</time>
      </trkpt>
      <trkpt lat="48.14042" lon="2.05046">
        <ele>135</ele>
        <time>2020-07-02T13:03:40Z</time>
      </trkpt>
      <trkpt lat="48.14036" lon="2.05044">
        <ele>135</ele>
        <time>2020-07-02T13:03:41Z</time>
      </trkpt>
      <trkpt lat="48.14029" lon="2.05043">
        <ele>135.1</ele>
        <time>2020-07-02T13:03:42Z</time>
      </trkpt>
      <trkpt lat="48.14023" lon="2.05042">
        <ele>135.1</ele>
        <time>2020-07-02T13:03:43Z</time>
      </trkpt>
      <trkpt lat="48.14016" lon="2.05041">
        <ele>135.2</ele>
        <time>2020-07-02T13:03:44Z</time>
      </trkpt>
      <trkpt lat="48.1401" lon="2.0504">
        <ele>135.2</ele>
        <time>2020-07-02T13:03:45Z</time>
      </trkpt>
      <trkpt lat="48.14004" lon="2.05038">
        <ele>135.3</ele>
        <time>2020-07-02T13:03:46Z</time>
      </trkpt>
      <trkpt lat="48.13998" lon="2.05037">
        <ele>135.3</ele>
        <time>2020-07-02T13:03:47Z</time>
      </trkpt>
      <trkpt lat="48.13992" lon="2.05034">
        <ele>135.3</ele>
        <time>2020-07-02T13:03:48Z</time>
      </trkpt>
      <trkpt lat="48.13986" lon="2.05033">
        <ele>135.4</ele>
        <time>2020-07-02T13:03:49Z</time>
      </trkpt>
      <trkpt lat="48.13981" lon="2.05032">
        <ele>135.4</ele>
        <time>2020-07-02T13:03:50Z</time>
      </trkpt>
      <trkpt lat="48.13975" lon="2.05031">
        <ele>135.4</ele>
        <time>2020-07-02T13:03:51Z</time>
      </trkpt>
      <trkpt lat="48.13971" lon="2.0503">
        <ele>135.4</ele>
        <time>2020-07-02T13:03:52Z</time>
      </trkpt>
      <trkpt lat="48.13966" lon="2.05029">
        <ele>135.4</ele>
        <time>2020-07-02T13:03:53Z</time>
      </trkpt>
      <trkpt lat="48.1396" lon="2.05028">
        <ele>135.3</ele>
        <time>2020-07-02T13:03:54Z</time>
      </trkpt>
      <trkpt lat="48.13955" lon="2.05027">
        <ele>135.3</ele>
        <time>2020-07-02T13:03:55Z</time>
      </trkpt>
      <trkpt lat="48.13949" lon="2.05025">
        <ele>135.3</ele>
        <time>2020-07-02T13:03:56Z</time>
      </trkpt>
      <trkpt lat="48.13942" lon="2.05024">
        <ele>135.2</ele>
        <time>2020-07-02T13:03:57Z</time>
      </trkpt>
      <trkpt lat="48.13937" lon="2.05022">
        <ele>135.2</ele>
        <time>2020-07-02T13:03:58Z</time>
      </trkpt>
      <trkpt lat="48.13933" lon="2.05021">
        <ele>135.1</ele>
        <time>2020-07-02T13:03:59Z</time>
      </trkpt>
      <trkpt lat="48.13928" lon="2.0502">
        <ele>135.1</ele>
        <time>2020-07-02T13:04:00Z</time>
      </trkpt>
      <trkpt lat="48.13922" lon="2.0502">
        <ele>135.1</ele>
        <time>2020-07-02T13:04:01Z</time>
      </trkpt>
      <trkpt lat="48.13916" lon="2.05019">
        <ele>135</ele>
        <time>2020-07-02T13:04:02Z</time>
      </trkpt>
      <trkpt lat="48.13911" lon="2.05018">
        <ele>135</ele>
        <time>2020-07-02T13:04:03Z</time>
      </trkpt>
      <trkpt lat="48.13905" lon="2.05016">
        <ele>134.9</ele>
        <time>2020-07-02T13:04:04Z</time>
      </trkpt>
      <trkpt lat="48.139" lon="2.05015">
        <ele>134.9</ele>
        <time>2020-07-02T13:04:05Z</time>
      </trkpt>
      <trkpt lat="48.13894" lon="2.05014">
        <ele>134.9</ele>
        <time>2020-07-02T13:04:06Z</time>
      </trkpt>
      <trkpt lat="48.13889" lon="2.05013">
        <ele>134.9</ele>
        <time>2020-07-02T13:04:07Z</time>
      </trkpt>
      <trkpt lat="48.13883" lon="2.05012">
        <ele>134.9</ele>
        <time>2020-07-02T13:04:08Z</time>
      </trkpt>
      <trkpt lat="48.13879" lon="2.05011">
        <ele>134.9</ele>
        <time>2020-07-02T13:04:09Z</time>
      </trkpt>
      <trkpt lat="48.13874" lon="2.0501">
        <ele>134.9</ele>
        <time>2020-07-02T13:04:10Z</time>
      </trkpt>
      <trkpt lat="48.13869" lon="2.05007">
        <ele>134.9</ele>
        <time>2020-07-02T13:04:11Z</time>
      </trkpt>
      <trkpt lat="48.13864" lon="2.05004">
        <ele>135</ele>
        <time>2020-07-02T13:04:12Z</time>
      </trkpt>
      <trkpt lat="48.13858" lon="2.05002">
        <ele>135</ele>
        <time>2020-07-02T13:04:13Z</time>
      </trkpt>
      <trkpt lat="48.13854" lon="2.05">
        <ele>135</ele>
        <time>2020-07-02T13:04:14Z</time>
      </trkpt>
      <trkpt lat="48.13849" lon="2.04998">
        <ele>135</ele>
        <time>2020-07-02T13:04:15Z</time>
      </trkpt>
      <trkpt lat="48.13843" lon="2.04998">
        <ele>135</ele>
        <time>2020-07-02T13:04:16Z</time>
      </trkpt>
      <trkpt lat="48.13835" lon="2.04996">
        <ele>134.9</ele>
        <time>2020-07-02T13:04:17Z</time>
      </trkpt>
      <trkpt lat="48.13829" lon="2.04995">
        <ele>134.7</ele>
        <time>2020-07-02T13:04:18Z</time>
      </trkpt>
      <trkpt lat="48.13824" lon="2.04993">
        <ele>134.6</ele>
        <time>2020-07-02T13:04:19Z</time>
      </trkpt>
      <trkpt lat="48.13818" lon="2.04991">
        <ele>134.5</ele>
        <time>2020-07-02T13:04:20Z</time>
      </trkpt>
      <trkpt lat="48.13812" lon="2.04989">
        <ele>134.3</ele>
        <time>2020-07-02T13:04:21Z</time>
      </trkpt>
      <trkpt lat="48.13807" lon="2.04988">
        <ele>134.2</ele>
        <time>2020-07-02T13:04:22Z</time>
      </trkpt>
      <trkpt lat="48.13801" lon="2.04987">
        <ele>134.2</ele>
        <time>2020-07-02T13:04:23Z</time>
      </trkpt>
      <trkpt lat="48.13795" lon="2.04987">
        <ele>134.1</ele>
        <time>2020-07-02T13:04:24Z</time>
      </trkpt>
      <trkpt lat="48.13788" lon="2.04985">
        <ele>134</ele>
        <time>2020-07-02T13:04:25Z</time>
      </trkpt>
      <trkpt lat="48.13783" lon="2.04984">
        <ele>133.9</ele>
        <time>2020-07-02T13:04:26Z</time>
      </trkpt>
      <trkpt lat="48.13777" lon="2.04983">
        <ele>133.9</ele>
        <time>2020-07-02T13:04:27Z</time>
      </trkpt>
      <trkpt lat="48.1377" lon="2.04982">
        <ele>133.8</ele>
        <time>2020-07-02T13:04:28Z</time>
      </trkpt>
      <trkpt lat="48.13764" lon="2.0498">
        <ele>133.8</ele>
        <time>2020-07-02T13:04:29Z</time>
      </trkpt>
      <trkpt lat="48.13758" lon="2.04978">
        <ele>133.7</ele>
        <time>2020-07-02T13:04:30Z</time>
      </trkpt>
      <trkpt lat="48.13751" lon="2.04977">
        <ele>133.7</ele>
        <time>2020-07-02T13:04:31Z</time>
      </trkpt>
      <trkpt lat="48.13745" lon="2.04976">
        <ele>133.6</ele>
        <time>2020-07-02T13:04:32Z</time>
      </trkpt>
      <trkpt lat="48.13738" lon="2.04975">
        <ele>133.6</ele>
        <time>2020-07-02T13:04:33Z</time>
      </trkpt>
      <trkpt lat="48.13731" lon="2.04974">
        <ele>133.5</ele>
        <time>2020-07-02T13:04:34Z</time>
      </trkpt>
      <trkpt lat="48.13724" lon="2.04973">
        <ele>133.5</ele>
        <time>2020-07-02T13:04:35Z</time>
      </trkpt>
      <trkpt lat="48.13718" lon="2.04972">
        <ele>133.5</ele>
        <time>2020-07-02T13:04:36Z</time>
      </trkpt>
      <trkpt lat="48.13711" lon="2.04969">
        <ele>133.4</ele>
        <time>2020-07-02T13:04:37Z</time>
      </trkpt>
      <trkpt lat="48.13704" lon="2.04966">
        <ele>133.4</ele>
        <time>2020-07-02T13:04:38Z</time>
      </trkpt>
      <trkpt lat="48.13697" lon="2.04964">
        <ele>133.4</ele>
        <time>2020-07-02T13:04:39Z</time>
      </trkpt>
      <trkpt lat="48.1369" lon="2.04962">
        <ele>133.3</ele>
        <time>2020-07-02T13:04:40Z</time>
      </trkpt>
      <trkpt lat="48.13683" lon="2.04961">
        <ele>133.3</ele>
        <time>2020-07-02T13:04:41Z</time>
      </trkpt>
      <trkpt lat="48.13676" lon="2.04959">
        <ele>133.3</ele>
        <time>2020-07-02T13:04:42Z</time>
      </trkpt>
      <trkpt lat="48.13669" lon="2.04957">
        <ele>133.4</ele>
        <time>2020-07-02T13:04:43Z</time>
      </trkpt>
      <trkpt lat="48.13663" lon="2.04955">
        <ele>133.4</ele>
        <time>2020-07-02T13:04:44Z</time>
      </trkpt>
      <trkpt lat="48.13655" lon="2.04953">
        <ele>133.4</ele>
        <time>2020-07-02T13:04:45Z</time>
      </trkpt>
      <trkpt lat="48.13647" lon="2.04951">
        <ele>133.4</ele>
        <time>2020-07-02T13:04:46Z</time>
      </trkpt>
      <trkpt lat="48.1364" lon="2.0495">
        <ele>133.3</ele>
        <time>2020-07-02T13:04:47Z</time>
      </trkpt>
      <trkpt lat="48.13633" lon="2.04949">
        <ele>133.3</ele>
        <time>2020-07-02T13:04:48Z</time>
      </trkpt>
      <trkpt lat="48.13626" lon="2.04948">
        <ele>133.3</ele>
        <time>2020-07-02T13:04:49Z</time>
      </trkpt>
      <trkpt lat="48.13619" lon="2.04947">
        <ele>133.3</ele>
        <time>2020-07-02T13:04:50Z</time>
      </trkpt>
      <trkpt lat="48.13612" lon="2.04945">
        <ele>133.3</ele>
        <time>2020-07-02T13:04:51Z</time>
      </trkpt>
      <trkpt lat="48.13605" lon="2.04943">
        <ele>133.3</ele>
        <time>2020-07-02T13:04:52Z</time>
      </trkpt>
      <trkpt lat="48.13598" lon="2.04942">
        <ele>133.3</ele>
        <time>2020-07-02T13:04:53Z</time>
      </trkpt>
      <trkpt lat="48.13591" lon="2.04939">
        <ele>133.3</ele>
        <time>2020-07-02T13:04:54Z</time>
      </trkpt>
      <trkpt lat="48.13583" lon="2.04938">
        <ele>133.2</ele>
        <time>2020-07-02T13:04:55Z</time>
      </trkpt>
      <trkpt lat="48.13576" lon="2.04936">
        <ele>133.2</ele>
        <time>2020-07-02T13:04:56Z</time>
      </trkpt>
      <trkpt lat="48.13569" lon="2.04934">
        <ele>133.1</ele>
        <time>2020-07-02T13:04:57Z</time>
      </trkpt>
      <trkpt lat="48.13562" lon="2.04933">
        <ele>133</ele>
        <time>2020-07-02T13:04:58Z</time>
      </trkpt>
      <trkpt lat="48.13555" lon="2.0493">
        <ele>133</ele>
        <time>2020-07-02T13:04:59Z</time>
      </trkpt>
      <trkpt lat="48.13548" lon="2.04929">
        <ele>132.9</ele>
        <time>2020-07-02T13:05:00Z</time>
      </trkpt>
      <trkpt lat="48.13541" lon="2.04927">
        <ele>132.9</ele>
        <time>2020-07-02T13:05:01Z</time>
      </trkpt>
      <trkpt lat="48.13533" lon="2.04925">
        <ele>132.8</ele>
        <time>2020-07-02T13:05:02Z</time>
      </trkpt>
      <trkpt lat="48.13526" lon="2.04923">
        <ele>132.7</ele>
        <time>2020-07-02T13:05:03Z</time>
      </trkpt>
      <trkpt lat="48.13518" lon="2.04921">
        <ele>132.6</ele>
        <time>2020-07-02T13:05:04Z</time>
      </trkpt>
      <trkpt lat="48.13511" lon="2.04919">
        <ele>132.5</ele>
        <time>2020-07-02T13:05:05Z</time>
      </trkpt>
      <trkpt lat="48.13503" lon="2.04918">
        <ele>132.4</ele>
        <time>2020-07-02T13:05:06Z</time>
      </trkpt>
      <trkpt lat="48.13496" lon="2.04916">
        <ele>132.2</ele>
        <time>2020-07-02T13:05:07Z</time>
      </trkpt>
      <trkpt lat="48.13488" lon="2.04915">
        <ele>132.1</ele>
        <time>2020-07-02T13:05:08Z</time>
      </trkpt>
      <trkpt lat="48.1348" lon="2.04913">
        <ele>132</ele>
        <time>2020-07-02T13:05:09Z</time>
      </trkpt>
      <trkpt lat="48.13472" lon="2.04911">
        <ele>131.8</ele>
        <time>2020-07-02T13:05:10Z</time>
      </trkpt>
      <trkpt lat="48.13465" lon="2.0491">
        <ele>131.7</ele>
        <time>2020-07-02T13:05:11Z</time>
      </trkpt>
      <trkpt lat="48.13457" lon="2.04907">
        <ele>131.6</ele>
        <time>2020-07-02T13:05:12Z</time>
      </trkpt>
      <trkpt lat="48.1345" lon="2.04905">
        <ele>131.5</ele>
        <time>2020-07-02T13:05:13Z</time>
      </trkpt>
      <trkpt lat="48.13442" lon="2.04903">
        <ele>131.4</ele>
        <time>2020-07-02T13:05:14Z</time>
      </trkpt>
      <trkpt lat="48.13434" lon="2.04901">
        <ele>131.3</ele>
        <time>2020-07-02T13:05:15Z</time>
      </trkpt>
      <trkpt lat="48.13427" lon="2.04899">
        <ele>131.2</ele>
        <time>2020-07-02T13:05:16Z</time>
      </trkpt>
      <trkpt lat="48.13419" lon="2.04897">
        <ele>131.1</ele>
        <time>2020-07-02T13:05:17Z</time>
      </trkpt>
      <trkpt lat="48.13412" lon="2.04895">
        <ele>131.1</ele>
        <time>2020-07-02T13:05:18Z</time>
      </trkpt>
      <trkpt lat="48.13404" lon="2.04893">
        <ele>131</ele>
        <time>2020-07-02T13:05:19Z</time>
      </trkpt>
      <trkpt lat="48.13396" lon="2.04891">
        <ele>130.9</ele>
        <time>2020-07-02T13:05:20Z</time>
      </trkpt>
      <trkpt lat="48.13388" lon="2.04889">
        <ele>130.9</ele>
        <time>2020-07-02T13:05:21Z</time>
      </trkpt>
      <trkpt lat="48.13381" lon="2.04886">
        <ele>130.8</ele>
        <time>2020-07-02T13:05:22Z</time>
      </trkpt>
      <trkpt lat="48.13373" lon="2.04883">
        <ele>130.8</ele>
        <time>2020-07-02T13:05:23Z</time>
      </trkpt>
      <trkpt lat="48.13366" lon="2.04881">
        <ele>130.7</ele>
        <time>2020-07-02T13:05:24Z</time>
      </trkpt>
      <trkpt lat="48.13359" lon="2.04877">
        <ele>130.7</ele>
        <time>2020-07-02T13:05:25Z</time>
      </trkpt>
      <trkpt lat="48.13352" lon="2.04873">
        <ele>130.7</ele>
        <time>2020-07-02T13:05:26Z</time>
      </trkpt>
      <trkpt lat="48.13345" lon="2.0487">
        <ele>130.6</ele>
        <time>2020-07-02T13:05:27Z</time>
      </trkpt>
      <trkpt lat="48.13339" lon="2.04866">
        <ele>130.6</ele>
        <time>2020-07-02T13:05:28Z</time>
      </trkpt>
      <trkpt lat="48.13333" lon="2.04862">
        <ele>130.6</ele>
        <time>2020-07-02T13:05:29Z</time>
      </trkpt>
      <trkpt lat="48.13327" lon="2.04859">
        <ele>130.5</ele>
        <time>2020-07-02T13:05:30Z</time>
      </trkpt>
      <trkpt lat="48.1332" lon="2.04856">
        <ele>130.5</ele>
        <time>2020-07-02T13:05:31Z</time>
      </trkpt>
      <trkpt lat="48.13313" lon="2.04852">
        <ele>130.4</ele>
        <time>2020-07-02T13:05:32Z</time>
      </trkpt>
      <trkpt lat="48.13307" lon="2.04849">
        <ele>130.3</ele>
        <time>2020-07-02T13:05:33Z</time>
      </trkpt>
      <trkpt lat="48.13301" lon="2.04847">
        <ele>130.2</ele>
        <time>2020-07-02T13:05:34Z</time>
      </trkpt>
      <trkpt lat="48.13295" lon="2.04844">
        <ele>130</ele>
        <time>2020-07-02T13:05:35Z</time>
      </trkpt>
      <trkpt lat="48.13289" lon="2.04841">
        <ele>129.9</ele>
        <time>2020-07-02T13:05:36Z</time>
      </trkpt>
      <trkpt lat="48.13282" lon="2.04839">
        <ele>129.7</ele>
        <time>2020-07-02T13:05:37Z</time>
      </trkpt>
      <trkpt lat="48.13275" lon="2.04836">
        <ele>129.6</ele>
        <time>2020-07-02T13:05:38Z</time>
      </trkpt>
      <trkpt lat="48.13269" lon="2.04833">
        <ele>129.5</ele>
        <time>2020-07-02T13:05:39Z</time>
      </trkpt>
      <trkpt lat="48.13263" lon="2.0483">
        <ele>129.4</ele>
        <time>2020-07-02T13:05:40Z</time>
      </trkpt>
      <trkpt lat="48.13257" lon="2.04827">
        <ele>129.3</ele>
        <time>2020-07-02T13:05:41Z</time>
      </trkpt>
      <trkpt lat="48.13251" lon="2.04825">
        <ele>129.3</ele>
        <time>2020-07-02T13:05:42Z</time>
      </trkpt>
      <trkpt lat="48.13245" lon="2.04822">
        <ele>129.2</ele>
        <time>2020-07-02T13:05:43Z</time>
      </trkpt>
      <trkpt lat="48.13239" lon="2.04819">
        <ele>129.2</ele>
        <time>2020-07-02T13:05:44Z</time>
      </trkpt>
      <trkpt lat="48.13233" lon="2.04816">
        <ele>129.2</ele>
        <time>2020-07-02T13:05:45Z</time>
      </trkpt>
      <trkpt lat="48.13227" lon="2.04814">
        <ele>129.3</ele>
        <time>2020-07-02T13:05:46Z</time>
      </trkpt>
      <trkpt lat="48.13221" lon="2.04811">
        <ele>129.3</ele>
        <time>2020-07-02T13:05:47Z</time>
      </trkpt>
      <trkpt lat="48.13215" lon="2.04808">
        <ele>129.2</ele>
        <time>2020-07-02T13:05:48Z</time>
      </trkpt>
      <trkpt lat="48.13209" lon="2.04806">
        <ele>129.1</ele>
        <time>2020-07-02T13:05:49Z</time>
      </trkpt>
      <trkpt lat="48.13202" lon="2.04803">
        <ele>129</ele>
        <time>2020-07-02T13:05:50Z</time>
      </trkpt>
      <trkpt lat="48.13196" lon="2.048">
        <ele>128.8</ele>
        <time>2020-07-02T13:05:51Z</time>
      </trkpt>
      <trkpt lat="48.1319" lon="2.04798">
        <ele>128.7</ele>
        <time>2020-07-02T13:05:52Z</time>
      </trkpt>
      <trkpt lat="48.13184" lon="2.04794">
        <ele>128.6</ele>
        <time>2020-07-02T13:05:53Z</time>
      </trkpt>
      <trkpt lat="48.13177" lon="2.04791">
        <ele>128.4</ele>
        <time>2020-07-02T13:05:54Z</time>
      </trkpt>
      <trkpt lat="48.13171" lon="2.04788">
        <ele>128.3</ele>
        <time>2020-07-02T13:05:55Z</time>
      </trkpt>
      <trkpt lat="48.13164" lon="2.04784">
        <ele>128.2</ele>
        <time>2020-07-02T13:05:56Z</time>
      </trkpt>
      <trkpt lat="48.13158" lon="2.04781">
        <ele>128.1</ele>
        <time>2020-07-02T13:05:57Z</time>
      </trkpt>
      <trkpt lat="48.13151" lon="2.04778">
        <ele>128</ele>
        <time>2020-07-02T13:05:58Z</time>
      </trkpt>
      <trkpt lat="48.13144" lon="2.04775">
        <ele>127.8</ele>
        <time>2020-07-02T13:05:59Z</time>
      </trkpt>
      <trkpt lat="48.13138" lon="2.04772">
        <ele>127.7</ele>
        <time>2020-07-02T13:06:00Z</time>
      </trkpt>
      <trkpt lat="48.13131" lon="2.04769">
        <ele>127.6</ele>
        <time>2020-07-02T13:06:01Z</time>
      </trkpt>
      <trkpt lat="48.13124" lon="2.04765">
        <ele>127.4</ele>
        <time>2020-07-02T13:06:02Z</time>
      </trkpt>
      <trkpt lat="48.13118" lon="2.04762">
        <ele>127.3</ele>
        <time>2020-07-02T13:06:03Z</time>
      </trkpt>
      <trkpt lat="48.13111" lon="2.0476">
        <ele>127.1</ele>
        <time>2020-07-02T13:06:04Z</time>
      </trkpt>
      <trkpt lat="48.13104" lon="2.04756">
        <ele>127</ele>
        <time>2020-07-02T13:06:05Z</time>
      </trkpt>
      <trkpt lat="48.13097" lon="2.04752">
        <ele>126.8</ele>
        <time>2020-07-02T13:06:06Z</time>
      </trkpt>
      <trkpt lat="48.1309" lon="2.04749">
        <ele>126.7</ele>
        <time>2020-07-02T13:06:07Z</time>
      </trkpt>
      <trkpt lat="48.13083" lon="2.04746">
        <ele>126.6</ele>
        <time>2020-07-02T13:06:08Z</time>
      </trkpt>
      <trkpt lat="48.13075" lon="2.04743">
        <ele>126.5</ele>
        <time>2020-07-02T13:06:09Z</time>
      </trkpt>
      <trkpt lat="48.13068" lon="2.0474">
        <ele>126.4</ele>
        <time>2020-07-02T13:06:10Z</time>
      </trkpt>
      <trkpt lat="48.13061" lon="2.04736">
        <ele>126.4</ele>
        <time>2020-07-02T13:06:11Z</time>
      </trkpt>
      <trkpt lat="48.13054" lon="2.04733">
        <ele>126.3</ele>
        <time>2020-07-02T13:06:12Z</time>
      </trkpt>
      <trkpt lat="48.13047" lon="2.0473">
        <ele>126.2</ele>
        <time>2020-07-02T13:06:13Z</time>
      </trkpt>
      <trkpt lat="48.13041" lon="2.04726">
        <ele>126.1</ele>
        <time>2020-07-02T13:06:14Z</time>
      </trkpt>
      <trkpt lat="48.13034" lon="2.04723">
        <ele>126</ele>
        <time>2020-07-02T13:06:15Z</time>
      </trkpt>
      <trkpt lat="48.13027" lon="2.0472">
        <ele>126</ele>
        <time>2020-07-02T13:06:16Z</time>
      </trkpt>
      <trkpt lat="48.13021" lon="2.04717">
        <ele>125.9</ele>
        <time>2020-07-02T13:06:17Z</time>
      </trkpt>
      <trkpt lat="48.13014" lon="2.04714">
        <ele>125.8</ele>
        <time>2020-07-02T13:06:18Z</time>
      </trkpt>
      <trkpt lat="48.13008" lon="2.04711">
        <ele>125.8</ele>
        <time>2020-07-02T13:06:19Z</time>
      </trkpt>
      <trkpt lat="48.13001" lon="2.04709">
        <ele>125.8</ele>
        <time>2020-07-02T13:06:20Z</time>
      </trkpt>
      <trkpt lat="48.12995" lon="2.04706">
        <ele>125.8</ele>
        <time>2020-07-02T13:06:21Z</time>
      </trkpt>
      <trkpt lat="48.12988" lon="2.04702">
        <ele>125.8</ele>
        <time>2020-07-02T13:06:22Z</time>
      </trkpt>
      <trkpt lat="48.12981" lon="2.04699">
        <ele>125.9</ele>
        <time>2020-07-02T13:06:23Z</time>
      </trkpt>
      <trkpt lat="48.12975" lon="2.04696">
        <ele>126.1</ele>
        <time>2020-07-02T13:06:24Z</time>
      </trkpt>
      <trkpt lat="48.12968" lon="2.04693">
        <ele>126.3</ele>
        <time>2020-07-02T13:06:25Z</time>
      </trkpt>
      <trkpt lat="48.12962" lon="2.0469">
        <ele>126.9</ele>
        <time>2020-07-02T13:06:26Z</time>
      </trkpt>
      <trkpt lat="48.12955" lon="2.04687">
        <ele>127.2</ele>
        <time>2020-07-02T13:06:27Z</time>
      </trkpt>
      <trkpt lat="48.12949" lon="2.04685">
        <ele>127.3</ele>
        <time>2020-07-02T13:06:28Z</time>
      </trkpt>
      <trkpt lat="48.12942" lon="2.04683">
        <ele>127.3</ele>
        <time>2020-07-02T13:06:29Z</time>
      </trkpt>
      <trkpt lat="48.12936" lon="2.0468">
        <ele>127.4</ele>
        <time>2020-07-02T13:06:30Z</time>
      </trkpt>
      <trkpt lat="48.12929" lon="2.04677">
        <ele>127.3</ele>
        <time>2020-07-02T13:06:31Z</time>
      </trkpt>
      <trkpt lat="48.12922" lon="2.04674">
        <ele>127.3</ele>
        <time>2020-07-02T13:06:32Z</time>
      </trkpt>
      <trkpt lat="48.12916" lon="2.0467">
        <ele>127.4</ele>
        <time>2020-07-02T13:06:33Z</time>
      </trkpt>
      <trkpt lat="48.12909" lon="2.04667">
        <ele>127.4</ele>
        <time>2020-07-02T13:06:34Z</time>
      </trkpt>
      <trkpt lat="48.12903" lon="2.04664">
        <ele>127.4</ele>
        <time>2020-07-02T13:06:35Z</time>
      </trkpt>
      <trkpt lat="48.12896" lon="2.04661">
        <ele>127.4</ele>
        <time>2020-07-02T13:06:36Z</time>
      </trkpt>
      <trkpt lat="48.1289" lon="2.04658">
        <ele>127.4</ele>
        <time>2020-07-02T13:06:37Z</time>
      </trkpt>
      <trkpt lat="48.12884" lon="2.04655">
        <ele>127.4</ele>
        <time>2020-07-02T13:06:38Z</time>
      </trkpt>
      <trkpt lat="48.12877" lon="2.04652">
        <ele>127.4</ele>
        <time>2020-07-02T13:06:39Z</time>
      </trkpt>
      <trkpt lat="48.12871" lon="2.04649">
        <ele>127.4</ele>
        <time>2020-07-02T13:06:40Z</time>
      </trkpt>
      <trkpt lat="48.12865" lon="2.04647">
        <ele>127.5</ele>
        <time>2020-07-02T13:06:41Z</time>
      </trkpt>
      <trkpt lat="48.12859" lon="2.04644">
        <ele>127.5</ele>
        <time>2020-07-02T13:06:42Z</time>
      </trkpt>
      <trkpt lat="48.12853" lon="2.0464">
        <ele>127.6</ele>
        <time>2020-07-02T13:06:43Z</time>
      </trkpt>
      <trkpt lat="48.12848" lon="2.04637">
        <ele>127.7</ele>
        <time>2020-07-02T13:06:44Z</time>
      </trkpt>
      <trkpt lat="48.12842" lon="2.04634">
        <ele>127.8</ele>
        <time>2020-07-02T13:06:45Z</time>
      </trkpt>
      <trkpt lat="48.12836" lon="2.04632">
        <ele>127.8</ele>
        <time>2020-07-02T13:06:46Z</time>
      </trkpt>
      <trkpt lat="48.1283" lon="2.04629">
        <ele>127.9</ele>
        <time>2020-07-02T13:06:47Z</time>
      </trkpt>
      <trkpt lat="48.12825" lon="2.04627">
        <ele>128</ele>
        <time>2020-07-02T13:06:48Z</time>
      </trkpt>
      <trkpt lat="48.1282" lon="2.04625">
        <ele>128</ele>
        <time>2020-07-02T13:06:49Z</time>
      </trkpt>
      <trkpt lat="48.12814" lon="2.04624">
        <ele>128.1</ele>
        <time>2020-07-02T13:06:50Z</time>
      </trkpt>
      <trkpt lat="48.12809" lon="2.04622">
        <ele>128.2</ele>
        <time>2020-07-02T13:06:51Z</time>
      </trkpt>
      <trkpt lat="48.12804" lon="2.04619">
        <ele>128.3</ele>
        <time>2020-07-02T13:06:52Z</time>
      </trkpt>
      <trkpt lat="48.12798" lon="2.04616">
        <ele>128.3</ele>
        <time>2020-07-02T13:06:53Z</time>
      </trkpt>
      <trkpt lat="48.12793" lon="2.04614">
        <ele>128.4</ele>
        <time>2020-07-02T13:06:54Z</time>
      </trkpt>
      <trkpt lat="48.12788" lon="2.04611">
        <ele>128.5</ele>
        <time>2020-07-02T13:06:55Z</time>
      </trkpt>
      <trkpt lat="48.12783" lon="2.04607">
        <ele>128.5</ele>
        <time>2020-07-02T13:06:56Z</time>
      </trkpt>
      <trkpt lat="48.12778" lon="2.04605">
        <ele>128.6</ele>
        <time>2020-07-02T13:06:57Z</time>
      </trkpt>
      <trkpt lat="48.12773" lon="2.04602">
        <ele>128.7</ele>
        <time>2020-07-02T13:06:58Z</time>
      </trkpt>
      <trkpt lat="48.12768" lon="2.04598">
        <ele>128.7</ele>
        <time>2020-07-02T13:06:59Z</time>
      </trkpt>
      <trkpt lat="48.12763" lon="2.04596">
        <ele>128.8</ele>
        <time>2020-07-02T13:07:00Z</time>
      </trkpt>
      <trkpt lat="48.12758" lon="2.04594">
        <ele>128.8</ele>
        <time>2020-07-02T13:07:01Z</time>
      </trkpt>
      <trkpt lat="48.12753" lon="2.04592">
        <ele>128.9</ele>
        <time>2020-07-02T13:07:02Z</time>
      </trkpt>
      <trkpt lat="48.12746" lon="2.04588">
        <ele>129</ele>
        <time>2020-07-02T13:07:03Z</time>
      </trkpt>
      <trkpt lat="48.1274" lon="2.04587">
        <ele>129</ele>
        <time>2020-07-02T13:07:04Z</time>
      </trkpt>
      <trkpt lat="48.12735" lon="2.04585">
        <ele>129</ele>
        <time>2020-07-02T13:07:05Z</time>
      </trkpt>
      <trkpt lat="48.12731" lon="2.04583">
        <ele>129.1</ele>
        <time>2020-07-02T13:07:06Z</time>
      </trkpt>
      <trkpt lat="48.12726" lon="2.04581">
        <ele>129.1</ele>
        <time>2020-07-02T13:07:07Z</time>
      </trkpt>
      <trkpt lat="48.12721" lon="2.04578">
        <ele>129.1</ele>
        <time>2020-07-02T13:07:08Z</time>
      </trkpt>
      <trkpt lat="48.12716" lon="2.04575">
        <ele>129.1</ele>
        <time>2020-07-02T13:07:09Z</time>
      </trkpt>
      <trkpt lat="48.12711" lon="2.04572">
        <ele>129.1</ele>
        <time>2020-07-02T13:07:10Z</time>
      </trkpt>
      <trkpt lat="48.12707" lon="2.0457">
        <ele>129.2</ele>
        <time>2020-07-02T13:07:11Z</time>
      </trkpt>
      <trkpt lat="48.12702" lon="2.04568">
        <ele>129.2</ele>
        <time>2020-07-02T13:07:12Z</time>
      </trkpt>
      <trkpt lat="48.12696" lon="2.04565">
        <ele>129.2</ele>
        <time>2020-07-02T13:07:13Z</time>
      </trkpt>
      <trkpt lat="48.1269" lon="2.04562">
        <ele>129.1</ele>
        <time>2020-07-02T13:07:14Z</time>
      </trkpt>
      <trkpt lat="48.12684" lon="2.04559">
        <ele>129</ele>
        <time>2020-07-02T13:07:15Z</time>
      </trkpt>
      <trkpt lat="48.12678" lon="2.04557">
        <ele>129</ele>
        <time>2020-07-02T13:07:16Z</time>
      </trkpt>
      <trkpt lat="48.12673" lon="2.04554">
        <ele>128.9</ele>
        <time>2020-07-02T13:07:17Z</time>
      </trkpt>
      <trkpt lat="48.12667" lon="2.04552">
        <ele>128.9</ele>
        <time>2020-07-02T13:07:18Z</time>
      </trkpt>
      <trkpt lat="48.1266" lon="2.04549">
        <ele>128.8</ele>
        <time>2020-07-02T13:07:19Z</time>
      </trkpt>
      <trkpt lat="48.12653" lon="2.04546">
        <ele>128.6</ele>
        <time>2020-07-02T13:07:20Z</time>
      </trkpt>
      <trkpt lat="48.12647" lon="2.04544">
        <ele>128.5</ele>
        <time>2020-07-02T13:07:21Z</time>
      </trkpt>
      <trkpt lat="48.12641" lon="2.04541">
        <ele>128.4</ele>
        <time>2020-07-02T13:07:22Z</time>
      </trkpt>
      <trkpt lat="48.12635" lon="2.04538">
        <ele>128.3</ele>
        <time>2020-07-02T13:07:23Z</time>
      </trkpt>
      <trkpt lat="48.12628" lon="2.04535">
        <ele>128.2</ele>
        <time>2020-07-02T13:07:24Z</time>
      </trkpt>
      <trkpt lat="48.12623" lon="2.04533">
        <ele>128.1</ele>
        <time>2020-07-02T13:07:25Z</time>
      </trkpt>
      <trkpt lat="48.12618" lon="2.04529">
        <ele>128</ele>
        <time>2020-07-02T13:07:26Z</time>
      </trkpt>
      <trkpt lat="48.12613" lon="2.04527">
        <ele>127.9</ele>
        <time>2020-07-02T13:07:27Z</time>
      </trkpt>
      <trkpt lat="48.12607" lon="2.04524">
        <ele>127.7</ele>
        <time>2020-07-02T13:07:28Z</time>
      </trkpt>
      <trkpt lat="48.12601" lon="2.04522">
        <ele>127.6</ele>
        <time>2020-07-02T13:07:29Z</time>
      </trkpt>
      <trkpt lat="48.12595" lon="2.04519">
        <ele>127.4</ele>
        <time>2020-07-02T13:07:30Z</time>
      </trkpt>
      <trkpt lat="48.12589" lon="2.04516">
        <ele>127.3</ele>
        <time>2020-07-02T13:07:31Z</time>
      </trkpt>
      <trkpt lat="48.12583" lon="2.04513">
        <ele>127.2</ele>
        <time>2020-07-02T13:07:32Z</time>
      </trkpt>
      <trkpt lat="48.12577" lon="2.04511">
        <ele>127.1</ele>
        <time>2020-07-02T13:07:33Z</time>
      </trkpt>
      <trkpt lat="48.1257" lon="2.04508">
        <ele>126.9</ele>
        <time>2020-07-02T13:07:34Z</time>
      </trkpt>
      <trkpt lat="48.12563" lon="2.04505">
        <ele>126.8</ele>
        <time>2020-07-02T13:07:35Z</time>
      </trkpt>
      <trkpt lat="48.12557" lon="2.04502">
        <ele>126.6</ele>
        <time>2020-07-02T13:07:36Z</time>
      </trkpt>
      <trkpt lat="48.12549" lon="2.04498">
        <ele>126.4</ele>
        <time>2020-07-02T13:07:37Z</time>
      </trkpt>
      <trkpt lat="48.12543" lon="2.04495">
        <ele>126.3</ele>
        <time>2020-07-02T13:07:38Z</time>
      </trkpt>
      <trkpt lat="48.12537" lon="2.04491">
        <ele>126.2</ele>
        <time>2020-07-02T13:07:39Z</time>
      </trkpt>
      <trkpt lat="48.1253" lon="2.04488">
        <ele>126.1</ele>
        <time>2020-07-02T13:07:40Z</time>
      </trkpt>
      <trkpt lat="48.12524" lon="2.04485">
        <ele>126</ele>
        <time>2020-07-02T13:07:41Z</time>
      </trkpt>
      <trkpt lat="48.12518" lon="2.04482">
        <ele>125.9</ele>
        <time>2020-07-02T13:07:42Z</time>
      </trkpt>
      <trkpt lat="48.12512" lon="2.04478">
        <ele>125.8</ele>
        <time>2020-07-02T13:07:43Z</time>
      </trkpt>
      <trkpt lat="48.12505" lon="2.04475">
        <ele>125.7</ele>
        <time>2020-07-02T13:07:44Z</time>
      </trkpt>
      <trkpt lat="48.12498" lon="2.04472">
        <ele>125.6</ele>
        <time>2020-07-02T13:07:45Z</time>
      </trkpt>
      <trkpt lat="48.12492" lon="2.04469">
        <ele>125.5</ele>
        <time>2020-07-02T13:07:46Z</time>
      </trkpt>
      <trkpt lat="48.12485" lon="2.04465">
        <ele>125.5</ele>
        <time>2020-07-02T13:07:47Z</time>
      </trkpt>
      <trkpt lat="48.12478" lon="2.04462">
        <ele>125.4</ele>
        <time>2020-07-02T13:07:48Z</time>
      </trkpt>
      <trkpt lat="48.12471" lon="2.04459">
        <ele>125.4</ele>
        <time>2020-07-02T13:07:49Z</time>
      </trkpt>
      <trkpt lat="48.12464" lon="2.04457">
        <ele>125.3</ele>
        <time>2020-07-02T13:07:50Z</time>
      </trkpt>
      <trkpt lat="48.12457" lon="2.04453">
        <ele>125.3</ele>
        <time>2020-07-02T13:07:51Z</time>
      </trkpt>
      <trkpt lat="48.12451" lon="2.04451">
        <ele>125.2</ele>
        <time>2020-07-02T13:07:52Z</time>
      </trkpt>
      <trkpt lat="48.12444" lon="2.04446">
        <ele>125.2</ele>
        <time>2020-07-02T13:07:53Z</time>
      </trkpt>
      <trkpt lat="48.12437" lon="2.04443">
        <ele>125.2</ele>
        <time>2020-07-02T13:07:54Z</time>
      </trkpt>
      <trkpt lat="48.1243" lon="2.0444">
        <ele>125.2</ele>
        <time>2020-07-02T13:07:55Z</time>
      </trkpt>
      <trkpt lat="48.12423" lon="2.04438">
        <ele>125.2</ele>
        <time>2020-07-02T13:07:56Z</time>
      </trkpt>
      <trkpt lat="48.12416" lon="2.04435">
        <ele>125.2</ele>
        <time>2020-07-02T13:07:57Z</time>
      </trkpt>
      <trkpt lat="48.12409" lon="2.04431">
        <ele>125.2</ele>
        <time>2020-07-02T13:07:58Z</time>
      </trkpt>
      <trkpt lat="48.12403" lon="2.04428">
        <ele>125.3</ele>
        <time>2020-07-02T13:07:59Z</time>
      </trkpt>
      <trkpt lat="48.12396" lon="2.04425">
        <ele>125.3</ele>
        <time>2020-07-02T13:08:00Z</time>
      </trkpt>
      <trkpt lat="48.1239" lon="2.04422">
        <ele>125.3</ele>
        <time>2020-07-02T13:08:01Z</time>
      </trkpt>
      <trkpt lat="48.12383" lon="2.04419">
        <ele>125.4</ele>
        <time>2020-07-02T13:08:02Z</time>
      </trkpt>
      <trkpt lat="48.12377" lon="2.04416">
        <ele>125.4</ele>
        <time>2020-07-02T13:08:03Z</time>
      </trkpt>
      <trkpt lat="48.1237" lon="2.04413">
        <ele>125.5</ele>
        <time>2020-07-02T13:08:04Z</time>
      </trkpt>
      <trkpt lat="48.12364" lon="2.0441">
        <ele>125.6</ele>
        <time>2020-07-02T13:08:05Z</time>
      </trkpt>
      <trkpt lat="48.12357" lon="2.04407">
        <ele>125.6</ele>
        <time>2020-07-02T13:08:06Z</time>
      </trkpt>
      <trkpt lat="48.12351" lon="2.04405">
        <ele>125.7</ele>
        <time>2020-07-02T13:08:07Z</time>
      </trkpt>
      <trkpt lat="48.12345" lon="2.04402">
        <ele>125.7</ele>
        <time>2020-07-02T13:08:08Z</time>
      </trkpt>
      <trkpt lat="48.12339" lon="2.044">
        <ele>125.8</ele>
        <time>2020-07-02T13:08:09Z</time>
      </trkpt>
      <trkpt lat="48.12333" lon="2.04396">
        <ele>125.8</ele>
        <time>2020-07-02T13:08:10Z</time>
      </trkpt>
      <trkpt lat="48.12327" lon="2.04394">
        <ele>125.9</ele>
        <time>2020-07-02T13:08:11Z</time>
      </trkpt>
      <trkpt lat="48.12321" lon="2.04391">
        <ele>126</ele>
        <time>2020-07-02T13:08:12Z</time>
      </trkpt>
      <trkpt lat="48.12315" lon="2.04389">
        <ele>126</ele>
        <time>2020-07-02T13:08:13Z</time>
      </trkpt>
      <trkpt lat="48.12309" lon="2.04386">
        <ele>126</ele>
        <time>2020-07-02T13:08:14Z</time>
      </trkpt>
      <trkpt lat="48.12303" lon="2.04383">
        <ele>126.1</ele>
        <time>2020-07-02T13:08:15Z</time>
      </trkpt>
      <trkpt lat="48.12297" lon="2.0438">
        <ele>126.1</ele>
        <time>2020-07-02T13:08:16Z</time>
      </trkpt>
      <trkpt lat="48.12291" lon="2.04377">
        <ele>126.1</ele>
        <time>2020-07-02T13:08:17Z</time>
      </trkpt>
      <trkpt lat="48.12285" lon="2.04374">
        <ele>126.2</ele>
        <time>2020-07-02T13:08:18Z</time>
      </trkpt>
      <trkpt lat="48.12279" lon="2.04371">
        <ele>126.2</ele>
        <time>2020-07-02T13:08:19Z</time>
      </trkpt>
      <trkpt lat="48.12273" lon="2.04368">
        <ele>126.3</ele>
        <time>2020-07-02T13:08:20Z</time>
      </trkpt>
      <trkpt lat="48.12267" lon="2.04366">
        <ele>126.3</ele>
        <time>2020-07-02T13:08:21Z</time>
      </trkpt>
      <trkpt lat="48.12261" lon="2.04363">
        <ele>126.4</ele>
        <time>2020-07-02T13:08:22Z</time>
      </trkpt>
      <trkpt lat="48.12255" lon="2.0436">
        <ele>126.4</ele>
        <time>2020-07-02T13:08:23Z</time>
      </trkpt>
      <trkpt lat="48.1225" lon="2.04358">
        <ele>126.4</ele>
        <time>2020-07-02T13:08:24Z</time>
      </trkpt>
      <trkpt lat="48.12244" lon="2.04355">
        <ele>126.5</ele>
        <time>2020-07-02T13:08:25Z</time>
      </trkpt>
      <trkpt lat="48.12238" lon="2.04353">
        <ele>126.5</ele>
        <time>2020-07-02T13:08:26Z</time>
      </trkpt>
      <trkpt lat="48.12233" lon="2.0435">
        <ele>126.5</ele>
        <time>2020-07-02T13:08:27Z</time>
      </trkpt>
      <trkpt lat="48.12228" lon="2.04347">
        <ele>126.5</ele>
        <time>2020-07-02T13:08:28Z</time>
      </trkpt>
      <trkpt lat="48.12222" lon="2.04344">
        <ele>126.6</ele>
        <time>2020-07-02T13:08:29Z</time>
      </trkpt>
      <trkpt lat="48.12216" lon="2.0434">
        <ele>126.5</ele>
        <time>2020-07-02T13:08:30Z</time>
      </trkpt>
      <trkpt lat="48.12209" lon="2.04337">
        <ele>126.5</ele>
        <time>2020-07-02T13:08:31Z</time>
      </trkpt>
      <trkpt lat="48.12203" lon="2.04334">
        <ele>126.5</ele>
        <time>2020-07-02T13:08:32Z</time>
      </trkpt>
      <trkpt lat="48.12197" lon="2.04331">
        <ele>126.5</ele>
        <time>2020-07-02T13:08:33Z</time>
      </trkpt>
      <trkpt lat="48.12192" lon="2.04329">
        <ele>126.5</ele>
        <time>2020-07-02T13:08:34Z</time>
      </trkpt>
      <trkpt lat="48.12186" lon="2.04326">
        <ele>126.6</ele>
        <time>2020-07-02T13:08:35Z</time>
      </trkpt>
      <trkpt lat="48.1218" lon="2.04324">
        <ele>126.6</ele>
        <time>2020-07-02T13:08:36Z</time>
      </trkpt>
      <trkpt lat="48.12174" lon="2.04322">
        <ele>126.6</ele>
        <time>2020-07-02T13:08:37Z</time>
      </trkpt>
      <trkpt lat="48.12168" lon="2.04319">
        <ele>126.7</ele>
        <time>2020-07-02T13:08:38Z</time>
      </trkpt>
      <trkpt lat="48.12162" lon="2.04316">
        <ele>126.7</ele>
        <time>2020-07-02T13:08:39Z</time>
      </trkpt>
      <trkpt lat="48.12157" lon="2.04313">
        <ele>126.8</ele>
        <time>2020-07-02T13:08:40Z</time>
      </trkpt>
      <trkpt lat="48.12151" lon="2.04311">
        <ele>126.8</ele>
        <time>2020-07-02T13:08:41Z</time>
      </trkpt>
      <trkpt lat="48.12146" lon="2.04308">
        <ele>126.7</ele>
        <time>2020-07-02T13:08:42Z</time>
      </trkpt>
      <trkpt lat="48.12139" lon="2.04304">
        <ele>126.6</ele>
        <time>2020-07-02T13:08:43Z</time>
      </trkpt>
      <trkpt lat="48.12134" lon="2.04301">
        <ele>126.5</ele>
        <time>2020-07-02T13:08:44Z</time>
      </trkpt>
      <trkpt lat="48.12129" lon="2.04299">
        <ele>126.4</ele>
        <time>2020-07-02T13:08:45Z</time>
      </trkpt>
      <trkpt lat="48.12123" lon="2.04296">
        <ele>126.3</ele>
        <time>2020-07-02T13:08:46Z</time>
      </trkpt>
      <trkpt lat="48.12118" lon="2.04294">
        <ele>126.3</ele>
        <time>2020-07-02T13:08:47Z</time>
      </trkpt>
      <trkpt lat="48.12112" lon="2.04292">
        <ele>126.3</ele>
        <time>2020-07-02T13:08:48Z</time>
      </trkpt>
      <trkpt lat="48.12108" lon="2.04289">
        <ele>126.3</ele>
        <time>2020-07-02T13:08:49Z</time>
      </trkpt>
      <trkpt lat="48.12102" lon="2.04287">
        <ele>126.3</ele>
        <time>2020-07-02T13:08:50Z</time>
      </trkpt>
      <trkpt lat="48.12097" lon="2.04284">
        <ele>126.3</ele>
        <time>2020-07-02T13:08:51Z</time>
      </trkpt>
      <trkpt lat="48.1209" lon="2.04281">
        <ele>126.3</ele>
        <time>2020-07-02T13:08:52Z</time>
      </trkpt>
      <trkpt lat="48.12084" lon="2.04279">
        <ele>126.3</ele>
        <time>2020-07-02T13:08:53Z</time>
      </trkpt>
      <trkpt lat="48.12079" lon="2.04276">
        <ele>126.3</ele>
        <time>2020-07-02T13:08:54Z</time>
      </trkpt>
      <trkpt lat="48.12073" lon="2.04273">
        <ele>126.3</ele>
        <time>2020-07-02T13:08:55Z</time>
      </trkpt>
      <trkpt lat="48.12067" lon="2.0427">
        <ele>126.3</ele>
        <time>2020-07-02T13:08:56Z</time>
      </trkpt>
      <trkpt lat="48.1206" lon="2.04267">
        <ele>126.3</ele>
        <time>2020-07-02T13:08:57Z</time>
      </trkpt>
      <trkpt lat="48.12053" lon="2.04263">
        <ele>126.3</ele>
        <time>2020-07-02T13:08:58Z</time>
      </trkpt>
      <trkpt lat="48.12047" lon="2.0426">
        <ele>126.3</ele>
        <time>2020-07-02T13:08:59Z</time>
      </trkpt>
      <trkpt lat="48.1204" lon="2.04257">
        <ele>126.4</ele>
        <time>2020-07-02T13:09:00Z</time>
      </trkpt>
      <trkpt lat="48.12034" lon="2.04253">
        <ele>126.4</ele>
        <time>2020-07-02T13:09:01Z</time>
      </trkpt>
      <trkpt lat="48.12028" lon="2.04251">
        <ele>126.5</ele>
        <time>2020-07-02T13:09:02Z</time>
      </trkpt>
      <trkpt lat="48.12021" lon="2.04248">
        <ele>126.5</ele>
        <time>2020-07-02T13:09:03Z</time>
      </trkpt>
      <trkpt lat="48.12016" lon="2.04245">
        <ele>126.5</ele>
        <time>2020-07-02T13:09:04Z</time>
      </trkpt>
      <trkpt lat="48.1201" lon="2.04242">
        <ele>126.5</ele>
        <time>2020-07-02T13:09:05Z</time>
      </trkpt>
      <trkpt lat="48.12003" lon="2.0424">
        <ele>126.6</ele>
        <time>2020-07-02T13:09:06Z</time>
      </trkpt>
      <trkpt lat="48.11997" lon="2.04237">
        <ele>126.7</ele>
        <time>2020-07-02T13:09:07Z</time>
      </trkpt>
      <trkpt lat="48.11991" lon="2.04234">
        <ele>126.8</ele>
        <time>2020-07-02T13:09:08Z</time>
      </trkpt>
      <trkpt lat="48.11985" lon="2.04232">
        <ele>127.2</ele>
        <time>2020-07-02T13:09:09Z</time>
      </trkpt>
      <trkpt lat="48.11979" lon="2.04229">
        <ele>127.2</ele>
        <time>2020-07-02T13:09:10Z</time>
      </trkpt>
      <trkpt lat="48.11973" lon="2.04226">
        <ele>127.2</ele>
        <time>2020-07-02T13:09:11Z</time>
      </trkpt>
      <trkpt lat="48.11967" lon="2.04223">
        <ele>127.2</ele>
        <time>2020-07-02T13:09:12Z</time>
      </trkpt>
      <trkpt lat="48.11961" lon="2.0422">
        <ele>127.2</ele>
        <time>2020-07-02T13:09:13Z</time>
      </trkpt>
      <trkpt lat="48.11955" lon="2.04218">
        <ele>127.2</ele>
        <time>2020-07-02T13:09:14Z</time>
      </trkpt>
      <trkpt lat="48.11949" lon="2.04216">
        <ele>127.3</ele>
        <time>2020-07-02T13:09:15Z</time>
      </trkpt>
      <trkpt lat="48.11942" lon="2.04212">
        <ele>127.3</ele>
        <time>2020-07-02T13:09:16Z</time>
      </trkpt>
      <trkpt lat="48.11936" lon="2.0421">
        <ele>127.3</ele>
        <time>2020-07-02T13:09:17Z</time>
      </trkpt>
      <trkpt lat="48.1193" lon="2.04207">
        <ele>127.3</ele>
        <time>2020-07-02T13:09:18Z</time>
      </trkpt>
      <trkpt lat="48.11924" lon="2.04204">
        <ele>127.3</ele>
        <time>2020-07-02T13:09:19Z</time>
      </trkpt>
      <trkpt lat="48.11918" lon="2.04201">
        <ele>127.3</ele>
        <time>2020-07-02T13:09:20Z</time>
      </trkpt>
      <trkpt lat="48.11912" lon="2.04198">
        <ele>127.3</ele>
        <time>2020-07-02T13:09:21Z</time>
      </trkpt>
      <trkpt lat="48.11906" lon="2.04195">
        <ele>127.3</ele>
        <time>2020-07-02T13:09:22Z</time>
      </trkpt>
      <trkpt lat="48.119" lon="2.04192">
        <ele>127.3</ele>
        <time>2020-07-02T13:09:23Z</time>
      </trkpt>
      <trkpt lat="48.11894" lon="2.04189">
        <ele>127.3</ele>
        <time>2020-07-02T13:09:24Z</time>
      </trkpt>
      <trkpt lat="48.11888" lon="2.04187">
        <ele>127.3</ele>
        <time>2020-07-02T13:09:25Z</time>
      </trkpt>
      <trkpt lat="48.11882" lon="2.04184">
        <ele>127.3</ele>
        <time>2020-07-02T13:09:26Z</time>
      </trkpt>
      <trkpt lat="48.11875" lon="2.04181">
        <ele>127.3</ele>
        <time>2020-07-02T13:09:27Z</time>
      </trkpt>
      <trkpt lat="48.11869" lon="2.04178">
        <ele>127.3</ele>
        <time>2020-07-02T13:09:28Z</time>
      </trkpt>
      <trkpt lat="48.11863" lon="2.04175">
        <ele>127.3</ele>
        <time>2020-07-02T13:09:29Z</time>
      </trkpt>
      <trkpt lat="48.11856" lon="2.04172">
        <ele>127.3</ele>
        <time>2020-07-02T13:09:30Z</time>
      </trkpt>
      <trkpt lat="48.1185" lon="2.04169">
        <ele>127.4</ele>
        <time>2020-07-02T13:09:31Z</time>
      </trkpt>
      <trkpt lat="48.11844" lon="2.04166">
        <ele>127.4</ele>
        <time>2020-07-02T13:09:32Z</time>
      </trkpt>
      <trkpt lat="48.11838" lon="2.04163">
        <ele>127.4</ele>
        <time>2020-07-02T13:09:33Z</time>
      </trkpt>
      <trkpt lat="48.11831" lon="2.0416">
        <ele>127.5</ele>
        <time>2020-07-02T13:09:34Z</time>
      </trkpt>
      <trkpt lat="48.11825" lon="2.04158">
        <ele>127.5</ele>
        <time>2020-07-02T13:09:35Z</time>
      </trkpt>
      <trkpt lat="48.11818" lon="2.04155">
        <ele>127.5</ele>
        <time>2020-07-02T13:09:36Z</time>
      </trkpt>
      <trkpt lat="48.11812" lon="2.04152">
        <ele>127.4</ele>
        <time>2020-07-02T13:09:37Z</time>
      </trkpt>
      <trkpt lat="48.11806" lon="2.04148">
        <ele>127.4</ele>
        <time>2020-07-02T13:09:38Z</time>
      </trkpt>
      <trkpt lat="48.11799" lon="2.04145">
        <ele>127.4</ele>
        <time>2020-07-02T13:09:39Z</time>
      </trkpt>
      <trkpt lat="48.11793" lon="2.04142">
        <ele>127.4</ele>
        <time>2020-07-02T13:09:40Z</time>
      </trkpt>
      <trkpt lat="48.11787" lon="2.04138">
        <ele>127.4</ele>
        <time>2020-07-02T13:09:41Z</time>
      </trkpt>
      <trkpt lat="48.11781" lon="2.04135">
        <ele>127.4</ele>
        <time>2020-07-02T13:09:42Z</time>
      </trkpt>
      <trkpt lat="48.11775" lon="2.04132">
        <ele>127.4</ele>
        <time>2020-07-02T13:09:43Z</time>
      </trkpt>
      <trkpt lat="48.11769" lon="2.04129">
        <ele>127.4</ele>
        <time>2020-07-02T13:09:44Z</time>
      </trkpt>
      <trkpt lat="48.11763" lon="2.04127">
        <ele>127.4</ele>
        <time>2020-07-02T13:09:45Z</time>
      </trkpt>
      <trkpt lat="48.11757" lon="2.04124">
        <ele>127.5</ele>
        <time>2020-07-02T13:09:46Z</time>
      </trkpt>
      <trkpt lat="48.11751" lon="2.0412">
        <ele>127.5</ele>
        <time>2020-07-02T13:09:47Z</time>
      </trkpt>
      <trkpt lat="48.11745" lon="2.04118">
        <ele>127.5</ele>
        <time>2020-07-02T13:09:48Z</time>
      </trkpt>
      <trkpt lat="48.11739" lon="2.04114">
        <ele>127.6</ele>
        <time>2020-07-02T13:09:49Z</time>
      </trkpt>
      <trkpt lat="48.11732" lon="2.04111">
        <ele>127.6</ele>
        <time>2020-07-02T13:09:50Z</time>
      </trkpt>
      <trkpt lat="48.11726" lon="2.04108">
        <ele>127.6</ele>
        <time>2020-07-02T13:09:51Z</time>
      </trkpt>
      <trkpt lat="48.1172" lon="2.04106">
        <ele>127.6</ele>
        <time>2020-07-02T13:09:52Z</time>
      </trkpt>
      <trkpt lat="48.11713" lon="2.04103">
        <ele>127.6</ele>
        <time>2020-07-02T13:09:53Z</time>
      </trkpt>
      <trkpt lat="48.11706" lon="2.04101">
        <ele>127.6</ele>
        <time>2020-07-02T13:09:54Z</time>
      </trkpt>
      <trkpt lat="48.117" lon="2.04098">
        <ele>127.6</ele>
        <time>2020-07-02T13:09:55Z</time>
      </trkpt>
      <trkpt lat="48.11694" lon="2.04095">
        <ele>127.6</ele>
        <time>2020-07-02T13:09:56Z</time>
      </trkpt>
      <trkpt lat="48.11687" lon="2.04092">
        <ele>127.6</ele>
        <time>2020-07-02T13:09:57Z</time>
      </trkpt>
      <trkpt lat="48.1168" lon="2.04089">
        <ele>127.5</ele>
        <time>2020-07-02T13:09:58Z</time>
      </trkpt>
      <trkpt lat="48.11674" lon="2.04085">
        <ele>127.5</ele>
        <time>2020-07-02T13:09:59Z</time>
      </trkpt>
      <trkpt lat="48.11667" lon="2.04082">
        <ele>127.5</ele>
        <time>2020-07-02T13:10:00Z</time>
      </trkpt>
      <trkpt lat="48.11661" lon="2.04079">
        <ele>127.5</ele>
        <time>2020-07-02T13:10:01Z</time>
      </trkpt>
      <trkpt lat="48.11654" lon="2.04075">
        <ele>127.5</ele>
        <time>2020-07-02T13:10:02Z</time>
      </trkpt>
      <trkpt lat="48.11647" lon="2.04072">
        <ele>127.5</ele>
        <time>2020-07-02T13:10:03Z</time>
      </trkpt>
      <trkpt lat="48.11641" lon="2.04069">
        <ele>127.4</ele>
        <time>2020-07-02T13:10:04Z</time>
      </trkpt>
      <trkpt lat="48.11635" lon="2.04065">
        <ele>127.4</ele>
        <time>2020-07-02T13:10:05Z</time>
      </trkpt>
      <trkpt lat="48.11628" lon="2.04062">
        <ele>127.3</ele>
        <time>2020-07-02T13:10:06Z</time>
      </trkpt>
      <trkpt lat="48.11621" lon="2.04059">
        <ele>127.3</ele>
        <time>2020-07-02T13:10:07Z</time>
      </trkpt>
      <trkpt lat="48.11615" lon="2.04056">
        <ele>127.2</ele>
        <time>2020-07-02T13:10:08Z</time>
      </trkpt>
      <trkpt lat="48.11608" lon="2.04054">
        <ele>127.1</ele>
        <time>2020-07-02T13:10:09Z</time>
      </trkpt>
      <trkpt lat="48.11602" lon="2.04051">
        <ele>127.1</ele>
        <time>2020-07-02T13:10:10Z</time>
      </trkpt>
      <trkpt lat="48.11595" lon="2.04048">
        <ele>127</ele>
        <time>2020-07-02T13:10:11Z</time>
      </trkpt>
      <trkpt lat="48.11589" lon="2.04044">
        <ele>127</ele>
        <time>2020-07-02T13:10:12Z</time>
      </trkpt>
      <trkpt lat="48.11582" lon="2.0404">
        <ele>127</ele>
        <time>2020-07-02T13:10:13Z</time>
      </trkpt>
      <trkpt lat="48.11576" lon="2.04037">
        <ele>126.9</ele>
        <time>2020-07-02T13:10:14Z</time>
      </trkpt>
      <trkpt lat="48.11569" lon="2.04034">
        <ele>126.9</ele>
        <time>2020-07-02T13:10:15Z</time>
      </trkpt>
      <trkpt lat="48.11563" lon="2.0403">
        <ele>126.9</ele>
        <time>2020-07-02T13:10:16Z</time>
      </trkpt>
      <trkpt lat="48.11557" lon="2.04026">
        <ele>126.9</ele>
        <time>2020-07-02T13:10:17Z</time>
      </trkpt>
      <trkpt lat="48.1155" lon="2.04023">
        <ele>126.8</ele>
        <time>2020-07-02T13:10:18Z</time>
      </trkpt>
      <trkpt lat="48.11544" lon="2.04019">
        <ele>126.8</ele>
        <time>2020-07-02T13:10:19Z</time>
      </trkpt>
      <trkpt lat="48.11537" lon="2.04016">
        <ele>126.7</ele>
        <time>2020-07-02T13:10:20Z</time>
      </trkpt>
      <trkpt lat="48.11531" lon="2.04013">
        <ele>126.7</ele>
        <time>2020-07-02T13:10:21Z</time>
      </trkpt>
      <trkpt lat="48.11525" lon="2.0401">
        <ele>126.7</ele>
        <time>2020-07-02T13:10:22Z</time>
      </trkpt>
      <trkpt lat="48.11518" lon="2.04007">
        <ele>126.6</ele>
        <time>2020-07-02T13:10:23Z</time>
      </trkpt>
      <trkpt lat="48.11512" lon="2.04004">
        <ele>126.6</ele>
        <time>2020-07-02T13:10:24Z</time>
      </trkpt>
      <trkpt lat="48.11506" lon="2.04001">
        <ele>126.6</ele>
        <time>2020-07-02T13:10:25Z</time>
      </trkpt>
      <trkpt lat="48.115" lon="2.03997">
        <ele>126.6</ele>
        <time>2020-07-02T13:10:26Z</time>
      </trkpt>
      <trkpt lat="48.11494" lon="2.03993">
        <ele>126.5</ele>
        <time>2020-07-02T13:10:27Z</time>
      </trkpt>
      <trkpt lat="48.11487" lon="2.0399">
        <ele>126.5</ele>
        <time>2020-07-02T13:10:28Z</time>
      </trkpt>
      <trkpt lat="48.11481" lon="2.03987">
        <ele>126.5</ele>
        <time>2020-07-02T13:10:29Z</time>
      </trkpt>
      <trkpt lat="48.11474" lon="2.03984">
        <ele>126.5</ele>
        <time>2020-07-02T13:10:30Z</time>
      </trkpt>
      <trkpt lat="48.11468" lon="2.0398">
        <ele>126.5</ele>
        <time>2020-07-02T13:10:31Z</time>
      </trkpt>
      <trkpt lat="48.11462" lon="2.03977">
        <ele>126.5</ele>
        <time>2020-07-02T13:10:32Z</time>
      </trkpt>
      <trkpt lat="48.11456" lon="2.03974">
        <ele>126.5</ele>
        <time>2020-07-02T13:10:33Z</time>
      </trkpt>
      <trkpt lat="48.1145" lon="2.0397">
        <ele>126.5</ele>
        <time>2020-07-02T13:10:34Z</time>
      </trkpt>
      <trkpt lat="48.11444" lon="2.03967">
        <ele>126.5</ele>
        <time>2020-07-02T13:10:35Z</time>
      </trkpt>
      <trkpt lat="48.11438" lon="2.03964">
        <ele>126.5</ele>
        <time>2020-07-02T13:10:36Z</time>
      </trkpt>
      <trkpt lat="48.11431" lon="2.03961">
        <ele>126.5</ele>
        <time>2020-07-02T13:10:37Z</time>
      </trkpt>
      <trkpt lat="48.11425" lon="2.03958">
        <ele>126.5</ele>
        <time>2020-07-02T13:10:38Z</time>
      </trkpt>
      <trkpt lat="48.11419" lon="2.03955">
        <ele>126.5</ele>
        <time>2020-07-02T13:10:39Z</time>
      </trkpt>
      <trkpt lat="48.11413" lon="2.03951">
        <ele>126.4</ele>
        <time>2020-07-02T13:10:40Z</time>
      </trkpt>
      <trkpt lat="48.11407" lon="2.03948">
        <ele>126.4</ele>
        <time>2020-07-02T13:10:41Z</time>
      </trkpt>
      <trkpt lat="48.114" lon="2.03945">
        <ele>126.4</ele>
        <time>2020-07-02T13:10:42Z</time>
      </trkpt>
      <trkpt lat="48.11394" lon="2.03941">
        <ele>126.4</ele>
        <time>2020-07-02T13:10:43Z</time>
      </trkpt>
      <trkpt lat="48.11387" lon="2.03938">
        <ele>126.4</ele>
        <time>2020-07-02T13:10:44Z</time>
      </trkpt>
      <trkpt lat="48.11381" lon="2.03934">
        <ele>126.4</ele>
        <time>2020-07-02T13:10:45Z</time>
      </trkpt>
      <trkpt lat="48.11374" lon="2.03931">
        <ele>126.3</ele>
        <time>2020-07-02T13:10:46Z</time>
      </trkpt>
      <trkpt lat="48.11368" lon="2.03928">
        <ele>126.3</ele>
        <time>2020-07-02T13:10:47Z</time>
      </trkpt>
      <trkpt lat="48.11362" lon="2.03924">
        <ele>126.3</ele>
        <time>2020-07-02T13:10:48Z</time>
      </trkpt>
      <trkpt lat="48.11355" lon="2.0392">
        <ele>126.3</ele>
        <time>2020-07-02T13:10:49Z</time>
      </trkpt>
      <trkpt lat="48.11348" lon="2.03917">
        <ele>126.3</ele>
        <time>2020-07-02T13:10:50Z</time>
      </trkpt>
      <trkpt lat="48.11342" lon="2.03914">
        <ele>126.2</ele>
        <time>2020-07-02T13:10:51Z</time>
      </trkpt>
      <trkpt lat="48.11336" lon="2.0391">
        <ele>126.2</ele>
        <time>2020-07-02T13:10:52Z</time>
      </trkpt>
      <trkpt lat="48.1133" lon="2.03907">
        <ele>126.1</ele>
        <time>2020-07-02T13:10:53Z</time>
      </trkpt>
      <trkpt lat="48.11324" lon="2.03903">
        <ele>126.1</ele>
        <time>2020-07-02T13:10:54Z</time>
      </trkpt>
      <trkpt lat="48.11317" lon="2.03901">
        <ele>126.1</ele>
        <time>2020-07-02T13:10:55Z</time>
      </trkpt>
      <trkpt lat="48.11311" lon="2.03897">
        <ele>126.1</ele>
        <time>2020-07-02T13:10:56Z</time>
      </trkpt>
      <trkpt lat="48.11305" lon="2.03893">
        <ele>126.1</ele>
        <time>2020-07-02T13:10:57Z</time>
      </trkpt>
      <trkpt lat="48.11298" lon="2.03889">
        <ele>126</ele>
        <time>2020-07-02T13:10:58Z</time>
      </trkpt>
      <trkpt lat="48.11292" lon="2.03886">
        <ele>126</ele>
        <time>2020-07-02T13:10:59Z</time>
      </trkpt>
      <trkpt lat="48.11285" lon="2.03883">
        <ele>126</ele>
        <time>2020-07-02T13:11:00Z</time>
      </trkpt>
      <trkpt lat="48.11278" lon="2.03881">
        <ele>126</ele>
        <time>2020-07-02T13:11:01Z</time>
      </trkpt>
      <trkpt lat="48.11272" lon="2.03877">
        <ele>126</ele>
        <time>2020-07-02T13:11:02Z</time>
      </trkpt>
      <trkpt lat="48.11266" lon="2.03873">
        <ele>125.9</ele>
        <time>2020-07-02T13:11:03Z</time>
      </trkpt>
      <trkpt lat="48.11259" lon="2.03869">
        <ele>125.9</ele>
        <time>2020-07-02T13:11:04Z</time>
      </trkpt>
      <trkpt lat="48.11253" lon="2.03865">
        <ele>125.9</ele>
        <time>2020-07-02T13:11:05Z</time>
      </trkpt>
      <trkpt lat="48.11247" lon="2.0386">
        <ele>125.9</ele>
        <time>2020-07-02T13:11:06Z</time>
      </trkpt>
      <trkpt lat="48.1124" lon="2.03857">
        <ele>125.8</ele>
        <time>2020-07-02T13:11:07Z</time>
      </trkpt>
      <trkpt lat="48.11234" lon="2.03854">
        <ele>125.8</ele>
        <time>2020-07-02T13:11:08Z</time>
      </trkpt>
      <trkpt lat="48.11227" lon="2.03852">
        <ele>125.8</ele>
        <time>2020-07-02T13:11:09Z</time>
      </trkpt>
      <trkpt lat="48.11221" lon="2.03848">
        <ele>125.8</ele>
        <time>2020-07-02T13:11:10Z</time>
      </trkpt>
      <trkpt lat="48.11214" lon="2.03845">
        <ele>125.7</ele>
        <time>2020-07-02T13:11:11Z</time>
      </trkpt>
      <trkpt lat="48.11208" lon="2.03841">
        <ele>125.7</ele>
        <time>2020-07-02T13:11:12Z</time>
      </trkpt>
      <trkpt lat="48.11201" lon="2.03838">
        <ele>125.7</ele>
        <time>2020-07-02T13:11:13Z</time>
      </trkpt>
      <trkpt lat="48.11195" lon="2.03835">
        <ele>125.6</ele>
        <time>2020-07-02T13:11:14Z</time>
      </trkpt>
      <trkpt lat="48.11188" lon="2.03832">
        <ele>125.6</ele>
        <time>2020-07-02T13:11:15Z</time>
      </trkpt>
      <trkpt lat="48.11182" lon="2.03828">
        <ele>125.6</ele>
        <time>2020-07-02T13:11:16Z</time>
      </trkpt>
      <trkpt lat="48.11175" lon="2.03825">
        <ele>125.6</ele>
        <time>2020-07-02T13:11:17Z</time>
      </trkpt>
      <trkpt lat="48.11168" lon="2.03822">
        <ele>125.6</ele>
        <time>2020-07-02T13:11:18Z</time>
      </trkpt>
      <trkpt lat="48.11162" lon="2.03819">
        <ele>125.6</ele>
        <time>2020-07-02T13:11:19Z</time>
      </trkpt>
      <trkpt lat="48.11156" lon="2.03815">
        <ele>125.7</ele>
        <time>2020-07-02T13:11:20Z</time>
      </trkpt>
      <trkpt lat="48.11149" lon="2.03812">
        <ele>125.8</ele>
        <time>2020-07-02T13:11:21Z</time>
      </trkpt>
      <trkpt lat="48.11143" lon="2.03808">
        <ele>125.9</ele>
        <time>2020-07-02T13:11:22Z</time>
      </trkpt>
      <trkpt lat="48.11136" lon="2.03804">
        <ele>125.7</ele>
        <time>2020-07-02T13:11:23Z</time>
      </trkpt>
      <trkpt lat="48.1113" lon="2.038">
        <ele>125.6</ele>
        <time>2020-07-02T13:11:24Z</time>
      </trkpt>
      <trkpt lat="48.11123" lon="2.03796">
        <ele>125.6</ele>
        <time>2020-07-02T13:11:25Z</time>
      </trkpt>
      <trkpt lat="48.11116" lon="2.03793">
        <ele>125.5</ele>
        <time>2020-07-02T13:11:26Z</time>
      </trkpt>
      <trkpt lat="48.11109" lon="2.03789">
        <ele>125.5</ele>
        <time>2020-07-02T13:11:27Z</time>
      </trkpt>
      <trkpt lat="48.11103" lon="2.03786">
        <ele>125.6</ele>
        <time>2020-07-02T13:11:28Z</time>
      </trkpt>
      <trkpt lat="48.11096" lon="2.03784">
        <ele>125.6</ele>
        <time>2020-07-02T13:11:29Z</time>
      </trkpt>
      <trkpt lat="48.1109" lon="2.03781">
        <ele>125.6</ele>
        <time>2020-07-02T13:11:30Z</time>
      </trkpt>
      <trkpt lat="48.11084" lon="2.03778">
        <ele>125.6</ele>
        <time>2020-07-02T13:11:31Z</time>
      </trkpt>
      <trkpt lat="48.11078" lon="2.03774">
        <ele>125.5</ele>
        <time>2020-07-02T13:11:32Z</time>
      </trkpt>
      <trkpt lat="48.11071" lon="2.03771">
        <ele>125.4</ele>
        <time>2020-07-02T13:11:33Z</time>
      </trkpt>
      <trkpt lat="48.11065" lon="2.03767">
        <ele>125.2</ele>
        <time>2020-07-02T13:11:34Z</time>
      </trkpt>
      <trkpt lat="48.11059" lon="2.03764">
        <ele>125.1</ele>
        <time>2020-07-02T13:11:35Z</time>
      </trkpt>
      <trkpt lat="48.11052" lon="2.03761">
        <ele>125</ele>
        <time>2020-07-02T13:11:36Z</time>
      </trkpt>
      <trkpt lat="48.11046" lon="2.03756">
        <ele>124.9</ele>
        <time>2020-07-02T13:11:37Z</time>
      </trkpt>
      <trkpt lat="48.11039" lon="2.03752">
        <ele>124.9</ele>
        <time>2020-07-02T13:11:38Z</time>
      </trkpt>
      <trkpt lat="48.11033" lon="2.03749">
        <ele>124.8</ele>
        <time>2020-07-02T13:11:39Z</time>
      </trkpt>
      <trkpt lat="48.11026" lon="2.03745">
        <ele>124.8</ele>
        <time>2020-07-02T13:11:40Z</time>
      </trkpt>
      <trkpt lat="48.11019" lon="2.03741">
        <ele>124.8</ele>
        <time>2020-07-02T13:11:41Z</time>
      </trkpt>
      <trkpt lat="48.11013" lon="2.03738">
        <ele>124.7</ele>
        <time>2020-07-02T13:11:42Z</time>
      </trkpt>
      <trkpt lat="48.11006" lon="2.03734">
        <ele>124.6</ele>
        <time>2020-07-02T13:11:43Z</time>
      </trkpt>
      <trkpt lat="48.10999" lon="2.0373">
        <ele>124.6</ele>
        <time>2020-07-02T13:11:44Z</time>
      </trkpt>
      <trkpt lat="48.10993" lon="2.03725">
        <ele>124.5</ele>
        <time>2020-07-02T13:11:45Z</time>
      </trkpt>
      <trkpt lat="48.10986" lon="2.03722">
        <ele>124.5</ele>
        <time>2020-07-02T13:11:46Z</time>
      </trkpt>
      <trkpt lat="48.1098" lon="2.03718">
        <ele>124.5</ele>
        <time>2020-07-02T13:11:47Z</time>
      </trkpt>
      <trkpt lat="48.10973" lon="2.03715">
        <ele>124.4</ele>
        <time>2020-07-02T13:11:48Z</time>
      </trkpt>
      <trkpt lat="48.10966" lon="2.03711">
        <ele>124.4</ele>
        <time>2020-07-02T13:11:49Z</time>
      </trkpt>
      <trkpt lat="48.1096" lon="2.03707">
        <ele>124.4</ele>
        <time>2020-07-02T13:11:50Z</time>
      </trkpt>
      <trkpt lat="48.10953" lon="2.03703">
        <ele>124.3</ele>
        <time>2020-07-02T13:11:51Z</time>
      </trkpt>
      <trkpt lat="48.10947" lon="2.037">
        <ele>124.3</ele>
        <time>2020-07-02T13:11:52Z</time>
      </trkpt>
      <trkpt lat="48.1094" lon="2.03697">
        <ele>124.3</ele>
        <time>2020-07-02T13:11:53Z</time>
      </trkpt>
      <trkpt lat="48.10933" lon="2.03694">
        <ele>124.3</ele>
        <time>2020-07-02T13:11:54Z</time>
      </trkpt>
      <trkpt lat="48.10926" lon="2.0369">
        <ele>124.3</ele>
        <time>2020-07-02T13:11:55Z</time>
      </trkpt>
      <trkpt lat="48.10919" lon="2.03687">
        <ele>124.4</ele>
        <time>2020-07-02T13:11:56Z</time>
      </trkpt>
      <trkpt lat="48.10913" lon="2.03683">
        <ele>124.4</ele>
        <time>2020-07-02T13:11:57Z</time>
      </trkpt>
      <trkpt lat="48.10906" lon="2.0368">
        <ele>124.5</ele>
        <time>2020-07-02T13:11:58Z</time>
      </trkpt>
      <trkpt lat="48.10899" lon="2.03676">
        <ele>124.5</ele>
        <time>2020-07-02T13:11:59Z</time>
      </trkpt>
      <trkpt lat="48.10893" lon="2.03672">
        <ele>124.6</ele>
        <time>2020-07-02T13:12:00Z</time>
      </trkpt>
      <trkpt lat="48.10887" lon="2.03669">
        <ele>124.5</ele>
        <time>2020-07-02T13:12:01Z</time>
      </trkpt>
      <trkpt lat="48.1088" lon="2.03665">
        <ele>124.3</ele>
        <time>2020-07-02T13:12:02Z</time>
      </trkpt>
      <trkpt lat="48.10874" lon="2.03661">
        <ele>124.2</ele>
        <time>2020-07-02T13:12:03Z</time>
      </trkpt>
      <trkpt lat="48.10868" lon="2.03657">
        <ele>124.2</ele>
        <time>2020-07-02T13:12:04Z</time>
      </trkpt>
      <trkpt lat="48.10861" lon="2.03654">
        <ele>124.1</ele>
        <time>2020-07-02T13:12:05Z</time>
      </trkpt>
      <trkpt lat="48.10855" lon="2.0365">
        <ele>124.1</ele>
        <time>2020-07-02T13:12:06Z</time>
      </trkpt>
      <trkpt lat="48.10849" lon="2.03646">
        <ele>124.1</ele>
        <time>2020-07-02T13:12:07Z</time>
      </trkpt>
      <trkpt lat="48.10842" lon="2.03642">
        <ele>124</ele>
        <time>2020-07-02T13:12:08Z</time>
      </trkpt>
      <trkpt lat="48.10836" lon="2.03639">
        <ele>124</ele>
        <time>2020-07-02T13:12:09Z</time>
      </trkpt>
      <trkpt lat="48.1083" lon="2.03635">
        <ele>124</ele>
        <time>2020-07-02T13:12:10Z</time>
      </trkpt>
      <trkpt lat="48.10823" lon="2.03632">
        <ele>124</ele>
        <time>2020-07-02T13:12:11Z</time>
      </trkpt>
      <trkpt lat="48.10816" lon="2.03628">
        <ele>123.9</ele>
        <time>2020-07-02T13:12:12Z</time>
      </trkpt>
      <trkpt lat="48.1081" lon="2.03624">
        <ele>123.9</ele>
        <time>2020-07-02T13:12:13Z</time>
      </trkpt>
      <trkpt lat="48.10803" lon="2.03621">
        <ele>123.8</ele>
        <time>2020-07-02T13:12:14Z</time>
      </trkpt>
      <trkpt lat="48.10796" lon="2.03617">
        <ele>123.7</ele>
        <time>2020-07-02T13:12:15Z</time>
      </trkpt>
      <trkpt lat="48.10789" lon="2.03613">
        <ele>123.7</ele>
        <time>2020-07-02T13:12:16Z</time>
      </trkpt>
      <trkpt lat="48.10782" lon="2.03609">
        <ele>123.6</ele>
        <time>2020-07-02T13:12:17Z</time>
      </trkpt>
      <trkpt lat="48.10775" lon="2.03605">
        <ele>123.5</ele>
        <time>2020-07-02T13:12:18Z</time>
      </trkpt>
      <trkpt lat="48.10768" lon="2.03602">
        <ele>123.5</ele>
        <time>2020-07-02T13:12:19Z</time>
      </trkpt>
      <trkpt lat="48.10761" lon="2.03598">
        <ele>123.4</ele>
        <time>2020-07-02T13:12:20Z</time>
      </trkpt>
      <trkpt lat="48.10755" lon="2.03594">
        <ele>123.4</ele>
        <time>2020-07-02T13:12:21Z</time>
      </trkpt>
      <trkpt lat="48.10748" lon="2.0359">
        <ele>123.4</ele>
        <time>2020-07-02T13:12:22Z</time>
      </trkpt>
      <trkpt lat="48.10741" lon="2.03586">
        <ele>123.4</ele>
        <time>2020-07-02T13:12:23Z</time>
      </trkpt>
      <trkpt lat="48.10734" lon="2.03582">
        <ele>123.3</ele>
        <time>2020-07-02T13:12:24Z</time>
      </trkpt>
      <trkpt lat="48.10728" lon="2.03578">
        <ele>123.3</ele>
        <time>2020-07-02T13:12:25Z</time>
      </trkpt>
      <trkpt lat="48.10721" lon="2.03574">
        <ele>123.3</ele>
        <time>2020-07-02T13:12:26Z</time>
      </trkpt>
      <trkpt lat="48.10714" lon="2.03571">
        <ele>123.3</ele>
        <time>2020-07-02T13:12:27Z</time>
      </trkpt>
      <trkpt lat="48.10707" lon="2.03567">
        <ele>123.3</ele>
        <time>2020-07-02T13:12:28Z</time>
      </trkpt>
      <trkpt lat="48.107" lon="2.03563">
        <ele>123.2</ele>
        <time>2020-07-02T13:12:29Z</time>
      </trkpt>
      <trkpt lat="48.10694" lon="2.03559">
        <ele>123.1</ele>
        <time>2020-07-02T13:12:30Z</time>
      </trkpt>
      <trkpt lat="48.10687" lon="2.03555">
        <ele>123.1</ele>
        <time>2020-07-02T13:12:31Z</time>
      </trkpt>
      <trkpt lat="48.1068" lon="2.03553">
        <ele>123</ele>
        <time>2020-07-02T13:12:32Z</time>
      </trkpt>
      <trkpt lat="48.10673" lon="2.03549">
        <ele>122.9</ele>
        <time>2020-07-02T13:12:33Z</time>
      </trkpt>
      <trkpt lat="48.10667" lon="2.03545">
        <ele>122.9</ele>
        <time>2020-07-02T13:12:34Z</time>
      </trkpt>
      <trkpt lat="48.1066" lon="2.03542">
        <ele>122.8</ele>
        <time>2020-07-02T13:12:35Z</time>
      </trkpt>
      <trkpt lat="48.10653" lon="2.03538">
        <ele>122.8</ele>
        <time>2020-07-02T13:12:36Z</time>
      </trkpt>
      <trkpt lat="48.10647" lon="2.03534">
        <ele>122.8</ele>
        <time>2020-07-02T13:12:37Z</time>
      </trkpt>
      <trkpt lat="48.1064" lon="2.03531">
        <ele>122.8</ele>
        <time>2020-07-02T13:12:38Z</time>
      </trkpt>
      <trkpt lat="48.10634" lon="2.03528">
        <ele>122.8</ele>
        <time>2020-07-02T13:12:39Z</time>
      </trkpt>
      <trkpt lat="48.10628" lon="2.03524">
        <ele>122.8</ele>
        <time>2020-07-02T13:12:40Z</time>
      </trkpt>
      <trkpt lat="48.10621" lon="2.03521">
        <ele>122.8</ele>
        <time>2020-07-02T13:12:41Z</time>
      </trkpt>
      <trkpt lat="48.10615" lon="2.03518">
        <ele>122.9</ele>
        <time>2020-07-02T13:12:42Z</time>
      </trkpt>
      <trkpt lat="48.10608" lon="2.03514">
        <ele>122.9</ele>
        <time>2020-07-02T13:12:43Z</time>
      </trkpt>
      <trkpt lat="48.10602" lon="2.03511">
        <ele>122.9</ele>
        <time>2020-07-02T13:12:44Z</time>
      </trkpt>
      <trkpt lat="48.10596" lon="2.03508">
        <ele>123</ele>
        <time>2020-07-02T13:12:45Z</time>
      </trkpt>
      <trkpt lat="48.1059" lon="2.03504">
        <ele>123.1</ele>
        <time>2020-07-02T13:12:46Z</time>
      </trkpt>
      <trkpt lat="48.10584" lon="2.03501">
        <ele>123.1</ele>
        <time>2020-07-02T13:12:47Z</time>
      </trkpt>
      <trkpt lat="48.10577" lon="2.03498">
        <ele>123.2</ele>
        <time>2020-07-02T13:12:48Z</time>
      </trkpt>
      <trkpt lat="48.10571" lon="2.03495">
        <ele>123.2</ele>
        <time>2020-07-02T13:12:49Z</time>
      </trkpt>
      <trkpt lat="48.10565" lon="2.03492">
        <ele>123.2</ele>
        <time>2020-07-02T13:12:50Z</time>
      </trkpt>
      <trkpt lat="48.10559" lon="2.03489">
        <ele>123.2</ele>
        <time>2020-07-02T13:12:51Z</time>
      </trkpt>
      <trkpt lat="48.10553" lon="2.03486">
        <ele>123.2</ele>
        <time>2020-07-02T13:12:52Z</time>
      </trkpt>
      <trkpt lat="48.10547" lon="2.03483">
        <ele>123.2</ele>
        <time>2020-07-02T13:12:53Z</time>
      </trkpt>
      <trkpt lat="48.10541" lon="2.0348">
        <ele>123.2</ele>
        <time>2020-07-02T13:12:54Z</time>
      </trkpt>
      <trkpt lat="48.10535" lon="2.03477">
        <ele>123.2</ele>
        <time>2020-07-02T13:12:55Z</time>
      </trkpt>
      <trkpt lat="48.10529" lon="2.03474">
        <ele>123.2</ele>
        <time>2020-07-02T13:12:56Z</time>
      </trkpt>
      <trkpt lat="48.10523" lon="2.0347">
        <ele>123.3</ele>
        <time>2020-07-02T13:12:57Z</time>
      </trkpt>
      <trkpt lat="48.10517" lon="2.03468">
        <ele>123.3</ele>
        <time>2020-07-02T13:12:58Z</time>
      </trkpt>
      <trkpt lat="48.10511" lon="2.03465">
        <ele>123.3</ele>
        <time>2020-07-02T13:12:59Z</time>
      </trkpt>
      <trkpt lat="48.10505" lon="2.03462">
        <ele>123.3</ele>
        <time>2020-07-02T13:13:00Z</time>
      </trkpt>
      <trkpt lat="48.10499" lon="2.03459">
        <ele>123.3</ele>
        <time>2020-07-02T13:13:01Z</time>
      </trkpt>
      <trkpt lat="48.10493" lon="2.03455">
        <ele>123.3</ele>
        <time>2020-07-02T13:13:02Z</time>
      </trkpt>
      <trkpt lat="48.10487" lon="2.03453">
        <ele>123.3</ele>
        <time>2020-07-02T13:13:03Z</time>
      </trkpt>
      <trkpt lat="48.10481" lon="2.03451">
        <ele>123.3</ele>
        <time>2020-07-02T13:13:04Z</time>
      </trkpt>
      <trkpt lat="48.10475" lon="2.03448">
        <ele>123.4</ele>
        <time>2020-07-02T13:13:05Z</time>
      </trkpt>
      <trkpt lat="48.10469" lon="2.03445">
        <ele>123.4</ele>
        <time>2020-07-02T13:13:06Z</time>
      </trkpt>
      <trkpt lat="48.10463" lon="2.03443">
        <ele>123.4</ele>
        <time>2020-07-02T13:13:07Z</time>
      </trkpt>
      <trkpt lat="48.10458" lon="2.03441">
        <ele>123.5</ele>
        <time>2020-07-02T13:13:08Z</time>
      </trkpt>
      <trkpt lat="48.10451" lon="2.03438">
        <ele>123.5</ele>
        <time>2020-07-02T13:13:09Z</time>
      </trkpt>
      <trkpt lat="48.10445" lon="2.03436">
        <ele>123.5</ele>
        <time>2020-07-02T13:13:10Z</time>
      </trkpt>
      <trkpt lat="48.10439" lon="2.03434">
        <ele>123.6</ele>
        <time>2020-07-02T13:13:11Z</time>
      </trkpt>
      <trkpt lat="48.10434" lon="2.03432">
        <ele>123.6</ele>
        <time>2020-07-02T13:13:12Z</time>
      </trkpt>
      <trkpt lat="48.10426" lon="2.03427">
        <ele>123.7</ele>
        <time>2020-07-02T13:13:13Z</time>
      </trkpt>
      <trkpt lat="48.1042" lon="2.03425">
        <ele>123.7</ele>
        <time>2020-07-02T13:13:14Z</time>
      </trkpt>
      <trkpt lat="48.10414" lon="2.03422">
        <ele>123.7</ele>
        <time>2020-07-02T13:13:15Z</time>
      </trkpt>
      <trkpt lat="48.10408" lon="2.03419">
        <ele>123.7</ele>
        <time>2020-07-02T13:13:16Z</time>
      </trkpt>
      <trkpt lat="48.10401" lon="2.03416">
        <ele>123.7</ele>
        <time>2020-07-02T13:13:17Z</time>
      </trkpt>
      <trkpt lat="48.10395" lon="2.03414">
        <ele>123.7</ele>
        <time>2020-07-02T13:13:18Z</time>
      </trkpt>
      <trkpt lat="48.1039" lon="2.03412">
        <ele>123.8</ele>
        <time>2020-07-02T13:13:19Z</time>
      </trkpt>
      <trkpt lat="48.10385" lon="2.0341">
        <ele>123.8</ele>
        <time>2020-07-02T13:13:20Z</time>
      </trkpt>
      <trkpt lat="48.10379" lon="2.03408">
        <ele>123.8</ele>
        <time>2020-07-02T13:13:21Z</time>
      </trkpt>
      <trkpt lat="48.10373" lon="2.03405">
        <ele>123.8</ele>
        <time>2020-07-02T13:13:22Z</time>
      </trkpt>
      <trkpt lat="48.10366" lon="2.03403">
        <ele>123.8</ele>
        <time>2020-07-02T13:13:23Z</time>
      </trkpt>
      <trkpt lat="48.1036" lon="2.034">
        <ele>123.8</ele>
        <time>2020-07-02T13:13:24Z</time>
      </trkpt>
      <trkpt lat="48.10354" lon="2.03398">
        <ele>123.8</ele>
        <time>2020-07-02T13:13:25Z</time>
      </trkpt>
      <trkpt lat="48.10349" lon="2.03396">
        <ele>123.8</ele>
        <time>2020-07-02T13:13:26Z</time>
      </trkpt>
      <trkpt lat="48.10343" lon="2.03393">
        <ele>123.9</ele>
        <time>2020-07-02T13:13:27Z</time>
      </trkpt>
      <trkpt lat="48.10336" lon="2.03391">
        <ele>123.9</ele>
        <time>2020-07-02T13:13:28Z</time>
      </trkpt>
      <trkpt lat="48.1033" lon="2.03388">
        <ele>124</ele>
        <time>2020-07-02T13:13:29Z</time>
      </trkpt>
      <trkpt lat="48.10324" lon="2.03386">
        <ele>124</ele>
        <time>2020-07-02T13:13:30Z</time>
      </trkpt>
      <trkpt lat="48.10319" lon="2.03384">
        <ele>124.1</ele>
        <time>2020-07-02T13:13:31Z</time>
      </trkpt>
      <trkpt lat="48.10312" lon="2.03382">
        <ele>124.1</ele>
        <time>2020-07-02T13:13:32Z</time>
      </trkpt>
      <trkpt lat="48.10305" lon="2.03378">
        <ele>124.1</ele>
        <time>2020-07-02T13:13:33Z</time>
      </trkpt>
      <trkpt lat="48.10298" lon="2.03375">
        <ele>124.2</ele>
        <time>2020-07-02T13:13:34Z</time>
      </trkpt>
      <trkpt lat="48.10293" lon="2.03373">
        <ele>124.2</ele>
        <time>2020-07-02T13:13:35Z</time>
      </trkpt>
      <trkpt lat="48.10287" lon="2.03371">
        <ele>124.3</ele>
        <time>2020-07-02T13:13:36Z</time>
      </trkpt>
      <trkpt lat="48.10282" lon="2.03369">
        <ele>124.3</ele>
        <time>2020-07-02T13:13:37Z</time>
      </trkpt>
      <trkpt lat="48.10276" lon="2.03367">
        <ele>124.4</ele>
        <time>2020-07-02T13:13:38Z</time>
      </trkpt>
      <trkpt lat="48.1027" lon="2.03364">
        <ele>124.4</ele>
        <time>2020-07-02T13:13:39Z</time>
      </trkpt>
      <trkpt lat="48.10264" lon="2.03362">
        <ele>124.5</ele>
        <time>2020-07-02T13:13:40Z</time>
      </trkpt>
      <trkpt lat="48.10259" lon="2.03359">
        <ele>124.5</ele>
        <time>2020-07-02T13:13:41Z</time>
      </trkpt>
      <trkpt lat="48.10253" lon="2.03356">
        <ele>124.5</ele>
        <time>2020-07-02T13:13:42Z</time>
      </trkpt>
      <trkpt lat="48.10246" lon="2.03353">
        <ele>124.6</ele>
        <time>2020-07-02T13:13:43Z</time>
      </trkpt>
      <trkpt lat="48.1024" lon="2.0335">
        <ele>124.6</ele>
        <time>2020-07-02T13:13:44Z</time>
      </trkpt>
      <trkpt lat="48.10233" lon="2.03347">
        <ele>124.7</ele>
        <time>2020-07-02T13:13:45Z</time>
      </trkpt>
      <trkpt lat="48.10226" lon="2.03344">
        <ele>124.7</ele>
        <time>2020-07-02T13:13:46Z</time>
      </trkpt>
      <trkpt lat="48.1022" lon="2.03342">
        <ele>124.7</ele>
        <time>2020-07-02T13:13:47Z</time>
      </trkpt>
      <trkpt lat="48.10213" lon="2.0334">
        <ele>124.7</ele>
        <time>2020-07-02T13:13:48Z</time>
      </trkpt>
      <trkpt lat="48.10207" lon="2.03337">
        <ele>124.7</ele>
        <time>2020-07-02T13:13:49Z</time>
      </trkpt>
      <trkpt lat="48.10201" lon="2.03334">
        <ele>124.8</ele>
        <time>2020-07-02T13:13:50Z</time>
      </trkpt>
      <trkpt lat="48.10195" lon="2.03332">
        <ele>124.8</ele>
        <time>2020-07-02T13:13:51Z</time>
      </trkpt>
      <trkpt lat="48.10189" lon="2.0333">
        <ele>124.8</ele>
        <time>2020-07-02T13:13:52Z</time>
      </trkpt>
      <trkpt lat="48.10182" lon="2.03326">
        <ele>124.9</ele>
        <time>2020-07-02T13:13:53Z</time>
      </trkpt>
      <trkpt lat="48.10177" lon="2.03323">
        <ele>125</ele>
        <time>2020-07-02T13:13:54Z</time>
      </trkpt>
      <trkpt lat="48.1017" lon="2.0332">
        <ele>125</ele>
        <time>2020-07-02T13:13:55Z</time>
      </trkpt>
      <trkpt lat="48.10164" lon="2.03317">
        <ele>125</ele>
        <time>2020-07-02T13:13:56Z</time>
      </trkpt>
      <trkpt lat="48.10158" lon="2.03315">
        <ele>125.1</ele>
        <time>2020-07-02T13:13:57Z</time>
      </trkpt>
      <trkpt lat="48.10152" lon="2.03312">
        <ele>125.1</ele>
        <time>2020-07-02T13:13:58Z</time>
      </trkpt>
      <trkpt lat="48.10146" lon="2.03309">
        <ele>125.1</ele>
        <time>2020-07-02T13:13:59Z</time>
      </trkpt>
      <trkpt lat="48.1014" lon="2.03306">
        <ele>125.1</ele>
        <time>2020-07-02T13:14:00Z</time>
      </trkpt>
      <trkpt lat="48.10134" lon="2.03303">
        <ele>125.2</ele>
        <time>2020-07-02T13:14:01Z</time>
      </trkpt>
      <trkpt lat="48.10128" lon="2.03301">
        <ele>125.2</ele>
        <time>2020-07-02T13:14:02Z</time>
      </trkpt>
      <trkpt lat="48.10122" lon="2.03298">
        <ele>125.3</ele>
        <time>2020-07-02T13:14:03Z</time>
      </trkpt>
      <trkpt lat="48.10116" lon="2.03295">
        <ele>125.4</ele>
        <time>2020-07-02T13:14:04Z</time>
      </trkpt>
      <trkpt lat="48.1011" lon="2.03292">
        <ele>125.4</ele>
        <time>2020-07-02T13:14:05Z</time>
      </trkpt>
      <trkpt lat="48.10104" lon="2.0329">
        <ele>125.5</ele>
        <time>2020-07-02T13:14:06Z</time>
      </trkpt>
      <trkpt lat="48.10098" lon="2.03287">
        <ele>125.6</ele>
        <time>2020-07-02T13:14:07Z</time>
      </trkpt>
      <trkpt lat="48.10093" lon="2.03284">
        <ele>125.7</ele>
        <time>2020-07-02T13:14:08Z</time>
      </trkpt>
      <trkpt lat="48.10088" lon="2.03282">
        <ele>125.8</ele>
        <time>2020-07-02T13:14:09Z</time>
      </trkpt>
      <trkpt lat="48.10082" lon="2.03278">
        <ele>126</ele>
        <time>2020-07-02T13:14:10Z</time>
      </trkpt>
      <trkpt lat="48.10076" lon="2.03276">
        <ele>126.1</ele>
        <time>2020-07-02T13:14:11Z</time>
      </trkpt>
      <trkpt lat="48.1007" lon="2.03272">
        <ele>126.2</ele>
        <time>2020-07-02T13:14:12Z</time>
      </trkpt>
      <trkpt lat="48.10064" lon="2.03269">
        <ele>126.3</ele>
        <time>2020-07-02T13:14:13Z</time>
      </trkpt>
      <trkpt lat="48.10059" lon="2.03265">
        <ele>126.2</ele>
        <time>2020-07-02T13:14:14Z</time>
      </trkpt>
      <trkpt lat="48.10055" lon="2.03263">
        <ele>126.3</ele>
        <time>2020-07-02T13:14:15Z</time>
      </trkpt>
      <trkpt lat="48.1005" lon="2.03259">
        <ele>126.3</ele>
        <time>2020-07-02T13:14:16Z</time>
      </trkpt>
      <trkpt lat="48.10045" lon="2.03255">
        <ele>126.4</ele>
        <time>2020-07-02T13:14:17Z</time>
      </trkpt>
      <trkpt lat="48.10041" lon="2.03252">
        <ele>126.5</ele>
        <time>2020-07-02T13:14:18Z</time>
      </trkpt>
      <trkpt lat="48.10037" lon="2.03248">
        <ele>126.6</ele>
        <time>2020-07-02T13:14:19Z</time>
      </trkpt>
      <trkpt lat="48.10033" lon="2.03244">
        <ele>126.6</ele>
        <time>2020-07-02T13:14:20Z</time>
      </trkpt>
      <trkpt lat="48.10027" lon="2.03239">
        <ele>126.8</ele>
        <time>2020-07-02T13:14:21Z</time>
      </trkpt>
      <trkpt lat="48.10022" lon="2.03235">
        <ele>126.9</ele>
        <time>2020-07-02T13:14:22Z</time>
      </trkpt>
      <trkpt lat="48.10017" lon="2.0323">
        <ele>127</ele>
        <time>2020-07-02T13:14:23Z</time>
      </trkpt>
      <trkpt lat="48.10012" lon="2.03225">
        <ele>127.2</ele>
        <time>2020-07-02T13:14:24Z</time>
      </trkpt>
      <trkpt lat="48.10007" lon="2.03221">
        <ele>127.3</ele>
        <time>2020-07-02T13:14:25Z</time>
      </trkpt>
      <trkpt lat="48.10003" lon="2.03218">
        <ele>127.4</ele>
        <time>2020-07-02T13:14:26Z</time>
      </trkpt>
      <trkpt lat="48.09999" lon="2.03213">
        <ele>127.5</ele>
        <time>2020-07-02T13:14:27Z</time>
      </trkpt>
      <trkpt lat="48.09994" lon="2.03209">
        <ele>127.7</ele>
        <time>2020-07-02T13:14:28Z</time>
      </trkpt>
      <trkpt lat="48.0999" lon="2.03204">
        <ele>127.8</ele>
        <time>2020-07-02T13:14:29Z</time>
      </trkpt>
      <trkpt lat="48.09986" lon="2.032">
        <ele>127.9</ele>
        <time>2020-07-02T13:14:30Z</time>
      </trkpt>
      <trkpt lat="48.09982" lon="2.03196">
        <ele>128.1</ele>
        <time>2020-07-02T13:14:31Z</time>
      </trkpt>
      <trkpt lat="48.09977" lon="2.0319">
        <ele>128.2</ele>
        <time>2020-07-02T13:14:32Z</time>
      </trkpt>
      <trkpt lat="48.09972" lon="2.03185">
        <ele>128.4</ele>
        <time>2020-07-02T13:14:33Z</time>
      </trkpt>
      <trkpt lat="48.09968" lon="2.03181">
        <ele>128.5</ele>
        <time>2020-07-02T13:14:34Z</time>
      </trkpt>
      <trkpt lat="48.09964" lon="2.03177">
        <ele>128.6</ele>
        <time>2020-07-02T13:14:35Z</time>
      </trkpt>
      <trkpt lat="48.09959" lon="2.03173">
        <ele>128.8</ele>
        <time>2020-07-02T13:14:36Z</time>
      </trkpt>
      <trkpt lat="48.09954" lon="2.0317">
        <ele>128.9</ele>
        <time>2020-07-02T13:14:37Z</time>
      </trkpt>
      <trkpt lat="48.0995" lon="2.03166">
        <ele>129</ele>
        <time>2020-07-02T13:14:38Z</time>
      </trkpt>
      <trkpt lat="48.09945" lon="2.03164">
        <ele>129.2</ele>
        <time>2020-07-02T13:14:39Z</time>
      </trkpt>
      <trkpt lat="48.0994" lon="2.03161">
        <ele>129.3</ele>
        <time>2020-07-02T13:14:40Z</time>
      </trkpt>
      <trkpt lat="48.09935" lon="2.03159">
        <ele>129.4</ele>
        <time>2020-07-02T13:14:41Z</time>
      </trkpt>
      <trkpt lat="48.0993" lon="2.03156">
        <ele>129.5</ele>
        <time>2020-07-02T13:14:42Z</time>
      </trkpt>
      <trkpt lat="48.09926" lon="2.03154">
        <ele>129.6</ele>
        <time>2020-07-02T13:14:43Z</time>
      </trkpt>
      <trkpt lat="48.09921" lon="2.03152">
        <ele>129.8</ele>
        <time>2020-07-02T13:14:44Z</time>
      </trkpt>
      <trkpt lat="48.09916" lon="2.0315">
        <ele>129.9</ele>
        <time>2020-07-02T13:14:45Z</time>
      </trkpt>
      <trkpt lat="48.09911" lon="2.03148">
        <ele>130</ele>
        <time>2020-07-02T13:14:46Z</time>
      </trkpt>
      <trkpt lat="48.09906" lon="2.03147">
        <ele>130.1</ele>
        <time>2020-07-02T13:14:47Z</time>
      </trkpt>
      <trkpt lat="48.099" lon="2.03145">
        <ele>130.1</ele>
        <time>2020-07-02T13:14:48Z</time>
      </trkpt>
      <trkpt lat="48.09896" lon="2.03143">
        <ele>130.2</ele>
        <time>2020-07-02T13:14:49Z</time>
      </trkpt>
      <trkpt lat="48.09892" lon="2.03141">
        <ele>130.3</ele>
        <time>2020-07-02T13:14:50Z</time>
      </trkpt>
      <trkpt lat="48.09887" lon="2.03139">
        <ele>130.3</ele>
        <time>2020-07-02T13:14:51Z</time>
      </trkpt>
      <trkpt lat="48.09881" lon="2.03138">
        <ele>130.4</ele>
        <time>2020-07-02T13:14:52Z</time>
      </trkpt>
      <trkpt lat="48.09876" lon="2.03136">
        <ele>130.5</ele>
        <time>2020-07-02T13:14:53Z</time>
      </trkpt>
      <trkpt lat="48.09872" lon="2.03135">
        <ele>130.5</ele>
        <time>2020-07-02T13:14:54Z</time>
      </trkpt>
      <trkpt lat="48.09868" lon="2.03135">
        <ele>130.5</ele>
        <time>2020-07-02T13:14:55Z</time>
      </trkpt>
      <trkpt lat="48.09862" lon="2.03132">
        <ele>130.6</ele>
        <time>2020-07-02T13:14:56Z</time>
      </trkpt>
      <trkpt lat="48.09857" lon="2.0313">
        <ele>130.6</ele>
        <time>2020-07-02T13:14:57Z</time>
      </trkpt>
      <trkpt lat="48.09852" lon="2.03129">
        <ele>130.5</ele>
        <time>2020-07-02T13:14:58Z</time>
      </trkpt>
      <trkpt lat="48.09848" lon="2.03127">
        <ele>130.5</ele>
        <time>2020-07-02T13:14:59Z</time>
      </trkpt>
      <trkpt lat="48.09843" lon="2.03126">
        <ele>130.5</ele>
        <time>2020-07-02T13:15:00Z</time>
      </trkpt>
      <trkpt lat="48.09838" lon="2.03124">
        <ele>130.4</ele>
        <time>2020-07-02T13:15:01Z</time>
      </trkpt>
      <trkpt lat="48.09834" lon="2.03121">
        <ele>130.4</ele>
        <time>2020-07-02T13:15:02Z</time>
      </trkpt>
      <trkpt lat="48.09828" lon="2.03119">
        <ele>130.3</ele>
        <time>2020-07-02T13:15:03Z</time>
      </trkpt>
      <trkpt lat="48.09823" lon="2.03117">
        <ele>130.2</ele>
        <time>2020-07-02T13:15:04Z</time>
      </trkpt>
      <trkpt lat="48.09818" lon="2.03116">
        <ele>130.1</ele>
        <time>2020-07-02T13:15:05Z</time>
      </trkpt>
      <trkpt lat="48.09813" lon="2.03114">
        <ele>130</ele>
        <time>2020-07-02T13:15:06Z</time>
      </trkpt>
      <trkpt lat="48.09807" lon="2.03112">
        <ele>129.9</ele>
        <time>2020-07-02T13:15:07Z</time>
      </trkpt>
      <trkpt lat="48.09802" lon="2.0311">
        <ele>129.8</ele>
        <time>2020-07-02T13:15:08Z</time>
      </trkpt>
      <trkpt lat="48.09795" lon="2.03108">
        <ele>129.7</ele>
        <time>2020-07-02T13:15:09Z</time>
      </trkpt>
      <trkpt lat="48.09789" lon="2.03107">
        <ele>129.6</ele>
        <time>2020-07-02T13:15:10Z</time>
      </trkpt>
      <trkpt lat="48.09782" lon="2.03105">
        <ele>129.4</ele>
        <time>2020-07-02T13:15:11Z</time>
      </trkpt>
      <trkpt lat="48.09775" lon="2.03103">
        <ele>129.2</ele>
        <time>2020-07-02T13:15:12Z</time>
      </trkpt>
      <trkpt lat="48.09768" lon="2.03101">
        <ele>129.1</ele>
        <time>2020-07-02T13:15:13Z</time>
      </trkpt>
      <trkpt lat="48.09762" lon="2.03098">
        <ele>128.9</ele>
        <time>2020-07-02T13:15:14Z</time>
      </trkpt>
      <trkpt lat="48.09755" lon="2.03096">
        <ele>128.7</ele>
        <time>2020-07-02T13:15:15Z</time>
      </trkpt>
      <trkpt lat="48.09747" lon="2.03093">
        <ele>128.5</ele>
        <time>2020-07-02T13:15:16Z</time>
      </trkpt>
      <trkpt lat="48.0974" lon="2.03091">
        <ele>128.2</ele>
        <time>2020-07-02T13:15:17Z</time>
      </trkpt>
      <trkpt lat="48.09732" lon="2.03089">
        <ele>128</ele>
        <time>2020-07-02T13:15:18Z</time>
      </trkpt>
      <trkpt lat="48.09725" lon="2.03086">
        <ele>127.8</ele>
        <time>2020-07-02T13:15:19Z</time>
      </trkpt>
      <trkpt lat="48.09718" lon="2.03084">
        <ele>127.6</ele>
        <time>2020-07-02T13:15:20Z</time>
      </trkpt>
      <trkpt lat="48.09712" lon="2.03082">
        <ele>127.4</ele>
        <time>2020-07-02T13:15:21Z</time>
      </trkpt>
      <trkpt lat="48.09705" lon="2.0308">
        <ele>127.1</ele>
        <time>2020-07-02T13:15:22Z</time>
      </trkpt>
      <trkpt lat="48.09697" lon="2.03077">
        <ele>126.9</ele>
        <time>2020-07-02T13:15:23Z</time>
      </trkpt>
      <trkpt lat="48.09689" lon="2.03074">
        <ele>126.7</ele>
        <time>2020-07-02T13:15:24Z</time>
      </trkpt>
      <trkpt lat="48.09682" lon="2.03071">
        <ele>126.4</ele>
        <time>2020-07-02T13:15:25Z</time>
      </trkpt>
      <trkpt lat="48.09675" lon="2.03068">
        <ele>126.2</ele>
        <time>2020-07-02T13:15:26Z</time>
      </trkpt>
      <trkpt lat="48.09667" lon="2.03066">
        <ele>126</ele>
        <time>2020-07-02T13:15:27Z</time>
      </trkpt>
      <trkpt lat="48.0966" lon="2.03062">
        <ele>125.8</ele>
        <time>2020-07-02T13:15:28Z</time>
      </trkpt>
      <trkpt lat="48.09653" lon="2.03059">
        <ele>125.7</ele>
        <time>2020-07-02T13:15:29Z</time>
      </trkpt>
      <trkpt lat="48.09646" lon="2.03056">
        <ele>125.6</ele>
        <time>2020-07-02T13:15:30Z</time>
      </trkpt>
      <trkpt lat="48.09639" lon="2.03052">
        <ele>125.6</ele>
        <time>2020-07-02T13:15:31Z</time>
      </trkpt>
      <trkpt lat="48.09631" lon="2.03049">
        <ele>125.5</ele>
        <time>2020-07-02T13:15:32Z</time>
      </trkpt>
      <trkpt lat="48.09625" lon="2.03044">
        <ele>125.5</ele>
        <time>2020-07-02T13:15:33Z</time>
      </trkpt>
      <trkpt lat="48.09618" lon="2.0304">
        <ele>125.4</ele>
        <time>2020-07-02T13:15:34Z</time>
      </trkpt>
      <trkpt lat="48.09611" lon="2.03036">
        <ele>125.2</ele>
        <time>2020-07-02T13:15:35Z</time>
      </trkpt>
      <trkpt lat="48.09604" lon="2.03032">
        <ele>125.1</ele>
        <time>2020-07-02T13:15:36Z</time>
      </trkpt>
      <trkpt lat="48.09597" lon="2.03028">
        <ele>125</ele>
        <time>2020-07-02T13:15:37Z</time>
      </trkpt>
      <trkpt lat="48.09591" lon="2.03024">
        <ele>124.9</ele>
        <time>2020-07-02T13:15:38Z</time>
      </trkpt>
      <trkpt lat="48.09584" lon="2.0302">
        <ele>124.8</ele>
        <time>2020-07-02T13:15:39Z</time>
      </trkpt>
      <trkpt lat="48.09577" lon="2.03016">
        <ele>124.8</ele>
        <time>2020-07-02T13:15:40Z</time>
      </trkpt>
      <trkpt lat="48.09571" lon="2.03012">
        <ele>124.7</ele>
        <time>2020-07-02T13:15:41Z</time>
      </trkpt>
      <trkpt lat="48.09564" lon="2.03008">
        <ele>124.7</ele>
        <time>2020-07-02T13:15:42Z</time>
      </trkpt>
      <trkpt lat="48.09558" lon="2.03004">
        <ele>124.8</ele>
        <time>2020-07-02T13:15:43Z</time>
      </trkpt>
      <trkpt lat="48.09552" lon="2.02999">
        <ele>124.8</ele>
        <time>2020-07-02T13:15:44Z</time>
      </trkpt>
      <trkpt lat="48.09546" lon="2.02994">
        <ele>124.9</ele>
        <time>2020-07-02T13:15:45Z</time>
      </trkpt>
      <trkpt lat="48.09539" lon="2.02988">
        <ele>125</ele>
        <time>2020-07-02T13:15:46Z</time>
      </trkpt>
      <trkpt lat="48.09533" lon="2.02984">
        <ele>125</ele>
        <time>2020-07-02T13:15:47Z</time>
      </trkpt>
      <trkpt lat="48.09527" lon="2.02979">
        <ele>124.9</ele>
        <time>2020-07-02T13:15:48Z</time>
      </trkpt>
      <trkpt lat="48.09521" lon="2.02974">
        <ele>124.8</ele>
        <time>2020-07-02T13:15:49Z</time>
      </trkpt>
      <trkpt lat="48.09515" lon="2.02969">
        <ele>124.8</ele>
        <time>2020-07-02T13:15:50Z</time>
      </trkpt>
      <trkpt lat="48.09509" lon="2.02963">
        <ele>124.8</ele>
        <time>2020-07-02T13:15:51Z</time>
      </trkpt>
      <trkpt lat="48.09504" lon="2.02957">
        <ele>124.8</ele>
        <time>2020-07-02T13:15:52Z</time>
      </trkpt>
      <trkpt lat="48.09499" lon="2.02952">
        <ele>124.9</ele>
        <time>2020-07-02T13:15:53Z</time>
      </trkpt>
      <trkpt lat="48.09495" lon="2.02945">
        <ele>124.9</ele>
        <time>2020-07-02T13:15:54Z</time>
      </trkpt>
      <trkpt lat="48.09492" lon="2.02938">
        <ele>124.9</ele>
        <time>2020-07-02T13:15:55Z</time>
      </trkpt>
      <trkpt lat="48.09491" lon="2.0293">
        <ele>124.8</ele>
        <time>2020-07-02T13:15:56Z</time>
      </trkpt>
      <trkpt lat="48.09489" lon="2.02922">
        <ele>124.8</ele>
        <time>2020-07-02T13:15:57Z</time>
      </trkpt>
      <trkpt lat="48.09487" lon="2.02914">
        <ele>124.8</ele>
        <time>2020-07-02T13:15:58Z</time>
      </trkpt>
      <trkpt lat="48.09484" lon="2.02906">
        <ele>124.8</ele>
        <time>2020-07-02T13:15:59Z</time>
      </trkpt>
      <trkpt lat="48.09479" lon="2.02901">
        <ele>124.6</ele>
        <time>2020-07-02T13:16:00Z</time>
      </trkpt>
      <trkpt lat="48.09473" lon="2.02897">
        <ele>124.6</ele>
        <time>2020-07-02T13:16:01Z</time>
      </trkpt>
      <trkpt lat="48.09468" lon="2.02894">
        <ele>124.5</ele>
        <time>2020-07-02T13:16:02Z</time>
      </trkpt>
      <trkpt lat="48.09463" lon="2.02891">
        <ele>124.5</ele>
        <time>2020-07-02T13:16:03Z</time>
      </trkpt>
      <trkpt lat="48.09457" lon="2.02894">
        <ele>124.5</ele>
        <time>2020-07-02T13:16:04Z</time>
      </trkpt>
      <trkpt lat="48.09452" lon="2.02899">
        <ele>124.5</ele>
        <time>2020-07-02T13:16:05Z</time>
      </trkpt>
      <trkpt lat="48.09447" lon="2.02903">
        <ele>124.4</ele>
        <time>2020-07-02T13:16:06Z</time>
      </trkpt>
      <trkpt lat="48.09441" lon="2.02907">
        <ele>124.4</ele>
        <time>2020-07-02T13:16:07Z</time>
      </trkpt>
      <trkpt lat="48.09436" lon="2.02909">
        <ele>124.3</ele>
        <time>2020-07-02T13:16:08Z</time>
      </trkpt>
      <trkpt lat="48.09429" lon="2.0291">
        <ele>124.3</ele>
        <time>2020-07-02T13:16:09Z</time>
      </trkpt>
      <trkpt lat="48.09423" lon="2.02906">
        <ele>124.3</ele>
        <time>2020-07-02T13:16:10Z</time>
      </trkpt>
      <trkpt lat="48.09418" lon="2.02902">
        <ele>124.2</ele>
        <time>2020-07-02T13:16:11Z</time>
      </trkpt>
      <trkpt lat="48.09411" lon="2.02895">
        <ele>124.2</ele>
        <time>2020-07-02T13:16:12Z</time>
      </trkpt>
      <trkpt lat="48.09405" lon="2.02888">
        <ele>124.2</ele>
        <time>2020-07-02T13:16:13Z</time>
      </trkpt>
      <trkpt lat="48.09397" lon="2.02882">
        <ele>124.2</ele>
        <time>2020-07-02T13:16:14Z</time>
      </trkpt>
      <trkpt lat="48.09391" lon="2.02877">
        <ele>124.2</ele>
        <time>2020-07-02T13:16:15Z</time>
      </trkpt>
      <trkpt lat="48.09385" lon="2.02872">
        <ele>124.2</ele>
        <time>2020-07-02T13:16:16Z</time>
      </trkpt>
      <trkpt lat="48.09378" lon="2.02868">
        <ele>124.1</ele>
        <time>2020-07-02T13:16:17Z</time>
      </trkpt>
      <trkpt lat="48.09372" lon="2.02863">
        <ele>124.1</ele>
        <time>2020-07-02T13:16:18Z</time>
      </trkpt>
      <trkpt lat="48.09367" lon="2.02859">
        <ele>124</ele>
        <time>2020-07-02T13:16:19Z</time>
      </trkpt>
      <trkpt lat="48.09362" lon="2.02855">
        <ele>124</ele>
        <time>2020-07-02T13:16:20Z</time>
      </trkpt>
      <trkpt lat="48.09356" lon="2.02851">
        <ele>124</ele>
        <time>2020-07-02T13:16:21Z</time>
      </trkpt>
      <trkpt lat="48.09351" lon="2.02847">
        <ele>124</ele>
        <time>2020-07-02T13:16:22Z</time>
      </trkpt>
      <trkpt lat="48.09345" lon="2.02842">
        <ele>124</ele>
        <time>2020-07-02T13:16:23Z</time>
      </trkpt>
      <trkpt lat="48.0934" lon="2.02838">
        <ele>124</ele>
        <time>2020-07-02T13:16:24Z</time>
      </trkpt>
      <trkpt lat="48.09335" lon="2.02833">
        <ele>124</ele>
        <time>2020-07-02T13:16:25Z</time>
      </trkpt>
      <trkpt lat="48.09329" lon="2.02829">
        <ele>124</ele>
        <time>2020-07-02T13:16:26Z</time>
      </trkpt>
      <trkpt lat="48.09323" lon="2.02824">
        <ele>124.1</ele>
        <time>2020-07-02T13:16:27Z</time>
      </trkpt>
      <trkpt lat="48.09317" lon="2.0282">
        <ele>124.1</ele>
        <time>2020-07-02T13:16:28Z</time>
      </trkpt>
      <trkpt lat="48.09312" lon="2.02815">
        <ele>124.2</ele>
        <time>2020-07-02T13:16:29Z</time>
      </trkpt>
      <trkpt lat="48.09306" lon="2.02811">
        <ele>124.2</ele>
        <time>2020-07-02T13:16:30Z</time>
      </trkpt>
      <trkpt lat="48.093" lon="2.02806">
        <ele>124.3</ele>
        <time>2020-07-02T13:16:31Z</time>
      </trkpt>
      <trkpt lat="48.09295" lon="2.02802">
        <ele>124.3</ele>
        <time>2020-07-02T13:16:32Z</time>
      </trkpt>
      <trkpt lat="48.09289" lon="2.02797">
        <ele>124.4</ele>
        <time>2020-07-02T13:16:33Z</time>
      </trkpt>
      <trkpt lat="48.09282" lon="2.02792">
        <ele>124.5</ele>
        <time>2020-07-02T13:16:34Z</time>
      </trkpt>
      <trkpt lat="48.09277" lon="2.02789">
        <ele>124.5</ele>
        <time>2020-07-02T13:16:35Z</time>
      </trkpt>
      <trkpt lat="48.0927" lon="2.02785">
        <ele>124.5</ele>
        <time>2020-07-02T13:16:36Z</time>
      </trkpt>
      <trkpt lat="48.09264" lon="2.02781">
        <ele>124.6</ele>
        <time>2020-07-02T13:16:37Z</time>
      </trkpt>
      <trkpt lat="48.09259" lon="2.02776">
        <ele>124.6</ele>
        <time>2020-07-02T13:16:38Z</time>
      </trkpt>
      <trkpt lat="48.09253" lon="2.02771">
        <ele>124.7</ele>
        <time>2020-07-02T13:16:39Z</time>
      </trkpt>
      <trkpt lat="48.09248" lon="2.02767">
        <ele>124.7</ele>
        <time>2020-07-02T13:16:40Z</time>
      </trkpt>
      <trkpt lat="48.09243" lon="2.02762">
        <ele>124.8</ele>
        <time>2020-07-02T13:16:41Z</time>
      </trkpt>
      <trkpt lat="48.09237" lon="2.02759">
        <ele>124.8</ele>
        <time>2020-07-02T13:16:42Z</time>
      </trkpt>
      <trkpt lat="48.09231" lon="2.02755">
        <ele>124.9</ele>
        <time>2020-07-02T13:16:43Z</time>
      </trkpt>
      <trkpt lat="48.09225" lon="2.02752">
        <ele>124.9</ele>
        <time>2020-07-02T13:16:44Z</time>
      </trkpt>
      <trkpt lat="48.0922" lon="2.02748">
        <ele>124.9</ele>
        <time>2020-07-02T13:16:45Z</time>
      </trkpt>
      <trkpt lat="48.09214" lon="2.02743">
        <ele>125</ele>
        <time>2020-07-02T13:16:46Z</time>
      </trkpt>
      <trkpt lat="48.09209" lon="2.02739">
        <ele>125</ele>
        <time>2020-07-02T13:16:47Z</time>
      </trkpt>
      <trkpt lat="48.09204" lon="2.02735">
        <ele>125</ele>
        <time>2020-07-02T13:16:48Z</time>
      </trkpt>
      <trkpt lat="48.09199" lon="2.02731">
        <ele>125.1</ele>
        <time>2020-07-02T13:16:49Z</time>
      </trkpt>
      <trkpt lat="48.09194" lon="2.02726">
        <ele>125.1</ele>
        <time>2020-07-02T13:16:50Z</time>
      </trkpt>
      <trkpt lat="48.09188" lon="2.02721">
        <ele>125.2</ele>
        <time>2020-07-02T13:16:51Z</time>
      </trkpt>
      <trkpt lat="48.09183" lon="2.02718">
        <ele>125.2</ele>
        <time>2020-07-02T13:16:52Z</time>
      </trkpt>
      <trkpt lat="48.09179" lon="2.02715">
        <ele>125.3</ele>
        <time>2020-07-02T13:16:53Z</time>
      </trkpt>
      <trkpt lat="48.09174" lon="2.0271">
        <ele>125.3</ele>
        <time>2020-07-02T13:16:54Z</time>
      </trkpt>
      <trkpt lat="48.0917" lon="2.02706">
        <ele>125.3</ele>
        <time>2020-07-02T13:16:55Z</time>
      </trkpt>
      <trkpt lat="48.09164" lon="2.02702">
        <ele>125.3</ele>
        <time>2020-07-02T13:16:56Z</time>
      </trkpt>
      <trkpt lat="48.09158" lon="2.02698">
        <ele>125.3</ele>
        <time>2020-07-02T13:16:57Z</time>
      </trkpt>
      <trkpt lat="48.09152" lon="2.02694">
        <ele>125.4</ele>
        <time>2020-07-02T13:16:58Z</time>
      </trkpt>
      <trkpt lat="48.09145" lon="2.02691">
        <ele>125.4</ele>
        <time>2020-07-02T13:16:59Z</time>
      </trkpt>
      <trkpt lat="48.09139" lon="2.02685">
        <ele>125.5</ele>
        <time>2020-07-02T13:17:00Z</time>
      </trkpt>
      <trkpt lat="48.09134" lon="2.02682">
        <ele>125.5</ele>
        <time>2020-07-02T13:17:01Z</time>
      </trkpt>
      <trkpt lat="48.09128" lon="2.02679">
        <ele>125.5</ele>
        <time>2020-07-02T13:17:02Z</time>
      </trkpt>
      <trkpt lat="48.09124" lon="2.02676">
        <ele>125.6</ele>
        <time>2020-07-02T13:17:03Z</time>
      </trkpt>
      <trkpt lat="48.09119" lon="2.02672">
        <ele>125.6</ele>
        <time>2020-07-02T13:17:04Z</time>
      </trkpt>
      <trkpt lat="48.09113" lon="2.02668">
        <ele>125.6</ele>
        <time>2020-07-02T13:17:05Z</time>
      </trkpt>
      <trkpt lat="48.09108" lon="2.02663">
        <ele>125.7</ele>
        <time>2020-07-02T13:17:06Z</time>
      </trkpt>
      <trkpt lat="48.09103" lon="2.0266">
        <ele>125.7</ele>
        <time>2020-07-02T13:17:07Z</time>
      </trkpt>
      <trkpt lat="48.09098" lon="2.02656">
        <ele>125.8</ele>
        <time>2020-07-02T13:17:08Z</time>
      </trkpt>
      <trkpt lat="48.09092" lon="2.02651">
        <ele>125.9</ele>
        <time>2020-07-02T13:17:09Z</time>
      </trkpt>
      <trkpt lat="48.09087" lon="2.02647">
        <ele>125.9</ele>
        <time>2020-07-02T13:17:10Z</time>
      </trkpt>
      <trkpt lat="48.09082" lon="2.02643">
        <ele>126</ele>
        <time>2020-07-02T13:17:11Z</time>
      </trkpt>
      <trkpt lat="48.09077" lon="2.02639">
        <ele>125.9</ele>
        <time>2020-07-02T13:17:12Z</time>
      </trkpt>
      <trkpt lat="48.09073" lon="2.02636">
        <ele>125.8</ele>
        <time>2020-07-02T13:17:13Z</time>
      </trkpt>
      <trkpt lat="48.09068" lon="2.02631">
        <ele>125.8</ele>
        <time>2020-07-02T13:17:14Z</time>
      </trkpt>
      <trkpt lat="48.09063" lon="2.02628">
        <ele>125.8</ele>
        <time>2020-07-02T13:17:15Z</time>
      </trkpt>
      <trkpt lat="48.09057" lon="2.02623">
        <ele>125.9</ele>
        <time>2020-07-02T13:17:16Z</time>
      </trkpt>
      <trkpt lat="48.09052" lon="2.02619">
        <ele>125.9</ele>
        <time>2020-07-02T13:17:17Z</time>
      </trkpt>
      <trkpt lat="48.09046" lon="2.02616">
        <ele>125.9</ele>
        <time>2020-07-02T13:17:18Z</time>
      </trkpt>
      <trkpt lat="48.0904" lon="2.02612">
        <ele>125.9</ele>
        <time>2020-07-02T13:17:19Z</time>
      </trkpt>
      <trkpt lat="48.09035" lon="2.02607">
        <ele>125.9</ele>
        <time>2020-07-02T13:17:20Z</time>
      </trkpt>
      <trkpt lat="48.09029" lon="2.02604">
        <ele>125.9</ele>
        <time>2020-07-02T13:17:21Z</time>
      </trkpt>
      <trkpt lat="48.09024" lon="2.026">
        <ele>125.9</ele>
        <time>2020-07-02T13:17:22Z</time>
      </trkpt>
      <trkpt lat="48.09017" lon="2.02593">
        <ele>126</ele>
        <time>2020-07-02T13:17:23Z</time>
      </trkpt>
      <trkpt lat="48.09012" lon="2.0259">
        <ele>126</ele>
        <time>2020-07-02T13:17:24Z</time>
      </trkpt>
      <trkpt lat="48.09008" lon="2.02588">
        <ele>126</ele>
        <time>2020-07-02T13:17:25Z</time>
      </trkpt>
      <trkpt lat="48.09003" lon="2.02585">
        <ele>126</ele>
        <time>2020-07-02T13:17:26Z</time>
      </trkpt>
      <trkpt lat="48.08997" lon="2.0258">
        <ele>126</ele>
        <time>2020-07-02T13:17:27Z</time>
      </trkpt>
      <trkpt lat="48.08992" lon="2.02578">
        <ele>125.9</ele>
        <time>2020-07-02T13:17:28Z</time>
      </trkpt>
      <trkpt lat="48.08986" lon="2.02573">
        <ele>125.9</ele>
        <time>2020-07-02T13:17:29Z</time>
      </trkpt>
      <trkpt lat="48.0898" lon="2.02568">
        <ele>125.8</ele>
        <time>2020-07-02T13:17:30Z</time>
      </trkpt>
      <trkpt lat="48.08975" lon="2.02564">
        <ele>125.8</ele>
        <time>2020-07-02T13:17:31Z</time>
      </trkpt>
      <trkpt lat="48.08969" lon="2.02559">
        <ele>125.7</ele>
        <time>2020-07-02T13:17:32Z</time>
      </trkpt>
      <trkpt lat="48.08962" lon="2.02554">
        <ele>125.6</ele>
        <time>2020-07-02T13:17:33Z</time>
      </trkpt>
      <trkpt lat="48.08956" lon="2.0255">
        <ele>125.5</ele>
        <time>2020-07-02T13:17:34Z</time>
      </trkpt>
      <trkpt lat="48.08952" lon="2.02546">
        <ele>125.5</ele>
        <time>2020-07-02T13:17:35Z</time>
      </trkpt>
      <trkpt lat="48.08947" lon="2.02542">
        <ele>125.4</ele>
        <time>2020-07-02T13:17:36Z</time>
      </trkpt>
      <trkpt lat="48.08941" lon="2.02538">
        <ele>125.3</ele>
        <time>2020-07-02T13:17:37Z</time>
      </trkpt>
      <trkpt lat="48.08935" lon="2.02533">
        <ele>125.3</ele>
        <time>2020-07-02T13:17:38Z</time>
      </trkpt>
      <trkpt lat="48.08929" lon="2.02529">
        <ele>125.2</ele>
        <time>2020-07-02T13:17:39Z</time>
      </trkpt>
      <trkpt lat="48.08922" lon="2.02524">
        <ele>125.2</ele>
        <time>2020-07-02T13:17:40Z</time>
      </trkpt>
      <trkpt lat="48.08918" lon="2.02521">
        <ele>125.1</ele>
        <time>2020-07-02T13:17:41Z</time>
      </trkpt>
      <trkpt lat="48.08912" lon="2.02517">
        <ele>125.1</ele>
        <time>2020-07-02T13:17:42Z</time>
      </trkpt>
      <trkpt lat="48.08907" lon="2.02512">
        <ele>125</ele>
        <time>2020-07-02T13:17:43Z</time>
      </trkpt>
      <trkpt lat="48.08902" lon="2.02509">
        <ele>125</ele>
        <time>2020-07-02T13:17:44Z</time>
      </trkpt>
      <trkpt lat="48.08897" lon="2.02505">
        <ele>125</ele>
        <time>2020-07-02T13:17:45Z</time>
      </trkpt>
      <trkpt lat="48.08891" lon="2.025">
        <ele>124.9</ele>
        <time>2020-07-02T13:17:46Z</time>
      </trkpt>
      <trkpt lat="48.08885" lon="2.02495">
        <ele>124.9</ele>
        <time>2020-07-02T13:17:47Z</time>
      </trkpt>
      <trkpt lat="48.08879" lon="2.0249">
        <ele>124.9</ele>
        <time>2020-07-02T13:17:48Z</time>
      </trkpt>
      <trkpt lat="48.08873" lon="2.02486">
        <ele>124.9</ele>
        <time>2020-07-02T13:17:49Z</time>
      </trkpt>
      <trkpt lat="48.08866" lon="2.02482">
        <ele>124.8</ele>
        <time>2020-07-02T13:17:50Z</time>
      </trkpt>
      <trkpt lat="48.08859" lon="2.02478">
        <ele>124.8</ele>
        <time>2020-07-02T13:17:51Z</time>
      </trkpt>
      <trkpt lat="48.08853" lon="2.02473">
        <ele>124.8</ele>
        <time>2020-07-02T13:17:52Z</time>
      </trkpt>
      <trkpt lat="48.08847" lon="2.02469">
        <ele>124.8</ele>
        <time>2020-07-02T13:17:53Z</time>
      </trkpt>
      <trkpt lat="48.08841" lon="2.02464">
        <ele>124.8</ele>
        <time>2020-07-02T13:17:54Z</time>
      </trkpt>
      <trkpt lat="48.08835" lon="2.0246">
        <ele>124.8</ele>
        <time>2020-07-02T13:17:55Z</time>
      </trkpt>
      <trkpt lat="48.08829" lon="2.02455">
        <ele>124.8</ele>
        <time>2020-07-02T13:17:56Z</time>
      </trkpt>
      <trkpt lat="48.08824" lon="2.02452">
        <ele>124.7</ele>
        <time>2020-07-02T13:17:57Z</time>
      </trkpt>
      <trkpt lat="48.08819" lon="2.02448">
        <ele>124.7</ele>
        <time>2020-07-02T13:17:58Z</time>
      </trkpt>
      <trkpt lat="48.08814" lon="2.02444">
        <ele>124.7</ele>
        <time>2020-07-02T13:17:59Z</time>
      </trkpt>
      <trkpt lat="48.08808" lon="2.0244">
        <ele>124.7</ele>
        <time>2020-07-02T13:18:00Z</time>
      </trkpt>
      <trkpt lat="48.08802" lon="2.02435">
        <ele>124.7</ele>
        <time>2020-07-02T13:18:01Z</time>
      </trkpt>
      <trkpt lat="48.08797" lon="2.02431">
        <ele>124.7</ele>
        <time>2020-07-02T13:18:02Z</time>
      </trkpt>
      <trkpt lat="48.08791" lon="2.02427">
        <ele>124.8</ele>
        <time>2020-07-02T13:18:03Z</time>
      </trkpt>
      <trkpt lat="48.08785" lon="2.02423">
        <ele>124.8</ele>
        <time>2020-07-02T13:18:04Z</time>
      </trkpt>
      <trkpt lat="48.0878" lon="2.02418">
        <ele>124.9</ele>
        <time>2020-07-02T13:18:05Z</time>
      </trkpt>
      <trkpt lat="48.08774" lon="2.02414">
        <ele>124.6</ele>
        <time>2020-07-02T13:18:06Z</time>
      </trkpt>
      <trkpt lat="48.08768" lon="2.02409">
        <ele>124.5</ele>
        <time>2020-07-02T13:18:07Z</time>
      </trkpt>
      <trkpt lat="48.08761" lon="2.02404">
        <ele>124.5</ele>
        <time>2020-07-02T13:18:08Z</time>
      </trkpt>
      <trkpt lat="48.08756" lon="2.024">
        <ele>124.5</ele>
        <time>2020-07-02T13:18:09Z</time>
      </trkpt>
      <trkpt lat="48.08749" lon="2.02395">
        <ele>124.5</ele>
        <time>2020-07-02T13:18:10Z</time>
      </trkpt>
      <trkpt lat="48.08743" lon="2.0239">
        <ele>124.4</ele>
        <time>2020-07-02T13:18:11Z</time>
      </trkpt>
      <trkpt lat="48.08737" lon="2.02385">
        <ele>124.4</ele>
        <time>2020-07-02T13:18:12Z</time>
      </trkpt>
      <trkpt lat="48.08731" lon="2.0238">
        <ele>124.4</ele>
        <time>2020-07-02T13:18:13Z</time>
      </trkpt>
      <trkpt lat="48.08725" lon="2.02377">
        <ele>124.4</ele>
        <time>2020-07-02T13:18:14Z</time>
      </trkpt>
      <trkpt lat="48.08719" lon="2.02372">
        <ele>124.4</ele>
        <time>2020-07-02T13:18:15Z</time>
      </trkpt>
      <trkpt lat="48.08713" lon="2.02367">
        <ele>124.5</ele>
        <time>2020-07-02T13:18:16Z</time>
      </trkpt>
      <trkpt lat="48.08707" lon="2.02363">
        <ele>124.6</ele>
        <time>2020-07-02T13:18:17Z</time>
      </trkpt>
      <trkpt lat="48.08701" lon="2.02359">
        <ele>124.6</ele>
        <time>2020-07-02T13:18:18Z</time>
      </trkpt>
      <trkpt lat="48.08695" lon="2.02355">
        <ele>124.7</ele>
        <time>2020-07-02T13:18:19Z</time>
      </trkpt>
      <trkpt lat="48.0869" lon="2.02351">
        <ele>124.5</ele>
        <time>2020-07-02T13:18:20Z</time>
      </trkpt>
      <trkpt lat="48.08684" lon="2.02347">
        <ele>124.4</ele>
        <time>2020-07-02T13:18:21Z</time>
      </trkpt>
      <trkpt lat="48.08678" lon="2.02344">
        <ele>124.3</ele>
        <time>2020-07-02T13:18:22Z</time>
      </trkpt>
      <trkpt lat="48.08672" lon="2.0234">
        <ele>124.2</ele>
        <time>2020-07-02T13:18:23Z</time>
      </trkpt>
      <trkpt lat="48.08667" lon="2.02336">
        <ele>124.2</ele>
        <time>2020-07-02T13:18:24Z</time>
      </trkpt>
      <trkpt lat="48.08661" lon="2.02332">
        <ele>124.1</ele>
        <time>2020-07-02T13:18:25Z</time>
      </trkpt>
      <trkpt lat="48.08656" lon="2.02327">
        <ele>124.1</ele>
        <time>2020-07-02T13:18:26Z</time>
      </trkpt>
      <trkpt lat="48.0865" lon="2.02323">
        <ele>124</ele>
        <time>2020-07-02T13:18:27Z</time>
      </trkpt>
      <trkpt lat="48.08645" lon="2.02319">
        <ele>124</ele>
        <time>2020-07-02T13:18:28Z</time>
      </trkpt>
      <trkpt lat="48.0864" lon="2.02315">
        <ele>124</ele>
        <time>2020-07-02T13:18:29Z</time>
      </trkpt>
      <trkpt lat="48.08634" lon="2.02312">
        <ele>124</ele>
        <time>2020-07-02T13:18:30Z</time>
      </trkpt>
      <trkpt lat="48.08629" lon="2.02308">
        <ele>123.9</ele>
        <time>2020-07-02T13:18:31Z</time>
      </trkpt>
      <trkpt lat="48.08623" lon="2.02303">
        <ele>123.9</ele>
        <time>2020-07-02T13:18:32Z</time>
      </trkpt>
      <trkpt lat="48.08618" lon="2.02299">
        <ele>123.9</ele>
        <time>2020-07-02T13:18:33Z</time>
      </trkpt>
      <trkpt lat="48.08612" lon="2.02295">
        <ele>123.9</ele>
        <time>2020-07-02T13:18:34Z</time>
      </trkpt>
      <trkpt lat="48.08607" lon="2.02291">
        <ele>123.9</ele>
        <time>2020-07-02T13:18:35Z</time>
      </trkpt>
      <trkpt lat="48.08601" lon="2.02287">
        <ele>123.9</ele>
        <time>2020-07-02T13:18:36Z</time>
      </trkpt>
      <trkpt lat="48.08595" lon="2.02284">
        <ele>123.9</ele>
        <time>2020-07-02T13:18:37Z</time>
      </trkpt>
      <trkpt lat="48.0859" lon="2.0228">
        <ele>123.9</ele>
        <time>2020-07-02T13:18:38Z</time>
      </trkpt>
      <trkpt lat="48.08585" lon="2.02276">
        <ele>124</ele>
        <time>2020-07-02T13:18:39Z</time>
      </trkpt>
      <trkpt lat="48.08579" lon="2.02272">
        <ele>124</ele>
        <time>2020-07-02T13:18:40Z</time>
      </trkpt>
      <trkpt lat="48.08573" lon="2.02267">
        <ele>124</ele>
        <time>2020-07-02T13:18:41Z</time>
      </trkpt>
      <trkpt lat="48.08568" lon="2.02263">
        <ele>124.1</ele>
        <time>2020-07-02T13:18:42Z</time>
      </trkpt>
      <trkpt lat="48.08563" lon="2.02259">
        <ele>124.2</ele>
        <time>2020-07-02T13:18:43Z</time>
      </trkpt>
      <trkpt lat="48.08558" lon="2.02255">
        <ele>124.3</ele>
        <time>2020-07-02T13:18:44Z</time>
      </trkpt>
      <trkpt lat="48.08552" lon="2.0225">
        <ele>124.4</ele>
        <time>2020-07-02T13:18:45Z</time>
      </trkpt>
      <trkpt lat="48.08546" lon="2.02246">
        <ele>124.5</ele>
        <time>2020-07-02T13:18:46Z</time>
      </trkpt>
      <trkpt lat="48.0854" lon="2.02242">
        <ele>124.5</ele>
        <time>2020-07-02T13:18:47Z</time>
      </trkpt>
      <trkpt lat="48.08534" lon="2.02237">
        <ele>124.5</ele>
        <time>2020-07-02T13:18:48Z</time>
      </trkpt>
      <trkpt lat="48.08529" lon="2.02233">
        <ele>124.5</ele>
        <time>2020-07-02T13:18:49Z</time>
      </trkpt>
      <trkpt lat="48.08523" lon="2.02229">
        <ele>124.5</ele>
        <time>2020-07-02T13:18:50Z</time>
      </trkpt>
      <trkpt lat="48.08518" lon="2.02224">
        <ele>124.6</ele>
        <time>2020-07-02T13:18:51Z</time>
      </trkpt>
      <trkpt lat="48.08512" lon="2.0222">
        <ele>124.7</ele>
        <time>2020-07-02T13:18:52Z</time>
      </trkpt>
      <trkpt lat="48.08506" lon="2.02216">
        <ele>124.7</ele>
        <time>2020-07-02T13:18:53Z</time>
      </trkpt>
      <trkpt lat="48.085" lon="2.02211">
        <ele>124.8</ele>
        <time>2020-07-02T13:18:54Z</time>
      </trkpt>
      <trkpt lat="48.08494" lon="2.02207">
        <ele>124.8</ele>
        <time>2020-07-02T13:18:55Z</time>
      </trkpt>
      <trkpt lat="48.08489" lon="2.02203">
        <ele>124.9</ele>
        <time>2020-07-02T13:18:56Z</time>
      </trkpt>
      <trkpt lat="48.08484" lon="2.02198">
        <ele>124.9</ele>
        <time>2020-07-02T13:18:57Z</time>
      </trkpt>
      <trkpt lat="48.08479" lon="2.02194">
        <ele>125</ele>
        <time>2020-07-02T13:18:58Z</time>
      </trkpt>
      <trkpt lat="48.08473" lon="2.02189">
        <ele>125</ele>
        <time>2020-07-02T13:18:59Z</time>
      </trkpt>
      <trkpt lat="48.08467" lon="2.02186">
        <ele>125.1</ele>
        <time>2020-07-02T13:19:00Z</time>
      </trkpt>
      <trkpt lat="48.08461" lon="2.02181">
        <ele>125.1</ele>
        <time>2020-07-02T13:19:01Z</time>
      </trkpt>
      <trkpt lat="48.08456" lon="2.02178">
        <ele>125.2</ele>
        <time>2020-07-02T13:19:02Z</time>
      </trkpt>
      <trkpt lat="48.08451" lon="2.02173">
        <ele>125.2</ele>
        <time>2020-07-02T13:19:03Z</time>
      </trkpt>
      <trkpt lat="48.08445" lon="2.02169">
        <ele>125.2</ele>
        <time>2020-07-02T13:19:04Z</time>
      </trkpt>
      <trkpt lat="48.0844" lon="2.02165">
        <ele>125.3</ele>
        <time>2020-07-02T13:19:05Z</time>
      </trkpt>
      <trkpt lat="48.08434" lon="2.0216">
        <ele>125.3</ele>
        <time>2020-07-02T13:19:06Z</time>
      </trkpt>
      <trkpt lat="48.08428" lon="2.02155">
        <ele>125.4</ele>
        <time>2020-07-02T13:19:07Z</time>
      </trkpt>
      <trkpt lat="48.08423" lon="2.02152">
        <ele>125.5</ele>
        <time>2020-07-02T13:19:08Z</time>
      </trkpt>
      <trkpt lat="48.08418" lon="2.02147">
        <ele>125.6</ele>
        <time>2020-07-02T13:19:09Z</time>
      </trkpt>
      <trkpt lat="48.08413" lon="2.02143">
        <ele>125.6</ele>
        <time>2020-07-02T13:19:10Z</time>
      </trkpt>
      <trkpt lat="48.08408" lon="2.02139">
        <ele>125.7</ele>
        <time>2020-07-02T13:19:11Z</time>
      </trkpt>
      <trkpt lat="48.08403" lon="2.02135">
        <ele>125.8</ele>
        <time>2020-07-02T13:19:12Z</time>
      </trkpt>
      <trkpt lat="48.08399" lon="2.02132">
        <ele>125.9</ele>
        <time>2020-07-02T13:19:13Z</time>
      </trkpt>
      <trkpt lat="48.08394" lon="2.02128">
        <ele>125.9</ele>
        <time>2020-07-02T13:19:14Z</time>
      </trkpt>
      <trkpt lat="48.08389" lon="2.02124">
        <ele>126</ele>
        <time>2020-07-02T13:19:15Z</time>
      </trkpt>
      <trkpt lat="48.08384" lon="2.0212">
        <ele>126</ele>
        <time>2020-07-02T13:19:16Z</time>
      </trkpt>
      <trkpt lat="48.08378" lon="2.02116">
        <ele>126.1</ele>
        <time>2020-07-02T13:19:17Z</time>
      </trkpt>
      <trkpt lat="48.08374" lon="2.02113">
        <ele>126.1</ele>
        <time>2020-07-02T13:19:18Z</time>
      </trkpt>
      <trkpt lat="48.08368" lon="2.02109">
        <ele>126.1</ele>
        <time>2020-07-02T13:19:19Z</time>
      </trkpt>
      <trkpt lat="48.08362" lon="2.02105">
        <ele>126.1</ele>
        <time>2020-07-02T13:19:20Z</time>
      </trkpt>
      <trkpt lat="48.08356" lon="2.02101">
        <ele>126.2</ele>
        <time>2020-07-02T13:19:21Z</time>
      </trkpt>
      <trkpt lat="48.0835" lon="2.02097">
        <ele>126.2</ele>
        <time>2020-07-02T13:19:22Z</time>
      </trkpt>
      <trkpt lat="48.08346" lon="2.02094">
        <ele>126.3</ele>
        <time>2020-07-02T13:19:23Z</time>
      </trkpt>
      <trkpt lat="48.0834" lon="2.0209">
        <ele>126.3</ele>
        <time>2020-07-02T13:19:24Z</time>
      </trkpt>
      <trkpt lat="48.08334" lon="2.02087">
        <ele>126.3</ele>
        <time>2020-07-02T13:19:25Z</time>
      </trkpt>
      <trkpt lat="48.08329" lon="2.02081">
        <ele>126.3</ele>
        <time>2020-07-02T13:19:26Z</time>
      </trkpt>
      <trkpt lat="48.08323" lon="2.02077">
        <ele>126.4</ele>
        <time>2020-07-02T13:19:27Z</time>
      </trkpt>
      <trkpt lat="48.08317" lon="2.02073">
        <ele>126.4</ele>
        <time>2020-07-02T13:19:28Z</time>
      </trkpt>
      <trkpt lat="48.08312" lon="2.02069">
        <ele>126.5</ele>
        <time>2020-07-02T13:19:29Z</time>
      </trkpt>
      <trkpt lat="48.08307" lon="2.02065">
        <ele>126.6</ele>
        <time>2020-07-02T13:19:30Z</time>
      </trkpt>
      <trkpt lat="48.08302" lon="2.02061">
        <ele>126.6</ele>
        <time>2020-07-02T13:19:31Z</time>
      </trkpt>
      <trkpt lat="48.08296" lon="2.02056">
        <ele>126.7</ele>
        <time>2020-07-02T13:19:32Z</time>
      </trkpt>
      <trkpt lat="48.08291" lon="2.02053">
        <ele>126.7</ele>
        <time>2020-07-02T13:19:33Z</time>
      </trkpt>
      <trkpt lat="48.08286" lon="2.0205">
        <ele>126.7</ele>
        <time>2020-07-02T13:19:34Z</time>
      </trkpt>
      <trkpt lat="48.08281" lon="2.02046">
        <ele>126.8</ele>
        <time>2020-07-02T13:19:35Z</time>
      </trkpt>
      <trkpt lat="48.08277" lon="2.02042">
        <ele>126.8</ele>
        <time>2020-07-02T13:19:36Z</time>
      </trkpt>
      <trkpt lat="48.08272" lon="2.02039">
        <ele>126.9</ele>
        <time>2020-07-02T13:19:37Z</time>
      </trkpt>
      <trkpt lat="48.08266" lon="2.02035">
        <ele>126.9</ele>
        <time>2020-07-02T13:19:38Z</time>
      </trkpt>
      <trkpt lat="48.08261" lon="2.02031">
        <ele>127</ele>
        <time>2020-07-02T13:19:39Z</time>
      </trkpt>
      <trkpt lat="48.08257" lon="2.02028">
        <ele>127.1</ele>
        <time>2020-07-02T13:19:40Z</time>
      </trkpt>
      <trkpt lat="48.08252" lon="2.02024">
        <ele>127.1</ele>
        <time>2020-07-02T13:19:41Z</time>
      </trkpt>
      <trkpt lat="48.08246" lon="2.0202">
        <ele>127.2</ele>
        <time>2020-07-02T13:19:42Z</time>
      </trkpt>
      <trkpt lat="48.0824" lon="2.02016">
        <ele>127.2</ele>
        <time>2020-07-02T13:19:43Z</time>
      </trkpt>
      <trkpt lat="48.08235" lon="2.02012">
        <ele>127.3</ele>
        <time>2020-07-02T13:19:44Z</time>
      </trkpt>
      <trkpt lat="48.08231" lon="2.02008">
        <ele>127.3</ele>
        <time>2020-07-02T13:19:45Z</time>
      </trkpt>
      <trkpt lat="48.08226" lon="2.02005">
        <ele>127.4</ele>
        <time>2020-07-02T13:19:46Z</time>
      </trkpt>
      <trkpt lat="48.08221" lon="2.02001">
        <ele>127.4</ele>
        <time>2020-07-02T13:19:47Z</time>
      </trkpt>
      <trkpt lat="48.08216" lon="2.01998">
        <ele>127.5</ele>
        <time>2020-07-02T13:19:48Z</time>
      </trkpt>
      <trkpt lat="48.0821" lon="2.01993">
        <ele>127.5</ele>
        <time>2020-07-02T13:19:49Z</time>
      </trkpt>
      <trkpt lat="48.08205" lon="2.01989">
        <ele>127.5</ele>
        <time>2020-07-02T13:19:50Z</time>
      </trkpt>
      <trkpt lat="48.082" lon="2.01986">
        <ele>127.4</ele>
        <time>2020-07-02T13:19:51Z</time>
      </trkpt>
      <trkpt lat="48.08195" lon="2.01982">
        <ele>127.2</ele>
        <time>2020-07-02T13:19:52Z</time>
      </trkpt>
      <trkpt lat="48.0819" lon="2.01978">
        <ele>126.9</ele>
        <time>2020-07-02T13:19:53Z</time>
      </trkpt>
      <trkpt lat="48.08185" lon="2.01974">
        <ele>126.8</ele>
        <time>2020-07-02T13:19:54Z</time>
      </trkpt>
      <trkpt lat="48.08179" lon="2.0197">
        <ele>126.7</ele>
        <time>2020-07-02T13:19:55Z</time>
      </trkpt>
      <trkpt lat="48.08173" lon="2.01967">
        <ele>126.7</ele>
        <time>2020-07-02T13:19:56Z</time>
      </trkpt>
      <trkpt lat="48.08168" lon="2.01963">
        <ele>126.7</ele>
        <time>2020-07-02T13:19:57Z</time>
      </trkpt>
      <trkpt lat="48.08163" lon="2.0196">
        <ele>126.7</ele>
        <time>2020-07-02T13:19:58Z</time>
      </trkpt>
      <trkpt lat="48.08159" lon="2.01957">
        <ele>126.7</ele>
        <time>2020-07-02T13:19:59Z</time>
      </trkpt>
      <trkpt lat="48.08155" lon="2.01953">
        <ele>126.8</ele>
        <time>2020-07-02T13:20:00Z</time>
      </trkpt>
      <trkpt lat="48.0815" lon="2.01949">
        <ele>126.8</ele>
        <time>2020-07-02T13:20:01Z</time>
      </trkpt>
      <trkpt lat="48.08145" lon="2.01945">
        <ele>126.8</ele>
        <time>2020-07-02T13:20:02Z</time>
      </trkpt>
      <trkpt lat="48.08138" lon="2.0194">
        <ele>126.8</ele>
        <time>2020-07-02T13:20:03Z</time>
      </trkpt>
      <trkpt lat="48.08134" lon="2.01936">
        <ele>126.9</ele>
        <time>2020-07-02T13:20:04Z</time>
      </trkpt>
      <trkpt lat="48.08128" lon="2.01933">
        <ele>126.9</ele>
        <time>2020-07-02T13:20:05Z</time>
      </trkpt>
      <trkpt lat="48.08124" lon="2.0193">
        <ele>126.9</ele>
        <time>2020-07-02T13:20:06Z</time>
      </trkpt>
      <trkpt lat="48.08119" lon="2.01927">
        <ele>127</ele>
        <time>2020-07-02T13:20:07Z</time>
      </trkpt>
      <trkpt lat="48.08115" lon="2.01924">
        <ele>127</ele>
        <time>2020-07-02T13:20:08Z</time>
      </trkpt>
      <trkpt lat="48.0811" lon="2.0192">
        <ele>127</ele>
        <time>2020-07-02T13:20:09Z</time>
      </trkpt>
      <trkpt lat="48.08105" lon="2.01916">
        <ele>127.1</ele>
        <time>2020-07-02T13:20:10Z</time>
      </trkpt>
      <trkpt lat="48.081" lon="2.01911">
        <ele>127.1</ele>
        <time>2020-07-02T13:20:11Z</time>
      </trkpt>
      <trkpt lat="48.08095" lon="2.01907">
        <ele>127.1</ele>
        <time>2020-07-02T13:20:12Z</time>
      </trkpt>
      <trkpt lat="48.0809" lon="2.01903">
        <ele>127.1</ele>
        <time>2020-07-02T13:20:13Z</time>
      </trkpt>
      <trkpt lat="48.08084" lon="2.01898">
        <ele>127.1</ele>
        <time>2020-07-02T13:20:14Z</time>
      </trkpt>
      <trkpt lat="48.08077" lon="2.01894">
        <ele>127.1</ele>
        <time>2020-07-02T13:20:15Z</time>
      </trkpt>
      <trkpt lat="48.08071" lon="2.0189">
        <ele>127.1</ele>
        <time>2020-07-02T13:20:16Z</time>
      </trkpt>
      <trkpt lat="48.08066" lon="2.01886">
        <ele>127.1</ele>
        <time>2020-07-02T13:20:17Z</time>
      </trkpt>
      <trkpt lat="48.0806" lon="2.01883">
        <ele>127.2</ele>
        <time>2020-07-02T13:20:18Z</time>
      </trkpt>
      <trkpt lat="48.08054" lon="2.01879">
        <ele>127.3</ele>
        <time>2020-07-02T13:20:19Z</time>
      </trkpt>
      <trkpt lat="48.08049" lon="2.01876">
        <ele>127.4</ele>
        <time>2020-07-02T13:20:20Z</time>
      </trkpt>
      <trkpt lat="48.08044" lon="2.01872">
        <ele>127.4</ele>
        <time>2020-07-02T13:20:21Z</time>
      </trkpt>
      <trkpt lat="48.08039" lon="2.01867">
        <ele>127.4</ele>
        <time>2020-07-02T13:20:22Z</time>
      </trkpt>
      <trkpt lat="48.08034" lon="2.01864">
        <ele>127.4</ele>
        <time>2020-07-02T13:20:23Z</time>
      </trkpt>
      <trkpt lat="48.0803" lon="2.0186">
        <ele>127.4</ele>
        <time>2020-07-02T13:20:24Z</time>
      </trkpt>
      <trkpt lat="48.08025" lon="2.01856">
        <ele>127.4</ele>
        <time>2020-07-02T13:20:25Z</time>
      </trkpt>
      <trkpt lat="48.08021" lon="2.01853">
        <ele>127.3</ele>
        <time>2020-07-02T13:20:26Z</time>
      </trkpt>
      <trkpt lat="48.08016" lon="2.0185">
        <ele>127.3</ele>
        <time>2020-07-02T13:20:27Z</time>
      </trkpt>
      <trkpt lat="48.08012" lon="2.01846">
        <ele>127.3</ele>
        <time>2020-07-02T13:20:28Z</time>
      </trkpt>
      <trkpt lat="48.08007" lon="2.01842">
        <ele>127.4</ele>
        <time>2020-07-02T13:20:29Z</time>
      </trkpt>
      <trkpt lat="48.08002" lon="2.01839">
        <ele>127.4</ele>
        <time>2020-07-02T13:20:30Z</time>
      </trkpt>
      <trkpt lat="48.07997" lon="2.01836">
        <ele>127.4</ele>
        <time>2020-07-02T13:20:31Z</time>
      </trkpt>
      <trkpt lat="48.07992" lon="2.01831">
        <ele>127.4</ele>
        <time>2020-07-02T13:20:32Z</time>
      </trkpt>
      <trkpt lat="48.07987" lon="2.01827">
        <ele>127.4</ele>
        <time>2020-07-02T13:20:33Z</time>
      </trkpt>
      <trkpt lat="48.0798" lon="2.01822">
        <ele>127.4</ele>
        <time>2020-07-02T13:20:34Z</time>
      </trkpt>
      <trkpt lat="48.07975" lon="2.01818">
        <ele>127.5</ele>
        <time>2020-07-02T13:20:35Z</time>
      </trkpt>
      <trkpt lat="48.0797" lon="2.01815">
        <ele>127.5</ele>
        <time>2020-07-02T13:20:36Z</time>
      </trkpt>
      <trkpt lat="48.07965" lon="2.0181">
        <ele>127.5</ele>
        <time>2020-07-02T13:20:37Z</time>
      </trkpt>
      <trkpt lat="48.0796" lon="2.01806">
        <ele>127.5</ele>
        <time>2020-07-02T13:20:38Z</time>
      </trkpt>
      <trkpt lat="48.07954" lon="2.01803">
        <ele>127.6</ele>
        <time>2020-07-02T13:20:39Z</time>
      </trkpt>
      <trkpt lat="48.0795" lon="2.018">
        <ele>127.6</ele>
        <time>2020-07-02T13:20:40Z</time>
      </trkpt>
      <trkpt lat="48.07946" lon="2.01797">
        <ele>127.6</ele>
        <time>2020-07-02T13:20:41Z</time>
      </trkpt>
      <trkpt lat="48.07941" lon="2.01793">
        <ele>127.6</ele>
        <time>2020-07-02T13:20:42Z</time>
      </trkpt>
      <trkpt lat="48.07936" lon="2.01789">
        <ele>127.5</ele>
        <time>2020-07-02T13:20:43Z</time>
      </trkpt>
      <trkpt lat="48.07929" lon="2.01784">
        <ele>127.5</ele>
        <time>2020-07-02T13:20:44Z</time>
      </trkpt>
      <trkpt lat="48.07925" lon="2.01781">
        <ele>127.5</ele>
        <time>2020-07-02T13:20:45Z</time>
      </trkpt>
      <trkpt lat="48.0792" lon="2.01777">
        <ele>127.5</ele>
        <time>2020-07-02T13:20:46Z</time>
      </trkpt>
      <trkpt lat="48.07915" lon="2.01774">
        <ele>127.5</ele>
        <time>2020-07-02T13:20:47Z</time>
      </trkpt>
      <trkpt lat="48.0791" lon="2.0177">
        <ele>127.5</ele>
        <time>2020-07-02T13:20:48Z</time>
      </trkpt>
      <trkpt lat="48.07905" lon="2.01766">
        <ele>127.5</ele>
        <time>2020-07-02T13:20:49Z</time>
      </trkpt>
      <trkpt lat="48.079" lon="2.01762">
        <ele>127.5</ele>
        <time>2020-07-02T13:20:50Z</time>
      </trkpt>
      <trkpt lat="48.07895" lon="2.01758">
        <ele>127.5</ele>
        <time>2020-07-02T13:20:51Z</time>
      </trkpt>
      <trkpt lat="48.0789" lon="2.01754">
        <ele>127.5</ele>
        <time>2020-07-02T13:20:52Z</time>
      </trkpt>
      <trkpt lat="48.07885" lon="2.01751">
        <ele>127.4</ele>
        <time>2020-07-02T13:20:53Z</time>
      </trkpt>
      <trkpt lat="48.0788" lon="2.01747">
        <ele>127.4</ele>
        <time>2020-07-02T13:20:54Z</time>
      </trkpt>
      <trkpt lat="48.07875" lon="2.01745">
        <ele>127.4</ele>
        <time>2020-07-02T13:20:55Z</time>
      </trkpt>
      <trkpt lat="48.0787" lon="2.01741">
        <ele>127.4</ele>
        <time>2020-07-02T13:20:56Z</time>
      </trkpt>
      <trkpt lat="48.07864" lon="2.01737">
        <ele>127.4</ele>
        <time>2020-07-02T13:20:57Z</time>
      </trkpt>
      <trkpt lat="48.07858" lon="2.01734">
        <ele>127.4</ele>
        <time>2020-07-02T13:20:58Z</time>
      </trkpt>
      <trkpt lat="48.07852" lon="2.01729">
        <ele>127.4</ele>
        <time>2020-07-02T13:20:59Z</time>
      </trkpt>
      <trkpt lat="48.07848" lon="2.01726">
        <ele>127.4</ele>
        <time>2020-07-02T13:21:00Z</time>
      </trkpt>
      <trkpt lat="48.07842" lon="2.01721">
        <ele>127.4</ele>
        <time>2020-07-02T13:21:01Z</time>
      </trkpt>
      <trkpt lat="48.07837" lon="2.01717">
        <ele>127.3</ele>
        <time>2020-07-02T13:21:02Z</time>
      </trkpt>
      <trkpt lat="48.07831" lon="2.01712">
        <ele>127.3</ele>
        <time>2020-07-02T13:21:03Z</time>
      </trkpt>
      <trkpt lat="48.07826" lon="2.01709">
        <ele>127.3</ele>
        <time>2020-07-02T13:21:04Z</time>
      </trkpt>
      <trkpt lat="48.07823" lon="2.01705">
        <ele>127.2</ele>
        <time>2020-07-02T13:21:05Z</time>
      </trkpt>
      <trkpt lat="48.07818" lon="2.01701">
        <ele>127.2</ele>
        <time>2020-07-02T13:21:06Z</time>
      </trkpt>
      <trkpt lat="48.07812" lon="2.01696">
        <ele>127.2</ele>
        <time>2020-07-02T13:21:07Z</time>
      </trkpt>
      <trkpt lat="48.07807" lon="2.01693">
        <ele>127.2</ele>
        <time>2020-07-02T13:21:08Z</time>
      </trkpt>
      <trkpt lat="48.07802" lon="2.01689">
        <ele>127.2</ele>
        <time>2020-07-02T13:21:09Z</time>
      </trkpt>
      <trkpt lat="48.07797" lon="2.01685">
        <ele>127.2</ele>
        <time>2020-07-02T13:21:10Z</time>
      </trkpt>
      <trkpt lat="48.0779" lon="2.0168">
        <ele>127.2</ele>
        <time>2020-07-02T13:21:11Z</time>
      </trkpt>
      <trkpt lat="48.07785" lon="2.01676">
        <ele>127.2</ele>
        <time>2020-07-02T13:21:12Z</time>
      </trkpt>
      <trkpt lat="48.07779" lon="2.01671">
        <ele>127.3</ele>
        <time>2020-07-02T13:21:13Z</time>
      </trkpt>
      <trkpt lat="48.07773" lon="2.01667">
        <ele>127.3</ele>
        <time>2020-07-02T13:21:14Z</time>
      </trkpt>
      <trkpt lat="48.07767" lon="2.01662">
        <ele>127.4</ele>
        <time>2020-07-02T13:21:15Z</time>
      </trkpt>
      <trkpt lat="48.07762" lon="2.01657">
        <ele>127.5</ele>
        <time>2020-07-02T13:21:16Z</time>
      </trkpt>
      <trkpt lat="48.07757" lon="2.01654">
        <ele>127.5</ele>
        <time>2020-07-02T13:21:17Z</time>
      </trkpt>
      <trkpt lat="48.07751" lon="2.01651">
        <ele>127.5</ele>
        <time>2020-07-02T13:21:18Z</time>
      </trkpt>
      <trkpt lat="48.07746" lon="2.01647">
        <ele>127.5</ele>
        <time>2020-07-02T13:21:19Z</time>
      </trkpt>
      <trkpt lat="48.0774" lon="2.01643">
        <ele>127.5</ele>
        <time>2020-07-02T13:21:20Z</time>
      </trkpt>
      <trkpt lat="48.07736" lon="2.0164">
        <ele>127.6</ele>
        <time>2020-07-02T13:21:21Z</time>
      </trkpt>
      <trkpt lat="48.0773" lon="2.01636">
        <ele>127.7</ele>
        <time>2020-07-02T13:21:22Z</time>
      </trkpt>
      <trkpt lat="48.07725" lon="2.01632">
        <ele>127.7</ele>
        <time>2020-07-02T13:21:23Z</time>
      </trkpt>
      <trkpt lat="48.0772" lon="2.01628">
        <ele>127.8</ele>
        <time>2020-07-02T13:21:24Z</time>
      </trkpt>
      <trkpt lat="48.07715" lon="2.01624">
        <ele>127.9</ele>
        <time>2020-07-02T13:21:25Z</time>
      </trkpt>
      <trkpt lat="48.07709" lon="2.01619">
        <ele>128</ele>
        <time>2020-07-02T13:21:26Z</time>
      </trkpt>
      <trkpt lat="48.07704" lon="2.01615">
        <ele>128</ele>
        <time>2020-07-02T13:21:27Z</time>
      </trkpt>
      <trkpt lat="48.07699" lon="2.01612">
        <ele>128</ele>
        <time>2020-07-02T13:21:28Z</time>
      </trkpt>
      <trkpt lat="48.07693" lon="2.01605">
        <ele>128</ele>
        <time>2020-07-02T13:21:29Z</time>
      </trkpt>
      <trkpt lat="48.07687" lon="2.016">
        <ele>128</ele>
        <time>2020-07-02T13:21:30Z</time>
      </trkpt>
      <trkpt lat="48.07682" lon="2.01596">
        <ele>128</ele>
        <time>2020-07-02T13:21:31Z</time>
      </trkpt>
      <trkpt lat="48.07677" lon="2.01591">
        <ele>128.1</ele>
        <time>2020-07-02T13:21:32Z</time>
      </trkpt>
      <trkpt lat="48.07672" lon="2.01588">
        <ele>128.1</ele>
        <time>2020-07-02T13:21:33Z</time>
      </trkpt>
      <trkpt lat="48.07667" lon="2.01583">
        <ele>128.2</ele>
        <time>2020-07-02T13:21:34Z</time>
      </trkpt>
      <trkpt lat="48.07661" lon="2.01577">
        <ele>128.2</ele>
        <time>2020-07-02T13:21:35Z</time>
      </trkpt>
      <trkpt lat="48.07655" lon="2.01572">
        <ele>128.2</ele>
        <time>2020-07-02T13:21:36Z</time>
      </trkpt>
      <trkpt lat="48.07649" lon="2.01568">
        <ele>128.3</ele>
        <time>2020-07-02T13:21:37Z</time>
      </trkpt>
      <trkpt lat="48.07644" lon="2.01564">
        <ele>128.3</ele>
        <time>2020-07-02T13:21:38Z</time>
      </trkpt>
      <trkpt lat="48.07638" lon="2.01559">
        <ele>128.3</ele>
        <time>2020-07-02T13:21:39Z</time>
      </trkpt>
      <trkpt lat="48.07632" lon="2.01555">
        <ele>128.4</ele>
        <time>2020-07-02T13:21:40Z</time>
      </trkpt>
      <trkpt lat="48.07627" lon="2.01551">
        <ele>128.5</ele>
        <time>2020-07-02T13:21:41Z</time>
      </trkpt>
      <trkpt lat="48.07621" lon="2.01547">
        <ele>128.6</ele>
        <time>2020-07-02T13:21:42Z</time>
      </trkpt>
      <trkpt lat="48.07616" lon="2.01543">
        <ele>128.7</ele>
        <time>2020-07-02T13:21:43Z</time>
      </trkpt>
      <trkpt lat="48.07611" lon="2.01539">
        <ele>128.7</ele>
        <time>2020-07-02T13:21:44Z</time>
      </trkpt>
      <trkpt lat="48.07605" lon="2.01534">
        <ele>128.8</ele>
        <time>2020-07-02T13:21:45Z</time>
      </trkpt>
      <trkpt lat="48.076" lon="2.0153">
        <ele>128.8</ele>
        <time>2020-07-02T13:21:46Z</time>
      </trkpt>
      <trkpt lat="48.07594" lon="2.01526">
        <ele>128.9</ele>
        <time>2020-07-02T13:21:47Z</time>
      </trkpt>
      <trkpt lat="48.07589" lon="2.01522">
        <ele>128.9</ele>
        <time>2020-07-02T13:21:48Z</time>
      </trkpt>
      <trkpt lat="48.07584" lon="2.01518">
        <ele>128.9</ele>
        <time>2020-07-02T13:21:49Z</time>
      </trkpt>
      <trkpt lat="48.07578" lon="2.01514">
        <ele>129</ele>
        <time>2020-07-02T13:21:50Z</time>
      </trkpt>
      <trkpt lat="48.07572" lon="2.01509">
        <ele>129</ele>
        <time>2020-07-02T13:21:51Z</time>
      </trkpt>
      <trkpt lat="48.07566" lon="2.01505">
        <ele>129</ele>
        <time>2020-07-02T13:21:52Z</time>
      </trkpt>
      <trkpt lat="48.07561" lon="2.01501">
        <ele>129.1</ele>
        <time>2020-07-02T13:21:53Z</time>
      </trkpt>
      <trkpt lat="48.07555" lon="2.01496">
        <ele>129.1</ele>
        <time>2020-07-02T13:21:54Z</time>
      </trkpt>
      <trkpt lat="48.0755" lon="2.01491">
        <ele>129.1</ele>
        <time>2020-07-02T13:21:55Z</time>
      </trkpt>
      <trkpt lat="48.07545" lon="2.01486">
        <ele>129.1</ele>
        <time>2020-07-02T13:21:56Z</time>
      </trkpt>
      <trkpt lat="48.0754" lon="2.01482">
        <ele>129.1</ele>
        <time>2020-07-02T13:21:57Z</time>
      </trkpt>
      <trkpt lat="48.07534" lon="2.01477">
        <ele>129.1</ele>
        <time>2020-07-02T13:21:58Z</time>
      </trkpt>
      <trkpt lat="48.0753" lon="2.01474">
        <ele>129.1</ele>
        <time>2020-07-02T13:21:59Z</time>
      </trkpt>
      <trkpt lat="48.07525" lon="2.0147">
        <ele>129.2</ele>
        <time>2020-07-02T13:22:00Z</time>
      </trkpt>
      <trkpt lat="48.07521" lon="2.01466">
        <ele>129.2</ele>
        <time>2020-07-02T13:22:01Z</time>
      </trkpt>
      <trkpt lat="48.07516" lon="2.01461">
        <ele>129.2</ele>
        <time>2020-07-02T13:22:02Z</time>
      </trkpt>
      <trkpt lat="48.07509" lon="2.01456">
        <ele>129.2</ele>
        <time>2020-07-02T13:22:03Z</time>
      </trkpt>
      <trkpt lat="48.07503" lon="2.01451">
        <ele>129.2</ele>
        <time>2020-07-02T13:22:04Z</time>
      </trkpt>
      <trkpt lat="48.07498" lon="2.01446">
        <ele>129.1</ele>
        <time>2020-07-02T13:22:05Z</time>
      </trkpt>
      <trkpt lat="48.07493" lon="2.01442">
        <ele>129.1</ele>
        <time>2020-07-02T13:22:06Z</time>
      </trkpt>
      <trkpt lat="48.07487" lon="2.01437">
        <ele>129.1</ele>
        <time>2020-07-02T13:22:07Z</time>
      </trkpt>
      <trkpt lat="48.07482" lon="2.01433">
        <ele>129</ele>
        <time>2020-07-02T13:22:08Z</time>
      </trkpt>
      <trkpt lat="48.07476" lon="2.01428">
        <ele>129</ele>
        <time>2020-07-02T13:22:09Z</time>
      </trkpt>
      <trkpt lat="48.0747" lon="2.01423">
        <ele>129</ele>
        <time>2020-07-02T13:22:10Z</time>
      </trkpt>
      <trkpt lat="48.07464" lon="2.01417">
        <ele>128.9</ele>
        <time>2020-07-02T13:22:11Z</time>
      </trkpt>
      <trkpt lat="48.07458" lon="2.01411">
        <ele>128.8</ele>
        <time>2020-07-02T13:22:12Z</time>
      </trkpt>
      <trkpt lat="48.07453" lon="2.01407">
        <ele>128.8</ele>
        <time>2020-07-02T13:22:13Z</time>
      </trkpt>
      <trkpt lat="48.07448" lon="2.01402">
        <ele>128.7</ele>
        <time>2020-07-02T13:22:14Z</time>
      </trkpt>
      <trkpt lat="48.07443" lon="2.01397">
        <ele>128.7</ele>
        <time>2020-07-02T13:22:15Z</time>
      </trkpt>
      <trkpt lat="48.07438" lon="2.01393">
        <ele>128.7</ele>
        <time>2020-07-02T13:22:16Z</time>
      </trkpt>
      <trkpt lat="48.07432" lon="2.01388">
        <ele>128.6</ele>
        <time>2020-07-02T13:22:17Z</time>
      </trkpt>
      <trkpt lat="48.07427" lon="2.01382">
        <ele>128.6</ele>
        <time>2020-07-02T13:22:18Z</time>
      </trkpt>
      <trkpt lat="48.07422" lon="2.01376">
        <ele>128.5</ele>
        <time>2020-07-02T13:22:19Z</time>
      </trkpt>
      <trkpt lat="48.07418" lon="2.01371">
        <ele>128.4</ele>
        <time>2020-07-02T13:22:20Z</time>
      </trkpt>
      <trkpt lat="48.07414" lon="2.01366">
        <ele>128.4</ele>
        <time>2020-07-02T13:22:21Z</time>
      </trkpt>
      <trkpt lat="48.07406" lon="2.01359">
        <ele>128.2</ele>
        <time>2020-07-02T13:22:22Z</time>
      </trkpt>
      <trkpt lat="48.07402" lon="2.01354">
        <ele>128.2</ele>
        <time>2020-07-02T13:22:23Z</time>
      </trkpt>
      <trkpt lat="48.07396" lon="2.01348">
        <ele>128.1</ele>
        <time>2020-07-02T13:22:24Z</time>
      </trkpt>
      <trkpt lat="48.0739" lon="2.01342">
        <ele>128</ele>
        <time>2020-07-02T13:22:25Z</time>
      </trkpt>
      <trkpt lat="48.07384" lon="2.01336">
        <ele>127.9</ele>
        <time>2020-07-02T13:22:26Z</time>
      </trkpt>
      <trkpt lat="48.07378" lon="2.0133">
        <ele>127.8</ele>
        <time>2020-07-02T13:22:27Z</time>
      </trkpt>
      <trkpt lat="48.07372" lon="2.01325">
        <ele>127.5</ele>
        <time>2020-07-02T13:22:28Z</time>
      </trkpt>
      <trkpt lat="48.07367" lon="2.0132">
        <ele>127.1</ele>
        <time>2020-07-02T13:22:29Z</time>
      </trkpt>
      <trkpt lat="48.07361" lon="2.01314">
        <ele>126.8</ele>
        <time>2020-07-02T13:22:30Z</time>
      </trkpt>
      <trkpt lat="48.07355" lon="2.01308">
        <ele>126.5</ele>
        <time>2020-07-02T13:22:31Z</time>
      </trkpt>
      <trkpt lat="48.0735" lon="2.01304">
        <ele>126.4</ele>
        <time>2020-07-02T13:22:32Z</time>
      </trkpt>
      <trkpt lat="48.07344" lon="2.01298">
        <ele>126.3</ele>
        <time>2020-07-02T13:22:33Z</time>
      </trkpt>
      <trkpt lat="48.07338" lon="2.01292">
        <ele>126.2</ele>
        <time>2020-07-02T13:22:34Z</time>
      </trkpt>
      <trkpt lat="48.07333" lon="2.01286">
        <ele>126</ele>
        <time>2020-07-02T13:22:35Z</time>
      </trkpt>
      <trkpt lat="48.07327" lon="2.01281">
        <ele>125.9</ele>
        <time>2020-07-02T13:22:36Z</time>
      </trkpt>
      <trkpt lat="48.07321" lon="2.01276">
        <ele>125.8</ele>
        <time>2020-07-02T13:22:37Z</time>
      </trkpt>
      <trkpt lat="48.07316" lon="2.01271">
        <ele>125.8</ele>
        <time>2020-07-02T13:22:38Z</time>
      </trkpt>
      <trkpt lat="48.0731" lon="2.01266">
        <ele>125.8</ele>
        <time>2020-07-02T13:22:39Z</time>
      </trkpt>
      <trkpt lat="48.07304" lon="2.0126">
        <ele>125.8</ele>
        <time>2020-07-02T13:22:40Z</time>
      </trkpt>
      <trkpt lat="48.07299" lon="2.01254">
        <ele>125.8</ele>
        <time>2020-07-02T13:22:41Z</time>
      </trkpt>
      <trkpt lat="48.07293" lon="2.01249">
        <ele>125.7</ele>
        <time>2020-07-02T13:22:42Z</time>
      </trkpt>
      <trkpt lat="48.07287" lon="2.01243">
        <ele>125.7</ele>
        <time>2020-07-02T13:22:43Z</time>
      </trkpt>
      <trkpt lat="48.07282" lon="2.01237">
        <ele>125.7</ele>
        <time>2020-07-02T13:22:44Z</time>
      </trkpt>
      <trkpt lat="48.07277" lon="2.01231">
        <ele>125.7</ele>
        <time>2020-07-02T13:22:45Z</time>
      </trkpt>
      <trkpt lat="48.07271" lon="2.01225">
        <ele>125.8</ele>
        <time>2020-07-02T13:22:46Z</time>
      </trkpt>
      <trkpt lat="48.07266" lon="2.01219">
        <ele>125.7</ele>
        <time>2020-07-02T13:22:47Z</time>
      </trkpt>
      <trkpt lat="48.0726" lon="2.01214">
        <ele>125.7</ele>
        <time>2020-07-02T13:22:48Z</time>
      </trkpt>
      <trkpt lat="48.07254" lon="2.01209">
        <ele>125.7</ele>
        <time>2020-07-02T13:22:49Z</time>
      </trkpt>
      <trkpt lat="48.07249" lon="2.01203">
        <ele>125.7</ele>
        <time>2020-07-02T13:22:50Z</time>
      </trkpt>
      <trkpt lat="48.07243" lon="2.01198">
        <ele>125.7</ele>
        <time>2020-07-02T13:22:51Z</time>
      </trkpt>
      <trkpt lat="48.07238" lon="2.01193">
        <ele>125.7</ele>
        <time>2020-07-02T13:22:52Z</time>
      </trkpt>
      <trkpt lat="48.07232" lon="2.01188">
        <ele>125.8</ele>
        <time>2020-07-02T13:22:53Z</time>
      </trkpt>
      <trkpt lat="48.07226" lon="2.01182">
        <ele>125.8</ele>
        <time>2020-07-02T13:22:54Z</time>
      </trkpt>
      <trkpt lat="48.07221" lon="2.01177">
        <ele>125.7</ele>
        <time>2020-07-02T13:22:55Z</time>
      </trkpt>
      <trkpt lat="48.07215" lon="2.01171">
        <ele>125.6</ele>
        <time>2020-07-02T13:22:56Z</time>
      </trkpt>
      <trkpt lat="48.0721" lon="2.01165">
        <ele>125.5</ele>
        <time>2020-07-02T13:22:57Z</time>
      </trkpt>
      <trkpt lat="48.07205" lon="2.01159">
        <ele>125.5</ele>
        <time>2020-07-02T13:22:58Z</time>
      </trkpt>
      <trkpt lat="48.072" lon="2.01154">
        <ele>125.5</ele>
        <time>2020-07-02T13:22:59Z</time>
      </trkpt>
      <trkpt lat="48.07195" lon="2.01148">
        <ele>125.4</ele>
        <time>2020-07-02T13:23:00Z</time>
      </trkpt>
      <trkpt lat="48.0719" lon="2.01142">
        <ele>125.4</ele>
        <time>2020-07-02T13:23:01Z</time>
      </trkpt>
      <trkpt lat="48.07184" lon="2.01137">
        <ele>125.4</ele>
        <time>2020-07-02T13:23:02Z</time>
      </trkpt>
      <trkpt lat="48.07179" lon="2.01131">
        <ele>125.4</ele>
        <time>2020-07-02T13:23:03Z</time>
      </trkpt>
      <trkpt lat="48.07174" lon="2.01126">
        <ele>125.4</ele>
        <time>2020-07-02T13:23:04Z</time>
      </trkpt>
      <trkpt lat="48.07168" lon="2.0112">
        <ele>125.4</ele>
        <time>2020-07-02T13:23:05Z</time>
      </trkpt>
      <trkpt lat="48.07163" lon="2.01115">
        <ele>125.4</ele>
        <time>2020-07-02T13:23:06Z</time>
      </trkpt>
      <trkpt lat="48.07157" lon="2.0111">
        <ele>125.5</ele>
        <time>2020-07-02T13:23:07Z</time>
      </trkpt>
      <trkpt lat="48.07152" lon="2.01104">
        <ele>125.4</ele>
        <time>2020-07-02T13:23:08Z</time>
      </trkpt>
      <trkpt lat="48.07147" lon="2.01099">
        <ele>125.3</ele>
        <time>2020-07-02T13:23:09Z</time>
      </trkpt>
      <trkpt lat="48.07141" lon="2.01094">
        <ele>125.3</ele>
        <time>2020-07-02T13:23:10Z</time>
      </trkpt>
      <trkpt lat="48.07137" lon="2.01089">
        <ele>125.2</ele>
        <time>2020-07-02T13:23:11Z</time>
      </trkpt>
      <trkpt lat="48.07131" lon="2.01084">
        <ele>125.2</ele>
        <time>2020-07-02T13:23:12Z</time>
      </trkpt>
      <trkpt lat="48.07127" lon="2.0108">
        <ele>125.1</ele>
        <time>2020-07-02T13:23:13Z</time>
      </trkpt>
      <trkpt lat="48.07122" lon="2.01074">
        <ele>125.1</ele>
        <time>2020-07-02T13:23:14Z</time>
      </trkpt>
      <trkpt lat="48.07117" lon="2.01068">
        <ele>125</ele>
        <time>2020-07-02T13:23:15Z</time>
      </trkpt>
      <trkpt lat="48.07112" lon="2.01063">
        <ele>125</ele>
        <time>2020-07-02T13:23:16Z</time>
      </trkpt>
      <trkpt lat="48.07106" lon="2.01058">
        <ele>124.9</ele>
        <time>2020-07-02T13:23:17Z</time>
      </trkpt>
      <trkpt lat="48.07101" lon="2.01052">
        <ele>124.9</ele>
        <time>2020-07-02T13:23:18Z</time>
      </trkpt>
      <trkpt lat="48.07096" lon="2.01046">
        <ele>124.9</ele>
        <time>2020-07-02T13:23:19Z</time>
      </trkpt>
      <trkpt lat="48.07091" lon="2.01041">
        <ele>124.9</ele>
        <time>2020-07-02T13:23:20Z</time>
      </trkpt>
      <trkpt lat="48.07086" lon="2.01036">
        <ele>125</ele>
        <time>2020-07-02T13:23:21Z</time>
      </trkpt>
      <trkpt lat="48.07082" lon="2.01031">
        <ele>125</ele>
        <time>2020-07-02T13:23:22Z</time>
      </trkpt>
      <trkpt lat="48.07077" lon="2.01027">
        <ele>125.1</ele>
        <time>2020-07-02T13:23:23Z</time>
      </trkpt>
      <trkpt lat="48.07072" lon="2.01021">
        <ele>125.1</ele>
        <time>2020-07-02T13:23:24Z</time>
      </trkpt>
      <trkpt lat="48.07066" lon="2.01015">
        <ele>125.2</ele>
        <time>2020-07-02T13:23:25Z</time>
      </trkpt>
      <trkpt lat="48.07061" lon="2.01009">
        <ele>125.2</ele>
        <time>2020-07-02T13:23:26Z</time>
      </trkpt>
      <trkpt lat="48.07056" lon="2.01003">
        <ele>125.3</ele>
        <time>2020-07-02T13:23:27Z</time>
      </trkpt>
      <trkpt lat="48.07051" lon="2.00998">
        <ele>125.2</ele>
        <time>2020-07-02T13:23:28Z</time>
      </trkpt>
      <trkpt lat="48.07047" lon="2.00992">
        <ele>125.1</ele>
        <time>2020-07-02T13:23:29Z</time>
      </trkpt>
      <trkpt lat="48.07042" lon="2.00987">
        <ele>125</ele>
        <time>2020-07-02T13:23:30Z</time>
      </trkpt>
      <trkpt lat="48.07037" lon="2.00981">
        <ele>125</ele>
        <time>2020-07-02T13:23:31Z</time>
      </trkpt>
      <trkpt lat="48.07032" lon="2.00976">
        <ele>125</ele>
        <time>2020-07-02T13:23:32Z</time>
      </trkpt>
      <trkpt lat="48.07027" lon="2.00971">
        <ele>125</ele>
        <time>2020-07-02T13:23:33Z</time>
      </trkpt>
      <trkpt lat="48.07021" lon="2.00965">
        <ele>124.9</ele>
        <time>2020-07-02T13:23:34Z</time>
      </trkpt>
      <trkpt lat="48.07016" lon="2.0096">
        <ele>124.9</ele>
        <time>2020-07-02T13:23:35Z</time>
      </trkpt>
      <trkpt lat="48.07011" lon="2.00954">
        <ele>124.9</ele>
        <time>2020-07-02T13:23:36Z</time>
      </trkpt>
      <trkpt lat="48.07006" lon="2.00949">
        <ele>124.9</ele>
        <time>2020-07-02T13:23:37Z</time>
      </trkpt>
      <trkpt lat="48.07002" lon="2.00944">
        <ele>124.9</ele>
        <time>2020-07-02T13:23:38Z</time>
      </trkpt>
      <trkpt lat="48.06998" lon="2.00938">
        <ele>124.9</ele>
        <time>2020-07-02T13:23:39Z</time>
      </trkpt>
      <trkpt lat="48.06993" lon="2.00932">
        <ele>125</ele>
        <time>2020-07-02T13:23:40Z</time>
      </trkpt>
      <trkpt lat="48.06989" lon="2.00926">
        <ele>125</ele>
        <time>2020-07-02T13:23:41Z</time>
      </trkpt>
      <trkpt lat="48.06986" lon="2.0092">
        <ele>125</ele>
        <time>2020-07-02T13:23:42Z</time>
      </trkpt>
      <trkpt lat="48.06981" lon="2.00913">
        <ele>125</ele>
        <time>2020-07-02T13:23:43Z</time>
      </trkpt>
      <trkpt lat="48.06977" lon="2.00909">
        <ele>125</ele>
        <time>2020-07-02T13:23:44Z</time>
      </trkpt>
      <trkpt lat="48.06972" lon="2.00903">
        <ele>125</ele>
        <time>2020-07-02T13:23:45Z</time>
      </trkpt>
      <trkpt lat="48.06967" lon="2.00898">
        <ele>125.1</ele>
        <time>2020-07-02T13:23:46Z</time>
      </trkpt>
      <trkpt lat="48.06962" lon="2.00892">
        <ele>125.1</ele>
        <time>2020-07-02T13:23:47Z</time>
      </trkpt>
      <trkpt lat="48.06958" lon="2.00887">
        <ele>125.1</ele>
        <time>2020-07-02T13:23:48Z</time>
      </trkpt>
      <trkpt lat="48.06952" lon="2.00881">
        <ele>125.1</ele>
        <time>2020-07-02T13:23:49Z</time>
      </trkpt>
      <trkpt lat="48.06948" lon="2.00876">
        <ele>125.1</ele>
        <time>2020-07-02T13:23:50Z</time>
      </trkpt>
      <trkpt lat="48.06942" lon="2.0087">
        <ele>125.1</ele>
        <time>2020-07-02T13:23:51Z</time>
      </trkpt>
      <trkpt lat="48.06938" lon="2.00865">
        <ele>125.1</ele>
        <time>2020-07-02T13:23:52Z</time>
      </trkpt>
      <trkpt lat="48.06934" lon="2.0086">
        <ele>125.1</ele>
        <time>2020-07-02T13:23:53Z</time>
      </trkpt>
      <trkpt lat="48.06929" lon="2.00854">
        <ele>125.1</ele>
        <time>2020-07-02T13:23:54Z</time>
      </trkpt>
      <trkpt lat="48.06925" lon="2.00848">
        <ele>125.1</ele>
        <time>2020-07-02T13:23:55Z</time>
      </trkpt>
      <trkpt lat="48.0692" lon="2.00842">
        <ele>125.1</ele>
        <time>2020-07-02T13:23:56Z</time>
      </trkpt>
      <trkpt lat="48.06915" lon="2.00836">
        <ele>125.1</ele>
        <time>2020-07-02T13:23:57Z</time>
      </trkpt>
      <trkpt lat="48.0691" lon="2.00831">
        <ele>125.2</ele>
        <time>2020-07-02T13:23:58Z</time>
      </trkpt>
      <trkpt lat="48.06905" lon="2.00826">
        <ele>125.2</ele>
        <time>2020-07-02T13:23:59Z</time>
      </trkpt>
      <trkpt lat="48.06901" lon="2.00821">
        <ele>125.3</ele>
        <time>2020-07-02T13:24:00Z</time>
      </trkpt>
      <trkpt lat="48.06896" lon="2.00815">
        <ele>125.4</ele>
        <time>2020-07-02T13:24:01Z</time>
      </trkpt>
      <trkpt lat="48.06891" lon="2.0081">
        <ele>125.5</ele>
        <time>2020-07-02T13:24:02Z</time>
      </trkpt>
      <trkpt lat="48.06885" lon="2.00804">
        <ele>125.8</ele>
        <time>2020-07-02T13:24:03Z</time>
      </trkpt>
      <trkpt lat="48.0688" lon="2.00799">
        <ele>125.7</ele>
        <time>2020-07-02T13:24:04Z</time>
      </trkpt>
      <trkpt lat="48.06875" lon="2.00793">
        <ele>125.7</ele>
        <time>2020-07-02T13:24:05Z</time>
      </trkpt>
      <trkpt lat="48.0687" lon="2.00787">
        <ele>125.7</ele>
        <time>2020-07-02T13:24:06Z</time>
      </trkpt>
      <trkpt lat="48.06866" lon="2.00782">
        <ele>125.7</ele>
        <time>2020-07-02T13:24:07Z</time>
      </trkpt>
      <trkpt lat="48.06862" lon="2.00776">
        <ele>125.6</ele>
        <time>2020-07-02T13:24:08Z</time>
      </trkpt>
      <trkpt lat="48.06857" lon="2.00769">
        <ele>125.7</ele>
        <time>2020-07-02T13:24:09Z</time>
      </trkpt>
      <trkpt lat="48.06853" lon="2.00763">
        <ele>125.7</ele>
        <time>2020-07-02T13:24:10Z</time>
      </trkpt>
      <trkpt lat="48.06849" lon="2.00759">
        <ele>125.7</ele>
        <time>2020-07-02T13:24:11Z</time>
      </trkpt>
      <trkpt lat="48.06845" lon="2.00754">
        <ele>125.7</ele>
        <time>2020-07-02T13:24:12Z</time>
      </trkpt>
      <trkpt lat="48.0684" lon="2.00748">
        <ele>125.7</ele>
        <time>2020-07-02T13:24:13Z</time>
      </trkpt>
      <trkpt lat="48.06835" lon="2.00743">
        <ele>125.7</ele>
        <time>2020-07-02T13:24:14Z</time>
      </trkpt>
      <trkpt lat="48.0683" lon="2.00738">
        <ele>125.6</ele>
        <time>2020-07-02T13:24:15Z</time>
      </trkpt>
      <trkpt lat="48.06826" lon="2.00733">
        <ele>125.6</ele>
        <time>2020-07-02T13:24:16Z</time>
      </trkpt>
      <trkpt lat="48.06821" lon="2.00727">
        <ele>125.6</ele>
        <time>2020-07-02T13:24:17Z</time>
      </trkpt>
      <trkpt lat="48.06817" lon="2.00722">
        <ele>125.6</ele>
        <time>2020-07-02T13:24:18Z</time>
      </trkpt>
      <trkpt lat="48.06812" lon="2.00716">
        <ele>125.5</ele>
        <time>2020-07-02T13:24:19Z</time>
      </trkpt>
      <trkpt lat="48.06807" lon="2.00711">
        <ele>125.5</ele>
        <time>2020-07-02T13:24:20Z</time>
      </trkpt>
      <trkpt lat="48.06803" lon="2.00706">
        <ele>125.5</ele>
        <time>2020-07-02T13:24:21Z</time>
      </trkpt>
      <trkpt lat="48.06799" lon="2.00699">
        <ele>125.5</ele>
        <time>2020-07-02T13:24:22Z</time>
      </trkpt>
      <trkpt lat="48.06795" lon="2.00694">
        <ele>125.5</ele>
        <time>2020-07-02T13:24:23Z</time>
      </trkpt>
      <trkpt lat="48.0679" lon="2.00687">
        <ele>125.5</ele>
        <time>2020-07-02T13:24:24Z</time>
      </trkpt>
      <trkpt lat="48.06785" lon="2.00682">
        <ele>125.5</ele>
        <time>2020-07-02T13:24:25Z</time>
      </trkpt>
      <trkpt lat="48.0678" lon="2.00675">
        <ele>125.5</ele>
        <time>2020-07-02T13:24:26Z</time>
      </trkpt>
      <trkpt lat="48.06775" lon="2.0067">
        <ele>125.5</ele>
        <time>2020-07-02T13:24:27Z</time>
      </trkpt>
      <trkpt lat="48.0677" lon="2.00665">
        <ele>125.5</ele>
        <time>2020-07-02T13:24:28Z</time>
      </trkpt>
      <trkpt lat="48.06766" lon="2.0066">
        <ele>125.5</ele>
        <time>2020-07-02T13:24:29Z</time>
      </trkpt>
      <trkpt lat="48.06762" lon="2.00654">
        <ele>125.5</ele>
        <time>2020-07-02T13:24:30Z</time>
      </trkpt>
      <trkpt lat="48.06757" lon="2.00649">
        <ele>125.5</ele>
        <time>2020-07-02T13:24:31Z</time>
      </trkpt>
      <trkpt lat="48.06752" lon="2.00642">
        <ele>125.5</ele>
        <time>2020-07-02T13:24:32Z</time>
      </trkpt>
      <trkpt lat="48.06747" lon="2.00637">
        <ele>125.5</ele>
        <time>2020-07-02T13:24:33Z</time>
      </trkpt>
      <trkpt lat="48.06743" lon="2.00631">
        <ele>125.5</ele>
        <time>2020-07-02T13:24:34Z</time>
      </trkpt>
      <trkpt lat="48.06738" lon="2.00625">
        <ele>125.5</ele>
        <time>2020-07-02T13:24:35Z</time>
      </trkpt>
      <trkpt lat="48.06733" lon="2.00619">
        <ele>125.4</ele>
        <time>2020-07-02T13:24:36Z</time>
      </trkpt>
      <trkpt lat="48.06728" lon="2.00613">
        <ele>125.4</ele>
        <time>2020-07-02T13:24:37Z</time>
      </trkpt>
      <trkpt lat="48.06723" lon="2.00608">
        <ele>125.4</ele>
        <time>2020-07-02T13:24:38Z</time>
      </trkpt>
      <trkpt lat="48.06719" lon="2.00602">
        <ele>125.4</ele>
        <time>2020-07-02T13:24:39Z</time>
      </trkpt>
      <trkpt lat="48.06713" lon="2.00597">
        <ele>125.4</ele>
        <time>2020-07-02T13:24:40Z</time>
      </trkpt>
      <trkpt lat="48.06709" lon="2.00592">
        <ele>125.4</ele>
        <time>2020-07-02T13:24:41Z</time>
      </trkpt>
      <trkpt lat="48.06704" lon="2.00587">
        <ele>125.4</ele>
        <time>2020-07-02T13:24:42Z</time>
      </trkpt>
      <trkpt lat="48.06699" lon="2.00581">
        <ele>125.5</ele>
        <time>2020-07-02T13:24:43Z</time>
      </trkpt>
      <trkpt lat="48.06695" lon="2.00576">
        <ele>125.5</ele>
        <time>2020-07-02T13:24:44Z</time>
      </trkpt>
      <trkpt lat="48.06689" lon="2.0057">
        <ele>125.5</ele>
        <time>2020-07-02T13:24:45Z</time>
      </trkpt>
      <trkpt lat="48.06685" lon="2.00564">
        <ele>125.5</ele>
        <time>2020-07-02T13:24:46Z</time>
      </trkpt>
      <trkpt lat="48.0668" lon="2.00558">
        <ele>125.4</ele>
        <time>2020-07-02T13:24:47Z</time>
      </trkpt>
      <trkpt lat="48.06677" lon="2.00553">
        <ele>125.4</ele>
        <time>2020-07-02T13:24:48Z</time>
      </trkpt>
      <trkpt lat="48.06672" lon="2.00547">
        <ele>125.4</ele>
        <time>2020-07-02T13:24:49Z</time>
      </trkpt>
      <trkpt lat="48.06667" lon="2.00541">
        <ele>125.3</ele>
        <time>2020-07-02T13:24:50Z</time>
      </trkpt>
      <trkpt lat="48.06662" lon="2.00537">
        <ele>125.3</ele>
        <time>2020-07-02T13:24:51Z</time>
      </trkpt>
      <trkpt lat="48.06658" lon="2.00532">
        <ele>125.3</ele>
        <time>2020-07-02T13:24:52Z</time>
      </trkpt>
      <trkpt lat="48.06652" lon="2.00527">
        <ele>125.3</ele>
        <time>2020-07-02T13:24:53Z</time>
      </trkpt>
      <trkpt lat="48.06646" lon="2.00522">
        <ele>125.2</ele>
        <time>2020-07-02T13:24:54Z</time>
      </trkpt>
      <trkpt lat="48.06641" lon="2.00517">
        <ele>125.2</ele>
        <time>2020-07-02T13:24:55Z</time>
      </trkpt>
      <trkpt lat="48.06636" lon="2.00513">
        <ele>125.1</ele>
        <time>2020-07-02T13:24:56Z</time>
      </trkpt>
      <trkpt lat="48.06631" lon="2.00507">
        <ele>125.1</ele>
        <time>2020-07-02T13:24:57Z</time>
      </trkpt>
      <trkpt lat="48.06626" lon="2.00502">
        <ele>125.1</ele>
        <time>2020-07-02T13:24:58Z</time>
      </trkpt>
      <trkpt lat="48.06623" lon="2.00497">
        <ele>125.1</ele>
        <time>2020-07-02T13:24:59Z</time>
      </trkpt>
      <trkpt lat="48.06618" lon="2.00491">
        <ele>125.1</ele>
        <time>2020-07-02T13:25:00Z</time>
      </trkpt>
      <trkpt lat="48.06613" lon="2.00486">
        <ele>125.1</ele>
        <time>2020-07-02T13:25:01Z</time>
      </trkpt>
      <trkpt lat="48.06609" lon="2.00481">
        <ele>125.1</ele>
        <time>2020-07-02T13:25:02Z</time>
      </trkpt>
      <trkpt lat="48.06605" lon="2.00477">
        <ele>125.1</ele>
        <time>2020-07-02T13:25:03Z</time>
      </trkpt>
      <trkpt lat="48.066" lon="2.00472">
        <ele>125</ele>
        <time>2020-07-02T13:25:04Z</time>
      </trkpt>
      <trkpt lat="48.06595" lon="2.00466">
        <ele>125</ele>
        <time>2020-07-02T13:25:05Z</time>
      </trkpt>
      <trkpt lat="48.0659" lon="2.0046">
        <ele>125</ele>
        <time>2020-07-02T13:25:06Z</time>
      </trkpt>
      <trkpt lat="48.06585" lon="2.00454">
        <ele>124.9</ele>
        <time>2020-07-02T13:25:07Z</time>
      </trkpt>
      <trkpt lat="48.06579" lon="2.00447">
        <ele>124.9</ele>
        <time>2020-07-02T13:25:08Z</time>
      </trkpt>
      <trkpt lat="48.06574" lon="2.00441">
        <ele>124.9</ele>
        <time>2020-07-02T13:25:09Z</time>
      </trkpt>
      <trkpt lat="48.06569" lon="2.00435">
        <ele>124.8</ele>
        <time>2020-07-02T13:25:10Z</time>
      </trkpt>
      <trkpt lat="48.06564" lon="2.0043">
        <ele>124.6</ele>
        <time>2020-07-02T13:25:11Z</time>
      </trkpt>
      <trkpt lat="48.0656" lon="2.00425">
        <ele>124.5</ele>
        <time>2020-07-02T13:25:12Z</time>
      </trkpt>
      <trkpt lat="48.06555" lon="2.0042">
        <ele>124.4</ele>
        <time>2020-07-02T13:25:13Z</time>
      </trkpt>
      <trkpt lat="48.06551" lon="2.00415">
        <ele>124.3</ele>
        <time>2020-07-02T13:25:14Z</time>
      </trkpt>
      <trkpt lat="48.06546" lon="2.0041">
        <ele>124.2</ele>
        <time>2020-07-02T13:25:15Z</time>
      </trkpt>
      <trkpt lat="48.06542" lon="2.00405">
        <ele>124.2</ele>
        <time>2020-07-02T13:25:16Z</time>
      </trkpt>
      <trkpt lat="48.06537" lon="2.00399">
        <ele>124.1</ele>
        <time>2020-07-02T13:25:17Z</time>
      </trkpt>
      <trkpt lat="48.06533" lon="2.00394">
        <ele>124</ele>
        <time>2020-07-02T13:25:18Z</time>
      </trkpt>
      <trkpt lat="48.06528" lon="2.00388">
        <ele>124</ele>
        <time>2020-07-02T13:25:19Z</time>
      </trkpt>
      <trkpt lat="48.06523" lon="2.00384">
        <ele>124</ele>
        <time>2020-07-02T13:25:20Z</time>
      </trkpt>
      <trkpt lat="48.06519" lon="2.00378">
        <ele>124</ele>
        <time>2020-07-02T13:25:21Z</time>
      </trkpt>
      <trkpt lat="48.06515" lon="2.00374">
        <ele>124</ele>
        <time>2020-07-02T13:25:22Z</time>
      </trkpt>
      <trkpt lat="48.06509" lon="2.00369">
        <ele>124</ele>
        <time>2020-07-02T13:25:23Z</time>
      </trkpt>
      <trkpt lat="48.06504" lon="2.00364">
        <ele>124</ele>
        <time>2020-07-02T13:25:24Z</time>
      </trkpt>
      <trkpt lat="48.06499" lon="2.00359">
        <ele>124</ele>
        <time>2020-07-02T13:25:25Z</time>
      </trkpt>
      <trkpt lat="48.06494" lon="2.00354">
        <ele>124</ele>
        <time>2020-07-02T13:25:26Z</time>
      </trkpt>
      <trkpt lat="48.06488" lon="2.00349">
        <ele>124</ele>
        <time>2020-07-02T13:25:27Z</time>
      </trkpt>
      <trkpt lat="48.06483" lon="2.00344">
        <ele>124</ele>
        <time>2020-07-02T13:25:28Z</time>
      </trkpt>
      <trkpt lat="48.06478" lon="2.00339">
        <ele>124</ele>
        <time>2020-07-02T13:25:29Z</time>
      </trkpt>
      <trkpt lat="48.06473" lon="2.00333">
        <ele>124</ele>
        <time>2020-07-02T13:25:30Z</time>
      </trkpt>
      <trkpt lat="48.06469" lon="2.00328">
        <ele>124</ele>
        <time>2020-07-02T13:25:31Z</time>
      </trkpt>
      <trkpt lat="48.06464" lon="2.00323">
        <ele>123.9</ele>
        <time>2020-07-02T13:25:32Z</time>
      </trkpt>
      <trkpt lat="48.06459" lon="2.00317">
        <ele>123.9</ele>
        <time>2020-07-02T13:25:33Z</time>
      </trkpt>
      <trkpt lat="48.06455" lon="2.00312">
        <ele>123.9</ele>
        <time>2020-07-02T13:25:34Z</time>
      </trkpt>
      <trkpt lat="48.06451" lon="2.00307">
        <ele>123.9</ele>
        <time>2020-07-02T13:25:35Z</time>
      </trkpt>
      <trkpt lat="48.06446" lon="2.003">
        <ele>123.9</ele>
        <time>2020-07-02T13:25:36Z</time>
      </trkpt>
      <trkpt lat="48.06441" lon="2.00296">
        <ele>123.9</ele>
        <time>2020-07-02T13:25:37Z</time>
      </trkpt>
      <trkpt lat="48.06437" lon="2.00292">
        <ele>124</ele>
        <time>2020-07-02T13:25:38Z</time>
      </trkpt>
      <trkpt lat="48.06433" lon="2.00287">
        <ele>124</ele>
        <time>2020-07-02T13:25:39Z</time>
      </trkpt>
      <trkpt lat="48.06428" lon="2.00282">
        <ele>123.9</ele>
        <time>2020-07-02T13:25:40Z</time>
      </trkpt>
      <trkpt lat="48.06423" lon="2.00276">
        <ele>123.9</ele>
        <time>2020-07-02T13:25:41Z</time>
      </trkpt>
      <trkpt lat="48.06418" lon="2.00271">
        <ele>123.8</ele>
        <time>2020-07-02T13:25:42Z</time>
      </trkpt>
      <trkpt lat="48.06413" lon="2.00266">
        <ele>123.7</ele>
        <time>2020-07-02T13:25:43Z</time>
      </trkpt>
      <trkpt lat="48.06408" lon="2.0026">
        <ele>123.7</ele>
        <time>2020-07-02T13:25:44Z</time>
      </trkpt>
      <trkpt lat="48.06404" lon="2.00254">
        <ele>123.7</ele>
        <time>2020-07-02T13:25:45Z</time>
      </trkpt>
      <trkpt lat="48.06399" lon="2.00249">
        <ele>123.7</ele>
        <time>2020-07-02T13:25:46Z</time>
      </trkpt>
      <trkpt lat="48.06394" lon="2.00243">
        <ele>123.7</ele>
        <time>2020-07-02T13:25:47Z</time>
      </trkpt>
      <trkpt lat="48.06389" lon="2.00237">
        <ele>123.8</ele>
        <time>2020-07-02T13:25:48Z</time>
      </trkpt>
      <trkpt lat="48.06385" lon="2.00232">
        <ele>123.8</ele>
        <time>2020-07-02T13:25:49Z</time>
      </trkpt>
      <trkpt lat="48.0638" lon="2.00224">
        <ele>123.7</ele>
        <time>2020-07-02T13:25:50Z</time>
      </trkpt>
      <trkpt lat="48.06375" lon="2.00219">
        <ele>123.7</ele>
        <time>2020-07-02T13:25:51Z</time>
      </trkpt>
      <trkpt lat="48.06371" lon="2.00214">
        <ele>123.7</ele>
        <time>2020-07-02T13:25:52Z</time>
      </trkpt>
      <trkpt lat="48.06366" lon="2.00209">
        <ele>123.7</ele>
        <time>2020-07-02T13:25:53Z</time>
      </trkpt>
      <trkpt lat="48.0636" lon="2.00203">
        <ele>123.7</ele>
        <time>2020-07-02T13:25:54Z</time>
      </trkpt>
      <trkpt lat="48.06355" lon="2.00196">
        <ele>123.7</ele>
        <time>2020-07-02T13:25:55Z</time>
      </trkpt>
      <trkpt lat="48.0635" lon="2.0019">
        <ele>123.7</ele>
        <time>2020-07-02T13:25:56Z</time>
      </trkpt>
      <trkpt lat="48.06345" lon="2.00184">
        <ele>123.7</ele>
        <time>2020-07-02T13:25:57Z</time>
      </trkpt>
      <trkpt lat="48.06341" lon="2.0018">
        <ele>123.7</ele>
        <time>2020-07-02T13:25:58Z</time>
      </trkpt>
      <trkpt lat="48.06336" lon="2.00176">
        <ele>123.6</ele>
        <time>2020-07-02T13:25:59Z</time>
      </trkpt>
      <trkpt lat="48.0633" lon="2.00171">
        <ele>123.6</ele>
        <time>2020-07-02T13:26:00Z</time>
      </trkpt>
      <trkpt lat="48.06326" lon="2.00165">
        <ele>123.6</ele>
        <time>2020-07-02T13:26:01Z</time>
      </trkpt>
      <trkpt lat="48.06321" lon="2.00161">
        <ele>123.6</ele>
        <time>2020-07-02T13:26:02Z</time>
      </trkpt>
      <trkpt lat="48.06316" lon="2.00156">
        <ele>123.6</ele>
        <time>2020-07-02T13:26:03Z</time>
      </trkpt>
      <trkpt lat="48.06312" lon="2.00151">
        <ele>123.7</ele>
        <time>2020-07-02T13:26:04Z</time>
      </trkpt>
      <trkpt lat="48.06307" lon="2.00146">
        <ele>123.7</ele>
        <time>2020-07-02T13:26:05Z</time>
      </trkpt>
      <trkpt lat="48.06302" lon="2.00141">
        <ele>123.7</ele>
        <time>2020-07-02T13:26:06Z</time>
      </trkpt>
      <trkpt lat="48.06297" lon="2.00135">
        <ele>123.7</ele>
        <time>2020-07-02T13:26:07Z</time>
      </trkpt>
      <trkpt lat="48.06292" lon="2.0013">
        <ele>123.8</ele>
        <time>2020-07-02T13:26:08Z</time>
      </trkpt>
      <trkpt lat="48.06287" lon="2.00125">
        <ele>123.8</ele>
        <time>2020-07-02T13:26:09Z</time>
      </trkpt>
      <trkpt lat="48.06281" lon="2.0012">
        <ele>123.9</ele>
        <time>2020-07-02T13:26:10Z</time>
      </trkpt>
      <trkpt lat="48.06276" lon="2.00115">
        <ele>123.8</ele>
        <time>2020-07-02T13:26:11Z</time>
      </trkpt>
      <trkpt lat="48.06271" lon="2.00108">
        <ele>123.6</ele>
        <time>2020-07-02T13:26:12Z</time>
      </trkpt>
      <trkpt lat="48.06266" lon="2.00103">
        <ele>123.5</ele>
        <time>2020-07-02T13:26:13Z</time>
      </trkpt>
      <trkpt lat="48.06261" lon="2.00097">
        <ele>123.4</ele>
        <time>2020-07-02T13:26:14Z</time>
      </trkpt>
      <trkpt lat="48.06255" lon="2.00092">
        <ele>123.3</ele>
        <time>2020-07-02T13:26:15Z</time>
      </trkpt>
      <trkpt lat="48.0625" lon="2.00086">
        <ele>123.3</ele>
        <time>2020-07-02T13:26:16Z</time>
      </trkpt>
      <trkpt lat="48.06245" lon="2.00081">
        <ele>123.3</ele>
        <time>2020-07-02T13:26:17Z</time>
      </trkpt>
      <trkpt lat="48.06241" lon="2.00074">
        <ele>123.3</ele>
        <time>2020-07-02T13:26:18Z</time>
      </trkpt>
      <trkpt lat="48.06236" lon="2.00069">
        <ele>123.3</ele>
        <time>2020-07-02T13:26:19Z</time>
      </trkpt>
      <trkpt lat="48.06231" lon="2.00064">
        <ele>123.3</ele>
        <time>2020-07-02T13:26:20Z</time>
      </trkpt>
      <trkpt lat="48.06226" lon="2.00059">
        <ele>123.3</ele>
        <time>2020-07-02T13:26:21Z</time>
      </trkpt>
      <trkpt lat="48.06221" lon="2.00054">
        <ele>123.3</ele>
        <time>2020-07-02T13:26:22Z</time>
      </trkpt>
      <trkpt lat="48.06217" lon="2.00049">
        <ele>123.3</ele>
        <time>2020-07-02T13:26:23Z</time>
      </trkpt>
      <trkpt lat="48.06212" lon="2.00044">
        <ele>123.2</ele>
        <time>2020-07-02T13:26:24Z</time>
      </trkpt>
      <trkpt lat="48.06207" lon="2.0004">
        <ele>123.2</ele>
        <time>2020-07-02T13:26:25Z</time>
      </trkpt>
      <trkpt lat="48.06202" lon="2.00034">
        <ele>123.2</ele>
        <time>2020-07-02T13:26:26Z</time>
      </trkpt>
      <trkpt lat="48.06196" lon="2.00028">
        <ele>123.3</ele>
        <time>2020-07-02T13:26:27Z</time>
      </trkpt>
      <trkpt lat="48.06191" lon="2.00022">
        <ele>123.4</ele>
        <time>2020-07-02T13:26:28Z</time>
      </trkpt>
      <trkpt lat="48.06186" lon="2.00017">
        <ele>123.4</ele>
        <time>2020-07-02T13:26:29Z</time>
      </trkpt>
      <trkpt lat="48.06181" lon="2.00011">
        <ele>123.5</ele>
        <time>2020-07-02T13:26:30Z</time>
      </trkpt>
      <trkpt lat="48.06176" lon="2.00007">
        <ele>123.5</ele>
        <time>2020-07-02T13:26:31Z</time>
      </trkpt>
      <trkpt lat="48.06171" lon="2.00001">
        <ele>123.5</ele>
        <time>2020-07-02T13:26:32Z</time>
      </trkpt>
      <trkpt lat="48.06166" lon="1.99996">
        <ele>123.5</ele>
        <time>2020-07-02T13:26:33Z</time>
      </trkpt>
      <trkpt lat="48.06162" lon="1.9999">
        <ele>123.6</ele>
        <time>2020-07-02T13:26:34Z</time>
      </trkpt>
      <trkpt lat="48.06158" lon="1.99986">
        <ele>123.6</ele>
        <time>2020-07-02T13:26:35Z</time>
      </trkpt>
      <trkpt lat="48.06154" lon="1.99981">
        <ele>123.6</ele>
        <time>2020-07-02T13:26:36Z</time>
      </trkpt>
      <trkpt lat="48.0615" lon="1.99976">
        <ele>123.6</ele>
        <time>2020-07-02T13:26:37Z</time>
      </trkpt>
      <trkpt lat="48.06145" lon="1.99972">
        <ele>123.6</ele>
        <time>2020-07-02T13:26:38Z</time>
      </trkpt>
      <trkpt lat="48.06141" lon="1.99967">
        <ele>123.6</ele>
        <time>2020-07-02T13:26:39Z</time>
      </trkpt>
      <trkpt lat="48.06136" lon="1.99961">
        <ele>123.6</ele>
        <time>2020-07-02T13:26:40Z</time>
      </trkpt>
      <trkpt lat="48.06132" lon="1.99955">
        <ele>123.6</ele>
        <time>2020-07-02T13:26:41Z</time>
      </trkpt>
      <trkpt lat="48.06127" lon="1.99949">
        <ele>123.6</ele>
        <time>2020-07-02T13:26:42Z</time>
      </trkpt>
      <trkpt lat="48.06123" lon="1.99944">
        <ele>123.6</ele>
        <time>2020-07-02T13:26:43Z</time>
      </trkpt>
      <trkpt lat="48.06119" lon="1.99939">
        <ele>123.6</ele>
        <time>2020-07-02T13:26:44Z</time>
      </trkpt>
      <trkpt lat="48.06114" lon="1.99933">
        <ele>123.5</ele>
        <time>2020-07-02T13:26:45Z</time>
      </trkpt>
      <trkpt lat="48.06108" lon="1.99927">
        <ele>123.5</ele>
        <time>2020-07-02T13:26:46Z</time>
      </trkpt>
      <trkpt lat="48.06103" lon="1.9992">
        <ele>123.5</ele>
        <time>2020-07-02T13:26:47Z</time>
      </trkpt>
      <trkpt lat="48.06098" lon="1.99914">
        <ele>123.5</ele>
        <time>2020-07-02T13:26:48Z</time>
      </trkpt>
      <trkpt lat="48.06093" lon="1.99909">
        <ele>123.5</ele>
        <time>2020-07-02T13:26:49Z</time>
      </trkpt>
      <trkpt lat="48.06088" lon="1.99903">
        <ele>123.5</ele>
        <time>2020-07-02T13:26:50Z</time>
      </trkpt>
      <trkpt lat="48.06083" lon="1.99898">
        <ele>123.5</ele>
        <time>2020-07-02T13:26:51Z</time>
      </trkpt>
      <trkpt lat="48.06078" lon="1.99894">
        <ele>123.5</ele>
        <time>2020-07-02T13:26:52Z</time>
      </trkpt>
      <trkpt lat="48.06074" lon="1.99889">
        <ele>123.5</ele>
        <time>2020-07-02T13:26:53Z</time>
      </trkpt>
      <trkpt lat="48.0607" lon="1.99884">
        <ele>123.6</ele>
        <time>2020-07-02T13:26:54Z</time>
      </trkpt>
      <trkpt lat="48.06066" lon="1.99878">
        <ele>123.6</ele>
        <time>2020-07-02T13:26:55Z</time>
      </trkpt>
      <trkpt lat="48.06062" lon="1.99871">
        <ele>123.6</ele>
        <time>2020-07-02T13:26:56Z</time>
      </trkpt>
      <trkpt lat="48.06059" lon="1.99864">
        <ele>123.6</ele>
        <time>2020-07-02T13:26:57Z</time>
      </trkpt>
      <trkpt lat="48.06059" lon="1.99856">
        <ele>123.5</ele>
        <time>2020-07-02T13:26:58Z</time>
      </trkpt>
      <trkpt lat="48.06058" lon="1.99849">
        <ele>123.5</ele>
        <time>2020-07-02T13:26:59Z</time>
      </trkpt>
      <trkpt lat="48.06057" lon="1.99842">
        <ele>123.5</ele>
        <time>2020-07-02T13:27:00Z</time>
      </trkpt>
      <trkpt lat="48.06055" lon="1.99832">
        <ele>123.4</ele>
        <time>2020-07-02T13:27:01Z</time>
      </trkpt>
      <trkpt lat="48.06053" lon="1.99826">
        <ele>123.4</ele>
        <time>2020-07-02T13:27:02Z</time>
      </trkpt>
      <trkpt lat="48.0605" lon="1.9982">
        <ele>123.3</ele>
        <time>2020-07-02T13:27:03Z</time>
      </trkpt>
      <trkpt lat="48.06047" lon="1.99817">
        <ele>123.3</ele>
        <time>2020-07-02T13:27:04Z</time>
      </trkpt>
      <trkpt lat="48.06043" lon="1.99817">
        <ele>123.3</ele>
        <time>2020-07-02T13:27:05Z</time>
      </trkpt>
      <trkpt lat="48.06037" lon="1.99817">
        <ele>123.3</ele>
        <time>2020-07-02T13:27:06Z</time>
      </trkpt>
      <trkpt lat="48.06032" lon="1.99819">
        <ele>123.3</ele>
        <time>2020-07-02T13:27:07Z</time>
      </trkpt>
      <trkpt lat="48.06026" lon="1.99821">
        <ele>123.3</ele>
        <time>2020-07-02T13:27:08Z</time>
      </trkpt>
      <trkpt lat="48.06021" lon="1.99822">
        <ele>123.2</ele>
        <time>2020-07-02T13:27:09Z</time>
      </trkpt>
      <trkpt lat="48.06013" lon="1.99821">
        <ele>123.2</ele>
        <time>2020-07-02T13:27:10Z</time>
      </trkpt>
      <trkpt lat="48.06006" lon="1.99819">
        <ele>123.2</ele>
        <time>2020-07-02T13:27:11Z</time>
      </trkpt>
      <trkpt lat="48.06" lon="1.99813">
        <ele>123.1</ele>
        <time>2020-07-02T13:27:12Z</time>
      </trkpt>
      <trkpt lat="48.05994" lon="1.99809">
        <ele>123.1</ele>
        <time>2020-07-02T13:27:13Z</time>
      </trkpt>
      <trkpt lat="48.05988" lon="1.99804">
        <ele>123.1</ele>
        <time>2020-07-02T13:27:14Z</time>
      </trkpt>
      <trkpt lat="48.05983" lon="1.99799">
        <ele>123</ele>
        <time>2020-07-02T13:27:15Z</time>
      </trkpt>
      <trkpt lat="48.05978" lon="1.99795">
        <ele>123</ele>
        <time>2020-07-02T13:27:16Z</time>
      </trkpt>
      <trkpt lat="48.05972" lon="1.99791">
        <ele>123</ele>
        <time>2020-07-02T13:27:17Z</time>
      </trkpt>
      <trkpt lat="48.05966" lon="1.99786">
        <ele>123</ele>
        <time>2020-07-02T13:27:18Z</time>
      </trkpt>
      <trkpt lat="48.0596" lon="1.99782">
        <ele>123</ele>
        <time>2020-07-02T13:27:19Z</time>
      </trkpt>
      <trkpt lat="48.05953" lon="1.99777">
        <ele>123.1</ele>
        <time>2020-07-02T13:27:20Z</time>
      </trkpt>
      <trkpt lat="48.05947" lon="1.99772">
        <ele>123.1</ele>
        <time>2020-07-02T13:27:21Z</time>
      </trkpt>
      <trkpt lat="48.05942" lon="1.99768">
        <ele>123.2</ele>
        <time>2020-07-02T13:27:22Z</time>
      </trkpt>
      <trkpt lat="48.05936" lon="1.99763">
        <ele>123.2</ele>
        <time>2020-07-02T13:27:23Z</time>
      </trkpt>
      <trkpt lat="48.05931" lon="1.99758">
        <ele>123.2</ele>
        <time>2020-07-02T13:27:24Z</time>
      </trkpt>
      <trkpt lat="48.05926" lon="1.99753">
        <ele>123.1</ele>
        <time>2020-07-02T13:27:25Z</time>
      </trkpt>
      <trkpt lat="48.0592" lon="1.99749">
        <ele>123</ele>
        <time>2020-07-02T13:27:26Z</time>
      </trkpt>
      <trkpt lat="48.05915" lon="1.99744">
        <ele>123</ele>
        <time>2020-07-02T13:27:27Z</time>
      </trkpt>
      <trkpt lat="48.05911" lon="1.99738">
        <ele>123</ele>
        <time>2020-07-02T13:27:28Z</time>
      </trkpt>
      <trkpt lat="48.05906" lon="1.99733">
        <ele>122.9</ele>
        <time>2020-07-02T13:27:29Z</time>
      </trkpt>
      <trkpt lat="48.059" lon="1.99727">
        <ele>122.9</ele>
        <time>2020-07-02T13:27:30Z</time>
      </trkpt>
      <trkpt lat="48.05895" lon="1.99723">
        <ele>122.9</ele>
        <time>2020-07-02T13:27:31Z</time>
      </trkpt>
      <trkpt lat="48.0589" lon="1.99719">
        <ele>122.9</ele>
        <time>2020-07-02T13:27:32Z</time>
      </trkpt>
      <trkpt lat="48.05884" lon="1.99714">
        <ele>122.9</ele>
        <time>2020-07-02T13:27:33Z</time>
      </trkpt>
      <trkpt lat="48.05878" lon="1.9971">
        <ele>122.9</ele>
        <time>2020-07-02T13:27:34Z</time>
      </trkpt>
      <trkpt lat="48.05873" lon="1.99705">
        <ele>122.9</ele>
        <time>2020-07-02T13:27:35Z</time>
      </trkpt>
      <trkpt lat="48.05867" lon="1.997">
        <ele>122.9</ele>
        <time>2020-07-02T13:27:36Z</time>
      </trkpt>
      <trkpt lat="48.05861" lon="1.99695">
        <ele>123</ele>
        <time>2020-07-02T13:27:37Z</time>
      </trkpt>
      <trkpt lat="48.05856" lon="1.9969">
        <ele>123</ele>
        <time>2020-07-02T13:27:38Z</time>
      </trkpt>
      <trkpt lat="48.05851" lon="1.99685">
        <ele>123.1</ele>
        <time>2020-07-02T13:27:39Z</time>
      </trkpt>
      <trkpt lat="48.05845" lon="1.99681">
        <ele>123.1</ele>
        <time>2020-07-02T13:27:40Z</time>
      </trkpt>
      <trkpt lat="48.05839" lon="1.99676">
        <ele>123.1</ele>
        <time>2020-07-02T13:27:41Z</time>
      </trkpt>
      <trkpt lat="48.05834" lon="1.99671">
        <ele>123.1</ele>
        <time>2020-07-02T13:27:42Z</time>
      </trkpt>
      <trkpt lat="48.05828" lon="1.99667">
        <ele>123.1</ele>
        <time>2020-07-02T13:27:43Z</time>
      </trkpt>
      <trkpt lat="48.05823" lon="1.99662">
        <ele>123.1</ele>
        <time>2020-07-02T13:27:44Z</time>
      </trkpt>
      <trkpt lat="48.05817" lon="1.99658">
        <ele>123.1</ele>
        <time>2020-07-02T13:27:45Z</time>
      </trkpt>
      <trkpt lat="48.05812" lon="1.99653">
        <ele>123.1</ele>
        <time>2020-07-02T13:27:46Z</time>
      </trkpt>
      <trkpt lat="48.05807" lon="1.99649">
        <ele>123.1</ele>
        <time>2020-07-02T13:27:47Z</time>
      </trkpt>
      <trkpt lat="48.05801" lon="1.99644">
        <ele>123.1</ele>
        <time>2020-07-02T13:27:48Z</time>
      </trkpt>
      <trkpt lat="48.05796" lon="1.9964">
        <ele>123.1</ele>
        <time>2020-07-02T13:27:49Z</time>
      </trkpt>
      <trkpt lat="48.0579" lon="1.99635">
        <ele>123.1</ele>
        <time>2020-07-02T13:27:50Z</time>
      </trkpt>
      <trkpt lat="48.05784" lon="1.9963">
        <ele>123.1</ele>
        <time>2020-07-02T13:27:51Z</time>
      </trkpt>
      <trkpt lat="48.05779" lon="1.99625">
        <ele>123.1</ele>
        <time>2020-07-02T13:27:52Z</time>
      </trkpt>
      <trkpt lat="48.05773" lon="1.9962">
        <ele>123.1</ele>
        <time>2020-07-02T13:27:53Z</time>
      </trkpt>
      <trkpt lat="48.05768" lon="1.99616">
        <ele>123.2</ele>
        <time>2020-07-02T13:27:54Z</time>
      </trkpt>
      <trkpt lat="48.05762" lon="1.99611">
        <ele>123.2</ele>
        <time>2020-07-02T13:27:55Z</time>
      </trkpt>
      <trkpt lat="48.05756" lon="1.99606">
        <ele>123.3</ele>
        <time>2020-07-02T13:27:56Z</time>
      </trkpt>
      <trkpt lat="48.0575" lon="1.99601">
        <ele>123.3</ele>
        <time>2020-07-02T13:27:57Z</time>
      </trkpt>
      <trkpt lat="48.05745" lon="1.99596">
        <ele>123.3</ele>
        <time>2020-07-02T13:27:58Z</time>
      </trkpt>
      <trkpt lat="48.05739" lon="1.99591">
        <ele>123.3</ele>
        <time>2020-07-02T13:27:59Z</time>
      </trkpt>
      <trkpt lat="48.05735" lon="1.99587">
        <ele>123.4</ele>
        <time>2020-07-02T13:28:00Z</time>
      </trkpt>
      <trkpt lat="48.0573" lon="1.99583">
        <ele>123.4</ele>
        <time>2020-07-02T13:28:01Z</time>
      </trkpt>
      <trkpt lat="48.05725" lon="1.99579">
        <ele>123.4</ele>
        <time>2020-07-02T13:28:02Z</time>
      </trkpt>
      <trkpt lat="48.05719" lon="1.99574">
        <ele>123.4</ele>
        <time>2020-07-02T13:28:03Z</time>
      </trkpt>
      <trkpt lat="48.05714" lon="1.99569">
        <ele>123.4</ele>
        <time>2020-07-02T13:28:04Z</time>
      </trkpt>
      <trkpt lat="48.05708" lon="1.99565">
        <ele>123.5</ele>
        <time>2020-07-02T13:28:05Z</time>
      </trkpt>
      <trkpt lat="48.05703" lon="1.9956">
        <ele>123.5</ele>
        <time>2020-07-02T13:28:06Z</time>
      </trkpt>
      <trkpt lat="48.05698" lon="1.99556">
        <ele>123.5</ele>
        <time>2020-07-02T13:28:07Z</time>
      </trkpt>
      <trkpt lat="48.05693" lon="1.99552">
        <ele>123.5</ele>
        <time>2020-07-02T13:28:08Z</time>
      </trkpt>
      <trkpt lat="48.05688" lon="1.99547">
        <ele>123.5</ele>
        <time>2020-07-02T13:28:09Z</time>
      </trkpt>
      <trkpt lat="48.05683" lon="1.99543">
        <ele>123.6</ele>
        <time>2020-07-02T13:28:10Z</time>
      </trkpt>
      <trkpt lat="48.05678" lon="1.99538">
        <ele>123.6</ele>
        <time>2020-07-02T13:28:11Z</time>
      </trkpt>
      <trkpt lat="48.05673" lon="1.99534">
        <ele>123.6</ele>
        <time>2020-07-02T13:28:12Z</time>
      </trkpt>
      <trkpt lat="48.05668" lon="1.9953">
        <ele>123.6</ele>
        <time>2020-07-02T13:28:13Z</time>
      </trkpt>
      <trkpt lat="48.05663" lon="1.99527">
        <ele>123.7</ele>
        <time>2020-07-02T13:28:14Z</time>
      </trkpt>
      <trkpt lat="48.05659" lon="1.99522">
        <ele>123.7</ele>
        <time>2020-07-02T13:28:15Z</time>
      </trkpt>
      <trkpt lat="48.05653" lon="1.99516">
        <ele>123.7</ele>
        <time>2020-07-02T13:28:16Z</time>
      </trkpt>
      <trkpt lat="48.0565" lon="1.99513">
        <ele>123.8</ele>
        <time>2020-07-02T13:28:17Z</time>
      </trkpt>
      <trkpt lat="48.05645" lon="1.99509">
        <ele>123.8</ele>
        <time>2020-07-02T13:28:18Z</time>
      </trkpt>
      <trkpt lat="48.0564" lon="1.99503">
        <ele>123.9</ele>
        <time>2020-07-02T13:28:19Z</time>
      </trkpt>
      <trkpt lat="48.05635" lon="1.99499">
        <ele>123.9</ele>
        <time>2020-07-02T13:28:20Z</time>
      </trkpt>
      <trkpt lat="48.0563" lon="1.99494">
        <ele>124</ele>
        <time>2020-07-02T13:28:21Z</time>
      </trkpt>
      <trkpt lat="48.05624" lon="1.9949">
        <ele>124</ele>
        <time>2020-07-02T13:28:22Z</time>
      </trkpt>
      <trkpt lat="48.05618" lon="1.99485">
        <ele>124.1</ele>
        <time>2020-07-02T13:28:23Z</time>
      </trkpt>
      <trkpt lat="48.05613" lon="1.9948">
        <ele>124.1</ele>
        <time>2020-07-02T13:28:24Z</time>
      </trkpt>
      <trkpt lat="48.05607" lon="1.99475">
        <ele>124.2</ele>
        <time>2020-07-02T13:28:25Z</time>
      </trkpt>
      <trkpt lat="48.05602" lon="1.9947">
        <ele>124.2</ele>
        <time>2020-07-02T13:28:26Z</time>
      </trkpt>
      <trkpt lat="48.05596" lon="1.99465">
        <ele>124.2</ele>
        <time>2020-07-02T13:28:27Z</time>
      </trkpt>
      <trkpt lat="48.05591" lon="1.99461">
        <ele>124.3</ele>
        <time>2020-07-02T13:28:28Z</time>
      </trkpt>
      <trkpt lat="48.05585" lon="1.99455">
        <ele>124.4</ele>
        <time>2020-07-02T13:28:29Z</time>
      </trkpt>
      <trkpt lat="48.05579" lon="1.9945">
        <ele>124.5</ele>
        <time>2020-07-02T13:28:30Z</time>
      </trkpt>
      <trkpt lat="48.05572" lon="1.99445">
        <ele>124.6</ele>
        <time>2020-07-02T13:28:31Z</time>
      </trkpt>
      <trkpt lat="48.05566" lon="1.9944">
        <ele>124.7</ele>
        <time>2020-07-02T13:28:32Z</time>
      </trkpt>
      <trkpt lat="48.0556" lon="1.99436">
        <ele>124.8</ele>
        <time>2020-07-02T13:28:33Z</time>
      </trkpt>
      <trkpt lat="48.05555" lon="1.99431">
        <ele>124.9</ele>
        <time>2020-07-02T13:28:34Z</time>
      </trkpt>
      <trkpt lat="48.05549" lon="1.99426">
        <ele>124.9</ele>
        <time>2020-07-02T13:28:35Z</time>
      </trkpt>
      <trkpt lat="48.05543" lon="1.99421">
        <ele>125</ele>
        <time>2020-07-02T13:28:36Z</time>
      </trkpt>
      <trkpt lat="48.05537" lon="1.99416">
        <ele>125.1</ele>
        <time>2020-07-02T13:28:37Z</time>
      </trkpt>
      <trkpt lat="48.05531" lon="1.99412">
        <ele>125.2</ele>
        <time>2020-07-02T13:28:38Z</time>
      </trkpt>
      <trkpt lat="48.05526" lon="1.99407">
        <ele>125.2</ele>
        <time>2020-07-02T13:28:39Z</time>
      </trkpt>
      <trkpt lat="48.0552" lon="1.99402">
        <ele>125.4</ele>
        <time>2020-07-02T13:28:40Z</time>
      </trkpt>
      <trkpt lat="48.05514" lon="1.99397">
        <ele>125.5</ele>
        <time>2020-07-02T13:28:41Z</time>
      </trkpt>
      <trkpt lat="48.05509" lon="1.99393">
        <ele>125.6</ele>
        <time>2020-07-02T13:28:42Z</time>
      </trkpt>
      <trkpt lat="48.05504" lon="1.99388">
        <ele>125.8</ele>
        <time>2020-07-02T13:28:43Z</time>
      </trkpt>
      <trkpt lat="48.05499" lon="1.99383">
        <ele>126</ele>
        <time>2020-07-02T13:28:44Z</time>
      </trkpt>
      <trkpt lat="48.05493" lon="1.99379">
        <ele>126.2</ele>
        <time>2020-07-02T13:28:45Z</time>
      </trkpt>
      <trkpt lat="48.05488" lon="1.99374">
        <ele>126.3</ele>
        <time>2020-07-02T13:28:46Z</time>
      </trkpt>
      <trkpt lat="48.05482" lon="1.99369">
        <ele>126.5</ele>
        <time>2020-07-02T13:28:47Z</time>
      </trkpt>
      <trkpt lat="48.05477" lon="1.99365">
        <ele>126.6</ele>
        <time>2020-07-02T13:28:48Z</time>
      </trkpt>
      <trkpt lat="48.05472" lon="1.99362">
        <ele>126.7</ele>
        <time>2020-07-02T13:28:49Z</time>
      </trkpt>
      <trkpt lat="48.05466" lon="1.99357">
        <ele>126.8</ele>
        <time>2020-07-02T13:28:50Z</time>
      </trkpt>
      <trkpt lat="48.05461" lon="1.99353">
        <ele>126.9</ele>
        <time>2020-07-02T13:28:51Z</time>
      </trkpt>
      <trkpt lat="48.05455" lon="1.99349">
        <ele>127</ele>
        <time>2020-07-02T13:28:52Z</time>
      </trkpt>
      <trkpt lat="48.0545" lon="1.99344">
        <ele>127.1</ele>
        <time>2020-07-02T13:28:53Z</time>
      </trkpt>
      <trkpt lat="48.05445" lon="1.9934">
        <ele>127.2</ele>
        <time>2020-07-02T13:28:54Z</time>
      </trkpt>
      <trkpt lat="48.0544" lon="1.99336">
        <ele>127.3</ele>
        <time>2020-07-02T13:28:55Z</time>
      </trkpt>
      <trkpt lat="48.05435" lon="1.99332">
        <ele>127.4</ele>
        <time>2020-07-02T13:28:56Z</time>
      </trkpt>
      <trkpt lat="48.0543" lon="1.99327">
        <ele>127.4</ele>
        <time>2020-07-02T13:28:57Z</time>
      </trkpt>
      <trkpt lat="48.05425" lon="1.99323">
        <ele>127.5</ele>
        <time>2020-07-02T13:28:58Z</time>
      </trkpt>
      <trkpt lat="48.05421" lon="1.99319">
        <ele>127.5</ele>
        <time>2020-07-02T13:28:59Z</time>
      </trkpt>
      <trkpt lat="48.05416" lon="1.99314">
        <ele>127.5</ele>
        <time>2020-07-02T13:29:00Z</time>
      </trkpt>
      <trkpt lat="48.05412" lon="1.9931">
        <ele>127.6</ele>
        <time>2020-07-02T13:29:01Z</time>
      </trkpt>
      <trkpt lat="48.05406" lon="1.99305">
        <ele>127.6</ele>
        <time>2020-07-02T13:29:02Z</time>
      </trkpt>
      <trkpt lat="48.054" lon="1.99299">
        <ele>127.6</ele>
        <time>2020-07-02T13:29:03Z</time>
      </trkpt>
      <trkpt lat="48.05395" lon="1.99296">
        <ele>127.6</ele>
        <time>2020-07-02T13:29:04Z</time>
      </trkpt>
      <trkpt lat="48.05389" lon="1.99292">
        <ele>127.6</ele>
        <time>2020-07-02T13:29:05Z</time>
      </trkpt>
      <trkpt lat="48.05384" lon="1.99287">
        <ele>127.6</ele>
        <time>2020-07-02T13:29:06Z</time>
      </trkpt>
      <trkpt lat="48.05379" lon="1.99282">
        <ele>127.6</ele>
        <time>2020-07-02T13:29:07Z</time>
      </trkpt>
      <trkpt lat="48.05373" lon="1.99277">
        <ele>127.5</ele>
        <time>2020-07-02T13:29:08Z</time>
      </trkpt>
      <trkpt lat="48.05367" lon="1.99272">
        <ele>127.5</ele>
        <time>2020-07-02T13:29:09Z</time>
      </trkpt>
      <trkpt lat="48.05361" lon="1.99268">
        <ele>127.5</ele>
        <time>2020-07-02T13:29:10Z</time>
      </trkpt>
      <trkpt lat="48.05355" lon="1.99263">
        <ele>127.4</ele>
        <time>2020-07-02T13:29:11Z</time>
      </trkpt>
      <trkpt lat="48.05349" lon="1.99259">
        <ele>127.3</ele>
        <time>2020-07-02T13:29:12Z</time>
      </trkpt>
      <trkpt lat="48.05343" lon="1.99254">
        <ele>127.3</ele>
        <time>2020-07-02T13:29:13Z</time>
      </trkpt>
      <trkpt lat="48.05336" lon="1.99249">
        <ele>127.2</ele>
        <time>2020-07-02T13:29:14Z</time>
      </trkpt>
      <trkpt lat="48.0533" lon="1.99244">
        <ele>127.2</ele>
        <time>2020-07-02T13:29:15Z</time>
      </trkpt>
      <trkpt lat="48.05324" lon="1.99239">
        <ele>127.1</ele>
        <time>2020-07-02T13:29:16Z</time>
      </trkpt>
      <trkpt lat="48.05318" lon="1.99234">
        <ele>127.1</ele>
        <time>2020-07-02T13:29:17Z</time>
      </trkpt>
      <trkpt lat="48.05313" lon="1.9923">
        <ele>127.1</ele>
        <time>2020-07-02T13:29:18Z</time>
      </trkpt>
      <trkpt lat="48.05306" lon="1.99224">
        <ele>127</ele>
        <time>2020-07-02T13:29:19Z</time>
      </trkpt>
      <trkpt lat="48.053" lon="1.99219">
        <ele>126.9</ele>
        <time>2020-07-02T13:29:20Z</time>
      </trkpt>
      <trkpt lat="48.05294" lon="1.99213">
        <ele>126.8</ele>
        <time>2020-07-02T13:29:21Z</time>
      </trkpt>
      <trkpt lat="48.05287" lon="1.99208">
        <ele>126.7</ele>
        <time>2020-07-02T13:29:22Z</time>
      </trkpt>
      <trkpt lat="48.05281" lon="1.99204">
        <ele>126.6</ele>
        <time>2020-07-02T13:29:23Z</time>
      </trkpt>
      <trkpt lat="48.05275" lon="1.992">
        <ele>126.6</ele>
        <time>2020-07-02T13:29:24Z</time>
      </trkpt>
      <trkpt lat="48.05269" lon="1.99195">
        <ele>126.5</ele>
        <time>2020-07-02T13:29:25Z</time>
      </trkpt>
      <trkpt lat="48.05263" lon="1.9919">
        <ele>126.4</ele>
        <time>2020-07-02T13:29:26Z</time>
      </trkpt>
      <trkpt lat="48.05257" lon="1.99186">
        <ele>126.3</ele>
        <time>2020-07-02T13:29:27Z</time>
      </trkpt>
      <trkpt lat="48.05251" lon="1.99181">
        <ele>126.2</ele>
        <time>2020-07-02T13:29:28Z</time>
      </trkpt>
      <trkpt lat="48.05244" lon="1.99177">
        <ele>126.2</ele>
        <time>2020-07-02T13:29:29Z</time>
      </trkpt>
      <trkpt lat="48.05238" lon="1.99171">
        <ele>126.3</ele>
        <time>2020-07-02T13:29:30Z</time>
      </trkpt>
      <trkpt lat="48.05232" lon="1.99166">
        <ele>126.2</ele>
        <time>2020-07-02T13:29:31Z</time>
      </trkpt>
      <trkpt lat="48.05226" lon="1.99161">
        <ele>126.2</ele>
        <time>2020-07-02T13:29:32Z</time>
      </trkpt>
      <trkpt lat="48.0522" lon="1.99156">
        <ele>126.1</ele>
        <time>2020-07-02T13:29:33Z</time>
      </trkpt>
      <trkpt lat="48.05214" lon="1.99151">
        <ele>126.1</ele>
        <time>2020-07-02T13:29:34Z</time>
      </trkpt>
      <trkpt lat="48.05208" lon="1.99147">
        <ele>126</ele>
        <time>2020-07-02T13:29:35Z</time>
      </trkpt>
      <trkpt lat="48.05202" lon="1.99142">
        <ele>126</ele>
        <time>2020-07-02T13:29:36Z</time>
      </trkpt>
      <trkpt lat="48.05196" lon="1.99137">
        <ele>126</ele>
        <time>2020-07-02T13:29:37Z</time>
      </trkpt>
      <trkpt lat="48.0519" lon="1.99133">
        <ele>125.9</ele>
        <time>2020-07-02T13:29:38Z</time>
      </trkpt>
      <trkpt lat="48.05184" lon="1.99128">
        <ele>125.9</ele>
        <time>2020-07-02T13:29:39Z</time>
      </trkpt>
      <trkpt lat="48.05178" lon="1.99123">
        <ele>125.9</ele>
        <time>2020-07-02T13:29:40Z</time>
      </trkpt>
      <trkpt lat="48.05172" lon="1.99119">
        <ele>125.8</ele>
        <time>2020-07-02T13:29:41Z</time>
      </trkpt>
      <trkpt lat="48.05166" lon="1.99115">
        <ele>125.6</ele>
        <time>2020-07-02T13:29:42Z</time>
      </trkpt>
      <trkpt lat="48.0516" lon="1.99111">
        <ele>125.5</ele>
        <time>2020-07-02T13:29:43Z</time>
      </trkpt>
      <trkpt lat="48.05155" lon="1.99106">
        <ele>125.4</ele>
        <time>2020-07-02T13:29:44Z</time>
      </trkpt>
      <trkpt lat="48.05149" lon="1.99101">
        <ele>125.3</ele>
        <time>2020-07-02T13:29:45Z</time>
      </trkpt>
      <trkpt lat="48.05143" lon="1.99097">
        <ele>125.3</ele>
        <time>2020-07-02T13:29:46Z</time>
      </trkpt>
      <trkpt lat="48.05138" lon="1.99092">
        <ele>125.2</ele>
        <time>2020-07-02T13:29:47Z</time>
      </trkpt>
      <trkpt lat="48.05132" lon="1.99087">
        <ele>125.2</ele>
        <time>2020-07-02T13:29:48Z</time>
      </trkpt>
      <trkpt lat="48.05127" lon="1.99082">
        <ele>125.1</ele>
        <time>2020-07-02T13:29:49Z</time>
      </trkpt>
      <trkpt lat="48.05121" lon="1.99078">
        <ele>125.1</ele>
        <time>2020-07-02T13:29:50Z</time>
      </trkpt>
      <trkpt lat="48.05115" lon="1.99074">
        <ele>125.1</ele>
        <time>2020-07-02T13:29:51Z</time>
      </trkpt>
      <trkpt lat="48.05109" lon="1.99069">
        <ele>125.1</ele>
        <time>2020-07-02T13:29:52Z</time>
      </trkpt>
      <trkpt lat="48.05103" lon="1.99063">
        <ele>125.1</ele>
        <time>2020-07-02T13:29:53Z</time>
      </trkpt>
      <trkpt lat="48.05097" lon="1.99059">
        <ele>125.1</ele>
        <time>2020-07-02T13:29:54Z</time>
      </trkpt>
      <trkpt lat="48.05092" lon="1.99055">
        <ele>125.2</ele>
        <time>2020-07-02T13:29:55Z</time>
      </trkpt>
      <trkpt lat="48.05087" lon="1.99051">
        <ele>125.2</ele>
        <time>2020-07-02T13:29:56Z</time>
      </trkpt>
      <trkpt lat="48.05081" lon="1.99046">
        <ele>125.2</ele>
        <time>2020-07-02T13:29:57Z</time>
      </trkpt>
      <trkpt lat="48.05077" lon="1.99042">
        <ele>125.3</ele>
        <time>2020-07-02T13:29:58Z</time>
      </trkpt>
      <trkpt lat="48.05071" lon="1.99037">
        <ele>125.3</ele>
        <time>2020-07-02T13:29:59Z</time>
      </trkpt>
      <trkpt lat="48.05065" lon="1.99033">
        <ele>125.4</ele>
        <time>2020-07-02T13:30:00Z</time>
      </trkpt>
      <trkpt lat="48.0506" lon="1.99028">
        <ele>125.6</ele>
        <time>2020-07-02T13:30:01Z</time>
      </trkpt>
      <trkpt lat="48.05053" lon="1.99024">
        <ele>125.7</ele>
        <time>2020-07-02T13:30:02Z</time>
      </trkpt>
      <trkpt lat="48.05048" lon="1.9902">
        <ele>125.8</ele>
        <time>2020-07-02T13:30:03Z</time>
      </trkpt>
      <trkpt lat="48.05043" lon="1.99017">
        <ele>125.9</ele>
        <time>2020-07-02T13:30:04Z</time>
      </trkpt>
      <trkpt lat="48.05039" lon="1.99013">
        <ele>125.9</ele>
        <time>2020-07-02T13:30:05Z</time>
      </trkpt>
      <trkpt lat="48.05035" lon="1.99009">
        <ele>126</ele>
        <time>2020-07-02T13:30:06Z</time>
      </trkpt>
      <trkpt lat="48.05029" lon="1.99004">
        <ele>126</ele>
        <time>2020-07-02T13:30:07Z</time>
      </trkpt>
      <trkpt lat="48.05023" lon="1.98999">
        <ele>126.1</ele>
        <time>2020-07-02T13:30:08Z</time>
      </trkpt>
      <trkpt lat="48.0502" lon="1.98996">
        <ele>126.1</ele>
        <time>2020-07-02T13:30:09Z</time>
      </trkpt>
      <trkpt lat="48.05014" lon="1.98991">
        <ele>126.1</ele>
        <time>2020-07-02T13:30:10Z</time>
      </trkpt>
      <trkpt lat="48.05009" lon="1.98986">
        <ele>126.1</ele>
        <time>2020-07-02T13:30:11Z</time>
      </trkpt>
      <trkpt lat="48.05005" lon="1.98982">
        <ele>126.1</ele>
        <time>2020-07-02T13:30:12Z</time>
      </trkpt>
      <trkpt lat="48.05" lon="1.98977">
        <ele>126</ele>
        <time>2020-07-02T13:30:13Z</time>
      </trkpt>
      <trkpt lat="48.04993" lon="1.98973">
        <ele>125.9</ele>
        <time>2020-07-02T13:30:14Z</time>
      </trkpt>
      <trkpt lat="48.04987" lon="1.98969">
        <ele>125.9</ele>
        <time>2020-07-02T13:30:15Z</time>
      </trkpt>
      <trkpt lat="48.04982" lon="1.98965">
        <ele>125.8</ele>
        <time>2020-07-02T13:30:16Z</time>
      </trkpt>
      <trkpt lat="48.04976" lon="1.9896">
        <ele>125.7</ele>
        <time>2020-07-02T13:30:17Z</time>
      </trkpt>
      <trkpt lat="48.04971" lon="1.98955">
        <ele>125.6</ele>
        <time>2020-07-02T13:30:18Z</time>
      </trkpt>
      <trkpt lat="48.04966" lon="1.98951">
        <ele>125.5</ele>
        <time>2020-07-02T13:30:19Z</time>
      </trkpt>
      <trkpt lat="48.04959" lon="1.98946">
        <ele>125.4</ele>
        <time>2020-07-02T13:30:20Z</time>
      </trkpt>
      <trkpt lat="48.04953" lon="1.98942">
        <ele>125.2</ele>
        <time>2020-07-02T13:30:21Z</time>
      </trkpt>
      <trkpt lat="48.04946" lon="1.98937">
        <ele>125.1</ele>
        <time>2020-07-02T13:30:22Z</time>
      </trkpt>
      <trkpt lat="48.0494" lon="1.98932">
        <ele>124.9</ele>
        <time>2020-07-02T13:30:23Z</time>
      </trkpt>
      <trkpt lat="48.04934" lon="1.98926">
        <ele>124.7</ele>
        <time>2020-07-02T13:30:24Z</time>
      </trkpt>
      <trkpt lat="48.04927" lon="1.98921">
        <ele>124.6</ele>
        <time>2020-07-02T13:30:25Z</time>
      </trkpt>
      <trkpt lat="48.04921" lon="1.98917">
        <ele>124.4</ele>
        <time>2020-07-02T13:30:26Z</time>
      </trkpt>
      <trkpt lat="48.04915" lon="1.98912">
        <ele>124.3</ele>
        <time>2020-07-02T13:30:27Z</time>
      </trkpt>
      <trkpt lat="48.04908" lon="1.98908">
        <ele>124.2</ele>
        <time>2020-07-02T13:30:28Z</time>
      </trkpt>
      <trkpt lat="48.04902" lon="1.98902">
        <ele>124</ele>
        <time>2020-07-02T13:30:29Z</time>
      </trkpt>
      <trkpt lat="48.04895" lon="1.98897">
        <ele>123.9</ele>
        <time>2020-07-02T13:30:30Z</time>
      </trkpt>
      <trkpt lat="48.04889" lon="1.98892">
        <ele>123.9</ele>
        <time>2020-07-02T13:30:31Z</time>
      </trkpt>
      <trkpt lat="48.04882" lon="1.98886">
        <ele>123.8</ele>
        <time>2020-07-02T13:30:32Z</time>
      </trkpt>
      <trkpt lat="48.04875" lon="1.98881">
        <ele>123.7</ele>
        <time>2020-07-02T13:30:33Z</time>
      </trkpt>
      <trkpt lat="48.04868" lon="1.98876">
        <ele>123.7</ele>
        <time>2020-07-02T13:30:34Z</time>
      </trkpt>
      <trkpt lat="48.04861" lon="1.9887">
        <ele>123.6</ele>
        <time>2020-07-02T13:30:35Z</time>
      </trkpt>
      <trkpt lat="48.04854" lon="1.98866">
        <ele>123.5</ele>
        <time>2020-07-02T13:30:36Z</time>
      </trkpt>
      <trkpt lat="48.04848" lon="1.98861">
        <ele>123.5</ele>
        <time>2020-07-02T13:30:37Z</time>
      </trkpt>
      <trkpt lat="48.04841" lon="1.98856">
        <ele>123.5</ele>
        <time>2020-07-02T13:30:38Z</time>
      </trkpt>
      <trkpt lat="48.04835" lon="1.98851">
        <ele>123.5</ele>
        <time>2020-07-02T13:30:39Z</time>
      </trkpt>
      <trkpt lat="48.04828" lon="1.98846">
        <ele>123.5</ele>
        <time>2020-07-02T13:30:40Z</time>
      </trkpt>
      <trkpt lat="48.04822" lon="1.98841">
        <ele>123.5</ele>
        <time>2020-07-02T13:30:41Z</time>
      </trkpt>
      <trkpt lat="48.04816" lon="1.98836">
        <ele>123.5</ele>
        <time>2020-07-02T13:30:42Z</time>
      </trkpt>
      <trkpt lat="48.0481" lon="1.98831">
        <ele>123.5</ele>
        <time>2020-07-02T13:30:43Z</time>
      </trkpt>
      <trkpt lat="48.04803" lon="1.98826">
        <ele>123.6</ele>
        <time>2020-07-02T13:30:44Z</time>
      </trkpt>
      <trkpt lat="48.04797" lon="1.98821">
        <ele>123.6</ele>
        <time>2020-07-02T13:30:45Z</time>
      </trkpt>
      <trkpt lat="48.04791" lon="1.98817">
        <ele>123.6</ele>
        <time>2020-07-02T13:30:46Z</time>
      </trkpt>
      <trkpt lat="48.04785" lon="1.98812">
        <ele>123.7</ele>
        <time>2020-07-02T13:30:47Z</time>
      </trkpt>
      <trkpt lat="48.04779" lon="1.98808">
        <ele>123.7</ele>
        <time>2020-07-02T13:30:48Z</time>
      </trkpt>
      <trkpt lat="48.04773" lon="1.98803">
        <ele>123.8</ele>
        <time>2020-07-02T13:30:49Z</time>
      </trkpt>
      <trkpt lat="48.04768" lon="1.98798">
        <ele>123.8</ele>
        <time>2020-07-02T13:30:50Z</time>
      </trkpt>
      <trkpt lat="48.04762" lon="1.98794">
        <ele>123.9</ele>
        <time>2020-07-02T13:30:51Z</time>
      </trkpt>
      <trkpt lat="48.04756" lon="1.9879">
        <ele>123.9</ele>
        <time>2020-07-02T13:30:52Z</time>
      </trkpt>
      <trkpt lat="48.0475" lon="1.98786">
        <ele>123.9</ele>
        <time>2020-07-02T13:30:53Z</time>
      </trkpt>
      <trkpt lat="48.04745" lon="1.98781">
        <ele>124</ele>
        <time>2020-07-02T13:30:54Z</time>
      </trkpt>
      <trkpt lat="48.0474" lon="1.98777">
        <ele>124</ele>
        <time>2020-07-02T13:30:55Z</time>
      </trkpt>
      <trkpt lat="48.04734" lon="1.98772">
        <ele>124</ele>
        <time>2020-07-02T13:30:56Z</time>
      </trkpt>
      <trkpt lat="48.04729" lon="1.98768">
        <ele>124</ele>
        <time>2020-07-02T13:30:57Z</time>
      </trkpt>
      <trkpt lat="48.04723" lon="1.98763">
        <ele>124.1</ele>
        <time>2020-07-02T13:30:58Z</time>
      </trkpt>
      <trkpt lat="48.04718" lon="1.98759">
        <ele>124.2</ele>
        <time>2020-07-02T13:30:59Z</time>
      </trkpt>
      <trkpt lat="48.04712" lon="1.98754">
        <ele>124.2</ele>
        <time>2020-07-02T13:31:00Z</time>
      </trkpt>
      <trkpt lat="48.04706" lon="1.9875">
        <ele>124.3</ele>
        <time>2020-07-02T13:31:01Z</time>
      </trkpt>
      <trkpt lat="48.04701" lon="1.98745">
        <ele>124.3</ele>
        <time>2020-07-02T13:31:02Z</time>
      </trkpt>
      <trkpt lat="48.04695" lon="1.98741">
        <ele>124.3</ele>
        <time>2020-07-02T13:31:03Z</time>
      </trkpt>
      <trkpt lat="48.04689" lon="1.98737">
        <ele>124.3</ele>
        <time>2020-07-02T13:31:04Z</time>
      </trkpt>
      <trkpt lat="48.04684" lon="1.98732">
        <ele>124.3</ele>
        <time>2020-07-02T13:31:05Z</time>
      </trkpt>
      <trkpt lat="48.04679" lon="1.98728">
        <ele>124.3</ele>
        <time>2020-07-02T13:31:06Z</time>
      </trkpt>
      <trkpt lat="48.04673" lon="1.98724">
        <ele>124.4</ele>
        <time>2020-07-02T13:31:07Z</time>
      </trkpt>
      <trkpt lat="48.04667" lon="1.98719">
        <ele>124.4</ele>
        <time>2020-07-02T13:31:08Z</time>
      </trkpt>
      <trkpt lat="48.04662" lon="1.98714">
        <ele>124.3</ele>
        <time>2020-07-02T13:31:09Z</time>
      </trkpt>
      <trkpt lat="48.04657" lon="1.9871">
        <ele>124.3</ele>
        <time>2020-07-02T13:31:10Z</time>
      </trkpt>
      <trkpt lat="48.04651" lon="1.98705">
        <ele>124.3</ele>
        <time>2020-07-02T13:31:11Z</time>
      </trkpt>
      <trkpt lat="48.04645" lon="1.98701">
        <ele>124.3</ele>
        <time>2020-07-02T13:31:12Z</time>
      </trkpt>
      <trkpt lat="48.04639" lon="1.98696">
        <ele>124.3</ele>
        <time>2020-07-02T13:31:13Z</time>
      </trkpt>
      <trkpt lat="48.04633" lon="1.98691">
        <ele>124.3</ele>
        <time>2020-07-02T13:31:14Z</time>
      </trkpt>
      <trkpt lat="48.04628" lon="1.98686">
        <ele>124.2</ele>
        <time>2020-07-02T13:31:15Z</time>
      </trkpt>
      <trkpt lat="48.04621" lon="1.98681">
        <ele>124.2</ele>
        <time>2020-07-02T13:31:16Z</time>
      </trkpt>
      <trkpt lat="48.04615" lon="1.98676">
        <ele>124.2</ele>
        <time>2020-07-02T13:31:17Z</time>
      </trkpt>
      <trkpt lat="48.0461" lon="1.98671">
        <ele>124.1</ele>
        <time>2020-07-02T13:31:18Z</time>
      </trkpt>
      <trkpt lat="48.04604" lon="1.98667">
        <ele>124.1</ele>
        <time>2020-07-02T13:31:19Z</time>
      </trkpt>
      <trkpt lat="48.04597" lon="1.98662">
        <ele>124.1</ele>
        <time>2020-07-02T13:31:20Z</time>
      </trkpt>
      <trkpt lat="48.04591" lon="1.98657">
        <ele>124.1</ele>
        <time>2020-07-02T13:31:21Z</time>
      </trkpt>
      <trkpt lat="48.04585" lon="1.98652">
        <ele>124.1</ele>
        <time>2020-07-02T13:31:22Z</time>
      </trkpt>
      <trkpt lat="48.04579" lon="1.98647">
        <ele>124.2</ele>
        <time>2020-07-02T13:31:23Z</time>
      </trkpt>
      <trkpt lat="48.04572" lon="1.98642">
        <ele>124.2</ele>
        <time>2020-07-02T13:31:24Z</time>
      </trkpt>
      <trkpt lat="48.04566" lon="1.98638">
        <ele>124.3</ele>
        <time>2020-07-02T13:31:25Z</time>
      </trkpt>
      <trkpt lat="48.04559" lon="1.98633">
        <ele>124.3</ele>
        <time>2020-07-02T13:31:26Z</time>
      </trkpt>
      <trkpt lat="48.04553" lon="1.98628">
        <ele>124.4</ele>
        <time>2020-07-02T13:31:27Z</time>
      </trkpt>
      <trkpt lat="48.04548" lon="1.98624">
        <ele>124.4</ele>
        <time>2020-07-02T13:31:28Z</time>
      </trkpt>
      <trkpt lat="48.04543" lon="1.9862">
        <ele>124.4</ele>
        <time>2020-07-02T13:31:29Z</time>
      </trkpt>
      <trkpt lat="48.04538" lon="1.98617">
        <ele>124.3</ele>
        <time>2020-07-02T13:31:30Z</time>
      </trkpt>
      <trkpt lat="48.04533" lon="1.98613">
        <ele>124.3</ele>
        <time>2020-07-02T13:31:31Z</time>
      </trkpt>
      <trkpt lat="48.04527" lon="1.9861">
        <ele>124.3</ele>
        <time>2020-07-02T13:31:32Z</time>
      </trkpt>
      <trkpt lat="48.04522" lon="1.98606">
        <ele>124.4</ele>
        <time>2020-07-02T13:31:33Z</time>
      </trkpt>
      <trkpt lat="48.04517" lon="1.98601">
        <ele>124.4</ele>
        <time>2020-07-02T13:31:34Z</time>
      </trkpt>
      <trkpt lat="48.04512" lon="1.98597">
        <ele>124.5</ele>
        <time>2020-07-02T13:31:35Z</time>
      </trkpt>
      <trkpt lat="48.04506" lon="1.98592">
        <ele>124.5</ele>
        <time>2020-07-02T13:31:36Z</time>
      </trkpt>
      <trkpt lat="48.04501" lon="1.98588">
        <ele>124.5</ele>
        <time>2020-07-02T13:31:37Z</time>
      </trkpt>
      <trkpt lat="48.04495" lon="1.98582">
        <ele>124.5</ele>
        <time>2020-07-02T13:31:38Z</time>
      </trkpt>
      <trkpt lat="48.0449" lon="1.98578">
        <ele>124.5</ele>
        <time>2020-07-02T13:31:39Z</time>
      </trkpt>
      <trkpt lat="48.04485" lon="1.98574">
        <ele>124.5</ele>
        <time>2020-07-02T13:31:40Z</time>
      </trkpt>
      <trkpt lat="48.04479" lon="1.9857">
        <ele>124.5</ele>
        <time>2020-07-02T13:31:41Z</time>
      </trkpt>
      <trkpt lat="48.04475" lon="1.98567">
        <ele>124.4</ele>
        <time>2020-07-02T13:31:42Z</time>
      </trkpt>
      <trkpt lat="48.0447" lon="1.98564">
        <ele>124.4</ele>
        <time>2020-07-02T13:31:43Z</time>
      </trkpt>
      <trkpt lat="48.04465" lon="1.9856">
        <ele>124.4</ele>
        <time>2020-07-02T13:31:44Z</time>
      </trkpt>
      <trkpt lat="48.04461" lon="1.98556">
        <ele>124.5</ele>
        <time>2020-07-02T13:31:45Z</time>
      </trkpt>
      <trkpt lat="48.04456" lon="1.98553">
        <ele>124.5</ele>
        <time>2020-07-02T13:31:46Z</time>
      </trkpt>
      <trkpt lat="48.04451" lon="1.98549">
        <ele>124.5</ele>
        <time>2020-07-02T13:31:47Z</time>
      </trkpt>
      <trkpt lat="48.04444" lon="1.98546">
        <ele>124.6</ele>
        <time>2020-07-02T13:31:48Z</time>
      </trkpt>
      <trkpt lat="48.04438" lon="1.98542">
        <ele>124.6</ele>
        <time>2020-07-02T13:31:49Z</time>
      </trkpt>
      <trkpt lat="48.04433" lon="1.98539">
        <ele>124.6</ele>
        <time>2020-07-02T13:31:50Z</time>
      </trkpt>
      <trkpt lat="48.04427" lon="1.98536">
        <ele>124.7</ele>
        <time>2020-07-02T13:31:51Z</time>
      </trkpt>
      <trkpt lat="48.04422" lon="1.98532">
        <ele>124.7</ele>
        <time>2020-07-02T13:31:52Z</time>
      </trkpt>
      <trkpt lat="48.04417" lon="1.98529">
        <ele>124.7</ele>
        <time>2020-07-02T13:31:53Z</time>
      </trkpt>
      <trkpt lat="48.04411" lon="1.98525">
        <ele>124.7</ele>
        <time>2020-07-02T13:31:54Z</time>
      </trkpt>
      <trkpt lat="48.04406" lon="1.98521">
        <ele>124.7</ele>
        <time>2020-07-02T13:31:55Z</time>
      </trkpt>
      <trkpt lat="48.04401" lon="1.98518">
        <ele>124.6</ele>
        <time>2020-07-02T13:31:56Z</time>
      </trkpt>
      <trkpt lat="48.04396" lon="1.98514">
        <ele>124.6</ele>
        <time>2020-07-02T13:31:57Z</time>
      </trkpt>
      <trkpt lat="48.0439" lon="1.9851">
        <ele>124.5</ele>
        <time>2020-07-02T13:31:58Z</time>
      </trkpt>
      <trkpt lat="48.04384" lon="1.98506">
        <ele>124.5</ele>
        <time>2020-07-02T13:31:59Z</time>
      </trkpt>
      <trkpt lat="48.04378" lon="1.98502">
        <ele>124.4</ele>
        <time>2020-07-02T13:32:00Z</time>
      </trkpt>
      <trkpt lat="48.04371" lon="1.98498">
        <ele>124.4</ele>
        <time>2020-07-02T13:32:01Z</time>
      </trkpt>
      <trkpt lat="48.04365" lon="1.98494">
        <ele>124.4</ele>
        <time>2020-07-02T13:32:02Z</time>
      </trkpt>
      <trkpt lat="48.0436" lon="1.98491">
        <ele>124.4</ele>
        <time>2020-07-02T13:32:03Z</time>
      </trkpt>
      <trkpt lat="48.04354" lon="1.98488">
        <ele>124.4</ele>
        <time>2020-07-02T13:32:04Z</time>
      </trkpt>
      <trkpt lat="48.04348" lon="1.98485">
        <ele>124.4</ele>
        <time>2020-07-02T13:32:05Z</time>
      </trkpt>
      <trkpt lat="48.04343" lon="1.98482">
        <ele>124.4</ele>
        <time>2020-07-02T13:32:06Z</time>
      </trkpt>
      <trkpt lat="48.04338" lon="1.98478">
        <ele>124.3</ele>
        <time>2020-07-02T13:32:07Z</time>
      </trkpt>
      <trkpt lat="48.04331" lon="1.98473">
        <ele>124.3</ele>
        <time>2020-07-02T13:32:08Z</time>
      </trkpt>
      <trkpt lat="48.04325" lon="1.98469">
        <ele>124.3</ele>
        <time>2020-07-02T13:32:09Z</time>
      </trkpt>
      <trkpt lat="48.0432" lon="1.98465">
        <ele>124.4</ele>
        <time>2020-07-02T13:32:10Z</time>
      </trkpt>
      <trkpt lat="48.04314" lon="1.98461">
        <ele>124.4</ele>
        <time>2020-07-02T13:32:11Z</time>
      </trkpt>
      <trkpt lat="48.0431" lon="1.98458">
        <ele>124.4</ele>
        <time>2020-07-02T13:32:12Z</time>
      </trkpt>
      <trkpt lat="48.04304" lon="1.98453">
        <ele>124.4</ele>
        <time>2020-07-02T13:32:13Z</time>
      </trkpt>
      <trkpt lat="48.04298" lon="1.98447">
        <ele>124.5</ele>
        <time>2020-07-02T13:32:14Z</time>
      </trkpt>
      <trkpt lat="48.04293" lon="1.98443">
        <ele>124.5</ele>
        <time>2020-07-02T13:32:15Z</time>
      </trkpt>
      <trkpt lat="48.04288" lon="1.98438">
        <ele>124.6</ele>
        <time>2020-07-02T13:32:16Z</time>
      </trkpt>
      <trkpt lat="48.04283" lon="1.98433">
        <ele>124.6</ele>
        <time>2020-07-02T13:32:17Z</time>
      </trkpt>
      <trkpt lat="48.04277" lon="1.98428">
        <ele>124.7</ele>
        <time>2020-07-02T13:32:18Z</time>
      </trkpt>
      <trkpt lat="48.04272" lon="1.98423">
        <ele>124.8</ele>
        <time>2020-07-02T13:32:19Z</time>
      </trkpt>
      <trkpt lat="48.04266" lon="1.98417">
        <ele>124.9</ele>
        <time>2020-07-02T13:32:20Z</time>
      </trkpt>
      <trkpt lat="48.04261" lon="1.98411">
        <ele>124.9</ele>
        <time>2020-07-02T13:32:21Z</time>
      </trkpt>
      <trkpt lat="48.04256" lon="1.98407">
        <ele>125</ele>
        <time>2020-07-02T13:32:22Z</time>
      </trkpt>
      <trkpt lat="48.04252" lon="1.98404">
        <ele>125</ele>
        <time>2020-07-02T13:32:23Z</time>
      </trkpt>
      <trkpt lat="48.04249" lon="1.984">
        <ele>125.1</ele>
        <time>2020-07-02T13:32:24Z</time>
      </trkpt>
      <trkpt lat="48.04245" lon="1.98397">
        <ele>125.1</ele>
        <time>2020-07-02T13:32:25Z</time>
      </trkpt>
      <trkpt lat="48.04242" lon="1.98395">
        <ele>125.2</ele>
        <time>2020-07-02T13:32:26Z</time>
      </trkpt>
      <trkpt lat="48.04239" lon="1.98392">
        <ele>125.2</ele>
        <time>2020-07-02T13:32:27Z</time>
      </trkpt>
      <trkpt lat="48.04234" lon="1.98389">
        <ele>125.3</ele>
        <time>2020-07-02T13:32:28Z</time>
      </trkpt>
      <trkpt lat="48.04229" lon="1.98385">
        <ele>125.4</ele>
        <time>2020-07-02T13:32:29Z</time>
      </trkpt>
      <trkpt lat="48.04225" lon="1.98381">
        <ele>125.4</ele>
        <time>2020-07-02T13:32:30Z</time>
      </trkpt>
      <trkpt lat="48.04221" lon="1.98375">
        <ele>125.5</ele>
        <time>2020-07-02T13:32:31Z</time>
      </trkpt>
      <trkpt lat="48.04216" lon="1.98371">
        <ele>125.5</ele>
        <time>2020-07-02T13:32:32Z</time>
      </trkpt>
      <trkpt lat="48.04213" lon="1.98368">
        <ele>125.5</ele>
        <time>2020-07-02T13:32:33Z</time>
      </trkpt>
      <trkpt lat="48.04209" lon="1.98364">
        <ele>125.5</ele>
        <time>2020-07-02T13:32:34Z</time>
      </trkpt>
      <trkpt lat="48.04205" lon="1.9836">
        <ele>125.5</ele>
        <time>2020-07-02T13:32:35Z</time>
      </trkpt>
      <trkpt lat="48.04203" lon="1.98357">
        <ele>125.6</ele>
        <time>2020-07-02T13:32:36Z</time>
      </trkpt>
      <trkpt lat="48.04199" lon="1.98353">
        <ele>125.6</ele>
        <time>2020-07-02T13:32:37Z</time>
      </trkpt>
      <trkpt lat="48.04196" lon="1.98349">
        <ele>125.6</ele>
        <time>2020-07-02T13:32:38Z</time>
      </trkpt>
      <trkpt lat="48.04193" lon="1.98345">
        <ele>125.6</ele>
        <time>2020-07-02T13:32:39Z</time>
      </trkpt>
      <trkpt lat="48.04189" lon="1.98341">
        <ele>125.6</ele>
        <time>2020-07-02T13:32:40Z</time>
      </trkpt>
      <trkpt lat="48.04185" lon="1.98338">
        <ele>125.6</ele>
        <time>2020-07-02T13:32:41Z</time>
      </trkpt>
      <trkpt lat="48.04181" lon="1.98334">
        <ele>125.6</ele>
        <time>2020-07-02T13:32:42Z</time>
      </trkpt>
      <trkpt lat="48.04177" lon="1.9833">
        <ele>125.6</ele>
        <time>2020-07-02T13:32:43Z</time>
      </trkpt>
      <trkpt lat="48.04173" lon="1.98327">
        <ele>125.6</ele>
        <time>2020-07-02T13:32:44Z</time>
      </trkpt>
      <trkpt lat="48.04167" lon="1.98325">
        <ele>125.6</ele>
        <time>2020-07-02T13:32:45Z</time>
      </trkpt>
      <trkpt lat="48.04163" lon="1.98321">
        <ele>125.6</ele>
        <time>2020-07-02T13:32:46Z</time>
      </trkpt>
      <trkpt lat="48.04159" lon="1.98316">
        <ele>125.6</ele>
        <time>2020-07-02T13:32:47Z</time>
      </trkpt>
      <trkpt lat="48.04155" lon="1.98313">
        <ele>125.6</ele>
        <time>2020-07-02T13:32:48Z</time>
      </trkpt>
      <trkpt lat="48.04151" lon="1.98309">
        <ele>125.7</ele>
        <time>2020-07-02T13:32:49Z</time>
      </trkpt>
      <trkpt lat="48.04147" lon="1.98305">
        <ele>125.7</ele>
        <time>2020-07-02T13:32:50Z</time>
      </trkpt>
      <trkpt lat="48.04144" lon="1.98302">
        <ele>125.7</ele>
        <time>2020-07-02T13:32:51Z</time>
      </trkpt>
      <trkpt lat="48.0414" lon="1.98299">
        <ele>125.7</ele>
        <time>2020-07-02T13:32:52Z</time>
      </trkpt>
      <trkpt lat="48.04136" lon="1.98296">
        <ele>125.7</ele>
        <time>2020-07-02T13:32:53Z</time>
      </trkpt>
      <trkpt lat="48.04132" lon="1.98293">
        <ele>125.7</ele>
        <time>2020-07-02T13:32:54Z</time>
      </trkpt>
      <trkpt lat="48.04128" lon="1.98291">
        <ele>125.7</ele>
        <time>2020-07-02T13:32:55Z</time>
      </trkpt>
      <trkpt lat="48.04124" lon="1.98288">
        <ele>125.7</ele>
        <time>2020-07-02T13:32:56Z</time>
      </trkpt>
      <trkpt lat="48.0412" lon="1.98284">
        <ele>125.7</ele>
        <time>2020-07-02T13:32:57Z</time>
      </trkpt>
      <trkpt lat="48.04116" lon="1.9828">
        <ele>125.7</ele>
        <time>2020-07-02T13:32:58Z</time>
      </trkpt>
      <trkpt lat="48.04112" lon="1.98276">
        <ele>125.6</ele>
        <time>2020-07-02T13:32:59Z</time>
      </trkpt>
      <trkpt lat="48.04108" lon="1.98271">
        <ele>125.6</ele>
        <time>2020-07-02T13:33:00Z</time>
      </trkpt>
      <trkpt lat="48.04105" lon="1.98268">
        <ele>125.6</ele>
        <time>2020-07-02T13:33:01Z</time>
      </trkpt>
      <trkpt lat="48.041" lon="1.98263">
        <ele>125.6</ele>
        <time>2020-07-02T13:33:02Z</time>
      </trkpt>
      <trkpt lat="48.04096" lon="1.9826">
        <ele>125.5</ele>
        <time>2020-07-02T13:33:03Z</time>
      </trkpt>
      <trkpt lat="48.04091" lon="1.98256">
        <ele>125.5</ele>
        <time>2020-07-02T13:33:04Z</time>
      </trkpt>
      <trkpt lat="48.04087" lon="1.98253">
        <ele>125.5</ele>
        <time>2020-07-02T13:33:05Z</time>
      </trkpt>
      <trkpt lat="48.04083" lon="1.98248">
        <ele>125.5</ele>
        <time>2020-07-02T13:33:06Z</time>
      </trkpt>
      <trkpt lat="48.04079" lon="1.98244">
        <ele>125.5</ele>
        <time>2020-07-02T13:33:07Z</time>
      </trkpt>
      <trkpt lat="48.04076" lon="1.98241">
        <ele>125.5</ele>
        <time>2020-07-02T13:33:08Z</time>
      </trkpt>
      <trkpt lat="48.04074" lon="1.98237">
        <ele>125.5</ele>
        <time>2020-07-02T13:33:09Z</time>
      </trkpt>
      <trkpt lat="48.04071" lon="1.98234">
        <ele>125.5</ele>
        <time>2020-07-02T13:33:10Z</time>
      </trkpt>
      <trkpt lat="48.04069" lon="1.98232">
        <ele>125.4</ele>
        <time>2020-07-02T13:33:11Z</time>
      </trkpt>
      <trkpt lat="48.04066" lon="1.98229">
        <ele>125.4</ele>
        <time>2020-07-02T13:33:12Z</time>
      </trkpt>
      <trkpt lat="48.04062" lon="1.98225">
        <ele>125.4</ele>
        <time>2020-07-02T13:33:13Z</time>
      </trkpt>
      <trkpt lat="48.04059" lon="1.98222">
        <ele>125.4</ele>
        <time>2020-07-02T13:33:14Z</time>
      </trkpt>
      <trkpt lat="48.04056" lon="1.98218">
        <ele>125.4</ele>
        <time>2020-07-02T13:33:15Z</time>
      </trkpt>
      <trkpt lat="48.04053" lon="1.98215">
        <ele>125.4</ele>
        <time>2020-07-02T13:33:16Z</time>
      </trkpt>
      <trkpt lat="48.04051" lon="1.98214">
        <ele>125.4</ele>
        <time>2020-07-02T13:33:17Z</time>
      </trkpt>
      <trkpt lat="48.04049" lon="1.98211">
        <ele>125.4</ele>
        <time>2020-07-02T13:33:18Z</time>
      </trkpt>
      <trkpt lat="48.04045" lon="1.98208">
        <ele>125.4</ele>
        <time>2020-07-02T13:33:19Z</time>
      </trkpt>
      <trkpt lat="48.04043" lon="1.98204">
        <ele>125.4</ele>
        <time>2020-07-02T13:33:20Z</time>
      </trkpt>
      <trkpt lat="48.04041" lon="1.98202">
        <ele>125.4</ele>
        <time>2020-07-02T13:33:21Z</time>
      </trkpt>
      <trkpt lat="48.0404" lon="1.98201">
        <ele>125.4</ele>
        <time>2020-07-02T13:33:22Z</time>
      </trkpt>
      <trkpt lat="48.0404" lon="1.98201">
        <ele>125.4</ele>
        <time>2020-07-02T13:33:23Z</time>
      </trkpt>
      <trkpt lat="48.04039" lon="1.982">
        <ele>125.4</ele>
        <time>2020-07-02T13:33:24Z</time>
      </trkpt>
      <trkpt lat="48.04039" lon="1.982">
        <ele>125.4</ele>
        <time>2020-07-02T13:33:25Z</time>
      </trkpt>
      <trkpt lat="48.04039" lon="1.98199">
        <ele>125.4</ele>
        <time>2020-07-02T13:33:26Z</time>
      </trkpt>
      <trkpt lat="48.04038" lon="1.98199">
        <ele>125.4</ele>
        <time>2020-07-02T13:33:27Z</time>
      </trkpt>
      <trkpt lat="48.04038" lon="1.98198">
        <ele>125.4</ele>
        <time>2020-07-02T13:33:28Z</time>
      </trkpt>
      <trkpt lat="48.04037" lon="1.98198">
        <ele>125.4</ele>
        <time>2020-07-02T13:33:29Z</time>
      </trkpt>
      <trkpt lat="48.04037" lon="1.98198">
        <ele>125.4</ele>
        <time>2020-07-02T13:33:30Z</time>
      </trkpt>
      <trkpt lat="48.04036" lon="1.98197">
        <ele>125.4</ele>
        <time>2020-07-02T13:33:31Z</time>
      </trkpt>
      <trkpt lat="48.04036" lon="1.98197">
        <ele>125.4</ele>
        <time>2020-07-02T13:33:32Z</time>
      </trkpt>
      <trkpt lat="48.04036" lon="1.98196">
        <ele>125.4</ele>
        <time>2020-07-02T13:33:33Z</time>
      </trkpt>
      <trkpt lat="48.04035" lon="1.98196">
        <ele>125.4</ele>
        <time>2020-07-02T13:38:41Z</time>
      </trkpt>
      <trkpt lat="48.04035" lon="1.98195">
        <ele>125.4</ele>
        <time>2020-07-02T13:38:42Z</time>
      </trkpt>
      <trkpt lat="48.04031" lon="1.98191">
        <ele>125.4</ele>
        <time>2020-07-02T13:38:43Z</time>
      </trkpt>
      <trkpt lat="48.04027" lon="1.98187">
        <ele>125.4</ele>
        <time>2020-07-02T13:38:44Z</time>
      </trkpt>
      <trkpt lat="48.04024" lon="1.98183">
        <ele>125.4</ele>
        <time>2020-07-02T13:38:45Z</time>
      </trkpt>
      <trkpt lat="48.0402" lon="1.98179">
        <ele>125.4</ele>
        <time>2020-07-02T13:38:46Z</time>
      </trkpt>
      <trkpt lat="48.04016" lon="1.98174">
        <ele>125.4</ele>
        <time>2020-07-02T13:38:47Z</time>
      </trkpt>
      <trkpt lat="48.04012" lon="1.98171">
        <ele>125.4</ele>
        <time>2020-07-02T13:38:48Z</time>
      </trkpt>
      <trkpt lat="48.04008" lon="1.98168">
        <ele>125.4</ele>
        <time>2020-07-02T13:38:49Z</time>
      </trkpt>
      <trkpt lat="48.04004" lon="1.98164">
        <ele>125.4</ele>
        <time>2020-07-02T13:38:50Z</time>
      </trkpt>
      <trkpt lat="48.03999" lon="1.9816">
        <ele>125.4</ele>
        <time>2020-07-02T13:38:51Z</time>
      </trkpt>
      <trkpt lat="48.03994" lon="1.98156">
        <ele>125.4</ele>
        <time>2020-07-02T13:38:52Z</time>
      </trkpt>
      <trkpt lat="48.03989" lon="1.98152">
        <ele>125.4</ele>
        <time>2020-07-02T13:38:53Z</time>
      </trkpt>
      <trkpt lat="48.03984" lon="1.98149">
        <ele>125.4</ele>
        <time>2020-07-02T13:38:54Z</time>
      </trkpt>
      <trkpt lat="48.03979" lon="1.98144">
        <ele>125.4</ele>
        <time>2020-07-02T13:38:55Z</time>
      </trkpt>
      <trkpt lat="48.03976" lon="1.9814">
        <ele>125.3</ele>
        <time>2020-07-02T13:38:56Z</time>
      </trkpt>
      <trkpt lat="48.03971" lon="1.98135">
        <ele>125.3</ele>
        <time>2020-07-02T13:38:57Z</time>
      </trkpt>
      <trkpt lat="48.03967" lon="1.98131">
        <ele>125.3</ele>
        <time>2020-07-02T13:38:58Z</time>
      </trkpt>
      <trkpt lat="48.03962" lon="1.98127">
        <ele>125.2</ele>
        <time>2020-07-02T13:38:59Z</time>
      </trkpt>
      <trkpt lat="48.03957" lon="1.98124">
        <ele>125.2</ele>
        <time>2020-07-02T13:39:00Z</time>
      </trkpt>
      <trkpt lat="48.03952" lon="1.98119">
        <ele>125.2</ele>
        <time>2020-07-02T13:39:01Z</time>
      </trkpt>
      <trkpt lat="48.03947" lon="1.98115">
        <ele>125.1</ele>
        <time>2020-07-02T13:39:02Z</time>
      </trkpt>
      <trkpt lat="48.03942" lon="1.9811">
        <ele>125.1</ele>
        <time>2020-07-02T13:39:03Z</time>
      </trkpt>
      <trkpt lat="48.03937" lon="1.98105">
        <ele>125.1</ele>
        <time>2020-07-02T13:39:04Z</time>
      </trkpt>
      <trkpt lat="48.03932" lon="1.981">
        <ele>125.1</ele>
        <time>2020-07-02T13:39:05Z</time>
      </trkpt>
      <trkpt lat="48.03926" lon="1.98097">
        <ele>125.1</ele>
        <time>2020-07-02T13:39:06Z</time>
      </trkpt>
      <trkpt lat="48.0392" lon="1.98092">
        <ele>125.1</ele>
        <time>2020-07-02T13:39:07Z</time>
      </trkpt>
      <trkpt lat="48.03914" lon="1.98087">
        <ele>125</ele>
        <time>2020-07-02T13:39:08Z</time>
      </trkpt>
      <trkpt lat="48.03909" lon="1.98082">
        <ele>125</ele>
        <time>2020-07-02T13:39:09Z</time>
      </trkpt>
      <trkpt lat="48.03904" lon="1.98077">
        <ele>125</ele>
        <time>2020-07-02T13:39:10Z</time>
      </trkpt>
      <trkpt lat="48.03899" lon="1.98072">
        <ele>125</ele>
        <time>2020-07-02T13:39:11Z</time>
      </trkpt>
      <trkpt lat="48.03894" lon="1.98067">
        <ele>125</ele>
        <time>2020-07-02T13:39:12Z</time>
      </trkpt>
      <trkpt lat="48.0389" lon="1.98061">
        <ele>125</ele>
        <time>2020-07-02T13:39:13Z</time>
      </trkpt>
      <trkpt lat="48.03885" lon="1.98057">
        <ele>125</ele>
        <time>2020-07-02T13:39:14Z</time>
      </trkpt>
      <trkpt lat="48.03879" lon="1.98051">
        <ele>125</ele>
        <time>2020-07-02T13:39:15Z</time>
      </trkpt>
      <trkpt lat="48.03874" lon="1.98048">
        <ele>125</ele>
        <time>2020-07-02T13:39:16Z</time>
      </trkpt>
      <trkpt lat="48.03871" lon="1.98046">
        <ele>125</ele>
        <time>2020-07-02T13:39:17Z</time>
      </trkpt>
      <trkpt lat="48.03866" lon="1.98042">
        <ele>125</ele>
        <time>2020-07-02T13:39:18Z</time>
      </trkpt>
      <trkpt lat="48.03861" lon="1.98037">
        <ele>125</ele>
        <time>2020-07-02T13:39:19Z</time>
      </trkpt>
      <trkpt lat="48.03855" lon="1.98031">
        <ele>125.1</ele>
        <time>2020-07-02T13:39:20Z</time>
      </trkpt>
      <trkpt lat="48.0385" lon="1.98026">
        <ele>125.1</ele>
        <time>2020-07-02T13:39:21Z</time>
      </trkpt>
      <trkpt lat="48.03845" lon="1.98021">
        <ele>125.1</ele>
        <time>2020-07-02T13:39:22Z</time>
      </trkpt>
      <trkpt lat="48.0384" lon="1.98018">
        <ele>125.2</ele>
        <time>2020-07-02T13:39:23Z</time>
      </trkpt>
      <trkpt lat="48.03835" lon="1.98012">
        <ele>125.2</ele>
        <time>2020-07-02T13:39:24Z</time>
      </trkpt>
      <trkpt lat="48.0383" lon="1.98007">
        <ele>125.3</ele>
        <time>2020-07-02T13:39:25Z</time>
      </trkpt>
      <trkpt lat="48.03825" lon="1.98002">
        <ele>125.3</ele>
        <time>2020-07-02T13:39:26Z</time>
      </trkpt>
      <trkpt lat="48.03822" lon="1.97998">
        <ele>125.3</ele>
        <time>2020-07-02T13:39:27Z</time>
      </trkpt>
      <trkpt lat="48.03818" lon="1.97993">
        <ele>125.3</ele>
        <time>2020-07-02T13:39:28Z</time>
      </trkpt>
      <trkpt lat="48.03812" lon="1.97988">
        <ele>125.3</ele>
        <time>2020-07-02T13:39:29Z</time>
      </trkpt>
      <trkpt lat="48.03807" lon="1.97983">
        <ele>125.3</ele>
        <time>2020-07-02T13:39:30Z</time>
      </trkpt>
      <trkpt lat="48.03803" lon="1.97977">
        <ele>125.4</ele>
        <time>2020-07-02T13:39:31Z</time>
      </trkpt>
      <trkpt lat="48.03798" lon="1.97972">
        <ele>125.4</ele>
        <time>2020-07-02T13:39:32Z</time>
      </trkpt>
      <trkpt lat="48.03793" lon="1.97968">
        <ele>125.5</ele>
        <time>2020-07-02T13:39:33Z</time>
      </trkpt>
      <trkpt lat="48.03787" lon="1.97962">
        <ele>125.6</ele>
        <time>2020-07-02T13:39:34Z</time>
      </trkpt>
      <trkpt lat="48.03782" lon="1.97957">
        <ele>125.6</ele>
        <time>2020-07-02T13:39:35Z</time>
      </trkpt>
      <trkpt lat="48.03777" lon="1.97954">
        <ele>125.7</ele>
        <time>2020-07-02T13:39:36Z</time>
      </trkpt>
      <trkpt lat="48.03771" lon="1.97948">
        <ele>125.8</ele>
        <time>2020-07-02T13:39:37Z</time>
      </trkpt>
      <trkpt lat="48.03765" lon="1.97942">
        <ele>125.8</ele>
        <time>2020-07-02T13:39:38Z</time>
      </trkpt>
      <trkpt lat="48.03759" lon="1.97939">
        <ele>125.8</ele>
        <time>2020-07-02T13:39:39Z</time>
      </trkpt>
      <trkpt lat="48.03754" lon="1.97934">
        <ele>125.9</ele>
        <time>2020-07-02T13:39:40Z</time>
      </trkpt>
      <trkpt lat="48.03749" lon="1.97929">
        <ele>125.9</ele>
        <time>2020-07-02T13:39:41Z</time>
      </trkpt>
      <trkpt lat="48.03744" lon="1.97925">
        <ele>125.9</ele>
        <time>2020-07-02T13:39:42Z</time>
      </trkpt>
      <trkpt lat="48.03738" lon="1.97919">
        <ele>125.8</ele>
        <time>2020-07-02T13:39:43Z</time>
      </trkpt>
      <trkpt lat="48.03733" lon="1.97914">
        <ele>125.7</ele>
        <time>2020-07-02T13:39:44Z</time>
      </trkpt>
      <trkpt lat="48.03728" lon="1.97909">
        <ele>125.6</ele>
        <time>2020-07-02T13:39:45Z</time>
      </trkpt>
      <trkpt lat="48.03722" lon="1.97905">
        <ele>125.6</ele>
        <time>2020-07-02T13:39:46Z</time>
      </trkpt>
      <trkpt lat="48.03717" lon="1.979">
        <ele>125.5</ele>
        <time>2020-07-02T13:39:47Z</time>
      </trkpt>
      <trkpt lat="48.03712" lon="1.97895">
        <ele>125.5</ele>
        <time>2020-07-02T13:39:48Z</time>
      </trkpt>
      <trkpt lat="48.03706" lon="1.9789">
        <ele>125.4</ele>
        <time>2020-07-02T13:39:49Z</time>
      </trkpt>
      <trkpt lat="48.037" lon="1.97885">
        <ele>125.4</ele>
        <time>2020-07-02T13:39:50Z</time>
      </trkpt>
      <trkpt lat="48.03695" lon="1.9788">
        <ele>125.4</ele>
        <time>2020-07-02T13:39:51Z</time>
      </trkpt>
      <trkpt lat="48.0369" lon="1.97875">
        <ele>125.3</ele>
        <time>2020-07-02T13:39:52Z</time>
      </trkpt>
      <trkpt lat="48.03684" lon="1.9787">
        <ele>125.3</ele>
        <time>2020-07-02T13:39:53Z</time>
      </trkpt>
      <trkpt lat="48.03679" lon="1.97865">
        <ele>125.3</ele>
        <time>2020-07-02T13:39:54Z</time>
      </trkpt>
      <trkpt lat="48.03674" lon="1.9786">
        <ele>125.3</ele>
        <time>2020-07-02T13:39:55Z</time>
      </trkpt>
      <trkpt lat="48.03668" lon="1.97855">
        <ele>125.2</ele>
        <time>2020-07-02T13:39:56Z</time>
      </trkpt>
      <trkpt lat="48.03662" lon="1.9785">
        <ele>125.2</ele>
        <time>2020-07-02T13:39:57Z</time>
      </trkpt>
      <trkpt lat="48.03657" lon="1.97844">
        <ele>125.2</ele>
        <time>2020-07-02T13:39:58Z</time>
      </trkpt>
      <trkpt lat="48.03652" lon="1.97838">
        <ele>125.1</ele>
        <time>2020-07-02T13:39:59Z</time>
      </trkpt>
      <trkpt lat="48.03646" lon="1.97833">
        <ele>125.1</ele>
        <time>2020-07-02T13:40:00Z</time>
      </trkpt>
      <trkpt lat="48.03641" lon="1.97829">
        <ele>125.1</ele>
        <time>2020-07-02T13:40:01Z</time>
      </trkpt>
      <trkpt lat="48.03636" lon="1.97824">
        <ele>125.1</ele>
        <time>2020-07-02T13:40:02Z</time>
      </trkpt>
      <trkpt lat="48.03631" lon="1.97819">
        <ele>125.1</ele>
        <time>2020-07-02T13:40:03Z</time>
      </trkpt>
      <trkpt lat="48.03626" lon="1.97815">
        <ele>125.1</ele>
        <time>2020-07-02T13:40:04Z</time>
      </trkpt>
      <trkpt lat="48.0362" lon="1.9781">
        <ele>125</ele>
        <time>2020-07-02T13:40:05Z</time>
      </trkpt>
      <trkpt lat="48.03614" lon="1.97805">
        <ele>124.9</ele>
        <time>2020-07-02T13:40:06Z</time>
      </trkpt>
      <trkpt lat="48.03609" lon="1.97801">
        <ele>124.7</ele>
        <time>2020-07-02T13:40:07Z</time>
      </trkpt>
      <trkpt lat="48.03603" lon="1.97796">
        <ele>124.7</ele>
        <time>2020-07-02T13:40:08Z</time>
      </trkpt>
      <trkpt lat="48.03598" lon="1.97791">
        <ele>124.6</ele>
        <time>2020-07-02T13:40:09Z</time>
      </trkpt>
      <trkpt lat="48.03592" lon="1.97785">
        <ele>124.6</ele>
        <time>2020-07-02T13:40:10Z</time>
      </trkpt>
      <trkpt lat="48.03587" lon="1.9778">
        <ele>124.5</ele>
        <time>2020-07-02T13:40:11Z</time>
      </trkpt>
      <trkpt lat="48.03581" lon="1.97775">
        <ele>124.5</ele>
        <time>2020-07-02T13:40:12Z</time>
      </trkpt>
      <trkpt lat="48.03576" lon="1.97769">
        <ele>124.5</ele>
        <time>2020-07-02T13:40:13Z</time>
      </trkpt>
      <trkpt lat="48.03571" lon="1.97764">
        <ele>124.5</ele>
        <time>2020-07-02T13:40:14Z</time>
      </trkpt>
      <trkpt lat="48.03565" lon="1.97758">
        <ele>124.5</ele>
        <time>2020-07-02T13:40:15Z</time>
      </trkpt>
      <trkpt lat="48.0356" lon="1.97752">
        <ele>124.5</ele>
        <time>2020-07-02T13:40:16Z</time>
      </trkpt>
      <trkpt lat="48.03554" lon="1.97747">
        <ele>124.5</ele>
        <time>2020-07-02T13:40:17Z</time>
      </trkpt>
      <trkpt lat="48.03548" lon="1.97742">
        <ele>124.6</ele>
        <time>2020-07-02T13:40:18Z</time>
      </trkpt>
      <trkpt lat="48.03543" lon="1.97736">
        <ele>124.7</ele>
        <time>2020-07-02T13:40:19Z</time>
      </trkpt>
      <trkpt lat="48.03537" lon="1.9773">
        <ele>124.8</ele>
        <time>2020-07-02T13:40:20Z</time>
      </trkpt>
      <trkpt lat="48.0353" lon="1.97725">
        <ele>124.9</ele>
        <time>2020-07-02T13:40:21Z</time>
      </trkpt>
      <trkpt lat="48.03525" lon="1.9772">
        <ele>125</ele>
        <time>2020-07-02T13:40:22Z</time>
      </trkpt>
      <trkpt lat="48.03519" lon="1.97715">
        <ele>125.2</ele>
        <time>2020-07-02T13:40:23Z</time>
      </trkpt>
      <trkpt lat="48.03514" lon="1.9771">
        <ele>125.2</ele>
        <time>2020-07-02T13:40:24Z</time>
      </trkpt>
      <trkpt lat="48.03509" lon="1.97704">
        <ele>125.2</ele>
        <time>2020-07-02T13:40:25Z</time>
      </trkpt>
      <trkpt lat="48.03504" lon="1.97699">
        <ele>125.2</ele>
        <time>2020-07-02T13:40:26Z</time>
      </trkpt>
      <trkpt lat="48.03498" lon="1.97694">
        <ele>125.1</ele>
        <time>2020-07-02T13:40:27Z</time>
      </trkpt>
      <trkpt lat="48.03493" lon="1.9769">
        <ele>125.1</ele>
        <time>2020-07-02T13:40:28Z</time>
      </trkpt>
      <trkpt lat="48.03488" lon="1.97684">
        <ele>125.1</ele>
        <time>2020-07-02T13:40:29Z</time>
      </trkpt>
      <trkpt lat="48.03483" lon="1.97679">
        <ele>125.1</ele>
        <time>2020-07-02T13:40:30Z</time>
      </trkpt>
      <trkpt lat="48.03478" lon="1.97674">
        <ele>125.1</ele>
        <time>2020-07-02T13:40:31Z</time>
      </trkpt>
      <trkpt lat="48.03473" lon="1.97669">
        <ele>125.1</ele>
        <time>2020-07-02T13:40:32Z</time>
      </trkpt>
      <trkpt lat="48.03468" lon="1.97664">
        <ele>125.1</ele>
        <time>2020-07-02T13:40:33Z</time>
      </trkpt>
      <trkpt lat="48.03463" lon="1.97659">
        <ele>125.1</ele>
        <time>2020-07-02T13:40:34Z</time>
      </trkpt>
      <trkpt lat="48.03457" lon="1.97655">
        <ele>125.1</ele>
        <time>2020-07-02T13:40:35Z</time>
      </trkpt>
      <trkpt lat="48.03451" lon="1.97651">
        <ele>125.1</ele>
        <time>2020-07-02T13:40:36Z</time>
      </trkpt>
      <trkpt lat="48.03446" lon="1.97645">
        <ele>125.1</ele>
        <time>2020-07-02T13:40:37Z</time>
      </trkpt>
      <trkpt lat="48.03442" lon="1.97642">
        <ele>125.1</ele>
        <time>2020-07-02T13:40:38Z</time>
      </trkpt>
      <trkpt lat="48.03437" lon="1.97638">
        <ele>125.1</ele>
        <time>2020-07-02T13:40:39Z</time>
      </trkpt>
      <trkpt lat="48.03432" lon="1.97633">
        <ele>125.1</ele>
        <time>2020-07-02T13:40:40Z</time>
      </trkpt>
      <trkpt lat="48.03427" lon="1.97627">
        <ele>125.1</ele>
        <time>2020-07-02T13:40:41Z</time>
      </trkpt>
      <trkpt lat="48.03422" lon="1.97622">
        <ele>125.1</ele>
        <time>2020-07-02T13:40:42Z</time>
      </trkpt>
      <trkpt lat="48.03417" lon="1.97618">
        <ele>125.1</ele>
        <time>2020-07-02T13:40:43Z</time>
      </trkpt>
      <trkpt lat="48.03412" lon="1.97613">
        <ele>125.1</ele>
        <time>2020-07-02T13:40:44Z</time>
      </trkpt>
      <trkpt lat="48.03406" lon="1.97609">
        <ele>125.1</ele>
        <time>2020-07-02T13:40:45Z</time>
      </trkpt>
      <trkpt lat="48.034" lon="1.97604">
        <ele>125.1</ele>
        <time>2020-07-02T13:40:46Z</time>
      </trkpt>
      <trkpt lat="48.03395" lon="1.976">
        <ele>125.1</ele>
        <time>2020-07-02T13:40:47Z</time>
      </trkpt>
      <trkpt lat="48.0339" lon="1.97595">
        <ele>125.1</ele>
        <time>2020-07-02T13:40:48Z</time>
      </trkpt>
      <trkpt lat="48.03385" lon="1.97589">
        <ele>125.1</ele>
        <time>2020-07-02T13:40:49Z</time>
      </trkpt>
      <trkpt lat="48.0338" lon="1.97584">
        <ele>125</ele>
        <time>2020-07-02T13:40:50Z</time>
      </trkpt>
      <trkpt lat="48.03375" lon="1.97579">
        <ele>125</ele>
        <time>2020-07-02T13:40:51Z</time>
      </trkpt>
      <trkpt lat="48.03369" lon="1.97573">
        <ele>124.9</ele>
        <time>2020-07-02T13:40:52Z</time>
      </trkpt>
      <trkpt lat="48.03365" lon="1.97569">
        <ele>124.9</ele>
        <time>2020-07-02T13:40:53Z</time>
      </trkpt>
      <trkpt lat="48.03359" lon="1.97564">
        <ele>124.9</ele>
        <time>2020-07-02T13:40:54Z</time>
      </trkpt>
      <trkpt lat="48.03354" lon="1.9756">
        <ele>124.9</ele>
        <time>2020-07-02T13:40:55Z</time>
      </trkpt>
      <trkpt lat="48.03348" lon="1.97555">
        <ele>124.9</ele>
        <time>2020-07-02T13:40:56Z</time>
      </trkpt>
      <trkpt lat="48.03343" lon="1.9755">
        <ele>124.9</ele>
        <time>2020-07-02T13:40:57Z</time>
      </trkpt>
      <trkpt lat="48.03338" lon="1.97545">
        <ele>124.9</ele>
        <time>2020-07-02T13:40:58Z</time>
      </trkpt>
      <trkpt lat="48.03333" lon="1.9754">
        <ele>124.9</ele>
        <time>2020-07-02T13:40:59Z</time>
      </trkpt>
      <trkpt lat="48.03328" lon="1.97535">
        <ele>124.9</ele>
        <time>2020-07-02T13:41:00Z</time>
      </trkpt>
      <trkpt lat="48.03323" lon="1.9753">
        <ele>124.9</ele>
        <time>2020-07-02T13:41:01Z</time>
      </trkpt>
      <trkpt lat="48.03318" lon="1.97525">
        <ele>125</ele>
        <time>2020-07-02T13:41:02Z</time>
      </trkpt>
      <trkpt lat="48.03313" lon="1.97522">
        <ele>125.1</ele>
        <time>2020-07-02T13:41:03Z</time>
      </trkpt>
      <trkpt lat="48.03307" lon="1.97517">
        <ele>125.2</ele>
        <time>2020-07-02T13:41:04Z</time>
      </trkpt>
      <trkpt lat="48.03303" lon="1.97512">
        <ele>125.3</ele>
        <time>2020-07-02T13:41:05Z</time>
      </trkpt>
      <trkpt lat="48.03298" lon="1.97509">
        <ele>125.4</ele>
        <time>2020-07-02T13:41:06Z</time>
      </trkpt>
      <trkpt lat="48.03293" lon="1.97505">
        <ele>125.5</ele>
        <time>2020-07-02T13:41:07Z</time>
      </trkpt>
      <trkpt lat="48.03287" lon="1.97499">
        <ele>125.5</ele>
        <time>2020-07-02T13:41:08Z</time>
      </trkpt>
      <trkpt lat="48.03282" lon="1.97495">
        <ele>125.5</ele>
        <time>2020-07-02T13:41:09Z</time>
      </trkpt>
      <trkpt lat="48.03277" lon="1.97489">
        <ele>125.5</ele>
        <time>2020-07-02T13:41:10Z</time>
      </trkpt>
      <trkpt lat="48.03272" lon="1.97484">
        <ele>125.5</ele>
        <time>2020-07-02T13:41:11Z</time>
      </trkpt>
      <trkpt lat="48.03267" lon="1.97479">
        <ele>125.5</ele>
        <time>2020-07-02T13:41:12Z</time>
      </trkpt>
      <trkpt lat="48.03263" lon="1.97475">
        <ele>125.6</ele>
        <time>2020-07-02T13:41:13Z</time>
      </trkpt>
      <trkpt lat="48.03258" lon="1.9747">
        <ele>125.7</ele>
        <time>2020-07-02T13:41:14Z</time>
      </trkpt>
      <trkpt lat="48.03254" lon="1.97466">
        <ele>125.7</ele>
        <time>2020-07-02T13:41:15Z</time>
      </trkpt>
      <trkpt lat="48.03249" lon="1.97462">
        <ele>125.8</ele>
        <time>2020-07-02T13:41:16Z</time>
      </trkpt>
      <trkpt lat="48.03245" lon="1.97458">
        <ele>125.9</ele>
        <time>2020-07-02T13:41:17Z</time>
      </trkpt>
      <trkpt lat="48.03241" lon="1.97454">
        <ele>126</ele>
        <time>2020-07-02T13:41:18Z</time>
      </trkpt>
      <trkpt lat="48.03235" lon="1.97449">
        <ele>126.1</ele>
        <time>2020-07-02T13:41:19Z</time>
      </trkpt>
      <trkpt lat="48.0323" lon="1.97445">
        <ele>126.3</ele>
        <time>2020-07-02T13:41:20Z</time>
      </trkpt>
      <trkpt lat="48.03225" lon="1.97443">
        <ele>126.4</ele>
        <time>2020-07-02T13:41:21Z</time>
      </trkpt>
      <trkpt lat="48.03221" lon="1.97439">
        <ele>126.5</ele>
        <time>2020-07-02T13:41:22Z</time>
      </trkpt>
      <trkpt lat="48.03217" lon="1.97437">
        <ele>126.5</ele>
        <time>2020-07-02T13:41:23Z</time>
      </trkpt>
      <trkpt lat="48.03213" lon="1.97434">
        <ele>126.7</ele>
        <time>2020-07-02T13:41:24Z</time>
      </trkpt>
      <trkpt lat="48.03208" lon="1.9743">
        <ele>126.8</ele>
        <time>2020-07-02T13:41:25Z</time>
      </trkpt>
      <trkpt lat="48.03204" lon="1.97427">
        <ele>126.9</ele>
        <time>2020-07-02T13:41:26Z</time>
      </trkpt>
      <trkpt lat="48.032" lon="1.97424">
        <ele>127</ele>
        <time>2020-07-02T13:41:27Z</time>
      </trkpt>
      <trkpt lat="48.03195" lon="1.97421">
        <ele>127</ele>
        <time>2020-07-02T13:41:28Z</time>
      </trkpt>
      <trkpt lat="48.0319" lon="1.97417">
        <ele>127.1</ele>
        <time>2020-07-02T13:41:29Z</time>
      </trkpt>
      <trkpt lat="48.03184" lon="1.97412">
        <ele>127.2</ele>
        <time>2020-07-02T13:41:30Z</time>
      </trkpt>
      <trkpt lat="48.03178" lon="1.97408">
        <ele>127.2</ele>
        <time>2020-07-02T13:41:31Z</time>
      </trkpt>
      <trkpt lat="48.03173" lon="1.97404">
        <ele>127.3</ele>
        <time>2020-07-02T13:41:32Z</time>
      </trkpt>
      <trkpt lat="48.03167" lon="1.974">
        <ele>127.4</ele>
        <time>2020-07-02T13:41:33Z</time>
      </trkpt>
      <trkpt lat="48.03162" lon="1.97397">
        <ele>127.4</ele>
        <time>2020-07-02T13:41:34Z</time>
      </trkpt>
      <trkpt lat="48.03157" lon="1.97393">
        <ele>127.4</ele>
        <time>2020-07-02T13:41:35Z</time>
      </trkpt>
      <trkpt lat="48.03151" lon="1.97389">
        <ele>127.5</ele>
        <time>2020-07-02T13:41:36Z</time>
      </trkpt>
      <trkpt lat="48.03146" lon="1.97385">
        <ele>127.5</ele>
        <time>2020-07-02T13:41:37Z</time>
      </trkpt>
      <trkpt lat="48.0314" lon="1.97381">
        <ele>127.5</ele>
        <time>2020-07-02T13:41:38Z</time>
      </trkpt>
      <trkpt lat="48.03134" lon="1.97375">
        <ele>127.6</ele>
        <time>2020-07-02T13:41:39Z</time>
      </trkpt>
      <trkpt lat="48.03129" lon="1.97372">
        <ele>127.6</ele>
        <time>2020-07-02T13:41:40Z</time>
      </trkpt>
      <trkpt lat="48.03124" lon="1.97369">
        <ele>127.6</ele>
        <time>2020-07-02T13:41:41Z</time>
      </trkpt>
      <trkpt lat="48.03119" lon="1.97364">
        <ele>127.6</ele>
        <time>2020-07-02T13:41:42Z</time>
      </trkpt>
      <trkpt lat="48.03115" lon="1.97361">
        <ele>127.6</ele>
        <time>2020-07-02T13:41:43Z</time>
      </trkpt>
      <trkpt lat="48.03109" lon="1.97357">
        <ele>127.6</ele>
        <time>2020-07-02T13:41:44Z</time>
      </trkpt>
      <trkpt lat="48.03104" lon="1.97353">
        <ele>127.6</ele>
        <time>2020-07-02T13:41:45Z</time>
      </trkpt>
      <trkpt lat="48.03099" lon="1.97349">
        <ele>127.6</ele>
        <time>2020-07-02T13:41:46Z</time>
      </trkpt>
      <trkpt lat="48.03092" lon="1.97343">
        <ele>127.6</ele>
        <time>2020-07-02T13:41:47Z</time>
      </trkpt>
      <trkpt lat="48.03087" lon="1.97339">
        <ele>127.5</ele>
        <time>2020-07-02T13:41:48Z</time>
      </trkpt>
      <trkpt lat="48.0308" lon="1.97336">
        <ele>127.5</ele>
        <time>2020-07-02T13:41:49Z</time>
      </trkpt>
      <trkpt lat="48.03075" lon="1.97331">
        <ele>127.5</ele>
        <time>2020-07-02T13:41:50Z</time>
      </trkpt>
      <trkpt lat="48.03069" lon="1.97328">
        <ele>127.5</ele>
        <time>2020-07-02T13:41:51Z</time>
      </trkpt>
      <trkpt lat="48.03064" lon="1.97325">
        <ele>127.6</ele>
        <time>2020-07-02T13:41:52Z</time>
      </trkpt>
      <trkpt lat="48.03058" lon="1.9732">
        <ele>127.6</ele>
        <time>2020-07-02T13:41:53Z</time>
      </trkpt>
      <trkpt lat="48.03052" lon="1.97316">
        <ele>127.6</ele>
        <time>2020-07-02T13:41:54Z</time>
      </trkpt>
      <trkpt lat="48.03047" lon="1.97312">
        <ele>127.6</ele>
        <time>2020-07-02T13:41:55Z</time>
      </trkpt>
      <trkpt lat="48.03041" lon="1.97308">
        <ele>127.7</ele>
        <time>2020-07-02T13:41:56Z</time>
      </trkpt>
      <trkpt lat="48.03035" lon="1.97304">
        <ele>127.7</ele>
        <time>2020-07-02T13:41:57Z</time>
      </trkpt>
      <trkpt lat="48.0303" lon="1.97299">
        <ele>127.7</ele>
        <time>2020-07-02T13:41:58Z</time>
      </trkpt>
      <trkpt lat="48.03024" lon="1.97295">
        <ele>127.7</ele>
        <time>2020-07-02T13:41:59Z</time>
      </trkpt>
      <trkpt lat="48.03018" lon="1.97291">
        <ele>127.7</ele>
        <time>2020-07-02T13:42:00Z</time>
      </trkpt>
      <trkpt lat="48.03013" lon="1.97287">
        <ele>127.7</ele>
        <time>2020-07-02T13:42:01Z</time>
      </trkpt>
      <trkpt lat="48.03008" lon="1.97283">
        <ele>127.7</ele>
        <time>2020-07-02T13:42:02Z</time>
      </trkpt>
      <trkpt lat="48.03002" lon="1.97278">
        <ele>127.7</ele>
        <time>2020-07-02T13:42:03Z</time>
      </trkpt>
      <trkpt lat="48.02997" lon="1.97274">
        <ele>127.8</ele>
        <time>2020-07-02T13:42:04Z</time>
      </trkpt>
      <trkpt lat="48.02991" lon="1.9727">
        <ele>127.8</ele>
        <time>2020-07-02T13:42:05Z</time>
      </trkpt>
      <trkpt lat="48.02986" lon="1.97268">
        <ele>127.8</ele>
        <time>2020-07-02T13:42:06Z</time>
      </trkpt>
      <trkpt lat="48.02981" lon="1.97264">
        <ele>127.8</ele>
        <time>2020-07-02T13:42:07Z</time>
      </trkpt>
      <trkpt lat="48.02975" lon="1.97259">
        <ele>127.9</ele>
        <time>2020-07-02T13:42:08Z</time>
      </trkpt>
      <trkpt lat="48.02969" lon="1.97255">
        <ele>127.9</ele>
        <time>2020-07-02T13:42:09Z</time>
      </trkpt>
      <trkpt lat="48.02965" lon="1.97251">
        <ele>127.9</ele>
        <time>2020-07-02T13:42:10Z</time>
      </trkpt>
      <trkpt lat="48.02959" lon="1.97248">
        <ele>127.9</ele>
        <time>2020-07-02T13:42:11Z</time>
      </trkpt>
      <trkpt lat="48.02954" lon="1.97243">
        <ele>128</ele>
        <time>2020-07-02T13:42:12Z</time>
      </trkpt>
      <trkpt lat="48.02948" lon="1.97239">
        <ele>128</ele>
        <time>2020-07-02T13:42:13Z</time>
      </trkpt>
      <trkpt lat="48.02943" lon="1.97235">
        <ele>128</ele>
        <time>2020-07-02T13:42:14Z</time>
      </trkpt>
      <trkpt lat="48.02938" lon="1.97232">
        <ele>128</ele>
        <time>2020-07-02T13:42:15Z</time>
      </trkpt>
      <trkpt lat="48.02933" lon="1.97228">
        <ele>128</ele>
        <time>2020-07-02T13:42:16Z</time>
      </trkpt>
      <trkpt lat="48.02927" lon="1.97223">
        <ele>128</ele>
        <time>2020-07-02T13:42:17Z</time>
      </trkpt>
      <trkpt lat="48.0292" lon="1.97218">
        <ele>128</ele>
        <time>2020-07-02T13:42:18Z</time>
      </trkpt>
      <trkpt lat="48.02914" lon="1.97213">
        <ele>127.9</ele>
        <time>2020-07-02T13:42:19Z</time>
      </trkpt>
      <trkpt lat="48.02909" lon="1.9721">
        <ele>127.9</ele>
        <time>2020-07-02T13:42:20Z</time>
      </trkpt>
      <trkpt lat="48.02902" lon="1.97205">
        <ele>127.7</ele>
        <time>2020-07-02T13:42:21Z</time>
      </trkpt>
      <trkpt lat="48.02896" lon="1.97201">
        <ele>127.7</ele>
        <time>2020-07-02T13:42:22Z</time>
      </trkpt>
      <trkpt lat="48.0289" lon="1.97198">
        <ele>127.6</ele>
        <time>2020-07-02T13:42:23Z</time>
      </trkpt>
      <trkpt lat="48.02884" lon="1.97195">
        <ele>127.5</ele>
        <time>2020-07-02T13:42:24Z</time>
      </trkpt>
      <trkpt lat="48.02878" lon="1.97192">
        <ele>127.4</ele>
        <time>2020-07-02T13:42:25Z</time>
      </trkpt>
      <trkpt lat="48.02872" lon="1.97188">
        <ele>127.4</ele>
        <time>2020-07-02T13:42:26Z</time>
      </trkpt>
      <trkpt lat="48.02867" lon="1.97185">
        <ele>127.4</ele>
        <time>2020-07-02T13:42:27Z</time>
      </trkpt>
      <trkpt lat="48.0286" lon="1.97182">
        <ele>127.4</ele>
        <time>2020-07-02T13:42:28Z</time>
      </trkpt>
      <trkpt lat="48.02853" lon="1.97177">
        <ele>127.4</ele>
        <time>2020-07-02T13:42:29Z</time>
      </trkpt>
      <trkpt lat="48.02847" lon="1.97173">
        <ele>127.4</ele>
        <time>2020-07-02T13:42:30Z</time>
      </trkpt>
      <trkpt lat="48.02841" lon="1.9717">
        <ele>127.2</ele>
        <time>2020-07-02T13:42:31Z</time>
      </trkpt>
      <trkpt lat="48.02834" lon="1.97165">
        <ele>127</ele>
        <time>2020-07-02T13:42:32Z</time>
      </trkpt>
      <trkpt lat="48.02827" lon="1.97162">
        <ele>126.9</ele>
        <time>2020-07-02T13:42:33Z</time>
      </trkpt>
      <trkpt lat="48.02821" lon="1.97158">
        <ele>126.8</ele>
        <time>2020-07-02T13:42:34Z</time>
      </trkpt>
      <trkpt lat="48.02814" lon="1.97155">
        <ele>126.8</ele>
        <time>2020-07-02T13:42:35Z</time>
      </trkpt>
      <trkpt lat="48.02808" lon="1.97151">
        <ele>126.7</ele>
        <time>2020-07-02T13:42:36Z</time>
      </trkpt>
      <trkpt lat="48.02802" lon="1.97147">
        <ele>126.7</ele>
        <time>2020-07-02T13:42:37Z</time>
      </trkpt>
      <trkpt lat="48.02796" lon="1.97144">
        <ele>126.6</ele>
        <time>2020-07-02T13:42:38Z</time>
      </trkpt>
      <trkpt lat="48.0279" lon="1.9714">
        <ele>126.6</ele>
        <time>2020-07-02T13:42:39Z</time>
      </trkpt>
      <trkpt lat="48.02783" lon="1.97136">
        <ele>126.6</ele>
        <time>2020-07-02T13:42:40Z</time>
      </trkpt>
      <trkpt lat="48.02777" lon="1.97133">
        <ele>126.6</ele>
        <time>2020-07-02T13:42:41Z</time>
      </trkpt>
      <trkpt lat="48.02771" lon="1.97129">
        <ele>126.6</ele>
        <time>2020-07-02T13:42:42Z</time>
      </trkpt>
      <trkpt lat="48.02764" lon="1.97125">
        <ele>126.6</ele>
        <time>2020-07-02T13:42:43Z</time>
      </trkpt>
      <trkpt lat="48.02758" lon="1.97121">
        <ele>126.6</ele>
        <time>2020-07-02T13:42:44Z</time>
      </trkpt>
      <trkpt lat="48.02752" lon="1.97118">
        <ele>126.6</ele>
        <time>2020-07-02T13:42:45Z</time>
      </trkpt>
      <trkpt lat="48.02746" lon="1.97115">
        <ele>126.6</ele>
        <time>2020-07-02T13:42:46Z</time>
      </trkpt>
      <trkpt lat="48.0274" lon="1.97112">
        <ele>126.6</ele>
        <time>2020-07-02T13:42:47Z</time>
      </trkpt>
      <trkpt lat="48.02733" lon="1.97109">
        <ele>126.6</ele>
        <time>2020-07-02T13:42:48Z</time>
      </trkpt>
      <trkpt lat="48.02727" lon="1.97106">
        <ele>126.6</ele>
        <time>2020-07-02T13:42:49Z</time>
      </trkpt>
      <trkpt lat="48.02721" lon="1.97102">
        <ele>126.6</ele>
        <time>2020-07-02T13:42:50Z</time>
      </trkpt>
      <trkpt lat="48.02714" lon="1.97098">
        <ele>126.6</ele>
        <time>2020-07-02T13:42:51Z</time>
      </trkpt>
      <trkpt lat="48.02708" lon="1.97095">
        <ele>126.7</ele>
        <time>2020-07-02T13:42:52Z</time>
      </trkpt>
      <trkpt lat="48.02702" lon="1.9709">
        <ele>126.7</ele>
        <time>2020-07-02T13:42:53Z</time>
      </trkpt>
      <trkpt lat="48.02696" lon="1.97086">
        <ele>126.7</ele>
        <time>2020-07-02T13:42:54Z</time>
      </trkpt>
      <trkpt lat="48.0269" lon="1.97081">
        <ele>126.8</ele>
        <time>2020-07-02T13:42:55Z</time>
      </trkpt>
      <trkpt lat="48.02684" lon="1.97077">
        <ele>126.8</ele>
        <time>2020-07-02T13:42:56Z</time>
      </trkpt>
      <trkpt lat="48.02678" lon="1.97074">
        <ele>126.9</ele>
        <time>2020-07-02T13:42:57Z</time>
      </trkpt>
      <trkpt lat="48.02672" lon="1.97069">
        <ele>126.9</ele>
        <time>2020-07-02T13:42:58Z</time>
      </trkpt>
      <trkpt lat="48.02667" lon="1.97065">
        <ele>126.8</ele>
        <time>2020-07-02T13:42:59Z</time>
      </trkpt>
      <trkpt lat="48.02661" lon="1.9706">
        <ele>126.8</ele>
        <time>2020-07-02T13:43:00Z</time>
      </trkpt>
      <trkpt lat="48.02655" lon="1.97056">
        <ele>126.7</ele>
        <time>2020-07-02T13:43:01Z</time>
      </trkpt>
      <trkpt lat="48.02649" lon="1.97052">
        <ele>126.7</ele>
        <time>2020-07-02T13:43:02Z</time>
      </trkpt>
      <trkpt lat="48.02644" lon="1.97048">
        <ele>126.7</ele>
        <time>2020-07-02T13:43:03Z</time>
      </trkpt>
      <trkpt lat="48.02638" lon="1.97043">
        <ele>126.7</ele>
        <time>2020-07-02T13:43:04Z</time>
      </trkpt>
      <trkpt lat="48.02633" lon="1.97038">
        <ele>126.7</ele>
        <time>2020-07-02T13:43:05Z</time>
      </trkpt>
      <trkpt lat="48.02627" lon="1.97034">
        <ele>126.8</ele>
        <time>2020-07-02T13:43:06Z</time>
      </trkpt>
      <trkpt lat="48.02622" lon="1.97028">
        <ele>126.8</ele>
        <time>2020-07-02T13:43:07Z</time>
      </trkpt>
      <trkpt lat="48.02617" lon="1.97023">
        <ele>126.8</ele>
        <time>2020-07-02T13:43:08Z</time>
      </trkpt>
      <trkpt lat="48.02612" lon="1.97018">
        <ele>126.9</ele>
        <time>2020-07-02T13:43:09Z</time>
      </trkpt>
      <trkpt lat="48.02607" lon="1.97013">
        <ele>126.9</ele>
        <time>2020-07-02T13:43:10Z</time>
      </trkpt>
      <trkpt lat="48.02601" lon="1.97008">
        <ele>126.9</ele>
        <time>2020-07-02T13:43:11Z</time>
      </trkpt>
      <trkpt lat="48.02596" lon="1.97002">
        <ele>126.9</ele>
        <time>2020-07-02T13:43:12Z</time>
      </trkpt>
      <trkpt lat="48.02591" lon="1.96997">
        <ele>126.9</ele>
        <time>2020-07-02T13:43:13Z</time>
      </trkpt>
      <trkpt lat="48.02586" lon="1.96992">
        <ele>126.9</ele>
        <time>2020-07-02T13:43:14Z</time>
      </trkpt>
      <trkpt lat="48.02581" lon="1.96987">
        <ele>126.9</ele>
        <time>2020-07-02T13:43:15Z</time>
      </trkpt>
      <trkpt lat="48.02576" lon="1.96982">
        <ele>126.8</ele>
        <time>2020-07-02T13:43:16Z</time>
      </trkpt>
      <trkpt lat="48.0257" lon="1.96977">
        <ele>126.8</ele>
        <time>2020-07-02T13:43:17Z</time>
      </trkpt>
      <trkpt lat="48.02564" lon="1.96972">
        <ele>126.7</ele>
        <time>2020-07-02T13:43:18Z</time>
      </trkpt>
      <trkpt lat="48.02559" lon="1.96967">
        <ele>126.7</ele>
        <time>2020-07-02T13:43:19Z</time>
      </trkpt>
      <trkpt lat="48.02553" lon="1.96961">
        <ele>126.7</ele>
        <time>2020-07-02T13:43:20Z</time>
      </trkpt>
      <trkpt lat="48.02548" lon="1.96956">
        <ele>126.8</ele>
        <time>2020-07-02T13:43:21Z</time>
      </trkpt>
      <trkpt lat="48.02543" lon="1.96951">
        <ele>126.8</ele>
        <time>2020-07-02T13:43:22Z</time>
      </trkpt>
      <trkpt lat="48.02538" lon="1.96946">
        <ele>126.9</ele>
        <time>2020-07-02T13:43:23Z</time>
      </trkpt>
      <trkpt lat="48.02533" lon="1.96941">
        <ele>126.9</ele>
        <time>2020-07-02T13:43:24Z</time>
      </trkpt>
      <trkpt lat="48.02528" lon="1.96936">
        <ele>127</ele>
        <time>2020-07-02T13:43:25Z</time>
      </trkpt>
      <trkpt lat="48.02522" lon="1.96931">
        <ele>127.1</ele>
        <time>2020-07-02T13:43:26Z</time>
      </trkpt>
      <trkpt lat="48.02517" lon="1.96925">
        <ele>127.1</ele>
        <time>2020-07-02T13:43:27Z</time>
      </trkpt>
      <trkpt lat="48.02512" lon="1.9692">
        <ele>127.3</ele>
        <time>2020-07-02T13:43:28Z</time>
      </trkpt>
      <trkpt lat="48.02507" lon="1.96915">
        <ele>127.4</ele>
        <time>2020-07-02T13:43:29Z</time>
      </trkpt>
      <trkpt lat="48.02502" lon="1.9691">
        <ele>127.6</ele>
        <time>2020-07-02T13:43:30Z</time>
      </trkpt>
      <trkpt lat="48.02496" lon="1.96904">
        <ele>127.7</ele>
        <time>2020-07-02T13:43:31Z</time>
      </trkpt>
      <trkpt lat="48.02491" lon="1.969">
        <ele>127.8</ele>
        <time>2020-07-02T13:43:32Z</time>
      </trkpt>
      <trkpt lat="48.02486" lon="1.96894">
        <ele>127.9</ele>
        <time>2020-07-02T13:43:33Z</time>
      </trkpt>
      <trkpt lat="48.02481" lon="1.96889">
        <ele>127.9</ele>
        <time>2020-07-02T13:43:34Z</time>
      </trkpt>
      <trkpt lat="48.02477" lon="1.96885">
        <ele>127.9</ele>
        <time>2020-07-02T13:43:35Z</time>
      </trkpt>
      <trkpt lat="48.02471" lon="1.96877">
        <ele>128</ele>
        <time>2020-07-02T13:43:36Z</time>
      </trkpt>
      <trkpt lat="48.02466" lon="1.96872">
        <ele>128</ele>
        <time>2020-07-02T13:43:37Z</time>
      </trkpt>
      <trkpt lat="48.02461" lon="1.96868">
        <ele>128.1</ele>
        <time>2020-07-02T13:43:38Z</time>
      </trkpt>
      <trkpt lat="48.02456" lon="1.96863">
        <ele>128.1</ele>
        <time>2020-07-02T13:43:39Z</time>
      </trkpt>
      <trkpt lat="48.02451" lon="1.96858">
        <ele>128.1</ele>
        <time>2020-07-02T13:43:40Z</time>
      </trkpt>
      <trkpt lat="48.02446" lon="1.96853">
        <ele>128.2</ele>
        <time>2020-07-02T13:43:41Z</time>
      </trkpt>
      <trkpt lat="48.0244" lon="1.96848">
        <ele>128.2</ele>
        <time>2020-07-02T13:43:42Z</time>
      </trkpt>
      <trkpt lat="48.02435" lon="1.96843">
        <ele>128.2</ele>
        <time>2020-07-02T13:43:43Z</time>
      </trkpt>
      <trkpt lat="48.02429" lon="1.96838">
        <ele>128.2</ele>
        <time>2020-07-02T13:43:44Z</time>
      </trkpt>
      <trkpt lat="48.02424" lon="1.96833">
        <ele>128.3</ele>
        <time>2020-07-02T13:43:45Z</time>
      </trkpt>
      <trkpt lat="48.02419" lon="1.96828">
        <ele>128.3</ele>
        <time>2020-07-02T13:43:46Z</time>
      </trkpt>
      <trkpt lat="48.02414" lon="1.96823">
        <ele>128.4</ele>
        <time>2020-07-02T13:43:47Z</time>
      </trkpt>
      <trkpt lat="48.02409" lon="1.96818">
        <ele>128.4</ele>
        <time>2020-07-02T13:43:48Z</time>
      </trkpt>
      <trkpt lat="48.02404" lon="1.96814">
        <ele>128.4</ele>
        <time>2020-07-02T13:43:49Z</time>
      </trkpt>
      <trkpt lat="48.02399" lon="1.96808">
        <ele>128.4</ele>
        <time>2020-07-02T13:43:50Z</time>
      </trkpt>
      <trkpt lat="48.02393" lon="1.96803">
        <ele>128.4</ele>
        <time>2020-07-02T13:43:51Z</time>
      </trkpt>
      <trkpt lat="48.02389" lon="1.96798">
        <ele>128.3</ele>
        <time>2020-07-02T13:43:52Z</time>
      </trkpt>
      <trkpt lat="48.02384" lon="1.96794">
        <ele>128.3</ele>
        <time>2020-07-02T13:43:53Z</time>
      </trkpt>
      <trkpt lat="48.02379" lon="1.96789">
        <ele>128.3</ele>
        <time>2020-07-02T13:43:54Z</time>
      </trkpt>
      <trkpt lat="48.02374" lon="1.96784">
        <ele>128.3</ele>
        <time>2020-07-02T13:43:55Z</time>
      </trkpt>
      <trkpt lat="48.02369" lon="1.96779">
        <ele>128.3</ele>
        <time>2020-07-02T13:43:56Z</time>
      </trkpt>
      <trkpt lat="48.02363" lon="1.96774">
        <ele>128.3</ele>
        <time>2020-07-02T13:43:57Z</time>
      </trkpt>
      <trkpt lat="48.02358" lon="1.96768">
        <ele>128.3</ele>
        <time>2020-07-02T13:43:58Z</time>
      </trkpt>
      <trkpt lat="48.02352" lon="1.96764">
        <ele>128.3</ele>
        <time>2020-07-02T13:43:59Z</time>
      </trkpt>
      <trkpt lat="48.02348" lon="1.96759">
        <ele>128.4</ele>
        <time>2020-07-02T13:44:00Z</time>
      </trkpt>
      <trkpt lat="48.02343" lon="1.96754">
        <ele>128.4</ele>
        <time>2020-07-02T13:44:01Z</time>
      </trkpt>
      <trkpt lat="48.02338" lon="1.96748">
        <ele>128.4</ele>
        <time>2020-07-02T13:44:02Z</time>
      </trkpt>
      <trkpt lat="48.02334" lon="1.96743">
        <ele>128.4</ele>
        <time>2020-07-02T13:44:03Z</time>
      </trkpt>
      <trkpt lat="48.02328" lon="1.96738">
        <ele>128.4</ele>
        <time>2020-07-02T13:44:04Z</time>
      </trkpt>
      <trkpt lat="48.02323" lon="1.96733">
        <ele>128.5</ele>
        <time>2020-07-02T13:44:05Z</time>
      </trkpt>
      <trkpt lat="48.02318" lon="1.96728">
        <ele>128.5</ele>
        <time>2020-07-02T13:44:06Z</time>
      </trkpt>
      <trkpt lat="48.02312" lon="1.96725">
        <ele>128.5</ele>
        <time>2020-07-02T13:44:07Z</time>
      </trkpt>
      <trkpt lat="48.02307" lon="1.96722">
        <ele>128.5</ele>
        <time>2020-07-02T13:44:08Z</time>
      </trkpt>
      <trkpt lat="48.02302" lon="1.96717">
        <ele>128.6</ele>
        <time>2020-07-02T13:44:09Z</time>
      </trkpt>
      <trkpt lat="48.02297" lon="1.96712">
        <ele>128.6</ele>
        <time>2020-07-02T13:44:10Z</time>
      </trkpt>
      <trkpt lat="48.02292" lon="1.96708">
        <ele>128.7</ele>
        <time>2020-07-02T13:44:11Z</time>
      </trkpt>
      <trkpt lat="48.02287" lon="1.96702">
        <ele>128.7</ele>
        <time>2020-07-02T13:44:12Z</time>
      </trkpt>
      <trkpt lat="48.02283" lon="1.96697">
        <ele>128.7</ele>
        <time>2020-07-02T13:44:13Z</time>
      </trkpt>
      <trkpt lat="48.02278" lon="1.96692">
        <ele>128.8</ele>
        <time>2020-07-02T13:44:14Z</time>
      </trkpt>
      <trkpt lat="48.02273" lon="1.96687">
        <ele>128.8</ele>
        <time>2020-07-02T13:44:15Z</time>
      </trkpt>
      <trkpt lat="48.02268" lon="1.96682">
        <ele>128.9</ele>
        <time>2020-07-02T13:44:16Z</time>
      </trkpt>
      <trkpt lat="48.02264" lon="1.96676">
        <ele>128.9</ele>
        <time>2020-07-02T13:44:17Z</time>
      </trkpt>
      <trkpt lat="48.02259" lon="1.96671">
        <ele>129</ele>
        <time>2020-07-02T13:44:18Z</time>
      </trkpt>
      <trkpt lat="48.02254" lon="1.96666">
        <ele>129.1</ele>
        <time>2020-07-02T13:44:19Z</time>
      </trkpt>
      <trkpt lat="48.02249" lon="1.96661">
        <ele>129.1</ele>
        <time>2020-07-02T13:44:20Z</time>
      </trkpt>
      <trkpt lat="48.02245" lon="1.96657">
        <ele>129.1</ele>
        <time>2020-07-02T13:44:21Z</time>
      </trkpt>
      <trkpt lat="48.0224" lon="1.96653">
        <ele>129.2</ele>
        <time>2020-07-02T13:44:22Z</time>
      </trkpt>
      <trkpt lat="48.02235" lon="1.9665">
        <ele>129.2</ele>
        <time>2020-07-02T13:44:23Z</time>
      </trkpt>
      <trkpt lat="48.0223" lon="1.96645">
        <ele>129.3</ele>
        <time>2020-07-02T13:44:24Z</time>
      </trkpt>
      <trkpt lat="48.02226" lon="1.96641">
        <ele>129.4</ele>
        <time>2020-07-02T13:44:25Z</time>
      </trkpt>
      <trkpt lat="48.02221" lon="1.96637">
        <ele>129.4</ele>
        <time>2020-07-02T13:44:26Z</time>
      </trkpt>
      <trkpt lat="48.02216" lon="1.96632">
        <ele>129.5</ele>
        <time>2020-07-02T13:44:27Z</time>
      </trkpt>
      <trkpt lat="48.02212" lon="1.96627">
        <ele>129.5</ele>
        <time>2020-07-02T13:44:28Z</time>
      </trkpt>
      <trkpt lat="48.02208" lon="1.96622">
        <ele>129.6</ele>
        <time>2020-07-02T13:44:29Z</time>
      </trkpt>
      <trkpt lat="48.02204" lon="1.96617">
        <ele>129.6</ele>
        <time>2020-07-02T13:44:30Z</time>
      </trkpt>
      <trkpt lat="48.02199" lon="1.96612">
        <ele>129.7</ele>
        <time>2020-07-02T13:44:31Z</time>
      </trkpt>
      <trkpt lat="48.02194" lon="1.96607">
        <ele>129.7</ele>
        <time>2020-07-02T13:44:32Z</time>
      </trkpt>
      <trkpt lat="48.02191" lon="1.96605">
        <ele>129.7</ele>
        <time>2020-07-02T13:44:33Z</time>
      </trkpt>
      <trkpt lat="48.02186" lon="1.96599">
        <ele>129.8</ele>
        <time>2020-07-02T13:44:34Z</time>
      </trkpt>
      <trkpt lat="48.0218" lon="1.96593">
        <ele>129.8</ele>
        <time>2020-07-02T13:44:35Z</time>
      </trkpt>
      <trkpt lat="48.02175" lon="1.96589">
        <ele>129.8</ele>
        <time>2020-07-02T13:44:36Z</time>
      </trkpt>
      <trkpt lat="48.02171" lon="1.96583">
        <ele>129.8</ele>
        <time>2020-07-02T13:44:37Z</time>
      </trkpt>
      <trkpt lat="48.02166" lon="1.96577">
        <ele>129.9</ele>
        <time>2020-07-02T13:44:38Z</time>
      </trkpt>
      <trkpt lat="48.0216" lon="1.96573">
        <ele>129.9</ele>
        <time>2020-07-02T13:44:39Z</time>
      </trkpt>
      <trkpt lat="48.02155" lon="1.96568">
        <ele>129.9</ele>
        <time>2020-07-02T13:44:40Z</time>
      </trkpt>
      <trkpt lat="48.02151" lon="1.96565">
        <ele>129.9</ele>
        <time>2020-07-02T13:44:41Z</time>
      </trkpt>
      <trkpt lat="48.02147" lon="1.96561">
        <ele>130</ele>
        <time>2020-07-02T13:44:42Z</time>
      </trkpt>
      <trkpt lat="48.02141" lon="1.96557">
        <ele>130</ele>
        <time>2020-07-02T13:44:43Z</time>
      </trkpt>
      <trkpt lat="48.02135" lon="1.96552">
        <ele>130</ele>
        <time>2020-07-02T13:44:44Z</time>
      </trkpt>
      <trkpt lat="48.02131" lon="1.96548">
        <ele>130</ele>
        <time>2020-07-02T13:44:45Z</time>
      </trkpt>
      <trkpt lat="48.02124" lon="1.96543">
        <ele>130.1</ele>
        <time>2020-07-02T13:44:46Z</time>
      </trkpt>
      <trkpt lat="48.02119" lon="1.96538">
        <ele>130.1</ele>
        <time>2020-07-02T13:44:47Z</time>
      </trkpt>
      <trkpt lat="48.02113" lon="1.96533">
        <ele>130.1</ele>
        <time>2020-07-02T13:44:48Z</time>
      </trkpt>
      <trkpt lat="48.02108" lon="1.96527">
        <ele>130.1</ele>
        <time>2020-07-02T13:44:49Z</time>
      </trkpt>
      <trkpt lat="48.02102" lon="1.96523">
        <ele>130.1</ele>
        <time>2020-07-02T13:44:50Z</time>
      </trkpt>
      <trkpt lat="48.02097" lon="1.96518">
        <ele>130.2</ele>
        <time>2020-07-02T13:44:51Z</time>
      </trkpt>
      <trkpt lat="48.02091" lon="1.96512">
        <ele>130.2</ele>
        <time>2020-07-02T13:44:52Z</time>
      </trkpt>
      <trkpt lat="48.02085" lon="1.96506">
        <ele>130.2</ele>
        <time>2020-07-02T13:44:53Z</time>
      </trkpt>
      <trkpt lat="48.0208" lon="1.96501">
        <ele>130.2</ele>
        <time>2020-07-02T13:44:54Z</time>
      </trkpt>
      <trkpt lat="48.02075" lon="1.96495">
        <ele>130.2</ele>
        <time>2020-07-02T13:44:55Z</time>
      </trkpt>
      <trkpt lat="48.02069" lon="1.96489">
        <ele>130.2</ele>
        <time>2020-07-02T13:44:56Z</time>
      </trkpt>
      <trkpt lat="48.02064" lon="1.96484">
        <ele>130.3</ele>
        <time>2020-07-02T13:44:57Z</time>
      </trkpt>
      <trkpt lat="48.02058" lon="1.96478">
        <ele>130.3</ele>
        <time>2020-07-02T13:44:58Z</time>
      </trkpt>
      <trkpt lat="48.02052" lon="1.96473">
        <ele>130.4</ele>
        <time>2020-07-02T13:44:59Z</time>
      </trkpt>
      <trkpt lat="48.02047" lon="1.96468">
        <ele>130.4</ele>
        <time>2020-07-02T13:45:00Z</time>
      </trkpt>
      <trkpt lat="48.02043" lon="1.96463">
        <ele>130.4</ele>
        <time>2020-07-02T13:45:01Z</time>
      </trkpt>
      <trkpt lat="48.02039" lon="1.96458">
        <ele>130.4</ele>
        <time>2020-07-02T13:45:02Z</time>
      </trkpt>
      <trkpt lat="48.02035" lon="1.96454">
        <ele>130.5</ele>
        <time>2020-07-02T13:45:03Z</time>
      </trkpt>
      <trkpt lat="48.0203" lon="1.96449">
        <ele>130.5</ele>
        <time>2020-07-02T13:45:04Z</time>
      </trkpt>
      <trkpt lat="48.02024" lon="1.96444">
        <ele>130.5</ele>
        <time>2020-07-02T13:45:05Z</time>
      </trkpt>
      <trkpt lat="48.02019" lon="1.96439">
        <ele>130.5</ele>
        <time>2020-07-02T13:45:06Z</time>
      </trkpt>
      <trkpt lat="48.02015" lon="1.96435">
        <ele>130.6</ele>
        <time>2020-07-02T13:45:07Z</time>
      </trkpt>
      <trkpt lat="48.02009" lon="1.9643">
        <ele>130.6</ele>
        <time>2020-07-02T13:45:08Z</time>
      </trkpt>
      <trkpt lat="48.02003" lon="1.96424">
        <ele>130.6</ele>
        <time>2020-07-02T13:45:09Z</time>
      </trkpt>
      <trkpt lat="48.01999" lon="1.96419">
        <ele>130.6</ele>
        <time>2020-07-02T13:45:10Z</time>
      </trkpt>
      <trkpt lat="48.01992" lon="1.96412">
        <ele>130.6</ele>
        <time>2020-07-02T13:45:11Z</time>
      </trkpt>
      <trkpt lat="48.01989" lon="1.96408">
        <ele>130.7</ele>
        <time>2020-07-02T13:45:12Z</time>
      </trkpt>
      <trkpt lat="48.01984" lon="1.96402">
        <ele>130.7</ele>
        <time>2020-07-02T13:45:13Z</time>
      </trkpt>
      <trkpt lat="48.01978" lon="1.96398">
        <ele>130.7</ele>
        <time>2020-07-02T13:45:14Z</time>
      </trkpt>
      <trkpt lat="48.01974" lon="1.96394">
        <ele>130.8</ele>
        <time>2020-07-02T13:45:15Z</time>
      </trkpt>
      <trkpt lat="48.01968" lon="1.96389">
        <ele>130.8</ele>
        <time>2020-07-02T13:45:16Z</time>
      </trkpt>
      <trkpt lat="48.01963" lon="1.96383">
        <ele>130.9</ele>
        <time>2020-07-02T13:45:17Z</time>
      </trkpt>
      <trkpt lat="48.01958" lon="1.96378">
        <ele>130.9</ele>
        <time>2020-07-02T13:45:18Z</time>
      </trkpt>
      <trkpt lat="48.01953" lon="1.96373">
        <ele>131</ele>
        <time>2020-07-02T13:45:19Z</time>
      </trkpt>
      <trkpt lat="48.01948" lon="1.96368">
        <ele>131.1</ele>
        <time>2020-07-02T13:45:20Z</time>
      </trkpt>
      <trkpt lat="48.01942" lon="1.96364">
        <ele>131.1</ele>
        <time>2020-07-02T13:45:21Z</time>
      </trkpt>
      <trkpt lat="48.01937" lon="1.96359">
        <ele>131.2</ele>
        <time>2020-07-02T13:45:22Z</time>
      </trkpt>
      <trkpt lat="48.01932" lon="1.96355">
        <ele>131.2</ele>
        <time>2020-07-02T13:45:23Z</time>
      </trkpt>
      <trkpt lat="48.01927" lon="1.9635">
        <ele>131.3</ele>
        <time>2020-07-02T13:45:24Z</time>
      </trkpt>
      <trkpt lat="48.01921" lon="1.96346">
        <ele>131.3</ele>
        <time>2020-07-02T13:45:25Z</time>
      </trkpt>
      <trkpt lat="48.01916" lon="1.9634">
        <ele>131.4</ele>
        <time>2020-07-02T13:45:26Z</time>
      </trkpt>
      <trkpt lat="48.0191" lon="1.96334">
        <ele>131.5</ele>
        <time>2020-07-02T13:45:27Z</time>
      </trkpt>
      <trkpt lat="48.01905" lon="1.96329">
        <ele>131.5</ele>
        <time>2020-07-02T13:45:28Z</time>
      </trkpt>
      <trkpt lat="48.01901" lon="1.96324">
        <ele>131.6</ele>
        <time>2020-07-02T13:45:29Z</time>
      </trkpt>
      <trkpt lat="48.01896" lon="1.96319">
        <ele>131.7</ele>
        <time>2020-07-02T13:45:30Z</time>
      </trkpt>
      <trkpt lat="48.01891" lon="1.96313">
        <ele>131.8</ele>
        <time>2020-07-02T13:45:31Z</time>
      </trkpt>
      <trkpt lat="48.01886" lon="1.96309">
        <ele>131.9</ele>
        <time>2020-07-02T13:45:32Z</time>
      </trkpt>
      <trkpt lat="48.0188" lon="1.96303">
        <ele>132</ele>
        <time>2020-07-02T13:45:33Z</time>
      </trkpt>
      <trkpt lat="48.01876" lon="1.96298">
        <ele>132.2</ele>
        <time>2020-07-02T13:45:34Z</time>
      </trkpt>
      <trkpt lat="48.01871" lon="1.96293">
        <ele>132.3</ele>
        <time>2020-07-02T13:45:35Z</time>
      </trkpt>
      <trkpt lat="48.01867" lon="1.96289">
        <ele>132.4</ele>
        <time>2020-07-02T13:45:36Z</time>
      </trkpt>
      <trkpt lat="48.01861" lon="1.96284">
        <ele>132.6</ele>
        <time>2020-07-02T13:45:37Z</time>
      </trkpt>
      <trkpt lat="48.01855" lon="1.9628">
        <ele>132.7</ele>
        <time>2020-07-02T13:45:38Z</time>
      </trkpt>
      <trkpt lat="48.0185" lon="1.96275">
        <ele>132.8</ele>
        <time>2020-07-02T13:45:39Z</time>
      </trkpt>
      <trkpt lat="48.01844" lon="1.9627">
        <ele>132.9</ele>
        <time>2020-07-02T13:45:40Z</time>
      </trkpt>
      <trkpt lat="48.0184" lon="1.96265">
        <ele>133</ele>
        <time>2020-07-02T13:45:41Z</time>
      </trkpt>
      <trkpt lat="48.01835" lon="1.96261">
        <ele>133.2</ele>
        <time>2020-07-02T13:45:42Z</time>
      </trkpt>
      <trkpt lat="48.0183" lon="1.96256">
        <ele>133.3</ele>
        <time>2020-07-02T13:45:43Z</time>
      </trkpt>
      <trkpt lat="48.01824" lon="1.9625">
        <ele>133.4</ele>
        <time>2020-07-02T13:45:44Z</time>
      </trkpt>
      <trkpt lat="48.01819" lon="1.96245">
        <ele>133.5</ele>
        <time>2020-07-02T13:45:45Z</time>
      </trkpt>
      <trkpt lat="48.01814" lon="1.9624">
        <ele>133.7</ele>
        <time>2020-07-02T13:45:46Z</time>
      </trkpt>
      <trkpt lat="48.01809" lon="1.96234">
        <ele>133.8</ele>
        <time>2020-07-02T13:45:47Z</time>
      </trkpt>
      <trkpt lat="48.01804" lon="1.96229">
        <ele>134</ele>
        <time>2020-07-02T13:45:48Z</time>
      </trkpt>
      <trkpt lat="48.018" lon="1.96224">
        <ele>134.1</ele>
        <time>2020-07-02T13:45:49Z</time>
      </trkpt>
      <trkpt lat="48.01795" lon="1.96219">
        <ele>134.2</ele>
        <time>2020-07-02T13:45:50Z</time>
      </trkpt>
      <trkpt lat="48.01791" lon="1.96216">
        <ele>134.2</ele>
        <time>2020-07-02T13:45:51Z</time>
      </trkpt>
      <trkpt lat="48.01785" lon="1.96211">
        <ele>134.2</ele>
        <time>2020-07-02T13:45:52Z</time>
      </trkpt>
      <trkpt lat="48.01779" lon="1.96205">
        <ele>134</ele>
        <time>2020-07-02T13:45:53Z</time>
      </trkpt>
      <trkpt lat="48.01775" lon="1.962">
        <ele>134.1</ele>
        <time>2020-07-02T13:45:54Z</time>
      </trkpt>
      <trkpt lat="48.0177" lon="1.96195">
        <ele>134.1</ele>
        <time>2020-07-02T13:45:55Z</time>
      </trkpt>
      <trkpt lat="48.01765" lon="1.9619">
        <ele>134.2</ele>
        <time>2020-07-02T13:45:56Z</time>
      </trkpt>
      <trkpt lat="48.01759" lon="1.96184">
        <ele>134.2</ele>
        <time>2020-07-02T13:45:57Z</time>
      </trkpt>
      <trkpt lat="48.01754" lon="1.96178">
        <ele>134.3</ele>
        <time>2020-07-02T13:45:58Z</time>
      </trkpt>
      <trkpt lat="48.01749" lon="1.96173">
        <ele>134.4</ele>
        <time>2020-07-02T13:45:59Z</time>
      </trkpt>
      <trkpt lat="48.01743" lon="1.96167">
        <ele>134.4</ele>
        <time>2020-07-02T13:46:00Z</time>
      </trkpt>
      <trkpt lat="48.01738" lon="1.96163">
        <ele>134.5</ele>
        <time>2020-07-02T13:46:01Z</time>
      </trkpt>
      <trkpt lat="48.01733" lon="1.96158">
        <ele>134.5</ele>
        <time>2020-07-02T13:46:02Z</time>
      </trkpt>
      <trkpt lat="48.01728" lon="1.96154">
        <ele>134.6</ele>
        <time>2020-07-02T13:46:03Z</time>
      </trkpt>
      <trkpt lat="48.01723" lon="1.96149">
        <ele>134.7</ele>
        <time>2020-07-02T13:46:04Z</time>
      </trkpt>
      <trkpt lat="48.01718" lon="1.96145">
        <ele>134.8</ele>
        <time>2020-07-02T13:46:05Z</time>
      </trkpt>
      <trkpt lat="48.01712" lon="1.9614">
        <ele>134.9</ele>
        <time>2020-07-02T13:46:06Z</time>
      </trkpt>
      <trkpt lat="48.01707" lon="1.96135">
        <ele>135</ele>
        <time>2020-07-02T13:46:07Z</time>
      </trkpt>
      <trkpt lat="48.01702" lon="1.9613">
        <ele>135</ele>
        <time>2020-07-02T13:46:08Z</time>
      </trkpt>
      <trkpt lat="48.01697" lon="1.96124">
        <ele>135.1</ele>
        <time>2020-07-02T13:46:09Z</time>
      </trkpt>
      <trkpt lat="48.01691" lon="1.96119">
        <ele>135.1</ele>
        <time>2020-07-02T13:46:10Z</time>
      </trkpt>
      <trkpt lat="48.01686" lon="1.96115">
        <ele>135.1</ele>
        <time>2020-07-02T13:46:11Z</time>
      </trkpt>
      <trkpt lat="48.01681" lon="1.9611">
        <ele>135.1</ele>
        <time>2020-07-02T13:46:12Z</time>
      </trkpt>
      <trkpt lat="48.01676" lon="1.96105">
        <ele>135.1</ele>
        <time>2020-07-02T13:46:13Z</time>
      </trkpt>
      <trkpt lat="48.0167" lon="1.961">
        <ele>135</ele>
        <time>2020-07-02T13:46:14Z</time>
      </trkpt>
      <trkpt lat="48.01665" lon="1.96095">
        <ele>135</ele>
        <time>2020-07-02T13:46:15Z</time>
      </trkpt>
      <trkpt lat="48.01659" lon="1.9609">
        <ele>134.9</ele>
        <time>2020-07-02T13:46:16Z</time>
      </trkpt>
      <trkpt lat="48.01654" lon="1.96085">
        <ele>134.8</ele>
        <time>2020-07-02T13:46:17Z</time>
      </trkpt>
      <trkpt lat="48.01649" lon="1.9608">
        <ele>134.7</ele>
        <time>2020-07-02T13:46:18Z</time>
      </trkpt>
      <trkpt lat="48.01644" lon="1.96075">
        <ele>134.7</ele>
        <time>2020-07-02T13:46:19Z</time>
      </trkpt>
      <trkpt lat="48.01639" lon="1.96071">
        <ele>134.6</ele>
        <time>2020-07-02T13:46:20Z</time>
      </trkpt>
      <trkpt lat="48.01633" lon="1.96066">
        <ele>134.6</ele>
        <time>2020-07-02T13:46:21Z</time>
      </trkpt>
      <trkpt lat="48.01627" lon="1.9606">
        <ele>134.6</ele>
        <time>2020-07-02T13:46:22Z</time>
      </trkpt>
      <trkpt lat="48.01622" lon="1.96055">
        <ele>134.5</ele>
        <time>2020-07-02T13:46:23Z</time>
      </trkpt>
      <trkpt lat="48.01616" lon="1.9605">
        <ele>134.5</ele>
        <time>2020-07-02T13:46:24Z</time>
      </trkpt>
      <trkpt lat="48.0161" lon="1.96045">
        <ele>134.4</ele>
        <time>2020-07-02T13:46:25Z</time>
      </trkpt>
      <trkpt lat="48.01604" lon="1.9604">
        <ele>134.4</ele>
        <time>2020-07-02T13:46:26Z</time>
      </trkpt>
      <trkpt lat="48.01598" lon="1.96034">
        <ele>134.4</ele>
        <time>2020-07-02T13:46:27Z</time>
      </trkpt>
      <trkpt lat="48.01593" lon="1.96029">
        <ele>134.4</ele>
        <time>2020-07-02T13:46:28Z</time>
      </trkpt>
      <trkpt lat="48.01587" lon="1.96023">
        <ele>134.4</ele>
        <time>2020-07-02T13:46:29Z</time>
      </trkpt>
      <trkpt lat="48.01581" lon="1.96018">
        <ele>134.4</ele>
        <time>2020-07-02T13:46:30Z</time>
      </trkpt>
      <trkpt lat="48.01575" lon="1.96012">
        <ele>134.4</ele>
        <time>2020-07-02T13:46:31Z</time>
      </trkpt>
      <trkpt lat="48.01569" lon="1.96006">
        <ele>134.4</ele>
        <time>2020-07-02T13:46:32Z</time>
      </trkpt>
      <trkpt lat="48.01563" lon="1.96001">
        <ele>134.4</ele>
        <time>2020-07-02T13:46:33Z</time>
      </trkpt>
      <trkpt lat="48.01558" lon="1.95995">
        <ele>134.4</ele>
        <time>2020-07-02T13:46:34Z</time>
      </trkpt>
      <trkpt lat="48.01553" lon="1.9599">
        <ele>134.5</ele>
        <time>2020-07-02T13:46:35Z</time>
      </trkpt>
      <trkpt lat="48.01546" lon="1.95985">
        <ele>134.5</ele>
        <time>2020-07-02T13:46:36Z</time>
      </trkpt>
      <trkpt lat="48.01541" lon="1.95979">
        <ele>134.5</ele>
        <time>2020-07-02T13:46:37Z</time>
      </trkpt>
      <trkpt lat="48.01535" lon="1.95974">
        <ele>134.6</ele>
        <time>2020-07-02T13:46:38Z</time>
      </trkpt>
      <trkpt lat="48.01528" lon="1.95968">
        <ele>134.6</ele>
        <time>2020-07-02T13:46:39Z</time>
      </trkpt>
      <trkpt lat="48.01522" lon="1.95962">
        <ele>134.6</ele>
        <time>2020-07-02T13:46:40Z</time>
      </trkpt>
      <trkpt lat="48.01517" lon="1.95957">
        <ele>134.6</ele>
        <time>2020-07-02T13:46:41Z</time>
      </trkpt>
      <trkpt lat="48.01511" lon="1.95952">
        <ele>134.6</ele>
        <time>2020-07-02T13:46:42Z</time>
      </trkpt>
      <trkpt lat="48.01505" lon="1.95945">
        <ele>134.6</ele>
        <time>2020-07-02T13:46:43Z</time>
      </trkpt>
      <trkpt lat="48.015" lon="1.9594">
        <ele>134.6</ele>
        <time>2020-07-02T13:46:44Z</time>
      </trkpt>
      <trkpt lat="48.01494" lon="1.95935">
        <ele>134.6</ele>
        <time>2020-07-02T13:46:45Z</time>
      </trkpt>
      <trkpt lat="48.01488" lon="1.9593">
        <ele>134.6</ele>
        <time>2020-07-02T13:46:46Z</time>
      </trkpt>
      <trkpt lat="48.01482" lon="1.95924">
        <ele>134.5</ele>
        <time>2020-07-02T13:46:47Z</time>
      </trkpt>
      <trkpt lat="48.01477" lon="1.95919">
        <ele>134.5</ele>
        <time>2020-07-02T13:46:48Z</time>
      </trkpt>
      <trkpt lat="48.01472" lon="1.95914">
        <ele>134.5</ele>
        <time>2020-07-02T13:46:49Z</time>
      </trkpt>
      <trkpt lat="48.01466" lon="1.95908">
        <ele>134.4</ele>
        <time>2020-07-02T13:46:50Z</time>
      </trkpt>
      <trkpt lat="48.01459" lon="1.95902">
        <ele>134.3</ele>
        <time>2020-07-02T13:46:51Z</time>
      </trkpt>
      <trkpt lat="48.01452" lon="1.95896">
        <ele>134.1</ele>
        <time>2020-07-02T13:46:52Z</time>
      </trkpt>
      <trkpt lat="48.01446" lon="1.95891">
        <ele>133.9</ele>
        <time>2020-07-02T13:46:53Z</time>
      </trkpt>
      <trkpt lat="48.0144" lon="1.95884">
        <ele>133.5</ele>
        <time>2020-07-02T13:46:54Z</time>
      </trkpt>
      <trkpt lat="48.01433" lon="1.95878">
        <ele>133.3</ele>
        <time>2020-07-02T13:46:55Z</time>
      </trkpt>
      <trkpt lat="48.01426" lon="1.95872">
        <ele>133</ele>
        <time>2020-07-02T13:46:56Z</time>
      </trkpt>
      <trkpt lat="48.01419" lon="1.95866">
        <ele>132.8</ele>
        <time>2020-07-02T13:46:57Z</time>
      </trkpt>
      <trkpt lat="48.01412" lon="1.9586">
        <ele>132.6</ele>
        <time>2020-07-02T13:46:58Z</time>
      </trkpt>
      <trkpt lat="48.01406" lon="1.95854">
        <ele>132.4</ele>
        <time>2020-07-02T13:46:59Z</time>
      </trkpt>
      <trkpt lat="48.01399" lon="1.95848">
        <ele>132.1</ele>
        <time>2020-07-02T13:47:00Z</time>
      </trkpt>
      <trkpt lat="48.01391" lon="1.95843">
        <ele>131.9</ele>
        <time>2020-07-02T13:47:01Z</time>
      </trkpt>
      <trkpt lat="48.01384" lon="1.95837">
        <ele>131.8</ele>
        <time>2020-07-02T13:47:02Z</time>
      </trkpt>
      <trkpt lat="48.01377" lon="1.95832">
        <ele>131.6</ele>
        <time>2020-07-02T13:47:03Z</time>
      </trkpt>
      <trkpt lat="48.0137" lon="1.95826">
        <ele>131.5</ele>
        <time>2020-07-02T13:47:04Z</time>
      </trkpt>
      <trkpt lat="48.01363" lon="1.9582">
        <ele>131.4</ele>
        <time>2020-07-02T13:47:05Z</time>
      </trkpt>
      <trkpt lat="48.01356" lon="1.95814">
        <ele>131.3</ele>
        <time>2020-07-02T13:47:06Z</time>
      </trkpt>
      <trkpt lat="48.01349" lon="1.95808">
        <ele>131.2</ele>
        <time>2020-07-02T13:47:07Z</time>
      </trkpt>
      <trkpt lat="48.01343" lon="1.95803">
        <ele>131.1</ele>
        <time>2020-07-02T13:47:08Z</time>
      </trkpt>
      <trkpt lat="48.01336" lon="1.95797">
        <ele>131.1</ele>
        <time>2020-07-02T13:47:09Z</time>
      </trkpt>
      <trkpt lat="48.0133" lon="1.95791">
        <ele>131</ele>
        <time>2020-07-02T13:47:10Z</time>
      </trkpt>
      <trkpt lat="48.01323" lon="1.95785">
        <ele>130.9</ele>
        <time>2020-07-02T13:47:11Z</time>
      </trkpt>
      <trkpt lat="48.01316" lon="1.95779">
        <ele>130.8</ele>
        <time>2020-07-02T13:47:12Z</time>
      </trkpt>
      <trkpt lat="48.0131" lon="1.95773">
        <ele>130.7</ele>
        <time>2020-07-02T13:47:13Z</time>
      </trkpt>
      <trkpt lat="48.01303" lon="1.95768">
        <ele>130.6</ele>
        <time>2020-07-02T13:47:14Z</time>
      </trkpt>
      <trkpt lat="48.01296" lon="1.95763">
        <ele>130.6</ele>
        <time>2020-07-02T13:47:15Z</time>
      </trkpt>
      <trkpt lat="48.0129" lon="1.95756">
        <ele>130.5</ele>
        <time>2020-07-02T13:47:16Z</time>
      </trkpt>
      <trkpt lat="48.01283" lon="1.95751">
        <ele>130.5</ele>
        <time>2020-07-02T13:47:17Z</time>
      </trkpt>
      <trkpt lat="48.01276" lon="1.95745">
        <ele>130.4</ele>
        <time>2020-07-02T13:47:18Z</time>
      </trkpt>
      <trkpt lat="48.0127" lon="1.9574">
        <ele>130.4</ele>
        <time>2020-07-02T13:47:19Z</time>
      </trkpt>
      <trkpt lat="48.01263" lon="1.95734">
        <ele>130.4</ele>
        <time>2020-07-02T13:47:20Z</time>
      </trkpt>
      <trkpt lat="48.01256" lon="1.95728">
        <ele>130.4</ele>
        <time>2020-07-02T13:47:21Z</time>
      </trkpt>
      <trkpt lat="48.0125" lon="1.95722">
        <ele>130.3</ele>
        <time>2020-07-02T13:47:22Z</time>
      </trkpt>
      <trkpt lat="48.01243" lon="1.95718">
        <ele>130.3</ele>
        <time>2020-07-02T13:47:23Z</time>
      </trkpt>
      <trkpt lat="48.01237" lon="1.95712">
        <ele>130.3</ele>
        <time>2020-07-02T13:47:24Z</time>
      </trkpt>
      <trkpt lat="48.0123" lon="1.95707">
        <ele>130.2</ele>
        <time>2020-07-02T13:47:25Z</time>
      </trkpt>
      <trkpt lat="48.01224" lon="1.95701">
        <ele>130.1</ele>
        <time>2020-07-02T13:47:26Z</time>
      </trkpt>
      <trkpt lat="48.01217" lon="1.95696">
        <ele>130</ele>
        <time>2020-07-02T13:47:27Z</time>
      </trkpt>
      <trkpt lat="48.0121" lon="1.95691">
        <ele>129.9</ele>
        <time>2020-07-02T13:47:28Z</time>
      </trkpt>
      <trkpt lat="48.01204" lon="1.95685">
        <ele>129.9</ele>
        <time>2020-07-02T13:47:29Z</time>
      </trkpt>
      <trkpt lat="48.01197" lon="1.95679">
        <ele>129.8</ele>
        <time>2020-07-02T13:47:30Z</time>
      </trkpt>
      <trkpt lat="48.0119" lon="1.95674">
        <ele>129.8</ele>
        <time>2020-07-02T13:47:31Z</time>
      </trkpt>
      <trkpt lat="48.01184" lon="1.95668">
        <ele>129.7</ele>
        <time>2020-07-02T13:47:32Z</time>
      </trkpt>
      <trkpt lat="48.01177" lon="1.95663">
        <ele>129.6</ele>
        <time>2020-07-02T13:47:33Z</time>
      </trkpt>
      <trkpt lat="48.01171" lon="1.95655">
        <ele>129.6</ele>
        <time>2020-07-02T13:47:34Z</time>
      </trkpt>
      <trkpt lat="48.01164" lon="1.95649">
        <ele>129.5</ele>
        <time>2020-07-02T13:47:35Z</time>
      </trkpt>
      <trkpt lat="48.01157" lon="1.95644">
        <ele>129.5</ele>
        <time>2020-07-02T13:47:36Z</time>
      </trkpt>
      <trkpt lat="48.0115" lon="1.95639">
        <ele>129.4</ele>
        <time>2020-07-02T13:47:37Z</time>
      </trkpt>
      <trkpt lat="48.01143" lon="1.95634">
        <ele>129.4</ele>
        <time>2020-07-02T13:47:38Z</time>
      </trkpt>
      <trkpt lat="48.01136" lon="1.95629">
        <ele>129.3</ele>
        <time>2020-07-02T13:47:39Z</time>
      </trkpt>
      <trkpt lat="48.01129" lon="1.95624">
        <ele>129.3</ele>
        <time>2020-07-02T13:47:40Z</time>
      </trkpt>
      <trkpt lat="48.01122" lon="1.95618">
        <ele>129.3</ele>
        <time>2020-07-02T13:47:41Z</time>
      </trkpt>
      <trkpt lat="48.01115" lon="1.95613">
        <ele>129.2</ele>
        <time>2020-07-02T13:47:42Z</time>
      </trkpt>
      <trkpt lat="48.01108" lon="1.95607">
        <ele>129.1</ele>
        <time>2020-07-02T13:47:43Z</time>
      </trkpt>
      <trkpt lat="48.01101" lon="1.95602">
        <ele>129.1</ele>
        <time>2020-07-02T13:47:44Z</time>
      </trkpt>
      <trkpt lat="48.01094" lon="1.95596">
        <ele>129</ele>
        <time>2020-07-02T13:47:45Z</time>
      </trkpt>
      <trkpt lat="48.01087" lon="1.95591">
        <ele>129</ele>
        <time>2020-07-02T13:47:46Z</time>
      </trkpt>
      <trkpt lat="48.01081" lon="1.95585">
        <ele>129</ele>
        <time>2020-07-02T13:47:47Z</time>
      </trkpt>
      <trkpt lat="48.01074" lon="1.9558">
        <ele>129.1</ele>
        <time>2020-07-02T13:47:48Z</time>
      </trkpt>
      <trkpt lat="48.01067" lon="1.95575">
        <ele>129.1</ele>
        <time>2020-07-02T13:47:49Z</time>
      </trkpt>
      <trkpt lat="48.0106" lon="1.95569">
        <ele>129.1</ele>
        <time>2020-07-02T13:47:50Z</time>
      </trkpt>
      <trkpt lat="48.01054" lon="1.95564">
        <ele>129.2</ele>
        <time>2020-07-02T13:47:51Z</time>
      </trkpt>
      <trkpt lat="48.01048" lon="1.95558">
        <ele>129.2</ele>
        <time>2020-07-02T13:47:52Z</time>
      </trkpt>
      <trkpt lat="48.01041" lon="1.95552">
        <ele>129.3</ele>
        <time>2020-07-02T13:47:53Z</time>
      </trkpt>
      <trkpt lat="48.01034" lon="1.95547">
        <ele>129.3</ele>
        <time>2020-07-02T13:47:54Z</time>
      </trkpt>
      <trkpt lat="48.01028" lon="1.95542">
        <ele>129.3</ele>
        <time>2020-07-02T13:47:55Z</time>
      </trkpt>
      <trkpt lat="48.01021" lon="1.95536">
        <ele>129.3</ele>
        <time>2020-07-02T13:47:56Z</time>
      </trkpt>
      <trkpt lat="48.01015" lon="1.95529">
        <ele>129.3</ele>
        <time>2020-07-02T13:47:57Z</time>
      </trkpt>
      <trkpt lat="48.01009" lon="1.95524">
        <ele>129.3</ele>
        <time>2020-07-02T13:47:58Z</time>
      </trkpt>
      <trkpt lat="48.01002" lon="1.95518">
        <ele>129.4</ele>
        <time>2020-07-02T13:47:59Z</time>
      </trkpt>
      <trkpt lat="48.00996" lon="1.95513">
        <ele>129.4</ele>
        <time>2020-07-02T13:48:00Z</time>
      </trkpt>
      <trkpt lat="48.00991" lon="1.95507">
        <ele>129.5</ele>
        <time>2020-07-02T13:48:01Z</time>
      </trkpt>
      <trkpt lat="48.00985" lon="1.95502">
        <ele>129.5</ele>
        <time>2020-07-02T13:48:02Z</time>
      </trkpt>
      <trkpt lat="48.00979" lon="1.95496">
        <ele>129.5</ele>
        <time>2020-07-02T13:48:03Z</time>
      </trkpt>
      <trkpt lat="48.00973" lon="1.95491">
        <ele>129.5</ele>
        <time>2020-07-02T13:48:04Z</time>
      </trkpt>
      <trkpt lat="48.00967" lon="1.95485">
        <ele>129.4</ele>
        <time>2020-07-02T13:48:05Z</time>
      </trkpt>
      <trkpt lat="48.00961" lon="1.95479">
        <ele>129.1</ele>
        <time>2020-07-02T13:48:06Z</time>
      </trkpt>
      <trkpt lat="48.00955" lon="1.95474">
        <ele>128.6</ele>
        <time>2020-07-02T13:48:07Z</time>
      </trkpt>
      <trkpt lat="48.00949" lon="1.95469">
        <ele>128.5</ele>
        <time>2020-07-02T13:48:08Z</time>
      </trkpt>
      <trkpt lat="48.00943" lon="1.95464">
        <ele>128.4</ele>
        <time>2020-07-02T13:48:09Z</time>
      </trkpt>
      <trkpt lat="48.00937" lon="1.95459">
        <ele>128.3</ele>
        <time>2020-07-02T13:48:10Z</time>
      </trkpt>
      <trkpt lat="48.00931" lon="1.95454">
        <ele>128.3</ele>
        <time>2020-07-02T13:48:11Z</time>
      </trkpt>
      <trkpt lat="48.00924" lon="1.95449">
        <ele>128.2</ele>
        <time>2020-07-02T13:48:12Z</time>
      </trkpt>
      <trkpt lat="48.00918" lon="1.95444">
        <ele>128.1</ele>
        <time>2020-07-02T13:48:13Z</time>
      </trkpt>
      <trkpt lat="48.00912" lon="1.95439">
        <ele>128.1</ele>
        <time>2020-07-02T13:48:14Z</time>
      </trkpt>
      <trkpt lat="48.00906" lon="1.95435">
        <ele>128.1</ele>
        <time>2020-07-02T13:48:15Z</time>
      </trkpt>
      <trkpt lat="48.009" lon="1.9543">
        <ele>128</ele>
        <time>2020-07-02T13:48:16Z</time>
      </trkpt>
      <trkpt lat="48.00894" lon="1.95425">
        <ele>128</ele>
        <time>2020-07-02T13:48:17Z</time>
      </trkpt>
      <trkpt lat="48.00888" lon="1.95421">
        <ele>127.9</ele>
        <time>2020-07-02T13:48:18Z</time>
      </trkpt>
      <trkpt lat="48.00882" lon="1.95416">
        <ele>127.9</ele>
        <time>2020-07-02T13:48:19Z</time>
      </trkpt>
      <trkpt lat="48.00876" lon="1.95411">
        <ele>127.8</ele>
        <time>2020-07-02T13:48:20Z</time>
      </trkpt>
      <trkpt lat="48.00871" lon="1.95406">
        <ele>127.7</ele>
        <time>2020-07-02T13:48:21Z</time>
      </trkpt>
      <trkpt lat="48.00865" lon="1.95401">
        <ele>127.7</ele>
        <time>2020-07-02T13:48:22Z</time>
      </trkpt>
      <trkpt lat="48.00859" lon="1.95397">
        <ele>127.7</ele>
        <time>2020-07-02T13:48:23Z</time>
      </trkpt>
      <trkpt lat="48.00854" lon="1.95393">
        <ele>127.7</ele>
        <time>2020-07-02T13:48:24Z</time>
      </trkpt>
      <trkpt lat="48.00848" lon="1.95388">
        <ele>127.7</ele>
        <time>2020-07-02T13:48:25Z</time>
      </trkpt>
      <trkpt lat="48.00843" lon="1.95384">
        <ele>127.7</ele>
        <time>2020-07-02T13:48:26Z</time>
      </trkpt>
      <trkpt lat="48.00837" lon="1.95379">
        <ele>127.6</ele>
        <time>2020-07-02T13:48:27Z</time>
      </trkpt>
      <trkpt lat="48.00832" lon="1.95374">
        <ele>127.6</ele>
        <time>2020-07-02T13:48:28Z</time>
      </trkpt>
      <trkpt lat="48.00826" lon="1.95369">
        <ele>127.6</ele>
        <time>2020-07-02T13:48:29Z</time>
      </trkpt>
      <trkpt lat="48.00821" lon="1.95365">
        <ele>127.5</ele>
        <time>2020-07-02T13:48:30Z</time>
      </trkpt>
      <trkpt lat="48.00815" lon="1.95361">
        <ele>127.5</ele>
        <time>2020-07-02T13:48:31Z</time>
      </trkpt>
      <trkpt lat="48.0081" lon="1.95356">
        <ele>127.4</ele>
        <time>2020-07-02T13:48:32Z</time>
      </trkpt>
      <trkpt lat="48.00804" lon="1.95352">
        <ele>127.4</ele>
        <time>2020-07-02T13:48:33Z</time>
      </trkpt>
      <trkpt lat="48.00799" lon="1.95347">
        <ele>127.4</ele>
        <time>2020-07-02T13:48:34Z</time>
      </trkpt>
      <trkpt lat="48.00794" lon="1.95342">
        <ele>127.4</ele>
        <time>2020-07-02T13:48:35Z</time>
      </trkpt>
      <trkpt lat="48.00787" lon="1.95338">
        <ele>127.3</ele>
        <time>2020-07-02T13:48:36Z</time>
      </trkpt>
      <trkpt lat="48.00781" lon="1.95332">
        <ele>127.3</ele>
        <time>2020-07-02T13:48:37Z</time>
      </trkpt>
      <trkpt lat="48.00775" lon="1.95327">
        <ele>127.2</ele>
        <time>2020-07-02T13:48:38Z</time>
      </trkpt>
      <trkpt lat="48.00769" lon="1.95322">
        <ele>127.2</ele>
        <time>2020-07-02T13:48:39Z</time>
      </trkpt>
      <trkpt lat="48.00763" lon="1.95317">
        <ele>127.1</ele>
        <time>2020-07-02T13:48:40Z</time>
      </trkpt>
      <trkpt lat="48.00757" lon="1.95313">
        <ele>127</ele>
        <time>2020-07-02T13:48:41Z</time>
      </trkpt>
      <trkpt lat="48.0075" lon="1.95307">
        <ele>126.9</ele>
        <time>2020-07-02T13:48:42Z</time>
      </trkpt>
      <trkpt lat="48.00744" lon="1.95302">
        <ele>126.9</ele>
        <time>2020-07-02T13:48:43Z</time>
      </trkpt>
      <trkpt lat="48.00739" lon="1.95297">
        <ele>126.8</ele>
        <time>2020-07-02T13:48:44Z</time>
      </trkpt>
      <trkpt lat="48.00731" lon="1.95292">
        <ele>126.7</ele>
        <time>2020-07-02T13:48:45Z</time>
      </trkpt>
      <trkpt lat="48.00725" lon="1.95288">
        <ele>126.6</ele>
        <time>2020-07-02T13:48:46Z</time>
      </trkpt>
      <trkpt lat="48.00718" lon="1.95282">
        <ele>126.5</ele>
        <time>2020-07-02T13:48:47Z</time>
      </trkpt>
      <trkpt lat="48.00712" lon="1.95277">
        <ele>126.4</ele>
        <time>2020-07-02T13:48:48Z</time>
      </trkpt>
      <trkpt lat="48.00705" lon="1.95272">
        <ele>126.3</ele>
        <time>2020-07-02T13:48:49Z</time>
      </trkpt>
      <trkpt lat="48.00699" lon="1.95266">
        <ele>126.2</ele>
        <time>2020-07-02T13:48:50Z</time>
      </trkpt>
      <trkpt lat="48.00693" lon="1.95261">
        <ele>126.1</ele>
        <time>2020-07-02T13:48:51Z</time>
      </trkpt>
      <trkpt lat="48.00687" lon="1.95256">
        <ele>126</ele>
        <time>2020-07-02T13:48:52Z</time>
      </trkpt>
      <trkpt lat="48.00681" lon="1.95251">
        <ele>125.9</ele>
        <time>2020-07-02T13:48:53Z</time>
      </trkpt>
      <trkpt lat="48.00674" lon="1.95246">
        <ele>125.9</ele>
        <time>2020-07-02T13:48:54Z</time>
      </trkpt>
      <trkpt lat="48.00668" lon="1.95241">
        <ele>125.9</ele>
        <time>2020-07-02T13:48:55Z</time>
      </trkpt>
      <trkpt lat="48.00662" lon="1.95236">
        <ele>125.9</ele>
        <time>2020-07-02T13:48:56Z</time>
      </trkpt>
      <trkpt lat="48.00656" lon="1.95231">
        <ele>125.9</ele>
        <time>2020-07-02T13:48:57Z</time>
      </trkpt>
      <trkpt lat="48.0065" lon="1.95225">
        <ele>125.9</ele>
        <time>2020-07-02T13:48:58Z</time>
      </trkpt>
      <trkpt lat="48.00644" lon="1.9522">
        <ele>125.9</ele>
        <time>2020-07-02T13:48:59Z</time>
      </trkpt>
      <trkpt lat="48.00638" lon="1.95215">
        <ele>125.8</ele>
        <time>2020-07-02T13:49:00Z</time>
      </trkpt>
      <trkpt lat="48.00633" lon="1.95209">
        <ele>125.8</ele>
        <time>2020-07-02T13:49:01Z</time>
      </trkpt>
      <trkpt lat="48.00626" lon="1.95205">
        <ele>125.7</ele>
        <time>2020-07-02T13:49:02Z</time>
      </trkpt>
      <trkpt lat="48.0062" lon="1.95199">
        <ele>125.6</ele>
        <time>2020-07-02T13:49:03Z</time>
      </trkpt>
      <trkpt lat="48.00614" lon="1.95194">
        <ele>125.6</ele>
        <time>2020-07-02T13:49:04Z</time>
      </trkpt>
      <trkpt lat="48.00607" lon="1.95189">
        <ele>125.5</ele>
        <time>2020-07-02T13:49:05Z</time>
      </trkpt>
      <trkpt lat="48.00601" lon="1.95185">
        <ele>125.4</ele>
        <time>2020-07-02T13:49:06Z</time>
      </trkpt>
      <trkpt lat="48.00594" lon="1.9518">
        <ele>125.4</ele>
        <time>2020-07-02T13:49:07Z</time>
      </trkpt>
      <trkpt lat="48.00588" lon="1.95175">
        <ele>125.3</ele>
        <time>2020-07-02T13:49:08Z</time>
      </trkpt>
      <trkpt lat="48.00582" lon="1.9517">
        <ele>125.3</ele>
        <time>2020-07-02T13:49:09Z</time>
      </trkpt>
      <trkpt lat="48.00575" lon="1.95165">
        <ele>125.2</ele>
        <time>2020-07-02T13:49:10Z</time>
      </trkpt>
      <trkpt lat="48.00569" lon="1.9516">
        <ele>125.2</ele>
        <time>2020-07-02T13:49:11Z</time>
      </trkpt>
      <trkpt lat="48.00562" lon="1.95155">
        <ele>125.1</ele>
        <time>2020-07-02T13:49:12Z</time>
      </trkpt>
      <trkpt lat="48.00556" lon="1.9515">
        <ele>125.1</ele>
        <time>2020-07-02T13:49:13Z</time>
      </trkpt>
      <trkpt lat="48.0055" lon="1.95144">
        <ele>125.2</ele>
        <time>2020-07-02T13:49:14Z</time>
      </trkpt>
      <trkpt lat="48.00544" lon="1.95138">
        <ele>125.2</ele>
        <time>2020-07-02T13:49:15Z</time>
      </trkpt>
      <trkpt lat="48.00538" lon="1.95133">
        <ele>125.3</ele>
        <time>2020-07-02T13:49:16Z</time>
      </trkpt>
      <trkpt lat="48.00531" lon="1.95128">
        <ele>125.4</ele>
        <time>2020-07-02T13:49:17Z</time>
      </trkpt>
      <trkpt lat="48.00525" lon="1.95123">
        <ele>125.5</ele>
        <time>2020-07-02T13:49:18Z</time>
      </trkpt>
      <trkpt lat="48.00519" lon="1.95118">
        <ele>125.5</ele>
        <time>2020-07-02T13:49:19Z</time>
      </trkpt>
      <trkpt lat="48.00513" lon="1.95112">
        <ele>125.5</ele>
        <time>2020-07-02T13:49:20Z</time>
      </trkpt>
      <trkpt lat="48.00507" lon="1.95106">
        <ele>125.5</ele>
        <time>2020-07-02T13:49:21Z</time>
      </trkpt>
      <trkpt lat="48.00501" lon="1.95101">
        <ele>125.4</ele>
        <time>2020-07-02T13:49:22Z</time>
      </trkpt>
      <trkpt lat="48.00495" lon="1.95096">
        <ele>125.4</ele>
        <time>2020-07-02T13:49:23Z</time>
      </trkpt>
      <trkpt lat="48.00488" lon="1.95091">
        <ele>125.3</ele>
        <time>2020-07-02T13:49:24Z</time>
      </trkpt>
      <trkpt lat="48.00482" lon="1.95086">
        <ele>125.3</ele>
        <time>2020-07-02T13:49:25Z</time>
      </trkpt>
      <trkpt lat="48.00476" lon="1.95081">
        <ele>125.3</ele>
        <time>2020-07-02T13:49:26Z</time>
      </trkpt>
      <trkpt lat="48.0047" lon="1.95075">
        <ele>125.3</ele>
        <time>2020-07-02T13:49:27Z</time>
      </trkpt>
      <trkpt lat="48.00464" lon="1.9507">
        <ele>125.3</ele>
        <time>2020-07-02T13:49:28Z</time>
      </trkpt>
      <trkpt lat="48.00458" lon="1.95065">
        <ele>125.3</ele>
        <time>2020-07-02T13:49:29Z</time>
      </trkpt>
      <trkpt lat="48.00453" lon="1.9506">
        <ele>125.2</ele>
        <time>2020-07-02T13:49:30Z</time>
      </trkpt>
      <trkpt lat="48.00447" lon="1.95056">
        <ele>125.2</ele>
        <time>2020-07-02T13:49:31Z</time>
      </trkpt>
      <trkpt lat="48.00441" lon="1.95051">
        <ele>125.3</ele>
        <time>2020-07-02T13:49:32Z</time>
      </trkpt>
      <trkpt lat="48.00435" lon="1.95046">
        <ele>125.3</ele>
        <time>2020-07-02T13:49:33Z</time>
      </trkpt>
      <trkpt lat="48.00429" lon="1.9504">
        <ele>125.3</ele>
        <time>2020-07-02T13:49:34Z</time>
      </trkpt>
      <trkpt lat="48.00423" lon="1.95035">
        <ele>125.4</ele>
        <time>2020-07-02T13:49:35Z</time>
      </trkpt>
      <trkpt lat="48.00417" lon="1.9503">
        <ele>125.4</ele>
        <time>2020-07-02T13:49:36Z</time>
      </trkpt>
      <trkpt lat="48.00411" lon="1.95025">
        <ele>125.4</ele>
        <time>2020-07-02T13:49:37Z</time>
      </trkpt>
      <trkpt lat="48.00405" lon="1.95021">
        <ele>125.4</ele>
        <time>2020-07-02T13:49:38Z</time>
      </trkpt>
      <trkpt lat="48.00399" lon="1.95015">
        <ele>125.5</ele>
        <time>2020-07-02T13:49:39Z</time>
      </trkpt>
      <trkpt lat="48.00392" lon="1.95011">
        <ele>125.5</ele>
        <time>2020-07-02T13:49:40Z</time>
      </trkpt>
      <trkpt lat="48.00386" lon="1.95006">
        <ele>125.5</ele>
        <time>2020-07-02T13:49:41Z</time>
      </trkpt>
      <trkpt lat="48.0038" lon="1.95001">
        <ele>125.4</ele>
        <time>2020-07-02T13:49:42Z</time>
      </trkpt>
      <trkpt lat="48.00374" lon="1.94996">
        <ele>125.1</ele>
        <time>2020-07-02T13:49:43Z</time>
      </trkpt>
      <trkpt lat="48.00368" lon="1.94991">
        <ele>124.9</ele>
        <time>2020-07-02T13:49:44Z</time>
      </trkpt>
      <trkpt lat="48.00362" lon="1.94987">
        <ele>124.8</ele>
        <time>2020-07-02T13:49:45Z</time>
      </trkpt>
      <trkpt lat="48.00356" lon="1.94982">
        <ele>124.6</ele>
        <time>2020-07-02T13:49:46Z</time>
      </trkpt>
      <trkpt lat="48.0035" lon="1.94977">
        <ele>124.6</ele>
        <time>2020-07-02T13:49:47Z</time>
      </trkpt>
      <trkpt lat="48.00343" lon="1.94972">
        <ele>124.5</ele>
        <time>2020-07-02T13:49:48Z</time>
      </trkpt>
      <trkpt lat="48.00337" lon="1.94967">
        <ele>124.5</ele>
        <time>2020-07-02T13:49:49Z</time>
      </trkpt>
      <trkpt lat="48.00331" lon="1.94962">
        <ele>124.4</ele>
        <time>2020-07-02T13:49:50Z</time>
      </trkpt>
      <trkpt lat="48.00325" lon="1.94957">
        <ele>124.4</ele>
        <time>2020-07-02T13:49:51Z</time>
      </trkpt>
      <trkpt lat="48.00319" lon="1.94952">
        <ele>124.4</ele>
        <time>2020-07-02T13:49:52Z</time>
      </trkpt>
      <trkpt lat="48.00313" lon="1.94947">
        <ele>124.3</ele>
        <time>2020-07-02T13:49:53Z</time>
      </trkpt>
      <trkpt lat="48.00306" lon="1.94942">
        <ele>124.3</ele>
        <time>2020-07-02T13:49:54Z</time>
      </trkpt>
      <trkpt lat="48.003" lon="1.94938">
        <ele>124.3</ele>
        <time>2020-07-02T13:49:55Z</time>
      </trkpt>
      <trkpt lat="48.00294" lon="1.94934">
        <ele>124.3</ele>
        <time>2020-07-02T13:49:56Z</time>
      </trkpt>
      <trkpt lat="48.00288" lon="1.94929">
        <ele>124.2</ele>
        <time>2020-07-02T13:49:57Z</time>
      </trkpt>
      <trkpt lat="48.00282" lon="1.94924">
        <ele>124.2</ele>
        <time>2020-07-02T13:49:58Z</time>
      </trkpt>
      <trkpt lat="48.00276" lon="1.94919">
        <ele>124.2</ele>
        <time>2020-07-02T13:49:59Z</time>
      </trkpt>
      <trkpt lat="48.00269" lon="1.94914">
        <ele>124.2</ele>
        <time>2020-07-02T13:50:00Z</time>
      </trkpt>
      <trkpt lat="48.00263" lon="1.94909">
        <ele>124.2</ele>
        <time>2020-07-02T13:50:01Z</time>
      </trkpt>
      <trkpt lat="48.00257" lon="1.94904">
        <ele>124.2</ele>
        <time>2020-07-02T13:50:02Z</time>
      </trkpt>
      <trkpt lat="48.00251" lon="1.94899">
        <ele>124.2</ele>
        <time>2020-07-02T13:50:03Z</time>
      </trkpt>
      <trkpt lat="48.00245" lon="1.94894">
        <ele>124.2</ele>
        <time>2020-07-02T13:50:04Z</time>
      </trkpt>
      <trkpt lat="48.00239" lon="1.94889">
        <ele>124.2</ele>
        <time>2020-07-02T13:50:05Z</time>
      </trkpt>
      <trkpt lat="48.00233" lon="1.94884">
        <ele>124.3</ele>
        <time>2020-07-02T13:50:06Z</time>
      </trkpt>
      <trkpt lat="48.00227" lon="1.94879">
        <ele>124.3</ele>
        <time>2020-07-02T13:50:07Z</time>
      </trkpt>
      <trkpt lat="48.0022" lon="1.94874">
        <ele>124.3</ele>
        <time>2020-07-02T13:50:08Z</time>
      </trkpt>
      <trkpt lat="48.00214" lon="1.94869">
        <ele>124.3</ele>
        <time>2020-07-02T13:50:09Z</time>
      </trkpt>
      <trkpt lat="48.00208" lon="1.94864">
        <ele>124.3</ele>
        <time>2020-07-02T13:50:10Z</time>
      </trkpt>
      <trkpt lat="48.00202" lon="1.94859">
        <ele>124.4</ele>
        <time>2020-07-02T13:50:11Z</time>
      </trkpt>
      <trkpt lat="48.00196" lon="1.94854">
        <ele>124.4</ele>
        <time>2020-07-02T13:50:12Z</time>
      </trkpt>
      <trkpt lat="48.00189" lon="1.94849">
        <ele>124.4</ele>
        <time>2020-07-02T13:50:13Z</time>
      </trkpt>
      <trkpt lat="48.00184" lon="1.94844">
        <ele>124.3</ele>
        <time>2020-07-02T13:50:14Z</time>
      </trkpt>
      <trkpt lat="48.00178" lon="1.94839">
        <ele>124.3</ele>
        <time>2020-07-02T13:50:15Z</time>
      </trkpt>
      <trkpt lat="48.00171" lon="1.94834">
        <ele>124.2</ele>
        <time>2020-07-02T13:50:16Z</time>
      </trkpt>
      <trkpt lat="48.00165" lon="1.94829">
        <ele>124.2</ele>
        <time>2020-07-02T13:50:17Z</time>
      </trkpt>
      <trkpt lat="48.00159" lon="1.94824">
        <ele>124.1</ele>
        <time>2020-07-02T13:50:18Z</time>
      </trkpt>
      <trkpt lat="48.00152" lon="1.94819">
        <ele>124</ele>
        <time>2020-07-02T13:50:19Z</time>
      </trkpt>
      <trkpt lat="48.00146" lon="1.94814">
        <ele>124</ele>
        <time>2020-07-02T13:50:20Z</time>
      </trkpt>
      <trkpt lat="48.0014" lon="1.94809">
        <ele>124</ele>
        <time>2020-07-02T13:50:21Z</time>
      </trkpt>
      <trkpt lat="48.00133" lon="1.94804">
        <ele>124</ele>
        <time>2020-07-02T13:50:22Z</time>
      </trkpt>
      <trkpt lat="48.00127" lon="1.94799">
        <ele>124</ele>
        <time>2020-07-02T13:50:23Z</time>
      </trkpt>
      <trkpt lat="48.00121" lon="1.94794">
        <ele>124.1</ele>
        <time>2020-07-02T13:50:24Z</time>
      </trkpt>
      <trkpt lat="48.00115" lon="1.94789">
        <ele>124.1</ele>
        <time>2020-07-02T13:50:25Z</time>
      </trkpt>
      <trkpt lat="48.00109" lon="1.94784">
        <ele>124.1</ele>
        <time>2020-07-02T13:50:26Z</time>
      </trkpt>
      <trkpt lat="48.00103" lon="1.94779">
        <ele>124.1</ele>
        <time>2020-07-02T13:50:27Z</time>
      </trkpt>
      <trkpt lat="48.00097" lon="1.94774">
        <ele>124.2</ele>
        <time>2020-07-02T13:50:28Z</time>
      </trkpt>
      <trkpt lat="48.00091" lon="1.94769">
        <ele>124.2</ele>
        <time>2020-07-02T13:50:29Z</time>
      </trkpt>
      <trkpt lat="48.00084" lon="1.94764">
        <ele>124.1</ele>
        <time>2020-07-02T13:50:30Z</time>
      </trkpt>
      <trkpt lat="48.00078" lon="1.94759">
        <ele>123.9</ele>
        <time>2020-07-02T13:50:31Z</time>
      </trkpt>
      <trkpt lat="48.00072" lon="1.94753">
        <ele>123.7</ele>
        <time>2020-07-02T13:50:32Z</time>
      </trkpt>
      <trkpt lat="48.00066" lon="1.94748">
        <ele>123.6</ele>
        <time>2020-07-02T13:50:33Z</time>
      </trkpt>
      <trkpt lat="48.00059" lon="1.94743">
        <ele>123.4</ele>
        <time>2020-07-02T13:50:34Z</time>
      </trkpt>
      <trkpt lat="48.00053" lon="1.94739">
        <ele>123.3</ele>
        <time>2020-07-02T13:50:35Z</time>
      </trkpt>
      <trkpt lat="48.00046" lon="1.94734">
        <ele>123.2</ele>
        <time>2020-07-02T13:50:36Z</time>
      </trkpt>
      <trkpt lat="48.0004" lon="1.94729">
        <ele>123.1</ele>
        <time>2020-07-02T13:50:37Z</time>
      </trkpt>
      <trkpt lat="48.00034" lon="1.94725">
        <ele>123.1</ele>
        <time>2020-07-02T13:50:38Z</time>
      </trkpt>
      <trkpt lat="48.00028" lon="1.94719">
        <ele>123.1</ele>
        <time>2020-07-02T13:50:39Z</time>
      </trkpt>
      <trkpt lat="48.00022" lon="1.94714">
        <ele>123.1</ele>
        <time>2020-07-02T13:50:40Z</time>
      </trkpt>
      <trkpt lat="48.00016" lon="1.94709">
        <ele>123.1</ele>
        <time>2020-07-02T13:50:41Z</time>
      </trkpt>
      <trkpt lat="48.0001" lon="1.94704">
        <ele>123.1</ele>
        <time>2020-07-02T13:50:42Z</time>
      </trkpt>
      <trkpt lat="48.00004" lon="1.947">
        <ele>123.1</ele>
        <time>2020-07-02T13:50:43Z</time>
      </trkpt>
      <trkpt lat="47.99999" lon="1.94695">
        <ele>123.1</ele>
        <time>2020-07-02T13:50:44Z</time>
      </trkpt>
      <trkpt lat="47.99993" lon="1.9469">
        <ele>123.1</ele>
        <time>2020-07-02T13:50:45Z</time>
      </trkpt>
      <trkpt lat="47.99987" lon="1.94685">
        <ele>123</ele>
        <time>2020-07-02T13:50:46Z</time>
      </trkpt>
      <trkpt lat="47.99982" lon="1.9468">
        <ele>123</ele>
        <time>2020-07-02T13:50:47Z</time>
      </trkpt>
      <trkpt lat="47.99975" lon="1.94676">
        <ele>123.1</ele>
        <time>2020-07-02T13:50:48Z</time>
      </trkpt>
      <trkpt lat="47.99969" lon="1.94671">
        <ele>123.1</ele>
        <time>2020-07-02T13:50:49Z</time>
      </trkpt>
      <trkpt lat="47.99964" lon="1.94666">
        <ele>123.2</ele>
        <time>2020-07-02T13:50:50Z</time>
      </trkpt>
      <trkpt lat="47.99958" lon="1.94661">
        <ele>123.2</ele>
        <time>2020-07-02T13:50:51Z</time>
      </trkpt>
      <trkpt lat="47.99952" lon="1.94657">
        <ele>123.3</ele>
        <time>2020-07-02T13:50:52Z</time>
      </trkpt>
      <trkpt lat="47.99946" lon="1.94652">
        <ele>123.3</ele>
        <time>2020-07-02T13:50:53Z</time>
      </trkpt>
      <trkpt lat="47.99939" lon="1.94648">
        <ele>123.3</ele>
        <time>2020-07-02T13:50:54Z</time>
      </trkpt>
      <trkpt lat="47.99933" lon="1.94643">
        <ele>123.3</ele>
        <time>2020-07-02T13:50:55Z</time>
      </trkpt>
      <trkpt lat="47.99927" lon="1.94637">
        <ele>123.3</ele>
        <time>2020-07-02T13:50:56Z</time>
      </trkpt>
      <trkpt lat="47.99922" lon="1.94632">
        <ele>123.4</ele>
        <time>2020-07-02T13:50:57Z</time>
      </trkpt>
      <trkpt lat="47.99915" lon="1.94627">
        <ele>123.4</ele>
        <time>2020-07-02T13:50:58Z</time>
      </trkpt>
      <trkpt lat="47.99909" lon="1.94623">
        <ele>123.5</ele>
        <time>2020-07-02T13:50:59Z</time>
      </trkpt>
      <trkpt lat="47.99903" lon="1.94618">
        <ele>123.6</ele>
        <time>2020-07-02T13:51:00Z</time>
      </trkpt>
      <trkpt lat="47.99897" lon="1.94613">
        <ele>123.7</ele>
        <time>2020-07-02T13:51:01Z</time>
      </trkpt>
      <trkpt lat="47.99891" lon="1.94607">
        <ele>123.8</ele>
        <time>2020-07-02T13:51:02Z</time>
      </trkpt>
      <trkpt lat="47.99886" lon="1.94602">
        <ele>123.9</ele>
        <time>2020-07-02T13:51:03Z</time>
      </trkpt>
      <trkpt lat="47.99879" lon="1.94597">
        <ele>124</ele>
        <time>2020-07-02T13:51:04Z</time>
      </trkpt>
      <trkpt lat="47.99873" lon="1.94593">
        <ele>124.1</ele>
        <time>2020-07-02T13:51:05Z</time>
      </trkpt>
      <trkpt lat="47.99867" lon="1.94588">
        <ele>124.1</ele>
        <time>2020-07-02T13:51:06Z</time>
      </trkpt>
      <trkpt lat="47.99861" lon="1.94582">
        <ele>124.2</ele>
        <time>2020-07-02T13:51:07Z</time>
      </trkpt>
      <trkpt lat="47.99855" lon="1.94578">
        <ele>124.3</ele>
        <time>2020-07-02T13:51:08Z</time>
      </trkpt>
      <trkpt lat="47.99849" lon="1.94573">
        <ele>124.4</ele>
        <time>2020-07-02T13:51:09Z</time>
      </trkpt>
      <trkpt lat="47.99843" lon="1.94568">
        <ele>124.4</ele>
        <time>2020-07-02T13:51:10Z</time>
      </trkpt>
      <trkpt lat="47.99837" lon="1.94564">
        <ele>124.5</ele>
        <time>2020-07-02T13:51:11Z</time>
      </trkpt>
      <trkpt lat="47.99831" lon="1.94559">
        <ele>124.5</ele>
        <time>2020-07-02T13:51:12Z</time>
      </trkpt>
      <trkpt lat="47.99826" lon="1.94553">
        <ele>124.6</ele>
        <time>2020-07-02T13:51:13Z</time>
      </trkpt>
      <trkpt lat="47.9982" lon="1.94549">
        <ele>124.7</ele>
        <time>2020-07-02T13:51:14Z</time>
      </trkpt>
      <trkpt lat="47.99814" lon="1.94543">
        <ele>124.7</ele>
        <time>2020-07-02T13:51:15Z</time>
      </trkpt>
      <trkpt lat="47.99809" lon="1.94537">
        <ele>124.8</ele>
        <time>2020-07-02T13:51:16Z</time>
      </trkpt>
      <trkpt lat="47.99803" lon="1.94532">
        <ele>124.9</ele>
        <time>2020-07-02T13:51:17Z</time>
      </trkpt>
      <trkpt lat="47.99797" lon="1.94527">
        <ele>124.9</ele>
        <time>2020-07-02T13:51:18Z</time>
      </trkpt>
      <trkpt lat="47.99792" lon="1.94521">
        <ele>125</ele>
        <time>2020-07-02T13:51:19Z</time>
      </trkpt>
      <trkpt lat="47.99786" lon="1.94515">
        <ele>125</ele>
        <time>2020-07-02T13:51:20Z</time>
      </trkpt>
      <trkpt lat="47.9978" lon="1.94509">
        <ele>125.1</ele>
        <time>2020-07-02T13:51:21Z</time>
      </trkpt>
      <trkpt lat="47.99774" lon="1.94503">
        <ele>125.1</ele>
        <time>2020-07-02T13:51:22Z</time>
      </trkpt>
      <trkpt lat="47.99768" lon="1.94498">
        <ele>125</ele>
        <time>2020-07-02T13:51:23Z</time>
      </trkpt>
      <trkpt lat="47.99763" lon="1.94492">
        <ele>124.9</ele>
        <time>2020-07-02T13:51:24Z</time>
      </trkpt>
      <trkpt lat="47.99757" lon="1.94486">
        <ele>124.8</ele>
        <time>2020-07-02T13:51:25Z</time>
      </trkpt>
      <trkpt lat="47.99751" lon="1.9448">
        <ele>124.7</ele>
        <time>2020-07-02T13:51:26Z</time>
      </trkpt>
      <trkpt lat="47.99745" lon="1.94474">
        <ele>124.5</ele>
        <time>2020-07-02T13:51:27Z</time>
      </trkpt>
      <trkpt lat="47.99739" lon="1.94468">
        <ele>124.4</ele>
        <time>2020-07-02T13:51:28Z</time>
      </trkpt>
      <trkpt lat="47.99733" lon="1.94463">
        <ele>124.3</ele>
        <time>2020-07-02T13:51:29Z</time>
      </trkpt>
      <trkpt lat="47.99727" lon="1.94457">
        <ele>124.3</ele>
        <time>2020-07-02T13:51:30Z</time>
      </trkpt>
      <trkpt lat="47.99723" lon="1.94451">
        <ele>124.3</ele>
        <time>2020-07-02T13:51:31Z</time>
      </trkpt>
      <trkpt lat="47.99715" lon="1.94446">
        <ele>124.3</ele>
        <time>2020-07-02T13:51:32Z</time>
      </trkpt>
      <trkpt lat="47.99709" lon="1.94439">
        <ele>124.3</ele>
        <time>2020-07-02T13:51:33Z</time>
      </trkpt>
      <trkpt lat="47.99704" lon="1.94432">
        <ele>124.3</ele>
        <time>2020-07-02T13:51:34Z</time>
      </trkpt>
      <trkpt lat="47.99698" lon="1.94426">
        <ele>124.3</ele>
        <time>2020-07-02T13:51:35Z</time>
      </trkpt>
      <trkpt lat="47.99691" lon="1.94421">
        <ele>124.3</ele>
        <time>2020-07-02T13:51:36Z</time>
      </trkpt>
      <trkpt lat="47.99684" lon="1.94416">
        <ele>124.2</ele>
        <time>2020-07-02T13:51:37Z</time>
      </trkpt>
      <trkpt lat="47.99678" lon="1.9441">
        <ele>124.2</ele>
        <time>2020-07-02T13:51:38Z</time>
      </trkpt>
      <trkpt lat="47.99672" lon="1.94404">
        <ele>124.2</ele>
        <time>2020-07-02T13:51:39Z</time>
      </trkpt>
      <trkpt lat="47.99666" lon="1.94398">
        <ele>124.1</ele>
        <time>2020-07-02T13:51:40Z</time>
      </trkpt>
      <trkpt lat="47.9966" lon="1.94391">
        <ele>124.1</ele>
        <time>2020-07-02T13:51:41Z</time>
      </trkpt>
      <trkpt lat="47.99655" lon="1.94384">
        <ele>124.1</ele>
        <time>2020-07-02T13:51:42Z</time>
      </trkpt>
      <trkpt lat="47.99649" lon="1.9438">
        <ele>124</ele>
        <time>2020-07-02T13:51:43Z</time>
      </trkpt>
      <trkpt lat="47.99643" lon="1.94373">
        <ele>124</ele>
        <time>2020-07-02T13:51:44Z</time>
      </trkpt>
      <trkpt lat="47.99638" lon="1.94366">
        <ele>123.9</ele>
        <time>2020-07-02T13:51:45Z</time>
      </trkpt>
      <trkpt lat="47.99632" lon="1.9436">
        <ele>123.9</ele>
        <time>2020-07-02T13:51:46Z</time>
      </trkpt>
      <trkpt lat="47.99626" lon="1.94353">
        <ele>123.9</ele>
        <time>2020-07-02T13:51:47Z</time>
      </trkpt>
      <trkpt lat="47.99621" lon="1.94345">
        <ele>123.9</ele>
        <time>2020-07-02T13:51:48Z</time>
      </trkpt>
      <trkpt lat="47.99615" lon="1.94338">
        <ele>123.9</ele>
        <time>2020-07-02T13:51:49Z</time>
      </trkpt>
      <trkpt lat="47.9961" lon="1.9433">
        <ele>124</ele>
        <time>2020-07-02T13:51:50Z</time>
      </trkpt>
      <trkpt lat="47.99605" lon="1.94323">
        <ele>124</ele>
        <time>2020-07-02T13:51:51Z</time>
      </trkpt>
      <trkpt lat="47.996" lon="1.94315">
        <ele>124</ele>
        <time>2020-07-02T13:51:52Z</time>
      </trkpt>
      <trkpt lat="47.99595" lon="1.94308">
        <ele>124.1</ele>
        <time>2020-07-02T13:51:53Z</time>
      </trkpt>
      <trkpt lat="47.9959" lon="1.94299">
        <ele>124.1</ele>
        <time>2020-07-02T13:51:54Z</time>
      </trkpt>
      <trkpt lat="47.99586" lon="1.94291">
        <ele>124.1</ele>
        <time>2020-07-02T13:51:55Z</time>
      </trkpt>
      <trkpt lat="47.99581" lon="1.94284">
        <ele>124.1</ele>
        <time>2020-07-02T13:51:56Z</time>
      </trkpt>
      <trkpt lat="47.99577" lon="1.94275">
        <ele>124.2</ele>
        <time>2020-07-02T13:51:57Z</time>
      </trkpt>
      <trkpt lat="47.99573" lon="1.94268">
        <ele>124.2</ele>
        <time>2020-07-02T13:51:58Z</time>
      </trkpt>
      <trkpt lat="47.99569" lon="1.94259">
        <ele>124.2</ele>
        <time>2020-07-02T13:51:59Z</time>
      </trkpt>
      <trkpt lat="47.99564" lon="1.94251">
        <ele>124.3</ele>
        <time>2020-07-02T13:52:00Z</time>
      </trkpt>
      <trkpt lat="47.9956" lon="1.94243">
        <ele>124.3</ele>
        <time>2020-07-02T13:52:01Z</time>
      </trkpt>
      <trkpt lat="47.99556" lon="1.94235">
        <ele>124.4</ele>
        <time>2020-07-02T13:52:02Z</time>
      </trkpt>
      <trkpt lat="47.99552" lon="1.94227">
        <ele>124.4</ele>
        <time>2020-07-02T13:52:03Z</time>
      </trkpt>
      <trkpt lat="47.99547" lon="1.9422">
        <ele>124.5</ele>
        <time>2020-07-02T13:52:04Z</time>
      </trkpt>
      <trkpt lat="47.99543" lon="1.94211">
        <ele>124.5</ele>
        <time>2020-07-02T13:52:05Z</time>
      </trkpt>
      <trkpt lat="47.99538" lon="1.94202">
        <ele>124.6</ele>
        <time>2020-07-02T13:52:06Z</time>
      </trkpt>
      <trkpt lat="47.99533" lon="1.94195">
        <ele>124.6</ele>
        <time>2020-07-02T13:52:07Z</time>
      </trkpt>
      <trkpt lat="47.99529" lon="1.94187">
        <ele>124.7</ele>
        <time>2020-07-02T13:52:08Z</time>
      </trkpt>
      <trkpt lat="47.99524" lon="1.94179">
        <ele>124.8</ele>
        <time>2020-07-02T13:52:09Z</time>
      </trkpt>
      <trkpt lat="47.99521" lon="1.9417">
        <ele>124.8</ele>
        <time>2020-07-02T13:52:10Z</time>
      </trkpt>
      <trkpt lat="47.99516" lon="1.94162">
        <ele>124.9</ele>
        <time>2020-07-02T13:52:11Z</time>
      </trkpt>
      <trkpt lat="47.99512" lon="1.94153">
        <ele>124.9</ele>
        <time>2020-07-02T13:52:12Z</time>
      </trkpt>
      <trkpt lat="47.99508" lon="1.94145">
        <ele>124.9</ele>
        <time>2020-07-02T13:52:13Z</time>
      </trkpt>
      <trkpt lat="47.99504" lon="1.94138">
        <ele>124.9</ele>
        <time>2020-07-02T13:52:14Z</time>
      </trkpt>
      <trkpt lat="47.995" lon="1.94131">
        <ele>124.9</ele>
        <time>2020-07-02T13:52:15Z</time>
      </trkpt>
      <trkpt lat="47.99496" lon="1.94125">
        <ele>124.9</ele>
        <time>2020-07-02T13:52:16Z</time>
      </trkpt>
      <trkpt lat="47.99492" lon="1.94118">
        <ele>124.9</ele>
        <time>2020-07-02T13:52:17Z</time>
      </trkpt>
      <trkpt lat="47.99489" lon="1.9411">
        <ele>124.9</ele>
        <time>2020-07-02T13:52:18Z</time>
      </trkpt>
      <trkpt lat="47.99484" lon="1.94102">
        <ele>125</ele>
        <time>2020-07-02T13:52:19Z</time>
      </trkpt>
      <trkpt lat="47.9948" lon="1.94095">
        <ele>125</ele>
        <time>2020-07-02T13:52:20Z</time>
      </trkpt>
      <trkpt lat="47.99475" lon="1.94087">
        <ele>125.1</ele>
        <time>2020-07-02T13:52:21Z</time>
      </trkpt>
      <trkpt lat="47.9947" lon="1.94079">
        <ele>125.2</ele>
        <time>2020-07-02T13:52:22Z</time>
      </trkpt>
      <trkpt lat="47.99465" lon="1.94071">
        <ele>125.3</ele>
        <time>2020-07-02T13:52:23Z</time>
      </trkpt>
      <trkpt lat="47.9946" lon="1.94062">
        <ele>125.5</ele>
        <time>2020-07-02T13:52:24Z</time>
      </trkpt>
      <trkpt lat="47.99456" lon="1.94054">
        <ele>125.5</ele>
        <time>2020-07-02T13:52:25Z</time>
      </trkpt>
      <trkpt lat="47.99452" lon="1.94047">
        <ele>125.3</ele>
        <time>2020-07-02T13:52:26Z</time>
      </trkpt>
      <trkpt lat="47.99449" lon="1.94039">
        <ele>125.2</ele>
        <time>2020-07-02T13:52:27Z</time>
      </trkpt>
      <trkpt lat="47.99445" lon="1.94031">
        <ele>125.1</ele>
        <time>2020-07-02T13:52:28Z</time>
      </trkpt>
      <trkpt lat="47.99441" lon="1.94023">
        <ele>125</ele>
        <time>2020-07-02T13:52:29Z</time>
      </trkpt>
      <trkpt lat="47.99436" lon="1.94015">
        <ele>125</ele>
        <time>2020-07-02T13:52:30Z</time>
      </trkpt>
      <trkpt lat="47.99432" lon="1.94007">
        <ele>124.9</ele>
        <time>2020-07-02T13:52:31Z</time>
      </trkpt>
      <trkpt lat="47.99428" lon="1.93999">
        <ele>124.9</ele>
        <time>2020-07-02T13:52:32Z</time>
      </trkpt>
      <trkpt lat="47.99424" lon="1.93991">
        <ele>124.9</ele>
        <time>2020-07-02T13:52:33Z</time>
      </trkpt>
      <trkpt lat="47.99419" lon="1.93983">
        <ele>124.8</ele>
        <time>2020-07-02T13:52:34Z</time>
      </trkpt>
      <trkpt lat="47.99414" lon="1.93975">
        <ele>124.8</ele>
        <time>2020-07-02T13:52:35Z</time>
      </trkpt>
      <trkpt lat="47.9941" lon="1.93968">
        <ele>124.8</ele>
        <time>2020-07-02T13:52:36Z</time>
      </trkpt>
      <trkpt lat="47.99405" lon="1.9396">
        <ele>124.7</ele>
        <time>2020-07-02T13:52:37Z</time>
      </trkpt>
      <trkpt lat="47.994" lon="1.93953">
        <ele>124.7</ele>
        <time>2020-07-02T13:52:38Z</time>
      </trkpt>
      <trkpt lat="47.99396" lon="1.93945">
        <ele>124.6</ele>
        <time>2020-07-02T13:52:39Z</time>
      </trkpt>
      <trkpt lat="47.99391" lon="1.93937">
        <ele>124.6</ele>
        <time>2020-07-02T13:52:40Z</time>
      </trkpt>
      <trkpt lat="47.99386" lon="1.9393">
        <ele>124.5</ele>
        <time>2020-07-02T13:52:41Z</time>
      </trkpt>
      <trkpt lat="47.99381" lon="1.93923">
        <ele>124.4</ele>
        <time>2020-07-02T13:52:42Z</time>
      </trkpt>
      <trkpt lat="47.99377" lon="1.93915">
        <ele>124.4</ele>
        <time>2020-07-02T13:52:43Z</time>
      </trkpt>
      <trkpt lat="47.99372" lon="1.93908">
        <ele>124.3</ele>
        <time>2020-07-02T13:52:44Z</time>
      </trkpt>
      <trkpt lat="47.99367" lon="1.93901">
        <ele>124.3</ele>
        <time>2020-07-02T13:52:45Z</time>
      </trkpt>
      <trkpt lat="47.99362" lon="1.93893">
        <ele>124.2</ele>
        <time>2020-07-02T13:52:46Z</time>
      </trkpt>
      <trkpt lat="47.99356" lon="1.93887">
        <ele>124.1</ele>
        <time>2020-07-02T13:52:47Z</time>
      </trkpt>
      <trkpt lat="47.99351" lon="1.9388">
        <ele>124.1</ele>
        <time>2020-07-02T13:52:48Z</time>
      </trkpt>
      <trkpt lat="47.99346" lon="1.93872">
        <ele>124</ele>
        <time>2020-07-02T13:52:49Z</time>
      </trkpt>
      <trkpt lat="47.99341" lon="1.93865">
        <ele>124</ele>
        <time>2020-07-02T13:52:50Z</time>
      </trkpt>
      <trkpt lat="47.99335" lon="1.93858">
        <ele>123.9</ele>
        <time>2020-07-02T13:52:51Z</time>
      </trkpt>
      <trkpt lat="47.99329" lon="1.93851">
        <ele>124</ele>
        <time>2020-07-02T13:52:52Z</time>
      </trkpt>
      <trkpt lat="47.99324" lon="1.93844">
        <ele>124</ele>
        <time>2020-07-02T13:52:53Z</time>
      </trkpt>
      <trkpt lat="47.99319" lon="1.93836">
        <ele>124</ele>
        <time>2020-07-02T13:52:54Z</time>
      </trkpt>
      <trkpt lat="47.99314" lon="1.93829">
        <ele>124.1</ele>
        <time>2020-07-02T13:52:55Z</time>
      </trkpt>
      <trkpt lat="47.99309" lon="1.93822">
        <ele>124.1</ele>
        <time>2020-07-02T13:52:56Z</time>
      </trkpt>
      <trkpt lat="47.99304" lon="1.93814">
        <ele>124.2</ele>
        <time>2020-07-02T13:52:57Z</time>
      </trkpt>
      <trkpt lat="47.99299" lon="1.93807">
        <ele>124.2</ele>
        <time>2020-07-02T13:52:58Z</time>
      </trkpt>
      <trkpt lat="47.99294" lon="1.938">
        <ele>124.2</ele>
        <time>2020-07-02T13:52:59Z</time>
      </trkpt>
      <trkpt lat="47.99289" lon="1.93793">
        <ele>124.3</ele>
        <time>2020-07-02T13:53:00Z</time>
      </trkpt>
      <trkpt lat="47.99283" lon="1.93787">
        <ele>124.3</ele>
        <time>2020-07-02T13:53:01Z</time>
      </trkpt>
      <trkpt lat="47.99278" lon="1.93781">
        <ele>124.4</ele>
        <time>2020-07-02T13:53:02Z</time>
      </trkpt>
      <trkpt lat="47.99272" lon="1.93775">
        <ele>124.4</ele>
        <time>2020-07-02T13:53:03Z</time>
      </trkpt>
      <trkpt lat="47.99266" lon="1.93769">
        <ele>124.4</ele>
        <time>2020-07-02T13:53:04Z</time>
      </trkpt>
      <trkpt lat="47.9926" lon="1.93763">
        <ele>124.5</ele>
        <time>2020-07-02T13:53:05Z</time>
      </trkpt>
      <trkpt lat="47.99255" lon="1.93756">
        <ele>124.5</ele>
        <time>2020-07-02T13:53:06Z</time>
      </trkpt>
      <trkpt lat="47.99249" lon="1.93749">
        <ele>124.5</ele>
        <time>2020-07-02T13:53:07Z</time>
      </trkpt>
      <trkpt lat="47.99244" lon="1.93743">
        <ele>124.5</ele>
        <time>2020-07-02T13:53:08Z</time>
      </trkpt>
      <trkpt lat="47.99238" lon="1.93737">
        <ele>124.6</ele>
        <time>2020-07-02T13:53:09Z</time>
      </trkpt>
      <trkpt lat="47.99232" lon="1.93731">
        <ele>124.6</ele>
        <time>2020-07-02T13:53:10Z</time>
      </trkpt>
      <trkpt lat="47.99226" lon="1.93724">
        <ele>124.6</ele>
        <time>2020-07-02T13:53:11Z</time>
      </trkpt>
      <trkpt lat="47.99221" lon="1.93717">
        <ele>124.6</ele>
        <time>2020-07-02T13:53:12Z</time>
      </trkpt>
      <trkpt lat="47.99215" lon="1.93711">
        <ele>124.6</ele>
        <time>2020-07-02T13:53:13Z</time>
      </trkpt>
      <trkpt lat="47.99209" lon="1.93705">
        <ele>124.6</ele>
        <time>2020-07-02T13:53:14Z</time>
      </trkpt>
      <trkpt lat="47.99204" lon="1.93699">
        <ele>124.6</ele>
        <time>2020-07-02T13:53:15Z</time>
      </trkpt>
      <trkpt lat="47.99198" lon="1.93693">
        <ele>124.6</ele>
        <time>2020-07-02T13:53:16Z</time>
      </trkpt>
      <trkpt lat="47.99193" lon="1.93686">
        <ele>124.6</ele>
        <time>2020-07-02T13:53:17Z</time>
      </trkpt>
      <trkpt lat="47.99188" lon="1.9368">
        <ele>124.7</ele>
        <time>2020-07-02T13:53:18Z</time>
      </trkpt>
      <trkpt lat="47.99182" lon="1.93674">
        <ele>124.7</ele>
        <time>2020-07-02T13:53:19Z</time>
      </trkpt>
      <trkpt lat="47.99176" lon="1.93668">
        <ele>124.7</ele>
        <time>2020-07-02T13:53:20Z</time>
      </trkpt>
      <trkpt lat="47.9917" lon="1.93663">
        <ele>124.7</ele>
        <time>2020-07-02T13:53:21Z</time>
      </trkpt>
      <trkpt lat="47.99164" lon="1.93657">
        <ele>124.7</ele>
        <time>2020-07-02T13:53:22Z</time>
      </trkpt>
      <trkpt lat="47.99159" lon="1.9365">
        <ele>124.7</ele>
        <time>2020-07-02T13:53:23Z</time>
      </trkpt>
      <trkpt lat="47.99153" lon="1.93645">
        <ele>124.7</ele>
        <time>2020-07-02T13:53:24Z</time>
      </trkpt>
      <trkpt lat="47.99147" lon="1.9364">
        <ele>124.8</ele>
        <time>2020-07-02T13:53:25Z</time>
      </trkpt>
      <trkpt lat="47.99141" lon="1.93636">
        <ele>124.8</ele>
        <time>2020-07-02T13:53:26Z</time>
      </trkpt>
      <trkpt lat="47.99135" lon="1.9363">
        <ele>124.9</ele>
        <time>2020-07-02T13:53:27Z</time>
      </trkpt>
      <trkpt lat="47.99128" lon="1.93626">
        <ele>124.9</ele>
        <time>2020-07-02T13:53:28Z</time>
      </trkpt>
      <trkpt lat="47.99122" lon="1.93622">
        <ele>125</ele>
        <time>2020-07-02T13:53:29Z</time>
      </trkpt>
      <trkpt lat="47.99116" lon="1.93618">
        <ele>125.1</ele>
        <time>2020-07-02T13:53:30Z</time>
      </trkpt>
      <trkpt lat="47.99109" lon="1.93615">
        <ele>125.2</ele>
        <time>2020-07-02T13:53:31Z</time>
      </trkpt>
      <trkpt lat="47.99102" lon="1.93611">
        <ele>125.3</ele>
        <time>2020-07-02T13:53:32Z</time>
      </trkpt>
      <trkpt lat="47.99095" lon="1.93607">
        <ele>125.4</ele>
        <time>2020-07-02T13:53:33Z</time>
      </trkpt>
      <trkpt lat="47.99088" lon="1.93604">
        <ele>125.4</ele>
        <time>2020-07-02T13:53:34Z</time>
      </trkpt>
      <trkpt lat="47.99081" lon="1.93601">
        <ele>125.4</ele>
        <time>2020-07-02T13:53:35Z</time>
      </trkpt>
      <trkpt lat="47.99075" lon="1.93597">
        <ele>125.4</ele>
        <time>2020-07-02T13:53:36Z</time>
      </trkpt>
      <trkpt lat="47.99068" lon="1.93594">
        <ele>125.4</ele>
        <time>2020-07-02T13:53:37Z</time>
      </trkpt>
      <trkpt lat="47.99061" lon="1.93591">
        <ele>125.4</ele>
        <time>2020-07-02T13:53:38Z</time>
      </trkpt>
      <trkpt lat="47.99055" lon="1.93589">
        <ele>125.4</ele>
        <time>2020-07-02T13:53:39Z</time>
      </trkpt>
      <trkpt lat="47.99048" lon="1.93586">
        <ele>125.5</ele>
        <time>2020-07-02T13:53:40Z</time>
      </trkpt>
      <trkpt lat="47.99041" lon="1.93583">
        <ele>125.6</ele>
        <time>2020-07-02T13:53:41Z</time>
      </trkpt>
      <trkpt lat="47.99035" lon="1.9358">
        <ele>125.6</ele>
        <time>2020-07-02T13:53:42Z</time>
      </trkpt>
      <trkpt lat="47.99028" lon="1.93578">
        <ele>125.6</ele>
        <time>2020-07-02T13:53:43Z</time>
      </trkpt>
      <trkpt lat="47.99021" lon="1.93575">
        <ele>125.7</ele>
        <time>2020-07-02T13:53:44Z</time>
      </trkpt>
      <trkpt lat="47.99014" lon="1.93573">
        <ele>125.7</ele>
        <time>2020-07-02T13:53:45Z</time>
      </trkpt>
      <trkpt lat="47.99007" lon="1.93571">
        <ele>125.8</ele>
        <time>2020-07-02T13:53:46Z</time>
      </trkpt>
      <trkpt lat="47.99001" lon="1.93569">
        <ele>125.9</ele>
        <time>2020-07-02T13:53:47Z</time>
      </trkpt>
      <trkpt lat="47.98994" lon="1.93567">
        <ele>125.9</ele>
        <time>2020-07-02T13:53:48Z</time>
      </trkpt>
      <trkpt lat="47.98987" lon="1.93566">
        <ele>126</ele>
        <time>2020-07-02T13:53:49Z</time>
      </trkpt>
      <trkpt lat="47.9898" lon="1.93564">
        <ele>126.1</ele>
        <time>2020-07-02T13:53:50Z</time>
      </trkpt>
      <trkpt lat="47.98973" lon="1.93562">
        <ele>126.2</ele>
        <time>2020-07-02T13:53:51Z</time>
      </trkpt>
      <trkpt lat="47.98966" lon="1.9356">
        <ele>126.2</ele>
        <time>2020-07-02T13:53:52Z</time>
      </trkpt>
      <trkpt lat="47.98959" lon="1.93559">
        <ele>126.3</ele>
        <time>2020-07-02T13:53:53Z</time>
      </trkpt>
      <trkpt lat="47.98952" lon="1.93557">
        <ele>126.4</ele>
        <time>2020-07-02T13:53:54Z</time>
      </trkpt>
      <trkpt lat="47.98946" lon="1.93555">
        <ele>126.4</ele>
        <time>2020-07-02T13:53:55Z</time>
      </trkpt>
      <trkpt lat="47.98939" lon="1.93553">
        <ele>126.5</ele>
        <time>2020-07-02T13:53:56Z</time>
      </trkpt>
      <trkpt lat="47.98932" lon="1.93552">
        <ele>126.5</ele>
        <time>2020-07-02T13:53:57Z</time>
      </trkpt>
      <trkpt lat="47.98925" lon="1.9355">
        <ele>126.6</ele>
        <time>2020-07-02T13:53:58Z</time>
      </trkpt>
      <trkpt lat="47.98918" lon="1.93548">
        <ele>126.6</ele>
        <time>2020-07-02T13:53:59Z</time>
      </trkpt>
      <trkpt lat="47.98911" lon="1.93547">
        <ele>126.7</ele>
        <time>2020-07-02T13:54:00Z</time>
      </trkpt>
      <trkpt lat="47.98904" lon="1.93545">
        <ele>126.8</ele>
        <time>2020-07-02T13:54:01Z</time>
      </trkpt>
      <trkpt lat="47.98897" lon="1.93544">
        <ele>126.8</ele>
        <time>2020-07-02T13:54:02Z</time>
      </trkpt>
      <trkpt lat="47.9889" lon="1.93543">
        <ele>126.9</ele>
        <time>2020-07-02T13:54:03Z</time>
      </trkpt>
      <trkpt lat="47.98883" lon="1.93541">
        <ele>127</ele>
        <time>2020-07-02T13:54:04Z</time>
      </trkpt>
      <trkpt lat="47.98876" lon="1.93539">
        <ele>127.1</ele>
        <time>2020-07-02T13:54:05Z</time>
      </trkpt>
      <trkpt lat="47.98868" lon="1.93538">
        <ele>127.2</ele>
        <time>2020-07-02T13:54:06Z</time>
      </trkpt>
      <trkpt lat="47.98861" lon="1.93537">
        <ele>127.3</ele>
        <time>2020-07-02T13:54:07Z</time>
      </trkpt>
      <trkpt lat="47.98854" lon="1.93536">
        <ele>127.4</ele>
        <time>2020-07-02T13:54:08Z</time>
      </trkpt>
      <trkpt lat="47.98847" lon="1.93536">
        <ele>127.5</ele>
        <time>2020-07-02T13:54:09Z</time>
      </trkpt>
      <trkpt lat="47.9884" lon="1.93535">
        <ele>127.6</ele>
        <time>2020-07-02T13:54:10Z</time>
      </trkpt>
      <trkpt lat="47.98833" lon="1.93535">
        <ele>127.7</ele>
        <time>2020-07-02T13:54:11Z</time>
      </trkpt>
      <trkpt lat="47.98825" lon="1.93534">
        <ele>127.7</ele>
        <time>2020-07-02T13:54:12Z</time>
      </trkpt>
      <trkpt lat="47.98818" lon="1.93533">
        <ele>127.8</ele>
        <time>2020-07-02T13:54:13Z</time>
      </trkpt>
      <trkpt lat="47.98811" lon="1.93533">
        <ele>127.9</ele>
        <time>2020-07-02T13:54:14Z</time>
      </trkpt>
      <trkpt lat="47.98804" lon="1.93531">
        <ele>128</ele>
        <time>2020-07-02T13:54:15Z</time>
      </trkpt>
      <trkpt lat="47.98797" lon="1.93531">
        <ele>128</ele>
        <time>2020-07-02T13:54:16Z</time>
      </trkpt>
      <trkpt lat="47.9879" lon="1.9353">
        <ele>128</ele>
        <time>2020-07-02T13:54:17Z</time>
      </trkpt>
      <trkpt lat="47.98782" lon="1.9353">
        <ele>127.9</ele>
        <time>2020-07-02T13:54:18Z</time>
      </trkpt>
      <trkpt lat="47.98775" lon="1.9353">
        <ele>127.9</ele>
        <time>2020-07-02T13:54:19Z</time>
      </trkpt>
      <trkpt lat="47.98768" lon="1.93529">
        <ele>127.9</ele>
        <time>2020-07-02T13:54:20Z</time>
      </trkpt>
      <trkpt lat="47.98761" lon="1.93528">
        <ele>128</ele>
        <time>2020-07-02T13:54:21Z</time>
      </trkpt>
      <trkpt lat="47.98754" lon="1.93528">
        <ele>128</ele>
        <time>2020-07-02T13:54:22Z</time>
      </trkpt>
      <trkpt lat="47.98747" lon="1.93528">
        <ele>128.1</ele>
        <time>2020-07-02T13:54:23Z</time>
      </trkpt>
      <trkpt lat="47.9874" lon="1.93527">
        <ele>128.2</ele>
        <time>2020-07-02T13:54:24Z</time>
      </trkpt>
      <trkpt lat="47.98733" lon="1.93527">
        <ele>128.2</ele>
        <time>2020-07-02T13:54:25Z</time>
      </trkpt>
      <trkpt lat="47.98726" lon="1.93527">
        <ele>128.3</ele>
        <time>2020-07-02T13:54:26Z</time>
      </trkpt>
      <trkpt lat="47.98719" lon="1.93527">
        <ele>128.4</ele>
        <time>2020-07-02T13:54:27Z</time>
      </trkpt>
      <trkpt lat="47.98712" lon="1.93526">
        <ele>128.4</ele>
        <time>2020-07-02T13:54:28Z</time>
      </trkpt>
      <trkpt lat="47.98705" lon="1.93526">
        <ele>128.6</ele>
        <time>2020-07-02T13:54:29Z</time>
      </trkpt>
      <trkpt lat="47.98698" lon="1.93525">
        <ele>128.7</ele>
        <time>2020-07-02T13:54:30Z</time>
      </trkpt>
      <trkpt lat="47.9869" lon="1.93524">
        <ele>128.9</ele>
        <time>2020-07-02T13:54:31Z</time>
      </trkpt>
      <trkpt lat="47.98683" lon="1.93524">
        <ele>128.8</ele>
        <time>2020-07-02T13:54:32Z</time>
      </trkpt>
      <trkpt lat="47.98676" lon="1.93524">
        <ele>128.8</ele>
        <time>2020-07-02T13:54:33Z</time>
      </trkpt>
      <trkpt lat="47.98669" lon="1.93523">
        <ele>128.8</ele>
        <time>2020-07-02T13:54:34Z</time>
      </trkpt>
      <trkpt lat="47.98662" lon="1.93522">
        <ele>128.8</ele>
        <time>2020-07-02T13:54:35Z</time>
      </trkpt>
      <trkpt lat="47.98654" lon="1.93522">
        <ele>128.8</ele>
        <time>2020-07-02T13:54:36Z</time>
      </trkpt>
      <trkpt lat="47.98647" lon="1.93522">
        <ele>128.9</ele>
        <time>2020-07-02T13:54:37Z</time>
      </trkpt>
      <trkpt lat="47.9864" lon="1.93522">
        <ele>128.9</ele>
        <time>2020-07-02T13:54:38Z</time>
      </trkpt>
      <trkpt lat="47.98633" lon="1.93522">
        <ele>129</ele>
        <time>2020-07-02T13:54:39Z</time>
      </trkpt>
      <trkpt lat="47.98626" lon="1.93523">
        <ele>129</ele>
        <time>2020-07-02T13:54:40Z</time>
      </trkpt>
      <trkpt lat="47.98619" lon="1.93523">
        <ele>129.1</ele>
        <time>2020-07-02T13:54:41Z</time>
      </trkpt>
      <trkpt lat="47.98612" lon="1.93521">
        <ele>129.1</ele>
        <time>2020-07-02T13:54:42Z</time>
      </trkpt>
      <trkpt lat="47.98606" lon="1.93521">
        <ele>129.1</ele>
        <time>2020-07-02T13:54:43Z</time>
      </trkpt>
      <trkpt lat="47.98599" lon="1.93521">
        <ele>129.1</ele>
        <time>2020-07-02T13:54:44Z</time>
      </trkpt>
      <trkpt lat="47.98592" lon="1.9352">
        <ele>129.1</ele>
        <time>2020-07-02T13:54:45Z</time>
      </trkpt>
      <trkpt lat="47.98585" lon="1.9352">
        <ele>129.1</ele>
        <time>2020-07-02T13:54:46Z</time>
      </trkpt>
      <trkpt lat="47.98578" lon="1.9352">
        <ele>129.1</ele>
        <time>2020-07-02T13:54:47Z</time>
      </trkpt>
      <trkpt lat="47.98571" lon="1.9352">
        <ele>129.1</ele>
        <time>2020-07-02T13:54:48Z</time>
      </trkpt>
      <trkpt lat="47.98563" lon="1.93521">
        <ele>129.1</ele>
        <time>2020-07-02T13:54:49Z</time>
      </trkpt>
      <trkpt lat="47.98556" lon="1.93522">
        <ele>129</ele>
        <time>2020-07-02T13:54:50Z</time>
      </trkpt>
      <trkpt lat="47.98549" lon="1.93523">
        <ele>129</ele>
        <time>2020-07-02T13:54:51Z</time>
      </trkpt>
      <trkpt lat="47.98541" lon="1.93524">
        <ele>128.9</ele>
        <time>2020-07-02T13:54:52Z</time>
      </trkpt>
      <trkpt lat="47.98534" lon="1.93525">
        <ele>128.8</ele>
        <time>2020-07-02T13:54:53Z</time>
      </trkpt>
      <trkpt lat="47.98527" lon="1.93528">
        <ele>128.8</ele>
        <time>2020-07-02T13:54:54Z</time>
      </trkpt>
      <trkpt lat="47.9852" lon="1.93529">
        <ele>128.7</ele>
        <time>2020-07-02T13:54:55Z</time>
      </trkpt>
      <trkpt lat="47.98513" lon="1.9353">
        <ele>128.6</ele>
        <time>2020-07-02T13:54:56Z</time>
      </trkpt>
      <trkpt lat="47.98506" lon="1.93531">
        <ele>128.5</ele>
        <time>2020-07-02T13:54:57Z</time>
      </trkpt>
      <trkpt lat="47.98499" lon="1.93532">
        <ele>128.4</ele>
        <time>2020-07-02T13:54:58Z</time>
      </trkpt>
      <trkpt lat="47.98492" lon="1.93532">
        <ele>128.4</ele>
        <time>2020-07-02T13:54:59Z</time>
      </trkpt>
      <trkpt lat="47.98484" lon="1.93532">
        <ele>128.3</ele>
        <time>2020-07-02T13:55:00Z</time>
      </trkpt>
      <trkpt lat="47.98477" lon="1.93532">
        <ele>128.3</ele>
        <time>2020-07-02T13:55:01Z</time>
      </trkpt>
      <trkpt lat="47.9847" lon="1.93532">
        <ele>128.2</ele>
        <time>2020-07-02T13:55:02Z</time>
      </trkpt>
      <trkpt lat="47.98462" lon="1.93533">
        <ele>128.2</ele>
        <time>2020-07-02T13:55:03Z</time>
      </trkpt>
      <trkpt lat="47.98455" lon="1.93533">
        <ele>128.2</ele>
        <time>2020-07-02T13:55:04Z</time>
      </trkpt>
      <trkpt lat="47.98448" lon="1.93533">
        <ele>128.2</ele>
        <time>2020-07-02T13:55:05Z</time>
      </trkpt>
      <trkpt lat="47.9844" lon="1.93533">
        <ele>128.2</ele>
        <time>2020-07-02T13:55:06Z</time>
      </trkpt>
      <trkpt lat="47.98433" lon="1.93533">
        <ele>128.2</ele>
        <time>2020-07-02T13:55:07Z</time>
      </trkpt>
      <trkpt lat="47.98426" lon="1.93532">
        <ele>128.1</ele>
        <time>2020-07-02T13:55:08Z</time>
      </trkpt>
      <trkpt lat="47.98419" lon="1.93532">
        <ele>128</ele>
        <time>2020-07-02T13:55:09Z</time>
      </trkpt>
      <trkpt lat="47.98411" lon="1.93531">
        <ele>128</ele>
        <time>2020-07-02T13:55:10Z</time>
      </trkpt>
      <trkpt lat="47.98404" lon="1.9353">
        <ele>128</ele>
        <time>2020-07-02T13:55:11Z</time>
      </trkpt>
      <trkpt lat="47.98397" lon="1.93529">
        <ele>128</ele>
        <time>2020-07-02T13:55:12Z</time>
      </trkpt>
      <trkpt lat="47.98389" lon="1.93529">
        <ele>128</ele>
        <time>2020-07-02T13:55:13Z</time>
      </trkpt>
      <trkpt lat="47.98382" lon="1.93529">
        <ele>127.9</ele>
        <time>2020-07-02T13:55:14Z</time>
      </trkpt>
      <trkpt lat="47.98375" lon="1.93528">
        <ele>127.9</ele>
        <time>2020-07-02T13:55:15Z</time>
      </trkpt>
      <trkpt lat="47.98368" lon="1.93527">
        <ele>127.9</ele>
        <time>2020-07-02T13:55:16Z</time>
      </trkpt>
      <trkpt lat="47.9836" lon="1.93526">
        <ele>127.9</ele>
        <time>2020-07-02T13:55:17Z</time>
      </trkpt>
      <trkpt lat="47.98353" lon="1.93525">
        <ele>127.9</ele>
        <time>2020-07-02T13:55:18Z</time>
      </trkpt>
      <trkpt lat="47.98345" lon="1.93524">
        <ele>127.9</ele>
        <time>2020-07-02T13:55:19Z</time>
      </trkpt>
      <trkpt lat="47.98338" lon="1.93522">
        <ele>127.8</ele>
        <time>2020-07-02T13:55:20Z</time>
      </trkpt>
      <trkpt lat="47.9833" lon="1.93521">
        <ele>127.8</ele>
        <time>2020-07-02T13:55:21Z</time>
      </trkpt>
      <trkpt lat="47.98323" lon="1.93519">
        <ele>127.7</ele>
        <time>2020-07-02T13:55:22Z</time>
      </trkpt>
      <trkpt lat="47.98315" lon="1.93517">
        <ele>127.6</ele>
        <time>2020-07-02T13:55:23Z</time>
      </trkpt>
      <trkpt lat="47.98308" lon="1.93514">
        <ele>127.5</ele>
        <time>2020-07-02T13:55:24Z</time>
      </trkpt>
      <trkpt lat="47.983" lon="1.93511">
        <ele>127.5</ele>
        <time>2020-07-02T13:55:25Z</time>
      </trkpt>
      <trkpt lat="47.98292" lon="1.93508">
        <ele>127.4</ele>
        <time>2020-07-02T13:55:26Z</time>
      </trkpt>
      <trkpt lat="47.98285" lon="1.93505">
        <ele>127.3</ele>
        <time>2020-07-02T13:55:27Z</time>
      </trkpt>
      <trkpt lat="47.98277" lon="1.93503">
        <ele>127.3</ele>
        <time>2020-07-02T13:55:28Z</time>
      </trkpt>
      <trkpt lat="47.98269" lon="1.93501">
        <ele>127.2</ele>
        <time>2020-07-02T13:55:29Z</time>
      </trkpt>
      <trkpt lat="47.98262" lon="1.93498">
        <ele>127.2</ele>
        <time>2020-07-02T13:55:30Z</time>
      </trkpt>
      <trkpt lat="47.98254" lon="1.93495">
        <ele>127.1</ele>
        <time>2020-07-02T13:55:31Z</time>
      </trkpt>
      <trkpt lat="47.98247" lon="1.93492">
        <ele>127.1</ele>
        <time>2020-07-02T13:55:32Z</time>
      </trkpt>
      <trkpt lat="47.98239" lon="1.93489">
        <ele>127</ele>
        <time>2020-07-02T13:55:33Z</time>
      </trkpt>
      <trkpt lat="47.98232" lon="1.93485">
        <ele>127</ele>
        <time>2020-07-02T13:55:34Z</time>
      </trkpt>
      <trkpt lat="47.98224" lon="1.93482">
        <ele>127</ele>
        <time>2020-07-02T13:55:35Z</time>
      </trkpt>
      <trkpt lat="47.98217" lon="1.93479">
        <ele>126.9</ele>
        <time>2020-07-02T13:55:36Z</time>
      </trkpt>
      <trkpt lat="47.9821" lon="1.93475">
        <ele>126.9</ele>
        <time>2020-07-02T13:55:37Z</time>
      </trkpt>
      <trkpt lat="47.98202" lon="1.93473">
        <ele>126.9</ele>
        <time>2020-07-02T13:55:38Z</time>
      </trkpt>
      <trkpt lat="47.98195" lon="1.93469">
        <ele>126.8</ele>
        <time>2020-07-02T13:55:39Z</time>
      </trkpt>
      <trkpt lat="47.98188" lon="1.93467">
        <ele>126.8</ele>
        <time>2020-07-02T13:55:40Z</time>
      </trkpt>
      <trkpt lat="47.9818" lon="1.93464">
        <ele>126.8</ele>
        <time>2020-07-02T13:55:41Z</time>
      </trkpt>
      <trkpt lat="47.98173" lon="1.93461">
        <ele>126.9</ele>
        <time>2020-07-02T13:55:42Z</time>
      </trkpt>
      <trkpt lat="47.98165" lon="1.93458">
        <ele>126.9</ele>
        <time>2020-07-02T13:55:43Z</time>
      </trkpt>
      <trkpt lat="47.98158" lon="1.93455">
        <ele>126.9</ele>
        <time>2020-07-02T13:55:44Z</time>
      </trkpt>
      <trkpt lat="47.9815" lon="1.93452">
        <ele>126.9</ele>
        <time>2020-07-02T13:55:45Z</time>
      </trkpt>
      <trkpt lat="47.98143" lon="1.9345">
        <ele>126.9</ele>
        <time>2020-07-02T13:55:46Z</time>
      </trkpt>
      <trkpt lat="47.98135" lon="1.93447">
        <ele>126.9</ele>
        <time>2020-07-02T13:55:47Z</time>
      </trkpt>
      <trkpt lat="47.98128" lon="1.93443">
        <ele>126.9</ele>
        <time>2020-07-02T13:55:48Z</time>
      </trkpt>
      <trkpt lat="47.98121" lon="1.93439">
        <ele>126.9</ele>
        <time>2020-07-02T13:55:49Z</time>
      </trkpt>
      <trkpt lat="47.98114" lon="1.93436">
        <ele>126.8</ele>
        <time>2020-07-02T13:55:50Z</time>
      </trkpt>
      <trkpt lat="47.98106" lon="1.93433">
        <ele>126.9</ele>
        <time>2020-07-02T13:55:51Z</time>
      </trkpt>
      <trkpt lat="47.98099" lon="1.9343">
        <ele>126.9</ele>
        <time>2020-07-02T13:55:52Z</time>
      </trkpt>
      <trkpt lat="47.98092" lon="1.93427">
        <ele>126.9</ele>
        <time>2020-07-02T13:55:53Z</time>
      </trkpt>
      <trkpt lat="47.98085" lon="1.93424">
        <ele>126.9</ele>
        <time>2020-07-02T13:55:54Z</time>
      </trkpt>
      <trkpt lat="47.98078" lon="1.93422">
        <ele>126.9</ele>
        <time>2020-07-02T13:55:55Z</time>
      </trkpt>
      <trkpt lat="47.98071" lon="1.93419">
        <ele>126.9</ele>
        <time>2020-07-02T13:55:56Z</time>
      </trkpt>
      <trkpt lat="47.98064" lon="1.93416">
        <ele>126.9</ele>
        <time>2020-07-02T13:55:57Z</time>
      </trkpt>
      <trkpt lat="47.98057" lon="1.93414">
        <ele>127</ele>
        <time>2020-07-02T13:55:58Z</time>
      </trkpt>
      <trkpt lat="47.9805" lon="1.93411">
        <ele>127.2</ele>
        <time>2020-07-02T13:55:59Z</time>
      </trkpt>
      <trkpt lat="47.98043" lon="1.93408">
        <ele>127.2</ele>
        <time>2020-07-02T13:56:00Z</time>
      </trkpt>
      <trkpt lat="47.98036" lon="1.93406">
        <ele>127.2</ele>
        <time>2020-07-02T13:56:01Z</time>
      </trkpt>
      <trkpt lat="47.98029" lon="1.93404">
        <ele>127.1</ele>
        <time>2020-07-02T13:56:02Z</time>
      </trkpt>
      <trkpt lat="47.98022" lon="1.93401">
        <ele>127.1</ele>
        <time>2020-07-02T13:56:03Z</time>
      </trkpt>
      <trkpt lat="47.98016" lon="1.93398">
        <ele>127.1</ele>
        <time>2020-07-02T13:56:04Z</time>
      </trkpt>
      <trkpt lat="47.98009" lon="1.93395">
        <ele>127</ele>
        <time>2020-07-02T13:56:05Z</time>
      </trkpt>
      <trkpt lat="47.98002" lon="1.93392">
        <ele>127</ele>
        <time>2020-07-02T13:56:06Z</time>
      </trkpt>
      <trkpt lat="47.97995" lon="1.93389">
        <ele>127</ele>
        <time>2020-07-02T13:56:07Z</time>
      </trkpt>
      <trkpt lat="47.97989" lon="1.93385">
        <ele>127</ele>
        <time>2020-07-02T13:56:08Z</time>
      </trkpt>
      <trkpt lat="47.97982" lon="1.93383">
        <ele>127</ele>
        <time>2020-07-02T13:56:09Z</time>
      </trkpt>
      <trkpt lat="47.97975" lon="1.9338">
        <ele>127</ele>
        <time>2020-07-02T13:56:10Z</time>
      </trkpt>
      <trkpt lat="47.97968" lon="1.93377">
        <ele>127.1</ele>
        <time>2020-07-02T13:56:11Z</time>
      </trkpt>
      <trkpt lat="47.97962" lon="1.93374">
        <ele>127</ele>
        <time>2020-07-02T13:56:12Z</time>
      </trkpt>
      <trkpt lat="47.97955" lon="1.93372">
        <ele>127</ele>
        <time>2020-07-02T13:56:13Z</time>
      </trkpt>
      <trkpt lat="47.97948" lon="1.93369">
        <ele>127</ele>
        <time>2020-07-02T13:56:14Z</time>
      </trkpt>
      <trkpt lat="47.97942" lon="1.93366">
        <ele>127</ele>
        <time>2020-07-02T13:56:15Z</time>
      </trkpt>
      <trkpt lat="47.97935" lon="1.93363">
        <ele>126.9</ele>
        <time>2020-07-02T13:56:16Z</time>
      </trkpt>
      <trkpt lat="47.97928" lon="1.93361">
        <ele>126.9</ele>
        <time>2020-07-02T13:56:17Z</time>
      </trkpt>
      <trkpt lat="47.97921" lon="1.93359">
        <ele>126.9</ele>
        <time>2020-07-02T13:56:18Z</time>
      </trkpt>
      <trkpt lat="47.97914" lon="1.93356">
        <ele>126.8</ele>
        <time>2020-07-02T13:56:19Z</time>
      </trkpt>
      <trkpt lat="47.97908" lon="1.93352">
        <ele>126.7</ele>
        <time>2020-07-02T13:56:20Z</time>
      </trkpt>
      <trkpt lat="47.97901" lon="1.93349">
        <ele>126.7</ele>
        <time>2020-07-02T13:56:21Z</time>
      </trkpt>
      <trkpt lat="47.97894" lon="1.93345">
        <ele>126.6</ele>
        <time>2020-07-02T13:56:22Z</time>
      </trkpt>
      <trkpt lat="47.97888" lon="1.93342">
        <ele>126.6</ele>
        <time>2020-07-02T13:56:23Z</time>
      </trkpt>
      <trkpt lat="47.97881" lon="1.93341">
        <ele>126.5</ele>
        <time>2020-07-02T13:56:24Z</time>
      </trkpt>
      <trkpt lat="47.97874" lon="1.93338">
        <ele>126.5</ele>
        <time>2020-07-02T13:56:25Z</time>
      </trkpt>
      <trkpt lat="47.97868" lon="1.93335">
        <ele>126.4</ele>
        <time>2020-07-02T13:56:26Z</time>
      </trkpt>
      <trkpt lat="47.97861" lon="1.93333">
        <ele>126.4</ele>
        <time>2020-07-02T13:56:27Z</time>
      </trkpt>
      <trkpt lat="47.97854" lon="1.9333">
        <ele>126.4</ele>
        <time>2020-07-02T13:56:28Z</time>
      </trkpt>
      <trkpt lat="47.97847" lon="1.93328">
        <ele>126.3</ele>
        <time>2020-07-02T13:56:29Z</time>
      </trkpt>
      <trkpt lat="47.9784" lon="1.93326">
        <ele>126.3</ele>
        <time>2020-07-02T13:56:30Z</time>
      </trkpt>
      <trkpt lat="47.97833" lon="1.93324">
        <ele>126.3</ele>
        <time>2020-07-02T13:56:31Z</time>
      </trkpt>
      <trkpt lat="47.97827" lon="1.93321">
        <ele>126.2</ele>
        <time>2020-07-02T13:56:32Z</time>
      </trkpt>
      <trkpt lat="47.9782" lon="1.93318">
        <ele>126.2</ele>
        <time>2020-07-02T13:56:33Z</time>
      </trkpt>
      <trkpt lat="47.97813" lon="1.93315">
        <ele>126.2</ele>
        <time>2020-07-02T13:56:34Z</time>
      </trkpt>
      <trkpt lat="47.97806" lon="1.93313">
        <ele>126.2</ele>
        <time>2020-07-02T13:56:35Z</time>
      </trkpt>
      <trkpt lat="47.97799" lon="1.9331">
        <ele>126.2</ele>
        <time>2020-07-02T13:56:36Z</time>
      </trkpt>
      <trkpt lat="47.97793" lon="1.93307">
        <ele>126.2</ele>
        <time>2020-07-02T13:56:37Z</time>
      </trkpt>
      <trkpt lat="47.97786" lon="1.93304">
        <ele>126.1</ele>
        <time>2020-07-02T13:56:38Z</time>
      </trkpt>
      <trkpt lat="47.97779" lon="1.93301">
        <ele>126.2</ele>
        <time>2020-07-02T13:56:39Z</time>
      </trkpt>
      <trkpt lat="47.97773" lon="1.93298">
        <ele>126.2</ele>
        <time>2020-07-02T13:56:40Z</time>
      </trkpt>
      <trkpt lat="47.97766" lon="1.93295">
        <ele>126.4</ele>
        <time>2020-07-02T13:56:41Z</time>
      </trkpt>
      <trkpt lat="47.97759" lon="1.93292">
        <ele>126.5</ele>
        <time>2020-07-02T13:56:42Z</time>
      </trkpt>
      <trkpt lat="47.97752" lon="1.9329">
        <ele>126.6</ele>
        <time>2020-07-02T13:56:43Z</time>
      </trkpt>
      <trkpt lat="47.97745" lon="1.93288">
        <ele>126.7</ele>
        <time>2020-07-02T13:56:44Z</time>
      </trkpt>
      <trkpt lat="47.97738" lon="1.93284">
        <ele>126.8</ele>
        <time>2020-07-02T13:56:45Z</time>
      </trkpt>
      <trkpt lat="47.97731" lon="1.93283">
        <ele>126.9</ele>
        <time>2020-07-02T13:56:46Z</time>
      </trkpt>
      <trkpt lat="47.97724" lon="1.9328">
        <ele>127.1</ele>
        <time>2020-07-02T13:56:47Z</time>
      </trkpt>
      <trkpt lat="47.97717" lon="1.93277">
        <ele>127.2</ele>
        <time>2020-07-02T13:56:48Z</time>
      </trkpt>
      <trkpt lat="47.9771" lon="1.93275">
        <ele>127.4</ele>
        <time>2020-07-02T13:56:49Z</time>
      </trkpt>
      <trkpt lat="47.97703" lon="1.93273">
        <ele>127.5</ele>
        <time>2020-07-02T13:56:50Z</time>
      </trkpt>
      <trkpt lat="47.97696" lon="1.9327">
        <ele>127.6</ele>
        <time>2020-07-02T13:56:51Z</time>
      </trkpt>
      <trkpt lat="47.97689" lon="1.93267">
        <ele>127.7</ele>
        <time>2020-07-02T13:56:52Z</time>
      </trkpt>
      <trkpt lat="47.97682" lon="1.93263">
        <ele>127.8</ele>
        <time>2020-07-02T13:56:53Z</time>
      </trkpt>
      <trkpt lat="47.97676" lon="1.9326">
        <ele>127.8</ele>
        <time>2020-07-02T13:56:54Z</time>
      </trkpt>
      <trkpt lat="47.97669" lon="1.93256">
        <ele>127.8</ele>
        <time>2020-07-02T13:56:55Z</time>
      </trkpt>
      <trkpt lat="47.97662" lon="1.93253">
        <ele>127.8</ele>
        <time>2020-07-02T13:56:56Z</time>
      </trkpt>
      <trkpt lat="47.97655" lon="1.93251">
        <ele>127.8</ele>
        <time>2020-07-02T13:56:57Z</time>
      </trkpt>
      <trkpt lat="47.97648" lon="1.93249">
        <ele>127.8</ele>
        <time>2020-07-02T13:56:58Z</time>
      </trkpt>
      <trkpt lat="47.97641" lon="1.93246">
        <ele>127.7</ele>
        <time>2020-07-02T13:56:59Z</time>
      </trkpt>
      <trkpt lat="47.97633" lon="1.93243">
        <ele>127.7</ele>
        <time>2020-07-02T13:57:00Z</time>
      </trkpt>
      <trkpt lat="47.97626" lon="1.9324">
        <ele>127.6</ele>
        <time>2020-07-02T13:57:01Z</time>
      </trkpt>
      <trkpt lat="47.97618" lon="1.93238">
        <ele>127.5</ele>
        <time>2020-07-02T13:57:02Z</time>
      </trkpt>
      <trkpt lat="47.9761" lon="1.93235">
        <ele>127.5</ele>
        <time>2020-07-02T13:57:03Z</time>
      </trkpt>
      <trkpt lat="47.97602" lon="1.93232">
        <ele>127.5</ele>
        <time>2020-07-02T13:57:04Z</time>
      </trkpt>
      <trkpt lat="47.97595" lon="1.93229">
        <ele>127.5</ele>
        <time>2020-07-02T13:57:05Z</time>
      </trkpt>
      <trkpt lat="47.97587" lon="1.93225">
        <ele>127.5</ele>
        <time>2020-07-02T13:57:06Z</time>
      </trkpt>
      <trkpt lat="47.9758" lon="1.93222">
        <ele>127.5</ele>
        <time>2020-07-02T13:57:07Z</time>
      </trkpt>
      <trkpt lat="47.97572" lon="1.93218">
        <ele>127.5</ele>
        <time>2020-07-02T13:57:08Z</time>
      </trkpt>
      <trkpt lat="47.97565" lon="1.93216">
        <ele>127.4</ele>
        <time>2020-07-02T13:57:09Z</time>
      </trkpt>
      <trkpt lat="47.97558" lon="1.93212">
        <ele>127.3</ele>
        <time>2020-07-02T13:57:10Z</time>
      </trkpt>
      <trkpt lat="47.9755" lon="1.93209">
        <ele>127.3</ele>
        <time>2020-07-02T13:57:11Z</time>
      </trkpt>
      <trkpt lat="47.97543" lon="1.93206">
        <ele>127.3</ele>
        <time>2020-07-02T13:57:12Z</time>
      </trkpt>
      <trkpt lat="47.97536" lon="1.93203">
        <ele>127.3</ele>
        <time>2020-07-02T13:57:13Z</time>
      </trkpt>
      <trkpt lat="47.97529" lon="1.932">
        <ele>127.3</ele>
        <time>2020-07-02T13:57:14Z</time>
      </trkpt>
      <trkpt lat="47.97522" lon="1.93198">
        <ele>127.3</ele>
        <time>2020-07-02T13:57:15Z</time>
      </trkpt>
      <trkpt lat="47.97515" lon="1.93195">
        <ele>127.3</ele>
        <time>2020-07-02T13:57:16Z</time>
      </trkpt>
      <trkpt lat="47.97507" lon="1.93192">
        <ele>127.4</ele>
        <time>2020-07-02T13:57:17Z</time>
      </trkpt>
      <trkpt lat="47.975" lon="1.93189">
        <ele>127.4</ele>
        <time>2020-07-02T13:57:18Z</time>
      </trkpt>
      <trkpt lat="47.97493" lon="1.93186">
        <ele>127.5</ele>
        <time>2020-07-02T13:57:19Z</time>
      </trkpt>
      <trkpt lat="47.97486" lon="1.93183">
        <ele>127.6</ele>
        <time>2020-07-02T13:57:20Z</time>
      </trkpt>
      <trkpt lat="47.97479" lon="1.93179">
        <ele>127.6</ele>
        <time>2020-07-02T13:57:21Z</time>
      </trkpt>
      <trkpt lat="47.97473" lon="1.93175">
        <ele>127.7</ele>
        <time>2020-07-02T13:57:22Z</time>
      </trkpt>
      <trkpt lat="47.97466" lon="1.93173">
        <ele>127.7</ele>
        <time>2020-07-02T13:57:23Z</time>
      </trkpt>
      <trkpt lat="47.97459" lon="1.9317">
        <ele>127.7</ele>
        <time>2020-07-02T13:57:24Z</time>
      </trkpt>
      <trkpt lat="47.97452" lon="1.93167">
        <ele>127.7</ele>
        <time>2020-07-02T13:57:25Z</time>
      </trkpt>
      <trkpt lat="47.97445" lon="1.93164">
        <ele>127.8</ele>
        <time>2020-07-02T13:57:26Z</time>
      </trkpt>
      <trkpt lat="47.97438" lon="1.93162">
        <ele>127.9</ele>
        <time>2020-07-02T13:57:27Z</time>
      </trkpt>
      <trkpt lat="47.97431" lon="1.9316">
        <ele>128</ele>
        <time>2020-07-02T13:57:28Z</time>
      </trkpt>
      <trkpt lat="47.97424" lon="1.93156">
        <ele>128</ele>
        <time>2020-07-02T13:57:29Z</time>
      </trkpt>
      <trkpt lat="47.97417" lon="1.93154">
        <ele>128.1</ele>
        <time>2020-07-02T13:57:30Z</time>
      </trkpt>
      <trkpt lat="47.9741" lon="1.93151">
        <ele>128.2</ele>
        <time>2020-07-02T13:57:31Z</time>
      </trkpt>
      <trkpt lat="47.97403" lon="1.93149">
        <ele>128.3</ele>
        <time>2020-07-02T13:57:32Z</time>
      </trkpt>
      <trkpt lat="47.97397" lon="1.93146">
        <ele>128.4</ele>
        <time>2020-07-02T13:57:33Z</time>
      </trkpt>
      <trkpt lat="47.97391" lon="1.93143">
        <ele>128.6</ele>
        <time>2020-07-02T13:57:34Z</time>
      </trkpt>
      <trkpt lat="47.97385" lon="1.93139">
        <ele>128.7</ele>
        <time>2020-07-02T13:57:35Z</time>
      </trkpt>
      <trkpt lat="47.97379" lon="1.93135">
        <ele>128.8</ele>
        <time>2020-07-02T13:57:36Z</time>
      </trkpt>
      <trkpt lat="47.97373" lon="1.93133">
        <ele>128.9</ele>
        <time>2020-07-02T13:57:37Z</time>
      </trkpt>
      <trkpt lat="47.97367" lon="1.9313">
        <ele>129</ele>
        <time>2020-07-02T13:57:38Z</time>
      </trkpt>
      <trkpt lat="47.97361" lon="1.93127">
        <ele>129.2</ele>
        <time>2020-07-02T13:57:39Z</time>
      </trkpt>
      <trkpt lat="47.97355" lon="1.93125">
        <ele>129.3</ele>
        <time>2020-07-02T13:57:40Z</time>
      </trkpt>
      <trkpt lat="47.97349" lon="1.93122">
        <ele>129.4</ele>
        <time>2020-07-02T13:57:41Z</time>
      </trkpt>
      <trkpt lat="47.97343" lon="1.93118">
        <ele>129.5</ele>
        <time>2020-07-02T13:57:42Z</time>
      </trkpt>
      <trkpt lat="47.97337" lon="1.93116">
        <ele>129.6</ele>
        <time>2020-07-02T13:57:43Z</time>
      </trkpt>
      <trkpt lat="47.97332" lon="1.93114">
        <ele>129.7</ele>
        <time>2020-07-02T13:57:44Z</time>
      </trkpt>
      <trkpt lat="47.97326" lon="1.9311">
        <ele>129.8</ele>
        <time>2020-07-02T13:57:45Z</time>
      </trkpt>
      <trkpt lat="47.9732" lon="1.93107">
        <ele>129.9</ele>
        <time>2020-07-02T13:57:46Z</time>
      </trkpt>
      <trkpt lat="47.97315" lon="1.93103">
        <ele>130</ele>
        <time>2020-07-02T13:57:47Z</time>
      </trkpt>
      <trkpt lat="47.97309" lon="1.931">
        <ele>130.1</ele>
        <time>2020-07-02T13:57:48Z</time>
      </trkpt>
      <trkpt lat="47.97303" lon="1.93098">
        <ele>130.2</ele>
        <time>2020-07-02T13:57:49Z</time>
      </trkpt>
      <trkpt lat="47.97297" lon="1.93094">
        <ele>130.4</ele>
        <time>2020-07-02T13:57:50Z</time>
      </trkpt>
      <trkpt lat="47.97292" lon="1.93091">
        <ele>130.5</ele>
        <time>2020-07-02T13:57:51Z</time>
      </trkpt>
      <trkpt lat="47.97285" lon="1.93084">
        <ele>130.7</ele>
        <time>2020-07-02T13:57:52Z</time>
      </trkpt>
      <trkpt lat="47.97281" lon="1.93083">
        <ele>130.8</ele>
        <time>2020-07-02T13:57:53Z</time>
      </trkpt>
      <trkpt lat="47.97274" lon="1.93079">
        <ele>130.9</ele>
        <time>2020-07-02T13:57:54Z</time>
      </trkpt>
      <trkpt lat="47.97268" lon="1.93074">
        <ele>131.1</ele>
        <time>2020-07-02T13:57:55Z</time>
      </trkpt>
      <trkpt lat="47.97263" lon="1.9307">
        <ele>131.2</ele>
        <time>2020-07-02T13:57:56Z</time>
      </trkpt>
      <trkpt lat="47.97258" lon="1.93067">
        <ele>131.2</ele>
        <time>2020-07-02T13:57:57Z</time>
      </trkpt>
      <trkpt lat="47.97252" lon="1.93063">
        <ele>131.2</ele>
        <time>2020-07-02T13:57:58Z</time>
      </trkpt>
      <trkpt lat="47.97245" lon="1.9306">
        <ele>131.3</ele>
        <time>2020-07-02T13:57:59Z</time>
      </trkpt>
      <trkpt lat="47.9724" lon="1.93056">
        <ele>131.3</ele>
        <time>2020-07-02T13:58:00Z</time>
      </trkpt>
      <trkpt lat="47.97235" lon="1.93051">
        <ele>131.3</ele>
        <time>2020-07-02T13:58:01Z</time>
      </trkpt>
      <trkpt lat="47.9723" lon="1.93048">
        <ele>131.3</ele>
        <time>2020-07-02T13:58:02Z</time>
      </trkpt>
      <trkpt lat="47.97224" lon="1.93044">
        <ele>131.4</ele>
        <time>2020-07-02T13:58:03Z</time>
      </trkpt>
      <trkpt lat="47.97218" lon="1.9304">
        <ele>131.4</ele>
        <time>2020-07-02T13:58:04Z</time>
      </trkpt>
      <trkpt lat="47.97213" lon="1.93036">
        <ele>131.5</ele>
        <time>2020-07-02T13:58:05Z</time>
      </trkpt>
      <trkpt lat="47.97207" lon="1.93032">
        <ele>131.6</ele>
        <time>2020-07-02T13:58:06Z</time>
      </trkpt>
      <trkpt lat="47.97201" lon="1.9303">
        <ele>131.6</ele>
        <time>2020-07-02T13:58:07Z</time>
      </trkpt>
      <trkpt lat="47.97196" lon="1.93025">
        <ele>131.7</ele>
        <time>2020-07-02T13:58:08Z</time>
      </trkpt>
      <trkpt lat="47.9719" lon="1.93021">
        <ele>131.7</ele>
        <time>2020-07-02T13:58:09Z</time>
      </trkpt>
      <trkpt lat="47.97185" lon="1.93018">
        <ele>131.8</ele>
        <time>2020-07-02T13:58:10Z</time>
      </trkpt>
      <trkpt lat="47.97179" lon="1.93015">
        <ele>131.8</ele>
        <time>2020-07-02T13:58:11Z</time>
      </trkpt>
      <trkpt lat="47.97173" lon="1.93011">
        <ele>131.8</ele>
        <time>2020-07-02T13:58:12Z</time>
      </trkpt>
      <trkpt lat="47.97167" lon="1.93006">
        <ele>131.9</ele>
        <time>2020-07-02T13:58:13Z</time>
      </trkpt>
      <trkpt lat="47.97161" lon="1.93002">
        <ele>131.9</ele>
        <time>2020-07-02T13:58:14Z</time>
      </trkpt>
      <trkpt lat="47.97155" lon="1.92999">
        <ele>131.9</ele>
        <time>2020-07-02T13:58:15Z</time>
      </trkpt>
      <trkpt lat="47.97149" lon="1.92996">
        <ele>131.9</ele>
        <time>2020-07-02T13:58:16Z</time>
      </trkpt>
      <trkpt lat="47.97143" lon="1.92992">
        <ele>131.9</ele>
        <time>2020-07-02T13:58:17Z</time>
      </trkpt>
      <trkpt lat="47.97138" lon="1.92988">
        <ele>131.9</ele>
        <time>2020-07-02T13:58:18Z</time>
      </trkpt>
      <trkpt lat="47.97132" lon="1.92986">
        <ele>131.9</ele>
        <time>2020-07-02T13:58:19Z</time>
      </trkpt>
      <trkpt lat="47.97126" lon="1.92983">
        <ele>131.9</ele>
        <time>2020-07-02T13:58:20Z</time>
      </trkpt>
      <trkpt lat="47.9712" lon="1.9298">
        <ele>131.9</ele>
        <time>2020-07-02T13:58:21Z</time>
      </trkpt>
      <trkpt lat="47.97114" lon="1.92977">
        <ele>132</ele>
        <time>2020-07-02T13:58:22Z</time>
      </trkpt>
      <trkpt lat="47.97108" lon="1.92974">
        <ele>132</ele>
        <time>2020-07-02T13:58:23Z</time>
      </trkpt>
      <trkpt lat="47.97102" lon="1.92971">
        <ele>132</ele>
        <time>2020-07-02T13:58:24Z</time>
      </trkpt>
      <trkpt lat="47.97096" lon="1.92967">
        <ele>132</ele>
        <time>2020-07-02T13:58:25Z</time>
      </trkpt>
      <trkpt lat="47.97089" lon="1.92964">
        <ele>132</ele>
        <time>2020-07-02T13:58:26Z</time>
      </trkpt>
      <trkpt lat="47.97083" lon="1.92962">
        <ele>132</ele>
        <time>2020-07-02T13:58:27Z</time>
      </trkpt>
      <trkpt lat="47.97076" lon="1.92958">
        <ele>132</ele>
        <time>2020-07-02T13:58:28Z</time>
      </trkpt>
      <trkpt lat="47.97069" lon="1.92956">
        <ele>132</ele>
        <time>2020-07-02T13:58:29Z</time>
      </trkpt>
      <trkpt lat="47.97062" lon="1.92953">
        <ele>132</ele>
        <time>2020-07-02T13:58:30Z</time>
      </trkpt>
      <trkpt lat="47.97056" lon="1.9295">
        <ele>132</ele>
        <time>2020-07-02T13:58:31Z</time>
      </trkpt>
      <trkpt lat="47.97048" lon="1.92948">
        <ele>132</ele>
        <time>2020-07-02T13:58:32Z</time>
      </trkpt>
      <trkpt lat="47.97042" lon="1.92946">
        <ele>132</ele>
        <time>2020-07-02T13:58:33Z</time>
      </trkpt>
      <trkpt lat="47.97035" lon="1.92944">
        <ele>132</ele>
        <time>2020-07-02T13:58:34Z</time>
      </trkpt>
      <trkpt lat="47.97028" lon="1.92942">
        <ele>132</ele>
        <time>2020-07-02T13:58:35Z</time>
      </trkpt>
      <trkpt lat="47.97022" lon="1.92941">
        <ele>132</ele>
        <time>2020-07-02T13:58:36Z</time>
      </trkpt>
      <trkpt lat="47.97015" lon="1.9294">
        <ele>132</ele>
        <time>2020-07-02T13:58:37Z</time>
      </trkpt>
      <trkpt lat="47.97008" lon="1.92938">
        <ele>132.1</ele>
        <time>2020-07-02T13:58:38Z</time>
      </trkpt>
      <trkpt lat="47.97002" lon="1.92936">
        <ele>132.1</ele>
        <time>2020-07-02T13:58:39Z</time>
      </trkpt>
      <trkpt lat="47.96995" lon="1.92933">
        <ele>132.1</ele>
        <time>2020-07-02T13:58:40Z</time>
      </trkpt>
      <trkpt lat="47.96987" lon="1.92931">
        <ele>132.1</ele>
        <time>2020-07-02T13:58:41Z</time>
      </trkpt>
      <trkpt lat="47.96981" lon="1.9293">
        <ele>132.1</ele>
        <time>2020-07-02T13:58:42Z</time>
      </trkpt>
      <trkpt lat="47.96975" lon="1.92928">
        <ele>132.1</ele>
        <time>2020-07-02T13:58:43Z</time>
      </trkpt>
      <trkpt lat="47.96968" lon="1.92927">
        <ele>132.1</ele>
        <time>2020-07-02T13:58:44Z</time>
      </trkpt>
      <trkpt lat="47.96961" lon="1.92925">
        <ele>132.1</ele>
        <time>2020-07-02T13:58:45Z</time>
      </trkpt>
      <trkpt lat="47.96954" lon="1.92924">
        <ele>132.2</ele>
        <time>2020-07-02T13:58:46Z</time>
      </trkpt>
      <trkpt lat="47.96946" lon="1.92921">
        <ele>132.3</ele>
        <time>2020-07-02T13:58:47Z</time>
      </trkpt>
      <trkpt lat="47.96938" lon="1.92918">
        <ele>132.3</ele>
        <time>2020-07-02T13:58:48Z</time>
      </trkpt>
      <trkpt lat="47.96931" lon="1.92916">
        <ele>132.2</ele>
        <time>2020-07-02T13:58:49Z</time>
      </trkpt>
      <trkpt lat="47.96924" lon="1.92915">
        <ele>132.1</ele>
        <time>2020-07-02T13:58:50Z</time>
      </trkpt>
      <trkpt lat="47.96917" lon="1.92912">
        <ele>132</ele>
        <time>2020-07-02T13:58:51Z</time>
      </trkpt>
      <trkpt lat="47.9691" lon="1.92911">
        <ele>132</ele>
        <time>2020-07-02T13:58:52Z</time>
      </trkpt>
      <trkpt lat="47.96902" lon="1.92909">
        <ele>132</ele>
        <time>2020-07-02T13:58:53Z</time>
      </trkpt>
      <trkpt lat="47.96894" lon="1.92907">
        <ele>131.9</ele>
        <time>2020-07-02T13:58:54Z</time>
      </trkpt>
      <trkpt lat="47.96887" lon="1.92905">
        <ele>131.8</ele>
        <time>2020-07-02T13:58:55Z</time>
      </trkpt>
      <trkpt lat="47.9688" lon="1.92903">
        <ele>131.8</ele>
        <time>2020-07-02T13:58:56Z</time>
      </trkpt>
      <trkpt lat="47.96872" lon="1.92901">
        <ele>131.7</ele>
        <time>2020-07-02T13:58:57Z</time>
      </trkpt>
      <trkpt lat="47.96864" lon="1.92899">
        <ele>131.6</ele>
        <time>2020-07-02T13:58:58Z</time>
      </trkpt>
      <trkpt lat="47.96857" lon="1.92897">
        <ele>131.6</ele>
        <time>2020-07-02T13:58:59Z</time>
      </trkpt>
      <trkpt lat="47.96849" lon="1.92895">
        <ele>131.5</ele>
        <time>2020-07-02T13:59:00Z</time>
      </trkpt>
      <trkpt lat="47.96842" lon="1.92894">
        <ele>131.4</ele>
        <time>2020-07-02T13:59:01Z</time>
      </trkpt>
      <trkpt lat="47.96833" lon="1.92892">
        <ele>131.4</ele>
        <time>2020-07-02T13:59:02Z</time>
      </trkpt>
      <trkpt lat="47.96826" lon="1.9289">
        <ele>131.3</ele>
        <time>2020-07-02T13:59:03Z</time>
      </trkpt>
      <trkpt lat="47.96818" lon="1.92888">
        <ele>131.2</ele>
        <time>2020-07-02T13:59:04Z</time>
      </trkpt>
      <trkpt lat="47.9681" lon="1.92886">
        <ele>131.2</ele>
        <time>2020-07-02T13:59:05Z</time>
      </trkpt>
      <trkpt lat="47.96802" lon="1.92884">
        <ele>131.1</ele>
        <time>2020-07-02T13:59:06Z</time>
      </trkpt>
      <trkpt lat="47.96794" lon="1.92881">
        <ele>131.1</ele>
        <time>2020-07-02T13:59:07Z</time>
      </trkpt>
      <trkpt lat="47.96786" lon="1.92879">
        <ele>131</ele>
        <time>2020-07-02T13:59:08Z</time>
      </trkpt>
      <trkpt lat="47.96778" lon="1.92878">
        <ele>130.9</ele>
        <time>2020-07-02T13:59:09Z</time>
      </trkpt>
      <trkpt lat="47.9677" lon="1.92876">
        <ele>130.8</ele>
        <time>2020-07-02T13:59:10Z</time>
      </trkpt>
      <trkpt lat="47.96762" lon="1.92873">
        <ele>130.7</ele>
        <time>2020-07-02T13:59:11Z</time>
      </trkpt>
      <trkpt lat="47.96754" lon="1.92871">
        <ele>130.6</ele>
        <time>2020-07-02T13:59:12Z</time>
      </trkpt>
      <trkpt lat="47.96746" lon="1.92869">
        <ele>130.5</ele>
        <time>2020-07-02T13:59:13Z</time>
      </trkpt>
      <trkpt lat="47.96738" lon="1.92867">
        <ele>130.4</ele>
        <time>2020-07-02T13:59:14Z</time>
      </trkpt>
      <trkpt lat="47.96731" lon="1.92864">
        <ele>130.2</ele>
        <time>2020-07-02T13:59:15Z</time>
      </trkpt>
      <trkpt lat="47.96722" lon="1.92862">
        <ele>130.1</ele>
        <time>2020-07-02T13:59:16Z</time>
      </trkpt>
      <trkpt lat="47.96714" lon="1.9286">
        <ele>130.1</ele>
        <time>2020-07-02T13:59:17Z</time>
      </trkpt>
      <trkpt lat="47.96706" lon="1.92858">
        <ele>130</ele>
        <time>2020-07-02T13:59:18Z</time>
      </trkpt>
      <trkpt lat="47.96698" lon="1.92855">
        <ele>129.9</ele>
        <time>2020-07-02T13:59:19Z</time>
      </trkpt>
      <trkpt lat="47.9669" lon="1.92854">
        <ele>129.8</ele>
        <time>2020-07-02T13:59:20Z</time>
      </trkpt>
      <trkpt lat="47.96682" lon="1.92851">
        <ele>129.8</ele>
        <time>2020-07-02T13:59:21Z</time>
      </trkpt>
      <trkpt lat="47.96674" lon="1.92849">
        <ele>129.7</ele>
        <time>2020-07-02T13:59:22Z</time>
      </trkpt>
      <trkpt lat="47.96666" lon="1.92846">
        <ele>129.6</ele>
        <time>2020-07-02T13:59:23Z</time>
      </trkpt>
      <trkpt lat="47.96658" lon="1.92844">
        <ele>129.6</ele>
        <time>2020-07-02T13:59:24Z</time>
      </trkpt>
      <trkpt lat="47.9665" lon="1.92841">
        <ele>129.5</ele>
        <time>2020-07-02T13:59:25Z</time>
      </trkpt>
      <trkpt lat="47.96642" lon="1.92839">
        <ele>129.4</ele>
        <time>2020-07-02T13:59:26Z</time>
      </trkpt>
      <trkpt lat="47.96634" lon="1.92836">
        <ele>129.3</ele>
        <time>2020-07-02T13:59:27Z</time>
      </trkpt>
      <trkpt lat="47.96626" lon="1.92834">
        <ele>129.2</ele>
        <time>2020-07-02T13:59:28Z</time>
      </trkpt>
      <trkpt lat="47.96618" lon="1.92831">
        <ele>129.1</ele>
        <time>2020-07-02T13:59:29Z</time>
      </trkpt>
      <trkpt lat="47.9661" lon="1.92829">
        <ele>129</ele>
        <time>2020-07-02T13:59:30Z</time>
      </trkpt>
      <trkpt lat="47.96602" lon="1.92826">
        <ele>128.9</ele>
        <time>2020-07-02T13:59:31Z</time>
      </trkpt>
      <trkpt lat="47.96595" lon="1.92825">
        <ele>128.9</ele>
        <time>2020-07-02T13:59:32Z</time>
      </trkpt>
      <trkpt lat="47.96587" lon="1.92822">
        <ele>128.9</ele>
        <time>2020-07-02T13:59:33Z</time>
      </trkpt>
      <trkpt lat="47.96579" lon="1.92819">
        <ele>128.8</ele>
        <time>2020-07-02T13:59:34Z</time>
      </trkpt>
      <trkpt lat="47.96572" lon="1.92817">
        <ele>128.8</ele>
        <time>2020-07-02T13:59:35Z</time>
      </trkpt>
      <trkpt lat="47.96565" lon="1.92814">
        <ele>128.8</ele>
        <time>2020-07-02T13:59:36Z</time>
      </trkpt>
      <trkpt lat="47.96557" lon="1.92811">
        <ele>128.8</ele>
        <time>2020-07-02T13:59:37Z</time>
      </trkpt>
      <trkpt lat="47.9655" lon="1.92808">
        <ele>128.8</ele>
        <time>2020-07-02T13:59:38Z</time>
      </trkpt>
      <trkpt lat="47.96543" lon="1.92804">
        <ele>128.7</ele>
        <time>2020-07-02T13:59:39Z</time>
      </trkpt>
      <trkpt lat="47.96535" lon="1.92803">
        <ele>128.7</ele>
        <time>2020-07-02T13:59:40Z</time>
      </trkpt>
      <trkpt lat="47.96527" lon="1.92799">
        <ele>128.7</ele>
        <time>2020-07-02T13:59:41Z</time>
      </trkpt>
      <trkpt lat="47.9652" lon="1.92794">
        <ele>128.7</ele>
        <time>2020-07-02T13:59:42Z</time>
      </trkpt>
      <trkpt lat="47.96513" lon="1.92791">
        <ele>128.7</ele>
        <time>2020-07-02T13:59:43Z</time>
      </trkpt>
      <trkpt lat="47.96506" lon="1.92789">
        <ele>128.7</ele>
        <time>2020-07-02T13:59:44Z</time>
      </trkpt>
      <trkpt lat="47.96498" lon="1.92787">
        <ele>128.6</ele>
        <time>2020-07-02T13:59:45Z</time>
      </trkpt>
      <trkpt lat="47.96491" lon="1.92785">
        <ele>128.6</ele>
        <time>2020-07-02T13:59:46Z</time>
      </trkpt>
      <trkpt lat="47.96484" lon="1.92783">
        <ele>128.5</ele>
        <time>2020-07-02T13:59:47Z</time>
      </trkpt>
      <trkpt lat="47.96477" lon="1.9278">
        <ele>128.4</ele>
        <time>2020-07-02T13:59:48Z</time>
      </trkpt>
      <trkpt lat="47.9647" lon="1.92778">
        <ele>128.3</ele>
        <time>2020-07-02T13:59:49Z</time>
      </trkpt>
      <trkpt lat="47.96463" lon="1.92774">
        <ele>128.2</ele>
        <time>2020-07-02T13:59:50Z</time>
      </trkpt>
      <trkpt lat="47.96456" lon="1.92771">
        <ele>128.1</ele>
        <time>2020-07-02T13:59:51Z</time>
      </trkpt>
      <trkpt lat="47.96448" lon="1.92768">
        <ele>128.1</ele>
        <time>2020-07-02T13:59:52Z</time>
      </trkpt>
      <trkpt lat="47.96441" lon="1.92765">
        <ele>128</ele>
        <time>2020-07-02T13:59:53Z</time>
      </trkpt>
      <trkpt lat="47.96434" lon="1.92762">
        <ele>128</ele>
        <time>2020-07-02T13:59:54Z</time>
      </trkpt>
      <trkpt lat="47.96427" lon="1.92759">
        <ele>127.9</ele>
        <time>2020-07-02T13:59:55Z</time>
      </trkpt>
      <trkpt lat="47.96419" lon="1.92757">
        <ele>127.9</ele>
        <time>2020-07-02T13:59:56Z</time>
      </trkpt>
      <trkpt lat="47.96412" lon="1.92754">
        <ele>127.9</ele>
        <time>2020-07-02T13:59:57Z</time>
      </trkpt>
      <trkpt lat="47.96404" lon="1.92751">
        <ele>127.9</ele>
        <time>2020-07-02T13:59:58Z</time>
      </trkpt>
      <trkpt lat="47.96397" lon="1.92749">
        <ele>127.8</ele>
        <time>2020-07-02T13:59:59Z</time>
      </trkpt>
      <trkpt lat="47.9639" lon="1.92746">
        <ele>127.8</ele>
        <time>2020-07-02T14:00:00Z</time>
      </trkpt>
      <trkpt lat="47.96383" lon="1.92744">
        <ele>127.8</ele>
        <time>2020-07-02T14:00:01Z</time>
      </trkpt>
      <trkpt lat="47.96376" lon="1.92741">
        <ele>127.7</ele>
        <time>2020-07-02T14:00:02Z</time>
      </trkpt>
      <trkpt lat="47.96369" lon="1.92738">
        <ele>127.7</ele>
        <time>2020-07-02T14:00:03Z</time>
      </trkpt>
      <trkpt lat="47.96362" lon="1.92736">
        <ele>127.8</ele>
        <time>2020-07-02T14:00:04Z</time>
      </trkpt>
      <trkpt lat="47.96355" lon="1.92733">
        <ele>127.9</ele>
        <time>2020-07-02T14:00:05Z</time>
      </trkpt>
      <trkpt lat="47.96348" lon="1.92731">
        <ele>128</ele>
        <time>2020-07-02T14:00:06Z</time>
      </trkpt>
      <trkpt lat="47.96341" lon="1.92729">
        <ele>128</ele>
        <time>2020-07-02T14:00:07Z</time>
      </trkpt>
      <trkpt lat="47.96334" lon="1.92726">
        <ele>127.9</ele>
        <time>2020-07-02T14:00:08Z</time>
      </trkpt>
      <trkpt lat="47.96327" lon="1.92722">
        <ele>128</ele>
        <time>2020-07-02T14:00:09Z</time>
      </trkpt>
      <trkpt lat="47.9632" lon="1.9272">
        <ele>128</ele>
        <time>2020-07-02T14:00:10Z</time>
      </trkpt>
      <trkpt lat="47.96314" lon="1.92717">
        <ele>128</ele>
        <time>2020-07-02T14:00:11Z</time>
      </trkpt>
      <trkpt lat="47.96307" lon="1.92714">
        <ele>128</ele>
        <time>2020-07-02T14:00:12Z</time>
      </trkpt>
      <trkpt lat="47.963" lon="1.92711">
        <ele>128</ele>
        <time>2020-07-02T14:00:13Z</time>
      </trkpt>
      <trkpt lat="47.96293" lon="1.92707">
        <ele>127.9</ele>
        <time>2020-07-02T14:00:14Z</time>
      </trkpt>
      <trkpt lat="47.96286" lon="1.92704">
        <ele>127.9</ele>
        <time>2020-07-02T14:00:15Z</time>
      </trkpt>
      <trkpt lat="47.96279" lon="1.927">
        <ele>127.9</ele>
        <time>2020-07-02T14:00:16Z</time>
      </trkpt>
      <trkpt lat="47.96272" lon="1.92696">
        <ele>127.9</ele>
        <time>2020-07-02T14:00:17Z</time>
      </trkpt>
      <trkpt lat="47.96265" lon="1.92693">
        <ele>127.8</ele>
        <time>2020-07-02T14:00:18Z</time>
      </trkpt>
      <trkpt lat="47.96258" lon="1.9269">
        <ele>127.8</ele>
        <time>2020-07-02T14:00:19Z</time>
      </trkpt>
      <trkpt lat="47.9625" lon="1.92687">
        <ele>127.8</ele>
        <time>2020-07-02T14:00:20Z</time>
      </trkpt>
      <trkpt lat="47.96243" lon="1.92685">
        <ele>127.7</ele>
        <time>2020-07-02T14:00:21Z</time>
      </trkpt>
      <trkpt lat="47.96236" lon="1.92682">
        <ele>127.6</ele>
        <time>2020-07-02T14:00:22Z</time>
      </trkpt>
      <trkpt lat="47.96228" lon="1.92679">
        <ele>127.6</ele>
        <time>2020-07-02T14:00:23Z</time>
      </trkpt>
      <trkpt lat="47.96221" lon="1.92675">
        <ele>127.5</ele>
        <time>2020-07-02T14:00:24Z</time>
      </trkpt>
      <trkpt lat="47.96214" lon="1.92672">
        <ele>127.4</ele>
        <time>2020-07-02T14:00:25Z</time>
      </trkpt>
      <trkpt lat="47.96207" lon="1.92668">
        <ele>127.4</ele>
        <time>2020-07-02T14:00:26Z</time>
      </trkpt>
      <trkpt lat="47.962" lon="1.92663">
        <ele>127.4</ele>
        <time>2020-07-02T14:00:27Z</time>
      </trkpt>
      <trkpt lat="47.96192" lon="1.9266">
        <ele>127.3</ele>
        <time>2020-07-02T14:00:28Z</time>
      </trkpt>
      <trkpt lat="47.96185" lon="1.92656">
        <ele>127.3</ele>
        <time>2020-07-02T14:00:29Z</time>
      </trkpt>
      <trkpt lat="47.96178" lon="1.92652">
        <ele>127.3</ele>
        <time>2020-07-02T14:00:30Z</time>
      </trkpt>
      <trkpt lat="47.9617" lon="1.92649">
        <ele>127.3</ele>
        <time>2020-07-02T14:00:31Z</time>
      </trkpt>
      <trkpt lat="47.96163" lon="1.92645">
        <ele>127.3</ele>
        <time>2020-07-02T14:00:32Z</time>
      </trkpt>
      <trkpt lat="47.96156" lon="1.92642">
        <ele>127.3</ele>
        <time>2020-07-02T14:00:33Z</time>
      </trkpt>
      <trkpt lat="47.96148" lon="1.92638">
        <ele>127.3</ele>
        <time>2020-07-02T14:00:34Z</time>
      </trkpt>
      <trkpt lat="47.96141" lon="1.92636">
        <ele>127.3</ele>
        <time>2020-07-02T14:00:35Z</time>
      </trkpt>
      <trkpt lat="47.96134" lon="1.92632">
        <ele>127.3</ele>
        <time>2020-07-02T14:00:36Z</time>
      </trkpt>
      <trkpt lat="47.96127" lon="1.92628">
        <ele>127.3</ele>
        <time>2020-07-02T14:00:37Z</time>
      </trkpt>
      <trkpt lat="47.9612" lon="1.92625">
        <ele>127.3</ele>
        <time>2020-07-02T14:00:38Z</time>
      </trkpt>
      <trkpt lat="47.96113" lon="1.92622">
        <ele>127.3</ele>
        <time>2020-07-02T14:00:39Z</time>
      </trkpt>
      <trkpt lat="47.96106" lon="1.92618">
        <ele>127.4</ele>
        <time>2020-07-02T14:00:40Z</time>
      </trkpt>
      <trkpt lat="47.96099" lon="1.92614">
        <ele>127.4</ele>
        <time>2020-07-02T14:00:41Z</time>
      </trkpt>
      <trkpt lat="47.96092" lon="1.9261">
        <ele>127.4</ele>
        <time>2020-07-02T14:00:42Z</time>
      </trkpt>
      <trkpt lat="47.96086" lon="1.92607">
        <ele>127.4</ele>
        <time>2020-07-02T14:00:43Z</time>
      </trkpt>
      <trkpt lat="47.96078" lon="1.92603">
        <ele>127.5</ele>
        <time>2020-07-02T14:00:44Z</time>
      </trkpt>
      <trkpt lat="47.96071" lon="1.92601">
        <ele>127.5</ele>
        <time>2020-07-02T14:00:45Z</time>
      </trkpt>
      <trkpt lat="47.96063" lon="1.92597">
        <ele>127.5</ele>
        <time>2020-07-02T14:00:46Z</time>
      </trkpt>
      <trkpt lat="47.96057" lon="1.92593">
        <ele>127.6</ele>
        <time>2020-07-02T14:00:47Z</time>
      </trkpt>
      <trkpt lat="47.96049" lon="1.9259">
        <ele>127.6</ele>
        <time>2020-07-02T14:00:48Z</time>
      </trkpt>
      <trkpt lat="47.96042" lon="1.92586">
        <ele>127.7</ele>
        <time>2020-07-02T14:00:49Z</time>
      </trkpt>
      <trkpt lat="47.96035" lon="1.92582">
        <ele>127.7</ele>
        <time>2020-07-02T14:00:50Z</time>
      </trkpt>
      <trkpt lat="47.96029" lon="1.92578">
        <ele>127.8</ele>
        <time>2020-07-02T14:00:51Z</time>
      </trkpt>
      <trkpt lat="47.96022" lon="1.92574">
        <ele>127.8</ele>
        <time>2020-07-02T14:00:52Z</time>
      </trkpt>
      <trkpt lat="47.96015" lon="1.9257">
        <ele>127.8</ele>
        <time>2020-07-02T14:00:53Z</time>
      </trkpt>
      <trkpt lat="47.96008" lon="1.92567">
        <ele>127.8</ele>
        <time>2020-07-02T14:00:54Z</time>
      </trkpt>
      <trkpt lat="47.96001" lon="1.92563">
        <ele>127.8</ele>
        <time>2020-07-02T14:00:55Z</time>
      </trkpt>
      <trkpt lat="47.95994" lon="1.9256">
        <ele>127.9</ele>
        <time>2020-07-02T14:00:56Z</time>
      </trkpt>
      <trkpt lat="47.95987" lon="1.92556">
        <ele>127.9</ele>
        <time>2020-07-02T14:00:57Z</time>
      </trkpt>
      <trkpt lat="47.95981" lon="1.92553">
        <ele>128</ele>
        <time>2020-07-02T14:00:58Z</time>
      </trkpt>
      <trkpt lat="47.95974" lon="1.9255">
        <ele>128.1</ele>
        <time>2020-07-02T14:00:59Z</time>
      </trkpt>
      <trkpt lat="47.95968" lon="1.92548">
        <ele>128.2</ele>
        <time>2020-07-02T14:01:00Z</time>
      </trkpt>
      <trkpt lat="47.95961" lon="1.92545">
        <ele>128.3</ele>
        <time>2020-07-02T14:01:01Z</time>
      </trkpt>
      <trkpt lat="47.95955" lon="1.92541">
        <ele>128.4</ele>
        <time>2020-07-02T14:01:02Z</time>
      </trkpt>
      <trkpt lat="47.95949" lon="1.92539">
        <ele>128.5</ele>
        <time>2020-07-02T14:01:03Z</time>
      </trkpt>
      <trkpt lat="47.95943" lon="1.92536">
        <ele>128.5</ele>
        <time>2020-07-02T14:01:04Z</time>
      </trkpt>
      <trkpt lat="47.95937" lon="1.92532">
        <ele>128.5</ele>
        <time>2020-07-02T14:01:05Z</time>
      </trkpt>
      <trkpt lat="47.9593" lon="1.92532">
        <ele>128.6</ele>
        <time>2020-07-02T14:01:06Z</time>
      </trkpt>
      <trkpt lat="47.95923" lon="1.92528">
        <ele>128.6</ele>
        <time>2020-07-02T14:01:07Z</time>
      </trkpt>
      <trkpt lat="47.95917" lon="1.92525">
        <ele>128.7</ele>
        <time>2020-07-02T14:01:08Z</time>
      </trkpt>
      <trkpt lat="47.95911" lon="1.92521">
        <ele>128.7</ele>
        <time>2020-07-02T14:01:09Z</time>
      </trkpt>
      <trkpt lat="47.95905" lon="1.92517">
        <ele>128.8</ele>
        <time>2020-07-02T14:01:10Z</time>
      </trkpt>
      <trkpt lat="47.95899" lon="1.92513">
        <ele>128.8</ele>
        <time>2020-07-02T14:01:11Z</time>
      </trkpt>
      <trkpt lat="47.95893" lon="1.92511">
        <ele>128.9</ele>
        <time>2020-07-02T14:01:12Z</time>
      </trkpt>
      <trkpt lat="47.95887" lon="1.92507">
        <ele>128.9</ele>
        <time>2020-07-02T14:01:13Z</time>
      </trkpt>
      <trkpt lat="47.95881" lon="1.92505">
        <ele>129</ele>
        <time>2020-07-02T14:01:14Z</time>
      </trkpt>
      <trkpt lat="47.95875" lon="1.92502">
        <ele>129</ele>
        <time>2020-07-02T14:01:15Z</time>
      </trkpt>
      <trkpt lat="47.95869" lon="1.92499">
        <ele>129.1</ele>
        <time>2020-07-02T14:01:16Z</time>
      </trkpt>
      <trkpt lat="47.95863" lon="1.92496">
        <ele>129.1</ele>
        <time>2020-07-02T14:01:17Z</time>
      </trkpt>
      <trkpt lat="47.95857" lon="1.92492">
        <ele>129.1</ele>
        <time>2020-07-02T14:01:18Z</time>
      </trkpt>
      <trkpt lat="47.95851" lon="1.92491">
        <ele>129.1</ele>
        <time>2020-07-02T14:01:19Z</time>
      </trkpt>
      <trkpt lat="47.95845" lon="1.92488">
        <ele>129.1</ele>
        <time>2020-07-02T14:01:20Z</time>
      </trkpt>
      <trkpt lat="47.95839" lon="1.92485">
        <ele>129</ele>
        <time>2020-07-02T14:01:21Z</time>
      </trkpt>
      <trkpt lat="47.95832" lon="1.92482">
        <ele>129</ele>
        <time>2020-07-02T14:01:22Z</time>
      </trkpt>
      <trkpt lat="47.95827" lon="1.92479">
        <ele>129</ele>
        <time>2020-07-02T14:01:23Z</time>
      </trkpt>
      <trkpt lat="47.9582" lon="1.92476">
        <ele>129</ele>
        <time>2020-07-02T14:01:24Z</time>
      </trkpt>
      <trkpt lat="47.95814" lon="1.92473">
        <ele>129</ele>
        <time>2020-07-02T14:01:25Z</time>
      </trkpt>
      <trkpt lat="47.95808" lon="1.9247">
        <ele>129</ele>
        <time>2020-07-02T14:01:26Z</time>
      </trkpt>
      <trkpt lat="47.95802" lon="1.92467">
        <ele>129.1</ele>
        <time>2020-07-02T14:01:27Z</time>
      </trkpt>
      <trkpt lat="47.95797" lon="1.92464">
        <ele>129.1</ele>
        <time>2020-07-02T14:01:28Z</time>
      </trkpt>
      <trkpt lat="47.95791" lon="1.92461">
        <ele>129.1</ele>
        <time>2020-07-02T14:01:29Z</time>
      </trkpt>
      <trkpt lat="47.95786" lon="1.92458">
        <ele>129.1</ele>
        <time>2020-07-02T14:01:30Z</time>
      </trkpt>
      <trkpt lat="47.95779" lon="1.92456">
        <ele>129.1</ele>
        <time>2020-07-02T14:01:31Z</time>
      </trkpt>
      <trkpt lat="47.95773" lon="1.92453">
        <ele>129.1</ele>
        <time>2020-07-02T14:01:32Z</time>
      </trkpt>
      <trkpt lat="47.95768" lon="1.9245">
        <ele>129.1</ele>
        <time>2020-07-02T14:01:33Z</time>
      </trkpt>
      <trkpt lat="47.95761" lon="1.92447">
        <ele>129.1</ele>
        <time>2020-07-02T14:01:34Z</time>
      </trkpt>
      <trkpt lat="47.95756" lon="1.92444">
        <ele>129.1</ele>
        <time>2020-07-02T14:01:35Z</time>
      </trkpt>
      <trkpt lat="47.95751" lon="1.92443">
        <ele>129</ele>
        <time>2020-07-02T14:01:36Z</time>
      </trkpt>
      <trkpt lat="47.95745" lon="1.92441">
        <ele>129</ele>
        <time>2020-07-02T14:01:37Z</time>
      </trkpt>
      <trkpt lat="47.9574" lon="1.92438">
        <ele>129</ele>
        <time>2020-07-02T14:01:38Z</time>
      </trkpt>
      <trkpt lat="47.95734" lon="1.92435">
        <ele>129</ele>
        <time>2020-07-02T14:01:39Z</time>
      </trkpt>
      <trkpt lat="47.95728" lon="1.92432">
        <ele>128.9</ele>
        <time>2020-07-02T14:01:40Z</time>
      </trkpt>
      <trkpt lat="47.95722" lon="1.9243">
        <ele>128.9</ele>
        <time>2020-07-02T14:01:41Z</time>
      </trkpt>
      <trkpt lat="47.95715" lon="1.92427">
        <ele>128.9</ele>
        <time>2020-07-02T14:01:42Z</time>
      </trkpt>
      <trkpt lat="47.95709" lon="1.92423">
        <ele>128.9</ele>
        <time>2020-07-02T14:01:43Z</time>
      </trkpt>
      <trkpt lat="47.95703" lon="1.92421">
        <ele>129</ele>
        <time>2020-07-02T14:01:44Z</time>
      </trkpt>
      <trkpt lat="47.95697" lon="1.92418">
        <ele>129</ele>
        <time>2020-07-02T14:01:45Z</time>
      </trkpt>
      <trkpt lat="47.95692" lon="1.92415">
        <ele>129.1</ele>
        <time>2020-07-02T14:01:46Z</time>
      </trkpt>
      <trkpt lat="47.95685" lon="1.92413">
        <ele>129.2</ele>
        <time>2020-07-02T14:01:47Z</time>
      </trkpt>
      <trkpt lat="47.95679" lon="1.9241">
        <ele>129.1</ele>
        <time>2020-07-02T14:01:48Z</time>
      </trkpt>
      <trkpt lat="47.95673" lon="1.92408">
        <ele>128.9</ele>
        <time>2020-07-02T14:01:49Z</time>
      </trkpt>
      <trkpt lat="47.95666" lon="1.92405">
        <ele>128.8</ele>
        <time>2020-07-02T14:01:50Z</time>
      </trkpt>
      <trkpt lat="47.95659" lon="1.92401">
        <ele>128.8</ele>
        <time>2020-07-02T14:01:51Z</time>
      </trkpt>
      <trkpt lat="47.95652" lon="1.92398">
        <ele>128.7</ele>
        <time>2020-07-02T14:01:52Z</time>
      </trkpt>
      <trkpt lat="47.95645" lon="1.92394">
        <ele>128.7</ele>
        <time>2020-07-02T14:01:53Z</time>
      </trkpt>
      <trkpt lat="47.95639" lon="1.92391">
        <ele>128.6</ele>
        <time>2020-07-02T14:01:54Z</time>
      </trkpt>
      <trkpt lat="47.95634" lon="1.92388">
        <ele>128.6</ele>
        <time>2020-07-02T14:01:55Z</time>
      </trkpt>
      <trkpt lat="47.95627" lon="1.92385">
        <ele>128.5</ele>
        <time>2020-07-02T14:01:56Z</time>
      </trkpt>
      <trkpt lat="47.95621" lon="1.92381">
        <ele>128.5</ele>
        <time>2020-07-02T14:01:57Z</time>
      </trkpt>
      <trkpt lat="47.95616" lon="1.92378">
        <ele>128.5</ele>
        <time>2020-07-02T14:01:58Z</time>
      </trkpt>
      <trkpt lat="47.95609" lon="1.92375">
        <ele>128.4</ele>
        <time>2020-07-02T14:01:59Z</time>
      </trkpt>
      <trkpt lat="47.95603" lon="1.92372">
        <ele>128.4</ele>
        <time>2020-07-02T14:02:00Z</time>
      </trkpt>
      <trkpt lat="47.95597" lon="1.92369">
        <ele>128.2</ele>
        <time>2020-07-02T14:02:01Z</time>
      </trkpt>
      <trkpt lat="47.9559" lon="1.92366">
        <ele>128.2</ele>
        <time>2020-07-02T14:02:02Z</time>
      </trkpt>
      <trkpt lat="47.95584" lon="1.92363">
        <ele>128.2</ele>
        <time>2020-07-02T14:02:03Z</time>
      </trkpt>
      <trkpt lat="47.95577" lon="1.9236">
        <ele>128.1</ele>
        <time>2020-07-02T14:02:04Z</time>
      </trkpt>
      <trkpt lat="47.95571" lon="1.92357">
        <ele>128.1</ele>
        <time>2020-07-02T14:02:05Z</time>
      </trkpt>
      <trkpt lat="47.95564" lon="1.92354">
        <ele>128.1</ele>
        <time>2020-07-02T14:02:06Z</time>
      </trkpt>
      <trkpt lat="47.95558" lon="1.92351">
        <ele>128.1</ele>
        <time>2020-07-02T14:02:07Z</time>
      </trkpt>
      <trkpt lat="47.95551" lon="1.92348">
        <ele>128.1</ele>
        <time>2020-07-02T14:02:08Z</time>
      </trkpt>
      <trkpt lat="47.95544" lon="1.92345">
        <ele>128.1</ele>
        <time>2020-07-02T14:02:09Z</time>
      </trkpt>
      <trkpt lat="47.95537" lon="1.92342">
        <ele>128</ele>
        <time>2020-07-02T14:02:10Z</time>
      </trkpt>
      <trkpt lat="47.9553" lon="1.92339">
        <ele>128</ele>
        <time>2020-07-02T14:02:11Z</time>
      </trkpt>
      <trkpt lat="47.95524" lon="1.92336">
        <ele>128</ele>
        <time>2020-07-02T14:02:12Z</time>
      </trkpt>
      <trkpt lat="47.95517" lon="1.92333">
        <ele>127.9</ele>
        <time>2020-07-02T14:02:13Z</time>
      </trkpt>
      <trkpt lat="47.95511" lon="1.92328">
        <ele>127.9</ele>
        <time>2020-07-02T14:02:14Z</time>
      </trkpt>
      <trkpt lat="47.95504" lon="1.92325">
        <ele>127.9</ele>
        <time>2020-07-02T14:02:15Z</time>
      </trkpt>
      <trkpt lat="47.95498" lon="1.92322">
        <ele>127.9</ele>
        <time>2020-07-02T14:02:16Z</time>
      </trkpt>
      <trkpt lat="47.95492" lon="1.92319">
        <ele>127.9</ele>
        <time>2020-07-02T14:02:17Z</time>
      </trkpt>
      <trkpt lat="47.95485" lon="1.92315">
        <ele>127.9</ele>
        <time>2020-07-02T14:02:18Z</time>
      </trkpt>
      <trkpt lat="47.95478" lon="1.92311">
        <ele>127.9</ele>
        <time>2020-07-02T14:02:19Z</time>
      </trkpt>
      <trkpt lat="47.95472" lon="1.92307">
        <ele>128</ele>
        <time>2020-07-02T14:02:20Z</time>
      </trkpt>
      <trkpt lat="47.95465" lon="1.92302">
        <ele>128</ele>
        <time>2020-07-02T14:02:21Z</time>
      </trkpt>
      <trkpt lat="47.95458" lon="1.92298">
        <ele>128</ele>
        <time>2020-07-02T14:02:22Z</time>
      </trkpt>
      <trkpt lat="47.95452" lon="1.92294">
        <ele>128</ele>
        <time>2020-07-02T14:02:23Z</time>
      </trkpt>
      <trkpt lat="47.95445" lon="1.9229">
        <ele>128</ele>
        <time>2020-07-02T14:02:24Z</time>
      </trkpt>
      <trkpt lat="47.95438" lon="1.92287">
        <ele>128</ele>
        <time>2020-07-02T14:02:25Z</time>
      </trkpt>
      <trkpt lat="47.95432" lon="1.92283">
        <ele>128</ele>
        <time>2020-07-02T14:02:26Z</time>
      </trkpt>
      <trkpt lat="47.95425" lon="1.92279">
        <ele>128.1</ele>
        <time>2020-07-02T14:02:27Z</time>
      </trkpt>
      <trkpt lat="47.95418" lon="1.92275">
        <ele>128.1</ele>
        <time>2020-07-02T14:02:28Z</time>
      </trkpt>
      <trkpt lat="47.95412" lon="1.92271">
        <ele>128.2</ele>
        <time>2020-07-02T14:02:29Z</time>
      </trkpt>
      <trkpt lat="47.95406" lon="1.92268">
        <ele>128.2</ele>
        <time>2020-07-02T14:02:30Z</time>
      </trkpt>
      <trkpt lat="47.95399" lon="1.92265">
        <ele>128.3</ele>
        <time>2020-07-02T14:02:31Z</time>
      </trkpt>
      <trkpt lat="47.95393" lon="1.92262">
        <ele>128.3</ele>
        <time>2020-07-02T14:02:32Z</time>
      </trkpt>
      <trkpt lat="47.95386" lon="1.92259">
        <ele>128.4</ele>
        <time>2020-07-02T14:02:33Z</time>
      </trkpt>
      <trkpt lat="47.9538" lon="1.92254">
        <ele>128.4</ele>
        <time>2020-07-02T14:02:34Z</time>
      </trkpt>
      <trkpt lat="47.95375" lon="1.92249">
        <ele>128.5</ele>
        <time>2020-07-02T14:02:35Z</time>
      </trkpt>
      <trkpt lat="47.95369" lon="1.92245">
        <ele>128.6</ele>
        <time>2020-07-02T14:02:36Z</time>
      </trkpt>
      <trkpt lat="47.95364" lon="1.92241">
        <ele>128.8</ele>
        <time>2020-07-02T14:02:37Z</time>
      </trkpt>
      <trkpt lat="47.95359" lon="1.92237">
        <ele>128.9</ele>
        <time>2020-07-02T14:02:38Z</time>
      </trkpt>
      <trkpt lat="47.95354" lon="1.92234">
        <ele>128.9</ele>
        <time>2020-07-02T14:02:39Z</time>
      </trkpt>
      <trkpt lat="47.9535" lon="1.92229">
        <ele>128.9</ele>
        <time>2020-07-02T14:02:40Z</time>
      </trkpt>
      <trkpt lat="47.95346" lon="1.92224">
        <ele>129.4</ele>
        <time>2020-07-02T14:02:41Z</time>
      </trkpt>
      <trkpt lat="47.95342" lon="1.9222">
        <ele>129.4</ele>
        <time>2020-07-02T14:02:42Z</time>
      </trkpt>
      <trkpt lat="47.9534" lon="1.92215">
        <ele>129.4</ele>
        <time>2020-07-02T14:02:43Z</time>
      </trkpt>
      <trkpt lat="47.9534" lon="1.92213">
        <ele>129.4</ele>
        <time>2020-07-02T14:02:44Z</time>
      </trkpt>
      <trkpt lat="47.95338" lon="1.92209">
        <ele>129.3</ele>
        <time>2020-07-02T14:02:45Z</time>
      </trkpt>
      <trkpt lat="47.95334" lon="1.92206">
        <ele>129.2</ele>
        <time>2020-07-02T14:02:46Z</time>
      </trkpt>
      <trkpt lat="47.9533" lon="1.92203">
        <ele>129</ele>
        <time>2020-07-02T14:02:47Z</time>
      </trkpt>
      <trkpt lat="47.95327" lon="1.92202">
        <ele>128.9</ele>
        <time>2020-07-02T14:02:48Z</time>
      </trkpt>
      <trkpt lat="47.95322" lon="1.92202">
        <ele>128.8</ele>
        <time>2020-07-02T14:02:49Z</time>
      </trkpt>
      <trkpt lat="47.95317" lon="1.92204">
        <ele>128.8</ele>
        <time>2020-07-02T14:02:50Z</time>
      </trkpt>
      <trkpt lat="47.95312" lon="1.92206">
        <ele>128.8</ele>
        <time>2020-07-02T14:02:51Z</time>
      </trkpt>
      <trkpt lat="47.95306" lon="1.92208">
        <ele>128.7</ele>
        <time>2020-07-02T14:02:52Z</time>
      </trkpt>
      <trkpt lat="47.95301" lon="1.9221">
        <ele>128.7</ele>
        <time>2020-07-02T14:02:53Z</time>
      </trkpt>
      <trkpt lat="47.95296" lon="1.92209">
        <ele>128.6</ele>
        <time>2020-07-02T14:02:54Z</time>
      </trkpt>
      <trkpt lat="47.95289" lon="1.92206">
        <ele>128.6</ele>
        <time>2020-07-02T14:02:55Z</time>
      </trkpt>
      <trkpt lat="47.95283" lon="1.92202">
        <ele>128.5</ele>
        <time>2020-07-02T14:02:56Z</time>
      </trkpt>
      <trkpt lat="47.95277" lon="1.92197">
        <ele>128.5</ele>
        <time>2020-07-02T14:02:57Z</time>
      </trkpt>
      <trkpt lat="47.95273" lon="1.92193">
        <ele>128.4</ele>
        <time>2020-07-02T14:02:58Z</time>
      </trkpt>
      <trkpt lat="47.95267" lon="1.9219">
        <ele>128.4</ele>
        <time>2020-07-02T14:02:59Z</time>
      </trkpt>
      <trkpt lat="47.95262" lon="1.92186">
        <ele>128.4</ele>
        <time>2020-07-02T14:03:00Z</time>
      </trkpt>
      <trkpt lat="47.95257" lon="1.92184">
        <ele>128.5</ele>
        <time>2020-07-02T14:03:01Z</time>
      </trkpt>
      <trkpt lat="47.95251" lon="1.92181">
        <ele>128.5</ele>
        <time>2020-07-02T14:03:02Z</time>
      </trkpt>
      <trkpt lat="47.95247" lon="1.92178">
        <ele>128.5</ele>
        <time>2020-07-02T14:03:03Z</time>
      </trkpt>
      <trkpt lat="47.95241" lon="1.92174">
        <ele>128.5</ele>
        <time>2020-07-02T14:03:04Z</time>
      </trkpt>
      <trkpt lat="47.95236" lon="1.9217">
        <ele>128.6</ele>
        <time>2020-07-02T14:03:05Z</time>
      </trkpt>
      <trkpt lat="47.95231" lon="1.92165">
        <ele>128.7</ele>
        <time>2020-07-02T14:03:06Z</time>
      </trkpt>
      <trkpt lat="47.95228" lon="1.92162">
        <ele>128.7</ele>
        <time>2020-07-02T14:03:07Z</time>
      </trkpt>
      <trkpt lat="47.95224" lon="1.92159">
        <ele>128.7</ele>
        <time>2020-07-02T14:03:08Z</time>
      </trkpt>
      <trkpt lat="47.95219" lon="1.92157">
        <ele>128.8</ele>
        <time>2020-07-02T14:03:09Z</time>
      </trkpt>
      <trkpt lat="47.95213" lon="1.92154">
        <ele>128.8</ele>
        <time>2020-07-02T14:03:10Z</time>
      </trkpt>
      <trkpt lat="47.95207" lon="1.92151">
        <ele>128.8</ele>
        <time>2020-07-02T14:03:11Z</time>
      </trkpt>
      <trkpt lat="47.95202" lon="1.92148">
        <ele>128.8</ele>
        <time>2020-07-02T14:03:12Z</time>
      </trkpt>
      <trkpt lat="47.95197" lon="1.92145">
        <ele>128.9</ele>
        <time>2020-07-02T14:03:13Z</time>
      </trkpt>
      <trkpt lat="47.95192" lon="1.92143">
        <ele>128.9</ele>
        <time>2020-07-02T14:03:14Z</time>
      </trkpt>
      <trkpt lat="47.95187" lon="1.92141">
        <ele>128.9</ele>
        <time>2020-07-02T14:03:15Z</time>
      </trkpt>
      <trkpt lat="47.95181" lon="1.92139">
        <ele>129</ele>
        <time>2020-07-02T14:03:16Z</time>
      </trkpt>
      <trkpt lat="47.95176" lon="1.92135">
        <ele>129</ele>
        <time>2020-07-02T14:03:17Z</time>
      </trkpt>
      <trkpt lat="47.95171" lon="1.92132">
        <ele>129.1</ele>
        <time>2020-07-02T14:03:18Z</time>
      </trkpt>
      <trkpt lat="47.95165" lon="1.92129">
        <ele>129.1</ele>
        <time>2020-07-02T14:03:19Z</time>
      </trkpt>
      <trkpt lat="47.95159" lon="1.92127">
        <ele>129.1</ele>
        <time>2020-07-02T14:03:20Z</time>
      </trkpt>
      <trkpt lat="47.95153" lon="1.92123">
        <ele>129</ele>
        <time>2020-07-02T14:03:21Z</time>
      </trkpt>
      <trkpt lat="47.95146" lon="1.9212">
        <ele>129</ele>
        <time>2020-07-02T14:03:22Z</time>
      </trkpt>
      <trkpt lat="47.95141" lon="1.92117">
        <ele>129</ele>
        <time>2020-07-02T14:03:23Z</time>
      </trkpt>
      <trkpt lat="47.95135" lon="1.92114">
        <ele>129</ele>
        <time>2020-07-02T14:03:24Z</time>
      </trkpt>
      <trkpt lat="47.95128" lon="1.9211">
        <ele>128.9</ele>
        <time>2020-07-02T14:03:25Z</time>
      </trkpt>
      <trkpt lat="47.95121" lon="1.92108">
        <ele>128.9</ele>
        <time>2020-07-02T14:03:26Z</time>
      </trkpt>
      <trkpt lat="47.95114" lon="1.92107">
        <ele>128.9</ele>
        <time>2020-07-02T14:03:27Z</time>
      </trkpt>
      <trkpt lat="47.95106" lon="1.92105">
        <ele>128.9</ele>
        <time>2020-07-02T14:03:28Z</time>
      </trkpt>
      <trkpt lat="47.951" lon="1.92104">
        <ele>128.9</ele>
        <time>2020-07-02T14:03:29Z</time>
      </trkpt>
      <trkpt lat="47.95095" lon="1.92102">
        <ele>129</ele>
        <time>2020-07-02T14:03:30Z</time>
      </trkpt>
      <trkpt lat="47.9509" lon="1.92101">
        <ele>128.9</ele>
        <time>2020-07-02T14:03:31Z</time>
      </trkpt>
      <trkpt lat="47.95084" lon="1.92102">
        <ele>128.9</ele>
        <time>2020-07-02T14:03:32Z</time>
      </trkpt>
      <trkpt lat="47.95077" lon="1.92102">
        <ele>128.9</ele>
        <time>2020-07-02T14:03:33Z</time>
      </trkpt>
      <trkpt lat="47.95072" lon="1.92101">
        <ele>128.9</ele>
        <time>2020-07-02T14:03:34Z</time>
      </trkpt>
      <trkpt lat="47.95065" lon="1.921">
        <ele>128.9</ele>
        <time>2020-07-02T14:03:35Z</time>
      </trkpt>
      <trkpt lat="47.95058" lon="1.92099">
        <ele>129</ele>
        <time>2020-07-02T14:03:36Z</time>
      </trkpt>
      <trkpt lat="47.95051" lon="1.921">
        <ele>129</ele>
        <time>2020-07-02T14:03:37Z</time>
      </trkpt>
      <trkpt lat="47.95045" lon="1.92101">
        <ele>129</ele>
        <time>2020-07-02T14:03:38Z</time>
      </trkpt>
      <trkpt lat="47.9504" lon="1.92101">
        <ele>129</ele>
        <time>2020-07-02T14:03:39Z</time>
      </trkpt>
      <trkpt lat="47.95034" lon="1.92102">
        <ele>129</ele>
        <time>2020-07-02T14:03:40Z</time>
      </trkpt>
      <trkpt lat="47.95028" lon="1.92103">
        <ele>129</ele>
        <time>2020-07-02T14:03:41Z</time>
      </trkpt>
      <trkpt lat="47.95021" lon="1.92104">
        <ele>129</ele>
        <time>2020-07-02T14:03:42Z</time>
      </trkpt>
      <trkpt lat="47.95014" lon="1.92106">
        <ele>129</ele>
        <time>2020-07-02T14:03:43Z</time>
      </trkpt>
      <trkpt lat="47.95007" lon="1.92106">
        <ele>129.1</ele>
        <time>2020-07-02T14:03:44Z</time>
      </trkpt>
      <trkpt lat="47.94999" lon="1.92107">
        <ele>129.1</ele>
        <time>2020-07-02T14:03:45Z</time>
      </trkpt>
      <trkpt lat="47.94992" lon="1.92108">
        <ele>129.2</ele>
        <time>2020-07-02T14:03:46Z</time>
      </trkpt>
      <trkpt lat="47.94985" lon="1.92109">
        <ele>129.2</ele>
        <time>2020-07-02T14:03:47Z</time>
      </trkpt>
      <trkpt lat="47.94978" lon="1.92111">
        <ele>129.2</ele>
        <time>2020-07-02T14:03:48Z</time>
      </trkpt>
      <trkpt lat="47.94972" lon="1.92112">
        <ele>129.2</ele>
        <time>2020-07-02T14:03:49Z</time>
      </trkpt>
      <trkpt lat="47.94965" lon="1.92114">
        <ele>129.2</ele>
        <time>2020-07-02T14:03:50Z</time>
      </trkpt>
      <trkpt lat="47.94958" lon="1.92115">
        <ele>129.2</ele>
        <time>2020-07-02T14:03:51Z</time>
      </trkpt>
      <trkpt lat="47.94951" lon="1.92116">
        <ele>129.2</ele>
        <time>2020-07-02T14:03:52Z</time>
      </trkpt>
      <trkpt lat="47.94943" lon="1.92117">
        <ele>129.2</ele>
        <time>2020-07-02T14:03:53Z</time>
      </trkpt>
      <trkpt lat="47.94936" lon="1.92119">
        <ele>129.3</ele>
        <time>2020-07-02T14:03:54Z</time>
      </trkpt>
      <trkpt lat="47.9493" lon="1.9212">
        <ele>129.3</ele>
        <time>2020-07-02T14:03:55Z</time>
      </trkpt>
      <trkpt lat="47.94923" lon="1.92121">
        <ele>129.3</ele>
        <time>2020-07-02T14:03:56Z</time>
      </trkpt>
      <trkpt lat="47.94916" lon="1.92122">
        <ele>129.3</ele>
        <time>2020-07-02T14:03:57Z</time>
      </trkpt>
      <trkpt lat="47.9491" lon="1.92123">
        <ele>129.3</ele>
        <time>2020-07-02T14:03:58Z</time>
      </trkpt>
      <trkpt lat="47.94903" lon="1.92124">
        <ele>129.3</ele>
        <time>2020-07-02T14:03:59Z</time>
      </trkpt>
      <trkpt lat="47.94896" lon="1.92125">
        <ele>129.3</ele>
        <time>2020-07-02T14:04:00Z</time>
      </trkpt>
      <trkpt lat="47.94889" lon="1.92126">
        <ele>129.4</ele>
        <time>2020-07-02T14:04:01Z</time>
      </trkpt>
      <trkpt lat="47.94882" lon="1.92127">
        <ele>129.4</ele>
        <time>2020-07-02T14:04:02Z</time>
      </trkpt>
      <trkpt lat="47.94875" lon="1.92129">
        <ele>129.5</ele>
        <time>2020-07-02T14:04:03Z</time>
      </trkpt>
      <trkpt lat="47.94868" lon="1.9213">
        <ele>129.5</ele>
        <time>2020-07-02T14:04:04Z</time>
      </trkpt>
      <trkpt lat="47.94862" lon="1.9213">
        <ele>129.6</ele>
        <time>2020-07-02T14:04:05Z</time>
      </trkpt>
      <trkpt lat="47.94855" lon="1.92131">
        <ele>129.6</ele>
        <time>2020-07-02T14:04:06Z</time>
      </trkpt>
      <trkpt lat="47.94849" lon="1.92131">
        <ele>129.6</ele>
        <time>2020-07-02T14:04:07Z</time>
      </trkpt>
      <trkpt lat="47.94842" lon="1.92132">
        <ele>129.5</ele>
        <time>2020-07-02T14:04:08Z</time>
      </trkpt>
      <trkpt lat="47.94836" lon="1.92133">
        <ele>129.5</ele>
        <time>2020-07-02T14:04:09Z</time>
      </trkpt>
      <trkpt lat="47.9483" lon="1.92134">
        <ele>129.4</ele>
        <time>2020-07-02T14:04:10Z</time>
      </trkpt>
      <trkpt lat="47.94824" lon="1.92135">
        <ele>129.4</ele>
        <time>2020-07-02T14:04:11Z</time>
      </trkpt>
      <trkpt lat="47.94818" lon="1.92135">
        <ele>129.4</ele>
        <time>2020-07-02T14:04:12Z</time>
      </trkpt>
      <trkpt lat="47.94813" lon="1.92136">
        <ele>129.4</ele>
        <time>2020-07-02T14:04:13Z</time>
      </trkpt>
      <trkpt lat="47.94807" lon="1.92137">
        <ele>129.4</ele>
        <time>2020-07-02T14:04:14Z</time>
      </trkpt>
      <trkpt lat="47.94801" lon="1.92139">
        <ele>129.4</ele>
        <time>2020-07-02T14:04:15Z</time>
      </trkpt>
      <trkpt lat="47.94796" lon="1.9214">
        <ele>129.4</ele>
        <time>2020-07-02T14:04:16Z</time>
      </trkpt>
      <trkpt lat="47.9479" lon="1.92141">
        <ele>129.4</ele>
        <time>2020-07-02T14:04:17Z</time>
      </trkpt>
      <trkpt lat="47.94784" lon="1.92142">
        <ele>129.4</ele>
        <time>2020-07-02T14:04:18Z</time>
      </trkpt>
      <trkpt lat="47.94777" lon="1.9214">
        <ele>129.4</ele>
        <time>2020-07-02T14:04:19Z</time>
      </trkpt>
      <trkpt lat="47.9477" lon="1.92138">
        <ele>129.4</ele>
        <time>2020-07-02T14:04:20Z</time>
      </trkpt>
      <trkpt lat="47.94763" lon="1.92136">
        <ele>129.4</ele>
        <time>2020-07-02T14:04:21Z</time>
      </trkpt>
      <trkpt lat="47.94756" lon="1.92137">
        <ele>129.5</ele>
        <time>2020-07-02T14:04:22Z</time>
      </trkpt>
      <trkpt lat="47.94749" lon="1.92138">
        <ele>129.5</ele>
        <time>2020-07-02T14:04:23Z</time>
      </trkpt>
      <trkpt lat="47.94743" lon="1.92137">
        <ele>129.5</ele>
        <time>2020-07-02T14:04:24Z</time>
      </trkpt>
      <trkpt lat="47.94736" lon="1.92137">
        <ele>129.5</ele>
        <time>2020-07-02T14:04:25Z</time>
      </trkpt>
      <trkpt lat="47.9473" lon="1.92138">
        <ele>129.5</ele>
        <time>2020-07-02T14:04:26Z</time>
      </trkpt>
      <trkpt lat="47.94724" lon="1.92139">
        <ele>129.5</ele>
        <time>2020-07-02T14:04:27Z</time>
      </trkpt>
      <trkpt lat="47.94717" lon="1.92139">
        <ele>129.5</ele>
        <time>2020-07-02T14:04:28Z</time>
      </trkpt>
      <trkpt lat="47.94711" lon="1.92139">
        <ele>129.6</ele>
        <time>2020-07-02T14:04:29Z</time>
      </trkpt>
      <trkpt lat="47.94704" lon="1.92138">
        <ele>129.6</ele>
        <time>2020-07-02T14:04:30Z</time>
      </trkpt>
      <trkpt lat="47.94698" lon="1.92139">
        <ele>129.6</ele>
        <time>2020-07-02T14:04:31Z</time>
      </trkpt>
      <trkpt lat="47.94692" lon="1.92139">
        <ele>129.6</ele>
        <time>2020-07-02T14:04:32Z</time>
      </trkpt>
      <trkpt lat="47.94685" lon="1.92139">
        <ele>129.7</ele>
        <time>2020-07-02T14:04:33Z</time>
      </trkpt>
      <trkpt lat="47.94679" lon="1.92139">
        <ele>129.7</ele>
        <time>2020-07-02T14:04:34Z</time>
      </trkpt>
      <trkpt lat="47.94672" lon="1.92138">
        <ele>129.7</ele>
        <time>2020-07-02T14:04:35Z</time>
      </trkpt>
      <trkpt lat="47.94666" lon="1.92138">
        <ele>129.7</ele>
        <time>2020-07-02T14:04:36Z</time>
      </trkpt>
      <trkpt lat="47.9466" lon="1.92137">
        <ele>129.7</ele>
        <time>2020-07-02T14:04:37Z</time>
      </trkpt>
      <trkpt lat="47.94655" lon="1.92137">
        <ele>129.7</ele>
        <time>2020-07-02T14:04:38Z</time>
      </trkpt>
      <trkpt lat="47.94649" lon="1.92137">
        <ele>129.7</ele>
        <time>2020-07-02T14:04:39Z</time>
      </trkpt>
      <trkpt lat="47.94643" lon="1.92135">
        <ele>129.7</ele>
        <time>2020-07-02T14:04:40Z</time>
      </trkpt>
      <trkpt lat="47.94638" lon="1.92133">
        <ele>129.7</ele>
        <time>2020-07-02T14:04:41Z</time>
      </trkpt>
      <trkpt lat="47.94632" lon="1.92132">
        <ele>129.7</ele>
        <time>2020-07-02T14:04:42Z</time>
      </trkpt>
      <trkpt lat="47.94627" lon="1.9213">
        <ele>129.7</ele>
        <time>2020-07-02T14:04:43Z</time>
      </trkpt>
      <trkpt lat="47.94621" lon="1.92128">
        <ele>129.6</ele>
        <time>2020-07-02T14:04:44Z</time>
      </trkpt>
      <trkpt lat="47.94615" lon="1.92127">
        <ele>129.6</ele>
        <time>2020-07-02T14:04:45Z</time>
      </trkpt>
      <trkpt lat="47.94609" lon="1.92127">
        <ele>129.6</ele>
        <time>2020-07-02T14:04:46Z</time>
      </trkpt>
      <trkpt lat="47.94604" lon="1.92125">
        <ele>129.6</ele>
        <time>2020-07-02T14:04:47Z</time>
      </trkpt>
      <trkpt lat="47.94598" lon="1.92124">
        <ele>129.6</ele>
        <time>2020-07-02T14:04:48Z</time>
      </trkpt>
      <trkpt lat="47.94593" lon="1.92124">
        <ele>129.5</ele>
        <time>2020-07-02T14:04:49Z</time>
      </trkpt>
      <trkpt lat="47.94587" lon="1.92124">
        <ele>129.5</ele>
        <time>2020-07-02T14:04:50Z</time>
      </trkpt>
      <trkpt lat="47.94581" lon="1.92123">
        <ele>129.5</ele>
        <time>2020-07-02T14:04:51Z</time>
      </trkpt>
      <trkpt lat="47.94575" lon="1.92123">
        <ele>129.5</ele>
        <time>2020-07-02T14:04:52Z</time>
      </trkpt>
      <trkpt lat="47.94569" lon="1.92124">
        <ele>129.4</ele>
        <time>2020-07-02T14:04:53Z</time>
      </trkpt>
      <trkpt lat="47.94564" lon="1.92124">
        <ele>129.4</ele>
        <time>2020-07-02T14:04:54Z</time>
      </trkpt>
      <trkpt lat="47.94558" lon="1.92124">
        <ele>129.4</ele>
        <time>2020-07-02T14:04:55Z</time>
      </trkpt>
      <trkpt lat="47.94552" lon="1.92122">
        <ele>129.4</ele>
        <time>2020-07-02T14:04:56Z</time>
      </trkpt>
      <trkpt lat="47.94547" lon="1.92122">
        <ele>129.4</ele>
        <time>2020-07-02T14:04:57Z</time>
      </trkpt>
      <trkpt lat="47.94541" lon="1.92121">
        <ele>129.5</ele>
        <time>2020-07-02T14:04:58Z</time>
      </trkpt>
      <trkpt lat="47.94536" lon="1.9212">
        <ele>129.5</ele>
        <time>2020-07-02T14:04:59Z</time>
      </trkpt>
      <trkpt lat="47.94531" lon="1.92118">
        <ele>129.5</ele>
        <time>2020-07-02T14:05:00Z</time>
      </trkpt>
      <trkpt lat="47.94526" lon="1.92116">
        <ele>129.6</ele>
        <time>2020-07-02T14:05:01Z</time>
      </trkpt>
      <trkpt lat="47.94521" lon="1.92114">
        <ele>129.6</ele>
        <time>2020-07-02T14:05:02Z</time>
      </trkpt>
      <trkpt lat="47.94516" lon="1.92112">
        <ele>129.6</ele>
        <time>2020-07-02T14:05:03Z</time>
      </trkpt>
      <trkpt lat="47.9451" lon="1.92111">
        <ele>129.7</ele>
        <time>2020-07-02T14:05:04Z</time>
      </trkpt>
      <trkpt lat="47.94505" lon="1.9211">
        <ele>129.7</ele>
        <time>2020-07-02T14:05:05Z</time>
      </trkpt>
      <trkpt lat="47.945" lon="1.92108">
        <ele>129.7</ele>
        <time>2020-07-02T14:05:06Z</time>
      </trkpt>
      <trkpt lat="47.94496" lon="1.92106">
        <ele>129.6</ele>
        <time>2020-07-02T14:05:07Z</time>
      </trkpt>
      <trkpt lat="47.94491" lon="1.92105">
        <ele>129.5</ele>
        <time>2020-07-02T14:05:08Z</time>
      </trkpt>
      <trkpt lat="47.94487" lon="1.92104">
        <ele>129.4</ele>
        <time>2020-07-02T14:05:09Z</time>
      </trkpt>
      <trkpt lat="47.94482" lon="1.92103">
        <ele>129.3</ele>
        <time>2020-07-02T14:05:10Z</time>
      </trkpt>
      <trkpt lat="47.94478" lon="1.92101">
        <ele>129.2</ele>
        <time>2020-07-02T14:05:11Z</time>
      </trkpt>
      <trkpt lat="47.94473" lon="1.92099">
        <ele>129.1</ele>
        <time>2020-07-02T14:05:12Z</time>
      </trkpt>
      <trkpt lat="47.94469" lon="1.92096">
        <ele>129</ele>
        <time>2020-07-02T14:05:13Z</time>
      </trkpt>
      <trkpt lat="47.94465" lon="1.92092">
        <ele>129</ele>
        <time>2020-07-02T14:05:14Z</time>
      </trkpt>
      <trkpt lat="47.94462" lon="1.92091">
        <ele>129</ele>
        <time>2020-07-02T14:05:15Z</time>
      </trkpt>
      <trkpt lat="47.94458" lon="1.92089">
        <ele>129</ele>
        <time>2020-07-02T14:05:16Z</time>
      </trkpt>
      <trkpt lat="47.94454" lon="1.92089">
        <ele>128.9</ele>
        <time>2020-07-02T14:05:17Z</time>
      </trkpt>
      <trkpt lat="47.94449" lon="1.92086">
        <ele>128.9</ele>
        <time>2020-07-02T14:05:18Z</time>
      </trkpt>
      <trkpt lat="47.94444" lon="1.92087">
        <ele>128.9</ele>
        <time>2020-07-02T14:05:19Z</time>
      </trkpt>
      <trkpt lat="47.94439" lon="1.92085">
        <ele>128.8</ele>
        <time>2020-07-02T14:05:20Z</time>
      </trkpt>
      <trkpt lat="47.94436" lon="1.92084">
        <ele>128.8</ele>
        <time>2020-07-02T14:05:21Z</time>
      </trkpt>
      <trkpt lat="47.94433" lon="1.92083">
        <ele>128.8</ele>
        <time>2020-07-02T14:05:22Z</time>
      </trkpt>
      <trkpt lat="47.94432" lon="1.92082">
        <ele>128.8</ele>
        <time>2020-07-02T14:05:23Z</time>
      </trkpt>
      <trkpt lat="47.94431" lon="1.92081">
        <ele>128.8</ele>
        <time>2020-07-02T14:05:24Z</time>
      </trkpt>
      <trkpt lat="47.94431" lon="1.92081">
        <ele>128.8</ele>
        <time>2020-07-02T14:05:25Z</time>
      </trkpt>
      <trkpt lat="47.9443" lon="1.92081">
        <ele>128.8</ele>
        <time>2020-07-02T14:05:26Z</time>
      </trkpt>
      <trkpt lat="47.94429" lon="1.92081">
        <ele>128.8</ele>
        <time>2020-07-02T14:05:27Z</time>
      </trkpt>
      <trkpt lat="47.94429" lon="1.92081">
        <ele>128.8</ele>
        <time>2020-07-02T14:05:28Z</time>
      </trkpt>
      <trkpt lat="47.94428" lon="1.92081">
        <ele>128.8</ele>
        <time>2020-07-02T14:05:29Z</time>
      </trkpt>
      <trkpt lat="47.94424" lon="1.9208">
        <ele>128.7</ele>
        <time>2020-07-02T14:05:30Z</time>
      </trkpt>
      <trkpt lat="47.94422" lon="1.92079">
        <ele>128.7</ele>
        <time>2020-07-02T14:05:31Z</time>
      </trkpt>
      <trkpt lat="47.94419" lon="1.9208">
        <ele>128.6</ele>
        <time>2020-07-02T14:05:32Z</time>
      </trkpt>
      <trkpt lat="47.94415" lon="1.92078">
        <ele>128.6</ele>
        <time>2020-07-02T14:05:33Z</time>
      </trkpt>
      <trkpt lat="47.9441" lon="1.92078">
        <ele>128.6</ele>
        <time>2020-07-02T14:05:34Z</time>
      </trkpt>
      <trkpt lat="47.94406" lon="1.92079">
        <ele>128.6</ele>
        <time>2020-07-02T14:05:35Z</time>
      </trkpt>
      <trkpt lat="47.94401" lon="1.92078">
        <ele>128.5</ele>
        <time>2020-07-02T14:05:36Z</time>
      </trkpt>
      <trkpt lat="47.94397" lon="1.92076">
        <ele>128.5</ele>
        <time>2020-07-02T14:05:37Z</time>
      </trkpt>
      <trkpt lat="47.94393" lon="1.92074">
        <ele>128.5</ele>
        <time>2020-07-02T14:05:38Z</time>
      </trkpt>
      <trkpt lat="47.94389" lon="1.92072">
        <ele>128.4</ele>
        <time>2020-07-02T14:05:39Z</time>
      </trkpt>
      <trkpt lat="47.94384" lon="1.92071">
        <ele>128.4</ele>
        <time>2020-07-02T14:05:40Z</time>
      </trkpt>
      <trkpt lat="47.9438" lon="1.9207">
        <ele>128.3</ele>
        <time>2020-07-02T14:05:41Z</time>
      </trkpt>
      <trkpt lat="47.94376" lon="1.92069">
        <ele>128.3</ele>
        <time>2020-07-02T14:05:42Z</time>
      </trkpt>
      <trkpt lat="47.94373" lon="1.92068">
        <ele>128.2</ele>
        <time>2020-07-02T14:05:43Z</time>
      </trkpt>
      <trkpt lat="47.9437" lon="1.92067">
        <ele>128.2</ele>
        <time>2020-07-02T14:05:44Z</time>
      </trkpt>
      <trkpt lat="47.94368" lon="1.92067">
        <ele>128.2</ele>
        <time>2020-07-02T14:05:45Z</time>
      </trkpt>
      <trkpt lat="47.94365" lon="1.92066">
        <ele>128.1</ele>
        <time>2020-07-02T14:05:46Z</time>
      </trkpt>
      <trkpt lat="47.94364" lon="1.92066">
        <ele>128.1</ele>
        <time>2020-07-02T14:05:47Z</time>
      </trkpt>
      <trkpt lat="47.94361" lon="1.92067">
        <ele>128.1</ele>
        <time>2020-07-02T14:05:48Z</time>
      </trkpt>
      <trkpt lat="47.9436" lon="1.92066">
        <ele>128.1</ele>
        <time>2020-07-02T14:05:49Z</time>
      </trkpt>
      <trkpt lat="47.94357" lon="1.92063">
        <ele>128</ele>
        <time>2020-07-02T14:05:50Z</time>
      </trkpt>
      <trkpt lat="47.94355" lon="1.92059">
        <ele>127.9</ele>
        <time>2020-07-02T14:05:51Z</time>
      </trkpt>
      <trkpt lat="47.94352" lon="1.92056">
        <ele>127.9</ele>
        <time>2020-07-02T14:05:52Z</time>
      </trkpt>
      <trkpt lat="47.94349" lon="1.92053">
        <ele>127.8</ele>
        <time>2020-07-02T14:05:53Z</time>
      </trkpt>
      <trkpt lat="47.94345" lon="1.9205">
        <ele>127.7</ele>
        <time>2020-07-02T14:05:54Z</time>
      </trkpt>
      <trkpt lat="47.94342" lon="1.92048">
        <ele>127.6</ele>
        <time>2020-07-02T14:05:55Z</time>
      </trkpt>
      <trkpt lat="47.94339" lon="1.92047">
        <ele>127.4</ele>
        <time>2020-07-02T14:05:56Z</time>
      </trkpt>
      <trkpt lat="47.94335" lon="1.92045">
        <ele>127.4</ele>
        <time>2020-07-02T14:05:57Z</time>
      </trkpt>
      <trkpt lat="47.94331" lon="1.92045">
        <ele>127.4</ele>
        <time>2020-07-02T14:05:58Z</time>
      </trkpt>
      <trkpt lat="47.94328" lon="1.92049">
        <ele>127.4</ele>
        <time>2020-07-02T14:05:59Z</time>
      </trkpt>
      <trkpt lat="47.94324" lon="1.92053">
        <ele>127.4</ele>
        <time>2020-07-02T14:06:00Z</time>
      </trkpt>
      <trkpt lat="47.9432" lon="1.92056">
        <ele>127.5</ele>
        <time>2020-07-02T14:06:01Z</time>
      </trkpt>
      <trkpt lat="47.94315" lon="1.92059">
        <ele>127.3</ele>
        <time>2020-07-02T14:06:02Z</time>
      </trkpt>
      <trkpt lat="47.94309" lon="1.92059">
        <ele>127.2</ele>
        <time>2020-07-02T14:06:03Z</time>
      </trkpt>
      <trkpt lat="47.94303" lon="1.92058">
        <ele>126.8</ele>
        <time>2020-07-02T14:06:04Z</time>
      </trkpt>
      <trkpt lat="47.94297" lon="1.92054">
        <ele>126.7</ele>
        <time>2020-07-02T14:06:05Z</time>
      </trkpt>
      <trkpt lat="47.94291" lon="1.92052">
        <ele>126.6</ele>
        <time>2020-07-02T14:06:06Z</time>
      </trkpt>
      <trkpt lat="47.94285" lon="1.92049">
        <ele>126.5</ele>
        <time>2020-07-02T14:06:07Z</time>
      </trkpt>
      <trkpt lat="47.94279" lon="1.92046">
        <ele>126.4</ele>
        <time>2020-07-02T14:06:08Z</time>
      </trkpt>
      <trkpt lat="47.94273" lon="1.92044">
        <ele>126.3</ele>
        <time>2020-07-02T14:06:09Z</time>
      </trkpt>
      <trkpt lat="47.94267" lon="1.9204">
        <ele>126.2</ele>
        <time>2020-07-02T14:06:10Z</time>
      </trkpt>
      <trkpt lat="47.9426" lon="1.92038">
        <ele>126.1</ele>
        <time>2020-07-02T14:06:11Z</time>
      </trkpt>
      <trkpt lat="47.94254" lon="1.92034">
        <ele>126</ele>
        <time>2020-07-02T14:06:12Z</time>
      </trkpt>
      <trkpt lat="47.94247" lon="1.92032">
        <ele>125.9</ele>
        <time>2020-07-02T14:06:13Z</time>
      </trkpt>
      <trkpt lat="47.9424" lon="1.9203">
        <ele>125.8</ele>
        <time>2020-07-02T14:06:14Z</time>
      </trkpt>
      <trkpt lat="47.94234" lon="1.92029">
        <ele>125.6</ele>
        <time>2020-07-02T14:06:15Z</time>
      </trkpt>
      <trkpt lat="47.94227" lon="1.92027">
        <ele>125.5</ele>
        <time>2020-07-02T14:06:16Z</time>
      </trkpt>
      <trkpt lat="47.9422" lon="1.92025">
        <ele>125.3</ele>
        <time>2020-07-02T14:06:17Z</time>
      </trkpt>
      <trkpt lat="47.94214" lon="1.92023">
        <ele>125.3</ele>
        <time>2020-07-02T14:06:18Z</time>
      </trkpt>
      <trkpt lat="47.94207" lon="1.92022">
        <ele>125.2</ele>
        <time>2020-07-02T14:06:19Z</time>
      </trkpt>
      <trkpt lat="47.94201" lon="1.92019">
        <ele>125.1</ele>
        <time>2020-07-02T14:06:20Z</time>
      </trkpt>
      <trkpt lat="47.94194" lon="1.92017">
        <ele>125</ele>
        <time>2020-07-02T14:06:21Z</time>
      </trkpt>
      <trkpt lat="47.94188" lon="1.92014">
        <ele>124.9</ele>
        <time>2020-07-02T14:06:22Z</time>
      </trkpt>
      <trkpt lat="47.94182" lon="1.92011">
        <ele>124.8</ele>
        <time>2020-07-02T14:06:23Z</time>
      </trkpt>
      <trkpt lat="47.94175" lon="1.92008">
        <ele>124.7</ele>
        <time>2020-07-02T14:06:24Z</time>
      </trkpt>
      <trkpt lat="47.94169" lon="1.92007">
        <ele>124.5</ele>
        <time>2020-07-02T14:06:25Z</time>
      </trkpt>
      <trkpt lat="47.94162" lon="1.92004">
        <ele>124.4</ele>
        <time>2020-07-02T14:06:26Z</time>
      </trkpt>
      <trkpt lat="47.94156" lon="1.92">
        <ele>124.3</ele>
        <time>2020-07-02T14:06:27Z</time>
      </trkpt>
      <trkpt lat="47.9415" lon="1.91998">
        <ele>124.2</ele>
        <time>2020-07-02T14:06:28Z</time>
      </trkpt>
      <trkpt lat="47.94143" lon="1.91996">
        <ele>124.1</ele>
        <time>2020-07-02T14:06:29Z</time>
      </trkpt>
      <trkpt lat="47.94136" lon="1.91993">
        <ele>124</ele>
        <time>2020-07-02T14:06:30Z</time>
      </trkpt>
      <trkpt lat="47.94129" lon="1.9199">
        <ele>123.9</ele>
        <time>2020-07-02T14:06:31Z</time>
      </trkpt>
      <trkpt lat="47.94122" lon="1.91988">
        <ele>123.8</ele>
        <time>2020-07-02T14:06:32Z</time>
      </trkpt>
      <trkpt lat="47.94115" lon="1.91985">
        <ele>123.7</ele>
        <time>2020-07-02T14:06:33Z</time>
      </trkpt>
      <trkpt lat="47.94107" lon="1.91983">
        <ele>123.6</ele>
        <time>2020-07-02T14:06:34Z</time>
      </trkpt>
      <trkpt lat="47.941" lon="1.9198">
        <ele>123.5</ele>
        <time>2020-07-02T14:06:35Z</time>
      </trkpt>
      <trkpt lat="47.94093" lon="1.91978">
        <ele>123.5</ele>
        <time>2020-07-02T14:06:36Z</time>
      </trkpt>
      <trkpt lat="47.94086" lon="1.91975">
        <ele>123.4</ele>
        <time>2020-07-02T14:06:37Z</time>
      </trkpt>
      <trkpt lat="47.94079" lon="1.91973">
        <ele>123.4</ele>
        <time>2020-07-02T14:06:38Z</time>
      </trkpt>
      <trkpt lat="47.94072" lon="1.91969">
        <ele>123.3</ele>
        <time>2020-07-02T14:06:39Z</time>
      </trkpt>
      <trkpt lat="47.94065" lon="1.91966">
        <ele>123.2</ele>
        <time>2020-07-02T14:06:40Z</time>
      </trkpt>
      <trkpt lat="47.94057" lon="1.91963">
        <ele>123.2</ele>
        <time>2020-07-02T14:06:41Z</time>
      </trkpt>
      <trkpt lat="47.9405" lon="1.91961">
        <ele>123.2</ele>
        <time>2020-07-02T14:06:42Z</time>
      </trkpt>
      <trkpt lat="47.94043" lon="1.91958">
        <ele>123.2</ele>
        <time>2020-07-02T14:06:43Z</time>
      </trkpt>
      <trkpt lat="47.94036" lon="1.91956">
        <ele>123.2</ele>
        <time>2020-07-02T14:06:44Z</time>
      </trkpt>
      <trkpt lat="47.94029" lon="1.91953">
        <ele>123.2</ele>
        <time>2020-07-02T14:06:45Z</time>
      </trkpt>
      <trkpt lat="47.94022" lon="1.91951">
        <ele>123.2</ele>
        <time>2020-07-02T14:06:46Z</time>
      </trkpt>
      <trkpt lat="47.94015" lon="1.91949">
        <ele>123.2</ele>
        <time>2020-07-02T14:06:47Z</time>
      </trkpt>
      <trkpt lat="47.94008" lon="1.91946">
        <ele>123.3</ele>
        <time>2020-07-02T14:06:48Z</time>
      </trkpt>
      <trkpt lat="47.94001" lon="1.91943">
        <ele>123.4</ele>
        <time>2020-07-02T14:06:49Z</time>
      </trkpt>
      <trkpt lat="47.93994" lon="1.9194">
        <ele>123.4</ele>
        <time>2020-07-02T14:06:50Z</time>
      </trkpt>
      <trkpt lat="47.93987" lon="1.91938">
        <ele>123.4</ele>
        <time>2020-07-02T14:06:51Z</time>
      </trkpt>
      <trkpt lat="47.93981" lon="1.91934">
        <ele>123.4</ele>
        <time>2020-07-02T14:06:52Z</time>
      </trkpt>
      <trkpt lat="47.93974" lon="1.91932">
        <ele>123.5</ele>
        <time>2020-07-02T14:06:53Z</time>
      </trkpt>
      <trkpt lat="47.93967" lon="1.91928">
        <ele>123.5</ele>
        <time>2020-07-02T14:06:54Z</time>
      </trkpt>
      <trkpt lat="47.9396" lon="1.91925">
        <ele>123.5</ele>
        <time>2020-07-02T14:06:55Z</time>
      </trkpt>
      <trkpt lat="47.93954" lon="1.91923">
        <ele>123.5</ele>
        <time>2020-07-02T14:06:56Z</time>
      </trkpt>
      <trkpt lat="47.93947" lon="1.9192">
        <ele>123.6</ele>
        <time>2020-07-02T14:06:57Z</time>
      </trkpt>
      <trkpt lat="47.93941" lon="1.91917">
        <ele>123.6</ele>
        <time>2020-07-02T14:06:58Z</time>
      </trkpt>
      <trkpt lat="47.93934" lon="1.91914">
        <ele>123.6</ele>
        <time>2020-07-02T14:06:59Z</time>
      </trkpt>
      <trkpt lat="47.93928" lon="1.9191">
        <ele>123.6</ele>
        <time>2020-07-02T14:07:00Z</time>
      </trkpt>
      <trkpt lat="47.93922" lon="1.91907">
        <ele>123.6</ele>
        <time>2020-07-02T14:07:01Z</time>
      </trkpt>
      <trkpt lat="47.93916" lon="1.91903">
        <ele>123.6</ele>
        <time>2020-07-02T14:07:02Z</time>
      </trkpt>
      <trkpt lat="47.9391" lon="1.91899">
        <ele>123.6</ele>
        <time>2020-07-02T14:07:03Z</time>
      </trkpt>
      <trkpt lat="47.93905" lon="1.91896">
        <ele>123.6</ele>
        <time>2020-07-02T14:07:04Z</time>
      </trkpt>
      <trkpt lat="47.93899" lon="1.91893">
        <ele>123.6</ele>
        <time>2020-07-02T14:07:05Z</time>
      </trkpt>
      <trkpt lat="47.93894" lon="1.9189">
        <ele>123.5</ele>
        <time>2020-07-02T14:07:06Z</time>
      </trkpt>
      <trkpt lat="47.93889" lon="1.91888">
        <ele>123.5</ele>
        <time>2020-07-02T14:07:07Z</time>
      </trkpt>
      <trkpt lat="47.93883" lon="1.91885">
        <ele>123.5</ele>
        <time>2020-07-02T14:07:08Z</time>
      </trkpt>
      <trkpt lat="47.93878" lon="1.91884">
        <ele>123.5</ele>
        <time>2020-07-02T14:07:09Z</time>
      </trkpt>
      <trkpt lat="47.93873" lon="1.91881">
        <ele>123.4</ele>
        <time>2020-07-02T14:07:10Z</time>
      </trkpt>
      <trkpt lat="47.93867" lon="1.91879">
        <ele>123.4</ele>
        <time>2020-07-02T14:07:11Z</time>
      </trkpt>
      <trkpt lat="47.93862" lon="1.91878">
        <ele>123.4</ele>
        <time>2020-07-02T14:07:12Z</time>
      </trkpt>
      <trkpt lat="47.93856" lon="1.91877">
        <ele>123.3</ele>
        <time>2020-07-02T14:07:13Z</time>
      </trkpt>
      <trkpt lat="47.9385" lon="1.91876">
        <ele>123.2</ele>
        <time>2020-07-02T14:07:14Z</time>
      </trkpt>
      <trkpt lat="47.93845" lon="1.91875">
        <ele>123.1</ele>
        <time>2020-07-02T14:07:15Z</time>
      </trkpt>
      <trkpt lat="47.9384" lon="1.91873">
        <ele>123.1</ele>
        <time>2020-07-02T14:07:16Z</time>
      </trkpt>
      <trkpt lat="47.93834" lon="1.91873">
        <ele>123</ele>
        <time>2020-07-02T14:07:17Z</time>
      </trkpt>
      <trkpt lat="47.93829" lon="1.91872">
        <ele>123</ele>
        <time>2020-07-02T14:07:18Z</time>
      </trkpt>
      <trkpt lat="47.93824" lon="1.91871">
        <ele>122.9</ele>
        <time>2020-07-02T14:07:19Z</time>
      </trkpt>
      <trkpt lat="47.93818" lon="1.91868">
        <ele>122.9</ele>
        <time>2020-07-02T14:07:20Z</time>
      </trkpt>
      <trkpt lat="47.93813" lon="1.91867">
        <ele>122.8</ele>
        <time>2020-07-02T14:07:21Z</time>
      </trkpt>
      <trkpt lat="47.93808" lon="1.91866">
        <ele>122.8</ele>
        <time>2020-07-02T14:07:22Z</time>
      </trkpt>
      <trkpt lat="47.93803" lon="1.91865">
        <ele>122.7</ele>
        <time>2020-07-02T14:07:23Z</time>
      </trkpt>
      <trkpt lat="47.93798" lon="1.91863">
        <ele>122.7</ele>
        <time>2020-07-02T14:07:24Z</time>
      </trkpt>
      <trkpt lat="47.93793" lon="1.9186">
        <ele>122.7</ele>
        <time>2020-07-02T14:07:25Z</time>
      </trkpt>
      <trkpt lat="47.93788" lon="1.91856">
        <ele>122.8</ele>
        <time>2020-07-02T14:07:26Z</time>
      </trkpt>
      <trkpt lat="47.93782" lon="1.91855">
        <ele>122.9</ele>
        <time>2020-07-02T14:07:27Z</time>
      </trkpt>
      <trkpt lat="47.93777" lon="1.91853">
        <ele>122.8</ele>
        <time>2020-07-02T14:07:28Z</time>
      </trkpt>
      <trkpt lat="47.93773" lon="1.91851">
        <ele>122.7</ele>
        <time>2020-07-02T14:07:29Z</time>
      </trkpt>
      <trkpt lat="47.93769" lon="1.91849">
        <ele>122.6</ele>
        <time>2020-07-02T14:07:30Z</time>
      </trkpt>
      <trkpt lat="47.93766" lon="1.91848">
        <ele>122.5</ele>
        <time>2020-07-02T14:07:31Z</time>
      </trkpt>
      <trkpt lat="47.93763" lon="1.91847">
        <ele>122.5</ele>
        <time>2020-07-02T14:07:32Z</time>
      </trkpt>
      <trkpt lat="47.93762" lon="1.91846">
        <ele>122.5</ele>
        <time>2020-07-02T14:07:33Z</time>
      </trkpt>
      <trkpt lat="47.93758" lon="1.91845">
        <ele>122.5</ele>
        <time>2020-07-02T14:07:34Z</time>
      </trkpt>
      <trkpt lat="47.93757" lon="1.91845">
        <ele>122.5</ele>
        <time>2020-07-02T14:07:35Z</time>
      </trkpt>
      <trkpt lat="47.93754" lon="1.91844">
        <ele>122.5</ele>
        <time>2020-07-02T14:07:36Z</time>
      </trkpt>
      <trkpt lat="47.93751" lon="1.91843">
        <ele>122.5</ele>
        <time>2020-07-02T14:07:37Z</time>
      </trkpt>
      <trkpt lat="47.93747" lon="1.9184">
        <ele>122.5</ele>
        <time>2020-07-02T14:07:38Z</time>
      </trkpt>
      <trkpt lat="47.93742" lon="1.91838">
        <ele>122.3</ele>
        <time>2020-07-02T14:07:39Z</time>
      </trkpt>
      <trkpt lat="47.93737" lon="1.91837">
        <ele>121.9</ele>
        <time>2020-07-02T14:07:40Z</time>
      </trkpt>
      <trkpt lat="47.93733" lon="1.91833">
        <ele>121.6</ele>
        <time>2020-07-02T14:07:41Z</time>
      </trkpt>
      <trkpt lat="47.93728" lon="1.9183">
        <ele>121.5</ele>
        <time>2020-07-02T14:07:42Z</time>
      </trkpt>
      <trkpt lat="47.93725" lon="1.91827">
        <ele>121.3</ele>
        <time>2020-07-02T14:07:43Z</time>
      </trkpt>
      <trkpt lat="47.9372" lon="1.91828">
        <ele>121.2</ele>
        <time>2020-07-02T14:07:44Z</time>
      </trkpt>
      <trkpt lat="47.93715" lon="1.91826">
        <ele>121.1</ele>
        <time>2020-07-02T14:07:45Z</time>
      </trkpt>
      <trkpt lat="47.93709" lon="1.91824">
        <ele>121</ele>
        <time>2020-07-02T14:07:46Z</time>
      </trkpt>
      <trkpt lat="47.93703" lon="1.9182">
        <ele>120.9</ele>
        <time>2020-07-02T14:07:47Z</time>
      </trkpt>
      <trkpt lat="47.93696" lon="1.91816">
        <ele>120.7</ele>
        <time>2020-07-02T14:07:48Z</time>
      </trkpt>
      <trkpt lat="47.93689" lon="1.91813">
        <ele>120.6</ele>
        <time>2020-07-02T14:07:49Z</time>
      </trkpt>
      <trkpt lat="47.93682" lon="1.91811">
        <ele>120.4</ele>
        <time>2020-07-02T14:07:50Z</time>
      </trkpt>
      <trkpt lat="47.93676" lon="1.91808">
        <ele>120.2</ele>
        <time>2020-07-02T14:07:51Z</time>
      </trkpt>
      <trkpt lat="47.93669" lon="1.91806">
        <ele>120.1</ele>
        <time>2020-07-02T14:07:52Z</time>
      </trkpt>
      <trkpt lat="47.93662" lon="1.91803">
        <ele>120.1</ele>
        <time>2020-07-02T14:07:53Z</time>
      </trkpt>
      <trkpt lat="47.93655" lon="1.91799">
        <ele>120.1</ele>
        <time>2020-07-02T14:07:54Z</time>
      </trkpt>
      <trkpt lat="47.93649" lon="1.91796">
        <ele>120.1</ele>
        <time>2020-07-02T14:07:55Z</time>
      </trkpt>
      <trkpt lat="47.93642" lon="1.91793">
        <ele>120</ele>
        <time>2020-07-02T14:07:56Z</time>
      </trkpt>
      <trkpt lat="47.93635" lon="1.91791">
        <ele>120</ele>
        <time>2020-07-02T14:07:57Z</time>
      </trkpt>
      <trkpt lat="47.93628" lon="1.91788">
        <ele>119.9</ele>
        <time>2020-07-02T14:07:58Z</time>
      </trkpt>
      <trkpt lat="47.93622" lon="1.91784">
        <ele>119.9</ele>
        <time>2020-07-02T14:07:59Z</time>
      </trkpt>
      <trkpt lat="47.93615" lon="1.91782">
        <ele>119.8</ele>
        <time>2020-07-02T14:08:00Z</time>
      </trkpt>
      <trkpt lat="47.93609" lon="1.91779">
        <ele>119.8</ele>
        <time>2020-07-02T14:08:01Z</time>
      </trkpt>
      <trkpt lat="47.93602" lon="1.91776">
        <ele>119.8</ele>
        <time>2020-07-02T14:08:02Z</time>
      </trkpt>
      <trkpt lat="47.93595" lon="1.91773">
        <ele>119.8</ele>
        <time>2020-07-02T14:08:03Z</time>
      </trkpt>
      <trkpt lat="47.93589" lon="1.91771">
        <ele>119.9</ele>
        <time>2020-07-02T14:08:04Z</time>
      </trkpt>
      <trkpt lat="47.93582" lon="1.91769">
        <ele>119.9</ele>
        <time>2020-07-02T14:08:05Z</time>
      </trkpt>
      <trkpt lat="47.93576" lon="1.91766">
        <ele>120</ele>
        <time>2020-07-02T14:08:06Z</time>
      </trkpt>
      <trkpt lat="47.93571" lon="1.91764">
        <ele>120.1</ele>
        <time>2020-07-02T14:08:07Z</time>
      </trkpt>
      <trkpt lat="47.93566" lon="1.91762">
        <ele>120.1</ele>
        <time>2020-07-02T14:08:08Z</time>
      </trkpt>
      <trkpt lat="47.93561" lon="1.9176">
        <ele>120</ele>
        <time>2020-07-02T14:08:09Z</time>
      </trkpt>
      <trkpt lat="47.93557" lon="1.91758">
        <ele>119.9</ele>
        <time>2020-07-02T14:08:10Z</time>
      </trkpt>
      <trkpt lat="47.93551" lon="1.91756">
        <ele>119.8</ele>
        <time>2020-07-02T14:08:11Z</time>
      </trkpt>
      <trkpt lat="47.93546" lon="1.91753">
        <ele>119.7</ele>
        <time>2020-07-02T14:08:12Z</time>
      </trkpt>
      <trkpt lat="47.9354" lon="1.91751">
        <ele>119.6</ele>
        <time>2020-07-02T14:08:13Z</time>
      </trkpt>
      <trkpt lat="47.93533" lon="1.91749">
        <ele>119.5</ele>
        <time>2020-07-02T14:08:14Z</time>
      </trkpt>
      <trkpt lat="47.93526" lon="1.91746">
        <ele>119.4</ele>
        <time>2020-07-02T14:08:15Z</time>
      </trkpt>
      <trkpt lat="47.93519" lon="1.91742">
        <ele>119.4</ele>
        <time>2020-07-02T14:08:16Z</time>
      </trkpt>
      <trkpt lat="47.93512" lon="1.91739">
        <ele>119.4</ele>
        <time>2020-07-02T14:08:17Z</time>
      </trkpt>
      <trkpt lat="47.93505" lon="1.91736">
        <ele>119.4</ele>
        <time>2020-07-02T14:08:18Z</time>
      </trkpt>
      <trkpt lat="47.93499" lon="1.91734">
        <ele>119.4</ele>
        <time>2020-07-02T14:08:19Z</time>
      </trkpt>
      <trkpt lat="47.93492" lon="1.91732">
        <ele>119.4</ele>
        <time>2020-07-02T14:08:20Z</time>
      </trkpt>
      <trkpt lat="47.93485" lon="1.91729">
        <ele>119.3</ele>
        <time>2020-07-02T14:08:21Z</time>
      </trkpt>
      <trkpt lat="47.93479" lon="1.91728">
        <ele>119.3</ele>
        <time>2020-07-02T14:08:22Z</time>
      </trkpt>
      <trkpt lat="47.93473" lon="1.91726">
        <ele>119.3</ele>
        <time>2020-07-02T14:08:23Z</time>
      </trkpt>
      <trkpt lat="47.93467" lon="1.91723">
        <ele>119.3</ele>
        <time>2020-07-02T14:08:24Z</time>
      </trkpt>
      <trkpt lat="47.93461" lon="1.91722">
        <ele>119.3</ele>
        <time>2020-07-02T14:08:25Z</time>
      </trkpt>
      <trkpt lat="47.93455" lon="1.91719">
        <ele>119.3</ele>
        <time>2020-07-02T14:08:26Z</time>
      </trkpt>
      <trkpt lat="47.9345" lon="1.91716">
        <ele>119.3</ele>
        <time>2020-07-02T14:08:27Z</time>
      </trkpt>
      <trkpt lat="47.93445" lon="1.91713">
        <ele>119.3</ele>
        <time>2020-07-02T14:08:28Z</time>
      </trkpt>
      <trkpt lat="47.93439" lon="1.91711">
        <ele>119.3</ele>
        <time>2020-07-02T14:08:29Z</time>
      </trkpt>
      <trkpt lat="47.93435" lon="1.91709">
        <ele>119.4</ele>
        <time>2020-07-02T14:08:30Z</time>
      </trkpt>
      <trkpt lat="47.93431" lon="1.91709">
        <ele>119.4</ele>
        <time>2020-07-02T14:08:31Z</time>
      </trkpt>
      <trkpt lat="47.93428" lon="1.91708">
        <ele>119.4</ele>
        <time>2020-07-02T14:08:32Z</time>
      </trkpt>
      <trkpt lat="47.93425" lon="1.91707">
        <ele>119.5</ele>
        <time>2020-07-02T14:08:33Z</time>
      </trkpt>
      <trkpt lat="47.93424" lon="1.91707">
        <ele>119.5</ele>
        <time>2020-07-02T14:08:34Z</time>
      </trkpt>
      <trkpt lat="47.93422" lon="1.91705">
        <ele>119.5</ele>
        <time>2020-07-02T14:08:35Z</time>
      </trkpt>
      <trkpt lat="47.93421" lon="1.91704">
        <ele>119.5</ele>
        <time>2020-07-02T14:08:36Z</time>
      </trkpt>
      <trkpt lat="47.93418" lon="1.91702">
        <ele>119.5</ele>
        <time>2020-07-02T14:08:37Z</time>
      </trkpt>
      <trkpt lat="47.93417" lon="1.91701">
        <ele>119.5</ele>
        <time>2020-07-02T14:08:38Z</time>
      </trkpt>
      <trkpt lat="47.93413" lon="1.917">
        <ele>119.6</ele>
        <time>2020-07-02T14:08:39Z</time>
      </trkpt>
      <trkpt lat="47.93411" lon="1.917">
        <ele>119.6</ele>
        <time>2020-07-02T14:08:40Z</time>
      </trkpt>
      <trkpt lat="47.93408" lon="1.91698">
        <ele>119.7</ele>
        <time>2020-07-02T14:08:41Z</time>
      </trkpt>
      <trkpt lat="47.93405" lon="1.91695">
        <ele>119.7</ele>
        <time>2020-07-02T14:08:42Z</time>
      </trkpt>
      <trkpt lat="47.93401" lon="1.91693">
        <ele>119.9</ele>
        <time>2020-07-02T14:08:43Z</time>
      </trkpt>
      <trkpt lat="47.93397" lon="1.9169">
        <ele>119.9</ele>
        <time>2020-07-02T14:08:44Z</time>
      </trkpt>
      <trkpt lat="47.93392" lon="1.91688">
        <ele>119.9</ele>
        <time>2020-07-02T14:08:45Z</time>
      </trkpt>
      <trkpt lat="47.93387" lon="1.91687">
        <ele>119.9</ele>
        <time>2020-07-02T14:08:46Z</time>
      </trkpt>
      <trkpt lat="47.93382" lon="1.91687">
        <ele>119.9</ele>
        <time>2020-07-02T14:08:47Z</time>
      </trkpt>
      <trkpt lat="47.93377" lon="1.91685">
        <ele>119.9</ele>
        <time>2020-07-02T14:08:48Z</time>
      </trkpt>
      <trkpt lat="47.93371" lon="1.91683">
        <ele>119.9</ele>
        <time>2020-07-02T14:08:49Z</time>
      </trkpt>
      <trkpt lat="47.93365" lon="1.91681">
        <ele>119.7</ele>
        <time>2020-07-02T14:08:50Z</time>
      </trkpt>
      <trkpt lat="47.93358" lon="1.91678">
        <ele>119.6</ele>
        <time>2020-07-02T14:08:51Z</time>
      </trkpt>
      <trkpt lat="47.93352" lon="1.91677">
        <ele>119.5</ele>
        <time>2020-07-02T14:08:52Z</time>
      </trkpt>
      <trkpt lat="47.93346" lon="1.91677">
        <ele>119.4</ele>
        <time>2020-07-02T14:08:53Z</time>
      </trkpt>
      <trkpt lat="47.9334" lon="1.91674">
        <ele>119.3</ele>
        <time>2020-07-02T14:08:54Z</time>
      </trkpt>
      <trkpt lat="47.93333" lon="1.91672">
        <ele>119.2</ele>
        <time>2020-07-02T14:08:55Z</time>
      </trkpt>
      <trkpt lat="47.93327" lon="1.91671">
        <ele>119.1</ele>
        <time>2020-07-02T14:08:56Z</time>
      </trkpt>
      <trkpt lat="47.93321" lon="1.91669">
        <ele>119.1</ele>
        <time>2020-07-02T14:08:57Z</time>
      </trkpt>
      <trkpt lat="47.93314" lon="1.91667">
        <ele>119</ele>
        <time>2020-07-02T14:08:58Z</time>
      </trkpt>
      <trkpt lat="47.93308" lon="1.91665">
        <ele>119</ele>
        <time>2020-07-02T14:08:59Z</time>
      </trkpt>
      <trkpt lat="47.93302" lon="1.91663">
        <ele>118.9</ele>
        <time>2020-07-02T14:09:00Z</time>
      </trkpt>
      <trkpt lat="47.93296" lon="1.91661">
        <ele>118.9</ele>
        <time>2020-07-02T14:09:01Z</time>
      </trkpt>
      <trkpt lat="47.9329" lon="1.9166">
        <ele>118.8</ele>
        <time>2020-07-02T14:09:02Z</time>
      </trkpt>
      <trkpt lat="47.93284" lon="1.91658">
        <ele>118.8</ele>
        <time>2020-07-02T14:09:03Z</time>
      </trkpt>
      <trkpt lat="47.93277" lon="1.91655">
        <ele>118.7</ele>
        <time>2020-07-02T14:09:04Z</time>
      </trkpt>
      <trkpt lat="47.93271" lon="1.91653">
        <ele>118.7</ele>
        <time>2020-07-02T14:09:05Z</time>
      </trkpt>
      <trkpt lat="47.93265" lon="1.91653">
        <ele>118.7</ele>
        <time>2020-07-02T14:09:06Z</time>
      </trkpt>
      <trkpt lat="47.93259" lon="1.91651">
        <ele>118.7</ele>
        <time>2020-07-02T14:09:07Z</time>
      </trkpt>
      <trkpt lat="47.93251" lon="1.91648">
        <ele>118.6</ele>
        <time>2020-07-02T14:09:08Z</time>
      </trkpt>
      <trkpt lat="47.93245" lon="1.91645">
        <ele>118.5</ele>
        <time>2020-07-02T14:09:09Z</time>
      </trkpt>
      <trkpt lat="47.93238" lon="1.91643">
        <ele>118.5</ele>
        <time>2020-07-02T14:09:10Z</time>
      </trkpt>
      <trkpt lat="47.93232" lon="1.91641">
        <ele>118.4</ele>
        <time>2020-07-02T14:09:11Z</time>
      </trkpt>
      <trkpt lat="47.93225" lon="1.9164">
        <ele>118.3</ele>
        <time>2020-07-02T14:09:12Z</time>
      </trkpt>
      <trkpt lat="47.9322" lon="1.91639">
        <ele>118.2</ele>
        <time>2020-07-02T14:09:13Z</time>
      </trkpt>
      <trkpt lat="47.93213" lon="1.91638">
        <ele>118.2</ele>
        <time>2020-07-02T14:09:14Z</time>
      </trkpt>
      <trkpt lat="47.93208" lon="1.91636">
        <ele>118.1</ele>
        <time>2020-07-02T14:09:15Z</time>
      </trkpt>
      <trkpt lat="47.93201" lon="1.91635">
        <ele>118.1</ele>
        <time>2020-07-02T14:09:16Z</time>
      </trkpt>
      <trkpt lat="47.93194" lon="1.91633">
        <ele>118</ele>
        <time>2020-07-02T14:09:17Z</time>
      </trkpt>
      <trkpt lat="47.93188" lon="1.91632">
        <ele>117.9</ele>
        <time>2020-07-02T14:09:18Z</time>
      </trkpt>
      <trkpt lat="47.93182" lon="1.91629">
        <ele>117.8</ele>
        <time>2020-07-02T14:09:19Z</time>
      </trkpt>
      <trkpt lat="47.93176" lon="1.91628">
        <ele>117.8</ele>
        <time>2020-07-02T14:09:20Z</time>
      </trkpt>
      <trkpt lat="47.93171" lon="1.91626">
        <ele>117.7</ele>
        <time>2020-07-02T14:09:21Z</time>
      </trkpt>
      <trkpt lat="47.93164" lon="1.91624">
        <ele>117.7</ele>
        <time>2020-07-02T14:09:22Z</time>
      </trkpt>
      <trkpt lat="47.93158" lon="1.91623">
        <ele>117.6</ele>
        <time>2020-07-02T14:09:23Z</time>
      </trkpt>
      <trkpt lat="47.93153" lon="1.9162">
        <ele>117.5</ele>
        <time>2020-07-02T14:09:24Z</time>
      </trkpt>
      <trkpt lat="47.93149" lon="1.9162">
        <ele>117.5</ele>
        <time>2020-07-02T14:09:25Z</time>
      </trkpt>
      <trkpt lat="47.9314" lon="1.91617">
        <ele>117.3</ele>
        <time>2020-07-02T14:09:26Z</time>
      </trkpt>
      <trkpt lat="47.93134" lon="1.91616">
        <ele>117.1</ele>
        <time>2020-07-02T14:09:27Z</time>
      </trkpt>
      <trkpt lat="47.93125" lon="1.91615">
        <ele>116.9</ele>
        <time>2020-07-02T14:09:28Z</time>
      </trkpt>
      <trkpt lat="47.93119" lon="1.91614">
        <ele>116.8</ele>
        <time>2020-07-02T14:09:29Z</time>
      </trkpt>
      <trkpt lat="47.93112" lon="1.91612">
        <ele>116.7</ele>
        <time>2020-07-02T14:09:30Z</time>
      </trkpt>
      <trkpt lat="47.93104" lon="1.91611">
        <ele>116.5</ele>
        <time>2020-07-02T14:09:31Z</time>
      </trkpt>
      <trkpt lat="47.93098" lon="1.9161">
        <ele>116.4</ele>
        <time>2020-07-02T14:09:32Z</time>
      </trkpt>
      <trkpt lat="47.9309" lon="1.91609">
        <ele>116.2</ele>
        <time>2020-07-02T14:09:33Z</time>
      </trkpt>
      <trkpt lat="47.93082" lon="1.91609">
        <ele>116</ele>
        <time>2020-07-02T14:09:34Z</time>
      </trkpt>
      <trkpt lat="47.93075" lon="1.91609">
        <ele>115.9</ele>
        <time>2020-07-02T14:09:35Z</time>
      </trkpt>
      <trkpt lat="47.93067" lon="1.91609">
        <ele>115.7</ele>
        <time>2020-07-02T14:09:36Z</time>
      </trkpt>
      <trkpt lat="47.93059" lon="1.91609">
        <ele>115.5</ele>
        <time>2020-07-02T14:09:37Z</time>
      </trkpt>
      <trkpt lat="47.93051" lon="1.91609">
        <ele>115.3</ele>
        <time>2020-07-02T14:09:38Z</time>
      </trkpt>
      <trkpt lat="47.93042" lon="1.91609">
        <ele>115.2</ele>
        <time>2020-07-02T14:09:39Z</time>
      </trkpt>
      <trkpt lat="47.93035" lon="1.91609">
        <ele>115.1</ele>
        <time>2020-07-02T14:09:40Z</time>
      </trkpt>
      <trkpt lat="47.93027" lon="1.91608">
        <ele>115</ele>
        <time>2020-07-02T14:09:41Z</time>
      </trkpt>
      <trkpt lat="47.9302" lon="1.91607">
        <ele>115</ele>
        <time>2020-07-02T14:09:42Z</time>
      </trkpt>
      <trkpt lat="47.93011" lon="1.91606">
        <ele>115</ele>
        <time>2020-07-02T14:09:43Z</time>
      </trkpt>
      <trkpt lat="47.93003" lon="1.91605">
        <ele>114.9</ele>
        <time>2020-07-02T14:09:44Z</time>
      </trkpt>
      <trkpt lat="47.92995" lon="1.91605">
        <ele>114.9</ele>
        <time>2020-07-02T14:09:45Z</time>
      </trkpt>
      <trkpt lat="47.92987" lon="1.91604">
        <ele>115</ele>
        <time>2020-07-02T14:09:46Z</time>
      </trkpt>
      <trkpt lat="47.9298" lon="1.91603">
        <ele>115</ele>
        <time>2020-07-02T14:09:47Z</time>
      </trkpt>
      <trkpt lat="47.92972" lon="1.91603">
        <ele>115</ele>
        <time>2020-07-02T14:09:48Z</time>
      </trkpt>
      <trkpt lat="47.92964" lon="1.91602">
        <ele>115.1</ele>
        <time>2020-07-02T14:09:49Z</time>
      </trkpt>
      <trkpt lat="47.92956" lon="1.91602">
        <ele>115.1</ele>
        <time>2020-07-02T14:09:50Z</time>
      </trkpt>
      <trkpt lat="47.92949" lon="1.91603">
        <ele>115</ele>
        <time>2020-07-02T14:09:51Z</time>
      </trkpt>
      <trkpt lat="47.92942" lon="1.91603">
        <ele>115</ele>
        <time>2020-07-02T14:09:52Z</time>
      </trkpt>
      <trkpt lat="47.92935" lon="1.91604">
        <ele>114.9</ele>
        <time>2020-07-02T14:09:53Z</time>
      </trkpt>
      <trkpt lat="47.92928" lon="1.91604">
        <ele>114.8</ele>
        <time>2020-07-02T14:09:54Z</time>
      </trkpt>
      <trkpt lat="47.92921" lon="1.91604">
        <ele>114.7</ele>
        <time>2020-07-02T14:09:55Z</time>
      </trkpt>
      <trkpt lat="47.92913" lon="1.91604">
        <ele>114.7</ele>
        <time>2020-07-02T14:09:56Z</time>
      </trkpt>
      <trkpt lat="47.92906" lon="1.91604">
        <ele>114.7</ele>
        <time>2020-07-02T14:09:57Z</time>
      </trkpt>
      <trkpt lat="47.92899" lon="1.91603">
        <ele>114.7</ele>
        <time>2020-07-02T14:09:58Z</time>
      </trkpt>
      <trkpt lat="47.92892" lon="1.91603">
        <ele>114.7</ele>
        <time>2020-07-02T14:09:59Z</time>
      </trkpt>
      <trkpt lat="47.92885" lon="1.91603">
        <ele>114.8</ele>
        <time>2020-07-02T14:10:00Z</time>
      </trkpt>
      <trkpt lat="47.92879" lon="1.91604">
        <ele>114.8</ele>
        <time>2020-07-02T14:10:01Z</time>
      </trkpt>
      <trkpt lat="47.92872" lon="1.91605">
        <ele>114.9</ele>
        <time>2020-07-02T14:10:02Z</time>
      </trkpt>
      <trkpt lat="47.92865" lon="1.91606">
        <ele>114.9</ele>
        <time>2020-07-02T14:10:03Z</time>
      </trkpt>
      <trkpt lat="47.92859" lon="1.91606">
        <ele>115</ele>
        <time>2020-07-02T14:10:04Z</time>
      </trkpt>
      <trkpt lat="47.92852" lon="1.91605">
        <ele>115</ele>
        <time>2020-07-02T14:10:05Z</time>
      </trkpt>
      <trkpt lat="47.92847" lon="1.91606">
        <ele>115.1</ele>
        <time>2020-07-02T14:10:06Z</time>
      </trkpt>
      <trkpt lat="47.92841" lon="1.91607">
        <ele>115.2</ele>
        <time>2020-07-02T14:10:07Z</time>
      </trkpt>
      <trkpt lat="47.92836" lon="1.91609">
        <ele>115.8</ele>
        <time>2020-07-02T14:10:08Z</time>
      </trkpt>
      <trkpt lat="47.92832" lon="1.91609">
        <ele>115.8</ele>
        <time>2020-07-02T14:10:09Z</time>
      </trkpt>
      <trkpt lat="47.92827" lon="1.9161">
        <ele>115.9</ele>
        <time>2020-07-02T14:10:10Z</time>
      </trkpt>
      <trkpt lat="47.92822" lon="1.9161">
        <ele>115.9</ele>
        <time>2020-07-02T14:10:11Z</time>
      </trkpt>
      <trkpt lat="47.92817" lon="1.91611">
        <ele>115.9</ele>
        <time>2020-07-02T14:10:12Z</time>
      </trkpt>
      <trkpt lat="47.92812" lon="1.91611">
        <ele>115.9</ele>
        <time>2020-07-02T14:10:13Z</time>
      </trkpt>
      <trkpt lat="47.92806" lon="1.91612">
        <ele>115.9</ele>
        <time>2020-07-02T14:10:14Z</time>
      </trkpt>
      <trkpt lat="47.92801" lon="1.91613">
        <ele>115.9</ele>
        <time>2020-07-02T14:10:15Z</time>
      </trkpt>
      <trkpt lat="47.92796" lon="1.91615">
        <ele>115.9</ele>
        <time>2020-07-02T14:10:16Z</time>
      </trkpt>
      <trkpt lat="47.9279" lon="1.91616">
        <ele>115.9</ele>
        <time>2020-07-02T14:10:17Z</time>
      </trkpt>
      <trkpt lat="47.92785" lon="1.91616">
        <ele>115.9</ele>
        <time>2020-07-02T14:10:18Z</time>
      </trkpt>
      <trkpt lat="47.92779" lon="1.91615">
        <ele>116</ele>
        <time>2020-07-02T14:10:19Z</time>
      </trkpt>
      <trkpt lat="47.92774" lon="1.91615">
        <ele>116.1</ele>
        <time>2020-07-02T14:10:20Z</time>
      </trkpt>
      <trkpt lat="47.92768" lon="1.91615">
        <ele>116.2</ele>
        <time>2020-07-02T14:10:21Z</time>
      </trkpt>
      <trkpt lat="47.92763" lon="1.91614">
        <ele>116.3</ele>
        <time>2020-07-02T14:10:22Z</time>
      </trkpt>
      <trkpt lat="47.92757" lon="1.91614">
        <ele>116.4</ele>
        <time>2020-07-02T14:10:23Z</time>
      </trkpt>
      <trkpt lat="47.92752" lon="1.91613">
        <ele>116.5</ele>
        <time>2020-07-02T14:10:24Z</time>
      </trkpt>
      <trkpt lat="47.92747" lon="1.91612">
        <ele>116.6</ele>
        <time>2020-07-02T14:10:25Z</time>
      </trkpt>
      <trkpt lat="47.92742" lon="1.91611">
        <ele>116.7</ele>
        <time>2020-07-02T14:10:26Z</time>
      </trkpt>
      <trkpt lat="47.92736" lon="1.91608">
        <ele>116.9</ele>
        <time>2020-07-02T14:10:27Z</time>
      </trkpt>
      <trkpt lat="47.92731" lon="1.91605">
        <ele>117</ele>
        <time>2020-07-02T14:10:28Z</time>
      </trkpt>
      <trkpt lat="47.92725" lon="1.91603">
        <ele>117.1</ele>
        <time>2020-07-02T14:10:29Z</time>
      </trkpt>
      <trkpt lat="47.9272" lon="1.91601">
        <ele>117.2</ele>
        <time>2020-07-02T14:10:30Z</time>
      </trkpt>
      <trkpt lat="47.92715" lon="1.916">
        <ele>117.3</ele>
        <time>2020-07-02T14:10:31Z</time>
      </trkpt>
      <trkpt lat="47.9271" lon="1.91597">
        <ele>117.4</ele>
        <time>2020-07-02T14:10:32Z</time>
      </trkpt>
      <trkpt lat="47.92704" lon="1.91596">
        <ele>117.5</ele>
        <time>2020-07-02T14:10:33Z</time>
      </trkpt>
      <trkpt lat="47.92699" lon="1.91595">
        <ele>117.7</ele>
        <time>2020-07-02T14:10:34Z</time>
      </trkpt>
      <trkpt lat="47.92694" lon="1.91593">
        <ele>117.8</ele>
        <time>2020-07-02T14:10:35Z</time>
      </trkpt>
      <trkpt lat="47.9269" lon="1.9159">
        <ele>117.9</ele>
        <time>2020-07-02T14:10:36Z</time>
      </trkpt>
      <trkpt lat="47.92686" lon="1.91588">
        <ele>118</ele>
        <time>2020-07-02T14:10:37Z</time>
      </trkpt>
      <trkpt lat="47.92683" lon="1.91587">
        <ele>118</ele>
        <time>2020-07-02T14:10:38Z</time>
      </trkpt>
      <trkpt lat="47.92679" lon="1.91589">
        <ele>118.1</ele>
        <time>2020-07-02T14:10:39Z</time>
      </trkpt>
      <trkpt lat="47.92675" lon="1.91589">
        <ele>118.2</ele>
        <time>2020-07-02T14:10:40Z</time>
      </trkpt>
      <trkpt lat="47.92672" lon="1.91587">
        <ele>118.2</ele>
        <time>2020-07-02T14:10:41Z</time>
      </trkpt>
      <trkpt lat="47.92668" lon="1.91584">
        <ele>118.3</ele>
        <time>2020-07-02T14:10:42Z</time>
      </trkpt>
      <trkpt lat="47.92665" lon="1.9158">
        <ele>118.3</ele>
        <time>2020-07-02T14:10:43Z</time>
      </trkpt>
      <trkpt lat="47.92662" lon="1.91578">
        <ele>118.4</ele>
        <time>2020-07-02T14:10:44Z</time>
      </trkpt>
      <trkpt lat="47.92658" lon="1.91576">
        <ele>118.4</ele>
        <time>2020-07-02T14:10:45Z</time>
      </trkpt>
      <trkpt lat="47.92654" lon="1.91574">
        <ele>118.5</ele>
        <time>2020-07-02T14:10:46Z</time>
      </trkpt>
      <trkpt lat="47.92649" lon="1.91571">
        <ele>118.5</ele>
        <time>2020-07-02T14:10:47Z</time>
      </trkpt>
      <trkpt lat="47.92645" lon="1.91569">
        <ele>118.6</ele>
        <time>2020-07-02T14:10:48Z</time>
      </trkpt>
      <trkpt lat="47.92641" lon="1.91566">
        <ele>118.6</ele>
        <time>2020-07-02T14:10:49Z</time>
      </trkpt>
      <trkpt lat="47.92636" lon="1.91564">
        <ele>118.7</ele>
        <time>2020-07-02T14:10:50Z</time>
      </trkpt>
      <trkpt lat="47.92631" lon="1.91561">
        <ele>118.7</ele>
        <time>2020-07-02T14:10:51Z</time>
      </trkpt>
      <trkpt lat="47.92626" lon="1.91559">
        <ele>118.8</ele>
        <time>2020-07-02T14:10:52Z</time>
      </trkpt>
      <trkpt lat="47.92622" lon="1.91556">
        <ele>118.8</ele>
        <time>2020-07-02T14:10:53Z</time>
      </trkpt>
      <trkpt lat="47.92617" lon="1.91553">
        <ele>118.8</ele>
        <time>2020-07-02T14:10:54Z</time>
      </trkpt>
      <trkpt lat="47.92612" lon="1.9155">
        <ele>118.9</ele>
        <time>2020-07-02T14:10:55Z</time>
      </trkpt>
      <trkpt lat="47.92607" lon="1.91547">
        <ele>118.9</ele>
        <time>2020-07-02T14:10:56Z</time>
      </trkpt>
      <trkpt lat="47.92601" lon="1.91544">
        <ele>118.9</ele>
        <time>2020-07-02T14:10:57Z</time>
      </trkpt>
      <trkpt lat="47.92596" lon="1.91542">
        <ele>119</ele>
        <time>2020-07-02T14:10:58Z</time>
      </trkpt>
      <trkpt lat="47.92591" lon="1.9154">
        <ele>119</ele>
        <time>2020-07-02T14:10:59Z</time>
      </trkpt>
      <trkpt lat="47.92586" lon="1.91537">
        <ele>119</ele>
        <time>2020-07-02T14:11:00Z</time>
      </trkpt>
      <trkpt lat="47.92581" lon="1.91533">
        <ele>119</ele>
        <time>2020-07-02T14:11:01Z</time>
      </trkpt>
      <trkpt lat="47.92575" lon="1.91529">
        <ele>119</ele>
        <time>2020-07-02T14:11:02Z</time>
      </trkpt>
      <trkpt lat="47.9257" lon="1.91526">
        <ele>119</ele>
        <time>2020-07-02T14:11:03Z</time>
      </trkpt>
      <trkpt lat="47.92565" lon="1.91522">
        <ele>119</ele>
        <time>2020-07-02T14:11:04Z</time>
      </trkpt>
      <trkpt lat="47.9256" lon="1.91519">
        <ele>119</ele>
        <time>2020-07-02T14:11:05Z</time>
      </trkpt>
      <trkpt lat="47.92554" lon="1.91515">
        <ele>119</ele>
        <time>2020-07-02T14:11:06Z</time>
      </trkpt>
      <trkpt lat="47.92549" lon="1.91513">
        <ele>119</ele>
        <time>2020-07-02T14:11:07Z</time>
      </trkpt>
      <trkpt lat="47.92544" lon="1.91508">
        <ele>119</ele>
        <time>2020-07-02T14:11:08Z</time>
      </trkpt>
      <trkpt lat="47.92539" lon="1.91505">
        <ele>119</ele>
        <time>2020-07-02T14:11:09Z</time>
      </trkpt>
      <trkpt lat="47.92533" lon="1.91502">
        <ele>119</ele>
        <time>2020-07-02T14:11:10Z</time>
      </trkpt>
      <trkpt lat="47.92527" lon="1.915">
        <ele>119.1</ele>
        <time>2020-07-02T14:11:11Z</time>
      </trkpt>
      <trkpt lat="47.92521" lon="1.91497">
        <ele>119.1</ele>
        <time>2020-07-02T14:11:12Z</time>
      </trkpt>
      <trkpt lat="47.92516" lon="1.91494">
        <ele>119.2</ele>
        <time>2020-07-02T14:11:13Z</time>
      </trkpt>
      <trkpt lat="47.9251" lon="1.91492">
        <ele>119.2</ele>
        <time>2020-07-02T14:11:14Z</time>
      </trkpt>
      <trkpt lat="47.92505" lon="1.91489">
        <ele>119.2</ele>
        <time>2020-07-02T14:11:15Z</time>
      </trkpt>
      <trkpt lat="47.92499" lon="1.91485">
        <ele>119.3</ele>
        <time>2020-07-02T14:11:16Z</time>
      </trkpt>
      <trkpt lat="47.92494" lon="1.91481">
        <ele>119.3</ele>
        <time>2020-07-02T14:11:17Z</time>
      </trkpt>
      <trkpt lat="47.92488" lon="1.91477">
        <ele>119.4</ele>
        <time>2020-07-02T14:11:18Z</time>
      </trkpt>
      <trkpt lat="47.92482" lon="1.91474">
        <ele>119.4</ele>
        <time>2020-07-02T14:11:19Z</time>
      </trkpt>
      <trkpt lat="47.92477" lon="1.9147">
        <ele>119.3</ele>
        <time>2020-07-02T14:11:20Z</time>
      </trkpt>
      <trkpt lat="47.92472" lon="1.91467">
        <ele>119.3</ele>
        <time>2020-07-02T14:11:21Z</time>
      </trkpt>
      <trkpt lat="47.92467" lon="1.91464">
        <ele>119.3</ele>
        <time>2020-07-02T14:11:22Z</time>
      </trkpt>
      <trkpt lat="47.92461" lon="1.91461">
        <ele>119.3</ele>
        <time>2020-07-02T14:11:23Z</time>
      </trkpt>
      <trkpt lat="47.92456" lon="1.91459">
        <ele>119.3</ele>
        <time>2020-07-02T14:11:24Z</time>
      </trkpt>
      <trkpt lat="47.92449" lon="1.91455">
        <ele>119.4</ele>
        <time>2020-07-02T14:11:25Z</time>
      </trkpt>
      <trkpt lat="47.92442" lon="1.91452">
        <ele>119.4</ele>
        <time>2020-07-02T14:11:26Z</time>
      </trkpt>
      <trkpt lat="47.92436" lon="1.9145">
        <ele>119.4</ele>
        <time>2020-07-02T14:11:27Z</time>
      </trkpt>
      <trkpt lat="47.92431" lon="1.91449">
        <ele>119.4</ele>
        <time>2020-07-02T14:11:28Z</time>
      </trkpt>
      <trkpt lat="47.92426" lon="1.91447">
        <ele>119.4</ele>
        <time>2020-07-02T14:11:29Z</time>
      </trkpt>
      <trkpt lat="47.92419" lon="1.91445">
        <ele>119.5</ele>
        <time>2020-07-02T14:11:30Z</time>
      </trkpt>
      <trkpt lat="47.92413" lon="1.91443">
        <ele>119.5</ele>
        <time>2020-07-02T14:11:31Z</time>
      </trkpt>
      <trkpt lat="47.92409" lon="1.91443">
        <ele>119.5</ele>
        <time>2020-07-02T14:11:32Z</time>
      </trkpt>
      <trkpt lat="47.92404" lon="1.91443">
        <ele>119.5</ele>
        <time>2020-07-02T14:11:33Z</time>
      </trkpt>
      <trkpt lat="47.92399" lon="1.91442">
        <ele>119.5</ele>
        <time>2020-07-02T14:11:34Z</time>
      </trkpt>
      <trkpt lat="47.92391" lon="1.9144">
        <ele>119.6</ele>
        <time>2020-07-02T14:11:35Z</time>
      </trkpt>
      <trkpt lat="47.92385" lon="1.91439">
        <ele>119.6</ele>
        <time>2020-07-02T14:11:36Z</time>
      </trkpt>
      <trkpt lat="47.92379" lon="1.91438">
        <ele>119.6</ele>
        <time>2020-07-02T14:11:37Z</time>
      </trkpt>
      <trkpt lat="47.92374" lon="1.91438">
        <ele>119.6</ele>
        <time>2020-07-02T14:11:38Z</time>
      </trkpt>
      <trkpt lat="47.92368" lon="1.91438">
        <ele>119.7</ele>
        <time>2020-07-02T14:11:39Z</time>
      </trkpt>
      <trkpt lat="47.92361" lon="1.91436">
        <ele>119.7</ele>
        <time>2020-07-02T14:11:40Z</time>
      </trkpt>
      <trkpt lat="47.92356" lon="1.91436">
        <ele>119.8</ele>
        <time>2020-07-02T14:11:41Z</time>
      </trkpt>
      <trkpt lat="47.9235" lon="1.91435">
        <ele>119.8</ele>
        <time>2020-07-02T14:11:42Z</time>
      </trkpt>
      <trkpt lat="47.92343" lon="1.91434">
        <ele>119.8</ele>
        <time>2020-07-02T14:11:43Z</time>
      </trkpt>
      <trkpt lat="47.92337" lon="1.91433">
        <ele>119.9</ele>
        <time>2020-07-02T14:11:44Z</time>
      </trkpt>
      <trkpt lat="47.92331" lon="1.91432">
        <ele>119.9</ele>
        <time>2020-07-02T14:11:45Z</time>
      </trkpt>
      <trkpt lat="47.92325" lon="1.91431">
        <ele>119.9</ele>
        <time>2020-07-02T14:11:46Z</time>
      </trkpt>
      <trkpt lat="47.92318" lon="1.91429">
        <ele>119.9</ele>
        <time>2020-07-02T14:11:47Z</time>
      </trkpt>
      <trkpt lat="47.92311" lon="1.91428">
        <ele>119.9</ele>
        <time>2020-07-02T14:11:48Z</time>
      </trkpt>
      <trkpt lat="47.92305" lon="1.91427">
        <ele>119.9</ele>
        <time>2020-07-02T14:11:49Z</time>
      </trkpt>
      <trkpt lat="47.92299" lon="1.91426">
        <ele>119.9</ele>
        <time>2020-07-02T14:11:50Z</time>
      </trkpt>
      <trkpt lat="47.92293" lon="1.91425">
        <ele>120</ele>
        <time>2020-07-02T14:11:51Z</time>
      </trkpt>
      <trkpt lat="47.92287" lon="1.91424">
        <ele>120</ele>
        <time>2020-07-02T14:11:52Z</time>
      </trkpt>
      <trkpt lat="47.9228" lon="1.91424">
        <ele>120</ele>
        <time>2020-07-02T14:11:53Z</time>
      </trkpt>
      <trkpt lat="47.92274" lon="1.91424">
        <ele>120</ele>
        <time>2020-07-02T14:11:54Z</time>
      </trkpt>
      <trkpt lat="47.92268" lon="1.91424">
        <ele>120.1</ele>
        <time>2020-07-02T14:11:55Z</time>
      </trkpt>
      <trkpt lat="47.92261" lon="1.91425">
        <ele>120.2</ele>
        <time>2020-07-02T14:11:56Z</time>
      </trkpt>
      <trkpt lat="47.92254" lon="1.91426">
        <ele>120.2</ele>
        <time>2020-07-02T14:11:57Z</time>
      </trkpt>
      <trkpt lat="47.92247" lon="1.91426">
        <ele>120.2</ele>
        <time>2020-07-02T14:11:58Z</time>
      </trkpt>
      <trkpt lat="47.92241" lon="1.91428">
        <ele>120.2</ele>
        <time>2020-07-02T14:11:59Z</time>
      </trkpt>
      <trkpt lat="47.92234" lon="1.91428">
        <ele>120.2</ele>
        <time>2020-07-02T14:12:00Z</time>
      </trkpt>
      <trkpt lat="47.92228" lon="1.91429">
        <ele>120.2</ele>
        <time>2020-07-02T14:12:01Z</time>
      </trkpt>
      <trkpt lat="47.92221" lon="1.91431">
        <ele>120.3</ele>
        <time>2020-07-02T14:12:02Z</time>
      </trkpt>
      <trkpt lat="47.92214" lon="1.91432">
        <ele>120.3</ele>
        <time>2020-07-02T14:12:03Z</time>
      </trkpt>
      <trkpt lat="47.92208" lon="1.91434">
        <ele>120.4</ele>
        <time>2020-07-02T14:12:04Z</time>
      </trkpt>
      <trkpt lat="47.92202" lon="1.91435">
        <ele>120.5</ele>
        <time>2020-07-02T14:12:05Z</time>
      </trkpt>
      <trkpt lat="47.92194" lon="1.91436">
        <ele>120.5</ele>
        <time>2020-07-02T14:12:06Z</time>
      </trkpt>
      <trkpt lat="47.92188" lon="1.91438">
        <ele>120.6</ele>
        <time>2020-07-02T14:12:07Z</time>
      </trkpt>
      <trkpt lat="47.92182" lon="1.91439">
        <ele>120.7</ele>
        <time>2020-07-02T14:12:08Z</time>
      </trkpt>
      <trkpt lat="47.92176" lon="1.9144">
        <ele>120.7</ele>
        <time>2020-07-02T14:12:09Z</time>
      </trkpt>
      <trkpt lat="47.9217" lon="1.91441">
        <ele>120.8</ele>
        <time>2020-07-02T14:12:10Z</time>
      </trkpt>
      <trkpt lat="47.92165" lon="1.91443">
        <ele>120.9</ele>
        <time>2020-07-02T14:12:11Z</time>
      </trkpt>
      <trkpt lat="47.9216" lon="1.91445">
        <ele>121</ele>
        <time>2020-07-02T14:12:12Z</time>
      </trkpt>
      <trkpt lat="47.92155" lon="1.91447">
        <ele>121</ele>
        <time>2020-07-02T14:12:13Z</time>
      </trkpt>
      <trkpt lat="47.92151" lon="1.91447">
        <ele>121</ele>
        <time>2020-07-02T14:12:14Z</time>
      </trkpt>
      <trkpt lat="47.92148" lon="1.91446">
        <ele>121</ele>
        <time>2020-07-02T14:12:15Z</time>
      </trkpt>
      <trkpt lat="47.92147" lon="1.91446">
        <ele>121.1</ele>
        <time>2020-07-02T14:12:16Z</time>
      </trkpt>
      <trkpt lat="47.92142" lon="1.91446">
        <ele>121.1</ele>
        <time>2020-07-02T14:12:17Z</time>
      </trkpt>
      <trkpt lat="47.92137" lon="1.91446">
        <ele>121.1</ele>
        <time>2020-07-02T14:12:18Z</time>
      </trkpt>
      <trkpt lat="47.92131" lon="1.91446">
        <ele>121.1</ele>
        <time>2020-07-02T14:12:19Z</time>
      </trkpt>
      <trkpt lat="47.92126" lon="1.91446">
        <ele>121.1</ele>
        <time>2020-07-02T14:12:20Z</time>
      </trkpt>
      <trkpt lat="47.92121" lon="1.91447">
        <ele>121.1</ele>
        <time>2020-07-02T14:12:21Z</time>
      </trkpt>
      <trkpt lat="47.92116" lon="1.91447">
        <ele>121.1</ele>
        <time>2020-07-02T14:12:22Z</time>
      </trkpt>
      <trkpt lat="47.9211" lon="1.91448">
        <ele>121.1</ele>
        <time>2020-07-02T14:12:23Z</time>
      </trkpt>
      <trkpt lat="47.92105" lon="1.9145">
        <ele>121.1</ele>
        <time>2020-07-02T14:12:24Z</time>
      </trkpt>
      <trkpt lat="47.92097" lon="1.91451">
        <ele>121.1</ele>
        <time>2020-07-02T14:12:25Z</time>
      </trkpt>
      <trkpt lat="47.9209" lon="1.91454">
        <ele>121.1</ele>
        <time>2020-07-02T14:12:26Z</time>
      </trkpt>
      <trkpt lat="47.92084" lon="1.91455">
        <ele>121.2</ele>
        <time>2020-07-02T14:12:27Z</time>
      </trkpt>
      <trkpt lat="47.92077" lon="1.91457">
        <ele>121.2</ele>
        <time>2020-07-02T14:12:28Z</time>
      </trkpt>
      <trkpt lat="47.92072" lon="1.91457">
        <ele>121.2</ele>
        <time>2020-07-02T14:12:29Z</time>
      </trkpt>
      <trkpt lat="47.92066" lon="1.91458">
        <ele>121.3</ele>
        <time>2020-07-02T14:12:30Z</time>
      </trkpt>
      <trkpt lat="47.9206" lon="1.91458">
        <ele>121.4</ele>
        <time>2020-07-02T14:12:31Z</time>
      </trkpt>
      <trkpt lat="47.92053" lon="1.91459">
        <ele>121.4</ele>
        <time>2020-07-02T14:12:32Z</time>
      </trkpt>
      <trkpt lat="47.92048" lon="1.9146">
        <ele>121.5</ele>
        <time>2020-07-02T14:12:33Z</time>
      </trkpt>
      <trkpt lat="47.92042" lon="1.91461">
        <ele>121.6</ele>
        <time>2020-07-02T14:12:34Z</time>
      </trkpt>
      <trkpt lat="47.92038" lon="1.91463">
        <ele>121.7</ele>
        <time>2020-07-02T14:12:35Z</time>
      </trkpt>
      <trkpt lat="47.92033" lon="1.91464">
        <ele>121.8</ele>
        <time>2020-07-02T14:12:36Z</time>
      </trkpt>
      <trkpt lat="47.92029" lon="1.91465">
        <ele>121.9</ele>
        <time>2020-07-02T14:12:37Z</time>
      </trkpt>
      <trkpt lat="47.92024" lon="1.91465">
        <ele>122</ele>
        <time>2020-07-02T14:12:38Z</time>
      </trkpt>
      <trkpt lat="47.92021" lon="1.91467">
        <ele>122.1</ele>
        <time>2020-07-02T14:12:39Z</time>
      </trkpt>
      <trkpt lat="47.92016" lon="1.91468">
        <ele>122.2</ele>
        <time>2020-07-02T14:12:40Z</time>
      </trkpt>
      <trkpt lat="47.92013" lon="1.91468">
        <ele>122.3</ele>
        <time>2020-07-02T14:12:41Z</time>
      </trkpt>
      <trkpt lat="47.92009" lon="1.91469">
        <ele>122.4</ele>
        <time>2020-07-02T14:12:42Z</time>
      </trkpt>
      <trkpt lat="47.92008" lon="1.91469">
        <ele>122.5</ele>
        <time>2020-07-02T14:12:43Z</time>
      </trkpt>
      <trkpt lat="47.92004" lon="1.9147">
        <ele>122.5</ele>
        <time>2020-07-02T14:12:44Z</time>
      </trkpt>
      <trkpt lat="47.92003" lon="1.9147">
        <ele>122.5</ele>
        <time>2020-07-02T14:12:45Z</time>
      </trkpt>
      <trkpt lat="47.92" lon="1.91471">
        <ele>122.6</ele>
        <time>2020-07-02T14:12:46Z</time>
      </trkpt>
      <trkpt lat="47.91998" lon="1.91471">
        <ele>122.6</ele>
        <time>2020-07-02T14:12:47Z</time>
      </trkpt>
      <trkpt lat="47.91994" lon="1.91471">
        <ele>122.6</ele>
        <time>2020-07-02T14:12:48Z</time>
      </trkpt>
      <trkpt lat="47.91991" lon="1.91469">
        <ele>122.6</ele>
        <time>2020-07-02T14:12:49Z</time>
      </trkpt>
      <trkpt lat="47.91988" lon="1.91468">
        <ele>122.6</ele>
        <time>2020-07-02T14:12:50Z</time>
      </trkpt>
      <trkpt lat="47.91984" lon="1.9147">
        <ele>122.6</ele>
        <time>2020-07-02T14:12:51Z</time>
      </trkpt>
      <trkpt lat="47.9198" lon="1.91472">
        <ele>122.6</ele>
        <time>2020-07-02T14:12:52Z</time>
      </trkpt>
      <trkpt lat="47.91976" lon="1.91473">
        <ele>122.6</ele>
        <time>2020-07-02T14:12:53Z</time>
      </trkpt>
      <trkpt lat="47.91971" lon="1.91474">
        <ele>122.6</ele>
        <time>2020-07-02T14:12:54Z</time>
      </trkpt>
      <trkpt lat="47.91966" lon="1.91473">
        <ele>122.5</ele>
        <time>2020-07-02T14:12:55Z</time>
      </trkpt>
      <trkpt lat="47.91961" lon="1.91473">
        <ele>122.5</ele>
        <time>2020-07-02T14:12:56Z</time>
      </trkpt>
      <trkpt lat="47.91957" lon="1.91473">
        <ele>122.5</ele>
        <time>2020-07-02T14:12:57Z</time>
      </trkpt>
      <trkpt lat="47.91951" lon="1.91473">
        <ele>122.4</ele>
        <time>2020-07-02T14:12:58Z</time>
      </trkpt>
      <trkpt lat="47.91946" lon="1.91474">
        <ele>122.3</ele>
        <time>2020-07-02T14:12:59Z</time>
      </trkpt>
      <trkpt lat="47.91942" lon="1.91474">
        <ele>122.3</ele>
        <time>2020-07-02T14:13:00Z</time>
      </trkpt>
      <trkpt lat="47.91937" lon="1.91475">
        <ele>122.2</ele>
        <time>2020-07-02T14:13:01Z</time>
      </trkpt>
      <trkpt lat="47.9193" lon="1.91474">
        <ele>122.1</ele>
        <time>2020-07-02T14:13:02Z</time>
      </trkpt>
      <trkpt lat="47.91923" lon="1.91474">
        <ele>121.9</ele>
        <time>2020-07-02T14:13:03Z</time>
      </trkpt>
      <trkpt lat="47.91918" lon="1.91475">
        <ele>121.8</ele>
        <time>2020-07-02T14:13:04Z</time>
      </trkpt>
      <trkpt lat="47.91913" lon="1.91475">
        <ele>121.7</ele>
        <time>2020-07-02T14:13:05Z</time>
      </trkpt>
      <trkpt lat="47.91907" lon="1.91474">
        <ele>121.6</ele>
        <time>2020-07-02T14:13:06Z</time>
      </trkpt>
      <trkpt lat="47.91901" lon="1.91474">
        <ele>121.5</ele>
        <time>2020-07-02T14:13:07Z</time>
      </trkpt>
      <trkpt lat="47.91897" lon="1.91473">
        <ele>121.5</ele>
        <time>2020-07-02T14:13:08Z</time>
      </trkpt>
      <trkpt lat="47.9189" lon="1.91473">
        <ele>121.4</ele>
        <time>2020-07-02T14:13:09Z</time>
      </trkpt>
      <trkpt lat="47.91885" lon="1.91473">
        <ele>121.3</ele>
        <time>2020-07-02T14:13:10Z</time>
      </trkpt>
      <trkpt lat="47.91879" lon="1.91472">
        <ele>121.3</ele>
        <time>2020-07-02T14:13:11Z</time>
      </trkpt>
      <trkpt lat="47.91871" lon="1.91471">
        <ele>121.3</ele>
        <time>2020-07-02T14:13:12Z</time>
      </trkpt>
      <trkpt lat="47.91865" lon="1.9147">
        <ele>121.3</ele>
        <time>2020-07-02T14:13:13Z</time>
      </trkpt>
      <trkpt lat="47.91859" lon="1.91469">
        <ele>121.2</ele>
        <time>2020-07-02T14:13:14Z</time>
      </trkpt>
      <trkpt lat="47.91852" lon="1.91467">
        <ele>121.2</ele>
        <time>2020-07-02T14:13:15Z</time>
      </trkpt>
      <trkpt lat="47.91846" lon="1.91466">
        <ele>121.1</ele>
        <time>2020-07-02T14:13:16Z</time>
      </trkpt>
      <trkpt lat="47.9184" lon="1.91465">
        <ele>121</ele>
        <time>2020-07-02T14:13:17Z</time>
      </trkpt>
      <trkpt lat="47.91834" lon="1.91464">
        <ele>121</ele>
        <time>2020-07-02T14:13:18Z</time>
      </trkpt>
      <trkpt lat="47.91829" lon="1.91463">
        <ele>120.9</ele>
        <time>2020-07-02T14:13:19Z</time>
      </trkpt>
      <trkpt lat="47.91824" lon="1.91462">
        <ele>120.9</ele>
        <time>2020-07-02T14:13:20Z</time>
      </trkpt>
      <trkpt lat="47.91819" lon="1.91461">
        <ele>120.9</ele>
        <time>2020-07-02T14:13:21Z</time>
      </trkpt>
      <trkpt lat="47.91815" lon="1.91461">
        <ele>120.9</ele>
        <time>2020-07-02T14:13:22Z</time>
      </trkpt>
      <trkpt lat="47.91809" lon="1.9146">
        <ele>120.9</ele>
        <time>2020-07-02T14:13:23Z</time>
      </trkpt>
      <trkpt lat="47.91805" lon="1.91459">
        <ele>120.9</ele>
        <time>2020-07-02T14:13:24Z</time>
      </trkpt>
      <trkpt lat="47.91801" lon="1.91458">
        <ele>120.8</ele>
        <time>2020-07-02T14:13:25Z</time>
      </trkpt>
      <trkpt lat="47.91796" lon="1.91457">
        <ele>120.8</ele>
        <time>2020-07-02T14:13:26Z</time>
      </trkpt>
      <trkpt lat="47.91793" lon="1.91455">
        <ele>120.8</ele>
        <time>2020-07-02T14:13:27Z</time>
      </trkpt>
      <trkpt lat="47.91789" lon="1.91454">
        <ele>120.8</ele>
        <time>2020-07-02T14:13:28Z</time>
      </trkpt>
      <trkpt lat="47.91784" lon="1.91453">
        <ele>120.8</ele>
        <time>2020-07-02T14:13:29Z</time>
      </trkpt>
      <trkpt lat="47.91781" lon="1.91451">
        <ele>120.8</ele>
        <time>2020-07-02T14:13:30Z</time>
      </trkpt>
      <trkpt lat="47.91778" lon="1.91449">
        <ele>120.8</ele>
        <time>2020-07-02T14:13:31Z</time>
      </trkpt>
      <trkpt lat="47.91774" lon="1.91449">
        <ele>120.8</ele>
        <time>2020-07-02T14:13:32Z</time>
      </trkpt>
      <trkpt lat="47.9177" lon="1.91447">
        <ele>120.8</ele>
        <time>2020-07-02T14:13:33Z</time>
      </trkpt>
      <trkpt lat="47.91766" lon="1.91445">
        <ele>120.9</ele>
        <time>2020-07-02T14:13:34Z</time>
      </trkpt>
      <trkpt lat="47.91762" lon="1.91443">
        <ele>120.9</ele>
        <time>2020-07-02T14:13:35Z</time>
      </trkpt>
      <trkpt lat="47.91759" lon="1.91443">
        <ele>120.9</ele>
        <time>2020-07-02T14:13:36Z</time>
      </trkpt>
      <trkpt lat="47.91756" lon="1.91441">
        <ele>120.9</ele>
        <time>2020-07-02T14:13:37Z</time>
      </trkpt>
      <trkpt lat="47.91753" lon="1.91439">
        <ele>120.9</ele>
        <time>2020-07-02T14:13:38Z</time>
      </trkpt>
      <trkpt lat="47.9175" lon="1.91438">
        <ele>120.9</ele>
        <time>2020-07-02T14:13:39Z</time>
      </trkpt>
      <trkpt lat="47.91747" lon="1.91436">
        <ele>120.9</ele>
        <time>2020-07-02T14:13:40Z</time>
      </trkpt>
      <trkpt lat="47.91744" lon="1.91435">
        <ele>120.9</ele>
        <time>2020-07-02T14:13:41Z</time>
      </trkpt>
      <trkpt lat="47.9174" lon="1.91433">
        <ele>120.9</ele>
        <time>2020-07-02T14:13:42Z</time>
      </trkpt>
      <trkpt lat="47.91738" lon="1.91431">
        <ele>120.9</ele>
        <time>2020-07-02T14:13:43Z</time>
      </trkpt>
      <trkpt lat="47.91737" lon="1.9143">
        <ele>120.9</ele>
        <time>2020-07-02T14:13:44Z</time>
      </trkpt>
      <trkpt lat="47.91734" lon="1.9143">
        <ele>120.9</ele>
        <time>2020-07-02T14:13:45Z</time>
      </trkpt>
      <trkpt lat="47.91729" lon="1.9143">
        <ele>120.9</ele>
        <time>2020-07-02T14:13:46Z</time>
      </trkpt>
      <trkpt lat="47.91727" lon="1.9143">
        <ele>120.9</ele>
        <time>2020-07-02T14:13:47Z</time>
      </trkpt>
      <trkpt lat="47.91724" lon="1.91429">
        <ele>120.9</ele>
        <time>2020-07-02T14:13:48Z</time>
      </trkpt>
      <trkpt lat="47.91719" lon="1.91428">
        <ele>120.9</ele>
        <time>2020-07-02T14:13:49Z</time>
      </trkpt>
      <trkpt lat="47.91715" lon="1.91428">
        <ele>120.9</ele>
        <time>2020-07-02T14:13:50Z</time>
      </trkpt>
      <trkpt lat="47.91712" lon="1.91428">
        <ele>120.9</ele>
        <time>2020-07-02T14:13:51Z</time>
      </trkpt>
      <trkpt lat="47.91708" lon="1.91427">
        <ele>120.9</ele>
        <time>2020-07-02T14:13:52Z</time>
      </trkpt>
      <trkpt lat="47.91705" lon="1.91427">
        <ele>120.9</ele>
        <time>2020-07-02T14:13:53Z</time>
      </trkpt>
      <trkpt lat="47.91702" lon="1.91427">
        <ele>120.9</ele>
        <time>2020-07-02T14:13:54Z</time>
      </trkpt>
      <trkpt lat="47.91699" lon="1.91427">
        <ele>120.9</ele>
        <time>2020-07-02T14:13:55Z</time>
      </trkpt>
      <trkpt lat="47.91695" lon="1.91428">
        <ele>120.9</ele>
        <time>2020-07-02T14:13:56Z</time>
      </trkpt>
      <trkpt lat="47.91691" lon="1.91428">
        <ele>120.9</ele>
        <time>2020-07-02T14:13:57Z</time>
      </trkpt>
      <trkpt lat="47.91688" lon="1.91428">
        <ele>120.9</ele>
        <time>2020-07-02T14:13:58Z</time>
      </trkpt>
      <trkpt lat="47.91683" lon="1.91429">
        <ele>120.9</ele>
        <time>2020-07-02T14:13:59Z</time>
      </trkpt>
      <trkpt lat="47.91678" lon="1.91429">
        <ele>120.9</ele>
        <time>2020-07-02T14:14:00Z</time>
      </trkpt>
      <trkpt lat="47.91674" lon="1.91429">
        <ele>120.9</ele>
        <time>2020-07-02T14:14:01Z</time>
      </trkpt>
      <trkpt lat="47.9167" lon="1.91428">
        <ele>120.9</ele>
        <time>2020-07-02T14:14:02Z</time>
      </trkpt>
      <trkpt lat="47.91665" lon="1.91428">
        <ele>120.9</ele>
        <time>2020-07-02T14:14:03Z</time>
      </trkpt>
      <trkpt lat="47.91661" lon="1.91428">
        <ele>120.9</ele>
        <time>2020-07-02T14:14:04Z</time>
      </trkpt>
      <trkpt lat="47.91657" lon="1.91427">
        <ele>120.9</ele>
        <time>2020-07-02T14:14:05Z</time>
      </trkpt>
      <trkpt lat="47.91653" lon="1.91427">
        <ele>121</ele>
        <time>2020-07-02T14:14:06Z</time>
      </trkpt>
      <trkpt lat="47.9165" lon="1.91427">
        <ele>121</ele>
        <time>2020-07-02T14:14:07Z</time>
      </trkpt>
      <trkpt lat="47.91646" lon="1.91427">
        <ele>121</ele>
        <time>2020-07-02T14:14:08Z</time>
      </trkpt>
      <trkpt lat="47.91643" lon="1.91426">
        <ele>121</ele>
        <time>2020-07-02T14:14:09Z</time>
      </trkpt>
      <trkpt lat="47.91639" lon="1.91425">
        <ele>121.1</ele>
        <time>2020-07-02T14:14:10Z</time>
      </trkpt>
      <trkpt lat="47.91637" lon="1.91425">
        <ele>121.1</ele>
        <time>2020-07-02T14:14:11Z</time>
      </trkpt>
      <trkpt lat="47.91634" lon="1.91424">
        <ele>121.1</ele>
        <time>2020-07-02T14:14:12Z</time>
      </trkpt>
      <trkpt lat="47.91633" lon="1.91423">
        <ele>121.1</ele>
        <time>2020-07-02T14:14:13Z</time>
      </trkpt>
      <trkpt lat="47.9163" lon="1.91422">
        <ele>121.1</ele>
        <time>2020-07-02T14:14:14Z</time>
      </trkpt>
      <trkpt lat="47.91626" lon="1.91423">
        <ele>121.1</ele>
        <time>2020-07-02T14:14:15Z</time>
      </trkpt>
      <trkpt lat="47.91622" lon="1.91422">
        <ele>121.2</ele>
        <time>2020-07-02T14:14:16Z</time>
      </trkpt>
      <trkpt lat="47.91619" lon="1.91421">
        <ele>121.2</ele>
        <time>2020-07-02T14:14:17Z</time>
      </trkpt>
      <trkpt lat="47.91616" lon="1.91418">
        <ele>120.7</ele>
        <time>2020-07-02T14:14:18Z</time>
      </trkpt>
      <trkpt lat="47.91614" lon="1.91412">
        <ele>120.6</ele>
        <time>2020-07-02T14:14:19Z</time>
      </trkpt>
      <trkpt lat="47.91612" lon="1.91407">
        <ele>120.6</ele>
        <time>2020-07-02T14:14:20Z</time>
      </trkpt>
      <trkpt lat="47.9161" lon="1.91401">
        <ele>120.6</ele>
        <time>2020-07-02T14:14:21Z</time>
      </trkpt>
      <trkpt lat="47.91609" lon="1.91396">
        <ele>120.6</ele>
        <time>2020-07-02T14:14:22Z</time>
      </trkpt>
      <trkpt lat="47.91608" lon="1.91391">
        <ele>120.6</ele>
        <time>2020-07-02T14:14:23Z</time>
      </trkpt>
      <trkpt lat="47.91608" lon="1.91389">
        <ele>120.6</ele>
        <time>2020-07-02T14:14:24Z</time>
      </trkpt>
      <trkpt lat="47.91608" lon="1.91391">
        <ele>120.6</ele>
        <time>2020-07-02T14:14:25Z</time>
      </trkpt>
      <trkpt lat="47.91607" lon="1.91393">
        <ele>120.6</ele>
        <time>2020-07-02T14:14:26Z</time>
      </trkpt>
      <trkpt lat="47.91607" lon="1.91396">
        <ele>120.6</ele>
        <time>2020-07-02T14:14:27Z</time>
      </trkpt>
      <trkpt lat="47.91609" lon="1.91402">
        <ele>120.6</ele>
        <time>2020-07-02T14:14:28Z</time>
      </trkpt>
      <trkpt lat="47.91609" lon="1.91404">
        <ele>120.6</ele>
        <time>2020-07-02T14:14:29Z</time>
      </trkpt>
      <trkpt lat="47.9161" lon="1.91409">
        <ele>120.6</ele>
        <time>2020-07-02T14:14:30Z</time>
      </trkpt>
      <trkpt lat="47.9161" lon="1.91414">
        <ele>120.8</ele>
        <time>2020-07-02T14:14:31Z</time>
      </trkpt>
      <trkpt lat="47.9161" lon="1.91418">
        <ele>120.5</ele>
        <time>2020-07-02T14:14:32Z</time>
      </trkpt>
      <trkpt lat="47.91607" lon="1.91422">
        <ele>120.5</ele>
        <time>2020-07-02T14:14:33Z</time>
      </trkpt>
      <trkpt lat="47.91606" lon="1.91423">
        <ele>120.5</ele>
        <time>2020-07-02T14:14:34Z</time>
      </trkpt>
      <trkpt lat="47.91602" lon="1.91423">
        <ele>120.5</ele>
        <time>2020-07-02T14:14:35Z</time>
      </trkpt>
      <trkpt lat="47.91601" lon="1.91423">
        <ele>120.5</ele>
        <time>2020-07-02T14:14:36Z</time>
      </trkpt>
      <trkpt lat="47.91598" lon="1.91423">
        <ele>120.5</ele>
        <time>2020-07-02T14:14:37Z</time>
      </trkpt>
      <trkpt lat="47.91594" lon="1.91423">
        <ele>120.5</ele>
        <time>2020-07-02T14:14:38Z</time>
      </trkpt>
      <trkpt lat="47.9159" lon="1.91423">
        <ele>120.6</ele>
        <time>2020-07-02T14:14:39Z</time>
      </trkpt>
      <trkpt lat="47.91585" lon="1.91421">
        <ele>120.6</ele>
        <time>2020-07-02T14:14:40Z</time>
      </trkpt>
      <trkpt lat="47.91582" lon="1.9142">
        <ele>120.7</ele>
        <time>2020-07-02T14:14:41Z</time>
      </trkpt>
      <trkpt lat="47.91578" lon="1.9142">
        <ele>120.7</ele>
        <time>2020-07-02T14:14:42Z</time>
      </trkpt>
      <trkpt lat="47.91576" lon="1.9142">
        <ele>120.7</ele>
        <time>2020-07-02T14:14:43Z</time>
      </trkpt>
      <trkpt lat="47.91571" lon="1.91421">
        <ele>120.7</ele>
        <time>2020-07-02T14:14:44Z</time>
      </trkpt>
      <trkpt lat="47.91566" lon="1.91421">
        <ele>120.8</ele>
        <time>2020-07-02T14:14:45Z</time>
      </trkpt>
      <trkpt lat="47.91561" lon="1.91421">
        <ele>120.8</ele>
        <time>2020-07-02T14:14:46Z</time>
      </trkpt>
      <trkpt lat="47.91557" lon="1.9142">
        <ele>120.8</ele>
        <time>2020-07-02T14:14:47Z</time>
      </trkpt>
      <trkpt lat="47.91553" lon="1.91421">
        <ele>120.8</ele>
        <time>2020-07-02T14:14:48Z</time>
      </trkpt>
      <trkpt lat="47.91549" lon="1.91421">
        <ele>120.8</ele>
        <time>2020-07-02T14:14:49Z</time>
      </trkpt>
      <trkpt lat="47.91546" lon="1.91421">
        <ele>120.8</ele>
        <time>2020-07-02T14:14:50Z</time>
      </trkpt>
      <trkpt lat="47.91541" lon="1.91421">
        <ele>120.9</ele>
        <time>2020-07-02T14:14:51Z</time>
      </trkpt>
      <trkpt lat="47.91536" lon="1.91421">
        <ele>120.9</ele>
        <time>2020-07-02T14:14:52Z</time>
      </trkpt>
      <trkpt lat="47.9153" lon="1.91421">
        <ele>120.8</ele>
        <time>2020-07-02T14:14:53Z</time>
      </trkpt>
      <trkpt lat="47.91524" lon="1.91422">
        <ele>120.8</ele>
        <time>2020-07-02T14:14:54Z</time>
      </trkpt>
      <trkpt lat="47.91519" lon="1.91424">
        <ele>120.7</ele>
        <time>2020-07-02T14:14:55Z</time>
      </trkpt>
      <trkpt lat="47.91513" lon="1.91423">
        <ele>120.6</ele>
        <time>2020-07-02T14:14:56Z</time>
      </trkpt>
      <trkpt lat="47.91507" lon="1.91423">
        <ele>120.5</ele>
        <time>2020-07-02T14:14:57Z</time>
      </trkpt>
      <trkpt lat="47.91501" lon="1.91426">
        <ele>120.4</ele>
        <time>2020-07-02T14:14:58Z</time>
      </trkpt>
      <trkpt lat="47.91495" lon="1.91426">
        <ele>120.4</ele>
        <time>2020-07-02T14:14:59Z</time>
      </trkpt>
      <trkpt lat="47.9149" lon="1.91427">
        <ele>120.3</ele>
        <time>2020-07-02T14:15:00Z</time>
      </trkpt>
      <trkpt lat="47.91484" lon="1.91427">
        <ele>120.3</ele>
        <time>2020-07-02T14:15:01Z</time>
      </trkpt>
      <trkpt lat="47.91478" lon="1.91427">
        <ele>120.2</ele>
        <time>2020-07-02T14:15:02Z</time>
      </trkpt>
      <trkpt lat="47.91472" lon="1.91427">
        <ele>120.2</ele>
        <time>2020-07-02T14:15:03Z</time>
      </trkpt>
      <trkpt lat="47.91469" lon="1.91429">
        <ele>120.2</ele>
        <time>2020-07-02T14:15:04Z</time>
      </trkpt>
      <trkpt lat="47.91464" lon="1.91431">
        <ele>120.1</ele>
        <time>2020-07-02T14:15:05Z</time>
      </trkpt>
      <trkpt lat="47.9146" lon="1.91432">
        <ele>120.1</ele>
        <time>2020-07-02T14:15:06Z</time>
      </trkpt>
      <trkpt lat="47.91455" lon="1.91432">
        <ele>120</ele>
        <time>2020-07-02T14:15:07Z</time>
      </trkpt>
      <trkpt lat="47.9145" lon="1.91434">
        <ele>119.8</ele>
        <time>2020-07-02T14:15:08Z</time>
      </trkpt>
      <trkpt lat="47.91444" lon="1.91435">
        <ele>119.7</ele>
        <time>2020-07-02T14:15:09Z</time>
      </trkpt>
      <trkpt lat="47.91439" lon="1.91437">
        <ele>119.7</ele>
        <time>2020-07-02T14:15:10Z</time>
      </trkpt>
      <trkpt lat="47.91436" lon="1.9144">
        <ele>119.6</ele>
        <time>2020-07-02T14:15:11Z</time>
      </trkpt>
      <trkpt lat="47.9143" lon="1.91441">
        <ele>119.5</ele>
        <time>2020-07-02T14:15:12Z</time>
      </trkpt>
      <trkpt lat="47.91425" lon="1.91443">
        <ele>119.4</ele>
        <time>2020-07-02T14:15:13Z</time>
      </trkpt>
      <trkpt lat="47.9142" lon="1.91446">
        <ele>119.3</ele>
        <time>2020-07-02T14:15:14Z</time>
      </trkpt>
      <trkpt lat="47.91414" lon="1.91446">
        <ele>119.2</ele>
        <time>2020-07-02T14:15:15Z</time>
      </trkpt>
      <trkpt lat="47.91409" lon="1.91448">
        <ele>119</ele>
        <time>2020-07-02T14:15:16Z</time>
      </trkpt>
      <trkpt lat="47.91405" lon="1.91449">
        <ele>118.9</ele>
        <time>2020-07-02T14:15:17Z</time>
      </trkpt>
      <trkpt lat="47.914" lon="1.91449">
        <ele>118.8</ele>
        <time>2020-07-02T14:15:18Z</time>
      </trkpt>
      <trkpt lat="47.91395" lon="1.9145">
        <ele>118.8</ele>
        <time>2020-07-02T14:15:19Z</time>
      </trkpt>
      <trkpt lat="47.91391" lon="1.9145">
        <ele>118.8</ele>
        <time>2020-07-02T14:15:20Z</time>
      </trkpt>
      <trkpt lat="47.91387" lon="1.91452">
        <ele>118.8</ele>
        <time>2020-07-02T14:15:21Z</time>
      </trkpt>
      <trkpt lat="47.91382" lon="1.91453">
        <ele>118.7</ele>
        <time>2020-07-02T14:15:22Z</time>
      </trkpt>
      <trkpt lat="47.91378" lon="1.91454">
        <ele>118.7</ele>
        <time>2020-07-02T14:15:23Z</time>
      </trkpt>
      <trkpt lat="47.91374" lon="1.91454">
        <ele>118.7</ele>
        <time>2020-07-02T14:15:24Z</time>
      </trkpt>
      <trkpt lat="47.9137" lon="1.91456">
        <ele>118.7</ele>
        <time>2020-07-02T14:15:25Z</time>
      </trkpt>
      <trkpt lat="47.91365" lon="1.91457">
        <ele>118.7</ele>
        <time>2020-07-02T14:15:26Z</time>
      </trkpt>
      <trkpt lat="47.9136" lon="1.91458">
        <ele>118.6</ele>
        <time>2020-07-02T14:15:27Z</time>
      </trkpt>
      <trkpt lat="47.91355" lon="1.9146">
        <ele>118.6</ele>
        <time>2020-07-02T14:15:28Z</time>
      </trkpt>
      <trkpt lat="47.9135" lon="1.91462">
        <ele>118.5</ele>
        <time>2020-07-02T14:15:29Z</time>
      </trkpt>
      <trkpt lat="47.91346" lon="1.91463">
        <ele>118.4</ele>
        <time>2020-07-02T14:15:30Z</time>
      </trkpt>
      <trkpt lat="47.91343" lon="1.91462">
        <ele>118.3</ele>
        <time>2020-07-02T14:15:31Z</time>
      </trkpt>
      <trkpt lat="47.91342" lon="1.91462">
        <ele>118.3</ele>
        <time>2020-07-02T14:15:32Z</time>
      </trkpt>
      <trkpt lat="47.91338" lon="1.91461">
        <ele>118.1</ele>
        <time>2020-07-02T14:15:33Z</time>
      </trkpt>
      <trkpt lat="47.91337" lon="1.91462">
        <ele>117.8</ele>
        <time>2020-07-02T14:15:34Z</time>
      </trkpt>
      <trkpt lat="47.91333" lon="1.91465">
        <ele>117.8</ele>
        <time>2020-07-02T14:15:35Z</time>
      </trkpt>
      <trkpt lat="47.91332" lon="1.91466">
        <ele>117.8</ele>
        <time>2020-07-02T14:15:36Z</time>
      </trkpt>
      <trkpt lat="47.91329" lon="1.9147">
        <ele>117.7</ele>
        <time>2020-07-02T14:15:37Z</time>
      </trkpt>
      <trkpt lat="47.91325" lon="1.91475">
        <ele>117.6</ele>
        <time>2020-07-02T14:15:38Z</time>
      </trkpt>
      <trkpt lat="47.91321" lon="1.9148">
        <ele>117.6</ele>
        <time>2020-07-02T14:15:39Z</time>
      </trkpt>
      <trkpt lat="47.91316" lon="1.91485">
        <ele>117.5</ele>
        <time>2020-07-02T14:15:40Z</time>
      </trkpt>
      <trkpt lat="47.91312" lon="1.91489">
        <ele>117.5</ele>
        <time>2020-07-02T14:15:41Z</time>
      </trkpt>
      <trkpt lat="47.91307" lon="1.91494">
        <ele>117.4</ele>
        <time>2020-07-02T14:15:42Z</time>
      </trkpt>
      <trkpt lat="47.91302" lon="1.915">
        <ele>117.3</ele>
        <time>2020-07-02T14:15:43Z</time>
      </trkpt>
      <trkpt lat="47.91299" lon="1.91506">
        <ele>117.3</ele>
        <time>2020-07-02T14:15:44Z</time>
      </trkpt>
      <trkpt lat="47.91295" lon="1.91511">
        <ele>117.2</ele>
        <time>2020-07-02T14:15:45Z</time>
      </trkpt>
      <trkpt lat="47.91292" lon="1.91517">
        <ele>117.2</ele>
        <time>2020-07-02T14:15:46Z</time>
      </trkpt>
      <trkpt lat="47.91288" lon="1.91522">
        <ele>117.2</ele>
        <time>2020-07-02T14:15:47Z</time>
      </trkpt>
      <trkpt lat="47.91283" lon="1.91527">
        <ele>117.1</ele>
        <time>2020-07-02T14:15:48Z</time>
      </trkpt>
      <trkpt lat="47.91278" lon="1.91532">
        <ele>117.1</ele>
        <time>2020-07-02T14:15:49Z</time>
      </trkpt>
      <trkpt lat="47.91274" lon="1.91538">
        <ele>117</ele>
        <time>2020-07-02T14:15:50Z</time>
      </trkpt>
      <trkpt lat="47.9127" lon="1.91542">
        <ele>117</ele>
        <time>2020-07-02T14:15:51Z</time>
      </trkpt>
      <trkpt lat="47.91267" lon="1.91544">
        <ele>117</ele>
        <time>2020-07-02T14:15:52Z</time>
      </trkpt>
      <trkpt lat="47.91264" lon="1.91546">
        <ele>117</ele>
        <time>2020-07-02T14:15:53Z</time>
      </trkpt>
      <trkpt lat="47.91261" lon="1.91546">
        <ele>117</ele>
        <time>2020-07-02T14:15:54Z</time>
      </trkpt>
      <trkpt lat="47.91261" lon="1.91547">
        <ele>117</ele>
        <time>2020-07-02T14:15:55Z</time>
      </trkpt>
      <trkpt lat="47.91261" lon="1.91544">
        <ele>117</ele>
        <time>2020-07-02T14:15:56Z</time>
      </trkpt>
      <trkpt lat="47.91262" lon="1.91543">
        <ele>117</ele>
        <time>2020-07-02T14:15:57Z</time>
      </trkpt>
      <trkpt lat="47.91262" lon="1.91541">
        <ele>117</ele>
        <time>2020-07-02T14:15:58Z</time>
      </trkpt>
      <trkpt lat="47.91264" lon="1.91535">
        <ele>117.1</ele>
        <time>2020-07-02T14:15:59Z</time>
      </trkpt>
      <trkpt lat="47.91265" lon="1.91529">
        <ele>117.1</ele>
        <time>2020-07-02T14:16:00Z</time>
      </trkpt>
      <trkpt lat="47.91266" lon="1.91521">
        <ele>117.1</ele>
        <time>2020-07-02T14:16:01Z</time>
      </trkpt>
      <trkpt lat="47.91266" lon="1.91513">
        <ele>117.2</ele>
        <time>2020-07-02T14:16:02Z</time>
      </trkpt>
      <trkpt lat="47.91267" lon="1.91506">
        <ele>117.2</ele>
        <time>2020-07-02T14:16:03Z</time>
      </trkpt>
      <trkpt lat="47.91268" lon="1.91498">
        <ele>117.2</ele>
        <time>2020-07-02T14:16:04Z</time>
      </trkpt>
      <trkpt lat="47.91269" lon="1.9149">
        <ele>117.2</ele>
        <time>2020-07-02T14:16:05Z</time>
      </trkpt>
      <trkpt lat="47.91271" lon="1.91482">
        <ele>117.2</ele>
        <time>2020-07-02T14:16:06Z</time>
      </trkpt>
      <trkpt lat="47.91273" lon="1.91473">
        <ele>117.2</ele>
        <time>2020-07-02T14:16:07Z</time>
      </trkpt>
      <trkpt lat="47.91273" lon="1.91463">
        <ele>117.1</ele>
        <time>2020-07-02T14:16:08Z</time>
      </trkpt>
      <trkpt lat="47.91274" lon="1.91453">
        <ele>117.2</ele>
        <time>2020-07-02T14:16:09Z</time>
      </trkpt>
      <trkpt lat="47.91275" lon="1.91443">
        <ele>117.2</ele>
        <time>2020-07-02T14:16:10Z</time>
      </trkpt>
      <trkpt lat="47.91276" lon="1.91435">
        <ele>117.2</ele>
        <time>2020-07-02T14:16:11Z</time>
      </trkpt>
      <trkpt lat="47.91277" lon="1.91427">
        <ele>117.2</ele>
        <time>2020-07-02T14:16:12Z</time>
      </trkpt>
      <trkpt lat="47.91277" lon="1.9142">
        <ele>117.1</ele>
        <time>2020-07-02T14:16:13Z</time>
      </trkpt>
      <trkpt lat="47.91279" lon="1.91412">
        <ele>117.1</ele>
        <time>2020-07-02T14:16:14Z</time>
      </trkpt>
      <trkpt lat="47.91279" lon="1.91404">
        <ele>117.1</ele>
        <time>2020-07-02T14:16:15Z</time>
      </trkpt>
      <trkpt lat="47.9128" lon="1.91395">
        <ele>117.2</ele>
        <time>2020-07-02T14:16:16Z</time>
      </trkpt>
      <trkpt lat="47.91282" lon="1.91385">
        <ele>117.2</ele>
        <time>2020-07-02T14:16:17Z</time>
      </trkpt>
      <trkpt lat="47.91283" lon="1.91375">
        <ele>117.3</ele>
        <time>2020-07-02T14:16:18Z</time>
      </trkpt>
      <trkpt lat="47.91284" lon="1.91365">
        <ele>117.4</ele>
        <time>2020-07-02T14:16:19Z</time>
      </trkpt>
      <trkpt lat="47.91285" lon="1.91357">
        <ele>117.5</ele>
        <time>2020-07-02T14:16:20Z</time>
      </trkpt>
      <trkpt lat="47.91286" lon="1.9135">
        <ele>117.5</ele>
        <time>2020-07-02T14:16:21Z</time>
      </trkpt>
      <trkpt lat="47.91287" lon="1.91343">
        <ele>117.6</ele>
        <time>2020-07-02T14:16:22Z</time>
      </trkpt>
      <trkpt lat="47.91288" lon="1.91337">
        <ele>117.7</ele>
        <time>2020-07-02T14:16:23Z</time>
      </trkpt>
      <trkpt lat="47.91288" lon="1.91332">
        <ele>117.7</ele>
        <time>2020-07-02T14:16:24Z</time>
      </trkpt>
      <trkpt lat="47.91287" lon="1.91327">
        <ele>117.8</ele>
        <time>2020-07-02T14:16:25Z</time>
      </trkpt>
      <trkpt lat="47.91286" lon="1.91322">
        <ele>117.9</ele>
        <time>2020-07-02T14:16:26Z</time>
      </trkpt>
      <trkpt lat="47.91286" lon="1.91317">
        <ele>117.9</ele>
        <time>2020-07-02T14:16:27Z</time>
      </trkpt>
      <trkpt lat="47.91285" lon="1.91311">
        <ele>118</ele>
        <time>2020-07-02T14:16:28Z</time>
      </trkpt>
      <trkpt lat="47.91284" lon="1.91306">
        <ele>118.1</ele>
        <time>2020-07-02T14:16:29Z</time>
      </trkpt>
      <trkpt lat="47.91283" lon="1.91301">
        <ele>118.2</ele>
        <time>2020-07-02T14:16:30Z</time>
      </trkpt>
      <trkpt lat="47.91284" lon="1.91296">
        <ele>118.2</ele>
        <time>2020-07-02T14:16:31Z</time>
      </trkpt>
      <trkpt lat="47.91284" lon="1.91291">
        <ele>118.3</ele>
        <time>2020-07-02T14:16:32Z</time>
      </trkpt>
      <trkpt lat="47.91284" lon="1.91287">
        <ele>118.3</ele>
        <time>2020-07-02T14:16:33Z</time>
      </trkpt>
      <trkpt lat="47.91284" lon="1.91282">
        <ele>118.4</ele>
        <time>2020-07-02T14:16:34Z</time>
      </trkpt>
      <trkpt lat="47.91286" lon="1.91276">
        <ele>118.4</ele>
        <time>2020-07-02T14:16:35Z</time>
      </trkpt>
      <trkpt lat="47.91286" lon="1.91273">
        <ele>118.5</ele>
        <time>2020-07-02T14:16:36Z</time>
      </trkpt>
      <trkpt lat="47.91287" lon="1.91267">
        <ele>118.6</ele>
        <time>2020-07-02T14:16:37Z</time>
      </trkpt>
      <trkpt lat="47.91288" lon="1.9126">
        <ele>118.7</ele>
        <time>2020-07-02T14:16:38Z</time>
      </trkpt>
      <trkpt lat="47.91288" lon="1.91254">
        <ele>118.8</ele>
        <time>2020-07-02T14:16:39Z</time>
      </trkpt>
      <trkpt lat="47.91289" lon="1.91248">
        <ele>118.9</ele>
        <time>2020-07-02T14:16:40Z</time>
      </trkpt>
      <trkpt lat="47.9129" lon="1.91242">
        <ele>119</ele>
        <time>2020-07-02T14:16:41Z</time>
      </trkpt>
      <trkpt lat="47.91292" lon="1.91235">
        <ele>119.2</ele>
        <time>2020-07-02T14:16:42Z</time>
      </trkpt>
      <trkpt lat="47.91293" lon="1.91228">
        <ele>119.2</ele>
        <time>2020-07-02T14:16:43Z</time>
      </trkpt>
      <trkpt lat="47.91294" lon="1.91219">
        <ele>119.1</ele>
        <time>2020-07-02T14:16:44Z</time>
      </trkpt>
      <trkpt lat="47.91297" lon="1.91214">
        <ele>119.1</ele>
        <time>2020-07-02T14:16:45Z</time>
      </trkpt>
      <trkpt lat="47.91298" lon="1.91207">
        <ele>119.1</ele>
        <time>2020-07-02T14:16:46Z</time>
      </trkpt>
      <trkpt lat="47.913" lon="1.91199">
        <ele>119</ele>
        <time>2020-07-02T14:16:47Z</time>
      </trkpt>
      <trkpt lat="47.91299" lon="1.9119">
        <ele>119.1</ele>
        <time>2020-07-02T14:16:48Z</time>
      </trkpt>
      <trkpt lat="47.91301" lon="1.91183">
        <ele>119.1</ele>
        <time>2020-07-02T14:16:49Z</time>
      </trkpt>
      <trkpt lat="47.913" lon="1.91175">
        <ele>119.1</ele>
        <time>2020-07-02T14:16:50Z</time>
      </trkpt>
      <trkpt lat="47.91301" lon="1.91167">
        <ele>119.2</ele>
        <time>2020-07-02T14:16:51Z</time>
      </trkpt>
      <trkpt lat="47.91302" lon="1.9116">
        <ele>119.2</ele>
        <time>2020-07-02T14:16:52Z</time>
      </trkpt>
      <trkpt lat="47.91303" lon="1.91153">
        <ele>119.3</ele>
        <time>2020-07-02T14:16:53Z</time>
      </trkpt>
      <trkpt lat="47.91304" lon="1.91145">
        <ele>119.3</ele>
        <time>2020-07-02T14:16:54Z</time>
      </trkpt>
      <trkpt lat="47.91305" lon="1.91136">
        <ele>119.4</ele>
        <time>2020-07-02T14:16:55Z</time>
      </trkpt>
      <trkpt lat="47.91305" lon="1.91129">
        <ele>119.5</ele>
        <time>2020-07-02T14:16:56Z</time>
      </trkpt>
      <trkpt lat="47.91306" lon="1.91122">
        <ele>119.5</ele>
        <time>2020-07-02T14:16:57Z</time>
      </trkpt>
      <trkpt lat="47.91308" lon="1.91117">
        <ele>119.6</ele>
        <time>2020-07-02T14:16:58Z</time>
      </trkpt>
      <trkpt lat="47.9131" lon="1.91112">
        <ele>119.6</ele>
        <time>2020-07-02T14:16:59Z</time>
      </trkpt>
      <trkpt lat="47.91312" lon="1.91106">
        <ele>119.7</ele>
        <time>2020-07-02T14:17:00Z</time>
      </trkpt>
      <trkpt lat="47.91313" lon="1.911">
        <ele>119.7</ele>
        <time>2020-07-02T14:17:01Z</time>
      </trkpt>
      <trkpt lat="47.91314" lon="1.91093">
        <ele>119.8</ele>
        <time>2020-07-02T14:17:02Z</time>
      </trkpt>
      <trkpt lat="47.91316" lon="1.91086">
        <ele>119.9</ele>
        <time>2020-07-02T14:17:03Z</time>
      </trkpt>
      <trkpt lat="47.91317" lon="1.9108">
        <ele>119.9</ele>
        <time>2020-07-02T14:17:04Z</time>
      </trkpt>
      <trkpt lat="47.91318" lon="1.91071">
        <ele>120</ele>
        <time>2020-07-02T14:17:05Z</time>
      </trkpt>
      <trkpt lat="47.91318" lon="1.91063">
        <ele>120</ele>
        <time>2020-07-02T14:17:06Z</time>
      </trkpt>
      <trkpt lat="47.9132" lon="1.91056">
        <ele>120.1</ele>
        <time>2020-07-02T14:17:07Z</time>
      </trkpt>
      <trkpt lat="47.91321" lon="1.9105">
        <ele>120.1</ele>
        <time>2020-07-02T14:17:08Z</time>
      </trkpt>
      <trkpt lat="47.91322" lon="1.91044">
        <ele>120.2</ele>
        <time>2020-07-02T14:17:09Z</time>
      </trkpt>
      <trkpt lat="47.91324" lon="1.91037">
        <ele>120.2</ele>
        <time>2020-07-02T14:17:10Z</time>
      </trkpt>
      <trkpt lat="47.91326" lon="1.9103">
        <ele>120.2</ele>
        <time>2020-07-02T14:17:11Z</time>
      </trkpt>
      <trkpt lat="47.91329" lon="1.91023">
        <ele>120.3</ele>
        <time>2020-07-02T14:17:12Z</time>
      </trkpt>
      <trkpt lat="47.91331" lon="1.91018">
        <ele>120.4</ele>
        <time>2020-07-02T14:17:13Z</time>
      </trkpt>
      <trkpt lat="47.91334" lon="1.91012">
        <ele>120.5</ele>
        <time>2020-07-02T14:17:14Z</time>
      </trkpt>
      <trkpt lat="47.91337" lon="1.91005">
        <ele>120.7</ele>
        <time>2020-07-02T14:17:15Z</time>
      </trkpt>
      <trkpt lat="47.91338" lon="1.90998">
        <ele>120.8</ele>
        <time>2020-07-02T14:17:16Z</time>
      </trkpt>
      <trkpt lat="47.91341" lon="1.90993">
        <ele>120.9</ele>
        <time>2020-07-02T14:17:17Z</time>
      </trkpt>
      <trkpt lat="47.91342" lon="1.90987">
        <ele>121</ele>
        <time>2020-07-02T14:17:18Z</time>
      </trkpt>
      <trkpt lat="47.91342" lon="1.90981">
        <ele>121</ele>
        <time>2020-07-02T14:17:19Z</time>
      </trkpt>
      <trkpt lat="47.91339" lon="1.90976">
        <ele>120.9</ele>
        <time>2020-07-02T14:17:20Z</time>
      </trkpt>
      <trkpt lat="47.91336" lon="1.90972">
        <ele>120.7</ele>
        <time>2020-07-02T14:17:21Z</time>
      </trkpt>
      <trkpt lat="47.91332" lon="1.90969">
        <ele>120.5</ele>
        <time>2020-07-02T14:17:22Z</time>
      </trkpt>
      <trkpt lat="47.91327" lon="1.90966">
        <ele>120.2</ele>
        <time>2020-07-02T14:17:23Z</time>
      </trkpt>
      <trkpt lat="47.91322" lon="1.90962">
        <ele>119.9</ele>
        <time>2020-07-02T14:17:24Z</time>
      </trkpt>
      <trkpt lat="47.91315" lon="1.90958">
        <ele>119.4</ele>
        <time>2020-07-02T14:17:25Z</time>
      </trkpt>
      <trkpt lat="47.91309" lon="1.90954">
        <ele>119.3</ele>
        <time>2020-07-02T14:17:26Z</time>
      </trkpt>
      <trkpt lat="47.91304" lon="1.9095">
        <ele>119.2</ele>
        <time>2020-07-02T14:17:27Z</time>
      </trkpt>
      <trkpt lat="47.91299" lon="1.90947">
        <ele>119.1</ele>
        <time>2020-07-02T14:17:28Z</time>
      </trkpt>
      <trkpt lat="47.91294" lon="1.90944">
        <ele>119</ele>
        <time>2020-07-02T14:17:29Z</time>
      </trkpt>
      <trkpt lat="47.91289" lon="1.90941">
        <ele>118.9</ele>
        <time>2020-07-02T14:17:30Z</time>
      </trkpt>
      <trkpt lat="47.91283" lon="1.90938">
        <ele>118.8</ele>
        <time>2020-07-02T14:17:31Z</time>
      </trkpt>
      <trkpt lat="47.91277" lon="1.90934">
        <ele>118.7</ele>
        <time>2020-07-02T14:17:32Z</time>
      </trkpt>
      <trkpt lat="47.91272" lon="1.90932">
        <ele>118.6</ele>
        <time>2020-07-02T14:17:33Z</time>
      </trkpt>
      <trkpt lat="47.91266" lon="1.90928">
        <ele>118.5</ele>
        <time>2020-07-02T14:17:34Z</time>
      </trkpt>
      <trkpt lat="47.9126" lon="1.90924">
        <ele>118.5</ele>
        <time>2020-07-02T14:17:35Z</time>
      </trkpt>
      <trkpt lat="47.91254" lon="1.90921">
        <ele>118.4</ele>
        <time>2020-07-02T14:17:36Z</time>
      </trkpt>
      <trkpt lat="47.91248" lon="1.90917">
        <ele>118.3</ele>
        <time>2020-07-02T14:17:37Z</time>
      </trkpt>
      <trkpt lat="47.91242" lon="1.90913">
        <ele>118.3</ele>
        <time>2020-07-02T14:17:38Z</time>
      </trkpt>
      <trkpt lat="47.91234" lon="1.9091">
        <ele>118.2</ele>
        <time>2020-07-02T14:17:39Z</time>
      </trkpt>
      <trkpt lat="47.91228" lon="1.90908">
        <ele>118.1</ele>
        <time>2020-07-02T14:17:40Z</time>
      </trkpt>
      <trkpt lat="47.91222" lon="1.90907">
        <ele>118</ele>
        <time>2020-07-02T14:17:41Z</time>
      </trkpt>
      <trkpt lat="47.91215" lon="1.90904">
        <ele>117.8</ele>
        <time>2020-07-02T14:17:42Z</time>
      </trkpt>
      <trkpt lat="47.91209" lon="1.90898">
        <ele>117.6</ele>
        <time>2020-07-02T14:17:43Z</time>
      </trkpt>
      <trkpt lat="47.91202" lon="1.90894">
        <ele>117.5</ele>
        <time>2020-07-02T14:17:44Z</time>
      </trkpt>
      <trkpt lat="47.91196" lon="1.90889">
        <ele>117.4</ele>
        <time>2020-07-02T14:17:45Z</time>
      </trkpt>
      <trkpt lat="47.9119" lon="1.90886">
        <ele>117.3</ele>
        <time>2020-07-02T14:17:46Z</time>
      </trkpt>
      <trkpt lat="47.91185" lon="1.90883">
        <ele>117.2</ele>
        <time>2020-07-02T14:17:47Z</time>
      </trkpt>
      <trkpt lat="47.91182" lon="1.9088">
        <ele>117.2</ele>
        <time>2020-07-02T14:17:48Z</time>
      </trkpt>
      <trkpt lat="47.91179" lon="1.90876">
        <ele>117.1</ele>
        <time>2020-07-02T14:17:49Z</time>
      </trkpt>
      <trkpt lat="47.91176" lon="1.90874">
        <ele>117.1</ele>
        <time>2020-07-02T14:17:50Z</time>
      </trkpt>
      <trkpt lat="47.91172" lon="1.90872">
        <ele>117.1</ele>
        <time>2020-07-02T14:17:51Z</time>
      </trkpt>
      <trkpt lat="47.91168" lon="1.9087">
        <ele>117.2</ele>
        <time>2020-07-02T14:17:52Z</time>
      </trkpt>
      <trkpt lat="47.91164" lon="1.90867">
        <ele>117.2</ele>
        <time>2020-07-02T14:17:53Z</time>
      </trkpt>
      <trkpt lat="47.9116" lon="1.90863">
        <ele>117.3</ele>
        <time>2020-07-02T14:17:54Z</time>
      </trkpt>
      <trkpt lat="47.91155" lon="1.90865">
        <ele>117.3</ele>
        <time>2020-07-02T14:17:55Z</time>
      </trkpt>
      <trkpt lat="47.9115" lon="1.90862">
        <ele>117.4</ele>
        <time>2020-07-02T14:17:56Z</time>
      </trkpt>
      <trkpt lat="47.91145" lon="1.90858">
        <ele>117.5</ele>
        <time>2020-07-02T14:17:57Z</time>
      </trkpt>
      <trkpt lat="47.91139" lon="1.90854">
        <ele>117.4</ele>
        <time>2020-07-02T14:17:58Z</time>
      </trkpt>
      <trkpt lat="47.91133" lon="1.90849">
        <ele>117</ele>
        <time>2020-07-02T14:17:59Z</time>
      </trkpt>
      <trkpt lat="47.91127" lon="1.90845">
        <ele>116.7</ele>
        <time>2020-07-02T14:18:00Z</time>
      </trkpt>
      <trkpt lat="47.9112" lon="1.9084">
        <ele>116.6</ele>
        <time>2020-07-02T14:18:01Z</time>
      </trkpt>
      <trkpt lat="47.91112" lon="1.90836">
        <ele>116.5</ele>
        <time>2020-07-02T14:18:02Z</time>
      </trkpt>
      <trkpt lat="47.91106" lon="1.90832">
        <ele>116.5</ele>
        <time>2020-07-02T14:18:03Z</time>
      </trkpt>
      <trkpt lat="47.91099" lon="1.90828">
        <ele>116.5</ele>
        <time>2020-07-02T14:18:04Z</time>
      </trkpt>
      <trkpt lat="47.91092" lon="1.90824">
        <ele>116.4</ele>
        <time>2020-07-02T14:18:05Z</time>
      </trkpt>
      <trkpt lat="47.91086" lon="1.9082">
        <ele>116.4</ele>
        <time>2020-07-02T14:18:06Z</time>
      </trkpt>
      <trkpt lat="47.91079" lon="1.90816">
        <ele>116.4</ele>
        <time>2020-07-02T14:18:07Z</time>
      </trkpt>
      <trkpt lat="47.91073" lon="1.90812">
        <ele>116.4</ele>
        <time>2020-07-02T14:18:08Z</time>
      </trkpt>
      <trkpt lat="47.91068" lon="1.90808">
        <ele>116.3</ele>
        <time>2020-07-02T14:18:09Z</time>
      </trkpt>
      <trkpt lat="47.91062" lon="1.90804">
        <ele>116.4</ele>
        <time>2020-07-02T14:18:10Z</time>
      </trkpt>
      <trkpt lat="47.91057" lon="1.90801">
        <ele>116.4</ele>
        <time>2020-07-02T14:18:11Z</time>
      </trkpt>
      <trkpt lat="47.91051" lon="1.90797">
        <ele>116.3</ele>
        <time>2020-07-02T14:18:12Z</time>
      </trkpt>
      <trkpt lat="47.91045" lon="1.90793">
        <ele>116.3</ele>
        <time>2020-07-02T14:18:13Z</time>
      </trkpt>
      <trkpt lat="47.91039" lon="1.9079">
        <ele>116.3</ele>
        <time>2020-07-02T14:18:14Z</time>
      </trkpt>
      <trkpt lat="47.91033" lon="1.90787">
        <ele>116.3</ele>
        <time>2020-07-02T14:18:15Z</time>
      </trkpt>
      <trkpt lat="47.91027" lon="1.90783">
        <ele>116.3</ele>
        <time>2020-07-02T14:18:16Z</time>
      </trkpt>
      <trkpt lat="47.9102" lon="1.9078">
        <ele>116.3</ele>
        <time>2020-07-02T14:18:17Z</time>
      </trkpt>
      <trkpt lat="47.91013" lon="1.90776">
        <ele>116.3</ele>
        <time>2020-07-02T14:18:18Z</time>
      </trkpt>
      <trkpt lat="47.91007" lon="1.90772">
        <ele>116.4</ele>
        <time>2020-07-02T14:18:19Z</time>
      </trkpt>
      <trkpt lat="47.91001" lon="1.90768">
        <ele>116.4</ele>
        <time>2020-07-02T14:18:20Z</time>
      </trkpt>
      <trkpt lat="47.90994" lon="1.90765">
        <ele>116.3</ele>
        <time>2020-07-02T14:18:21Z</time>
      </trkpt>
      <trkpt lat="47.90988" lon="1.90761">
        <ele>116.3</ele>
        <time>2020-07-02T14:18:22Z</time>
      </trkpt>
      <trkpt lat="47.90983" lon="1.90758">
        <ele>116.2</ele>
        <time>2020-07-02T14:18:23Z</time>
      </trkpt>
      <trkpt lat="47.90977" lon="1.90755">
        <ele>116.2</ele>
        <time>2020-07-02T14:18:24Z</time>
      </trkpt>
      <trkpt lat="47.90972" lon="1.90752">
        <ele>116.2</ele>
        <time>2020-07-02T14:18:25Z</time>
      </trkpt>
      <trkpt lat="47.90967" lon="1.90749">
        <ele>116.2</ele>
        <time>2020-07-02T14:18:26Z</time>
      </trkpt>
      <trkpt lat="47.90961" lon="1.90747">
        <ele>116.2</ele>
        <time>2020-07-02T14:18:27Z</time>
      </trkpt>
      <trkpt lat="47.90955" lon="1.90745">
        <ele>116.2</ele>
        <time>2020-07-02T14:18:28Z</time>
      </trkpt>
      <trkpt lat="47.9095" lon="1.90742">
        <ele>116.2</ele>
        <time>2020-07-02T14:18:29Z</time>
      </trkpt>
      <trkpt lat="47.90944" lon="1.90739">
        <ele>116.2</ele>
        <time>2020-07-02T14:18:30Z</time>
      </trkpt>
      <trkpt lat="47.90938" lon="1.90736">
        <ele>116.3</ele>
        <time>2020-07-02T14:18:31Z</time>
      </trkpt>
      <trkpt lat="47.90932" lon="1.90736">
        <ele>116.3</ele>
        <time>2020-07-02T14:18:32Z</time>
      </trkpt>
      <trkpt lat="47.90927" lon="1.90732">
        <ele>116.3</ele>
        <time>2020-07-02T14:18:33Z</time>
      </trkpt>
      <trkpt lat="47.90921" lon="1.9073">
        <ele>116.3</ele>
        <time>2020-07-02T14:18:34Z</time>
      </trkpt>
      <trkpt lat="47.90916" lon="1.90727">
        <ele>116.3</ele>
        <time>2020-07-02T14:18:35Z</time>
      </trkpt>
      <trkpt lat="47.90911" lon="1.90725">
        <ele>116.3</ele>
        <time>2020-07-02T14:18:36Z</time>
      </trkpt>
      <trkpt lat="47.90906" lon="1.90722">
        <ele>116.2</ele>
        <time>2020-07-02T14:18:37Z</time>
      </trkpt>
      <trkpt lat="47.90902" lon="1.90719">
        <ele>116.2</ele>
        <time>2020-07-02T14:18:38Z</time>
      </trkpt>
      <trkpt lat="47.90896" lon="1.90716">
        <ele>116.2</ele>
        <time>2020-07-02T14:18:39Z</time>
      </trkpt>
      <trkpt lat="47.90891" lon="1.90712">
        <ele>116.2</ele>
        <time>2020-07-02T14:18:40Z</time>
      </trkpt>
      <trkpt lat="47.90886" lon="1.90709">
        <ele>116.2</ele>
        <time>2020-07-02T14:18:41Z</time>
      </trkpt>
      <trkpt lat="47.90881" lon="1.90706">
        <ele>116.2</ele>
        <time>2020-07-02T14:18:42Z</time>
      </trkpt>
      <trkpt lat="47.90876" lon="1.90703">
        <ele>116.3</ele>
        <time>2020-07-02T14:18:43Z</time>
      </trkpt>
      <trkpt lat="47.90872" lon="1.90699">
        <ele>116.3</ele>
        <time>2020-07-02T14:18:44Z</time>
      </trkpt>
      <trkpt lat="47.90867" lon="1.90697">
        <ele>116.3</ele>
        <time>2020-07-02T14:18:45Z</time>
      </trkpt>
      <trkpt lat="47.90863" lon="1.90695">
        <ele>116.4</ele>
        <time>2020-07-02T14:18:46Z</time>
      </trkpt>
      <trkpt lat="47.90859" lon="1.90691">
        <ele>116.4</ele>
        <time>2020-07-02T14:18:47Z</time>
      </trkpt>
      <trkpt lat="47.90855" lon="1.9069">
        <ele>116.5</ele>
        <time>2020-07-02T14:18:48Z</time>
      </trkpt>
      <trkpt lat="47.90852" lon="1.90689">
        <ele>116.5</ele>
        <time>2020-07-02T14:18:49Z</time>
      </trkpt>
      <trkpt lat="47.9085" lon="1.90689">
        <ele>116.5</ele>
        <time>2020-07-02T14:18:50Z</time>
      </trkpt>
      <trkpt lat="47.90848" lon="1.90689">
        <ele>116.5</ele>
        <time>2020-07-02T14:18:51Z</time>
      </trkpt>
      <trkpt lat="47.90845" lon="1.90689">
        <ele>116.5</ele>
        <time>2020-07-02T14:18:52Z</time>
      </trkpt>
      <trkpt lat="47.90844" lon="1.90689">
        <ele>116.4</ele>
        <time>2020-07-02T14:18:53Z</time>
      </trkpt>
      <trkpt lat="47.9084" lon="1.9069">
        <ele>116.4</ele>
        <time>2020-07-02T14:18:54Z</time>
      </trkpt>
      <trkpt lat="47.90836" lon="1.90688">
        <ele>116.4</ele>
        <time>2020-07-02T14:18:55Z</time>
      </trkpt>
      <trkpt lat="47.90832" lon="1.90687">
        <ele>116.3</ele>
        <time>2020-07-02T14:18:56Z</time>
      </trkpt>
      <trkpt lat="47.90826" lon="1.90685">
        <ele>116.2</ele>
        <time>2020-07-02T14:18:57Z</time>
      </trkpt>
      <trkpt lat="47.9082" lon="1.90683">
        <ele>116.1</ele>
        <time>2020-07-02T14:18:58Z</time>
      </trkpt>
      <trkpt lat="47.90814" lon="1.90681">
        <ele>116</ele>
        <time>2020-07-02T14:18:59Z</time>
      </trkpt>
      <trkpt lat="47.90808" lon="1.9068">
        <ele>116</ele>
        <time>2020-07-02T14:19:00Z</time>
      </trkpt>
      <trkpt lat="47.90802" lon="1.90681">
        <ele>115.9</ele>
        <time>2020-07-02T14:19:01Z</time>
      </trkpt>
      <trkpt lat="47.90796" lon="1.90681">
        <ele>115.9</ele>
        <time>2020-07-02T14:19:02Z</time>
      </trkpt>
      <trkpt lat="47.90791" lon="1.90681">
        <ele>115.9</ele>
        <time>2020-07-02T14:19:03Z</time>
      </trkpt>
      <trkpt lat="47.90786" lon="1.9068">
        <ele>115.8</ele>
        <time>2020-07-02T14:19:04Z</time>
      </trkpt>
      <trkpt lat="47.90781" lon="1.90678">
        <ele>115.8</ele>
        <time>2020-07-02T14:19:05Z</time>
      </trkpt>
      <trkpt lat="47.90777" lon="1.90675">
        <ele>115.8</ele>
        <time>2020-07-02T14:19:06Z</time>
      </trkpt>
      <trkpt lat="47.90771" lon="1.90671">
        <ele>115.8</ele>
        <time>2020-07-02T14:19:07Z</time>
      </trkpt>
      <trkpt lat="47.90766" lon="1.90664">
        <ele>115.8</ele>
        <time>2020-07-02T14:19:08Z</time>
      </trkpt>
      <trkpt lat="47.90762" lon="1.90657">
        <ele>115.7</ele>
        <time>2020-07-02T14:19:09Z</time>
      </trkpt>
      <trkpt lat="47.90757" lon="1.90651">
        <ele>115.6</ele>
        <time>2020-07-02T14:19:10Z</time>
      </trkpt>
      <trkpt lat="47.90751" lon="1.90647">
        <ele>115.7</ele>
        <time>2020-07-02T14:19:11Z</time>
      </trkpt>
      <trkpt lat="47.90746" lon="1.90643">
        <ele>115.7</ele>
        <time>2020-07-02T14:19:12Z</time>
      </trkpt>
      <trkpt lat="47.90741" lon="1.90637">
        <ele>115.6</ele>
        <time>2020-07-02T14:19:13Z</time>
      </trkpt>
      <trkpt lat="47.90736" lon="1.90634">
        <ele>115.6</ele>
        <time>2020-07-02T14:19:14Z</time>
      </trkpt>
      <trkpt lat="47.90731" lon="1.90628">
        <ele>115.5</ele>
        <time>2020-07-02T14:19:15Z</time>
      </trkpt>
      <trkpt lat="47.90726" lon="1.90626">
        <ele>115.5</ele>
        <time>2020-07-02T14:19:16Z</time>
      </trkpt>
      <trkpt lat="47.90722" lon="1.90621">
        <ele>115.5</ele>
        <time>2020-07-02T14:19:17Z</time>
      </trkpt>
      <trkpt lat="47.90717" lon="1.90619">
        <ele>115.5</ele>
        <time>2020-07-02T14:19:18Z</time>
      </trkpt>
      <trkpt lat="47.90712" lon="1.90615">
        <ele>115.5</ele>
        <time>2020-07-02T14:19:19Z</time>
      </trkpt>
      <trkpt lat="47.90708" lon="1.90611">
        <ele>115.6</ele>
        <time>2020-07-02T14:19:20Z</time>
      </trkpt>
      <trkpt lat="47.90705" lon="1.90608">
        <ele>115.6</ele>
        <time>2020-07-02T14:19:21Z</time>
      </trkpt>
      <trkpt lat="47.90701" lon="1.90606">
        <ele>115.6</ele>
        <time>2020-07-02T14:19:22Z</time>
      </trkpt>
      <trkpt lat="47.90698" lon="1.90604">
        <ele>115.6</ele>
        <time>2020-07-02T14:19:23Z</time>
      </trkpt>
      <trkpt lat="47.90694" lon="1.90602">
        <ele>115.6</ele>
        <time>2020-07-02T14:19:24Z</time>
      </trkpt>
      <trkpt lat="47.90691" lon="1.90601">
        <ele>115.6</ele>
        <time>2020-07-02T14:19:25Z</time>
      </trkpt>
      <trkpt lat="47.90688" lon="1.90598">
        <ele>115.7</ele>
        <time>2020-07-02T14:19:26Z</time>
      </trkpt>
      <trkpt lat="47.90687" lon="1.90596">
        <ele>115.7</ele>
        <time>2020-07-02T14:19:27Z</time>
      </trkpt>
      <trkpt lat="47.90684" lon="1.90594">
        <ele>115.7</ele>
        <time>2020-07-02T14:19:28Z</time>
      </trkpt>
      <trkpt lat="47.90681" lon="1.90592">
        <ele>115.7</ele>
        <time>2020-07-02T14:19:29Z</time>
      </trkpt>
      <trkpt lat="47.9068" lon="1.90591">
        <ele>115.8</ele>
        <time>2020-07-02T14:19:30Z</time>
      </trkpt>
      <trkpt lat="47.90677" lon="1.90588">
        <ele>115.9</ele>
        <time>2020-07-02T14:19:31Z</time>
      </trkpt>
      <trkpt lat="47.90675" lon="1.90588">
        <ele>115.9</ele>
        <time>2020-07-02T14:19:32Z</time>
      </trkpt>
      <trkpt lat="47.90673" lon="1.90583">
        <ele>115.9</ele>
        <time>2020-07-02T14:19:33Z</time>
      </trkpt>
      <trkpt lat="47.90673" lon="1.90581">
        <ele>115.9</ele>
        <time>2020-07-02T14:19:34Z</time>
      </trkpt>
      <trkpt lat="47.90671" lon="1.90575">
        <ele>115.9</ele>
        <time>2020-07-02T14:19:35Z</time>
      </trkpt>
      <trkpt lat="47.90671" lon="1.90569">
        <ele>116</ele>
        <time>2020-07-02T14:19:36Z</time>
      </trkpt>
      <trkpt lat="47.9067" lon="1.90562">
        <ele>116</ele>
        <time>2020-07-02T14:19:37Z</time>
      </trkpt>
      <trkpt lat="47.90671" lon="1.90555">
        <ele>115.9</ele>
        <time>2020-07-02T14:19:38Z</time>
      </trkpt>
      <trkpt lat="47.90672" lon="1.90549">
        <ele>116</ele>
        <time>2020-07-02T14:19:39Z</time>
      </trkpt>
      <trkpt lat="47.90674" lon="1.90541">
        <ele>116</ele>
        <time>2020-07-02T14:19:40Z</time>
      </trkpt>
      <trkpt lat="47.90675" lon="1.90533">
        <ele>116.1</ele>
        <time>2020-07-02T14:19:41Z</time>
      </trkpt>
      <trkpt lat="47.90676" lon="1.90524">
        <ele>116.2</ele>
        <time>2020-07-02T14:19:42Z</time>
      </trkpt>
      <trkpt lat="47.90678" lon="1.9051">
        <ele>116.3</ele>
        <time>2020-07-02T14:19:43Z</time>
      </trkpt>
      <trkpt lat="47.90679" lon="1.90505">
        <ele>116.3</ele>
        <time>2020-07-02T14:19:44Z</time>
      </trkpt>
      <trkpt lat="47.9068" lon="1.90497">
        <ele>116.3</ele>
        <time>2020-07-02T14:19:45Z</time>
      </trkpt>
      <trkpt lat="47.90681" lon="1.90488">
        <ele>116.4</ele>
        <time>2020-07-02T14:19:46Z</time>
      </trkpt>
      <trkpt lat="47.90681" lon="1.9048">
        <ele>116.4</ele>
        <time>2020-07-02T14:19:47Z</time>
      </trkpt>
      <trkpt lat="47.90682" lon="1.90472">
        <ele>116.5</ele>
        <time>2020-07-02T14:19:48Z</time>
      </trkpt>
      <trkpt lat="47.90684" lon="1.90465">
        <ele>116.5</ele>
        <time>2020-07-02T14:19:49Z</time>
      </trkpt>
      <trkpt lat="47.90686" lon="1.90458">
        <ele>116.6</ele>
        <time>2020-07-02T14:19:50Z</time>
      </trkpt>
      <trkpt lat="47.90687" lon="1.90451">
        <ele>116.6</ele>
        <time>2020-07-02T14:19:51Z</time>
      </trkpt>
      <trkpt lat="47.90688" lon="1.90444">
        <ele>116.7</ele>
        <time>2020-07-02T14:19:52Z</time>
      </trkpt>
      <trkpt lat="47.90693" lon="1.9044">
        <ele>116.8</ele>
        <time>2020-07-02T14:19:53Z</time>
      </trkpt>
      <trkpt lat="47.90693" lon="1.90433">
        <ele>117.1</ele>
        <time>2020-07-02T14:19:54Z</time>
      </trkpt>
      <trkpt lat="47.90694" lon="1.90427">
        <ele>117.2</ele>
        <time>2020-07-02T14:19:55Z</time>
      </trkpt>
      <trkpt lat="47.90695" lon="1.90423">
        <ele>117.3</ele>
        <time>2020-07-02T14:19:56Z</time>
      </trkpt>
      <trkpt lat="47.90696" lon="1.90419">
        <ele>117.5</ele>
        <time>2020-07-02T14:19:57Z</time>
      </trkpt>
      <trkpt lat="47.90699" lon="1.90415">
        <ele>117.5</ele>
        <time>2020-07-02T14:19:58Z</time>
      </trkpt>
      <trkpt lat="47.907" lon="1.90414">
        <ele>117.5</ele>
        <time>2020-07-02T14:19:59Z</time>
      </trkpt>
      <trkpt lat="47.90701" lon="1.90415">
        <ele>117.5</ele>
        <time>2020-07-02T14:20:00Z</time>
      </trkpt>
      <trkpt lat="47.90701" lon="1.90414">
        <ele>117.6</ele>
        <time>2020-07-02T14:20:01Z</time>
      </trkpt>
      <trkpt lat="47.90702" lon="1.90414">
        <ele>117.6</ele>
        <time>2020-07-02T14:20:02Z</time>
      </trkpt>
      <trkpt lat="47.90703" lon="1.90414">
        <ele>117.6</ele>
        <time>2020-07-02T14:20:03Z</time>
      </trkpt>
      <trkpt lat="47.90704" lon="1.90414">
        <ele>117.6</ele>
        <time>2020-07-02T14:20:04Z</time>
      </trkpt>
      <trkpt lat="47.90705" lon="1.90413">
        <ele>117.6</ele>
        <time>2020-07-02T14:20:05Z</time>
      </trkpt>
      <trkpt lat="47.90706" lon="1.90412">
        <ele>117.6</ele>
        <time>2020-07-02T14:20:06Z</time>
      </trkpt>
      <trkpt lat="47.90708" lon="1.9041">
        <ele>117.6</ele>
        <time>2020-07-02T14:20:07Z</time>
      </trkpt>
      <trkpt lat="47.90709" lon="1.90409">
        <ele>117.7</ele>
        <time>2020-07-02T14:20:08Z</time>
      </trkpt>
      <trkpt lat="47.90712" lon="1.90408">
        <ele>117.7</ele>
        <time>2020-07-02T14:20:09Z</time>
      </trkpt>
      <trkpt lat="47.90715" lon="1.90408">
        <ele>117.7</ele>
        <time>2020-07-02T14:20:10Z</time>
      </trkpt>
      <trkpt lat="47.90716" lon="1.90408">
        <ele>117.8</ele>
        <time>2020-07-02T14:20:11Z</time>
      </trkpt>
      <trkpt lat="47.90718" lon="1.90408">
        <ele>117.7</ele>
        <time>2020-07-02T14:20:12Z</time>
      </trkpt>
      <trkpt lat="47.9072" lon="1.90408">
        <ele>117.7</ele>
        <time>2020-07-02T14:20:13Z</time>
      </trkpt>
      <trkpt lat="47.90721" lon="1.90407">
        <ele>117.7</ele>
        <time>2020-07-02T14:20:14Z</time>
      </trkpt>
      <trkpt lat="47.90722" lon="1.90407">
        <ele>117.7</ele>
        <time>2020-07-02T14:20:15Z</time>
      </trkpt>
      <trkpt lat="47.90723" lon="1.90408">
        <ele>117.6</ele>
        <time>2020-07-02T14:20:16Z</time>
      </trkpt>
      <trkpt lat="47.90725" lon="1.90409">
        <ele>117.6</ele>
        <time>2020-07-02T14:20:17Z</time>
      </trkpt>
      <trkpt lat="47.90726" lon="1.9041">
        <ele>117.6</ele>
        <time>2020-07-02T14:20:18Z</time>
      </trkpt>
      <trkpt lat="47.90726" lon="1.9041">
        <ele>117.6</ele>
        <time>2020-07-02T14:20:19Z</time>
      </trkpt>
      <trkpt lat="47.90729" lon="1.9041">
        <ele>117.6</ele>
        <time>2020-07-02T14:20:20Z</time>
      </trkpt>
      <trkpt lat="47.90732" lon="1.90409">
        <ele>117.6</ele>
        <time>2020-07-02T14:20:21Z</time>
      </trkpt>
      <trkpt lat="47.90733" lon="1.90409">
        <ele>117.6</ele>
        <time>2020-07-02T14:20:22Z</time>
      </trkpt>
      <trkpt lat="47.90737" lon="1.9041">
        <ele>117.5</ele>
        <time>2020-07-02T14:20:23Z</time>
      </trkpt>
      <trkpt lat="47.90738" lon="1.9041">
        <ele>117.5</ele>
        <time>2020-07-02T14:20:24Z</time>
      </trkpt>
      <trkpt lat="47.90741" lon="1.9041">
        <ele>117.5</ele>
        <time>2020-07-02T14:20:25Z</time>
      </trkpt>
      <trkpt lat="47.90742" lon="1.9041">
        <ele>117.5</ele>
        <time>2020-07-02T14:20:26Z</time>
      </trkpt>
      <trkpt lat="47.90745" lon="1.9041">
        <ele>117.5</ele>
        <time>2020-07-02T14:20:27Z</time>
      </trkpt>
      <trkpt lat="47.90747" lon="1.9041">
        <ele>117.5</ele>
        <time>2020-07-02T14:20:28Z</time>
      </trkpt>
      <trkpt lat="47.9075" lon="1.9041">
        <ele>117.5</ele>
        <time>2020-07-02T14:20:29Z</time>
      </trkpt>
      <trkpt lat="47.90754" lon="1.90411">
        <ele>117.5</ele>
        <time>2020-07-02T14:20:30Z</time>
      </trkpt>
      <trkpt lat="47.90758" lon="1.90414">
        <ele>117.5</ele>
        <time>2020-07-02T14:20:31Z</time>
      </trkpt>
      <trkpt lat="47.90761" lon="1.90414">
        <ele>117.5</ele>
        <time>2020-07-02T14:20:32Z</time>
      </trkpt>
      <trkpt lat="47.90764" lon="1.90415">
        <ele>117.5</ele>
        <time>2020-07-02T14:20:33Z</time>
      </trkpt>
      <trkpt lat="47.90765" lon="1.90415">
        <ele>117.5</ele>
        <time>2020-07-02T14:20:34Z</time>
      </trkpt>
      <trkpt lat="47.90766" lon="1.90415">
        <ele>117.5</ele>
        <time>2020-07-02T14:20:35Z</time>
      </trkpt>
      <trkpt lat="47.90768" lon="1.90416">
        <ele>117.5</ele>
        <time>2020-07-02T14:20:36Z</time>
      </trkpt>
      <trkpt lat="47.9077" lon="1.90416">
        <ele>117.5</ele>
        <time>2020-07-02T14:20:37Z</time>
      </trkpt>
      <trkpt lat="47.90771" lon="1.90417">
        <ele>117.5</ele>
        <time>2020-07-02T14:20:38Z</time>
      </trkpt>
      <trkpt lat="47.90773" lon="1.9042">
        <ele>117.5</ele>
        <time>2020-07-02T14:20:39Z</time>
      </trkpt>
      <trkpt lat="47.90774" lon="1.90421">
        <ele>117.5</ele>
        <time>2020-07-02T14:20:40Z</time>
      </trkpt>
      <trkpt lat="47.90775" lon="1.90421">
        <ele>117.5</ele>
        <time>2020-07-02T14:20:41Z</time>
      </trkpt>
      <trkpt lat="47.90776" lon="1.9042">
        <ele>117.5</ele>
        <time>2020-07-02T14:20:42Z</time>
      </trkpt>
      <trkpt lat="47.90776" lon="1.9042">
        <ele>117.5</ele>
        <time>2020-07-02T14:20:43Z</time>
      </trkpt>
      <trkpt lat="47.90776" lon="1.90419">
        <ele>117.5</ele>
        <time>2020-07-02T14:20:44Z</time>
      </trkpt>
      <trkpt lat="47.90777" lon="1.90421">
        <ele>117.5</ele>
        <time>2020-07-02T14:20:45Z</time>
      </trkpt>
      <trkpt lat="47.90778" lon="1.90421">
        <ele>117.5</ele>
        <time>2020-07-02T14:20:46Z</time>
      </trkpt>
      <trkpt lat="47.90778" lon="1.90421">
        <ele>117.5</ele>
        <time>2020-07-02T14:20:47Z</time>
      </trkpt>
      <trkpt lat="47.90779" lon="1.90421">
        <ele>117.5</ele>
        <time>2020-07-02T14:20:48Z</time>
      </trkpt>
      <trkpt lat="47.90779" lon="1.90421">
        <ele>117.5</ele>
        <time>2020-07-02T14:20:49Z</time>
      </trkpt>
      <trkpt lat="47.90779" lon="1.90421">
        <ele>117.5</ele>
        <time>2020-07-02T14:20:50Z</time>
      </trkpt>
      <trkpt lat="47.9078" lon="1.90421">
        <ele>117.5</ele>
        <time>2020-07-02T14:20:51Z</time>
      </trkpt>
      <trkpt lat="47.9078" lon="1.90421">
        <ele>117.5</ele>
        <time>2020-07-02T14:27:20Z</time>
      </trkpt>
      <trkpt lat="47.9078" lon="1.90421">
        <ele>117.5</ele>
        <time>2020-07-02T14:27:21Z</time>
      </trkpt>
      <trkpt lat="47.90781" lon="1.90421">
        <ele>117.5</ele>
        <time>2020-07-02T14:27:22Z</time>
      </trkpt>
      <trkpt lat="47.90781" lon="1.90421">
        <ele>117.5</ele>
        <time>2020-07-02T14:27:23Z</time>
      </trkpt>
      <trkpt lat="47.90781" lon="1.90422">
        <ele>117.5</ele>
        <time>2020-07-02T14:27:24Z</time>
      </trkpt>
      <trkpt lat="47.90782" lon="1.90422">
        <ele>117.5</ele>
        <time>2020-07-02T14:27:25Z</time>
      </trkpt>
      <trkpt lat="47.90782" lon="1.90422">
        <ele>117.5</ele>
        <time>2020-07-02T14:27:26Z</time>
      </trkpt>
      <trkpt lat="47.90783" lon="1.90422">
        <ele>117.5</ele>
        <time>2020-07-02T14:27:27Z</time>
      </trkpt>
      <trkpt lat="47.90783" lon="1.90422">
        <ele>117.5</ele>
        <time>2020-07-02T14:27:28Z</time>
      </trkpt>
      <trkpt lat="47.90783" lon="1.90422">
        <ele>117.5</ele>
        <time>2020-07-02T14:27:29Z</time>
      </trkpt>
      <trkpt lat="47.90784" lon="1.90422">
        <ele>117.5</ele>
        <time>2020-07-02T14:27:30Z</time>
      </trkpt>
      <trkpt lat="47.90784" lon="1.90422">
        <ele>117.5</ele>
        <time>2020-07-02T14:27:31Z</time>
      </trkpt>
      <trkpt lat="47.90784" lon="1.90422">
        <ele>117.5</ele>
        <time>2020-07-02T14:27:32Z</time>
      </trkpt>
      <trkpt lat="47.90785" lon="1.90422">
        <ele>117.5</ele>
        <time>2020-07-02T14:27:33Z</time>
      </trkpt>
      <trkpt lat="47.90785" lon="1.90419">
        <ele>117.4</ele>
        <time>2020-07-02T14:27:34Z</time>
      </trkpt>
      <trkpt lat="47.90785" lon="1.90419">
        <ele>117.4</ele>
        <time>2020-07-02T14:27:35Z</time>
      </trkpt>
      <trkpt lat="47.90785" lon="1.90419">
        <ele>117.4</ele>
        <time>2020-07-02T14:27:36Z</time>
      </trkpt>
      <trkpt lat="47.90785" lon="1.90419">
        <ele>117.4</ele>
        <time>2020-07-02T14:27:37Z</time>
      </trkpt>
      <trkpt lat="47.90785" lon="1.90419">
        <ele>117.4</ele>
        <time>2020-07-02T14:27:38Z</time>
      </trkpt>
      <trkpt lat="47.90785" lon="1.90418">
        <ele>117.4</ele>
        <time>2020-07-02T14:27:39Z</time>
      </trkpt>
      <trkpt lat="47.90785" lon="1.90417">
        <ele>117.4</ele>
        <time>2020-07-02T14:27:40Z</time>
      </trkpt>
      <trkpt lat="47.90785" lon="1.90416">
        <ele>117.4</ele>
        <time>2020-07-02T14:27:41Z</time>
      </trkpt>
      <trkpt lat="47.90786" lon="1.90415">
        <ele>117.4</ele>
        <time>2020-07-02T14:27:42Z</time>
      </trkpt>
      <trkpt lat="47.90786" lon="1.90414">
        <ele>117.4</ele>
        <time>2020-07-02T14:27:43Z</time>
      </trkpt>
      <trkpt lat="47.90786" lon="1.90413">
        <ele>117.4</ele>
        <time>2020-07-02T14:31:00Z</time>
      </trkpt>
      <trkpt lat="47.90787" lon="1.90412">
        <ele>117.4</ele>
        <time>2020-07-02T14:31:01Z</time>
      </trkpt>
      <trkpt lat="47.90787" lon="1.90411">
        <ele>117.4</ele>
        <time>2020-07-02T14:31:02Z</time>
      </trkpt>
      <trkpt lat="47.90787" lon="1.9041">
        <ele>117.4</ele>
        <time>2020-07-02T14:31:03Z</time>
      </trkpt>
      <trkpt lat="47.90787" lon="1.90409">
        <ele>117.4</ele>
        <time>2020-07-02T14:31:04Z</time>
      </trkpt>
      <trkpt lat="47.90788" lon="1.90408">
        <ele>117.4</ele>
        <time>2020-07-02T14:31:05Z</time>
      </trkpt>
      <trkpt lat="47.90788" lon="1.90407">
        <ele>117.4</ele>
        <time>2020-07-02T14:31:06Z</time>
      </trkpt>
      <trkpt lat="47.90788" lon="1.90406">
        <ele>117.4</ele>
        <time>2020-07-02T14:31:07Z</time>
      </trkpt>
      <trkpt lat="47.90788" lon="1.90405">
        <ele>117.4</ele>
        <time>2020-07-02T14:31:08Z</time>
      </trkpt>
      <trkpt lat="47.90789" lon="1.90404">
        <ele>117.4</ele>
        <time>2020-07-02T14:31:09Z</time>
      </trkpt>
      <trkpt lat="47.90789" lon="1.90403">
        <ele>117.4</ele>
        <time>2020-07-02T14:31:10Z</time>
      </trkpt>
      <trkpt lat="47.90789" lon="1.90402">
        <ele>117.4</ele>
        <time>2020-07-02T14:31:11Z</time>
      </trkpt>
      <trkpt lat="47.9079" lon="1.90401">
        <ele>117.4</ele>
        <time>2020-07-02T14:31:12Z</time>
      </trkpt>
      <trkpt lat="47.9079" lon="1.904">
        <ele>117.4</ele>
        <time>2020-07-02T14:31:13Z</time>
      </trkpt>
      <trkpt lat="47.9079" lon="1.90399">
        <ele>117.4</ele>
        <time>2020-07-02T14:31:14Z</time>
      </trkpt>
      <trkpt lat="47.9079" lon="1.90398">
        <ele>117.4</ele>
        <time>2020-07-02T14:31:15Z</time>
      </trkpt>
      <trkpt lat="47.90791" lon="1.90397">
        <ele>117.4</ele>
        <time>2020-07-02T14:31:16Z</time>
      </trkpt>
      <trkpt lat="47.90791" lon="1.90396">
        <ele>117.4</ele>
        <time>2020-07-02T14:31:17Z</time>
      </trkpt>
      <trkpt lat="47.90791" lon="1.90395">
        <ele>117.4</ele>
        <time>2020-07-02T14:31:18Z</time>
      </trkpt>
      <trkpt lat="47.90792" lon="1.90394">
        <ele>117.4</ele>
        <time>2020-07-02T14:31:19Z</time>
      </trkpt>
      <trkpt lat="47.90792" lon="1.90393">
        <ele>117.4</ele>
        <time>2020-07-02T14:31:20Z</time>
      </trkpt>
      <trkpt lat="47.90792" lon="1.90392">
        <ele>117.3</ele>
        <time>2020-07-02T14:31:21Z</time>
      </trkpt>
      <trkpt lat="47.90792" lon="1.90391">
        <ele>117.3</ele>
        <time>2020-07-02T14:32:14Z</time>
      </trkpt>
      <trkpt lat="47.90793" lon="1.9039">
        <ele>117.3</ele>
        <time>2020-07-02T14:32:15Z</time>
      </trkpt>
      <trkpt lat="47.90793" lon="1.90389">
        <ele>117.3</ele>
        <time>2020-07-02T14:32:16Z</time>
      </trkpt>
      <trkpt lat="47.90793" lon="1.90388">
        <ele>117.3</ele>
        <time>2020-07-02T14:32:17Z</time>
      </trkpt>
      <trkpt lat="47.90793" lon="1.90387">
        <ele>117.3</ele>
        <time>2020-07-02T14:32:18Z</time>
      </trkpt>
      <trkpt lat="47.90796" lon="1.90392">
        <ele>117.3</ele>
        <time>2020-07-02T14:32:19Z</time>
      </trkpt>
      <trkpt lat="47.90799" lon="1.90397">
        <ele>117.3</ele>
        <time>2020-07-02T14:32:20Z</time>
      </trkpt>
      <trkpt lat="47.90801" lon="1.904">
        <ele>117.2</ele>
        <time>2020-07-02T14:32:21Z</time>
      </trkpt>
      <trkpt lat="47.90804" lon="1.90402">
        <ele>117.2</ele>
        <time>2020-07-02T14:32:22Z</time>
      </trkpt>
      <trkpt lat="47.90806" lon="1.90404">
        <ele>117.2</ele>
        <time>2020-07-02T14:32:23Z</time>
      </trkpt>
      <trkpt lat="47.90807" lon="1.90405">
        <ele>117.2</ele>
        <time>2020-07-02T14:32:24Z</time>
      </trkpt>
      <trkpt lat="47.90807" lon="1.90404">
        <ele>117.2</ele>
        <time>2020-07-02T14:32:25Z</time>
      </trkpt>
      <trkpt lat="47.90809" lon="1.90402">
        <ele>117.2</ele>
        <time>2020-07-02T14:32:26Z</time>
      </trkpt>
      <trkpt lat="47.90809" lon="1.90401">
        <ele>117.2</ele>
        <time>2020-07-02T14:32:27Z</time>
      </trkpt>
      <trkpt lat="47.9081" lon="1.90401">
        <ele>117.2</ele>
        <time>2020-07-02T14:32:28Z</time>
      </trkpt>
      <trkpt lat="47.90809" lon="1.90401">
        <ele>117.2</ele>
        <time>2020-07-02T14:32:29Z</time>
      </trkpt>
      <trkpt lat="47.90809" lon="1.90401">
        <ele>117.2</ele>
        <time>2020-07-02T14:32:30Z</time>
      </trkpt>
      <trkpt lat="47.9081" lon="1.90402">
        <ele>117.2</ele>
        <time>2020-07-02T14:32:31Z</time>
      </trkpt>
      <trkpt lat="47.90809" lon="1.90403">
        <ele>117.2</ele>
        <time>2020-07-02T14:32:32Z</time>
      </trkpt>
      <trkpt lat="47.90809" lon="1.90402">
        <ele>117.2</ele>
        <time>2020-07-02T14:32:33Z</time>
      </trkpt>
      <trkpt lat="47.9081" lon="1.90401">
        <ele>117.2</ele>
        <time>2020-07-02T14:32:34Z</time>
      </trkpt>
      <trkpt lat="47.90811" lon="1.904">
        <ele>117.2</ele>
        <time>2020-07-02T14:32:35Z</time>
      </trkpt>
      <trkpt lat="47.90811" lon="1.90399">
        <ele>117.2</ele>
        <time>2020-07-02T14:32:36Z</time>
      </trkpt>
      <trkpt lat="47.90811" lon="1.90398">
        <ele>117.2</ele>
        <time>2020-07-02T14:32:37Z</time>
      </trkpt>
      <trkpt lat="47.90811" lon="1.90397">
        <ele>117.2</ele>
        <time>2020-07-02T14:32:38Z</time>
      </trkpt>
      <trkpt lat="47.90811" lon="1.90396">
        <ele>117.2</ele>
        <time>2020-07-02T14:32:39Z</time>
      </trkpt>
      <trkpt lat="47.90812" lon="1.90394">
        <ele>117.2</ele>
        <time>2020-07-02T14:32:40Z</time>
      </trkpt>
      <trkpt lat="47.90811" lon="1.90391">
        <ele>117.2</ele>
        <time>2020-07-02T14:32:41Z</time>
      </trkpt>
      <trkpt lat="47.9081" lon="1.9039">
        <ele>117.2</ele>
        <time>2020-07-02T14:32:42Z</time>
      </trkpt>
      <trkpt lat="47.90809" lon="1.90388">
        <ele>117.2</ele>
        <time>2020-07-02T14:32:43Z</time>
      </trkpt>
      <trkpt lat="47.90808" lon="1.90384">
        <ele>117.2</ele>
        <time>2020-07-02T14:32:44Z</time>
      </trkpt>
      <trkpt lat="47.90807" lon="1.90379">
        <ele>117.3</ele>
        <time>2020-07-02T14:32:45Z</time>
      </trkpt>
      <trkpt lat="47.90806" lon="1.90373">
        <ele>117.5</ele>
        <time>2020-07-02T14:32:46Z</time>
      </trkpt>
      <trkpt lat="47.90806" lon="1.90367">
        <ele>117.5</ele>
        <time>2020-07-02T14:32:47Z</time>
      </trkpt>
      <trkpt lat="47.90806" lon="1.90361">
        <ele>117.6</ele>
        <time>2020-07-02T14:32:48Z</time>
      </trkpt>
      <trkpt lat="47.90806" lon="1.90356">
        <ele>117.7</ele>
        <time>2020-07-02T14:32:49Z</time>
      </trkpt>
      <trkpt lat="47.90806" lon="1.90349">
        <ele>117.9</ele>
        <time>2020-07-02T14:32:50Z</time>
      </trkpt>
      <trkpt lat="47.90805" lon="1.90342">
        <ele>118</ele>
        <time>2020-07-02T14:32:51Z</time>
      </trkpt>
      <trkpt lat="47.90805" lon="1.90335">
        <ele>118.1</ele>
        <time>2020-07-02T14:32:52Z</time>
      </trkpt>
      <trkpt lat="47.90804" lon="1.90327">
        <ele>118.3</ele>
        <time>2020-07-02T14:32:53Z</time>
      </trkpt>
      <trkpt lat="47.90803" lon="1.90321">
        <ele>118.4</ele>
        <time>2020-07-02T14:32:54Z</time>
      </trkpt>
      <trkpt lat="47.90803" lon="1.90315">
        <ele>118.6</ele>
        <time>2020-07-02T14:32:55Z</time>
      </trkpt>
      <trkpt lat="47.90801" lon="1.90309">
        <ele>118.7</ele>
        <time>2020-07-02T14:32:56Z</time>
      </trkpt>
      <trkpt lat="47.90801" lon="1.90303">
        <ele>118.7</ele>
        <time>2020-07-02T14:32:57Z</time>
      </trkpt>
      <trkpt lat="47.90798" lon="1.90295">
        <ele>118.9</ele>
        <time>2020-07-02T14:32:58Z</time>
      </trkpt>
      <trkpt lat="47.90797" lon="1.90288">
        <ele>119</ele>
        <time>2020-07-02T14:32:59Z</time>
      </trkpt>
      <trkpt lat="47.90796" lon="1.90278">
        <ele>119.1</ele>
        <time>2020-07-02T14:33:00Z</time>
      </trkpt>
      <trkpt lat="47.90796" lon="1.90275">
        <ele>119.1</ele>
        <time>2020-07-02T14:33:01Z</time>
      </trkpt>
      <trkpt lat="47.90796" lon="1.90268">
        <ele>119.2</ele>
        <time>2020-07-02T14:33:02Z</time>
      </trkpt>
      <trkpt lat="47.90795" lon="1.90262">
        <ele>119.2</ele>
        <time>2020-07-02T14:33:03Z</time>
      </trkpt>
      <trkpt lat="47.90794" lon="1.90257">
        <ele>119.2</ele>
        <time>2020-07-02T14:33:04Z</time>
      </trkpt>
      <trkpt lat="47.90792" lon="1.90248">
        <ele>119.1</ele>
        <time>2020-07-02T14:33:05Z</time>
      </trkpt>
      <trkpt lat="47.90791" lon="1.90245">
        <ele>119.1</ele>
        <time>2020-07-02T14:33:06Z</time>
      </trkpt>
      <trkpt lat="47.9079" lon="1.9024">
        <ele>119.1</ele>
        <time>2020-07-02T14:33:07Z</time>
      </trkpt>
      <trkpt lat="47.90789" lon="1.90234">
        <ele>119.1</ele>
        <time>2020-07-02T14:33:08Z</time>
      </trkpt>
      <trkpt lat="47.90788" lon="1.90228">
        <ele>119.1</ele>
        <time>2020-07-02T14:33:09Z</time>
      </trkpt>
      <trkpt lat="47.90787" lon="1.90222">
        <ele>119</ele>
        <time>2020-07-02T14:33:10Z</time>
      </trkpt>
      <trkpt lat="47.9078" lon="1.90214">
        <ele>118.9</ele>
        <time>2020-07-02T14:33:11Z</time>
      </trkpt>
      <trkpt lat="47.9078" lon="1.90211">
        <ele>118.8</ele>
        <time>2020-07-02T14:33:12Z</time>
      </trkpt>
      <trkpt lat="47.90778" lon="1.90202">
        <ele>118.7</ele>
        <time>2020-07-02T14:33:13Z</time>
      </trkpt>
      <trkpt lat="47.90777" lon="1.90199">
        <ele>118.7</ele>
        <time>2020-07-02T14:33:14Z</time>
      </trkpt>
      <trkpt lat="47.90776" lon="1.90196">
        <ele>118.6</ele>
        <time>2020-07-02T14:33:15Z</time>
      </trkpt>
      <trkpt lat="47.90775" lon="1.9019">
        <ele>118.6</ele>
        <time>2020-07-02T14:33:16Z</time>
      </trkpt>
      <trkpt lat="47.90774" lon="1.90184">
        <ele>118.5</ele>
        <time>2020-07-02T14:33:17Z</time>
      </trkpt>
      <trkpt lat="47.90769" lon="1.9018">
        <ele>118.5</ele>
        <time>2020-07-02T14:33:18Z</time>
      </trkpt>
      <trkpt lat="47.90769" lon="1.90176">
        <ele>118.5</ele>
        <time>2020-07-02T14:33:19Z</time>
      </trkpt>
      <trkpt lat="47.90768" lon="1.90171">
        <ele>118.5</ele>
        <time>2020-07-02T14:33:20Z</time>
      </trkpt>
      <trkpt lat="47.90767" lon="1.90165">
        <ele>118.5</ele>
        <time>2020-07-02T14:33:21Z</time>
      </trkpt>
      <trkpt lat="47.90767" lon="1.9016">
        <ele>118.5</ele>
        <time>2020-07-02T14:33:22Z</time>
      </trkpt>
      <trkpt lat="47.90767" lon="1.90156">
        <ele>118.5</ele>
        <time>2020-07-02T14:33:23Z</time>
      </trkpt>
      <trkpt lat="47.90767" lon="1.90151">
        <ele>117.9</ele>
        <time>2020-07-02T14:33:24Z</time>
      </trkpt>
      <trkpt lat="47.90769" lon="1.90146">
        <ele>117.9</ele>
        <time>2020-07-02T14:33:25Z</time>
      </trkpt>
      <trkpt lat="47.90772" lon="1.90143">
        <ele>117.8</ele>
        <time>2020-07-02T14:33:26Z</time>
      </trkpt>
      <trkpt lat="47.90774" lon="1.90141">
        <ele>117.8</ele>
        <time>2020-07-02T14:33:27Z</time>
      </trkpt>
      <trkpt lat="47.90777" lon="1.90139">
        <ele>117.7</ele>
        <time>2020-07-02T14:33:28Z</time>
      </trkpt>
      <trkpt lat="47.9078" lon="1.90136">
        <ele>117.7</ele>
        <time>2020-07-02T14:33:29Z</time>
      </trkpt>
      <trkpt lat="47.90782" lon="1.90132">
        <ele>117.6</ele>
        <time>2020-07-02T14:33:30Z</time>
      </trkpt>
      <trkpt lat="47.90784" lon="1.90129">
        <ele>117.6</ele>
        <time>2020-07-02T14:33:31Z</time>
      </trkpt>
      <trkpt lat="47.90787" lon="1.90125">
        <ele>117.5</ele>
        <time>2020-07-02T14:33:32Z</time>
      </trkpt>
      <trkpt lat="47.90788" lon="1.90122">
        <ele>117.4</ele>
        <time>2020-07-02T14:33:33Z</time>
      </trkpt>
      <trkpt lat="47.90791" lon="1.90119">
        <ele>117.3</ele>
        <time>2020-07-02T14:33:34Z</time>
      </trkpt>
      <trkpt lat="47.90791" lon="1.90118">
        <ele>117.3</ele>
        <time>2020-07-02T14:33:35Z</time>
      </trkpt>
      <trkpt lat="47.90794" lon="1.90117">
        <ele>117.2</ele>
        <time>2020-07-02T14:33:36Z</time>
      </trkpt>
      <trkpt lat="47.90795" lon="1.90118">
        <ele>117.2</ele>
        <time>2020-07-02T14:33:37Z</time>
      </trkpt>
      <trkpt lat="47.90797" lon="1.90116">
        <ele>117.1</ele>
        <time>2020-07-02T14:33:38Z</time>
      </trkpt>
      <trkpt lat="47.90797" lon="1.90115">
        <ele>117.1</ele>
        <time>2020-07-02T14:33:39Z</time>
      </trkpt>
      <trkpt lat="47.90798" lon="1.90114">
        <ele>117.1</ele>
        <time>2020-07-02T14:33:40Z</time>
      </trkpt>
      <trkpt lat="47.90798" lon="1.90113">
        <ele>117.1</ele>
        <time>2020-07-02T14:33:41Z</time>
      </trkpt>
      <trkpt lat="47.90798" lon="1.9011">
        <ele>117</ele>
        <time>2020-07-02T14:33:42Z</time>
      </trkpt>
      <trkpt lat="47.90797" lon="1.90109">
        <ele>117</ele>
        <time>2020-07-02T14:33:43Z</time>
      </trkpt>
      <trkpt lat="47.90797" lon="1.90108">
        <ele>117</ele>
        <time>2020-07-02T14:33:44Z</time>
      </trkpt>
      <trkpt lat="47.90799" lon="1.90106">
        <ele>117</ele>
        <time>2020-07-02T14:33:45Z</time>
      </trkpt>
      <trkpt lat="47.90799" lon="1.90107">
        <ele>117</ele>
        <time>2020-07-02T14:33:46Z</time>
      </trkpt>
      <trkpt lat="47.90799" lon="1.90108">
        <ele>117</ele>
        <time>2020-07-02T14:33:47Z</time>
      </trkpt>
      <trkpt lat="47.90799" lon="1.90107">
        <ele>117</ele>
        <time>2020-07-02T14:33:48Z</time>
      </trkpt>
      <trkpt lat="47.90799" lon="1.90107">
        <ele>117</ele>
        <time>2020-07-02T14:33:49Z</time>
      </trkpt>
      <trkpt lat="47.90799" lon="1.90106">
        <ele>116.9</ele>
        <time>2020-07-02T14:33:50Z</time>
      </trkpt>
      <trkpt lat="47.90799" lon="1.90106">
        <ele>116.9</ele>
        <time>2020-07-02T14:33:51Z</time>
      </trkpt>
      <trkpt lat="47.90799" lon="1.90105">
        <ele>116.9</ele>
        <time>2020-07-02T14:33:52Z</time>
      </trkpt>
      <trkpt lat="47.90799" lon="1.90104">
        <ele>116.9</ele>
        <time>2020-07-02T14:33:53Z</time>
      </trkpt>
      <trkpt lat="47.90799" lon="1.90103">
        <ele>116.9</ele>
        <time>2020-07-02T14:33:54Z</time>
      </trkpt>
      <trkpt lat="47.908" lon="1.90101">
        <ele>116.9</ele>
        <time>2020-07-02T14:33:55Z</time>
      </trkpt>
      <trkpt lat="47.908" lon="1.90101">
        <ele>116.9</ele>
        <time>2020-07-02T14:33:56Z</time>
      </trkpt>
      <trkpt lat="47.908" lon="1.90101">
        <ele>116.9</ele>
        <time>2020-07-02T14:33:57Z</time>
      </trkpt>
      <trkpt lat="47.90799" lon="1.90101">
        <ele>116.9</ele>
        <time>2020-07-02T14:33:58Z</time>
      </trkpt>
      <trkpt lat="47.90799" lon="1.901">
        <ele>116.9</ele>
        <time>2020-07-02T14:33:59Z</time>
      </trkpt>
      <trkpt lat="47.90799" lon="1.901">
        <ele>116.9</ele>
        <time>2020-07-02T14:34:00Z</time>
      </trkpt>
      <trkpt lat="47.90799" lon="1.90099">
        <ele>116.8</ele>
        <time>2020-07-02T14:34:01Z</time>
      </trkpt>
      <trkpt lat="47.908" lon="1.901">
        <ele>116.8</ele>
        <time>2020-07-02T14:34:02Z</time>
      </trkpt>
      <trkpt lat="47.908" lon="1.90101">
        <ele>116.8</ele>
        <time>2020-07-02T14:34:03Z</time>
      </trkpt>
      <trkpt lat="47.90802" lon="1.901">
        <ele>116.8</ele>
        <time>2020-07-02T14:34:04Z</time>
      </trkpt>
      <trkpt lat="47.90803" lon="1.901">
        <ele>116.8</ele>
        <time>2020-07-02T14:34:05Z</time>
      </trkpt>
      <trkpt lat="47.90805" lon="1.901">
        <ele>116.7</ele>
        <time>2020-07-02T14:34:06Z</time>
      </trkpt>
      <trkpt lat="47.90806" lon="1.90099">
        <ele>116.7</ele>
        <time>2020-07-02T14:34:07Z</time>
      </trkpt>
      <trkpt lat="47.90807" lon="1.90099">
        <ele>116.7</ele>
        <time>2020-07-02T14:34:08Z</time>
      </trkpt>
      <trkpt lat="47.90809" lon="1.90098">
        <ele>116.6</ele>
        <time>2020-07-02T14:34:09Z</time>
      </trkpt>
      <trkpt lat="47.9081" lon="1.90097">
        <ele>116.6</ele>
        <time>2020-07-02T14:34:10Z</time>
      </trkpt>
      <trkpt lat="47.9081" lon="1.90098">
        <ele>116.6</ele>
        <time>2020-07-02T14:34:11Z</time>
      </trkpt>
      <trkpt lat="47.90811" lon="1.90098">
        <ele>116.6</ele>
        <time>2020-07-02T14:34:12Z</time>
      </trkpt>
      <trkpt lat="47.90812" lon="1.90097">
        <ele>116.5</ele>
        <time>2020-07-02T14:34:13Z</time>
      </trkpt>
      <trkpt lat="47.90814" lon="1.90097">
        <ele>116.5</ele>
        <time>2020-07-02T14:34:14Z</time>
      </trkpt>
      <trkpt lat="47.90815" lon="1.90097">
        <ele>116.4</ele>
        <time>2020-07-02T14:34:15Z</time>
      </trkpt>
      <trkpt lat="47.90816" lon="1.90097">
        <ele>116.4</ele>
        <time>2020-07-02T14:34:16Z</time>
      </trkpt>
      <trkpt lat="47.90816" lon="1.90097">
        <ele>116.4</ele>
        <time>2020-07-02T14:34:17Z</time>
      </trkpt>
      <trkpt lat="47.90816" lon="1.90096">
        <ele>116.4</ele>
        <time>2020-07-02T14:34:18Z</time>
      </trkpt>
      <trkpt lat="47.90817" lon="1.90095">
        <ele>116.4</ele>
        <time>2020-07-02T14:34:19Z</time>
      </trkpt>
      <trkpt lat="47.90818" lon="1.90095">
        <ele>116.3</ele>
        <time>2020-07-02T14:34:20Z</time>
      </trkpt>
      <trkpt lat="47.90819" lon="1.90094">
        <ele>116.3</ele>
        <time>2020-07-02T14:34:21Z</time>
      </trkpt>
      <trkpt lat="47.90819" lon="1.90095">
        <ele>116.3</ele>
        <time>2020-07-02T14:34:22Z</time>
      </trkpt>
      <trkpt lat="47.9082" lon="1.90095">
        <ele>116.3</ele>
        <time>2020-07-02T14:34:23Z</time>
      </trkpt>
      <trkpt lat="47.9082" lon="1.90095">
        <ele>116.3</ele>
        <time>2020-07-02T14:34:24Z</time>
      </trkpt>
      <trkpt lat="47.90821" lon="1.90095">
        <ele>116.2</ele>
        <time>2020-07-02T14:34:25Z</time>
      </trkpt>
      <trkpt lat="47.90822" lon="1.90095">
        <ele>116.2</ele>
        <time>2020-07-02T14:34:26Z</time>
      </trkpt>
      <trkpt lat="47.90822" lon="1.90095">
        <ele>116.2</ele>
        <time>2020-07-02T14:34:27Z</time>
      </trkpt>
      <trkpt lat="47.90822" lon="1.90095">
        <ele>116.2</ele>
        <time>2020-07-02T14:34:28Z</time>
      </trkpt>
      <trkpt lat="47.90822" lon="1.90095">
        <ele>116.2</ele>
        <time>2020-07-02T14:34:29Z</time>
      </trkpt>
      <trkpt lat="47.90821" lon="1.90095">
        <ele>116.2</ele>
        <time>2020-07-02T14:34:30Z</time>
      </trkpt>
      <trkpt lat="47.9082" lon="1.90094">
        <ele>116.2</ele>
        <time>2020-07-02T14:34:31Z</time>
      </trkpt>
      <trkpt lat="47.9082" lon="1.90094">
        <ele>116.1</ele>
        <time>2020-07-02T14:34:32Z</time>
      </trkpt>
      <trkpt lat="47.90819" lon="1.90094">
        <ele>116.1</ele>
        <time>2020-07-02T14:34:33Z</time>
      </trkpt>
      <trkpt lat="47.90819" lon="1.90094">
        <ele>116.1</ele>
        <time>2020-07-02T14:34:34Z</time>
      </trkpt>
      <trkpt lat="47.9082" lon="1.90095">
        <ele>116.1</ele>
        <time>2020-07-02T14:34:35Z</time>
      </trkpt>
      <trkpt lat="47.9082" lon="1.90095">
        <ele>116.1</ele>
        <time>2020-07-02T14:34:36Z</time>
      </trkpt>
      <trkpt lat="47.90819" lon="1.90096">
        <ele>116.1</ele>
        <time>2020-07-02T14:34:37Z</time>
      </trkpt>
      <trkpt lat="47.90819" lon="1.90096">
        <ele>116.1</ele>
        <time>2020-07-02T14:34:38Z</time>
      </trkpt>
      <trkpt lat="47.90819" lon="1.90096">
        <ele>116.1</ele>
        <time>2020-07-02T14:34:39Z</time>
      </trkpt>
      <trkpt lat="47.9082" lon="1.90097">
        <ele>116.1</ele>
        <time>2020-07-02T14:34:40Z</time>
      </trkpt>
      <trkpt lat="47.90822" lon="1.90096">
        <ele>116.1</ele>
        <time>2020-07-02T14:34:41Z</time>
      </trkpt>
      <trkpt lat="47.90823" lon="1.90096">
        <ele>116</ele>
        <time>2020-07-02T14:34:42Z</time>
      </trkpt>
      <trkpt lat="47.90825" lon="1.90096">
        <ele>116</ele>
        <time>2020-07-02T14:34:43Z</time>
      </trkpt>
      <trkpt lat="47.90826" lon="1.90096">
        <ele>116</ele>
        <time>2020-07-02T14:34:44Z</time>
      </trkpt>
      <trkpt lat="47.90828" lon="1.90096">
        <ele>116</ele>
        <time>2020-07-02T14:34:45Z</time>
      </trkpt>
      <trkpt lat="47.90829" lon="1.90095">
        <ele>116</ele>
        <time>2020-07-02T14:34:46Z</time>
      </trkpt>
      <trkpt lat="47.90831" lon="1.90095">
        <ele>116</ele>
        <time>2020-07-02T14:34:47Z</time>
      </trkpt>
      <trkpt lat="47.90832" lon="1.90095">
        <ele>116</ele>
        <time>2020-07-02T14:41:19Z</time>
      </trkpt>
      <trkpt lat="47.90834" lon="1.90095">
        <ele>115.9</ele>
        <time>2020-07-02T14:41:20Z</time>
      </trkpt>
      <trkpt lat="47.90835" lon="1.90094">
        <ele>115.9</ele>
        <time>2020-07-02T14:41:21Z</time>
      </trkpt>
      <trkpt lat="47.90838" lon="1.90094">
        <ele>115.9</ele>
        <time>2020-07-02T14:41:22Z</time>
      </trkpt>
      <trkpt lat="47.90842" lon="1.90093">
        <ele>115.9</ele>
        <time>2020-07-02T14:41:23Z</time>
      </trkpt>
      <trkpt lat="47.90844" lon="1.90093">
        <ele>115.8</ele>
        <time>2020-07-02T14:41:24Z</time>
      </trkpt>
      <trkpt lat="47.90848" lon="1.90093">
        <ele>115.8</ele>
        <time>2020-07-02T14:41:25Z</time>
      </trkpt>
      <trkpt lat="47.90849" lon="1.90093">
        <ele>115.8</ele>
        <time>2020-07-02T14:41:26Z</time>
      </trkpt>
      <trkpt lat="47.90853" lon="1.90094">
        <ele>115.7</ele>
        <time>2020-07-02T14:41:27Z</time>
      </trkpt>
      <trkpt lat="47.90857" lon="1.90094">
        <ele>115.7</ele>
        <time>2020-07-02T14:41:28Z</time>
      </trkpt>
      <trkpt lat="47.90861" lon="1.90095">
        <ele>115.7</ele>
        <time>2020-07-02T14:41:29Z</time>
      </trkpt>
      <trkpt lat="47.90866" lon="1.90096">
        <ele>115.7</ele>
        <time>2020-07-02T14:41:30Z</time>
      </trkpt>
      <trkpt lat="47.90869" lon="1.90096">
        <ele>115.7</ele>
        <time>2020-07-02T14:41:31Z</time>
      </trkpt>
      <trkpt lat="47.90873" lon="1.90096">
        <ele>115.8</ele>
        <time>2020-07-02T14:41:32Z</time>
      </trkpt>
      <trkpt lat="47.90876" lon="1.90097">
        <ele>115.8</ele>
        <time>2020-07-02T14:41:33Z</time>
      </trkpt>
      <trkpt lat="47.9088" lon="1.90097">
        <ele>115.8</ele>
        <time>2020-07-02T14:41:34Z</time>
      </trkpt>
      <trkpt lat="47.90884" lon="1.90096">
        <ele>115.9</ele>
        <time>2020-07-02T14:41:35Z</time>
      </trkpt>
      <trkpt lat="47.90887" lon="1.90096">
        <ele>115.9</ele>
        <time>2020-07-02T14:41:36Z</time>
      </trkpt>
      <trkpt lat="47.90887" lon="1.90096">
        <ele>115.9</ele>
        <time>2020-07-02T14:41:37Z</time>
      </trkpt>
      <trkpt lat="47.90888" lon="1.90095">
        <ele>115.9</ele>
        <time>2020-07-02T14:41:38Z</time>
      </trkpt>
      <trkpt lat="47.90888" lon="1.90095">
        <ele>115.9</ele>
        <time>2020-07-02T14:41:39Z</time>
      </trkpt>
      <trkpt lat="47.90889" lon="1.90094">
        <ele>115.9</ele>
        <time>2020-07-02T14:41:40Z</time>
      </trkpt>
      <trkpt lat="47.90889" lon="1.90091">
        <ele>115.9</ele>
        <time>2020-07-02T14:41:41Z</time>
      </trkpt>
      <trkpt lat="47.9089" lon="1.90089">
        <ele>115.9</ele>
        <time>2020-07-02T14:41:42Z</time>
      </trkpt>
      <trkpt lat="47.90891" lon="1.90086">
        <ele>116.1</ele>
        <time>2020-07-02T14:41:43Z</time>
      </trkpt>
      <trkpt lat="47.90892" lon="1.90084">
        <ele>116</ele>
        <time>2020-07-02T14:41:44Z</time>
      </trkpt>
      <trkpt lat="47.90892" lon="1.90082">
        <ele>116</ele>
        <time>2020-07-02T14:41:45Z</time>
      </trkpt>
      <trkpt lat="47.90893" lon="1.9008">
        <ele>116</ele>
        <time>2020-07-02T14:41:46Z</time>
      </trkpt>
      <trkpt lat="47.90893" lon="1.90078">
        <ele>116</ele>
        <time>2020-07-02T14:41:47Z</time>
      </trkpt>
      <trkpt lat="47.90893" lon="1.90074">
        <ele>115.9</ele>
        <time>2020-07-02T14:41:48Z</time>
      </trkpt>
      <trkpt lat="47.90894" lon="1.90073">
        <ele>115.9</ele>
        <time>2020-07-02T14:41:49Z</time>
      </trkpt>
      <trkpt lat="47.90894" lon="1.90068">
        <ele>115.9</ele>
        <time>2020-07-02T14:41:50Z</time>
      </trkpt>
      <trkpt lat="47.90895" lon="1.90067">
        <ele>115.9</ele>
        <time>2020-07-02T14:41:51Z</time>
      </trkpt>
      <trkpt lat="47.90895" lon="1.90061">
        <ele>115.8</ele>
        <time>2020-07-02T14:41:52Z</time>
      </trkpt>
      <trkpt lat="47.90895" lon="1.9006">
        <ele>115.8</ele>
        <time>2020-07-02T14:41:53Z</time>
      </trkpt>
      <trkpt lat="47.90894" lon="1.90055">
        <ele>115.7</ele>
        <time>2020-07-02T14:41:54Z</time>
      </trkpt>
      <trkpt lat="47.90894" lon="1.90053">
        <ele>115.7</ele>
        <time>2020-07-02T14:41:55Z</time>
      </trkpt>
      <trkpt lat="47.90893" lon="1.90047">
        <ele>115.6</ele>
        <time>2020-07-02T14:41:56Z</time>
      </trkpt>
      <trkpt lat="47.90892" lon="1.90044">
        <ele>115.6</ele>
        <time>2020-07-02T14:41:57Z</time>
      </trkpt>
      <trkpt lat="47.90892" lon="1.90038">
        <ele>115.5</ele>
        <time>2020-07-02T14:41:58Z</time>
      </trkpt>
      <trkpt lat="47.90891" lon="1.90032">
        <ele>115.5</ele>
        <time>2020-07-02T14:41:59Z</time>
      </trkpt>
      <trkpt lat="47.90891" lon="1.90027">
        <ele>115.4</ele>
        <time>2020-07-02T14:42:00Z</time>
      </trkpt>
      <trkpt lat="47.90891" lon="1.90021">
        <ele>115.3</ele>
        <time>2020-07-02T14:42:01Z</time>
      </trkpt>
      <trkpt lat="47.9089" lon="1.90012">
        <ele>115.3</ele>
        <time>2020-07-02T14:42:02Z</time>
      </trkpt>
      <trkpt lat="47.9089" lon="1.90007">
        <ele>115.2</ele>
        <time>2020-07-02T14:42:03Z</time>
      </trkpt>
      <trkpt lat="47.9089" lon="1.90003">
        <ele>115.2</ele>
        <time>2020-07-02T14:42:04Z</time>
      </trkpt>
      <trkpt lat="47.90888" lon="1.89996">
        <ele>115.1</ele>
        <time>2020-07-02T14:42:05Z</time>
      </trkpt>
      <trkpt lat="47.90888" lon="1.89992">
        <ele>115</ele>
        <time>2020-07-02T14:42:06Z</time>
      </trkpt>
      <trkpt lat="47.90887" lon="1.89986">
        <ele>115</ele>
        <time>2020-07-02T14:42:07Z</time>
      </trkpt>
      <trkpt lat="47.90887" lon="1.89985">
        <ele>115</ele>
        <time>2020-07-02T14:42:08Z</time>
      </trkpt>
      <trkpt lat="47.90886" lon="1.8998">
        <ele>114.9</ele>
        <time>2020-07-02T14:42:09Z</time>
      </trkpt>
      <trkpt lat="47.90885" lon="1.89979">
        <ele>114.9</ele>
        <time>2020-07-02T14:42:10Z</time>
      </trkpt>
      <trkpt lat="47.90881" lon="1.89975">
        <ele>114.9</ele>
        <time>2020-07-02T14:42:11Z</time>
      </trkpt>
      <trkpt lat="47.90879" lon="1.89971">
        <ele>114.8</ele>
        <time>2020-07-02T14:42:12Z</time>
      </trkpt>
      <trkpt lat="47.90879" lon="1.89969">
        <ele>114.8</ele>
        <time>2020-07-02T14:42:13Z</time>
      </trkpt>
      <trkpt lat="47.90877" lon="1.89967">
        <ele>114.8</ele>
        <time>2020-07-02T14:42:14Z</time>
      </trkpt>
      <trkpt lat="47.90877" lon="1.89966">
        <ele>114.8</ele>
        <time>2020-07-02T14:42:15Z</time>
      </trkpt>
      <trkpt lat="47.90876" lon="1.89965">
        <ele>114.9</ele>
        <time>2020-07-02T14:42:16Z</time>
      </trkpt>
      <trkpt lat="47.90876" lon="1.89963">
        <ele>114.9</ele>
        <time>2020-07-02T14:42:17Z</time>
      </trkpt>
      <trkpt lat="47.90876" lon="1.8996">
        <ele>115</ele>
        <time>2020-07-02T14:42:18Z</time>
      </trkpt>
      <trkpt lat="47.90876" lon="1.89958">
        <ele>115</ele>
        <time>2020-07-02T14:42:19Z</time>
      </trkpt>
      <trkpt lat="47.90876" lon="1.89956">
        <ele>115</ele>
        <time>2020-07-02T14:42:20Z</time>
      </trkpt>
      <trkpt lat="47.90876" lon="1.89952">
        <ele>115</ele>
        <time>2020-07-02T14:42:21Z</time>
      </trkpt>
      <trkpt lat="47.90876" lon="1.89951">
        <ele>115</ele>
        <time>2020-07-02T14:42:22Z</time>
      </trkpt>
      <trkpt lat="47.90875" lon="1.89945">
        <ele>114.7</ele>
        <time>2020-07-02T14:42:23Z</time>
      </trkpt>
      <trkpt lat="47.90874" lon="1.89943">
        <ele>114.7</ele>
        <time>2020-07-02T14:42:24Z</time>
      </trkpt>
      <trkpt lat="47.90874" lon="1.89938">
        <ele>114.6</ele>
        <time>2020-07-02T14:42:25Z</time>
      </trkpt>
      <trkpt lat="47.90873" lon="1.89933">
        <ele>114.5</ele>
        <time>2020-07-02T14:42:26Z</time>
      </trkpt>
      <trkpt lat="47.90872" lon="1.89929">
        <ele>114.4</ele>
        <time>2020-07-02T14:42:27Z</time>
      </trkpt>
      <trkpt lat="47.90872" lon="1.89923">
        <ele>114.3</ele>
        <time>2020-07-02T14:42:28Z</time>
      </trkpt>
      <trkpt lat="47.90871" lon="1.89915">
        <ele>114.2</ele>
        <time>2020-07-02T14:42:29Z</time>
      </trkpt>
      <trkpt lat="47.90869" lon="1.89906">
        <ele>114</ele>
        <time>2020-07-02T14:42:30Z</time>
      </trkpt>
      <trkpt lat="47.90867" lon="1.89898">
        <ele>113.9</ele>
        <time>2020-07-02T14:42:31Z</time>
      </trkpt>
      <trkpt lat="47.90866" lon="1.8989">
        <ele>113.8</ele>
        <time>2020-07-02T14:42:32Z</time>
      </trkpt>
      <trkpt lat="47.90865" lon="1.89882">
        <ele>113.7</ele>
        <time>2020-07-02T14:42:33Z</time>
      </trkpt>
      <trkpt lat="47.90862" lon="1.89873">
        <ele>113.6</ele>
        <time>2020-07-02T14:42:34Z</time>
      </trkpt>
      <trkpt lat="47.9086" lon="1.89862">
        <ele>113.4</ele>
        <time>2020-07-02T14:42:35Z</time>
      </trkpt>
      <trkpt lat="47.90858" lon="1.89852">
        <ele>113.3</ele>
        <time>2020-07-02T14:42:36Z</time>
      </trkpt>
      <trkpt lat="47.90858" lon="1.89843">
        <ele>113.2</ele>
        <time>2020-07-02T14:42:37Z</time>
      </trkpt>
      <trkpt lat="47.90856" lon="1.89834">
        <ele>113.1</ele>
        <time>2020-07-02T14:42:38Z</time>
      </trkpt>
      <trkpt lat="47.90855" lon="1.89826">
        <ele>113</ele>
        <time>2020-07-02T14:42:39Z</time>
      </trkpt>
      <trkpt lat="47.90854" lon="1.89817">
        <ele>113</ele>
        <time>2020-07-02T14:42:40Z</time>
      </trkpt>
      <trkpt lat="47.90853" lon="1.8981">
        <ele>112.9</ele>
        <time>2020-07-02T14:42:41Z</time>
      </trkpt>
      <trkpt lat="47.90852" lon="1.89803">
        <ele>112.8</ele>
        <time>2020-07-02T14:42:42Z</time>
      </trkpt>
      <trkpt lat="47.90851" lon="1.89795">
        <ele>112.7</ele>
        <time>2020-07-02T14:42:43Z</time>
      </trkpt>
      <trkpt lat="47.9085" lon="1.89787">
        <ele>112.6</ele>
        <time>2020-07-02T14:42:44Z</time>
      </trkpt>
      <trkpt lat="47.90849" lon="1.89779">
        <ele>112.5</ele>
        <time>2020-07-02T14:42:45Z</time>
      </trkpt>
      <trkpt lat="47.90847" lon="1.89771">
        <ele>112.4</ele>
        <time>2020-07-02T14:42:46Z</time>
      </trkpt>
      <trkpt lat="47.90846" lon="1.89764">
        <ele>112.2</ele>
        <time>2020-07-02T14:42:47Z</time>
      </trkpt>
      <trkpt lat="47.90846" lon="1.89756">
        <ele>112.1</ele>
        <time>2020-07-02T14:42:48Z</time>
      </trkpt>
      <trkpt lat="47.90845" lon="1.89749">
        <ele>112</ele>
        <time>2020-07-02T14:42:49Z</time>
      </trkpt>
      <trkpt lat="47.90842" lon="1.89741">
        <ele>111.9</ele>
        <time>2020-07-02T14:42:50Z</time>
      </trkpt>
      <trkpt lat="47.90841" lon="1.89735">
        <ele>111.9</ele>
        <time>2020-07-02T14:42:51Z</time>
      </trkpt>
      <trkpt lat="47.90839" lon="1.89729">
        <ele>111.9</ele>
        <time>2020-07-02T14:42:52Z</time>
      </trkpt>
      <trkpt lat="47.90837" lon="1.89722">
        <ele>111.8</ele>
        <time>2020-07-02T14:42:53Z</time>
      </trkpt>
      <trkpt lat="47.90836" lon="1.89715">
        <ele>111.8</ele>
        <time>2020-07-02T14:42:54Z</time>
      </trkpt>
      <trkpt lat="47.90836" lon="1.8971">
        <ele>111.9</ele>
        <time>2020-07-02T14:42:55Z</time>
      </trkpt>
      <trkpt lat="47.90835" lon="1.89706">
        <ele>111.9</ele>
        <time>2020-07-02T14:42:56Z</time>
      </trkpt>
      <trkpt lat="47.90835" lon="1.89701">
        <ele>111.9</ele>
        <time>2020-07-02T14:42:57Z</time>
      </trkpt>
      <trkpt lat="47.90833" lon="1.89696">
        <ele>111.7</ele>
        <time>2020-07-02T14:42:58Z</time>
      </trkpt>
      <trkpt lat="47.90832" lon="1.89691">
        <ele>111.6</ele>
        <time>2020-07-02T14:42:59Z</time>
      </trkpt>
      <trkpt lat="47.9083" lon="1.89686">
        <ele>111.6</ele>
        <time>2020-07-02T14:43:00Z</time>
      </trkpt>
      <trkpt lat="47.90829" lon="1.8968">
        <ele>111.2</ele>
        <time>2020-07-02T14:43:01Z</time>
      </trkpt>
      <trkpt lat="47.90827" lon="1.89675">
        <ele>111.1</ele>
        <time>2020-07-02T14:43:02Z</time>
      </trkpt>
      <trkpt lat="47.90827" lon="1.89669">
        <ele>111</ele>
        <time>2020-07-02T14:43:03Z</time>
      </trkpt>
      <trkpt lat="47.90826" lon="1.89661">
        <ele>111</ele>
        <time>2020-07-02T14:43:04Z</time>
      </trkpt>
      <trkpt lat="47.90826" lon="1.89654">
        <ele>110.9</ele>
        <time>2020-07-02T14:43:05Z</time>
      </trkpt>
      <trkpt lat="47.90825" lon="1.89647">
        <ele>110.8</ele>
        <time>2020-07-02T14:43:06Z</time>
      </trkpt>
      <trkpt lat="47.90825" lon="1.89639">
        <ele>110.7</ele>
        <time>2020-07-02T14:43:07Z</time>
      </trkpt>
      <trkpt lat="47.90824" lon="1.89631">
        <ele>110.7</ele>
        <time>2020-07-02T14:43:08Z</time>
      </trkpt>
      <trkpt lat="47.90824" lon="1.89623">
        <ele>110.6</ele>
        <time>2020-07-02T14:43:09Z</time>
      </trkpt>
      <trkpt lat="47.90823" lon="1.89615">
        <ele>110.6</ele>
        <time>2020-07-02T14:43:10Z</time>
      </trkpt>
      <trkpt lat="47.90822" lon="1.89606">
        <ele>110.5</ele>
        <time>2020-07-02T14:43:11Z</time>
      </trkpt>
      <trkpt lat="47.90821" lon="1.89598">
        <ele>110.4</ele>
        <time>2020-07-02T14:43:12Z</time>
      </trkpt>
      <trkpt lat="47.9082" lon="1.8959">
        <ele>110.4</ele>
        <time>2020-07-02T14:43:13Z</time>
      </trkpt>
      <trkpt lat="47.90818" lon="1.89581">
        <ele>110.3</ele>
        <time>2020-07-02T14:43:14Z</time>
      </trkpt>
      <trkpt lat="47.90816" lon="1.89572">
        <ele>110.3</ele>
        <time>2020-07-02T14:43:15Z</time>
      </trkpt>
      <trkpt lat="47.90814" lon="1.89563">
        <ele>110.2</ele>
        <time>2020-07-02T14:43:16Z</time>
      </trkpt>
      <trkpt lat="47.90813" lon="1.89554">
        <ele>110.2</ele>
        <time>2020-07-02T14:43:17Z</time>
      </trkpt>
      <trkpt lat="47.90811" lon="1.89546">
        <ele>110.1</ele>
        <time>2020-07-02T14:43:18Z</time>
      </trkpt>
      <trkpt lat="47.90809" lon="1.89538">
        <ele>110.1</ele>
        <time>2020-07-02T14:43:19Z</time>
      </trkpt>
      <trkpt lat="47.90808" lon="1.8953">
        <ele>110</ele>
        <time>2020-07-02T14:43:20Z</time>
      </trkpt>
      <trkpt lat="47.90807" lon="1.89523">
        <ele>110</ele>
        <time>2020-07-02T14:43:21Z</time>
      </trkpt>
      <trkpt lat="47.90806" lon="1.89514">
        <ele>110</ele>
        <time>2020-07-02T14:43:22Z</time>
      </trkpt>
      <trkpt lat="47.90805" lon="1.89506">
        <ele>109.9</ele>
        <time>2020-07-02T14:43:23Z</time>
      </trkpt>
      <trkpt lat="47.90804" lon="1.89497">
        <ele>109.9</ele>
        <time>2020-07-02T14:43:24Z</time>
      </trkpt>
      <trkpt lat="47.90803" lon="1.89489">
        <ele>109.9</ele>
        <time>2020-07-02T14:43:25Z</time>
      </trkpt>
      <trkpt lat="47.90801" lon="1.8948">
        <ele>109.9</ele>
        <time>2020-07-02T14:43:26Z</time>
      </trkpt>
      <trkpt lat="47.908" lon="1.89471">
        <ele>109.9</ele>
        <time>2020-07-02T14:43:27Z</time>
      </trkpt>
      <trkpt lat="47.90799" lon="1.89464">
        <ele>109.9</ele>
        <time>2020-07-02T14:43:28Z</time>
      </trkpt>
      <trkpt lat="47.90799" lon="1.89457">
        <ele>109.9</ele>
        <time>2020-07-02T14:43:29Z</time>
      </trkpt>
      <trkpt lat="47.90798" lon="1.89451">
        <ele>109.9</ele>
        <time>2020-07-02T14:43:30Z</time>
      </trkpt>
      <trkpt lat="47.90798" lon="1.89444">
        <ele>109.9</ele>
        <time>2020-07-02T14:43:31Z</time>
      </trkpt>
      <trkpt lat="47.90798" lon="1.8944">
        <ele>109.9</ele>
        <time>2020-07-02T14:43:32Z</time>
      </trkpt>
      <trkpt lat="47.90798" lon="1.89435">
        <ele>109.9</ele>
        <time>2020-07-02T14:43:33Z</time>
      </trkpt>
      <trkpt lat="47.90797" lon="1.89433">
        <ele>109.9</ele>
        <time>2020-07-02T14:43:34Z</time>
      </trkpt>
      <trkpt lat="47.90798" lon="1.89427">
        <ele>109.9</ele>
        <time>2020-07-02T14:43:35Z</time>
      </trkpt>
      <trkpt lat="47.90798" lon="1.89426">
        <ele>109.9</ele>
        <time>2020-07-02T14:43:36Z</time>
      </trkpt>
      <trkpt lat="47.90798" lon="1.89421">
        <ele>109.9</ele>
        <time>2020-07-02T14:43:37Z</time>
      </trkpt>
      <trkpt lat="47.90801" lon="1.8942">
        <ele>109.8</ele>
        <time>2020-07-02T14:43:38Z</time>
      </trkpt>
      <trkpt lat="47.90804" lon="1.89416">
        <ele>109.8</ele>
        <time>2020-07-02T14:43:39Z</time>
      </trkpt>
      <trkpt lat="47.90805" lon="1.89413">
        <ele>109.8</ele>
        <time>2020-07-02T14:43:40Z</time>
      </trkpt>
      <trkpt lat="47.90807" lon="1.89411">
        <ele>109.8</ele>
        <time>2020-07-02T14:43:41Z</time>
      </trkpt>
      <trkpt lat="47.9081" lon="1.89408">
        <ele>109.8</ele>
        <time>2020-07-02T14:43:42Z</time>
      </trkpt>
      <trkpt lat="47.90812" lon="1.89405">
        <ele>109.8</ele>
        <time>2020-07-02T14:43:43Z</time>
      </trkpt>
      <trkpt lat="47.90814" lon="1.89401">
        <ele>109.8</ele>
        <time>2020-07-02T14:43:44Z</time>
      </trkpt>
      <trkpt lat="47.90814" lon="1.89397">
        <ele>109.7</ele>
        <time>2020-07-02T14:43:45Z</time>
      </trkpt>
      <trkpt lat="47.90811" lon="1.89393">
        <ele>109.8</ele>
        <time>2020-07-02T14:43:46Z</time>
      </trkpt>
      <trkpt lat="47.90811" lon="1.89388">
        <ele>109.8</ele>
        <time>2020-07-02T14:43:47Z</time>
      </trkpt>
      <trkpt lat="47.9081" lon="1.89383">
        <ele>109.8</ele>
        <time>2020-07-02T14:43:48Z</time>
      </trkpt>
      <trkpt lat="47.90809" lon="1.89377">
        <ele>109.9</ele>
        <time>2020-07-02T14:43:49Z</time>
      </trkpt>
      <trkpt lat="47.90809" lon="1.89371">
        <ele>109.9</ele>
        <time>2020-07-02T14:43:50Z</time>
      </trkpt>
      <trkpt lat="47.90808" lon="1.89365">
        <ele>109.9</ele>
        <time>2020-07-02T14:43:51Z</time>
      </trkpt>
      <trkpt lat="47.90807" lon="1.8936">
        <ele>109.9</ele>
        <time>2020-07-02T14:43:52Z</time>
      </trkpt>
      <trkpt lat="47.90807" lon="1.89352">
        <ele>109.9</ele>
        <time>2020-07-02T14:43:53Z</time>
      </trkpt>
      <trkpt lat="47.90808" lon="1.89344">
        <ele>109.9</ele>
        <time>2020-07-02T14:43:54Z</time>
      </trkpt>
      <trkpt lat="47.90809" lon="1.89336">
        <ele>110.1</ele>
        <time>2020-07-02T14:43:55Z</time>
      </trkpt>
      <trkpt lat="47.90812" lon="1.89329">
        <ele>110.2</ele>
        <time>2020-07-02T14:43:56Z</time>
      </trkpt>
      <trkpt lat="47.90814" lon="1.89323">
        <ele>110.2</ele>
        <time>2020-07-02T14:43:57Z</time>
      </trkpt>
      <trkpt lat="47.90816" lon="1.89317">
        <ele>110.4</ele>
        <time>2020-07-02T14:43:58Z</time>
      </trkpt>
      <trkpt lat="47.90818" lon="1.89311">
        <ele>110.5</ele>
        <time>2020-07-02T14:43:59Z</time>
      </trkpt>
      <trkpt lat="47.90821" lon="1.89306">
        <ele>110.6</ele>
        <time>2020-07-02T14:44:00Z</time>
      </trkpt>
      <trkpt lat="47.90823" lon="1.89299">
        <ele>110.8</ele>
        <time>2020-07-02T14:44:01Z</time>
      </trkpt>
      <trkpt lat="47.90826" lon="1.89293">
        <ele>110.9</ele>
        <time>2020-07-02T14:44:02Z</time>
      </trkpt>
      <trkpt lat="47.90828" lon="1.89286">
        <ele>111.1</ele>
        <time>2020-07-02T14:44:03Z</time>
      </trkpt>
      <trkpt lat="47.90831" lon="1.89279">
        <ele>111.2</ele>
        <time>2020-07-02T14:44:04Z</time>
      </trkpt>
      <trkpt lat="47.90833" lon="1.89273">
        <ele>111.4</ele>
        <time>2020-07-02T14:44:05Z</time>
      </trkpt>
      <trkpt lat="47.90836" lon="1.89269">
        <ele>111.5</ele>
        <time>2020-07-02T14:44:06Z</time>
      </trkpt>
      <trkpt lat="47.90836" lon="1.89263">
        <ele>111.7</ele>
        <time>2020-07-02T14:44:07Z</time>
      </trkpt>
      <trkpt lat="47.90837" lon="1.89257">
        <ele>111.8</ele>
        <time>2020-07-02T14:44:08Z</time>
      </trkpt>
      <trkpt lat="47.90839" lon="1.89253">
        <ele>112</ele>
        <time>2020-07-02T14:44:09Z</time>
      </trkpt>
      <trkpt lat="47.90841" lon="1.89248">
        <ele>112.1</ele>
        <time>2020-07-02T14:44:10Z</time>
      </trkpt>
      <trkpt lat="47.90842" lon="1.89244">
        <ele>112.1</ele>
        <time>2020-07-02T14:44:11Z</time>
      </trkpt>
      <trkpt lat="47.90843" lon="1.89238">
        <ele>112.2</ele>
        <time>2020-07-02T14:44:12Z</time>
      </trkpt>
      <trkpt lat="47.90844" lon="1.89234">
        <ele>112.3</ele>
        <time>2020-07-02T14:44:13Z</time>
      </trkpt>
      <trkpt lat="47.90846" lon="1.89228">
        <ele>112.4</ele>
        <time>2020-07-02T14:44:14Z</time>
      </trkpt>
      <trkpt lat="47.90849" lon="1.89223">
        <ele>112.5</ele>
        <time>2020-07-02T14:44:15Z</time>
      </trkpt>
      <trkpt lat="47.9085" lon="1.8922">
        <ele>112.6</ele>
        <time>2020-07-02T14:44:16Z</time>
      </trkpt>
      <trkpt lat="47.90852" lon="1.89216">
        <ele>112.8</ele>
        <time>2020-07-02T14:44:17Z</time>
      </trkpt>
      <trkpt lat="47.90854" lon="1.89211">
        <ele>112.9</ele>
        <time>2020-07-02T14:44:18Z</time>
      </trkpt>
      <trkpt lat="47.90854" lon="1.8921">
        <ele>113</ele>
        <time>2020-07-02T14:44:19Z</time>
      </trkpt>
      <trkpt lat="47.90855" lon="1.89205">
        <ele>113.1</ele>
        <time>2020-07-02T14:44:20Z</time>
      </trkpt>
      <trkpt lat="47.90856" lon="1.89203">
        <ele>113.2</ele>
        <time>2020-07-02T14:44:21Z</time>
      </trkpt>
      <trkpt lat="47.90858" lon="1.89199">
        <ele>113.4</ele>
        <time>2020-07-02T14:44:22Z</time>
      </trkpt>
      <trkpt lat="47.90859" lon="1.89197">
        <ele>113.5</ele>
        <time>2020-07-02T14:44:23Z</time>
      </trkpt>
      <trkpt lat="47.90861" lon="1.89194">
        <ele>113.6</ele>
        <time>2020-07-02T14:44:24Z</time>
      </trkpt>
      <trkpt lat="47.90862" lon="1.89188">
        <ele>113.6</ele>
        <time>2020-07-02T14:44:25Z</time>
      </trkpt>
      <trkpt lat="47.90863" lon="1.89186">
        <ele>113.6</ele>
        <time>2020-07-02T14:44:26Z</time>
      </trkpt>
      <trkpt lat="47.90865" lon="1.89183">
        <ele>113.6</ele>
        <time>2020-07-02T14:44:27Z</time>
      </trkpt>
      <trkpt lat="47.90868" lon="1.89181">
        <ele>113.7</ele>
        <time>2020-07-02T14:44:28Z</time>
      </trkpt>
      <trkpt lat="47.90871" lon="1.89178">
        <ele>113.8</ele>
        <time>2020-07-02T14:44:29Z</time>
      </trkpt>
      <trkpt lat="47.90872" lon="1.89173">
        <ele>113.9</ele>
        <time>2020-07-02T14:44:30Z</time>
      </trkpt>
      <trkpt lat="47.90875" lon="1.89168">
        <ele>114</ele>
        <time>2020-07-02T14:44:31Z</time>
      </trkpt>
      <trkpt lat="47.90877" lon="1.89163">
        <ele>114.1</ele>
        <time>2020-07-02T14:44:32Z</time>
      </trkpt>
      <trkpt lat="47.90879" lon="1.89159">
        <ele>114.1</ele>
        <time>2020-07-02T14:44:33Z</time>
      </trkpt>
      <trkpt lat="47.90881" lon="1.89154">
        <ele>114.1</ele>
        <time>2020-07-02T14:44:34Z</time>
      </trkpt>
      <trkpt lat="47.90883" lon="1.89149">
        <ele>114.2</ele>
        <time>2020-07-02T14:44:35Z</time>
      </trkpt>
      <trkpt lat="47.90886" lon="1.89144">
        <ele>114.2</ele>
        <time>2020-07-02T14:44:36Z</time>
      </trkpt>
      <trkpt lat="47.90888" lon="1.89139">
        <ele>114.3</ele>
        <time>2020-07-02T14:44:37Z</time>
      </trkpt>
      <trkpt lat="47.90891" lon="1.89134">
        <ele>114.3</ele>
        <time>2020-07-02T14:44:38Z</time>
      </trkpt>
      <trkpt lat="47.90894" lon="1.89128">
        <ele>114.3</ele>
        <time>2020-07-02T14:44:39Z</time>
      </trkpt>
      <trkpt lat="47.90896" lon="1.89121">
        <ele>114.4</ele>
        <time>2020-07-02T14:44:40Z</time>
      </trkpt>
      <trkpt lat="47.90899" lon="1.89115">
        <ele>114.4</ele>
        <time>2020-07-02T14:44:41Z</time>
      </trkpt>
      <trkpt lat="47.90901" lon="1.89109">
        <ele>114.4</ele>
        <time>2020-07-02T14:44:42Z</time>
      </trkpt>
      <trkpt lat="47.90903" lon="1.89103">
        <ele>114.4</ele>
        <time>2020-07-02T14:44:43Z</time>
      </trkpt>
      <trkpt lat="47.90905" lon="1.89097">
        <ele>114.5</ele>
        <time>2020-07-02T14:44:44Z</time>
      </trkpt>
      <trkpt lat="47.90907" lon="1.8909">
        <ele>114.5</ele>
        <time>2020-07-02T14:44:45Z</time>
      </trkpt>
      <trkpt lat="47.9091" lon="1.89083">
        <ele>114.6</ele>
        <time>2020-07-02T14:44:46Z</time>
      </trkpt>
      <trkpt lat="47.90912" lon="1.89075">
        <ele>114.6</ele>
        <time>2020-07-02T14:44:47Z</time>
      </trkpt>
      <trkpt lat="47.90915" lon="1.8907">
        <ele>114.7</ele>
        <time>2020-07-02T14:44:48Z</time>
      </trkpt>
      <trkpt lat="47.90918" lon="1.89064">
        <ele>114.8</ele>
        <time>2020-07-02T14:44:49Z</time>
      </trkpt>
      <trkpt lat="47.9092" lon="1.89058">
        <ele>114.9</ele>
        <time>2020-07-02T14:44:50Z</time>
      </trkpt>
      <trkpt lat="47.90923" lon="1.89052">
        <ele>114.9</ele>
        <time>2020-07-02T14:44:51Z</time>
      </trkpt>
      <trkpt lat="47.90926" lon="1.89047">
        <ele>115</ele>
        <time>2020-07-02T14:44:52Z</time>
      </trkpt>
      <trkpt lat="47.90928" lon="1.89042">
        <ele>115.1</ele>
        <time>2020-07-02T14:44:53Z</time>
      </trkpt>
      <trkpt lat="47.90929" lon="1.89038">
        <ele>115.2</ele>
        <time>2020-07-02T14:44:54Z</time>
      </trkpt>
      <trkpt lat="47.90931" lon="1.89034">
        <ele>115.2</ele>
        <time>2020-07-02T14:44:55Z</time>
      </trkpt>
      <trkpt lat="47.90934" lon="1.89029">
        <ele>115.3</ele>
        <time>2020-07-02T14:44:56Z</time>
      </trkpt>
      <trkpt lat="47.90935" lon="1.89027">
        <ele>115.3</ele>
        <time>2020-07-02T14:44:57Z</time>
      </trkpt>
      <trkpt lat="47.90936" lon="1.89021">
        <ele>115.4</ele>
        <time>2020-07-02T14:44:58Z</time>
      </trkpt>
      <trkpt lat="47.90936" lon="1.8902">
        <ele>115.5</ele>
        <time>2020-07-02T14:44:59Z</time>
      </trkpt>
      <trkpt lat="47.90935" lon="1.89016">
        <ele>115.5</ele>
        <time>2020-07-02T14:45:00Z</time>
      </trkpt>
      <trkpt lat="47.90931" lon="1.89012">
        <ele>115.5</ele>
        <time>2020-07-02T14:45:01Z</time>
      </trkpt>
      <trkpt lat="47.90929" lon="1.89009">
        <ele>115.5</ele>
        <time>2020-07-02T14:45:02Z</time>
      </trkpt>
      <trkpt lat="47.90925" lon="1.89006">
        <ele>115.5</ele>
        <time>2020-07-02T14:45:03Z</time>
      </trkpt>
      <trkpt lat="47.90922" lon="1.89004">
        <ele>115.5</ele>
        <time>2020-07-02T14:45:04Z</time>
      </trkpt>
      <trkpt lat="47.90918" lon="1.89002">
        <ele>115.5</ele>
        <time>2020-07-02T14:45:05Z</time>
      </trkpt>
      <trkpt lat="47.90915" lon="1.89002">
        <ele>115.5</ele>
        <time>2020-07-02T14:45:06Z</time>
      </trkpt>
      <trkpt lat="47.90912" lon="1.89001">
        <ele>115.5</ele>
        <time>2020-07-02T14:45:07Z</time>
      </trkpt>
      <trkpt lat="47.90908" lon="1.89001">
        <ele>115.5</ele>
        <time>2020-07-02T14:45:08Z</time>
      </trkpt>
      <trkpt lat="47.90905" lon="1.89">
        <ele>115.5</ele>
        <time>2020-07-02T14:45:09Z</time>
      </trkpt>
      <trkpt lat="47.90906" lon="1.88983">
        <ele>115.6</ele>
        <time>2020-07-02T14:45:10Z</time>
      </trkpt>
      <trkpt lat="47.90903" lon="1.88982">
        <ele>115.6</ele>
        <time>2020-07-02T14:45:11Z</time>
      </trkpt>
      <trkpt lat="47.90899" lon="1.8898">
        <ele>115.6</ele>
        <time>2020-07-02T14:45:12Z</time>
      </trkpt>
      <trkpt lat="47.90898" lon="1.88979">
        <ele>115.6</ele>
        <time>2020-07-02T14:45:13Z</time>
      </trkpt>
      <trkpt lat="47.90895" lon="1.88975">
        <ele>115.6</ele>
        <time>2020-07-02T14:45:14Z</time>
      </trkpt>
      <trkpt lat="47.90895" lon="1.88975">
        <ele>115.6</ele>
        <time>2020-07-02T14:45:15Z</time>
      </trkpt>
      <trkpt lat="47.90897" lon="1.88974">
        <ele>115.6</ele>
        <time>2020-07-02T14:45:16Z</time>
      </trkpt>
      <trkpt lat="47.909" lon="1.88975">
        <ele>115.6</ele>
        <time>2020-07-02T14:45:17Z</time>
      </trkpt>
      <trkpt lat="47.90898" lon="1.88972">
        <ele>115.7</ele>
        <time>2020-07-02T14:45:18Z</time>
      </trkpt>
      <trkpt lat="47.90897" lon="1.88969">
        <ele>115.7</ele>
        <time>2020-07-02T14:45:19Z</time>
      </trkpt>
      <trkpt lat="47.90897" lon="1.88964">
        <ele>116.1</ele>
        <time>2020-07-02T14:45:20Z</time>
      </trkpt>
      <trkpt lat="47.90897" lon="1.88963">
        <ele>116.1</ele>
        <time>2020-07-02T14:45:21Z</time>
      </trkpt>
      <trkpt lat="47.90895" lon="1.88957">
        <ele>116.2</ele>
        <time>2020-07-02T14:45:22Z</time>
      </trkpt>
      <trkpt lat="47.90895" lon="1.88956">
        <ele>116.4</ele>
        <time>2020-07-02T14:45:23Z</time>
      </trkpt>
      <trkpt lat="47.90893" lon="1.88951">
        <ele>116.4</ele>
        <time>2020-07-02T14:45:24Z</time>
      </trkpt>
      <trkpt lat="47.90892" lon="1.88949">
        <ele>116.4</ele>
        <time>2020-07-02T14:45:25Z</time>
      </trkpt>
      <trkpt lat="47.90891" lon="1.88946">
        <ele>116.5</ele>
        <time>2020-07-02T14:45:26Z</time>
      </trkpt>
      <trkpt lat="47.90891" lon="1.88946">
        <ele>116.5</ele>
        <time>2020-07-02T14:45:27Z</time>
      </trkpt>
      <trkpt lat="47.9089" lon="1.88944">
        <ele>116.5</ele>
        <time>2020-07-02T14:45:28Z</time>
      </trkpt>
      <trkpt lat="47.90889" lon="1.88945">
        <ele>116.4</ele>
        <time>2020-07-02T14:45:29Z</time>
      </trkpt>
      <trkpt lat="47.90888" lon="1.88945">
        <ele>116.4</ele>
        <time>2020-07-02T14:45:30Z</time>
      </trkpt>
      <trkpt lat="47.90887" lon="1.88945">
        <ele>116.4</ele>
        <time>2020-07-02T14:45:31Z</time>
      </trkpt>
      <trkpt lat="47.90887" lon="1.88943">
        <ele>116.5</ele>
        <time>2020-07-02T14:45:32Z</time>
      </trkpt>
      <trkpt lat="47.90886" lon="1.88942">
        <ele>116.4</ele>
        <time>2020-07-02T14:45:33Z</time>
      </trkpt>
      <trkpt lat="47.90886" lon="1.88942">
        <ele>116.4</ele>
        <time>2020-07-02T14:45:34Z</time>
      </trkpt>
      <trkpt lat="47.90885" lon="1.88941">
        <ele>116.4</ele>
        <time>2020-07-02T14:45:35Z</time>
      </trkpt>
      <trkpt lat="47.90884" lon="1.88941">
        <ele>116.4</ele>
        <time>2020-07-02T14:45:36Z</time>
      </trkpt>
      <trkpt lat="47.90884" lon="1.8894">
        <ele>116.4</ele>
        <time>2020-07-02T14:45:37Z</time>
      </trkpt>
      <trkpt lat="47.90884" lon="1.8894">
        <ele>116.4</ele>
        <time>2020-07-02T14:45:38Z</time>
      </trkpt>
      <trkpt lat="47.90883" lon="1.88939">
        <ele>116.3</ele>
        <time>2020-07-02T14:45:39Z</time>
      </trkpt>
      <trkpt lat="47.90882" lon="1.88941">
        <ele>116.3</ele>
        <time>2020-07-02T14:45:40Z</time>
      </trkpt>
      <trkpt lat="47.90881" lon="1.88941">
        <ele>116.3</ele>
        <time>2020-07-02T14:45:41Z</time>
      </trkpt>
      <trkpt lat="47.90881" lon="1.8894">
        <ele>116.3</ele>
        <time>2020-07-02T14:45:42Z</time>
      </trkpt>
      <trkpt lat="47.90881" lon="1.8894">
        <ele>116.3</ele>
        <time>2020-07-02T14:45:43Z</time>
      </trkpt>
      <trkpt lat="47.90881" lon="1.8894">
        <ele>116.3</ele>
        <time>2020-07-02T14:45:44Z</time>
      </trkpt>
      <trkpt lat="47.9088" lon="1.88939">
        <ele>116.2</ele>
        <time>2020-07-02T14:45:45Z</time>
      </trkpt>
      <trkpt lat="47.90879" lon="1.88938">
        <ele>116.3</ele>
        <time>2020-07-02T14:45:46Z</time>
      </trkpt>
      <trkpt lat="47.90877" lon="1.88938">
        <ele>116.2</ele>
        <time>2020-07-02T14:45:47Z</time>
      </trkpt>
      <trkpt lat="47.90877" lon="1.88937">
        <ele>116.2</ele>
        <time>2020-07-02T14:45:48Z</time>
      </trkpt>
      <trkpt lat="47.90877" lon="1.88937">
        <ele>116.2</ele>
        <time>2020-07-02T14:45:49Z</time>
      </trkpt>
      <trkpt lat="47.90878" lon="1.88938">
        <ele>116.2</ele>
        <time>2020-07-02T14:45:50Z</time>
      </trkpt>
      <trkpt lat="47.90878" lon="1.88938">
        <ele>116.3</ele>
        <time>2020-07-02T14:45:51Z</time>
      </trkpt>
      <trkpt lat="47.90878" lon="1.88937">
        <ele>116.3</ele>
        <time>2020-07-02T14:45:52Z</time>
      </trkpt>
      <trkpt lat="47.90935" lon="1.89013">
        <ele>115.2</ele>
        <time>2020-07-02T14:49:16Z</time>
      </trkpt>
      <trkpt lat="47.90947" lon="1.88969">
        <ele>116.9</ele>
        <time>2020-07-02T14:49:17Z</time>
      </trkpt>
      <trkpt lat="47.90947" lon="1.88969">
        <ele>116.8</ele>
        <time>2020-07-02T14:49:18Z</time>
      </trkpt>
      <trkpt lat="47.90947" lon="1.88971">
        <ele>116.8</ele>
        <time>2020-07-02T14:49:19Z</time>
      </trkpt>
      <trkpt lat="47.90946" lon="1.88974">
        <ele>116.5</ele>
        <time>2020-07-02T14:49:20Z</time>
      </trkpt>
      <trkpt lat="47.90943" lon="1.88976">
        <ele>116.4</ele>
        <time>2020-07-02T14:49:21Z</time>
      </trkpt>
      <trkpt lat="47.90942" lon="1.88978">
        <ele>116.4</ele>
        <time>2020-07-02T14:49:22Z</time>
      </trkpt>
      <trkpt lat="47.90939" lon="1.88981">
        <ele>116.2</ele>
        <time>2020-07-02T14:49:23Z</time>
      </trkpt>
      <trkpt lat="47.90938" lon="1.88982">
        <ele>116.1</ele>
        <time>2020-07-02T14:49:24Z</time>
      </trkpt>
      <trkpt lat="47.90936" lon="1.88984">
        <ele>116</ele>
        <time>2020-07-02T14:49:25Z</time>
      </trkpt>
      <trkpt lat="47.9093" lon="1.88986">
        <ele>115.9</ele>
        <time>2020-07-02T14:49:26Z</time>
      </trkpt>
      <trkpt lat="47.90926" lon="1.88987">
        <ele>115.6</ele>
        <time>2020-07-02T14:49:27Z</time>
      </trkpt>
      <trkpt lat="47.90922" lon="1.88988">
        <ele>115.6</ele>
        <time>2020-07-02T14:49:28Z</time>
      </trkpt>
      <trkpt lat="47.90919" lon="1.88988">
        <ele>115.5</ele>
        <time>2020-07-02T14:49:29Z</time>
      </trkpt>
      <trkpt lat="47.90916" lon="1.88991">
        <ele>115.3</ele>
        <time>2020-07-02T14:49:30Z</time>
      </trkpt>
      <trkpt lat="47.90912" lon="1.88993">
        <ele>115.2</ele>
        <time>2020-07-02T14:49:31Z</time>
      </trkpt>
      <trkpt lat="47.90909" lon="1.88996">
        <ele>115.1</ele>
        <time>2020-07-02T14:49:32Z</time>
      </trkpt>
      <trkpt lat="47.90908" lon="1.88997">
        <ele>115.1</ele>
        <time>2020-07-02T14:49:33Z</time>
      </trkpt>
      <trkpt lat="47.90905" lon="1.88999">
        <ele>115</ele>
        <time>2020-07-02T14:49:34Z</time>
      </trkpt>
      <trkpt lat="47.90904" lon="1.88999">
        <ele>115</ele>
        <time>2020-07-02T14:49:35Z</time>
      </trkpt>
      <trkpt lat="47.90902" lon="1.89002">
        <ele>114.8</ele>
        <time>2020-07-02T14:49:36Z</time>
      </trkpt>
      <trkpt lat="47.90901" lon="1.89003">
        <ele>114.8</ele>
        <time>2020-07-02T14:49:37Z</time>
      </trkpt>
      <trkpt lat="47.909" lon="1.89004">
        <ele>114.7</ele>
        <time>2020-07-02T14:49:38Z</time>
      </trkpt>
      <trkpt lat="47.909" lon="1.89005">
        <ele>114.7</ele>
        <time>2020-07-02T14:49:39Z</time>
      </trkpt>
      <trkpt lat="47.90899" lon="1.89005">
        <ele>114.7</ele>
        <time>2020-07-02T14:49:40Z</time>
      </trkpt>
      <trkpt lat="47.90898" lon="1.89006">
        <ele>114.7</ele>
        <time>2020-07-02T14:49:41Z</time>
      </trkpt>
      <trkpt lat="47.90898" lon="1.89006">
        <ele>114.6</ele>
        <time>2020-07-02T14:49:42Z</time>
      </trkpt>
      <trkpt lat="47.90897" lon="1.89006">
        <ele>114.6</ele>
        <time>2020-07-02T14:49:43Z</time>
      </trkpt>
      <trkpt lat="47.90896" lon="1.89006">
        <ele>114.6</ele>
        <time>2020-07-02T14:49:44Z</time>
      </trkpt>
      <trkpt lat="47.90895" lon="1.89006">
        <ele>114.6</ele>
        <time>2020-07-02T14:49:45Z</time>
      </trkpt>
      <trkpt lat="47.90895" lon="1.89005">
        <ele>114.6</ele>
        <time>2020-07-02T14:49:46Z</time>
      </trkpt>
      <trkpt lat="47.90895" lon="1.89005">
        <ele>114.6</ele>
        <time>2020-07-02T14:49:47Z</time>
      </trkpt>
      <trkpt lat="47.90894" lon="1.89004">
        <ele>114.6</ele>
        <time>2020-07-02T14:49:48Z</time>
      </trkpt>
      <trkpt lat="47.90893" lon="1.89002">
        <ele>114.7</ele>
        <time>2020-07-02T14:49:49Z</time>
      </trkpt>
      <trkpt lat="47.90888" lon="1.89">
        <ele>114.6</ele>
        <time>2020-07-02T14:49:50Z</time>
      </trkpt>
      <trkpt lat="47.90884" lon="1.88999">
        <ele>114.6</ele>
        <time>2020-07-02T14:49:51Z</time>
      </trkpt>
      <trkpt lat="47.9088" lon="1.88998">
        <ele>114.6</ele>
        <time>2020-07-02T14:49:52Z</time>
      </trkpt>
      <trkpt lat="47.90876" lon="1.88997">
        <ele>114.6</ele>
        <time>2020-07-02T14:49:53Z</time>
      </trkpt>
      <trkpt lat="47.90872" lon="1.88996">
        <ele>114.5</ele>
        <time>2020-07-02T14:49:54Z</time>
      </trkpt>
      <trkpt lat="47.90868" lon="1.88995">
        <ele>114.5</ele>
        <time>2020-07-02T14:50:26Z</time>
      </trkpt>
      <trkpt lat="47.90864" lon="1.88994">
        <ele>114.6</ele>
        <time>2020-07-02T14:50:27Z</time>
      </trkpt>
      <trkpt lat="47.90863" lon="1.88994">
        <ele>114.5</ele>
        <time>2020-07-02T14:50:28Z</time>
      </trkpt>
      <trkpt lat="47.90861" lon="1.88993">
        <ele>114.5</ele>
        <time>2020-07-02T14:50:29Z</time>
      </trkpt>
      <trkpt lat="47.9086" lon="1.88991">
        <ele>114.5</ele>
        <time>2020-07-02T14:50:30Z</time>
      </trkpt>
      <trkpt lat="47.90859" lon="1.8899">
        <ele>114.6</ele>
        <time>2020-07-02T14:50:31Z</time>
      </trkpt>
      <trkpt lat="47.90856" lon="1.88989">
        <ele>114.5</ele>
        <time>2020-07-02T14:50:32Z</time>
      </trkpt>
      <trkpt lat="47.90855" lon="1.88989">
        <ele>114.5</ele>
        <time>2020-07-02T14:50:33Z</time>
      </trkpt>
      <trkpt lat="47.90854" lon="1.88989">
        <ele>114.5</ele>
        <time>2020-07-02T14:50:34Z</time>
      </trkpt>
      <trkpt lat="47.90853" lon="1.88989">
        <ele>114.5</ele>
        <time>2020-07-02T14:50:35Z</time>
      </trkpt>
      <trkpt lat="47.90852" lon="1.88988">
        <ele>114.5</ele>
        <time>2020-07-02T14:50:36Z</time>
      </trkpt>
      <trkpt lat="47.90851" lon="1.88989">
        <ele>114.5</ele>
        <time>2020-07-02T14:50:37Z</time>
      </trkpt>
      <trkpt lat="47.90849" lon="1.88988">
        <ele>114.5</ele>
        <time>2020-07-02T14:50:38Z</time>
      </trkpt>
      <trkpt lat="47.90848" lon="1.88987">
        <ele>114.4</ele>
        <time>2020-07-02T14:50:39Z</time>
      </trkpt>
      <trkpt lat="47.90847" lon="1.88987">
        <ele>114.4</ele>
        <time>2020-07-02T14:50:40Z</time>
      </trkpt>
      <trkpt lat="47.90847" lon="1.88987">
        <ele>114.4</ele>
        <time>2020-07-02T14:50:41Z</time>
      </trkpt>
      <trkpt lat="47.90847" lon="1.88987">
        <ele>114.4</ele>
        <time>2020-07-02T14:50:42Z</time>
      </trkpt>
      <trkpt lat="47.90847" lon="1.88987">
        <ele>114.4</ele>
        <time>2020-07-02T14:50:43Z</time>
      </trkpt>
      <trkpt lat="47.90916" lon="1.88913">
        <ele>117.4</ele>
        <time>2020-07-02T14:55:15Z</time>
      </trkpt>
      <trkpt lat="47.90916" lon="1.88913">
        <ele>117.4</ele>
        <time>2020-07-02T14:55:16Z</time>
      </trkpt>
      <trkpt lat="47.90918" lon="1.88913">
        <ele>117.4</ele>
        <time>2020-07-02T14:55:17Z</time>
      </trkpt>
      <trkpt lat="47.90921" lon="1.88912">
        <ele>117.4</ele>
        <time>2020-07-02T14:55:18Z</time>
      </trkpt>
      <trkpt lat="47.90922" lon="1.88911">
        <ele>117.5</ele>
        <time>2020-07-02T14:55:19Z</time>
      </trkpt>
      <trkpt lat="47.90924" lon="1.8891">
        <ele>117.5</ele>
        <time>2020-07-02T14:55:20Z</time>
      </trkpt>
      <trkpt lat="47.90926" lon="1.88908">
        <ele>117.4</ele>
        <time>2020-07-02T14:55:21Z</time>
      </trkpt>
      <trkpt lat="47.90927" lon="1.88907">
        <ele>117.4</ele>
        <time>2020-07-02T14:55:22Z</time>
      </trkpt>
      <trkpt lat="47.90929" lon="1.88906">
        <ele>117.4</ele>
        <time>2020-07-02T14:55:23Z</time>
      </trkpt>
      <trkpt lat="47.90931" lon="1.88905">
        <ele>117.4</ele>
        <time>2020-07-02T14:55:24Z</time>
      </trkpt>
      <trkpt lat="47.90932" lon="1.88904">
        <ele>117.4</ele>
        <time>2020-07-02T14:55:25Z</time>
      </trkpt>
      <trkpt lat="47.90934" lon="1.88903">
        <ele>117.4</ele>
        <time>2020-07-02T14:55:26Z</time>
      </trkpt>
      <trkpt lat="47.90936" lon="1.88902">
        <ele>117.4</ele>
        <time>2020-07-02T14:55:27Z</time>
      </trkpt>
      <trkpt lat="47.90938" lon="1.889">
        <ele>117.3</ele>
        <time>2020-07-02T14:55:28Z</time>
      </trkpt>
      <trkpt lat="47.90939" lon="1.88899">
        <ele>117.3</ele>
        <time>2020-07-02T14:55:29Z</time>
      </trkpt>
      <trkpt lat="47.90941" lon="1.88898">
        <ele>117.3</ele>
        <time>2020-07-02T14:55:30Z</time>
      </trkpt>
      <trkpt lat="47.90943" lon="1.88897">
        <ele>117.3</ele>
        <time>2020-07-02T14:55:31Z</time>
      </trkpt>
      <trkpt lat="47.90944" lon="1.88896">
        <ele>117.1</ele>
        <time>2020-07-02T14:55:32Z</time>
      </trkpt>
      <trkpt lat="47.90951" lon="1.88895">
        <ele>117.1</ele>
        <time>2020-07-02T14:55:33Z</time>
      </trkpt>
      <trkpt lat="47.90953" lon="1.88894">
        <ele>117.1</ele>
        <time>2020-07-02T14:55:34Z</time>
      </trkpt>
      <trkpt lat="47.90958" lon="1.88893">
        <ele>117.1</ele>
        <time>2020-07-02T14:55:35Z</time>
      </trkpt>
      <trkpt lat="47.90959" lon="1.88893">
        <ele>117.1</ele>
        <time>2020-07-02T14:55:36Z</time>
      </trkpt>
      <trkpt lat="47.90962" lon="1.8889">
        <ele>117</ele>
        <time>2020-07-02T14:55:37Z</time>
      </trkpt>
      <trkpt lat="47.90963" lon="1.88888">
        <ele>117</ele>
        <time>2020-07-02T14:55:38Z</time>
      </trkpt>
      <trkpt lat="47.90966" lon="1.88884">
        <ele>116.9</ele>
        <time>2020-07-02T14:55:39Z</time>
      </trkpt>
      <trkpt lat="47.90968" lon="1.88881">
        <ele>116.8</ele>
        <time>2020-07-02T14:55:40Z</time>
      </trkpt>
      <trkpt lat="47.90971" lon="1.88879">
        <ele>116.6</ele>
        <time>2020-07-02T14:55:41Z</time>
      </trkpt>
      <trkpt lat="47.90974" lon="1.88876">
        <ele>116.6</ele>
        <time>2020-07-02T14:55:42Z</time>
      </trkpt>
      <trkpt lat="47.90977" lon="1.88874">
        <ele>116.5</ele>
        <time>2020-07-02T14:55:43Z</time>
      </trkpt>
      <trkpt lat="47.90979" lon="1.88871">
        <ele>116.5</ele>
        <time>2020-07-02T14:55:44Z</time>
      </trkpt>
      <trkpt lat="47.90982" lon="1.88869">
        <ele>116.4</ele>
        <time>2020-07-02T14:55:45Z</time>
      </trkpt>
      <trkpt lat="47.90984" lon="1.88867">
        <ele>116.4</ele>
        <time>2020-07-02T14:55:46Z</time>
      </trkpt>
      <trkpt lat="47.90987" lon="1.88865">
        <ele>116.3</ele>
        <time>2020-07-02T14:55:47Z</time>
      </trkpt>
      <trkpt lat="47.9099" lon="1.88862">
        <ele>116.3</ele>
        <time>2020-07-02T14:55:48Z</time>
      </trkpt>
      <trkpt lat="47.90489" lon="1.88698">
        <ele>115.2</ele>
        <time>2020-07-02T15:09:36Z</time>
      </trkpt>
      <trkpt lat="47.90497" lon="1.88706">
        <ele>115.1</ele>
        <time>2020-07-02T15:09:37Z</time>
      </trkpt>
      <trkpt lat="47.90503" lon="1.88713">
        <ele>115</ele>
        <time>2020-07-02T15:09:38Z</time>
      </trkpt>
      <trkpt lat="47.90509" lon="1.88719">
        <ele>114.9</ele>
        <time>2020-07-02T15:09:39Z</time>
      </trkpt>
      <trkpt lat="47.90516" lon="1.88726">
        <ele>114.6</ele>
        <time>2020-07-02T15:09:40Z</time>
      </trkpt>
      <trkpt lat="47.90521" lon="1.88733">
        <ele>114.4</ele>
        <time>2020-07-02T15:09:41Z</time>
      </trkpt>
      <trkpt lat="47.9053" lon="1.88732">
        <ele>114.3</ele>
        <time>2020-07-02T15:09:42Z</time>
      </trkpt>
      <trkpt lat="47.90537" lon="1.8873">
        <ele>114.2</ele>
        <time>2020-07-02T15:09:43Z</time>
      </trkpt>
      <trkpt lat="47.90542" lon="1.88736">
        <ele>114.1</ele>
        <time>2020-07-02T15:09:44Z</time>
      </trkpt>
      <trkpt lat="47.90546" lon="1.88741">
        <ele>113.9</ele>
        <time>2020-07-02T15:09:45Z</time>
      </trkpt>
      <trkpt lat="47.9055" lon="1.88747">
        <ele>113.7</ele>
        <time>2020-07-02T15:09:46Z</time>
      </trkpt>
      <trkpt lat="47.90554" lon="1.88752">
        <ele>113.6</ele>
        <time>2020-07-02T15:09:47Z</time>
      </trkpt>
      <trkpt lat="47.90556" lon="1.88756">
        <ele>113.6</ele>
        <time>2020-07-02T15:09:48Z</time>
      </trkpt>
      <trkpt lat="47.90557" lon="1.88757">
        <ele>113.6</ele>
        <time>2020-07-02T15:09:49Z</time>
      </trkpt>
      <trkpt lat="47.90561" lon="1.88761">
        <ele>113.5</ele>
        <time>2020-07-02T15:09:50Z</time>
      </trkpt>
      <trkpt lat="47.90564" lon="1.88766">
        <ele>113.4</ele>
        <time>2020-07-02T15:09:51Z</time>
      </trkpt>
      <trkpt lat="47.90568" lon="1.8877">
        <ele>113.4</ele>
        <time>2020-07-02T15:09:52Z</time>
      </trkpt>
      <trkpt lat="47.90573" lon="1.88774">
        <ele>113.4</ele>
        <time>2020-07-02T15:09:53Z</time>
      </trkpt>
      <trkpt lat="47.90582" lon="1.88777">
        <ele>113.4</ele>
        <time>2020-07-02T15:09:54Z</time>
      </trkpt>
      <trkpt lat="47.90584" lon="1.8878">
        <ele>113.4</ele>
        <time>2020-07-02T15:09:55Z</time>
      </trkpt>
      <trkpt lat="47.90588" lon="1.88784">
        <ele>113.4</ele>
        <time>2020-07-02T15:09:56Z</time>
      </trkpt>
      <trkpt lat="47.90592" lon="1.88788">
        <ele>113.4</ele>
        <time>2020-07-02T15:09:57Z</time>
      </trkpt>
      <trkpt lat="47.90595" lon="1.8879">
        <ele>113.5</ele>
        <time>2020-07-02T15:09:58Z</time>
      </trkpt>
      <trkpt lat="47.9061" lon="1.88819">
        <ele>113.5</ele>
        <time>2020-07-02T15:09:59Z</time>
      </trkpt>
      <trkpt lat="47.90615" lon="1.88826">
        <ele>113.5</ele>
        <time>2020-07-02T15:10:00Z</time>
      </trkpt>
      <trkpt lat="47.90669" lon="1.88886">
        <ele>113.4</ele>
        <time>2020-07-02T15:10:01Z</time>
      </trkpt>
      <trkpt lat="47.9068" lon="1.88896">
        <ele>113.4</ele>
        <time>2020-07-02T15:10:02Z</time>
      </trkpt>
      <trkpt lat="47.90691" lon="1.88906">
        <ele>113.4</ele>
        <time>2020-07-02T15:10:03Z</time>
      </trkpt>
      <trkpt lat="47.90698" lon="1.88912">
        <ele>113.4</ele>
        <time>2020-07-02T15:10:04Z</time>
      </trkpt>
      <trkpt lat="47.90702" lon="1.88915">
        <ele>113.4</ele>
        <time>2020-07-02T15:10:05Z</time>
      </trkpt>
      <trkpt lat="47.90706" lon="1.88918">
        <ele>113.3</ele>
        <time>2020-07-02T15:10:06Z</time>
      </trkpt>
      <trkpt lat="47.90709" lon="1.88922">
        <ele>113.3</ele>
        <time>2020-07-02T15:10:07Z</time>
      </trkpt>
      <trkpt lat="47.90713" lon="1.88925">
        <ele>113.3</ele>
        <time>2020-07-02T15:10:08Z</time>
      </trkpt>
      <trkpt lat="47.90717" lon="1.8893">
        <ele>113.3</ele>
        <time>2020-07-02T15:10:09Z</time>
      </trkpt>
      <trkpt lat="47.90754" lon="1.88949">
        <ele>113.3</ele>
        <time>2020-07-02T15:10:10Z</time>
      </trkpt>
      <trkpt lat="47.90755" lon="1.88951">
        <ele>113.3</ele>
        <time>2020-07-02T15:10:11Z</time>
      </trkpt>
      <trkpt lat="47.9076" lon="1.88954">
        <ele>113.3</ele>
        <time>2020-07-02T15:10:12Z</time>
      </trkpt>
      <trkpt lat="47.90767" lon="1.88962">
        <ele>113.4</ele>
        <time>2020-07-02T15:10:13Z</time>
      </trkpt>
      <trkpt lat="47.90775" lon="1.88969">
        <ele>113.5</ele>
        <time>2020-07-02T15:10:14Z</time>
      </trkpt>
      <trkpt lat="47.90784" lon="1.88976">
        <ele>113.6</ele>
        <time>2020-07-02T15:10:15Z</time>
      </trkpt>
      <trkpt lat="47.90801" lon="1.88983">
        <ele>113.8</ele>
        <time>2020-07-02T15:10:16Z</time>
      </trkpt>
      <trkpt lat="47.90804" lon="1.88988">
        <ele>113.9</ele>
        <time>2020-07-02T15:10:17Z</time>
      </trkpt>
      <trkpt lat="47.90806" lon="1.88988">
        <ele>113.9</ele>
        <time>2020-07-02T15:10:18Z</time>
      </trkpt>
      <trkpt lat="47.90807" lon="1.88988">
        <ele>113.9</ele>
        <time>2020-07-02T15:10:19Z</time>
      </trkpt>
      <trkpt lat="47.9081" lon="1.88988">
        <ele>113.9</ele>
        <time>2020-07-02T15:10:20Z</time>
      </trkpt>
      <trkpt lat="47.90811" lon="1.88988">
        <ele>113.9</ele>
        <time>2020-07-02T15:10:21Z</time>
      </trkpt>
      <trkpt lat="47.90816" lon="1.8899">
        <ele>114</ele>
        <time>2020-07-02T15:10:22Z</time>
      </trkpt>
      <trkpt lat="47.90817" lon="1.88989">
        <ele>114</ele>
        <time>2020-07-02T15:10:23Z</time>
      </trkpt>
      <trkpt lat="47.90818" lon="1.88988">
        <ele>114</ele>
        <time>2020-07-02T15:10:24Z</time>
      </trkpt>
      <trkpt lat="47.90818" lon="1.88987">
        <ele>114</ele>
        <time>2020-07-02T15:10:25Z</time>
      </trkpt>
      <trkpt lat="47.9082" lon="1.88987">
        <ele>114</ele>
        <time>2020-07-02T15:10:26Z</time>
      </trkpt>
      <trkpt lat="47.90821" lon="1.88988">
        <ele>114.1</ele>
        <time>2020-07-02T15:10:27Z</time>
      </trkpt>
      <trkpt lat="47.90822" lon="1.88989">
        <ele>114.1</ele>
        <time>2020-07-02T15:10:28Z</time>
      </trkpt>
      <trkpt lat="47.90823" lon="1.88994">
        <ele>114.1</ele>
        <time>2020-07-02T15:10:29Z</time>
      </trkpt>
      <trkpt lat="47.90823" lon="1.88997">
        <ele>114.1</ele>
        <time>2020-07-02T15:10:30Z</time>
      </trkpt>
      <trkpt lat="47.90824" lon="1.88997">
        <ele>114.1</ele>
        <time>2020-07-02T15:10:31Z</time>
      </trkpt>
      <trkpt lat="47.90824" lon="1.88995">
        <ele>114.1</ele>
        <time>2020-07-02T15:10:32Z</time>
      </trkpt>
      <trkpt lat="47.90825" lon="1.88994">
        <ele>114.1</ele>
        <time>2020-07-02T15:10:33Z</time>
      </trkpt>
      <trkpt lat="47.90826" lon="1.88993">
        <ele>114.1</ele>
        <time>2020-07-02T15:10:34Z</time>
      </trkpt>
      <trkpt lat="47.90828" lon="1.88994">
        <ele>114.1</ele>
        <time>2020-07-02T15:10:35Z</time>
      </trkpt>
      <trkpt lat="47.9083" lon="1.88995">
        <ele>114.1</ele>
        <time>2020-07-02T15:10:36Z</time>
      </trkpt>
      <trkpt lat="47.90832" lon="1.88996">
        <ele>114.2</ele>
        <time>2020-07-02T15:10:37Z</time>
      </trkpt>
      <trkpt lat="47.90835" lon="1.88996">
        <ele>114.2</ele>
        <time>2020-07-02T15:10:38Z</time>
      </trkpt>
      <trkpt lat="47.90836" lon="1.88995">
        <ele>114.2</ele>
        <time>2020-07-02T15:10:39Z</time>
      </trkpt>
      <trkpt lat="47.90838" lon="1.88994">
        <ele>114.3</ele>
        <time>2020-07-02T15:10:40Z</time>
      </trkpt>
      <trkpt lat="47.90838" lon="1.88993">
        <ele>114.3</ele>
        <time>2020-07-02T15:10:41Z</time>
      </trkpt>
      <trkpt lat="47.90839" lon="1.88992">
        <ele>114.3</ele>
        <time>2020-07-02T15:10:42Z</time>
      </trkpt>
      <trkpt lat="47.9084" lon="1.88993">
        <ele>114.3</ele>
        <time>2020-07-02T15:10:43Z</time>
      </trkpt>
      <trkpt lat="47.90841" lon="1.88995">
        <ele>114.3</ele>
        <time>2020-07-02T15:10:44Z</time>
      </trkpt>
      <trkpt lat="47.90842" lon="1.88995">
        <ele>114.3</ele>
        <time>2020-07-02T15:10:45Z</time>
      </trkpt>
      <trkpt lat="47.90843" lon="1.88996">
        <ele>114.3</ele>
        <time>2020-07-02T15:10:46Z</time>
      </trkpt>
      <trkpt lat="47.90843" lon="1.88995">
        <ele>114.3</ele>
        <time>2020-07-02T15:10:47Z</time>
      </trkpt>
      <trkpt lat="47.90844" lon="1.88995">
        <ele>114.4</ele>
        <time>2020-07-02T15:10:48Z</time>
      </trkpt>
      <trkpt lat="47.90844" lon="1.88994">
        <ele>114.4</ele>
        <time>2020-07-02T15:10:49Z</time>
      </trkpt>
      <trkpt lat="47.90844" lon="1.88993">
        <ele>114.4</ele>
        <time>2020-07-02T15:10:50Z</time>
      </trkpt>
      <trkpt lat="47.90844" lon="1.88993">
        <ele>114.4</ele>
        <time>2020-07-02T15:10:51Z</time>
      </trkpt>
      <trkpt lat="47.90844" lon="1.88992">
        <ele>114.4</ele>
        <time>2020-07-02T15:10:52Z</time>
      </trkpt>
      <trkpt lat="47.90844" lon="1.88991">
        <ele>114.4</ele>
        <time>2020-07-02T15:10:53Z</time>
      </trkpt>
      <trkpt lat="47.90844" lon="1.88991">
        <ele>114.4</ele>
        <time>2020-07-02T15:10:54Z</time>
      </trkpt>
      <trkpt lat="47.90843" lon="1.88991">
        <ele>114.3</ele>
        <time>2020-07-02T15:10:55Z</time>
      </trkpt>
      <trkpt lat="47.90842" lon="1.8899">
        <ele>114.4</ele>
        <time>2020-07-02T15:10:56Z</time>
      </trkpt>
      <trkpt lat="47.90843" lon="1.8899">
        <ele>114.4</ele>
        <time>2020-07-02T15:10:57Z</time>
      </trkpt>
      <trkpt lat="47.90842" lon="1.8899">
        <ele>114.4</ele>
        <time>2020-07-02T15:10:58Z</time>
      </trkpt>
      <trkpt lat="47.90842" lon="1.8899">
        <ele>114.4</ele>
        <time>2020-07-02T15:10:59Z</time>
      </trkpt>
      <trkpt lat="47.90842" lon="1.8899">
        <ele>114.4</ele>
        <time>2020-07-02T15:11:00Z</time>
      </trkpt>
      <trkpt lat="47.90841" lon="1.88991">
        <ele>114.4</ele>
        <time>2020-07-02T15:11:01Z</time>
      </trkpt>
      <trkpt lat="47.90841" lon="1.8899">
        <ele>114.4</ele>
        <time>2020-07-02T15:11:02Z</time>
      </trkpt>
      <trkpt lat="47.90841" lon="1.8899">
        <ele>114.4</ele>
        <time>2020-07-02T15:11:03Z</time>
      </trkpt>
      <trkpt lat="47.90841" lon="1.8899">
        <ele>114.4</ele>
        <time>2020-07-02T15:11:04Z</time>
      </trkpt>
      <trkpt lat="47.90841" lon="1.8899">
        <ele>114.4</ele>
        <time>2020-07-02T15:11:05Z</time>
      </trkpt>
      <trkpt lat="47.90841" lon="1.88991">
        <ele>114.3</ele>
        <time>2020-07-02T15:11:06Z</time>
      </trkpt>
      <trkpt lat="47.90842" lon="1.88991">
        <ele>114.3</ele>
        <time>2020-07-02T15:11:07Z</time>
      </trkpt>
      <trkpt lat="47.90842" lon="1.88991">
        <ele>114.3</ele>
        <time>2020-07-02T15:11:08Z</time>
      </trkpt>
      <trkpt lat="47.90842" lon="1.88992">
        <ele>114.3</ele>
        <time>2020-07-02T15:11:09Z</time>
      </trkpt>
      <trkpt lat="47.90843" lon="1.88992">
        <ele>114.3</ele>
        <time>2020-07-02T15:11:10Z</time>
      </trkpt>
      <trkpt lat="47.90843" lon="1.88992">
        <ele>114.3</ele>
        <time>2020-07-02T15:11:11Z</time>
      </trkpt>
      <trkpt lat="47.90843" lon="1.88993">
        <ele>114.4</ele>
        <time>2020-07-02T15:11:12Z</time>
      </trkpt>
      <trkpt lat="47.90844" lon="1.88993">
        <ele>114.4</ele>
        <time>2020-07-02T15:11:13Z</time>
      </trkpt>
      <trkpt lat="47.90844" lon="1.88993">
        <ele>114.4</ele>
        <time>2020-07-02T15:11:14Z</time>
      </trkpt>
      <trkpt lat="47.90844" lon="1.88994">
        <ele>114.4</ele>
        <time>2020-07-02T15:11:15Z</time>
      </trkpt>
      <trkpt lat="47.90845" lon="1.88996">
        <ele>114.3</ele>
        <time>2020-07-02T15:11:16Z</time>
      </trkpt>
      <trkpt lat="47.90845" lon="1.88996">
        <ele>114.3</ele>
        <time>2020-07-02T15:11:17Z</time>
      </trkpt>
      <trkpt lat="47.90844" lon="1.88996">
        <ele>114.3</ele>
        <time>2020-07-02T15:11:18Z</time>
      </trkpt>
      <trkpt lat="47.90844" lon="1.88996">
        <ele>114.3</ele>
        <time>2020-07-02T15:11:19Z</time>
      </trkpt>
      <trkpt lat="47.90843" lon="1.88996">
        <ele>114.3</ele>
        <time>2020-07-02T15:11:20Z</time>
      </trkpt>
      <trkpt lat="47.90842" lon="1.88994">
        <ele>114.3</ele>
        <time>2020-07-02T15:11:21Z</time>
      </trkpt>
      <trkpt lat="47.90841" lon="1.88993">
        <ele>114.3</ele>
        <time>2020-07-02T15:11:22Z</time>
      </trkpt>
      <trkpt lat="47.9084" lon="1.88992">
        <ele>114.3</ele>
        <time>2020-07-02T15:11:23Z</time>
      </trkpt>
      <trkpt lat="47.90839" lon="1.88992">
        <ele>114.3</ele>
        <time>2020-07-02T15:11:24Z</time>
      </trkpt>
      <trkpt lat="47.90838" lon="1.88992">
        <ele>114.3</ele>
        <time>2020-07-02T15:11:25Z</time>
      </trkpt>
      <trkpt lat="47.90837" lon="1.88992">
        <ele>114.2</ele>
        <time>2020-07-02T15:11:26Z</time>
      </trkpt>
      <trkpt lat="47.90836" lon="1.88993">
        <ele>114.2</ele>
        <time>2020-07-02T15:11:27Z</time>
      </trkpt>
      <trkpt lat="47.90835" lon="1.88994">
        <ele>114.2</ele>
        <time>2020-07-02T15:11:28Z</time>
      </trkpt>
      <trkpt lat="47.90834" lon="1.88995">
        <ele>114.2</ele>
        <time>2020-07-02T15:11:29Z</time>
      </trkpt>
      <trkpt lat="47.90833" lon="1.88995">
        <ele>114.2</ele>
        <time>2020-07-02T15:11:30Z</time>
      </trkpt>
      <trkpt lat="47.90832" lon="1.88995">
        <ele>114.2</ele>
        <time>2020-07-02T15:11:31Z</time>
      </trkpt>
      <trkpt lat="47.90831" lon="1.88996">
        <ele>114.1</ele>
        <time>2020-07-02T15:11:32Z</time>
      </trkpt>
      <trkpt lat="47.90831" lon="1.88997">
        <ele>114.1</ele>
        <time>2020-07-02T15:11:33Z</time>
      </trkpt>
      <trkpt lat="47.90831" lon="1.88998">
        <ele>114.1</ele>
        <time>2020-07-02T15:11:34Z</time>
      </trkpt>
      <trkpt lat="47.90831" lon="1.88998">
        <ele>114.1</ele>
        <time>2020-07-02T15:11:35Z</time>
      </trkpt>
      <trkpt lat="47.90831" lon="1.88998">
        <ele>114.1</ele>
        <time>2020-07-02T15:11:36Z</time>
      </trkpt>
      <trkpt lat="47.9083" lon="1.88999">
        <ele>114.1</ele>
        <time>2020-07-02T15:11:37Z</time>
      </trkpt>
      <trkpt lat="47.90829" lon="1.88999">
        <ele>114.1</ele>
        <time>2020-07-02T15:11:38Z</time>
      </trkpt>
      <trkpt lat="47.90829" lon="1.89">
        <ele>114.1</ele>
        <time>2020-07-02T15:11:39Z</time>
      </trkpt>
      <trkpt lat="47.90829" lon="1.89001">
        <ele>114.1</ele>
        <time>2020-07-02T15:11:40Z</time>
      </trkpt>
      <trkpt lat="47.90828" lon="1.89">
        <ele>114.1</ele>
        <time>2020-07-02T15:11:41Z</time>
      </trkpt>
      <trkpt lat="47.90828" lon="1.89">
        <ele>114.1</ele>
        <time>2020-07-02T15:11:42Z</time>
      </trkpt>
      <trkpt lat="47.90828" lon="1.89001">
        <ele>114.1</ele>
        <time>2020-07-02T15:11:43Z</time>
      </trkpt>
      <trkpt lat="47.90827" lon="1.89001">
        <ele>114.1</ele>
        <time>2020-07-02T15:11:44Z</time>
      </trkpt>
      <trkpt lat="47.90827" lon="1.89001">
        <ele>114.1</ele>
        <time>2020-07-02T15:11:45Z</time>
      </trkpt>
      <trkpt lat="47.90827" lon="1.89001">
        <ele>114.1</ele>
        <time>2020-07-02T15:11:46Z</time>
      </trkpt>
      <trkpt lat="47.90827" lon="1.89002">
        <ele>114.1</ele>
        <time>2020-07-02T15:11:47Z</time>
      </trkpt>
      <trkpt lat="47.90827" lon="1.89001">
        <ele>114.1</ele>
        <time>2020-07-02T15:11:48Z</time>
      </trkpt>
      <trkpt lat="47.90828" lon="1.89">
        <ele>114.1</ele>
        <time>2020-07-02T15:11:49Z</time>
      </trkpt>
      <trkpt lat="47.90828" lon="1.89001">
        <ele>114.1</ele>
        <time>2020-07-02T15:11:50Z</time>
      </trkpt>
      <trkpt lat="47.90828" lon="1.89001">
        <ele>114.1</ele>
        <time>2020-07-02T15:11:51Z</time>
      </trkpt>
      <trkpt lat="47.90829" lon="1.89002">
        <ele>114.1</ele>
        <time>2020-07-02T15:11:52Z</time>
      </trkpt>
      <trkpt lat="47.9083" lon="1.89001">
        <ele>114.1</ele>
        <time>2020-07-02T15:11:53Z</time>
      </trkpt>
      <trkpt lat="47.90829" lon="1.89002">
        <ele>114.1</ele>
        <time>2020-07-02T15:11:54Z</time>
      </trkpt>
      <trkpt lat="47.90829" lon="1.89002">
        <ele>114.1</ele>
        <time>2020-07-02T15:11:55Z</time>
      </trkpt>
      <trkpt lat="47.90829" lon="1.89003">
        <ele>114.1</ele>
        <time>2020-07-02T15:11:56Z</time>
      </trkpt>
      <trkpt lat="47.90829" lon="1.89002">
        <ele>114.1</ele>
        <time>2020-07-02T15:11:57Z</time>
      </trkpt>
      <trkpt lat="47.90828" lon="1.89003">
        <ele>114.1</ele>
        <time>2020-07-02T15:11:58Z</time>
      </trkpt>
      <trkpt lat="47.90828" lon="1.89004">
        <ele>114.1</ele>
        <time>2020-07-02T15:11:59Z</time>
      </trkpt>
      <trkpt lat="47.90828" lon="1.89003">
        <ele>114.1</ele>
        <time>2020-07-02T15:12:00Z</time>
      </trkpt>
      <trkpt lat="47.90828" lon="1.89002">
        <ele>114.1</ele>
        <time>2020-07-02T15:12:01Z</time>
      </trkpt>
      <trkpt lat="47.90835" lon="1.88997">
        <ele>114.2</ele>
        <time>2020-07-02T15:12:06Z</time>
      </trkpt>
      <trkpt lat="47.90836" lon="1.88997">
        <ele>114.2</ele>
        <time>2020-07-02T15:12:07Z</time>
      </trkpt>
      <trkpt lat="47.90838" lon="1.88997">
        <ele>114.3</ele>
        <time>2020-07-02T15:12:08Z</time>
      </trkpt>
      <trkpt lat="47.90839" lon="1.88997">
        <ele>114.3</ele>
        <time>2020-07-02T15:12:09Z</time>
      </trkpt>
      <trkpt lat="47.90839" lon="1.88998">
        <ele>114.3</ele>
        <time>2020-07-02T15:12:10Z</time>
      </trkpt>
      <trkpt lat="47.9084" lon="1.88998">
        <ele>114.3</ele>
        <time>2020-07-02T15:12:11Z</time>
      </trkpt>
      <trkpt lat="47.9084" lon="1.88998">
        <ele>114.3</ele>
        <time>2020-07-02T15:12:12Z</time>
      </trkpt>
      <trkpt lat="47.9084" lon="1.88998">
        <ele>114.3</ele>
        <time>2020-07-02T15:12:13Z</time>
      </trkpt>
      <trkpt lat="47.9084" lon="1.88998">
        <ele>114.3</ele>
        <time>2020-07-02T15:12:14Z</time>
      </trkpt>
      <trkpt lat="47.90841" lon="1.88998">
        <ele>114.3</ele>
        <time>2020-07-02T15:12:15Z</time>
      </trkpt>
      <trkpt lat="47.90841" lon="1.88999">
        <ele>114.3</ele>
        <time>2020-07-02T15:12:16Z</time>
      </trkpt>
      <trkpt lat="47.90841" lon="1.88998">
        <ele>114.3</ele>
        <time>2020-07-02T15:12:17Z</time>
      </trkpt>
      <trkpt lat="47.90841" lon="1.88998">
        <ele>114.3</ele>
        <time>2020-07-02T15:12:18Z</time>
      </trkpt>
      <trkpt lat="47.90841" lon="1.88998">
        <ele>114.3</ele>
        <time>2020-07-02T15:12:19Z</time>
      </trkpt>
      <trkpt lat="47.90841" lon="1.88998">
        <ele>114.3</ele>
        <time>2020-07-02T15:12:20Z</time>
      </trkpt>
      <trkpt lat="47.90842" lon="1.88998">
        <ele>114.3</ele>
        <time>2020-07-02T15:12:21Z</time>
      </trkpt>
      <trkpt lat="47.90842" lon="1.88999">
        <ele>114.3</ele>
        <time>2020-07-02T15:12:22Z</time>
      </trkpt>
      <trkpt lat="47.90843" lon="1.88999">
        <ele>114.2</ele>
        <time>2020-07-02T15:12:23Z</time>
      </trkpt>
      <trkpt lat="47.90843" lon="1.89">
        <ele>114.3</ele>
        <time>2020-07-02T15:12:24Z</time>
      </trkpt>
      <trkpt lat="47.90844" lon="1.89001">
        <ele>114.3</ele>
        <time>2020-07-02T15:12:25Z</time>
      </trkpt>
      <trkpt lat="47.90844" lon="1.89001">
        <ele>114.3</ele>
        <time>2020-07-02T15:12:26Z</time>
      </trkpt>
      <trkpt lat="47.90845" lon="1.89001">
        <ele>114.3</ele>
        <time>2020-07-02T15:12:27Z</time>
      </trkpt>
      <trkpt lat="47.90845" lon="1.89002">
        <ele>114.3</ele>
        <time>2020-07-02T15:12:28Z</time>
      </trkpt>
      <trkpt lat="47.90845" lon="1.89002">
        <ele>114.3</ele>
        <time>2020-07-02T15:12:29Z</time>
      </trkpt>
      <trkpt lat="47.90846" lon="1.89003">
        <ele>114.3</ele>
        <time>2020-07-02T15:12:30Z</time>
      </trkpt>
      <trkpt lat="47.90846" lon="1.89004">
        <ele>114.3</ele>
        <time>2020-07-02T15:12:31Z</time>
      </trkpt>
      <trkpt lat="47.90847" lon="1.89005">
        <ele>114.3</ele>
        <time>2020-07-02T15:12:32Z</time>
      </trkpt>
      <trkpt lat="47.90847" lon="1.89006">
        <ele>114.3</ele>
        <time>2020-07-02T15:12:33Z</time>
      </trkpt>
      <trkpt lat="47.90847" lon="1.89007">
        <ele>114.3</ele>
        <time>2020-07-02T15:12:34Z</time>
      </trkpt>
      <trkpt lat="47.90847" lon="1.8901">
        <ele>114.2</ele>
        <time>2020-07-02T15:12:35Z</time>
      </trkpt>
      <trkpt lat="47.90848" lon="1.89013">
        <ele>114.2</ele>
        <time>2020-07-02T15:12:36Z</time>
      </trkpt>
      <trkpt lat="47.90849" lon="1.89014">
        <ele>114.2</ele>
        <time>2020-07-02T15:12:37Z</time>
      </trkpt>
      <trkpt lat="47.90849" lon="1.89015">
        <ele>114.2</ele>
        <time>2020-07-02T15:12:38Z</time>
      </trkpt>
      <trkpt lat="47.9085" lon="1.89016">
        <ele>114.2</ele>
        <time>2020-07-02T15:12:39Z</time>
      </trkpt>
      <trkpt lat="47.9085" lon="1.89016">
        <ele>114.2</ele>
        <time>2020-07-02T15:12:40Z</time>
      </trkpt>
      <trkpt lat="47.90851" lon="1.89016">
        <ele>114.2</ele>
        <time>2020-07-02T15:12:41Z</time>
      </trkpt>
      <trkpt lat="47.90851" lon="1.89016">
        <ele>114.2</ele>
        <time>2020-07-02T15:12:42Z</time>
      </trkpt>
      <trkpt lat="47.9085" lon="1.89014">
        <ele>114.2</ele>
        <time>2020-07-02T15:12:43Z</time>
      </trkpt>
      <trkpt lat="47.9085" lon="1.89014">
        <ele>114.2</ele>
        <time>2020-07-02T15:12:44Z</time>
      </trkpt>
      <trkpt lat="47.9085" lon="1.89014">
        <ele>114.2</ele>
        <time>2020-07-02T15:12:45Z</time>
      </trkpt>
      <trkpt lat="47.9085" lon="1.89014">
        <ele>114.2</ele>
        <time>2020-07-02T15:12:46Z</time>
      </trkpt>
      <trkpt lat="47.9085" lon="1.89013">
        <ele>114.2</ele>
        <time>2020-07-02T15:12:47Z</time>
      </trkpt>
      <trkpt lat="47.9085" lon="1.89012">
        <ele>114.2</ele>
        <time>2020-07-02T15:12:48Z</time>
      </trkpt>
      <trkpt lat="47.9085" lon="1.89012">
        <ele>114.2</ele>
        <time>2020-07-02T15:12:49Z</time>
      </trkpt>
      <trkpt lat="47.9085" lon="1.89011">
        <ele>114.2</ele>
        <time>2020-07-02T15:12:50Z</time>
      </trkpt>
      <trkpt lat="47.9085" lon="1.8901">
        <ele>114.2</ele>
        <time>2020-07-02T15:12:51Z</time>
      </trkpt>
      <trkpt lat="47.9085" lon="1.8901">
        <ele>114.2</ele>
        <time>2020-07-02T15:12:52Z</time>
      </trkpt>
      <trkpt lat="47.9085" lon="1.8901">
        <ele>114.2</ele>
        <time>2020-07-02T15:12:53Z</time>
      </trkpt>
      <trkpt lat="47.90849" lon="1.89009">
        <ele>114.2</ele>
        <time>2020-07-02T15:12:54Z</time>
      </trkpt>
      <trkpt lat="47.90849" lon="1.89007">
        <ele>114.3</ele>
        <time>2020-07-02T15:12:55Z</time>
      </trkpt>
      <trkpt lat="47.90849" lon="1.89007">
        <ele>114.3</ele>
        <time>2020-07-02T15:12:56Z</time>
      </trkpt>
      <trkpt lat="47.90849" lon="1.89006">
        <ele>114.3</ele>
        <time>2020-07-02T15:12:57Z</time>
      </trkpt>
      <trkpt lat="47.90849" lon="1.89006">
        <ele>114.3</ele>
        <time>2020-07-02T15:12:58Z</time>
      </trkpt>
      <trkpt lat="47.90849" lon="1.89006">
        <ele>114.3</ele>
        <time>2020-07-02T15:12:59Z</time>
      </trkpt>
      <trkpt lat="47.9085" lon="1.89006">
        <ele>114.3</ele>
        <time>2020-07-02T15:13:00Z</time>
      </trkpt>
      <trkpt lat="47.90849" lon="1.89004">
        <ele>114.3</ele>
        <time>2020-07-02T15:13:01Z</time>
      </trkpt>
      <trkpt lat="47.90849" lon="1.89004">
        <ele>114.3</ele>
        <time>2020-07-02T15:13:02Z</time>
      </trkpt>
      <trkpt lat="47.90849" lon="1.89003">
        <ele>114.3</ele>
        <time>2020-07-02T15:13:03Z</time>
      </trkpt>
      <trkpt lat="47.90849" lon="1.89002">
        <ele>114.3</ele>
        <time>2020-07-02T15:13:04Z</time>
      </trkpt>
      <trkpt lat="47.90848" lon="1.88994">
        <ele>114.4</ele>
        <time>2020-07-02T15:14:02Z</time>
      </trkpt>
      <trkpt lat="47.90848" lon="1.88994">
        <ele>114.4</ele>
        <time>2020-07-02T15:14:03Z</time>
      </trkpt>
      <trkpt lat="47.90848" lon="1.88994">
        <ele>114.4</ele>
        <time>2020-07-02T15:14:04Z</time>
      </trkpt>
      <trkpt lat="47.90847" lon="1.88994">
        <ele>114.4</ele>
        <time>2020-07-02T15:14:05Z</time>
      </trkpt>
      <trkpt lat="47.90847" lon="1.88994">
        <ele>114.4</ele>
        <time>2020-07-02T15:14:06Z</time>
      </trkpt>
      <trkpt lat="47.90847" lon="1.88995">
        <ele>114.4</ele>
        <time>2020-07-02T15:14:07Z</time>
      </trkpt>
      <trkpt lat="47.90846" lon="1.88995">
        <ele>114.3</ele>
        <time>2020-07-02T15:14:08Z</time>
      </trkpt>
      <trkpt lat="47.90847" lon="1.88995">
        <ele>114.3</ele>
        <time>2020-07-02T15:14:09Z</time>
      </trkpt>
      <trkpt lat="47.90848" lon="1.88995">
        <ele>114.3</ele>
        <time>2020-07-02T15:14:10Z</time>
      </trkpt>
      <trkpt lat="47.90848" lon="1.88995">
        <ele>114.3</ele>
        <time>2020-07-02T15:14:11Z</time>
      </trkpt>
      <trkpt lat="47.90848" lon="1.88995">
        <ele>114.4</ele>
        <time>2020-07-02T15:14:12Z</time>
      </trkpt>
      <trkpt lat="47.90848" lon="1.88995">
        <ele>114.3</ele>
        <time>2020-07-02T15:14:13Z</time>
      </trkpt>
      <trkpt lat="47.90848" lon="1.88995">
        <ele>114.3</ele>
        <time>2020-07-02T15:14:14Z</time>
      </trkpt>
      <trkpt lat="47.90848" lon="1.88995">
        <ele>114.3</ele>
        <time>2020-07-02T15:14:15Z</time>
      </trkpt>
      <trkpt lat="47.90849" lon="1.88992">
        <ele>114.4</ele>
        <time>2020-07-02T15:14:16Z</time>
      </trkpt>
      <trkpt lat="47.90846" lon="1.88993">
        <ele>114.4</ele>
        <time>2020-07-02T15:14:17Z</time>
      </trkpt>
      <trkpt lat="47.90846" lon="1.88992">
        <ele>114.4</ele>
        <time>2020-07-02T15:14:18Z</time>
      </trkpt>
      <trkpt lat="47.90845" lon="1.88993">
        <ele>114.4</ele>
        <time>2020-07-02T15:14:19Z</time>
      </trkpt>
      <trkpt lat="47.90845" lon="1.88992">
        <ele>114.4</ele>
        <time>2020-07-02T15:14:20Z</time>
      </trkpt>
      <trkpt lat="47.90845" lon="1.88993">
        <ele>114.4</ele>
        <time>2020-07-02T15:14:21Z</time>
      </trkpt>
      <trkpt lat="47.90841" lon="1.88987">
        <ele>114.4</ele>
        <time>2020-07-02T15:14:30Z</time>
      </trkpt>
      <trkpt lat="47.9084" lon="1.88985">
        <ele>114.4</ele>
        <time>2020-07-02T15:14:31Z</time>
      </trkpt>
      <trkpt lat="47.9084" lon="1.88985">
        <ele>114.4</ele>
        <time>2020-07-02T15:14:32Z</time>
      </trkpt>
      <trkpt lat="47.9084" lon="1.88984">
        <ele>114.4</ele>
        <time>2020-07-02T15:14:33Z</time>
      </trkpt>
      <trkpt lat="47.9084" lon="1.88984">
        <ele>114.4</ele>
        <time>2020-07-02T15:14:34Z</time>
      </trkpt>
      <trkpt lat="47.9084" lon="1.88985">
        <ele>114.4</ele>
        <time>2020-07-02T15:14:35Z</time>
      </trkpt>
      <trkpt lat="47.90841" lon="1.88985">
        <ele>114.4</ele>
        <time>2020-07-02T15:14:36Z</time>
      </trkpt>
      <trkpt lat="47.90841" lon="1.88986">
        <ele>114.4</ele>
        <time>2020-07-02T15:14:37Z</time>
      </trkpt>
      <trkpt lat="47.90841" lon="1.88985">
        <ele>114.4</ele>
        <time>2020-07-02T15:14:38Z</time>
      </trkpt>
      <trkpt lat="47.90841" lon="1.88986">
        <ele>114.4</ele>
        <time>2020-07-02T15:14:39Z</time>
      </trkpt>
      <trkpt lat="47.90841" lon="1.88987">
        <ele>114.4</ele>
        <time>2020-07-02T15:14:40Z</time>
      </trkpt>
      <trkpt lat="47.90841" lon="1.88987">
        <ele>114.4</ele>
        <time>2020-07-02T15:14:41Z</time>
      </trkpt>
      <trkpt lat="47.90842" lon="1.88987">
        <ele>114.4</ele>
        <time>2020-07-02T15:14:42Z</time>
      </trkpt>
      <trkpt lat="47.90842" lon="1.88988">
        <ele>114.4</ele>
        <time>2020-07-02T15:14:43Z</time>
      </trkpt>
      <trkpt lat="47.90841" lon="1.8899">
        <ele>114.4</ele>
        <time>2020-07-02T15:14:44Z</time>
      </trkpt>
      <trkpt lat="47.90841" lon="1.88991">
        <ele>114.4</ele>
        <time>2020-07-02T15:14:45Z</time>
      </trkpt>
      <trkpt lat="47.9084" lon="1.88992">
        <ele>114.4</ele>
        <time>2020-07-02T15:14:46Z</time>
      </trkpt>
      <trkpt lat="47.9084" lon="1.88993">
        <ele>114.4</ele>
        <time>2020-07-02T15:14:47Z</time>
      </trkpt>
      <trkpt lat="47.90839" lon="1.88993">
        <ele>114.4</ele>
        <time>2020-07-02T15:14:48Z</time>
      </trkpt>
      <trkpt lat="47.90838" lon="1.88994">
        <ele>114.4</ele>
        <time>2020-07-02T15:14:49Z</time>
      </trkpt>
      <trkpt lat="47.90838" lon="1.88995">
        <ele>114.4</ele>
        <time>2020-07-02T15:14:50Z</time>
      </trkpt>
      <trkpt lat="47.90837" lon="1.88996">
        <ele>114.3</ele>
        <time>2020-07-02T15:14:51Z</time>
      </trkpt>
      <trkpt lat="47.90837" lon="1.88997">
        <ele>114.3</ele>
        <time>2020-07-02T15:14:52Z</time>
      </trkpt>
      <trkpt lat="47.90836" lon="1.88997">
        <ele>114.4</ele>
        <time>2020-07-02T15:14:53Z</time>
      </trkpt>
      <trkpt lat="47.90836" lon="1.88996">
        <ele>114.4</ele>
        <time>2020-07-02T15:14:54Z</time>
      </trkpt>
      <trkpt lat="47.90837" lon="1.88995">
        <ele>114.4</ele>
        <time>2020-07-02T15:14:55Z</time>
      </trkpt>
      <trkpt lat="47.90837" lon="1.88995">
        <ele>114.4</ele>
        <time>2020-07-02T15:14:56Z</time>
      </trkpt>
      <trkpt lat="47.90837" lon="1.88995">
        <ele>114.4</ele>
        <time>2020-07-02T15:14:57Z</time>
      </trkpt>
      <trkpt lat="47.90837" lon="1.88995">
        <ele>114.4</ele>
        <time>2020-07-02T15:14:58Z</time>
      </trkpt>
      <trkpt lat="47.90837" lon="1.88994">
        <ele>114.4</ele>
        <time>2020-07-02T15:14:59Z</time>
      </trkpt>
      <trkpt lat="47.90837" lon="1.88995">
        <ele>114.4</ele>
        <time>2020-07-02T15:15:00Z</time>
      </trkpt>
      <trkpt lat="47.90837" lon="1.88996">
        <ele>114.4</ele>
        <time>2020-07-02T15:15:01Z</time>
      </trkpt>
      <trkpt lat="47.90836" lon="1.88997">
        <ele>114.4</ele>
        <time>2020-07-02T15:15:02Z</time>
      </trkpt>
      <trkpt lat="47.90836" lon="1.88998">
        <ele>114.4</ele>
        <time>2020-07-02T15:15:03Z</time>
      </trkpt>
      <trkpt lat="47.90837" lon="1.88999">
        <ele>114.4</ele>
        <time>2020-07-02T15:15:04Z</time>
      </trkpt>
      <trkpt lat="47.90836" lon="1.88999">
        <ele>114.4</ele>
        <time>2020-07-02T15:15:05Z</time>
      </trkpt>
      <trkpt lat="47.90836" lon="1.89">
        <ele>114.4</ele>
        <time>2020-07-02T15:15:06Z</time>
      </trkpt>
      <trkpt lat="47.90836" lon="1.88999">
        <ele>114.4</ele>
        <time>2020-07-02T15:15:07Z</time>
      </trkpt>
      <trkpt lat="47.90836" lon="1.89001">
        <ele>114.4</ele>
        <time>2020-07-02T15:15:08Z</time>
      </trkpt>
      <trkpt lat="47.90837" lon="1.89003">
        <ele>114.4</ele>
        <time>2020-07-02T15:15:09Z</time>
      </trkpt>
      <trkpt lat="47.90838" lon="1.89005">
        <ele>114.5</ele>
        <time>2020-07-02T15:15:10Z</time>
      </trkpt>
      <trkpt lat="47.90839" lon="1.89005">
        <ele>114.5</ele>
        <time>2020-07-02T15:15:11Z</time>
      </trkpt>
      <trkpt lat="47.90839" lon="1.89005">
        <ele>114.5</ele>
        <time>2020-07-02T15:15:12Z</time>
      </trkpt>
      <trkpt lat="47.90839" lon="1.89006">
        <ele>114.5</ele>
        <time>2020-07-02T15:15:13Z</time>
      </trkpt>
      <trkpt lat="47.9084" lon="1.89006">
        <ele>114.5</ele>
        <time>2020-07-02T15:15:14Z</time>
      </trkpt>
      <trkpt lat="47.9084" lon="1.89006">
        <ele>114.5</ele>
        <time>2020-07-02T15:15:15Z</time>
      </trkpt>
      <trkpt lat="47.9084" lon="1.89005">
        <ele>114.5</ele>
        <time>2020-07-02T15:15:16Z</time>
      </trkpt>
      <trkpt lat="47.9084" lon="1.89006">
        <ele>114.5</ele>
        <time>2020-07-02T15:15:17Z</time>
      </trkpt>
      <trkpt lat="47.9084" lon="1.89005">
        <ele>114.5</ele>
        <time>2020-07-02T15:15:18Z</time>
      </trkpt>
      <trkpt lat="47.9084" lon="1.89004">
        <ele>114.5</ele>
        <time>2020-07-02T15:15:19Z</time>
      </trkpt>
      <trkpt lat="47.9084" lon="1.89003">
        <ele>114.5</ele>
        <time>2020-07-02T15:15:20Z</time>
      </trkpt>
      <trkpt lat="47.90839" lon="1.89">
        <ele>114.5</ele>
        <time>2020-07-02T15:15:21Z</time>
      </trkpt>
      <trkpt lat="47.90839" lon="1.88999">
        <ele>114.5</ele>
        <time>2020-07-02T15:15:22Z</time>
      </trkpt>
      <trkpt lat="47.90839" lon="1.88998">
        <ele>114.6</ele>
        <time>2020-07-02T15:15:23Z</time>
      </trkpt>
      <trkpt lat="47.90839" lon="1.88998">
        <ele>114.6</ele>
        <time>2020-07-02T15:15:24Z</time>
      </trkpt>
      <trkpt lat="47.90838" lon="1.88996">
        <ele>114.6</ele>
        <time>2020-07-02T15:15:25Z</time>
      </trkpt>
      <trkpt lat="47.90837" lon="1.88995">
        <ele>114.5</ele>
        <time>2020-07-02T15:15:26Z</time>
      </trkpt>
      <trkpt lat="47.90836" lon="1.88993">
        <ele>114.6</ele>
        <time>2020-07-02T15:15:27Z</time>
      </trkpt>
      <trkpt lat="47.90836" lon="1.88992">
        <ele>114.6</ele>
        <time>2020-07-02T15:15:28Z</time>
      </trkpt>
      <trkpt lat="47.90836" lon="1.88991">
        <ele>114.6</ele>
        <time>2020-07-02T15:15:29Z</time>
      </trkpt>
      <trkpt lat="47.90836" lon="1.88992">
        <ele>114.6</ele>
        <time>2020-07-02T15:15:30Z</time>
      </trkpt>
      <trkpt lat="47.90836" lon="1.88992">
        <ele>114.6</ele>
        <time>2020-07-02T15:15:31Z</time>
      </trkpt>
      <trkpt lat="47.90836" lon="1.88992">
        <ele>114.6</ele>
        <time>2020-07-02T15:15:32Z</time>
      </trkpt>
      <trkpt lat="47.90836" lon="1.88991">
        <ele>114.6</ele>
        <time>2020-07-02T15:15:33Z</time>
      </trkpt>
      <trkpt lat="47.90836" lon="1.88991">
        <ele>114.6</ele>
        <time>2020-07-02T15:15:34Z</time>
      </trkpt>
      <trkpt lat="47.90836" lon="1.88991">
        <ele>114.6</ele>
        <time>2020-07-02T15:15:35Z</time>
      </trkpt>
      <trkpt lat="47.90836" lon="1.88991">
        <ele>114.6</ele>
        <time>2020-07-02T15:15:36Z</time>
      </trkpt>
      <trkpt lat="47.90837" lon="1.88991">
        <ele>114.6</ele>
        <time>2020-07-02T15:15:37Z</time>
      </trkpt>
      <trkpt lat="47.90837" lon="1.88992">
        <ele>114.6</ele>
        <time>2020-07-02T15:15:38Z</time>
      </trkpt>
      <trkpt lat="47.90837" lon="1.88994">
        <ele>114.6</ele>
        <time>2020-07-02T15:15:39Z</time>
      </trkpt>
      <trkpt lat="47.90837" lon="1.88995">
        <ele>114.6</ele>
        <time>2020-07-02T15:15:40Z</time>
      </trkpt>
      <trkpt lat="47.90837" lon="1.88996">
        <ele>114.6</ele>
        <time>2020-07-02T15:15:41Z</time>
      </trkpt>
      <trkpt lat="47.90844" lon="1.88986">
        <ele>114.7</ele>
        <time>2020-07-02T15:16:29Z</time>
      </trkpt>
      <trkpt lat="47.90844" lon="1.88987">
        <ele>114.7</ele>
        <time>2020-07-02T15:16:30Z</time>
      </trkpt>
      <trkpt lat="47.90843" lon="1.88987">
        <ele>114.7</ele>
        <time>2020-07-02T15:16:31Z</time>
      </trkpt>
      <trkpt lat="47.90843" lon="1.88988">
        <ele>114.7</ele>
        <time>2020-07-02T15:16:32Z</time>
      </trkpt>
      <trkpt lat="47.90842" lon="1.88987">
        <ele>114.7</ele>
        <time>2020-07-02T15:16:33Z</time>
      </trkpt>
      <trkpt lat="47.90841" lon="1.88987">
        <ele>114.7</ele>
        <time>2020-07-02T15:16:34Z</time>
      </trkpt>
      <trkpt lat="47.90839" lon="1.88987">
        <ele>114.7</ele>
        <time>2020-07-02T15:16:35Z</time>
      </trkpt>
      <trkpt lat="47.90838" lon="1.88987">
        <ele>114.7</ele>
        <time>2020-07-02T15:16:36Z</time>
      </trkpt>
      <trkpt lat="47.90837" lon="1.88987">
        <ele>114.7</ele>
        <time>2020-07-02T15:16:37Z</time>
      </trkpt>
      <trkpt lat="47.90836" lon="1.88987">
        <ele>114.7</ele>
        <time>2020-07-02T15:16:38Z</time>
      </trkpt>
      <trkpt lat="47.90836" lon="1.88987">
        <ele>114.7</ele>
        <time>2020-07-02T15:16:39Z</time>
      </trkpt>
      <trkpt lat="47.90835" lon="1.88987">
        <ele>114.7</ele>
        <time>2020-07-02T15:16:40Z</time>
      </trkpt>
      <trkpt lat="47.90834" lon="1.88988">
        <ele>114.7</ele>
        <time>2020-07-02T15:16:41Z</time>
      </trkpt>
      <trkpt lat="47.90833" lon="1.88988">
        <ele>114.7</ele>
        <time>2020-07-02T15:16:42Z</time>
      </trkpt>
      <trkpt lat="47.90832" lon="1.88988">
        <ele>114.7</ele>
        <time>2020-07-02T15:16:43Z</time>
      </trkpt>
      <trkpt lat="47.90831" lon="1.88988">
        <ele>114.7</ele>
        <time>2020-07-02T15:16:44Z</time>
      </trkpt>
      <trkpt lat="47.9083" lon="1.88989">
        <ele>114.7</ele>
        <time>2020-07-02T15:16:45Z</time>
      </trkpt>
      <trkpt lat="47.90829" lon="1.8899">
        <ele>114.7</ele>
        <time>2020-07-02T15:16:46Z</time>
      </trkpt>
      <trkpt lat="47.90828" lon="1.8899">
        <ele>114.7</ele>
        <time>2020-07-02T15:16:47Z</time>
      </trkpt>
      <trkpt lat="47.90828" lon="1.8899">
        <ele>114.8</ele>
        <time>2020-07-02T15:16:48Z</time>
      </trkpt>
      <trkpt lat="47.90826" lon="1.88989">
        <ele>114.8</ele>
        <time>2020-07-02T15:16:49Z</time>
      </trkpt>
      <trkpt lat="47.90826" lon="1.88989">
        <ele>114.8</ele>
        <time>2020-07-02T15:16:50Z</time>
      </trkpt>
      <trkpt lat="47.90825" lon="1.88989">
        <ele>114.8</ele>
        <time>2020-07-02T15:16:51Z</time>
      </trkpt>
      <trkpt lat="47.90825" lon="1.88989">
        <ele>114.8</ele>
        <time>2020-07-02T15:16:52Z</time>
      </trkpt>
      <trkpt lat="47.90825" lon="1.88989">
        <ele>114.8</ele>
        <time>2020-07-02T15:16:53Z</time>
      </trkpt>
      <trkpt lat="47.90825" lon="1.88989">
        <ele>114.8</ele>
        <time>2020-07-02T15:16:54Z</time>
      </trkpt>
      <trkpt lat="47.90826" lon="1.88989">
        <ele>114.8</ele>
        <time>2020-07-02T15:16:55Z</time>
      </trkpt>
      <trkpt lat="47.90826" lon="1.88989">
        <ele>114.8</ele>
        <time>2020-07-02T15:16:56Z</time>
      </trkpt>
      <trkpt lat="47.90827" lon="1.88989">
        <ele>114.8</ele>
        <time>2020-07-02T15:16:57Z</time>
      </trkpt>
      <trkpt lat="47.90827" lon="1.88989">
        <ele>114.8</ele>
        <time>2020-07-02T15:16:58Z</time>
      </trkpt>
      <trkpt lat="47.90828" lon="1.88989">
        <ele>114.8</ele>
        <time>2020-07-02T15:16:59Z</time>
      </trkpt>
      <trkpt lat="47.90829" lon="1.8899">
        <ele>114.8</ele>
        <time>2020-07-02T15:17:00Z</time>
      </trkpt>
      <trkpt lat="47.9083" lon="1.88991">
        <ele>114.9</ele>
        <time>2020-07-02T15:17:01Z</time>
      </trkpt>
      <trkpt lat="47.90831" lon="1.88992">
        <ele>114.9</ele>
        <time>2020-07-02T15:17:02Z</time>
      </trkpt>
      <trkpt lat="47.90831" lon="1.88994">
        <ele>114.9</ele>
        <time>2020-07-02T15:17:03Z</time>
      </trkpt>
      <trkpt lat="47.90831" lon="1.88994">
        <ele>114.9</ele>
        <time>2020-07-02T15:17:04Z</time>
      </trkpt>
      <trkpt lat="47.90831" lon="1.88995">
        <ele>114.9</ele>
        <time>2020-07-02T15:17:05Z</time>
      </trkpt>
      <trkpt lat="47.90831" lon="1.88995">
        <ele>114.9</ele>
        <time>2020-07-02T15:17:06Z</time>
      </trkpt>
      <trkpt lat="47.90832" lon="1.88995">
        <ele>114.9</ele>
        <time>2020-07-02T15:17:07Z</time>
      </trkpt>
      <trkpt lat="47.90832" lon="1.88997">
        <ele>114.9</ele>
        <time>2020-07-02T15:17:08Z</time>
      </trkpt>
      <trkpt lat="47.90833" lon="1.88998">
        <ele>114.9</ele>
        <time>2020-07-02T15:17:09Z</time>
      </trkpt>
      <trkpt lat="47.90834" lon="1.89">
        <ele>114.9</ele>
        <time>2020-07-02T15:17:10Z</time>
      </trkpt>
      <trkpt lat="47.90834" lon="1.89001">
        <ele>114.9</ele>
        <time>2020-07-02T15:17:11Z</time>
      </trkpt>
      <trkpt lat="47.90834" lon="1.89002">
        <ele>114.9</ele>
        <time>2020-07-02T15:17:12Z</time>
      </trkpt>
      <trkpt lat="47.90835" lon="1.89003">
        <ele>114.9</ele>
        <time>2020-07-02T15:17:13Z</time>
      </trkpt>
      <trkpt lat="47.90835" lon="1.89005">
        <ele>114.9</ele>
        <time>2020-07-02T15:17:14Z</time>
      </trkpt>
      <trkpt lat="47.90837" lon="1.89007">
        <ele>114.9</ele>
        <time>2020-07-02T15:17:15Z</time>
      </trkpt>
      <trkpt lat="47.90837" lon="1.89009">
        <ele>114.9</ele>
        <time>2020-07-02T15:17:16Z</time>
      </trkpt>
      <trkpt lat="47.90838" lon="1.8901">
        <ele>114.9</ele>
        <time>2020-07-02T15:17:17Z</time>
      </trkpt>
      <trkpt lat="47.90839" lon="1.89012">
        <ele>114.9</ele>
        <time>2020-07-02T15:17:18Z</time>
      </trkpt>
      <trkpt lat="47.90839" lon="1.89012">
        <ele>114.9</ele>
        <time>2020-07-02T15:17:19Z</time>
      </trkpt>
      <trkpt lat="47.9084" lon="1.89012">
        <ele>114.9</ele>
        <time>2020-07-02T15:17:20Z</time>
      </trkpt>
      <trkpt lat="47.90841" lon="1.89012">
        <ele>114.9</ele>
        <time>2020-07-02T15:17:21Z</time>
      </trkpt>
      <trkpt lat="47.90842" lon="1.89011">
        <ele>114.9</ele>
        <time>2020-07-02T15:17:22Z</time>
      </trkpt>
      <trkpt lat="47.90842" lon="1.89011">
        <ele>114.9</ele>
        <time>2020-07-02T15:17:23Z</time>
      </trkpt>
      <trkpt lat="47.90843" lon="1.89011">
        <ele>114.9</ele>
        <time>2020-07-02T15:17:24Z</time>
      </trkpt>
      <trkpt lat="47.90843" lon="1.89011">
        <ele>114.9</ele>
        <time>2020-07-02T15:17:25Z</time>
      </trkpt>
      <trkpt lat="47.90843" lon="1.89011">
        <ele>114.9</ele>
        <time>2020-07-02T15:17:26Z</time>
      </trkpt>
      <trkpt lat="47.90843" lon="1.89011">
        <ele>114.9</ele>
        <time>2020-07-02T15:17:27Z</time>
      </trkpt>
      <trkpt lat="47.90843" lon="1.8901">
        <ele>114.9</ele>
        <time>2020-07-02T15:17:28Z</time>
      </trkpt>
      <trkpt lat="47.90843" lon="1.89009">
        <ele>114.9</ele>
        <time>2020-07-02T15:17:29Z</time>
      </trkpt>
      <trkpt lat="47.90844" lon="1.89008">
        <ele>114.9</ele>
        <time>2020-07-02T15:17:30Z</time>
      </trkpt>
      <trkpt lat="47.90844" lon="1.89008">
        <ele>114.9</ele>
        <time>2020-07-02T15:17:31Z</time>
      </trkpt>
      <trkpt lat="47.90845" lon="1.89007">
        <ele>114.9</ele>
        <time>2020-07-02T15:17:32Z</time>
      </trkpt>
      <trkpt lat="47.90846" lon="1.89007">
        <ele>114.9</ele>
        <time>2020-07-02T15:17:33Z</time>
      </trkpt>
      <trkpt lat="47.90846" lon="1.89007">
        <ele>114.9</ele>
        <time>2020-07-02T15:17:34Z</time>
      </trkpt>
      <trkpt lat="47.90848" lon="1.89006">
        <ele>114.9</ele>
        <time>2020-07-02T15:17:35Z</time>
      </trkpt>
      <trkpt lat="47.90848" lon="1.89005">
        <ele>114.9</ele>
        <time>2020-07-02T15:17:36Z</time>
      </trkpt>
      <trkpt lat="47.90849" lon="1.89004">
        <ele>114.9</ele>
        <time>2020-07-02T15:17:37Z</time>
      </trkpt>
      <trkpt lat="47.90849" lon="1.89004">
        <ele>114.9</ele>
        <time>2020-07-02T15:17:38Z</time>
      </trkpt>
      <trkpt lat="47.9085" lon="1.89004">
        <ele>114.9</ele>
        <time>2020-07-02T15:17:39Z</time>
      </trkpt>
      <trkpt lat="47.9085" lon="1.89002">
        <ele>114.9</ele>
        <time>2020-07-02T15:17:40Z</time>
      </trkpt>
      <trkpt lat="47.90851" lon="1.89001">
        <ele>114.9</ele>
        <time>2020-07-02T15:17:41Z</time>
      </trkpt>
      <trkpt lat="47.90851" lon="1.89">
        <ele>114.9</ele>
        <time>2020-07-02T15:17:42Z</time>
      </trkpt>
      <trkpt lat="47.90851" lon="1.89001">
        <ele>114.9</ele>
        <time>2020-07-02T15:17:43Z</time>
      </trkpt>
      <trkpt lat="47.9085" lon="1.89001">
        <ele>114.9</ele>
        <time>2020-07-02T15:17:44Z</time>
      </trkpt>
      <trkpt lat="47.9085" lon="1.89001">
        <ele>114.9</ele>
        <time>2020-07-02T15:17:45Z</time>
      </trkpt>
      <trkpt lat="47.9085" lon="1.89">
        <ele>114.9</ele>
        <time>2020-07-02T15:17:46Z</time>
      </trkpt>
      <trkpt lat="47.90849" lon="1.89">
        <ele>114.9</ele>
        <time>2020-07-02T15:17:47Z</time>
      </trkpt>
      <trkpt lat="47.90849" lon="1.89">
        <ele>114.9</ele>
        <time>2020-07-02T15:17:48Z</time>
      </trkpt>
      <trkpt lat="47.90848" lon="1.89001">
        <ele>114.9</ele>
        <time>2020-07-02T15:17:49Z</time>
      </trkpt>
      <trkpt lat="47.90848" lon="1.89001">
        <ele>114.9</ele>
        <time>2020-07-02T15:17:50Z</time>
      </trkpt>
      <trkpt lat="47.90847" lon="1.89002">
        <ele>114.9</ele>
        <time>2020-07-02T15:17:51Z</time>
      </trkpt>
      <trkpt lat="47.90847" lon="1.89003">
        <ele>114.9</ele>
        <time>2020-07-02T15:17:52Z</time>
      </trkpt>
      <trkpt lat="47.90847" lon="1.89003">
        <ele>114.9</ele>
        <time>2020-07-02T15:17:53Z</time>
      </trkpt>
      <trkpt lat="47.90847" lon="1.89003">
        <ele>114.9</ele>
        <time>2020-07-02T15:17:54Z</time>
      </trkpt>
      <trkpt lat="47.90848" lon="1.89003">
        <ele>114.9</ele>
        <time>2020-07-02T15:17:55Z</time>
      </trkpt>
      <trkpt lat="47.90848" lon="1.89005">
        <ele>114.9</ele>
        <time>2020-07-02T15:17:56Z</time>
      </trkpt>
      <trkpt lat="47.90849" lon="1.89006">
        <ele>114.9</ele>
        <time>2020-07-02T15:17:57Z</time>
      </trkpt>
      <trkpt lat="47.9085" lon="1.89006">
        <ele>114.9</ele>
        <time>2020-07-02T15:17:58Z</time>
      </trkpt>
      <trkpt lat="47.9085" lon="1.89005">
        <ele>114.9</ele>
        <time>2020-07-02T15:17:59Z</time>
      </trkpt>
      <trkpt lat="47.90851" lon="1.89004">
        <ele>114.9</ele>
        <time>2020-07-02T15:18:00Z</time>
      </trkpt>
      <trkpt lat="47.90851" lon="1.89002">
        <ele>114.9</ele>
        <time>2020-07-02T15:18:01Z</time>
      </trkpt>
      <trkpt lat="47.90851" lon="1.89001">
        <ele>114.9</ele>
        <time>2020-07-02T15:18:02Z</time>
      </trkpt>
      <trkpt lat="47.90851" lon="1.89">
        <ele>114.9</ele>
        <time>2020-07-02T15:18:03Z</time>
      </trkpt>
      <trkpt lat="47.90851" lon="1.88999">
        <ele>114.9</ele>
        <time>2020-07-02T15:18:04Z</time>
      </trkpt>
      <trkpt lat="47.9085" lon="1.88994">
        <ele>114.9</ele>
        <time>2020-07-02T15:18:05Z</time>
      </trkpt>
      <trkpt lat="47.9085" lon="1.88991">
        <ele>114.9</ele>
        <time>2020-07-02T15:18:06Z</time>
      </trkpt>
      <trkpt lat="47.90851" lon="1.88989">
        <ele>114.9</ele>
        <time>2020-07-02T15:18:07Z</time>
      </trkpt>
      <trkpt lat="47.90851" lon="1.88986">
        <ele>114.9</ele>
        <time>2020-07-02T15:18:08Z</time>
      </trkpt>
      <trkpt lat="47.90851" lon="1.88985">
        <ele>114.9</ele>
        <time>2020-07-02T15:18:09Z</time>
      </trkpt>
      <trkpt lat="47.90851" lon="1.88984">
        <ele>114.9</ele>
        <time>2020-07-02T15:18:10Z</time>
      </trkpt>
      <trkpt lat="47.90851" lon="1.88983">
        <ele>114.9</ele>
        <time>2020-07-02T15:18:11Z</time>
      </trkpt>
      <trkpt lat="47.9085" lon="1.88983">
        <ele>114.9</ele>
        <time>2020-07-02T15:18:12Z</time>
      </trkpt>
      <trkpt lat="47.90849" lon="1.88982">
        <ele>114.9</ele>
        <time>2020-07-02T15:18:13Z</time>
      </trkpt>
      <trkpt lat="47.90849" lon="1.88982">
        <ele>114.9</ele>
        <time>2020-07-02T15:18:14Z</time>
      </trkpt>
      <trkpt lat="47.9085" lon="1.88981">
        <ele>114.9</ele>
        <time>2020-07-02T15:18:15Z</time>
      </trkpt>
      <trkpt lat="47.9085" lon="1.88982">
        <ele>114.9</ele>
        <time>2020-07-02T15:18:16Z</time>
      </trkpt>
      <trkpt lat="47.90849" lon="1.88982">
        <ele>114.9</ele>
        <time>2020-07-02T15:18:17Z</time>
      </trkpt>
      <trkpt lat="47.90849" lon="1.88981">
        <ele>114.9</ele>
        <time>2020-07-02T15:18:18Z</time>
      </trkpt>
      <trkpt lat="47.90849" lon="1.88981">
        <ele>114.9</ele>
        <time>2020-07-02T15:18:19Z</time>
      </trkpt>
      <trkpt lat="47.90849" lon="1.88981">
        <ele>114.9</ele>
        <time>2020-07-02T15:18:20Z</time>
      </trkpt>
      <trkpt lat="47.90849" lon="1.88981">
        <ele>114.9</ele>
        <time>2020-07-02T15:18:21Z</time>
      </trkpt>
      <trkpt lat="47.90848" lon="1.8898">
        <ele>114.9</ele>
        <time>2020-07-02T15:18:22Z</time>
      </trkpt>
      <trkpt lat="47.90849" lon="1.88981">
        <ele>114.9</ele>
        <time>2020-07-02T15:18:23Z</time>
      </trkpt>
      <trkpt lat="47.90848" lon="1.88981">
        <ele>114.9</ele>
        <time>2020-07-02T15:18:24Z</time>
      </trkpt>
      <trkpt lat="47.90847" lon="1.88981">
        <ele>114.9</ele>
        <time>2020-07-02T15:18:25Z</time>
      </trkpt>
      <trkpt lat="47.90847" lon="1.8898">
        <ele>114.9</ele>
        <time>2020-07-02T15:18:26Z</time>
      </trkpt>
      <trkpt lat="47.90847" lon="1.8898">
        <ele>114.9</ele>
        <time>2020-07-02T15:18:27Z</time>
      </trkpt>
      <trkpt lat="47.90847" lon="1.8898">
        <ele>114.9</ele>
        <time>2020-07-02T15:18:28Z</time>
      </trkpt>
      <trkpt lat="47.90848" lon="1.88977">
        <ele>114.9</ele>
        <time>2020-07-02T15:19:53Z</time>
      </trkpt>
      <trkpt lat="47.90847" lon="1.88977">
        <ele>115</ele>
        <time>2020-07-02T15:19:54Z</time>
      </trkpt>
      <trkpt lat="47.90847" lon="1.88976">
        <ele>115</ele>
        <time>2020-07-02T15:19:55Z</time>
      </trkpt>
      <trkpt lat="47.90847" lon="1.88975">
        <ele>115</ele>
        <time>2020-07-02T15:19:56Z</time>
      </trkpt>
      <trkpt lat="47.90846" lon="1.88975">
        <ele>115</ele>
        <time>2020-07-02T15:19:57Z</time>
      </trkpt>
      <trkpt lat="47.90846" lon="1.88975">
        <ele>115</ele>
        <time>2020-07-02T15:19:58Z</time>
      </trkpt>
      <trkpt lat="47.90847" lon="1.88975">
        <ele>115</ele>
        <time>2020-07-02T15:19:59Z</time>
      </trkpt>
      <trkpt lat="47.90847" lon="1.88975">
        <ele>115</ele>
        <time>2020-07-02T15:20:00Z</time>
      </trkpt>
      <trkpt lat="47.90847" lon="1.88975">
        <ele>115</ele>
        <time>2020-07-02T15:20:01Z</time>
      </trkpt>
      <trkpt lat="47.90847" lon="1.88975">
        <ele>115</ele>
        <time>2020-07-02T15:20:02Z</time>
      </trkpt>
      <trkpt lat="47.90847" lon="1.88974">
        <ele>115</ele>
        <time>2020-07-02T15:20:03Z</time>
      </trkpt>
      <trkpt lat="47.90848" lon="1.88973">
        <ele>115</ele>
        <time>2020-07-02T15:20:04Z</time>
      </trkpt>
      <trkpt lat="47.90848" lon="1.88973">
        <ele>115</ele>
        <time>2020-07-02T15:20:05Z</time>
      </trkpt>
      <trkpt lat="47.90848" lon="1.88973">
        <ele>115</ele>
        <time>2020-07-02T15:20:06Z</time>
      </trkpt>
      <trkpt lat="47.90848" lon="1.88971">
        <ele>115</ele>
        <time>2020-07-02T15:20:07Z</time>
      </trkpt>
      <trkpt lat="47.90847" lon="1.88972">
        <ele>115</ele>
        <time>2020-07-02T15:20:08Z</time>
      </trkpt>
      <trkpt lat="47.90846" lon="1.88972">
        <ele>115</ele>
        <time>2020-07-02T15:20:09Z</time>
      </trkpt>
      <trkpt lat="47.90846" lon="1.88972">
        <ele>115</ele>
        <time>2020-07-02T15:20:10Z</time>
      </trkpt>
      <trkpt lat="47.90846" lon="1.88973">
        <ele>115</ele>
        <time>2020-07-02T15:20:11Z</time>
      </trkpt>
      <trkpt lat="47.90846" lon="1.88973">
        <ele>115</ele>
        <time>2020-07-02T15:20:12Z</time>
      </trkpt>
      <trkpt lat="47.90846" lon="1.88972">
        <ele>115</ele>
        <time>2020-07-02T15:20:13Z</time>
      </trkpt>
      <trkpt lat="47.90847" lon="1.88973">
        <ele>115</ele>
        <time>2020-07-02T15:20:14Z</time>
      </trkpt>
      <trkpt lat="47.90847" lon="1.88973">
        <ele>115</ele>
        <time>2020-07-02T15:20:15Z</time>
      </trkpt>
      <trkpt lat="47.90846" lon="1.88974">
        <ele>115</ele>
        <time>2020-07-02T15:20:16Z</time>
      </trkpt>
      <trkpt lat="47.90846" lon="1.88974">
        <ele>115</ele>
        <time>2020-07-02T15:20:17Z</time>
      </trkpt>
      <trkpt lat="47.90846" lon="1.88974">
        <ele>115</ele>
        <time>2020-07-02T15:20:18Z</time>
      </trkpt>
      <trkpt lat="47.90846" lon="1.88973">
        <ele>115</ele>
        <time>2020-07-02T15:20:19Z</time>
      </trkpt>
      <trkpt lat="47.90846" lon="1.88972">
        <ele>115</ele>
        <time>2020-07-02T15:20:20Z</time>
      </trkpt>
      <trkpt lat="47.90846" lon="1.88972">
        <ele>115</ele>
        <time>2020-07-02T15:20:21Z</time>
      </trkpt>
      <trkpt lat="47.90846" lon="1.88972">
        <ele>115</ele>
        <time>2020-07-02T15:20:22Z</time>
      </trkpt>
      <trkpt lat="47.90846" lon="1.88972">
        <ele>115</ele>
        <time>2020-07-02T15:20:23Z</time>
      </trkpt>
      <trkpt lat="47.90846" lon="1.88972">
        <ele>115</ele>
        <time>2020-07-02T15:20:24Z</time>
      </trkpt>
      <trkpt lat="47.90846" lon="1.88972">
        <ele>115</ele>
        <time>2020-07-02T15:20:25Z</time>
      </trkpt>
      <trkpt lat="47.90846" lon="1.88972">
        <ele>115</ele>
        <time>2020-07-02T15:20:26Z</time>
      </trkpt>
      <trkpt lat="47.90846" lon="1.88972">
        <ele>115</ele>
        <time>2020-07-02T15:20:27Z</time>
      </trkpt>
      <trkpt lat="47.90846" lon="1.88972">
        <ele>115</ele>
        <time>2020-07-02T15:20:28Z</time>
      </trkpt>
      <trkpt lat="47.90846" lon="1.88972">
        <ele>115</ele>
        <time>2020-07-02T15:20:29Z</time>
      </trkpt>
      <trkpt lat="47.90846" lon="1.88972">
        <ele>115</ele>
        <time>2020-07-02T15:20:30Z</time>
      </trkpt>
      <trkpt lat="47.90846" lon="1.88972">
        <ele>115</ele>
        <time>2020-07-02T15:20:31Z</time>
      </trkpt>
      <trkpt lat="47.90857" lon="1.88982">
        <ele>115</ele>
        <time>2020-07-02T15:22:16Z</time>
      </trkpt>
      <trkpt lat="47.90857" lon="1.88984">
        <ele>115</ele>
        <time>2020-07-02T15:22:17Z</time>
      </trkpt>
      <trkpt lat="47.90858" lon="1.88984">
        <ele>115</ele>
        <time>2020-07-02T15:22:18Z</time>
      </trkpt>
      <trkpt lat="47.90858" lon="1.88985">
        <ele>115</ele>
        <time>2020-07-02T15:22:19Z</time>
      </trkpt>
      <trkpt lat="47.90858" lon="1.88986">
        <ele>115</ele>
        <time>2020-07-02T15:22:20Z</time>
      </trkpt>
      <trkpt lat="47.90858" lon="1.88986">
        <ele>115</ele>
        <time>2020-07-02T15:22:21Z</time>
      </trkpt>
      <trkpt lat="47.90859" lon="1.88986">
        <ele>115</ele>
        <time>2020-07-02T15:22:22Z</time>
      </trkpt>
      <trkpt lat="47.90859" lon="1.88987">
        <ele>115</ele>
        <time>2020-07-02T15:22:23Z</time>
      </trkpt>
      <trkpt lat="47.90859" lon="1.88986">
        <ele>115</ele>
        <time>2020-07-02T15:22:24Z</time>
      </trkpt>
      <trkpt lat="47.90859" lon="1.88986">
        <ele>115</ele>
        <time>2020-07-02T15:22:25Z</time>
      </trkpt>
      <trkpt lat="47.90859" lon="1.88986">
        <ele>115</ele>
        <time>2020-07-02T15:22:26Z</time>
      </trkpt>
      <trkpt lat="47.90859" lon="1.88987">
        <ele>115</ele>
        <time>2020-07-02T15:22:27Z</time>
      </trkpt>
      <trkpt lat="47.90859" lon="1.88987">
        <ele>115</ele>
        <time>2020-07-02T15:22:28Z</time>
      </trkpt>
      <trkpt lat="47.90858" lon="1.88987">
        <ele>115</ele>
        <time>2020-07-02T15:22:29Z</time>
      </trkpt>
      <trkpt lat="47.90858" lon="1.88987">
        <ele>115</ele>
        <time>2020-07-02T15:22:30Z</time>
      </trkpt>
      <trkpt lat="47.90858" lon="1.88987">
        <ele>115</ele>
        <time>2020-07-02T15:22:31Z</time>
      </trkpt>
      <trkpt lat="47.90857" lon="1.88987">
        <ele>115</ele>
        <time>2020-07-02T15:22:32Z</time>
      </trkpt>
      <trkpt lat="47.90857" lon="1.88988">
        <ele>115</ele>
        <time>2020-07-02T15:22:33Z</time>
      </trkpt>
      <trkpt lat="47.90857" lon="1.88989">
        <ele>115</ele>
        <time>2020-07-02T15:22:34Z</time>
      </trkpt>
      <trkpt lat="47.90856" lon="1.8899">
        <ele>115</ele>
        <time>2020-07-02T15:22:35Z</time>
      </trkpt>
      <trkpt lat="47.90856" lon="1.8899">
        <ele>115</ele>
        <time>2020-07-02T15:22:36Z</time>
      </trkpt>
      <trkpt lat="47.90856" lon="1.88991">
        <ele>115</ele>
        <time>2020-07-02T15:22:37Z</time>
      </trkpt>
      <trkpt lat="47.90855" lon="1.88991">
        <ele>115</ele>
        <time>2020-07-02T15:22:38Z</time>
      </trkpt>
      <trkpt lat="47.90854" lon="1.88992">
        <ele>115</ele>
        <time>2020-07-02T15:22:39Z</time>
      </trkpt>
      <trkpt lat="47.90854" lon="1.88993">
        <ele>115</ele>
        <time>2020-07-02T15:22:40Z</time>
      </trkpt>
      <trkpt lat="47.90853" lon="1.88994">
        <ele>115</ele>
        <time>2020-07-02T15:22:41Z</time>
      </trkpt>
      <trkpt lat="47.90853" lon="1.88994">
        <ele>115</ele>
        <time>2020-07-02T15:22:42Z</time>
      </trkpt>
      <trkpt lat="47.90852" lon="1.88994">
        <ele>115</ele>
        <time>2020-07-02T15:22:43Z</time>
      </trkpt>
      <trkpt lat="47.90852" lon="1.88993">
        <ele>115</ele>
        <time>2020-07-02T15:22:44Z</time>
      </trkpt>
      <trkpt lat="47.90851" lon="1.88993">
        <ele>115</ele>
        <time>2020-07-02T15:22:45Z</time>
      </trkpt>
      <trkpt lat="47.90851" lon="1.88993">
        <ele>115</ele>
        <time>2020-07-02T15:22:46Z</time>
      </trkpt>
      <trkpt lat="47.9085" lon="1.88992">
        <ele>115</ele>
        <time>2020-07-02T15:22:47Z</time>
      </trkpt>
      <trkpt lat="47.9085" lon="1.88992">
        <ele>115</ele>
        <time>2020-07-02T15:22:48Z</time>
      </trkpt>
      <trkpt lat="47.9085" lon="1.88992">
        <ele>115</ele>
        <time>2020-07-02T15:22:49Z</time>
      </trkpt>
      <trkpt lat="47.90849" lon="1.88993">
        <ele>115</ele>
        <time>2020-07-02T15:22:50Z</time>
      </trkpt>
      <trkpt lat="47.90848" lon="1.88993">
        <ele>115</ele>
        <time>2020-07-02T15:22:51Z</time>
      </trkpt>
      <trkpt lat="47.90848" lon="1.88994">
        <ele>115</ele>
        <time>2020-07-02T15:22:52Z</time>
      </trkpt>
      <trkpt lat="47.90848" lon="1.88994">
        <ele>115</ele>
        <time>2020-07-02T15:22:53Z</time>
      </trkpt>
      <trkpt lat="47.90848" lon="1.88995">
        <ele>115</ele>
        <time>2020-07-02T15:22:54Z</time>
      </trkpt>
      <trkpt lat="47.90848" lon="1.88995">
        <ele>115</ele>
        <time>2020-07-02T15:22:55Z</time>
      </trkpt>
      <trkpt lat="47.90848" lon="1.88995">
        <ele>115</ele>
        <time>2020-07-02T15:22:56Z</time>
      </trkpt>
      <trkpt lat="47.90848" lon="1.88996">
        <ele>115</ele>
        <time>2020-07-02T15:22:57Z</time>
      </trkpt>
      <trkpt lat="47.90844" lon="1.88994">
        <ele>115</ele>
        <time>2020-07-02T15:23:03Z</time>
      </trkpt>
      <trkpt lat="47.90844" lon="1.88994">
        <ele>115</ele>
        <time>2020-07-02T15:23:04Z</time>
      </trkpt>
      <trkpt lat="47.90844" lon="1.88994">
        <ele>115</ele>
        <time>2020-07-02T15:23:05Z</time>
      </trkpt>
      <trkpt lat="47.90844" lon="1.88994">
        <ele>115</ele>
        <time>2020-07-02T15:23:06Z</time>
      </trkpt>
      <trkpt lat="47.90843" lon="1.88995">
        <ele>115</ele>
        <time>2020-07-02T15:23:07Z</time>
      </trkpt>
      <trkpt lat="47.90843" lon="1.88996">
        <ele>115</ele>
        <time>2020-07-02T15:23:08Z</time>
      </trkpt>
      <trkpt lat="47.90843" lon="1.88996">
        <ele>115</ele>
        <time>2020-07-02T15:23:09Z</time>
      </trkpt>
      <trkpt lat="47.90843" lon="1.88997">
        <ele>115</ele>
        <time>2020-07-02T15:23:10Z</time>
      </trkpt>
      <trkpt lat="47.90843" lon="1.88997">
        <ele>115</ele>
        <time>2020-07-02T15:23:11Z</time>
      </trkpt>
      <trkpt lat="47.90842" lon="1.88997">
        <ele>115</ele>
        <time>2020-07-02T15:23:12Z</time>
      </trkpt>
      <trkpt lat="47.90842" lon="1.88997">
        <ele>115</ele>
        <time>2020-07-02T15:23:13Z</time>
      </trkpt>
      <trkpt lat="47.90842" lon="1.88997">
        <ele>115</ele>
        <time>2020-07-02T15:23:14Z</time>
      </trkpt>
      <trkpt lat="47.90842" lon="1.88997">
        <ele>115</ele>
        <time>2020-07-02T15:23:15Z</time>
      </trkpt>
      <trkpt lat="47.90842" lon="1.88997">
        <ele>115</ele>
        <time>2020-07-02T15:23:16Z</time>
      </trkpt>
      <trkpt lat="47.90842" lon="1.88997">
        <ele>115</ele>
        <time>2020-07-02T15:23:17Z</time>
      </trkpt>
      <trkpt lat="47.90843" lon="1.88997">
        <ele>115</ele>
        <time>2020-07-02T15:23:18Z</time>
      </trkpt>
      <trkpt lat="47.90843" lon="1.88998">
        <ele>115</ele>
        <time>2020-07-02T15:23:19Z</time>
      </trkpt>
      <trkpt lat="47.90844" lon="1.88999">
        <ele>115</ele>
        <time>2020-07-02T15:23:20Z</time>
      </trkpt>
      <trkpt lat="47.90845" lon="1.88999">
        <ele>115</ele>
        <time>2020-07-02T15:23:21Z</time>
      </trkpt>
      <trkpt lat="47.90845" lon="1.88998">
        <ele>115</ele>
        <time>2020-07-02T15:23:22Z</time>
      </trkpt>
      <trkpt lat="47.90845" lon="1.88998">
        <ele>115</ele>
        <time>2020-07-02T15:23:23Z</time>
      </trkpt>
      <trkpt lat="47.90845" lon="1.88998">
        <ele>115</ele>
        <time>2020-07-02T15:23:24Z</time>
      </trkpt>
      <trkpt lat="47.90845" lon="1.88997">
        <ele>115</ele>
        <time>2020-07-02T15:23:25Z</time>
      </trkpt>
      <trkpt lat="47.90845" lon="1.88998">
        <ele>115</ele>
        <time>2020-07-02T15:23:26Z</time>
      </trkpt>
      <trkpt lat="47.90845" lon="1.88998">
        <ele>115</ele>
        <time>2020-07-02T15:23:27Z</time>
      </trkpt>
      <trkpt lat="47.90845" lon="1.88998">
        <ele>115</ele>
        <time>2020-07-02T15:23:28Z</time>
      </trkpt>
      <trkpt lat="47.90846" lon="1.88999">
        <ele>115</ele>
        <time>2020-07-02T15:23:29Z</time>
      </trkpt>
      <trkpt lat="47.90847" lon="1.89">
        <ele>115</ele>
        <time>2020-07-02T15:23:30Z</time>
      </trkpt>
      <trkpt lat="47.90847" lon="1.89">
        <ele>115</ele>
        <time>2020-07-02T15:23:31Z</time>
      </trkpt>
      <trkpt lat="47.90847" lon="1.89001">
        <ele>115</ele>
        <time>2020-07-02T15:23:32Z</time>
      </trkpt>
      <trkpt lat="47.90847" lon="1.89001">
        <ele>115</ele>
        <time>2020-07-02T15:23:33Z</time>
      </trkpt>
      <trkpt lat="47.90847" lon="1.89001">
        <ele>115</ele>
        <time>2020-07-02T15:23:34Z</time>
      </trkpt>
      <trkpt lat="47.90846" lon="1.89001">
        <ele>115</ele>
        <time>2020-07-02T15:23:35Z</time>
      </trkpt>
      <trkpt lat="47.90846" lon="1.89">
        <ele>115</ele>
        <time>2020-07-02T15:23:36Z</time>
      </trkpt>
      <trkpt lat="47.90845" lon="1.89">
        <ele>115</ele>
        <time>2020-07-02T15:23:37Z</time>
      </trkpt>
      <trkpt lat="47.90845" lon="1.89">
        <ele>115</ele>
        <time>2020-07-02T15:23:38Z</time>
      </trkpt>
      <trkpt lat="47.90845" lon="1.89">
        <ele>115</ele>
        <time>2020-07-02T15:23:39Z</time>
      </trkpt>
      <trkpt lat="47.90844" lon="1.88999">
        <ele>115</ele>
        <time>2020-07-02T15:23:40Z</time>
      </trkpt>
      <trkpt lat="47.90844" lon="1.88999">
        <ele>115</ele>
        <time>2020-07-02T15:23:41Z</time>
      </trkpt>
      <trkpt lat="47.90838" lon="1.88994">
        <ele>115.1</ele>
        <time>2020-07-02T15:25:07Z</time>
      </trkpt>
      <trkpt lat="47.90836" lon="1.88994">
        <ele>115.1</ele>
        <time>2020-07-02T15:25:08Z</time>
      </trkpt>
      <trkpt lat="47.90835" lon="1.88995">
        <ele>115.1</ele>
        <time>2020-07-02T15:25:09Z</time>
      </trkpt>
      <trkpt lat="47.90835" lon="1.88995">
        <ele>115.1</ele>
        <time>2020-07-02T15:25:10Z</time>
      </trkpt>
      <trkpt lat="47.90835" lon="1.88995">
        <ele>115.1</ele>
        <time>2020-07-02T15:25:11Z</time>
      </trkpt>
      <trkpt lat="47.90835" lon="1.88996">
        <ele>115.1</ele>
        <time>2020-07-02T15:25:12Z</time>
      </trkpt>
      <trkpt lat="47.90835" lon="1.88996">
        <ele>115.1</ele>
        <time>2020-07-02T15:25:13Z</time>
      </trkpt>
      <trkpt lat="47.90835" lon="1.88996">
        <ele>115.1</ele>
        <time>2020-07-02T15:25:14Z</time>
      </trkpt>
      <trkpt lat="47.90835" lon="1.88996">
        <ele>115.1</ele>
        <time>2020-07-02T15:25:15Z</time>
      </trkpt>
      <trkpt lat="47.90835" lon="1.88996">
        <ele>115.1</ele>
        <time>2020-07-02T15:25:16Z</time>
      </trkpt>
      <trkpt lat="47.90836" lon="1.88995">
        <ele>115.1</ele>
        <time>2020-07-02T15:25:17Z</time>
      </trkpt>
      <trkpt lat="47.90836" lon="1.88994">
        <ele>115.1</ele>
        <time>2020-07-02T15:25:18Z</time>
      </trkpt>
      <trkpt lat="47.90837" lon="1.88994">
        <ele>115.1</ele>
        <time>2020-07-02T15:25:19Z</time>
      </trkpt>
      <trkpt lat="47.90838" lon="1.88994">
        <ele>115.1</ele>
        <time>2020-07-02T15:25:20Z</time>
      </trkpt>
      <trkpt lat="47.90838" lon="1.88994">
        <ele>115.1</ele>
        <time>2020-07-02T15:25:21Z</time>
      </trkpt>
      <trkpt lat="47.90838" lon="1.88994">
        <ele>115.1</ele>
        <time>2020-07-02T15:25:22Z</time>
      </trkpt>
      <trkpt lat="47.90838" lon="1.88994">
        <ele>115.1</ele>
        <time>2020-07-02T15:25:23Z</time>
      </trkpt>
      <trkpt lat="47.90839" lon="1.88995">
        <ele>115.1</ele>
        <time>2020-07-02T15:25:24Z</time>
      </trkpt>
      <trkpt lat="47.90839" lon="1.88995">
        <ele>115.1</ele>
        <time>2020-07-02T15:25:25Z</time>
      </trkpt>
      <trkpt lat="47.90839" lon="1.88995">
        <ele>115.1</ele>
        <time>2020-07-02T15:25:26Z</time>
      </trkpt>
      <trkpt lat="47.90839" lon="1.88994">
        <ele>115.1</ele>
        <time>2020-07-02T15:25:27Z</time>
      </trkpt>
      <trkpt lat="47.90839" lon="1.88993">
        <ele>115.1</ele>
        <time>2020-07-02T15:25:28Z</time>
      </trkpt>
      <trkpt lat="47.90839" lon="1.88993">
        <ele>115.1</ele>
        <time>2020-07-02T15:25:29Z</time>
      </trkpt>
      <trkpt lat="47.90839" lon="1.88992">
        <ele>115.1</ele>
        <time>2020-07-02T15:25:30Z</time>
      </trkpt>
      <trkpt lat="47.90839" lon="1.88991">
        <ele>115.1</ele>
        <time>2020-07-02T15:25:31Z</time>
      </trkpt>
      <trkpt lat="47.90839" lon="1.8899">
        <ele>115.1</ele>
        <time>2020-07-02T15:25:32Z</time>
      </trkpt>
      <trkpt lat="47.9084" lon="1.88989">
        <ele>115.1</ele>
        <time>2020-07-02T15:25:33Z</time>
      </trkpt>
      <trkpt lat="47.9084" lon="1.88988">
        <ele>115.1</ele>
        <time>2020-07-02T15:25:34Z</time>
      </trkpt>
      <trkpt lat="47.9084" lon="1.88989">
        <ele>115.1</ele>
        <time>2020-07-02T15:25:35Z</time>
      </trkpt>
      <trkpt lat="47.9084" lon="1.88989">
        <ele>115.1</ele>
        <time>2020-07-02T15:25:36Z</time>
      </trkpt>
      <trkpt lat="47.90841" lon="1.8899">
        <ele>115.1</ele>
        <time>2020-07-02T15:25:37Z</time>
      </trkpt>
      <trkpt lat="47.9084" lon="1.88991">
        <ele>115.1</ele>
        <time>2020-07-02T15:25:38Z</time>
      </trkpt>
      <trkpt lat="47.9084" lon="1.88991">
        <ele>115.1</ele>
        <time>2020-07-02T15:25:39Z</time>
      </trkpt>
      <trkpt lat="47.9084" lon="1.88993">
        <ele>115.1</ele>
        <time>2020-07-02T15:25:40Z</time>
      </trkpt>
      <trkpt lat="47.9084" lon="1.88994">
        <ele>115.1</ele>
        <time>2020-07-02T15:25:41Z</time>
      </trkpt>
      <trkpt lat="47.9084" lon="1.88995">
        <ele>115.1</ele>
        <time>2020-07-02T15:25:42Z</time>
      </trkpt>
      <trkpt lat="47.9084" lon="1.88997">
        <ele>115.1</ele>
        <time>2020-07-02T15:25:43Z</time>
      </trkpt>
      <trkpt lat="47.90841" lon="1.88998">
        <ele>115.1</ele>
        <time>2020-07-02T15:25:44Z</time>
      </trkpt>
      <trkpt lat="47.90841" lon="1.88999">
        <ele>115.1</ele>
        <time>2020-07-02T15:25:45Z</time>
      </trkpt>
      <trkpt lat="47.90842" lon="1.88999">
        <ele>115.1</ele>
        <time>2020-07-02T15:25:46Z</time>
      </trkpt>
      <trkpt lat="47.90842" lon="1.88999">
        <ele>115.1</ele>
        <time>2020-07-02T15:25:47Z</time>
      </trkpt>
      <trkpt lat="47.90843" lon="1.88999">
        <ele>115.1</ele>
        <time>2020-07-02T15:25:48Z</time>
      </trkpt>
      <trkpt lat="47.90843" lon="1.88999">
        <ele>115.1</ele>
        <time>2020-07-02T15:25:49Z</time>
      </trkpt>
      <trkpt lat="47.90844" lon="1.88998">
        <ele>115.1</ele>
        <time>2020-07-02T15:25:50Z</time>
      </trkpt>
      <trkpt lat="47.90844" lon="1.88998">
        <ele>115.1</ele>
        <time>2020-07-02T15:25:51Z</time>
      </trkpt>
      <trkpt lat="47.90844" lon="1.88998">
        <ele>115.1</ele>
        <time>2020-07-02T15:25:52Z</time>
      </trkpt>
      <trkpt lat="47.90845" lon="1.88999">
        <ele>115.1</ele>
        <time>2020-07-02T15:25:53Z</time>
      </trkpt>
      <trkpt lat="47.90845" lon="1.89">
        <ele>115.1</ele>
        <time>2020-07-02T15:25:54Z</time>
      </trkpt>
      <trkpt lat="47.90846" lon="1.89">
        <ele>115.1</ele>
        <time>2020-07-02T15:25:55Z</time>
      </trkpt>
      <trkpt lat="47.90846" lon="1.89">
        <ele>115.1</ele>
        <time>2020-07-02T15:25:56Z</time>
      </trkpt>
      <trkpt lat="47.90847" lon="1.89001">
        <ele>115.1</ele>
        <time>2020-07-02T15:25:57Z</time>
      </trkpt>
      <trkpt lat="47.90847" lon="1.89002">
        <ele>115.1</ele>
        <time>2020-07-02T15:25:58Z</time>
      </trkpt>
      <trkpt lat="47.90847" lon="1.89003">
        <ele>115.1</ele>
        <time>2020-07-02T15:25:59Z</time>
      </trkpt>
      <trkpt lat="47.90848" lon="1.89004">
        <ele>115.1</ele>
        <time>2020-07-02T15:26:00Z</time>
      </trkpt>
      <trkpt lat="47.90848" lon="1.89005">
        <ele>115.1</ele>
        <time>2020-07-02T15:26:01Z</time>
      </trkpt>
      <trkpt lat="47.90849" lon="1.89004">
        <ele>115.1</ele>
        <time>2020-07-02T15:26:02Z</time>
      </trkpt>
      <trkpt lat="47.90849" lon="1.89004">
        <ele>115.1</ele>
        <time>2020-07-02T15:26:03Z</time>
      </trkpt>
      <trkpt lat="47.90849" lon="1.89004">
        <ele>115.1</ele>
        <time>2020-07-02T15:26:04Z</time>
      </trkpt>
      <trkpt lat="47.90849" lon="1.89004">
        <ele>115.1</ele>
        <time>2020-07-02T15:26:05Z</time>
      </trkpt>
      <trkpt lat="47.9085" lon="1.89004">
        <ele>115.1</ele>
        <time>2020-07-02T15:26:06Z</time>
      </trkpt>
      <trkpt lat="47.9085" lon="1.89003">
        <ele>115.1</ele>
        <time>2020-07-02T15:26:07Z</time>
      </trkpt>
      <trkpt lat="47.9085" lon="1.89003">
        <ele>115.1</ele>
        <time>2020-07-02T15:26:08Z</time>
      </trkpt>
      <trkpt lat="47.90851" lon="1.89002">
        <ele>115.1</ele>
        <time>2020-07-02T15:26:09Z</time>
      </trkpt>
      <trkpt lat="47.90851" lon="1.89002">
        <ele>115.1</ele>
        <time>2020-07-02T15:26:10Z</time>
      </trkpt>
      <trkpt lat="47.90852" lon="1.89001">
        <ele>115.1</ele>
        <time>2020-07-02T15:26:11Z</time>
      </trkpt>
      <trkpt lat="47.90852" lon="1.89001">
        <ele>115.1</ele>
        <time>2020-07-02T15:26:12Z</time>
      </trkpt>
      <trkpt lat="47.90853" lon="1.89001">
        <ele>115.1</ele>
        <time>2020-07-02T15:26:13Z</time>
      </trkpt>
      <trkpt lat="47.90849" lon="1.89003">
        <ele>115.1</ele>
        <time>2020-07-02T15:26:26Z</time>
      </trkpt>
      <trkpt lat="47.90849" lon="1.89003">
        <ele>115.1</ele>
        <time>2020-07-02T15:26:27Z</time>
      </trkpt>
      <trkpt lat="47.90848" lon="1.89003">
        <ele>115.1</ele>
        <time>2020-07-02T15:26:28Z</time>
      </trkpt>
      <trkpt lat="47.90847" lon="1.89003">
        <ele>115.1</ele>
        <time>2020-07-02T15:26:29Z</time>
      </trkpt>
      <trkpt lat="47.90847" lon="1.89003">
        <ele>115.1</ele>
        <time>2020-07-02T15:26:30Z</time>
      </trkpt>
      <trkpt lat="47.90846" lon="1.89003">
        <ele>115.1</ele>
        <time>2020-07-02T15:26:31Z</time>
      </trkpt>
      <trkpt lat="47.90845" lon="1.89002">
        <ele>115.1</ele>
        <time>2020-07-02T15:26:32Z</time>
      </trkpt>
      <trkpt lat="47.90844" lon="1.89002">
        <ele>115.1</ele>
        <time>2020-07-02T15:26:33Z</time>
      </trkpt>
      <trkpt lat="47.90843" lon="1.89002">
        <ele>115.1</ele>
        <time>2020-07-02T15:26:34Z</time>
      </trkpt>
      <trkpt lat="47.90842" lon="1.89001">
        <ele>115.1</ele>
        <time>2020-07-02T15:26:35Z</time>
      </trkpt>
      <trkpt lat="47.90841" lon="1.89001">
        <ele>115.1</ele>
        <time>2020-07-02T15:26:36Z</time>
      </trkpt>
      <trkpt lat="47.90841" lon="1.89001">
        <ele>115.1</ele>
        <time>2020-07-02T15:26:37Z</time>
      </trkpt>
      <trkpt lat="47.9084" lon="1.89002">
        <ele>115.1</ele>
        <time>2020-07-02T15:26:38Z</time>
      </trkpt>
      <trkpt lat="47.9084" lon="1.89002">
        <ele>115.1</ele>
        <time>2020-07-02T15:26:39Z</time>
      </trkpt>
      <trkpt lat="47.90839" lon="1.89003">
        <ele>115.1</ele>
        <time>2020-07-02T15:26:40Z</time>
      </trkpt>
      <trkpt lat="47.90839" lon="1.89003">
        <ele>115.1</ele>
        <time>2020-07-02T15:26:41Z</time>
      </trkpt>
      <trkpt lat="47.90838" lon="1.89003">
        <ele>115.1</ele>
        <time>2020-07-02T15:26:42Z</time>
      </trkpt>
      <trkpt lat="47.90838" lon="1.89003">
        <ele>115.1</ele>
        <time>2020-07-02T15:26:43Z</time>
      </trkpt>
      <trkpt lat="47.90838" lon="1.89004">
        <ele>115.1</ele>
        <time>2020-07-02T15:26:44Z</time>
      </trkpt>
      <trkpt lat="47.90838" lon="1.89005">
        <ele>115.1</ele>
        <time>2020-07-02T15:26:45Z</time>
      </trkpt>
      <trkpt lat="47.90838" lon="1.89005">
        <ele>115.1</ele>
        <time>2020-07-02T15:26:46Z</time>
      </trkpt>
      <trkpt lat="47.90838" lon="1.89005">
        <ele>115.1</ele>
        <time>2020-07-02T15:26:47Z</time>
      </trkpt>
      <trkpt lat="47.90839" lon="1.89007">
        <ele>115.1</ele>
        <time>2020-07-02T15:26:48Z</time>
      </trkpt>
      <trkpt lat="47.9084" lon="1.89008">
        <ele>115.1</ele>
        <time>2020-07-02T15:26:49Z</time>
      </trkpt>
      <trkpt lat="47.90841" lon="1.89008">
        <ele>115.1</ele>
        <time>2020-07-02T15:26:50Z</time>
      </trkpt>
      <trkpt lat="47.90842" lon="1.89008">
        <ele>115.1</ele>
        <time>2020-07-02T15:26:51Z</time>
      </trkpt>
      <trkpt lat="47.90842" lon="1.89007">
        <ele>115.1</ele>
        <time>2020-07-02T15:26:52Z</time>
      </trkpt>
      <trkpt lat="47.90843" lon="1.89005">
        <ele>115.1</ele>
        <time>2020-07-02T15:26:53Z</time>
      </trkpt>
      <trkpt lat="47.90843" lon="1.89004">
        <ele>115.1</ele>
        <time>2020-07-02T15:26:54Z</time>
      </trkpt>
      <trkpt lat="47.90843" lon="1.89003">
        <ele>115.1</ele>
        <time>2020-07-02T15:26:55Z</time>
      </trkpt>
      <trkpt lat="47.90843" lon="1.89003">
        <ele>115.1</ele>
        <time>2020-07-02T15:26:56Z</time>
      </trkpt>
      <trkpt lat="47.90844" lon="1.89002">
        <ele>115.1</ele>
        <time>2020-07-02T15:26:57Z</time>
      </trkpt>
      <trkpt lat="47.90844" lon="1.89">
        <ele>115.2</ele>
        <time>2020-07-02T15:26:58Z</time>
      </trkpt>
      <trkpt lat="47.90844" lon="1.89">
        <ele>115.2</ele>
        <time>2020-07-02T15:26:59Z</time>
      </trkpt>
      <trkpt lat="47.90845" lon="1.89">
        <ele>115.2</ele>
        <time>2020-07-02T15:27:00Z</time>
      </trkpt>
      <trkpt lat="47.90845" lon="1.88999">
        <ele>115.2</ele>
        <time>2020-07-02T15:27:01Z</time>
      </trkpt>
      <trkpt lat="47.90846" lon="1.88998">
        <ele>115.2</ele>
        <time>2020-07-02T15:27:02Z</time>
      </trkpt>
      <trkpt lat="47.90847" lon="1.88998">
        <ele>115.2</ele>
        <time>2020-07-02T15:27:03Z</time>
      </trkpt>
      <trkpt lat="47.90848" lon="1.88997">
        <ele>115.2</ele>
        <time>2020-07-02T15:27:04Z</time>
      </trkpt>
      <trkpt lat="47.90849" lon="1.88994">
        <ele>115.2</ele>
        <time>2020-07-02T15:27:05Z</time>
      </trkpt>
      <trkpt lat="47.90849" lon="1.88993">
        <ele>115.2</ele>
        <time>2020-07-02T15:27:06Z</time>
      </trkpt>
      <trkpt lat="47.9085" lon="1.88992">
        <ele>115.2</ele>
        <time>2020-07-02T15:27:07Z</time>
      </trkpt>
      <trkpt lat="47.90851" lon="1.88991">
        <ele>115.2</ele>
        <time>2020-07-02T15:27:08Z</time>
      </trkpt>
      <trkpt lat="47.90851" lon="1.88991">
        <ele>115.2</ele>
        <time>2020-07-02T15:27:09Z</time>
      </trkpt>
      <trkpt lat="47.90851" lon="1.8899">
        <ele>115.2</ele>
        <time>2020-07-02T15:27:10Z</time>
      </trkpt>
      <trkpt lat="47.90851" lon="1.8899">
        <ele>115.2</ele>
        <time>2020-07-02T15:27:11Z</time>
      </trkpt>
      <trkpt lat="47.90851" lon="1.8899">
        <ele>115.2</ele>
        <time>2020-07-02T15:27:12Z</time>
      </trkpt>
      <trkpt lat="47.90852" lon="1.8899">
        <ele>115.2</ele>
        <time>2020-07-02T15:27:13Z</time>
      </trkpt>
      <trkpt lat="47.90852" lon="1.8899">
        <ele>115.2</ele>
        <time>2020-07-02T15:27:14Z</time>
      </trkpt>
      <trkpt lat="47.90853" lon="1.8899">
        <ele>115.2</ele>
        <time>2020-07-02T15:27:15Z</time>
      </trkpt>
      <trkpt lat="47.90853" lon="1.8899">
        <ele>115.2</ele>
        <time>2020-07-02T15:27:16Z</time>
      </trkpt>
      <trkpt lat="47.90853" lon="1.8899">
        <ele>115.2</ele>
        <time>2020-07-02T15:27:17Z</time>
      </trkpt>
      <trkpt lat="47.90853" lon="1.8899">
        <ele>115.2</ele>
        <time>2020-07-02T15:27:18Z</time>
      </trkpt>
      <trkpt lat="47.90852" lon="1.88991">
        <ele>115.2</ele>
        <time>2020-07-02T15:27:19Z</time>
      </trkpt>
      <trkpt lat="47.90849" lon="1.88995">
        <ele>115.2</ele>
        <time>2020-07-02T15:27:22Z</time>
      </trkpt>
      <trkpt lat="47.90848" lon="1.88997">
        <ele>115.2</ele>
        <time>2020-07-02T15:27:23Z</time>
      </trkpt>
      <trkpt lat="47.90847" lon="1.88998">
        <ele>115.2</ele>
        <time>2020-07-02T15:27:24Z</time>
      </trkpt>
      <trkpt lat="47.90846" lon="1.89">
        <ele>115.2</ele>
        <time>2020-07-02T15:27:25Z</time>
      </trkpt>
      <trkpt lat="47.90846" lon="1.89001">
        <ele>115.2</ele>
        <time>2020-07-02T15:27:26Z</time>
      </trkpt>
      <trkpt lat="47.90845" lon="1.89003">
        <ele>115.2</ele>
        <time>2020-07-02T15:27:27Z</time>
      </trkpt>
      <trkpt lat="47.90845" lon="1.89004">
        <ele>115.2</ele>
        <time>2020-07-02T15:27:28Z</time>
      </trkpt>
      <trkpt lat="47.90845" lon="1.89006">
        <ele>115.2</ele>
        <time>2020-07-02T15:27:29Z</time>
      </trkpt>
      <trkpt lat="47.90845" lon="1.89008">
        <ele>115.2</ele>
        <time>2020-07-02T15:27:30Z</time>
      </trkpt>
      <trkpt lat="47.90845" lon="1.89009">
        <ele>115.2</ele>
        <time>2020-07-02T15:27:31Z</time>
      </trkpt>
      <trkpt lat="47.90845" lon="1.89008">
        <ele>115.2</ele>
        <time>2020-07-02T15:27:32Z</time>
      </trkpt>
      <trkpt lat="47.90845" lon="1.89008">
        <ele>115.2</ele>
        <time>2020-07-02T15:27:33Z</time>
      </trkpt>
      <trkpt lat="47.90845" lon="1.89007">
        <ele>115.2</ele>
        <time>2020-07-02T15:27:34Z</time>
      </trkpt>
      <trkpt lat="47.90844" lon="1.89007">
        <ele>115.2</ele>
        <time>2020-07-02T15:27:35Z</time>
      </trkpt>
      <trkpt lat="47.90844" lon="1.89006">
        <ele>115.2</ele>
        <time>2020-07-02T15:27:36Z</time>
      </trkpt>
      <trkpt lat="47.90844" lon="1.89005">
        <ele>115.2</ele>
        <time>2020-07-02T15:27:37Z</time>
      </trkpt>
      <trkpt lat="47.90844" lon="1.89004">
        <ele>115.2</ele>
        <time>2020-07-02T15:27:38Z</time>
      </trkpt>
      <trkpt lat="47.90844" lon="1.89004">
        <ele>115.2</ele>
        <time>2020-07-02T15:27:39Z</time>
      </trkpt>
      <trkpt lat="47.90844" lon="1.89004">
        <ele>115.2</ele>
        <time>2020-07-02T15:27:40Z</time>
      </trkpt>
      <trkpt lat="47.90845" lon="1.89005">
        <ele>115.2</ele>
        <time>2020-07-02T15:27:41Z</time>
      </trkpt>
      <trkpt lat="47.90847" lon="1.89008">
        <ele>115.2</ele>
        <time>2020-07-02T15:27:44Z</time>
      </trkpt>
      <trkpt lat="47.90848" lon="1.89009">
        <ele>115.2</ele>
        <time>2020-07-02T15:27:45Z</time>
      </trkpt>
      <trkpt lat="47.90848" lon="1.89009">
        <ele>115.2</ele>
        <time>2020-07-02T15:27:46Z</time>
      </trkpt>
      <trkpt lat="47.90848" lon="1.89008">
        <ele>115.2</ele>
        <time>2020-07-02T15:27:47Z</time>
      </trkpt>
      <trkpt lat="47.90849" lon="1.89008">
        <ele>115.2</ele>
        <time>2020-07-02T15:27:48Z</time>
      </trkpt>
      <trkpt lat="47.90849" lon="1.89007">
        <ele>115.2</ele>
        <time>2020-07-02T15:27:49Z</time>
      </trkpt>
      <trkpt lat="47.9085" lon="1.89007">
        <ele>115.2</ele>
        <time>2020-07-02T15:27:50Z</time>
      </trkpt>
      <trkpt lat="47.90851" lon="1.89006">
        <ele>115.2</ele>
        <time>2020-07-02T15:27:51Z</time>
      </trkpt>
      <trkpt lat="47.90852" lon="1.89005">
        <ele>115.2</ele>
        <time>2020-07-02T15:27:52Z</time>
      </trkpt>
      <trkpt lat="47.90852" lon="1.89005">
        <ele>115.2</ele>
        <time>2020-07-02T15:27:53Z</time>
      </trkpt>
      <trkpt lat="47.90852" lon="1.89004">
        <ele>115.2</ele>
        <time>2020-07-02T15:27:54Z</time>
      </trkpt>
      <trkpt lat="47.90853" lon="1.89003">
        <ele>115.2</ele>
        <time>2020-07-02T15:27:55Z</time>
      </trkpt>
      <trkpt lat="47.90854" lon="1.89002">
        <ele>115.2</ele>
        <time>2020-07-02T15:27:56Z</time>
      </trkpt>
      <trkpt lat="47.90854" lon="1.89">
        <ele>115.2</ele>
        <time>2020-07-02T15:27:57Z</time>
      </trkpt>
      <trkpt lat="47.90855" lon="1.88998">
        <ele>115.2</ele>
        <time>2020-07-02T15:27:58Z</time>
      </trkpt>
      <trkpt lat="47.90855" lon="1.88995">
        <ele>115.2</ele>
        <time>2020-07-02T15:27:59Z</time>
      </trkpt>
      <trkpt lat="47.90854" lon="1.88993">
        <ele>115.2</ele>
        <time>2020-07-02T15:28:00Z</time>
      </trkpt>
      <trkpt lat="47.90854" lon="1.88992">
        <ele>115.2</ele>
        <time>2020-07-02T15:28:01Z</time>
      </trkpt>
      <trkpt lat="47.90854" lon="1.88991">
        <ele>115.2</ele>
        <time>2020-07-02T15:28:02Z</time>
      </trkpt>
      <trkpt lat="47.90854" lon="1.88991">
        <ele>115.2</ele>
        <time>2020-07-02T15:28:03Z</time>
      </trkpt>
      <trkpt lat="47.90854" lon="1.8899">
        <ele>115.2</ele>
        <time>2020-07-02T15:28:04Z</time>
      </trkpt>
      <trkpt lat="47.90854" lon="1.88989">
        <ele>115.2</ele>
        <time>2020-07-02T15:28:05Z</time>
      </trkpt>
      <trkpt lat="47.90854" lon="1.88989">
        <ele>115.2</ele>
        <time>2020-07-02T15:28:06Z</time>
      </trkpt>
      <trkpt lat="47.90853" lon="1.88989">
        <ele>115.2</ele>
        <time>2020-07-02T15:28:07Z</time>
      </trkpt>
      <trkpt lat="47.90854" lon="1.88989">
        <ele>115.2</ele>
        <time>2020-07-02T15:28:08Z</time>
      </trkpt>
      <trkpt lat="47.90854" lon="1.88988">
        <ele>115.2</ele>
        <time>2020-07-02T15:28:09Z</time>
      </trkpt>
      <trkpt lat="47.90853" lon="1.88988">
        <ele>115.2</ele>
        <time>2020-07-02T15:28:10Z</time>
      </trkpt>
      <trkpt lat="47.90853" lon="1.88987">
        <ele>115.2</ele>
        <time>2020-07-02T15:28:11Z</time>
      </trkpt>
      <trkpt lat="47.90853" lon="1.88986">
        <ele>115.2</ele>
        <time>2020-07-02T15:28:12Z</time>
      </trkpt>
      <trkpt lat="47.90853" lon="1.88987">
        <ele>115.2</ele>
        <time>2020-07-02T15:28:13Z</time>
      </trkpt>
      <trkpt lat="47.90852" lon="1.88997">
        <ele>115.2</ele>
        <time>2020-07-02T15:28:22Z</time>
      </trkpt>
      <trkpt lat="47.90853" lon="1.88999">
        <ele>115.2</ele>
        <time>2020-07-02T15:28:23Z</time>
      </trkpt>
      <trkpt lat="47.90853" lon="1.89001">
        <ele>115.2</ele>
        <time>2020-07-02T15:28:24Z</time>
      </trkpt>
      <trkpt lat="47.90853" lon="1.89001">
        <ele>115.2</ele>
        <time>2020-07-02T15:28:25Z</time>
      </trkpt>
      <trkpt lat="47.90854" lon="1.89002">
        <ele>115.3</ele>
        <time>2020-07-02T15:28:26Z</time>
      </trkpt>
      <trkpt lat="47.90855" lon="1.89001">
        <ele>115.3</ele>
        <time>2020-07-02T15:28:27Z</time>
      </trkpt>
      <trkpt lat="47.90855" lon="1.89002">
        <ele>115.3</ele>
        <time>2020-07-02T15:28:28Z</time>
      </trkpt>
      <trkpt lat="47.90855" lon="1.89002">
        <ele>115.3</ele>
        <time>2020-07-02T15:28:29Z</time>
      </trkpt>
      <trkpt lat="47.90855" lon="1.89002">
        <ele>115.3</ele>
        <time>2020-07-02T15:28:30Z</time>
      </trkpt>
      <trkpt lat="47.90856" lon="1.89002">
        <ele>115.3</ele>
        <time>2020-07-02T15:28:31Z</time>
      </trkpt>
      <trkpt lat="47.90857" lon="1.89001">
        <ele>115.3</ele>
        <time>2020-07-02T15:28:32Z</time>
      </trkpt>
      <trkpt lat="47.90857" lon="1.88999">
        <ele>115.3</ele>
        <time>2020-07-02T15:28:33Z</time>
      </trkpt>
      <trkpt lat="47.90858" lon="1.88997">
        <ele>115.3</ele>
        <time>2020-07-02T15:28:34Z</time>
      </trkpt>
      <trkpt lat="47.90858" lon="1.88995">
        <ele>115.3</ele>
        <time>2020-07-02T15:28:35Z</time>
      </trkpt>
      <trkpt lat="47.90857" lon="1.88994">
        <ele>115.3</ele>
        <time>2020-07-02T15:28:36Z</time>
      </trkpt>
      <trkpt lat="47.90857" lon="1.88992">
        <ele>115.3</ele>
        <time>2020-07-02T15:28:37Z</time>
      </trkpt>
      <trkpt lat="47.90857" lon="1.88991">
        <ele>115.3</ele>
        <time>2020-07-02T15:28:38Z</time>
      </trkpt>
      <trkpt lat="47.90857" lon="1.88991">
        <ele>115.3</ele>
        <time>2020-07-02T15:28:39Z</time>
      </trkpt>
      <trkpt lat="47.90857" lon="1.88991">
        <ele>115.3</ele>
        <time>2020-07-02T15:28:40Z</time>
      </trkpt>
      <trkpt lat="47.90856" lon="1.8899">
        <ele>115.3</ele>
        <time>2020-07-02T15:28:41Z</time>
      </trkpt>
      <trkpt lat="47.90856" lon="1.88989">
        <ele>115.3</ele>
        <time>2020-07-02T15:28:42Z</time>
      </trkpt>
      <trkpt lat="47.90856" lon="1.88989">
        <ele>115.3</ele>
        <time>2020-07-02T15:28:43Z</time>
      </trkpt>
      <trkpt lat="47.90856" lon="1.88989">
        <ele>115.3</ele>
        <time>2020-07-02T15:28:44Z</time>
      </trkpt>
      <trkpt lat="47.90856" lon="1.88989">
        <ele>115.3</ele>
        <time>2020-07-02T15:28:45Z</time>
      </trkpt>
      <trkpt lat="47.90856" lon="1.88989">
        <ele>115.3</ele>
        <time>2020-07-02T15:28:46Z</time>
      </trkpt>
      <trkpt lat="47.90855" lon="1.88989">
        <ele>115.3</ele>
        <time>2020-07-02T15:28:47Z</time>
      </trkpt>
      <trkpt lat="47.90854" lon="1.88989">
        <ele>115.3</ele>
        <time>2020-07-02T15:28:48Z</time>
      </trkpt>
      <trkpt lat="47.90855" lon="1.8899">
        <ele>115.3</ele>
        <time>2020-07-02T15:28:49Z</time>
      </trkpt>
      <trkpt lat="47.90855" lon="1.88991">
        <ele>115.3</ele>
        <time>2020-07-02T15:28:50Z</time>
      </trkpt>
      <trkpt lat="47.90854" lon="1.88993">
        <ele>115.3</ele>
        <time>2020-07-02T15:28:51Z</time>
      </trkpt>
      <trkpt lat="47.90854" lon="1.88995">
        <ele>115.3</ele>
        <time>2020-07-02T15:28:52Z</time>
      </trkpt>
      <trkpt lat="47.90854" lon="1.88997">
        <ele>115.3</ele>
        <time>2020-07-02T15:28:53Z</time>
      </trkpt>
      <trkpt lat="47.90853" lon="1.88998">
        <ele>115.3</ele>
        <time>2020-07-02T15:28:54Z</time>
      </trkpt>
      <trkpt lat="47.90853" lon="1.88999">
        <ele>115.3</ele>
        <time>2020-07-02T15:28:55Z</time>
      </trkpt>
      <trkpt lat="47.90853" lon="1.89">
        <ele>115.3</ele>
        <time>2020-07-02T15:28:56Z</time>
      </trkpt>
      <trkpt lat="47.90853" lon="1.89">
        <ele>115.3</ele>
        <time>2020-07-02T15:28:57Z</time>
      </trkpt>
      <trkpt lat="47.90853" lon="1.89">
        <ele>115.3</ele>
        <time>2020-07-02T15:28:58Z</time>
      </trkpt>
      <trkpt lat="47.90853" lon="1.89">
        <ele>115.3</ele>
        <time>2020-07-02T15:28:59Z</time>
      </trkpt>
      <trkpt lat="47.90853" lon="1.89001">
        <ele>115.3</ele>
        <time>2020-07-02T15:29:00Z</time>
      </trkpt>
      <trkpt lat="47.90853" lon="1.89001">
        <ele>115.3</ele>
        <time>2020-07-02T15:29:01Z</time>
      </trkpt>
      <trkpt lat="47.90852" lon="1.89">
        <ele>115.3</ele>
        <time>2020-07-02T15:29:02Z</time>
      </trkpt>
      <trkpt lat="47.90851" lon="1.88999">
        <ele>115.3</ele>
        <time>2020-07-02T15:29:03Z</time>
      </trkpt>
      <trkpt lat="47.90851" lon="1.88998">
        <ele>115.3</ele>
        <time>2020-07-02T15:29:04Z</time>
      </trkpt>
      <trkpt lat="47.90851" lon="1.88998">
        <ele>115.3</ele>
        <time>2020-07-02T15:29:05Z</time>
      </trkpt>
      <trkpt lat="47.9085" lon="1.88997">
        <ele>115.3</ele>
        <time>2020-07-02T15:29:06Z</time>
      </trkpt>
      <trkpt lat="47.90849" lon="1.88996">
        <ele>115.3</ele>
        <time>2020-07-02T15:29:07Z</time>
      </trkpt>
      <trkpt lat="47.90849" lon="1.88995">
        <ele>115.3</ele>
        <time>2020-07-02T15:29:08Z</time>
      </trkpt>
      <trkpt lat="47.90849" lon="1.88994">
        <ele>115.3</ele>
        <time>2020-07-02T15:29:09Z</time>
      </trkpt>
      <trkpt lat="47.90849" lon="1.88993">
        <ele>115.3</ele>
        <time>2020-07-02T15:29:10Z</time>
      </trkpt>
      <trkpt lat="47.90848" lon="1.88992">
        <ele>115.3</ele>
        <time>2020-07-02T15:29:11Z</time>
      </trkpt>
      <trkpt lat="47.90847" lon="1.88991">
        <ele>115.3</ele>
        <time>2020-07-02T15:29:12Z</time>
      </trkpt>
      <trkpt lat="47.90847" lon="1.8899">
        <ele>115.3</ele>
        <time>2020-07-02T15:29:13Z</time>
      </trkpt>
      <trkpt lat="47.90847" lon="1.8899">
        <ele>115.3</ele>
        <time>2020-07-02T15:29:14Z</time>
      </trkpt>
      <trkpt lat="47.90846" lon="1.8899">
        <ele>115.3</ele>
        <time>2020-07-02T15:29:15Z</time>
      </trkpt>
      <trkpt lat="47.90846" lon="1.88989">
        <ele>115.3</ele>
        <time>2020-07-02T15:29:16Z</time>
      </trkpt>
      <trkpt lat="47.90846" lon="1.88989">
        <ele>115.3</ele>
        <time>2020-07-02T15:29:17Z</time>
      </trkpt>
      <trkpt lat="47.90846" lon="1.88989">
        <ele>115.3</ele>
        <time>2020-07-02T15:29:18Z</time>
      </trkpt>
      <trkpt lat="47.90846" lon="1.8899">
        <ele>115.3</ele>
        <time>2020-07-02T15:29:19Z</time>
      </trkpt>
      <trkpt lat="47.90846" lon="1.8899">
        <ele>115.3</ele>
        <time>2020-07-02T15:29:20Z</time>
      </trkpt>
      <trkpt lat="47.90846" lon="1.8899">
        <ele>115.3</ele>
        <time>2020-07-02T15:29:21Z</time>
      </trkpt>
      <trkpt lat="47.90846" lon="1.8899">
        <ele>115.3</ele>
        <time>2020-07-02T15:29:22Z</time>
      </trkpt>
      <trkpt lat="47.90845" lon="1.88989">
        <ele>115.3</ele>
        <time>2020-07-02T15:29:23Z</time>
      </trkpt>
      <trkpt lat="47.90845" lon="1.88989">
        <ele>115.3</ele>
        <time>2020-07-02T15:29:24Z</time>
      </trkpt>
      <trkpt lat="47.90844" lon="1.88989">
        <ele>115.3</ele>
        <time>2020-07-02T15:29:25Z</time>
      </trkpt>
      <trkpt lat="47.90844" lon="1.88988">
        <ele>115.3</ele>
        <time>2020-07-02T15:29:26Z</time>
      </trkpt>
      <trkpt lat="47.90842" lon="1.88988">
        <ele>115.3</ele>
        <time>2020-07-02T15:29:27Z</time>
      </trkpt>
      <trkpt lat="47.90843" lon="1.88988">
        <ele>115.3</ele>
        <time>2020-07-02T15:29:28Z</time>
      </trkpt>
      <trkpt lat="47.90842" lon="1.88988">
        <ele>115.3</ele>
        <time>2020-07-02T15:29:29Z</time>
      </trkpt>
      <trkpt lat="47.90842" lon="1.88988">
        <ele>115.3</ele>
        <time>2020-07-02T15:29:30Z</time>
      </trkpt>
      <trkpt lat="47.90842" lon="1.88988">
        <ele>115.3</ele>
        <time>2020-07-02T15:29:31Z</time>
      </trkpt>
      <trkpt lat="47.90842" lon="1.88988">
        <ele>115.3</ele>
        <time>2020-07-02T15:29:32Z</time>
      </trkpt>
      <trkpt lat="47.90842" lon="1.88988">
        <ele>115.3</ele>
        <time>2020-07-02T15:29:33Z</time>
      </trkpt>
      <trkpt lat="47.90842" lon="1.88988">
        <ele>115.3</ele>
        <time>2020-07-02T15:29:34Z</time>
      </trkpt>
      <trkpt lat="47.90842" lon="1.88988">
        <ele>115.3</ele>
        <time>2020-07-02T15:29:35Z</time>
      </trkpt>
      <trkpt lat="47.90842" lon="1.88988">
        <ele>115.3</ele>
        <time>2020-07-02T15:29:36Z</time>
      </trkpt>
      <trkpt lat="47.90841" lon="1.88989">
        <ele>115.3</ele>
        <time>2020-07-02T15:29:37Z</time>
      </trkpt>
      <trkpt lat="47.90841" lon="1.8899">
        <ele>115.3</ele>
        <time>2020-07-02T15:29:38Z</time>
      </trkpt>
      <trkpt lat="47.90842" lon="1.88989">
        <ele>115.3</ele>
        <time>2020-07-02T15:29:39Z</time>
      </trkpt>
      <trkpt lat="47.90842" lon="1.88989">
        <ele>115.3</ele>
        <time>2020-07-02T15:29:40Z</time>
      </trkpt>
      <trkpt lat="47.90842" lon="1.88989">
        <ele>115.3</ele>
        <time>2020-07-02T15:29:41Z</time>
      </trkpt>
      <trkpt lat="47.90842" lon="1.88989">
        <ele>115.3</ele>
        <time>2020-07-02T15:29:42Z</time>
      </trkpt>
      <trkpt lat="47.90843" lon="1.8899">
        <ele>115.3</ele>
        <time>2020-07-02T15:29:43Z</time>
      </trkpt>
      <trkpt lat="47.90843" lon="1.8899">
        <ele>115.3</ele>
        <time>2020-07-02T15:29:44Z</time>
      </trkpt>
      <trkpt lat="47.90842" lon="1.8899">
        <ele>115.3</ele>
        <time>2020-07-02T15:29:45Z</time>
      </trkpt>
      <trkpt lat="47.90843" lon="1.88991">
        <ele>115.3</ele>
        <time>2020-07-02T15:29:46Z</time>
      </trkpt>
      <trkpt lat="47.90843" lon="1.88993">
        <ele>115.3</ele>
        <time>2020-07-02T15:29:47Z</time>
      </trkpt>
      <trkpt lat="47.90843" lon="1.88994">
        <ele>115.3</ele>
        <time>2020-07-02T15:29:48Z</time>
      </trkpt>
      <trkpt lat="47.90843" lon="1.88993">
        <ele>115.3</ele>
        <time>2020-07-02T15:29:49Z</time>
      </trkpt>
      <trkpt lat="47.90844" lon="1.88993">
        <ele>115.3</ele>
        <time>2020-07-02T15:29:50Z</time>
      </trkpt>
      <trkpt lat="47.90844" lon="1.88993">
        <ele>115.3</ele>
        <time>2020-07-02T15:29:51Z</time>
      </trkpt>
      <trkpt lat="47.90845" lon="1.88993">
        <ele>115.3</ele>
        <time>2020-07-02T15:29:52Z</time>
      </trkpt>
      <trkpt lat="47.90846" lon="1.88994">
        <ele>115.3</ele>
        <time>2020-07-02T15:29:53Z</time>
      </trkpt>
      <trkpt lat="47.90846" lon="1.88993">
        <ele>115.3</ele>
        <time>2020-07-02T15:29:54Z</time>
      </trkpt>
      <trkpt lat="47.90847" lon="1.88993">
        <ele>115.3</ele>
        <time>2020-07-02T15:29:55Z</time>
      </trkpt>
      <trkpt lat="47.90847" lon="1.88993">
        <ele>115.3</ele>
        <time>2020-07-02T15:29:56Z</time>
      </trkpt>
      <trkpt lat="47.90847" lon="1.88993">
        <ele>115.3</ele>
        <time>2020-07-02T15:29:57Z</time>
      </trkpt>
      <trkpt lat="47.90848" lon="1.88993">
        <ele>115.3</ele>
        <time>2020-07-02T15:29:58Z</time>
      </trkpt>
      <trkpt lat="47.90847" lon="1.88992">
        <ele>115.3</ele>
        <time>2020-07-02T15:29:59Z</time>
      </trkpt>
      <trkpt lat="47.90847" lon="1.8899">
        <ele>115.3</ele>
        <time>2020-07-02T15:30:00Z</time>
      </trkpt>
      <trkpt lat="47.90847" lon="1.88989">
        <ele>115.3</ele>
        <time>2020-07-02T15:30:01Z</time>
      </trkpt>
      <trkpt lat="47.90847" lon="1.88986">
        <ele>115.3</ele>
        <time>2020-07-02T15:30:02Z</time>
      </trkpt>
      <trkpt lat="47.90847" lon="1.88986">
        <ele>115.3</ele>
        <time>2020-07-02T15:30:03Z</time>
      </trkpt>
      <trkpt lat="47.90847" lon="1.88986">
        <ele>115.3</ele>
        <time>2020-07-02T15:30:04Z</time>
      </trkpt>
      <trkpt lat="47.90848" lon="1.88985">
        <ele>115.3</ele>
        <time>2020-07-02T15:30:05Z</time>
      </trkpt>
      <trkpt lat="47.90847" lon="1.88984">
        <ele>115.3</ele>
        <time>2020-07-02T15:30:06Z</time>
      </trkpt>
      <trkpt lat="47.90847" lon="1.88983">
        <ele>115.3</ele>
        <time>2020-07-02T15:30:07Z</time>
      </trkpt>
      <trkpt lat="47.90847" lon="1.88982">
        <ele>115.3</ele>
        <time>2020-07-02T15:30:08Z</time>
      </trkpt>
      <trkpt lat="47.90846" lon="1.88981">
        <ele>115.3</ele>
        <time>2020-07-02T15:30:09Z</time>
      </trkpt>
      <trkpt lat="47.90846" lon="1.88981">
        <ele>115.3</ele>
        <time>2020-07-02T15:30:10Z</time>
      </trkpt>
      <trkpt lat="47.90846" lon="1.88979">
        <ele>115.3</ele>
        <time>2020-07-02T15:30:11Z</time>
      </trkpt>
      <trkpt lat="47.90845" lon="1.88978">
        <ele>115.4</ele>
        <time>2020-07-02T15:30:12Z</time>
      </trkpt>
      <trkpt lat="47.90845" lon="1.88976">
        <ele>115.4</ele>
        <time>2020-07-02T15:30:13Z</time>
      </trkpt>
      <trkpt lat="47.90844" lon="1.88974">
        <ele>115.4</ele>
        <time>2020-07-02T15:30:14Z</time>
      </trkpt>
      <trkpt lat="47.90843" lon="1.88973">
        <ele>115.4</ele>
        <time>2020-07-02T15:30:15Z</time>
      </trkpt>
      <trkpt lat="47.90842" lon="1.88971">
        <ele>115.4</ele>
        <time>2020-07-02T15:30:16Z</time>
      </trkpt>
      <trkpt lat="47.90841" lon="1.8897">
        <ele>115.4</ele>
        <time>2020-07-02T15:30:17Z</time>
      </trkpt>
      <trkpt lat="47.90841" lon="1.88969">
        <ele>115.4</ele>
        <time>2020-07-02T15:30:18Z</time>
      </trkpt>
      <trkpt lat="47.90841" lon="1.88969">
        <ele>115.4</ele>
        <time>2020-07-02T15:30:19Z</time>
      </trkpt>
      <trkpt lat="47.90841" lon="1.88968">
        <ele>115.4</ele>
        <time>2020-07-02T15:30:20Z</time>
      </trkpt>
      <trkpt lat="47.90842" lon="1.88969">
        <ele>115.4</ele>
        <time>2020-07-02T15:30:21Z</time>
      </trkpt>
      <trkpt lat="47.90843" lon="1.88969">
        <ele>115.4</ele>
        <time>2020-07-02T15:30:22Z</time>
      </trkpt>
      <trkpt lat="47.90843" lon="1.88968">
        <ele>115.4</ele>
        <time>2020-07-02T15:30:23Z</time>
      </trkpt>
      <trkpt lat="47.90843" lon="1.88969">
        <ele>115.4</ele>
        <time>2020-07-02T15:30:24Z</time>
      </trkpt>
      <trkpt lat="47.90844" lon="1.8897">
        <ele>115.4</ele>
        <time>2020-07-02T15:30:25Z</time>
      </trkpt>
      <trkpt lat="47.90844" lon="1.8897">
        <ele>115.4</ele>
        <time>2020-07-02T15:30:26Z</time>
      </trkpt>
      <trkpt lat="47.90844" lon="1.88971">
        <ele>115.4</ele>
        <time>2020-07-02T15:30:27Z</time>
      </trkpt>
      <trkpt lat="47.90845" lon="1.88972">
        <ele>115.4</ele>
        <time>2020-07-02T15:30:28Z</time>
      </trkpt>
      <trkpt lat="47.90845" lon="1.88972">
        <ele>115.4</ele>
        <time>2020-07-02T15:30:29Z</time>
      </trkpt>
      <trkpt lat="47.90845" lon="1.88974">
        <ele>115.4</ele>
        <time>2020-07-02T15:30:30Z</time>
      </trkpt>
      <trkpt lat="47.90846" lon="1.88974">
        <ele>115.4</ele>
        <time>2020-07-02T15:30:31Z</time>
      </trkpt>
      <trkpt lat="47.90847" lon="1.88975">
        <ele>115.4</ele>
        <time>2020-07-02T15:30:32Z</time>
      </trkpt>
      <trkpt lat="47.90848" lon="1.88975">
        <ele>115.4</ele>
        <time>2020-07-02T15:30:33Z</time>
      </trkpt>
      <trkpt lat="47.90849" lon="1.88976">
        <ele>115.4</ele>
        <time>2020-07-02T15:30:34Z</time>
      </trkpt>
      <trkpt lat="47.90848" lon="1.88976">
        <ele>115.4</ele>
        <time>2020-07-02T15:30:35Z</time>
      </trkpt>
      <trkpt lat="47.90848" lon="1.88977">
        <ele>115.4</ele>
        <time>2020-07-02T15:30:36Z</time>
      </trkpt>
      <trkpt lat="47.90848" lon="1.88976">
        <ele>115.4</ele>
        <time>2020-07-02T15:30:37Z</time>
      </trkpt>
      <trkpt lat="47.90849" lon="1.88975">
        <ele>115.4</ele>
        <time>2020-07-02T15:30:38Z</time>
      </trkpt>
      <trkpt lat="47.90849" lon="1.88974">
        <ele>115.4</ele>
        <time>2020-07-02T15:30:39Z</time>
      </trkpt>
      <trkpt lat="47.90848" lon="1.88974">
        <ele>115.4</ele>
        <time>2020-07-02T15:30:40Z</time>
      </trkpt>
      <trkpt lat="47.90848" lon="1.88974">
        <ele>115.4</ele>
        <time>2020-07-02T15:30:41Z</time>
      </trkpt>
      <trkpt lat="47.90849" lon="1.88974">
        <ele>115.4</ele>
        <time>2020-07-02T15:30:42Z</time>
      </trkpt>
      <trkpt lat="47.9085" lon="1.88975">
        <ele>115.4</ele>
        <time>2020-07-02T15:30:43Z</time>
      </trkpt>
      <trkpt lat="47.9085" lon="1.88975">
        <ele>115.4</ele>
        <time>2020-07-02T15:30:44Z</time>
      </trkpt>
      <trkpt lat="47.9085" lon="1.88975">
        <ele>115.4</ele>
        <time>2020-07-02T15:30:45Z</time>
      </trkpt>
      <trkpt lat="47.9085" lon="1.88975">
        <ele>115.4</ele>
        <time>2020-07-02T15:30:46Z</time>
      </trkpt>
      <trkpt lat="47.9085" lon="1.88974">
        <ele>115.4</ele>
        <time>2020-07-02T15:30:47Z</time>
      </trkpt>
      <trkpt lat="47.9085" lon="1.88974">
        <ele>115.4</ele>
        <time>2020-07-02T15:30:48Z</time>
      </trkpt>
      <trkpt lat="47.9085" lon="1.88975">
        <ele>115.4</ele>
        <time>2020-07-02T15:30:49Z</time>
      </trkpt>
      <trkpt lat="47.9085" lon="1.88974">
        <ele>115.4</ele>
        <time>2020-07-02T15:30:50Z</time>
      </trkpt>
      <trkpt lat="47.9085" lon="1.88974">
        <ele>115.4</ele>
        <time>2020-07-02T15:30:51Z</time>
      </trkpt>
      <trkpt lat="47.9085" lon="1.88975">
        <ele>115.4</ele>
        <time>2020-07-02T15:30:52Z</time>
      </trkpt>
      <trkpt lat="47.9085" lon="1.88975">
        <ele>115.4</ele>
        <time>2020-07-02T15:30:53Z</time>
      </trkpt>
      <trkpt lat="47.90853" lon="1.88969">
        <ele>115.4</ele>
        <time>2020-07-02T15:31:33Z</time>
      </trkpt>
      <trkpt lat="47.90854" lon="1.88969">
        <ele>115.4</ele>
        <time>2020-07-02T15:31:34Z</time>
      </trkpt>
      <trkpt lat="47.90855" lon="1.88969">
        <ele>115.4</ele>
        <time>2020-07-02T15:31:35Z</time>
      </trkpt>
      <trkpt lat="47.90855" lon="1.88969">
        <ele>115.4</ele>
        <time>2020-07-02T15:31:36Z</time>
      </trkpt>
      <trkpt lat="47.90855" lon="1.88969">
        <ele>115.4</ele>
        <time>2020-07-02T15:31:37Z</time>
      </trkpt>
      <trkpt lat="47.90855" lon="1.88969">
        <ele>115.4</ele>
        <time>2020-07-02T15:31:38Z</time>
      </trkpt>
      <trkpt lat="47.90856" lon="1.8897">
        <ele>115.4</ele>
        <time>2020-07-02T15:31:39Z</time>
      </trkpt>
      <trkpt lat="47.90856" lon="1.8897">
        <ele>115.4</ele>
        <time>2020-07-02T15:31:40Z</time>
      </trkpt>
      <trkpt lat="47.90856" lon="1.8897">
        <ele>115.4</ele>
        <time>2020-07-02T15:31:41Z</time>
      </trkpt>
      <trkpt lat="47.90856" lon="1.8897">
        <ele>115.4</ele>
        <time>2020-07-02T15:31:42Z</time>
      </trkpt>
      <trkpt lat="47.90856" lon="1.8897">
        <ele>115.4</ele>
        <time>2020-07-02T15:31:43Z</time>
      </trkpt>
      <trkpt lat="47.90855" lon="1.8897">
        <ele>115.4</ele>
        <time>2020-07-02T15:31:44Z</time>
      </trkpt>
      <trkpt lat="47.90855" lon="1.8897">
        <ele>115.4</ele>
        <time>2020-07-02T15:31:45Z</time>
      </trkpt>
      <trkpt lat="47.90856" lon="1.88969">
        <ele>115.4</ele>
        <time>2020-07-02T15:31:46Z</time>
      </trkpt>
      <trkpt lat="47.90855" lon="1.8897">
        <ele>115.4</ele>
        <time>2020-07-02T15:31:47Z</time>
      </trkpt>
      <trkpt lat="47.90855" lon="1.8897">
        <ele>115.4</ele>
        <time>2020-07-02T15:31:48Z</time>
      </trkpt>
      <trkpt lat="47.90855" lon="1.8897">
        <ele>115.4</ele>
        <time>2020-07-02T15:31:49Z</time>
      </trkpt>
      <trkpt lat="47.90869" lon="1.88976">
        <ele>115.9</ele>
        <time>2020-07-02T15:32:25Z</time>
      </trkpt>
      <trkpt lat="47.90869" lon="1.88976">
        <ele>115.9</ele>
        <time>2020-07-02T15:32:26Z</time>
      </trkpt>
      <trkpt lat="47.9087" lon="1.88977">
        <ele>115.9</ele>
        <time>2020-07-02T15:32:27Z</time>
      </trkpt>
      <trkpt lat="47.90871" lon="1.88977">
        <ele>115.9</ele>
        <time>2020-07-02T15:32:28Z</time>
      </trkpt>
      <trkpt lat="47.90872" lon="1.88977">
        <ele>115.9</ele>
        <time>2020-07-02T15:32:29Z</time>
      </trkpt>
      <trkpt lat="47.90873" lon="1.88978">
        <ele>115.9</ele>
        <time>2020-07-02T15:32:30Z</time>
      </trkpt>
      <trkpt lat="47.90874" lon="1.88978">
        <ele>115.9</ele>
        <time>2020-07-02T15:32:31Z</time>
      </trkpt>
      <trkpt lat="47.90876" lon="1.88979">
        <ele>115.8</ele>
        <time>2020-07-02T15:32:32Z</time>
      </trkpt>
      <trkpt lat="47.90877" lon="1.8898">
        <ele>115.8</ele>
        <time>2020-07-02T15:32:33Z</time>
      </trkpt>
      <trkpt lat="47.90877" lon="1.8898">
        <ele>115.8</ele>
        <time>2020-07-02T15:32:34Z</time>
      </trkpt>
      <trkpt lat="47.90878" lon="1.88981">
        <ele>115.8</ele>
        <time>2020-07-02T15:32:35Z</time>
      </trkpt>
      <trkpt lat="47.90879" lon="1.88982">
        <ele>115.8</ele>
        <time>2020-07-02T15:32:36Z</time>
      </trkpt>
      <trkpt lat="47.90881" lon="1.88982">
        <ele>115.8</ele>
        <time>2020-07-02T15:32:37Z</time>
      </trkpt>
      <trkpt lat="47.90882" lon="1.88982">
        <ele>115.8</ele>
        <time>2020-07-02T15:32:38Z</time>
      </trkpt>
      <trkpt lat="47.90883" lon="1.88982">
        <ele>115.8</ele>
        <time>2020-07-02T15:32:39Z</time>
      </trkpt>
      <trkpt lat="47.90884" lon="1.88982">
        <ele>115.8</ele>
        <time>2020-07-02T15:32:40Z</time>
      </trkpt>
      <trkpt lat="47.90886" lon="1.88983">
        <ele>115.8</ele>
        <time>2020-07-02T15:32:41Z</time>
      </trkpt>
      <trkpt lat="47.90887" lon="1.88983">
        <ele>115.7</ele>
        <time>2020-07-02T15:32:42Z</time>
      </trkpt>
      <trkpt lat="47.90889" lon="1.88984">
        <ele>115.7</ele>
        <time>2020-07-02T15:32:43Z</time>
      </trkpt>
      <trkpt lat="47.9089" lon="1.88984">
        <ele>115.7</ele>
        <time>2020-07-02T15:32:44Z</time>
      </trkpt>
      <trkpt lat="47.90892" lon="1.88984">
        <ele>115.7</ele>
        <time>2020-07-02T15:32:45Z</time>
      </trkpt>
      <trkpt lat="47.90892" lon="1.88984">
        <ele>115.7</ele>
        <time>2020-07-02T15:32:46Z</time>
      </trkpt>
      <trkpt lat="47.90893" lon="1.88984">
        <ele>115.7</ele>
        <time>2020-07-02T15:32:47Z</time>
      </trkpt>
      <trkpt lat="47.90893" lon="1.88984">
        <ele>115.7</ele>
        <time>2020-07-02T15:32:48Z</time>
      </trkpt>
      <trkpt lat="47.90893" lon="1.88984">
        <ele>115.7</ele>
        <time>2020-07-02T15:32:49Z</time>
      </trkpt>
      <trkpt lat="47.90893" lon="1.88984">
        <ele>115.7</ele>
        <time>2020-07-02T15:32:50Z</time>
      </trkpt>
      <trkpt lat="47.90895" lon="1.88984">
        <ele>115.7</ele>
        <time>2020-07-02T15:32:51Z</time>
      </trkpt>
      <trkpt lat="47.90895" lon="1.88985">
        <ele>115.7</ele>
        <time>2020-07-02T15:32:52Z</time>
      </trkpt>
      <trkpt lat="47.90895" lon="1.88985">
        <ele>115.7</ele>
        <time>2020-07-02T15:32:53Z</time>
      </trkpt>
      <trkpt lat="47.90896" lon="1.88985">
        <ele>115.7</ele>
        <time>2020-07-02T15:32:54Z</time>
      </trkpt>
      <trkpt lat="47.90896" lon="1.88985">
        <ele>115.7</ele>
        <time>2020-07-02T15:32:55Z</time>
      </trkpt>
      <trkpt lat="47.90897" lon="1.88986">
        <ele>115.7</ele>
        <time>2020-07-02T15:32:56Z</time>
      </trkpt>
      <trkpt lat="47.90897" lon="1.88986">
        <ele>115.6</ele>
        <time>2020-07-02T15:32:57Z</time>
      </trkpt>
      <trkpt lat="47.90899" lon="1.88987">
        <ele>115.6</ele>
        <time>2020-07-02T15:32:58Z</time>
      </trkpt>
      <trkpt lat="47.909" lon="1.88987">
        <ele>115.6</ele>
        <time>2020-07-02T15:32:59Z</time>
      </trkpt>
      <trkpt lat="47.90901" lon="1.88987">
        <ele>115.6</ele>
        <time>2020-07-02T15:33:00Z</time>
      </trkpt>
      <trkpt lat="47.90902" lon="1.88987">
        <ele>115.6</ele>
        <time>2020-07-02T15:33:01Z</time>
      </trkpt>
      <trkpt lat="47.90903" lon="1.88988">
        <ele>115.6</ele>
        <time>2020-07-02T15:33:02Z</time>
      </trkpt>
      <trkpt lat="47.90904" lon="1.88988">
        <ele>115.6</ele>
        <time>2020-07-02T15:33:03Z</time>
      </trkpt>
      <trkpt lat="47.90904" lon="1.88988">
        <ele>115.6</ele>
        <time>2020-07-02T15:33:04Z</time>
      </trkpt>
      <trkpt lat="47.90906" lon="1.88989">
        <ele>115.6</ele>
        <time>2020-07-02T15:33:05Z</time>
      </trkpt>
      <trkpt lat="47.90906" lon="1.8899">
        <ele>115.6</ele>
        <time>2020-07-02T15:33:06Z</time>
      </trkpt>
      <trkpt lat="47.90907" lon="1.8899">
        <ele>115.6</ele>
        <time>2020-07-02T15:33:07Z</time>
      </trkpt>
      <trkpt lat="47.90908" lon="1.88991">
        <ele>115.6</ele>
        <time>2020-07-02T15:33:08Z</time>
      </trkpt>
      <trkpt lat="47.90909" lon="1.88991">
        <ele>115.6</ele>
        <time>2020-07-02T15:33:09Z</time>
      </trkpt>
      <trkpt lat="47.90909" lon="1.88992">
        <ele>115.6</ele>
        <time>2020-07-02T15:33:10Z</time>
      </trkpt>
      <trkpt lat="47.9091" lon="1.88993">
        <ele>115.5</ele>
        <time>2020-07-02T15:33:11Z</time>
      </trkpt>
      <trkpt lat="47.9091" lon="1.88994">
        <ele>115.5</ele>
        <time>2020-07-02T15:33:12Z</time>
      </trkpt>
      <trkpt lat="47.90912" lon="1.88994">
        <ele>115.5</ele>
        <time>2020-07-02T15:33:13Z</time>
      </trkpt>
      <trkpt lat="47.90913" lon="1.88994">
        <ele>115.5</ele>
        <time>2020-07-02T15:33:14Z</time>
      </trkpt>
      <trkpt lat="47.90914" lon="1.88995">
        <ele>115.5</ele>
        <time>2020-07-02T15:33:15Z</time>
      </trkpt>
      <trkpt lat="47.90915" lon="1.88996">
        <ele>115.5</ele>
        <time>2020-07-02T15:33:16Z</time>
      </trkpt>
      <trkpt lat="47.90915" lon="1.88997">
        <ele>115.5</ele>
        <time>2020-07-02T15:33:17Z</time>
      </trkpt>
      <trkpt lat="47.90916" lon="1.88998">
        <ele>115.5</ele>
        <time>2020-07-02T15:33:18Z</time>
      </trkpt>
      <trkpt lat="47.90917" lon="1.88999">
        <ele>115.5</ele>
        <time>2020-07-02T15:33:19Z</time>
      </trkpt>
      <trkpt lat="47.90917" lon="1.89004">
        <ele>115.5</ele>
        <time>2020-07-02T15:33:20Z</time>
      </trkpt>
      <trkpt lat="47.90917" lon="1.89009">
        <ele>115.4</ele>
        <time>2020-07-02T15:33:21Z</time>
      </trkpt>
      <trkpt lat="47.90917" lon="1.89011">
        <ele>115.3</ele>
        <time>2020-07-02T15:33:22Z</time>
      </trkpt>
      <trkpt lat="47.90918" lon="1.89013">
        <ele>115.3</ele>
        <time>2020-07-02T15:33:23Z</time>
      </trkpt>
      <trkpt lat="47.90918" lon="1.89016">
        <ele>115.3</ele>
        <time>2020-07-02T15:33:24Z</time>
      </trkpt>
      <trkpt lat="47.90917" lon="1.89019">
        <ele>115.2</ele>
        <time>2020-07-02T15:33:25Z</time>
      </trkpt>
      <trkpt lat="47.90917" lon="1.8902">
        <ele>115.2</ele>
        <time>2020-07-02T15:33:26Z</time>
      </trkpt>
      <trkpt lat="47.90917" lon="1.89021">
        <ele>115.2</ele>
        <time>2020-07-02T15:33:27Z</time>
      </trkpt>
      <trkpt lat="47.90917" lon="1.89023">
        <ele>115.2</ele>
        <time>2020-07-02T15:33:28Z</time>
      </trkpt>
      <trkpt lat="47.90917" lon="1.89026">
        <ele>115.2</ele>
        <time>2020-07-02T15:33:29Z</time>
      </trkpt>
      <trkpt lat="47.90916" lon="1.89029">
        <ele>115.1</ele>
        <time>2020-07-02T15:33:30Z</time>
      </trkpt>
      <trkpt lat="47.90915" lon="1.89031">
        <ele>115.1</ele>
        <time>2020-07-02T15:33:31Z</time>
      </trkpt>
      <trkpt lat="47.90915" lon="1.89033">
        <ele>115.1</ele>
        <time>2020-07-02T15:33:32Z</time>
      </trkpt>
      <trkpt lat="47.90915" lon="1.89036">
        <ele>115</ele>
        <time>2020-07-02T15:33:33Z</time>
      </trkpt>
      <trkpt lat="47.90915" lon="1.89039">
        <ele>115</ele>
        <time>2020-07-02T15:33:34Z</time>
      </trkpt>
      <trkpt lat="47.90915" lon="1.89041">
        <ele>115</ele>
        <time>2020-07-02T15:33:35Z</time>
      </trkpt>
      <trkpt lat="47.90915" lon="1.89043">
        <ele>114.9</ele>
        <time>2020-07-02T15:33:36Z</time>
      </trkpt>
      <trkpt lat="47.90914" lon="1.89045">
        <ele>114.9</ele>
        <time>2020-07-02T15:33:37Z</time>
      </trkpt>
      <trkpt lat="47.90913" lon="1.89048">
        <ele>114.9</ele>
        <time>2020-07-02T15:33:38Z</time>
      </trkpt>
      <trkpt lat="47.90913" lon="1.89049">
        <ele>114.9</ele>
        <time>2020-07-02T15:33:39Z</time>
      </trkpt>
      <trkpt lat="47.90912" lon="1.8905">
        <ele>114.8</ele>
        <time>2020-07-02T15:33:40Z</time>
      </trkpt>
      <trkpt lat="47.90911" lon="1.89052">
        <ele>114.8</ele>
        <time>2020-07-02T15:33:41Z</time>
      </trkpt>
      <trkpt lat="47.90911" lon="1.89055">
        <ele>114.8</ele>
        <time>2020-07-02T15:33:42Z</time>
      </trkpt>
      <trkpt lat="47.90912" lon="1.89056">
        <ele>114.8</ele>
        <time>2020-07-02T15:33:43Z</time>
      </trkpt>
      <trkpt lat="47.90911" lon="1.89057">
        <ele>114.8</ele>
        <time>2020-07-02T15:33:44Z</time>
      </trkpt>
      <trkpt lat="47.90911" lon="1.89057">
        <ele>114.8</ele>
        <time>2020-07-02T15:33:45Z</time>
      </trkpt>
      <trkpt lat="47.90911" lon="1.89058">
        <ele>114.7</ele>
        <time>2020-07-02T15:33:46Z</time>
      </trkpt>
      <trkpt lat="47.90911" lon="1.89058">
        <ele>114.7</ele>
        <time>2020-07-02T15:33:47Z</time>
      </trkpt>
      <trkpt lat="47.9091" lon="1.89059">
        <ele>114.7</ele>
        <time>2020-07-02T15:33:48Z</time>
      </trkpt>
      <trkpt lat="47.9091" lon="1.8906">
        <ele>114.7</ele>
        <time>2020-07-02T15:33:49Z</time>
      </trkpt>
      <trkpt lat="47.9091" lon="1.8906">
        <ele>114.7</ele>
        <time>2020-07-02T15:33:50Z</time>
      </trkpt>
      <trkpt lat="47.9091" lon="1.89061">
        <ele>114.7</ele>
        <time>2020-07-02T15:33:51Z</time>
      </trkpt>
      <trkpt lat="47.90909" lon="1.89062">
        <ele>114.7</ele>
        <time>2020-07-02T15:33:52Z</time>
      </trkpt>
      <trkpt lat="47.90909" lon="1.89062">
        <ele>114.7</ele>
        <time>2020-07-02T15:33:53Z</time>
      </trkpt>
      <trkpt lat="47.90909" lon="1.89063">
        <ele>114.7</ele>
        <time>2020-07-02T15:33:54Z</time>
      </trkpt>
      <trkpt lat="47.90908" lon="1.89063">
        <ele>114.7</ele>
        <time>2020-07-02T15:33:55Z</time>
      </trkpt>
      <trkpt lat="47.90908" lon="1.89064">
        <ele>114.7</ele>
        <time>2020-07-02T15:33:56Z</time>
      </trkpt>
      <trkpt lat="47.90908" lon="1.89065">
        <ele>114.7</ele>
        <time>2020-07-02T15:33:57Z</time>
      </trkpt>
      <trkpt lat="47.90908" lon="1.89065">
        <ele>114.7</ele>
        <time>2020-07-02T15:33:58Z</time>
      </trkpt>
      <trkpt lat="47.90907" lon="1.89066">
        <ele>114.7</ele>
        <time>2020-07-02T15:33:59Z</time>
      </trkpt>
      <trkpt lat="47.90907" lon="1.89066">
        <ele>114.6</ele>
        <time>2020-07-02T15:34:35Z</time>
      </trkpt>
      <trkpt lat="47.90907" lon="1.89067">
        <ele>114.6</ele>
        <time>2020-07-02T15:34:36Z</time>
      </trkpt>
      <trkpt lat="47.90907" lon="1.89068">
        <ele>114.6</ele>
        <time>2020-07-02T15:34:37Z</time>
      </trkpt>
      <trkpt lat="47.90905" lon="1.89073">
        <ele>114.6</ele>
        <time>2020-07-02T15:34:38Z</time>
      </trkpt>
      <trkpt lat="47.90903" lon="1.89077">
        <ele>114.5</ele>
        <time>2020-07-02T15:34:39Z</time>
      </trkpt>
      <trkpt lat="47.90901" lon="1.89082">
        <ele>114.5</ele>
        <time>2020-07-02T15:34:40Z</time>
      </trkpt>
      <trkpt lat="47.90899" lon="1.89087">
        <ele>114.5</ele>
        <time>2020-07-02T15:34:41Z</time>
      </trkpt>
      <trkpt lat="47.90897" lon="1.89092">
        <ele>114.5</ele>
        <time>2020-07-02T15:34:42Z</time>
      </trkpt>
      <trkpt lat="47.90895" lon="1.89096">
        <ele>114.4</ele>
        <time>2020-07-02T15:34:43Z</time>
      </trkpt>
      <trkpt lat="47.90893" lon="1.89101">
        <ele>114.4</ele>
        <time>2020-07-02T15:34:44Z</time>
      </trkpt>
      <trkpt lat="47.90892" lon="1.89105">
        <ele>114.4</ele>
        <time>2020-07-02T15:34:45Z</time>
      </trkpt>
      <trkpt lat="47.9089" lon="1.8911">
        <ele>114.4</ele>
        <time>2020-07-02T15:34:46Z</time>
      </trkpt>
      <trkpt lat="47.90888" lon="1.89114">
        <ele>114.4</ele>
        <time>2020-07-02T15:34:47Z</time>
      </trkpt>
      <trkpt lat="47.90886" lon="1.89118">
        <ele>114.3</ele>
        <time>2020-07-02T15:34:48Z</time>
      </trkpt>
      <trkpt lat="47.90885" lon="1.89122">
        <ele>114.3</ele>
        <time>2020-07-02T15:34:49Z</time>
      </trkpt>
      <trkpt lat="47.90883" lon="1.89126">
        <ele>114.3</ele>
        <time>2020-07-02T15:34:50Z</time>
      </trkpt>
      <trkpt lat="47.9088" lon="1.89129">
        <ele>114.3</ele>
        <time>2020-07-02T15:34:51Z</time>
      </trkpt>
      <trkpt lat="47.90878" lon="1.89134">
        <ele>114.3</ele>
        <time>2020-07-02T15:34:52Z</time>
      </trkpt>
      <trkpt lat="47.90876" lon="1.8914">
        <ele>114.2</ele>
        <time>2020-07-02T15:34:53Z</time>
      </trkpt>
      <trkpt lat="47.90875" lon="1.89145">
        <ele>114.2</ele>
        <time>2020-07-02T15:34:54Z</time>
      </trkpt>
      <trkpt lat="47.90873" lon="1.8915">
        <ele>114.2</ele>
        <time>2020-07-02T15:34:55Z</time>
      </trkpt>
      <trkpt lat="47.90871" lon="1.89155">
        <ele>114.1</ele>
        <time>2020-07-02T15:34:56Z</time>
      </trkpt>
      <trkpt lat="47.90871" lon="1.89156">
        <ele>114.1</ele>
        <time>2020-07-02T15:34:57Z</time>
      </trkpt>
      <trkpt lat="47.90869" lon="1.8916">
        <ele>114.1</ele>
        <time>2020-07-02T15:34:58Z</time>
      </trkpt>
      <trkpt lat="47.90868" lon="1.89162">
        <ele>114.1</ele>
        <time>2020-07-02T15:34:59Z</time>
      </trkpt>
      <trkpt lat="47.90867" lon="1.89164">
        <ele>114.1</ele>
        <time>2020-07-02T15:35:00Z</time>
      </trkpt>
      <trkpt lat="47.90867" lon="1.89164">
        <ele>114</ele>
        <time>2020-07-02T15:35:01Z</time>
      </trkpt>
      <trkpt lat="47.90866" lon="1.89165">
        <ele>114</ele>
        <time>2020-07-02T15:35:02Z</time>
      </trkpt>
      <trkpt lat="47.90865" lon="1.89167">
        <ele>113.9</ele>
        <time>2020-07-02T15:35:03Z</time>
      </trkpt>
      <trkpt lat="47.90864" lon="1.89169">
        <ele>113.8</ele>
        <time>2020-07-02T15:35:04Z</time>
      </trkpt>
      <trkpt lat="47.90863" lon="1.8917">
        <ele>113.8</ele>
        <time>2020-07-02T15:35:05Z</time>
      </trkpt>
      <trkpt lat="47.90863" lon="1.89172">
        <ele>113.8</ele>
        <time>2020-07-02T15:35:06Z</time>
      </trkpt>
      <trkpt lat="47.90861" lon="1.89175">
        <ele>113.7</ele>
        <time>2020-07-02T15:35:07Z</time>
      </trkpt>
      <trkpt lat="47.90859" lon="1.89178">
        <ele>113.6</ele>
        <time>2020-07-02T15:35:08Z</time>
      </trkpt>
      <trkpt lat="47.90857" lon="1.89183">
        <ele>113.6</ele>
        <time>2020-07-02T15:35:09Z</time>
      </trkpt>
      <trkpt lat="47.90855" lon="1.89189">
        <ele>113.6</ele>
        <time>2020-07-02T15:35:10Z</time>
      </trkpt>
      <trkpt lat="47.90854" lon="1.89193">
        <ele>113.4</ele>
        <time>2020-07-02T15:35:11Z</time>
      </trkpt>
      <trkpt lat="47.90852" lon="1.89197">
        <ele>113.3</ele>
        <time>2020-07-02T15:35:12Z</time>
      </trkpt>
      <trkpt lat="47.90849" lon="1.89201">
        <ele>113.1</ele>
        <time>2020-07-02T15:35:13Z</time>
      </trkpt>
      <trkpt lat="47.90847" lon="1.89206">
        <ele>112.9</ele>
        <time>2020-07-02T15:35:14Z</time>
      </trkpt>
      <trkpt lat="47.90845" lon="1.89212">
        <ele>112.7</ele>
        <time>2020-07-02T15:35:15Z</time>
      </trkpt>
      <trkpt lat="47.90842" lon="1.89217">
        <ele>112.5</ele>
        <time>2020-07-02T15:35:16Z</time>
      </trkpt>
      <trkpt lat="47.90841" lon="1.89222">
        <ele>112.4</ele>
        <time>2020-07-02T15:35:17Z</time>
      </trkpt>
      <trkpt lat="47.9084" lon="1.89226">
        <ele>112.3</ele>
        <time>2020-07-02T15:35:18Z</time>
      </trkpt>
      <trkpt lat="47.90839" lon="1.89231">
        <ele>112.2</ele>
        <time>2020-07-02T15:35:19Z</time>
      </trkpt>
      <trkpt lat="47.90839" lon="1.89236">
        <ele>112.2</ele>
        <time>2020-07-02T15:35:20Z</time>
      </trkpt>
      <trkpt lat="47.90837" lon="1.8924">
        <ele>112.1</ele>
        <time>2020-07-02T15:35:21Z</time>
      </trkpt>
      <trkpt lat="47.90835" lon="1.89243">
        <ele>112</ele>
        <time>2020-07-02T15:35:22Z</time>
      </trkpt>
      <trkpt lat="47.90832" lon="1.89246">
        <ele>112</ele>
        <time>2020-07-02T15:35:23Z</time>
      </trkpt>
      <trkpt lat="47.90829" lon="1.89245">
        <ele>112</ele>
        <time>2020-07-02T15:35:24Z</time>
      </trkpt>
      <trkpt lat="47.90825" lon="1.89243">
        <ele>112</ele>
        <time>2020-07-02T15:35:25Z</time>
      </trkpt>
      <trkpt lat="47.90821" lon="1.89242">
        <ele>112</ele>
        <time>2020-07-02T15:35:26Z</time>
      </trkpt>
      <trkpt lat="47.90817" lon="1.8924">
        <ele>112</ele>
        <time>2020-07-02T15:35:27Z</time>
      </trkpt>
      <trkpt lat="47.90813" lon="1.89237">
        <ele>112</ele>
        <time>2020-07-02T15:35:28Z</time>
      </trkpt>
      <trkpt lat="47.90809" lon="1.89234">
        <ele>112</ele>
        <time>2020-07-02T15:35:29Z</time>
      </trkpt>
      <trkpt lat="47.90804" lon="1.89231">
        <ele>112</ele>
        <time>2020-07-02T15:35:30Z</time>
      </trkpt>
      <trkpt lat="47.908" lon="1.89229">
        <ele>112.1</ele>
        <time>2020-07-02T15:35:31Z</time>
      </trkpt>
      <trkpt lat="47.90796" lon="1.89227">
        <ele>112.1</ele>
        <time>2020-07-02T15:35:32Z</time>
      </trkpt>
      <trkpt lat="47.90793" lon="1.89225">
        <ele>112.1</ele>
        <time>2020-07-02T15:35:33Z</time>
      </trkpt>
      <trkpt lat="47.90789" lon="1.89223">
        <ele>112.1</ele>
        <time>2020-07-02T15:35:34Z</time>
      </trkpt>
      <trkpt lat="47.90784" lon="1.89221">
        <ele>112</ele>
        <time>2020-07-02T15:35:35Z</time>
      </trkpt>
      <trkpt lat="47.9078" lon="1.89219">
        <ele>112</ele>
        <time>2020-07-02T15:35:36Z</time>
      </trkpt>
      <trkpt lat="47.90776" lon="1.89218">
        <ele>112</ele>
        <time>2020-07-02T15:35:37Z</time>
      </trkpt>
      <trkpt lat="47.90771" lon="1.89216">
        <ele>112</ele>
        <time>2020-07-02T15:35:38Z</time>
      </trkpt>
      <trkpt lat="47.90765" lon="1.89215">
        <ele>112</ele>
        <time>2020-07-02T15:35:39Z</time>
      </trkpt>
      <trkpt lat="47.9076" lon="1.89214">
        <ele>111.9</ele>
        <time>2020-07-02T15:35:40Z</time>
      </trkpt>
      <trkpt lat="47.90755" lon="1.89212">
        <ele>111.9</ele>
        <time>2020-07-02T15:35:41Z</time>
      </trkpt>
      <trkpt lat="47.9075" lon="1.8921">
        <ele>111.8</ele>
        <time>2020-07-02T15:35:42Z</time>
      </trkpt>
      <trkpt lat="47.90744" lon="1.89206">
        <ele>111.8</ele>
        <time>2020-07-02T15:35:43Z</time>
      </trkpt>
      <trkpt lat="47.90739" lon="1.89204">
        <ele>111.7</ele>
        <time>2020-07-02T15:35:44Z</time>
      </trkpt>
      <trkpt lat="47.90734" lon="1.89201">
        <ele>111.7</ele>
        <time>2020-07-02T15:35:45Z</time>
      </trkpt>
      <trkpt lat="47.9073" lon="1.892">
        <ele>111.7</ele>
        <time>2020-07-02T15:35:46Z</time>
      </trkpt>
      <trkpt lat="47.90726" lon="1.89199">
        <ele>111.7</ele>
        <time>2020-07-02T15:35:47Z</time>
      </trkpt>
      <trkpt lat="47.90723" lon="1.89198">
        <ele>111.7</ele>
        <time>2020-07-02T15:35:48Z</time>
      </trkpt>
      <trkpt lat="47.90719" lon="1.89197">
        <ele>111.7</ele>
        <time>2020-07-02T15:35:49Z</time>
      </trkpt>
      <trkpt lat="47.90718" lon="1.89196">
        <ele>111.7</ele>
        <time>2020-07-02T15:35:50Z</time>
      </trkpt>
      <trkpt lat="47.90716" lon="1.89195">
        <ele>111.8</ele>
        <time>2020-07-02T15:35:51Z</time>
      </trkpt>
      <trkpt lat="47.90715" lon="1.89197">
        <ele>111.8</ele>
        <time>2020-07-02T15:35:52Z</time>
      </trkpt>
      <trkpt lat="47.90711" lon="1.89201">
        <ele>111.3</ele>
        <time>2020-07-02T15:35:53Z</time>
      </trkpt>
      <trkpt lat="47.9071" lon="1.89202">
        <ele>111.2</ele>
        <time>2020-07-02T15:35:54Z</time>
      </trkpt>
      <trkpt lat="47.90707" lon="1.89207">
        <ele>111.1</ele>
        <time>2020-07-02T15:35:55Z</time>
      </trkpt>
      <trkpt lat="47.90704" lon="1.89214">
        <ele>111</ele>
        <time>2020-07-02T15:35:56Z</time>
      </trkpt>
      <trkpt lat="47.90701" lon="1.8922">
        <ele>110.9</ele>
        <time>2020-07-02T15:35:57Z</time>
      </trkpt>
      <trkpt lat="47.90699" lon="1.89227">
        <ele>110.7</ele>
        <time>2020-07-02T15:35:58Z</time>
      </trkpt>
      <trkpt lat="47.90697" lon="1.89235">
        <ele>110.5</ele>
        <time>2020-07-02T15:35:59Z</time>
      </trkpt>
      <trkpt lat="47.90694" lon="1.89243">
        <ele>110.3</ele>
        <time>2020-07-02T15:36:00Z</time>
      </trkpt>
      <trkpt lat="47.9069" lon="1.89252">
        <ele>110.2</ele>
        <time>2020-07-02T15:36:01Z</time>
      </trkpt>
      <trkpt lat="47.90686" lon="1.89259">
        <ele>110.1</ele>
        <time>2020-07-02T15:36:02Z</time>
      </trkpt>
      <trkpt lat="47.90684" lon="1.89266">
        <ele>110</ele>
        <time>2020-07-02T15:36:03Z</time>
      </trkpt>
      <trkpt lat="47.9068" lon="1.89271">
        <ele>109.9</ele>
        <time>2020-07-02T15:36:04Z</time>
      </trkpt>
      <trkpt lat="47.90678" lon="1.89277">
        <ele>109.8</ele>
        <time>2020-07-02T15:36:05Z</time>
      </trkpt>
      <trkpt lat="47.90676" lon="1.89281">
        <ele>109.7</ele>
        <time>2020-07-02T15:36:06Z</time>
      </trkpt>
      <trkpt lat="47.90674" lon="1.89285">
        <ele>109.2</ele>
        <time>2020-07-02T15:36:07Z</time>
      </trkpt>
      <trkpt lat="47.90673" lon="1.89286">
        <ele>109.2</ele>
        <time>2020-07-02T15:36:08Z</time>
      </trkpt>
      <trkpt lat="47.9067" lon="1.89284">
        <ele>109.2</ele>
        <time>2020-07-02T15:36:09Z</time>
      </trkpt>
      <trkpt lat="47.90668" lon="1.89283">
        <ele>109.2</ele>
        <time>2020-07-02T15:36:10Z</time>
      </trkpt>
      <trkpt lat="47.90663" lon="1.89278">
        <ele>109.2</ele>
        <time>2020-07-02T15:36:11Z</time>
      </trkpt>
      <trkpt lat="47.90657" lon="1.89273">
        <ele>109.2</ele>
        <time>2020-07-02T15:36:12Z</time>
      </trkpt>
      <trkpt lat="47.90651" lon="1.89269">
        <ele>109.1</ele>
        <time>2020-07-02T15:36:13Z</time>
      </trkpt>
      <trkpt lat="47.90646" lon="1.89265">
        <ele>109.1</ele>
        <time>2020-07-02T15:36:14Z</time>
      </trkpt>
      <trkpt lat="47.90641" lon="1.8926">
        <ele>109.1</ele>
        <time>2020-07-02T15:36:15Z</time>
      </trkpt>
      <trkpt lat="47.90636" lon="1.89256">
        <ele>109</ele>
        <time>2020-07-02T15:36:16Z</time>
      </trkpt>
      <trkpt lat="47.90631" lon="1.89252">
        <ele>109</ele>
        <time>2020-07-02T15:36:17Z</time>
      </trkpt>
      <trkpt lat="47.90624" lon="1.89249">
        <ele>108.9</ele>
        <time>2020-07-02T15:36:18Z</time>
      </trkpt>
      <trkpt lat="47.90618" lon="1.89245">
        <ele>108.9</ele>
        <time>2020-07-02T15:36:19Z</time>
      </trkpt>
      <trkpt lat="47.90612" lon="1.89241">
        <ele>108.9</ele>
        <time>2020-07-02T15:36:20Z</time>
      </trkpt>
      <trkpt lat="47.90606" lon="1.89237">
        <ele>108.9</ele>
        <time>2020-07-02T15:36:21Z</time>
      </trkpt>
      <trkpt lat="47.90601" lon="1.89233">
        <ele>108.9</ele>
        <time>2020-07-02T15:36:22Z</time>
      </trkpt>
      <trkpt lat="47.90595" lon="1.89229">
        <ele>108.9</ele>
        <time>2020-07-02T15:36:23Z</time>
      </trkpt>
      <trkpt lat="47.9059" lon="1.89225">
        <ele>109</ele>
        <time>2020-07-02T15:36:24Z</time>
      </trkpt>
      <trkpt lat="47.90585" lon="1.89221">
        <ele>109</ele>
        <time>2020-07-02T15:36:25Z</time>
      </trkpt>
      <trkpt lat="47.9058" lon="1.89218">
        <ele>109</ele>
        <time>2020-07-02T15:36:26Z</time>
      </trkpt>
      <trkpt lat="47.90577" lon="1.89215">
        <ele>109</ele>
        <time>2020-07-02T15:36:27Z</time>
      </trkpt>
      <trkpt lat="47.90572" lon="1.89212">
        <ele>109</ele>
        <time>2020-07-02T15:36:28Z</time>
      </trkpt>
      <trkpt lat="47.90569" lon="1.89209">
        <ele>109</ele>
        <time>2020-07-02T15:36:29Z</time>
      </trkpt>
      <trkpt lat="47.90566" lon="1.89206">
        <ele>109</ele>
        <time>2020-07-02T15:36:30Z</time>
      </trkpt>
      <trkpt lat="47.90563" lon="1.89204">
        <ele>109</ele>
        <time>2020-07-02T15:36:31Z</time>
      </trkpt>
      <trkpt lat="47.90559" lon="1.89201">
        <ele>109.1</ele>
        <time>2020-07-02T15:36:32Z</time>
      </trkpt>
      <trkpt lat="47.90558" lon="1.89201">
        <ele>109</ele>
        <time>2020-07-02T15:36:33Z</time>
      </trkpt>
      <trkpt lat="47.90555" lon="1.89199">
        <ele>109</ele>
        <time>2020-07-02T15:36:34Z</time>
      </trkpt>
      <trkpt lat="47.90554" lon="1.892">
        <ele>109</ele>
        <time>2020-07-02T15:36:35Z</time>
      </trkpt>
      <trkpt lat="47.90552" lon="1.89201">
        <ele>109</ele>
        <time>2020-07-02T15:36:36Z</time>
      </trkpt>
      <trkpt lat="47.90551" lon="1.89204">
        <ele>109</ele>
        <time>2020-07-02T15:36:37Z</time>
      </trkpt>
      <trkpt lat="47.9055" lon="1.89203">
        <ele>109</ele>
        <time>2020-07-02T15:36:38Z</time>
      </trkpt>
      <trkpt lat="47.9055" lon="1.89203">
        <ele>108.9</ele>
        <time>2020-07-02T15:36:39Z</time>
      </trkpt>
      <trkpt lat="47.90548" lon="1.89205">
        <ele>108.8</ele>
        <time>2020-07-02T15:36:40Z</time>
      </trkpt>
      <trkpt lat="47.90548" lon="1.89204">
        <ele>108.8</ele>
        <time>2020-07-02T15:36:41Z</time>
      </trkpt>
      <trkpt lat="47.90547" lon="1.89203">
        <ele>108.8</ele>
        <time>2020-07-02T15:36:42Z</time>
      </trkpt>
      <trkpt lat="47.90547" lon="1.89202">
        <ele>108.8</ele>
        <time>2020-07-02T15:36:43Z</time>
      </trkpt>
      <trkpt lat="47.90546" lon="1.89201">
        <ele>108.8</ele>
        <time>2020-07-02T15:36:44Z</time>
      </trkpt>
      <trkpt lat="47.90545" lon="1.892">
        <ele>108.8</ele>
        <time>2020-07-02T15:36:45Z</time>
      </trkpt>
      <trkpt lat="47.90544" lon="1.89199">
        <ele>108.8</ele>
        <time>2020-07-02T15:36:46Z</time>
      </trkpt>
      <trkpt lat="47.90541" lon="1.89201">
        <ele>108.8</ele>
        <time>2020-07-02T15:36:47Z</time>
      </trkpt>
      <trkpt lat="47.90538" lon="1.89205">
        <ele>108.7</ele>
        <time>2020-07-02T15:36:48Z</time>
      </trkpt>
      <trkpt lat="47.90534" lon="1.89209">
        <ele>108.6</ele>
        <time>2020-07-02T15:36:49Z</time>
      </trkpt>
      <trkpt lat="47.9053" lon="1.89214">
        <ele>108.5</ele>
        <time>2020-07-02T15:36:50Z</time>
      </trkpt>
      <trkpt lat="47.90527" lon="1.89221">
        <ele>108.4</ele>
        <time>2020-07-02T15:36:51Z</time>
      </trkpt>
      <trkpt lat="47.90524" lon="1.89228">
        <ele>108.3</ele>
        <time>2020-07-02T15:36:52Z</time>
      </trkpt>
      <trkpt lat="47.9052" lon="1.89234">
        <ele>108.2</ele>
        <time>2020-07-02T15:36:53Z</time>
      </trkpt>
      <trkpt lat="47.90517" lon="1.89241">
        <ele>108.1</ele>
        <time>2020-07-02T15:36:54Z</time>
      </trkpt>
      <trkpt lat="47.90513" lon="1.89247">
        <ele>108.1</ele>
        <time>2020-07-02T15:36:55Z</time>
      </trkpt>
      <trkpt lat="47.90509" lon="1.89252">
        <ele>108.1</ele>
        <time>2020-07-02T15:36:56Z</time>
      </trkpt>
      <trkpt lat="47.90508" lon="1.89256">
        <ele>108.1</ele>
        <time>2020-07-02T15:36:57Z</time>
      </trkpt>
      <trkpt lat="47.90505" lon="1.8926">
        <ele>108.2</ele>
        <time>2020-07-02T15:36:58Z</time>
      </trkpt>
      <trkpt lat="47.905" lon="1.89267">
        <ele>108.2</ele>
        <time>2020-07-02T15:36:59Z</time>
      </trkpt>
      <trkpt lat="47.90496" lon="1.89273">
        <ele>108.3</ele>
        <time>2020-07-02T15:37:00Z</time>
      </trkpt>
      <trkpt lat="47.90493" lon="1.8928">
        <ele>108.3</ele>
        <time>2020-07-02T15:37:01Z</time>
      </trkpt>
      <trkpt lat="47.90489" lon="1.89287">
        <ele>108.4</ele>
        <time>2020-07-02T15:37:02Z</time>
      </trkpt>
      <trkpt lat="47.90485" lon="1.89295">
        <ele>108.6</ele>
        <time>2020-07-02T15:37:03Z</time>
      </trkpt>
      <trkpt lat="47.90481" lon="1.89304">
        <ele>108.7</ele>
        <time>2020-07-02T15:37:04Z</time>
      </trkpt>
      <trkpt lat="47.90478" lon="1.89311">
        <ele>108.9</ele>
        <time>2020-07-02T15:37:05Z</time>
      </trkpt>
      <trkpt lat="47.90476" lon="1.89317">
        <ele>109</ele>
        <time>2020-07-02T15:37:06Z</time>
      </trkpt>
      <trkpt lat="47.90473" lon="1.89324">
        <ele>109.1</ele>
        <time>2020-07-02T15:37:07Z</time>
      </trkpt>
      <trkpt lat="47.90469" lon="1.8933">
        <ele>109.3</ele>
        <time>2020-07-02T15:37:08Z</time>
      </trkpt>
      <trkpt lat="47.90466" lon="1.89334">
        <ele>109.4</ele>
        <time>2020-07-02T15:37:09Z</time>
      </trkpt>
      <trkpt lat="47.90462" lon="1.89339">
        <ele>109.5</ele>
        <time>2020-07-02T15:37:10Z</time>
      </trkpt>
      <trkpt lat="47.90459" lon="1.89345">
        <ele>109.6</ele>
        <time>2020-07-02T15:37:11Z</time>
      </trkpt>
      <trkpt lat="47.90456" lon="1.8935">
        <ele>109.6</ele>
        <time>2020-07-02T15:37:12Z</time>
      </trkpt>
      <trkpt lat="47.90452" lon="1.89356">
        <ele>109.6</ele>
        <time>2020-07-02T15:37:13Z</time>
      </trkpt>
      <trkpt lat="47.90449" lon="1.8936">
        <ele>109.6</ele>
        <time>2020-07-02T15:37:14Z</time>
      </trkpt>
      <trkpt lat="47.90446" lon="1.89365">
        <ele>109.7</ele>
        <time>2020-07-02T15:37:15Z</time>
      </trkpt>
      <trkpt lat="47.90443" lon="1.8937">
        <ele>109.7</ele>
        <time>2020-07-02T15:37:16Z</time>
      </trkpt>
      <trkpt lat="47.90442" lon="1.89372">
        <ele>109.8</ele>
        <time>2020-07-02T15:37:17Z</time>
      </trkpt>
      <trkpt lat="47.90439" lon="1.89376">
        <ele>109.8</ele>
        <time>2020-07-02T15:37:18Z</time>
      </trkpt>
      <trkpt lat="47.90437" lon="1.89381">
        <ele>110</ele>
        <time>2020-07-02T15:37:19Z</time>
      </trkpt>
      <trkpt lat="47.90434" lon="1.89386">
        <ele>110.1</ele>
        <time>2020-07-02T15:37:20Z</time>
      </trkpt>
      <trkpt lat="47.90431" lon="1.8939">
        <ele>110.3</ele>
        <time>2020-07-02T15:37:21Z</time>
      </trkpt>
      <trkpt lat="47.90429" lon="1.89394">
        <ele>110.4</ele>
        <time>2020-07-02T15:37:22Z</time>
      </trkpt>
      <trkpt lat="47.90426" lon="1.89397">
        <ele>110.5</ele>
        <time>2020-07-02T15:37:23Z</time>
      </trkpt>
      <trkpt lat="47.90422" lon="1.894">
        <ele>110.6</ele>
        <time>2020-07-02T15:37:24Z</time>
      </trkpt>
      <trkpt lat="47.90419" lon="1.89404">
        <ele>110.7</ele>
        <time>2020-07-02T15:37:25Z</time>
      </trkpt>
      <trkpt lat="47.90416" lon="1.89409">
        <ele>110.9</ele>
        <time>2020-07-02T15:37:26Z</time>
      </trkpt>
      <trkpt lat="47.90413" lon="1.89414">
        <ele>111</ele>
        <time>2020-07-02T15:37:27Z</time>
      </trkpt>
      <trkpt lat="47.90411" lon="1.89419">
        <ele>111.1</ele>
        <time>2020-07-02T15:37:28Z</time>
      </trkpt>
      <trkpt lat="47.90408" lon="1.89423">
        <ele>111.2</ele>
        <time>2020-07-02T15:37:29Z</time>
      </trkpt>
      <trkpt lat="47.90405" lon="1.89428">
        <ele>111.4</ele>
        <time>2020-07-02T15:37:30Z</time>
      </trkpt>
      <trkpt lat="47.90403" lon="1.89433">
        <ele>111.5</ele>
        <time>2020-07-02T15:37:31Z</time>
      </trkpt>
      <trkpt lat="47.904" lon="1.89439">
        <ele>111.6</ele>
        <time>2020-07-02T15:37:32Z</time>
      </trkpt>
      <trkpt lat="47.90397" lon="1.89444">
        <ele>111.7</ele>
        <time>2020-07-02T15:37:33Z</time>
      </trkpt>
      <trkpt lat="47.90394" lon="1.89451">
        <ele>111.8</ele>
        <time>2020-07-02T15:37:34Z</time>
      </trkpt>
      <trkpt lat="47.90392" lon="1.89456">
        <ele>111.9</ele>
        <time>2020-07-02T15:37:35Z</time>
      </trkpt>
      <trkpt lat="47.90388" lon="1.89461">
        <ele>112</ele>
        <time>2020-07-02T15:37:36Z</time>
      </trkpt>
      <trkpt lat="47.90384" lon="1.89465">
        <ele>112.1</ele>
        <time>2020-07-02T15:37:37Z</time>
      </trkpt>
      <trkpt lat="47.9038" lon="1.8947">
        <ele>112.3</ele>
        <time>2020-07-02T15:37:38Z</time>
      </trkpt>
      <trkpt lat="47.90377" lon="1.89476">
        <ele>112.3</ele>
        <time>2020-07-02T15:37:39Z</time>
      </trkpt>
      <trkpt lat="47.90373" lon="1.89482">
        <ele>112.4</ele>
        <time>2020-07-02T15:37:40Z</time>
      </trkpt>
      <trkpt lat="47.9037" lon="1.89487">
        <ele>112.4</ele>
        <time>2020-07-02T15:37:41Z</time>
      </trkpt>
      <trkpt lat="47.90367" lon="1.89491">
        <ele>112.5</ele>
        <time>2020-07-02T15:37:42Z</time>
      </trkpt>
      <trkpt lat="47.90363" lon="1.89496">
        <ele>112.6</ele>
        <time>2020-07-02T15:37:43Z</time>
      </trkpt>
      <trkpt lat="47.90359" lon="1.89501">
        <ele>112.7</ele>
        <time>2020-07-02T15:37:44Z</time>
      </trkpt>
      <trkpt lat="47.90356" lon="1.89506">
        <ele>112.9</ele>
        <time>2020-07-02T15:37:45Z</time>
      </trkpt>
      <trkpt lat="47.90353" lon="1.89511">
        <ele>113</ele>
        <time>2020-07-02T15:37:46Z</time>
      </trkpt>
      <trkpt lat="47.90351" lon="1.89517">
        <ele>113.3</ele>
        <time>2020-07-02T15:37:47Z</time>
      </trkpt>
      <trkpt lat="47.90348" lon="1.89522">
        <ele>113.3</ele>
        <time>2020-07-02T15:37:48Z</time>
      </trkpt>
      <trkpt lat="47.90346" lon="1.89528">
        <ele>113.3</ele>
        <time>2020-07-02T15:37:49Z</time>
      </trkpt>
      <trkpt lat="47.90342" lon="1.89534">
        <ele>113.3</ele>
        <time>2020-07-02T15:37:50Z</time>
      </trkpt>
      <trkpt lat="47.90338" lon="1.89538">
        <ele>113.3</ele>
        <time>2020-07-02T15:37:51Z</time>
      </trkpt>
      <trkpt lat="47.90334" lon="1.89543">
        <ele>113.3</ele>
        <time>2020-07-02T15:37:52Z</time>
      </trkpt>
      <trkpt lat="47.9033" lon="1.89549">
        <ele>113.3</ele>
        <time>2020-07-02T15:37:53Z</time>
      </trkpt>
      <trkpt lat="47.90327" lon="1.89554">
        <ele>113.3</ele>
        <time>2020-07-02T15:37:54Z</time>
      </trkpt>
      <trkpt lat="47.90323" lon="1.89559">
        <ele>113.3</ele>
        <time>2020-07-02T15:37:55Z</time>
      </trkpt>
      <trkpt lat="47.90319" lon="1.89566">
        <ele>113.4</ele>
        <time>2020-07-02T15:37:56Z</time>
      </trkpt>
      <trkpt lat="47.90315" lon="1.89571">
        <ele>113.5</ele>
        <time>2020-07-02T15:37:57Z</time>
      </trkpt>
      <trkpt lat="47.90311" lon="1.89576">
        <ele>113.6</ele>
        <time>2020-07-02T15:37:58Z</time>
      </trkpt>
      <trkpt lat="47.90306" lon="1.89581">
        <ele>113.7</ele>
        <time>2020-07-02T15:37:59Z</time>
      </trkpt>
      <trkpt lat="47.90302" lon="1.89586">
        <ele>113.8</ele>
        <time>2020-07-02T15:38:00Z</time>
      </trkpt>
      <trkpt lat="47.90298" lon="1.89592">
        <ele>113.8</ele>
        <time>2020-07-02T15:38:01Z</time>
      </trkpt>
      <trkpt lat="47.90295" lon="1.89599">
        <ele>113.7</ele>
        <time>2020-07-02T15:38:02Z</time>
      </trkpt>
      <trkpt lat="47.90291" lon="1.89605">
        <ele>113.7</ele>
        <time>2020-07-02T15:38:03Z</time>
      </trkpt>
      <trkpt lat="47.90288" lon="1.89611">
        <ele>113.6</ele>
        <time>2020-07-02T15:38:04Z</time>
      </trkpt>
      <trkpt lat="47.90284" lon="1.89616">
        <ele>113.6</ele>
        <time>2020-07-02T15:38:05Z</time>
      </trkpt>
      <trkpt lat="47.90279" lon="1.89623">
        <ele>113.6</ele>
        <time>2020-07-02T15:38:06Z</time>
      </trkpt>
      <trkpt lat="47.90276" lon="1.89629">
        <ele>113.5</ele>
        <time>2020-07-02T15:38:07Z</time>
      </trkpt>
      <trkpt lat="47.90272" lon="1.89634">
        <ele>113.5</ele>
        <time>2020-07-02T15:38:08Z</time>
      </trkpt>
      <trkpt lat="47.90268" lon="1.89639">
        <ele>113.5</ele>
        <time>2020-07-02T15:38:09Z</time>
      </trkpt>
      <trkpt lat="47.90264" lon="1.89645">
        <ele>113.5</ele>
        <time>2020-07-02T15:38:10Z</time>
      </trkpt>
      <trkpt lat="47.9026" lon="1.89651">
        <ele>113.4</ele>
        <time>2020-07-02T15:38:11Z</time>
      </trkpt>
      <trkpt lat="47.90256" lon="1.89657">
        <ele>113.4</ele>
        <time>2020-07-02T15:38:12Z</time>
      </trkpt>
      <trkpt lat="47.90253" lon="1.89663">
        <ele>113.3</ele>
        <time>2020-07-02T15:38:13Z</time>
      </trkpt>
      <trkpt lat="47.90251" lon="1.8967">
        <ele>113.3</ele>
        <time>2020-07-02T15:38:14Z</time>
      </trkpt>
      <trkpt lat="47.90249" lon="1.89675">
        <ele>113.3</ele>
        <time>2020-07-02T15:38:15Z</time>
      </trkpt>
      <trkpt lat="47.90246" lon="1.89679">
        <ele>113.3</ele>
        <time>2020-07-02T15:38:16Z</time>
      </trkpt>
      <trkpt lat="47.90243" lon="1.89683">
        <ele>113.3</ele>
        <time>2020-07-02T15:38:17Z</time>
      </trkpt>
      <trkpt lat="47.9024" lon="1.89686">
        <ele>113.2</ele>
        <time>2020-07-02T15:38:18Z</time>
      </trkpt>
      <trkpt lat="47.90238" lon="1.89689">
        <ele>113.2</ele>
        <time>2020-07-02T15:38:19Z</time>
      </trkpt>
      <trkpt lat="47.90236" lon="1.89692">
        <ele>113.2</ele>
        <time>2020-07-02T15:38:20Z</time>
      </trkpt>
      <trkpt lat="47.90235" lon="1.89693">
        <ele>113.2</ele>
        <time>2020-07-02T15:38:21Z</time>
      </trkpt>
      <trkpt lat="47.90233" lon="1.89696">
        <ele>113.1</ele>
        <time>2020-07-02T15:38:22Z</time>
      </trkpt>
      <trkpt lat="47.90232" lon="1.89697">
        <ele>113.1</ele>
        <time>2020-07-02T15:38:23Z</time>
      </trkpt>
      <trkpt lat="47.90231" lon="1.89701">
        <ele>113.1</ele>
        <time>2020-07-02T15:38:24Z</time>
      </trkpt>
      <trkpt lat="47.90229" lon="1.89706">
        <ele>113.1</ele>
        <time>2020-07-02T15:38:25Z</time>
      </trkpt>
      <trkpt lat="47.90228" lon="1.89708">
        <ele>113.1</ele>
        <time>2020-07-02T15:38:26Z</time>
      </trkpt>
      <trkpt lat="47.90225" lon="1.89711">
        <ele>113</ele>
        <time>2020-07-02T15:38:27Z</time>
      </trkpt>
      <trkpt lat="47.90223" lon="1.89714">
        <ele>113</ele>
        <time>2020-07-02T15:38:28Z</time>
      </trkpt>
      <trkpt lat="47.90221" lon="1.89719">
        <ele>113</ele>
        <time>2020-07-02T15:38:29Z</time>
      </trkpt>
      <trkpt lat="47.90218" lon="1.89723">
        <ele>113</ele>
        <time>2020-07-02T15:38:30Z</time>
      </trkpt>
      <trkpt lat="47.90214" lon="1.89728">
        <ele>112.9</ele>
        <time>2020-07-02T15:38:31Z</time>
      </trkpt>
      <trkpt lat="47.90212" lon="1.89733">
        <ele>112.9</ele>
        <time>2020-07-02T15:38:32Z</time>
      </trkpt>
      <trkpt lat="47.90209" lon="1.89737">
        <ele>112.9</ele>
        <time>2020-07-02T15:38:33Z</time>
      </trkpt>
      <trkpt lat="47.90207" lon="1.89743">
        <ele>112.9</ele>
        <time>2020-07-02T15:38:34Z</time>
      </trkpt>
      <trkpt lat="47.90206" lon="1.89747">
        <ele>112.8</ele>
        <time>2020-07-02T15:38:35Z</time>
      </trkpt>
      <trkpt lat="47.90204" lon="1.89752">
        <ele>112.7</ele>
        <time>2020-07-02T15:38:36Z</time>
      </trkpt>
      <trkpt lat="47.90203" lon="1.89753">
        <ele>112.7</ele>
        <time>2020-07-02T15:38:37Z</time>
      </trkpt>
      <trkpt lat="47.90201" lon="1.89756">
        <ele>112.7</ele>
        <time>2020-07-02T15:38:38Z</time>
      </trkpt>
      <trkpt lat="47.902" lon="1.89756">
        <ele>112.7</ele>
        <time>2020-07-02T15:38:39Z</time>
      </trkpt>
      <trkpt lat="47.90197" lon="1.89759">
        <ele>112.7</ele>
        <time>2020-07-02T15:38:40Z</time>
      </trkpt>
      <trkpt lat="47.90196" lon="1.8976">
        <ele>112.6</ele>
        <time>2020-07-02T15:38:41Z</time>
      </trkpt>
      <trkpt lat="47.90195" lon="1.89764">
        <ele>112.6</ele>
        <time>2020-07-02T15:38:42Z</time>
      </trkpt>
      <trkpt lat="47.90194" lon="1.89765">
        <ele>112.6</ele>
        <time>2020-07-02T15:38:43Z</time>
      </trkpt>
      <trkpt lat="47.90192" lon="1.8977">
        <ele>112.6</ele>
        <time>2020-07-02T15:38:44Z</time>
      </trkpt>
      <trkpt lat="47.90192" lon="1.89772">
        <ele>112.6</ele>
        <time>2020-07-02T15:38:45Z</time>
      </trkpt>
      <trkpt lat="47.90192" lon="1.89777">
        <ele>112.2</ele>
        <time>2020-07-02T15:38:46Z</time>
      </trkpt>
      <trkpt lat="47.90191" lon="1.89779">
        <ele>112.2</ele>
        <time>2020-07-02T15:38:47Z</time>
      </trkpt>
      <trkpt lat="47.90193" lon="1.89785">
        <ele>112.1</ele>
        <time>2020-07-02T15:38:48Z</time>
      </trkpt>
      <trkpt lat="47.90192" lon="1.89792">
        <ele>112.1</ele>
        <time>2020-07-02T15:38:49Z</time>
      </trkpt>
      <trkpt lat="47.90192" lon="1.89796">
        <ele>112.1</ele>
        <time>2020-07-02T15:38:50Z</time>
      </trkpt>
      <trkpt lat="47.90192" lon="1.89801">
        <ele>112.1</ele>
        <time>2020-07-02T15:38:51Z</time>
      </trkpt>
      <trkpt lat="47.90192" lon="1.89803">
        <ele>112.1</ele>
        <time>2020-07-02T15:38:52Z</time>
      </trkpt>
      <trkpt lat="47.90191" lon="1.89805">
        <ele>112.1</ele>
        <time>2020-07-02T15:38:53Z</time>
      </trkpt>
      <trkpt lat="47.90191" lon="1.89808">
        <ele>112.1</ele>
        <time>2020-07-02T15:38:54Z</time>
      </trkpt>
      <trkpt lat="47.90191" lon="1.89812">
        <ele>112.1</ele>
        <time>2020-07-02T15:38:55Z</time>
      </trkpt>
      <trkpt lat="47.9019" lon="1.89814">
        <ele>112.1</ele>
        <time>2020-07-02T15:38:56Z</time>
      </trkpt>
      <trkpt lat="47.9019" lon="1.89819">
        <ele>112.1</ele>
        <time>2020-07-02T15:38:57Z</time>
      </trkpt>
      <trkpt lat="47.9019" lon="1.89825">
        <ele>112</ele>
        <time>2020-07-02T15:38:58Z</time>
      </trkpt>
      <trkpt lat="47.9019" lon="1.89831">
        <ele>112</ele>
        <time>2020-07-02T15:38:59Z</time>
      </trkpt>
      <trkpt lat="47.9019" lon="1.89838">
        <ele>111.9</ele>
        <time>2020-07-02T15:39:00Z</time>
      </trkpt>
      <trkpt lat="47.90189" lon="1.89844">
        <ele>111.8</ele>
        <time>2020-07-02T15:39:01Z</time>
      </trkpt>
      <trkpt lat="47.90189" lon="1.8985">
        <ele>111.8</ele>
        <time>2020-07-02T15:39:02Z</time>
      </trkpt>
      <trkpt lat="47.90189" lon="1.89858">
        <ele>111.7</ele>
        <time>2020-07-02T15:39:03Z</time>
      </trkpt>
      <trkpt lat="47.90189" lon="1.89865">
        <ele>111.6</ele>
        <time>2020-07-02T15:39:04Z</time>
      </trkpt>
      <trkpt lat="47.90189" lon="1.89873">
        <ele>111.6</ele>
        <time>2020-07-02T15:39:05Z</time>
      </trkpt>
      <trkpt lat="47.90189" lon="1.8988">
        <ele>111.6</ele>
        <time>2020-07-02T15:39:06Z</time>
      </trkpt>
      <trkpt lat="47.90189" lon="1.89887">
        <ele>111.5</ele>
        <time>2020-07-02T15:39:07Z</time>
      </trkpt>
      <trkpt lat="47.90189" lon="1.89893">
        <ele>111.5</ele>
        <time>2020-07-02T15:39:08Z</time>
      </trkpt>
      <trkpt lat="47.9019" lon="1.89898">
        <ele>111.5</ele>
        <time>2020-07-02T15:39:09Z</time>
      </trkpt>
      <trkpt lat="47.90189" lon="1.89906">
        <ele>111.5</ele>
        <time>2020-07-02T15:39:10Z</time>
      </trkpt>
      <trkpt lat="47.90188" lon="1.89913">
        <ele>111.3</ele>
        <time>2020-07-02T15:39:11Z</time>
      </trkpt>
      <trkpt lat="47.90187" lon="1.89921">
        <ele>111.2</ele>
        <time>2020-07-02T15:39:12Z</time>
      </trkpt>
      <trkpt lat="47.90187" lon="1.89929">
        <ele>111.2</ele>
        <time>2020-07-02T15:39:13Z</time>
      </trkpt>
      <trkpt lat="47.90185" lon="1.89934">
        <ele>111.1</ele>
        <time>2020-07-02T15:39:14Z</time>
      </trkpt>
      <trkpt lat="47.90184" lon="1.89939">
        <ele>111.1</ele>
        <time>2020-07-02T15:39:15Z</time>
      </trkpt>
      <trkpt lat="47.90183" lon="1.89943">
        <ele>111.1</ele>
        <time>2020-07-02T15:39:16Z</time>
      </trkpt>
      <trkpt lat="47.90183" lon="1.89947">
        <ele>111.1</ele>
        <time>2020-07-02T15:39:17Z</time>
      </trkpt>
      <trkpt lat="47.90182" lon="1.89953">
        <ele>111.1</ele>
        <time>2020-07-02T15:39:18Z</time>
      </trkpt>
      <trkpt lat="47.90181" lon="1.89955">
        <ele>111.1</ele>
        <time>2020-07-02T15:39:19Z</time>
      </trkpt>
      <trkpt lat="47.90181" lon="1.8996">
        <ele>111.1</ele>
        <time>2020-07-02T15:39:20Z</time>
      </trkpt>
      <trkpt lat="47.9018" lon="1.89964">
        <ele>111</ele>
        <time>2020-07-02T15:39:21Z</time>
      </trkpt>
      <trkpt lat="47.9018" lon="1.89969">
        <ele>111</ele>
        <time>2020-07-02T15:39:22Z</time>
      </trkpt>
      <trkpt lat="47.90179" lon="1.89975">
        <ele>110.9</ele>
        <time>2020-07-02T15:39:23Z</time>
      </trkpt>
      <trkpt lat="47.90178" lon="1.89979">
        <ele>110.9</ele>
        <time>2020-07-02T15:39:24Z</time>
      </trkpt>
      <trkpt lat="47.90177" lon="1.89984">
        <ele>110.8</ele>
        <time>2020-07-02T15:39:25Z</time>
      </trkpt>
      <trkpt lat="47.90176" lon="1.89989">
        <ele>110.8</ele>
        <time>2020-07-02T15:39:26Z</time>
      </trkpt>
      <trkpt lat="47.90175" lon="1.89994">
        <ele>110.8</ele>
        <time>2020-07-02T15:39:27Z</time>
      </trkpt>
      <trkpt lat="47.90174" lon="1.90001">
        <ele>110.8</ele>
        <time>2020-07-02T15:39:28Z</time>
      </trkpt>
      <trkpt lat="47.90173" lon="1.90008">
        <ele>110.9</ele>
        <time>2020-07-02T15:39:29Z</time>
      </trkpt>
      <trkpt lat="47.90173" lon="1.90014">
        <ele>110.9</ele>
        <time>2020-07-02T15:39:30Z</time>
      </trkpt>
      <trkpt lat="47.90171" lon="1.9002">
        <ele>110.9</ele>
        <time>2020-07-02T15:39:31Z</time>
      </trkpt>
      <trkpt lat="47.90171" lon="1.90025">
        <ele>110.9</ele>
        <time>2020-07-02T15:39:32Z</time>
      </trkpt>
      <trkpt lat="47.9017" lon="1.90029">
        <ele>110.9</ele>
        <time>2020-07-02T15:39:33Z</time>
      </trkpt>
      <trkpt lat="47.9017" lon="1.90033">
        <ele>111</ele>
        <time>2020-07-02T15:39:34Z</time>
      </trkpt>
      <trkpt lat="47.90169" lon="1.90039">
        <ele>111</ele>
        <time>2020-07-02T15:39:35Z</time>
      </trkpt>
      <trkpt lat="47.90168" lon="1.90043">
        <ele>111</ele>
        <time>2020-07-02T15:39:36Z</time>
      </trkpt>
      <trkpt lat="47.90167" lon="1.90048">
        <ele>111.1</ele>
        <time>2020-07-02T15:39:37Z</time>
      </trkpt>
      <trkpt lat="47.90167" lon="1.90053">
        <ele>111.1</ele>
        <time>2020-07-02T15:39:38Z</time>
      </trkpt>
      <trkpt lat="47.90165" lon="1.90058">
        <ele>111.2</ele>
        <time>2020-07-02T15:39:39Z</time>
      </trkpt>
      <trkpt lat="47.90165" lon="1.90062">
        <ele>111.2</ele>
        <time>2020-07-02T15:39:40Z</time>
      </trkpt>
      <trkpt lat="47.90162" lon="1.90067">
        <ele>111.3</ele>
        <time>2020-07-02T15:39:41Z</time>
      </trkpt>
      <trkpt lat="47.9016" lon="1.90069">
        <ele>111.3</ele>
        <time>2020-07-02T15:39:42Z</time>
      </trkpt>
      <trkpt lat="47.90157" lon="1.90071">
        <ele>111.4</ele>
        <time>2020-07-02T15:39:43Z</time>
      </trkpt>
      <trkpt lat="47.90153" lon="1.90075">
        <ele>111.4</ele>
        <time>2020-07-02T15:39:44Z</time>
      </trkpt>
      <trkpt lat="47.90151" lon="1.90078">
        <ele>111.4</ele>
        <time>2020-07-02T15:39:45Z</time>
      </trkpt>
      <trkpt lat="47.90149" lon="1.90081">
        <ele>111.3</ele>
        <time>2020-07-02T15:39:46Z</time>
      </trkpt>
      <trkpt lat="47.90148" lon="1.90081">
        <ele>111.3</ele>
        <time>2020-07-02T15:39:47Z</time>
      </trkpt>
      <trkpt lat="47.90144" lon="1.90081">
        <ele>111.2</ele>
        <time>2020-07-02T15:39:48Z</time>
      </trkpt>
      <trkpt lat="47.90141" lon="1.90079">
        <ele>111.2</ele>
        <time>2020-07-02T15:39:49Z</time>
      </trkpt>
      <trkpt lat="47.90137" lon="1.90079">
        <ele>111.1</ele>
        <time>2020-07-02T15:39:50Z</time>
      </trkpt>
      <trkpt lat="47.90136" lon="1.90079">
        <ele>111.1</ele>
        <time>2020-07-02T15:39:51Z</time>
      </trkpt>
      <trkpt lat="47.90134" lon="1.9008">
        <ele>111.1</ele>
        <time>2020-07-02T15:39:52Z</time>
      </trkpt>
      <trkpt lat="47.90132" lon="1.90079">
        <ele>111.1</ele>
        <time>2020-07-02T15:39:53Z</time>
      </trkpt>
      <trkpt lat="47.90131" lon="1.90079">
        <ele>111</ele>
        <time>2020-07-02T15:39:54Z</time>
      </trkpt>
      <trkpt lat="47.90129" lon="1.90078">
        <ele>111</ele>
        <time>2020-07-02T15:39:55Z</time>
      </trkpt>
      <trkpt lat="47.90128" lon="1.90077">
        <ele>111</ele>
        <time>2020-07-02T15:39:56Z</time>
      </trkpt>
      <trkpt lat="47.90128" lon="1.90075">
        <ele>111</ele>
        <time>2020-07-02T15:39:57Z</time>
      </trkpt>
      <trkpt lat="47.90126" lon="1.90072">
        <ele>111</ele>
        <time>2020-07-02T15:39:58Z</time>
      </trkpt>
      <trkpt lat="47.90125" lon="1.90072">
        <ele>111</ele>
        <time>2020-07-02T15:39:59Z</time>
      </trkpt>
      <trkpt lat="47.90125" lon="1.90072">
        <ele>111</ele>
        <time>2020-07-02T15:40:00Z</time>
      </trkpt>
      <trkpt lat="47.90123" lon="1.90071">
        <ele>111</ele>
        <time>2020-07-02T15:40:01Z</time>
      </trkpt>
      <trkpt lat="47.90122" lon="1.90069">
        <ele>110.9</ele>
        <time>2020-07-02T15:40:02Z</time>
      </trkpt>
      <trkpt lat="47.9012" lon="1.90067">
        <ele>111</ele>
        <time>2020-07-02T15:40:03Z</time>
      </trkpt>
      <trkpt lat="47.90119" lon="1.90066">
        <ele>111</ele>
        <time>2020-07-02T15:40:04Z</time>
      </trkpt>
      <trkpt lat="47.90116" lon="1.90065">
        <ele>111</ele>
        <time>2020-07-02T15:40:05Z</time>
      </trkpt>
      <trkpt lat="47.90115" lon="1.90064">
        <ele>111</ele>
        <time>2020-07-02T15:40:06Z</time>
      </trkpt>
      <trkpt lat="47.90112" lon="1.90063">
        <ele>111</ele>
        <time>2020-07-02T15:40:07Z</time>
      </trkpt>
      <trkpt lat="47.90109" lon="1.90063">
        <ele>111</ele>
        <time>2020-07-02T15:40:08Z</time>
      </trkpt>
      <trkpt lat="47.90107" lon="1.90063">
        <ele>111</ele>
        <time>2020-07-02T15:40:09Z</time>
      </trkpt>
      <trkpt lat="47.90105" lon="1.90063">
        <ele>110.9</ele>
        <time>2020-07-02T15:40:10Z</time>
      </trkpt>
      <trkpt lat="47.90101" lon="1.90062">
        <ele>110.9</ele>
        <time>2020-07-02T15:40:11Z</time>
      </trkpt>
      <trkpt lat="47.90097" lon="1.9006">
        <ele>110.9</ele>
        <time>2020-07-02T15:40:12Z</time>
      </trkpt>
      <trkpt lat="47.90093" lon="1.9006">
        <ele>110.8</ele>
        <time>2020-07-02T15:40:13Z</time>
      </trkpt>
      <trkpt lat="47.90089" lon="1.9006">
        <ele>110.8</ele>
        <time>2020-07-02T15:40:14Z</time>
      </trkpt>
      <trkpt lat="47.90088" lon="1.90059">
        <ele>110.8</ele>
        <time>2020-07-02T15:40:15Z</time>
      </trkpt>
      <trkpt lat="47.90086" lon="1.90057">
        <ele>110.7</ele>
        <time>2020-07-02T15:40:16Z</time>
      </trkpt>
      <trkpt lat="47.90085" lon="1.90056">
        <ele>110.7</ele>
        <time>2020-07-02T15:40:17Z</time>
      </trkpt>
      <trkpt lat="47.90085" lon="1.90054">
        <ele>110.7</ele>
        <time>2020-07-02T15:40:18Z</time>
      </trkpt>
      <trkpt lat="47.90086" lon="1.90052">
        <ele>109</ele>
        <time>2020-07-02T15:40:19Z</time>
      </trkpt>
      <trkpt lat="47.90088" lon="1.90048">
        <ele>109</ele>
        <time>2020-07-02T15:40:20Z</time>
      </trkpt>
      <trkpt lat="47.90088" lon="1.90046">
        <ele>109</ele>
        <time>2020-07-02T15:40:21Z</time>
      </trkpt>
      <trkpt lat="47.9009" lon="1.90041">
        <ele>109</ele>
        <time>2020-07-02T15:40:22Z</time>
      </trkpt>
      <trkpt lat="47.90091" lon="1.90034">
        <ele>109</ele>
        <time>2020-07-02T15:40:23Z</time>
      </trkpt>
      <trkpt lat="47.90093" lon="1.90028">
        <ele>109.1</ele>
        <time>2020-07-02T15:40:24Z</time>
      </trkpt>
      <trkpt lat="47.90095" lon="1.90022">
        <ele>109.1</ele>
        <time>2020-07-02T15:40:25Z</time>
      </trkpt>
      <trkpt lat="47.90096" lon="1.90014">
        <ele>109</ele>
        <time>2020-07-02T15:40:26Z</time>
      </trkpt>
      <trkpt lat="47.90096" lon="1.90008">
        <ele>109</ele>
        <time>2020-07-02T15:40:27Z</time>
      </trkpt>
      <trkpt lat="47.90097" lon="1.90002">
        <ele>108.9</ele>
        <time>2020-07-02T15:40:28Z</time>
      </trkpt>
      <trkpt lat="47.90097" lon="1.89997">
        <ele>108.8</ele>
        <time>2020-07-02T15:40:29Z</time>
      </trkpt>
      <trkpt lat="47.90097" lon="1.89992">
        <ele>108.8</ele>
        <time>2020-07-02T15:40:30Z</time>
      </trkpt>
      <trkpt lat="47.90098" lon="1.89987">
        <ele>108.7</ele>
        <time>2020-07-02T15:40:31Z</time>
      </trkpt>
      <trkpt lat="47.90098" lon="1.89982">
        <ele>108.6</ele>
        <time>2020-07-02T15:40:32Z</time>
      </trkpt>
      <trkpt lat="47.90099" lon="1.89976">
        <ele>108.6</ele>
        <time>2020-07-02T15:40:33Z</time>
      </trkpt>
      <trkpt lat="47.901" lon="1.8997">
        <ele>108.5</ele>
        <time>2020-07-02T15:40:34Z</time>
      </trkpt>
      <trkpt lat="47.901" lon="1.89964">
        <ele>108.4</ele>
        <time>2020-07-02T15:40:35Z</time>
      </trkpt>
      <trkpt lat="47.90099" lon="1.89956">
        <ele>108.3</ele>
        <time>2020-07-02T15:40:36Z</time>
      </trkpt>
      <trkpt lat="47.90098" lon="1.8995">
        <ele>108.3</ele>
        <time>2020-07-02T15:40:37Z</time>
      </trkpt>
      <trkpt lat="47.90099" lon="1.89945">
        <ele>108.2</ele>
        <time>2020-07-02T15:40:38Z</time>
      </trkpt>
      <trkpt lat="47.90099" lon="1.8994">
        <ele>108.2</ele>
        <time>2020-07-02T15:40:39Z</time>
      </trkpt>
      <trkpt lat="47.90101" lon="1.89935">
        <ele>108.1</ele>
        <time>2020-07-02T15:40:40Z</time>
      </trkpt>
      <trkpt lat="47.90101" lon="1.89933">
        <ele>108.1</ele>
        <time>2020-07-02T15:40:41Z</time>
      </trkpt>
      <trkpt lat="47.90101" lon="1.89931">
        <ele>108.1</ele>
        <time>2020-07-02T15:40:42Z</time>
      </trkpt>
      <trkpt lat="47.90099" lon="1.8993">
        <ele>108.1</ele>
        <time>2020-07-02T15:40:43Z</time>
      </trkpt>
      <trkpt lat="47.90095" lon="1.89931">
        <ele>108</ele>
        <time>2020-07-02T15:40:44Z</time>
      </trkpt>
      <trkpt lat="47.90093" lon="1.89932">
        <ele>108</ele>
        <time>2020-07-02T15:40:45Z</time>
      </trkpt>
      <trkpt lat="47.9009" lon="1.89934">
        <ele>108</ele>
        <time>2020-07-02T15:40:46Z</time>
      </trkpt>
      <trkpt lat="47.90086" lon="1.89933">
        <ele>107.9</ele>
        <time>2020-07-02T15:40:47Z</time>
      </trkpt>
      <trkpt lat="47.90082" lon="1.89933">
        <ele>107.9</ele>
        <time>2020-07-02T15:40:48Z</time>
      </trkpt>
      <trkpt lat="47.90077" lon="1.89932">
        <ele>107.8</ele>
        <time>2020-07-02T15:40:49Z</time>
      </trkpt>
      <trkpt lat="47.90072" lon="1.89932">
        <ele>107.8</ele>
        <time>2020-07-02T15:40:50Z</time>
      </trkpt>
      <trkpt lat="47.90068" lon="1.89931">
        <ele>107.7</ele>
        <time>2020-07-02T15:40:51Z</time>
      </trkpt>
      <trkpt lat="47.90065" lon="1.89931">
        <ele>107.6</ele>
        <time>2020-07-02T15:40:52Z</time>
      </trkpt>
      <trkpt lat="47.90062" lon="1.8993">
        <ele>107.6</ele>
        <time>2020-07-02T15:40:53Z</time>
      </trkpt>
      <trkpt lat="47.90058" lon="1.89931">
        <ele>107.6</ele>
        <time>2020-07-02T15:40:54Z</time>
      </trkpt>
      <trkpt lat="47.90057" lon="1.89931">
        <ele>107.5</ele>
        <time>2020-07-02T15:40:55Z</time>
      </trkpt>
      <trkpt lat="47.90052" lon="1.89933">
        <ele>107.5</ele>
        <time>2020-07-02T15:40:56Z</time>
      </trkpt>
      <trkpt lat="47.90049" lon="1.89933">
        <ele>107.5</ele>
        <time>2020-07-02T15:40:57Z</time>
      </trkpt>
      <trkpt lat="47.90045" lon="1.89933">
        <ele>107.3</ele>
        <time>2020-07-02T15:40:58Z</time>
      </trkpt>
      <trkpt lat="47.90041" lon="1.89932">
        <ele>107.2</ele>
        <time>2020-07-02T15:40:59Z</time>
      </trkpt>
      <trkpt lat="47.90036" lon="1.89931">
        <ele>107</ele>
        <time>2020-07-02T15:41:00Z</time>
      </trkpt>
      <trkpt lat="47.90031" lon="1.8993">
        <ele>106.8</ele>
        <time>2020-07-02T15:41:01Z</time>
      </trkpt>
      <trkpt lat="47.90028" lon="1.8993">
        <ele>106.7</ele>
        <time>2020-07-02T15:41:02Z</time>
      </trkpt>
      <trkpt lat="47.90025" lon="1.89931">
        <ele>106.5</ele>
        <time>2020-07-02T15:41:03Z</time>
      </trkpt>
      <trkpt lat="47.90021" lon="1.8993">
        <ele>106.4</ele>
        <time>2020-07-02T15:41:04Z</time>
      </trkpt>
      <trkpt lat="47.9002" lon="1.89931">
        <ele>106.3</ele>
        <time>2020-07-02T15:41:05Z</time>
      </trkpt>
      <trkpt lat="47.90016" lon="1.89931">
        <ele>106.1</ele>
        <time>2020-07-02T15:41:06Z</time>
      </trkpt>
      <trkpt lat="47.90012" lon="1.89932">
        <ele>106</ele>
        <time>2020-07-02T15:41:07Z</time>
      </trkpt>
      <trkpt lat="47.90009" lon="1.89932">
        <ele>105.9</ele>
        <time>2020-07-02T15:41:08Z</time>
      </trkpt>
      <trkpt lat="47.90005" lon="1.89932">
        <ele>105.7</ele>
        <time>2020-07-02T15:41:09Z</time>
      </trkpt>
      <trkpt lat="47.90002" lon="1.89932">
        <ele>105.6</ele>
        <time>2020-07-02T15:41:10Z</time>
      </trkpt>
      <trkpt lat="47.89998" lon="1.89931">
        <ele>105.4</ele>
        <time>2020-07-02T15:41:11Z</time>
      </trkpt>
      <trkpt lat="47.89994" lon="1.89931">
        <ele>105.2</ele>
        <time>2020-07-02T15:41:12Z</time>
      </trkpt>
      <trkpt lat="47.8999" lon="1.89932">
        <ele>105.1</ele>
        <time>2020-07-02T15:41:13Z</time>
      </trkpt>
      <trkpt lat="47.89987" lon="1.89931">
        <ele>105</ele>
        <time>2020-07-02T15:41:14Z</time>
      </trkpt>
      <trkpt lat="47.89984" lon="1.89932">
        <ele>104.9</ele>
        <time>2020-07-02T15:41:15Z</time>
      </trkpt>
      <trkpt lat="47.8998" lon="1.89927">
        <ele>104.8</ele>
        <time>2020-07-02T15:41:16Z</time>
      </trkpt>
      <trkpt lat="47.89977" lon="1.89929">
        <ele>104.7</ele>
        <time>2020-07-02T15:41:17Z</time>
      </trkpt>
      <trkpt lat="47.89973" lon="1.89931">
        <ele>104.6</ele>
        <time>2020-07-02T15:41:18Z</time>
      </trkpt>
      <trkpt lat="47.89972" lon="1.89931">
        <ele>104.6</ele>
        <time>2020-07-02T15:41:19Z</time>
      </trkpt>
      <trkpt lat="47.89968" lon="1.89932">
        <ele>104.2</ele>
        <time>2020-07-02T15:41:20Z</time>
      </trkpt>
      <trkpt lat="47.89964" lon="1.89934">
        <ele>103.9</ele>
        <time>2020-07-02T15:41:21Z</time>
      </trkpt>
      <trkpt lat="47.8996" lon="1.89934">
        <ele>103.7</ele>
        <time>2020-07-02T15:41:22Z</time>
      </trkpt>
      <trkpt lat="47.89956" lon="1.89934">
        <ele>103.4</ele>
        <time>2020-07-02T15:41:23Z</time>
      </trkpt>
      <trkpt lat="47.89951" lon="1.89936">
        <ele>103</ele>
        <time>2020-07-02T15:41:24Z</time>
      </trkpt>
      <trkpt lat="47.89946" lon="1.89937">
        <ele>102.7</ele>
        <time>2020-07-02T15:41:25Z</time>
      </trkpt>
      <trkpt lat="47.89941" lon="1.89938">
        <ele>102.4</ele>
        <time>2020-07-02T15:41:26Z</time>
      </trkpt>
      <trkpt lat="47.89935" lon="1.89939">
        <ele>102</ele>
        <time>2020-07-02T15:41:27Z</time>
      </trkpt>
      <trkpt lat="47.89931" lon="1.8994">
        <ele>101.7</ele>
        <time>2020-07-02T15:41:28Z</time>
      </trkpt>
      <trkpt lat="47.89925" lon="1.89941">
        <ele>101.4</ele>
        <time>2020-07-02T15:41:29Z</time>
      </trkpt>
      <trkpt lat="47.89921" lon="1.89942">
        <ele>101.1</ele>
        <time>2020-07-02T15:41:30Z</time>
      </trkpt>
      <trkpt lat="47.89916" lon="1.89943">
        <ele>100.8</ele>
        <time>2020-07-02T15:41:31Z</time>
      </trkpt>
      <trkpt lat="47.89913" lon="1.89942">
        <ele>100.5</ele>
        <time>2020-07-02T15:41:32Z</time>
      </trkpt>
      <trkpt lat="47.8991" lon="1.8994">
        <ele>100.3</ele>
        <time>2020-07-02T15:41:33Z</time>
      </trkpt>
      <trkpt lat="47.89906" lon="1.89938">
        <ele>100.1</ele>
        <time>2020-07-02T15:41:34Z</time>
      </trkpt>
      <trkpt lat="47.89902" lon="1.89937">
        <ele>99.9</ele>
        <time>2020-07-02T15:41:35Z</time>
      </trkpt>
      <trkpt lat="47.89897" lon="1.89938">
        <ele>99.6</ele>
        <time>2020-07-02T15:41:36Z</time>
      </trkpt>
      <trkpt lat="47.89891" lon="1.89938">
        <ele>99.2</ele>
        <time>2020-07-02T15:41:37Z</time>
      </trkpt>
      <trkpt lat="47.89885" lon="1.89937">
        <ele>98.9</ele>
        <time>2020-07-02T15:41:38Z</time>
      </trkpt>
      <trkpt lat="47.89881" lon="1.89939">
        <ele>98.7</ele>
        <time>2020-07-02T15:41:39Z</time>
      </trkpt>
      <trkpt lat="47.89876" lon="1.89938">
        <ele>98.5</ele>
        <time>2020-07-02T15:41:40Z</time>
      </trkpt>
      <trkpt lat="47.89871" lon="1.89936">
        <ele>98.3</ele>
        <time>2020-07-02T15:41:41Z</time>
      </trkpt>
      <trkpt lat="47.89866" lon="1.89937">
        <ele>98.1</ele>
        <time>2020-07-02T15:41:42Z</time>
      </trkpt>
      <trkpt lat="47.89861" lon="1.89939">
        <ele>98</ele>
        <time>2020-07-02T15:41:43Z</time>
      </trkpt>
      <trkpt lat="47.89855" lon="1.89939">
        <ele>97.8</ele>
        <time>2020-07-02T15:41:44Z</time>
      </trkpt>
      <trkpt lat="47.8985" lon="1.89941">
        <ele>97.7</ele>
        <time>2020-07-02T15:41:45Z</time>
      </trkpt>
      <trkpt lat="47.89845" lon="1.89941">
        <ele>97.6</ele>
        <time>2020-07-02T15:41:46Z</time>
      </trkpt>
      <trkpt lat="47.89841" lon="1.89942">
        <ele>97.6</ele>
        <time>2020-07-02T15:41:47Z</time>
      </trkpt>
      <trkpt lat="47.89836" lon="1.89942">
        <ele>97.6</ele>
        <time>2020-07-02T15:41:48Z</time>
      </trkpt>
      <trkpt lat="47.89833" lon="1.89941">
        <ele>97.5</ele>
        <time>2020-07-02T15:41:49Z</time>
      </trkpt>
      <trkpt lat="47.89829" lon="1.8994">
        <ele>97.5</ele>
        <time>2020-07-02T15:41:50Z</time>
      </trkpt>
      <trkpt lat="47.89826" lon="1.89938">
        <ele>97.5</ele>
        <time>2020-07-02T15:41:51Z</time>
      </trkpt>
      <trkpt lat="47.89821" lon="1.89938">
        <ele>97.5</ele>
        <time>2020-07-02T15:41:52Z</time>
      </trkpt>
      <trkpt lat="47.89818" lon="1.89939">
        <ele>97.4</ele>
        <time>2020-07-02T15:41:53Z</time>
      </trkpt>
      <trkpt lat="47.89815" lon="1.8994">
        <ele>97.3</ele>
        <time>2020-07-02T15:41:54Z</time>
      </trkpt>
      <trkpt lat="47.89812" lon="1.89939">
        <ele>97.1</ele>
        <time>2020-07-02T15:41:55Z</time>
      </trkpt>
      <trkpt lat="47.8981" lon="1.89939">
        <ele>97</ele>
        <time>2020-07-02T15:41:56Z</time>
      </trkpt>
      <trkpt lat="47.8981" lon="1.8994">
        <ele>96.9</ele>
        <time>2020-07-02T15:41:57Z</time>
      </trkpt>
      <trkpt lat="47.89809" lon="1.8994">
        <ele>96.8</ele>
        <time>2020-07-02T15:41:58Z</time>
      </trkpt>
      <trkpt lat="47.89808" lon="1.8994">
        <ele>96.7</ele>
        <time>2020-07-02T15:41:59Z</time>
      </trkpt>
      <trkpt lat="47.89807" lon="1.8994">
        <ele>96.7</ele>
        <time>2020-07-02T15:42:00Z</time>
      </trkpt>
      <trkpt lat="47.89806" lon="1.8994">
        <ele>96.6</ele>
        <time>2020-07-02T15:42:01Z</time>
      </trkpt>
      <trkpt lat="47.89803" lon="1.89942">
        <ele>96</ele>
        <time>2020-07-02T15:42:02Z</time>
      </trkpt>
      <trkpt lat="47.89802" lon="1.89943">
        <ele>96</ele>
        <time>2020-07-02T15:42:03Z</time>
      </trkpt>
      <trkpt lat="47.89799" lon="1.89942">
        <ele>96</ele>
        <time>2020-07-02T15:42:04Z</time>
      </trkpt>
      <trkpt lat="47.89796" lon="1.89944">
        <ele>96</ele>
        <time>2020-07-02T15:42:05Z</time>
      </trkpt>
      <trkpt lat="47.89794" lon="1.89945">
        <ele>95.1</ele>
        <time>2020-07-02T15:42:06Z</time>
      </trkpt>
      <trkpt lat="47.89793" lon="1.8995">
        <ele>95.1</ele>
        <time>2020-07-02T15:42:07Z</time>
      </trkpt>
      <trkpt lat="47.89792" lon="1.89953">
        <ele>95.2</ele>
        <time>2020-07-02T15:42:08Z</time>
      </trkpt>
      <trkpt lat="47.89792" lon="1.8996">
        <ele>95.2</ele>
        <time>2020-07-02T15:42:09Z</time>
      </trkpt>
      <trkpt lat="47.89791" lon="1.89967">
        <ele>95.2</ele>
        <time>2020-07-02T15:42:10Z</time>
      </trkpt>
      <trkpt lat="47.89791" lon="1.89975">
        <ele>95.2</ele>
        <time>2020-07-02T15:42:11Z</time>
      </trkpt>
      <trkpt lat="47.89791" lon="1.89984">
        <ele>95.3</ele>
        <time>2020-07-02T15:42:12Z</time>
      </trkpt>
      <trkpt lat="47.89791" lon="1.89992">
        <ele>95.3</ele>
        <time>2020-07-02T15:42:13Z</time>
      </trkpt>
      <trkpt lat="47.89792" lon="1.90001">
        <ele>95.4</ele>
        <time>2020-07-02T15:42:14Z</time>
      </trkpt>
      <trkpt lat="47.89792" lon="1.90009">
        <ele>95.4</ele>
        <time>2020-07-02T15:42:15Z</time>
      </trkpt>
      <trkpt lat="47.89794" lon="1.90012">
        <ele>95.4</ele>
        <time>2020-07-02T15:42:16Z</time>
      </trkpt>
      <trkpt lat="47.89795" lon="1.90018">
        <ele>95.5</ele>
        <time>2020-07-02T15:42:17Z</time>
      </trkpt>
      <trkpt lat="47.89796" lon="1.90024">
        <ele>95.5</ele>
        <time>2020-07-02T15:42:18Z</time>
      </trkpt>
      <trkpt lat="47.89796" lon="1.90033">
        <ele>95.5</ele>
        <time>2020-07-02T15:42:19Z</time>
      </trkpt>
      <trkpt lat="47.89797" lon="1.90041">
        <ele>95.5</ele>
        <time>2020-07-02T15:42:20Z</time>
      </trkpt>
      <trkpt lat="47.89797" lon="1.9005">
        <ele>95.6</ele>
        <time>2020-07-02T15:42:21Z</time>
      </trkpt>
      <trkpt lat="47.89799" lon="1.90058">
        <ele>95.6</ele>
        <time>2020-07-02T15:42:22Z</time>
      </trkpt>
      <trkpt lat="47.89799" lon="1.90066">
        <ele>95.6</ele>
        <time>2020-07-02T15:42:23Z</time>
      </trkpt>
      <trkpt lat="47.89799" lon="1.90074">
        <ele>95.6</ele>
        <time>2020-07-02T15:42:24Z</time>
      </trkpt>
      <trkpt lat="47.898" lon="1.90082">
        <ele>95.6</ele>
        <time>2020-07-02T15:42:25Z</time>
      </trkpt>
      <trkpt lat="47.898" lon="1.90089">
        <ele>95.6</ele>
        <time>2020-07-02T15:42:26Z</time>
      </trkpt>
      <trkpt lat="47.898" lon="1.901">
        <ele>95.6</ele>
        <time>2020-07-02T15:42:27Z</time>
      </trkpt>
      <trkpt lat="47.89801" lon="1.90109">
        <ele>95.6</ele>
        <time>2020-07-02T15:42:28Z</time>
      </trkpt>
      <trkpt lat="47.89801" lon="1.90117">
        <ele>95.6</ele>
        <time>2020-07-02T15:42:29Z</time>
      </trkpt>
      <trkpt lat="47.898" lon="1.90125">
        <ele>95.7</ele>
        <time>2020-07-02T15:42:30Z</time>
      </trkpt>
      <trkpt lat="47.898" lon="1.90132">
        <ele>95.7</ele>
        <time>2020-07-02T15:42:31Z</time>
      </trkpt>
      <trkpt lat="47.89801" lon="1.9014">
        <ele>95.7</ele>
        <time>2020-07-02T15:42:32Z</time>
      </trkpt>
      <trkpt lat="47.89803" lon="1.90147">
        <ele>95.8</ele>
        <time>2020-07-02T15:42:33Z</time>
      </trkpt>
      <trkpt lat="47.89803" lon="1.90155">
        <ele>95.8</ele>
        <time>2020-07-02T15:42:34Z</time>
      </trkpt>
      <trkpt lat="47.89803" lon="1.90163">
        <ele>95.9</ele>
        <time>2020-07-02T15:42:35Z</time>
      </trkpt>
      <trkpt lat="47.89804" lon="1.90172">
        <ele>95.9</ele>
        <time>2020-07-02T15:42:36Z</time>
      </trkpt>
      <trkpt lat="47.89804" lon="1.90182">
        <ele>95.9</ele>
        <time>2020-07-02T15:42:37Z</time>
      </trkpt>
      <trkpt lat="47.89805" lon="1.90192">
        <ele>96</ele>
        <time>2020-07-02T15:42:38Z</time>
      </trkpt>
      <trkpt lat="47.89806" lon="1.90202">
        <ele>96</ele>
        <time>2020-07-02T15:42:39Z</time>
      </trkpt>
      <trkpt lat="47.89807" lon="1.90212">
        <ele>96.1</ele>
        <time>2020-07-02T15:42:40Z</time>
      </trkpt>
      <trkpt lat="47.89807" lon="1.90222">
        <ele>96.3</ele>
        <time>2020-07-02T15:42:41Z</time>
      </trkpt>
      <trkpt lat="47.89808" lon="1.90231">
        <ele>96.5</ele>
        <time>2020-07-02T15:42:42Z</time>
      </trkpt>
      <trkpt lat="47.89808" lon="1.9024">
        <ele>96.7</ele>
        <time>2020-07-02T15:42:43Z</time>
      </trkpt>
      <trkpt lat="47.89809" lon="1.90249">
        <ele>96.9</ele>
        <time>2020-07-02T15:42:44Z</time>
      </trkpt>
      <trkpt lat="47.89809" lon="1.90259">
        <ele>97.2</ele>
        <time>2020-07-02T15:42:45Z</time>
      </trkpt>
      <trkpt lat="47.89809" lon="1.90268">
        <ele>97.4</ele>
        <time>2020-07-02T15:42:46Z</time>
      </trkpt>
      <trkpt lat="47.8981" lon="1.90276">
        <ele>97.7</ele>
        <time>2020-07-02T15:42:47Z</time>
      </trkpt>
      <trkpt lat="47.8981" lon="1.90283">
        <ele>98</ele>
        <time>2020-07-02T15:42:48Z</time>
      </trkpt>
      <trkpt lat="47.89811" lon="1.9029">
        <ele>98.2</ele>
        <time>2020-07-02T15:42:49Z</time>
      </trkpt>
      <trkpt lat="47.8981" lon="1.90297">
        <ele>98.5</ele>
        <time>2020-07-02T15:42:50Z</time>
      </trkpt>
      <trkpt lat="47.8981" lon="1.90304">
        <ele>98.7</ele>
        <time>2020-07-02T15:42:51Z</time>
      </trkpt>
      <trkpt lat="47.89809" lon="1.90313">
        <ele>99.2</ele>
        <time>2020-07-02T15:42:52Z</time>
      </trkpt>
      <trkpt lat="47.89808" lon="1.9032">
        <ele>99.3</ele>
        <time>2020-07-02T15:42:53Z</time>
      </trkpt>
      <trkpt lat="47.89809" lon="1.90328">
        <ele>99.6</ele>
        <time>2020-07-02T15:42:54Z</time>
      </trkpt>
      <trkpt lat="47.89809" lon="1.90335">
        <ele>99.8</ele>
        <time>2020-07-02T15:42:55Z</time>
      </trkpt>
      <trkpt lat="47.89809" lon="1.90343">
        <ele>100</ele>
        <time>2020-07-02T15:42:56Z</time>
      </trkpt>
      <trkpt lat="47.89807" lon="1.90351">
        <ele>100.3</ele>
        <time>2020-07-02T15:42:57Z</time>
      </trkpt>
      <trkpt lat="47.89806" lon="1.9036">
        <ele>100.6</ele>
        <time>2020-07-02T15:42:58Z</time>
      </trkpt>
      <trkpt lat="47.89805" lon="1.90367">
        <ele>100.9</ele>
        <time>2020-07-02T15:42:59Z</time>
      </trkpt>
      <trkpt lat="47.89805" lon="1.90374">
        <ele>101.1</ele>
        <time>2020-07-02T15:43:00Z</time>
      </trkpt>
      <trkpt lat="47.89804" lon="1.9038">
        <ele>101.3</ele>
        <time>2020-07-02T15:43:01Z</time>
      </trkpt>
      <trkpt lat="47.89804" lon="1.90386">
        <ele>101.4</ele>
        <time>2020-07-02T15:43:02Z</time>
      </trkpt>
      <trkpt lat="47.89803" lon="1.90392">
        <ele>101.6</ele>
        <time>2020-07-02T15:43:03Z</time>
      </trkpt>
      <trkpt lat="47.89802" lon="1.90398">
        <ele>101.8</ele>
        <time>2020-07-02T15:43:04Z</time>
      </trkpt>
      <trkpt lat="47.89802" lon="1.90404">
        <ele>101.8</ele>
        <time>2020-07-02T15:43:05Z</time>
      </trkpt>
      <trkpt lat="47.89801" lon="1.90408">
        <ele>101.8</ele>
        <time>2020-07-02T15:43:06Z</time>
      </trkpt>
      <trkpt lat="47.89801" lon="1.90413">
        <ele>102</ele>
        <time>2020-07-02T15:43:07Z</time>
      </trkpt>
      <trkpt lat="47.898" lon="1.90415">
        <ele>102</ele>
        <time>2020-07-02T15:43:08Z</time>
      </trkpt>
      <trkpt lat="47.89798" lon="1.90417">
        <ele>102</ele>
        <time>2020-07-02T15:43:09Z</time>
      </trkpt>
      <trkpt lat="47.89797" lon="1.90418">
        <ele>102</ele>
        <time>2020-07-02T15:43:10Z</time>
      </trkpt>
      <trkpt lat="47.89794" lon="1.90418">
        <ele>102</ele>
        <time>2020-07-02T15:43:11Z</time>
      </trkpt>
      <trkpt lat="47.89792" lon="1.90418">
        <ele>102</ele>
        <time>2020-07-02T15:43:12Z</time>
      </trkpt>
      <trkpt lat="47.8979" lon="1.90416">
        <ele>102</ele>
        <time>2020-07-02T15:43:13Z</time>
      </trkpt>
      <trkpt lat="47.89787" lon="1.90416">
        <ele>102</ele>
        <time>2020-07-02T15:43:14Z</time>
      </trkpt>
      <trkpt lat="47.89783" lon="1.90416">
        <ele>102</ele>
        <time>2020-07-02T15:43:15Z</time>
      </trkpt>
      <trkpt lat="47.8978" lon="1.90416">
        <ele>102</ele>
        <time>2020-07-02T15:43:16Z</time>
      </trkpt>
      <trkpt lat="47.89777" lon="1.90417">
        <ele>101.9</ele>
        <time>2020-07-02T15:43:17Z</time>
      </trkpt>
      <trkpt lat="47.89775" lon="1.90417">
        <ele>101.9</ele>
        <time>2020-07-02T15:43:18Z</time>
      </trkpt>
      <trkpt lat="47.89772" lon="1.90417">
        <ele>101.9</ele>
        <time>2020-07-02T15:43:19Z</time>
      </trkpt>
      <trkpt lat="47.89768" lon="1.90418">
        <ele>101.9</ele>
        <time>2020-07-02T15:43:20Z</time>
      </trkpt>
      <trkpt lat="47.89765" lon="1.90418">
        <ele>101.9</ele>
        <time>2020-07-02T15:43:21Z</time>
      </trkpt>
      <trkpt lat="47.89761" lon="1.90419">
        <ele>102</ele>
        <time>2020-07-02T15:43:22Z</time>
      </trkpt>
      <trkpt lat="47.89758" lon="1.9042">
        <ele>102</ele>
        <time>2020-07-02T15:43:23Z</time>
      </trkpt>
      <trkpt lat="47.89754" lon="1.9042">
        <ele>102.1</ele>
        <time>2020-07-02T15:43:24Z</time>
      </trkpt>
      <trkpt lat="47.89751" lon="1.9042">
        <ele>102.1</ele>
        <time>2020-07-02T15:43:25Z</time>
      </trkpt>
      <trkpt lat="47.89747" lon="1.90421">
        <ele>102.1</ele>
        <time>2020-07-02T15:43:26Z</time>
      </trkpt>
      <trkpt lat="47.89743" lon="1.90421">
        <ele>102.2</ele>
        <time>2020-07-02T15:43:27Z</time>
      </trkpt>
      <trkpt lat="47.89738" lon="1.90422">
        <ele>102.2</ele>
        <time>2020-07-02T15:43:28Z</time>
      </trkpt>
      <trkpt lat="47.89734" lon="1.90421">
        <ele>102.3</ele>
        <time>2020-07-02T15:43:29Z</time>
      </trkpt>
      <trkpt lat="47.8973" lon="1.90421">
        <ele>102.3</ele>
        <time>2020-07-02T15:43:30Z</time>
      </trkpt>
      <trkpt lat="47.89727" lon="1.90421">
        <ele>102.4</ele>
        <time>2020-07-02T15:43:31Z</time>
      </trkpt>
      <trkpt lat="47.89724" lon="1.90421">
        <ele>102.4</ele>
        <time>2020-07-02T15:43:32Z</time>
      </trkpt>
      <trkpt lat="47.89721" lon="1.90421">
        <ele>102.4</ele>
        <time>2020-07-02T15:43:33Z</time>
      </trkpt>
      <trkpt lat="47.89717" lon="1.90421">
        <ele>102.5</ele>
        <time>2020-07-02T15:43:34Z</time>
      </trkpt>
      <trkpt lat="47.89713" lon="1.90421">
        <ele>102.5</ele>
        <time>2020-07-02T15:43:35Z</time>
      </trkpt>
      <trkpt lat="47.89708" lon="1.90422">
        <ele>102.5</ele>
        <time>2020-07-02T15:43:36Z</time>
      </trkpt>
      <trkpt lat="47.89704" lon="1.90422">
        <ele>102.5</ele>
        <time>2020-07-02T15:43:37Z</time>
      </trkpt>
      <trkpt lat="47.89699" lon="1.90422">
        <ele>102.5</ele>
        <time>2020-07-02T15:43:38Z</time>
      </trkpt>
      <trkpt lat="47.89694" lon="1.90421">
        <ele>102.5</ele>
        <time>2020-07-02T15:43:39Z</time>
      </trkpt>
      <trkpt lat="47.8969" lon="1.90423">
        <ele>102.5</ele>
        <time>2020-07-02T15:43:40Z</time>
      </trkpt>
      <trkpt lat="47.89686" lon="1.90423">
        <ele>102.5</ele>
        <time>2020-07-02T15:43:41Z</time>
      </trkpt>
      <trkpt lat="47.8968" lon="1.90423">
        <ele>102.5</ele>
        <time>2020-07-02T15:43:42Z</time>
      </trkpt>
      <trkpt lat="47.89675" lon="1.90424">
        <ele>102.5</ele>
        <time>2020-07-02T15:43:43Z</time>
      </trkpt>
      <trkpt lat="47.89669" lon="1.90425">
        <ele>102.4</ele>
        <time>2020-07-02T15:43:44Z</time>
      </trkpt>
      <trkpt lat="47.89664" lon="1.90425">
        <ele>102.4</ele>
        <time>2020-07-02T15:43:45Z</time>
      </trkpt>
      <trkpt lat="47.89659" lon="1.90425">
        <ele>102.4</ele>
        <time>2020-07-02T15:43:46Z</time>
      </trkpt>
      <trkpt lat="47.89654" lon="1.90425">
        <ele>102.4</ele>
        <time>2020-07-02T15:43:47Z</time>
      </trkpt>
      <trkpt lat="47.89649" lon="1.90425">
        <ele>102.4</ele>
        <time>2020-07-02T15:43:48Z</time>
      </trkpt>
      <trkpt lat="47.89645" lon="1.90426">
        <ele>102.4</ele>
        <time>2020-07-02T15:43:49Z</time>
      </trkpt>
      <trkpt lat="47.8964" lon="1.90426">
        <ele>102.3</ele>
        <time>2020-07-02T15:43:50Z</time>
      </trkpt>
      <trkpt lat="47.89635" lon="1.90427">
        <ele>102.3</ele>
        <time>2020-07-02T15:43:51Z</time>
      </trkpt>
      <trkpt lat="47.8963" lon="1.90427">
        <ele>102.3</ele>
        <time>2020-07-02T15:43:52Z</time>
      </trkpt>
      <trkpt lat="47.89625" lon="1.90428">
        <ele>102.2</ele>
        <time>2020-07-02T15:43:53Z</time>
      </trkpt>
      <trkpt lat="47.8962" lon="1.90429">
        <ele>102.2</ele>
        <time>2020-07-02T15:43:54Z</time>
      </trkpt>
      <trkpt lat="47.89615" lon="1.9043">
        <ele>102.2</ele>
        <time>2020-07-02T15:43:55Z</time>
      </trkpt>
      <trkpt lat="47.89609" lon="1.90431">
        <ele>102.1</ele>
        <time>2020-07-02T15:43:56Z</time>
      </trkpt>
      <trkpt lat="47.89603" lon="1.90432">
        <ele>102.1</ele>
        <time>2020-07-02T15:43:57Z</time>
      </trkpt>
      <trkpt lat="47.89597" lon="1.90433">
        <ele>102</ele>
        <time>2020-07-02T15:43:58Z</time>
      </trkpt>
      <trkpt lat="47.89591" lon="1.90436">
        <ele>102</ele>
        <time>2020-07-02T15:43:59Z</time>
      </trkpt>
      <trkpt lat="47.89584" lon="1.90436">
        <ele>101.9</ele>
        <time>2020-07-02T15:44:00Z</time>
      </trkpt>
      <trkpt lat="47.89579" lon="1.90435">
        <ele>101.9</ele>
        <time>2020-07-02T15:44:01Z</time>
      </trkpt>
      <trkpt lat="47.89574" lon="1.90436">
        <ele>101.8</ele>
        <time>2020-07-02T15:44:02Z</time>
      </trkpt>
      <trkpt lat="47.89568" lon="1.90437">
        <ele>101.8</ele>
        <time>2020-07-02T15:44:03Z</time>
      </trkpt>
      <trkpt lat="47.89562" lon="1.90439">
        <ele>101.8</ele>
        <time>2020-07-02T15:44:04Z</time>
      </trkpt>
      <trkpt lat="47.89557" lon="1.90439">
        <ele>101.7</ele>
        <time>2020-07-02T15:44:05Z</time>
      </trkpt>
      <trkpt lat="47.89551" lon="1.90439">
        <ele>101.7</ele>
        <time>2020-07-02T15:44:06Z</time>
      </trkpt>
      <trkpt lat="47.89546" lon="1.9044">
        <ele>101.6</ele>
        <time>2020-07-02T15:44:07Z</time>
      </trkpt>
      <trkpt lat="47.89541" lon="1.9044">
        <ele>101.6</ele>
        <time>2020-07-02T15:44:08Z</time>
      </trkpt>
      <trkpt lat="47.89536" lon="1.90441">
        <ele>101.5</ele>
        <time>2020-07-02T15:44:09Z</time>
      </trkpt>
      <trkpt lat="47.89531" lon="1.90441">
        <ele>101.5</ele>
        <time>2020-07-02T15:44:10Z</time>
      </trkpt>
      <trkpt lat="47.89526" lon="1.90441">
        <ele>101.6</ele>
        <time>2020-07-02T15:44:11Z</time>
      </trkpt>
      <trkpt lat="47.89521" lon="1.90441">
        <ele>101.6</ele>
        <time>2020-07-02T15:44:12Z</time>
      </trkpt>
      <trkpt lat="47.89517" lon="1.90441">
        <ele>101.6</ele>
        <time>2020-07-02T15:44:13Z</time>
      </trkpt>
      <trkpt lat="47.89513" lon="1.90442">
        <ele>101.7</ele>
        <time>2020-07-02T15:44:14Z</time>
      </trkpt>
      <trkpt lat="47.89509" lon="1.90442">
        <ele>101.8</ele>
        <time>2020-07-02T15:44:15Z</time>
      </trkpt>
      <trkpt lat="47.89506" lon="1.90443">
        <ele>101.8</ele>
        <time>2020-07-02T15:44:16Z</time>
      </trkpt>
      <trkpt lat="47.89502" lon="1.90444">
        <ele>101.9</ele>
        <time>2020-07-02T15:44:17Z</time>
      </trkpt>
      <trkpt lat="47.895" lon="1.90446">
        <ele>101.8</ele>
        <time>2020-07-02T15:44:18Z</time>
      </trkpt>
      <trkpt lat="47.89497" lon="1.90447">
        <ele>101.7</ele>
        <time>2020-07-02T15:44:19Z</time>
      </trkpt>
      <trkpt lat="47.89494" lon="1.90447">
        <ele>101.6</ele>
        <time>2020-07-02T15:44:20Z</time>
      </trkpt>
      <trkpt lat="47.8949" lon="1.90447">
        <ele>101.6</ele>
        <time>2020-07-02T15:44:21Z</time>
      </trkpt>
      <trkpt lat="47.89489" lon="1.90446">
        <ele>101.5</ele>
        <time>2020-07-02T15:44:22Z</time>
      </trkpt>
      <trkpt lat="47.89486" lon="1.90446">
        <ele>101.5</ele>
        <time>2020-07-02T15:44:23Z</time>
      </trkpt>
      <trkpt lat="47.89486" lon="1.90447">
        <ele>101.4</ele>
        <time>2020-07-02T15:44:24Z</time>
      </trkpt>
      <trkpt lat="47.89485" lon="1.90449">
        <ele>101.4</ele>
        <time>2020-07-02T15:44:25Z</time>
      </trkpt>
      <trkpt lat="47.89485" lon="1.90451">
        <ele>101.2</ele>
        <time>2020-07-02T15:44:26Z</time>
      </trkpt>
      <trkpt lat="47.89485" lon="1.90452">
        <ele>101.2</ele>
        <time>2020-07-02T15:44:27Z</time>
      </trkpt>
      <trkpt lat="47.89485" lon="1.90454">
        <ele>101.1</ele>
        <time>2020-07-02T15:44:28Z</time>
      </trkpt>
      <trkpt lat="47.89485" lon="1.90458">
        <ele>101</ele>
        <time>2020-07-02T15:44:29Z</time>
      </trkpt>
      <trkpt lat="47.89485" lon="1.90459">
        <ele>101</ele>
        <time>2020-07-02T15:44:30Z</time>
      </trkpt>
      <trkpt lat="47.89483" lon="1.90464">
        <ele>100.5</ele>
        <time>2020-07-02T15:44:31Z</time>
      </trkpt>
      <trkpt lat="47.89483" lon="1.90467">
        <ele>100.4</ele>
        <time>2020-07-02T15:44:32Z</time>
      </trkpt>
      <trkpt lat="47.89483" lon="1.90471">
        <ele>100.3</ele>
        <time>2020-07-02T15:44:33Z</time>
      </trkpt>
      <trkpt lat="47.89482" lon="1.90476">
        <ele>100.2</ele>
        <time>2020-07-02T15:44:34Z</time>
      </trkpt>
      <trkpt lat="47.89483" lon="1.90481">
        <ele>99.8</ele>
        <time>2020-07-02T15:44:35Z</time>
      </trkpt>
      <trkpt lat="47.89483" lon="1.90487">
        <ele>99.5</ele>
        <time>2020-07-02T15:44:36Z</time>
      </trkpt>
      <trkpt lat="47.89483" lon="1.90494">
        <ele>99.2</ele>
        <time>2020-07-02T15:44:37Z</time>
      </trkpt>
      <trkpt lat="47.89483" lon="1.90499">
        <ele>98.9</ele>
        <time>2020-07-02T15:44:38Z</time>
      </trkpt>
      <trkpt lat="47.89483" lon="1.90506">
        <ele>98.6</ele>
        <time>2020-07-02T15:44:39Z</time>
      </trkpt>
      <trkpt lat="47.89484" lon="1.90513">
        <ele>98.3</ele>
        <time>2020-07-02T15:44:40Z</time>
      </trkpt>
      <trkpt lat="47.89485" lon="1.90519">
        <ele>98</ele>
        <time>2020-07-02T15:44:41Z</time>
      </trkpt>
      <trkpt lat="47.89486" lon="1.90526">
        <ele>97.9</ele>
        <time>2020-07-02T15:44:42Z</time>
      </trkpt>
      <trkpt lat="47.89486" lon="1.90533">
        <ele>97.8</ele>
        <time>2020-07-02T15:44:43Z</time>
      </trkpt>
      <trkpt lat="47.89486" lon="1.90539">
        <ele>97.7</ele>
        <time>2020-07-02T15:44:44Z</time>
      </trkpt>
      <trkpt lat="47.89486" lon="1.90545">
        <ele>97.5</ele>
        <time>2020-07-02T15:44:45Z</time>
      </trkpt>
      <trkpt lat="47.89486" lon="1.90552">
        <ele>97.4</ele>
        <time>2020-07-02T15:44:46Z</time>
      </trkpt>
      <trkpt lat="47.89486" lon="1.90559">
        <ele>97.2</ele>
        <time>2020-07-02T15:44:47Z</time>
      </trkpt>
      <trkpt lat="47.89487" lon="1.90566">
        <ele>97.1</ele>
        <time>2020-07-02T15:44:48Z</time>
      </trkpt>
      <trkpt lat="47.89487" lon="1.90572">
        <ele>97</ele>
        <time>2020-07-02T15:44:49Z</time>
      </trkpt>
      <trkpt lat="47.89487" lon="1.90578">
        <ele>96.9</ele>
        <time>2020-07-02T15:44:50Z</time>
      </trkpt>
      <trkpt lat="47.89486" lon="1.90582">
        <ele>96.8</ele>
        <time>2020-07-02T15:44:51Z</time>
      </trkpt>
      <trkpt lat="47.89486" lon="1.90586">
        <ele>96.8</ele>
        <time>2020-07-02T15:44:52Z</time>
      </trkpt>
      <trkpt lat="47.89485" lon="1.90592">
        <ele>96.7</ele>
        <time>2020-07-02T15:44:53Z</time>
      </trkpt>
      <trkpt lat="47.89485" lon="1.90594">
        <ele>96.7</ele>
        <time>2020-07-02T15:44:54Z</time>
      </trkpt>
      <trkpt lat="47.89485" lon="1.90598">
        <ele>96.7</ele>
        <time>2020-07-02T15:44:55Z</time>
      </trkpt>
      <trkpt lat="47.89485" lon="1.90599">
        <ele>96.7</ele>
        <time>2020-07-02T15:44:56Z</time>
      </trkpt>
      <trkpt lat="47.89485" lon="1.90601">
        <ele>96.6</ele>
        <time>2020-07-02T15:44:57Z</time>
      </trkpt>
      <trkpt lat="47.89485" lon="1.90601">
        <ele>96.6</ele>
        <time>2020-07-02T15:44:58Z</time>
      </trkpt>
      <trkpt lat="47.89485" lon="1.90602">
        <ele>96.6</ele>
        <time>2020-07-02T15:44:59Z</time>
      </trkpt>
      <trkpt lat="47.89485" lon="1.90604">
        <ele>96.6</ele>
        <time>2020-07-02T15:45:00Z</time>
      </trkpt>
      <trkpt lat="47.89485" lon="1.90609">
        <ele>96.6</ele>
        <time>2020-07-02T15:45:01Z</time>
      </trkpt>
      <trkpt lat="47.89485" lon="1.90611">
        <ele>96.5</ele>
        <time>2020-07-02T15:45:02Z</time>
      </trkpt>
      <trkpt lat="47.89486" lon="1.90616">
        <ele>96.5</ele>
        <time>2020-07-02T15:45:03Z</time>
      </trkpt>
      <trkpt lat="47.89486" lon="1.90618">
        <ele>96.5</ele>
        <time>2020-07-02T15:45:04Z</time>
      </trkpt>
      <trkpt lat="47.89486" lon="1.90623">
        <ele>96.4</ele>
        <time>2020-07-02T15:45:05Z</time>
      </trkpt>
      <trkpt lat="47.89486" lon="1.90625">
        <ele>96.4</ele>
        <time>2020-07-02T15:45:06Z</time>
      </trkpt>
      <trkpt lat="47.89485" lon="1.9063">
        <ele>96.4</ele>
        <time>2020-07-02T15:45:07Z</time>
      </trkpt>
      <trkpt lat="47.89484" lon="1.90631">
        <ele>96.4</ele>
        <time>2020-07-02T15:45:08Z</time>
      </trkpt>
      <trkpt lat="47.89483" lon="1.90635">
        <ele>96.3</ele>
        <time>2020-07-02T15:45:09Z</time>
      </trkpt>
      <trkpt lat="47.89482" lon="1.90636">
        <ele>96.3</ele>
        <time>2020-07-02T15:45:10Z</time>
      </trkpt>
      <trkpt lat="47.89482" lon="1.90639">
        <ele>96.3</ele>
        <time>2020-07-02T15:45:11Z</time>
      </trkpt>
      <trkpt lat="47.89482" lon="1.9064">
        <ele>96.3</ele>
        <time>2020-07-02T15:45:12Z</time>
      </trkpt>
      <trkpt lat="47.89482" lon="1.90641">
        <ele>96.3</ele>
        <time>2020-07-02T15:45:13Z</time>
      </trkpt>
      <trkpt lat="47.89482" lon="1.90642">
        <ele>96.3</ele>
        <time>2020-07-02T15:45:14Z</time>
      </trkpt>
      <trkpt lat="47.89482" lon="1.90643">
        <ele>96.2</ele>
        <time>2020-07-02T15:45:15Z</time>
      </trkpt>
      <trkpt lat="47.89482" lon="1.90645">
        <ele>96.2</ele>
        <time>2020-07-02T15:45:16Z</time>
      </trkpt>
      <trkpt lat="47.89482" lon="1.90646">
        <ele>96.2</ele>
        <time>2020-07-02T15:45:17Z</time>
      </trkpt>
      <trkpt lat="47.89483" lon="1.90648">
        <ele>96.2</ele>
        <time>2020-07-02T15:45:18Z</time>
      </trkpt>
      <trkpt lat="47.89484" lon="1.90651">
        <ele>96.2</ele>
        <time>2020-07-02T15:45:19Z</time>
      </trkpt>
      <trkpt lat="47.89484" lon="1.90656">
        <ele>96.2</ele>
        <time>2020-07-02T15:45:20Z</time>
      </trkpt>
      <trkpt lat="47.89483" lon="1.90658">
        <ele>96.1</ele>
        <time>2020-07-02T15:45:21Z</time>
      </trkpt>
      <trkpt lat="47.89483" lon="1.90664">
        <ele>96.1</ele>
        <time>2020-07-02T15:45:22Z</time>
      </trkpt>
      <trkpt lat="47.89482" lon="1.90666">
        <ele>96.1</ele>
        <time>2020-07-02T15:45:23Z</time>
      </trkpt>
      <trkpt lat="47.89481" lon="1.90669">
        <ele>95.9</ele>
        <time>2020-07-02T15:45:24Z</time>
      </trkpt>
      <trkpt lat="47.89481" lon="1.9067">
        <ele>95.9</ele>
        <time>2020-07-02T15:45:25Z</time>
      </trkpt>
      <trkpt lat="47.8948" lon="1.90671">
        <ele>95.9</ele>
        <time>2020-07-02T15:45:26Z</time>
      </trkpt>
      <trkpt lat="47.8948" lon="1.90672">
        <ele>95.9</ele>
        <time>2020-07-02T15:45:27Z</time>
      </trkpt>
      <trkpt lat="47.8948" lon="1.90673">
        <ele>95.9</ele>
        <time>2020-07-02T15:45:28Z</time>
      </trkpt>
      <trkpt lat="47.8948" lon="1.90675">
        <ele>95.9</ele>
        <time>2020-07-02T15:45:29Z</time>
      </trkpt>
      <trkpt lat="47.89478" lon="1.90679">
        <ele>95.9</ele>
        <time>2020-07-02T15:45:30Z</time>
      </trkpt>
      <trkpt lat="47.89478" lon="1.9068">
        <ele>95.9</ele>
        <time>2020-07-02T15:45:31Z</time>
      </trkpt>
      <trkpt lat="47.89478" lon="1.90685">
        <ele>95.9</ele>
        <time>2020-07-02T15:45:32Z</time>
      </trkpt>
      <trkpt lat="47.89478" lon="1.90691">
        <ele>95.8</ele>
        <time>2020-07-02T15:45:33Z</time>
      </trkpt>
      <trkpt lat="47.89478" lon="1.907">
        <ele>95.8</ele>
        <time>2020-07-02T15:45:34Z</time>
      </trkpt>
      <trkpt lat="47.89477" lon="1.90708">
        <ele>95.8</ele>
        <time>2020-07-02T15:45:35Z</time>
      </trkpt>
      <trkpt lat="47.89476" lon="1.90718">
        <ele>95.8</ele>
        <time>2020-07-02T15:45:36Z</time>
      </trkpt>
      <trkpt lat="47.89475" lon="1.90727">
        <ele>95.8</ele>
        <time>2020-07-02T15:45:37Z</time>
      </trkpt>
      <trkpt lat="47.89475" lon="1.90736">
        <ele>95.8</ele>
        <time>2020-07-02T15:45:38Z</time>
      </trkpt>
      <trkpt lat="47.89474" lon="1.90745">
        <ele>95.8</ele>
        <time>2020-07-02T15:45:39Z</time>
      </trkpt>
      <trkpt lat="47.89474" lon="1.90755">
        <ele>95.8</ele>
        <time>2020-07-02T15:45:40Z</time>
      </trkpt>
      <trkpt lat="47.89472" lon="1.90764">
        <ele>95.9</ele>
        <time>2020-07-02T15:45:41Z</time>
      </trkpt>
      <trkpt lat="47.89471" lon="1.90773">
        <ele>95.9</ele>
        <time>2020-07-02T15:45:42Z</time>
      </trkpt>
      <trkpt lat="47.89471" lon="1.90781">
        <ele>96</ele>
        <time>2020-07-02T15:45:43Z</time>
      </trkpt>
      <trkpt lat="47.8947" lon="1.9079">
        <ele>96</ele>
        <time>2020-07-02T15:45:44Z</time>
      </trkpt>
      <trkpt lat="47.8947" lon="1.908">
        <ele>96</ele>
        <time>2020-07-02T15:45:45Z</time>
      </trkpt>
      <trkpt lat="47.8947" lon="1.9081">
        <ele>96.1</ele>
        <time>2020-07-02T15:45:46Z</time>
      </trkpt>
      <trkpt lat="47.89469" lon="1.9082">
        <ele>96</ele>
        <time>2020-07-02T15:45:47Z</time>
      </trkpt>
      <trkpt lat="47.89469" lon="1.90829">
        <ele>96</ele>
        <time>2020-07-02T15:45:48Z</time>
      </trkpt>
      <trkpt lat="47.89469" lon="1.90838">
        <ele>96</ele>
        <time>2020-07-02T15:45:49Z</time>
      </trkpt>
      <trkpt lat="47.89469" lon="1.90847">
        <ele>96</ele>
        <time>2020-07-02T15:45:50Z</time>
      </trkpt>
      <trkpt lat="47.89468" lon="1.90857">
        <ele>96</ele>
        <time>2020-07-02T15:45:51Z</time>
      </trkpt>
      <trkpt lat="47.89467" lon="1.90865">
        <ele>96</ele>
        <time>2020-07-02T15:45:52Z</time>
      </trkpt>
      <trkpt lat="47.89467" lon="1.90874">
        <ele>96</ele>
        <time>2020-07-02T15:45:53Z</time>
      </trkpt>
      <trkpt lat="47.89466" lon="1.90884">
        <ele>96</ele>
        <time>2020-07-02T15:45:54Z</time>
      </trkpt>
      <trkpt lat="47.89466" lon="1.90893">
        <ele>96</ele>
        <time>2020-07-02T15:45:55Z</time>
      </trkpt>
      <trkpt lat="47.89466" lon="1.90902">
        <ele>96</ele>
        <time>2020-07-02T15:45:56Z</time>
      </trkpt>
      <trkpt lat="47.89466" lon="1.90912">
        <ele>96</ele>
        <time>2020-07-02T15:45:57Z</time>
      </trkpt>
      <trkpt lat="47.89465" lon="1.9092">
        <ele>96</ele>
        <time>2020-07-02T15:45:58Z</time>
      </trkpt>
      <trkpt lat="47.89464" lon="1.90929">
        <ele>96</ele>
        <time>2020-07-02T15:45:59Z</time>
      </trkpt>
      <trkpt lat="47.89464" lon="1.90939">
        <ele>96</ele>
        <time>2020-07-02T15:46:00Z</time>
      </trkpt>
      <trkpt lat="47.89463" lon="1.90949">
        <ele>96.1</ele>
        <time>2020-07-02T15:46:01Z</time>
      </trkpt>
      <trkpt lat="47.89462" lon="1.90959">
        <ele>96.1</ele>
        <time>2020-07-02T15:46:02Z</time>
      </trkpt>
      <trkpt lat="47.89461" lon="1.90969">
        <ele>96.1</ele>
        <time>2020-07-02T15:46:03Z</time>
      </trkpt>
      <trkpt lat="47.89461" lon="1.90979">
        <ele>96.1</ele>
        <time>2020-07-02T15:46:04Z</time>
      </trkpt>
      <trkpt lat="47.89461" lon="1.90987">
        <ele>96.1</ele>
        <time>2020-07-02T15:46:05Z</time>
      </trkpt>
      <trkpt lat="47.8946" lon="1.90996">
        <ele>96.1</ele>
        <time>2020-07-02T15:46:06Z</time>
      </trkpt>
      <trkpt lat="47.8946" lon="1.91006">
        <ele>96.2</ele>
        <time>2020-07-02T15:46:07Z</time>
      </trkpt>
      <trkpt lat="47.8946" lon="1.91016">
        <ele>96.2</ele>
        <time>2020-07-02T15:46:08Z</time>
      </trkpt>
      <trkpt lat="47.89459" lon="1.91026">
        <ele>96.2</ele>
        <time>2020-07-02T15:46:09Z</time>
      </trkpt>
      <trkpt lat="47.89459" lon="1.91035">
        <ele>96.3</ele>
        <time>2020-07-02T15:46:10Z</time>
      </trkpt>
      <trkpt lat="47.89458" lon="1.91044">
        <ele>96.4</ele>
        <time>2020-07-02T15:46:11Z</time>
      </trkpt>
      <trkpt lat="47.89458" lon="1.91053">
        <ele>96.4</ele>
        <time>2020-07-02T15:46:12Z</time>
      </trkpt>
      <trkpt lat="47.89458" lon="1.91062">
        <ele>96.4</ele>
        <time>2020-07-02T15:46:13Z</time>
      </trkpt>
      <trkpt lat="47.89457" lon="1.91071">
        <ele>96.4</ele>
        <time>2020-07-02T15:46:14Z</time>
      </trkpt>
      <trkpt lat="47.89455" lon="1.9108">
        <ele>96.4</ele>
        <time>2020-07-02T15:46:15Z</time>
      </trkpt>
      <trkpt lat="47.89455" lon="1.9109">
        <ele>96.4</ele>
        <time>2020-07-02T15:46:16Z</time>
      </trkpt>
      <trkpt lat="47.89454" lon="1.91099">
        <ele>96.4</ele>
        <time>2020-07-02T15:46:17Z</time>
      </trkpt>
      <trkpt lat="47.89453" lon="1.91109">
        <ele>96.3</ele>
        <time>2020-07-02T15:46:18Z</time>
      </trkpt>
      <trkpt lat="47.89452" lon="1.91118">
        <ele>96.3</ele>
        <time>2020-07-02T15:46:19Z</time>
      </trkpt>
      <trkpt lat="47.89451" lon="1.91127">
        <ele>96.4</ele>
        <time>2020-07-02T15:46:20Z</time>
      </trkpt>
      <trkpt lat="47.8945" lon="1.91136">
        <ele>96.4</ele>
        <time>2020-07-02T15:46:21Z</time>
      </trkpt>
      <trkpt lat="47.89449" lon="1.91145">
        <ele>96.4</ele>
        <time>2020-07-02T15:46:22Z</time>
      </trkpt>
      <trkpt lat="47.89449" lon="1.91153">
        <ele>96.4</ele>
        <time>2020-07-02T15:46:23Z</time>
      </trkpt>
      <trkpt lat="47.89448" lon="1.91161">
        <ele>96.4</ele>
        <time>2020-07-02T15:46:24Z</time>
      </trkpt>
      <trkpt lat="47.89447" lon="1.91169">
        <ele>96.4</ele>
        <time>2020-07-02T15:46:25Z</time>
      </trkpt>
      <trkpt lat="47.89447" lon="1.91177">
        <ele>96.4</ele>
        <time>2020-07-02T15:46:26Z</time>
      </trkpt>
      <trkpt lat="47.89446" lon="1.91185">
        <ele>96.4</ele>
        <time>2020-07-02T15:46:27Z</time>
      </trkpt>
      <trkpt lat="47.89446" lon="1.91194">
        <ele>96.4</ele>
        <time>2020-07-02T15:46:28Z</time>
      </trkpt>
      <trkpt lat="47.89445" lon="1.91203">
        <ele>96.3</ele>
        <time>2020-07-02T15:46:29Z</time>
      </trkpt>
      <trkpt lat="47.89445" lon="1.91212">
        <ele>96.3</ele>
        <time>2020-07-02T15:46:30Z</time>
      </trkpt>
      <trkpt lat="47.89445" lon="1.9122">
        <ele>96.3</ele>
        <time>2020-07-02T15:46:31Z</time>
      </trkpt>
      <trkpt lat="47.89444" lon="1.91227">
        <ele>96.3</ele>
        <time>2020-07-02T15:46:32Z</time>
      </trkpt>
      <trkpt lat="47.89443" lon="1.91237">
        <ele>96.3</ele>
        <time>2020-07-02T15:46:33Z</time>
      </trkpt>
      <trkpt lat="47.89443" lon="1.91246">
        <ele>96.3</ele>
        <time>2020-07-02T15:46:34Z</time>
      </trkpt>
      <trkpt lat="47.89441" lon="1.91255">
        <ele>96.3</ele>
        <time>2020-07-02T15:46:35Z</time>
      </trkpt>
      <trkpt lat="47.8944" lon="1.91263">
        <ele>96.3</ele>
        <time>2020-07-02T15:46:36Z</time>
      </trkpt>
      <trkpt lat="47.89439" lon="1.91272">
        <ele>96.3</ele>
        <time>2020-07-02T15:46:37Z</time>
      </trkpt>
      <trkpt lat="47.89437" lon="1.9128">
        <ele>96.2</ele>
        <time>2020-07-02T15:46:38Z</time>
      </trkpt>
      <trkpt lat="47.89434" lon="1.91289">
        <ele>96.1</ele>
        <time>2020-07-02T15:46:39Z</time>
      </trkpt>
      <trkpt lat="47.89431" lon="1.91298">
        <ele>96</ele>
        <time>2020-07-02T15:46:40Z</time>
      </trkpt>
      <trkpt lat="47.89429" lon="1.91307">
        <ele>96</ele>
        <time>2020-07-02T15:46:41Z</time>
      </trkpt>
      <trkpt lat="47.89425" lon="1.91316">
        <ele>96</ele>
        <time>2020-07-02T15:46:42Z</time>
      </trkpt>
      <trkpt lat="47.89422" lon="1.91325">
        <ele>96</ele>
        <time>2020-07-02T15:46:43Z</time>
      </trkpt>
      <trkpt lat="47.89419" lon="1.91333">
        <ele>95.9</ele>
        <time>2020-07-02T15:46:44Z</time>
      </trkpt>
      <trkpt lat="47.89416" lon="1.91342">
        <ele>95.9</ele>
        <time>2020-07-02T15:46:45Z</time>
      </trkpt>
      <trkpt lat="47.89414" lon="1.91349">
        <ele>95.9</ele>
        <time>2020-07-02T15:46:46Z</time>
      </trkpt>
      <trkpt lat="47.89411" lon="1.91356">
        <ele>95.9</ele>
        <time>2020-07-02T15:46:47Z</time>
      </trkpt>
      <trkpt lat="47.89407" lon="1.91364">
        <ele>95.9</ele>
        <time>2020-07-02T15:46:48Z</time>
      </trkpt>
      <trkpt lat="47.89402" lon="1.91371">
        <ele>95.9</ele>
        <time>2020-07-02T15:46:49Z</time>
      </trkpt>
      <trkpt lat="47.89398" lon="1.91379">
        <ele>95.9</ele>
        <time>2020-07-02T15:46:50Z</time>
      </trkpt>
      <trkpt lat="47.89394" lon="1.91387">
        <ele>95.9</ele>
        <time>2020-07-02T15:46:51Z</time>
      </trkpt>
      <trkpt lat="47.89391" lon="1.91395">
        <ele>95.9</ele>
        <time>2020-07-02T15:46:52Z</time>
      </trkpt>
      <trkpt lat="47.89387" lon="1.91404">
        <ele>96</ele>
        <time>2020-07-02T15:46:53Z</time>
      </trkpt>
      <trkpt lat="47.89383" lon="1.91415">
        <ele>96</ele>
        <time>2020-07-02T15:46:54Z</time>
      </trkpt>
      <trkpt lat="47.8938" lon="1.91422">
        <ele>96</ele>
        <time>2020-07-02T15:46:55Z</time>
      </trkpt>
      <trkpt lat="47.89378" lon="1.9143">
        <ele>96</ele>
        <time>2020-07-02T15:46:56Z</time>
      </trkpt>
      <trkpt lat="47.89375" lon="1.91437">
        <ele>96</ele>
        <time>2020-07-02T15:46:57Z</time>
      </trkpt>
      <trkpt lat="47.89371" lon="1.91447">
        <ele>96</ele>
        <time>2020-07-02T15:46:58Z</time>
      </trkpt>
      <trkpt lat="47.89368" lon="1.91455">
        <ele>95.9</ele>
        <time>2020-07-02T15:46:59Z</time>
      </trkpt>
      <trkpt lat="47.89366" lon="1.91462">
        <ele>95.9</ele>
        <time>2020-07-02T15:47:00Z</time>
      </trkpt>
      <trkpt lat="47.89363" lon="1.91472">
        <ele>95.9</ele>
        <time>2020-07-02T15:47:01Z</time>
      </trkpt>
      <trkpt lat="47.8936" lon="1.91481">
        <ele>95.8</ele>
        <time>2020-07-02T15:47:02Z</time>
      </trkpt>
      <trkpt lat="47.89357" lon="1.91489">
        <ele>95.8</ele>
        <time>2020-07-02T15:47:03Z</time>
      </trkpt>
      <trkpt lat="47.89354" lon="1.91496">
        <ele>95.8</ele>
        <time>2020-07-02T15:47:04Z</time>
      </trkpt>
      <trkpt lat="47.89351" lon="1.91504">
        <ele>95.8</ele>
        <time>2020-07-02T15:47:05Z</time>
      </trkpt>
      <trkpt lat="47.89347" lon="1.9151">
        <ele>95.8</ele>
        <time>2020-07-02T15:47:06Z</time>
      </trkpt>
      <trkpt lat="47.89345" lon="1.91516">
        <ele>95.8</ele>
        <time>2020-07-02T15:47:07Z</time>
      </trkpt>
      <trkpt lat="47.89344" lon="1.91522">
        <ele>95.8</ele>
        <time>2020-07-02T15:47:08Z</time>
      </trkpt>
      <trkpt lat="47.89343" lon="1.91528">
        <ele>95.7</ele>
        <time>2020-07-02T15:47:09Z</time>
      </trkpt>
      <trkpt lat="47.8934" lon="1.91534">
        <ele>95.7</ele>
        <time>2020-07-02T15:47:10Z</time>
      </trkpt>
      <trkpt lat="47.89338" lon="1.91539">
        <ele>95.6</ele>
        <time>2020-07-02T15:47:11Z</time>
      </trkpt>
      <trkpt lat="47.89336" lon="1.91545">
        <ele>95.6</ele>
        <time>2020-07-02T15:47:12Z</time>
      </trkpt>
      <trkpt lat="47.89334" lon="1.91551">
        <ele>95.5</ele>
        <time>2020-07-02T15:47:13Z</time>
      </trkpt>
      <trkpt lat="47.89332" lon="1.91556">
        <ele>95.5</ele>
        <time>2020-07-02T15:47:14Z</time>
      </trkpt>
      <trkpt lat="47.8933" lon="1.91561">
        <ele>95.4</ele>
        <time>2020-07-02T15:47:15Z</time>
      </trkpt>
      <trkpt lat="47.8933" lon="1.91563">
        <ele>95.4</ele>
        <time>2020-07-02T15:47:16Z</time>
      </trkpt>
      <trkpt lat="47.89329" lon="1.91565">
        <ele>95.4</ele>
        <time>2020-07-02T15:47:17Z</time>
      </trkpt>
      <trkpt lat="47.89328" lon="1.91567">
        <ele>95.4</ele>
        <time>2020-07-02T15:47:18Z</time>
      </trkpt>
      <trkpt lat="47.89327" lon="1.91571">
        <ele>95.4</ele>
        <time>2020-07-02T15:47:19Z</time>
      </trkpt>
      <trkpt lat="47.89326" lon="1.91572">
        <ele>95.4</ele>
        <time>2020-07-02T15:47:20Z</time>
      </trkpt>
      <trkpt lat="47.89325" lon="1.91574">
        <ele>95.4</ele>
        <time>2020-07-02T15:47:21Z</time>
      </trkpt>
      <trkpt lat="47.89324" lon="1.91575">
        <ele>95.4</ele>
        <time>2020-07-02T15:47:22Z</time>
      </trkpt>
      <trkpt lat="47.89323" lon="1.91576">
        <ele>95.4</ele>
        <time>2020-07-02T15:47:23Z</time>
      </trkpt>
      <trkpt lat="47.89323" lon="1.91577">
        <ele>95.4</ele>
        <time>2020-07-02T15:47:24Z</time>
      </trkpt>
      <trkpt lat="47.89322" lon="1.91577">
        <ele>95.4</ele>
        <time>2020-07-02T15:47:25Z</time>
      </trkpt>
      <trkpt lat="47.89323" lon="1.91577">
        <ele>95.4</ele>
        <time>2020-07-02T15:47:26Z</time>
      </trkpt>
      <trkpt lat="47.89323" lon="1.91576">
        <ele>95.4</ele>
        <time>2020-07-02T15:47:27Z</time>
      </trkpt>
      <trkpt lat="47.89323" lon="1.91575">
        <ele>95.4</ele>
        <time>2020-07-02T15:47:28Z</time>
      </trkpt>
      <trkpt lat="47.89323" lon="1.91574">
        <ele>95.4</ele>
        <time>2020-07-02T15:47:29Z</time>
      </trkpt>
      <trkpt lat="47.89323" lon="1.91572">
        <ele>95.3</ele>
        <time>2020-07-02T15:47:30Z</time>
      </trkpt>
      <trkpt lat="47.89324" lon="1.91571">
        <ele>95.3</ele>
        <time>2020-07-02T15:47:31Z</time>
      </trkpt>
      <trkpt lat="47.89324" lon="1.91571">
        <ele>95.3</ele>
        <time>2020-07-02T15:47:32Z</time>
      </trkpt>
      <trkpt lat="47.89325" lon="1.91571">
        <ele>95.3</ele>
        <time>2020-07-02T15:47:33Z</time>
      </trkpt>
      <trkpt lat="47.89325" lon="1.91571">
        <ele>95.3</ele>
        <time>2020-07-02T15:47:34Z</time>
      </trkpt>
      <trkpt lat="47.89325" lon="1.91572">
        <ele>95.3</ele>
        <time>2020-07-02T15:47:35Z</time>
      </trkpt>
      <trkpt lat="47.89325" lon="1.91572">
        <ele>95.3</ele>
        <time>2020-07-02T15:47:36Z</time>
      </trkpt>
      <trkpt lat="47.89325" lon="1.91572">
        <ele>95.3</ele>
        <time>2020-07-02T15:47:37Z</time>
      </trkpt>
      <trkpt lat="47.89326" lon="1.91572">
        <ele>95.3</ele>
        <time>2020-07-02T15:47:38Z</time>
      </trkpt>
      <trkpt lat="47.89326" lon="1.91572">
        <ele>95.3</ele>
        <time>2020-07-02T15:47:39Z</time>
      </trkpt>
      <trkpt lat="47.89326" lon="1.91572">
        <ele>95.3</ele>
        <time>2020-07-02T15:47:40Z</time>
      </trkpt>
      <trkpt lat="47.89324" lon="1.91577">
        <ele>95.3</ele>
        <time>2020-07-02T15:47:44Z</time>
      </trkpt>
      <trkpt lat="47.89323" lon="1.91581">
        <ele>95.3</ele>
        <time>2020-07-02T15:47:45Z</time>
      </trkpt>
      <trkpt lat="47.89322" lon="1.91585">
        <ele>95.3</ele>
        <time>2020-07-02T15:47:46Z</time>
      </trkpt>
      <trkpt lat="47.89322" lon="1.91586">
        <ele>95.3</ele>
        <time>2020-07-02T15:47:47Z</time>
      </trkpt>
      <trkpt lat="47.8932" lon="1.9159">
        <ele>95.3</ele>
        <time>2020-07-02T15:47:48Z</time>
      </trkpt>
      <trkpt lat="47.89319" lon="1.91592">
        <ele>95.3</ele>
        <time>2020-07-02T15:47:49Z</time>
      </trkpt>
      <trkpt lat="47.89317" lon="1.91595">
        <ele>95.3</ele>
        <time>2020-07-02T15:47:50Z</time>
      </trkpt>
      <trkpt lat="47.89314" lon="1.91599">
        <ele>95.3</ele>
        <time>2020-07-02T15:47:51Z</time>
      </trkpt>
      <trkpt lat="47.89313" lon="1.916">
        <ele>95.3</ele>
        <time>2020-07-02T15:47:52Z</time>
      </trkpt>
      <trkpt lat="47.89311" lon="1.91603">
        <ele>95.3</ele>
        <time>2020-07-02T15:47:53Z</time>
      </trkpt>
      <trkpt lat="47.89307" lon="1.91606">
        <ele>95.3</ele>
        <time>2020-07-02T15:47:54Z</time>
      </trkpt>
      <trkpt lat="47.89304" lon="1.91611">
        <ele>95.3</ele>
        <time>2020-07-02T15:47:55Z</time>
      </trkpt>
      <trkpt lat="47.89303" lon="1.91615">
        <ele>95.3</ele>
        <time>2020-07-02T15:47:56Z</time>
      </trkpt>
      <trkpt lat="47.89301" lon="1.9162">
        <ele>95.3</ele>
        <time>2020-07-02T15:47:57Z</time>
      </trkpt>
      <trkpt lat="47.89299" lon="1.91626">
        <ele>95.3</ele>
        <time>2020-07-02T15:47:58Z</time>
      </trkpt>
      <trkpt lat="47.89298" lon="1.91631">
        <ele>95.3</ele>
        <time>2020-07-02T15:47:59Z</time>
      </trkpt>
      <trkpt lat="47.89297" lon="1.91637">
        <ele>95.3</ele>
        <time>2020-07-02T15:48:00Z</time>
      </trkpt>
      <trkpt lat="47.89296" lon="1.91643">
        <ele>95.3</ele>
        <time>2020-07-02T15:48:01Z</time>
      </trkpt>
      <trkpt lat="47.89293" lon="1.91648">
        <ele>95.3</ele>
        <time>2020-07-02T15:48:02Z</time>
      </trkpt>
      <trkpt lat="47.89292" lon="1.91653">
        <ele>95.3</ele>
        <time>2020-07-02T15:48:03Z</time>
      </trkpt>
      <trkpt lat="47.89288" lon="1.91655">
        <ele>95.3</ele>
        <time>2020-07-02T15:48:04Z</time>
      </trkpt>
      <trkpt lat="47.89287" lon="1.91655">
        <ele>95.3</ele>
        <time>2020-07-02T15:48:05Z</time>
      </trkpt>
      <trkpt lat="47.89284" lon="1.91657">
        <ele>95.3</ele>
        <time>2020-07-02T15:48:06Z</time>
      </trkpt>
      <trkpt lat="47.89282" lon="1.91661">
        <ele>95.2</ele>
        <time>2020-07-02T15:48:07Z</time>
      </trkpt>
      <trkpt lat="47.89281" lon="1.91668">
        <ele>95.2</ele>
        <time>2020-07-02T15:48:08Z</time>
      </trkpt>
      <trkpt lat="47.89281" lon="1.91673">
        <ele>95.2</ele>
        <time>2020-07-02T15:48:09Z</time>
      </trkpt>
      <trkpt lat="47.89282" lon="1.91678">
        <ele>95.2</ele>
        <time>2020-07-02T15:48:10Z</time>
      </trkpt>
      <trkpt lat="47.89282" lon="1.91684">
        <ele>95.2</ele>
        <time>2020-07-02T15:48:11Z</time>
      </trkpt>
      <trkpt lat="47.89279" lon="1.91691">
        <ele>95.1</ele>
        <time>2020-07-02T15:48:12Z</time>
      </trkpt>
      <trkpt lat="47.89277" lon="1.91698">
        <ele>95</ele>
        <time>2020-07-02T15:48:13Z</time>
      </trkpt>
      <trkpt lat="47.89274" lon="1.91705">
        <ele>95</ele>
        <time>2020-07-02T15:48:14Z</time>
      </trkpt>
      <trkpt lat="47.89271" lon="1.91713">
        <ele>94.9</ele>
        <time>2020-07-02T15:48:15Z</time>
      </trkpt>
      <trkpt lat="47.89266" lon="1.91722">
        <ele>94.7</ele>
        <time>2020-07-02T15:48:16Z</time>
      </trkpt>
      <trkpt lat="47.89262" lon="1.91731">
        <ele>94.6</ele>
        <time>2020-07-02T15:48:17Z</time>
      </trkpt>
      <trkpt lat="47.89259" lon="1.91742">
        <ele>94.5</ele>
        <time>2020-07-02T15:48:18Z</time>
      </trkpt>
      <trkpt lat="47.89255" lon="1.91752">
        <ele>94.4</ele>
        <time>2020-07-02T15:48:19Z</time>
      </trkpt>
      <trkpt lat="47.89251" lon="1.91761">
        <ele>94.3</ele>
        <time>2020-07-02T15:48:20Z</time>
      </trkpt>
      <trkpt lat="47.89248" lon="1.9177">
        <ele>94.2</ele>
        <time>2020-07-02T15:48:21Z</time>
      </trkpt>
      <trkpt lat="47.89244" lon="1.91778">
        <ele>94.2</ele>
        <time>2020-07-02T15:48:22Z</time>
      </trkpt>
      <trkpt lat="47.89241" lon="1.91787">
        <ele>94.2</ele>
        <time>2020-07-02T15:48:23Z</time>
      </trkpt>
      <trkpt lat="47.89237" lon="1.91795">
        <ele>94.2</ele>
        <time>2020-07-02T15:48:24Z</time>
      </trkpt>
      <trkpt lat="47.89233" lon="1.91804">
        <ele>94.2</ele>
        <time>2020-07-02T15:48:25Z</time>
      </trkpt>
      <trkpt lat="47.89229" lon="1.91812">
        <ele>94.1</ele>
        <time>2020-07-02T15:48:26Z</time>
      </trkpt>
      <trkpt lat="47.89225" lon="1.91821">
        <ele>94.1</ele>
        <time>2020-07-02T15:48:27Z</time>
      </trkpt>
      <trkpt lat="47.89222" lon="1.91828">
        <ele>94.1</ele>
        <time>2020-07-02T15:48:28Z</time>
      </trkpt>
      <trkpt lat="47.89219" lon="1.91836">
        <ele>94</ele>
        <time>2020-07-02T15:48:29Z</time>
      </trkpt>
      <trkpt lat="47.89215" lon="1.91843">
        <ele>94</ele>
        <time>2020-07-02T15:48:30Z</time>
      </trkpt>
      <trkpt lat="47.89212" lon="1.9185">
        <ele>94</ele>
        <time>2020-07-02T15:48:31Z</time>
      </trkpt>
      <trkpt lat="47.89209" lon="1.91856">
        <ele>94</ele>
        <time>2020-07-02T15:48:32Z</time>
      </trkpt>
      <trkpt lat="47.89206" lon="1.91862">
        <ele>94.1</ele>
        <time>2020-07-02T15:48:33Z</time>
      </trkpt>
      <trkpt lat="47.89203" lon="1.91868">
        <ele>94.1</ele>
        <time>2020-07-02T15:48:34Z</time>
      </trkpt>
      <trkpt lat="47.892" lon="1.91875">
        <ele>94.2</ele>
        <time>2020-07-02T15:48:35Z</time>
      </trkpt>
      <trkpt lat="47.89197" lon="1.91881">
        <ele>94.3</ele>
        <time>2020-07-02T15:48:36Z</time>
      </trkpt>
      <trkpt lat="47.89195" lon="1.91888">
        <ele>94.4</ele>
        <time>2020-07-02T15:48:37Z</time>
      </trkpt>
      <trkpt lat="47.89191" lon="1.91895">
        <ele>94.6</ele>
        <time>2020-07-02T15:48:38Z</time>
      </trkpt>
      <trkpt lat="47.89187" lon="1.91903">
        <ele>94.6</ele>
        <time>2020-07-02T15:48:39Z</time>
      </trkpt>
      <trkpt lat="47.89184" lon="1.91909">
        <ele>94.6</ele>
        <time>2020-07-02T15:48:40Z</time>
      </trkpt>
      <trkpt lat="47.89179" lon="1.91916">
        <ele>94.6</ele>
        <time>2020-07-02T15:48:41Z</time>
      </trkpt>
      <trkpt lat="47.89174" lon="1.91923">
        <ele>94.6</ele>
        <time>2020-07-02T15:48:42Z</time>
      </trkpt>
      <trkpt lat="47.8917" lon="1.91929">
        <ele>94.7</ele>
        <time>2020-07-02T15:48:43Z</time>
      </trkpt>
      <trkpt lat="47.89167" lon="1.91935">
        <ele>94.7</ele>
        <time>2020-07-02T15:48:44Z</time>
      </trkpt>
      <trkpt lat="47.89164" lon="1.91941">
        <ele>94.7</ele>
        <time>2020-07-02T15:48:45Z</time>
      </trkpt>
      <trkpt lat="47.89161" lon="1.91948">
        <ele>94.8</ele>
        <time>2020-07-02T15:48:46Z</time>
      </trkpt>
      <trkpt lat="47.89159" lon="1.91956">
        <ele>94.8</ele>
        <time>2020-07-02T15:48:47Z</time>
      </trkpt>
      <trkpt lat="47.89156" lon="1.91963">
        <ele>94.8</ele>
        <time>2020-07-02T15:48:48Z</time>
      </trkpt>
      <trkpt lat="47.89153" lon="1.9197">
        <ele>94.9</ele>
        <time>2020-07-02T15:48:49Z</time>
      </trkpt>
      <trkpt lat="47.8915" lon="1.91977">
        <ele>94.9</ele>
        <time>2020-07-02T15:48:50Z</time>
      </trkpt>
      <trkpt lat="47.89146" lon="1.91985">
        <ele>94.9</ele>
        <time>2020-07-02T15:48:51Z</time>
      </trkpt>
      <trkpt lat="47.89144" lon="1.91991">
        <ele>94.9</ele>
        <time>2020-07-02T15:48:52Z</time>
      </trkpt>
      <trkpt lat="47.8914" lon="1.91997">
        <ele>95</ele>
        <time>2020-07-02T15:48:53Z</time>
      </trkpt>
      <trkpt lat="47.89137" lon="1.92003">
        <ele>95</ele>
        <time>2020-07-02T15:48:54Z</time>
      </trkpt>
      <trkpt lat="47.89134" lon="1.9201">
        <ele>95</ele>
        <time>2020-07-02T15:48:55Z</time>
      </trkpt>
      <trkpt lat="47.89131" lon="1.92015">
        <ele>95</ele>
        <time>2020-07-02T15:48:56Z</time>
      </trkpt>
      <trkpt lat="47.89128" lon="1.9202">
        <ele>95.1</ele>
        <time>2020-07-02T15:48:57Z</time>
      </trkpt>
      <trkpt lat="47.89126" lon="1.92025">
        <ele>95</ele>
        <time>2020-07-02T15:48:58Z</time>
      </trkpt>
      <trkpt lat="47.89124" lon="1.9203">
        <ele>94.9</ele>
        <time>2020-07-02T15:48:59Z</time>
      </trkpt>
      <trkpt lat="47.89123" lon="1.92035">
        <ele>94.8</ele>
        <time>2020-07-02T15:49:00Z</time>
      </trkpt>
      <trkpt lat="47.8912" lon="1.92039">
        <ele>94.8</ele>
        <time>2020-07-02T15:49:01Z</time>
      </trkpt>
      <trkpt lat="47.89117" lon="1.92042">
        <ele>94.7</ele>
        <time>2020-07-02T15:49:02Z</time>
      </trkpt>
      <trkpt lat="47.89117" lon="1.92047">
        <ele>94.7</ele>
        <time>2020-07-02T15:49:03Z</time>
      </trkpt>
      <trkpt lat="47.89117" lon="1.92051">
        <ele>94.7</ele>
        <time>2020-07-02T15:49:04Z</time>
      </trkpt>
      <trkpt lat="47.89116" lon="1.92056">
        <ele>94.7</ele>
        <time>2020-07-02T15:49:05Z</time>
      </trkpt>
      <trkpt lat="47.89113" lon="1.92063">
        <ele>94.7</ele>
        <time>2020-07-02T15:49:06Z</time>
      </trkpt>
      <trkpt lat="47.8911" lon="1.9207">
        <ele>94.7</ele>
        <time>2020-07-02T15:49:07Z</time>
      </trkpt>
      <trkpt lat="47.89108" lon="1.92077">
        <ele>94.7</ele>
        <time>2020-07-02T15:49:08Z</time>
      </trkpt>
      <trkpt lat="47.89105" lon="1.92084">
        <ele>94.6</ele>
        <time>2020-07-02T15:49:09Z</time>
      </trkpt>
      <trkpt lat="47.89103" lon="1.9209">
        <ele>94.6</ele>
        <time>2020-07-02T15:49:10Z</time>
      </trkpt>
      <trkpt lat="47.891" lon="1.92096">
        <ele>94.6</ele>
        <time>2020-07-02T15:49:11Z</time>
      </trkpt>
      <trkpt lat="47.89097" lon="1.92101">
        <ele>94.5</ele>
        <time>2020-07-02T15:49:12Z</time>
      </trkpt>
      <trkpt lat="47.89094" lon="1.92105">
        <ele>94.5</ele>
        <time>2020-07-02T15:49:13Z</time>
      </trkpt>
      <trkpt lat="47.89092" lon="1.9211">
        <ele>94.5</ele>
        <time>2020-07-02T15:49:14Z</time>
      </trkpt>
      <trkpt lat="47.89089" lon="1.92114">
        <ele>94.5</ele>
        <time>2020-07-02T15:49:15Z</time>
      </trkpt>
      <trkpt lat="47.89086" lon="1.92118">
        <ele>94.5</ele>
        <time>2020-07-02T15:49:16Z</time>
      </trkpt>
      <trkpt lat="47.89085" lon="1.92123">
        <ele>94.5</ele>
        <time>2020-07-02T15:49:17Z</time>
      </trkpt>
      <trkpt lat="47.89083" lon="1.92128">
        <ele>94.6</ele>
        <time>2020-07-02T15:49:18Z</time>
      </trkpt>
      <trkpt lat="47.89081" lon="1.92132">
        <ele>94.6</ele>
        <time>2020-07-02T15:49:19Z</time>
      </trkpt>
      <trkpt lat="47.89079" lon="1.92136">
        <ele>94.5</ele>
        <time>2020-07-02T15:49:20Z</time>
      </trkpt>
      <trkpt lat="47.89078" lon="1.92141">
        <ele>94.5</ele>
        <time>2020-07-02T15:49:21Z</time>
      </trkpt>
      <trkpt lat="47.89076" lon="1.92145">
        <ele>94.5</ele>
        <time>2020-07-02T15:49:22Z</time>
      </trkpt>
      <trkpt lat="47.89075" lon="1.92151">
        <ele>94.5</ele>
        <time>2020-07-02T15:49:23Z</time>
      </trkpt>
      <trkpt lat="47.89073" lon="1.92158">
        <ele>94.5</ele>
        <time>2020-07-02T15:49:24Z</time>
      </trkpt>
      <trkpt lat="47.89071" lon="1.92164">
        <ele>94.5</ele>
        <time>2020-07-02T15:49:25Z</time>
      </trkpt>
      <trkpt lat="47.89068" lon="1.92171">
        <ele>94.5</ele>
        <time>2020-07-02T15:49:26Z</time>
      </trkpt>
      <trkpt lat="47.89064" lon="1.92177">
        <ele>94.5</ele>
        <time>2020-07-02T15:49:27Z</time>
      </trkpt>
      <trkpt lat="47.89061" lon="1.92183">
        <ele>94.6</ele>
        <time>2020-07-02T15:49:28Z</time>
      </trkpt>
      <trkpt lat="47.89058" lon="1.92189">
        <ele>94.6</ele>
        <time>2020-07-02T15:49:29Z</time>
      </trkpt>
      <trkpt lat="47.89055" lon="1.92196">
        <ele>94.7</ele>
        <time>2020-07-02T15:49:30Z</time>
      </trkpt>
      <trkpt lat="47.89052" lon="1.92202">
        <ele>94.8</ele>
        <time>2020-07-02T15:49:31Z</time>
      </trkpt>
      <trkpt lat="47.89049" lon="1.92207">
        <ele>94.8</ele>
        <time>2020-07-02T15:49:32Z</time>
      </trkpt>
      <trkpt lat="47.89046" lon="1.92211">
        <ele>94.9</ele>
        <time>2020-07-02T15:49:33Z</time>
      </trkpt>
      <trkpt lat="47.89044" lon="1.92215">
        <ele>94.9</ele>
        <time>2020-07-02T15:49:34Z</time>
      </trkpt>
      <trkpt lat="47.89041" lon="1.92218">
        <ele>95</ele>
        <time>2020-07-02T15:49:35Z</time>
      </trkpt>
      <trkpt lat="47.89038" lon="1.92222">
        <ele>95</ele>
        <time>2020-07-02T15:49:36Z</time>
      </trkpt>
      <trkpt lat="47.89036" lon="1.92223">
        <ele>95.1</ele>
        <time>2020-07-02T15:49:37Z</time>
      </trkpt>
      <trkpt lat="47.89034" lon="1.92225">
        <ele>95.1</ele>
        <time>2020-07-02T15:49:38Z</time>
      </trkpt>
      <trkpt lat="47.89033" lon="1.92227">
        <ele>95.1</ele>
        <time>2020-07-02T15:49:39Z</time>
      </trkpt>
      <trkpt lat="47.89032" lon="1.92228">
        <ele>95.2</ele>
        <time>2020-07-02T15:49:40Z</time>
      </trkpt>
      <trkpt lat="47.89032" lon="1.92229">
        <ele>95.2</ele>
        <time>2020-07-02T15:49:41Z</time>
      </trkpt>
      <trkpt lat="47.89032" lon="1.92231">
        <ele>95.2</ele>
        <time>2020-07-02T15:49:42Z</time>
      </trkpt>
      <trkpt lat="47.89032" lon="1.92231">
        <ele>95.2</ele>
        <time>2020-07-02T15:49:43Z</time>
      </trkpt>
      <trkpt lat="47.89032" lon="1.92232">
        <ele>95.2</ele>
        <time>2020-07-02T15:49:44Z</time>
      </trkpt>
      <trkpt lat="47.89031" lon="1.92233">
        <ele>95.2</ele>
        <time>2020-07-02T15:49:45Z</time>
      </trkpt>
      <trkpt lat="47.89031" lon="1.92234">
        <ele>95.2</ele>
        <time>2020-07-02T15:49:46Z</time>
      </trkpt>
      <trkpt lat="47.8903" lon="1.92236">
        <ele>95.3</ele>
        <time>2020-07-02T15:49:47Z</time>
      </trkpt>
      <trkpt lat="47.89028" lon="1.92241">
        <ele>95.4</ele>
        <time>2020-07-02T15:49:48Z</time>
      </trkpt>
      <trkpt lat="47.89027" lon="1.92242">
        <ele>95.4</ele>
        <time>2020-07-02T15:49:49Z</time>
      </trkpt>
      <trkpt lat="47.89025" lon="1.92247">
        <ele>95.5</ele>
        <time>2020-07-02T15:49:50Z</time>
      </trkpt>
      <trkpt lat="47.89024" lon="1.92249">
        <ele>95.6</ele>
        <time>2020-07-02T15:49:51Z</time>
      </trkpt>
      <trkpt lat="47.89021" lon="1.92253">
        <ele>95.7</ele>
        <time>2020-07-02T15:49:52Z</time>
      </trkpt>
      <trkpt lat="47.89018" lon="1.92258">
        <ele>95.8</ele>
        <time>2020-07-02T15:49:53Z</time>
      </trkpt>
      <trkpt lat="47.89016" lon="1.92261">
        <ele>95.7</ele>
        <time>2020-07-02T15:49:54Z</time>
      </trkpt>
      <trkpt lat="47.89014" lon="1.92264">
        <ele>95.6</ele>
        <time>2020-07-02T15:49:55Z</time>
      </trkpt>
      <trkpt lat="47.89011" lon="1.92268">
        <ele>95.6</ele>
        <time>2020-07-02T15:49:56Z</time>
      </trkpt>
      <trkpt lat="47.89009" lon="1.92271">
        <ele>95.5</ele>
        <time>2020-07-02T15:49:57Z</time>
      </trkpt>
      <trkpt lat="47.89006" lon="1.92276">
        <ele>95.4</ele>
        <time>2020-07-02T15:49:58Z</time>
      </trkpt>
      <trkpt lat="47.89003" lon="1.9228">
        <ele>95.4</ele>
        <time>2020-07-02T15:49:59Z</time>
      </trkpt>
      <trkpt lat="47.89" lon="1.92283">
        <ele>95.4</ele>
        <time>2020-07-02T15:50:00Z</time>
      </trkpt>
      <trkpt lat="47.88999" lon="1.92287">
        <ele>95.4</ele>
        <time>2020-07-02T15:50:01Z</time>
      </trkpt>
      <trkpt lat="47.88997" lon="1.92291">
        <ele>95.4</ele>
        <time>2020-07-02T15:50:02Z</time>
      </trkpt>
      <trkpt lat="47.88995" lon="1.92295">
        <ele>95.4</ele>
        <time>2020-07-02T15:50:03Z</time>
      </trkpt>
      <trkpt lat="47.88992" lon="1.92299">
        <ele>95.4</ele>
        <time>2020-07-02T15:50:04Z</time>
      </trkpt>
      <trkpt lat="47.88989" lon="1.92303">
        <ele>95.4</ele>
        <time>2020-07-02T15:50:05Z</time>
      </trkpt>
      <trkpt lat="47.88987" lon="1.92308">
        <ele>95.4</ele>
        <time>2020-07-02T15:50:06Z</time>
      </trkpt>
      <trkpt lat="47.88984" lon="1.92312">
        <ele>95.4</ele>
        <time>2020-07-02T15:50:07Z</time>
      </trkpt>
      <trkpt lat="47.88982" lon="1.92318">
        <ele>95.4</ele>
        <time>2020-07-02T15:50:08Z</time>
      </trkpt>
      <trkpt lat="47.8898" lon="1.92323">
        <ele>95.4</ele>
        <time>2020-07-02T15:50:09Z</time>
      </trkpt>
      <trkpt lat="47.88976" lon="1.92329">
        <ele>95.4</ele>
        <time>2020-07-02T15:50:10Z</time>
      </trkpt>
      <trkpt lat="47.88973" lon="1.92335">
        <ele>95.4</ele>
        <time>2020-07-02T15:50:11Z</time>
      </trkpt>
      <trkpt lat="47.88969" lon="1.92341">
        <ele>95.5</ele>
        <time>2020-07-02T15:50:12Z</time>
      </trkpt>
      <trkpt lat="47.88965" lon="1.92348">
        <ele>95.6</ele>
        <time>2020-07-02T15:50:13Z</time>
      </trkpt>
      <trkpt lat="47.88961" lon="1.92353">
        <ele>95.6</ele>
        <time>2020-07-02T15:50:14Z</time>
      </trkpt>
      <trkpt lat="47.88957" lon="1.9236">
        <ele>95.5</ele>
        <time>2020-07-02T15:50:15Z</time>
      </trkpt>
      <trkpt lat="47.88954" lon="1.92366">
        <ele>95.3</ele>
        <time>2020-07-02T15:50:16Z</time>
      </trkpt>
      <trkpt lat="47.8895" lon="1.92372">
        <ele>95</ele>
        <time>2020-07-02T15:50:17Z</time>
      </trkpt>
      <trkpt lat="47.88945" lon="1.92379">
        <ele>94.8</ele>
        <time>2020-07-02T15:50:18Z</time>
      </trkpt>
      <trkpt lat="47.88941" lon="1.92386">
        <ele>94.5</ele>
        <time>2020-07-02T15:50:19Z</time>
      </trkpt>
      <trkpt lat="47.88937" lon="1.92393">
        <ele>94.2</ele>
        <time>2020-07-02T15:50:20Z</time>
      </trkpt>
      <trkpt lat="47.88932" lon="1.92402">
        <ele>94</ele>
        <time>2020-07-02T15:50:21Z</time>
      </trkpt>
      <trkpt lat="47.88927" lon="1.92411">
        <ele>93.7</ele>
        <time>2020-07-02T15:50:22Z</time>
      </trkpt>
      <trkpt lat="47.88922" lon="1.92418">
        <ele>93.6</ele>
        <time>2020-07-02T15:50:23Z</time>
      </trkpt>
      <trkpt lat="47.88917" lon="1.92426">
        <ele>93.4</ele>
        <time>2020-07-02T15:50:24Z</time>
      </trkpt>
      <trkpt lat="47.88912" lon="1.92433">
        <ele>93.3</ele>
        <time>2020-07-02T15:50:25Z</time>
      </trkpt>
      <trkpt lat="47.88908" lon="1.92441">
        <ele>93.2</ele>
        <time>2020-07-02T15:50:26Z</time>
      </trkpt>
      <trkpt lat="47.88904" lon="1.92448">
        <ele>93.1</ele>
        <time>2020-07-02T15:50:27Z</time>
      </trkpt>
      <trkpt lat="47.88898" lon="1.92454">
        <ele>93</ele>
        <time>2020-07-02T15:50:28Z</time>
      </trkpt>
      <trkpt lat="47.88893" lon="1.9246">
        <ele>93</ele>
        <time>2020-07-02T15:50:29Z</time>
      </trkpt>
      <trkpt lat="47.88888" lon="1.92467">
        <ele>93</ele>
        <time>2020-07-02T15:50:30Z</time>
      </trkpt>
      <trkpt lat="47.88882" lon="1.92474">
        <ele>93.1</ele>
        <time>2020-07-02T15:50:31Z</time>
      </trkpt>
      <trkpt lat="47.88877" lon="1.92481">
        <ele>93.1</ele>
        <time>2020-07-02T15:50:32Z</time>
      </trkpt>
      <trkpt lat="47.88872" lon="1.92487">
        <ele>93.1</ele>
        <time>2020-07-02T15:50:33Z</time>
      </trkpt>
      <trkpt lat="47.88866" lon="1.92493">
        <ele>93.2</ele>
        <time>2020-07-02T15:50:34Z</time>
      </trkpt>
      <trkpt lat="47.88861" lon="1.925">
        <ele>93.9</ele>
        <time>2020-07-02T15:50:35Z</time>
      </trkpt>
      <trkpt lat="47.88855" lon="1.92506">
        <ele>93.8</ele>
        <time>2020-07-02T15:50:36Z</time>
      </trkpt>
      <trkpt lat="47.8885" lon="1.92514">
        <ele>93.7</ele>
        <time>2020-07-02T15:50:37Z</time>
      </trkpt>
      <trkpt lat="47.88844" lon="1.9252">
        <ele>93.6</ele>
        <time>2020-07-02T15:50:38Z</time>
      </trkpt>
      <trkpt lat="47.88839" lon="1.92527">
        <ele>93.5</ele>
        <time>2020-07-02T15:50:39Z</time>
      </trkpt>
      <trkpt lat="47.88833" lon="1.92533">
        <ele>93.4</ele>
        <time>2020-07-02T15:50:40Z</time>
      </trkpt>
      <trkpt lat="47.88828" lon="1.9254">
        <ele>93.1</ele>
        <time>2020-07-02T15:50:41Z</time>
      </trkpt>
      <trkpt lat="47.88823" lon="1.92545">
        <ele>93.2</ele>
        <time>2020-07-02T15:50:42Z</time>
      </trkpt>
      <trkpt lat="47.88818" lon="1.92551">
        <ele>93.2</ele>
        <time>2020-07-02T15:50:43Z</time>
      </trkpt>
      <trkpt lat="47.88812" lon="1.92556">
        <ele>93.3</ele>
        <time>2020-07-02T15:50:44Z</time>
      </trkpt>
      <trkpt lat="47.88807" lon="1.92562">
        <ele>93.3</ele>
        <time>2020-07-02T15:50:45Z</time>
      </trkpt>
      <trkpt lat="47.88802" lon="1.92568">
        <ele>93.3</ele>
        <time>2020-07-02T15:50:46Z</time>
      </trkpt>
      <trkpt lat="47.88797" lon="1.92574">
        <ele>93.4</ele>
        <time>2020-07-02T15:50:47Z</time>
      </trkpt>
      <trkpt lat="47.88792" lon="1.9258">
        <ele>93.4</ele>
        <time>2020-07-02T15:50:48Z</time>
      </trkpt>
      <trkpt lat="47.88788" lon="1.92586">
        <ele>93.4</ele>
        <time>2020-07-02T15:50:49Z</time>
      </trkpt>
      <trkpt lat="47.88783" lon="1.92592">
        <ele>93.8</ele>
        <time>2020-07-02T15:50:50Z</time>
      </trkpt>
      <trkpt lat="47.88779" lon="1.92598">
        <ele>93.7</ele>
        <time>2020-07-02T15:50:51Z</time>
      </trkpt>
      <trkpt lat="47.88775" lon="1.92604">
        <ele>93.6</ele>
        <time>2020-07-02T15:50:52Z</time>
      </trkpt>
      <trkpt lat="47.88771" lon="1.9261">
        <ele>93.6</ele>
        <time>2020-07-02T15:50:53Z</time>
      </trkpt>
      <trkpt lat="47.88768" lon="1.92616">
        <ele>93.5</ele>
        <time>2020-07-02T15:50:54Z</time>
      </trkpt>
      <trkpt lat="47.88763" lon="1.92621">
        <ele>93.5</ele>
        <time>2020-07-02T15:50:55Z</time>
      </trkpt>
      <trkpt lat="47.88759" lon="1.92626">
        <ele>93.4</ele>
        <time>2020-07-02T15:50:56Z</time>
      </trkpt>
      <trkpt lat="47.88754" lon="1.92631">
        <ele>93.4</ele>
        <time>2020-07-02T15:50:57Z</time>
      </trkpt>
      <trkpt lat="47.88748" lon="1.92635">
        <ele>93.4</ele>
        <time>2020-07-02T15:50:58Z</time>
      </trkpt>
      <trkpt lat="47.88743" lon="1.9264">
        <ele>93.4</ele>
        <time>2020-07-02T15:50:59Z</time>
      </trkpt>
      <trkpt lat="47.88738" lon="1.92644">
        <ele>93.4</ele>
        <time>2020-07-02T15:51:00Z</time>
      </trkpt>
      <trkpt lat="47.88733" lon="1.92649">
        <ele>93.4</ele>
        <time>2020-07-02T15:51:01Z</time>
      </trkpt>
      <trkpt lat="47.88728" lon="1.92655">
        <ele>93.4</ele>
        <time>2020-07-02T15:51:02Z</time>
      </trkpt>
      <trkpt lat="47.88722" lon="1.92661">
        <ele>93.4</ele>
        <time>2020-07-02T15:51:03Z</time>
      </trkpt>
      <trkpt lat="47.88717" lon="1.92666">
        <ele>93.4</ele>
        <time>2020-07-02T15:51:04Z</time>
      </trkpt>
      <trkpt lat="47.88712" lon="1.92672">
        <ele>93.4</ele>
        <time>2020-07-02T15:51:05Z</time>
      </trkpt>
      <trkpt lat="47.88707" lon="1.92677">
        <ele>93.5</ele>
        <time>2020-07-02T15:51:06Z</time>
      </trkpt>
      <trkpt lat="47.88702" lon="1.92684">
        <ele>93.5</ele>
        <time>2020-07-02T15:51:07Z</time>
      </trkpt>
      <trkpt lat="47.88696" lon="1.92689">
        <ele>93.6</ele>
        <time>2020-07-02T15:51:08Z</time>
      </trkpt>
      <trkpt lat="47.88691" lon="1.92695">
        <ele>93.6</ele>
        <time>2020-07-02T15:51:09Z</time>
      </trkpt>
      <trkpt lat="47.88686" lon="1.92701">
        <ele>93.7</ele>
        <time>2020-07-02T15:51:10Z</time>
      </trkpt>
      <trkpt lat="47.88681" lon="1.92706">
        <ele>93.8</ele>
        <time>2020-07-02T15:51:11Z</time>
      </trkpt>
      <trkpt lat="47.88676" lon="1.92712">
        <ele>93.8</ele>
        <time>2020-07-02T15:51:12Z</time>
      </trkpt>
      <trkpt lat="47.8867" lon="1.92718">
        <ele>93.9</ele>
        <time>2020-07-02T15:51:13Z</time>
      </trkpt>
      <trkpt lat="47.88665" lon="1.92723">
        <ele>94</ele>
        <time>2020-07-02T15:51:14Z</time>
      </trkpt>
      <trkpt lat="47.8866" lon="1.92729">
        <ele>94.1</ele>
        <time>2020-07-02T15:51:15Z</time>
      </trkpt>
      <trkpt lat="47.88655" lon="1.92735">
        <ele>94.2</ele>
        <time>2020-07-02T15:51:16Z</time>
      </trkpt>
      <trkpt lat="47.88651" lon="1.92741">
        <ele>94.2</ele>
        <time>2020-07-02T15:51:17Z</time>
      </trkpt>
      <trkpt lat="47.88646" lon="1.92747">
        <ele>94.3</ele>
        <time>2020-07-02T15:51:18Z</time>
      </trkpt>
      <trkpt lat="47.88641" lon="1.92752">
        <ele>94.4</ele>
        <time>2020-07-02T15:51:19Z</time>
      </trkpt>
      <trkpt lat="47.88636" lon="1.92758">
        <ele>94.5</ele>
        <time>2020-07-02T15:51:20Z</time>
      </trkpt>
      <trkpt lat="47.88632" lon="1.92764">
        <ele>94.5</ele>
        <time>2020-07-02T15:51:21Z</time>
      </trkpt>
      <trkpt lat="47.88627" lon="1.9277">
        <ele>94.4</ele>
        <time>2020-07-02T15:51:22Z</time>
      </trkpt>
      <trkpt lat="47.88622" lon="1.92776">
        <ele>94.3</ele>
        <time>2020-07-02T15:51:23Z</time>
      </trkpt>
      <trkpt lat="47.88618" lon="1.92782">
        <ele>94.3</ele>
        <time>2020-07-02T15:51:24Z</time>
      </trkpt>
      <trkpt lat="47.88613" lon="1.92788">
        <ele>94.2</ele>
        <time>2020-07-02T15:51:25Z</time>
      </trkpt>
      <trkpt lat="47.88608" lon="1.92793">
        <ele>94.2</ele>
        <time>2020-07-02T15:51:26Z</time>
      </trkpt>
      <trkpt lat="47.88604" lon="1.92798">
        <ele>94.2</ele>
        <time>2020-07-02T15:51:27Z</time>
      </trkpt>
      <trkpt lat="47.886" lon="1.92804">
        <ele>94.1</ele>
        <time>2020-07-02T15:51:28Z</time>
      </trkpt>
      <trkpt lat="47.88596" lon="1.9281">
        <ele>94.1</ele>
        <time>2020-07-02T15:51:29Z</time>
      </trkpt>
      <trkpt lat="47.88592" lon="1.92816">
        <ele>94.1</ele>
        <time>2020-07-02T15:51:30Z</time>
      </trkpt>
      <trkpt lat="47.88587" lon="1.92821">
        <ele>94</ele>
        <time>2020-07-02T15:51:31Z</time>
      </trkpt>
      <trkpt lat="47.88583" lon="1.92827">
        <ele>94</ele>
        <time>2020-07-02T15:51:32Z</time>
      </trkpt>
      <trkpt lat="47.88579" lon="1.92832">
        <ele>94</ele>
        <time>2020-07-02T15:51:33Z</time>
      </trkpt>
      <trkpt lat="47.88575" lon="1.92838">
        <ele>94</ele>
        <time>2020-07-02T15:51:34Z</time>
      </trkpt>
      <trkpt lat="47.8857" lon="1.92843">
        <ele>94</ele>
        <time>2020-07-02T15:51:35Z</time>
      </trkpt>
      <trkpt lat="47.88566" lon="1.92848">
        <ele>94</ele>
        <time>2020-07-02T15:51:36Z</time>
      </trkpt>
      <trkpt lat="47.88561" lon="1.92853">
        <ele>94</ele>
        <time>2020-07-02T15:51:37Z</time>
      </trkpt>
      <trkpt lat="47.88556" lon="1.92858">
        <ele>93.9</ele>
        <time>2020-07-02T15:51:38Z</time>
      </trkpt>
      <trkpt lat="47.88552" lon="1.92864">
        <ele>93.9</ele>
        <time>2020-07-02T15:51:39Z</time>
      </trkpt>
      <trkpt lat="47.88547" lon="1.92869">
        <ele>93.9</ele>
        <time>2020-07-02T15:51:40Z</time>
      </trkpt>
      <trkpt lat="47.88541" lon="1.92874">
        <ele>93.9</ele>
        <time>2020-07-02T15:51:41Z</time>
      </trkpt>
      <trkpt lat="47.88536" lon="1.9288">
        <ele>94</ele>
        <time>2020-07-02T15:51:42Z</time>
      </trkpt>
      <trkpt lat="47.88531" lon="1.92886">
        <ele>94</ele>
        <time>2020-07-02T15:51:43Z</time>
      </trkpt>
      <trkpt lat="47.88527" lon="1.92892">
        <ele>94</ele>
        <time>2020-07-02T15:51:44Z</time>
      </trkpt>
      <trkpt lat="47.88521" lon="1.92898">
        <ele>94.1</ele>
        <time>2020-07-02T15:51:45Z</time>
      </trkpt>
      <trkpt lat="47.88516" lon="1.92903">
        <ele>94.1</ele>
        <time>2020-07-02T15:51:46Z</time>
      </trkpt>
      <trkpt lat="47.88511" lon="1.92909">
        <ele>94.2</ele>
        <time>2020-07-02T15:51:47Z</time>
      </trkpt>
      <trkpt lat="47.88506" lon="1.92914">
        <ele>94.3</ele>
        <time>2020-07-02T15:51:48Z</time>
      </trkpt>
      <trkpt lat="47.88501" lon="1.9292">
        <ele>94.6</ele>
        <time>2020-07-02T15:51:49Z</time>
      </trkpt>
      <trkpt lat="47.88496" lon="1.92925">
        <ele>94.4</ele>
        <time>2020-07-02T15:51:50Z</time>
      </trkpt>
      <trkpt lat="47.88491" lon="1.9293">
        <ele>94.3</ele>
        <time>2020-07-02T15:51:51Z</time>
      </trkpt>
      <trkpt lat="47.88486" lon="1.92936">
        <ele>94.1</ele>
        <time>2020-07-02T15:51:52Z</time>
      </trkpt>
      <trkpt lat="47.88481" lon="1.92941">
        <ele>94</ele>
        <time>2020-07-02T15:51:53Z</time>
      </trkpt>
      <trkpt lat="47.88477" lon="1.92947">
        <ele>93.9</ele>
        <time>2020-07-02T15:51:54Z</time>
      </trkpt>
      <trkpt lat="47.88472" lon="1.92953">
        <ele>93.9</ele>
        <time>2020-07-02T15:51:55Z</time>
      </trkpt>
      <trkpt lat="47.88468" lon="1.92959">
        <ele>93.9</ele>
        <time>2020-07-02T15:51:56Z</time>
      </trkpt>
      <trkpt lat="47.88463" lon="1.92965">
        <ele>93.9</ele>
        <time>2020-07-02T15:51:57Z</time>
      </trkpt>
      <trkpt lat="47.88459" lon="1.92971">
        <ele>93.9</ele>
        <time>2020-07-02T15:51:58Z</time>
      </trkpt>
      <trkpt lat="47.88453" lon="1.92974">
        <ele>94</ele>
        <time>2020-07-02T15:51:59Z</time>
      </trkpt>
      <trkpt lat="47.88448" lon="1.92978">
        <ele>94</ele>
        <time>2020-07-02T15:52:00Z</time>
      </trkpt>
      <trkpt lat="47.88443" lon="1.92982">
        <ele>94</ele>
        <time>2020-07-02T15:52:01Z</time>
      </trkpt>
      <trkpt lat="47.88439" lon="1.92987">
        <ele>94</ele>
        <time>2020-07-02T15:52:02Z</time>
      </trkpt>
      <trkpt lat="47.88434" lon="1.92992">
        <ele>94</ele>
        <time>2020-07-02T15:52:03Z</time>
      </trkpt>
      <trkpt lat="47.8843" lon="1.92996">
        <ele>94</ele>
        <time>2020-07-02T15:52:04Z</time>
      </trkpt>
      <trkpt lat="47.88425" lon="1.93">
        <ele>94</ele>
        <time>2020-07-02T15:52:05Z</time>
      </trkpt>
      <trkpt lat="47.88421" lon="1.93005">
        <ele>94</ele>
        <time>2020-07-02T15:52:06Z</time>
      </trkpt>
      <trkpt lat="47.88417" lon="1.93009">
        <ele>94.1</ele>
        <time>2020-07-02T15:52:07Z</time>
      </trkpt>
      <trkpt lat="47.88414" lon="1.93013">
        <ele>94.1</ele>
        <time>2020-07-02T15:52:08Z</time>
      </trkpt>
      <trkpt lat="47.88411" lon="1.93016">
        <ele>94.1</ele>
        <time>2020-07-02T15:52:09Z</time>
      </trkpt>
      <trkpt lat="47.88408" lon="1.93019">
        <ele>94.1</ele>
        <time>2020-07-02T15:52:10Z</time>
      </trkpt>
      <trkpt lat="47.88406" lon="1.93022">
        <ele>94.1</ele>
        <time>2020-07-02T15:52:11Z</time>
      </trkpt>
      <trkpt lat="47.88403" lon="1.93026">
        <ele>94.1</ele>
        <time>2020-07-02T15:52:12Z</time>
      </trkpt>
      <trkpt lat="47.884" lon="1.93029">
        <ele>94.2</ele>
        <time>2020-07-02T15:52:13Z</time>
      </trkpt>
      <trkpt lat="47.88397" lon="1.93033">
        <ele>94.2</ele>
        <time>2020-07-02T15:52:14Z</time>
      </trkpt>
      <trkpt lat="47.88394" lon="1.93037">
        <ele>94.2</ele>
        <time>2020-07-02T15:52:15Z</time>
      </trkpt>
      <trkpt lat="47.88392" lon="1.9304">
        <ele>94.2</ele>
        <time>2020-07-02T15:52:16Z</time>
      </trkpt>
      <trkpt lat="47.88389" lon="1.93042">
        <ele>94.2</ele>
        <time>2020-07-02T15:52:17Z</time>
      </trkpt>
      <trkpt lat="47.88387" lon="1.93045">
        <ele>94.3</ele>
        <time>2020-07-02T15:52:18Z</time>
      </trkpt>
      <trkpt lat="47.88385" lon="1.93048">
        <ele>94.3</ele>
        <time>2020-07-02T15:52:19Z</time>
      </trkpt>
      <trkpt lat="47.88382" lon="1.93051">
        <ele>94.3</ele>
        <time>2020-07-02T15:52:20Z</time>
      </trkpt>
      <trkpt lat="47.88379" lon="1.93054">
        <ele>94.3</ele>
        <time>2020-07-02T15:52:21Z</time>
      </trkpt>
      <trkpt lat="47.88376" lon="1.93058">
        <ele>94.3</ele>
        <time>2020-07-02T15:52:22Z</time>
      </trkpt>
      <trkpt lat="47.88373" lon="1.93062">
        <ele>94.3</ele>
        <time>2020-07-02T15:52:23Z</time>
      </trkpt>
      <trkpt lat="47.8837" lon="1.93066">
        <ele>94.4</ele>
        <time>2020-07-02T15:52:24Z</time>
      </trkpt>
      <trkpt lat="47.88368" lon="1.93068">
        <ele>94.4</ele>
        <time>2020-07-02T15:52:25Z</time>
      </trkpt>
      <trkpt lat="47.88365" lon="1.9307">
        <ele>94.4</ele>
        <time>2020-07-02T15:52:26Z</time>
      </trkpt>
      <trkpt lat="47.88363" lon="1.93072">
        <ele>94.4</ele>
        <time>2020-07-02T15:52:27Z</time>
      </trkpt>
      <trkpt lat="47.88361" lon="1.93074">
        <ele>94.4</ele>
        <time>2020-07-02T15:52:28Z</time>
      </trkpt>
      <trkpt lat="47.88358" lon="1.93077">
        <ele>94.4</ele>
        <time>2020-07-02T15:52:29Z</time>
      </trkpt>
      <trkpt lat="47.88356" lon="1.93079">
        <ele>94.4</ele>
        <time>2020-07-02T15:52:30Z</time>
      </trkpt>
      <trkpt lat="47.88353" lon="1.93082">
        <ele>94.4</ele>
        <time>2020-07-02T15:52:31Z</time>
      </trkpt>
      <trkpt lat="47.88351" lon="1.93086">
        <ele>94.4</ele>
        <time>2020-07-02T15:52:32Z</time>
      </trkpt>
      <trkpt lat="47.8835" lon="1.93087">
        <ele>94.4</ele>
        <time>2020-07-02T15:52:33Z</time>
      </trkpt>
      <trkpt lat="47.88348" lon="1.9309">
        <ele>94.4</ele>
        <time>2020-07-02T15:52:34Z</time>
      </trkpt>
      <trkpt lat="47.88346" lon="1.93093">
        <ele>94.4</ele>
        <time>2020-07-02T15:52:35Z</time>
      </trkpt>
      <trkpt lat="47.88344" lon="1.93096">
        <ele>94.4</ele>
        <time>2020-07-02T15:52:36Z</time>
      </trkpt>
      <trkpt lat="47.88342" lon="1.93099">
        <ele>94.4</ele>
        <time>2020-07-02T15:52:37Z</time>
      </trkpt>
      <trkpt lat="47.8834" lon="1.93102">
        <ele>94.4</ele>
        <time>2020-07-02T15:52:38Z</time>
      </trkpt>
      <trkpt lat="47.88337" lon="1.93105">
        <ele>94.4</ele>
        <time>2020-07-02T15:52:39Z</time>
      </trkpt>
      <trkpt lat="47.88334" lon="1.93107">
        <ele>94.4</ele>
        <time>2020-07-02T15:52:40Z</time>
      </trkpt>
      <trkpt lat="47.88331" lon="1.93109">
        <ele>94.3</ele>
        <time>2020-07-02T15:52:41Z</time>
      </trkpt>
      <trkpt lat="47.88328" lon="1.93111">
        <ele>94.3</ele>
        <time>2020-07-02T15:52:42Z</time>
      </trkpt>
      <trkpt lat="47.88326" lon="1.93113">
        <ele>94.3</ele>
        <time>2020-07-02T15:52:43Z</time>
      </trkpt>
      <trkpt lat="47.88322" lon="1.93115">
        <ele>94.3</ele>
        <time>2020-07-02T15:52:44Z</time>
      </trkpt>
      <trkpt lat="47.88321" lon="1.93115">
        <ele>94.3</ele>
        <time>2020-07-02T15:52:45Z</time>
      </trkpt>
      <trkpt lat="47.8832" lon="1.93117">
        <ele>94.3</ele>
        <time>2020-07-02T15:52:46Z</time>
      </trkpt>
      <trkpt lat="47.88318" lon="1.93117">
        <ele>94.3</ele>
        <time>2020-07-02T15:52:47Z</time>
      </trkpt>
      <trkpt lat="47.88317" lon="1.93117">
        <ele>94.3</ele>
        <time>2020-07-02T15:52:48Z</time>
      </trkpt>
      <trkpt lat="47.88316" lon="1.93117">
        <ele>94.3</ele>
        <time>2020-07-02T15:52:49Z</time>
      </trkpt>
      <trkpt lat="47.88316" lon="1.93117">
        <ele>94.3</ele>
        <time>2020-07-02T15:52:50Z</time>
      </trkpt>
      <trkpt lat="47.88315" lon="1.93118">
        <ele>94.3</ele>
        <time>2020-07-02T15:52:51Z</time>
      </trkpt>
      <trkpt lat="47.88314" lon="1.93118">
        <ele>94.3</ele>
        <time>2020-07-02T15:52:52Z</time>
      </trkpt>
      <trkpt lat="47.88314" lon="1.93118">
        <ele>94.3</ele>
        <time>2020-07-02T15:52:53Z</time>
      </trkpt>
      <trkpt lat="47.88313" lon="1.93118">
        <ele>94.3</ele>
        <time>2020-07-02T15:52:54Z</time>
      </trkpt>
      <trkpt lat="47.88312" lon="1.93119">
        <ele>94.3</ele>
        <time>2020-07-02T15:52:55Z</time>
      </trkpt>
      <trkpt lat="47.88311" lon="1.93119">
        <ele>94.3</ele>
        <time>2020-07-02T15:52:56Z</time>
      </trkpt>
      <trkpt lat="47.88311" lon="1.93119">
        <ele>94.3</ele>
        <time>2020-07-02T15:52:57Z</time>
      </trkpt>
      <trkpt lat="47.8831" lon="1.93119">
        <ele>94.4</ele>
        <time>2020-07-02T15:52:58Z</time>
      </trkpt>
      <trkpt lat="47.88309" lon="1.9312">
        <ele>94.4</ele>
        <time>2020-07-02T15:52:59Z</time>
      </trkpt>
      <trkpt lat="47.88309" lon="1.9312">
        <ele>94.4</ele>
        <time>2020-07-02T15:53:00Z</time>
      </trkpt>
      <trkpt lat="47.88308" lon="1.9312">
        <ele>94.4</ele>
        <time>2020-07-02T15:53:01Z</time>
      </trkpt>
      <trkpt lat="47.88307" lon="1.9312">
        <ele>94.4</ele>
        <time>2020-07-02T15:53:02Z</time>
      </trkpt>
      <trkpt lat="47.88307" lon="1.93121">
        <ele>94.4</ele>
        <time>2020-07-02T15:53:46Z</time>
      </trkpt>
      <trkpt lat="47.88306" lon="1.93121">
        <ele>94.4</ele>
        <time>2020-07-02T15:53:47Z</time>
      </trkpt>
      <trkpt lat="47.88305" lon="1.93121">
        <ele>94.4</ele>
        <time>2020-07-02T15:53:48Z</time>
      </trkpt>
      <trkpt lat="47.88305" lon="1.93121">
        <ele>94.4</ele>
        <time>2020-07-02T15:53:49Z</time>
      </trkpt>
      <trkpt lat="47.88304" lon="1.93122">
        <ele>94.4</ele>
        <time>2020-07-02T15:53:50Z</time>
      </trkpt>
      <trkpt lat="47.88305" lon="1.93123">
        <ele>94.4</ele>
        <time>2020-07-02T15:53:51Z</time>
      </trkpt>
      <trkpt lat="47.88306" lon="1.93124">
        <ele>94.4</ele>
        <time>2020-07-02T15:53:52Z</time>
      </trkpt>
      <trkpt lat="47.88306" lon="1.93141">
        <ele>96.8</ele>
        <time>2020-07-02T15:53:53Z</time>
      </trkpt>
      <trkpt lat="47.88307" lon="1.93142">
        <ele>96.8</ele>
        <time>2020-07-02T15:53:54Z</time>
      </trkpt>
      <trkpt lat="47.88306" lon="1.93143">
        <ele>96.8</ele>
        <time>2020-07-02T15:53:55Z</time>
      </trkpt>
      <trkpt lat="47.88306" lon="1.93143">
        <ele>96.8</ele>
        <time>2020-07-02T15:53:56Z</time>
      </trkpt>
      <trkpt lat="47.88306" lon="1.93143">
        <ele>96.8</ele>
        <time>2020-07-02T15:53:57Z</time>
      </trkpt>
      <trkpt lat="47.88306" lon="1.93144">
        <ele>96.8</ele>
        <time>2020-07-02T15:53:58Z</time>
      </trkpt>
      <trkpt lat="47.88304" lon="1.93145">
        <ele>96.8</ele>
        <time>2020-07-02T15:53:59Z</time>
      </trkpt>
      <trkpt lat="47.88304" lon="1.93145">
        <ele>96.8</ele>
        <time>2020-07-02T15:54:00Z</time>
      </trkpt>
      <trkpt lat="47.88305" lon="1.93144">
        <ele>96.8</ele>
        <time>2020-07-02T15:54:01Z</time>
      </trkpt>
      <trkpt lat="47.88306" lon="1.93144">
        <ele>96.8</ele>
        <time>2020-07-02T15:54:02Z</time>
      </trkpt>
      <trkpt lat="47.88307" lon="1.93143">
        <ele>96.8</ele>
        <time>2020-07-02T15:54:03Z</time>
      </trkpt>
      <trkpt lat="47.88307" lon="1.93143">
        <ele>96.8</ele>
        <time>2020-07-02T15:54:04Z</time>
      </trkpt>
      <trkpt lat="47.88307" lon="1.93144">
        <ele>96.8</ele>
        <time>2020-07-02T15:54:05Z</time>
      </trkpt>
      <trkpt lat="47.88306" lon="1.93146">
        <ele>96.9</ele>
        <time>2020-07-02T15:54:06Z</time>
      </trkpt>
      <trkpt lat="47.88304" lon="1.93151">
        <ele>96.8</ele>
        <time>2020-07-02T15:54:07Z</time>
      </trkpt>
      <trkpt lat="47.88304" lon="1.93152">
        <ele>96.8</ele>
        <time>2020-07-02T15:54:08Z</time>
      </trkpt>
      <trkpt lat="47.88303" lon="1.93154">
        <ele>96.8</ele>
        <time>2020-07-02T15:54:09Z</time>
      </trkpt>
      <trkpt lat="47.88303" lon="1.93156">
        <ele>96.8</ele>
        <time>2020-07-02T15:54:10Z</time>
      </trkpt>
      <trkpt lat="47.88304" lon="1.93157">
        <ele>96.8</ele>
        <time>2020-07-02T15:54:11Z</time>
      </trkpt>
      <trkpt lat="47.88305" lon="1.93162">
        <ele>96.7</ele>
        <time>2020-07-02T15:54:12Z</time>
      </trkpt>
      <trkpt lat="47.88305" lon="1.93164">
        <ele>96.7</ele>
        <time>2020-07-02T15:54:13Z</time>
      </trkpt>
      <trkpt lat="47.88306" lon="1.9317">
        <ele>96.7</ele>
        <time>2020-07-02T15:54:14Z</time>
      </trkpt>
      <trkpt lat="47.88306" lon="1.93172">
        <ele>96.6</ele>
        <time>2020-07-02T15:54:15Z</time>
      </trkpt>
      <trkpt lat="47.88307" lon="1.93177">
        <ele>96.6</ele>
        <time>2020-07-02T15:54:16Z</time>
      </trkpt>
      <trkpt lat="47.88308" lon="1.93182">
        <ele>96.6</ele>
        <time>2020-07-02T15:54:17Z</time>
      </trkpt>
      <trkpt lat="47.88309" lon="1.93188">
        <ele>96.5</ele>
        <time>2020-07-02T15:54:18Z</time>
      </trkpt>
      <trkpt lat="47.88309" lon="1.93193">
        <ele>96.5</ele>
        <time>2020-07-02T15:54:19Z</time>
      </trkpt>
      <trkpt lat="47.88309" lon="1.932">
        <ele>96.4</ele>
        <time>2020-07-02T15:54:20Z</time>
      </trkpt>
      <trkpt lat="47.8831" lon="1.93204">
        <ele>96.4</ele>
        <time>2020-07-02T15:54:21Z</time>
      </trkpt>
      <trkpt lat="47.88311" lon="1.9321">
        <ele>96.4</ele>
        <time>2020-07-02T15:54:22Z</time>
      </trkpt>
      <trkpt lat="47.88311" lon="1.93212">
        <ele>96.4</ele>
        <time>2020-07-02T15:54:23Z</time>
      </trkpt>
      <trkpt lat="47.88315" lon="1.93232">
        <ele>96.3</ele>
        <time>2020-07-02T15:54:27Z</time>
      </trkpt>
      <trkpt lat="47.88317" lon="1.93233">
        <ele>96.2</ele>
        <time>2020-07-02T15:54:28Z</time>
      </trkpt>
      <trkpt lat="47.88318" lon="1.93234">
        <ele>96.2</ele>
        <time>2020-07-02T15:54:29Z</time>
      </trkpt>
      <trkpt lat="47.88317" lon="1.93231">
        <ele>96.2</ele>
        <time>2020-07-02T15:54:30Z</time>
      </trkpt>
      <trkpt lat="47.88317" lon="1.93232">
        <ele>96.2</ele>
        <time>2020-07-02T15:54:31Z</time>
      </trkpt>
      <trkpt lat="47.88318" lon="1.93234">
        <ele>96.1</ele>
        <time>2020-07-02T15:54:32Z</time>
      </trkpt>
      <trkpt lat="47.88318" lon="1.93236">
        <ele>96.1</ele>
        <time>2020-07-02T15:54:33Z</time>
      </trkpt>
      <trkpt lat="47.88319" lon="1.93238">
        <ele>96.1</ele>
        <time>2020-07-02T15:54:34Z</time>
      </trkpt>
      <trkpt lat="47.8832" lon="1.93238">
        <ele>96.1</ele>
        <time>2020-07-02T15:54:35Z</time>
      </trkpt>
      <trkpt lat="47.8832" lon="1.93236">
        <ele>96</ele>
        <time>2020-07-02T15:54:36Z</time>
      </trkpt>
      <trkpt lat="47.88321" lon="1.93236">
        <ele>96</ele>
        <time>2020-07-02T15:54:37Z</time>
      </trkpt>
      <trkpt lat="47.88323" lon="1.93239">
        <ele>95.9</ele>
        <time>2020-07-02T15:54:38Z</time>
      </trkpt>
      <trkpt lat="47.88323" lon="1.9324">
        <ele>95.9</ele>
        <time>2020-07-02T15:54:39Z</time>
      </trkpt>
      <trkpt lat="47.88324" lon="1.93242">
        <ele>95.9</ele>
        <time>2020-07-02T15:54:40Z</time>
      </trkpt>
      <trkpt lat="47.88325" lon="1.93242">
        <ele>95.8</ele>
        <time>2020-07-02T15:54:41Z</time>
      </trkpt>
      <trkpt lat="47.88327" lon="1.9324">
        <ele>95.8</ele>
        <time>2020-07-02T15:54:42Z</time>
      </trkpt>
      <trkpt lat="47.88327" lon="1.9324">
        <ele>95.8</ele>
        <time>2020-07-02T15:54:43Z</time>
      </trkpt>
      <trkpt lat="47.88326" lon="1.93237">
        <ele>95.7</ele>
        <time>2020-07-02T15:54:44Z</time>
      </trkpt>
      <trkpt lat="47.88323" lon="1.93224">
        <ele>96.1</ele>
        <time>2020-07-02T15:54:45Z</time>
      </trkpt>
      <trkpt lat="47.88323" lon="1.9322">
        <ele>96.2</ele>
        <time>2020-07-02T15:54:46Z</time>
      </trkpt>
      <trkpt lat="47.88322" lon="1.93213">
        <ele>96.3</ele>
        <time>2020-07-02T15:54:47Z</time>
      </trkpt>
      <trkpt lat="47.8832" lon="1.93209">
        <ele>96.3</ele>
        <time>2020-07-02T15:54:48Z</time>
      </trkpt>
      <trkpt lat="47.88319" lon="1.93201">
        <ele>96.4</ele>
        <time>2020-07-02T15:54:49Z</time>
      </trkpt>
      <trkpt lat="47.8832" lon="1.93196">
        <ele>96.4</ele>
        <time>2020-07-02T15:54:50Z</time>
      </trkpt>
      <trkpt lat="47.8832" lon="1.93189">
        <ele>96.4</ele>
        <time>2020-07-02T15:54:51Z</time>
      </trkpt>
      <trkpt lat="47.88321" lon="1.93182">
        <ele>96.5</ele>
        <time>2020-07-02T15:54:52Z</time>
      </trkpt>
      <trkpt lat="47.88322" lon="1.93174">
        <ele>96.6</ele>
        <time>2020-07-02T15:54:53Z</time>
      </trkpt>
      <trkpt lat="47.88322" lon="1.9317">
        <ele>96.6</ele>
        <time>2020-07-02T15:54:54Z</time>
      </trkpt>
      <trkpt lat="47.88322" lon="1.9317">
        <ele>96.6</ele>
        <time>2020-07-02T15:54:55Z</time>
      </trkpt>
      <trkpt lat="47.88322" lon="1.9317">
        <ele>96.6</ele>
        <time>2020-07-02T15:54:56Z</time>
      </trkpt>
      <trkpt lat="47.88322" lon="1.9317">
        <ele>96.6</ele>
        <time>2020-07-02T15:54:57Z</time>
      </trkpt>
      <trkpt lat="47.88322" lon="1.93169">
        <ele>96.6</ele>
        <time>2020-07-02T15:54:58Z</time>
      </trkpt>
      <trkpt lat="47.88322" lon="1.93169">
        <ele>96.6</ele>
        <time>2020-07-02T15:54:59Z</time>
      </trkpt>
      <trkpt lat="47.88328" lon="1.93154">
        <ele>96.8</ele>
        <time>2020-07-02T15:55:28Z</time>
      </trkpt>
      <trkpt lat="47.88329" lon="1.93149">
        <ele>96.9</ele>
        <time>2020-07-02T15:55:29Z</time>
      </trkpt>
      <trkpt lat="47.88331" lon="1.93144">
        <ele>96.7</ele>
        <time>2020-07-02T15:55:30Z</time>
      </trkpt>
      <trkpt lat="47.88333" lon="1.9314">
        <ele>96.6</ele>
        <time>2020-07-02T15:55:31Z</time>
      </trkpt>
      <trkpt lat="47.88335" lon="1.93134">
        <ele>96.5</ele>
        <time>2020-07-02T15:55:32Z</time>
      </trkpt>
      <trkpt lat="47.88336" lon="1.93129">
        <ele>94.6</ele>
        <time>2020-07-02T15:55:33Z</time>
      </trkpt>
      <trkpt lat="47.88339" lon="1.93126">
        <ele>94.5</ele>
        <time>2020-07-02T15:55:34Z</time>
      </trkpt>
      <trkpt lat="47.88341" lon="1.93121">
        <ele>94.5</ele>
        <time>2020-07-02T15:55:35Z</time>
      </trkpt>
      <trkpt lat="47.88343" lon="1.93117">
        <ele>94.4</ele>
        <time>2020-07-02T15:55:36Z</time>
      </trkpt>
      <trkpt lat="47.88345" lon="1.93113">
        <ele>94.4</ele>
        <time>2020-07-02T15:55:37Z</time>
      </trkpt>
      <trkpt lat="47.88348" lon="1.9311">
        <ele>94.4</ele>
        <time>2020-07-02T15:55:38Z</time>
      </trkpt>
      <trkpt lat="47.8835" lon="1.93108">
        <ele>94.3</ele>
        <time>2020-07-02T15:55:39Z</time>
      </trkpt>
      <trkpt lat="47.88354" lon="1.93104">
        <ele>94.3</ele>
        <time>2020-07-02T15:55:40Z</time>
      </trkpt>
      <trkpt lat="47.88355" lon="1.93103">
        <ele>94.3</ele>
        <time>2020-07-02T15:55:41Z</time>
      </trkpt>
      <trkpt lat="47.88358" lon="1.93098">
        <ele>94.3</ele>
        <time>2020-07-02T15:55:42Z</time>
      </trkpt>
      <trkpt lat="47.88359" lon="1.93097">
        <ele>94.2</ele>
        <time>2020-07-02T15:55:43Z</time>
      </trkpt>
      <trkpt lat="47.88362" lon="1.93093">
        <ele>94.2</ele>
        <time>2020-07-02T15:55:44Z</time>
      </trkpt>
      <trkpt lat="47.88364" lon="1.9309">
        <ele>94.1</ele>
        <time>2020-07-02T15:55:45Z</time>
      </trkpt>
      <trkpt lat="47.88366" lon="1.93086">
        <ele>94.1</ele>
        <time>2020-07-02T15:55:46Z</time>
      </trkpt>
      <trkpt lat="47.88367" lon="1.93085">
        <ele>94.1</ele>
        <time>2020-07-02T15:55:47Z</time>
      </trkpt>
      <trkpt lat="47.88369" lon="1.93081">
        <ele>94</ele>
        <time>2020-07-02T15:55:48Z</time>
      </trkpt>
      <trkpt lat="47.88369" lon="1.9308">
        <ele>94</ele>
        <time>2020-07-02T15:55:49Z</time>
      </trkpt>
      <trkpt lat="47.88371" lon="1.93077">
        <ele>94</ele>
        <time>2020-07-02T15:55:50Z</time>
      </trkpt>
      <trkpt lat="47.88371" lon="1.93075">
        <ele>94</ele>
        <time>2020-07-02T15:55:51Z</time>
      </trkpt>
      <trkpt lat="47.88372" lon="1.93074">
        <ele>94</ele>
        <time>2020-07-02T15:55:52Z</time>
      </trkpt>
      <trkpt lat="47.88374" lon="1.93072">
        <ele>93.9</ele>
        <time>2020-07-02T15:55:53Z</time>
      </trkpt>
      <trkpt lat="47.88376" lon="1.93068">
        <ele>93.9</ele>
        <time>2020-07-02T15:55:54Z</time>
      </trkpt>
      <trkpt lat="47.88377" lon="1.93067">
        <ele>93.9</ele>
        <time>2020-07-02T15:55:55Z</time>
      </trkpt>
      <trkpt lat="47.88379" lon="1.93063">
        <ele>94.3</ele>
        <time>2020-07-02T15:55:56Z</time>
      </trkpt>
      <trkpt lat="47.88379" lon="1.93058">
        <ele>94.3</ele>
        <time>2020-07-02T15:55:57Z</time>
      </trkpt>
      <trkpt lat="47.8838" lon="1.93054">
        <ele>94.3</ele>
        <time>2020-07-02T15:55:58Z</time>
      </trkpt>
      <trkpt lat="47.8838" lon="1.93053">
        <ele>94.3</ele>
        <time>2020-07-02T15:55:59Z</time>
      </trkpt>
      <trkpt lat="47.8838" lon="1.93051">
        <ele>94.3</ele>
        <time>2020-07-02T15:56:00Z</time>
      </trkpt>
      <trkpt lat="47.8838" lon="1.9305">
        <ele>94.3</ele>
        <time>2020-07-02T15:56:01Z</time>
      </trkpt>
      <trkpt lat="47.8838" lon="1.93049">
        <ele>94.3</ele>
        <time>2020-07-02T15:56:02Z</time>
      </trkpt>
      <trkpt lat="47.8838" lon="1.93049">
        <ele>94.3</ele>
        <time>2020-07-02T15:56:03Z</time>
      </trkpt>
      <trkpt lat="47.88378" lon="1.93045">
        <ele>94.3</ele>
        <time>2020-07-02T15:56:04Z</time>
      </trkpt>
      <trkpt lat="47.88377" lon="1.93044">
        <ele>94.3</ele>
        <time>2020-07-02T15:56:05Z</time>
      </trkpt>
      <trkpt lat="47.88375" lon="1.93039">
        <ele>94.2</ele>
        <time>2020-07-02T15:56:06Z</time>
      </trkpt>
      <trkpt lat="47.88373" lon="1.93034">
        <ele>94.2</ele>
        <time>2020-07-02T15:56:07Z</time>
      </trkpt>
      <trkpt lat="47.88371" lon="1.9303">
        <ele>94.2</ele>
        <time>2020-07-02T15:56:08Z</time>
      </trkpt>
      <trkpt lat="47.88369" lon="1.93026">
        <ele>94.2</ele>
        <time>2020-07-02T15:56:09Z</time>
      </trkpt>
      <trkpt lat="47.88367" lon="1.93022">
        <ele>94.2</ele>
        <time>2020-07-02T15:56:10Z</time>
      </trkpt>
      <trkpt lat="47.88364" lon="1.93018">
        <ele>94.1</ele>
        <time>2020-07-02T15:56:11Z</time>
      </trkpt>
      <trkpt lat="47.88362" lon="1.93014">
        <ele>94.1</ele>
        <time>2020-07-02T15:56:12Z</time>
      </trkpt>
      <trkpt lat="47.8836" lon="1.93011">
        <ele>94.1</ele>
        <time>2020-07-02T15:56:13Z</time>
      </trkpt>
      <trkpt lat="47.88358" lon="1.93007">
        <ele>94.1</ele>
        <time>2020-07-02T15:56:14Z</time>
      </trkpt>
      <trkpt lat="47.88356" lon="1.93004">
        <ele>94</ele>
        <time>2020-07-02T15:56:15Z</time>
      </trkpt>
      <trkpt lat="47.88353" lon="1.93">
        <ele>94</ele>
        <time>2020-07-02T15:56:16Z</time>
      </trkpt>
      <trkpt lat="47.88353" lon="1.92998">
        <ele>94</ele>
        <time>2020-07-02T15:56:17Z</time>
      </trkpt>
      <trkpt lat="47.88351" lon="1.92998">
        <ele>94</ele>
        <time>2020-07-02T15:56:18Z</time>
      </trkpt>
      <trkpt lat="47.8835" lon="1.92999">
        <ele>94</ele>
        <time>2020-07-02T15:56:19Z</time>
      </trkpt>
      <trkpt lat="47.88346" lon="1.93001">
        <ele>94</ele>
        <time>2020-07-02T15:56:20Z</time>
      </trkpt>
      <trkpt lat="47.88345" lon="1.93001">
        <ele>94</ele>
        <time>2020-07-02T15:56:21Z</time>
      </trkpt>
      <trkpt lat="47.88342" lon="1.93003">
        <ele>93.9</ele>
        <time>2020-07-02T15:56:22Z</time>
      </trkpt>
      <trkpt lat="47.88339" lon="1.93003">
        <ele>93.9</ele>
        <time>2020-07-02T15:56:23Z</time>
      </trkpt>
      <trkpt lat="47.88336" lon="1.93004">
        <ele>93.9</ele>
        <time>2020-07-02T15:56:24Z</time>
      </trkpt>
      <trkpt lat="47.88333" lon="1.93003">
        <ele>93.9</ele>
        <time>2020-07-02T15:56:25Z</time>
      </trkpt>
      <trkpt lat="47.8833" lon="1.93">
        <ele>93.8</ele>
        <time>2020-07-02T15:56:26Z</time>
      </trkpt>
      <trkpt lat="47.88329" lon="1.92999">
        <ele>93.8</ele>
        <time>2020-07-02T15:56:27Z</time>
      </trkpt>
      <trkpt lat="47.88327" lon="1.92996">
        <ele>93.8</ele>
        <time>2020-07-02T15:56:28Z</time>
      </trkpt>
      <trkpt lat="47.88323" lon="1.92994">
        <ele>93.8</ele>
        <time>2020-07-02T15:56:29Z</time>
      </trkpt>
      <trkpt lat="47.8832" lon="1.92993">
        <ele>93.8</ele>
        <time>2020-07-02T15:56:30Z</time>
      </trkpt>
      <trkpt lat="47.88316" lon="1.9299">
        <ele>93.7</ele>
        <time>2020-07-02T15:56:31Z</time>
      </trkpt>
      <trkpt lat="47.88313" lon="1.92986">
        <ele>93.7</ele>
        <time>2020-07-02T15:56:32Z</time>
      </trkpt>
      <trkpt lat="47.88309" lon="1.92984">
        <ele>93.8</ele>
        <time>2020-07-02T15:56:33Z</time>
      </trkpt>
      <trkpt lat="47.88305" lon="1.92984">
        <ele>93.8</ele>
        <time>2020-07-02T15:56:34Z</time>
      </trkpt>
      <trkpt lat="47.88301" lon="1.92986">
        <ele>93.8</ele>
        <time>2020-07-02T15:56:35Z</time>
      </trkpt>
      <trkpt lat="47.88297" lon="1.92989">
        <ele>93.9</ele>
        <time>2020-07-02T15:56:36Z</time>
      </trkpt>
      <trkpt lat="47.88293" lon="1.92993">
        <ele>93.9</ele>
        <time>2020-07-02T15:56:37Z</time>
      </trkpt>
      <trkpt lat="47.8829" lon="1.92996">
        <ele>93.9</ele>
        <time>2020-07-02T15:56:38Z</time>
      </trkpt>
      <trkpt lat="47.88286" lon="1.93">
        <ele>93.9</ele>
        <time>2020-07-02T15:56:39Z</time>
      </trkpt>
      <trkpt lat="47.88283" lon="1.93004">
        <ele>94</ele>
        <time>2020-07-02T15:56:40Z</time>
      </trkpt>
      <trkpt lat="47.88279" lon="1.93008">
        <ele>94</ele>
        <time>2020-07-02T15:56:41Z</time>
      </trkpt>
      <trkpt lat="47.88276" lon="1.93011">
        <ele>94.1</ele>
        <time>2020-07-02T15:56:42Z</time>
      </trkpt>
      <trkpt lat="47.88272" lon="1.93013">
        <ele>94.1</ele>
        <time>2020-07-02T15:56:43Z</time>
      </trkpt>
      <trkpt lat="47.88269" lon="1.93016">
        <ele>94.1</ele>
        <time>2020-07-02T15:56:44Z</time>
      </trkpt>
      <trkpt lat="47.88266" lon="1.93018">
        <ele>94.1</ele>
        <time>2020-07-02T15:56:45Z</time>
      </trkpt>
      <trkpt lat="47.88264" lon="1.93023">
        <ele>94.1</ele>
        <time>2020-07-02T15:56:46Z</time>
      </trkpt>
      <trkpt lat="47.88262" lon="1.93027">
        <ele>94.1</ele>
        <time>2020-07-02T15:56:47Z</time>
      </trkpt>
      <trkpt lat="47.88262" lon="1.93032">
        <ele>94.1</ele>
        <time>2020-07-02T15:56:48Z</time>
      </trkpt>
      <trkpt lat="47.88261" lon="1.93037">
        <ele>94.1</ele>
        <time>2020-07-02T15:56:49Z</time>
      </trkpt>
      <trkpt lat="47.88262" lon="1.93041">
        <ele>94.1</ele>
        <time>2020-07-02T15:56:50Z</time>
      </trkpt>
      <trkpt lat="47.88262" lon="1.93046">
        <ele>94.1</ele>
        <time>2020-07-02T15:56:51Z</time>
      </trkpt>
      <trkpt lat="47.88263" lon="1.93047">
        <ele>94.1</ele>
        <time>2020-07-02T15:56:52Z</time>
      </trkpt>
      <trkpt lat="47.88264" lon="1.93051">
        <ele>94.1</ele>
        <time>2020-07-02T15:56:53Z</time>
      </trkpt>
      <trkpt lat="47.88265" lon="1.93053">
        <ele>94.1</ele>
        <time>2020-07-02T15:56:54Z</time>
      </trkpt>
      <trkpt lat="47.88265" lon="1.93055">
        <ele>94.1</ele>
        <time>2020-07-02T15:56:55Z</time>
      </trkpt>
      <trkpt lat="47.88265" lon="1.93053">
        <ele>94.1</ele>
        <time>2020-07-02T15:56:56Z</time>
      </trkpt>
      <trkpt lat="47.88265" lon="1.93052">
        <ele>94.1</ele>
        <time>2020-07-02T15:56:57Z</time>
      </trkpt>
      <trkpt lat="47.88265" lon="1.93051">
        <ele>94.1</ele>
        <time>2020-07-02T15:56:58Z</time>
      </trkpt>
      <trkpt lat="47.88265" lon="1.93051">
        <ele>94.1</ele>
        <time>2020-07-02T15:56:59Z</time>
      </trkpt>
      <trkpt lat="47.88265" lon="1.93052">
        <ele>94.1</ele>
        <time>2020-07-02T15:57:00Z</time>
      </trkpt>
      <trkpt lat="47.88265" lon="1.93052">
        <ele>94.1</ele>
        <time>2020-07-02T15:57:01Z</time>
      </trkpt>
      <trkpt lat="47.88265" lon="1.93052">
        <ele>94.1</ele>
        <time>2020-07-02T15:57:02Z</time>
      </trkpt>
      <trkpt lat="47.88265" lon="1.93051">
        <ele>94.1</ele>
        <time>2020-07-02T15:57:03Z</time>
      </trkpt>
      <trkpt lat="47.88265" lon="1.93051">
        <ele>94.1</ele>
        <time>2020-07-02T15:57:04Z</time>
      </trkpt>
      <trkpt lat="47.88265" lon="1.9305">
        <ele>94.1</ele>
        <time>2020-07-02T15:57:05Z</time>
      </trkpt>
      <trkpt lat="47.88264" lon="1.93051">
        <ele>94.1</ele>
        <time>2020-07-02T15:57:06Z</time>
      </trkpt>
      <trkpt lat="47.88273" lon="1.93052">
        <ele>94.1</ele>
        <time>2020-07-02T16:10:02Z</time>
      </trkpt>
      <trkpt lat="47.88273" lon="1.93051">
        <ele>94.1</ele>
        <time>2020-07-02T16:10:03Z</time>
      </trkpt>
      <trkpt lat="47.88274" lon="1.93052">
        <ele>94.1</ele>
        <time>2020-07-02T16:10:04Z</time>
      </trkpt>
      <trkpt lat="47.88274" lon="1.93053">
        <ele>94.1</ele>
        <time>2020-07-02T16:10:05Z</time>
      </trkpt>
      <trkpt lat="47.88276" lon="1.93055">
        <ele>94.1</ele>
        <time>2020-07-02T16:10:06Z</time>
      </trkpt>
      <trkpt lat="47.88276" lon="1.93057">
        <ele>94.1</ele>
        <time>2020-07-02T16:10:07Z</time>
      </trkpt>
      <trkpt lat="47.88277" lon="1.93058">
        <ele>94.1</ele>
        <time>2020-07-02T16:10:08Z</time>
      </trkpt>
      <trkpt lat="47.88278" lon="1.93063">
        <ele>94.1</ele>
        <time>2020-07-02T16:10:09Z</time>
      </trkpt>
      <trkpt lat="47.88279" lon="1.93064">
        <ele>94.1</ele>
        <time>2020-07-02T16:10:10Z</time>
      </trkpt>
      <trkpt lat="47.88281" lon="1.93068">
        <ele>94.1</ele>
        <time>2020-07-02T16:10:11Z</time>
      </trkpt>
      <trkpt lat="47.88281" lon="1.9307">
        <ele>94.1</ele>
        <time>2020-07-02T16:10:12Z</time>
      </trkpt>
      <trkpt lat="47.88284" lon="1.93073">
        <ele>94.1</ele>
        <time>2020-07-02T16:10:13Z</time>
      </trkpt>
      <trkpt lat="47.88285" lon="1.93074">
        <ele>94.1</ele>
        <time>2020-07-02T16:10:14Z</time>
      </trkpt>
      <trkpt lat="47.88286" lon="1.93077">
        <ele>94.1</ele>
        <time>2020-07-02T16:10:15Z</time>
      </trkpt>
      <trkpt lat="47.88287" lon="1.93078">
        <ele>94.1</ele>
        <time>2020-07-02T16:10:16Z</time>
      </trkpt>
      <trkpt lat="47.88288" lon="1.93077">
        <ele>94.1</ele>
        <time>2020-07-02T16:10:17Z</time>
      </trkpt>
      <trkpt lat="47.88288" lon="1.93076">
        <ele>94.1</ele>
        <time>2020-07-02T16:10:18Z</time>
      </trkpt>
      <trkpt lat="47.88288" lon="1.93075">
        <ele>94.1</ele>
        <time>2020-07-02T16:10:19Z</time>
      </trkpt>
      <trkpt lat="47.88288" lon="1.93075">
        <ele>94.1</ele>
        <time>2020-07-02T16:10:20Z</time>
      </trkpt>
      <trkpt lat="47.88288" lon="1.93075">
        <ele>94.1</ele>
        <time>2020-07-02T16:10:21Z</time>
      </trkpt>
      <trkpt lat="47.88288" lon="1.93075">
        <ele>94.1</ele>
        <time>2020-07-02T16:10:22Z</time>
      </trkpt>
      <trkpt lat="47.88288" lon="1.93074">
        <ele>94.1</ele>
        <time>2020-07-02T16:10:23Z</time>
      </trkpt>
      <trkpt lat="47.88288" lon="1.93074">
        <ele>94.1</ele>
        <time>2020-07-02T16:10:24Z</time>
      </trkpt>
      <trkpt lat="47.88289" lon="1.93074">
        <ele>94.1</ele>
        <time>2020-07-02T16:10:25Z</time>
      </trkpt>
      <trkpt lat="47.88288" lon="1.93073">
        <ele>94.1</ele>
        <time>2020-07-02T16:10:26Z</time>
      </trkpt>
      <trkpt lat="47.88288" lon="1.93073">
        <ele>94.1</ele>
        <time>2020-07-02T16:10:27Z</time>
      </trkpt>
      <trkpt lat="47.88288" lon="1.93073">
        <ele>94.1</ele>
        <time>2020-07-02T16:10:28Z</time>
      </trkpt>
      <trkpt lat="47.88289" lon="1.93073">
        <ele>94.1</ele>
        <time>2020-07-02T16:10:29Z</time>
      </trkpt>
      <trkpt lat="47.88289" lon="1.93073">
        <ele>94.1</ele>
        <time>2020-07-02T16:10:30Z</time>
      </trkpt>
      <trkpt lat="47.88289" lon="1.93072">
        <ele>94.1</ele>
        <time>2020-07-02T16:10:31Z</time>
      </trkpt>
      <trkpt lat="47.88289" lon="1.93071">
        <ele>94.1</ele>
        <time>2020-07-02T16:10:32Z</time>
      </trkpt>
      <trkpt lat="47.88289" lon="1.9307">
        <ele>94.1</ele>
        <time>2020-07-02T16:10:33Z</time>
      </trkpt>
      <trkpt lat="47.88289" lon="1.9307">
        <ele>94.1</ele>
        <time>2020-07-02T16:10:34Z</time>
      </trkpt>
      <trkpt lat="47.88289" lon="1.9307">
        <ele>94.1</ele>
        <time>2020-07-02T16:10:35Z</time>
      </trkpt>
      <trkpt lat="47.88288" lon="1.9307">
        <ele>94.1</ele>
        <time>2020-07-02T16:10:36Z</time>
      </trkpt>
      <trkpt lat="47.88288" lon="1.9307">
        <ele>94.1</ele>
        <time>2020-07-02T16:10:37Z</time>
      </trkpt>
      <trkpt lat="47.88288" lon="1.93071">
        <ele>94.1</ele>
        <time>2020-07-02T16:10:38Z</time>
      </trkpt>
      <trkpt lat="47.88287" lon="1.93071">
        <ele>94.1</ele>
        <time>2020-07-02T16:10:39Z</time>
      </trkpt>
      <trkpt lat="47.88287" lon="1.93071">
        <ele>94.1</ele>
        <time>2020-07-02T16:10:40Z</time>
      </trkpt>
      <trkpt lat="47.88287" lon="1.93072">
        <ele>94.1</ele>
        <time>2020-07-02T16:10:41Z</time>
      </trkpt>
      <trkpt lat="47.88286" lon="1.93072">
        <ele>94.1</ele>
        <time>2020-07-02T16:10:42Z</time>
      </trkpt>
      <trkpt lat="47.88286" lon="1.93072">
        <ele>94.1</ele>
        <time>2020-07-02T16:10:43Z</time>
      </trkpt>
      <trkpt lat="47.88285" lon="1.93073">
        <ele>94.1</ele>
        <time>2020-07-02T16:10:44Z</time>
      </trkpt>
      <trkpt lat="47.88285" lon="1.93073">
        <ele>94.1</ele>
        <time>2020-07-02T16:10:45Z</time>
      </trkpt>
      <trkpt lat="47.88284" lon="1.93073">
        <ele>94.1</ele>
        <time>2020-07-02T16:10:46Z</time>
      </trkpt>
      <trkpt lat="47.88283" lon="1.93073">
        <ele>94.1</ele>
        <time>2020-07-02T16:10:47Z</time>
      </trkpt>
      <trkpt lat="47.88283" lon="1.93074">
        <ele>94.1</ele>
        <time>2020-07-02T16:10:48Z</time>
      </trkpt>
      <trkpt lat="47.88283" lon="1.93073">
        <ele>94.1</ele>
        <time>2020-07-02T16:10:49Z</time>
      </trkpt>
      <trkpt lat="47.88283" lon="1.93072">
        <ele>94.1</ele>
        <time>2020-07-02T16:10:50Z</time>
      </trkpt>
      <trkpt lat="47.88284" lon="1.93072">
        <ele>94.1</ele>
        <time>2020-07-02T16:10:51Z</time>
      </trkpt>
      <trkpt lat="47.88283" lon="1.93071">
        <ele>94.1</ele>
        <time>2020-07-02T16:10:52Z</time>
      </trkpt>
      <trkpt lat="47.88283" lon="1.93071">
        <ele>94.1</ele>
        <time>2020-07-02T16:10:53Z</time>
      </trkpt>
      <trkpt lat="47.88283" lon="1.93071">
        <ele>94.1</ele>
        <time>2020-07-02T16:10:54Z</time>
      </trkpt>
      <trkpt lat="47.88283" lon="1.93072">
        <ele>94.1</ele>
        <time>2020-07-02T16:10:55Z</time>
      </trkpt>
      <trkpt lat="47.88283" lon="1.93072">
        <ele>94.1</ele>
        <time>2020-07-02T16:10:56Z</time>
      </trkpt>
      <trkpt lat="47.88284" lon="1.93073">
        <ele>94.1</ele>
        <time>2020-07-02T16:10:57Z</time>
      </trkpt>
      <trkpt lat="47.88284" lon="1.93073">
        <ele>94.1</ele>
        <time>2020-07-02T16:10:58Z</time>
      </trkpt>
      <trkpt lat="47.88284" lon="1.93073">
        <ele>94.1</ele>
        <time>2020-07-02T16:10:59Z</time>
      </trkpt>
      <trkpt lat="47.88284" lon="1.93074">
        <ele>94.1</ele>
        <time>2020-07-02T16:11:00Z</time>
      </trkpt>
      <trkpt lat="47.88285" lon="1.93073">
        <ele>94.1</ele>
        <time>2020-07-02T16:11:01Z</time>
      </trkpt>
      <trkpt lat="47.88286" lon="1.93074">
        <ele>94.1</ele>
        <time>2020-07-02T16:11:02Z</time>
      </trkpt>
      <trkpt lat="47.88286" lon="1.93073">
        <ele>94.1</ele>
        <time>2020-07-02T16:11:03Z</time>
      </trkpt>
      <trkpt lat="47.88287" lon="1.93073">
        <ele>94.1</ele>
        <time>2020-07-02T16:11:04Z</time>
      </trkpt>
      <trkpt lat="47.88287" lon="1.93072">
        <ele>94.1</ele>
        <time>2020-07-02T16:11:05Z</time>
      </trkpt>
      <trkpt lat="47.88287" lon="1.93072">
        <ele>94.1</ele>
        <time>2020-07-02T16:11:06Z</time>
      </trkpt>
      <trkpt lat="47.88287" lon="1.93072">
        <ele>94.1</ele>
        <time>2020-07-02T16:11:07Z</time>
      </trkpt>
      <trkpt lat="47.88287" lon="1.93071">
        <ele>94.1</ele>
        <time>2020-07-02T16:11:08Z</time>
      </trkpt>
      <trkpt lat="47.88287" lon="1.9307">
        <ele>94.1</ele>
        <time>2020-07-02T16:11:09Z</time>
      </trkpt>
      <trkpt lat="47.88287" lon="1.9307">
        <ele>94.1</ele>
        <time>2020-07-02T16:11:10Z</time>
      </trkpt>
      <trkpt lat="47.88287" lon="1.9307">
        <ele>94.1</ele>
        <time>2020-07-02T16:11:11Z</time>
      </trkpt>
      <trkpt lat="47.88287" lon="1.9307">
        <ele>94.1</ele>
        <time>2020-07-02T16:11:12Z</time>
      </trkpt>
      <trkpt lat="47.88287" lon="1.9307">
        <ele>94.1</ele>
        <time>2020-07-02T16:11:13Z</time>
      </trkpt>
      <trkpt lat="47.88287" lon="1.9307">
        <ele>94.1</ele>
        <time>2020-07-02T16:11:14Z</time>
      </trkpt>
      <trkpt lat="47.88285" lon="1.93079">
        <ele>94.1</ele>
        <time>2020-07-02T16:11:38Z</time>
      </trkpt>
      <trkpt lat="47.88286" lon="1.9308">
        <ele>94.1</ele>
        <time>2020-07-02T16:11:39Z</time>
      </trkpt>
      <trkpt lat="47.88286" lon="1.93082">
        <ele>94.1</ele>
        <time>2020-07-02T16:11:40Z</time>
      </trkpt>
      <trkpt lat="47.88287" lon="1.93084">
        <ele>94.1</ele>
        <time>2020-07-02T16:11:41Z</time>
      </trkpt>
      <trkpt lat="47.88288" lon="1.93086">
        <ele>94.1</ele>
        <time>2020-07-02T16:11:42Z</time>
      </trkpt>
      <trkpt lat="47.8829" lon="1.93087">
        <ele>94.1</ele>
        <time>2020-07-02T16:11:43Z</time>
      </trkpt>
      <trkpt lat="47.88291" lon="1.93089">
        <ele>94.1</ele>
        <time>2020-07-02T16:11:44Z</time>
      </trkpt>
      <trkpt lat="47.88292" lon="1.9309">
        <ele>94.1</ele>
        <time>2020-07-02T16:11:45Z</time>
      </trkpt>
      <trkpt lat="47.88293" lon="1.93089">
        <ele>94.1</ele>
        <time>2020-07-02T16:11:46Z</time>
      </trkpt>
      <trkpt lat="47.88295" lon="1.93091">
        <ele>94.1</ele>
        <time>2020-07-02T16:11:47Z</time>
      </trkpt>
      <trkpt lat="47.88295" lon="1.93092">
        <ele>94.1</ele>
        <time>2020-07-02T16:11:48Z</time>
      </trkpt>
      <trkpt lat="47.88294" lon="1.93093">
        <ele>94.1</ele>
        <time>2020-07-02T16:11:49Z</time>
      </trkpt>
      <trkpt lat="47.88294" lon="1.93093">
        <ele>94.1</ele>
        <time>2020-07-02T16:11:50Z</time>
      </trkpt>
      <trkpt lat="47.88294" lon="1.93093">
        <ele>94.1</ele>
        <time>2020-07-02T16:11:51Z</time>
      </trkpt>
      <trkpt lat="47.88294" lon="1.93094">
        <ele>94.1</ele>
        <time>2020-07-02T16:11:52Z</time>
      </trkpt>
      <trkpt lat="47.88295" lon="1.93094">
        <ele>94.1</ele>
        <time>2020-07-02T16:11:53Z</time>
      </trkpt>
      <trkpt lat="47.88295" lon="1.93094">
        <ele>94.1</ele>
        <time>2020-07-02T16:11:54Z</time>
      </trkpt>
      <trkpt lat="47.88295" lon="1.93094">
        <ele>94.1</ele>
        <time>2020-07-02T16:11:55Z</time>
      </trkpt>
      <trkpt lat="47.88295" lon="1.93094">
        <ele>94.1</ele>
        <time>2020-07-02T16:11:56Z</time>
      </trkpt>
      <trkpt lat="47.88296" lon="1.93095">
        <ele>94.1</ele>
        <time>2020-07-02T16:11:57Z</time>
      </trkpt>
      <trkpt lat="47.88295" lon="1.93094">
        <ele>94.1</ele>
        <time>2020-07-02T16:11:58Z</time>
      </trkpt>
      <trkpt lat="47.88283" lon="1.93075">
        <ele>94.1</ele>
        <time>2020-07-02T17:56:48Z</time>
      </trkpt>
      <trkpt lat="47.8828" lon="1.93077">
        <ele>94.1</ele>
        <time>2020-07-02T17:56:49Z</time>
      </trkpt>
      <trkpt lat="47.88282" lon="1.93082">
        <ele>94.1</ele>
        <time>2020-07-02T17:56:50Z</time>
      </trkpt>
      <trkpt lat="47.88279" lon="1.93082">
        <ele>94.1</ele>
        <time>2020-07-02T17:56:51Z</time>
      </trkpt>
      <trkpt lat="47.88277" lon="1.9308">
        <ele>94.1</ele>
        <time>2020-07-02T17:56:52Z</time>
      </trkpt>
      <trkpt lat="47.88276" lon="1.93077">
        <ele>94.1</ele>
        <time>2020-07-02T17:56:53Z</time>
      </trkpt>
      <trkpt lat="47.88275" lon="1.93076">
        <ele>94.1</ele>
        <time>2020-07-02T17:56:54Z</time>
      </trkpt>
      <trkpt lat="47.88275" lon="1.93075">
        <ele>94.1</ele>
        <time>2020-07-02T17:56:55Z</time>
      </trkpt>
      <trkpt lat="47.88275" lon="1.93073">
        <ele>94.1</ele>
        <time>2020-07-02T17:56:56Z</time>
      </trkpt>
      <trkpt lat="47.88275" lon="1.93072">
        <ele>94.1</ele>
        <time>2020-07-02T17:56:57Z</time>
      </trkpt>
      <trkpt lat="47.88275" lon="1.93071">
        <ele>94.1</ele>
        <time>2020-07-02T17:56:58Z</time>
      </trkpt>
      <trkpt lat="47.88275" lon="1.9307">
        <ele>94.1</ele>
        <time>2020-07-02T17:56:59Z</time>
      </trkpt>
      <trkpt lat="47.88275" lon="1.93069">
        <ele>94.1</ele>
        <time>2020-07-02T17:57:00Z</time>
      </trkpt>
      <trkpt lat="47.88276" lon="1.93068">
        <ele>94.1</ele>
        <time>2020-07-02T17:57:01Z</time>
      </trkpt>
      <trkpt lat="47.88276" lon="1.93067">
        <ele>94.1</ele>
        <time>2020-07-02T17:57:02Z</time>
      </trkpt>
      <trkpt lat="47.88276" lon="1.93068">
        <ele>94.1</ele>
        <time>2020-07-02T17:57:03Z</time>
      </trkpt>
      <trkpt lat="47.88276" lon="1.93068">
        <ele>94.1</ele>
        <time>2020-07-02T17:57:04Z</time>
      </trkpt>
      <trkpt lat="47.88276" lon="1.93068">
        <ele>94.1</ele>
        <time>2020-07-02T17:57:05Z</time>
      </trkpt>
      <trkpt lat="47.88276" lon="1.93069">
        <ele>94.1</ele>
        <time>2020-07-02T17:57:06Z</time>
      </trkpt>
      <trkpt lat="47.88276" lon="1.9307">
        <ele>94.1</ele>
        <time>2020-07-02T17:57:07Z</time>
      </trkpt>
      <trkpt lat="47.88276" lon="1.93071">
        <ele>94.1</ele>
        <time>2020-07-02T17:57:08Z</time>
      </trkpt>
      <trkpt lat="47.88277" lon="1.93072">
        <ele>94.1</ele>
        <time>2020-07-02T17:57:09Z</time>
      </trkpt>
      <trkpt lat="47.88277" lon="1.93073">
        <ele>94.1</ele>
        <time>2020-07-02T17:57:10Z</time>
      </trkpt>
      <trkpt lat="47.88277" lon="1.93073">
        <ele>94.1</ele>
        <time>2020-07-02T17:57:11Z</time>
      </trkpt>
      <trkpt lat="47.88277" lon="1.93073">
        <ele>94.1</ele>
        <time>2020-07-02T17:57:12Z</time>
      </trkpt>
      <trkpt lat="47.88277" lon="1.93073">
        <ele>94.1</ele>
        <time>2020-07-02T17:57:13Z</time>
      </trkpt>
      <trkpt lat="47.88277" lon="1.93072">
        <ele>94.1</ele>
        <time>2020-07-02T17:57:14Z</time>
      </trkpt>
      <trkpt lat="47.88276" lon="1.93074">
        <ele>94.1</ele>
        <time>2020-07-02T17:58:49Z</time>
      </trkpt>
      <trkpt lat="47.88275" lon="1.93073">
        <ele>94.1</ele>
        <time>2020-07-02T17:58:50Z</time>
      </trkpt>
      <trkpt lat="47.88272" lon="1.93069">
        <ele>94.1</ele>
        <time>2020-07-02T17:58:51Z</time>
      </trkpt>
      <trkpt lat="47.88271" lon="1.93068">
        <ele>94.1</ele>
        <time>2020-07-02T17:58:52Z</time>
      </trkpt>
      <trkpt lat="47.88269" lon="1.93064">
        <ele>94.1</ele>
        <time>2020-07-02T17:58:53Z</time>
      </trkpt>
      <trkpt lat="47.88269" lon="1.93063">
        <ele>94.1</ele>
        <time>2020-07-02T17:58:54Z</time>
      </trkpt>
      <trkpt lat="47.88267" lon="1.93061">
        <ele>94.1</ele>
        <time>2020-07-02T17:58:55Z</time>
      </trkpt>
      <trkpt lat="47.88266" lon="1.93059">
        <ele>94.1</ele>
        <time>2020-07-02T17:58:56Z</time>
      </trkpt>
      <trkpt lat="47.88265" lon="1.93056">
        <ele>94.1</ele>
        <time>2020-07-02T17:58:57Z</time>
      </trkpt>
      <trkpt lat="47.88265" lon="1.93055">
        <ele>94.1</ele>
        <time>2020-07-02T17:58:58Z</time>
      </trkpt>
      <trkpt lat="47.88264" lon="1.93054">
        <ele>94.1</ele>
        <time>2020-07-02T17:58:59Z</time>
      </trkpt>
      <trkpt lat="47.88264" lon="1.93053">
        <ele>94.1</ele>
        <time>2020-07-02T17:59:00Z</time>
      </trkpt>
      <trkpt lat="47.88263" lon="1.93052">
        <ele>94.1</ele>
        <time>2020-07-02T17:59:01Z</time>
      </trkpt>
      <trkpt lat="47.88264" lon="1.93052">
        <ele>94.1</ele>
        <time>2020-07-02T17:59:02Z</time>
      </trkpt>
      <trkpt lat="47.88264" lon="1.93052">
        <ele>94.1</ele>
        <time>2020-07-02T17:59:03Z</time>
      </trkpt>
      <trkpt lat="47.88264" lon="1.93052">
        <ele>94.1</ele>
        <time>2020-07-02T17:59:04Z</time>
      </trkpt>
      <trkpt lat="47.88264" lon="1.93052">
        <ele>94.1</ele>
        <time>2020-07-02T17:59:05Z</time>
      </trkpt>
      <trkpt lat="47.88264" lon="1.93052">
        <ele>94.1</ele>
        <time>2020-07-02T17:59:06Z</time>
      </trkpt>
      <trkpt lat="47.88264" lon="1.93052">
        <ele>94.1</ele>
        <time>2020-07-02T17:59:07Z</time>
      </trkpt>
      <trkpt lat="47.88265" lon="1.93054">
        <ele>94.1</ele>
        <time>2020-07-02T17:59:08Z</time>
      </trkpt>
      <trkpt lat="47.88266" lon="1.93056">
        <ele>94.1</ele>
        <time>2020-07-02T17:59:09Z</time>
      </trkpt>
      <trkpt lat="47.88266" lon="1.93055">
        <ele>94.1</ele>
        <time>2020-07-02T17:59:10Z</time>
      </trkpt>
      <trkpt lat="47.88266" lon="1.93056">
        <ele>94.1</ele>
        <time>2020-07-02T17:59:11Z</time>
      </trkpt>
      <trkpt lat="47.88271" lon="1.93058">
        <ele>94.1</ele>
        <time>2020-07-02T18:00:55Z</time>
      </trkpt>
      <trkpt lat="47.88272" lon="1.93059">
        <ele>94.1</ele>
        <time>2020-07-02T18:00:56Z</time>
      </trkpt>
      <trkpt lat="47.88273" lon="1.93062">
        <ele>94.1</ele>
        <time>2020-07-02T18:00:57Z</time>
      </trkpt>
      <trkpt lat="47.88274" lon="1.93063">
        <ele>94.1</ele>
        <time>2020-07-02T18:00:58Z</time>
      </trkpt>
      <trkpt lat="47.88274" lon="1.93064">
        <ele>94.1</ele>
        <time>2020-07-02T18:00:59Z</time>
      </trkpt>
      <trkpt lat="47.88275" lon="1.93067">
        <ele>94.1</ele>
        <time>2020-07-02T18:01:00Z</time>
      </trkpt>
      <trkpt lat="47.88275" lon="1.93069">
        <ele>94.1</ele>
        <time>2020-07-02T18:01:01Z</time>
      </trkpt>
      <trkpt lat="47.88276" lon="1.93069">
        <ele>94.1</ele>
        <time>2020-07-02T18:01:02Z</time>
      </trkpt>
      <trkpt lat="47.88276" lon="1.93068">
        <ele>94.1</ele>
        <time>2020-07-02T18:01:03Z</time>
      </trkpt>
      <trkpt lat="47.88276" lon="1.93067">
        <ele>94.1</ele>
        <time>2020-07-02T18:01:04Z</time>
      </trkpt>
      <trkpt lat="47.88276" lon="1.93067">
        <ele>94.1</ele>
        <time>2020-07-02T18:01:05Z</time>
      </trkpt>
      <trkpt lat="47.88275" lon="1.93067">
        <ele>94.1</ele>
        <time>2020-07-02T18:01:06Z</time>
      </trkpt>
      <trkpt lat="47.88275" lon="1.93068">
        <ele>94.1</ele>
        <time>2020-07-02T18:01:07Z</time>
      </trkpt>
      <trkpt lat="47.88275" lon="1.93068">
        <ele>94.1</ele>
        <time>2020-07-02T18:01:08Z</time>
      </trkpt>
      <trkpt lat="47.88275" lon="1.93069">
        <ele>94.1</ele>
        <time>2020-07-02T18:01:09Z</time>
      </trkpt>
      <trkpt lat="47.88275" lon="1.93069">
        <ele>94.1</ele>
        <time>2020-07-02T18:01:10Z</time>
      </trkpt>
      <trkpt lat="47.88275" lon="1.93069">
        <ele>94.1</ele>
        <time>2020-07-02T18:01:11Z</time>
      </trkpt>
      <trkpt lat="47.88275" lon="1.93069">
        <ele>94.1</ele>
        <time>2020-07-02T18:01:12Z</time>
      </trkpt>
      <trkpt lat="47.88276" lon="1.93069">
        <ele>94.1</ele>
        <time>2020-07-02T18:01:13Z</time>
      </trkpt>
      <trkpt lat="47.88276" lon="1.93069">
        <ele>94.1</ele>
        <time>2020-07-02T18:01:14Z</time>
      </trkpt>
      <trkpt lat="47.88276" lon="1.93068">
        <ele>94.1</ele>
        <time>2020-07-02T18:01:15Z</time>
      </trkpt>
      <trkpt lat="47.88277" lon="1.93068">
        <ele>94.1</ele>
        <time>2020-07-02T18:01:16Z</time>
      </trkpt>
      <trkpt lat="47.88278" lon="1.93068">
        <ele>94.1</ele>
        <time>2020-07-02T18:01:17Z</time>
      </trkpt>
      <trkpt lat="47.88278" lon="1.93068">
        <ele>94.1</ele>
        <time>2020-07-02T18:01:18Z</time>
      </trkpt>
      <trkpt lat="47.88278" lon="1.93068">
        <ele>94.1</ele>
        <time>2020-07-02T18:01:19Z</time>
      </trkpt>
      <trkpt lat="47.88279" lon="1.93068">
        <ele>94.1</ele>
        <time>2020-07-02T18:01:20Z</time>
      </trkpt>
      <trkpt lat="47.88279" lon="1.93067">
        <ele>94.1</ele>
        <time>2020-07-02T18:01:21Z</time>
      </trkpt>
      <trkpt lat="47.88279" lon="1.93068">
        <ele>94.1</ele>
        <time>2020-07-02T18:01:22Z</time>
      </trkpt>
      <trkpt lat="47.8828" lon="1.93068">
        <ele>94.1</ele>
        <time>2020-07-02T18:01:23Z</time>
      </trkpt>
      <trkpt lat="47.88279" lon="1.93068">
        <ele>94.1</ele>
        <time>2020-07-02T18:01:24Z</time>
      </trkpt>
      <trkpt lat="47.8828" lon="1.93068">
        <ele>94.1</ele>
        <time>2020-07-02T18:01:25Z</time>
      </trkpt>
      <trkpt lat="47.8828" lon="1.93068">
        <ele>94.1</ele>
        <time>2020-07-02T18:01:26Z</time>
      </trkpt>
      <trkpt lat="47.8828" lon="1.93069">
        <ele>94.1</ele>
        <time>2020-07-02T18:01:27Z</time>
      </trkpt>
      <trkpt lat="47.88279" lon="1.93069">
        <ele>94.1</ele>
        <time>2020-07-02T18:01:28Z</time>
      </trkpt>
      <trkpt lat="47.88279" lon="1.93069">
        <ele>94.1</ele>
        <time>2020-07-02T18:01:29Z</time>
      </trkpt>
      <trkpt lat="47.88279" lon="1.9307">
        <ele>94.1</ele>
        <time>2020-07-02T18:01:30Z</time>
      </trkpt>
      <trkpt lat="47.88279" lon="1.93069">
        <ele>94.1</ele>
        <time>2020-07-02T18:01:31Z</time>
      </trkpt>
      <trkpt lat="47.88279" lon="1.93069">
        <ele>94.1</ele>
        <time>2020-07-02T18:01:32Z</time>
      </trkpt>
      <trkpt lat="47.88279" lon="1.9307">
        <ele>94.1</ele>
        <time>2020-07-02T18:01:33Z</time>
      </trkpt>
      <trkpt lat="47.88279" lon="1.93069">
        <ele>94.1</ele>
        <time>2020-07-02T18:01:34Z</time>
      </trkpt>
      <trkpt lat="47.88279" lon="1.93069">
        <ele>94.1</ele>
        <time>2020-07-02T18:01:35Z</time>
      </trkpt>
      <trkpt lat="47.88277" lon="1.93069">
        <ele>94.1</ele>
        <time>2020-07-02T18:01:36Z</time>
      </trkpt>
      <trkpt lat="47.88276" lon="1.93069">
        <ele>94.1</ele>
        <time>2020-07-02T18:01:37Z</time>
      </trkpt>
      <trkpt lat="47.88274" lon="1.93066">
        <ele>94.1</ele>
        <time>2020-07-02T18:01:39Z</time>
      </trkpt>
      <trkpt lat="47.88273" lon="1.93064">
        <ele>94.1</ele>
        <time>2020-07-02T18:01:40Z</time>
      </trkpt>
      <trkpt lat="47.88272" lon="1.93063">
        <ele>94.1</ele>
        <time>2020-07-02T18:01:41Z</time>
      </trkpt>
      <trkpt lat="47.88272" lon="1.93061">
        <ele>94.1</ele>
        <time>2020-07-02T18:01:42Z</time>
      </trkpt>
      <trkpt lat="47.88271" lon="1.9306">
        <ele>94.1</ele>
        <time>2020-07-02T18:01:43Z</time>
      </trkpt>
      <trkpt lat="47.8827" lon="1.93059">
        <ele>94.1</ele>
        <time>2020-07-02T18:01:44Z</time>
      </trkpt>
      <trkpt lat="47.88268" lon="1.93056">
        <ele>94.1</ele>
        <time>2020-07-02T18:01:45Z</time>
      </trkpt>
      <trkpt lat="47.88268" lon="1.93055">
        <ele>94.1</ele>
        <time>2020-07-02T18:01:46Z</time>
      </trkpt>
      <trkpt lat="47.88267" lon="1.93053">
        <ele>94.1</ele>
        <time>2020-07-02T18:01:47Z</time>
      </trkpt>
      <trkpt lat="47.88266" lon="1.93053">
        <ele>94.1</ele>
        <time>2020-07-02T18:01:48Z</time>
      </trkpt>
      <trkpt lat="47.88266" lon="1.93052">
        <ele>94.1</ele>
        <time>2020-07-02T18:01:49Z</time>
      </trkpt>
      <trkpt lat="47.88265" lon="1.9305">
        <ele>94.1</ele>
        <time>2020-07-02T18:01:50Z</time>
      </trkpt>
      <trkpt lat="47.88265" lon="1.93049">
        <ele>94.1</ele>
        <time>2020-07-02T18:01:51Z</time>
      </trkpt>
      <trkpt lat="47.88265" lon="1.93047">
        <ele>94.1</ele>
        <time>2020-07-02T18:01:52Z</time>
      </trkpt>
      <trkpt lat="47.88265" lon="1.93045">
        <ele>94.1</ele>
        <time>2020-07-02T18:01:53Z</time>
      </trkpt>
      <trkpt lat="47.88264" lon="1.93044">
        <ele>94.1</ele>
        <time>2020-07-02T18:01:54Z</time>
      </trkpt>
      <trkpt lat="47.88264" lon="1.93042">
        <ele>94.1</ele>
        <time>2020-07-02T18:01:55Z</time>
      </trkpt>
      <trkpt lat="47.88264" lon="1.9304">
        <ele>94.1</ele>
        <time>2020-07-02T18:01:56Z</time>
      </trkpt>
      <trkpt lat="47.88264" lon="1.93039">
        <ele>94.1</ele>
        <time>2020-07-02T18:01:57Z</time>
      </trkpt>
      <trkpt lat="47.88263" lon="1.93037">
        <ele>94.1</ele>
        <time>2020-07-02T18:01:58Z</time>
      </trkpt>
      <trkpt lat="47.88263" lon="1.93035">
        <ele>94.1</ele>
        <time>2020-07-02T18:03:39Z</time>
      </trkpt>
      <trkpt lat="47.88263" lon="1.93034">
        <ele>94.1</ele>
        <time>2020-07-02T18:03:40Z</time>
      </trkpt>
      <trkpt lat="47.88263" lon="1.93032">
        <ele>94.1</ele>
        <time>2020-07-02T18:03:41Z</time>
      </trkpt>
      <trkpt lat="47.88264" lon="1.93028">
        <ele>94.1</ele>
        <time>2020-07-02T18:03:42Z</time>
      </trkpt>
      <trkpt lat="47.88266" lon="1.93023">
        <ele>94.1</ele>
        <time>2020-07-02T18:03:43Z</time>
      </trkpt>
      <trkpt lat="47.88269" lon="1.93019">
        <ele>94.1</ele>
        <time>2020-07-02T18:03:44Z</time>
      </trkpt>
      <trkpt lat="47.88271" lon="1.93014">
        <ele>94.1</ele>
        <time>2020-07-02T18:03:45Z</time>
      </trkpt>
      <trkpt lat="47.88271" lon="1.93008">
        <ele>94.1</ele>
        <time>2020-07-02T18:03:46Z</time>
      </trkpt>
      <trkpt lat="47.88269" lon="1.93003">
        <ele>94.1</ele>
        <time>2020-07-02T18:03:47Z</time>
      </trkpt>
      <trkpt lat="47.88267" lon="1.92998">
        <ele>94.1</ele>
        <time>2020-07-02T18:03:48Z</time>
      </trkpt>
      <trkpt lat="47.88265" lon="1.92993">
        <ele>94.1</ele>
        <time>2020-07-02T18:03:49Z</time>
      </trkpt>
      <trkpt lat="47.88263" lon="1.92988">
        <ele>94.1</ele>
        <time>2020-07-02T18:03:50Z</time>
      </trkpt>
      <trkpt lat="47.88261" lon="1.92984">
        <ele>94.2</ele>
        <time>2020-07-02T18:03:51Z</time>
      </trkpt>
      <trkpt lat="47.8826" lon="1.92979">
        <ele>94.2</ele>
        <time>2020-07-02T18:03:52Z</time>
      </trkpt>
      <trkpt lat="47.88258" lon="1.92975">
        <ele>94.2</ele>
        <time>2020-07-02T18:03:53Z</time>
      </trkpt>
      <trkpt lat="47.88255" lon="1.92971">
        <ele>94.2</ele>
        <time>2020-07-02T18:03:54Z</time>
      </trkpt>
      <trkpt lat="47.88254" lon="1.92968">
        <ele>94.2</ele>
        <time>2020-07-02T18:03:55Z</time>
      </trkpt>
      <trkpt lat="47.88252" lon="1.92964">
        <ele>94.2</ele>
        <time>2020-07-02T18:03:56Z</time>
      </trkpt>
      <trkpt lat="47.8825" lon="1.9296">
        <ele>94.2</ele>
        <time>2020-07-02T18:03:57Z</time>
      </trkpt>
      <trkpt lat="47.88249" lon="1.92958">
        <ele>94.2</ele>
        <time>2020-07-02T18:03:58Z</time>
      </trkpt>
      <trkpt lat="47.88247" lon="1.92954">
        <ele>94.3</ele>
        <time>2020-07-02T18:03:59Z</time>
      </trkpt>
      <trkpt lat="47.88246" lon="1.92953">
        <ele>94.3</ele>
        <time>2020-07-02T18:04:00Z</time>
      </trkpt>
      <trkpt lat="47.88245" lon="1.92947">
        <ele>94.3</ele>
        <time>2020-07-02T18:04:01Z</time>
      </trkpt>
      <trkpt lat="47.88245" lon="1.92945">
        <ele>94.3</ele>
        <time>2020-07-02T18:04:02Z</time>
      </trkpt>
      <trkpt lat="47.88247" lon="1.92941">
        <ele>94.3</ele>
        <time>2020-07-02T18:04:03Z</time>
      </trkpt>
      <trkpt lat="47.88247" lon="1.92939">
        <ele>94.3</ele>
        <time>2020-07-02T18:04:04Z</time>
      </trkpt>
      <trkpt lat="47.8825" lon="1.92938">
        <ele>94.3</ele>
        <time>2020-07-02T18:04:05Z</time>
      </trkpt>
      <trkpt lat="47.88253" lon="1.92935">
        <ele>94.3</ele>
        <time>2020-07-02T18:04:06Z</time>
      </trkpt>
      <trkpt lat="47.88256" lon="1.92933">
        <ele>94.3</ele>
        <time>2020-07-02T18:04:07Z</time>
      </trkpt>
      <trkpt lat="47.8826" lon="1.9293">
        <ele>94.3</ele>
        <time>2020-07-02T18:04:08Z</time>
      </trkpt>
      <trkpt lat="47.88265" lon="1.92927">
        <ele>94.3</ele>
        <time>2020-07-02T18:04:09Z</time>
      </trkpt>
      <trkpt lat="47.88269" lon="1.92923">
        <ele>94.3</ele>
        <time>2020-07-02T18:04:10Z</time>
      </trkpt>
      <trkpt lat="47.88273" lon="1.9292">
        <ele>94.3</ele>
        <time>2020-07-02T18:04:11Z</time>
      </trkpt>
      <trkpt lat="47.88277" lon="1.92918">
        <ele>94.3</ele>
        <time>2020-07-02T18:04:12Z</time>
      </trkpt>
      <trkpt lat="47.88281" lon="1.92915">
        <ele>94.4</ele>
        <time>2020-07-02T18:04:13Z</time>
      </trkpt>
      <trkpt lat="47.88286" lon="1.92911">
        <ele>94.4</ele>
        <time>2020-07-02T18:04:14Z</time>
      </trkpt>
      <trkpt lat="47.88291" lon="1.92909">
        <ele>94.4</ele>
        <time>2020-07-02T18:04:15Z</time>
      </trkpt>
      <trkpt lat="47.88295" lon="1.92906">
        <ele>94.4</ele>
        <time>2020-07-02T18:04:16Z</time>
      </trkpt>
      <trkpt lat="47.88299" lon="1.92903">
        <ele>94.4</ele>
        <time>2020-07-02T18:04:17Z</time>
      </trkpt>
      <trkpt lat="47.88302" lon="1.929">
        <ele>94.4</ele>
        <time>2020-07-02T18:04:18Z</time>
      </trkpt>
      <trkpt lat="47.88306" lon="1.92897">
        <ele>94.4</ele>
        <time>2020-07-02T18:04:19Z</time>
      </trkpt>
      <trkpt lat="47.88309" lon="1.92896">
        <ele>94.4</ele>
        <time>2020-07-02T18:04:20Z</time>
      </trkpt>
      <trkpt lat="47.88313" lon="1.92894">
        <ele>94.4</ele>
        <time>2020-07-02T18:04:21Z</time>
      </trkpt>
      <trkpt lat="47.88317" lon="1.92891">
        <ele>94.4</ele>
        <time>2020-07-02T18:04:22Z</time>
      </trkpt>
      <trkpt lat="47.88321" lon="1.92889">
        <ele>94.4</ele>
        <time>2020-07-02T18:04:23Z</time>
      </trkpt>
      <trkpt lat="47.88323" lon="1.92886">
        <ele>94.4</ele>
        <time>2020-07-02T18:04:24Z</time>
      </trkpt>
      <trkpt lat="47.88326" lon="1.92883">
        <ele>94.4</ele>
        <time>2020-07-02T18:04:25Z</time>
      </trkpt>
      <trkpt lat="47.8833" lon="1.92881">
        <ele>94.4</ele>
        <time>2020-07-02T18:04:26Z</time>
      </trkpt>
      <trkpt lat="47.88334" lon="1.92879">
        <ele>94.4</ele>
        <time>2020-07-02T18:04:27Z</time>
      </trkpt>
      <trkpt lat="47.88337" lon="1.92876">
        <ele>94.4</ele>
        <time>2020-07-02T18:04:28Z</time>
      </trkpt>
      <trkpt lat="47.88342" lon="1.92872">
        <ele>94.4</ele>
        <time>2020-07-02T18:04:29Z</time>
      </trkpt>
      <trkpt lat="47.88346" lon="1.92869">
        <ele>94.4</ele>
        <time>2020-07-02T18:04:30Z</time>
      </trkpt>
      <trkpt lat="47.88349" lon="1.92866">
        <ele>94.4</ele>
        <time>2020-07-02T18:04:31Z</time>
      </trkpt>
      <trkpt lat="47.88354" lon="1.92862">
        <ele>94.5</ele>
        <time>2020-07-02T18:04:32Z</time>
      </trkpt>
      <trkpt lat="47.88359" lon="1.92857">
        <ele>94.5</ele>
        <time>2020-07-02T18:04:33Z</time>
      </trkpt>
      <trkpt lat="47.88364" lon="1.92852">
        <ele>94.5</ele>
        <time>2020-07-02T18:04:34Z</time>
      </trkpt>
      <trkpt lat="47.88368" lon="1.92848">
        <ele>94.5</ele>
        <time>2020-07-02T18:04:35Z</time>
      </trkpt>
      <trkpt lat="47.8837" lon="1.92844">
        <ele>94.5</ele>
        <time>2020-07-02T18:04:36Z</time>
      </trkpt>
      <trkpt lat="47.88372" lon="1.92838">
        <ele>94.5</ele>
        <time>2020-07-02T18:04:37Z</time>
      </trkpt>
      <trkpt lat="47.88373" lon="1.9283">
        <ele>94.5</ele>
        <time>2020-07-02T18:04:38Z</time>
      </trkpt>
      <trkpt lat="47.88372" lon="1.92822">
        <ele>94.3</ele>
        <time>2020-07-02T18:04:39Z</time>
      </trkpt>
      <trkpt lat="47.88368" lon="1.92815">
        <ele>94.2</ele>
        <time>2020-07-02T18:04:40Z</time>
      </trkpt>
      <trkpt lat="47.88364" lon="1.92808">
        <ele>94.1</ele>
        <time>2020-07-02T18:04:41Z</time>
      </trkpt>
      <trkpt lat="47.88359" lon="1.92799">
        <ele>93.9</ele>
        <time>2020-07-02T18:04:42Z</time>
      </trkpt>
      <trkpt lat="47.88355" lon="1.92791">
        <ele>93.8</ele>
        <time>2020-07-02T18:04:43Z</time>
      </trkpt>
      <trkpt lat="47.8835" lon="1.92783">
        <ele>93.6</ele>
        <time>2020-07-02T18:04:44Z</time>
      </trkpt>
      <trkpt lat="47.88347" lon="1.92777">
        <ele>93.5</ele>
        <time>2020-07-02T18:04:45Z</time>
      </trkpt>
      <trkpt lat="47.88344" lon="1.92769">
        <ele>93.4</ele>
        <time>2020-07-02T18:04:46Z</time>
      </trkpt>
      <trkpt lat="47.88345" lon="1.92761">
        <ele>93.3</ele>
        <time>2020-07-02T18:04:47Z</time>
      </trkpt>
      <trkpt lat="47.88346" lon="1.92753">
        <ele>93.2</ele>
        <time>2020-07-02T18:04:48Z</time>
      </trkpt>
      <trkpt lat="47.88347" lon="1.92745">
        <ele>93.1</ele>
        <time>2020-07-02T18:04:49Z</time>
      </trkpt>
      <trkpt lat="47.8835" lon="1.92739">
        <ele>93</ele>
        <time>2020-07-02T18:04:50Z</time>
      </trkpt>
      <trkpt lat="47.88351" lon="1.92732">
        <ele>92.9</ele>
        <time>2020-07-02T18:04:51Z</time>
      </trkpt>
      <trkpt lat="47.88351" lon="1.92726">
        <ele>92.8</ele>
        <time>2020-07-02T18:04:52Z</time>
      </trkpt>
      <trkpt lat="47.88349" lon="1.9272">
        <ele>92.7</ele>
        <time>2020-07-02T18:04:53Z</time>
      </trkpt>
      <trkpt lat="47.88348" lon="1.92715">
        <ele>92.7</ele>
        <time>2020-07-02T18:04:54Z</time>
      </trkpt>
      <trkpt lat="47.88347" lon="1.92709">
        <ele>92.7</ele>
        <time>2020-07-02T18:04:55Z</time>
      </trkpt>
      <trkpt lat="47.88348" lon="1.92704">
        <ele>92.8</ele>
        <time>2020-07-02T18:04:56Z</time>
      </trkpt>
      <trkpt lat="47.88349" lon="1.92698">
        <ele>92.9</ele>
        <time>2020-07-02T18:04:57Z</time>
      </trkpt>
      <trkpt lat="47.88351" lon="1.92693">
        <ele>92.9</ele>
        <time>2020-07-02T18:04:58Z</time>
      </trkpt>
      <trkpt lat="47.88354" lon="1.92688">
        <ele>92.9</ele>
        <time>2020-07-02T18:04:59Z</time>
      </trkpt>
      <trkpt lat="47.88356" lon="1.92684">
        <ele>93</ele>
        <time>2020-07-02T18:05:00Z</time>
      </trkpt>
      <trkpt lat="47.88359" lon="1.9268">
        <ele>93</ele>
        <time>2020-07-02T18:05:01Z</time>
      </trkpt>
      <trkpt lat="47.88362" lon="1.92675">
        <ele>93.1</ele>
        <time>2020-07-02T18:05:02Z</time>
      </trkpt>
      <trkpt lat="47.88364" lon="1.92671">
        <ele>93.1</ele>
        <time>2020-07-02T18:05:03Z</time>
      </trkpt>
      <trkpt lat="47.88366" lon="1.92665">
        <ele>93.1</ele>
        <time>2020-07-02T18:05:04Z</time>
      </trkpt>
      <trkpt lat="47.88366" lon="1.92659">
        <ele>93.2</ele>
        <time>2020-07-02T18:05:05Z</time>
      </trkpt>
      <trkpt lat="47.88364" lon="1.92653">
        <ele>93.3</ele>
        <time>2020-07-02T18:05:06Z</time>
      </trkpt>
      <trkpt lat="47.88362" lon="1.92646">
        <ele>93.3</ele>
        <time>2020-07-02T18:05:07Z</time>
      </trkpt>
      <trkpt lat="47.8836" lon="1.9264">
        <ele>93.3</ele>
        <time>2020-07-02T18:05:08Z</time>
      </trkpt>
      <trkpt lat="47.88359" lon="1.92636">
        <ele>93.3</ele>
        <time>2020-07-02T18:05:09Z</time>
      </trkpt>
      <trkpt lat="47.88359" lon="1.92632">
        <ele>93.3</ele>
        <time>2020-07-02T18:05:10Z</time>
      </trkpt>
      <trkpt lat="47.88359" lon="1.9263">
        <ele>93.3</ele>
        <time>2020-07-02T18:05:11Z</time>
      </trkpt>
      <trkpt lat="47.8836" lon="1.92626">
        <ele>93.3</ele>
        <time>2020-07-02T18:05:12Z</time>
      </trkpt>
      <trkpt lat="47.88363" lon="1.92621">
        <ele>93.3</ele>
        <time>2020-07-02T18:05:13Z</time>
      </trkpt>
      <trkpt lat="47.88365" lon="1.92616">
        <ele>93.3</ele>
        <time>2020-07-02T18:05:14Z</time>
      </trkpt>
      <trkpt lat="47.88367" lon="1.92611">
        <ele>93.2</ele>
        <time>2020-07-02T18:05:15Z</time>
      </trkpt>
      <trkpt lat="47.88368" lon="1.92606">
        <ele>93.2</ele>
        <time>2020-07-02T18:05:16Z</time>
      </trkpt>
      <trkpt lat="47.88371" lon="1.92601">
        <ele>93.1</ele>
        <time>2020-07-02T18:05:17Z</time>
      </trkpt>
      <trkpt lat="47.88374" lon="1.92596">
        <ele>93.1</ele>
        <time>2020-07-02T18:05:18Z</time>
      </trkpt>
      <trkpt lat="47.88378" lon="1.92591">
        <ele>93</ele>
        <time>2020-07-02T18:05:19Z</time>
      </trkpt>
      <trkpt lat="47.88382" lon="1.92587">
        <ele>93</ele>
        <time>2020-07-02T18:05:20Z</time>
      </trkpt>
      <trkpt lat="47.88386" lon="1.92583">
        <ele>92.9</ele>
        <time>2020-07-02T18:05:21Z</time>
      </trkpt>
      <trkpt lat="47.8839" lon="1.92578">
        <ele>92.9</ele>
        <time>2020-07-02T18:05:22Z</time>
      </trkpt>
      <trkpt lat="47.88395" lon="1.92573">
        <ele>92.8</ele>
        <time>2020-07-02T18:05:23Z</time>
      </trkpt>
      <trkpt lat="47.88399" lon="1.92567">
        <ele>92.8</ele>
        <time>2020-07-02T18:05:24Z</time>
      </trkpt>
      <trkpt lat="47.88403" lon="1.92561">
        <ele>92.8</ele>
        <time>2020-07-02T18:05:25Z</time>
      </trkpt>
      <trkpt lat="47.88408" lon="1.92555">
        <ele>92.8</ele>
        <time>2020-07-02T18:05:26Z</time>
      </trkpt>
      <trkpt lat="47.88412" lon="1.92549">
        <ele>92.8</ele>
        <time>2020-07-02T18:05:27Z</time>
      </trkpt>
      <trkpt lat="47.88416" lon="1.92545">
        <ele>92.8</ele>
        <time>2020-07-02T18:05:28Z</time>
      </trkpt>
      <trkpt lat="47.88419" lon="1.92539">
        <ele>92.8</ele>
        <time>2020-07-02T18:05:29Z</time>
      </trkpt>
      <trkpt lat="47.88424" lon="1.92534">
        <ele>92.8</ele>
        <time>2020-07-02T18:05:30Z</time>
      </trkpt>
      <trkpt lat="47.88428" lon="1.92528">
        <ele>92.8</ele>
        <time>2020-07-02T18:05:31Z</time>
      </trkpt>
      <trkpt lat="47.88431" lon="1.92522">
        <ele>92.8</ele>
        <time>2020-07-02T18:05:32Z</time>
      </trkpt>
      <trkpt lat="47.88435" lon="1.92517">
        <ele>92.9</ele>
        <time>2020-07-02T18:05:33Z</time>
      </trkpt>
      <trkpt lat="47.88437" lon="1.9251">
        <ele>92.9</ele>
        <time>2020-07-02T18:05:34Z</time>
      </trkpt>
      <trkpt lat="47.88439" lon="1.92505">
        <ele>93</ele>
        <time>2020-07-02T18:05:35Z</time>
      </trkpt>
      <trkpt lat="47.8844" lon="1.92498">
        <ele>93.1</ele>
        <time>2020-07-02T18:05:36Z</time>
      </trkpt>
      <trkpt lat="47.88439" lon="1.9249">
        <ele>93.1</ele>
        <time>2020-07-02T18:05:37Z</time>
      </trkpt>
      <trkpt lat="47.88437" lon="1.92484">
        <ele>93.1</ele>
        <time>2020-07-02T18:05:38Z</time>
      </trkpt>
      <trkpt lat="47.88434" lon="1.92479">
        <ele>93.1</ele>
        <time>2020-07-02T18:05:39Z</time>
      </trkpt>
      <trkpt lat="47.88432" lon="1.92475">
        <ele>93.2</ele>
        <time>2020-07-02T18:05:40Z</time>
      </trkpt>
      <trkpt lat="47.8843" lon="1.9247">
        <ele>93.3</ele>
        <time>2020-07-02T18:05:41Z</time>
      </trkpt>
      <trkpt lat="47.88427" lon="1.92465">
        <ele>93.5</ele>
        <time>2020-07-02T18:05:42Z</time>
      </trkpt>
      <trkpt lat="47.88425" lon="1.92461">
        <ele>93.6</ele>
        <time>2020-07-02T18:05:43Z</time>
      </trkpt>
      <trkpt lat="47.88424" lon="1.92455">
        <ele>93.7</ele>
        <time>2020-07-02T18:05:44Z</time>
      </trkpt>
      <trkpt lat="47.88424" lon="1.92454">
        <ele>93.7</ele>
        <time>2020-07-02T18:05:45Z</time>
      </trkpt>
      <trkpt lat="47.88426" lon="1.92448">
        <ele>93.7</ele>
        <time>2020-07-02T18:05:46Z</time>
      </trkpt>
      <trkpt lat="47.88426" lon="1.92446">
        <ele>93.7</ele>
        <time>2020-07-02T18:05:47Z</time>
      </trkpt>
      <trkpt lat="47.88426" lon="1.92442">
        <ele>93.7</ele>
        <time>2020-07-02T18:05:48Z</time>
      </trkpt>
      <trkpt lat="47.88425" lon="1.92437">
        <ele>93.7</ele>
        <time>2020-07-02T18:05:49Z</time>
      </trkpt>
      <trkpt lat="47.88424" lon="1.92432">
        <ele>93.8</ele>
        <time>2020-07-02T18:05:50Z</time>
      </trkpt>
      <trkpt lat="47.88423" lon="1.92426">
        <ele>93.8</ele>
        <time>2020-07-02T18:05:51Z</time>
      </trkpt>
      <trkpt lat="47.88421" lon="1.9242">
        <ele>93.5</ele>
        <time>2020-07-02T18:05:52Z</time>
      </trkpt>
      <trkpt lat="47.88419" lon="1.92413">
        <ele>93.5</ele>
        <time>2020-07-02T18:05:53Z</time>
      </trkpt>
      <trkpt lat="47.88416" lon="1.92407">
        <ele>93.4</ele>
        <time>2020-07-02T18:05:54Z</time>
      </trkpt>
      <trkpt lat="47.88414" lon="1.92402">
        <ele>93.3</ele>
        <time>2020-07-02T18:05:55Z</time>
      </trkpt>
      <trkpt lat="47.8841" lon="1.92398">
        <ele>93.2</ele>
        <time>2020-07-02T18:05:56Z</time>
      </trkpt>
      <trkpt lat="47.88406" lon="1.92394">
        <ele>93.1</ele>
        <time>2020-07-02T18:05:57Z</time>
      </trkpt>
      <trkpt lat="47.88401" lon="1.9239">
        <ele>93.1</ele>
        <time>2020-07-02T18:05:58Z</time>
      </trkpt>
      <trkpt lat="47.88396" lon="1.92385">
        <ele>93</ele>
        <time>2020-07-02T18:05:59Z</time>
      </trkpt>
      <trkpt lat="47.88392" lon="1.92381">
        <ele>92.9</ele>
        <time>2020-07-02T18:06:00Z</time>
      </trkpt>
      <trkpt lat="47.88387" lon="1.92376">
        <ele>92.9</ele>
        <time>2020-07-02T18:06:01Z</time>
      </trkpt>
      <trkpt lat="47.88382" lon="1.92373">
        <ele>92.8</ele>
        <time>2020-07-02T18:06:02Z</time>
      </trkpt>
      <trkpt lat="47.88376" lon="1.92366">
        <ele>92.8</ele>
        <time>2020-07-02T18:06:03Z</time>
      </trkpt>
      <trkpt lat="47.88371" lon="1.92361">
        <ele>92.7</ele>
        <time>2020-07-02T18:06:04Z</time>
      </trkpt>
      <trkpt lat="47.88366" lon="1.92355">
        <ele>92.6</ele>
        <time>2020-07-02T18:06:05Z</time>
      </trkpt>
      <trkpt lat="47.88361" lon="1.92349">
        <ele>92.6</ele>
        <time>2020-07-02T18:06:06Z</time>
      </trkpt>
      <trkpt lat="47.88355" lon="1.92342">
        <ele>92.6</ele>
        <time>2020-07-02T18:06:07Z</time>
      </trkpt>
      <trkpt lat="47.8835" lon="1.92335">
        <ele>92.6</ele>
        <time>2020-07-02T18:06:08Z</time>
      </trkpt>
      <trkpt lat="47.88345" lon="1.92327">
        <ele>92.7</ele>
        <time>2020-07-02T18:06:09Z</time>
      </trkpt>
      <trkpt lat="47.8834" lon="1.9232">
        <ele>92.7</ele>
        <time>2020-07-02T18:06:10Z</time>
      </trkpt>
      <trkpt lat="47.88335" lon="1.92314">
        <ele>92.7</ele>
        <time>2020-07-02T18:06:11Z</time>
      </trkpt>
      <trkpt lat="47.8833" lon="1.92306">
        <ele>92.8</ele>
        <time>2020-07-02T18:06:12Z</time>
      </trkpt>
      <trkpt lat="47.88326" lon="1.923">
        <ele>92.9</ele>
        <time>2020-07-02T18:06:13Z</time>
      </trkpt>
      <trkpt lat="47.88323" lon="1.92295">
        <ele>92.9</ele>
        <time>2020-07-02T18:06:14Z</time>
      </trkpt>
      <trkpt lat="47.88319" lon="1.9229">
        <ele>93</ele>
        <time>2020-07-02T18:06:15Z</time>
      </trkpt>
      <trkpt lat="47.88316" lon="1.92285">
        <ele>93.1</ele>
        <time>2020-07-02T18:06:16Z</time>
      </trkpt>
      <trkpt lat="47.88314" lon="1.92278">
        <ele>93.2</ele>
        <time>2020-07-02T18:06:17Z</time>
      </trkpt>
      <trkpt lat="47.88313" lon="1.92273">
        <ele>93.2</ele>
        <time>2020-07-02T18:06:18Z</time>
      </trkpt>
      <trkpt lat="47.88312" lon="1.92266">
        <ele>93.2</ele>
        <time>2020-07-02T18:06:19Z</time>
      </trkpt>
      <trkpt lat="47.88311" lon="1.92259">
        <ele>93.1</ele>
        <time>2020-07-02T18:06:20Z</time>
      </trkpt>
      <trkpt lat="47.8831" lon="1.92252">
        <ele>93.1</ele>
        <time>2020-07-02T18:06:21Z</time>
      </trkpt>
      <trkpt lat="47.88308" lon="1.92242">
        <ele>93</ele>
        <time>2020-07-02T18:06:22Z</time>
      </trkpt>
      <trkpt lat="47.88307" lon="1.92232">
        <ele>92.9</ele>
        <time>2020-07-02T18:06:23Z</time>
      </trkpt>
      <trkpt lat="47.88306" lon="1.92222">
        <ele>92.8</ele>
        <time>2020-07-02T18:06:24Z</time>
      </trkpt>
      <trkpt lat="47.88304" lon="1.92212">
        <ele>92.7</ele>
        <time>2020-07-02T18:06:25Z</time>
      </trkpt>
      <trkpt lat="47.88303" lon="1.92202">
        <ele>92.7</ele>
        <time>2020-07-02T18:06:26Z</time>
      </trkpt>
      <trkpt lat="47.88301" lon="1.92193">
        <ele>92.6</ele>
        <time>2020-07-02T18:06:27Z</time>
      </trkpt>
      <trkpt lat="47.88298" lon="1.92183">
        <ele>92.6</ele>
        <time>2020-07-02T18:06:28Z</time>
      </trkpt>
      <trkpt lat="47.88294" lon="1.92174">
        <ele>92.6</ele>
        <time>2020-07-02T18:06:29Z</time>
      </trkpt>
      <trkpt lat="47.88291" lon="1.92164">
        <ele>92.6</ele>
        <time>2020-07-02T18:06:30Z</time>
      </trkpt>
      <trkpt lat="47.88288" lon="1.92155">
        <ele>92.5</ele>
        <time>2020-07-02T18:06:31Z</time>
      </trkpt>
      <trkpt lat="47.88285" lon="1.92146">
        <ele>92.5</ele>
        <time>2020-07-02T18:06:32Z</time>
      </trkpt>
      <trkpt lat="47.88281" lon="1.92138">
        <ele>92.5</ele>
        <time>2020-07-02T18:06:33Z</time>
      </trkpt>
      <trkpt lat="47.88278" lon="1.9213">
        <ele>92.5</ele>
        <time>2020-07-02T18:06:34Z</time>
      </trkpt>
      <trkpt lat="47.88275" lon="1.92123">
        <ele>92.5</ele>
        <time>2020-07-02T18:06:35Z</time>
      </trkpt>
      <trkpt lat="47.88271" lon="1.92114">
        <ele>92.5</ele>
        <time>2020-07-02T18:06:36Z</time>
      </trkpt>
      <trkpt lat="47.88269" lon="1.92105">
        <ele>92.5</ele>
        <time>2020-07-02T18:06:37Z</time>
      </trkpt>
      <trkpt lat="47.88265" lon="1.92097">
        <ele>92.5</ele>
        <time>2020-07-02T18:06:38Z</time>
      </trkpt>
      <trkpt lat="47.88262" lon="1.92089">
        <ele>92.4</ele>
        <time>2020-07-02T18:06:39Z</time>
      </trkpt>
      <trkpt lat="47.88258" lon="1.9208">
        <ele>92.4</ele>
        <time>2020-07-02T18:06:40Z</time>
      </trkpt>
      <trkpt lat="47.88255" lon="1.92071">
        <ele>92.3</ele>
        <time>2020-07-02T18:06:41Z</time>
      </trkpt>
      <trkpt lat="47.88252" lon="1.92062">
        <ele>92.3</ele>
        <time>2020-07-02T18:06:42Z</time>
      </trkpt>
      <trkpt lat="47.88249" lon="1.92052">
        <ele>92.2</ele>
        <time>2020-07-02T18:06:43Z</time>
      </trkpt>
      <trkpt lat="47.88246" lon="1.92043">
        <ele>92.1</ele>
        <time>2020-07-02T18:06:44Z</time>
      </trkpt>
      <trkpt lat="47.88244" lon="1.92033">
        <ele>92.1</ele>
        <time>2020-07-02T18:06:45Z</time>
      </trkpt>
      <trkpt lat="47.88242" lon="1.92024">
        <ele>92.1</ele>
        <time>2020-07-02T18:06:46Z</time>
      </trkpt>
      <trkpt lat="47.8824" lon="1.92015">
        <ele>92.1</ele>
        <time>2020-07-02T18:06:47Z</time>
      </trkpt>
      <trkpt lat="47.88239" lon="1.92006">
        <ele>92.2</ele>
        <time>2020-07-02T18:06:48Z</time>
      </trkpt>
      <trkpt lat="47.88237" lon="1.91997">
        <ele>92.2</ele>
        <time>2020-07-02T18:06:49Z</time>
      </trkpt>
      <trkpt lat="47.88235" lon="1.91987">
        <ele>92.2</ele>
        <time>2020-07-02T18:06:50Z</time>
      </trkpt>
      <trkpt lat="47.88233" lon="1.91978">
        <ele>92.3</ele>
        <time>2020-07-02T18:06:51Z</time>
      </trkpt>
      <trkpt lat="47.88232" lon="1.91968">
        <ele>92.3</ele>
        <time>2020-07-02T18:06:52Z</time>
      </trkpt>
      <trkpt lat="47.8823" lon="1.91957">
        <ele>92.3</ele>
        <time>2020-07-02T18:06:53Z</time>
      </trkpt>
      <trkpt lat="47.88228" lon="1.91946">
        <ele>92.3</ele>
        <time>2020-07-02T18:06:54Z</time>
      </trkpt>
      <trkpt lat="47.88227" lon="1.91936">
        <ele>92.3</ele>
        <time>2020-07-02T18:06:55Z</time>
      </trkpt>
      <trkpt lat="47.88226" lon="1.91926">
        <ele>92.3</ele>
        <time>2020-07-02T18:06:56Z</time>
      </trkpt>
      <trkpt lat="47.88225" lon="1.91916">
        <ele>92.4</ele>
        <time>2020-07-02T18:06:57Z</time>
      </trkpt>
      <trkpt lat="47.88224" lon="1.91907">
        <ele>92.4</ele>
        <time>2020-07-02T18:06:58Z</time>
      </trkpt>
      <trkpt lat="47.88224" lon="1.91898">
        <ele>92.5</ele>
        <time>2020-07-02T18:06:59Z</time>
      </trkpt>
      <trkpt lat="47.88222" lon="1.91889">
        <ele>92.5</ele>
        <time>2020-07-02T18:07:00Z</time>
      </trkpt>
      <trkpt lat="47.88222" lon="1.91881">
        <ele>92.5</ele>
        <time>2020-07-02T18:07:01Z</time>
      </trkpt>
      <trkpt lat="47.88221" lon="1.91873">
        <ele>92.6</ele>
        <time>2020-07-02T18:07:02Z</time>
      </trkpt>
      <trkpt lat="47.88221" lon="1.91865">
        <ele>92.7</ele>
        <time>2020-07-02T18:07:03Z</time>
      </trkpt>
      <trkpt lat="47.88222" lon="1.91857">
        <ele>93</ele>
        <time>2020-07-02T18:07:04Z</time>
      </trkpt>
      <trkpt lat="47.88224" lon="1.9185">
        <ele>93.1</ele>
        <time>2020-07-02T18:07:05Z</time>
      </trkpt>
      <trkpt lat="47.88224" lon="1.91843">
        <ele>93.1</ele>
        <time>2020-07-02T18:07:06Z</time>
      </trkpt>
      <trkpt lat="47.88222" lon="1.91834">
        <ele>93</ele>
        <time>2020-07-02T18:07:07Z</time>
      </trkpt>
      <trkpt lat="47.88219" lon="1.91827">
        <ele>92.9</ele>
        <time>2020-07-02T18:07:08Z</time>
      </trkpt>
      <trkpt lat="47.88218" lon="1.91818">
        <ele>92.4</ele>
        <time>2020-07-02T18:07:09Z</time>
      </trkpt>
      <trkpt lat="47.88217" lon="1.91809">
        <ele>92.3</ele>
        <time>2020-07-02T18:07:10Z</time>
      </trkpt>
      <trkpt lat="47.88216" lon="1.918">
        <ele>92.2</ele>
        <time>2020-07-02T18:07:11Z</time>
      </trkpt>
      <trkpt lat="47.88215" lon="1.91791">
        <ele>92.2</ele>
        <time>2020-07-02T18:07:12Z</time>
      </trkpt>
      <trkpt lat="47.88214" lon="1.91781">
        <ele>92.2</ele>
        <time>2020-07-02T18:07:13Z</time>
      </trkpt>
      <trkpt lat="47.88214" lon="1.91771">
        <ele>92.2</ele>
        <time>2020-07-02T18:07:14Z</time>
      </trkpt>
      <trkpt lat="47.88213" lon="1.91762">
        <ele>92.2</ele>
        <time>2020-07-02T18:07:15Z</time>
      </trkpt>
      <trkpt lat="47.88211" lon="1.91753">
        <ele>92.2</ele>
        <time>2020-07-02T18:07:16Z</time>
      </trkpt>
      <trkpt lat="47.8821" lon="1.91743">
        <ele>92.2</ele>
        <time>2020-07-02T18:07:17Z</time>
      </trkpt>
      <trkpt lat="47.88208" lon="1.91734">
        <ele>92.2</ele>
        <time>2020-07-02T18:07:18Z</time>
      </trkpt>
      <trkpt lat="47.88207" lon="1.91724">
        <ele>92.2</ele>
        <time>2020-07-02T18:07:19Z</time>
      </trkpt>
      <trkpt lat="47.88205" lon="1.91714">
        <ele>92.2</ele>
        <time>2020-07-02T18:07:20Z</time>
      </trkpt>
      <trkpt lat="47.88204" lon="1.91704">
        <ele>92.2</ele>
        <time>2020-07-02T18:07:21Z</time>
      </trkpt>
      <trkpt lat="47.88204" lon="1.91694">
        <ele>92.3</ele>
        <time>2020-07-02T18:07:22Z</time>
      </trkpt>
      <trkpt lat="47.88203" lon="1.91685">
        <ele>92.3</ele>
        <time>2020-07-02T18:07:23Z</time>
      </trkpt>
      <trkpt lat="47.88203" lon="1.91676">
        <ele>92.3</ele>
        <time>2020-07-02T18:07:24Z</time>
      </trkpt>
      <trkpt lat="47.88203" lon="1.91668">
        <ele>92.3</ele>
        <time>2020-07-02T18:07:25Z</time>
      </trkpt>
      <trkpt lat="47.88204" lon="1.91659">
        <ele>92.3</ele>
        <time>2020-07-02T18:07:26Z</time>
      </trkpt>
      <trkpt lat="47.88204" lon="1.9165">
        <ele>92.4</ele>
        <time>2020-07-02T18:07:27Z</time>
      </trkpt>
      <trkpt lat="47.88204" lon="1.91641">
        <ele>92.4</ele>
        <time>2020-07-02T18:07:28Z</time>
      </trkpt>
      <trkpt lat="47.88205" lon="1.91631">
        <ele>92.4</ele>
        <time>2020-07-02T18:07:29Z</time>
      </trkpt>
      <trkpt lat="47.88206" lon="1.91621">
        <ele>92.5</ele>
        <time>2020-07-02T18:07:30Z</time>
      </trkpt>
      <trkpt lat="47.88206" lon="1.91611">
        <ele>92.5</ele>
        <time>2020-07-02T18:07:31Z</time>
      </trkpt>
      <trkpt lat="47.88206" lon="1.91602">
        <ele>92.6</ele>
        <time>2020-07-02T18:07:32Z</time>
      </trkpt>
      <trkpt lat="47.88206" lon="1.91593">
        <ele>92.6</ele>
        <time>2020-07-02T18:07:33Z</time>
      </trkpt>
      <trkpt lat="47.88207" lon="1.91583">
        <ele>92.6</ele>
        <time>2020-07-02T18:07:34Z</time>
      </trkpt>
      <trkpt lat="47.88207" lon="1.91574">
        <ele>92.5</ele>
        <time>2020-07-02T18:07:35Z</time>
      </trkpt>
      <trkpt lat="47.88208" lon="1.91564">
        <ele>92.4</ele>
        <time>2020-07-02T18:07:36Z</time>
      </trkpt>
      <trkpt lat="47.88208" lon="1.91555">
        <ele>92.4</ele>
        <time>2020-07-02T18:07:37Z</time>
      </trkpt>
      <trkpt lat="47.8821" lon="1.91545">
        <ele>92.3</ele>
        <time>2020-07-02T18:07:38Z</time>
      </trkpt>
      <trkpt lat="47.88211" lon="1.91536">
        <ele>92.3</ele>
        <time>2020-07-02T18:07:39Z</time>
      </trkpt>
      <trkpt lat="47.88212" lon="1.91526">
        <ele>92.2</ele>
        <time>2020-07-02T18:07:40Z</time>
      </trkpt>
      <trkpt lat="47.88211" lon="1.91517">
        <ele>92.2</ele>
        <time>2020-07-02T18:07:41Z</time>
      </trkpt>
      <trkpt lat="47.8821" lon="1.91507">
        <ele>92.2</ele>
        <time>2020-07-02T18:07:42Z</time>
      </trkpt>
      <trkpt lat="47.88208" lon="1.91498">
        <ele>92.2</ele>
        <time>2020-07-02T18:07:43Z</time>
      </trkpt>
      <trkpt lat="47.88208" lon="1.91489">
        <ele>92.2</ele>
        <time>2020-07-02T18:07:44Z</time>
      </trkpt>
      <trkpt lat="47.88208" lon="1.9148">
        <ele>92.2</ele>
        <time>2020-07-02T18:07:45Z</time>
      </trkpt>
      <trkpt lat="47.88208" lon="1.91471">
        <ele>92.2</ele>
        <time>2020-07-02T18:07:46Z</time>
      </trkpt>
      <trkpt lat="47.88207" lon="1.91462">
        <ele>92.2</ele>
        <time>2020-07-02T18:07:47Z</time>
      </trkpt>
      <trkpt lat="47.88207" lon="1.91454">
        <ele>92.2</ele>
        <time>2020-07-02T18:07:48Z</time>
      </trkpt>
      <trkpt lat="47.88207" lon="1.91445">
        <ele>92.2</ele>
        <time>2020-07-02T18:07:49Z</time>
      </trkpt>
      <trkpt lat="47.88207" lon="1.91437">
        <ele>92.2</ele>
        <time>2020-07-02T18:07:50Z</time>
      </trkpt>
      <trkpt lat="47.88207" lon="1.91429">
        <ele>92.2</ele>
        <time>2020-07-02T18:07:51Z</time>
      </trkpt>
      <trkpt lat="47.88206" lon="1.9142">
        <ele>92.2</ele>
        <time>2020-07-02T18:07:52Z</time>
      </trkpt>
      <trkpt lat="47.88206" lon="1.9141">
        <ele>92.2</ele>
        <time>2020-07-02T18:07:53Z</time>
      </trkpt>
      <trkpt lat="47.88207" lon="1.914">
        <ele>92.1</ele>
        <time>2020-07-02T18:07:54Z</time>
      </trkpt>
      <trkpt lat="47.88208" lon="1.91391">
        <ele>92.1</ele>
        <time>2020-07-02T18:07:55Z</time>
      </trkpt>
      <trkpt lat="47.88209" lon="1.91382">
        <ele>92.1</ele>
        <time>2020-07-02T18:07:56Z</time>
      </trkpt>
      <trkpt lat="47.88209" lon="1.91373">
        <ele>92.1</ele>
        <time>2020-07-02T18:07:57Z</time>
      </trkpt>
      <trkpt lat="47.88209" lon="1.91363">
        <ele>92.1</ele>
        <time>2020-07-02T18:07:58Z</time>
      </trkpt>
      <trkpt lat="47.88206" lon="1.91354">
        <ele>92.2</ele>
        <time>2020-07-02T18:07:59Z</time>
      </trkpt>
      <trkpt lat="47.88204" lon="1.91345">
        <ele>92.2</ele>
        <time>2020-07-02T18:08:00Z</time>
      </trkpt>
      <trkpt lat="47.88201" lon="1.91336">
        <ele>92.3</ele>
        <time>2020-07-02T18:08:01Z</time>
      </trkpt>
      <trkpt lat="47.88198" lon="1.91327">
        <ele>92.3</ele>
        <time>2020-07-02T18:08:02Z</time>
      </trkpt>
      <trkpt lat="47.88195" lon="1.91318">
        <ele>92.4</ele>
        <time>2020-07-02T18:08:03Z</time>
      </trkpt>
      <trkpt lat="47.88193" lon="1.91309">
        <ele>92.4</ele>
        <time>2020-07-02T18:08:04Z</time>
      </trkpt>
      <trkpt lat="47.8819" lon="1.91301">
        <ele>92.5</ele>
        <time>2020-07-02T18:08:05Z</time>
      </trkpt>
      <trkpt lat="47.88188" lon="1.91294">
        <ele>92.6</ele>
        <time>2020-07-02T18:08:06Z</time>
      </trkpt>
      <trkpt lat="47.88186" lon="1.91286">
        <ele>92.7</ele>
        <time>2020-07-02T18:08:07Z</time>
      </trkpt>
      <trkpt lat="47.88184" lon="1.91278">
        <ele>92.8</ele>
        <time>2020-07-02T18:08:08Z</time>
      </trkpt>
      <trkpt lat="47.88182" lon="1.91271">
        <ele>92.9</ele>
        <time>2020-07-02T18:08:09Z</time>
      </trkpt>
      <trkpt lat="47.88181" lon="1.91265">
        <ele>92.9</ele>
        <time>2020-07-02T18:08:10Z</time>
      </trkpt>
      <trkpt lat="47.8818" lon="1.91261">
        <ele>93</ele>
        <time>2020-07-02T18:08:11Z</time>
      </trkpt>
      <trkpt lat="47.88179" lon="1.91256">
        <ele>93.1</ele>
        <time>2020-07-02T18:08:12Z</time>
      </trkpt>
      <trkpt lat="47.88179" lon="1.9125">
        <ele>93.1</ele>
        <time>2020-07-02T18:08:13Z</time>
      </trkpt>
      <trkpt lat="47.88178" lon="1.91244">
        <ele>93.2</ele>
        <time>2020-07-02T18:08:14Z</time>
      </trkpt>
      <trkpt lat="47.88176" lon="1.91238">
        <ele>93.1</ele>
        <time>2020-07-02T18:08:15Z</time>
      </trkpt>
      <trkpt lat="47.88174" lon="1.91231">
        <ele>93.1</ele>
        <time>2020-07-02T18:08:16Z</time>
      </trkpt>
      <trkpt lat="47.88172" lon="1.91223">
        <ele>93</ele>
        <time>2020-07-02T18:08:17Z</time>
      </trkpt>
      <trkpt lat="47.88171" lon="1.91215">
        <ele>93</ele>
        <time>2020-07-02T18:08:18Z</time>
      </trkpt>
      <trkpt lat="47.88171" lon="1.91207">
        <ele>92.9</ele>
        <time>2020-07-02T18:08:19Z</time>
      </trkpt>
      <trkpt lat="47.88169" lon="1.91198">
        <ele>92.9</ele>
        <time>2020-07-02T18:08:20Z</time>
      </trkpt>
      <trkpt lat="47.88168" lon="1.91189">
        <ele>92.9</ele>
        <time>2020-07-02T18:08:21Z</time>
      </trkpt>
      <trkpt lat="47.88167" lon="1.9118">
        <ele>92.8</ele>
        <time>2020-07-02T18:08:22Z</time>
      </trkpt>
      <trkpt lat="47.88166" lon="1.91171">
        <ele>92.8</ele>
        <time>2020-07-02T18:08:23Z</time>
      </trkpt>
      <trkpt lat="47.88165" lon="1.91162">
        <ele>92.8</ele>
        <time>2020-07-02T18:08:24Z</time>
      </trkpt>
      <trkpt lat="47.88163" lon="1.91154">
        <ele>92.7</ele>
        <time>2020-07-02T18:08:25Z</time>
      </trkpt>
      <trkpt lat="47.88162" lon="1.91145">
        <ele>92.7</ele>
        <time>2020-07-02T18:08:26Z</time>
      </trkpt>
      <trkpt lat="47.88161" lon="1.91137">
        <ele>92.7</ele>
        <time>2020-07-02T18:08:27Z</time>
      </trkpt>
      <trkpt lat="47.8816" lon="1.91129">
        <ele>92.8</ele>
        <time>2020-07-02T18:08:28Z</time>
      </trkpt>
      <trkpt lat="47.88159" lon="1.91122">
        <ele>92.8</ele>
        <time>2020-07-02T18:08:29Z</time>
      </trkpt>
      <trkpt lat="47.88159" lon="1.91114">
        <ele>92.9</ele>
        <time>2020-07-02T18:08:30Z</time>
      </trkpt>
      <trkpt lat="47.88158" lon="1.91108">
        <ele>93</ele>
        <time>2020-07-02T18:08:31Z</time>
      </trkpt>
      <trkpt lat="47.88157" lon="1.91102">
        <ele>93.1</ele>
        <time>2020-07-02T18:08:32Z</time>
      </trkpt>
      <trkpt lat="47.88157" lon="1.91096">
        <ele>93.3</ele>
        <time>2020-07-02T18:08:33Z</time>
      </trkpt>
      <trkpt lat="47.88158" lon="1.9109">
        <ele>93.4</ele>
        <time>2020-07-02T18:08:34Z</time>
      </trkpt>
      <trkpt lat="47.88159" lon="1.91085">
        <ele>93.9</ele>
        <time>2020-07-02T18:08:35Z</time>
      </trkpt>
      <trkpt lat="47.88162" lon="1.9108">
        <ele>94</ele>
        <time>2020-07-02T18:08:36Z</time>
      </trkpt>
      <trkpt lat="47.88164" lon="1.91076">
        <ele>94</ele>
        <time>2020-07-02T18:08:37Z</time>
      </trkpt>
      <trkpt lat="47.88168" lon="1.91074">
        <ele>93.9</ele>
        <time>2020-07-02T18:08:38Z</time>
      </trkpt>
      <trkpt lat="47.88172" lon="1.91072">
        <ele>93.9</ele>
        <time>2020-07-02T18:08:39Z</time>
      </trkpt>
      <trkpt lat="47.88176" lon="1.91068">
        <ele>93.9</ele>
        <time>2020-07-02T18:08:40Z</time>
      </trkpt>
      <trkpt lat="47.88181" lon="1.91065">
        <ele>93.9</ele>
        <time>2020-07-02T18:08:41Z</time>
      </trkpt>
      <trkpt lat="47.88186" lon="1.91062">
        <ele>93.8</ele>
        <time>2020-07-02T18:08:42Z</time>
      </trkpt>
      <trkpt lat="47.88191" lon="1.91058">
        <ele>93.8</ele>
        <time>2020-07-02T18:08:43Z</time>
      </trkpt>
      <trkpt lat="47.88196" lon="1.91055">
        <ele>93.8</ele>
        <time>2020-07-02T18:08:44Z</time>
      </trkpt>
      <trkpt lat="47.88202" lon="1.91051">
        <ele>93.8</ele>
        <time>2020-07-02T18:08:45Z</time>
      </trkpt>
      <trkpt lat="47.88207" lon="1.91046">
        <ele>93.8</ele>
        <time>2020-07-02T18:08:46Z</time>
      </trkpt>
      <trkpt lat="47.88213" lon="1.91041">
        <ele>93.8</ele>
        <time>2020-07-02T18:08:47Z</time>
      </trkpt>
      <trkpt lat="47.88218" lon="1.91036">
        <ele>93.9</ele>
        <time>2020-07-02T18:08:48Z</time>
      </trkpt>
      <trkpt lat="47.88224" lon="1.91031">
        <ele>93.9</ele>
        <time>2020-07-02T18:08:49Z</time>
      </trkpt>
      <trkpt lat="47.88229" lon="1.91026">
        <ele>93.9</ele>
        <time>2020-07-02T18:08:50Z</time>
      </trkpt>
      <trkpt lat="47.88235" lon="1.91022">
        <ele>93.9</ele>
        <time>2020-07-02T18:08:51Z</time>
      </trkpt>
      <trkpt lat="47.8824" lon="1.91018">
        <ele>93.9</ele>
        <time>2020-07-02T18:08:52Z</time>
      </trkpt>
      <trkpt lat="47.88246" lon="1.91014">
        <ele>93.9</ele>
        <time>2020-07-02T18:08:53Z</time>
      </trkpt>
      <trkpt lat="47.88251" lon="1.91011">
        <ele>94</ele>
        <time>2020-07-02T18:08:54Z</time>
      </trkpt>
      <trkpt lat="47.88255" lon="1.91008">
        <ele>94</ele>
        <time>2020-07-02T18:08:55Z</time>
      </trkpt>
      <trkpt lat="47.88259" lon="1.91003">
        <ele>94</ele>
        <time>2020-07-02T18:08:56Z</time>
      </trkpt>
      <trkpt lat="47.88264" lon="1.91">
        <ele>94</ele>
        <time>2020-07-02T18:08:57Z</time>
      </trkpt>
      <trkpt lat="47.88268" lon="1.90996">
        <ele>94</ele>
        <time>2020-07-02T18:08:58Z</time>
      </trkpt>
      <trkpt lat="47.88272" lon="1.90994">
        <ele>94.1</ele>
        <time>2020-07-02T18:08:59Z</time>
      </trkpt>
      <trkpt lat="47.88276" lon="1.9099">
        <ele>94.1</ele>
        <time>2020-07-02T18:09:00Z</time>
      </trkpt>
      <trkpt lat="47.8828" lon="1.90988">
        <ele>94.1</ele>
        <time>2020-07-02T18:09:01Z</time>
      </trkpt>
      <trkpt lat="47.88284" lon="1.90986">
        <ele>94.1</ele>
        <time>2020-07-02T18:09:02Z</time>
      </trkpt>
      <trkpt lat="47.88288" lon="1.90984">
        <ele>94.2</ele>
        <time>2020-07-02T18:09:03Z</time>
      </trkpt>
      <trkpt lat="47.88292" lon="1.90982">
        <ele>94.2</ele>
        <time>2020-07-02T18:09:04Z</time>
      </trkpt>
      <trkpt lat="47.88296" lon="1.90981">
        <ele>94.2</ele>
        <time>2020-07-02T18:09:05Z</time>
      </trkpt>
      <trkpt lat="47.88299" lon="1.90977">
        <ele>94.2</ele>
        <time>2020-07-02T18:09:06Z</time>
      </trkpt>
      <trkpt lat="47.88303" lon="1.90973">
        <ele>94.2</ele>
        <time>2020-07-02T18:09:07Z</time>
      </trkpt>
      <trkpt lat="47.88305" lon="1.90971">
        <ele>94.2</ele>
        <time>2020-07-02T18:09:08Z</time>
      </trkpt>
      <trkpt lat="47.88308" lon="1.90967">
        <ele>94.3</ele>
        <time>2020-07-02T18:09:09Z</time>
      </trkpt>
      <trkpt lat="47.88309" lon="1.90961">
        <ele>94.5</ele>
        <time>2020-07-02T18:09:10Z</time>
      </trkpt>
      <trkpt lat="47.8831" lon="1.90954">
        <ele>94.5</ele>
        <time>2020-07-02T18:09:11Z</time>
      </trkpt>
      <trkpt lat="47.88311" lon="1.90947">
        <ele>94.5</ele>
        <time>2020-07-02T18:09:12Z</time>
      </trkpt>
      <trkpt lat="47.8831" lon="1.90939">
        <ele>94.4</ele>
        <time>2020-07-02T18:09:13Z</time>
      </trkpt>
      <trkpt lat="47.8831" lon="1.90931">
        <ele>94.4</ele>
        <time>2020-07-02T18:09:14Z</time>
      </trkpt>
      <trkpt lat="47.8831" lon="1.90923">
        <ele>94.3</ele>
        <time>2020-07-02T18:09:15Z</time>
      </trkpt>
      <trkpt lat="47.88311" lon="1.90915">
        <ele>94.3</ele>
        <time>2020-07-02T18:09:16Z</time>
      </trkpt>
      <trkpt lat="47.88313" lon="1.90906">
        <ele>94.2</ele>
        <time>2020-07-02T18:09:17Z</time>
      </trkpt>
      <trkpt lat="47.88314" lon="1.90896">
        <ele>94.2</ele>
        <time>2020-07-02T18:09:18Z</time>
      </trkpt>
      <trkpt lat="47.88314" lon="1.90887">
        <ele>94.2</ele>
        <time>2020-07-02T18:09:19Z</time>
      </trkpt>
      <trkpt lat="47.88315" lon="1.90877">
        <ele>94.2</ele>
        <time>2020-07-02T18:09:20Z</time>
      </trkpt>
      <trkpt lat="47.88316" lon="1.90867">
        <ele>94.3</ele>
        <time>2020-07-02T18:09:21Z</time>
      </trkpt>
      <trkpt lat="47.88316" lon="1.90857">
        <ele>94.3</ele>
        <time>2020-07-02T18:09:22Z</time>
      </trkpt>
      <trkpt lat="47.88317" lon="1.90847">
        <ele>94.4</ele>
        <time>2020-07-02T18:09:23Z</time>
      </trkpt>
      <trkpt lat="47.88318" lon="1.90838">
        <ele>94.5</ele>
        <time>2020-07-02T18:09:24Z</time>
      </trkpt>
      <trkpt lat="47.88318" lon="1.90829">
        <ele>94.5</ele>
        <time>2020-07-02T18:09:25Z</time>
      </trkpt>
      <trkpt lat="47.88318" lon="1.9082">
        <ele>94.6</ele>
        <time>2020-07-02T18:09:26Z</time>
      </trkpt>
      <trkpt lat="47.88319" lon="1.9081">
        <ele>94.7</ele>
        <time>2020-07-02T18:09:27Z</time>
      </trkpt>
      <trkpt lat="47.88319" lon="1.90799">
        <ele>94.8</ele>
        <time>2020-07-02T18:09:28Z</time>
      </trkpt>
      <trkpt lat="47.8832" lon="1.90789">
        <ele>94.8</ele>
        <time>2020-07-02T18:09:29Z</time>
      </trkpt>
      <trkpt lat="47.8832" lon="1.90779">
        <ele>94.8</ele>
        <time>2020-07-02T18:09:30Z</time>
      </trkpt>
      <trkpt lat="47.88322" lon="1.90769">
        <ele>94.6</ele>
        <time>2020-07-02T18:09:31Z</time>
      </trkpt>
      <trkpt lat="47.88325" lon="1.9076">
        <ele>94.5</ele>
        <time>2020-07-02T18:09:32Z</time>
      </trkpt>
      <trkpt lat="47.8833" lon="1.90754">
        <ele>94.5</ele>
        <time>2020-07-02T18:09:33Z</time>
      </trkpt>
      <trkpt lat="47.88333" lon="1.90747">
        <ele>94.4</ele>
        <time>2020-07-02T18:09:34Z</time>
      </trkpt>
      <trkpt lat="47.88336" lon="1.90741">
        <ele>94.5</ele>
        <time>2020-07-02T18:09:35Z</time>
      </trkpt>
      <trkpt lat="47.8834" lon="1.90735">
        <ele>94.5</ele>
        <time>2020-07-02T18:09:36Z</time>
      </trkpt>
      <trkpt lat="47.88343" lon="1.90727">
        <ele>94.5</ele>
        <time>2020-07-02T18:09:37Z</time>
      </trkpt>
      <trkpt lat="47.88345" lon="1.90721">
        <ele>94.5</ele>
        <time>2020-07-02T18:09:38Z</time>
      </trkpt>
      <trkpt lat="47.88348" lon="1.90716">
        <ele>94.5</ele>
        <time>2020-07-02T18:09:39Z</time>
      </trkpt>
      <trkpt lat="47.8835" lon="1.90711">
        <ele>94.5</ele>
        <time>2020-07-02T18:09:40Z</time>
      </trkpt>
      <trkpt lat="47.88349" lon="1.90705">
        <ele>94.4</ele>
        <time>2020-07-02T18:09:41Z</time>
      </trkpt>
      <trkpt lat="47.88346" lon="1.907">
        <ele>94.3</ele>
        <time>2020-07-02T18:09:42Z</time>
      </trkpt>
      <trkpt lat="47.88343" lon="1.90694">
        <ele>94.3</ele>
        <time>2020-07-02T18:09:43Z</time>
      </trkpt>
      <trkpt lat="47.8834" lon="1.90688">
        <ele>94.3</ele>
        <time>2020-07-02T18:09:44Z</time>
      </trkpt>
      <trkpt lat="47.88336" lon="1.90682">
        <ele>94.3</ele>
        <time>2020-07-02T18:09:45Z</time>
      </trkpt>
      <trkpt lat="47.88332" lon="1.90677">
        <ele>94.3</ele>
        <time>2020-07-02T18:09:46Z</time>
      </trkpt>
      <trkpt lat="47.88329" lon="1.90671">
        <ele>94.3</ele>
        <time>2020-07-02T18:09:47Z</time>
      </trkpt>
      <trkpt lat="47.88325" lon="1.90665">
        <ele>94.3</ele>
        <time>2020-07-02T18:09:48Z</time>
      </trkpt>
      <trkpt lat="47.88321" lon="1.9066">
        <ele>94.3</ele>
        <time>2020-07-02T18:09:49Z</time>
      </trkpt>
      <trkpt lat="47.88318" lon="1.90654">
        <ele>94.3</ele>
        <time>2020-07-02T18:09:50Z</time>
      </trkpt>
      <trkpt lat="47.88316" lon="1.90646">
        <ele>94.3</ele>
        <time>2020-07-02T18:09:51Z</time>
      </trkpt>
      <trkpt lat="47.88316" lon="1.90636">
        <ele>94.4</ele>
        <time>2020-07-02T18:09:52Z</time>
      </trkpt>
      <trkpt lat="47.88317" lon="1.90627">
        <ele>94.4</ele>
        <time>2020-07-02T18:09:53Z</time>
      </trkpt>
      <trkpt lat="47.88317" lon="1.90619">
        <ele>94.4</ele>
        <time>2020-07-02T18:09:54Z</time>
      </trkpt>
      <trkpt lat="47.88317" lon="1.9061">
        <ele>94.4</ele>
        <time>2020-07-02T18:09:55Z</time>
      </trkpt>
      <trkpt lat="47.88317" lon="1.90602">
        <ele>94.5</ele>
        <time>2020-07-02T18:09:56Z</time>
      </trkpt>
      <trkpt lat="47.88317" lon="1.90593">
        <ele>94.5</ele>
        <time>2020-07-02T18:09:57Z</time>
      </trkpt>
      <trkpt lat="47.88318" lon="1.90584">
        <ele>94.5</ele>
        <time>2020-07-02T18:09:58Z</time>
      </trkpt>
      <trkpt lat="47.88317" lon="1.90576">
        <ele>94.5</ele>
        <time>2020-07-02T18:09:59Z</time>
      </trkpt>
      <trkpt lat="47.88313" lon="1.90569">
        <ele>94.5</ele>
        <time>2020-07-02T18:10:00Z</time>
      </trkpt>
      <trkpt lat="47.88308" lon="1.90562">
        <ele>94.5</ele>
        <time>2020-07-02T18:10:01Z</time>
      </trkpt>
      <trkpt lat="47.88303" lon="1.90555">
        <ele>94.6</ele>
        <time>2020-07-02T18:10:02Z</time>
      </trkpt>
      <trkpt lat="47.88298" lon="1.90549">
        <ele>94.6</ele>
        <time>2020-07-02T18:10:03Z</time>
      </trkpt>
      <trkpt lat="47.88292" lon="1.90541">
        <ele>94.7</ele>
        <time>2020-07-02T18:10:04Z</time>
      </trkpt>
      <trkpt lat="47.88287" lon="1.90537">
        <ele>94.8</ele>
        <time>2020-07-02T18:10:05Z</time>
      </trkpt>
      <trkpt lat="47.88282" lon="1.90535">
        <ele>94.8</ele>
        <time>2020-07-02T18:10:06Z</time>
      </trkpt>
      <trkpt lat="47.88276" lon="1.90532">
        <ele>94.9</ele>
        <time>2020-07-02T18:10:07Z</time>
      </trkpt>
      <trkpt lat="47.8827" lon="1.90529">
        <ele>94.9</ele>
        <time>2020-07-02T18:10:08Z</time>
      </trkpt>
      <trkpt lat="47.88264" lon="1.90527">
        <ele>94.9</ele>
        <time>2020-07-02T18:10:09Z</time>
      </trkpt>
      <trkpt lat="47.8826" lon="1.90521">
        <ele>95</ele>
        <time>2020-07-02T18:10:10Z</time>
      </trkpt>
      <trkpt lat="47.88255" lon="1.90515">
        <ele>95.1</ele>
        <time>2020-07-02T18:10:11Z</time>
      </trkpt>
      <trkpt lat="47.88252" lon="1.90509">
        <ele>95.2</ele>
        <time>2020-07-02T18:10:12Z</time>
      </trkpt>
      <trkpt lat="47.88248" lon="1.90501">
        <ele>95.3</ele>
        <time>2020-07-02T18:10:13Z</time>
      </trkpt>
      <trkpt lat="47.88245" lon="1.9049">
        <ele>95.3</ele>
        <time>2020-07-02T18:10:14Z</time>
      </trkpt>
      <trkpt lat="47.88245" lon="1.90479">
        <ele>95.3</ele>
        <time>2020-07-02T18:10:15Z</time>
      </trkpt>
      <trkpt lat="47.88247" lon="1.9047">
        <ele>95.3</ele>
        <time>2020-07-02T18:10:16Z</time>
      </trkpt>
      <trkpt lat="47.88248" lon="1.90461">
        <ele>95.3</ele>
        <time>2020-07-02T18:10:17Z</time>
      </trkpt>
      <trkpt lat="47.88249" lon="1.90451">
        <ele>95.4</ele>
        <time>2020-07-02T18:10:18Z</time>
      </trkpt>
      <trkpt lat="47.88249" lon="1.90443">
        <ele>95.4</ele>
        <time>2020-07-02T18:10:19Z</time>
      </trkpt>
      <trkpt lat="47.88249" lon="1.90435">
        <ele>95.4</ele>
        <time>2020-07-02T18:10:20Z</time>
      </trkpt>
      <trkpt lat="47.8825" lon="1.90429">
        <ele>95.4</ele>
        <time>2020-07-02T18:10:21Z</time>
      </trkpt>
      <trkpt lat="47.88252" lon="1.90422">
        <ele>95.4</ele>
        <time>2020-07-02T18:10:22Z</time>
      </trkpt>
      <trkpt lat="47.88253" lon="1.90415">
        <ele>95.4</ele>
        <time>2020-07-02T18:10:23Z</time>
      </trkpt>
      <trkpt lat="47.88253" lon="1.90409">
        <ele>95.4</ele>
        <time>2020-07-02T18:10:24Z</time>
      </trkpt>
      <trkpt lat="47.88254" lon="1.90404">
        <ele>95.4</ele>
        <time>2020-07-02T18:10:25Z</time>
      </trkpt>
      <trkpt lat="47.88255" lon="1.904">
        <ele>95.3</ele>
        <time>2020-07-02T18:10:26Z</time>
      </trkpt>
      <trkpt lat="47.88255" lon="1.90398">
        <ele>95.3</ele>
        <time>2020-07-02T18:10:27Z</time>
      </trkpt>
      <trkpt lat="47.88257" lon="1.90394">
        <ele>95.3</ele>
        <time>2020-07-02T18:10:28Z</time>
      </trkpt>
      <trkpt lat="47.88257" lon="1.90393">
        <ele>95.3</ele>
        <time>2020-07-02T18:10:29Z</time>
      </trkpt>
      <trkpt lat="47.88259" lon="1.9039">
        <ele>95.2</ele>
        <time>2020-07-02T18:10:30Z</time>
      </trkpt>
      <trkpt lat="47.8826" lon="1.90388">
        <ele>95.2</ele>
        <time>2020-07-02T18:10:31Z</time>
      </trkpt>
      <trkpt lat="47.88261" lon="1.90385">
        <ele>95.2</ele>
        <time>2020-07-02T18:10:32Z</time>
      </trkpt>
      <trkpt lat="47.88264" lon="1.90381">
        <ele>95.1</ele>
        <time>2020-07-02T18:10:33Z</time>
      </trkpt>
      <trkpt lat="47.88265" lon="1.9038">
        <ele>95.1</ele>
        <time>2020-07-02T18:10:34Z</time>
      </trkpt>
      <trkpt lat="47.88267" lon="1.90375">
        <ele>95.1</ele>
        <time>2020-07-02T18:10:35Z</time>
      </trkpt>
      <trkpt lat="47.88268" lon="1.90371">
        <ele>95</ele>
        <time>2020-07-02T18:10:36Z</time>
      </trkpt>
      <trkpt lat="47.88269" lon="1.90364">
        <ele>95</ele>
        <time>2020-07-02T18:10:37Z</time>
      </trkpt>
      <trkpt lat="47.88269" lon="1.9036">
        <ele>94.9</ele>
        <time>2020-07-02T18:10:38Z</time>
      </trkpt>
      <trkpt lat="47.88269" lon="1.90355">
        <ele>94.9</ele>
        <time>2020-07-02T18:10:39Z</time>
      </trkpt>
      <trkpt lat="47.8827" lon="1.90348">
        <ele>94.8</ele>
        <time>2020-07-02T18:10:40Z</time>
      </trkpt>
      <trkpt lat="47.88272" lon="1.90341">
        <ele>94.8</ele>
        <time>2020-07-02T18:10:41Z</time>
      </trkpt>
      <trkpt lat="47.88273" lon="1.90333">
        <ele>94.7</ele>
        <time>2020-07-02T18:10:42Z</time>
      </trkpt>
      <trkpt lat="47.88275" lon="1.90325">
        <ele>94.6</ele>
        <time>2020-07-02T18:10:43Z</time>
      </trkpt>
      <trkpt lat="47.88276" lon="1.90317">
        <ele>94.6</ele>
        <time>2020-07-02T18:10:44Z</time>
      </trkpt>
      <trkpt lat="47.88277" lon="1.90307">
        <ele>94.5</ele>
        <time>2020-07-02T18:10:45Z</time>
      </trkpt>
      <trkpt lat="47.88278" lon="1.90297">
        <ele>94.5</ele>
        <time>2020-07-02T18:10:46Z</time>
      </trkpt>
      <trkpt lat="47.88279" lon="1.90286">
        <ele>94.4</ele>
        <time>2020-07-02T18:10:47Z</time>
      </trkpt>
      <trkpt lat="47.88281" lon="1.90275">
        <ele>94.4</ele>
        <time>2020-07-02T18:10:48Z</time>
      </trkpt>
      <trkpt lat="47.88281" lon="1.90266">
        <ele>94.3</ele>
        <time>2020-07-02T18:10:49Z</time>
      </trkpt>
      <trkpt lat="47.88283" lon="1.90255">
        <ele>94.3</ele>
        <time>2020-07-02T18:10:50Z</time>
      </trkpt>
      <trkpt lat="47.88283" lon="1.90246">
        <ele>94.2</ele>
        <time>2020-07-02T18:10:51Z</time>
      </trkpt>
      <trkpt lat="47.88285" lon="1.90236">
        <ele>94.1</ele>
        <time>2020-07-02T18:10:52Z</time>
      </trkpt>
      <trkpt lat="47.88286" lon="1.90226">
        <ele>94</ele>
        <time>2020-07-02T18:10:53Z</time>
      </trkpt>
      <trkpt lat="47.88286" lon="1.90216">
        <ele>94</ele>
        <time>2020-07-02T18:10:54Z</time>
      </trkpt>
      <trkpt lat="47.88288" lon="1.90207">
        <ele>93.9</ele>
        <time>2020-07-02T18:10:55Z</time>
      </trkpt>
      <trkpt lat="47.8829" lon="1.90196">
        <ele>93.9</ele>
        <time>2020-07-02T18:10:56Z</time>
      </trkpt>
      <trkpt lat="47.88293" lon="1.90186">
        <ele>93.9</ele>
        <time>2020-07-02T18:10:57Z</time>
      </trkpt>
      <trkpt lat="47.88297" lon="1.90179">
        <ele>93.9</ele>
        <time>2020-07-02T18:10:58Z</time>
      </trkpt>
      <trkpt lat="47.883" lon="1.90171">
        <ele>93.9</ele>
        <time>2020-07-02T18:10:59Z</time>
      </trkpt>
      <trkpt lat="47.88305" lon="1.90163">
        <ele>93.9</ele>
        <time>2020-07-02T18:11:00Z</time>
      </trkpt>
      <trkpt lat="47.88309" lon="1.90156">
        <ele>93.9</ele>
        <time>2020-07-02T18:11:01Z</time>
      </trkpt>
      <trkpt lat="47.88313" lon="1.90148">
        <ele>93.9</ele>
        <time>2020-07-02T18:11:02Z</time>
      </trkpt>
      <trkpt lat="47.88317" lon="1.9014">
        <ele>94</ele>
        <time>2020-07-02T18:11:03Z</time>
      </trkpt>
      <trkpt lat="47.88321" lon="1.90132">
        <ele>94</ele>
        <time>2020-07-02T18:11:04Z</time>
      </trkpt>
      <trkpt lat="47.88325" lon="1.90124">
        <ele>94</ele>
        <time>2020-07-02T18:11:05Z</time>
      </trkpt>
      <trkpt lat="47.88329" lon="1.90116">
        <ele>94</ele>
        <time>2020-07-02T18:11:06Z</time>
      </trkpt>
      <trkpt lat="47.88333" lon="1.90108">
        <ele>93.9</ele>
        <time>2020-07-02T18:11:07Z</time>
      </trkpt>
      <trkpt lat="47.88337" lon="1.90099">
        <ele>93.9</ele>
        <time>2020-07-02T18:11:08Z</time>
      </trkpt>
      <trkpt lat="47.8834" lon="1.90091">
        <ele>93.9</ele>
        <time>2020-07-02T18:11:09Z</time>
      </trkpt>
      <trkpt lat="47.88344" lon="1.90082">
        <ele>93.8</ele>
        <time>2020-07-02T18:11:10Z</time>
      </trkpt>
      <trkpt lat="47.88348" lon="1.90074">
        <ele>93.8</ele>
        <time>2020-07-02T18:11:11Z</time>
      </trkpt>
      <trkpt lat="47.88352" lon="1.90065">
        <ele>93.8</ele>
        <time>2020-07-02T18:11:12Z</time>
      </trkpt>
      <trkpt lat="47.88356" lon="1.90056">
        <ele>93.8</ele>
        <time>2020-07-02T18:11:13Z</time>
      </trkpt>
      <trkpt lat="47.88359" lon="1.90047">
        <ele>93.8</ele>
        <time>2020-07-02T18:11:14Z</time>
      </trkpt>
      <trkpt lat="47.88363" lon="1.90039">
        <ele>93.8</ele>
        <time>2020-07-02T18:11:15Z</time>
      </trkpt>
      <trkpt lat="47.88367" lon="1.90032">
        <ele>93.8</ele>
        <time>2020-07-02T18:11:16Z</time>
      </trkpt>
      <trkpt lat="47.88371" lon="1.90025">
        <ele>93.8</ele>
        <time>2020-07-02T18:11:17Z</time>
      </trkpt>
      <trkpt lat="47.88375" lon="1.90019">
        <ele>93.8</ele>
        <time>2020-07-02T18:11:18Z</time>
      </trkpt>
      <trkpt lat="47.88379" lon="1.90013">
        <ele>93.8</ele>
        <time>2020-07-02T18:11:19Z</time>
      </trkpt>
      <trkpt lat="47.88384" lon="1.90005">
        <ele>93.8</ele>
        <time>2020-07-02T18:11:20Z</time>
      </trkpt>
      <trkpt lat="47.88389" lon="1.89999">
        <ele>93.8</ele>
        <time>2020-07-02T18:11:21Z</time>
      </trkpt>
      <trkpt lat="47.88394" lon="1.89994">
        <ele>93.8</ele>
        <time>2020-07-02T18:11:22Z</time>
      </trkpt>
      <trkpt lat="47.884" lon="1.89988">
        <ele>93.7</ele>
        <time>2020-07-02T18:11:23Z</time>
      </trkpt>
      <trkpt lat="47.88405" lon="1.89982">
        <ele>93.7</ele>
        <time>2020-07-02T18:11:24Z</time>
      </trkpt>
      <trkpt lat="47.88411" lon="1.89976">
        <ele>93.7</ele>
        <time>2020-07-02T18:11:25Z</time>
      </trkpt>
      <trkpt lat="47.88416" lon="1.8997">
        <ele>93.7</ele>
        <time>2020-07-02T18:11:26Z</time>
      </trkpt>
      <trkpt lat="47.88421" lon="1.89965">
        <ele>93.7</ele>
        <time>2020-07-02T18:11:27Z</time>
      </trkpt>
      <trkpt lat="47.88426" lon="1.8996">
        <ele>93.7</ele>
        <time>2020-07-02T18:11:28Z</time>
      </trkpt>
      <trkpt lat="47.88432" lon="1.89954">
        <ele>93.7</ele>
        <time>2020-07-02T18:11:29Z</time>
      </trkpt>
      <trkpt lat="47.88436" lon="1.89948">
        <ele>93.8</ele>
        <time>2020-07-02T18:11:30Z</time>
      </trkpt>
      <trkpt lat="47.88441" lon="1.89944">
        <ele>93.8</ele>
        <time>2020-07-02T18:11:31Z</time>
      </trkpt>
      <trkpt lat="47.88446" lon="1.89939">
        <ele>93.8</ele>
        <time>2020-07-02T18:11:33Z</time>
      </trkpt>
      <trkpt lat="47.88452" lon="1.89934">
        <ele>93.8</ele>
        <time>2020-07-02T18:11:34Z</time>
      </trkpt>
      <trkpt lat="47.88459" lon="1.89929">
        <ele>93.8</ele>
        <time>2020-07-02T18:11:35Z</time>
      </trkpt>
      <trkpt lat="47.88465" lon="1.89927">
        <ele>93.8</ele>
        <time>2020-07-02T18:11:36Z</time>
      </trkpt>
      <trkpt lat="47.88473" lon="1.89926">
        <ele>93.8</ele>
        <time>2020-07-02T18:11:37Z</time>
      </trkpt>
      <trkpt lat="47.88479" lon="1.89924">
        <ele>93.9</ele>
        <time>2020-07-02T18:11:38Z</time>
      </trkpt>
      <trkpt lat="47.88485" lon="1.89922">
        <ele>93.9</ele>
        <time>2020-07-02T18:11:39Z</time>
      </trkpt>
      <trkpt lat="47.88492" lon="1.8992">
        <ele>93.9</ele>
        <time>2020-07-02T18:11:40Z</time>
      </trkpt>
      <trkpt lat="47.88498" lon="1.89918">
        <ele>94</ele>
        <time>2020-07-02T18:11:41Z</time>
      </trkpt>
      <trkpt lat="47.88504" lon="1.89916">
        <ele>94</ele>
        <time>2020-07-02T18:11:42Z</time>
      </trkpt>
      <trkpt lat="47.88509" lon="1.89915">
        <ele>94</ele>
        <time>2020-07-02T18:11:43Z</time>
      </trkpt>
      <trkpt lat="47.88514" lon="1.89914">
        <ele>94.1</ele>
        <time>2020-07-02T18:11:44Z</time>
      </trkpt>
      <trkpt lat="47.88518" lon="1.89913">
        <ele>94.1</ele>
        <time>2020-07-02T18:11:45Z</time>
      </trkpt>
      <trkpt lat="47.88522" lon="1.89912">
        <ele>94.1</ele>
        <time>2020-07-02T18:11:46Z</time>
      </trkpt>
      <trkpt lat="47.88525" lon="1.8991">
        <ele>94.1</ele>
        <time>2020-07-02T18:11:47Z</time>
      </trkpt>
      <trkpt lat="47.88531" lon="1.89908">
        <ele>94.1</ele>
        <time>2020-07-02T18:11:48Z</time>
      </trkpt>
      <trkpt lat="47.88535" lon="1.89908">
        <ele>94.1</ele>
        <time>2020-07-02T18:11:49Z</time>
      </trkpt>
      <trkpt lat="47.88539" lon="1.89907">
        <ele>94.1</ele>
        <time>2020-07-02T18:11:50Z</time>
      </trkpt>
      <trkpt lat="47.88544" lon="1.89906">
        <ele>94.1</ele>
        <time>2020-07-02T18:11:51Z</time>
      </trkpt>
      <trkpt lat="47.88548" lon="1.89904">
        <ele>94.1</ele>
        <time>2020-07-02T18:11:52Z</time>
      </trkpt>
      <trkpt lat="47.88552" lon="1.89902">
        <ele>94.2</ele>
        <time>2020-07-02T18:11:53Z</time>
      </trkpt>
      <trkpt lat="47.88556" lon="1.89897">
        <ele>94.2</ele>
        <time>2020-07-02T18:11:54Z</time>
      </trkpt>
      <trkpt lat="47.88559" lon="1.89888">
        <ele>94.1</ele>
        <time>2020-07-02T18:11:55Z</time>
      </trkpt>
      <trkpt lat="47.88561" lon="1.89879">
        <ele>94</ele>
        <time>2020-07-02T18:11:56Z</time>
      </trkpt>
      <trkpt lat="47.88563" lon="1.89869">
        <ele>93.9</ele>
        <time>2020-07-02T18:11:57Z</time>
      </trkpt>
      <trkpt lat="47.88563" lon="1.8986">
        <ele>93.8</ele>
        <time>2020-07-02T18:11:58Z</time>
      </trkpt>
      <trkpt lat="47.88563" lon="1.8985">
        <ele>93.8</ele>
        <time>2020-07-02T18:11:59Z</time>
      </trkpt>
      <trkpt lat="47.88563" lon="1.89842">
        <ele>93.8</ele>
        <time>2020-07-02T18:12:00Z</time>
      </trkpt>
      <trkpt lat="47.88563" lon="1.89832">
        <ele>93.8</ele>
        <time>2020-07-02T18:12:01Z</time>
      </trkpt>
      <trkpt lat="47.88562" lon="1.89822">
        <ele>93.8</ele>
        <time>2020-07-02T18:12:02Z</time>
      </trkpt>
      <trkpt lat="47.88561" lon="1.89812">
        <ele>93.7</ele>
        <time>2020-07-02T18:12:03Z</time>
      </trkpt>
      <trkpt lat="47.8856" lon="1.89803">
        <ele>93.7</ele>
        <time>2020-07-02T18:12:04Z</time>
      </trkpt>
      <trkpt lat="47.88559" lon="1.89795">
        <ele>93.6</ele>
        <time>2020-07-02T18:12:05Z</time>
      </trkpt>
      <trkpt lat="47.88557" lon="1.89788">
        <ele>93.6</ele>
        <time>2020-07-02T18:12:06Z</time>
      </trkpt>
      <trkpt lat="47.88556" lon="1.8978">
        <ele>93.5</ele>
        <time>2020-07-02T18:12:07Z</time>
      </trkpt>
      <trkpt lat="47.88554" lon="1.89773">
        <ele>93.5</ele>
        <time>2020-07-02T18:12:08Z</time>
      </trkpt>
      <trkpt lat="47.88553" lon="1.89767">
        <ele>93.4</ele>
        <time>2020-07-02T18:12:09Z</time>
      </trkpt>
      <trkpt lat="47.88553" lon="1.89763">
        <ele>93.4</ele>
        <time>2020-07-02T18:12:10Z</time>
      </trkpt>
      <trkpt lat="47.88552" lon="1.89758">
        <ele>93.4</ele>
        <time>2020-07-02T18:12:11Z</time>
      </trkpt>
      <trkpt lat="47.88551" lon="1.89752">
        <ele>93.4</ele>
        <time>2020-07-02T18:12:12Z</time>
      </trkpt>
      <trkpt lat="47.88553" lon="1.89747">
        <ele>93.4</ele>
        <time>2020-07-02T18:12:13Z</time>
      </trkpt>
      <trkpt lat="47.88554" lon="1.89744">
        <ele>93.4</ele>
        <time>2020-07-02T18:12:14Z</time>
      </trkpt>
      <trkpt lat="47.88556" lon="1.89738">
        <ele>93.4</ele>
        <time>2020-07-02T18:12:15Z</time>
      </trkpt>
      <trkpt lat="47.88558" lon="1.89734">
        <ele>95.2</ele>
        <time>2020-07-02T18:12:16Z</time>
      </trkpt>
      <trkpt lat="47.88559" lon="1.8973">
        <ele>95.7</ele>
        <time>2020-07-02T18:12:17Z</time>
      </trkpt>
      <trkpt lat="47.88559" lon="1.89725">
        <ele>96.2</ele>
        <time>2020-07-02T18:12:18Z</time>
      </trkpt>
      <trkpt lat="47.88558" lon="1.89723">
        <ele>96.3</ele>
        <time>2020-07-02T18:12:19Z</time>
      </trkpt>
      <trkpt lat="47.88558" lon="1.89721">
        <ele>96.4</ele>
        <time>2020-07-02T18:12:20Z</time>
      </trkpt>
      <trkpt lat="47.88557" lon="1.89719">
        <ele>96.3</ele>
        <time>2020-07-02T18:12:21Z</time>
      </trkpt>
      <trkpt lat="47.88556" lon="1.89716">
        <ele>96.3</ele>
        <time>2020-07-02T18:12:22Z</time>
      </trkpt>
      <trkpt lat="47.88556" lon="1.89714">
        <ele>96.3</ele>
        <time>2020-07-02T18:12:23Z</time>
      </trkpt>
      <trkpt lat="47.88556" lon="1.89713">
        <ele>96.3</ele>
        <time>2020-07-02T18:12:24Z</time>
      </trkpt>
      <trkpt lat="47.88555" lon="1.89711">
        <ele>96.3</ele>
        <time>2020-07-02T18:12:25Z</time>
      </trkpt>
      <trkpt lat="47.88555" lon="1.8971">
        <ele>96.3</ele>
        <time>2020-07-02T18:12:26Z</time>
      </trkpt>
      <trkpt lat="47.88555" lon="1.89709">
        <ele>96.3</ele>
        <time>2020-07-02T18:12:27Z</time>
      </trkpt>
      <trkpt lat="47.88554" lon="1.89704">
        <ele>95.4</ele>
        <time>2020-07-02T18:12:28Z</time>
      </trkpt>
      <trkpt lat="47.88552" lon="1.897">
        <ele>95.3</ele>
        <time>2020-07-02T18:12:29Z</time>
      </trkpt>
      <trkpt lat="47.8855" lon="1.89695">
        <ele>95.2</ele>
        <time>2020-07-02T18:12:30Z</time>
      </trkpt>
      <trkpt lat="47.88547" lon="1.8969">
        <ele>94.8</ele>
        <time>2020-07-02T18:12:31Z</time>
      </trkpt>
      <trkpt lat="47.88546" lon="1.89681">
        <ele>94.6</ele>
        <time>2020-07-02T18:12:32Z</time>
      </trkpt>
      <trkpt lat="47.88545" lon="1.89673">
        <ele>94.5</ele>
        <time>2020-07-02T18:12:33Z</time>
      </trkpt>
      <trkpt lat="47.88543" lon="1.89663">
        <ele>94.3</ele>
        <time>2020-07-02T18:12:34Z</time>
      </trkpt>
      <trkpt lat="47.88542" lon="1.89653">
        <ele>94.1</ele>
        <time>2020-07-02T18:12:35Z</time>
      </trkpt>
      <trkpt lat="47.8854" lon="1.89633">
        <ele>93.9</ele>
        <time>2020-07-02T18:12:36Z</time>
      </trkpt>
      <trkpt lat="47.8854" lon="1.89625">
        <ele>93.9</ele>
        <time>2020-07-02T18:12:37Z</time>
      </trkpt>
      <trkpt lat="47.88539" lon="1.89616">
        <ele>94</ele>
        <time>2020-07-02T18:12:38Z</time>
      </trkpt>
      <trkpt lat="47.88538" lon="1.89608">
        <ele>94</ele>
        <time>2020-07-02T18:12:39Z</time>
      </trkpt>
      <trkpt lat="47.88537" lon="1.896">
        <ele>94.1</ele>
        <time>2020-07-02T18:12:40Z</time>
      </trkpt>
      <trkpt lat="47.88537" lon="1.89589">
        <ele>94.3</ele>
        <time>2020-07-02T18:12:41Z</time>
      </trkpt>
      <trkpt lat="47.88536" lon="1.89583">
        <ele>94.5</ele>
        <time>2020-07-02T18:12:42Z</time>
      </trkpt>
      <trkpt lat="47.88535" lon="1.89577">
        <ele>94.6</ele>
        <time>2020-07-02T18:12:43Z</time>
      </trkpt>
      <trkpt lat="47.88533" lon="1.89571">
        <ele>94.8</ele>
        <time>2020-07-02T18:12:44Z</time>
      </trkpt>
      <trkpt lat="47.88531" lon="1.89567">
        <ele>94.7</ele>
        <time>2020-07-02T18:12:45Z</time>
      </trkpt>
      <trkpt lat="47.88529" lon="1.89562">
        <ele>94.6</ele>
        <time>2020-07-02T18:12:46Z</time>
      </trkpt>
      <trkpt lat="47.88526" lon="1.89554">
        <ele>94.5</ele>
        <time>2020-07-02T18:12:47Z</time>
      </trkpt>
      <trkpt lat="47.88523" lon="1.89547">
        <ele>94.4</ele>
        <time>2020-07-02T18:12:48Z</time>
      </trkpt>
      <trkpt lat="47.8852" lon="1.8954">
        <ele>94.2</ele>
        <time>2020-07-02T18:12:49Z</time>
      </trkpt>
      <trkpt lat="47.88518" lon="1.89534">
        <ele>94</ele>
        <time>2020-07-02T18:12:50Z</time>
      </trkpt>
      <trkpt lat="47.88517" lon="1.89528">
        <ele>93.9</ele>
        <time>2020-07-02T18:12:51Z</time>
      </trkpt>
      <trkpt lat="47.88515" lon="1.89521">
        <ele>93.8</ele>
        <time>2020-07-02T18:12:52Z</time>
      </trkpt>
      <trkpt lat="47.88513" lon="1.89516">
        <ele>93.7</ele>
        <time>2020-07-02T18:12:53Z</time>
      </trkpt>
      <trkpt lat="47.88512" lon="1.89509">
        <ele>93.6</ele>
        <time>2020-07-02T18:12:54Z</time>
      </trkpt>
      <trkpt lat="47.88511" lon="1.89503">
        <ele>93.6</ele>
        <time>2020-07-02T18:12:55Z</time>
      </trkpt>
      <trkpt lat="47.8851" lon="1.89498">
        <ele>93.6</ele>
        <time>2020-07-02T18:12:56Z</time>
      </trkpt>
      <trkpt lat="47.88509" lon="1.89491">
        <ele>93.6</ele>
        <time>2020-07-02T18:12:57Z</time>
      </trkpt>
      <trkpt lat="47.88508" lon="1.89484">
        <ele>93.7</ele>
        <time>2020-07-02T18:12:58Z</time>
      </trkpt>
      <trkpt lat="47.88506" lon="1.89478">
        <ele>93.7</ele>
        <time>2020-07-02T18:12:59Z</time>
      </trkpt>
      <trkpt lat="47.88505" lon="1.89473">
        <ele>93.7</ele>
        <time>2020-07-02T18:13:00Z</time>
      </trkpt>
      <trkpt lat="47.88504" lon="1.89468">
        <ele>93.6</ele>
        <time>2020-07-02T18:13:01Z</time>
      </trkpt>
      <trkpt lat="47.88502" lon="1.89461">
        <ele>93.6</ele>
        <time>2020-07-02T18:13:02Z</time>
      </trkpt>
      <trkpt lat="47.88501" lon="1.89455">
        <ele>93.6</ele>
        <time>2020-07-02T18:13:03Z</time>
      </trkpt>
      <trkpt lat="47.885" lon="1.89449">
        <ele>93.6</ele>
        <time>2020-07-02T18:13:04Z</time>
      </trkpt>
      <trkpt lat="47.88499" lon="1.89443">
        <ele>93.5</ele>
        <time>2020-07-02T18:13:05Z</time>
      </trkpt>
      <trkpt lat="47.88499" lon="1.89438">
        <ele>93.5</ele>
        <time>2020-07-02T18:13:06Z</time>
      </trkpt>
      <trkpt lat="47.88498" lon="1.89432">
        <ele>93.5</ele>
        <time>2020-07-02T18:13:07Z</time>
      </trkpt>
      <trkpt lat="47.88498" lon="1.89426">
        <ele>93.4</ele>
        <time>2020-07-02T18:13:08Z</time>
      </trkpt>
      <trkpt lat="47.88498" lon="1.8942">
        <ele>93.3</ele>
        <time>2020-07-02T18:13:09Z</time>
      </trkpt>
      <trkpt lat="47.88498" lon="1.89413">
        <ele>93.2</ele>
        <time>2020-07-02T18:13:10Z</time>
      </trkpt>
      <trkpt lat="47.88498" lon="1.89407">
        <ele>93.2</ele>
        <time>2020-07-02T18:13:11Z</time>
      </trkpt>
      <trkpt lat="47.88498" lon="1.89401">
        <ele>93.1</ele>
        <time>2020-07-02T18:13:12Z</time>
      </trkpt>
      <trkpt lat="47.88498" lon="1.89395">
        <ele>93.1</ele>
        <time>2020-07-02T18:13:13Z</time>
      </trkpt>
      <trkpt lat="47.88498" lon="1.89388">
        <ele>93</ele>
        <time>2020-07-02T18:13:14Z</time>
      </trkpt>
      <trkpt lat="47.88498" lon="1.89383">
        <ele>92.9</ele>
        <time>2020-07-02T18:13:15Z</time>
      </trkpt>
      <trkpt lat="47.88499" lon="1.89377">
        <ele>92.9</ele>
        <time>2020-07-02T18:13:16Z</time>
      </trkpt>
      <trkpt lat="47.88499" lon="1.89371">
        <ele>92.8</ele>
        <time>2020-07-02T18:13:17Z</time>
      </trkpt>
      <trkpt lat="47.88499" lon="1.89365">
        <ele>92.7</ele>
        <time>2020-07-02T18:13:18Z</time>
      </trkpt>
      <trkpt lat="47.88499" lon="1.89358">
        <ele>92.6</ele>
        <time>2020-07-02T18:13:19Z</time>
      </trkpt>
      <trkpt lat="47.88498" lon="1.89352">
        <ele>92.6</ele>
        <time>2020-07-02T18:13:20Z</time>
      </trkpt>
      <trkpt lat="47.88497" lon="1.89346">
        <ele>92.6</ele>
        <time>2020-07-02T18:13:21Z</time>
      </trkpt>
      <trkpt lat="47.88495" lon="1.89342">
        <ele>92.6</ele>
        <time>2020-07-02T18:13:22Z</time>
      </trkpt>
      <trkpt lat="47.88493" lon="1.89337">
        <ele>92.6</ele>
        <time>2020-07-02T18:13:23Z</time>
      </trkpt>
      <trkpt lat="47.88492" lon="1.89333">
        <ele>92.6</ele>
        <time>2020-07-02T18:13:24Z</time>
      </trkpt>
      <trkpt lat="47.8849" lon="1.89328">
        <ele>92.6</ele>
        <time>2020-07-02T18:13:25Z</time>
      </trkpt>
      <trkpt lat="47.8849" lon="1.89325">
        <ele>92.6</ele>
        <time>2020-07-02T18:13:26Z</time>
      </trkpt>
      <trkpt lat="47.88489" lon="1.89321">
        <ele>92.6</ele>
        <time>2020-07-02T18:13:27Z</time>
      </trkpt>
      <trkpt lat="47.88488" lon="1.89316">
        <ele>92.6</ele>
        <time>2020-07-02T18:13:28Z</time>
      </trkpt>
      <trkpt lat="47.88488" lon="1.89312">
        <ele>92.7</ele>
        <time>2020-07-02T18:13:29Z</time>
      </trkpt>
      <trkpt lat="47.88487" lon="1.89308">
        <ele>92.7</ele>
        <time>2020-07-02T18:13:30Z</time>
      </trkpt>
      <trkpt lat="47.88486" lon="1.89303">
        <ele>92.8</ele>
        <time>2020-07-02T18:13:31Z</time>
      </trkpt>
      <trkpt lat="47.88486" lon="1.89298">
        <ele>92.9</ele>
        <time>2020-07-02T18:13:32Z</time>
      </trkpt>
      <trkpt lat="47.88485" lon="1.89292">
        <ele>93</ele>
        <time>2020-07-02T18:13:33Z</time>
      </trkpt>
      <trkpt lat="47.88485" lon="1.89286">
        <ele>93.1</ele>
        <time>2020-07-02T18:13:34Z</time>
      </trkpt>
      <trkpt lat="47.88485" lon="1.8928">
        <ele>93.2</ele>
        <time>2020-07-02T18:13:35Z</time>
      </trkpt>
      <trkpt lat="47.88483" lon="1.89274">
        <ele>93.3</ele>
        <time>2020-07-02T18:13:36Z</time>
      </trkpt>
      <trkpt lat="47.88482" lon="1.89268">
        <ele>93.4</ele>
        <time>2020-07-02T18:13:37Z</time>
      </trkpt>
      <trkpt lat="47.8848" lon="1.89264">
        <ele>93.4</ele>
        <time>2020-07-02T18:13:38Z</time>
      </trkpt>
      <trkpt lat="47.88479" lon="1.89259">
        <ele>93.4</ele>
        <time>2020-07-02T18:13:39Z</time>
      </trkpt>
      <trkpt lat="47.88478" lon="1.89255">
        <ele>93.4</ele>
        <time>2020-07-02T18:13:40Z</time>
      </trkpt>
      <trkpt lat="47.88477" lon="1.89251">
        <ele>93.4</ele>
        <time>2020-07-02T18:13:41Z</time>
      </trkpt>
      <trkpt lat="47.88476" lon="1.89246">
        <ele>93.4</ele>
        <time>2020-07-02T18:13:42Z</time>
      </trkpt>
      <trkpt lat="47.88475" lon="1.89241">
        <ele>93.4</ele>
        <time>2020-07-02T18:13:43Z</time>
      </trkpt>
      <trkpt lat="47.88475" lon="1.89237">
        <ele>93.4</ele>
        <time>2020-07-02T18:13:44Z</time>
      </trkpt>
      <trkpt lat="47.88473" lon="1.89232">
        <ele>93.4</ele>
        <time>2020-07-02T18:13:45Z</time>
      </trkpt>
      <trkpt lat="47.88472" lon="1.89228">
        <ele>93.4</ele>
        <time>2020-07-02T18:13:46Z</time>
      </trkpt>
      <trkpt lat="47.88471" lon="1.89224">
        <ele>93.5</ele>
        <time>2020-07-02T18:13:47Z</time>
      </trkpt>
      <trkpt lat="47.88469" lon="1.89219">
        <ele>93.5</ele>
        <time>2020-07-02T18:13:48Z</time>
      </trkpt>
      <trkpt lat="47.88469" lon="1.89214">
        <ele>93.5</ele>
        <time>2020-07-02T18:13:49Z</time>
      </trkpt>
      <trkpt lat="47.88469" lon="1.89209">
        <ele>93.6</ele>
        <time>2020-07-02T18:13:50Z</time>
      </trkpt>
      <trkpt lat="47.88469" lon="1.89204">
        <ele>93.6</ele>
        <time>2020-07-02T18:13:51Z</time>
      </trkpt>
      <trkpt lat="47.88469" lon="1.892">
        <ele>93.6</ele>
        <time>2020-07-02T18:13:52Z</time>
      </trkpt>
      <trkpt lat="47.88469" lon="1.89194">
        <ele>93.7</ele>
        <time>2020-07-02T18:13:53Z</time>
      </trkpt>
      <trkpt lat="47.88468" lon="1.89189">
        <ele>93.7</ele>
        <time>2020-07-02T18:13:54Z</time>
      </trkpt>
      <trkpt lat="47.88468" lon="1.89185">
        <ele>93.7</ele>
        <time>2020-07-02T18:13:55Z</time>
      </trkpt>
      <trkpt lat="47.88468" lon="1.8918">
        <ele>93.8</ele>
        <time>2020-07-02T18:13:56Z</time>
      </trkpt>
      <trkpt lat="47.88468" lon="1.89174">
        <ele>93.8</ele>
        <time>2020-07-02T18:13:57Z</time>
      </trkpt>
      <trkpt lat="47.88468" lon="1.89172">
        <ele>93.8</ele>
        <time>2020-07-02T18:13:58Z</time>
      </trkpt>
      <trkpt lat="47.88468" lon="1.8917">
        <ele>93.9</ele>
        <time>2020-07-02T18:13:59Z</time>
      </trkpt>
      <trkpt lat="47.88468" lon="1.89167">
        <ele>93.9</ele>
        <time>2020-07-02T18:14:00Z</time>
      </trkpt>
      <trkpt lat="47.88469" lon="1.89163">
        <ele>94</ele>
        <time>2020-07-02T18:14:01Z</time>
      </trkpt>
      <trkpt lat="47.88469" lon="1.89159">
        <ele>93.9</ele>
        <time>2020-07-02T18:14:02Z</time>
      </trkpt>
      <trkpt lat="47.8847" lon="1.89154">
        <ele>93.9</ele>
        <time>2020-07-02T18:14:03Z</time>
      </trkpt>
      <trkpt lat="47.88473" lon="1.8915">
        <ele>93.8</ele>
        <time>2020-07-02T18:14:04Z</time>
      </trkpt>
      <trkpt lat="47.88477" lon="1.89147">
        <ele>93.7</ele>
        <time>2020-07-02T18:14:05Z</time>
      </trkpt>
      <trkpt lat="47.8848" lon="1.89143">
        <ele>93.7</ele>
        <time>2020-07-02T18:14:06Z</time>
      </trkpt>
      <trkpt lat="47.88483" lon="1.89137">
        <ele>93.6</ele>
        <time>2020-07-02T18:14:07Z</time>
      </trkpt>
      <trkpt lat="47.88484" lon="1.89128">
        <ele>93.5</ele>
        <time>2020-07-02T18:14:08Z</time>
      </trkpt>
      <trkpt lat="47.88484" lon="1.8912">
        <ele>93.4</ele>
        <time>2020-07-02T18:14:09Z</time>
      </trkpt>
      <trkpt lat="47.88484" lon="1.8911">
        <ele>93.4</ele>
        <time>2020-07-02T18:14:10Z</time>
      </trkpt>
      <trkpt lat="47.88485" lon="1.89101">
        <ele>93.3</ele>
        <time>2020-07-02T18:14:11Z</time>
      </trkpt>
      <trkpt lat="47.88485" lon="1.89092">
        <ele>93.3</ele>
        <time>2020-07-02T18:14:12Z</time>
      </trkpt>
      <trkpt lat="47.88485" lon="1.89083">
        <ele>93.3</ele>
        <time>2020-07-02T18:14:13Z</time>
      </trkpt>
      <trkpt lat="47.88485" lon="1.89073">
        <ele>93.2</ele>
        <time>2020-07-02T18:14:14Z</time>
      </trkpt>
      <trkpt lat="47.88484" lon="1.89064">
        <ele>93.2</ele>
        <time>2020-07-02T18:14:15Z</time>
      </trkpt>
      <trkpt lat="47.88484" lon="1.89053">
        <ele>93.2</ele>
        <time>2020-07-02T18:14:16Z</time>
      </trkpt>
      <trkpt lat="47.88483" lon="1.89044">
        <ele>93.2</ele>
        <time>2020-07-02T18:14:17Z</time>
      </trkpt>
      <trkpt lat="47.88483" lon="1.89035">
        <ele>93.2</ele>
        <time>2020-07-02T18:14:18Z</time>
      </trkpt>
      <trkpt lat="47.88483" lon="1.89026">
        <ele>93.2</ele>
        <time>2020-07-02T18:14:19Z</time>
      </trkpt>
      <trkpt lat="47.88482" lon="1.89015">
        <ele>93.3</ele>
        <time>2020-07-02T18:14:20Z</time>
      </trkpt>
      <trkpt lat="47.88483" lon="1.89006">
        <ele>93.3</ele>
        <time>2020-07-02T18:14:21Z</time>
      </trkpt>
      <trkpt lat="47.88482" lon="1.88995">
        <ele>93.3</ele>
        <time>2020-07-02T18:14:22Z</time>
      </trkpt>
      <trkpt lat="47.88481" lon="1.88985">
        <ele>93.4</ele>
        <time>2020-07-02T18:14:23Z</time>
      </trkpt>
      <trkpt lat="47.8848" lon="1.88976">
        <ele>93.4</ele>
        <time>2020-07-02T18:14:24Z</time>
      </trkpt>
      <trkpt lat="47.8848" lon="1.88966">
        <ele>93.4</ele>
        <time>2020-07-02T18:14:25Z</time>
      </trkpt>
      <trkpt lat="47.88478" lon="1.88956">
        <ele>93.5</ele>
        <time>2020-07-02T18:14:26Z</time>
      </trkpt>
      <trkpt lat="47.88477" lon="1.88945">
        <ele>93.6</ele>
        <time>2020-07-02T18:14:27Z</time>
      </trkpt>
      <trkpt lat="47.88476" lon="1.88936">
        <ele>93.7</ele>
        <time>2020-07-02T18:14:28Z</time>
      </trkpt>
      <trkpt lat="47.88475" lon="1.88927">
        <ele>93.7</ele>
        <time>2020-07-02T18:14:29Z</time>
      </trkpt>
      <trkpt lat="47.88475" lon="1.8892">
        <ele>93.7</ele>
        <time>2020-07-02T18:14:30Z</time>
      </trkpt>
      <trkpt lat="47.88474" lon="1.88911">
        <ele>93.7</ele>
        <time>2020-07-02T18:14:31Z</time>
      </trkpt>
      <trkpt lat="47.88474" lon="1.88901">
        <ele>93.6</ele>
        <time>2020-07-02T18:14:32Z</time>
      </trkpt>
      <trkpt lat="47.88472" lon="1.88893">
        <ele>93.6</ele>
        <time>2020-07-02T18:14:33Z</time>
      </trkpt>
      <trkpt lat="47.88471" lon="1.88885">
        <ele>93.5</ele>
        <time>2020-07-02T18:14:34Z</time>
      </trkpt>
      <trkpt lat="47.88469" lon="1.88877">
        <ele>93.5</ele>
        <time>2020-07-02T18:14:35Z</time>
      </trkpt>
      <trkpt lat="47.88468" lon="1.88869">
        <ele>93.5</ele>
        <time>2020-07-02T18:14:36Z</time>
      </trkpt>
      <trkpt lat="47.88467" lon="1.8886">
        <ele>93.4</ele>
        <time>2020-07-02T18:14:37Z</time>
      </trkpt>
      <trkpt lat="47.88466" lon="1.88851">
        <ele>93.4</ele>
        <time>2020-07-02T18:14:38Z</time>
      </trkpt>
      <trkpt lat="47.88464" lon="1.88844">
        <ele>93.4</ele>
        <time>2020-07-02T18:14:39Z</time>
      </trkpt>
      <trkpt lat="47.88463" lon="1.88837">
        <ele>93.4</ele>
        <time>2020-07-02T18:14:40Z</time>
      </trkpt>
      <trkpt lat="47.88462" lon="1.88828">
        <ele>93.4</ele>
        <time>2020-07-02T18:14:41Z</time>
      </trkpt>
      <trkpt lat="47.88461" lon="1.8882">
        <ele>93.4</ele>
        <time>2020-07-02T18:14:42Z</time>
      </trkpt>
      <trkpt lat="47.8846" lon="1.88811">
        <ele>93.4</ele>
        <time>2020-07-02T18:14:43Z</time>
      </trkpt>
      <trkpt lat="47.8846" lon="1.88802">
        <ele>93.3</ele>
        <time>2020-07-02T18:14:44Z</time>
      </trkpt>
      <trkpt lat="47.8846" lon="1.88794">
        <ele>93.2</ele>
        <time>2020-07-02T18:14:45Z</time>
      </trkpt>
      <trkpt lat="47.88459" lon="1.88786">
        <ele>93.1</ele>
        <time>2020-07-02T18:14:46Z</time>
      </trkpt>
      <trkpt lat="47.88459" lon="1.88778">
        <ele>93</ele>
        <time>2020-07-02T18:14:47Z</time>
      </trkpt>
      <trkpt lat="47.88459" lon="1.88771">
        <ele>92.9</ele>
        <time>2020-07-02T18:14:48Z</time>
      </trkpt>
      <trkpt lat="47.88458" lon="1.88765">
        <ele>92.9</ele>
        <time>2020-07-02T18:14:49Z</time>
      </trkpt>
      <trkpt lat="47.88459" lon="1.88757">
        <ele>92.8</ele>
        <time>2020-07-02T18:14:50Z</time>
      </trkpt>
      <trkpt lat="47.88459" lon="1.8875">
        <ele>92.8</ele>
        <time>2020-07-02T18:14:51Z</time>
      </trkpt>
      <trkpt lat="47.88459" lon="1.88743">
        <ele>92.8</ele>
        <time>2020-07-02T18:14:52Z</time>
      </trkpt>
      <trkpt lat="47.88459" lon="1.88736">
        <ele>92.9</ele>
        <time>2020-07-02T18:14:53Z</time>
      </trkpt>
      <trkpt lat="47.8846" lon="1.88731">
        <ele>92.8</ele>
        <time>2020-07-02T18:14:54Z</time>
      </trkpt>
      <trkpt lat="47.88463" lon="1.88727">
        <ele>92.8</ele>
        <time>2020-07-02T18:14:55Z</time>
      </trkpt>
      <trkpt lat="47.88467" lon="1.88723">
        <ele>92.7</ele>
        <time>2020-07-02T18:14:56Z</time>
      </trkpt>
      <trkpt lat="47.8847" lon="1.88719">
        <ele>92.7</ele>
        <time>2020-07-02T18:14:57Z</time>
      </trkpt>
      <trkpt lat="47.88474" lon="1.88714">
        <ele>92.7</ele>
        <time>2020-07-02T18:14:58Z</time>
      </trkpt>
      <trkpt lat="47.88477" lon="1.88709">
        <ele>92.7</ele>
        <time>2020-07-02T18:14:59Z</time>
      </trkpt>
      <trkpt lat="47.8848" lon="1.88703">
        <ele>92.7</ele>
        <time>2020-07-02T18:15:00Z</time>
      </trkpt>
      <trkpt lat="47.88484" lon="1.88698">
        <ele>92.7</ele>
        <time>2020-07-02T18:15:01Z</time>
      </trkpt>
      <trkpt lat="47.88487" lon="1.88694">
        <ele>92.7</ele>
        <time>2020-07-02T18:15:02Z</time>
      </trkpt>
      <trkpt lat="47.88491" lon="1.88689">
        <ele>92.6</ele>
        <time>2020-07-02T18:15:03Z</time>
      </trkpt>
      <trkpt lat="47.88494" lon="1.88683">
        <ele>92.6</ele>
        <time>2020-07-02T18:15:04Z</time>
      </trkpt>
      <trkpt lat="47.88496" lon="1.88675">
        <ele>92.6</ele>
        <time>2020-07-02T18:15:05Z</time>
      </trkpt>
      <trkpt lat="47.88498" lon="1.88667">
        <ele>92.6</ele>
        <time>2020-07-02T18:15:06Z</time>
      </trkpt>
      <trkpt lat="47.88499" lon="1.88659">
        <ele>92.6</ele>
        <time>2020-07-02T18:15:07Z</time>
      </trkpt>
      <trkpt lat="47.88499" lon="1.88652">
        <ele>92.6</ele>
        <time>2020-07-02T18:15:08Z</time>
      </trkpt>
      <trkpt lat="47.88499" lon="1.88644">
        <ele>92.6</ele>
        <time>2020-07-02T18:15:09Z</time>
      </trkpt>
      <trkpt lat="47.88498" lon="1.88636">
        <ele>92.6</ele>
        <time>2020-07-02T18:15:10Z</time>
      </trkpt>
      <trkpt lat="47.88498" lon="1.88629">
        <ele>92.7</ele>
        <time>2020-07-02T18:15:11Z</time>
      </trkpt>
      <trkpt lat="47.88498" lon="1.88621">
        <ele>92.7</ele>
        <time>2020-07-02T18:15:12Z</time>
      </trkpt>
      <trkpt lat="47.88497" lon="1.88614">
        <ele>92.7</ele>
        <time>2020-07-02T18:15:13Z</time>
      </trkpt>
      <trkpt lat="47.88497" lon="1.88605">
        <ele>92.7</ele>
        <time>2020-07-02T18:15:14Z</time>
      </trkpt>
      <trkpt lat="47.88496" lon="1.88598">
        <ele>92.7</ele>
        <time>2020-07-02T18:15:15Z</time>
      </trkpt>
      <trkpt lat="47.88496" lon="1.88592">
        <ele>92.7</ele>
        <time>2020-07-02T18:15:16Z</time>
      </trkpt>
      <trkpt lat="47.88496" lon="1.88585">
        <ele>92.7</ele>
        <time>2020-07-02T18:15:17Z</time>
      </trkpt>
      <trkpt lat="47.88496" lon="1.88577">
        <ele>92.7</ele>
        <time>2020-07-02T18:15:18Z</time>
      </trkpt>
      <trkpt lat="47.88495" lon="1.88569">
        <ele>92.7</ele>
        <time>2020-07-02T18:15:19Z</time>
      </trkpt>
      <trkpt lat="47.88494" lon="1.88563">
        <ele>92.7</ele>
        <time>2020-07-02T18:15:20Z</time>
      </trkpt>
      <trkpt lat="47.88493" lon="1.88557">
        <ele>92.8</ele>
        <time>2020-07-02T18:15:21Z</time>
      </trkpt>
      <trkpt lat="47.88491" lon="1.88551">
        <ele>92.8</ele>
        <time>2020-07-02T18:15:22Z</time>
      </trkpt>
      <trkpt lat="47.88489" lon="1.88544">
        <ele>92.9</ele>
        <time>2020-07-02T18:15:23Z</time>
      </trkpt>
      <trkpt lat="47.88487" lon="1.88538">
        <ele>92.9</ele>
        <time>2020-07-02T18:15:24Z</time>
      </trkpt>
      <trkpt lat="47.88485" lon="1.88533">
        <ele>92.9</ele>
        <time>2020-07-02T18:15:25Z</time>
      </trkpt>
      <trkpt lat="47.88484" lon="1.88527">
        <ele>92.9</ele>
        <time>2020-07-02T18:15:26Z</time>
      </trkpt>
      <trkpt lat="47.88483" lon="1.88521">
        <ele>92.9</ele>
        <time>2020-07-02T18:15:27Z</time>
      </trkpt>
      <trkpt lat="47.88481" lon="1.88513">
        <ele>92.8</ele>
        <time>2020-07-02T18:15:28Z</time>
      </trkpt>
      <trkpt lat="47.88478" lon="1.88507">
        <ele>92.8</ele>
        <time>2020-07-02T18:15:29Z</time>
      </trkpt>
      <trkpt lat="47.88475" lon="1.88499">
        <ele>92.8</ele>
        <time>2020-07-02T18:15:30Z</time>
      </trkpt>
      <trkpt lat="47.88473" lon="1.88491">
        <ele>92.7</ele>
        <time>2020-07-02T18:15:31Z</time>
      </trkpt>
      <trkpt lat="47.88469" lon="1.88483">
        <ele>92.7</ele>
        <time>2020-07-02T18:15:32Z</time>
      </trkpt>
      <trkpt lat="47.88465" lon="1.88477">
        <ele>92.6</ele>
        <time>2020-07-02T18:15:33Z</time>
      </trkpt>
      <trkpt lat="47.8846" lon="1.8847">
        <ele>92.5</ele>
        <time>2020-07-02T18:15:34Z</time>
      </trkpt>
      <trkpt lat="47.88455" lon="1.88464">
        <ele>92.4</ele>
        <time>2020-07-02T18:15:35Z</time>
      </trkpt>
      <trkpt lat="47.88452" lon="1.88459">
        <ele>92.4</ele>
        <time>2020-07-02T18:15:36Z</time>
      </trkpt>
      <trkpt lat="47.88448" lon="1.88451">
        <ele>92.3</ele>
        <time>2020-07-02T18:15:37Z</time>
      </trkpt>
      <trkpt lat="47.88445" lon="1.88444">
        <ele>92.3</ele>
        <time>2020-07-02T18:15:38Z</time>
      </trkpt>
      <trkpt lat="47.88442" lon="1.88435">
        <ele>92.3</ele>
        <time>2020-07-02T18:15:39Z</time>
      </trkpt>
      <trkpt lat="47.88439" lon="1.88428">
        <ele>92.3</ele>
        <time>2020-07-02T18:15:40Z</time>
      </trkpt>
      <trkpt lat="47.88437" lon="1.88421">
        <ele>92.3</ele>
        <time>2020-07-02T18:15:41Z</time>
      </trkpt>
      <trkpt lat="47.88436" lon="1.88412">
        <ele>92.4</ele>
        <time>2020-07-02T18:15:42Z</time>
      </trkpt>
      <trkpt lat="47.88434" lon="1.88401">
        <ele>92.4</ele>
        <time>2020-07-02T18:15:43Z</time>
      </trkpt>
      <trkpt lat="47.88434" lon="1.88393">
        <ele>92.3</ele>
        <time>2020-07-02T18:15:44Z</time>
      </trkpt>
      <trkpt lat="47.88433" lon="1.88384">
        <ele>92.3</ele>
        <time>2020-07-02T18:15:45Z</time>
      </trkpt>
      <trkpt lat="47.88433" lon="1.88376">
        <ele>92.3</ele>
        <time>2020-07-02T18:15:46Z</time>
      </trkpt>
      <trkpt lat="47.88432" lon="1.88366">
        <ele>92.3</ele>
        <time>2020-07-02T18:15:47Z</time>
      </trkpt>
      <trkpt lat="47.88432" lon="1.88356">
        <ele>92.4</ele>
        <time>2020-07-02T18:15:48Z</time>
      </trkpt>
      <trkpt lat="47.88431" lon="1.88347">
        <ele>92.4</ele>
        <time>2020-07-02T18:15:49Z</time>
      </trkpt>
      <trkpt lat="47.88431" lon="1.88339">
        <ele>92.3</ele>
        <time>2020-07-02T18:15:50Z</time>
      </trkpt>
      <trkpt lat="47.88431" lon="1.88333">
        <ele>92.3</ele>
        <time>2020-07-02T18:15:51Z</time>
      </trkpt>
      <trkpt lat="47.8843" lon="1.88327">
        <ele>92.3</ele>
        <time>2020-07-02T18:15:52Z</time>
      </trkpt>
      <trkpt lat="47.8843" lon="1.88319">
        <ele>92.3</ele>
        <time>2020-07-02T18:15:53Z</time>
      </trkpt>
      <trkpt lat="47.88429" lon="1.88311">
        <ele>92.3</ele>
        <time>2020-07-02T18:15:54Z</time>
      </trkpt>
      <trkpt lat="47.88428" lon="1.883">
        <ele>92.3</ele>
        <time>2020-07-02T18:15:55Z</time>
      </trkpt>
      <trkpt lat="47.88426" lon="1.88291">
        <ele>92.3</ele>
        <time>2020-07-02T18:15:56Z</time>
      </trkpt>
      <trkpt lat="47.88424" lon="1.88281">
        <ele>92.3</ele>
        <time>2020-07-02T18:15:57Z</time>
      </trkpt>
      <trkpt lat="47.88424" lon="1.8827">
        <ele>92.3</ele>
        <time>2020-07-02T18:15:58Z</time>
      </trkpt>
      <trkpt lat="47.88424" lon="1.88261">
        <ele>92.3</ele>
        <time>2020-07-02T18:15:59Z</time>
      </trkpt>
      <trkpt lat="47.88425" lon="1.88252">
        <ele>92.3</ele>
        <time>2020-07-02T18:16:00Z</time>
      </trkpt>
      <trkpt lat="47.88427" lon="1.88242">
        <ele>92.3</ele>
        <time>2020-07-02T18:16:01Z</time>
      </trkpt>
      <trkpt lat="47.88429" lon="1.88233">
        <ele>92.3</ele>
        <time>2020-07-02T18:16:02Z</time>
      </trkpt>
      <trkpt lat="47.88429" lon="1.88223">
        <ele>92.3</ele>
        <time>2020-07-02T18:16:03Z</time>
      </trkpt>
      <trkpt lat="47.88429" lon="1.88214">
        <ele>92.3</ele>
        <time>2020-07-02T18:16:04Z</time>
      </trkpt>
      <trkpt lat="47.88428" lon="1.88205">
        <ele>92.3</ele>
        <time>2020-07-02T18:16:05Z</time>
      </trkpt>
      <trkpt lat="47.88428" lon="1.88195">
        <ele>92.3</ele>
        <time>2020-07-02T18:16:06Z</time>
      </trkpt>
      <trkpt lat="47.88428" lon="1.88187">
        <ele>92.6</ele>
        <time>2020-07-02T18:16:07Z</time>
      </trkpt>
      <trkpt lat="47.88427" lon="1.88179">
        <ele>92.8</ele>
        <time>2020-07-02T18:16:08Z</time>
      </trkpt>
      <trkpt lat="47.88427" lon="1.88171">
        <ele>92.9</ele>
        <time>2020-07-02T18:16:09Z</time>
      </trkpt>
      <trkpt lat="47.88427" lon="1.88163">
        <ele>92.9</ele>
        <time>2020-07-02T18:16:10Z</time>
      </trkpt>
      <trkpt lat="47.88426" lon="1.88155">
        <ele>92.9</ele>
        <time>2020-07-02T18:16:11Z</time>
      </trkpt>
      <trkpt lat="47.88425" lon="1.88148">
        <ele>92.8</ele>
        <time>2020-07-02T18:16:12Z</time>
      </trkpt>
      <trkpt lat="47.88422" lon="1.88141">
        <ele>92.8</ele>
        <time>2020-07-02T18:16:13Z</time>
      </trkpt>
      <trkpt lat="47.88419" lon="1.88134">
        <ele>92.8</ele>
        <time>2020-07-02T18:16:14Z</time>
      </trkpt>
      <trkpt lat="47.88416" lon="1.88127">
        <ele>92.8</ele>
        <time>2020-07-02T18:16:15Z</time>
      </trkpt>
      <trkpt lat="47.88412" lon="1.8812">
        <ele>92.8</ele>
        <time>2020-07-02T18:16:16Z</time>
      </trkpt>
      <trkpt lat="47.88409" lon="1.88111">
        <ele>92.8</ele>
        <time>2020-07-02T18:16:17Z</time>
      </trkpt>
      <trkpt lat="47.88405" lon="1.88105">
        <ele>92.8</ele>
        <time>2020-07-02T18:16:18Z</time>
      </trkpt>
      <trkpt lat="47.88401" lon="1.88098">
        <ele>92.8</ele>
        <time>2020-07-02T18:16:19Z</time>
      </trkpt>
      <trkpt lat="47.88398" lon="1.88092">
        <ele>92.8</ele>
        <time>2020-07-02T18:16:20Z</time>
      </trkpt>
      <trkpt lat="47.88394" lon="1.88084">
        <ele>92.8</ele>
        <time>2020-07-02T18:16:21Z</time>
      </trkpt>
      <trkpt lat="47.8839" lon="1.88077">
        <ele>92.8</ele>
        <time>2020-07-02T18:16:22Z</time>
      </trkpt>
      <trkpt lat="47.88386" lon="1.8807">
        <ele>92.9</ele>
        <time>2020-07-02T18:16:23Z</time>
      </trkpt>
      <trkpt lat="47.88383" lon="1.88061">
        <ele>92.9</ele>
        <time>2020-07-02T18:16:24Z</time>
      </trkpt>
      <trkpt lat="47.88381" lon="1.88054">
        <ele>92.9</ele>
        <time>2020-07-02T18:16:25Z</time>
      </trkpt>
      <trkpt lat="47.88378" lon="1.88047">
        <ele>92.9</ele>
        <time>2020-07-02T18:16:26Z</time>
      </trkpt>
      <trkpt lat="47.88376" lon="1.88039">
        <ele>92.9</ele>
        <time>2020-07-02T18:16:27Z</time>
      </trkpt>
      <trkpt lat="47.88374" lon="1.88032">
        <ele>92.9</ele>
        <time>2020-07-02T18:16:28Z</time>
      </trkpt>
      <trkpt lat="47.88372" lon="1.88026">
        <ele>92.9</ele>
        <time>2020-07-02T18:16:29Z</time>
      </trkpt>
      <trkpt lat="47.88369" lon="1.88018">
        <ele>92.8</ele>
        <time>2020-07-02T18:16:30Z</time>
      </trkpt>
      <trkpt lat="47.88367" lon="1.8801">
        <ele>92.8</ele>
        <time>2020-07-02T18:16:31Z</time>
      </trkpt>
      <trkpt lat="47.88364" lon="1.88003">
        <ele>92.8</ele>
        <time>2020-07-02T18:16:32Z</time>
      </trkpt>
      <trkpt lat="47.88361" lon="1.87994">
        <ele>92.8</ele>
        <time>2020-07-02T18:16:33Z</time>
      </trkpt>
      <trkpt lat="47.88359" lon="1.87985">
        <ele>92.8</ele>
        <time>2020-07-02T18:16:34Z</time>
      </trkpt>
      <trkpt lat="47.88357" lon="1.87979">
        <ele>92.9</ele>
        <time>2020-07-02T18:16:35Z</time>
      </trkpt>
      <trkpt lat="47.88356" lon="1.87974">
        <ele>92.9</ele>
        <time>2020-07-02T18:16:36Z</time>
      </trkpt>
      <trkpt lat="47.88354" lon="1.87969">
        <ele>92.9</ele>
        <time>2020-07-02T18:16:37Z</time>
      </trkpt>
      <trkpt lat="47.88352" lon="1.87964">
        <ele>92.9</ele>
        <time>2020-07-02T18:16:38Z</time>
      </trkpt>
      <trkpt lat="47.8835" lon="1.8796">
        <ele>92.9</ele>
        <time>2020-07-02T18:16:39Z</time>
      </trkpt>
      <trkpt lat="47.88348" lon="1.87955">
        <ele>92.9</ele>
        <time>2020-07-02T18:16:40Z</time>
      </trkpt>
      <trkpt lat="47.88347" lon="1.87952">
        <ele>92.9</ele>
        <time>2020-07-02T18:16:41Z</time>
      </trkpt>
      <trkpt lat="47.88345" lon="1.87947">
        <ele>92.9</ele>
        <time>2020-07-02T18:16:42Z</time>
      </trkpt>
      <trkpt lat="47.88345" lon="1.87946">
        <ele>92.9</ele>
        <time>2020-07-02T18:16:43Z</time>
      </trkpt>
      <trkpt lat="47.88344" lon="1.87944">
        <ele>92.9</ele>
        <time>2020-07-02T18:16:44Z</time>
      </trkpt>
      <trkpt lat="47.88344" lon="1.87944">
        <ele>92.9</ele>
        <time>2020-07-02T18:16:45Z</time>
      </trkpt>
      <trkpt lat="47.88343" lon="1.87943">
        <ele>92.9</ele>
        <time>2020-07-02T18:16:46Z</time>
      </trkpt>
      <trkpt lat="47.88343" lon="1.87943">
        <ele>92.9</ele>
        <time>2020-07-02T18:16:47Z</time>
      </trkpt>
      <trkpt lat="47.88342" lon="1.87942">
        <ele>92.9</ele>
        <time>2020-07-02T18:16:48Z</time>
      </trkpt>
      <trkpt lat="47.88342" lon="1.87941">
        <ele>92.9</ele>
        <time>2020-07-02T18:16:49Z</time>
      </trkpt>
      <trkpt lat="47.88342" lon="1.8794">
        <ele>92.9</ele>
        <time>2020-07-02T18:16:50Z</time>
      </trkpt>
      <trkpt lat="47.88341" lon="1.87939">
        <ele>92.9</ele>
        <time>2020-07-02T18:16:51Z</time>
      </trkpt>
      <trkpt lat="47.88342" lon="1.87941">
        <ele>92.9</ele>
        <time>2020-07-02T18:16:52Z</time>
      </trkpt>
      <trkpt lat="47.88342" lon="1.87941">
        <ele>92.9</ele>
        <time>2020-07-02T18:16:53Z</time>
      </trkpt>
      <trkpt lat="47.88341" lon="1.87941">
        <ele>92.9</ele>
        <time>2020-07-02T18:16:54Z</time>
      </trkpt>
      <trkpt lat="47.88341" lon="1.87941">
        <ele>92.9</ele>
        <time>2020-07-02T18:16:55Z</time>
      </trkpt>
      <trkpt lat="47.88342" lon="1.87941">
        <ele>92.9</ele>
        <time>2020-07-02T18:16:56Z</time>
      </trkpt>
      <trkpt lat="47.88341" lon="1.87941">
        <ele>92.9</ele>
        <time>2020-07-02T18:16:57Z</time>
      </trkpt>
      <trkpt lat="47.88341" lon="1.87941">
        <ele>92.9</ele>
        <time>2020-07-02T18:16:58Z</time>
      </trkpt>
      <trkpt lat="47.88341" lon="1.87942">
        <ele>92.9</ele>
        <time>2020-07-02T18:16:59Z</time>
      </trkpt>
      <trkpt lat="47.88341" lon="1.87942">
        <ele>92.9</ele>
        <time>2020-07-02T18:17:00Z</time>
      </trkpt>
      <trkpt lat="47.88341" lon="1.87942">
        <ele>92.9</ele>
        <time>2020-07-02T18:17:01Z</time>
      </trkpt>
      <trkpt lat="47.88341" lon="1.87942">
        <ele>92.9</ele>
        <time>2020-07-02T18:17:02Z</time>
      </trkpt>
      <trkpt lat="47.88341" lon="1.87942">
        <ele>92.9</ele>
        <time>2020-07-02T18:17:03Z</time>
      </trkpt>
      <trkpt lat="47.88341" lon="1.87943">
        <ele>92.9</ele>
        <time>2020-07-02T18:17:04Z</time>
      </trkpt>
      <trkpt lat="47.88341" lon="1.87943">
        <ele>92.9</ele>
        <time>2020-07-02T18:17:05Z</time>
      </trkpt>
      <trkpt lat="47.88341" lon="1.87942">
        <ele>92.9</ele>
        <time>2020-07-02T18:17:06Z</time>
      </trkpt>
      <trkpt lat="47.88341" lon="1.87941">
        <ele>92.9</ele>
        <time>2020-07-02T18:17:07Z</time>
      </trkpt>
      <trkpt lat="47.88341" lon="1.87939">
        <ele>92.9</ele>
        <time>2020-07-02T18:17:08Z</time>
      </trkpt>
      <trkpt lat="47.8834" lon="1.87937">
        <ele>92.9</ele>
        <time>2020-07-02T18:17:09Z</time>
      </trkpt>
      <trkpt lat="47.8834" lon="1.87936">
        <ele>92.9</ele>
        <time>2020-07-02T18:17:10Z</time>
      </trkpt>
      <trkpt lat="47.8834" lon="1.87935">
        <ele>92.9</ele>
        <time>2020-07-02T18:17:11Z</time>
      </trkpt>
      <trkpt lat="47.8834" lon="1.87933">
        <ele>92.9</ele>
        <time>2020-07-02T18:17:12Z</time>
      </trkpt>
      <trkpt lat="47.88341" lon="1.87929">
        <ele>92.9</ele>
        <time>2020-07-02T18:17:13Z</time>
      </trkpt>
      <trkpt lat="47.88341" lon="1.87927">
        <ele>92.9</ele>
        <time>2020-07-02T18:17:14Z</time>
      </trkpt>
      <trkpt lat="47.88343" lon="1.87923">
        <ele>92.9</ele>
        <time>2020-07-02T18:17:15Z</time>
      </trkpt>
      <trkpt lat="47.88346" lon="1.87921">
        <ele>93</ele>
        <time>2020-07-02T18:17:16Z</time>
      </trkpt>
      <trkpt lat="47.88349" lon="1.87919">
        <ele>93</ele>
        <time>2020-07-02T18:17:17Z</time>
      </trkpt>
      <trkpt lat="47.88353" lon="1.87918">
        <ele>93</ele>
        <time>2020-07-02T18:17:18Z</time>
      </trkpt>
      <trkpt lat="47.88356" lon="1.87915">
        <ele>93</ele>
        <time>2020-07-02T18:17:19Z</time>
      </trkpt>
      <trkpt lat="47.8836" lon="1.87913">
        <ele>93</ele>
        <time>2020-07-02T18:17:20Z</time>
      </trkpt>
      <trkpt lat="47.88364" lon="1.87911">
        <ele>93.1</ele>
        <time>2020-07-02T18:17:21Z</time>
      </trkpt>
      <trkpt lat="47.88368" lon="1.87908">
        <ele>93.1</ele>
        <time>2020-07-02T18:17:22Z</time>
      </trkpt>
      <trkpt lat="47.88372" lon="1.87904">
        <ele>93.2</ele>
        <time>2020-07-02T18:17:23Z</time>
      </trkpt>
      <trkpt lat="47.88377" lon="1.87901">
        <ele>93.2</ele>
        <time>2020-07-02T18:17:24Z</time>
      </trkpt>
      <trkpt lat="47.88382" lon="1.87897">
        <ele>93.3</ele>
        <time>2020-07-02T18:17:25Z</time>
      </trkpt>
      <trkpt lat="47.88386" lon="1.87893">
        <ele>93.3</ele>
        <time>2020-07-02T18:17:26Z</time>
      </trkpt>
      <trkpt lat="47.8839" lon="1.8789">
        <ele>93.3</ele>
        <time>2020-07-02T18:17:27Z</time>
      </trkpt>
      <trkpt lat="47.88395" lon="1.87886">
        <ele>93.4</ele>
        <time>2020-07-02T18:17:28Z</time>
      </trkpt>
      <trkpt lat="47.88401" lon="1.87882">
        <ele>93.4</ele>
        <time>2020-07-02T18:17:29Z</time>
      </trkpt>
      <trkpt lat="47.88405" lon="1.87879">
        <ele>93.4</ele>
        <time>2020-07-02T18:17:30Z</time>
      </trkpt>
      <trkpt lat="47.8841" lon="1.87875">
        <ele>93.4</ele>
        <time>2020-07-02T18:17:31Z</time>
      </trkpt>
      <trkpt lat="47.88415" lon="1.87872">
        <ele>93.5</ele>
        <time>2020-07-02T18:17:32Z</time>
      </trkpt>
      <trkpt lat="47.8842" lon="1.87869">
        <ele>93.5</ele>
        <time>2020-07-02T18:17:33Z</time>
      </trkpt>
      <trkpt lat="47.88425" lon="1.87867">
        <ele>93.5</ele>
        <time>2020-07-02T18:17:34Z</time>
      </trkpt>
      <trkpt lat="47.88429" lon="1.87865">
        <ele>93.5</ele>
        <time>2020-07-02T18:17:35Z</time>
      </trkpt>
      <trkpt lat="47.88434" lon="1.87863">
        <ele>93.5</ele>
        <time>2020-07-02T18:17:36Z</time>
      </trkpt>
      <trkpt lat="47.88438" lon="1.87861">
        <ele>93.5</ele>
        <time>2020-07-02T18:17:37Z</time>
      </trkpt>
      <trkpt lat="47.88443" lon="1.8786">
        <ele>93.6</ele>
        <time>2020-07-02T18:17:38Z</time>
      </trkpt>
      <trkpt lat="47.88446" lon="1.87858">
        <ele>93.6</ele>
        <time>2020-07-02T18:17:39Z</time>
      </trkpt>
      <trkpt lat="47.88449" lon="1.87857">
        <ele>93.6</ele>
        <time>2020-07-02T18:17:40Z</time>
      </trkpt>
      <trkpt lat="47.88453" lon="1.87856">
        <ele>93.6</ele>
        <time>2020-07-02T18:17:41Z</time>
      </trkpt>
      <trkpt lat="47.88456" lon="1.87855">
        <ele>93.6</ele>
        <time>2020-07-02T18:17:42Z</time>
      </trkpt>
      <trkpt lat="47.88459" lon="1.87853">
        <ele>93.7</ele>
        <time>2020-07-02T18:17:43Z</time>
      </trkpt>
      <trkpt lat="47.88461" lon="1.8785">
        <ele>93.7</ele>
        <time>2020-07-02T18:17:44Z</time>
      </trkpt>
      <trkpt lat="47.88463" lon="1.87847">
        <ele>93.7</ele>
        <time>2020-07-02T18:17:45Z</time>
      </trkpt>
      <trkpt lat="47.88466" lon="1.87845">
        <ele>93.7</ele>
        <time>2020-07-02T18:17:46Z</time>
      </trkpt>
      <trkpt lat="47.88469" lon="1.87843">
        <ele>93.8</ele>
        <time>2020-07-02T18:17:47Z</time>
      </trkpt>
      <trkpt lat="47.88471" lon="1.87839">
        <ele>93.6</ele>
        <time>2020-07-02T18:17:48Z</time>
      </trkpt>
      <trkpt lat="47.88473" lon="1.87836">
        <ele>93.6</ele>
        <time>2020-07-02T18:17:49Z</time>
      </trkpt>
      <trkpt lat="47.88474" lon="1.87832">
        <ele>93.6</ele>
        <time>2020-07-02T18:17:50Z</time>
      </trkpt>
      <trkpt lat="47.88475" lon="1.87826">
        <ele>93.6</ele>
        <time>2020-07-02T18:17:51Z</time>
      </trkpt>
      <trkpt lat="47.88474" lon="1.8782">
        <ele>93.6</ele>
        <time>2020-07-02T18:17:52Z</time>
      </trkpt>
      <trkpt lat="47.88472" lon="1.87813">
        <ele>93.6</ele>
        <time>2020-07-02T18:17:53Z</time>
      </trkpt>
      <trkpt lat="47.8847" lon="1.87804">
        <ele>93.6</ele>
        <time>2020-07-02T18:17:54Z</time>
      </trkpt>
      <trkpt lat="47.88467" lon="1.87796">
        <ele>93.6</ele>
        <time>2020-07-02T18:17:55Z</time>
      </trkpt>
      <trkpt lat="47.88464" lon="1.87787">
        <ele>93.4</ele>
        <time>2020-07-02T18:17:56Z</time>
      </trkpt>
      <trkpt lat="47.88462" lon="1.87779">
        <ele>93.2</ele>
        <time>2020-07-02T18:17:57Z</time>
      </trkpt>
      <trkpt lat="47.88459" lon="1.8777">
        <ele>92.9</ele>
        <time>2020-07-02T18:17:58Z</time>
      </trkpt>
      <trkpt lat="47.88456" lon="1.87761">
        <ele>92.6</ele>
        <time>2020-07-02T18:17:59Z</time>
      </trkpt>
      <trkpt lat="47.88452" lon="1.87751">
        <ele>92.6</ele>
        <time>2020-07-02T18:18:00Z</time>
      </trkpt>
      <trkpt lat="47.88448" lon="1.87743">
        <ele>92.5</ele>
        <time>2020-07-02T18:18:01Z</time>
      </trkpt>
      <trkpt lat="47.88444" lon="1.87732">
        <ele>92.4</ele>
        <time>2020-07-02T18:18:02Z</time>
      </trkpt>
      <trkpt lat="47.8844" lon="1.87723">
        <ele>92.3</ele>
        <time>2020-07-02T18:18:03Z</time>
      </trkpt>
      <trkpt lat="47.88436" lon="1.87713">
        <ele>92.3</ele>
        <time>2020-07-02T18:18:04Z</time>
      </trkpt>
      <trkpt lat="47.88432" lon="1.87703">
        <ele>92.3</ele>
        <time>2020-07-02T18:18:05Z</time>
      </trkpt>
      <trkpt lat="47.88429" lon="1.87693">
        <ele>92.2</ele>
        <time>2020-07-02T18:18:06Z</time>
      </trkpt>
      <trkpt lat="47.88426" lon="1.87682">
        <ele>92.2</ele>
        <time>2020-07-02T18:18:07Z</time>
      </trkpt>
      <trkpt lat="47.88423" lon="1.87673">
        <ele>92.2</ele>
        <time>2020-07-02T18:18:08Z</time>
      </trkpt>
      <trkpt lat="47.8842" lon="1.87664">
        <ele>92.1</ele>
        <time>2020-07-02T18:18:09Z</time>
      </trkpt>
      <trkpt lat="47.88417" lon="1.87656">
        <ele>92.1</ele>
        <time>2020-07-02T18:18:10Z</time>
      </trkpt>
      <trkpt lat="47.88414" lon="1.87648">
        <ele>92</ele>
        <time>2020-07-02T18:18:11Z</time>
      </trkpt>
      <trkpt lat="47.8841" lon="1.87638">
        <ele>92</ele>
        <time>2020-07-02T18:18:12Z</time>
      </trkpt>
      <trkpt lat="47.88406" lon="1.87627">
        <ele>91.9</ele>
        <time>2020-07-02T18:18:13Z</time>
      </trkpt>
      <trkpt lat="47.88402" lon="1.87618">
        <ele>91.9</ele>
        <time>2020-07-02T18:18:14Z</time>
      </trkpt>
      <trkpt lat="47.88399" lon="1.87608">
        <ele>91.8</ele>
        <time>2020-07-02T18:18:15Z</time>
      </trkpt>
      <trkpt lat="47.88397" lon="1.876">
        <ele>91.8</ele>
        <time>2020-07-02T18:18:16Z</time>
      </trkpt>
      <trkpt lat="47.88394" lon="1.87591">
        <ele>91.8</ele>
        <time>2020-07-02T18:18:17Z</time>
      </trkpt>
      <trkpt lat="47.88391" lon="1.87582">
        <ele>91.8</ele>
        <time>2020-07-02T18:18:18Z</time>
      </trkpt>
      <trkpt lat="47.88388" lon="1.87571">
        <ele>91.8</ele>
        <time>2020-07-02T18:18:19Z</time>
      </trkpt>
      <trkpt lat="47.88385" lon="1.87562">
        <ele>91.8</ele>
        <time>2020-07-02T18:18:20Z</time>
      </trkpt>
      <trkpt lat="47.88382" lon="1.87553">
        <ele>91.8</ele>
        <time>2020-07-02T18:18:21Z</time>
      </trkpt>
      <trkpt lat="47.88379" lon="1.87544">
        <ele>91.8</ele>
        <time>2020-07-02T18:18:22Z</time>
      </trkpt>
      <trkpt lat="47.88376" lon="1.87535">
        <ele>91.7</ele>
        <time>2020-07-02T18:18:23Z</time>
      </trkpt>
      <trkpt lat="47.88372" lon="1.87526">
        <ele>91.7</ele>
        <time>2020-07-02T18:18:24Z</time>
      </trkpt>
      <trkpt lat="47.88369" lon="1.87517">
        <ele>91.7</ele>
        <time>2020-07-02T18:18:25Z</time>
      </trkpt>
      <trkpt lat="47.88367" lon="1.87507">
        <ele>91.7</ele>
        <time>2020-07-02T18:18:26Z</time>
      </trkpt>
      <trkpt lat="47.88365" lon="1.87498">
        <ele>91.6</ele>
        <time>2020-07-02T18:18:27Z</time>
      </trkpt>
      <trkpt lat="47.88362" lon="1.87489">
        <ele>91.6</ele>
        <time>2020-07-02T18:18:28Z</time>
      </trkpt>
      <trkpt lat="47.8836" lon="1.8748">
        <ele>91.6</ele>
        <time>2020-07-02T18:18:29Z</time>
      </trkpt>
      <trkpt lat="47.88357" lon="1.87471">
        <ele>91.6</ele>
        <time>2020-07-02T18:18:30Z</time>
      </trkpt>
      <trkpt lat="47.88353" lon="1.87463">
        <ele>91.6</ele>
        <time>2020-07-02T18:18:31Z</time>
      </trkpt>
      <trkpt lat="47.8835" lon="1.87454">
        <ele>91.6</ele>
        <time>2020-07-02T18:18:32Z</time>
      </trkpt>
      <trkpt lat="47.88347" lon="1.87445">
        <ele>91.6</ele>
        <time>2020-07-02T18:18:33Z</time>
      </trkpt>
      <trkpt lat="47.88344" lon="1.87436">
        <ele>91.6</ele>
        <time>2020-07-02T18:18:34Z</time>
      </trkpt>
      <trkpt lat="47.88341" lon="1.87428">
        <ele>91.6</ele>
        <time>2020-07-02T18:18:35Z</time>
      </trkpt>
      <trkpt lat="47.88338" lon="1.8742">
        <ele>91.7</ele>
        <time>2020-07-02T18:18:36Z</time>
      </trkpt>
      <trkpt lat="47.88335" lon="1.87412">
        <ele>91.7</ele>
        <time>2020-07-02T18:18:37Z</time>
      </trkpt>
      <trkpt lat="47.88332" lon="1.87403">
        <ele>91.8</ele>
        <time>2020-07-02T18:18:38Z</time>
      </trkpt>
      <trkpt lat="47.8833" lon="1.87395">
        <ele>91.8</ele>
        <time>2020-07-02T18:18:39Z</time>
      </trkpt>
      <trkpt lat="47.88326" lon="1.87386">
        <ele>91.8</ele>
        <time>2020-07-02T18:18:40Z</time>
      </trkpt>
      <trkpt lat="47.88323" lon="1.87379">
        <ele>91.9</ele>
        <time>2020-07-02T18:18:41Z</time>
      </trkpt>
      <trkpt lat="47.8832" lon="1.8737">
        <ele>91.9</ele>
        <time>2020-07-02T18:18:42Z</time>
      </trkpt>
      <trkpt lat="47.88318" lon="1.87361">
        <ele>91.9</ele>
        <time>2020-07-02T18:18:43Z</time>
      </trkpt>
      <trkpt lat="47.88315" lon="1.87352">
        <ele>91.9</ele>
        <time>2020-07-02T18:18:44Z</time>
      </trkpt>
      <trkpt lat="47.88313" lon="1.87343">
        <ele>92</ele>
        <time>2020-07-02T18:18:45Z</time>
      </trkpt>
      <trkpt lat="47.88309" lon="1.87333">
        <ele>92</ele>
        <time>2020-07-02T18:18:46Z</time>
      </trkpt>
      <trkpt lat="47.88307" lon="1.87324">
        <ele>92</ele>
        <time>2020-07-02T18:18:47Z</time>
      </trkpt>
      <trkpt lat="47.88304" lon="1.87316">
        <ele>92.1</ele>
        <time>2020-07-02T18:18:48Z</time>
      </trkpt>
      <trkpt lat="47.88302" lon="1.87308">
        <ele>92.1</ele>
        <time>2020-07-02T18:18:49Z</time>
      </trkpt>
      <trkpt lat="47.88299" lon="1.873">
        <ele>92.1</ele>
        <time>2020-07-02T18:18:50Z</time>
      </trkpt>
      <trkpt lat="47.88296" lon="1.87293">
        <ele>92.1</ele>
        <time>2020-07-02T18:18:51Z</time>
      </trkpt>
      <trkpt lat="47.88293" lon="1.87287">
        <ele>92.2</ele>
        <time>2020-07-02T18:18:52Z</time>
      </trkpt>
      <trkpt lat="47.88291" lon="1.87279">
        <ele>92.2</ele>
        <time>2020-07-02T18:18:53Z</time>
      </trkpt>
      <trkpt lat="47.88288" lon="1.8727">
        <ele>92.2</ele>
        <time>2020-07-02T18:18:54Z</time>
      </trkpt>
      <trkpt lat="47.88284" lon="1.87262">
        <ele>92.2</ele>
        <time>2020-07-02T18:18:55Z</time>
      </trkpt>
      <trkpt lat="47.88281" lon="1.87252">
        <ele>92.2</ele>
        <time>2020-07-02T18:18:56Z</time>
      </trkpt>
      <trkpt lat="47.88278" lon="1.87244">
        <ele>92.2</ele>
        <time>2020-07-02T18:18:57Z</time>
      </trkpt>
      <trkpt lat="47.88275" lon="1.87235">
        <ele>92.2</ele>
        <time>2020-07-02T18:18:58Z</time>
      </trkpt>
      <trkpt lat="47.88272" lon="1.87226">
        <ele>92.2</ele>
        <time>2020-07-02T18:18:59Z</time>
      </trkpt>
      <trkpt lat="47.88269" lon="1.87219">
        <ele>92.2</ele>
        <time>2020-07-02T18:19:00Z</time>
      </trkpt>
      <trkpt lat="47.88267" lon="1.87211">
        <ele>92.2</ele>
        <time>2020-07-02T18:19:01Z</time>
      </trkpt>
      <trkpt lat="47.88264" lon="1.87202">
        <ele>92.2</ele>
        <time>2020-07-02T18:19:02Z</time>
      </trkpt>
      <trkpt lat="47.88261" lon="1.87194">
        <ele>92.3</ele>
        <time>2020-07-02T18:19:03Z</time>
      </trkpt>
      <trkpt lat="47.88258" lon="1.87186">
        <ele>92.2</ele>
        <time>2020-07-02T18:19:04Z</time>
      </trkpt>
      <trkpt lat="47.88255" lon="1.87177">
        <ele>92.1</ele>
        <time>2020-07-02T18:19:05Z</time>
      </trkpt>
      <trkpt lat="47.88252" lon="1.87167">
        <ele>92</ele>
        <time>2020-07-02T18:19:06Z</time>
      </trkpt>
      <trkpt lat="47.88249" lon="1.87158">
        <ele>91.9</ele>
        <time>2020-07-02T18:19:07Z</time>
      </trkpt>
      <trkpt lat="47.88247" lon="1.8715">
        <ele>91.9</ele>
        <time>2020-07-02T18:19:08Z</time>
      </trkpt>
      <trkpt lat="47.88244" lon="1.87141">
        <ele>91.9</ele>
        <time>2020-07-02T18:19:09Z</time>
      </trkpt>
      <trkpt lat="47.88242" lon="1.87132">
        <ele>91.8</ele>
        <time>2020-07-02T18:19:10Z</time>
      </trkpt>
      <trkpt lat="47.88238" lon="1.87122">
        <ele>91.8</ele>
        <time>2020-07-02T18:19:11Z</time>
      </trkpt>
      <trkpt lat="47.88236" lon="1.87114">
        <ele>91.8</ele>
        <time>2020-07-02T18:19:12Z</time>
      </trkpt>
      <trkpt lat="47.88233" lon="1.87105">
        <ele>91.7</ele>
        <time>2020-07-02T18:19:13Z</time>
      </trkpt>
      <trkpt lat="47.8823" lon="1.87097">
        <ele>91.7</ele>
        <time>2020-07-02T18:19:14Z</time>
      </trkpt>
      <trkpt lat="47.88227" lon="1.87089">
        <ele>91.7</ele>
        <time>2020-07-02T18:19:15Z</time>
      </trkpt>
      <trkpt lat="47.88224" lon="1.87079">
        <ele>91.7</ele>
        <time>2020-07-02T18:19:16Z</time>
      </trkpt>
      <trkpt lat="47.88221" lon="1.87071">
        <ele>91.7</ele>
        <time>2020-07-02T18:19:17Z</time>
      </trkpt>
      <trkpt lat="47.88218" lon="1.87061">
        <ele>91.7</ele>
        <time>2020-07-02T18:19:18Z</time>
      </trkpt>
      <trkpt lat="47.88216" lon="1.8705">
        <ele>91.8</ele>
        <time>2020-07-02T18:19:19Z</time>
      </trkpt>
      <trkpt lat="47.88213" lon="1.87041">
        <ele>91.9</ele>
        <time>2020-07-02T18:19:20Z</time>
      </trkpt>
      <trkpt lat="47.8821" lon="1.8703">
        <ele>92</ele>
        <time>2020-07-02T18:19:21Z</time>
      </trkpt>
      <trkpt lat="47.88207" lon="1.87021">
        <ele>92</ele>
        <time>2020-07-02T18:19:22Z</time>
      </trkpt>
      <trkpt lat="47.88205" lon="1.87013">
        <ele>92</ele>
        <time>2020-07-02T18:19:23Z</time>
      </trkpt>
      <trkpt lat="47.88202" lon="1.87004">
        <ele>92</ele>
        <time>2020-07-02T18:19:24Z</time>
      </trkpt>
      <trkpt lat="47.88199" lon="1.86995">
        <ele>92</ele>
        <time>2020-07-02T18:19:25Z</time>
      </trkpt>
      <trkpt lat="47.88197" lon="1.86986">
        <ele>92</ele>
        <time>2020-07-02T18:19:26Z</time>
      </trkpt>
      <trkpt lat="47.88195" lon="1.86977">
        <ele>92</ele>
        <time>2020-07-02T18:19:27Z</time>
      </trkpt>
      <trkpt lat="47.88193" lon="1.86967">
        <ele>92</ele>
        <time>2020-07-02T18:19:28Z</time>
      </trkpt>
      <trkpt lat="47.88191" lon="1.86958">
        <ele>92</ele>
        <time>2020-07-02T18:19:29Z</time>
      </trkpt>
      <trkpt lat="47.88188" lon="1.86949">
        <ele>91.9</ele>
        <time>2020-07-02T18:19:30Z</time>
      </trkpt>
      <trkpt lat="47.88185" lon="1.8694">
        <ele>91.9</ele>
        <time>2020-07-02T18:19:31Z</time>
      </trkpt>
      <trkpt lat="47.88183" lon="1.8693">
        <ele>91.9</ele>
        <time>2020-07-02T18:19:32Z</time>
      </trkpt>
      <trkpt lat="47.8818" lon="1.8692">
        <ele>91.9</ele>
        <time>2020-07-02T18:19:33Z</time>
      </trkpt>
      <trkpt lat="47.88178" lon="1.8691">
        <ele>91.9</ele>
        <time>2020-07-02T18:19:34Z</time>
      </trkpt>
      <trkpt lat="47.88174" lon="1.86899">
        <ele>92</ele>
        <time>2020-07-02T18:19:35Z</time>
      </trkpt>
      <trkpt lat="47.88171" lon="1.8689">
        <ele>92</ele>
        <time>2020-07-02T18:19:36Z</time>
      </trkpt>
      <trkpt lat="47.88168" lon="1.86881">
        <ele>92</ele>
        <time>2020-07-02T18:19:37Z</time>
      </trkpt>
      <trkpt lat="47.88166" lon="1.8687">
        <ele>92</ele>
        <time>2020-07-02T18:19:38Z</time>
      </trkpt>
      <trkpt lat="47.88163" lon="1.8686">
        <ele>91.9</ele>
        <time>2020-07-02T18:19:39Z</time>
      </trkpt>
      <trkpt lat="47.88161" lon="1.86851">
        <ele>91.9</ele>
        <time>2020-07-02T18:19:40Z</time>
      </trkpt>
      <trkpt lat="47.88158" lon="1.86841">
        <ele>91.9</ele>
        <time>2020-07-02T18:19:41Z</time>
      </trkpt>
      <trkpt lat="47.88156" lon="1.86831">
        <ele>91.8</ele>
        <time>2020-07-02T18:19:42Z</time>
      </trkpt>
      <trkpt lat="47.88153" lon="1.86822">
        <ele>91.8</ele>
        <time>2020-07-02T18:19:43Z</time>
      </trkpt>
      <trkpt lat="47.88151" lon="1.86812">
        <ele>91.8</ele>
        <time>2020-07-02T18:19:44Z</time>
      </trkpt>
      <trkpt lat="47.88148" lon="1.86803">
        <ele>91.8</ele>
        <time>2020-07-02T18:19:45Z</time>
      </trkpt>
      <trkpt lat="47.88145" lon="1.86793">
        <ele>91.8</ele>
        <time>2020-07-02T18:19:46Z</time>
      </trkpt>
      <trkpt lat="47.88142" lon="1.86784">
        <ele>91.8</ele>
        <time>2020-07-02T18:19:47Z</time>
      </trkpt>
      <trkpt lat="47.88139" lon="1.86775">
        <ele>91.8</ele>
        <time>2020-07-02T18:19:48Z</time>
      </trkpt>
      <trkpt lat="47.88135" lon="1.86766">
        <ele>91.8</ele>
        <time>2020-07-02T18:19:49Z</time>
      </trkpt>
      <trkpt lat="47.88132" lon="1.86757">
        <ele>91.8</ele>
        <time>2020-07-02T18:19:50Z</time>
      </trkpt>
      <trkpt lat="47.88128" lon="1.86748">
        <ele>91.8</ele>
        <time>2020-07-02T18:19:51Z</time>
      </trkpt>
      <trkpt lat="47.88125" lon="1.86739">
        <ele>91.8</ele>
        <time>2020-07-02T18:19:52Z</time>
      </trkpt>
      <trkpt lat="47.88122" lon="1.8673">
        <ele>91.8</ele>
        <time>2020-07-02T18:19:53Z</time>
      </trkpt>
      <trkpt lat="47.88119" lon="1.8672">
        <ele>91.8</ele>
        <time>2020-07-02T18:19:54Z</time>
      </trkpt>
      <trkpt lat="47.88117" lon="1.86712">
        <ele>91.8</ele>
        <time>2020-07-02T18:19:55Z</time>
      </trkpt>
      <trkpt lat="47.88114" lon="1.86703">
        <ele>91.8</ele>
        <time>2020-07-02T18:19:56Z</time>
      </trkpt>
      <trkpt lat="47.88112" lon="1.86694">
        <ele>91.8</ele>
        <time>2020-07-02T18:19:57Z</time>
      </trkpt>
      <trkpt lat="47.88109" lon="1.86685">
        <ele>91.8</ele>
        <time>2020-07-02T18:19:58Z</time>
      </trkpt>
      <trkpt lat="47.88107" lon="1.86677">
        <ele>91.8</ele>
        <time>2020-07-02T18:19:59Z</time>
      </trkpt>
      <trkpt lat="47.88105" lon="1.86669">
        <ele>91.8</ele>
        <time>2020-07-02T18:20:00Z</time>
      </trkpt>
      <trkpt lat="47.88103" lon="1.8666">
        <ele>91.9</ele>
        <time>2020-07-02T18:20:01Z</time>
      </trkpt>
      <trkpt lat="47.881" lon="1.86652">
        <ele>91.9</ele>
        <time>2020-07-02T18:20:02Z</time>
      </trkpt>
      <trkpt lat="47.88098" lon="1.86643">
        <ele>91.8</ele>
        <time>2020-07-02T18:20:03Z</time>
      </trkpt>
      <trkpt lat="47.88095" lon="1.86635">
        <ele>91.8</ele>
        <time>2020-07-02T18:20:04Z</time>
      </trkpt>
      <trkpt lat="47.88093" lon="1.86627">
        <ele>91.8</ele>
        <time>2020-07-02T18:20:05Z</time>
      </trkpt>
      <trkpt lat="47.88091" lon="1.86619">
        <ele>91.8</ele>
        <time>2020-07-02T18:20:06Z</time>
      </trkpt>
      <trkpt lat="47.88089" lon="1.86611">
        <ele>91.8</ele>
        <time>2020-07-02T18:20:07Z</time>
      </trkpt>
      <trkpt lat="47.88087" lon="1.86603">
        <ele>91.8</ele>
        <time>2020-07-02T18:20:08Z</time>
      </trkpt>
      <trkpt lat="47.88085" lon="1.86595">
        <ele>91.8</ele>
        <time>2020-07-02T18:20:09Z</time>
      </trkpt>
      <trkpt lat="47.88083" lon="1.86587">
        <ele>91.8</ele>
        <time>2020-07-02T18:20:10Z</time>
      </trkpt>
      <trkpt lat="47.88084" lon="1.86579">
        <ele>91.8</ele>
        <time>2020-07-02T18:20:11Z</time>
      </trkpt>
      <trkpt lat="47.88087" lon="1.86573">
        <ele>91.8</ele>
        <time>2020-07-02T18:20:12Z</time>
      </trkpt>
      <trkpt lat="47.88089" lon="1.86567">
        <ele>91.8</ele>
        <time>2020-07-02T18:20:13Z</time>
      </trkpt>
      <trkpt lat="47.88092" lon="1.86562">
        <ele>91.8</ele>
        <time>2020-07-02T18:20:14Z</time>
      </trkpt>
      <trkpt lat="47.88096" lon="1.86558">
        <ele>91.9</ele>
        <time>2020-07-02T18:20:15Z</time>
      </trkpt>
      <trkpt lat="47.88101" lon="1.86556">
        <ele>91.9</ele>
        <time>2020-07-02T18:20:16Z</time>
      </trkpt>
      <trkpt lat="47.88106" lon="1.86561">
        <ele>91.9</ele>
        <time>2020-07-02T18:20:17Z</time>
      </trkpt>
      <trkpt lat="47.88111" lon="1.86565">
        <ele>91.8</ele>
        <time>2020-07-02T18:20:18Z</time>
      </trkpt>
      <trkpt lat="47.88116" lon="1.86568">
        <ele>91.8</ele>
        <time>2020-07-02T18:20:19Z</time>
      </trkpt>
      <trkpt lat="47.88121" lon="1.8657">
        <ele>91.8</ele>
        <time>2020-07-02T18:20:20Z</time>
      </trkpt>
      <trkpt lat="47.88126" lon="1.86573">
        <ele>91.8</ele>
        <time>2020-07-02T18:20:21Z</time>
      </trkpt>
      <trkpt lat="47.88131" lon="1.86574">
        <ele>91.8</ele>
        <time>2020-07-02T18:20:22Z</time>
      </trkpt>
      <trkpt lat="47.88136" lon="1.86576">
        <ele>91.8</ele>
        <time>2020-07-02T18:20:23Z</time>
      </trkpt>
      <trkpt lat="47.88142" lon="1.86577">
        <ele>91.8</ele>
        <time>2020-07-02T18:20:24Z</time>
      </trkpt>
      <trkpt lat="47.88147" lon="1.86577">
        <ele>92.8</ele>
        <time>2020-07-02T18:20:25Z</time>
      </trkpt>
      <trkpt lat="47.88151" lon="1.86573">
        <ele>92.7</ele>
        <time>2020-07-02T18:20:26Z</time>
      </trkpt>
      <trkpt lat="47.88154" lon="1.86567">
        <ele>92.5</ele>
        <time>2020-07-02T18:20:27Z</time>
      </trkpt>
      <trkpt lat="47.88156" lon="1.8656">
        <ele>92.4</ele>
        <time>2020-07-02T18:20:28Z</time>
      </trkpt>
      <trkpt lat="47.88156" lon="1.86552">
        <ele>92.3</ele>
        <time>2020-07-02T18:20:29Z</time>
      </trkpt>
      <trkpt lat="47.88156" lon="1.86543">
        <ele>92.1</ele>
        <time>2020-07-02T18:20:30Z</time>
      </trkpt>
      <trkpt lat="47.88153" lon="1.86536">
        <ele>92</ele>
        <time>2020-07-02T18:20:31Z</time>
      </trkpt>
      <trkpt lat="47.88149" lon="1.8653">
        <ele>91.8</ele>
        <time>2020-07-02T18:20:32Z</time>
      </trkpt>
      <trkpt lat="47.88144" lon="1.86524">
        <ele>91.7</ele>
        <time>2020-07-02T18:20:33Z</time>
      </trkpt>
      <trkpt lat="47.8814" lon="1.86518">
        <ele>91.6</ele>
        <time>2020-07-02T18:20:34Z</time>
      </trkpt>
      <trkpt lat="47.88135" lon="1.86512">
        <ele>91.6</ele>
        <time>2020-07-02T18:20:35Z</time>
      </trkpt>
      <trkpt lat="47.8813" lon="1.86509">
        <ele>91.6</ele>
        <time>2020-07-02T18:20:36Z</time>
      </trkpt>
      <trkpt lat="47.88125" lon="1.86505">
        <ele>91.6</ele>
        <time>2020-07-02T18:20:37Z</time>
      </trkpt>
      <trkpt lat="47.8812" lon="1.86501">
        <ele>91.6</ele>
        <time>2020-07-02T18:20:38Z</time>
      </trkpt>
      <trkpt lat="47.88114" lon="1.86497">
        <ele>91.6</ele>
        <time>2020-07-02T18:20:39Z</time>
      </trkpt>
      <trkpt lat="47.88108" lon="1.86494">
        <ele>91.7</ele>
        <time>2020-07-02T18:20:40Z</time>
      </trkpt>
      <trkpt lat="47.88102" lon="1.8649">
        <ele>91.7</ele>
        <time>2020-07-02T18:20:41Z</time>
      </trkpt>
      <trkpt lat="47.88097" lon="1.86486">
        <ele>91.8</ele>
        <time>2020-07-02T18:20:42Z</time>
      </trkpt>
      <trkpt lat="47.88091" lon="1.86483">
        <ele>91.9</ele>
        <time>2020-07-02T18:20:43Z</time>
      </trkpt>
      <trkpt lat="47.88085" lon="1.86479">
        <ele>92</ele>
        <time>2020-07-02T18:20:44Z</time>
      </trkpt>
      <trkpt lat="47.88079" lon="1.86478">
        <ele>92.1</ele>
        <time>2020-07-02T18:20:45Z</time>
      </trkpt>
      <trkpt lat="47.88073" lon="1.86477">
        <ele>92.2</ele>
        <time>2020-07-02T18:20:46Z</time>
      </trkpt>
      <trkpt lat="47.88068" lon="1.86479">
        <ele>92.3</ele>
        <time>2020-07-02T18:20:47Z</time>
      </trkpt>
      <trkpt lat="47.88062" lon="1.86481">
        <ele>92.4</ele>
        <time>2020-07-02T18:20:48Z</time>
      </trkpt>
      <trkpt lat="47.88055" lon="1.8648">
        <ele>92.3</ele>
        <time>2020-07-02T18:20:49Z</time>
      </trkpt>
      <trkpt lat="47.88049" lon="1.86476">
        <ele>92.3</ele>
        <time>2020-07-02T18:20:50Z</time>
      </trkpt>
      <trkpt lat="47.88044" lon="1.86469">
        <ele>92.2</ele>
        <time>2020-07-02T18:20:51Z</time>
      </trkpt>
      <trkpt lat="47.88042" lon="1.86459">
        <ele>92.2</ele>
        <time>2020-07-02T18:20:52Z</time>
      </trkpt>
      <trkpt lat="47.88041" lon="1.86449">
        <ele>92.1</ele>
        <time>2020-07-02T18:20:53Z</time>
      </trkpt>
      <trkpt lat="47.8804" lon="1.86441">
        <ele>92.1</ele>
        <time>2020-07-02T18:20:54Z</time>
      </trkpt>
      <trkpt lat="47.88038" lon="1.86433">
        <ele>92.1</ele>
        <time>2020-07-02T18:20:55Z</time>
      </trkpt>
      <trkpt lat="47.88035" lon="1.86423">
        <ele>92</ele>
        <time>2020-07-02T18:20:56Z</time>
      </trkpt>
      <trkpt lat="47.88033" lon="1.86414">
        <ele>92</ele>
        <time>2020-07-02T18:20:57Z</time>
      </trkpt>
      <trkpt lat="47.88031" lon="1.86404">
        <ele>92.1</ele>
        <time>2020-07-02T18:20:58Z</time>
      </trkpt>
      <trkpt lat="47.88028" lon="1.86396">
        <ele>92.2</ele>
        <time>2020-07-02T18:20:59Z</time>
      </trkpt>
      <trkpt lat="47.88025" lon="1.86387">
        <ele>92.3</ele>
        <time>2020-07-02T18:21:00Z</time>
      </trkpt>
      <trkpt lat="47.88023" lon="1.86379">
        <ele>92.5</ele>
        <time>2020-07-02T18:21:01Z</time>
      </trkpt>
      <trkpt lat="47.88022" lon="1.8637">
        <ele>92.6</ele>
        <time>2020-07-02T18:21:02Z</time>
      </trkpt>
      <trkpt lat="47.8802" lon="1.86361">
        <ele>92.7</ele>
        <time>2020-07-02T18:21:03Z</time>
      </trkpt>
      <trkpt lat="47.88018" lon="1.86353">
        <ele>92.9</ele>
        <time>2020-07-02T18:21:04Z</time>
      </trkpt>
      <trkpt lat="47.88016" lon="1.86344">
        <ele>93.1</ele>
        <time>2020-07-02T18:21:05Z</time>
      </trkpt>
      <trkpt lat="47.88012" lon="1.86335">
        <ele>93.3</ele>
        <time>2020-07-02T18:21:06Z</time>
      </trkpt>
      <trkpt lat="47.8801" lon="1.86326">
        <ele>93.5</ele>
        <time>2020-07-02T18:21:07Z</time>
      </trkpt>
      <trkpt lat="47.88008" lon="1.86318">
        <ele>93.7</ele>
        <time>2020-07-02T18:21:08Z</time>
      </trkpt>
      <trkpt lat="47.88005" lon="1.86309">
        <ele>93.9</ele>
        <time>2020-07-02T18:21:09Z</time>
      </trkpt>
      <trkpt lat="47.88003" lon="1.86301">
        <ele>94.1</ele>
        <time>2020-07-02T18:21:10Z</time>
      </trkpt>
      <trkpt lat="47.88" lon="1.86293">
        <ele>94.3</ele>
        <time>2020-07-02T18:21:11Z</time>
      </trkpt>
      <trkpt lat="47.87997" lon="1.86286">
        <ele>94.6</ele>
        <time>2020-07-02T18:21:12Z</time>
      </trkpt>
      <trkpt lat="47.87995" lon="1.86279">
        <ele>94.9</ele>
        <time>2020-07-02T18:21:13Z</time>
      </trkpt>
      <trkpt lat="47.87993" lon="1.86272">
        <ele>95.1</ele>
        <time>2020-07-02T18:21:14Z</time>
      </trkpt>
      <trkpt lat="47.87991" lon="1.86264">
        <ele>95.4</ele>
        <time>2020-07-02T18:21:15Z</time>
      </trkpt>
      <trkpt lat="47.87988" lon="1.86257">
        <ele>95.6</ele>
        <time>2020-07-02T18:21:16Z</time>
      </trkpt>
      <trkpt lat="47.87985" lon="1.8625">
        <ele>95.8</ele>
        <time>2020-07-02T18:21:17Z</time>
      </trkpt>
      <trkpt lat="47.87983" lon="1.86243">
        <ele>96</ele>
        <time>2020-07-02T18:21:18Z</time>
      </trkpt>
      <trkpt lat="47.8798" lon="1.86236">
        <ele>96.3</ele>
        <time>2020-07-02T18:21:19Z</time>
      </trkpt>
      <trkpt lat="47.87977" lon="1.86229">
        <ele>96.5</ele>
        <time>2020-07-02T18:21:20Z</time>
      </trkpt>
      <trkpt lat="47.87975" lon="1.86223">
        <ele>96.6</ele>
        <time>2020-07-02T18:21:21Z</time>
      </trkpt>
      <trkpt lat="47.87972" lon="1.86216">
        <ele>96.8</ele>
        <time>2020-07-02T18:21:22Z</time>
      </trkpt>
      <trkpt lat="47.87969" lon="1.86209">
        <ele>97</ele>
        <time>2020-07-02T18:21:23Z</time>
      </trkpt>
      <trkpt lat="47.87967" lon="1.86203">
        <ele>97.1</ele>
        <time>2020-07-02T18:21:24Z</time>
      </trkpt>
      <trkpt lat="47.87965" lon="1.86198">
        <ele>97.3</ele>
        <time>2020-07-02T18:21:25Z</time>
      </trkpt>
      <trkpt lat="47.87963" lon="1.86192">
        <ele>97.4</ele>
        <time>2020-07-02T18:21:26Z</time>
      </trkpt>
      <trkpt lat="47.8796" lon="1.86186">
        <ele>97.5</ele>
        <time>2020-07-02T18:21:27Z</time>
      </trkpt>
      <trkpt lat="47.87957" lon="1.86179">
        <ele>97.6</ele>
        <time>2020-07-02T18:21:28Z</time>
      </trkpt>
      <trkpt lat="47.87954" lon="1.86172">
        <ele>97.7</ele>
        <time>2020-07-02T18:21:29Z</time>
      </trkpt>
      <trkpt lat="47.87951" lon="1.86166">
        <ele>97.8</ele>
        <time>2020-07-02T18:21:30Z</time>
      </trkpt>
      <trkpt lat="47.87949" lon="1.86159">
        <ele>97.8</ele>
        <time>2020-07-02T18:21:31Z</time>
      </trkpt>
      <trkpt lat="47.87947" lon="1.86152">
        <ele>97.9</ele>
        <time>2020-07-02T18:21:32Z</time>
      </trkpt>
      <trkpt lat="47.87945" lon="1.86146">
        <ele>97.9</ele>
        <time>2020-07-02T18:21:33Z</time>
      </trkpt>
      <trkpt lat="47.87943" lon="1.86139">
        <ele>98</ele>
        <time>2020-07-02T18:21:34Z</time>
      </trkpt>
      <trkpt lat="47.87941" lon="1.86132">
        <ele>98</ele>
        <time>2020-07-02T18:21:35Z</time>
      </trkpt>
      <trkpt lat="47.87939" lon="1.86126">
        <ele>98</ele>
        <time>2020-07-02T18:21:36Z</time>
      </trkpt>
      <trkpt lat="47.87936" lon="1.86118">
        <ele>98</ele>
        <time>2020-07-02T18:21:37Z</time>
      </trkpt>
      <trkpt lat="47.87932" lon="1.8611">
        <ele>98</ele>
        <time>2020-07-02T18:21:38Z</time>
      </trkpt>
      <trkpt lat="47.8793" lon="1.86103">
        <ele>97.9</ele>
        <time>2020-07-02T18:21:39Z</time>
      </trkpt>
      <trkpt lat="47.87927" lon="1.86095">
        <ele>97.8</ele>
        <time>2020-07-02T18:21:40Z</time>
      </trkpt>
      <trkpt lat="47.87923" lon="1.86087">
        <ele>97.8</ele>
        <time>2020-07-02T18:21:41Z</time>
      </trkpt>
      <trkpt lat="47.8792" lon="1.8608">
        <ele>97.7</ele>
        <time>2020-07-02T18:21:42Z</time>
      </trkpt>
      <trkpt lat="47.87917" lon="1.86072">
        <ele>97.7</ele>
        <time>2020-07-02T18:21:43Z</time>
      </trkpt>
      <trkpt lat="47.87914" lon="1.86063">
        <ele>97.6</ele>
        <time>2020-07-02T18:21:44Z</time>
      </trkpt>
      <trkpt lat="47.87912" lon="1.86056">
        <ele>97.4</ele>
        <time>2020-07-02T18:21:45Z</time>
      </trkpt>
      <trkpt lat="47.87909" lon="1.86048">
        <ele>97.3</ele>
        <time>2020-07-02T18:21:46Z</time>
      </trkpt>
      <trkpt lat="47.87906" lon="1.86037">
        <ele>97.1</ele>
        <time>2020-07-02T18:21:47Z</time>
      </trkpt>
      <trkpt lat="47.87904" lon="1.86028">
        <ele>96.9</ele>
        <time>2020-07-02T18:21:48Z</time>
      </trkpt>
      <trkpt lat="47.87901" lon="1.8602">
        <ele>96.7</ele>
        <time>2020-07-02T18:21:49Z</time>
      </trkpt>
      <trkpt lat="47.87898" lon="1.86011">
        <ele>96.5</ele>
        <time>2020-07-02T18:21:50Z</time>
      </trkpt>
      <trkpt lat="47.87895" lon="1.86001">
        <ele>96.3</ele>
        <time>2020-07-02T18:21:51Z</time>
      </trkpt>
      <trkpt lat="47.87893" lon="1.85991">
        <ele>96.1</ele>
        <time>2020-07-02T18:21:52Z</time>
      </trkpt>
      <trkpt lat="47.8789" lon="1.85981">
        <ele>95.9</ele>
        <time>2020-07-02T18:21:53Z</time>
      </trkpt>
      <trkpt lat="47.87887" lon="1.85971">
        <ele>95.6</ele>
        <time>2020-07-02T18:21:54Z</time>
      </trkpt>
      <trkpt lat="47.87884" lon="1.8596">
        <ele>95.4</ele>
        <time>2020-07-02T18:21:55Z</time>
      </trkpt>
      <trkpt lat="47.87881" lon="1.85949">
        <ele>95.1</ele>
        <time>2020-07-02T18:21:56Z</time>
      </trkpt>
      <trkpt lat="47.87879" lon="1.85938">
        <ele>94.9</ele>
        <time>2020-07-02T18:21:57Z</time>
      </trkpt>
      <trkpt lat="47.87876" lon="1.85927">
        <ele>94.6</ele>
        <time>2020-07-02T18:21:58Z</time>
      </trkpt>
      <trkpt lat="47.87874" lon="1.85915">
        <ele>94.3</ele>
        <time>2020-07-02T18:21:59Z</time>
      </trkpt>
      <trkpt lat="47.87871" lon="1.85904">
        <ele>94.1</ele>
        <time>2020-07-02T18:22:00Z</time>
      </trkpt>
      <trkpt lat="47.87868" lon="1.85892">
        <ele>93.8</ele>
        <time>2020-07-02T18:22:01Z</time>
      </trkpt>
      <trkpt lat="47.87865" lon="1.85881">
        <ele>93.5</ele>
        <time>2020-07-02T18:22:02Z</time>
      </trkpt>
      <trkpt lat="47.87862" lon="1.8587">
        <ele>93.3</ele>
        <time>2020-07-02T18:22:03Z</time>
      </trkpt>
      <trkpt lat="47.87859" lon="1.85859">
        <ele>93</ele>
        <time>2020-07-02T18:22:04Z</time>
      </trkpt>
      <trkpt lat="47.87857" lon="1.85848">
        <ele>92.7</ele>
        <time>2020-07-02T18:22:05Z</time>
      </trkpt>
      <trkpt lat="47.87855" lon="1.85837">
        <ele>92.5</ele>
        <time>2020-07-02T18:22:06Z</time>
      </trkpt>
      <trkpt lat="47.87853" lon="1.85826">
        <ele>92.3</ele>
        <time>2020-07-02T18:22:07Z</time>
      </trkpt>
      <trkpt lat="47.8785" lon="1.85815">
        <ele>92.1</ele>
        <time>2020-07-02T18:22:08Z</time>
      </trkpt>
      <trkpt lat="47.87848" lon="1.85805">
        <ele>92</ele>
        <time>2020-07-02T18:22:09Z</time>
      </trkpt>
      <trkpt lat="47.87845" lon="1.85794">
        <ele>91.9</ele>
        <time>2020-07-02T18:22:10Z</time>
      </trkpt>
      <trkpt lat="47.87842" lon="1.85783">
        <ele>91.8</ele>
        <time>2020-07-02T18:22:11Z</time>
      </trkpt>
      <trkpt lat="47.8784" lon="1.85772">
        <ele>91.7</ele>
        <time>2020-07-02T18:22:12Z</time>
      </trkpt>
      <trkpt lat="47.87837" lon="1.85762">
        <ele>91.7</ele>
        <time>2020-07-02T18:22:13Z</time>
      </trkpt>
      <trkpt lat="47.87834" lon="1.85751">
        <ele>91.7</ele>
        <time>2020-07-02T18:22:14Z</time>
      </trkpt>
      <trkpt lat="47.87831" lon="1.85741">
        <ele>91.7</ele>
        <time>2020-07-02T18:22:15Z</time>
      </trkpt>
      <trkpt lat="47.87828" lon="1.8573">
        <ele>91.8</ele>
        <time>2020-07-02T18:22:16Z</time>
      </trkpt>
      <trkpt lat="47.87825" lon="1.8572">
        <ele>91.7</ele>
        <time>2020-07-02T18:22:17Z</time>
      </trkpt>
      <trkpt lat="47.87822" lon="1.8571">
        <ele>91.7</ele>
        <time>2020-07-02T18:22:18Z</time>
      </trkpt>
      <trkpt lat="47.87819" lon="1.857">
        <ele>91.7</ele>
        <time>2020-07-02T18:22:19Z</time>
      </trkpt>
      <trkpt lat="47.87817" lon="1.85689">
        <ele>91.7</ele>
        <time>2020-07-02T18:22:20Z</time>
      </trkpt>
      <trkpt lat="47.87814" lon="1.85678">
        <ele>91.6</ele>
        <time>2020-07-02T18:22:21Z</time>
      </trkpt>
      <trkpt lat="47.87811" lon="1.85667">
        <ele>91.6</ele>
        <time>2020-07-02T18:22:22Z</time>
      </trkpt>
      <trkpt lat="47.87809" lon="1.85656">
        <ele>91.6</ele>
        <time>2020-07-02T18:22:23Z</time>
      </trkpt>
      <trkpt lat="47.87806" lon="1.85646">
        <ele>91.6</ele>
        <time>2020-07-02T18:22:24Z</time>
      </trkpt>
      <trkpt lat="47.87804" lon="1.85635">
        <ele>91.7</ele>
        <time>2020-07-02T18:22:25Z</time>
      </trkpt>
      <trkpt lat="47.87801" lon="1.85626">
        <ele>91.7</ele>
        <time>2020-07-02T18:22:26Z</time>
      </trkpt>
      <trkpt lat="47.87798" lon="1.85617">
        <ele>91.7</ele>
        <time>2020-07-02T18:22:27Z</time>
      </trkpt>
      <trkpt lat="47.87796" lon="1.85607">
        <ele>91.7</ele>
        <time>2020-07-02T18:22:28Z</time>
      </trkpt>
      <trkpt lat="47.87793" lon="1.85598">
        <ele>91.7</ele>
        <time>2020-07-02T18:22:29Z</time>
      </trkpt>
      <trkpt lat="47.8779" lon="1.85588">
        <ele>91.7</ele>
        <time>2020-07-02T18:22:30Z</time>
      </trkpt>
      <trkpt lat="47.87788" lon="1.85579">
        <ele>91.7</ele>
        <time>2020-07-02T18:22:31Z</time>
      </trkpt>
      <trkpt lat="47.87785" lon="1.85569">
        <ele>91.7</ele>
        <time>2020-07-02T18:22:32Z</time>
      </trkpt>
      <trkpt lat="47.87782" lon="1.8556">
        <ele>91.6</ele>
        <time>2020-07-02T18:22:33Z</time>
      </trkpt>
      <trkpt lat="47.8778" lon="1.85551">
        <ele>91.6</ele>
        <time>2020-07-02T18:22:34Z</time>
      </trkpt>
      <trkpt lat="47.87777" lon="1.85541">
        <ele>91.6</ele>
        <time>2020-07-02T18:22:35Z</time>
      </trkpt>
      <trkpt lat="47.87775" lon="1.85532">
        <ele>91.6</ele>
        <time>2020-07-02T18:22:36Z</time>
      </trkpt>
      <trkpt lat="47.87772" lon="1.85523">
        <ele>91.6</ele>
        <time>2020-07-02T18:22:37Z</time>
      </trkpt>
      <trkpt lat="47.8777" lon="1.85513">
        <ele>91.6</ele>
        <time>2020-07-02T18:22:38Z</time>
      </trkpt>
      <trkpt lat="47.87767" lon="1.85505">
        <ele>91.6</ele>
        <time>2020-07-02T18:22:39Z</time>
      </trkpt>
      <trkpt lat="47.87764" lon="1.85495">
        <ele>91.5</ele>
        <time>2020-07-02T18:22:40Z</time>
      </trkpt>
      <trkpt lat="47.87761" lon="1.85486">
        <ele>91.5</ele>
        <time>2020-07-02T18:22:41Z</time>
      </trkpt>
      <trkpt lat="47.87759" lon="1.85477">
        <ele>91.5</ele>
        <time>2020-07-02T18:22:42Z</time>
      </trkpt>
      <trkpt lat="47.87755" lon="1.85467">
        <ele>91.5</ele>
        <time>2020-07-02T18:22:43Z</time>
      </trkpt>
      <trkpt lat="47.87751" lon="1.85458">
        <ele>91.5</ele>
        <time>2020-07-02T18:22:44Z</time>
      </trkpt>
      <trkpt lat="47.87748" lon="1.85449">
        <ele>91.6</ele>
        <time>2020-07-02T18:22:45Z</time>
      </trkpt>
      <trkpt lat="47.87745" lon="1.85439">
        <ele>91.6</ele>
        <time>2020-07-02T18:22:46Z</time>
      </trkpt>
      <trkpt lat="47.87742" lon="1.8543">
        <ele>91.6</ele>
        <time>2020-07-02T18:22:47Z</time>
      </trkpt>
      <trkpt lat="47.8774" lon="1.85421">
        <ele>91.6</ele>
        <time>2020-07-02T18:22:48Z</time>
      </trkpt>
      <trkpt lat="47.87737" lon="1.85411">
        <ele>91.6</ele>
        <time>2020-07-02T18:22:49Z</time>
      </trkpt>
      <trkpt lat="47.87735" lon="1.85403">
        <ele>91.6</ele>
        <time>2020-07-02T18:22:50Z</time>
      </trkpt>
      <trkpt lat="47.87733" lon="1.85394">
        <ele>91.7</ele>
        <time>2020-07-02T18:22:51Z</time>
      </trkpt>
      <trkpt lat="47.8773" lon="1.85386">
        <ele>91.7</ele>
        <time>2020-07-02T18:22:52Z</time>
      </trkpt>
      <trkpt lat="47.87728" lon="1.85377">
        <ele>91.8</ele>
        <time>2020-07-02T18:22:53Z</time>
      </trkpt>
      <trkpt lat="47.87726" lon="1.85367">
        <ele>91.8</ele>
        <time>2020-07-02T18:22:54Z</time>
      </trkpt>
      <trkpt lat="47.87723" lon="1.85358">
        <ele>91.9</ele>
        <time>2020-07-02T18:22:55Z</time>
      </trkpt>
      <trkpt lat="47.8772" lon="1.85349">
        <ele>92</ele>
        <time>2020-07-02T18:22:56Z</time>
      </trkpt>
      <trkpt lat="47.87718" lon="1.85339">
        <ele>92</ele>
        <time>2020-07-02T18:22:57Z</time>
      </trkpt>
      <trkpt lat="47.87715" lon="1.8533">
        <ele>92.1</ele>
        <time>2020-07-02T18:22:58Z</time>
      </trkpt>
      <trkpt lat="47.87712" lon="1.85321">
        <ele>92.1</ele>
        <time>2020-07-02T18:22:59Z</time>
      </trkpt>
      <trkpt lat="47.8771" lon="1.85313">
        <ele>92.1</ele>
        <time>2020-07-02T18:23:00Z</time>
      </trkpt>
      <trkpt lat="47.87708" lon="1.85305">
        <ele>92.1</ele>
        <time>2020-07-02T18:23:01Z</time>
      </trkpt>
      <trkpt lat="47.87706" lon="1.85297">
        <ele>92.1</ele>
        <time>2020-07-02T18:23:02Z</time>
      </trkpt>
      <trkpt lat="47.87704" lon="1.85289">
        <ele>92.1</ele>
        <time>2020-07-02T18:23:03Z</time>
      </trkpt>
      <trkpt lat="47.87702" lon="1.8528">
        <ele>92.1</ele>
        <time>2020-07-02T18:23:04Z</time>
      </trkpt>
      <trkpt lat="47.87699" lon="1.85272">
        <ele>92.1</ele>
        <time>2020-07-02T18:23:05Z</time>
      </trkpt>
      <trkpt lat="47.87696" lon="1.85263">
        <ele>92.1</ele>
        <time>2020-07-02T18:23:06Z</time>
      </trkpt>
      <trkpt lat="47.87694" lon="1.85255">
        <ele>92.1</ele>
        <time>2020-07-02T18:23:07Z</time>
      </trkpt>
      <trkpt lat="47.87691" lon="1.85246">
        <ele>92.1</ele>
        <time>2020-07-02T18:23:08Z</time>
      </trkpt>
      <trkpt lat="47.87688" lon="1.85237">
        <ele>92.1</ele>
        <time>2020-07-02T18:23:09Z</time>
      </trkpt>
      <trkpt lat="47.87684" lon="1.85227">
        <ele>92</ele>
        <time>2020-07-02T18:23:10Z</time>
      </trkpt>
      <trkpt lat="47.8768" lon="1.85217">
        <ele>92</ele>
        <time>2020-07-02T18:23:11Z</time>
      </trkpt>
      <trkpt lat="47.87677" lon="1.85207">
        <ele>92</ele>
        <time>2020-07-02T18:23:12Z</time>
      </trkpt>
      <trkpt lat="47.87674" lon="1.85198">
        <ele>91.9</ele>
        <time>2020-07-02T18:23:13Z</time>
      </trkpt>
      <trkpt lat="47.87671" lon="1.85188">
        <ele>91.9</ele>
        <time>2020-07-02T18:23:14Z</time>
      </trkpt>
      <trkpt lat="47.87668" lon="1.85178">
        <ele>91.9</ele>
        <time>2020-07-02T18:23:15Z</time>
      </trkpt>
      <trkpt lat="47.87664" lon="1.85168">
        <ele>91.8</ele>
        <time>2020-07-02T18:23:16Z</time>
      </trkpt>
      <trkpt lat="47.87661" lon="1.85159">
        <ele>91.8</ele>
        <time>2020-07-02T18:23:17Z</time>
      </trkpt>
      <trkpt lat="47.87658" lon="1.8515">
        <ele>91.7</ele>
        <time>2020-07-02T18:23:18Z</time>
      </trkpt>
      <trkpt lat="47.87655" lon="1.85142">
        <ele>91.7</ele>
        <time>2020-07-02T18:23:19Z</time>
      </trkpt>
      <trkpt lat="47.87652" lon="1.85134">
        <ele>91.7</ele>
        <time>2020-07-02T18:23:20Z</time>
      </trkpt>
      <trkpt lat="47.87649" lon="1.85125">
        <ele>91.6</ele>
        <time>2020-07-02T18:23:21Z</time>
      </trkpt>
      <trkpt lat="47.87647" lon="1.85115">
        <ele>91.6</ele>
        <time>2020-07-02T18:23:22Z</time>
      </trkpt>
      <trkpt lat="47.87644" lon="1.85105">
        <ele>91.6</ele>
        <time>2020-07-02T18:23:23Z</time>
      </trkpt>
      <trkpt lat="47.87641" lon="1.85097">
        <ele>91.5</ele>
        <time>2020-07-02T18:23:24Z</time>
      </trkpt>
      <trkpt lat="47.87638" lon="1.85088">
        <ele>91.5</ele>
        <time>2020-07-02T18:23:25Z</time>
      </trkpt>
      <trkpt lat="47.87636" lon="1.85079">
        <ele>91.5</ele>
        <time>2020-07-02T18:23:26Z</time>
      </trkpt>
      <trkpt lat="47.87633" lon="1.85072">
        <ele>91.4</ele>
        <time>2020-07-02T18:23:27Z</time>
      </trkpt>
      <trkpt lat="47.8763" lon="1.85064">
        <ele>91.4</ele>
        <time>2020-07-02T18:23:28Z</time>
      </trkpt>
      <trkpt lat="47.87626" lon="1.85055">
        <ele>91.3</ele>
        <time>2020-07-02T18:23:29Z</time>
      </trkpt>
      <trkpt lat="47.87624" lon="1.85047">
        <ele>91.3</ele>
        <time>2020-07-02T18:23:30Z</time>
      </trkpt>
      <trkpt lat="47.87622" lon="1.85038">
        <ele>91.3</ele>
        <time>2020-07-02T18:23:31Z</time>
      </trkpt>
      <trkpt lat="47.87619" lon="1.85029">
        <ele>91.3</ele>
        <time>2020-07-02T18:23:32Z</time>
      </trkpt>
      <trkpt lat="47.87617" lon="1.8502">
        <ele>91.3</ele>
        <time>2020-07-02T18:23:33Z</time>
      </trkpt>
      <trkpt lat="47.87614" lon="1.85011">
        <ele>91.3</ele>
        <time>2020-07-02T18:23:34Z</time>
      </trkpt>
      <trkpt lat="47.87611" lon="1.85002">
        <ele>91.2</ele>
        <time>2020-07-02T18:23:35Z</time>
      </trkpt>
      <trkpt lat="47.87609" lon="1.84994">
        <ele>91.2</ele>
        <time>2020-07-02T18:23:36Z</time>
      </trkpt>
      <trkpt lat="47.87606" lon="1.84984">
        <ele>91.3</ele>
        <time>2020-07-02T18:23:37Z</time>
      </trkpt>
      <trkpt lat="47.87603" lon="1.84976">
        <ele>91.3</ele>
        <time>2020-07-02T18:23:38Z</time>
      </trkpt>
      <trkpt lat="47.876" lon="1.84968">
        <ele>91.3</ele>
        <time>2020-07-02T18:23:39Z</time>
      </trkpt>
      <trkpt lat="47.87598" lon="1.8496">
        <ele>91.3</ele>
        <time>2020-07-02T18:23:40Z</time>
      </trkpt>
      <trkpt lat="47.87595" lon="1.84951">
        <ele>91.4</ele>
        <time>2020-07-02T18:23:41Z</time>
      </trkpt>
      <trkpt lat="47.87592" lon="1.84941">
        <ele>91.4</ele>
        <time>2020-07-02T18:23:42Z</time>
      </trkpt>
      <trkpt lat="47.87589" lon="1.84931">
        <ele>91.4</ele>
        <time>2020-07-02T18:23:43Z</time>
      </trkpt>
      <trkpt lat="47.87586" lon="1.84923">
        <ele>91.4</ele>
        <time>2020-07-02T18:23:44Z</time>
      </trkpt>
      <trkpt lat="47.87584" lon="1.84915">
        <ele>91.4</ele>
        <time>2020-07-02T18:23:45Z</time>
      </trkpt>
      <trkpt lat="47.87581" lon="1.84905">
        <ele>91.5</ele>
        <time>2020-07-02T18:23:46Z</time>
      </trkpt>
      <trkpt lat="47.87577" lon="1.84898">
        <ele>91.5</ele>
        <time>2020-07-02T18:23:47Z</time>
      </trkpt>
      <trkpt lat="47.87575" lon="1.84889">
        <ele>91.5</ele>
        <time>2020-07-02T18:23:48Z</time>
      </trkpt>
      <trkpt lat="47.87573" lon="1.84881">
        <ele>91.6</ele>
        <time>2020-07-02T18:23:49Z</time>
      </trkpt>
      <trkpt lat="47.8757" lon="1.84872">
        <ele>91.6</ele>
        <time>2020-07-02T18:23:50Z</time>
      </trkpt>
      <trkpt lat="47.87567" lon="1.84862">
        <ele>91.6</ele>
        <time>2020-07-02T18:23:51Z</time>
      </trkpt>
      <trkpt lat="47.87564" lon="1.84852">
        <ele>91.6</ele>
        <time>2020-07-02T18:23:52Z</time>
      </trkpt>
      <trkpt lat="47.87561" lon="1.84843">
        <ele>91.6</ele>
        <time>2020-07-02T18:23:53Z</time>
      </trkpt>
      <trkpt lat="47.87558" lon="1.84834">
        <ele>91.6</ele>
        <time>2020-07-02T18:23:54Z</time>
      </trkpt>
      <trkpt lat="47.87557" lon="1.84828">
        <ele>91.6</ele>
        <time>2020-07-02T18:23:55Z</time>
      </trkpt>
      <trkpt lat="47.87555" lon="1.8482">
        <ele>91.6</ele>
        <time>2020-07-02T18:23:56Z</time>
      </trkpt>
      <trkpt lat="47.87553" lon="1.84812">
        <ele>91.6</ele>
        <time>2020-07-02T18:23:57Z</time>
      </trkpt>
      <trkpt lat="47.8755" lon="1.84803">
        <ele>91.6</ele>
        <time>2020-07-02T18:23:58Z</time>
      </trkpt>
      <trkpt lat="47.87547" lon="1.84795">
        <ele>91.6</ele>
        <time>2020-07-02T18:23:59Z</time>
      </trkpt>
      <trkpt lat="47.87545" lon="1.84787">
        <ele>91.6</ele>
        <time>2020-07-02T18:24:00Z</time>
      </trkpt>
      <trkpt lat="47.87542" lon="1.84779">
        <ele>91.6</ele>
        <time>2020-07-02T18:24:01Z</time>
      </trkpt>
      <trkpt lat="47.8754" lon="1.8477">
        <ele>91.6</ele>
        <time>2020-07-02T18:24:02Z</time>
      </trkpt>
      <trkpt lat="47.87537" lon="1.84759">
        <ele>91.7</ele>
        <time>2020-07-02T18:24:03Z</time>
      </trkpt>
      <trkpt lat="47.87534" lon="1.8475">
        <ele>91.7</ele>
        <time>2020-07-02T18:24:04Z</time>
      </trkpt>
      <trkpt lat="47.87531" lon="1.84741">
        <ele>91.7</ele>
        <time>2020-07-02T18:24:05Z</time>
      </trkpt>
      <trkpt lat="47.87528" lon="1.8473">
        <ele>91.8</ele>
        <time>2020-07-02T18:24:06Z</time>
      </trkpt>
      <trkpt lat="47.87525" lon="1.84723">
        <ele>91.8</ele>
        <time>2020-07-02T18:24:07Z</time>
      </trkpt>
      <trkpt lat="47.87522" lon="1.84714">
        <ele>91.8</ele>
        <time>2020-07-02T18:24:08Z</time>
      </trkpt>
      <trkpt lat="47.87519" lon="1.84704">
        <ele>91.8</ele>
        <time>2020-07-02T18:24:09Z</time>
      </trkpt>
      <trkpt lat="47.87517" lon="1.84697">
        <ele>91.8</ele>
        <time>2020-07-02T18:24:10Z</time>
      </trkpt>
      <trkpt lat="47.87514" lon="1.84689">
        <ele>91.7</ele>
        <time>2020-07-02T18:24:11Z</time>
      </trkpt>
      <trkpt lat="47.87512" lon="1.8468">
        <ele>91.7</ele>
        <time>2020-07-02T18:24:12Z</time>
      </trkpt>
      <trkpt lat="47.87511" lon="1.84673">
        <ele>91.7</ele>
        <time>2020-07-02T18:24:13Z</time>
      </trkpt>
      <trkpt lat="47.87509" lon="1.84665">
        <ele>91.7</ele>
        <time>2020-07-02T18:24:14Z</time>
      </trkpt>
      <trkpt lat="47.87506" lon="1.84656">
        <ele>91.7</ele>
        <time>2020-07-02T18:24:15Z</time>
      </trkpt>
      <trkpt lat="47.87503" lon="1.84646">
        <ele>91.7</ele>
        <time>2020-07-02T18:24:16Z</time>
      </trkpt>
      <trkpt lat="47.875" lon="1.84636">
        <ele>91.6</ele>
        <time>2020-07-02T18:24:17Z</time>
      </trkpt>
      <trkpt lat="47.87498" lon="1.84627">
        <ele>91.6</ele>
        <time>2020-07-02T18:24:18Z</time>
      </trkpt>
      <trkpt lat="47.87495" lon="1.84618">
        <ele>91.6</ele>
        <time>2020-07-02T18:24:19Z</time>
      </trkpt>
      <trkpt lat="47.87492" lon="1.84609">
        <ele>91.6</ele>
        <time>2020-07-02T18:24:20Z</time>
      </trkpt>
      <trkpt lat="47.8749" lon="1.84599">
        <ele>91.6</ele>
        <time>2020-07-02T18:24:21Z</time>
      </trkpt>
      <trkpt lat="47.87487" lon="1.8459">
        <ele>91.6</ele>
        <time>2020-07-02T18:24:22Z</time>
      </trkpt>
      <trkpt lat="47.87484" lon="1.8458">
        <ele>91.6</ele>
        <time>2020-07-02T18:24:23Z</time>
      </trkpt>
      <trkpt lat="47.87481" lon="1.84571">
        <ele>91.6</ele>
        <time>2020-07-02T18:24:24Z</time>
      </trkpt>
      <trkpt lat="47.87479" lon="1.84562">
        <ele>91.5</ele>
        <time>2020-07-02T18:24:25Z</time>
      </trkpt>
      <trkpt lat="47.87475" lon="1.84551">
        <ele>91.5</ele>
        <time>2020-07-02T18:24:26Z</time>
      </trkpt>
      <trkpt lat="47.87472" lon="1.84543">
        <ele>91.5</ele>
        <time>2020-07-02T18:24:27Z</time>
      </trkpt>
      <trkpt lat="47.87469" lon="1.84534">
        <ele>91.5</ele>
        <time>2020-07-02T18:24:28Z</time>
      </trkpt>
      <trkpt lat="47.87467" lon="1.84525">
        <ele>91.5</ele>
        <time>2020-07-02T18:24:29Z</time>
      </trkpt>
      <trkpt lat="47.87463" lon="1.84516">
        <ele>91.5</ele>
        <time>2020-07-02T18:24:30Z</time>
      </trkpt>
      <trkpt lat="47.8746" lon="1.84508">
        <ele>91.5</ele>
        <time>2020-07-02T18:24:31Z</time>
      </trkpt>
      <trkpt lat="47.87457" lon="1.84499">
        <ele>91.6</ele>
        <time>2020-07-02T18:24:32Z</time>
      </trkpt>
      <trkpt lat="47.87454" lon="1.8449">
        <ele>91.5</ele>
        <time>2020-07-02T18:24:33Z</time>
      </trkpt>
      <trkpt lat="47.87451" lon="1.84481">
        <ele>91.5</ele>
        <time>2020-07-02T18:24:34Z</time>
      </trkpt>
      <trkpt lat="47.87448" lon="1.84471">
        <ele>91.5</ele>
        <time>2020-07-02T18:24:35Z</time>
      </trkpt>
      <trkpt lat="47.87445" lon="1.84462">
        <ele>91.5</ele>
        <time>2020-07-02T18:24:36Z</time>
      </trkpt>
      <trkpt lat="47.87442" lon="1.84453">
        <ele>91.6</ele>
        <time>2020-07-02T18:24:37Z</time>
      </trkpt>
      <trkpt lat="47.8744" lon="1.84445">
        <ele>91.6</ele>
        <time>2020-07-02T18:24:38Z</time>
      </trkpt>
      <trkpt lat="47.87437" lon="1.84435">
        <ele>91.6</ele>
        <time>2020-07-02T18:24:39Z</time>
      </trkpt>
      <trkpt lat="47.87434" lon="1.84426">
        <ele>91.6</ele>
        <time>2020-07-02T18:24:40Z</time>
      </trkpt>
      <trkpt lat="47.87431" lon="1.84417">
        <ele>91.6</ele>
        <time>2020-07-02T18:24:41Z</time>
      </trkpt>
      <trkpt lat="47.87429" lon="1.84408">
        <ele>91.6</ele>
        <time>2020-07-02T18:24:42Z</time>
      </trkpt>
      <trkpt lat="47.87426" lon="1.84399">
        <ele>91.6</ele>
        <time>2020-07-02T18:24:43Z</time>
      </trkpt>
      <trkpt lat="47.87424" lon="1.8439">
        <ele>91.5</ele>
        <time>2020-07-02T18:24:44Z</time>
      </trkpt>
      <trkpt lat="47.87421" lon="1.84382">
        <ele>91.4</ele>
        <time>2020-07-02T18:24:45Z</time>
      </trkpt>
      <trkpt lat="47.87419" lon="1.84373">
        <ele>91.3</ele>
        <time>2020-07-02T18:24:46Z</time>
      </trkpt>
      <trkpt lat="47.87417" lon="1.84364">
        <ele>91.2</ele>
        <time>2020-07-02T18:24:47Z</time>
      </trkpt>
      <trkpt lat="47.87415" lon="1.84355">
        <ele>91.1</ele>
        <time>2020-07-02T18:24:48Z</time>
      </trkpt>
      <trkpt lat="47.87413" lon="1.84347">
        <ele>91.1</ele>
        <time>2020-07-02T18:24:49Z</time>
      </trkpt>
      <trkpt lat="47.87411" lon="1.84339">
        <ele>91.1</ele>
        <time>2020-07-02T18:24:50Z</time>
      </trkpt>
      <trkpt lat="47.87408" lon="1.8433">
        <ele>91</ele>
        <time>2020-07-02T18:24:51Z</time>
      </trkpt>
      <trkpt lat="47.87405" lon="1.8432">
        <ele>91</ele>
        <time>2020-07-02T18:24:52Z</time>
      </trkpt>
      <trkpt lat="47.87403" lon="1.84311">
        <ele>90.9</ele>
        <time>2020-07-02T18:24:53Z</time>
      </trkpt>
      <trkpt lat="47.87401" lon="1.84303">
        <ele>90.9</ele>
        <time>2020-07-02T18:24:54Z</time>
      </trkpt>
      <trkpt lat="47.87398" lon="1.84294">
        <ele>90.9</ele>
        <time>2020-07-02T18:24:55Z</time>
      </trkpt>
      <trkpt lat="47.87395" lon="1.84285">
        <ele>90.9</ele>
        <time>2020-07-02T18:24:56Z</time>
      </trkpt>
      <trkpt lat="47.87392" lon="1.84275">
        <ele>90.8</ele>
        <time>2020-07-02T18:24:57Z</time>
      </trkpt>
      <trkpt lat="47.87389" lon="1.84267">
        <ele>90.8</ele>
        <time>2020-07-02T18:24:58Z</time>
      </trkpt>
      <trkpt lat="47.87387" lon="1.84258">
        <ele>90.8</ele>
        <time>2020-07-02T18:24:59Z</time>
      </trkpt>
      <trkpt lat="47.87385" lon="1.84249">
        <ele>90.8</ele>
        <time>2020-07-02T18:25:00Z</time>
      </trkpt>
      <trkpt lat="47.87382" lon="1.84241">
        <ele>90.8</ele>
        <time>2020-07-02T18:25:01Z</time>
      </trkpt>
      <trkpt lat="47.8738" lon="1.84232">
        <ele>90.8</ele>
        <time>2020-07-02T18:25:02Z</time>
      </trkpt>
      <trkpt lat="47.87377" lon="1.84223">
        <ele>90.7</ele>
        <time>2020-07-02T18:25:03Z</time>
      </trkpt>
      <trkpt lat="47.87374" lon="1.84214">
        <ele>90.7</ele>
        <time>2020-07-02T18:25:04Z</time>
      </trkpt>
      <trkpt lat="47.87371" lon="1.84204">
        <ele>90.7</ele>
        <time>2020-07-02T18:25:05Z</time>
      </trkpt>
      <trkpt lat="47.87369" lon="1.84197">
        <ele>90.7</ele>
        <time>2020-07-02T18:25:06Z</time>
      </trkpt>
      <trkpt lat="47.87367" lon="1.8419">
        <ele>90.8</ele>
        <time>2020-07-02T18:25:07Z</time>
      </trkpt>
      <trkpt lat="47.87365" lon="1.84181">
        <ele>90.8</ele>
        <time>2020-07-02T18:25:08Z</time>
      </trkpt>
      <trkpt lat="47.87362" lon="1.84173">
        <ele>90.9</ele>
        <time>2020-07-02T18:25:09Z</time>
      </trkpt>
      <trkpt lat="47.87359" lon="1.84164">
        <ele>90.9</ele>
        <time>2020-07-02T18:25:10Z</time>
      </trkpt>
      <trkpt lat="47.87356" lon="1.84156">
        <ele>91</ele>
        <time>2020-07-02T18:25:11Z</time>
      </trkpt>
      <trkpt lat="47.87353" lon="1.84148">
        <ele>91</ele>
        <time>2020-07-02T18:25:12Z</time>
      </trkpt>
      <trkpt lat="47.87351" lon="1.8414">
        <ele>91.1</ele>
        <time>2020-07-02T18:25:13Z</time>
      </trkpt>
      <trkpt lat="47.87348" lon="1.84133">
        <ele>91.1</ele>
        <time>2020-07-02T18:25:14Z</time>
      </trkpt>
      <trkpt lat="47.87346" lon="1.84124">
        <ele>91.2</ele>
        <time>2020-07-02T18:25:15Z</time>
      </trkpt>
      <trkpt lat="47.87343" lon="1.84117">
        <ele>91.2</ele>
        <time>2020-07-02T18:25:16Z</time>
      </trkpt>
      <trkpt lat="47.87341" lon="1.84109">
        <ele>91.3</ele>
        <time>2020-07-02T18:25:17Z</time>
      </trkpt>
      <trkpt lat="47.87339" lon="1.84101">
        <ele>91.3</ele>
        <time>2020-07-02T18:25:18Z</time>
      </trkpt>
      <trkpt lat="47.87338" lon="1.84096">
        <ele>91.3</ele>
        <time>2020-07-02T18:25:19Z</time>
      </trkpt>
      <trkpt lat="47.87337" lon="1.84091">
        <ele>91.4</ele>
        <time>2020-07-02T18:25:20Z</time>
      </trkpt>
      <trkpt lat="47.87337" lon="1.84086">
        <ele>91.4</ele>
        <time>2020-07-02T18:25:21Z</time>
      </trkpt>
      <trkpt lat="47.87336" lon="1.8408">
        <ele>91.4</ele>
        <time>2020-07-02T18:25:22Z</time>
      </trkpt>
      <trkpt lat="47.87336" lon="1.84073">
        <ele>91.4</ele>
        <time>2020-07-02T18:25:23Z</time>
      </trkpt>
      <trkpt lat="47.87337" lon="1.84066">
        <ele>91.5</ele>
        <time>2020-07-02T18:25:24Z</time>
      </trkpt>
      <trkpt lat="47.87337" lon="1.84058">
        <ele>91.6</ele>
        <time>2020-07-02T18:25:25Z</time>
      </trkpt>
      <trkpt lat="47.87337" lon="1.84048">
        <ele>91.9</ele>
        <time>2020-07-02T18:25:26Z</time>
      </trkpt>
      <trkpt lat="47.87337" lon="1.8404">
        <ele>92.1</ele>
        <time>2020-07-02T18:25:27Z</time>
      </trkpt>
      <trkpt lat="47.87337" lon="1.84033">
        <ele>92.4</ele>
        <time>2020-07-02T18:25:28Z</time>
      </trkpt>
      <trkpt lat="47.87337" lon="1.84026">
        <ele>92.6</ele>
        <time>2020-07-02T18:25:29Z</time>
      </trkpt>
      <trkpt lat="47.87337" lon="1.84021">
        <ele>92.7</ele>
        <time>2020-07-02T18:25:30Z</time>
      </trkpt>
      <trkpt lat="47.87335" lon="1.84015">
        <ele>93</ele>
        <time>2020-07-02T18:25:31Z</time>
      </trkpt>
      <trkpt lat="47.87333" lon="1.84009">
        <ele>93</ele>
        <time>2020-07-02T18:25:32Z</time>
      </trkpt>
      <trkpt lat="47.87331" lon="1.84005">
        <ele>93.1</ele>
        <time>2020-07-02T18:25:33Z</time>
      </trkpt>
      <trkpt lat="47.87328" lon="1.84003">
        <ele>93.1</ele>
        <time>2020-07-02T18:25:34Z</time>
      </trkpt>
      <trkpt lat="47.87325" lon="1.84001">
        <ele>93.1</ele>
        <time>2020-07-02T18:25:35Z</time>
      </trkpt>
      <trkpt lat="47.87322" lon="1.84001">
        <ele>93.2</ele>
        <time>2020-07-02T18:25:36Z</time>
      </trkpt>
      <trkpt lat="47.87318" lon="1.84">
        <ele>93.3</ele>
        <time>2020-07-02T18:25:37Z</time>
      </trkpt>
      <trkpt lat="47.87313" lon="1.83997">
        <ele>93.4</ele>
        <time>2020-07-02T18:25:38Z</time>
      </trkpt>
      <trkpt lat="47.87309" lon="1.83996">
        <ele>93.4</ele>
        <time>2020-07-02T18:25:39Z</time>
      </trkpt>
      <trkpt lat="47.87305" lon="1.83994">
        <ele>93.5</ele>
        <time>2020-07-02T18:25:40Z</time>
      </trkpt>
      <trkpt lat="47.87301" lon="1.83994">
        <ele>93.5</ele>
        <time>2020-07-02T18:25:41Z</time>
      </trkpt>
      <trkpt lat="47.87298" lon="1.83994">
        <ele>93.6</ele>
        <time>2020-07-02T18:25:42Z</time>
      </trkpt>
      <trkpt lat="47.87293" lon="1.83994">
        <ele>93.7</ele>
        <time>2020-07-02T18:25:43Z</time>
      </trkpt>
      <trkpt lat="47.87289" lon="1.83996">
        <ele>93.8</ele>
        <time>2020-07-02T18:25:44Z</time>
      </trkpt>
      <trkpt lat="47.87285" lon="1.83997">
        <ele>93.8</ele>
        <time>2020-07-02T18:25:45Z</time>
      </trkpt>
      <trkpt lat="47.8728" lon="1.83998">
        <ele>93.9</ele>
        <time>2020-07-02T18:25:46Z</time>
      </trkpt>
      <trkpt lat="47.87276" lon="1.83998">
        <ele>94</ele>
        <time>2020-07-02T18:25:47Z</time>
      </trkpt>
      <trkpt lat="47.87271" lon="1.83999">
        <ele>94</ele>
        <time>2020-07-02T18:25:48Z</time>
      </trkpt>
      <trkpt lat="47.87265" lon="1.83999">
        <ele>94.1</ele>
        <time>2020-07-02T18:25:49Z</time>
      </trkpt>
      <trkpt lat="47.87261" lon="1.83999">
        <ele>94.1</ele>
        <time>2020-07-02T18:25:50Z</time>
      </trkpt>
      <trkpt lat="47.87255" lon="1.83998">
        <ele>94.1</ele>
        <time>2020-07-02T18:25:51Z</time>
      </trkpt>
      <trkpt lat="47.8725" lon="1.83997">
        <ele>94.1</ele>
        <time>2020-07-02T18:25:52Z</time>
      </trkpt>
      <trkpt lat="47.87244" lon="1.83997">
        <ele>94</ele>
        <time>2020-07-02T18:25:53Z</time>
      </trkpt>
      <trkpt lat="47.87238" lon="1.83997">
        <ele>93.9</ele>
        <time>2020-07-02T18:25:54Z</time>
      </trkpt>
      <trkpt lat="47.87232" lon="1.83997">
        <ele>93.8</ele>
        <time>2020-07-02T18:25:55Z</time>
      </trkpt>
      <trkpt lat="47.87226" lon="1.83996">
        <ele>93.7</ele>
        <time>2020-07-02T18:25:56Z</time>
      </trkpt>
      <trkpt lat="47.87219" lon="1.83995">
        <ele>93.5</ele>
        <time>2020-07-02T18:25:57Z</time>
      </trkpt>
      <trkpt lat="47.87213" lon="1.83993">
        <ele>93.3</ele>
        <time>2020-07-02T18:25:58Z</time>
      </trkpt>
      <trkpt lat="47.87206" lon="1.83993">
        <ele>93.1</ele>
        <time>2020-07-02T18:25:59Z</time>
      </trkpt>
      <trkpt lat="47.87199" lon="1.83993">
        <ele>92.8</ele>
        <time>2020-07-02T18:26:00Z</time>
      </trkpt>
      <trkpt lat="47.87191" lon="1.83992">
        <ele>92.6</ele>
        <time>2020-07-02T18:26:01Z</time>
      </trkpt>
      <trkpt lat="47.87182" lon="1.83992">
        <ele>92.3</ele>
        <time>2020-07-02T18:26:02Z</time>
      </trkpt>
      <trkpt lat="47.87173" lon="1.83992">
        <ele>92.1</ele>
        <time>2020-07-02T18:26:03Z</time>
      </trkpt>
      <trkpt lat="47.87165" lon="1.83991">
        <ele>91.7</ele>
        <time>2020-07-02T18:26:04Z</time>
      </trkpt>
      <trkpt lat="47.87156" lon="1.8399">
        <ele>91.5</ele>
        <time>2020-07-02T18:26:05Z</time>
      </trkpt>
      <trkpt lat="47.87148" lon="1.83988">
        <ele>91.3</ele>
        <time>2020-07-02T18:26:06Z</time>
      </trkpt>
      <trkpt lat="47.87138" lon="1.83987">
        <ele>91</ele>
        <time>2020-07-02T18:26:07Z</time>
      </trkpt>
      <trkpt lat="47.8713" lon="1.83985">
        <ele>90.8</ele>
        <time>2020-07-02T18:26:08Z</time>
      </trkpt>
      <trkpt lat="47.87122" lon="1.83984">
        <ele>90.7</ele>
        <time>2020-07-02T18:26:09Z</time>
      </trkpt>
      <trkpt lat="47.87113" lon="1.83983">
        <ele>90.5</ele>
        <time>2020-07-02T18:26:10Z</time>
      </trkpt>
      <trkpt lat="47.87105" lon="1.83982">
        <ele>90.4</ele>
        <time>2020-07-02T18:26:11Z</time>
      </trkpt>
      <trkpt lat="47.87097" lon="1.83981">
        <ele>90.4</ele>
        <time>2020-07-02T18:26:12Z</time>
      </trkpt>
      <trkpt lat="47.87089" lon="1.8398">
        <ele>90.4</ele>
        <time>2020-07-02T18:26:13Z</time>
      </trkpt>
      <trkpt lat="47.87082" lon="1.83979">
        <ele>90.5</ele>
        <time>2020-07-02T18:26:14Z</time>
      </trkpt>
      <trkpt lat="47.87074" lon="1.83978">
        <ele>90.5</ele>
        <time>2020-07-02T18:26:15Z</time>
      </trkpt>
      <trkpt lat="47.87066" lon="1.83976">
        <ele>90.6</ele>
        <time>2020-07-02T18:26:16Z</time>
      </trkpt>
      <trkpt lat="47.87058" lon="1.83974">
        <ele>90.7</ele>
        <time>2020-07-02T18:26:17Z</time>
      </trkpt>
      <trkpt lat="47.87051" lon="1.83972">
        <ele>90.7</ele>
        <time>2020-07-02T18:26:18Z</time>
      </trkpt>
      <trkpt lat="47.87044" lon="1.83971">
        <ele>90.9</ele>
        <time>2020-07-02T18:26:19Z</time>
      </trkpt>
      <trkpt lat="47.87036" lon="1.83969">
        <ele>91</ele>
        <time>2020-07-02T18:26:20Z</time>
      </trkpt>
      <trkpt lat="47.87029" lon="1.83969">
        <ele>91.2</ele>
        <time>2020-07-02T18:26:21Z</time>
      </trkpt>
      <trkpt lat="47.87022" lon="1.83967">
        <ele>91.3</ele>
        <time>2020-07-02T18:26:22Z</time>
      </trkpt>
      <trkpt lat="47.87015" lon="1.83967">
        <ele>91.5</ele>
        <time>2020-07-02T18:26:23Z</time>
      </trkpt>
      <trkpt lat="47.87008" lon="1.83967">
        <ele>91.8</ele>
        <time>2020-07-02T18:26:24Z</time>
      </trkpt>
      <trkpt lat="47.87002" lon="1.83967">
        <ele>92.1</ele>
        <time>2020-07-02T18:26:25Z</time>
      </trkpt>
      <trkpt lat="47.86995" lon="1.83968">
        <ele>92.5</ele>
        <time>2020-07-02T18:26:26Z</time>
      </trkpt>
      <trkpt lat="47.86989" lon="1.8397">
        <ele>92.9</ele>
        <time>2020-07-02T18:26:27Z</time>
      </trkpt>
      <trkpt lat="47.86984" lon="1.83971">
        <ele>93.7</ele>
        <time>2020-07-02T18:26:28Z</time>
      </trkpt>
      <trkpt lat="47.86979" lon="1.83972">
        <ele>93.7</ele>
        <time>2020-07-02T18:26:29Z</time>
      </trkpt>
      <trkpt lat="47.86974" lon="1.83972">
        <ele>93.8</ele>
        <time>2020-07-02T18:26:30Z</time>
      </trkpt>
      <trkpt lat="47.8697" lon="1.83972">
        <ele>94</ele>
        <time>2020-07-02T18:26:31Z</time>
      </trkpt>
      <trkpt lat="47.86965" lon="1.83973">
        <ele>94.2</ele>
        <time>2020-07-02T18:26:32Z</time>
      </trkpt>
      <trkpt lat="47.8696" lon="1.83973">
        <ele>94.4</ele>
        <time>2020-07-02T18:26:33Z</time>
      </trkpt>
      <trkpt lat="47.86956" lon="1.83972">
        <ele>94.5</ele>
        <time>2020-07-02T18:26:34Z</time>
      </trkpt>
      <trkpt lat="47.86951" lon="1.83973">
        <ele>94.7</ele>
        <time>2020-07-02T18:26:35Z</time>
      </trkpt>
      <trkpt lat="47.86947" lon="1.83974">
        <ele>94.9</ele>
        <time>2020-07-02T18:26:36Z</time>
      </trkpt>
      <trkpt lat="47.86943" lon="1.83975">
        <ele>95.1</ele>
        <time>2020-07-02T18:26:37Z</time>
      </trkpt>
      <trkpt lat="47.86939" lon="1.83977">
        <ele>95.3</ele>
        <time>2020-07-02T18:26:38Z</time>
      </trkpt>
      <trkpt lat="47.86936" lon="1.8398">
        <ele>95.5</ele>
        <time>2020-07-02T18:26:39Z</time>
      </trkpt>
      <trkpt lat="47.86932" lon="1.83982">
        <ele>95.7</ele>
        <time>2020-07-02T18:26:40Z</time>
      </trkpt>
      <trkpt lat="47.86929" lon="1.83983">
        <ele>95.8</ele>
        <time>2020-07-02T18:26:41Z</time>
      </trkpt>
      <trkpt lat="47.86925" lon="1.83985">
        <ele>96</ele>
        <time>2020-07-02T18:26:42Z</time>
      </trkpt>
      <trkpt lat="47.86921" lon="1.83987">
        <ele>96.2</ele>
        <time>2020-07-02T18:26:43Z</time>
      </trkpt>
      <trkpt lat="47.86917" lon="1.8399">
        <ele>96.4</ele>
        <time>2020-07-02T18:26:44Z</time>
      </trkpt>
      <trkpt lat="47.86914" lon="1.83993">
        <ele>96.6</ele>
        <time>2020-07-02T18:26:45Z</time>
      </trkpt>
      <trkpt lat="47.8691" lon="1.83994">
        <ele>96.7</ele>
        <time>2020-07-02T18:26:46Z</time>
      </trkpt>
      <trkpt lat="47.86904" lon="1.83992">
        <ele>96.9</ele>
        <time>2020-07-02T18:26:47Z</time>
      </trkpt>
      <trkpt lat="47.86899" lon="1.83987">
        <ele>97.1</ele>
        <time>2020-07-02T18:26:48Z</time>
      </trkpt>
      <trkpt lat="47.86894" lon="1.83982">
        <ele>97.3</ele>
        <time>2020-07-02T18:26:49Z</time>
      </trkpt>
      <trkpt lat="47.8689" lon="1.83976">
        <ele>97.4</ele>
        <time>2020-07-02T18:26:50Z</time>
      </trkpt>
      <trkpt lat="47.86887" lon="1.83971">
        <ele>97.5</ele>
        <time>2020-07-02T18:26:51Z</time>
      </trkpt>
      <trkpt lat="47.86883" lon="1.83965">
        <ele>97.6</ele>
        <time>2020-07-02T18:26:52Z</time>
      </trkpt>
      <trkpt lat="47.8688" lon="1.83958">
        <ele>97.7</ele>
        <time>2020-07-02T18:26:53Z</time>
      </trkpt>
      <trkpt lat="47.86877" lon="1.83952">
        <ele>97.8</ele>
        <time>2020-07-02T18:26:54Z</time>
      </trkpt>
      <trkpt lat="47.86874" lon="1.83948">
        <ele>97.9</ele>
        <time>2020-07-02T18:26:55Z</time>
      </trkpt>
      <trkpt lat="47.86871" lon="1.83942">
        <ele>97.9</ele>
        <time>2020-07-02T18:26:56Z</time>
      </trkpt>
      <trkpt lat="47.86868" lon="1.83935">
        <ele>98.1</ele>
        <time>2020-07-02T18:26:57Z</time>
      </trkpt>
      <trkpt lat="47.86865" lon="1.83928">
        <ele>98.2</ele>
        <time>2020-07-02T18:26:58Z</time>
      </trkpt>
      <trkpt lat="47.86862" lon="1.8392">
        <ele>98.3</ele>
        <time>2020-07-02T18:26:59Z</time>
      </trkpt>
      <trkpt lat="47.86859" lon="1.83911">
        <ele>98.5</ele>
        <time>2020-07-02T18:27:00Z</time>
      </trkpt>
      <trkpt lat="47.86856" lon="1.83902">
        <ele>98.6</ele>
        <time>2020-07-02T18:27:01Z</time>
      </trkpt>
      <trkpt lat="47.86853" lon="1.83893">
        <ele>98.8</ele>
        <time>2020-07-02T18:27:02Z</time>
      </trkpt>
      <trkpt lat="47.8685" lon="1.83884">
        <ele>98.9</ele>
        <time>2020-07-02T18:27:03Z</time>
      </trkpt>
      <trkpt lat="47.86848" lon="1.83876">
        <ele>98.9</ele>
        <time>2020-07-02T18:27:04Z</time>
      </trkpt>
      <trkpt lat="47.86845" lon="1.83868">
        <ele>99.2</ele>
        <time>2020-07-02T18:27:05Z</time>
      </trkpt>
      <trkpt lat="47.86842" lon="1.83861">
        <ele>99.3</ele>
        <time>2020-07-02T18:27:06Z</time>
      </trkpt>
      <trkpt lat="47.86839" lon="1.83852">
        <ele>99.4</ele>
        <time>2020-07-02T18:27:07Z</time>
      </trkpt>
      <trkpt lat="47.86835" lon="1.83844">
        <ele>99.5</ele>
        <time>2020-07-02T18:27:08Z</time>
      </trkpt>
      <trkpt lat="47.86832" lon="1.83836">
        <ele>99.5</ele>
        <time>2020-07-02T18:27:09Z</time>
      </trkpt>
      <trkpt lat="47.86828" lon="1.83826">
        <ele>99.6</ele>
        <time>2020-07-02T18:27:10Z</time>
      </trkpt>
      <trkpt lat="47.86825" lon="1.83817">
        <ele>99.7</ele>
        <time>2020-07-02T18:27:11Z</time>
      </trkpt>
      <trkpt lat="47.86823" lon="1.8381">
        <ele>99.8</ele>
        <time>2020-07-02T18:27:12Z</time>
      </trkpt>
      <trkpt lat="47.8682" lon="1.83803">
        <ele>99.9</ele>
        <time>2020-07-02T18:27:13Z</time>
      </trkpt>
      <trkpt lat="47.86815" lon="1.83795">
        <ele>100.1</ele>
        <time>2020-07-02T18:27:14Z</time>
      </trkpt>
      <trkpt lat="47.86812" lon="1.83789">
        <ele>100.1</ele>
        <time>2020-07-02T18:27:15Z</time>
      </trkpt>
      <trkpt lat="47.86806" lon="1.83782">
        <ele>100.1</ele>
        <time>2020-07-02T18:27:16Z</time>
      </trkpt>
      <trkpt lat="47.86802" lon="1.83776">
        <ele>100</ele>
        <time>2020-07-02T18:27:17Z</time>
      </trkpt>
      <trkpt lat="47.86797" lon="1.8377">
        <ele>100</ele>
        <time>2020-07-02T18:27:18Z</time>
      </trkpt>
      <trkpt lat="47.86792" lon="1.83764">
        <ele>100</ele>
        <time>2020-07-02T18:27:19Z</time>
      </trkpt>
      <trkpt lat="47.86787" lon="1.83757">
        <ele>100</ele>
        <time>2020-07-02T18:27:20Z</time>
      </trkpt>
      <trkpt lat="47.86782" lon="1.8375">
        <ele>100</ele>
        <time>2020-07-02T18:27:21Z</time>
      </trkpt>
      <trkpt lat="47.86776" lon="1.83745">
        <ele>100</ele>
        <time>2020-07-02T18:27:22Z</time>
      </trkpt>
      <trkpt lat="47.86771" lon="1.83739">
        <ele>100.1</ele>
        <time>2020-07-02T18:27:23Z</time>
      </trkpt>
      <trkpt lat="47.86766" lon="1.83733">
        <ele>100.2</ele>
        <time>2020-07-02T18:27:24Z</time>
      </trkpt>
      <trkpt lat="47.86761" lon="1.83727">
        <ele>100.2</ele>
        <time>2020-07-02T18:27:25Z</time>
      </trkpt>
      <trkpt lat="47.86755" lon="1.83721">
        <ele>100.2</ele>
        <time>2020-07-02T18:27:26Z</time>
      </trkpt>
      <trkpt lat="47.86749" lon="1.83715">
        <ele>100.3</ele>
        <time>2020-07-02T18:27:27Z</time>
      </trkpt>
      <trkpt lat="47.86744" lon="1.8371">
        <ele>100.3</ele>
        <time>2020-07-02T18:27:28Z</time>
      </trkpt>
      <trkpt lat="47.86738" lon="1.83704">
        <ele>100.4</ele>
        <time>2020-07-02T18:27:29Z</time>
      </trkpt>
      <trkpt lat="47.86731" lon="1.83698">
        <ele>100.4</ele>
        <time>2020-07-02T18:27:30Z</time>
      </trkpt>
      <trkpt lat="47.86726" lon="1.83694">
        <ele>100.5</ele>
        <time>2020-07-02T18:27:31Z</time>
      </trkpt>
      <trkpt lat="47.86719" lon="1.8369">
        <ele>100.5</ele>
        <time>2020-07-02T18:27:32Z</time>
      </trkpt>
      <trkpt lat="47.86713" lon="1.83684">
        <ele>100.6</ele>
        <time>2020-07-02T18:27:33Z</time>
      </trkpt>
      <trkpt lat="47.86707" lon="1.83679">
        <ele>100.6</ele>
        <time>2020-07-02T18:27:34Z</time>
      </trkpt>
      <trkpt lat="47.86701" lon="1.83674">
        <ele>100.7</ele>
        <time>2020-07-02T18:27:35Z</time>
      </trkpt>
      <trkpt lat="47.86695" lon="1.83669">
        <ele>100.7</ele>
        <time>2020-07-02T18:27:36Z</time>
      </trkpt>
      <trkpt lat="47.86688" lon="1.83662">
        <ele>100.7</ele>
        <time>2020-07-02T18:27:37Z</time>
      </trkpt>
      <trkpt lat="47.86682" lon="1.83657">
        <ele>100.8</ele>
        <time>2020-07-02T18:27:38Z</time>
      </trkpt>
      <trkpt lat="47.86677" lon="1.83651">
        <ele>100.8</ele>
        <time>2020-07-02T18:27:39Z</time>
      </trkpt>
      <trkpt lat="47.86671" lon="1.83646">
        <ele>100.8</ele>
        <time>2020-07-02T18:27:40Z</time>
      </trkpt>
      <trkpt lat="47.86665" lon="1.8364">
        <ele>100.9</ele>
        <time>2020-07-02T18:27:41Z</time>
      </trkpt>
      <trkpt lat="47.86659" lon="1.83634">
        <ele>100.9</ele>
        <time>2020-07-02T18:27:42Z</time>
      </trkpt>
      <trkpt lat="47.86654" lon="1.83627">
        <ele>100.9</ele>
        <time>2020-07-02T18:27:43Z</time>
      </trkpt>
      <trkpt lat="47.86649" lon="1.8362">
        <ele>101</ele>
        <time>2020-07-02T18:27:44Z</time>
      </trkpt>
      <trkpt lat="47.86643" lon="1.83613">
        <ele>101</ele>
        <time>2020-07-02T18:27:45Z</time>
      </trkpt>
      <trkpt lat="47.86639" lon="1.83606">
        <ele>101.1</ele>
        <time>2020-07-02T18:27:46Z</time>
      </trkpt>
      <trkpt lat="47.86635" lon="1.83598">
        <ele>101.1</ele>
        <time>2020-07-02T18:27:47Z</time>
      </trkpt>
      <trkpt lat="47.8663" lon="1.83591">
        <ele>101.2</ele>
        <time>2020-07-02T18:27:48Z</time>
      </trkpt>
      <trkpt lat="47.86626" lon="1.83584">
        <ele>101.2</ele>
        <time>2020-07-02T18:27:49Z</time>
      </trkpt>
      <trkpt lat="47.86622" lon="1.83577">
        <ele>101.3</ele>
        <time>2020-07-02T18:27:50Z</time>
      </trkpt>
      <trkpt lat="47.86617" lon="1.83571">
        <ele>101.3</ele>
        <time>2020-07-02T18:27:51Z</time>
      </trkpt>
      <trkpt lat="47.86613" lon="1.83566">
        <ele>101.4</ele>
        <time>2020-07-02T18:27:52Z</time>
      </trkpt>
      <trkpt lat="47.8661" lon="1.83561">
        <ele>101.5</ele>
        <time>2020-07-02T18:27:53Z</time>
      </trkpt>
      <trkpt lat="47.86607" lon="1.83556">
        <ele>101.5</ele>
        <time>2020-07-02T18:27:54Z</time>
      </trkpt>
      <trkpt lat="47.86605" lon="1.83552">
        <ele>101.6</ele>
        <time>2020-07-02T18:27:55Z</time>
      </trkpt>
      <trkpt lat="47.86603" lon="1.83547">
        <ele>101.6</ele>
        <time>2020-07-02T18:27:56Z</time>
      </trkpt>
      <trkpt lat="47.86601" lon="1.83542">
        <ele>101.7</ele>
        <time>2020-07-02T18:27:57Z</time>
      </trkpt>
      <trkpt lat="47.86598" lon="1.83538">
        <ele>101.7</ele>
        <time>2020-07-02T18:27:58Z</time>
      </trkpt>
      <trkpt lat="47.86595" lon="1.83533">
        <ele>101.6</ele>
        <time>2020-07-02T18:27:59Z</time>
      </trkpt>
      <trkpt lat="47.86591" lon="1.83528">
        <ele>101.5</ele>
        <time>2020-07-02T18:28:00Z</time>
      </trkpt>
      <trkpt lat="47.86588" lon="1.83522">
        <ele>101.4</ele>
        <time>2020-07-02T18:28:01Z</time>
      </trkpt>
      <trkpt lat="47.86584" lon="1.83515">
        <ele>101.4</ele>
        <time>2020-07-02T18:28:02Z</time>
      </trkpt>
      <trkpt lat="47.86582" lon="1.83508">
        <ele>101.3</ele>
        <time>2020-07-02T18:28:03Z</time>
      </trkpt>
      <trkpt lat="47.86578" lon="1.835">
        <ele>101.3</ele>
        <time>2020-07-02T18:28:04Z</time>
      </trkpt>
      <trkpt lat="47.86576" lon="1.83494">
        <ele>101.2</ele>
        <time>2020-07-02T18:28:05Z</time>
      </trkpt>
      <trkpt lat="47.86572" lon="1.83486">
        <ele>101.2</ele>
        <time>2020-07-02T18:28:06Z</time>
      </trkpt>
      <trkpt lat="47.86567" lon="1.83477">
        <ele>101.1</ele>
        <time>2020-07-02T18:28:07Z</time>
      </trkpt>
      <trkpt lat="47.86564" lon="1.8347">
        <ele>101</ele>
        <time>2020-07-02T18:28:08Z</time>
      </trkpt>
      <trkpt lat="47.8656" lon="1.83462">
        <ele>101</ele>
        <time>2020-07-02T18:28:09Z</time>
      </trkpt>
      <trkpt lat="47.86555" lon="1.83454">
        <ele>101</ele>
        <time>2020-07-02T18:28:10Z</time>
      </trkpt>
      <trkpt lat="47.86551" lon="1.83445">
        <ele>101.1</ele>
        <time>2020-07-02T18:28:11Z</time>
      </trkpt>
      <trkpt lat="47.86547" lon="1.83437">
        <ele>101.1</ele>
        <time>2020-07-02T18:28:12Z</time>
      </trkpt>
      <trkpt lat="47.86543" lon="1.83429">
        <ele>101.1</ele>
        <time>2020-07-02T18:28:13Z</time>
      </trkpt>
      <trkpt lat="47.86539" lon="1.8342">
        <ele>101.2</ele>
        <time>2020-07-02T18:28:14Z</time>
      </trkpt>
      <trkpt lat="47.86536" lon="1.83413">
        <ele>101.2</ele>
        <time>2020-07-02T18:28:15Z</time>
      </trkpt>
      <trkpt lat="47.86533" lon="1.83404">
        <ele>101.2</ele>
        <time>2020-07-02T18:28:16Z</time>
      </trkpt>
      <trkpt lat="47.86528" lon="1.83396">
        <ele>101.1</ele>
        <time>2020-07-02T18:28:17Z</time>
      </trkpt>
      <trkpt lat="47.86524" lon="1.83388">
        <ele>101.1</ele>
        <time>2020-07-02T18:28:18Z</time>
      </trkpt>
      <trkpt lat="47.8652" lon="1.83379">
        <ele>101</ele>
        <time>2020-07-02T18:28:19Z</time>
      </trkpt>
      <trkpt lat="47.86517" lon="1.83371">
        <ele>101</ele>
        <time>2020-07-02T18:28:20Z</time>
      </trkpt>
      <trkpt lat="47.86513" lon="1.83363">
        <ele>101</ele>
        <time>2020-07-02T18:28:21Z</time>
      </trkpt>
      <trkpt lat="47.86509" lon="1.83355">
        <ele>101</ele>
        <time>2020-07-02T18:28:22Z</time>
      </trkpt>
      <trkpt lat="47.86505" lon="1.83348">
        <ele>101</ele>
        <time>2020-07-02T18:28:23Z</time>
      </trkpt>
      <trkpt lat="47.86501" lon="1.8334">
        <ele>101</ele>
        <time>2020-07-02T18:28:24Z</time>
      </trkpt>
      <trkpt lat="47.86497" lon="1.83332">
        <ele>101</ele>
        <time>2020-07-02T18:28:25Z</time>
      </trkpt>
      <trkpt lat="47.86493" lon="1.83324">
        <ele>101</ele>
        <time>2020-07-02T18:28:26Z</time>
      </trkpt>
      <trkpt lat="47.86489" lon="1.83316">
        <ele>101</ele>
        <time>2020-07-02T18:28:27Z</time>
      </trkpt>
      <trkpt lat="47.86485" lon="1.83308">
        <ele>101</ele>
        <time>2020-07-02T18:28:28Z</time>
      </trkpt>
      <trkpt lat="47.86481" lon="1.833">
        <ele>101</ele>
        <time>2020-07-02T18:28:29Z</time>
      </trkpt>
      <trkpt lat="47.86477" lon="1.83292">
        <ele>101</ele>
        <time>2020-07-02T18:28:30Z</time>
      </trkpt>
      <trkpt lat="47.86474" lon="1.83284">
        <ele>101</ele>
        <time>2020-07-02T18:28:31Z</time>
      </trkpt>
      <trkpt lat="47.8647" lon="1.83275">
        <ele>101</ele>
        <time>2020-07-02T18:28:32Z</time>
      </trkpt>
      <trkpt lat="47.86466" lon="1.83265">
        <ele>101.1</ele>
        <time>2020-07-02T18:28:33Z</time>
      </trkpt>
      <trkpt lat="47.86462" lon="1.83255">
        <ele>101.1</ele>
        <time>2020-07-02T18:28:34Z</time>
      </trkpt>
      <trkpt lat="47.86459" lon="1.83247">
        <ele>101.1</ele>
        <time>2020-07-02T18:28:35Z</time>
      </trkpt>
      <trkpt lat="47.86455" lon="1.83239">
        <ele>101.2</ele>
        <time>2020-07-02T18:28:36Z</time>
      </trkpt>
      <trkpt lat="47.86452" lon="1.8323">
        <ele>101.2</ele>
        <time>2020-07-02T18:28:37Z</time>
      </trkpt>
      <trkpt lat="47.86448" lon="1.8322">
        <ele>101</ele>
        <time>2020-07-02T18:28:38Z</time>
      </trkpt>
      <trkpt lat="47.86445" lon="1.83211">
        <ele>100.9</ele>
        <time>2020-07-02T18:28:39Z</time>
      </trkpt>
      <trkpt lat="47.86441" lon="1.83201">
        <ele>100.8</ele>
        <time>2020-07-02T18:28:40Z</time>
      </trkpt>
      <trkpt lat="47.86438" lon="1.83192">
        <ele>100.8</ele>
        <time>2020-07-02T18:28:41Z</time>
      </trkpt>
      <trkpt lat="47.86434" lon="1.83183">
        <ele>100.7</ele>
        <time>2020-07-02T18:28:42Z</time>
      </trkpt>
      <trkpt lat="47.86431" lon="1.83173">
        <ele>100.7</ele>
        <time>2020-07-02T18:28:43Z</time>
      </trkpt>
      <trkpt lat="47.86428" lon="1.83164">
        <ele>100.7</ele>
        <time>2020-07-02T18:28:44Z</time>
      </trkpt>
      <trkpt lat="47.86424" lon="1.83155">
        <ele>100.6</ele>
        <time>2020-07-02T18:28:45Z</time>
      </trkpt>
      <trkpt lat="47.86422" lon="1.83145">
        <ele>100.6</ele>
        <time>2020-07-02T18:28:46Z</time>
      </trkpt>
      <trkpt lat="47.86418" lon="1.83135">
        <ele>100.6</ele>
        <time>2020-07-02T18:28:47Z</time>
      </trkpt>
      <trkpt lat="47.86415" lon="1.83126">
        <ele>100.6</ele>
        <time>2020-07-02T18:28:48Z</time>
      </trkpt>
      <trkpt lat="47.86412" lon="1.83116">
        <ele>100.6</ele>
        <time>2020-07-02T18:28:49Z</time>
      </trkpt>
      <trkpt lat="47.86408" lon="1.83106">
        <ele>100.6</ele>
        <time>2020-07-02T18:28:50Z</time>
      </trkpt>
      <trkpt lat="47.86404" lon="1.83098">
        <ele>100.6</ele>
        <time>2020-07-02T18:28:51Z</time>
      </trkpt>
      <trkpt lat="47.86401" lon="1.83089">
        <ele>100.6</ele>
        <time>2020-07-02T18:28:52Z</time>
      </trkpt>
      <trkpt lat="47.86397" lon="1.8308">
        <ele>100.6</ele>
        <time>2020-07-02T18:28:53Z</time>
      </trkpt>
      <trkpt lat="47.86394" lon="1.8307">
        <ele>100.6</ele>
        <time>2020-07-02T18:28:54Z</time>
      </trkpt>
      <trkpt lat="47.86391" lon="1.8306">
        <ele>100.5</ele>
        <time>2020-07-02T18:28:55Z</time>
      </trkpt>
      <trkpt lat="47.86388" lon="1.8305">
        <ele>100.4</ele>
        <time>2020-07-02T18:28:56Z</time>
      </trkpt>
      <trkpt lat="47.86384" lon="1.8304">
        <ele>100.3</ele>
        <time>2020-07-02T18:28:57Z</time>
      </trkpt>
      <trkpt lat="47.86381" lon="1.83031">
        <ele>100.3</ele>
        <time>2020-07-02T18:28:58Z</time>
      </trkpt>
      <trkpt lat="47.86377" lon="1.83021">
        <ele>100.2</ele>
        <time>2020-07-02T18:28:59Z</time>
      </trkpt>
      <trkpt lat="47.86374" lon="1.83012">
        <ele>100.1</ele>
        <time>2020-07-02T18:29:00Z</time>
      </trkpt>
      <trkpt lat="47.86371" lon="1.83002">
        <ele>100.1</ele>
        <time>2020-07-02T18:29:01Z</time>
      </trkpt>
      <trkpt lat="47.86369" lon="1.82992">
        <ele>100.1</ele>
        <time>2020-07-02T18:29:02Z</time>
      </trkpt>
      <trkpt lat="47.86366" lon="1.82983">
        <ele>100</ele>
        <time>2020-07-02T18:29:03Z</time>
      </trkpt>
      <trkpt lat="47.86363" lon="1.82974">
        <ele>100</ele>
        <time>2020-07-02T18:29:04Z</time>
      </trkpt>
      <trkpt lat="47.86359" lon="1.82965">
        <ele>99.8</ele>
        <time>2020-07-02T18:29:05Z</time>
      </trkpt>
      <trkpt lat="47.86356" lon="1.82955">
        <ele>99.8</ele>
        <time>2020-07-02T18:29:06Z</time>
      </trkpt>
      <trkpt lat="47.86352" lon="1.82946">
        <ele>99.7</ele>
        <time>2020-07-02T18:29:07Z</time>
      </trkpt>
      <trkpt lat="47.86349" lon="1.82937">
        <ele>99.7</ele>
        <time>2020-07-02T18:29:08Z</time>
      </trkpt>
      <trkpt lat="47.86346" lon="1.82927">
        <ele>99.7</ele>
        <time>2020-07-02T18:29:09Z</time>
      </trkpt>
      <trkpt lat="47.86343" lon="1.82917">
        <ele>99.6</ele>
        <time>2020-07-02T18:29:10Z</time>
      </trkpt>
      <trkpt lat="47.86339" lon="1.82908">
        <ele>99.6</ele>
        <time>2020-07-02T18:29:11Z</time>
      </trkpt>
      <trkpt lat="47.86336" lon="1.82898">
        <ele>99.5</ele>
        <time>2020-07-02T18:29:12Z</time>
      </trkpt>
      <trkpt lat="47.86332" lon="1.82888">
        <ele>99.5</ele>
        <time>2020-07-02T18:29:13Z</time>
      </trkpt>
      <trkpt lat="47.86329" lon="1.82879">
        <ele>99.5</ele>
        <time>2020-07-02T18:29:14Z</time>
      </trkpt>
      <trkpt lat="47.86325" lon="1.82869">
        <ele>99.5</ele>
        <time>2020-07-02T18:29:15Z</time>
      </trkpt>
      <trkpt lat="47.86321" lon="1.8286">
        <ele>99.5</ele>
        <time>2020-07-02T18:29:16Z</time>
      </trkpt>
      <trkpt lat="47.86317" lon="1.82851">
        <ele>99.5</ele>
        <time>2020-07-02T18:29:17Z</time>
      </trkpt>
      <trkpt lat="47.86312" lon="1.82841">
        <ele>99.5</ele>
        <time>2020-07-02T18:29:18Z</time>
      </trkpt>
      <trkpt lat="47.86308" lon="1.82832">
        <ele>99.6</ele>
        <time>2020-07-02T18:29:19Z</time>
      </trkpt>
      <trkpt lat="47.86305" lon="1.82822">
        <ele>99.6</ele>
        <time>2020-07-02T18:29:20Z</time>
      </trkpt>
      <trkpt lat="47.863" lon="1.82813">
        <ele>99.5</ele>
        <time>2020-07-02T18:29:21Z</time>
      </trkpt>
      <trkpt lat="47.86296" lon="1.82805">
        <ele>99.5</ele>
        <time>2020-07-02T18:29:22Z</time>
      </trkpt>
      <trkpt lat="47.86292" lon="1.82796">
        <ele>99.5</ele>
        <time>2020-07-02T18:29:23Z</time>
      </trkpt>
      <trkpt lat="47.86288" lon="1.82788">
        <ele>99.5</ele>
        <time>2020-07-02T18:29:24Z</time>
      </trkpt>
      <trkpt lat="47.86284" lon="1.8278">
        <ele>99.5</ele>
        <time>2020-07-02T18:29:25Z</time>
      </trkpt>
      <trkpt lat="47.8628" lon="1.82771">
        <ele>99.5</ele>
        <time>2020-07-02T18:29:26Z</time>
      </trkpt>
      <trkpt lat="47.86276" lon="1.82762">
        <ele>99.5</ele>
        <time>2020-07-02T18:29:27Z</time>
      </trkpt>
      <trkpt lat="47.86272" lon="1.82753">
        <ele>99.6</ele>
        <time>2020-07-02T18:29:28Z</time>
      </trkpt>
      <trkpt lat="47.86268" lon="1.82744">
        <ele>99.6</ele>
        <time>2020-07-02T18:29:29Z</time>
      </trkpt>
      <trkpt lat="47.86264" lon="1.82735">
        <ele>99.6</ele>
        <time>2020-07-02T18:29:30Z</time>
      </trkpt>
      <trkpt lat="47.8626" lon="1.82726">
        <ele>99.6</ele>
        <time>2020-07-02T18:29:31Z</time>
      </trkpt>
      <trkpt lat="47.86257" lon="1.82717">
        <ele>99.7</ele>
        <time>2020-07-02T18:29:32Z</time>
      </trkpt>
      <trkpt lat="47.86253" lon="1.82709">
        <ele>99.7</ele>
        <time>2020-07-02T18:29:33Z</time>
      </trkpt>
      <trkpt lat="47.8625" lon="1.827">
        <ele>99.8</ele>
        <time>2020-07-02T18:29:34Z</time>
      </trkpt>
      <trkpt lat="47.86245" lon="1.82692">
        <ele>99.8</ele>
        <time>2020-07-02T18:29:35Z</time>
      </trkpt>
      <trkpt lat="47.86242" lon="1.82684">
        <ele>99.8</ele>
        <time>2020-07-02T18:29:36Z</time>
      </trkpt>
      <trkpt lat="47.86238" lon="1.82676">
        <ele>99.8</ele>
        <time>2020-07-02T18:29:37Z</time>
      </trkpt>
      <trkpt lat="47.86234" lon="1.82669">
        <ele>99.9</ele>
        <time>2020-07-02T18:29:38Z</time>
      </trkpt>
      <trkpt lat="47.8623" lon="1.82661">
        <ele>100</ele>
        <time>2020-07-02T18:29:39Z</time>
      </trkpt>
      <trkpt lat="47.86227" lon="1.82653">
        <ele>100.1</ele>
        <time>2020-07-02T18:29:40Z</time>
      </trkpt>
      <trkpt lat="47.86223" lon="1.82646">
        <ele>100.2</ele>
        <time>2020-07-02T18:29:41Z</time>
      </trkpt>
      <trkpt lat="47.86219" lon="1.8264">
        <ele>100.3</ele>
        <time>2020-07-02T18:29:42Z</time>
      </trkpt>
      <trkpt lat="47.86216" lon="1.82632">
        <ele>100.3</ele>
        <time>2020-07-02T18:29:43Z</time>
      </trkpt>
      <trkpt lat="47.86212" lon="1.82625">
        <ele>100.4</ele>
        <time>2020-07-02T18:29:44Z</time>
      </trkpt>
      <trkpt lat="47.86209" lon="1.82617">
        <ele>100.4</ele>
        <time>2020-07-02T18:29:45Z</time>
      </trkpt>
      <trkpt lat="47.86205" lon="1.8261">
        <ele>100.4</ele>
        <time>2020-07-02T18:29:46Z</time>
      </trkpt>
      <trkpt lat="47.86201" lon="1.82602">
        <ele>100.4</ele>
        <time>2020-07-02T18:29:47Z</time>
      </trkpt>
      <trkpt lat="47.86197" lon="1.82594">
        <ele>100.5</ele>
        <time>2020-07-02T18:29:48Z</time>
      </trkpt>
      <trkpt lat="47.86192" lon="1.82587">
        <ele>100.5</ele>
        <time>2020-07-02T18:29:49Z</time>
      </trkpt>
      <trkpt lat="47.86187" lon="1.82579">
        <ele>100.4</ele>
        <time>2020-07-02T18:29:50Z</time>
      </trkpt>
      <trkpt lat="47.86182" lon="1.82572">
        <ele>100.3</ele>
        <time>2020-07-02T18:29:51Z</time>
      </trkpt>
      <trkpt lat="47.86178" lon="1.82564">
        <ele>100.3</ele>
        <time>2020-07-02T18:29:52Z</time>
      </trkpt>
      <trkpt lat="47.86173" lon="1.82557">
        <ele>100.2</ele>
        <time>2020-07-02T18:29:53Z</time>
      </trkpt>
      <trkpt lat="47.86169" lon="1.82548">
        <ele>100.2</ele>
        <time>2020-07-02T18:29:54Z</time>
      </trkpt>
      <trkpt lat="47.86165" lon="1.82541">
        <ele>100.2</ele>
        <time>2020-07-02T18:29:55Z</time>
      </trkpt>
      <trkpt lat="47.86161" lon="1.82532">
        <ele>100.1</ele>
        <time>2020-07-02T18:29:56Z</time>
      </trkpt>
      <trkpt lat="47.86157" lon="1.82524">
        <ele>100.1</ele>
        <time>2020-07-02T18:29:57Z</time>
      </trkpt>
      <trkpt lat="47.86153" lon="1.82516">
        <ele>100.1</ele>
        <time>2020-07-02T18:29:58Z</time>
      </trkpt>
      <trkpt lat="47.86149" lon="1.82508">
        <ele>100.1</ele>
        <time>2020-07-02T18:29:59Z</time>
      </trkpt>
      <trkpt lat="47.86144" lon="1.82501">
        <ele>100</ele>
        <time>2020-07-02T18:30:00Z</time>
      </trkpt>
      <trkpt lat="47.86141" lon="1.82493">
        <ele>100</ele>
        <time>2020-07-02T18:30:01Z</time>
      </trkpt>
      <trkpt lat="47.86136" lon="1.82485">
        <ele>100</ele>
        <time>2020-07-02T18:30:02Z</time>
      </trkpt>
      <trkpt lat="47.86132" lon="1.82478">
        <ele>100</ele>
        <time>2020-07-02T18:30:03Z</time>
      </trkpt>
      <trkpt lat="47.86128" lon="1.8247">
        <ele>100.1</ele>
        <time>2020-07-02T18:30:04Z</time>
      </trkpt>
      <trkpt lat="47.86123" lon="1.82461">
        <ele>100.1</ele>
        <time>2020-07-02T18:30:05Z</time>
      </trkpt>
      <trkpt lat="47.86119" lon="1.82453">
        <ele>100.1</ele>
        <time>2020-07-02T18:30:06Z</time>
      </trkpt>
      <trkpt lat="47.86114" lon="1.82445">
        <ele>100.1</ele>
        <time>2020-07-02T18:30:07Z</time>
      </trkpt>
      <trkpt lat="47.8611" lon="1.82438">
        <ele>100.1</ele>
        <time>2020-07-02T18:30:08Z</time>
      </trkpt>
      <trkpt lat="47.86106" lon="1.8243">
        <ele>100.1</ele>
        <time>2020-07-02T18:30:09Z</time>
      </trkpt>
      <trkpt lat="47.86102" lon="1.82421">
        <ele>100.1</ele>
        <time>2020-07-02T18:30:10Z</time>
      </trkpt>
      <trkpt lat="47.86097" lon="1.82413">
        <ele>100.1</ele>
        <time>2020-07-02T18:30:11Z</time>
      </trkpt>
      <trkpt lat="47.86093" lon="1.82406">
        <ele>100.1</ele>
        <time>2020-07-02T18:30:12Z</time>
      </trkpt>
      <trkpt lat="47.86088" lon="1.82398">
        <ele>100.1</ele>
        <time>2020-07-02T18:30:13Z</time>
      </trkpt>
      <trkpt lat="47.86084" lon="1.8239">
        <ele>100.1</ele>
        <time>2020-07-02T18:30:14Z</time>
      </trkpt>
      <trkpt lat="47.86079" lon="1.82383">
        <ele>100.1</ele>
        <time>2020-07-02T18:30:15Z</time>
      </trkpt>
      <trkpt lat="47.86074" lon="1.82376">
        <ele>100.1</ele>
        <time>2020-07-02T18:30:16Z</time>
      </trkpt>
      <trkpt lat="47.86069" lon="1.82368">
        <ele>100.1</ele>
        <time>2020-07-02T18:30:17Z</time>
      </trkpt>
      <trkpt lat="47.86064" lon="1.8236">
        <ele>100.1</ele>
        <time>2020-07-02T18:30:18Z</time>
      </trkpt>
      <trkpt lat="47.86059" lon="1.82353">
        <ele>100.1</ele>
        <time>2020-07-02T18:30:19Z</time>
      </trkpt>
      <trkpt lat="47.86054" lon="1.82346">
        <ele>100.1</ele>
        <time>2020-07-02T18:30:20Z</time>
      </trkpt>
      <trkpt lat="47.86048" lon="1.82339">
        <ele>100.2</ele>
        <time>2020-07-02T18:30:21Z</time>
      </trkpt>
      <trkpt lat="47.86043" lon="1.82332">
        <ele>100.1</ele>
        <time>2020-07-02T18:30:22Z</time>
      </trkpt>
      <trkpt lat="47.86038" lon="1.82325">
        <ele>100.1</ele>
        <time>2020-07-02T18:30:23Z</time>
      </trkpt>
      <trkpt lat="47.86033" lon="1.82318">
        <ele>100.1</ele>
        <time>2020-07-02T18:30:24Z</time>
      </trkpt>
      <trkpt lat="47.86028" lon="1.82311">
        <ele>100.1</ele>
        <time>2020-07-02T18:30:25Z</time>
      </trkpt>
      <trkpt lat="47.86023" lon="1.82303">
        <ele>100.1</ele>
        <time>2020-07-02T18:30:26Z</time>
      </trkpt>
      <trkpt lat="47.86018" lon="1.82294">
        <ele>100.1</ele>
        <time>2020-07-02T18:30:27Z</time>
      </trkpt>
      <trkpt lat="47.86013" lon="1.82287">
        <ele>100.1</ele>
        <time>2020-07-02T18:30:28Z</time>
      </trkpt>
      <trkpt lat="47.86008" lon="1.8228">
        <ele>100.1</ele>
        <time>2020-07-02T18:30:29Z</time>
      </trkpt>
      <trkpt lat="47.86003" lon="1.82272">
        <ele>100.1</ele>
        <time>2020-07-02T18:30:30Z</time>
      </trkpt>
      <trkpt lat="47.85999" lon="1.82265">
        <ele>100</ele>
        <time>2020-07-02T18:30:31Z</time>
      </trkpt>
      <trkpt lat="47.85994" lon="1.82256">
        <ele>100</ele>
        <time>2020-07-02T18:30:32Z</time>
      </trkpt>
      <trkpt lat="47.8599" lon="1.82249">
        <ele>100</ele>
        <time>2020-07-02T18:30:33Z</time>
      </trkpt>
      <trkpt lat="47.85985" lon="1.82241">
        <ele>100</ele>
        <time>2020-07-02T18:30:34Z</time>
      </trkpt>
      <trkpt lat="47.8598" lon="1.82233">
        <ele>99.9</ele>
        <time>2020-07-02T18:30:35Z</time>
      </trkpt>
      <trkpt lat="47.85976" lon="1.82224">
        <ele>99.8</ele>
        <time>2020-07-02T18:30:36Z</time>
      </trkpt>
      <trkpt lat="47.85971" lon="1.82216">
        <ele>99.7</ele>
        <time>2020-07-02T18:30:37Z</time>
      </trkpt>
      <trkpt lat="47.85967" lon="1.82208">
        <ele>99.7</ele>
        <time>2020-07-02T18:30:38Z</time>
      </trkpt>
      <trkpt lat="47.85963" lon="1.82199">
        <ele>99.7</ele>
        <time>2020-07-02T18:30:39Z</time>
      </trkpt>
      <trkpt lat="47.85959" lon="1.82192">
        <ele>99.6</ele>
        <time>2020-07-02T18:30:40Z</time>
      </trkpt>
      <trkpt lat="47.85955" lon="1.82184">
        <ele>99.6</ele>
        <time>2020-07-02T18:30:41Z</time>
      </trkpt>
      <trkpt lat="47.85951" lon="1.82176">
        <ele>99.6</ele>
        <time>2020-07-02T18:30:42Z</time>
      </trkpt>
      <trkpt lat="47.85946" lon="1.82169">
        <ele>99.6</ele>
        <time>2020-07-02T18:30:43Z</time>
      </trkpt>
      <trkpt lat="47.85942" lon="1.82161">
        <ele>99.5</ele>
        <time>2020-07-02T18:30:44Z</time>
      </trkpt>
      <trkpt lat="47.85938" lon="1.82153">
        <ele>99.5</ele>
        <time>2020-07-02T18:30:45Z</time>
      </trkpt>
      <trkpt lat="47.85934" lon="1.82146">
        <ele>99.5</ele>
        <time>2020-07-02T18:30:46Z</time>
      </trkpt>
      <trkpt lat="47.8593" lon="1.82137">
        <ele>99.5</ele>
        <time>2020-07-02T18:30:47Z</time>
      </trkpt>
      <trkpt lat="47.85925" lon="1.82129">
        <ele>99.5</ele>
        <time>2020-07-02T18:30:48Z</time>
      </trkpt>
      <trkpt lat="47.85921" lon="1.82121">
        <ele>99.5</ele>
        <time>2020-07-02T18:30:49Z</time>
      </trkpt>
      <trkpt lat="47.85917" lon="1.82113">
        <ele>99.5</ele>
        <time>2020-07-02T18:30:50Z</time>
      </trkpt>
      <trkpt lat="47.85913" lon="1.82105">
        <ele>99.5</ele>
        <time>2020-07-02T18:30:51Z</time>
      </trkpt>
      <trkpt lat="47.8591" lon="1.82096">
        <ele>99.5</ele>
        <time>2020-07-02T18:30:52Z</time>
      </trkpt>
      <trkpt lat="47.85905" lon="1.82088">
        <ele>99.5</ele>
        <time>2020-07-02T18:30:53Z</time>
      </trkpt>
      <trkpt lat="47.85901" lon="1.8208">
        <ele>99.5</ele>
        <time>2020-07-02T18:30:54Z</time>
      </trkpt>
      <trkpt lat="47.85898" lon="1.82071">
        <ele>99.5</ele>
        <time>2020-07-02T18:30:55Z</time>
      </trkpt>
      <trkpt lat="47.85895" lon="1.82063">
        <ele>99.5</ele>
        <time>2020-07-02T18:30:56Z</time>
      </trkpt>
      <trkpt lat="47.8589" lon="1.82055">
        <ele>99.5</ele>
        <time>2020-07-02T18:30:57Z</time>
      </trkpt>
      <trkpt lat="47.85886" lon="1.82047">
        <ele>99.5</ele>
        <time>2020-07-02T18:30:58Z</time>
      </trkpt>
      <trkpt lat="47.85882" lon="1.8204">
        <ele>99.5</ele>
        <time>2020-07-02T18:30:59Z</time>
      </trkpt>
      <trkpt lat="47.85877" lon="1.82032">
        <ele>99.5</ele>
        <time>2020-07-02T18:31:00Z</time>
      </trkpt>
      <trkpt lat="47.85873" lon="1.82024">
        <ele>99.5</ele>
        <time>2020-07-02T18:31:01Z</time>
      </trkpt>
      <trkpt lat="47.85869" lon="1.82016">
        <ele>99.5</ele>
        <time>2020-07-02T18:31:02Z</time>
      </trkpt>
      <trkpt lat="47.85865" lon="1.82008">
        <ele>99.4</ele>
        <time>2020-07-02T18:31:03Z</time>
      </trkpt>
      <trkpt lat="47.85861" lon="1.82">
        <ele>99.4</ele>
        <time>2020-07-02T18:31:04Z</time>
      </trkpt>
      <trkpt lat="47.85857" lon="1.81991">
        <ele>99.4</ele>
        <time>2020-07-02T18:31:05Z</time>
      </trkpt>
      <trkpt lat="47.85853" lon="1.81983">
        <ele>99.4</ele>
        <time>2020-07-02T18:31:06Z</time>
      </trkpt>
      <trkpt lat="47.85849" lon="1.81976">
        <ele>99.4</ele>
        <time>2020-07-02T18:31:07Z</time>
      </trkpt>
      <trkpt lat="47.85844" lon="1.81967">
        <ele>99.3</ele>
        <time>2020-07-02T18:31:08Z</time>
      </trkpt>
      <trkpt lat="47.85839" lon="1.81957">
        <ele>99.3</ele>
        <time>2020-07-02T18:31:09Z</time>
      </trkpt>
      <trkpt lat="47.85835" lon="1.81947">
        <ele>99.2</ele>
        <time>2020-07-02T18:31:10Z</time>
      </trkpt>
      <trkpt lat="47.8583" lon="1.81937">
        <ele>99.3</ele>
        <time>2020-07-02T18:31:11Z</time>
      </trkpt>
      <trkpt lat="47.85825" lon="1.81927">
        <ele>99.3</ele>
        <time>2020-07-02T18:31:12Z</time>
      </trkpt>
      <trkpt lat="47.85821" lon="1.81919">
        <ele>99.4</ele>
        <time>2020-07-02T18:31:13Z</time>
      </trkpt>
      <trkpt lat="47.85817" lon="1.81912">
        <ele>99.4</ele>
        <time>2020-07-02T18:31:14Z</time>
      </trkpt>
      <trkpt lat="47.85812" lon="1.81903">
        <ele>99.4</ele>
        <time>2020-07-02T18:31:15Z</time>
      </trkpt>
      <trkpt lat="47.85807" lon="1.81894">
        <ele>99.4</ele>
        <time>2020-07-02T18:31:16Z</time>
      </trkpt>
      <trkpt lat="47.85802" lon="1.81885">
        <ele>99.3</ele>
        <time>2020-07-02T18:31:17Z</time>
      </trkpt>
      <trkpt lat="47.85798" lon="1.81877">
        <ele>99.3</ele>
        <time>2020-07-02T18:31:18Z</time>
      </trkpt>
      <trkpt lat="47.85794" lon="1.81868">
        <ele>99.3</ele>
        <time>2020-07-02T18:31:19Z</time>
      </trkpt>
      <trkpt lat="47.85789" lon="1.81859">
        <ele>99.3</ele>
        <time>2020-07-02T18:31:20Z</time>
      </trkpt>
      <trkpt lat="47.85785" lon="1.81851">
        <ele>99.3</ele>
        <time>2020-07-02T18:31:21Z</time>
      </trkpt>
      <trkpt lat="47.85781" lon="1.81843">
        <ele>99.3</ele>
        <time>2020-07-02T18:31:22Z</time>
      </trkpt>
      <trkpt lat="47.85776" lon="1.81835">
        <ele>99.3</ele>
        <time>2020-07-02T18:31:23Z</time>
      </trkpt>
      <trkpt lat="47.85772" lon="1.81826">
        <ele>99.3</ele>
        <time>2020-07-02T18:31:24Z</time>
      </trkpt>
      <trkpt lat="47.85768" lon="1.81818">
        <ele>99.3</ele>
        <time>2020-07-02T18:31:25Z</time>
      </trkpt>
      <trkpt lat="47.85764" lon="1.81809">
        <ele>99.3</ele>
        <time>2020-07-02T18:31:26Z</time>
      </trkpt>
      <trkpt lat="47.8576" lon="1.818">
        <ele>99.2</ele>
        <time>2020-07-02T18:31:27Z</time>
      </trkpt>
      <trkpt lat="47.85756" lon="1.81791">
        <ele>99</ele>
        <time>2020-07-02T18:31:28Z</time>
      </trkpt>
      <trkpt lat="47.85751" lon="1.81784">
        <ele>98.9</ele>
        <time>2020-07-02T18:31:29Z</time>
      </trkpt>
      <trkpt lat="47.85746" lon="1.81776">
        <ele>98.8</ele>
        <time>2020-07-02T18:31:30Z</time>
      </trkpt>
      <trkpt lat="47.85741" lon="1.81768">
        <ele>98.7</ele>
        <time>2020-07-02T18:31:31Z</time>
      </trkpt>
      <trkpt lat="47.85737" lon="1.8176">
        <ele>98.7</ele>
        <time>2020-07-02T18:31:32Z</time>
      </trkpt>
      <trkpt lat="47.85732" lon="1.81752">
        <ele>98.6</ele>
        <time>2020-07-02T18:31:33Z</time>
      </trkpt>
      <trkpt lat="47.85728" lon="1.81744">
        <ele>98.6</ele>
        <time>2020-07-02T18:31:34Z</time>
      </trkpt>
      <trkpt lat="47.85723" lon="1.81737">
        <ele>98.6</ele>
        <time>2020-07-02T18:31:35Z</time>
      </trkpt>
      <trkpt lat="47.8572" lon="1.81728">
        <ele>98.6</ele>
        <time>2020-07-02T18:31:36Z</time>
      </trkpt>
      <trkpt lat="47.85716" lon="1.8172">
        <ele>98.5</ele>
        <time>2020-07-02T18:31:37Z</time>
      </trkpt>
      <trkpt lat="47.85712" lon="1.81712">
        <ele>98.5</ele>
        <time>2020-07-02T18:31:38Z</time>
      </trkpt>
      <trkpt lat="47.85708" lon="1.81703">
        <ele>98.5</ele>
        <time>2020-07-02T18:31:39Z</time>
      </trkpt>
      <trkpt lat="47.85704" lon="1.81696">
        <ele>98.5</ele>
        <time>2020-07-02T18:31:40Z</time>
      </trkpt>
      <trkpt lat="47.857" lon="1.81687">
        <ele>98.4</ele>
        <time>2020-07-02T18:31:41Z</time>
      </trkpt>
      <trkpt lat="47.85696" lon="1.81679">
        <ele>98.4</ele>
        <time>2020-07-02T18:31:42Z</time>
      </trkpt>
      <trkpt lat="47.85692" lon="1.81671">
        <ele>98.4</ele>
        <time>2020-07-02T18:31:43Z</time>
      </trkpt>
      <trkpt lat="47.85688" lon="1.81662">
        <ele>98.4</ele>
        <time>2020-07-02T18:31:44Z</time>
      </trkpt>
      <trkpt lat="47.85684" lon="1.81654">
        <ele>98.4</ele>
        <time>2020-07-02T18:31:45Z</time>
      </trkpt>
      <trkpt lat="47.8568" lon="1.81645">
        <ele>98.4</ele>
        <time>2020-07-02T18:31:46Z</time>
      </trkpt>
      <trkpt lat="47.85675" lon="1.81637">
        <ele>98.4</ele>
        <time>2020-07-02T18:31:47Z</time>
      </trkpt>
      <trkpt lat="47.8567" lon="1.81628">
        <ele>98.4</ele>
        <time>2020-07-02T18:31:48Z</time>
      </trkpt>
      <trkpt lat="47.85666" lon="1.8162">
        <ele>98.4</ele>
        <time>2020-07-02T18:31:49Z</time>
      </trkpt>
      <trkpt lat="47.85661" lon="1.81611">
        <ele>98.4</ele>
        <time>2020-07-02T18:31:50Z</time>
      </trkpt>
      <trkpt lat="47.85657" lon="1.81602">
        <ele>98.4</ele>
        <time>2020-07-02T18:31:51Z</time>
      </trkpt>
      <trkpt lat="47.85652" lon="1.81593">
        <ele>98.4</ele>
        <time>2020-07-02T18:31:52Z</time>
      </trkpt>
      <trkpt lat="47.85647" lon="1.81584">
        <ele>98.4</ele>
        <time>2020-07-02T18:31:53Z</time>
      </trkpt>
      <trkpt lat="47.85643" lon="1.81575">
        <ele>98.4</ele>
        <time>2020-07-02T18:31:54Z</time>
      </trkpt>
      <trkpt lat="47.85638" lon="1.81567">
        <ele>98.4</ele>
        <time>2020-07-02T18:31:55Z</time>
      </trkpt>
      <trkpt lat="47.85634" lon="1.81557">
        <ele>98.4</ele>
        <time>2020-07-02T18:31:56Z</time>
      </trkpt>
      <trkpt lat="47.85629" lon="1.81549">
        <ele>98.4</ele>
        <time>2020-07-02T18:31:57Z</time>
      </trkpt>
      <trkpt lat="47.85625" lon="1.8154">
        <ele>98.4</ele>
        <time>2020-07-02T18:31:58Z</time>
      </trkpt>
      <trkpt lat="47.8562" lon="1.81531">
        <ele>98.4</ele>
        <time>2020-07-02T18:31:59Z</time>
      </trkpt>
      <trkpt lat="47.85616" lon="1.81523">
        <ele>98.4</ele>
        <time>2020-07-02T18:32:00Z</time>
      </trkpt>
      <trkpt lat="47.85612" lon="1.81513">
        <ele>98.3</ele>
        <time>2020-07-02T18:32:01Z</time>
      </trkpt>
      <trkpt lat="47.85608" lon="1.81504">
        <ele>98.3</ele>
        <time>2020-07-02T18:32:02Z</time>
      </trkpt>
      <trkpt lat="47.85604" lon="1.81495">
        <ele>98.3</ele>
        <time>2020-07-02T18:32:03Z</time>
      </trkpt>
      <trkpt lat="47.856" lon="1.81486">
        <ele>98.3</ele>
        <time>2020-07-02T18:32:04Z</time>
      </trkpt>
      <trkpt lat="47.85596" lon="1.81478">
        <ele>98.3</ele>
        <time>2020-07-02T18:32:05Z</time>
      </trkpt>
      <trkpt lat="47.85591" lon="1.81469">
        <ele>98.3</ele>
        <time>2020-07-02T18:32:06Z</time>
      </trkpt>
      <trkpt lat="47.85587" lon="1.8146">
        <ele>98.4</ele>
        <time>2020-07-02T18:32:07Z</time>
      </trkpt>
      <trkpt lat="47.85582" lon="1.81452">
        <ele>98.4</ele>
        <time>2020-07-02T18:32:08Z</time>
      </trkpt>
      <trkpt lat="47.85578" lon="1.81444">
        <ele>98.4</ele>
        <time>2020-07-02T18:32:09Z</time>
      </trkpt>
      <trkpt lat="47.85573" lon="1.81437">
        <ele>98.3</ele>
        <time>2020-07-02T18:32:10Z</time>
      </trkpt>
      <trkpt lat="47.85568" lon="1.8143">
        <ele>98.3</ele>
        <time>2020-07-02T18:32:11Z</time>
      </trkpt>
      <trkpt lat="47.85564" lon="1.81422">
        <ele>98.4</ele>
        <time>2020-07-02T18:32:12Z</time>
      </trkpt>
      <trkpt lat="47.85559" lon="1.81415">
        <ele>98.4</ele>
        <time>2020-07-02T18:32:13Z</time>
      </trkpt>
      <trkpt lat="47.85555" lon="1.81407">
        <ele>98.4</ele>
        <time>2020-07-02T18:32:14Z</time>
      </trkpt>
      <trkpt lat="47.85551" lon="1.81399">
        <ele>98.5</ele>
        <time>2020-07-02T18:32:15Z</time>
      </trkpt>
      <trkpt lat="47.85547" lon="1.81391">
        <ele>98.5</ele>
        <time>2020-07-02T18:32:16Z</time>
      </trkpt>
      <trkpt lat="47.85542" lon="1.81382">
        <ele>98.6</ele>
        <time>2020-07-02T18:32:17Z</time>
      </trkpt>
      <trkpt lat="47.85538" lon="1.81374">
        <ele>98.6</ele>
        <time>2020-07-02T18:32:18Z</time>
      </trkpt>
      <trkpt lat="47.85534" lon="1.81366">
        <ele>98.6</ele>
        <time>2020-07-02T18:32:19Z</time>
      </trkpt>
      <trkpt lat="47.8553" lon="1.81357">
        <ele>98.6</ele>
        <time>2020-07-02T18:32:20Z</time>
      </trkpt>
      <trkpt lat="47.85526" lon="1.81348">
        <ele>98.6</ele>
        <time>2020-07-02T18:32:21Z</time>
      </trkpt>
      <trkpt lat="47.85522" lon="1.81339">
        <ele>98.6</ele>
        <time>2020-07-02T18:32:22Z</time>
      </trkpt>
      <trkpt lat="47.85518" lon="1.81331">
        <ele>98.7</ele>
        <time>2020-07-02T18:32:23Z</time>
      </trkpt>
      <trkpt lat="47.85513" lon="1.81323">
        <ele>98.7</ele>
        <time>2020-07-02T18:32:24Z</time>
      </trkpt>
      <trkpt lat="47.85509" lon="1.81315">
        <ele>98.7</ele>
        <time>2020-07-02T18:32:25Z</time>
      </trkpt>
      <trkpt lat="47.85505" lon="1.81307">
        <ele>98.7</ele>
        <time>2020-07-02T18:32:26Z</time>
      </trkpt>
      <trkpt lat="47.85501" lon="1.81298">
        <ele>98.7</ele>
        <time>2020-07-02T18:32:27Z</time>
      </trkpt>
      <trkpt lat="47.85498" lon="1.8129">
        <ele>98.7</ele>
        <time>2020-07-02T18:32:28Z</time>
      </trkpt>
      <trkpt lat="47.85493" lon="1.81282">
        <ele>98.7</ele>
        <time>2020-07-02T18:32:29Z</time>
      </trkpt>
      <trkpt lat="47.85489" lon="1.81274">
        <ele>98.7</ele>
        <time>2020-07-02T18:32:30Z</time>
      </trkpt>
      <trkpt lat="47.85485" lon="1.81265">
        <ele>98.7</ele>
        <time>2020-07-02T18:32:31Z</time>
      </trkpt>
      <trkpt lat="47.85481" lon="1.81257">
        <ele>98.7</ele>
        <time>2020-07-02T18:32:32Z</time>
      </trkpt>
      <trkpt lat="47.85477" lon="1.81249">
        <ele>98.8</ele>
        <time>2020-07-02T18:32:33Z</time>
      </trkpt>
      <trkpt lat="47.85473" lon="1.81241">
        <ele>98.8</ele>
        <time>2020-07-02T18:32:34Z</time>
      </trkpt>
      <trkpt lat="47.85469" lon="1.81234">
        <ele>98.9</ele>
        <time>2020-07-02T18:32:35Z</time>
      </trkpt>
      <trkpt lat="47.85464" lon="1.81225">
        <ele>98.9</ele>
        <time>2020-07-02T18:32:36Z</time>
      </trkpt>
      <trkpt lat="47.8546" lon="1.81217">
        <ele>98.9</ele>
        <time>2020-07-02T18:32:37Z</time>
      </trkpt>
      <trkpt lat="47.85455" lon="1.81209">
        <ele>99</ele>
        <time>2020-07-02T18:32:38Z</time>
      </trkpt>
      <trkpt lat="47.85452" lon="1.81201">
        <ele>99</ele>
        <time>2020-07-02T18:32:39Z</time>
      </trkpt>
      <trkpt lat="47.85447" lon="1.81193">
        <ele>99</ele>
        <time>2020-07-02T18:32:40Z</time>
      </trkpt>
      <trkpt lat="47.85443" lon="1.81185">
        <ele>99</ele>
        <time>2020-07-02T18:32:41Z</time>
      </trkpt>
      <trkpt lat="47.85438" lon="1.81177">
        <ele>99</ele>
        <time>2020-07-02T18:32:42Z</time>
      </trkpt>
      <trkpt lat="47.85435" lon="1.8117">
        <ele>99</ele>
        <time>2020-07-02T18:32:43Z</time>
      </trkpt>
      <trkpt lat="47.85431" lon="1.81162">
        <ele>99.1</ele>
        <time>2020-07-02T18:32:44Z</time>
      </trkpt>
      <trkpt lat="47.85427" lon="1.81153">
        <ele>99.1</ele>
        <time>2020-07-02T18:32:45Z</time>
      </trkpt>
      <trkpt lat="47.85422" lon="1.81145">
        <ele>99.1</ele>
        <time>2020-07-02T18:32:46Z</time>
      </trkpt>
      <trkpt lat="47.85418" lon="1.81136">
        <ele>99.1</ele>
        <time>2020-07-02T18:32:47Z</time>
      </trkpt>
      <trkpt lat="47.85413" lon="1.81127">
        <ele>99.1</ele>
        <time>2020-07-02T18:32:48Z</time>
      </trkpt>
      <trkpt lat="47.85409" lon="1.81118">
        <ele>99.1</ele>
        <time>2020-07-02T18:32:49Z</time>
      </trkpt>
      <trkpt lat="47.85405" lon="1.81109">
        <ele>99.2</ele>
        <time>2020-07-02T18:32:50Z</time>
      </trkpt>
      <trkpt lat="47.85401" lon="1.81101">
        <ele>99.2</ele>
        <time>2020-07-02T18:32:51Z</time>
      </trkpt>
      <trkpt lat="47.85397" lon="1.81093">
        <ele>99.3</ele>
        <time>2020-07-02T18:32:52Z</time>
      </trkpt>
      <trkpt lat="47.85393" lon="1.81085">
        <ele>99.3</ele>
        <time>2020-07-02T18:32:53Z</time>
      </trkpt>
      <trkpt lat="47.85388" lon="1.81077">
        <ele>99.4</ele>
        <time>2020-07-02T18:32:54Z</time>
      </trkpt>
      <trkpt lat="47.85383" lon="1.81068">
        <ele>99.4</ele>
        <time>2020-07-02T18:32:55Z</time>
      </trkpt>
      <trkpt lat="47.85378" lon="1.8106">
        <ele>99.4</ele>
        <time>2020-07-02T18:32:56Z</time>
      </trkpt>
      <trkpt lat="47.85374" lon="1.81051">
        <ele>99.3</ele>
        <time>2020-07-02T18:32:57Z</time>
      </trkpt>
      <trkpt lat="47.8537" lon="1.81043">
        <ele>99</ele>
        <time>2020-07-02T18:32:58Z</time>
      </trkpt>
      <trkpt lat="47.85365" lon="1.81034">
        <ele>99</ele>
        <time>2020-07-02T18:32:59Z</time>
      </trkpt>
      <trkpt lat="47.85361" lon="1.81026">
        <ele>98.9</ele>
        <time>2020-07-02T18:33:00Z</time>
      </trkpt>
      <trkpt lat="47.85357" lon="1.81018">
        <ele>98.9</ele>
        <time>2020-07-02T18:33:01Z</time>
      </trkpt>
      <trkpt lat="47.85353" lon="1.81009">
        <ele>98.9</ele>
        <time>2020-07-02T18:33:02Z</time>
      </trkpt>
      <trkpt lat="47.85349" lon="1.81001">
        <ele>98.8</ele>
        <time>2020-07-02T18:33:03Z</time>
      </trkpt>
      <trkpt lat="47.85345" lon="1.80993">
        <ele>98.8</ele>
        <time>2020-07-02T18:33:04Z</time>
      </trkpt>
      <trkpt lat="47.8534" lon="1.80984">
        <ele>98.8</ele>
        <time>2020-07-02T18:33:05Z</time>
      </trkpt>
      <trkpt lat="47.85336" lon="1.80976">
        <ele>98.8</ele>
        <time>2020-07-02T18:33:06Z</time>
      </trkpt>
      <trkpt lat="47.85332" lon="1.80968">
        <ele>98.8</ele>
        <time>2020-07-02T18:33:07Z</time>
      </trkpt>
      <trkpt lat="47.85328" lon="1.8096">
        <ele>98.8</ele>
        <time>2020-07-02T18:33:08Z</time>
      </trkpt>
      <trkpt lat="47.85324" lon="1.80952">
        <ele>98.9</ele>
        <time>2020-07-02T18:33:09Z</time>
      </trkpt>
      <trkpt lat="47.8532" lon="1.80944">
        <ele>98.9</ele>
        <time>2020-07-02T18:33:10Z</time>
      </trkpt>
      <trkpt lat="47.85315" lon="1.80937">
        <ele>98.9</ele>
        <time>2020-07-02T18:33:11Z</time>
      </trkpt>
      <trkpt lat="47.85311" lon="1.80929">
        <ele>99</ele>
        <time>2020-07-02T18:33:12Z</time>
      </trkpt>
      <trkpt lat="47.85307" lon="1.8092">
        <ele>99</ele>
        <time>2020-07-02T18:33:13Z</time>
      </trkpt>
      <trkpt lat="47.85303" lon="1.80912">
        <ele>99.2</ele>
        <time>2020-07-02T18:33:14Z</time>
      </trkpt>
      <trkpt lat="47.85298" lon="1.80904">
        <ele>99.3</ele>
        <time>2020-07-02T18:33:15Z</time>
      </trkpt>
      <trkpt lat="47.85294" lon="1.80895">
        <ele>99.3</ele>
        <time>2020-07-02T18:33:16Z</time>
      </trkpt>
      <trkpt lat="47.8529" lon="1.80887">
        <ele>99.3</ele>
        <time>2020-07-02T18:33:17Z</time>
      </trkpt>
      <trkpt lat="47.85285" lon="1.8088">
        <ele>99.3</ele>
        <time>2020-07-02T18:33:18Z</time>
      </trkpt>
      <trkpt lat="47.85281" lon="1.80872">
        <ele>99.3</ele>
        <time>2020-07-02T18:33:19Z</time>
      </trkpt>
      <trkpt lat="47.85276" lon="1.80865">
        <ele>99.3</ele>
        <time>2020-07-02T18:33:20Z</time>
      </trkpt>
      <trkpt lat="47.85272" lon="1.80857">
        <ele>99.3</ele>
        <time>2020-07-02T18:33:21Z</time>
      </trkpt>
      <trkpt lat="47.85268" lon="1.80849">
        <ele>99.3</ele>
        <time>2020-07-02T18:33:22Z</time>
      </trkpt>
      <trkpt lat="47.85264" lon="1.80842">
        <ele>99.3</ele>
        <time>2020-07-02T18:33:23Z</time>
      </trkpt>
      <trkpt lat="47.8526" lon="1.80833">
        <ele>99.3</ele>
        <time>2020-07-02T18:33:24Z</time>
      </trkpt>
      <trkpt lat="47.85256" lon="1.80825">
        <ele>99.3</ele>
        <time>2020-07-02T18:33:25Z</time>
      </trkpt>
      <trkpt lat="47.85253" lon="1.80816">
        <ele>99.3</ele>
        <time>2020-07-02T18:33:26Z</time>
      </trkpt>
      <trkpt lat="47.85249" lon="1.80808">
        <ele>99.3</ele>
        <time>2020-07-02T18:33:27Z</time>
      </trkpt>
      <trkpt lat="47.85244" lon="1.80801">
        <ele>99.3</ele>
        <time>2020-07-02T18:33:28Z</time>
      </trkpt>
      <trkpt lat="47.8524" lon="1.80792">
        <ele>99.3</ele>
        <time>2020-07-02T18:33:29Z</time>
      </trkpt>
      <trkpt lat="47.85236" lon="1.80784">
        <ele>99.3</ele>
        <time>2020-07-02T18:33:30Z</time>
      </trkpt>
      <trkpt lat="47.85232" lon="1.80776">
        <ele>99.3</ele>
        <time>2020-07-02T18:33:31Z</time>
      </trkpt>
      <trkpt lat="47.85228" lon="1.80767">
        <ele>99.3</ele>
        <time>2020-07-02T18:33:32Z</time>
      </trkpt>
      <trkpt lat="47.85224" lon="1.80759">
        <ele>99.3</ele>
        <time>2020-07-02T18:33:33Z</time>
      </trkpt>
      <trkpt lat="47.8522" lon="1.80751">
        <ele>99.3</ele>
        <time>2020-07-02T18:33:34Z</time>
      </trkpt>
      <trkpt lat="47.85216" lon="1.80743">
        <ele>99.4</ele>
        <time>2020-07-02T18:33:35Z</time>
      </trkpt>
      <trkpt lat="47.85211" lon="1.80735">
        <ele>99.4</ele>
        <time>2020-07-02T18:33:36Z</time>
      </trkpt>
      <trkpt lat="47.85207" lon="1.80728">
        <ele>99.4</ele>
        <time>2020-07-02T18:33:37Z</time>
      </trkpt>
      <trkpt lat="47.85203" lon="1.8072">
        <ele>99.4</ele>
        <time>2020-07-02T18:33:38Z</time>
      </trkpt>
      <trkpt lat="47.852" lon="1.80712">
        <ele>99.4</ele>
        <time>2020-07-02T18:33:39Z</time>
      </trkpt>
      <trkpt lat="47.85196" lon="1.80704">
        <ele>99.4</ele>
        <time>2020-07-02T18:33:40Z</time>
      </trkpt>
      <trkpt lat="47.85191" lon="1.80696">
        <ele>99.4</ele>
        <time>2020-07-02T18:33:41Z</time>
      </trkpt>
      <trkpt lat="47.85187" lon="1.80689">
        <ele>99.4</ele>
        <time>2020-07-02T18:33:42Z</time>
      </trkpt>
      <trkpt lat="47.85182" lon="1.80681">
        <ele>99.4</ele>
        <time>2020-07-02T18:33:43Z</time>
      </trkpt>
      <trkpt lat="47.85177" lon="1.80674">
        <ele>99.5</ele>
        <time>2020-07-02T18:33:44Z</time>
      </trkpt>
      <trkpt lat="47.85173" lon="1.80667">
        <ele>99.5</ele>
        <time>2020-07-02T18:33:45Z</time>
      </trkpt>
      <trkpt lat="47.85168" lon="1.80659">
        <ele>99.4</ele>
        <time>2020-07-02T18:33:46Z</time>
      </trkpt>
      <trkpt lat="47.85163" lon="1.80652">
        <ele>99.4</ele>
        <time>2020-07-02T18:33:47Z</time>
      </trkpt>
      <trkpt lat="47.85158" lon="1.80647">
        <ele>99.4</ele>
        <time>2020-07-02T18:33:48Z</time>
      </trkpt>
      <trkpt lat="47.85153" lon="1.80642">
        <ele>99.3</ele>
        <time>2020-07-02T18:33:49Z</time>
      </trkpt>
      <trkpt lat="47.85148" lon="1.80636">
        <ele>99.3</ele>
        <time>2020-07-02T18:33:50Z</time>
      </trkpt>
      <trkpt lat="47.85144" lon="1.8063">
        <ele>99.3</ele>
        <time>2020-07-02T18:33:51Z</time>
      </trkpt>
      <trkpt lat="47.85139" lon="1.80623">
        <ele>99.3</ele>
        <time>2020-07-02T18:33:52Z</time>
      </trkpt>
      <trkpt lat="47.85135" lon="1.80617">
        <ele>99.2</ele>
        <time>2020-07-02T18:33:53Z</time>
      </trkpt>
      <trkpt lat="47.8513" lon="1.8061">
        <ele>99.2</ele>
        <time>2020-07-02T18:33:54Z</time>
      </trkpt>
      <trkpt lat="47.85125" lon="1.80604">
        <ele>99.2</ele>
        <time>2020-07-02T18:33:55Z</time>
      </trkpt>
      <trkpt lat="47.8512" lon="1.80597">
        <ele>99.2</ele>
        <time>2020-07-02T18:33:56Z</time>
      </trkpt>
      <trkpt lat="47.85116" lon="1.8059">
        <ele>99.2</ele>
        <time>2020-07-02T18:33:57Z</time>
      </trkpt>
      <trkpt lat="47.8511" lon="1.80584">
        <ele>99.2</ele>
        <time>2020-07-02T18:33:58Z</time>
      </trkpt>
      <trkpt lat="47.85105" lon="1.80577">
        <ele>99.2</ele>
        <time>2020-07-02T18:33:59Z</time>
      </trkpt>
      <trkpt lat="47.851" lon="1.80571">
        <ele>99.2</ele>
        <time>2020-07-02T18:34:00Z</time>
      </trkpt>
      <trkpt lat="47.85096" lon="1.80563">
        <ele>99.2</ele>
        <time>2020-07-02T18:34:01Z</time>
      </trkpt>
      <trkpt lat="47.85091" lon="1.80556">
        <ele>99.2</ele>
        <time>2020-07-02T18:34:02Z</time>
      </trkpt>
      <trkpt lat="47.85086" lon="1.80549">
        <ele>99.2</ele>
        <time>2020-07-02T18:34:03Z</time>
      </trkpt>
      <trkpt lat="47.85081" lon="1.80543">
        <ele>99.2</ele>
        <time>2020-07-02T18:34:04Z</time>
      </trkpt>
      <trkpt lat="47.85076" lon="1.80536">
        <ele>99.2</ele>
        <time>2020-07-02T18:34:05Z</time>
      </trkpt>
      <trkpt lat="47.8507" lon="1.80529">
        <ele>99.2</ele>
        <time>2020-07-02T18:34:06Z</time>
      </trkpt>
      <trkpt lat="47.85065" lon="1.80522">
        <ele>99.3</ele>
        <time>2020-07-02T18:34:07Z</time>
      </trkpt>
      <trkpt lat="47.8506" lon="1.80515">
        <ele>99.3</ele>
        <time>2020-07-02T18:34:08Z</time>
      </trkpt>
      <trkpt lat="47.85055" lon="1.80508">
        <ele>99.3</ele>
        <time>2020-07-02T18:34:09Z</time>
      </trkpt>
      <trkpt lat="47.8505" lon="1.80502">
        <ele>99.3</ele>
        <time>2020-07-02T18:34:10Z</time>
      </trkpt>
      <trkpt lat="47.85045" lon="1.80495">
        <ele>99.3</ele>
        <time>2020-07-02T18:34:11Z</time>
      </trkpt>
      <trkpt lat="47.8504" lon="1.80489">
        <ele>99.3</ele>
        <time>2020-07-02T18:34:12Z</time>
      </trkpt>
      <trkpt lat="47.85035" lon="1.80483">
        <ele>99.3</ele>
        <time>2020-07-02T18:34:13Z</time>
      </trkpt>
      <trkpt lat="47.8503" lon="1.80476">
        <ele>99.3</ele>
        <time>2020-07-02T18:34:14Z</time>
      </trkpt>
      <trkpt lat="47.85025" lon="1.8047">
        <ele>99.4</ele>
        <time>2020-07-02T18:34:15Z</time>
      </trkpt>
      <trkpt lat="47.8502" lon="1.80464">
        <ele>99.4</ele>
        <time>2020-07-02T18:34:16Z</time>
      </trkpt>
      <trkpt lat="47.85015" lon="1.80457">
        <ele>99.5</ele>
        <time>2020-07-02T18:34:17Z</time>
      </trkpt>
      <trkpt lat="47.8501" lon="1.8045">
        <ele>99.6</ele>
        <time>2020-07-02T18:34:18Z</time>
      </trkpt>
      <trkpt lat="47.85005" lon="1.80444">
        <ele>99.6</ele>
        <time>2020-07-02T18:34:19Z</time>
      </trkpt>
      <trkpt lat="47.85" lon="1.80437">
        <ele>99.6</ele>
        <time>2020-07-02T18:34:20Z</time>
      </trkpt>
      <trkpt lat="47.84996" lon="1.8043">
        <ele>99.5</ele>
        <time>2020-07-02T18:34:21Z</time>
      </trkpt>
      <trkpt lat="47.8499" lon="1.80424">
        <ele>99.4</ele>
        <time>2020-07-02T18:34:22Z</time>
      </trkpt>
      <trkpt lat="47.84985" lon="1.80417">
        <ele>99.3</ele>
        <time>2020-07-02T18:34:23Z</time>
      </trkpt>
      <trkpt lat="47.8498" lon="1.8041">
        <ele>99.2</ele>
        <time>2020-07-02T18:34:24Z</time>
      </trkpt>
      <trkpt lat="47.84975" lon="1.80403">
        <ele>99.2</ele>
        <time>2020-07-02T18:34:25Z</time>
      </trkpt>
      <trkpt lat="47.8497" lon="1.80395">
        <ele>99.1</ele>
        <time>2020-07-02T18:34:26Z</time>
      </trkpt>
      <trkpt lat="47.84966" lon="1.80389">
        <ele>99.1</ele>
        <time>2020-07-02T18:34:27Z</time>
      </trkpt>
      <trkpt lat="47.84961" lon="1.80382">
        <ele>99</ele>
        <time>2020-07-02T18:34:28Z</time>
      </trkpt>
      <trkpt lat="47.84956" lon="1.80376">
        <ele>99</ele>
        <time>2020-07-02T18:34:29Z</time>
      </trkpt>
      <trkpt lat="47.84951" lon="1.80369">
        <ele>98.9</ele>
        <time>2020-07-02T18:34:30Z</time>
      </trkpt>
      <trkpt lat="47.84946" lon="1.80362">
        <ele>98.9</ele>
        <time>2020-07-02T18:34:31Z</time>
      </trkpt>
      <trkpt lat="47.84941" lon="1.80355">
        <ele>98.9</ele>
        <time>2020-07-02T18:34:32Z</time>
      </trkpt>
      <trkpt lat="47.84936" lon="1.80348">
        <ele>98.9</ele>
        <time>2020-07-02T18:34:33Z</time>
      </trkpt>
      <trkpt lat="47.84931" lon="1.80341">
        <ele>98.9</ele>
        <time>2020-07-02T18:34:34Z</time>
      </trkpt>
      <trkpt lat="47.84926" lon="1.80335">
        <ele>98.9</ele>
        <time>2020-07-02T18:34:35Z</time>
      </trkpt>
      <trkpt lat="47.8492" lon="1.80329">
        <ele>98.9</ele>
        <time>2020-07-02T18:34:36Z</time>
      </trkpt>
      <trkpt lat="47.84915" lon="1.80322">
        <ele>98.9</ele>
        <time>2020-07-02T18:34:37Z</time>
      </trkpt>
      <trkpt lat="47.8491" lon="1.80315">
        <ele>98.9</ele>
        <time>2020-07-02T18:34:38Z</time>
      </trkpt>
      <trkpt lat="47.84905" lon="1.80309">
        <ele>98.9</ele>
        <time>2020-07-02T18:34:39Z</time>
      </trkpt>
      <trkpt lat="47.84899" lon="1.80302">
        <ele>98.9</ele>
        <time>2020-07-02T18:34:40Z</time>
      </trkpt>
      <trkpt lat="47.84894" lon="1.80296">
        <ele>98.8</ele>
        <time>2020-07-02T18:34:41Z</time>
      </trkpt>
      <trkpt lat="47.84889" lon="1.80289">
        <ele>98.8</ele>
        <time>2020-07-02T18:34:42Z</time>
      </trkpt>
      <trkpt lat="47.84884" lon="1.80282">
        <ele>98.8</ele>
        <time>2020-07-02T18:34:43Z</time>
      </trkpt>
      <trkpt lat="47.84879" lon="1.80275">
        <ele>98.8</ele>
        <time>2020-07-02T18:34:44Z</time>
      </trkpt>
      <trkpt lat="47.84874" lon="1.80268">
        <ele>98.8</ele>
        <time>2020-07-02T18:34:45Z</time>
      </trkpt>
      <trkpt lat="47.84869" lon="1.80261">
        <ele>98.8</ele>
        <time>2020-07-02T18:34:46Z</time>
      </trkpt>
      <trkpt lat="47.84864" lon="1.80255">
        <ele>98.8</ele>
        <time>2020-07-02T18:34:47Z</time>
      </trkpt>
      <trkpt lat="47.84859" lon="1.80248">
        <ele>98.9</ele>
        <time>2020-07-02T18:34:48Z</time>
      </trkpt>
      <trkpt lat="47.84854" lon="1.80241">
        <ele>98.9</ele>
        <time>2020-07-02T18:34:49Z</time>
      </trkpt>
      <trkpt lat="47.84849" lon="1.80234">
        <ele>98.9</ele>
        <time>2020-07-02T18:34:50Z</time>
      </trkpt>
      <trkpt lat="47.84844" lon="1.80227">
        <ele>98.9</ele>
        <time>2020-07-02T18:34:51Z</time>
      </trkpt>
      <trkpt lat="47.84838" lon="1.80221">
        <ele>99</ele>
        <time>2020-07-02T18:34:52Z</time>
      </trkpt>
      <trkpt lat="47.84834" lon="1.80213">
        <ele>99</ele>
        <time>2020-07-02T18:34:53Z</time>
      </trkpt>
      <trkpt lat="47.84829" lon="1.80206">
        <ele>99.1</ele>
        <time>2020-07-02T18:34:54Z</time>
      </trkpt>
      <trkpt lat="47.84824" lon="1.802">
        <ele>99.1</ele>
        <time>2020-07-02T18:34:55Z</time>
      </trkpt>
      <trkpt lat="47.84819" lon="1.80193">
        <ele>99.2</ele>
        <time>2020-07-02T18:34:56Z</time>
      </trkpt>
      <trkpt lat="47.84814" lon="1.80186">
        <ele>99.2</ele>
        <time>2020-07-02T18:34:57Z</time>
      </trkpt>
      <trkpt lat="47.84809" lon="1.8018">
        <ele>99.3</ele>
        <time>2020-07-02T18:34:58Z</time>
      </trkpt>
      <trkpt lat="47.84804" lon="1.80174">
        <ele>99.3</ele>
        <time>2020-07-02T18:34:59Z</time>
      </trkpt>
      <trkpt lat="47.84799" lon="1.80167">
        <ele>99.4</ele>
        <time>2020-07-02T18:35:00Z</time>
      </trkpt>
      <trkpt lat="47.84794" lon="1.8016">
        <ele>99.4</ele>
        <time>2020-07-02T18:35:01Z</time>
      </trkpt>
      <trkpt lat="47.84789" lon="1.80154">
        <ele>99.4</ele>
        <time>2020-07-02T18:35:02Z</time>
      </trkpt>
      <trkpt lat="47.84784" lon="1.80147">
        <ele>99.5</ele>
        <time>2020-07-02T18:35:03Z</time>
      </trkpt>
      <trkpt lat="47.84779" lon="1.8014">
        <ele>99.6</ele>
        <time>2020-07-02T18:35:04Z</time>
      </trkpt>
      <trkpt lat="47.84775" lon="1.80133">
        <ele>99.6</ele>
        <time>2020-07-02T18:35:05Z</time>
      </trkpt>
      <trkpt lat="47.84769" lon="1.80128">
        <ele>99.6</ele>
        <time>2020-07-02T18:35:06Z</time>
      </trkpt>
      <trkpt lat="47.84765" lon="1.8012">
        <ele>99.6</ele>
        <time>2020-07-02T18:35:07Z</time>
      </trkpt>
      <trkpt lat="47.8476" lon="1.80113">
        <ele>99.6</ele>
        <time>2020-07-02T18:35:08Z</time>
      </trkpt>
      <trkpt lat="47.84754" lon="1.80107">
        <ele>99.6</ele>
        <time>2020-07-02T18:35:09Z</time>
      </trkpt>
      <trkpt lat="47.84749" lon="1.801">
        <ele>99.6</ele>
        <time>2020-07-02T18:35:10Z</time>
      </trkpt>
      <trkpt lat="47.84744" lon="1.80093">
        <ele>99.6</ele>
        <time>2020-07-02T18:35:11Z</time>
      </trkpt>
      <trkpt lat="47.84738" lon="1.80086">
        <ele>99.5</ele>
        <time>2020-07-02T18:35:12Z</time>
      </trkpt>
      <trkpt lat="47.84733" lon="1.8008">
        <ele>99.6</ele>
        <time>2020-07-02T18:35:13Z</time>
      </trkpt>
      <trkpt lat="47.84728" lon="1.80073">
        <ele>99.6</ele>
        <time>2020-07-02T18:35:14Z</time>
      </trkpt>
      <trkpt lat="47.84723" lon="1.80066">
        <ele>99.6</ele>
        <time>2020-07-02T18:35:15Z</time>
      </trkpt>
      <trkpt lat="47.84718" lon="1.80059">
        <ele>99.7</ele>
        <time>2020-07-02T18:35:16Z</time>
      </trkpt>
      <trkpt lat="47.84714" lon="1.80052">
        <ele>99.8</ele>
        <time>2020-07-02T18:35:17Z</time>
      </trkpt>
      <trkpt lat="47.84709" lon="1.80045">
        <ele>99.8</ele>
        <time>2020-07-02T18:35:18Z</time>
      </trkpt>
      <trkpt lat="47.84704" lon="1.80038">
        <ele>99.9</ele>
        <time>2020-07-02T18:35:19Z</time>
      </trkpt>
      <trkpt lat="47.84699" lon="1.80032">
        <ele>100</ele>
        <time>2020-07-02T18:35:20Z</time>
      </trkpt>
      <trkpt lat="47.84694" lon="1.80025">
        <ele>100.1</ele>
        <time>2020-07-02T18:35:21Z</time>
      </trkpt>
      <trkpt lat="47.84689" lon="1.80019">
        <ele>100.2</ele>
        <time>2020-07-02T18:35:22Z</time>
      </trkpt>
      <trkpt lat="47.84684" lon="1.80012">
        <ele>100.3</ele>
        <time>2020-07-02T18:35:23Z</time>
      </trkpt>
      <trkpt lat="47.84679" lon="1.80006">
        <ele>100.4</ele>
        <time>2020-07-02T18:35:24Z</time>
      </trkpt>
      <trkpt lat="47.84675" lon="1.80001">
        <ele>100.5</ele>
        <time>2020-07-02T18:35:25Z</time>
      </trkpt>
      <trkpt lat="47.84671" lon="1.79995">
        <ele>100.6</ele>
        <time>2020-07-02T18:35:26Z</time>
      </trkpt>
      <trkpt lat="47.84667" lon="1.7999">
        <ele>100.6</ele>
        <time>2020-07-02T18:35:27Z</time>
      </trkpt>
      <trkpt lat="47.84662" lon="1.79985">
        <ele>100.6</ele>
        <time>2020-07-02T18:35:28Z</time>
      </trkpt>
      <trkpt lat="47.84658" lon="1.79981">
        <ele>100.7</ele>
        <time>2020-07-02T18:35:29Z</time>
      </trkpt>
      <trkpt lat="47.84655" lon="1.79976">
        <ele>100.7</ele>
        <time>2020-07-02T18:35:30Z</time>
      </trkpt>
      <trkpt lat="47.84651" lon="1.79971">
        <ele>100.7</ele>
        <time>2020-07-02T18:35:31Z</time>
      </trkpt>
      <trkpt lat="47.84647" lon="1.79966">
        <ele>100.7</ele>
        <time>2020-07-02T18:35:32Z</time>
      </trkpt>
      <trkpt lat="47.84644" lon="1.7996">
        <ele>100.6</ele>
        <time>2020-07-02T18:35:33Z</time>
      </trkpt>
      <trkpt lat="47.8464" lon="1.79954">
        <ele>100.6</ele>
        <time>2020-07-02T18:35:34Z</time>
      </trkpt>
      <trkpt lat="47.84636" lon="1.79948">
        <ele>100.5</ele>
        <time>2020-07-02T18:35:35Z</time>
      </trkpt>
      <trkpt lat="47.84632" lon="1.79941">
        <ele>100.5</ele>
        <time>2020-07-02T18:35:36Z</time>
      </trkpt>
      <trkpt lat="47.84627" lon="1.79935">
        <ele>100.4</ele>
        <time>2020-07-02T18:35:37Z</time>
      </trkpt>
      <trkpt lat="47.84623" lon="1.79929">
        <ele>100.4</ele>
        <time>2020-07-02T18:35:38Z</time>
      </trkpt>
      <trkpt lat="47.84618" lon="1.79922">
        <ele>100.3</ele>
        <time>2020-07-02T18:35:39Z</time>
      </trkpt>
      <trkpt lat="47.84614" lon="1.79915">
        <ele>100.2</ele>
        <time>2020-07-02T18:35:40Z</time>
      </trkpt>
      <trkpt lat="47.84609" lon="1.79908">
        <ele>100.1</ele>
        <time>2020-07-02T18:35:41Z</time>
      </trkpt>
      <trkpt lat="47.84605" lon="1.79902">
        <ele>100.1</ele>
        <time>2020-07-02T18:35:42Z</time>
      </trkpt>
      <trkpt lat="47.846" lon="1.79896">
        <ele>100.1</ele>
        <time>2020-07-02T18:35:43Z</time>
      </trkpt>
      <trkpt lat="47.84595" lon="1.7989">
        <ele>100.1</ele>
        <time>2020-07-02T18:35:44Z</time>
      </trkpt>
      <trkpt lat="47.8459" lon="1.79884">
        <ele>100.1</ele>
        <time>2020-07-02T18:35:45Z</time>
      </trkpt>
      <trkpt lat="47.84585" lon="1.79878">
        <ele>100.1</ele>
        <time>2020-07-02T18:35:46Z</time>
      </trkpt>
      <trkpt lat="47.84581" lon="1.79871">
        <ele>100.1</ele>
        <time>2020-07-02T18:35:47Z</time>
      </trkpt>
      <trkpt lat="47.84576" lon="1.79864">
        <ele>100.1</ele>
        <time>2020-07-02T18:35:48Z</time>
      </trkpt>
      <trkpt lat="47.84571" lon="1.79857">
        <ele>100.1</ele>
        <time>2020-07-02T18:35:49Z</time>
      </trkpt>
      <trkpt lat="47.84567" lon="1.7985">
        <ele>100.1</ele>
        <time>2020-07-02T18:35:50Z</time>
      </trkpt>
      <trkpt lat="47.84563" lon="1.79843">
        <ele>100.1</ele>
        <time>2020-07-02T18:35:51Z</time>
      </trkpt>
      <trkpt lat="47.84559" lon="1.79836">
        <ele>100.2</ele>
        <time>2020-07-02T18:35:52Z</time>
      </trkpt>
      <trkpt lat="47.84555" lon="1.79829">
        <ele>100.1</ele>
        <time>2020-07-02T18:35:53Z</time>
      </trkpt>
      <trkpt lat="47.84551" lon="1.79822">
        <ele>100.1</ele>
        <time>2020-07-02T18:35:54Z</time>
      </trkpt>
      <trkpt lat="47.84546" lon="1.79814">
        <ele>100.1</ele>
        <time>2020-07-02T18:35:55Z</time>
      </trkpt>
      <trkpt lat="47.84542" lon="1.79806">
        <ele>100.1</ele>
        <time>2020-07-02T18:35:56Z</time>
      </trkpt>
      <trkpt lat="47.84538" lon="1.79798">
        <ele>100.1</ele>
        <time>2020-07-02T18:35:57Z</time>
      </trkpt>
      <trkpt lat="47.84533" lon="1.79791">
        <ele>100.1</ele>
        <time>2020-07-02T18:35:58Z</time>
      </trkpt>
      <trkpt lat="47.84529" lon="1.79783">
        <ele>100.1</ele>
        <time>2020-07-02T18:35:59Z</time>
      </trkpt>
      <trkpt lat="47.84525" lon="1.79776">
        <ele>100.1</ele>
        <time>2020-07-02T18:36:00Z</time>
      </trkpt>
      <trkpt lat="47.84521" lon="1.79768">
        <ele>100.1</ele>
        <time>2020-07-02T18:36:01Z</time>
      </trkpt>
      <trkpt lat="47.84517" lon="1.79762">
        <ele>100.1</ele>
        <time>2020-07-02T18:36:02Z</time>
      </trkpt>
      <trkpt lat="47.84513" lon="1.79753">
        <ele>100.1</ele>
        <time>2020-07-02T18:36:03Z</time>
      </trkpt>
      <trkpt lat="47.84509" lon="1.79745">
        <ele>100.1</ele>
        <time>2020-07-02T18:36:04Z</time>
      </trkpt>
      <trkpt lat="47.84505" lon="1.79738">
        <ele>100</ele>
        <time>2020-07-02T18:36:05Z</time>
      </trkpt>
      <trkpt lat="47.84501" lon="1.79731">
        <ele>99.9</ele>
        <time>2020-07-02T18:36:06Z</time>
      </trkpt>
      <trkpt lat="47.84497" lon="1.79724">
        <ele>99.9</ele>
        <time>2020-07-02T18:36:07Z</time>
      </trkpt>
      <trkpt lat="47.84493" lon="1.79716">
        <ele>99.9</ele>
        <time>2020-07-02T18:36:08Z</time>
      </trkpt>
      <trkpt lat="47.84489" lon="1.79709">
        <ele>99.9</ele>
        <time>2020-07-02T18:36:09Z</time>
      </trkpt>
      <trkpt lat="47.84485" lon="1.79702">
        <ele>99.8</ele>
        <time>2020-07-02T18:36:10Z</time>
      </trkpt>
      <trkpt lat="47.84481" lon="1.79695">
        <ele>99.8</ele>
        <time>2020-07-02T18:36:11Z</time>
      </trkpt>
      <trkpt lat="47.84478" lon="1.79688">
        <ele>99.7</ele>
        <time>2020-07-02T18:36:12Z</time>
      </trkpt>
      <trkpt lat="47.84474" lon="1.79681">
        <ele>99.6</ele>
        <time>2020-07-02T18:36:13Z</time>
      </trkpt>
      <trkpt lat="47.8447" lon="1.79675">
        <ele>99.5</ele>
        <time>2020-07-02T18:36:14Z</time>
      </trkpt>
      <trkpt lat="47.84466" lon="1.79668">
        <ele>99.4</ele>
        <time>2020-07-02T18:36:15Z</time>
      </trkpt>
      <trkpt lat="47.84462" lon="1.7966">
        <ele>99.3</ele>
        <time>2020-07-02T18:36:16Z</time>
      </trkpt>
      <trkpt lat="47.84458" lon="1.79651">
        <ele>99.2</ele>
        <time>2020-07-02T18:36:17Z</time>
      </trkpt>
      <trkpt lat="47.84453" lon="1.79641">
        <ele>99.1</ele>
        <time>2020-07-02T18:36:18Z</time>
      </trkpt>
      <trkpt lat="47.84449" lon="1.79632">
        <ele>99</ele>
        <time>2020-07-02T18:36:19Z</time>
      </trkpt>
      <trkpt lat="47.84445" lon="1.79625">
        <ele>98.9</ele>
        <time>2020-07-02T18:36:20Z</time>
      </trkpt>
      <trkpt lat="47.84441" lon="1.79617">
        <ele>98.8</ele>
        <time>2020-07-02T18:36:21Z</time>
      </trkpt>
      <trkpt lat="47.84436" lon="1.79608">
        <ele>98.7</ele>
        <time>2020-07-02T18:36:22Z</time>
      </trkpt>
      <trkpt lat="47.84432" lon="1.79599">
        <ele>98.7</ele>
        <time>2020-07-02T18:36:23Z</time>
      </trkpt>
      <trkpt lat="47.84427" lon="1.7959">
        <ele>98.6</ele>
        <time>2020-07-02T18:36:24Z</time>
      </trkpt>
      <trkpt lat="47.84422" lon="1.79581">
        <ele>98.6</ele>
        <time>2020-07-02T18:36:25Z</time>
      </trkpt>
      <trkpt lat="47.84418" lon="1.79573">
        <ele>98.5</ele>
        <time>2020-07-02T18:36:26Z</time>
      </trkpt>
      <trkpt lat="47.84413" lon="1.79564">
        <ele>98.5</ele>
        <time>2020-07-02T18:36:27Z</time>
      </trkpt>
      <trkpt lat="47.84408" lon="1.79554">
        <ele>98.5</ele>
        <time>2020-07-02T18:36:28Z</time>
      </trkpt>
      <trkpt lat="47.84404" lon="1.79546">
        <ele>98.4</ele>
        <time>2020-07-02T18:36:29Z</time>
      </trkpt>
      <trkpt lat="47.84399" lon="1.79537">
        <ele>98.4</ele>
        <time>2020-07-02T18:36:30Z</time>
      </trkpt>
      <trkpt lat="47.84394" lon="1.79528">
        <ele>98.4</ele>
        <time>2020-07-02T18:36:31Z</time>
      </trkpt>
      <trkpt lat="47.84389" lon="1.79518">
        <ele>98.3</ele>
        <time>2020-07-02T18:36:32Z</time>
      </trkpt>
      <trkpt lat="47.84384" lon="1.7951">
        <ele>98.3</ele>
        <time>2020-07-02T18:36:33Z</time>
      </trkpt>
      <trkpt lat="47.84379" lon="1.79501">
        <ele>98.3</ele>
        <time>2020-07-02T18:36:34Z</time>
      </trkpt>
      <trkpt lat="47.84374" lon="1.79493">
        <ele>98.4</ele>
        <time>2020-07-02T18:36:35Z</time>
      </trkpt>
      <trkpt lat="47.84369" lon="1.79484">
        <ele>98.4</ele>
        <time>2020-07-02T18:36:36Z</time>
      </trkpt>
      <trkpt lat="47.84364" lon="1.79475">
        <ele>98.4</ele>
        <time>2020-07-02T18:36:37Z</time>
      </trkpt>
      <trkpt lat="47.8436" lon="1.79466">
        <ele>98.4</ele>
        <time>2020-07-02T18:36:38Z</time>
      </trkpt>
      <trkpt lat="47.84355" lon="1.79458">
        <ele>98.4</ele>
        <time>2020-07-02T18:36:39Z</time>
      </trkpt>
      <trkpt lat="47.84351" lon="1.79449">
        <ele>98.4</ele>
        <time>2020-07-02T18:36:40Z</time>
      </trkpt>
      <trkpt lat="47.84346" lon="1.7944">
        <ele>98.4</ele>
        <time>2020-07-02T18:36:41Z</time>
      </trkpt>
      <trkpt lat="47.84342" lon="1.79431">
        <ele>98.4</ele>
        <time>2020-07-02T18:36:42Z</time>
      </trkpt>
      <trkpt lat="47.84337" lon="1.79422">
        <ele>98.3</ele>
        <time>2020-07-02T18:36:43Z</time>
      </trkpt>
      <trkpt lat="47.84332" lon="1.79414">
        <ele>98.3</ele>
        <time>2020-07-02T18:36:44Z</time>
      </trkpt>
      <trkpt lat="47.84328" lon="1.79406">
        <ele>98.3</ele>
        <time>2020-07-02T18:36:45Z</time>
      </trkpt>
      <trkpt lat="47.84323" lon="1.79398">
        <ele>98.3</ele>
        <time>2020-07-02T18:36:46Z</time>
      </trkpt>
      <trkpt lat="47.84318" lon="1.7939">
        <ele>98.4</ele>
        <time>2020-07-02T18:36:47Z</time>
      </trkpt>
      <trkpt lat="47.84314" lon="1.79381">
        <ele>98.4</ele>
        <time>2020-07-02T18:36:48Z</time>
      </trkpt>
      <trkpt lat="47.8431" lon="1.79373">
        <ele>98.5</ele>
        <time>2020-07-02T18:36:49Z</time>
      </trkpt>
      <trkpt lat="47.84305" lon="1.79365">
        <ele>98.5</ele>
        <time>2020-07-02T18:36:50Z</time>
      </trkpt>
      <trkpt lat="47.84301" lon="1.79357">
        <ele>98.6</ele>
        <time>2020-07-02T18:36:51Z</time>
      </trkpt>
      <trkpt lat="47.84297" lon="1.79348">
        <ele>98.7</ele>
        <time>2020-07-02T18:36:52Z</time>
      </trkpt>
      <trkpt lat="47.84292" lon="1.7934">
        <ele>98.8</ele>
        <time>2020-07-02T18:36:53Z</time>
      </trkpt>
      <trkpt lat="47.84288" lon="1.79332">
        <ele>98.8</ele>
        <time>2020-07-02T18:36:54Z</time>
      </trkpt>
      <trkpt lat="47.84284" lon="1.79324">
        <ele>98.8</ele>
        <time>2020-07-02T18:36:55Z</time>
      </trkpt>
      <trkpt lat="47.84279" lon="1.79316">
        <ele>98.6</ele>
        <time>2020-07-02T18:36:56Z</time>
      </trkpt>
      <trkpt lat="47.84275" lon="1.79308">
        <ele>98.5</ele>
        <time>2020-07-02T18:36:57Z</time>
      </trkpt>
      <trkpt lat="47.84271" lon="1.793">
        <ele>98.4</ele>
        <time>2020-07-02T18:36:58Z</time>
      </trkpt>
      <trkpt lat="47.84266" lon="1.79292">
        <ele>98.4</ele>
        <time>2020-07-02T18:36:59Z</time>
      </trkpt>
      <trkpt lat="47.84262" lon="1.79284">
        <ele>98.3</ele>
        <time>2020-07-02T18:37:00Z</time>
      </trkpt>
      <trkpt lat="47.84258" lon="1.79275">
        <ele>98.3</ele>
        <time>2020-07-02T18:37:01Z</time>
      </trkpt>
      <trkpt lat="47.84253" lon="1.79268">
        <ele>98.3</ele>
        <time>2020-07-02T18:37:02Z</time>
      </trkpt>
      <trkpt lat="47.84249" lon="1.7926">
        <ele>98.3</ele>
        <time>2020-07-02T18:37:03Z</time>
      </trkpt>
      <trkpt lat="47.84245" lon="1.79252">
        <ele>98.3</ele>
        <time>2020-07-02T18:37:04Z</time>
      </trkpt>
      <trkpt lat="47.84241" lon="1.79245">
        <ele>98.3</ele>
        <time>2020-07-02T18:37:05Z</time>
      </trkpt>
      <trkpt lat="47.84237" lon="1.79237">
        <ele>98.3</ele>
        <time>2020-07-02T18:37:06Z</time>
      </trkpt>
      <trkpt lat="47.84233" lon="1.79229">
        <ele>98.4</ele>
        <time>2020-07-02T18:37:07Z</time>
      </trkpt>
      <trkpt lat="47.84229" lon="1.79222">
        <ele>98.5</ele>
        <time>2020-07-02T18:37:08Z</time>
      </trkpt>
      <trkpt lat="47.84225" lon="1.79214">
        <ele>98.5</ele>
        <time>2020-07-02T18:37:09Z</time>
      </trkpt>
      <trkpt lat="47.84221" lon="1.79206">
        <ele>98.5</ele>
        <time>2020-07-02T18:37:10Z</time>
      </trkpt>
      <trkpt lat="47.84217" lon="1.79198">
        <ele>98.5</ele>
        <time>2020-07-02T18:37:11Z</time>
      </trkpt>
      <trkpt lat="47.84213" lon="1.7919">
        <ele>98.5</ele>
        <time>2020-07-02T18:37:12Z</time>
      </trkpt>
      <trkpt lat="47.8421" lon="1.79181">
        <ele>98.6</ele>
        <time>2020-07-02T18:37:13Z</time>
      </trkpt>
      <trkpt lat="47.84207" lon="1.79173">
        <ele>98.6</ele>
        <time>2020-07-02T18:37:14Z</time>
      </trkpt>
      <trkpt lat="47.84204" lon="1.79165">
        <ele>98.6</ele>
        <time>2020-07-02T18:37:15Z</time>
      </trkpt>
      <trkpt lat="47.84201" lon="1.79157">
        <ele>98.6</ele>
        <time>2020-07-02T18:37:16Z</time>
      </trkpt>
      <trkpt lat="47.84199" lon="1.7915">
        <ele>98.6</ele>
        <time>2020-07-02T18:37:17Z</time>
      </trkpt>
      <trkpt lat="47.84196" lon="1.79142">
        <ele>98.7</ele>
        <time>2020-07-02T18:37:18Z</time>
      </trkpt>
      <trkpt lat="47.84193" lon="1.79135">
        <ele>98.7</ele>
        <time>2020-07-02T18:37:19Z</time>
      </trkpt>
      <trkpt lat="47.8419" lon="1.79129">
        <ele>98.7</ele>
        <time>2020-07-02T18:37:20Z</time>
      </trkpt>
      <trkpt lat="47.84188" lon="1.79123">
        <ele>98.7</ele>
        <time>2020-07-02T18:37:21Z</time>
      </trkpt>
      <trkpt lat="47.84186" lon="1.79117">
        <ele>98.7</ele>
        <time>2020-07-02T18:37:22Z</time>
      </trkpt>
      <trkpt lat="47.84184" lon="1.79112">
        <ele>98.7</ele>
        <time>2020-07-02T18:37:23Z</time>
      </trkpt>
      <trkpt lat="47.84183" lon="1.79108">
        <ele>98.7</ele>
        <time>2020-07-02T18:37:24Z</time>
      </trkpt>
      <trkpt lat="47.84181" lon="1.79104">
        <ele>98.6</ele>
        <time>2020-07-02T18:37:25Z</time>
      </trkpt>
      <trkpt lat="47.8418" lon="1.791">
        <ele>98.6</ele>
        <time>2020-07-02T18:37:26Z</time>
      </trkpt>
      <trkpt lat="47.84178" lon="1.79096">
        <ele>98.6</ele>
        <time>2020-07-02T18:37:27Z</time>
      </trkpt>
      <trkpt lat="47.84177" lon="1.79095">
        <ele>98.6</ele>
        <time>2020-07-02T18:37:28Z</time>
      </trkpt>
      <trkpt lat="47.84176" lon="1.79093">
        <ele>98.6</ele>
        <time>2020-07-02T18:37:29Z</time>
      </trkpt>
      <trkpt lat="47.84176" lon="1.79093">
        <ele>98.6</ele>
        <time>2020-07-02T18:37:30Z</time>
      </trkpt>
      <trkpt lat="47.84175" lon="1.79092">
        <ele>98.6</ele>
        <time>2020-07-02T18:37:31Z</time>
      </trkpt>
      <trkpt lat="47.84175" lon="1.79092">
        <ele>98.6</ele>
        <time>2020-07-02T18:37:32Z</time>
      </trkpt>
      <trkpt lat="47.84174" lon="1.79091">
        <ele>98.6</ele>
        <time>2020-07-02T18:37:33Z</time>
      </trkpt>
      <trkpt lat="47.84174" lon="1.79091">
        <ele>98.6</ele>
        <time>2020-07-02T18:37:34Z</time>
      </trkpt>
      <trkpt lat="47.84174" lon="1.7909">
        <ele>98.6</ele>
        <time>2020-07-02T18:37:35Z</time>
      </trkpt>
      <trkpt lat="47.84173" lon="1.7909">
        <ele>98.6</ele>
        <time>2020-07-02T18:37:36Z</time>
      </trkpt>
      <trkpt lat="47.84173" lon="1.79089">
        <ele>98.6</ele>
        <time>2020-07-02T18:37:37Z</time>
      </trkpt>
      <trkpt lat="47.84172" lon="1.79089">
        <ele>98.6</ele>
        <time>2020-07-02T18:37:38Z</time>
      </trkpt>
      <trkpt lat="47.84172" lon="1.79088">
        <ele>98.6</ele>
        <time>2020-07-02T18:37:39Z</time>
      </trkpt>
      <trkpt lat="47.84171" lon="1.79088">
        <ele>98.7</ele>
        <time>2020-07-02T18:37:40Z</time>
      </trkpt>
      <trkpt lat="47.84171" lon="1.79087">
        <ele>98.7</ele>
        <time>2020-07-02T18:38:14Z</time>
      </trkpt>
      <trkpt lat="47.8417" lon="1.79086">
        <ele>98.7</ele>
        <time>2020-07-02T18:38:15Z</time>
      </trkpt>
      <trkpt lat="47.84169" lon="1.79081">
        <ele>98.7</ele>
        <time>2020-07-02T18:38:16Z</time>
      </trkpt>
      <trkpt lat="47.84168" lon="1.79079">
        <ele>98.7</ele>
        <time>2020-07-02T18:38:17Z</time>
      </trkpt>
      <trkpt lat="47.84167" lon="1.79075">
        <ele>98.7</ele>
        <time>2020-07-02T18:38:18Z</time>
      </trkpt>
      <trkpt lat="47.84166" lon="1.79071">
        <ele>98.7</ele>
        <time>2020-07-02T18:38:19Z</time>
      </trkpt>
      <trkpt lat="47.84165" lon="1.79067">
        <ele>98.7</ele>
        <time>2020-07-02T18:38:20Z</time>
      </trkpt>
      <trkpt lat="47.84163" lon="1.79061">
        <ele>98.7</ele>
        <time>2020-07-02T18:38:21Z</time>
      </trkpt>
      <trkpt lat="47.84162" lon="1.79056">
        <ele>98.8</ele>
        <time>2020-07-02T18:38:22Z</time>
      </trkpt>
      <trkpt lat="47.8416" lon="1.79051">
        <ele>98.8</ele>
        <time>2020-07-02T18:38:23Z</time>
      </trkpt>
      <trkpt lat="47.84157" lon="1.79045">
        <ele>98.8</ele>
        <time>2020-07-02T18:38:24Z</time>
      </trkpt>
      <trkpt lat="47.84154" lon="1.7904">
        <ele>98.8</ele>
        <time>2020-07-02T18:38:25Z</time>
      </trkpt>
      <trkpt lat="47.84152" lon="1.79033">
        <ele>98.8</ele>
        <time>2020-07-02T18:38:26Z</time>
      </trkpt>
      <trkpt lat="47.8415" lon="1.79027">
        <ele>98.8</ele>
        <time>2020-07-02T18:38:27Z</time>
      </trkpt>
      <trkpt lat="47.84147" lon="1.7902">
        <ele>98.8</ele>
        <time>2020-07-02T18:38:28Z</time>
      </trkpt>
      <trkpt lat="47.84145" lon="1.79014">
        <ele>98.9</ele>
        <time>2020-07-02T18:38:29Z</time>
      </trkpt>
      <trkpt lat="47.84142" lon="1.79007">
        <ele>98.9</ele>
        <time>2020-07-02T18:38:30Z</time>
      </trkpt>
      <trkpt lat="47.84139" lon="1.79001">
        <ele>99</ele>
        <time>2020-07-02T18:38:31Z</time>
      </trkpt>
      <trkpt lat="47.84137" lon="1.78994">
        <ele>99.1</ele>
        <time>2020-07-02T18:38:32Z</time>
      </trkpt>
      <trkpt lat="47.84134" lon="1.78987">
        <ele>99.8</ele>
        <time>2020-07-02T18:38:33Z</time>
      </trkpt>
      <trkpt lat="47.84131" lon="1.7898">
        <ele>100.2</ele>
        <time>2020-07-02T18:38:34Z</time>
      </trkpt>
      <trkpt lat="47.84128" lon="1.78973">
        <ele>100.4</ele>
        <time>2020-07-02T18:38:35Z</time>
      </trkpt>
      <trkpt lat="47.84125" lon="1.78966">
        <ele>100.4</ele>
        <time>2020-07-02T18:38:36Z</time>
      </trkpt>
      <trkpt lat="47.84122" lon="1.78958">
        <ele>100.3</ele>
        <time>2020-07-02T18:38:37Z</time>
      </trkpt>
      <trkpt lat="47.84119" lon="1.7895">
        <ele>100.3</ele>
        <time>2020-07-02T18:38:38Z</time>
      </trkpt>
      <trkpt lat="47.84116" lon="1.78942">
        <ele>100.2</ele>
        <time>2020-07-02T18:38:39Z</time>
      </trkpt>
      <trkpt lat="47.84113" lon="1.78934">
        <ele>100.1</ele>
        <time>2020-07-02T18:38:40Z</time>
      </trkpt>
      <trkpt lat="47.8411" lon="1.78926">
        <ele>100</ele>
        <time>2020-07-02T18:38:41Z</time>
      </trkpt>
      <trkpt lat="47.84107" lon="1.78917">
        <ele>100</ele>
        <time>2020-07-02T18:38:42Z</time>
      </trkpt>
      <trkpt lat="47.84104" lon="1.78909">
        <ele>99.9</ele>
        <time>2020-07-02T18:38:43Z</time>
      </trkpt>
      <trkpt lat="47.84101" lon="1.789">
        <ele>99.9</ele>
        <time>2020-07-02T18:38:44Z</time>
      </trkpt>
      <trkpt lat="47.84098" lon="1.78892">
        <ele>99.8</ele>
        <time>2020-07-02T18:38:45Z</time>
      </trkpt>
      <trkpt lat="47.84095" lon="1.78883">
        <ele>99.8</ele>
        <time>2020-07-02T18:38:46Z</time>
      </trkpt>
      <trkpt lat="47.84091" lon="1.78875">
        <ele>99.8</ele>
        <time>2020-07-02T18:38:47Z</time>
      </trkpt>
      <trkpt lat="47.84088" lon="1.78866">
        <ele>99.7</ele>
        <time>2020-07-02T18:38:48Z</time>
      </trkpt>
      <trkpt lat="47.84085" lon="1.78858">
        <ele>99.6</ele>
        <time>2020-07-02T18:38:49Z</time>
      </trkpt>
      <trkpt lat="47.84082" lon="1.7885">
        <ele>99.5</ele>
        <time>2020-07-02T18:38:50Z</time>
      </trkpt>
      <trkpt lat="47.84079" lon="1.78842">
        <ele>99.5</ele>
        <time>2020-07-02T18:38:51Z</time>
      </trkpt>
      <trkpt lat="47.84077" lon="1.78834">
        <ele>99.4</ele>
        <time>2020-07-02T18:38:52Z</time>
      </trkpt>
      <trkpt lat="47.84074" lon="1.78826">
        <ele>99.3</ele>
        <time>2020-07-02T18:38:53Z</time>
      </trkpt>
      <trkpt lat="47.84071" lon="1.78819">
        <ele>99.3</ele>
        <time>2020-07-02T18:38:54Z</time>
      </trkpt>
      <trkpt lat="47.84069" lon="1.78811">
        <ele>99.3</ele>
        <time>2020-07-02T18:38:55Z</time>
      </trkpt>
      <trkpt lat="47.84066" lon="1.78803">
        <ele>99.2</ele>
        <time>2020-07-02T18:38:56Z</time>
      </trkpt>
      <trkpt lat="47.84063" lon="1.78796">
        <ele>99.2</ele>
        <time>2020-07-02T18:38:57Z</time>
      </trkpt>
      <trkpt lat="47.8406" lon="1.78788">
        <ele>99.2</ele>
        <time>2020-07-02T18:38:58Z</time>
      </trkpt>
      <trkpt lat="47.84057" lon="1.7878">
        <ele>99.2</ele>
        <time>2020-07-02T18:38:59Z</time>
      </trkpt>
      <trkpt lat="47.84053" lon="1.78772">
        <ele>99.2</ele>
        <time>2020-07-02T18:39:00Z</time>
      </trkpt>
      <trkpt lat="47.8405" lon="1.78764">
        <ele>99.2</ele>
        <time>2020-07-02T18:39:01Z</time>
      </trkpt>
      <trkpt lat="47.84047" lon="1.78756">
        <ele>99.1</ele>
        <time>2020-07-02T18:39:02Z</time>
      </trkpt>
      <trkpt lat="47.84043" lon="1.78748">
        <ele>99.1</ele>
        <time>2020-07-02T18:39:03Z</time>
      </trkpt>
      <trkpt lat="47.8404" lon="1.7874">
        <ele>99</ele>
        <time>2020-07-02T18:39:04Z</time>
      </trkpt>
      <trkpt lat="47.84037" lon="1.78731">
        <ele>99</ele>
        <time>2020-07-02T18:39:05Z</time>
      </trkpt>
      <trkpt lat="47.84034" lon="1.78723">
        <ele>99.1</ele>
        <time>2020-07-02T18:39:06Z</time>
      </trkpt>
      <trkpt lat="47.8403" lon="1.78715">
        <ele>99.1</ele>
        <time>2020-07-02T18:39:07Z</time>
      </trkpt>
      <trkpt lat="47.84027" lon="1.78706">
        <ele>99</ele>
        <time>2020-07-02T18:39:08Z</time>
      </trkpt>
      <trkpt lat="47.84024" lon="1.78698">
        <ele>99</ele>
        <time>2020-07-02T18:39:09Z</time>
      </trkpt>
      <trkpt lat="47.84021" lon="1.78689">
        <ele>99</ele>
        <time>2020-07-02T18:39:10Z</time>
      </trkpt>
      <trkpt lat="47.84018" lon="1.78681">
        <ele>99</ele>
        <time>2020-07-02T18:39:11Z</time>
      </trkpt>
      <trkpt lat="47.84014" lon="1.78672">
        <ele>99</ele>
        <time>2020-07-02T18:39:12Z</time>
      </trkpt>
      <trkpt lat="47.84011" lon="1.78663">
        <ele>99.1</ele>
        <time>2020-07-02T18:39:13Z</time>
      </trkpt>
      <trkpt lat="47.84007" lon="1.78654">
        <ele>99.2</ele>
        <time>2020-07-02T18:39:14Z</time>
      </trkpt>
      <trkpt lat="47.84004" lon="1.78646">
        <ele>99.3</ele>
        <time>2020-07-02T18:39:15Z</time>
      </trkpt>
      <trkpt lat="47.84" lon="1.78637">
        <ele>99.3</ele>
        <time>2020-07-02T18:39:16Z</time>
      </trkpt>
      <trkpt lat="47.83997" lon="1.78629">
        <ele>99.3</ele>
        <time>2020-07-02T18:39:17Z</time>
      </trkpt>
      <trkpt lat="47.83994" lon="1.78621">
        <ele>99.3</ele>
        <time>2020-07-02T18:39:18Z</time>
      </trkpt>
      <trkpt lat="47.83991" lon="1.78612">
        <ele>99.4</ele>
        <time>2020-07-02T18:39:19Z</time>
      </trkpt>
      <trkpt lat="47.83987" lon="1.78604">
        <ele>99.4</ele>
        <time>2020-07-02T18:39:20Z</time>
      </trkpt>
      <trkpt lat="47.83984" lon="1.78596">
        <ele>99.4</ele>
        <time>2020-07-02T18:39:21Z</time>
      </trkpt>
      <trkpt lat="47.8398" lon="1.78588">
        <ele>99.5</ele>
        <time>2020-07-02T18:39:22Z</time>
      </trkpt>
      <trkpt lat="47.83977" lon="1.7858">
        <ele>99.5</ele>
        <time>2020-07-02T18:39:23Z</time>
      </trkpt>
      <trkpt lat="47.83973" lon="1.78572">
        <ele>99.5</ele>
        <time>2020-07-02T18:39:24Z</time>
      </trkpt>
      <trkpt lat="47.83971" lon="1.78564">
        <ele>99.5</ele>
        <time>2020-07-02T18:39:25Z</time>
      </trkpt>
      <trkpt lat="47.83967" lon="1.78556">
        <ele>99.5</ele>
        <time>2020-07-02T18:39:26Z</time>
      </trkpt>
      <trkpt lat="47.83965" lon="1.78547">
        <ele>99.5</ele>
        <time>2020-07-02T18:39:27Z</time>
      </trkpt>
      <trkpt lat="47.83962" lon="1.78539">
        <ele>99.5</ele>
        <time>2020-07-02T18:39:28Z</time>
      </trkpt>
      <trkpt lat="47.8396" lon="1.7853">
        <ele>99.4</ele>
        <time>2020-07-02T18:39:29Z</time>
      </trkpt>
      <trkpt lat="47.83956" lon="1.78522">
        <ele>99.4</ele>
        <time>2020-07-02T18:39:30Z</time>
      </trkpt>
      <trkpt lat="47.83953" lon="1.78513">
        <ele>99.4</ele>
        <time>2020-07-02T18:39:31Z</time>
      </trkpt>
      <trkpt lat="47.8395" lon="1.78504">
        <ele>99.3</ele>
        <time>2020-07-02T18:39:32Z</time>
      </trkpt>
      <trkpt lat="47.83946" lon="1.78495">
        <ele>99.3</ele>
        <time>2020-07-02T18:39:33Z</time>
      </trkpt>
      <trkpt lat="47.83943" lon="1.78486">
        <ele>99.3</ele>
        <time>2020-07-02T18:39:34Z</time>
      </trkpt>
      <trkpt lat="47.8394" lon="1.78476">
        <ele>99.3</ele>
        <time>2020-07-02T18:39:35Z</time>
      </trkpt>
      <trkpt lat="47.83937" lon="1.78467">
        <ele>99.3</ele>
        <time>2020-07-02T18:39:36Z</time>
      </trkpt>
      <trkpt lat="47.83933" lon="1.78457">
        <ele>99.2</ele>
        <time>2020-07-02T18:39:37Z</time>
      </trkpt>
      <trkpt lat="47.8393" lon="1.78448">
        <ele>99.2</ele>
        <time>2020-07-02T18:39:38Z</time>
      </trkpt>
      <trkpt lat="47.83926" lon="1.78438">
        <ele>99.1</ele>
        <time>2020-07-02T18:39:39Z</time>
      </trkpt>
      <trkpt lat="47.83922" lon="1.78429">
        <ele>99.1</ele>
        <time>2020-07-02T18:39:40Z</time>
      </trkpt>
      <trkpt lat="47.83918" lon="1.7842">
        <ele>99.1</ele>
        <time>2020-07-02T18:39:41Z</time>
      </trkpt>
      <trkpt lat="47.83914" lon="1.7841">
        <ele>99.1</ele>
        <time>2020-07-02T18:39:42Z</time>
      </trkpt>
      <trkpt lat="47.83911" lon="1.78401">
        <ele>99</ele>
        <time>2020-07-02T18:39:43Z</time>
      </trkpt>
      <trkpt lat="47.83907" lon="1.78392">
        <ele>99</ele>
        <time>2020-07-02T18:39:44Z</time>
      </trkpt>
      <trkpt lat="47.83903" lon="1.78384">
        <ele>99</ele>
        <time>2020-07-02T18:39:45Z</time>
      </trkpt>
      <trkpt lat="47.839" lon="1.78375">
        <ele>98.9</ele>
        <time>2020-07-02T18:39:46Z</time>
      </trkpt>
      <trkpt lat="47.83896" lon="1.78366">
        <ele>98.9</ele>
        <time>2020-07-02T18:39:47Z</time>
      </trkpt>
      <trkpt lat="47.83892" lon="1.78357">
        <ele>98.9</ele>
        <time>2020-07-02T18:39:48Z</time>
      </trkpt>
      <trkpt lat="47.83888" lon="1.78347">
        <ele>98.9</ele>
        <time>2020-07-02T18:39:49Z</time>
      </trkpt>
      <trkpt lat="47.83884" lon="1.78338">
        <ele>98.9</ele>
        <time>2020-07-02T18:39:50Z</time>
      </trkpt>
      <trkpt lat="47.83881" lon="1.78329">
        <ele>99</ele>
        <time>2020-07-02T18:39:51Z</time>
      </trkpt>
      <trkpt lat="47.83877" lon="1.78319">
        <ele>99</ele>
        <time>2020-07-02T18:39:52Z</time>
      </trkpt>
      <trkpt lat="47.83873" lon="1.7831">
        <ele>98.9</ele>
        <time>2020-07-02T18:39:53Z</time>
      </trkpt>
      <trkpt lat="47.8387" lon="1.78301">
        <ele>98.9</ele>
        <time>2020-07-02T18:39:54Z</time>
      </trkpt>
      <trkpt lat="47.83866" lon="1.78291">
        <ele>98.9</ele>
        <time>2020-07-02T18:39:55Z</time>
      </trkpt>
      <trkpt lat="47.83863" lon="1.78282">
        <ele>98.9</ele>
        <time>2020-07-02T18:39:56Z</time>
      </trkpt>
      <trkpt lat="47.83859" lon="1.78273">
        <ele>98.9</ele>
        <time>2020-07-02T18:39:57Z</time>
      </trkpt>
      <trkpt lat="47.83856" lon="1.78263">
        <ele>98.9</ele>
        <time>2020-07-02T18:39:58Z</time>
      </trkpt>
      <trkpt lat="47.83852" lon="1.78253">
        <ele>98.9</ele>
        <time>2020-07-02T18:39:59Z</time>
      </trkpt>
      <trkpt lat="47.83849" lon="1.78244">
        <ele>98.9</ele>
        <time>2020-07-02T18:40:00Z</time>
      </trkpt>
      <trkpt lat="47.83845" lon="1.78234">
        <ele>98.9</ele>
        <time>2020-07-02T18:40:01Z</time>
      </trkpt>
      <trkpt lat="47.83841" lon="1.78225">
        <ele>98.9</ele>
        <time>2020-07-02T18:40:02Z</time>
      </trkpt>
      <trkpt lat="47.83838" lon="1.78216">
        <ele>98.9</ele>
        <time>2020-07-02T18:40:03Z</time>
      </trkpt>
      <trkpt lat="47.83835" lon="1.78206">
        <ele>98.9</ele>
        <time>2020-07-02T18:40:04Z</time>
      </trkpt>
      <trkpt lat="47.83831" lon="1.78197">
        <ele>98.9</ele>
        <time>2020-07-02T18:40:05Z</time>
      </trkpt>
      <trkpt lat="47.83827" lon="1.78187">
        <ele>98.9</ele>
        <time>2020-07-02T18:40:06Z</time>
      </trkpt>
      <trkpt lat="47.83824" lon="1.78178">
        <ele>98.9</ele>
        <time>2020-07-02T18:40:07Z</time>
      </trkpt>
      <trkpt lat="47.8382" lon="1.78168">
        <ele>98.9</ele>
        <time>2020-07-02T18:40:08Z</time>
      </trkpt>
      <trkpt lat="47.83816" lon="1.78159">
        <ele>98.9</ele>
        <time>2020-07-02T18:40:09Z</time>
      </trkpt>
      <trkpt lat="47.83812" lon="1.7815">
        <ele>98.8</ele>
        <time>2020-07-02T18:40:10Z</time>
      </trkpt>
      <trkpt lat="47.83809" lon="1.78142">
        <ele>98.8</ele>
        <time>2020-07-02T18:40:11Z</time>
      </trkpt>
      <trkpt lat="47.83805" lon="1.78133">
        <ele>98.8</ele>
        <time>2020-07-02T18:40:12Z</time>
      </trkpt>
      <trkpt lat="47.83802" lon="1.78124">
        <ele>98.8</ele>
        <time>2020-07-02T18:40:13Z</time>
      </trkpt>
      <trkpt lat="47.83798" lon="1.78115">
        <ele>98.8</ele>
        <time>2020-07-02T18:40:14Z</time>
      </trkpt>
      <trkpt lat="47.83795" lon="1.78106">
        <ele>98.8</ele>
        <time>2020-07-02T18:40:15Z</time>
      </trkpt>
      <trkpt lat="47.83791" lon="1.78097">
        <ele>98.8</ele>
        <time>2020-07-02T18:40:16Z</time>
      </trkpt>
      <trkpt lat="47.83787" lon="1.78088">
        <ele>98.8</ele>
        <time>2020-07-02T18:40:17Z</time>
      </trkpt>
      <trkpt lat="47.83784" lon="1.78079">
        <ele>98.8</ele>
        <time>2020-07-02T18:40:18Z</time>
      </trkpt>
      <trkpt lat="47.8378" lon="1.7807">
        <ele>98.8</ele>
        <time>2020-07-02T18:40:19Z</time>
      </trkpt>
      <trkpt lat="47.83777" lon="1.7806">
        <ele>98.8</ele>
        <time>2020-07-02T18:40:20Z</time>
      </trkpt>
      <trkpt lat="47.83773" lon="1.78051">
        <ele>98.8</ele>
        <time>2020-07-02T18:40:21Z</time>
      </trkpt>
      <trkpt lat="47.8377" lon="1.78042">
        <ele>98.8</ele>
        <time>2020-07-02T18:40:22Z</time>
      </trkpt>
      <trkpt lat="47.83766" lon="1.78033">
        <ele>98.8</ele>
        <time>2020-07-02T18:40:23Z</time>
      </trkpt>
      <trkpt lat="47.83762" lon="1.78024">
        <ele>98.8</ele>
        <time>2020-07-02T18:40:24Z</time>
      </trkpt>
      <trkpt lat="47.83759" lon="1.78015">
        <ele>98.8</ele>
        <time>2020-07-02T18:40:25Z</time>
      </trkpt>
      <trkpt lat="47.83755" lon="1.78007">
        <ele>98.8</ele>
        <time>2020-07-02T18:40:26Z</time>
      </trkpt>
      <trkpt lat="47.83752" lon="1.77998">
        <ele>98.8</ele>
        <time>2020-07-02T18:40:27Z</time>
      </trkpt>
      <trkpt lat="47.83748" lon="1.77989">
        <ele>98.7</ele>
        <time>2020-07-02T18:40:28Z</time>
      </trkpt>
      <trkpt lat="47.83745" lon="1.7798">
        <ele>98.7</ele>
        <time>2020-07-02T18:40:29Z</time>
      </trkpt>
      <trkpt lat="47.83741" lon="1.77971">
        <ele>98.6</ele>
        <time>2020-07-02T18:40:30Z</time>
      </trkpt>
      <trkpt lat="47.83738" lon="1.77962">
        <ele>98.6</ele>
        <time>2020-07-02T18:40:31Z</time>
      </trkpt>
      <trkpt lat="47.83735" lon="1.77953">
        <ele>98.5</ele>
        <time>2020-07-02T18:40:32Z</time>
      </trkpt>
      <trkpt lat="47.83732" lon="1.77944">
        <ele>98.4</ele>
        <time>2020-07-02T18:40:33Z</time>
      </trkpt>
      <trkpt lat="47.83728" lon="1.77936">
        <ele>98.3</ele>
        <time>2020-07-02T18:40:34Z</time>
      </trkpt>
      <trkpt lat="47.83725" lon="1.77927">
        <ele>98.3</ele>
        <time>2020-07-02T18:40:35Z</time>
      </trkpt>
      <trkpt lat="47.83722" lon="1.77917">
        <ele>98.2</ele>
        <time>2020-07-02T18:40:36Z</time>
      </trkpt>
      <trkpt lat="47.83719" lon="1.77908">
        <ele>98.1</ele>
        <time>2020-07-02T18:40:37Z</time>
      </trkpt>
      <trkpt lat="47.83715" lon="1.77899">
        <ele>98.1</ele>
        <time>2020-07-02T18:40:38Z</time>
      </trkpt>
      <trkpt lat="47.83712" lon="1.77889">
        <ele>98</ele>
        <time>2020-07-02T18:40:39Z</time>
      </trkpt>
      <trkpt lat="47.83709" lon="1.7788">
        <ele>97.9</ele>
        <time>2020-07-02T18:40:40Z</time>
      </trkpt>
      <trkpt lat="47.83705" lon="1.77871">
        <ele>97.8</ele>
        <time>2020-07-02T18:40:41Z</time>
      </trkpt>
      <trkpt lat="47.83702" lon="1.77862">
        <ele>97.7</ele>
        <time>2020-07-02T18:40:42Z</time>
      </trkpt>
      <trkpt lat="47.83698" lon="1.77853">
        <ele>97.7</ele>
        <time>2020-07-02T18:40:43Z</time>
      </trkpt>
      <trkpt lat="47.83695" lon="1.77843">
        <ele>97.6</ele>
        <time>2020-07-02T18:40:44Z</time>
      </trkpt>
      <trkpt lat="47.83691" lon="1.77834">
        <ele>97.6</ele>
        <time>2020-07-02T18:40:45Z</time>
      </trkpt>
      <trkpt lat="47.83688" lon="1.77825">
        <ele>97.5</ele>
        <time>2020-07-02T18:40:46Z</time>
      </trkpt>
      <trkpt lat="47.83684" lon="1.77816">
        <ele>97.5</ele>
        <time>2020-07-02T18:40:47Z</time>
      </trkpt>
      <trkpt lat="47.83681" lon="1.77808">
        <ele>97.4</ele>
        <time>2020-07-02T18:40:48Z</time>
      </trkpt>
      <trkpt lat="47.83678" lon="1.77799">
        <ele>97.3</ele>
        <time>2020-07-02T18:40:49Z</time>
      </trkpt>
      <trkpt lat="47.83675" lon="1.7779">
        <ele>97.1</ele>
        <time>2020-07-02T18:40:50Z</time>
      </trkpt>
      <trkpt lat="47.83671" lon="1.77781">
        <ele>97</ele>
        <time>2020-07-02T18:40:51Z</time>
      </trkpt>
      <trkpt lat="47.83667" lon="1.77772">
        <ele>96.9</ele>
        <time>2020-07-02T18:40:52Z</time>
      </trkpt>
      <trkpt lat="47.83664" lon="1.77763">
        <ele>96.8</ele>
        <time>2020-07-02T18:40:53Z</time>
      </trkpt>
      <trkpt lat="47.83661" lon="1.77754">
        <ele>96.8</ele>
        <time>2020-07-02T18:40:54Z</time>
      </trkpt>
      <trkpt lat="47.83657" lon="1.77744">
        <ele>96.7</ele>
        <time>2020-07-02T18:40:55Z</time>
      </trkpt>
      <trkpt lat="47.83653" lon="1.77735">
        <ele>96.6</ele>
        <time>2020-07-02T18:40:56Z</time>
      </trkpt>
      <trkpt lat="47.83649" lon="1.77725">
        <ele>96.6</ele>
        <time>2020-07-02T18:40:57Z</time>
      </trkpt>
      <trkpt lat="47.83646" lon="1.77716">
        <ele>96.5</ele>
        <time>2020-07-02T18:40:58Z</time>
      </trkpt>
      <trkpt lat="47.83642" lon="1.77706">
        <ele>96.4</ele>
        <time>2020-07-02T18:40:59Z</time>
      </trkpt>
      <trkpt lat="47.83638" lon="1.77697">
        <ele>96.4</ele>
        <time>2020-07-02T18:41:00Z</time>
      </trkpt>
      <trkpt lat="47.83634" lon="1.77688">
        <ele>96.3</ele>
        <time>2020-07-02T18:41:01Z</time>
      </trkpt>
      <trkpt lat="47.8363" lon="1.77679">
        <ele>96.3</ele>
        <time>2020-07-02T18:41:02Z</time>
      </trkpt>
      <trkpt lat="47.83626" lon="1.7767">
        <ele>96.2</ele>
        <time>2020-07-02T18:41:03Z</time>
      </trkpt>
      <trkpt lat="47.83622" lon="1.77662">
        <ele>96.3</ele>
        <time>2020-07-02T18:41:04Z</time>
      </trkpt>
      <trkpt lat="47.83617" lon="1.77653">
        <ele>96.3</ele>
        <time>2020-07-02T18:41:05Z</time>
      </trkpt>
      <trkpt lat="47.83612" lon="1.77645">
        <ele>96.3</ele>
        <time>2020-07-02T18:41:06Z</time>
      </trkpt>
      <trkpt lat="47.83607" lon="1.77637">
        <ele>96.1</ele>
        <time>2020-07-02T18:41:07Z</time>
      </trkpt>
      <trkpt lat="47.83601" lon="1.77629">
        <ele>95.9</ele>
        <time>2020-07-02T18:41:08Z</time>
      </trkpt>
      <trkpt lat="47.83596" lon="1.77621">
        <ele>95.7</ele>
        <time>2020-07-02T18:41:09Z</time>
      </trkpt>
      <trkpt lat="47.8359" lon="1.77614">
        <ele>95.6</ele>
        <time>2020-07-02T18:41:10Z</time>
      </trkpt>
      <trkpt lat="47.83585" lon="1.77606">
        <ele>95.5</ele>
        <time>2020-07-02T18:41:11Z</time>
      </trkpt>
      <trkpt lat="47.83579" lon="1.77599">
        <ele>95.4</ele>
        <time>2020-07-02T18:41:12Z</time>
      </trkpt>
      <trkpt lat="47.83574" lon="1.77591">
        <ele>95.3</ele>
        <time>2020-07-02T18:41:13Z</time>
      </trkpt>
      <trkpt lat="47.83568" lon="1.77584">
        <ele>95.3</ele>
        <time>2020-07-02T18:41:14Z</time>
      </trkpt>
      <trkpt lat="47.83562" lon="1.77577">
        <ele>95.2</ele>
        <time>2020-07-02T18:41:15Z</time>
      </trkpt>
      <trkpt lat="47.83556" lon="1.7757">
        <ele>95.1</ele>
        <time>2020-07-02T18:41:16Z</time>
      </trkpt>
      <trkpt lat="47.8355" lon="1.77562">
        <ele>95.1</ele>
        <time>2020-07-02T18:41:17Z</time>
      </trkpt>
      <trkpt lat="47.83545" lon="1.77555">
        <ele>95.1</ele>
        <time>2020-07-02T18:41:18Z</time>
      </trkpt>
      <trkpt lat="47.83539" lon="1.77547">
        <ele>95</ele>
        <time>2020-07-02T18:41:19Z</time>
      </trkpt>
      <trkpt lat="47.83533" lon="1.77539">
        <ele>95</ele>
        <time>2020-07-02T18:41:20Z</time>
      </trkpt>
      <trkpt lat="47.83528" lon="1.77532">
        <ele>94.9</ele>
        <time>2020-07-02T18:41:21Z</time>
      </trkpt>
      <trkpt lat="47.83522" lon="1.77525">
        <ele>94.8</ele>
        <time>2020-07-02T18:41:22Z</time>
      </trkpt>
      <trkpt lat="47.83516" lon="1.77518">
        <ele>94.7</ele>
        <time>2020-07-02T18:41:23Z</time>
      </trkpt>
      <trkpt lat="47.8351" lon="1.77511">
        <ele>94.7</ele>
        <time>2020-07-02T18:41:24Z</time>
      </trkpt>
      <trkpt lat="47.83505" lon="1.77504">
        <ele>94.7</ele>
        <time>2020-07-02T18:41:25Z</time>
      </trkpt>
      <trkpt lat="47.83499" lon="1.77496">
        <ele>94.7</ele>
        <time>2020-07-02T18:41:26Z</time>
      </trkpt>
      <trkpt lat="47.83493" lon="1.7749">
        <ele>94.8</ele>
        <time>2020-07-02T18:41:27Z</time>
      </trkpt>
      <trkpt lat="47.83488" lon="1.77482">
        <ele>94.8</ele>
        <time>2020-07-02T18:41:28Z</time>
      </trkpt>
      <trkpt lat="47.83482" lon="1.77475">
        <ele>94.8</ele>
        <time>2020-07-02T18:41:29Z</time>
      </trkpt>
      <trkpt lat="47.83477" lon="1.77468">
        <ele>94.8</ele>
        <time>2020-07-02T18:41:30Z</time>
      </trkpt>
      <trkpt lat="47.83471" lon="1.77461">
        <ele>94.8</ele>
        <time>2020-07-02T18:41:31Z</time>
      </trkpt>
      <trkpt lat="47.83466" lon="1.77454">
        <ele>94.8</ele>
        <time>2020-07-02T18:41:32Z</time>
      </trkpt>
      <trkpt lat="47.83461" lon="1.77447">
        <ele>94.8</ele>
        <time>2020-07-02T18:41:33Z</time>
      </trkpt>
      <trkpt lat="47.83455" lon="1.7744">
        <ele>94.9</ele>
        <time>2020-07-02T18:41:34Z</time>
      </trkpt>
      <trkpt lat="47.8345" lon="1.77433">
        <ele>94.9</ele>
        <time>2020-07-02T18:41:35Z</time>
      </trkpt>
      <trkpt lat="47.83445" lon="1.77426">
        <ele>94.8</ele>
        <time>2020-07-02T18:41:36Z</time>
      </trkpt>
      <trkpt lat="47.83439" lon="1.7742">
        <ele>94.8</ele>
        <time>2020-07-02T18:41:37Z</time>
      </trkpt>
      <trkpt lat="47.83434" lon="1.77413">
        <ele>94.8</ele>
        <time>2020-07-02T18:41:38Z</time>
      </trkpt>
      <trkpt lat="47.83428" lon="1.77406">
        <ele>94.8</ele>
        <time>2020-07-02T18:41:39Z</time>
      </trkpt>
      <trkpt lat="47.83423" lon="1.77399">
        <ele>94.8</ele>
        <time>2020-07-02T18:41:40Z</time>
      </trkpt>
      <trkpt lat="47.83418" lon="1.77392">
        <ele>94.8</ele>
        <time>2020-07-02T18:41:41Z</time>
      </trkpt>
      <trkpt lat="47.83413" lon="1.77385">
        <ele>94.8</ele>
        <time>2020-07-02T18:41:42Z</time>
      </trkpt>
      <trkpt lat="47.83407" lon="1.77378">
        <ele>94.8</ele>
        <time>2020-07-02T18:41:43Z</time>
      </trkpt>
      <trkpt lat="47.83402" lon="1.77371">
        <ele>94.8</ele>
        <time>2020-07-02T18:41:44Z</time>
      </trkpt>
      <trkpt lat="47.83397" lon="1.77364">
        <ele>94.8</ele>
        <time>2020-07-02T18:41:45Z</time>
      </trkpt>
      <trkpt lat="47.83391" lon="1.77357">
        <ele>94.8</ele>
        <time>2020-07-02T18:41:46Z</time>
      </trkpt>
      <trkpt lat="47.83386" lon="1.7735">
        <ele>94.9</ele>
        <time>2020-07-02T18:41:47Z</time>
      </trkpt>
      <trkpt lat="47.83381" lon="1.77343">
        <ele>94.9</ele>
        <time>2020-07-02T18:41:48Z</time>
      </trkpt>
      <trkpt lat="47.83376" lon="1.77335">
        <ele>95</ele>
        <time>2020-07-02T18:41:49Z</time>
      </trkpt>
      <trkpt lat="47.8337" lon="1.77329">
        <ele>95</ele>
        <time>2020-07-02T18:41:50Z</time>
      </trkpt>
      <trkpt lat="47.83365" lon="1.77323">
        <ele>95</ele>
        <time>2020-07-02T18:41:51Z</time>
      </trkpt>
      <trkpt lat="47.8336" lon="1.77316">
        <ele>95</ele>
        <time>2020-07-02T18:41:52Z</time>
      </trkpt>
      <trkpt lat="47.83355" lon="1.77309">
        <ele>95.1</ele>
        <time>2020-07-02T18:41:53Z</time>
      </trkpt>
      <trkpt lat="47.8335" lon="1.77303">
        <ele>95.1</ele>
        <time>2020-07-02T18:41:54Z</time>
      </trkpt>
      <trkpt lat="47.83345" lon="1.77297">
        <ele>95.1</ele>
        <time>2020-07-02T18:41:55Z</time>
      </trkpt>
      <trkpt lat="47.8334" lon="1.7729">
        <ele>95.2</ele>
        <time>2020-07-02T18:41:56Z</time>
      </trkpt>
      <trkpt lat="47.83335" lon="1.77284">
        <ele>95.3</ele>
        <time>2020-07-02T18:41:57Z</time>
      </trkpt>
      <trkpt lat="47.83331" lon="1.77277">
        <ele>95.4</ele>
        <time>2020-07-02T18:41:58Z</time>
      </trkpt>
      <trkpt lat="47.83325" lon="1.77271">
        <ele>95.5</ele>
        <time>2020-07-02T18:41:59Z</time>
      </trkpt>
      <trkpt lat="47.83321" lon="1.77264">
        <ele>95.6</ele>
        <time>2020-07-02T18:42:00Z</time>
      </trkpt>
      <trkpt lat="47.83316" lon="1.77258">
        <ele>95.7</ele>
        <time>2020-07-02T18:42:01Z</time>
      </trkpt>
      <trkpt lat="47.83311" lon="1.77252">
        <ele>95.8</ele>
        <time>2020-07-02T18:42:02Z</time>
      </trkpt>
      <trkpt lat="47.83306" lon="1.77246">
        <ele>95.9</ele>
        <time>2020-07-02T18:42:03Z</time>
      </trkpt>
      <trkpt lat="47.83302" lon="1.77239">
        <ele>96</ele>
        <time>2020-07-02T18:42:04Z</time>
      </trkpt>
      <trkpt lat="47.83297" lon="1.77233">
        <ele>96.2</ele>
        <time>2020-07-02T18:42:05Z</time>
      </trkpt>
      <trkpt lat="47.83292" lon="1.77227">
        <ele>96.3</ele>
        <time>2020-07-02T18:42:06Z</time>
      </trkpt>
      <trkpt lat="47.83288" lon="1.77221">
        <ele>96.5</ele>
        <time>2020-07-02T18:42:07Z</time>
      </trkpt>
      <trkpt lat="47.83283" lon="1.77215">
        <ele>96.6</ele>
        <time>2020-07-02T18:42:08Z</time>
      </trkpt>
      <trkpt lat="47.83278" lon="1.77208">
        <ele>96.7</ele>
        <time>2020-07-02T18:42:09Z</time>
      </trkpt>
      <trkpt lat="47.83273" lon="1.77201">
        <ele>96.8</ele>
        <time>2020-07-02T18:42:10Z</time>
      </trkpt>
      <trkpt lat="47.83268" lon="1.77195">
        <ele>96.9</ele>
        <time>2020-07-02T18:42:11Z</time>
      </trkpt>
      <trkpt lat="47.83264" lon="1.77188">
        <ele>96.9</ele>
        <time>2020-07-02T18:42:12Z</time>
      </trkpt>
      <trkpt lat="47.83259" lon="1.77183">
        <ele>97</ele>
        <time>2020-07-02T18:42:13Z</time>
      </trkpt>
      <trkpt lat="47.83255" lon="1.77176">
        <ele>97</ele>
        <time>2020-07-02T18:42:14Z</time>
      </trkpt>
      <trkpt lat="47.8325" lon="1.7717">
        <ele>97.1</ele>
        <time>2020-07-02T18:42:15Z</time>
      </trkpt>
      <trkpt lat="47.83245" lon="1.77162">
        <ele>97.3</ele>
        <time>2020-07-02T18:42:16Z</time>
      </trkpt>
      <trkpt lat="47.83241" lon="1.77157">
        <ele>97.4</ele>
        <time>2020-07-02T18:42:17Z</time>
      </trkpt>
      <trkpt lat="47.83236" lon="1.77151">
        <ele>97.5</ele>
        <time>2020-07-02T18:42:18Z</time>
      </trkpt>
      <trkpt lat="47.83232" lon="1.77145">
        <ele>97.7</ele>
        <time>2020-07-02T18:42:19Z</time>
      </trkpt>
      <trkpt lat="47.83227" lon="1.77139">
        <ele>97.9</ele>
        <time>2020-07-02T18:42:20Z</time>
      </trkpt>
      <trkpt lat="47.83223" lon="1.77134">
        <ele>98</ele>
        <time>2020-07-02T18:42:21Z</time>
      </trkpt>
      <trkpt lat="47.83219" lon="1.77128">
        <ele>98.2</ele>
        <time>2020-07-02T18:42:22Z</time>
      </trkpt>
      <trkpt lat="47.83214" lon="1.77121">
        <ele>98.3</ele>
        <time>2020-07-02T18:42:23Z</time>
      </trkpt>
      <trkpt lat="47.83209" lon="1.77115">
        <ele>98.3</ele>
        <time>2020-07-02T18:42:24Z</time>
      </trkpt>
      <trkpt lat="47.83205" lon="1.7711">
        <ele>98.3</ele>
        <time>2020-07-02T18:42:25Z</time>
      </trkpt>
      <trkpt lat="47.832" lon="1.77104">
        <ele>98.4</ele>
        <time>2020-07-02T18:42:26Z</time>
      </trkpt>
      <trkpt lat="47.83195" lon="1.77097">
        <ele>98.4</ele>
        <time>2020-07-02T18:42:27Z</time>
      </trkpt>
      <trkpt lat="47.8319" lon="1.77091">
        <ele>98.5</ele>
        <time>2020-07-02T18:42:28Z</time>
      </trkpt>
      <trkpt lat="47.83185" lon="1.77086">
        <ele>98.6</ele>
        <time>2020-07-02T18:42:29Z</time>
      </trkpt>
      <trkpt lat="47.83181" lon="1.77081">
        <ele>98.6</ele>
        <time>2020-07-02T18:42:30Z</time>
      </trkpt>
      <trkpt lat="47.83175" lon="1.77073">
        <ele>98.7</ele>
        <time>2020-07-02T18:42:31Z</time>
      </trkpt>
      <trkpt lat="47.8317" lon="1.77066">
        <ele>98.6</ele>
        <time>2020-07-02T18:42:32Z</time>
      </trkpt>
      <trkpt lat="47.83166" lon="1.7706">
        <ele>98.6</ele>
        <time>2020-07-02T18:42:33Z</time>
      </trkpt>
      <trkpt lat="47.83162" lon="1.77054">
        <ele>98.6</ele>
        <time>2020-07-02T18:42:34Z</time>
      </trkpt>
      <trkpt lat="47.83157" lon="1.77047">
        <ele>98.6</ele>
        <time>2020-07-02T18:42:35Z</time>
      </trkpt>
      <trkpt lat="47.83153" lon="1.77042">
        <ele>98.6</ele>
        <time>2020-07-02T18:42:36Z</time>
      </trkpt>
      <trkpt lat="47.83148" lon="1.77036">
        <ele>98.7</ele>
        <time>2020-07-02T18:42:37Z</time>
      </trkpt>
      <trkpt lat="47.83143" lon="1.77029">
        <ele>98.7</ele>
        <time>2020-07-02T18:42:38Z</time>
      </trkpt>
      <trkpt lat="47.83139" lon="1.77023">
        <ele>98.7</ele>
        <time>2020-07-02T18:42:39Z</time>
      </trkpt>
      <trkpt lat="47.83134" lon="1.77017">
        <ele>98.7</ele>
        <time>2020-07-02T18:42:40Z</time>
      </trkpt>
      <trkpt lat="47.8313" lon="1.7701">
        <ele>98.8</ele>
        <time>2020-07-02T18:42:41Z</time>
      </trkpt>
      <trkpt lat="47.83125" lon="1.77003">
        <ele>98.8</ele>
        <time>2020-07-02T18:42:42Z</time>
      </trkpt>
      <trkpt lat="47.8312" lon="1.76997">
        <ele>98.9</ele>
        <time>2020-07-02T18:42:43Z</time>
      </trkpt>
      <trkpt lat="47.83115" lon="1.76991">
        <ele>98.9</ele>
        <time>2020-07-02T18:42:44Z</time>
      </trkpt>
      <trkpt lat="47.8311" lon="1.76984">
        <ele>98.9</ele>
        <time>2020-07-02T18:42:45Z</time>
      </trkpt>
      <trkpt lat="47.83106" lon="1.76978">
        <ele>98.9</ele>
        <time>2020-07-02T18:42:46Z</time>
      </trkpt>
      <trkpt lat="47.83101" lon="1.76972">
        <ele>98.9</ele>
        <time>2020-07-02T18:42:47Z</time>
      </trkpt>
      <trkpt lat="47.83096" lon="1.76966">
        <ele>98.9</ele>
        <time>2020-07-02T18:42:48Z</time>
      </trkpt>
      <trkpt lat="47.8309" lon="1.7696">
        <ele>98.9</ele>
        <time>2020-07-02T18:42:49Z</time>
      </trkpt>
      <trkpt lat="47.83085" lon="1.76953">
        <ele>98.9</ele>
        <time>2020-07-02T18:42:50Z</time>
      </trkpt>
      <trkpt lat="47.8308" lon="1.76947">
        <ele>98.9</ele>
        <time>2020-07-02T18:42:51Z</time>
      </trkpt>
      <trkpt lat="47.83075" lon="1.76939">
        <ele>98.9</ele>
        <time>2020-07-02T18:42:52Z</time>
      </trkpt>
      <trkpt lat="47.8307" lon="1.76933">
        <ele>98.9</ele>
        <time>2020-07-02T18:42:53Z</time>
      </trkpt>
      <trkpt lat="47.83066" lon="1.76925">
        <ele>98.9</ele>
        <time>2020-07-02T18:42:54Z</time>
      </trkpt>
      <trkpt lat="47.83061" lon="1.76918">
        <ele>98.9</ele>
        <time>2020-07-02T18:42:55Z</time>
      </trkpt>
      <trkpt lat="47.83056" lon="1.76911">
        <ele>98.9</ele>
        <time>2020-07-02T18:42:56Z</time>
      </trkpt>
      <trkpt lat="47.83052" lon="1.76904">
        <ele>98.9</ele>
        <time>2020-07-02T18:42:57Z</time>
      </trkpt>
      <trkpt lat="47.83046" lon="1.76897">
        <ele>98.9</ele>
        <time>2020-07-02T18:42:58Z</time>
      </trkpt>
      <trkpt lat="47.83041" lon="1.76889">
        <ele>99</ele>
        <time>2020-07-02T18:42:59Z</time>
      </trkpt>
      <trkpt lat="47.83036" lon="1.76882">
        <ele>99</ele>
        <time>2020-07-02T18:43:00Z</time>
      </trkpt>
      <trkpt lat="47.83031" lon="1.76875">
        <ele>99.1</ele>
        <time>2020-07-02T18:43:01Z</time>
      </trkpt>
      <trkpt lat="47.83026" lon="1.76869">
        <ele>99.2</ele>
        <time>2020-07-02T18:43:02Z</time>
      </trkpt>
      <trkpt lat="47.83021" lon="1.76862">
        <ele>99.2</ele>
        <time>2020-07-02T18:43:03Z</time>
      </trkpt>
      <trkpt lat="47.83016" lon="1.76855">
        <ele>99.1</ele>
        <time>2020-07-02T18:43:04Z</time>
      </trkpt>
      <trkpt lat="47.8301" lon="1.76849">
        <ele>99</ele>
        <time>2020-07-02T18:43:05Z</time>
      </trkpt>
      <trkpt lat="47.83005" lon="1.76842">
        <ele>98.8</ele>
        <time>2020-07-02T18:43:06Z</time>
      </trkpt>
      <trkpt lat="47.82999" lon="1.76835">
        <ele>98.7</ele>
        <time>2020-07-02T18:43:07Z</time>
      </trkpt>
      <trkpt lat="47.82994" lon="1.76828">
        <ele>98.7</ele>
        <time>2020-07-02T18:43:08Z</time>
      </trkpt>
      <trkpt lat="47.82988" lon="1.76821">
        <ele>98.6</ele>
        <time>2020-07-02T18:43:09Z</time>
      </trkpt>
      <trkpt lat="47.82983" lon="1.76815">
        <ele>98.6</ele>
        <time>2020-07-02T18:43:10Z</time>
      </trkpt>
      <trkpt lat="47.82978" lon="1.76808">
        <ele>98.5</ele>
        <time>2020-07-02T18:43:11Z</time>
      </trkpt>
      <trkpt lat="47.82972" lon="1.76802">
        <ele>98.4</ele>
        <time>2020-07-02T18:43:12Z</time>
      </trkpt>
      <trkpt lat="47.82967" lon="1.76795">
        <ele>98.3</ele>
        <time>2020-07-02T18:43:13Z</time>
      </trkpt>
      <trkpt lat="47.82961" lon="1.76788">
        <ele>98.3</ele>
        <time>2020-07-02T18:43:14Z</time>
      </trkpt>
      <trkpt lat="47.82955" lon="1.76781">
        <ele>98.2</ele>
        <time>2020-07-02T18:43:15Z</time>
      </trkpt>
      <trkpt lat="47.8295" lon="1.76774">
        <ele>98.1</ele>
        <time>2020-07-02T18:43:16Z</time>
      </trkpt>
      <trkpt lat="47.82944" lon="1.76767">
        <ele>98</ele>
        <time>2020-07-02T18:43:17Z</time>
      </trkpt>
      <trkpt lat="47.82939" lon="1.76759">
        <ele>97.8</ele>
        <time>2020-07-02T18:43:18Z</time>
      </trkpt>
      <trkpt lat="47.82934" lon="1.76752">
        <ele>97.7</ele>
        <time>2020-07-02T18:43:19Z</time>
      </trkpt>
      <trkpt lat="47.82928" lon="1.76745">
        <ele>97.6</ele>
        <time>2020-07-02T18:43:20Z</time>
      </trkpt>
      <trkpt lat="47.82922" lon="1.76738">
        <ele>97.4</ele>
        <time>2020-07-02T18:43:21Z</time>
      </trkpt>
      <trkpt lat="47.82917" lon="1.76731">
        <ele>97.3</ele>
        <time>2020-07-02T18:43:22Z</time>
      </trkpt>
      <trkpt lat="47.82911" lon="1.76723">
        <ele>97.2</ele>
        <time>2020-07-02T18:43:23Z</time>
      </trkpt>
      <trkpt lat="47.82905" lon="1.76716">
        <ele>97.1</ele>
        <time>2020-07-02T18:43:24Z</time>
      </trkpt>
      <trkpt lat="47.829" lon="1.76708">
        <ele>97</ele>
        <time>2020-07-02T18:43:25Z</time>
      </trkpt>
      <trkpt lat="47.82894" lon="1.767">
        <ele>96.8</ele>
        <time>2020-07-02T18:43:26Z</time>
      </trkpt>
      <trkpt lat="47.82888" lon="1.76692">
        <ele>96.7</ele>
        <time>2020-07-02T18:43:27Z</time>
      </trkpt>
      <trkpt lat="47.82883" lon="1.76684">
        <ele>96.5</ele>
        <time>2020-07-02T18:43:28Z</time>
      </trkpt>
      <trkpt lat="47.82877" lon="1.76676">
        <ele>96.4</ele>
        <time>2020-07-02T18:43:29Z</time>
      </trkpt>
      <trkpt lat="47.82871" lon="1.76668">
        <ele>96.3</ele>
        <time>2020-07-02T18:43:30Z</time>
      </trkpt>
      <trkpt lat="47.82865" lon="1.7666">
        <ele>96.1</ele>
        <time>2020-07-02T18:43:31Z</time>
      </trkpt>
      <trkpt lat="47.8286" lon="1.76652">
        <ele>96</ele>
        <time>2020-07-02T18:43:32Z</time>
      </trkpt>
      <trkpt lat="47.82854" lon="1.76644">
        <ele>95.9</ele>
        <time>2020-07-02T18:43:33Z</time>
      </trkpt>
      <trkpt lat="47.82848" lon="1.76636">
        <ele>95.8</ele>
        <time>2020-07-02T18:43:34Z</time>
      </trkpt>
      <trkpt lat="47.82843" lon="1.76628">
        <ele>95.7</ele>
        <time>2020-07-02T18:43:35Z</time>
      </trkpt>
      <trkpt lat="47.82837" lon="1.7662">
        <ele>95.6</ele>
        <time>2020-07-02T18:43:36Z</time>
      </trkpt>
      <trkpt lat="47.82831" lon="1.76612">
        <ele>95.5</ele>
        <time>2020-07-02T18:43:37Z</time>
      </trkpt>
      <trkpt lat="47.82825" lon="1.76605">
        <ele>95.4</ele>
        <time>2020-07-02T18:43:38Z</time>
      </trkpt>
      <trkpt lat="47.82819" lon="1.76597">
        <ele>95.3</ele>
        <time>2020-07-02T18:43:39Z</time>
      </trkpt>
      <trkpt lat="47.82812" lon="1.7659">
        <ele>95.2</ele>
        <time>2020-07-02T18:43:40Z</time>
      </trkpt>
      <trkpt lat="47.82806" lon="1.76582">
        <ele>95.1</ele>
        <time>2020-07-02T18:43:41Z</time>
      </trkpt>
      <trkpt lat="47.828" lon="1.76574">
        <ele>95</ele>
        <time>2020-07-02T18:43:42Z</time>
      </trkpt>
      <trkpt lat="47.82794" lon="1.76566">
        <ele>94.9</ele>
        <time>2020-07-02T18:43:43Z</time>
      </trkpt>
      <trkpt lat="47.82788" lon="1.76559">
        <ele>94.8</ele>
        <time>2020-07-02T18:43:44Z</time>
      </trkpt>
      <trkpt lat="47.82782" lon="1.76551">
        <ele>94.7</ele>
        <time>2020-07-02T18:43:45Z</time>
      </trkpt>
      <trkpt lat="47.82776" lon="1.76543">
        <ele>94.6</ele>
        <time>2020-07-02T18:43:46Z</time>
      </trkpt>
      <trkpt lat="47.8277" lon="1.76535">
        <ele>94.6</ele>
        <time>2020-07-02T18:43:47Z</time>
      </trkpt>
      <trkpt lat="47.82764" lon="1.76527">
        <ele>94.6</ele>
        <time>2020-07-02T18:43:48Z</time>
      </trkpt>
      <trkpt lat="47.82758" lon="1.76519">
        <ele>94.6</ele>
        <time>2020-07-02T18:43:49Z</time>
      </trkpt>
      <trkpt lat="47.82751" lon="1.76512">
        <ele>94.7</ele>
        <time>2020-07-02T18:43:50Z</time>
      </trkpt>
      <trkpt lat="47.82745" lon="1.76504">
        <ele>94.7</ele>
        <time>2020-07-02T18:43:51Z</time>
      </trkpt>
      <trkpt lat="47.82739" lon="1.76497">
        <ele>94.8</ele>
        <time>2020-07-02T18:43:52Z</time>
      </trkpt>
      <trkpt lat="47.82734" lon="1.76489">
        <ele>94.8</ele>
        <time>2020-07-02T18:43:53Z</time>
      </trkpt>
      <trkpt lat="47.82728" lon="1.76481">
        <ele>94.8</ele>
        <time>2020-07-02T18:43:54Z</time>
      </trkpt>
      <trkpt lat="47.82722" lon="1.76474">
        <ele>94.8</ele>
        <time>2020-07-02T18:43:55Z</time>
      </trkpt>
      <trkpt lat="47.82717" lon="1.76466">
        <ele>94.8</ele>
        <time>2020-07-02T18:43:56Z</time>
      </trkpt>
      <trkpt lat="47.82711" lon="1.76458">
        <ele>94.7</ele>
        <time>2020-07-02T18:43:57Z</time>
      </trkpt>
      <trkpt lat="47.82705" lon="1.76451">
        <ele>94.7</ele>
        <time>2020-07-02T18:43:58Z</time>
      </trkpt>
      <trkpt lat="47.82699" lon="1.76443">
        <ele>94.7</ele>
        <time>2020-07-02T18:43:59Z</time>
      </trkpt>
      <trkpt lat="47.82694" lon="1.76436">
        <ele>94.8</ele>
        <time>2020-07-02T18:44:00Z</time>
      </trkpt>
      <trkpt lat="47.82688" lon="1.76428">
        <ele>94.8</ele>
        <time>2020-07-02T18:44:01Z</time>
      </trkpt>
      <trkpt lat="47.82682" lon="1.76421">
        <ele>94.8</ele>
        <time>2020-07-02T18:44:02Z</time>
      </trkpt>
      <trkpt lat="47.82676" lon="1.76414">
        <ele>94.8</ele>
        <time>2020-07-02T18:44:03Z</time>
      </trkpt>
      <trkpt lat="47.82671" lon="1.76407">
        <ele>94.8</ele>
        <time>2020-07-02T18:44:04Z</time>
      </trkpt>
      <trkpt lat="47.82666" lon="1.764">
        <ele>94.8</ele>
        <time>2020-07-02T18:44:05Z</time>
      </trkpt>
      <trkpt lat="47.8266" lon="1.76392">
        <ele>94.8</ele>
        <time>2020-07-02T18:44:06Z</time>
      </trkpt>
      <trkpt lat="47.82654" lon="1.76385">
        <ele>94.8</ele>
        <time>2020-07-02T18:44:07Z</time>
      </trkpt>
      <trkpt lat="47.82649" lon="1.76378">
        <ele>94.7</ele>
        <time>2020-07-02T18:44:08Z</time>
      </trkpt>
      <trkpt lat="47.82644" lon="1.76371">
        <ele>94.7</ele>
        <time>2020-07-02T18:44:09Z</time>
      </trkpt>
      <trkpt lat="47.82638" lon="1.76364">
        <ele>94.8</ele>
        <time>2020-07-02T18:44:10Z</time>
      </trkpt>
      <trkpt lat="47.82633" lon="1.76356">
        <ele>94.8</ele>
        <time>2020-07-02T18:44:11Z</time>
      </trkpt>
      <trkpt lat="47.82628" lon="1.76349">
        <ele>94.9</ele>
        <time>2020-07-02T18:44:12Z</time>
      </trkpt>
      <trkpt lat="47.82622" lon="1.76342">
        <ele>95</ele>
        <time>2020-07-02T18:44:13Z</time>
      </trkpt>
      <trkpt lat="47.82617" lon="1.76334">
        <ele>95</ele>
        <time>2020-07-02T18:44:14Z</time>
      </trkpt>
      <trkpt lat="47.82611" lon="1.76327">
        <ele>95.1</ele>
        <time>2020-07-02T18:44:15Z</time>
      </trkpt>
      <trkpt lat="47.82606" lon="1.7632">
        <ele>95.2</ele>
        <time>2020-07-02T18:44:16Z</time>
      </trkpt>
      <trkpt lat="47.82601" lon="1.76314">
        <ele>95.2</ele>
        <time>2020-07-02T18:44:17Z</time>
      </trkpt>
      <trkpt lat="47.82596" lon="1.76308">
        <ele>95.3</ele>
        <time>2020-07-02T18:44:18Z</time>
      </trkpt>
      <trkpt lat="47.82591" lon="1.76301">
        <ele>95.3</ele>
        <time>2020-07-02T18:44:19Z</time>
      </trkpt>
      <trkpt lat="47.82586" lon="1.76294">
        <ele>95.4</ele>
        <time>2020-07-02T18:44:20Z</time>
      </trkpt>
      <trkpt lat="47.82581" lon="1.76288">
        <ele>95.4</ele>
        <time>2020-07-02T18:44:21Z</time>
      </trkpt>
      <trkpt lat="47.82576" lon="1.76282">
        <ele>95.5</ele>
        <time>2020-07-02T18:44:22Z</time>
      </trkpt>
      <trkpt lat="47.82571" lon="1.76276">
        <ele>95.7</ele>
        <time>2020-07-02T18:44:23Z</time>
      </trkpt>
      <trkpt lat="47.82567" lon="1.7627">
        <ele>95.8</ele>
        <time>2020-07-02T18:44:24Z</time>
      </trkpt>
      <trkpt lat="47.82562" lon="1.76263">
        <ele>95.8</ele>
        <time>2020-07-02T18:44:25Z</time>
      </trkpt>
      <trkpt lat="47.82557" lon="1.76257">
        <ele>95.9</ele>
        <time>2020-07-02T18:44:26Z</time>
      </trkpt>
      <trkpt lat="47.82552" lon="1.7625">
        <ele>95.9</ele>
        <time>2020-07-02T18:44:27Z</time>
      </trkpt>
      <trkpt lat="47.82547" lon="1.76243">
        <ele>96</ele>
        <time>2020-07-02T18:44:28Z</time>
      </trkpt>
      <trkpt lat="47.82541" lon="1.76236">
        <ele>96</ele>
        <time>2020-07-02T18:44:29Z</time>
      </trkpt>
      <trkpt lat="47.82536" lon="1.76229">
        <ele>96.1</ele>
        <time>2020-07-02T18:44:30Z</time>
      </trkpt>
      <trkpt lat="47.82531" lon="1.76222">
        <ele>96.2</ele>
        <time>2020-07-02T18:44:31Z</time>
      </trkpt>
      <trkpt lat="47.82526" lon="1.76216">
        <ele>96.3</ele>
        <time>2020-07-02T18:44:32Z</time>
      </trkpt>
      <trkpt lat="47.82521" lon="1.76209">
        <ele>96.4</ele>
        <time>2020-07-02T18:44:33Z</time>
      </trkpt>
      <trkpt lat="47.82516" lon="1.76203">
        <ele>96.4</ele>
        <time>2020-07-02T18:44:34Z</time>
      </trkpt>
      <trkpt lat="47.82511" lon="1.76196">
        <ele>96.5</ele>
        <time>2020-07-02T18:44:35Z</time>
      </trkpt>
      <trkpt lat="47.82507" lon="1.7619">
        <ele>96.6</ele>
        <time>2020-07-02T18:44:36Z</time>
      </trkpt>
      <trkpt lat="47.82502" lon="1.76184">
        <ele>96.6</ele>
        <time>2020-07-02T18:44:37Z</time>
      </trkpt>
      <trkpt lat="47.82497" lon="1.76178">
        <ele>96.7</ele>
        <time>2020-07-02T18:44:38Z</time>
      </trkpt>
      <trkpt lat="47.82493" lon="1.76171">
        <ele>96.9</ele>
        <time>2020-07-02T18:44:39Z</time>
      </trkpt>
      <trkpt lat="47.82488" lon="1.76164">
        <ele>97</ele>
        <time>2020-07-02T18:44:40Z</time>
      </trkpt>
      <trkpt lat="47.82483" lon="1.76158">
        <ele>97.1</ele>
        <time>2020-07-02T18:44:41Z</time>
      </trkpt>
      <trkpt lat="47.82479" lon="1.76151">
        <ele>97.2</ele>
        <time>2020-07-02T18:44:42Z</time>
      </trkpt>
      <trkpt lat="47.82474" lon="1.76145">
        <ele>97.3</ele>
        <time>2020-07-02T18:44:43Z</time>
      </trkpt>
      <trkpt lat="47.82469" lon="1.76138">
        <ele>97.4</ele>
        <time>2020-07-02T18:44:44Z</time>
      </trkpt>
      <trkpt lat="47.82465" lon="1.76132">
        <ele>97.5</ele>
        <time>2020-07-02T18:44:45Z</time>
      </trkpt>
      <trkpt lat="47.8246" lon="1.76126">
        <ele>97.6</ele>
        <time>2020-07-02T18:44:46Z</time>
      </trkpt>
      <trkpt lat="47.82456" lon="1.7612">
        <ele>97.6</ele>
        <time>2020-07-02T18:44:47Z</time>
      </trkpt>
      <trkpt lat="47.82451" lon="1.76114">
        <ele>97.6</ele>
        <time>2020-07-02T18:44:48Z</time>
      </trkpt>
      <trkpt lat="47.82447" lon="1.76107">
        <ele>97.6</ele>
        <time>2020-07-02T18:44:49Z</time>
      </trkpt>
      <trkpt lat="47.82442" lon="1.76101">
        <ele>97.6</ele>
        <time>2020-07-02T18:44:50Z</time>
      </trkpt>
      <trkpt lat="47.82438" lon="1.76095">
        <ele>97.6</ele>
        <time>2020-07-02T18:44:51Z</time>
      </trkpt>
      <trkpt lat="47.82433" lon="1.76089">
        <ele>97.5</ele>
        <time>2020-07-02T18:44:52Z</time>
      </trkpt>
      <trkpt lat="47.82429" lon="1.76083">
        <ele>97.4</ele>
        <time>2020-07-02T18:44:53Z</time>
      </trkpt>
      <trkpt lat="47.82424" lon="1.76077">
        <ele>97.3</ele>
        <time>2020-07-02T18:44:54Z</time>
      </trkpt>
      <trkpt lat="47.8242" lon="1.76069">
        <ele>97.1</ele>
        <time>2020-07-02T18:44:55Z</time>
      </trkpt>
      <trkpt lat="47.82417" lon="1.76063">
        <ele>97</ele>
        <time>2020-07-02T18:44:56Z</time>
      </trkpt>
      <trkpt lat="47.82413" lon="1.76055">
        <ele>96.8</ele>
        <time>2020-07-02T18:44:57Z</time>
      </trkpt>
      <trkpt lat="47.82409" lon="1.76047">
        <ele>96.7</ele>
        <time>2020-07-02T18:44:58Z</time>
      </trkpt>
      <trkpt lat="47.82403" lon="1.76038">
        <ele>96.7</ele>
        <time>2020-07-02T18:44:59Z</time>
      </trkpt>
      <trkpt lat="47.824" lon="1.76029">
        <ele>96.6</ele>
        <time>2020-07-02T18:45:00Z</time>
      </trkpt>
      <trkpt lat="47.82395" lon="1.7602">
        <ele>96.5</ele>
        <time>2020-07-02T18:45:01Z</time>
      </trkpt>
      <trkpt lat="47.82391" lon="1.76011">
        <ele>96.4</ele>
        <time>2020-07-02T18:45:02Z</time>
      </trkpt>
      <trkpt lat="47.82387" lon="1.76002">
        <ele>96.2</ele>
        <time>2020-07-02T18:45:03Z</time>
      </trkpt>
      <trkpt lat="47.82384" lon="1.75996">
        <ele>96.1</ele>
        <time>2020-07-02T18:45:04Z</time>
      </trkpt>
      <trkpt lat="47.82379" lon="1.75987">
        <ele>96</ele>
        <time>2020-07-02T18:45:05Z</time>
      </trkpt>
      <trkpt lat="47.82375" lon="1.75978">
        <ele>95.9</ele>
        <time>2020-07-02T18:45:06Z</time>
      </trkpt>
      <trkpt lat="47.82371" lon="1.75969">
        <ele>95.8</ele>
        <time>2020-07-02T18:45:07Z</time>
      </trkpt>
      <trkpt lat="47.82366" lon="1.75961">
        <ele>95.7</ele>
        <time>2020-07-02T18:45:08Z</time>
      </trkpt>
      <trkpt lat="47.82362" lon="1.75952">
        <ele>95.7</ele>
        <time>2020-07-02T18:45:09Z</time>
      </trkpt>
      <trkpt lat="47.82357" lon="1.75944">
        <ele>95.7</ele>
        <time>2020-07-02T18:45:10Z</time>
      </trkpt>
      <trkpt lat="47.82353" lon="1.75936">
        <ele>95.6</ele>
        <time>2020-07-02T18:45:11Z</time>
      </trkpt>
      <trkpt lat="47.82349" lon="1.75928">
        <ele>95.6</ele>
        <time>2020-07-02T18:45:12Z</time>
      </trkpt>
      <trkpt lat="47.82344" lon="1.7592">
        <ele>95.6</ele>
        <time>2020-07-02T18:45:13Z</time>
      </trkpt>
      <trkpt lat="47.8234" lon="1.75912">
        <ele>95.5</ele>
        <time>2020-07-02T18:45:14Z</time>
      </trkpt>
      <trkpt lat="47.82336" lon="1.75905">
        <ele>95.4</ele>
        <time>2020-07-02T18:45:15Z</time>
      </trkpt>
      <trkpt lat="47.82331" lon="1.75897">
        <ele>95.4</ele>
        <time>2020-07-02T18:45:16Z</time>
      </trkpt>
      <trkpt lat="47.82327" lon="1.7589">
        <ele>95.3</ele>
        <time>2020-07-02T18:45:17Z</time>
      </trkpt>
      <trkpt lat="47.82322" lon="1.75883">
        <ele>95.3</ele>
        <time>2020-07-02T18:45:18Z</time>
      </trkpt>
      <trkpt lat="47.82317" lon="1.75877">
        <ele>95.2</ele>
        <time>2020-07-02T18:45:19Z</time>
      </trkpt>
      <trkpt lat="47.82313" lon="1.7587">
        <ele>95.2</ele>
        <time>2020-07-02T18:45:20Z</time>
      </trkpt>
      <trkpt lat="47.82308" lon="1.75863">
        <ele>95.1</ele>
        <time>2020-07-02T18:45:21Z</time>
      </trkpt>
      <trkpt lat="47.82303" lon="1.75857">
        <ele>95.1</ele>
        <time>2020-07-02T18:45:22Z</time>
      </trkpt>
      <trkpt lat="47.82298" lon="1.7585">
        <ele>95.2</ele>
        <time>2020-07-02T18:45:23Z</time>
      </trkpt>
      <trkpt lat="47.82294" lon="1.75845">
        <ele>95.2</ele>
        <time>2020-07-02T18:45:24Z</time>
      </trkpt>
      <trkpt lat="47.82289" lon="1.75839">
        <ele>95.3</ele>
        <time>2020-07-02T18:45:25Z</time>
      </trkpt>
      <trkpt lat="47.82284" lon="1.75832">
        <ele>95.4</ele>
        <time>2020-07-02T18:45:26Z</time>
      </trkpt>
      <trkpt lat="47.82279" lon="1.75826">
        <ele>95.4</ele>
        <time>2020-07-02T18:45:27Z</time>
      </trkpt>
      <trkpt lat="47.82274" lon="1.75819">
        <ele>95.5</ele>
        <time>2020-07-02T18:45:28Z</time>
      </trkpt>
      <trkpt lat="47.82269" lon="1.75812">
        <ele>95.6</ele>
        <time>2020-07-02T18:45:29Z</time>
      </trkpt>
      <trkpt lat="47.82264" lon="1.75805">
        <ele>95.5</ele>
        <time>2020-07-02T18:45:30Z</time>
      </trkpt>
      <trkpt lat="47.8226" lon="1.75798">
        <ele>95.5</ele>
        <time>2020-07-02T18:45:31Z</time>
      </trkpt>
      <trkpt lat="47.82256" lon="1.7579">
        <ele>95.4</ele>
        <time>2020-07-02T18:45:32Z</time>
      </trkpt>
      <trkpt lat="47.82252" lon="1.75782">
        <ele>95.2</ele>
        <time>2020-07-02T18:45:33Z</time>
      </trkpt>
      <trkpt lat="47.82247" lon="1.75775">
        <ele>95.1</ele>
        <time>2020-07-02T18:45:34Z</time>
      </trkpt>
      <trkpt lat="47.82242" lon="1.75767">
        <ele>95</ele>
        <time>2020-07-02T18:45:35Z</time>
      </trkpt>
      <trkpt lat="47.82237" lon="1.7576">
        <ele>94.9</ele>
        <time>2020-07-02T18:45:36Z</time>
      </trkpt>
      <trkpt lat="47.82233" lon="1.75752">
        <ele>94.8</ele>
        <time>2020-07-02T18:45:37Z</time>
      </trkpt>
      <trkpt lat="47.82228" lon="1.75744">
        <ele>94.7</ele>
        <time>2020-07-02T18:45:38Z</time>
      </trkpt>
      <trkpt lat="47.82224" lon="1.75736">
        <ele>94.6</ele>
        <time>2020-07-02T18:45:39Z</time>
      </trkpt>
      <trkpt lat="47.82219" lon="1.75728">
        <ele>94.6</ele>
        <time>2020-07-02T18:45:40Z</time>
      </trkpt>
      <trkpt lat="47.82214" lon="1.7572">
        <ele>94.5</ele>
        <time>2020-07-02T18:45:41Z</time>
      </trkpt>
      <trkpt lat="47.82209" lon="1.75712">
        <ele>94.5</ele>
        <time>2020-07-02T18:45:42Z</time>
      </trkpt>
      <trkpt lat="47.82204" lon="1.75705">
        <ele>94.4</ele>
        <time>2020-07-02T18:45:43Z</time>
      </trkpt>
      <trkpt lat="47.82199" lon="1.75698">
        <ele>94.3</ele>
        <time>2020-07-02T18:45:44Z</time>
      </trkpt>
      <trkpt lat="47.82195" lon="1.7569">
        <ele>94.3</ele>
        <time>2020-07-02T18:45:45Z</time>
      </trkpt>
      <trkpt lat="47.82191" lon="1.75682">
        <ele>94.3</ele>
        <time>2020-07-02T18:45:46Z</time>
      </trkpt>
      <trkpt lat="47.82186" lon="1.75675">
        <ele>94.3</ele>
        <time>2020-07-02T18:45:47Z</time>
      </trkpt>
      <trkpt lat="47.82182" lon="1.75668">
        <ele>94.2</ele>
        <time>2020-07-02T18:45:48Z</time>
      </trkpt>
      <trkpt lat="47.82177" lon="1.7566">
        <ele>94.2</ele>
        <time>2020-07-02T18:45:49Z</time>
      </trkpt>
      <trkpt lat="47.82171" lon="1.75654">
        <ele>94.1</ele>
        <time>2020-07-02T18:45:50Z</time>
      </trkpt>
      <trkpt lat="47.82166" lon="1.75647">
        <ele>94.1</ele>
        <time>2020-07-02T18:45:51Z</time>
      </trkpt>
      <trkpt lat="47.8216" lon="1.75641">
        <ele>94.1</ele>
        <time>2020-07-02T18:45:52Z</time>
      </trkpt>
      <trkpt lat="47.82154" lon="1.75634">
        <ele>94</ele>
        <time>2020-07-02T18:45:53Z</time>
      </trkpt>
      <trkpt lat="47.82149" lon="1.75627">
        <ele>94</ele>
        <time>2020-07-02T18:45:54Z</time>
      </trkpt>
      <trkpt lat="47.82143" lon="1.75621">
        <ele>94.1</ele>
        <time>2020-07-02T18:45:55Z</time>
      </trkpt>
      <trkpt lat="47.82138" lon="1.75614">
        <ele>94.1</ele>
        <time>2020-07-02T18:45:56Z</time>
      </trkpt>
      <trkpt lat="47.82134" lon="1.75607">
        <ele>94.2</ele>
        <time>2020-07-02T18:45:57Z</time>
      </trkpt>
      <trkpt lat="47.82128" lon="1.75601">
        <ele>94.3</ele>
        <time>2020-07-02T18:45:58Z</time>
      </trkpt>
      <trkpt lat="47.82123" lon="1.75595">
        <ele>94.3</ele>
        <time>2020-07-02T18:45:59Z</time>
      </trkpt>
      <trkpt lat="47.82118" lon="1.75589">
        <ele>94.4</ele>
        <time>2020-07-02T18:46:00Z</time>
      </trkpt>
      <trkpt lat="47.82113" lon="1.75585">
        <ele>94.5</ele>
        <time>2020-07-02T18:46:01Z</time>
      </trkpt>
      <trkpt lat="47.82107" lon="1.7558">
        <ele>94.6</ele>
        <time>2020-07-02T18:46:02Z</time>
      </trkpt>
      <trkpt lat="47.82103" lon="1.75575">
        <ele>94.6</ele>
        <time>2020-07-02T18:46:03Z</time>
      </trkpt>
      <trkpt lat="47.82099" lon="1.75571">
        <ele>94.7</ele>
        <time>2020-07-02T18:46:04Z</time>
      </trkpt>
      <trkpt lat="47.82095" lon="1.75566">
        <ele>94.7</ele>
        <time>2020-07-02T18:46:05Z</time>
      </trkpt>
      <trkpt lat="47.8209" lon="1.75562">
        <ele>94.8</ele>
        <time>2020-07-02T18:46:06Z</time>
      </trkpt>
      <trkpt lat="47.82086" lon="1.75557">
        <ele>94.9</ele>
        <time>2020-07-02T18:46:07Z</time>
      </trkpt>
      <trkpt lat="47.82083" lon="1.75552">
        <ele>94.9</ele>
        <time>2020-07-02T18:46:08Z</time>
      </trkpt>
      <trkpt lat="47.8208" lon="1.75548">
        <ele>95</ele>
        <time>2020-07-02T18:46:09Z</time>
      </trkpt>
      <trkpt lat="47.82076" lon="1.75546">
        <ele>95</ele>
        <time>2020-07-02T18:46:10Z</time>
      </trkpt>
      <trkpt lat="47.82072" lon="1.75543">
        <ele>95</ele>
        <time>2020-07-02T18:46:11Z</time>
      </trkpt>
      <trkpt lat="47.82069" lon="1.75538">
        <ele>94.9</ele>
        <time>2020-07-02T18:46:12Z</time>
      </trkpt>
      <trkpt lat="47.82065" lon="1.75534">
        <ele>94.9</ele>
        <time>2020-07-02T18:46:13Z</time>
      </trkpt>
      <trkpt lat="47.82061" lon="1.75529">
        <ele>94.8</ele>
        <time>2020-07-02T18:46:14Z</time>
      </trkpt>
      <trkpt lat="47.82057" lon="1.75525">
        <ele>94.8</ele>
        <time>2020-07-02T18:46:15Z</time>
      </trkpt>
      <trkpt lat="47.82053" lon="1.7552">
        <ele>94.7</ele>
        <time>2020-07-02T18:46:16Z</time>
      </trkpt>
      <trkpt lat="47.82049" lon="1.75514">
        <ele>94.6</ele>
        <time>2020-07-02T18:46:17Z</time>
      </trkpt>
      <trkpt lat="47.82045" lon="1.75508">
        <ele>94.6</ele>
        <time>2020-07-02T18:46:18Z</time>
      </trkpt>
      <trkpt lat="47.8204" lon="1.75503">
        <ele>94.5</ele>
        <time>2020-07-02T18:46:19Z</time>
      </trkpt>
      <trkpt lat="47.82036" lon="1.75497">
        <ele>94.5</ele>
        <time>2020-07-02T18:46:20Z</time>
      </trkpt>
      <trkpt lat="47.82032" lon="1.75491">
        <ele>94.5</ele>
        <time>2020-07-02T18:46:21Z</time>
      </trkpt>
      <trkpt lat="47.82027" lon="1.75487">
        <ele>94.4</ele>
        <time>2020-07-02T18:46:22Z</time>
      </trkpt>
      <trkpt lat="47.82023" lon="1.75482">
        <ele>94.4</ele>
        <time>2020-07-02T18:46:23Z</time>
      </trkpt>
      <trkpt lat="47.82019" lon="1.75477">
        <ele>94.3</ele>
        <time>2020-07-02T18:46:24Z</time>
      </trkpt>
      <trkpt lat="47.82016" lon="1.75471">
        <ele>94.3</ele>
        <time>2020-07-02T18:46:25Z</time>
      </trkpt>
      <trkpt lat="47.82011" lon="1.75467">
        <ele>94.3</ele>
        <time>2020-07-02T18:46:26Z</time>
      </trkpt>
      <trkpt lat="47.82006" lon="1.75462">
        <ele>94.2</ele>
        <time>2020-07-02T18:46:27Z</time>
      </trkpt>
      <trkpt lat="47.82002" lon="1.75457">
        <ele>94.1</ele>
        <time>2020-07-02T18:46:28Z</time>
      </trkpt>
      <trkpt lat="47.81998" lon="1.75452">
        <ele>93.9</ele>
        <time>2020-07-02T18:46:29Z</time>
      </trkpt>
      <trkpt lat="47.81995" lon="1.75449">
        <ele>93.8</ele>
        <time>2020-07-02T18:46:30Z</time>
      </trkpt>
      <trkpt lat="47.81991" lon="1.75443">
        <ele>93.7</ele>
        <time>2020-07-02T18:46:31Z</time>
      </trkpt>
      <trkpt lat="47.81986" lon="1.75438">
        <ele>93.6</ele>
        <time>2020-07-02T18:46:32Z</time>
      </trkpt>
      <trkpt lat="47.8198" lon="1.75431">
        <ele>93.4</ele>
        <time>2020-07-02T18:46:33Z</time>
      </trkpt>
      <trkpt lat="47.81974" lon="1.75424">
        <ele>93.3</ele>
        <time>2020-07-02T18:46:34Z</time>
      </trkpt>
      <trkpt lat="47.81967" lon="1.75417">
        <ele>93.1</ele>
        <time>2020-07-02T18:46:35Z</time>
      </trkpt>
      <trkpt lat="47.81961" lon="1.7541">
        <ele>93.1</ele>
        <time>2020-07-02T18:46:36Z</time>
      </trkpt>
      <trkpt lat="47.81956" lon="1.75404">
        <ele>93</ele>
        <time>2020-07-02T18:46:37Z</time>
      </trkpt>
      <trkpt lat="47.8195" lon="1.75398">
        <ele>93</ele>
        <time>2020-07-02T18:46:38Z</time>
      </trkpt>
      <trkpt lat="47.81945" lon="1.75393">
        <ele>93</ele>
        <time>2020-07-02T18:46:39Z</time>
      </trkpt>
      <trkpt lat="47.8194" lon="1.75387">
        <ele>93</ele>
        <time>2020-07-02T18:46:40Z</time>
      </trkpt>
      <trkpt lat="47.81936" lon="1.75381">
        <ele>93</ele>
        <time>2020-07-02T18:46:41Z</time>
      </trkpt>
      <trkpt lat="47.81931" lon="1.75375">
        <ele>93</ele>
        <time>2020-07-02T18:46:42Z</time>
      </trkpt>
      <trkpt lat="47.81926" lon="1.75368">
        <ele>92.9</ele>
        <time>2020-07-02T18:46:43Z</time>
      </trkpt>
      <trkpt lat="47.81921" lon="1.75363">
        <ele>92.9</ele>
        <time>2020-07-02T18:46:44Z</time>
      </trkpt>
      <trkpt lat="47.81917" lon="1.75356">
        <ele>92.9</ele>
        <time>2020-07-02T18:46:45Z</time>
      </trkpt>
      <trkpt lat="47.81911" lon="1.7535">
        <ele>92.8</ele>
        <time>2020-07-02T18:46:46Z</time>
      </trkpt>
      <trkpt lat="47.81906" lon="1.75344">
        <ele>92.7</ele>
        <time>2020-07-02T18:46:47Z</time>
      </trkpt>
      <trkpt lat="47.81901" lon="1.75338">
        <ele>92.6</ele>
        <time>2020-07-02T18:46:48Z</time>
      </trkpt>
      <trkpt lat="47.81895" lon="1.75333">
        <ele>92.5</ele>
        <time>2020-07-02T18:46:49Z</time>
      </trkpt>
      <trkpt lat="47.8189" lon="1.75326">
        <ele>92.4</ele>
        <time>2020-07-02T18:46:50Z</time>
      </trkpt>
      <trkpt lat="47.81884" lon="1.7532">
        <ele>92.3</ele>
        <time>2020-07-02T18:46:51Z</time>
      </trkpt>
      <trkpt lat="47.81879" lon="1.75315">
        <ele>92.2</ele>
        <time>2020-07-02T18:46:52Z</time>
      </trkpt>
      <trkpt lat="47.81874" lon="1.75309">
        <ele>92.1</ele>
        <time>2020-07-02T18:46:53Z</time>
      </trkpt>
      <trkpt lat="47.81868" lon="1.75303">
        <ele>92</ele>
        <time>2020-07-02T18:46:54Z</time>
      </trkpt>
      <trkpt lat="47.81862" lon="1.75296">
        <ele>91.8</ele>
        <time>2020-07-02T18:46:55Z</time>
      </trkpt>
      <trkpt lat="47.81857" lon="1.7529">
        <ele>91.7</ele>
        <time>2020-07-02T18:46:56Z</time>
      </trkpt>
      <trkpt lat="47.81851" lon="1.75282">
        <ele>91.6</ele>
        <time>2020-07-02T18:46:57Z</time>
      </trkpt>
      <trkpt lat="47.81845" lon="1.75275">
        <ele>91.5</ele>
        <time>2020-07-02T18:46:58Z</time>
      </trkpt>
      <trkpt lat="47.8184" lon="1.75268">
        <ele>91.4</ele>
        <time>2020-07-02T18:46:59Z</time>
      </trkpt>
      <trkpt lat="47.81834" lon="1.75262">
        <ele>91.3</ele>
        <time>2020-07-02T18:47:00Z</time>
      </trkpt>
      <trkpt lat="47.81828" lon="1.75255">
        <ele>91.2</ele>
        <time>2020-07-02T18:47:01Z</time>
      </trkpt>
      <trkpt lat="47.81823" lon="1.75249">
        <ele>91.1</ele>
        <time>2020-07-02T18:47:02Z</time>
      </trkpt>
      <trkpt lat="47.81817" lon="1.75242">
        <ele>91</ele>
        <time>2020-07-02T18:47:03Z</time>
      </trkpt>
      <trkpt lat="47.81811" lon="1.75236">
        <ele>90.9</ele>
        <time>2020-07-02T18:47:04Z</time>
      </trkpt>
      <trkpt lat="47.81805" lon="1.75229">
        <ele>90.8</ele>
        <time>2020-07-02T18:47:05Z</time>
      </trkpt>
      <trkpt lat="47.81799" lon="1.75223">
        <ele>90.7</ele>
        <time>2020-07-02T18:47:06Z</time>
      </trkpt>
      <trkpt lat="47.81793" lon="1.75217">
        <ele>90.6</ele>
        <time>2020-07-02T18:47:07Z</time>
      </trkpt>
      <trkpt lat="47.81788" lon="1.7521">
        <ele>90.5</ele>
        <time>2020-07-02T18:47:08Z</time>
      </trkpt>
      <trkpt lat="47.81782" lon="1.75203">
        <ele>90.4</ele>
        <time>2020-07-02T18:47:09Z</time>
      </trkpt>
      <trkpt lat="47.81776" lon="1.75197">
        <ele>90.2</ele>
        <time>2020-07-02T18:47:10Z</time>
      </trkpt>
      <trkpt lat="47.8177" lon="1.75191">
        <ele>90.1</ele>
        <time>2020-07-02T18:47:11Z</time>
      </trkpt>
      <trkpt lat="47.81764" lon="1.75185">
        <ele>90</ele>
        <time>2020-07-02T18:47:12Z</time>
      </trkpt>
      <trkpt lat="47.81757" lon="1.7518">
        <ele>90</ele>
        <time>2020-07-02T18:47:13Z</time>
      </trkpt>
      <trkpt lat="47.81751" lon="1.75176">
        <ele>89.9</ele>
        <time>2020-07-02T18:47:14Z</time>
      </trkpt>
      <trkpt lat="47.81745" lon="1.75172">
        <ele>89.7</ele>
        <time>2020-07-02T18:47:15Z</time>
      </trkpt>
      <trkpt lat="47.81738" lon="1.75169">
        <ele>89.6</ele>
        <time>2020-07-02T18:47:16Z</time>
      </trkpt>
      <trkpt lat="47.81732" lon="1.75164">
        <ele>89.5</ele>
        <time>2020-07-02T18:47:17Z</time>
      </trkpt>
      <trkpt lat="47.81725" lon="1.75159">
        <ele>89.4</ele>
        <time>2020-07-02T18:47:18Z</time>
      </trkpt>
      <trkpt lat="47.81718" lon="1.75155">
        <ele>89.3</ele>
        <time>2020-07-02T18:47:19Z</time>
      </trkpt>
      <trkpt lat="47.81711" lon="1.7515">
        <ele>89.2</ele>
        <time>2020-07-02T18:47:20Z</time>
      </trkpt>
      <trkpt lat="47.81705" lon="1.75144">
        <ele>89.2</ele>
        <time>2020-07-02T18:47:21Z</time>
      </trkpt>
      <trkpt lat="47.81698" lon="1.75139">
        <ele>89.1</ele>
        <time>2020-07-02T18:47:22Z</time>
      </trkpt>
      <trkpt lat="47.81691" lon="1.75135">
        <ele>89</ele>
        <time>2020-07-02T18:47:23Z</time>
      </trkpt>
      <trkpt lat="47.81685" lon="1.7513">
        <ele>88.9</ele>
        <time>2020-07-02T18:47:24Z</time>
      </trkpt>
      <trkpt lat="47.81678" lon="1.75125">
        <ele>88.9</ele>
        <time>2020-07-02T18:47:25Z</time>
      </trkpt>
      <trkpt lat="47.81671" lon="1.7512">
        <ele>88.9</ele>
        <time>2020-07-02T18:47:26Z</time>
      </trkpt>
      <trkpt lat="47.81664" lon="1.75114">
        <ele>88.9</ele>
        <time>2020-07-02T18:47:27Z</time>
      </trkpt>
      <trkpt lat="47.81657" lon="1.75108">
        <ele>88.9</ele>
        <time>2020-07-02T18:47:28Z</time>
      </trkpt>
      <trkpt lat="47.8165" lon="1.75102">
        <ele>89</ele>
        <time>2020-07-02T18:47:29Z</time>
      </trkpt>
      <trkpt lat="47.81644" lon="1.75095">
        <ele>89</ele>
        <time>2020-07-02T18:47:30Z</time>
      </trkpt>
      <trkpt lat="47.81638" lon="1.75088">
        <ele>89</ele>
        <time>2020-07-02T18:47:31Z</time>
      </trkpt>
      <trkpt lat="47.81632" lon="1.75081">
        <ele>89.1</ele>
        <time>2020-07-02T18:47:32Z</time>
      </trkpt>
      <trkpt lat="47.81626" lon="1.75074">
        <ele>89.2</ele>
        <time>2020-07-02T18:47:33Z</time>
      </trkpt>
      <trkpt lat="47.8162" lon="1.75068">
        <ele>89.3</ele>
        <time>2020-07-02T18:47:34Z</time>
      </trkpt>
      <trkpt lat="47.81614" lon="1.7506">
        <ele>89.4</ele>
        <time>2020-07-02T18:47:35Z</time>
      </trkpt>
      <trkpt lat="47.81608" lon="1.75054">
        <ele>89.4</ele>
        <time>2020-07-02T18:47:36Z</time>
      </trkpt>
      <trkpt lat="47.81603" lon="1.75047">
        <ele>89.5</ele>
        <time>2020-07-02T18:47:37Z</time>
      </trkpt>
      <trkpt lat="47.81597" lon="1.7504">
        <ele>89.4</ele>
        <time>2020-07-02T18:47:38Z</time>
      </trkpt>
      <trkpt lat="47.81592" lon="1.75032">
        <ele>89.4</ele>
        <time>2020-07-02T18:47:39Z</time>
      </trkpt>
      <trkpt lat="47.81586" lon="1.75025">
        <ele>89</ele>
        <time>2020-07-02T18:47:40Z</time>
      </trkpt>
      <trkpt lat="47.81581" lon="1.75016">
        <ele>88.9</ele>
        <time>2020-07-02T18:47:41Z</time>
      </trkpt>
      <trkpt lat="47.81575" lon="1.75009">
        <ele>88.9</ele>
        <time>2020-07-02T18:47:42Z</time>
      </trkpt>
      <trkpt lat="47.81569" lon="1.75002">
        <ele>88.9</ele>
        <time>2020-07-02T18:47:43Z</time>
      </trkpt>
      <trkpt lat="47.81564" lon="1.74995">
        <ele>88.9</ele>
        <time>2020-07-02T18:47:44Z</time>
      </trkpt>
      <trkpt lat="47.81558" lon="1.74988">
        <ele>88.9</ele>
        <time>2020-07-02T18:47:45Z</time>
      </trkpt>
      <trkpt lat="47.81552" lon="1.7498">
        <ele>88.9</ele>
        <time>2020-07-02T18:47:46Z</time>
      </trkpt>
      <trkpt lat="47.81546" lon="1.74973">
        <ele>88.9</ele>
        <time>2020-07-02T18:47:47Z</time>
      </trkpt>
      <trkpt lat="47.81541" lon="1.74965">
        <ele>88.9</ele>
        <time>2020-07-02T18:47:48Z</time>
      </trkpt>
      <trkpt lat="47.81535" lon="1.74957">
        <ele>88.9</ele>
        <time>2020-07-02T18:47:49Z</time>
      </trkpt>
      <trkpt lat="47.8153" lon="1.74949">
        <ele>88.9</ele>
        <time>2020-07-02T18:47:50Z</time>
      </trkpt>
      <trkpt lat="47.81524" lon="1.74941">
        <ele>88.9</ele>
        <time>2020-07-02T18:47:51Z</time>
      </trkpt>
      <trkpt lat="47.81519" lon="1.74934">
        <ele>88.9</ele>
        <time>2020-07-02T18:47:52Z</time>
      </trkpt>
      <trkpt lat="47.81514" lon="1.74927">
        <ele>89</ele>
        <time>2020-07-02T18:47:53Z</time>
      </trkpt>
      <trkpt lat="47.81508" lon="1.7492">
        <ele>89.1</ele>
        <time>2020-07-02T18:47:54Z</time>
      </trkpt>
      <trkpt lat="47.81502" lon="1.74914">
        <ele>89.2</ele>
        <time>2020-07-02T18:47:55Z</time>
      </trkpt>
      <trkpt lat="47.81497" lon="1.74907">
        <ele>89.2</ele>
        <time>2020-07-02T18:47:56Z</time>
      </trkpt>
      <trkpt lat="47.81491" lon="1.749">
        <ele>89.2</ele>
        <time>2020-07-02T18:47:57Z</time>
      </trkpt>
      <trkpt lat="47.81486" lon="1.74894">
        <ele>89.3</ele>
        <time>2020-07-02T18:47:58Z</time>
      </trkpt>
      <trkpt lat="47.81481" lon="1.74887">
        <ele>89.3</ele>
        <time>2020-07-02T18:47:59Z</time>
      </trkpt>
      <trkpt lat="47.81476" lon="1.7488">
        <ele>89.4</ele>
        <time>2020-07-02T18:48:00Z</time>
      </trkpt>
      <trkpt lat="47.81471" lon="1.74874">
        <ele>89.5</ele>
        <time>2020-07-02T18:48:01Z</time>
      </trkpt>
      <trkpt lat="47.81466" lon="1.74867">
        <ele>89.6</ele>
        <time>2020-07-02T18:48:02Z</time>
      </trkpt>
      <trkpt lat="47.81462" lon="1.7486">
        <ele>89.7</ele>
        <time>2020-07-02T18:48:03Z</time>
      </trkpt>
      <trkpt lat="47.81457" lon="1.74854">
        <ele>89.7</ele>
        <time>2020-07-02T18:48:04Z</time>
      </trkpt>
      <trkpt lat="47.81452" lon="1.74847">
        <ele>89.8</ele>
        <time>2020-07-02T18:48:05Z</time>
      </trkpt>
      <trkpt lat="47.81447" lon="1.74841">
        <ele>89.9</ele>
        <time>2020-07-02T18:48:06Z</time>
      </trkpt>
      <trkpt lat="47.81442" lon="1.74834">
        <ele>90</ele>
        <time>2020-07-02T18:48:07Z</time>
      </trkpt>
      <trkpt lat="47.81437" lon="1.74829">
        <ele>90.1</ele>
        <time>2020-07-02T18:48:08Z</time>
      </trkpt>
      <trkpt lat="47.81432" lon="1.74822">
        <ele>90.2</ele>
        <time>2020-07-02T18:48:09Z</time>
      </trkpt>
      <trkpt lat="47.81428" lon="1.74816">
        <ele>90.3</ele>
        <time>2020-07-02T18:48:10Z</time>
      </trkpt>
      <trkpt lat="47.81423" lon="1.74809">
        <ele>90.4</ele>
        <time>2020-07-02T18:48:11Z</time>
      </trkpt>
      <trkpt lat="47.81419" lon="1.74803">
        <ele>90.5</ele>
        <time>2020-07-02T18:48:12Z</time>
      </trkpt>
      <trkpt lat="47.81415" lon="1.74797">
        <ele>90.6</ele>
        <time>2020-07-02T18:48:13Z</time>
      </trkpt>
      <trkpt lat="47.8141" lon="1.74792">
        <ele>90.6</ele>
        <time>2020-07-02T18:48:14Z</time>
      </trkpt>
      <trkpt lat="47.81406" lon="1.74785">
        <ele>90.7</ele>
        <time>2020-07-02T18:48:15Z</time>
      </trkpt>
      <trkpt lat="47.81401" lon="1.74779">
        <ele>90.8</ele>
        <time>2020-07-02T18:48:16Z</time>
      </trkpt>
      <trkpt lat="47.81397" lon="1.74773">
        <ele>90.8</ele>
        <time>2020-07-02T18:48:17Z</time>
      </trkpt>
      <trkpt lat="47.81393" lon="1.74767">
        <ele>90.9</ele>
        <time>2020-07-02T18:48:18Z</time>
      </trkpt>
      <trkpt lat="47.81389" lon="1.74761">
        <ele>90.9</ele>
        <time>2020-07-02T18:48:19Z</time>
      </trkpt>
      <trkpt lat="47.81385" lon="1.74755">
        <ele>91</ele>
        <time>2020-07-02T18:48:20Z</time>
      </trkpt>
      <trkpt lat="47.81379" lon="1.74749">
        <ele>91.1</ele>
        <time>2020-07-02T18:48:21Z</time>
      </trkpt>
      <trkpt lat="47.81375" lon="1.74743">
        <ele>91.1</ele>
        <time>2020-07-02T18:48:22Z</time>
      </trkpt>
      <trkpt lat="47.81371" lon="1.74738">
        <ele>91.2</ele>
        <time>2020-07-02T18:48:23Z</time>
      </trkpt>
      <trkpt lat="47.81367" lon="1.74733">
        <ele>91.2</ele>
        <time>2020-07-02T18:48:24Z</time>
      </trkpt>
      <trkpt lat="47.81363" lon="1.74728">
        <ele>91.2</ele>
        <time>2020-07-02T18:48:25Z</time>
      </trkpt>
      <trkpt lat="47.81359" lon="1.74722">
        <ele>91.3</ele>
        <time>2020-07-02T18:48:26Z</time>
      </trkpt>
      <trkpt lat="47.81354" lon="1.74714">
        <ele>91.4</ele>
        <time>2020-07-02T18:48:27Z</time>
      </trkpt>
      <trkpt lat="47.81349" lon="1.74707">
        <ele>91.4</ele>
        <time>2020-07-02T18:48:28Z</time>
      </trkpt>
      <trkpt lat="47.81344" lon="1.74701">
        <ele>91.5</ele>
        <time>2020-07-02T18:48:29Z</time>
      </trkpt>
      <trkpt lat="47.81339" lon="1.74695">
        <ele>91.6</ele>
        <time>2020-07-02T18:48:30Z</time>
      </trkpt>
      <trkpt lat="47.81335" lon="1.7469">
        <ele>91.6</ele>
        <time>2020-07-02T18:48:31Z</time>
      </trkpt>
      <trkpt lat="47.81331" lon="1.74684">
        <ele>91.7</ele>
        <time>2020-07-02T18:48:32Z</time>
      </trkpt>
      <trkpt lat="47.81327" lon="1.74677">
        <ele>91.8</ele>
        <time>2020-07-02T18:48:33Z</time>
      </trkpt>
      <trkpt lat="47.81323" lon="1.74672">
        <ele>91.9</ele>
        <time>2020-07-02T18:48:34Z</time>
      </trkpt>
      <trkpt lat="47.81319" lon="1.74666">
        <ele>92</ele>
        <time>2020-07-02T18:48:35Z</time>
      </trkpt>
      <trkpt lat="47.81314" lon="1.74661">
        <ele>92.1</ele>
        <time>2020-07-02T18:48:36Z</time>
      </trkpt>
      <trkpt lat="47.81309" lon="1.74655">
        <ele>92.1</ele>
        <time>2020-07-02T18:48:37Z</time>
      </trkpt>
      <trkpt lat="47.81304" lon="1.74649">
        <ele>92.1</ele>
        <time>2020-07-02T18:48:38Z</time>
      </trkpt>
      <trkpt lat="47.813" lon="1.74642">
        <ele>92.1</ele>
        <time>2020-07-02T18:48:39Z</time>
      </trkpt>
      <trkpt lat="47.81295" lon="1.74636">
        <ele>92.2</ele>
        <time>2020-07-02T18:48:40Z</time>
      </trkpt>
      <trkpt lat="47.8129" lon="1.74631">
        <ele>92.2</ele>
        <time>2020-07-02T18:48:41Z</time>
      </trkpt>
      <trkpt lat="47.81286" lon="1.74625">
        <ele>92.2</ele>
        <time>2020-07-02T18:48:42Z</time>
      </trkpt>
      <trkpt lat="47.81281" lon="1.74618">
        <ele>92.2</ele>
        <time>2020-07-02T18:48:43Z</time>
      </trkpt>
      <trkpt lat="47.81276" lon="1.74612">
        <ele>92.2</ele>
        <time>2020-07-02T18:48:44Z</time>
      </trkpt>
      <trkpt lat="47.81272" lon="1.74607">
        <ele>92.2</ele>
        <time>2020-07-02T18:48:45Z</time>
      </trkpt>
      <trkpt lat="47.81268" lon="1.74602">
        <ele>92.2</ele>
        <time>2020-07-02T18:48:46Z</time>
      </trkpt>
      <trkpt lat="47.81263" lon="1.74595">
        <ele>92.2</ele>
        <time>2020-07-02T18:48:47Z</time>
      </trkpt>
      <trkpt lat="47.81258" lon="1.74588">
        <ele>92.2</ele>
        <time>2020-07-02T18:48:48Z</time>
      </trkpt>
      <trkpt lat="47.81253" lon="1.74583">
        <ele>92.3</ele>
        <time>2020-07-02T18:48:49Z</time>
      </trkpt>
      <trkpt lat="47.81249" lon="1.74577">
        <ele>92.3</ele>
        <time>2020-07-02T18:48:50Z</time>
      </trkpt>
      <trkpt lat="47.81244" lon="1.74571">
        <ele>92.4</ele>
        <time>2020-07-02T18:48:51Z</time>
      </trkpt>
      <trkpt lat="47.8124" lon="1.74566">
        <ele>92.5</ele>
        <time>2020-07-02T18:48:52Z</time>
      </trkpt>
      <trkpt lat="47.81235" lon="1.74561">
        <ele>92.5</ele>
        <time>2020-07-02T18:48:53Z</time>
      </trkpt>
      <trkpt lat="47.81231" lon="1.74556">
        <ele>92.6</ele>
        <time>2020-07-02T18:48:54Z</time>
      </trkpt>
      <trkpt lat="47.81226" lon="1.74551">
        <ele>92.6</ele>
        <time>2020-07-02T18:48:55Z</time>
      </trkpt>
      <trkpt lat="47.81222" lon="1.74545">
        <ele>92.7</ele>
        <time>2020-07-02T18:48:56Z</time>
      </trkpt>
      <trkpt lat="47.81218" lon="1.7454">
        <ele>92.7</ele>
        <time>2020-07-02T18:48:57Z</time>
      </trkpt>
      <trkpt lat="47.81214" lon="1.74536">
        <ele>92.8</ele>
        <time>2020-07-02T18:48:58Z</time>
      </trkpt>
      <trkpt lat="47.81209" lon="1.7453">
        <ele>92.8</ele>
        <time>2020-07-02T18:48:59Z</time>
      </trkpt>
      <trkpt lat="47.81204" lon="1.74524">
        <ele>92.8</ele>
        <time>2020-07-02T18:49:00Z</time>
      </trkpt>
      <trkpt lat="47.81198" lon="1.74514">
        <ele>92.8</ele>
        <time>2020-07-02T18:49:01Z</time>
      </trkpt>
      <trkpt lat="47.81194" lon="1.74508">
        <ele>92.8</ele>
        <time>2020-07-02T18:49:02Z</time>
      </trkpt>
      <trkpt lat="47.8119" lon="1.74504">
        <ele>92.8</ele>
        <time>2020-07-02T18:49:03Z</time>
      </trkpt>
      <trkpt lat="47.81186" lon="1.74498">
        <ele>92.8</ele>
        <time>2020-07-02T18:49:04Z</time>
      </trkpt>
      <trkpt lat="47.81182" lon="1.74493">
        <ele>92.8</ele>
        <time>2020-07-02T18:49:05Z</time>
      </trkpt>
      <trkpt lat="47.81177" lon="1.74487">
        <ele>92.9</ele>
        <time>2020-07-02T18:49:06Z</time>
      </trkpt>
      <trkpt lat="47.81172" lon="1.74481">
        <ele>92.9</ele>
        <time>2020-07-02T18:49:07Z</time>
      </trkpt>
      <trkpt lat="47.81168" lon="1.74475">
        <ele>92.9</ele>
        <time>2020-07-02T18:49:08Z</time>
      </trkpt>
      <trkpt lat="47.81163" lon="1.74468">
        <ele>93</ele>
        <time>2020-07-02T18:49:09Z</time>
      </trkpt>
      <trkpt lat="47.81159" lon="1.74463">
        <ele>93</ele>
        <time>2020-07-02T18:49:10Z</time>
      </trkpt>
      <trkpt lat="47.81155" lon="1.74457">
        <ele>93</ele>
        <time>2020-07-02T18:49:11Z</time>
      </trkpt>
      <trkpt lat="47.8115" lon="1.7445">
        <ele>93.1</ele>
        <time>2020-07-02T18:49:12Z</time>
      </trkpt>
      <trkpt lat="47.81145" lon="1.74444">
        <ele>93.1</ele>
        <time>2020-07-02T18:49:13Z</time>
      </trkpt>
      <trkpt lat="47.81143" lon="1.74439">
        <ele>93.1</ele>
        <time>2020-07-02T18:49:14Z</time>
      </trkpt>
      <trkpt lat="47.81138" lon="1.74434">
        <ele>93.1</ele>
        <time>2020-07-02T18:49:15Z</time>
      </trkpt>
      <trkpt lat="47.81134" lon="1.74428">
        <ele>93.1</ele>
        <time>2020-07-02T18:49:16Z</time>
      </trkpt>
      <trkpt lat="47.81129" lon="1.74422">
        <ele>93.1</ele>
        <time>2020-07-02T18:49:17Z</time>
      </trkpt>
      <trkpt lat="47.81125" lon="1.74415">
        <ele>93.2</ele>
        <time>2020-07-02T18:49:18Z</time>
      </trkpt>
      <trkpt lat="47.8112" lon="1.74409">
        <ele>93.2</ele>
        <time>2020-07-02T18:49:19Z</time>
      </trkpt>
      <trkpt lat="47.81115" lon="1.74403">
        <ele>93.2</ele>
        <time>2020-07-02T18:49:20Z</time>
      </trkpt>
      <trkpt lat="47.81111" lon="1.74396">
        <ele>93.3</ele>
        <time>2020-07-02T18:49:21Z</time>
      </trkpt>
      <trkpt lat="47.81106" lon="1.7439">
        <ele>93.4</ele>
        <time>2020-07-02T18:49:22Z</time>
      </trkpt>
      <trkpt lat="47.81101" lon="1.74384">
        <ele>93.6</ele>
        <time>2020-07-02T18:49:23Z</time>
      </trkpt>
      <trkpt lat="47.81096" lon="1.74376">
        <ele>93.8</ele>
        <time>2020-07-02T18:49:24Z</time>
      </trkpt>
      <trkpt lat="47.81092" lon="1.74371">
        <ele>93.8</ele>
        <time>2020-07-02T18:49:25Z</time>
      </trkpt>
      <trkpt lat="47.81087" lon="1.74365">
        <ele>93.8</ele>
        <time>2020-07-02T18:49:26Z</time>
      </trkpt>
      <trkpt lat="47.81083" lon="1.74359">
        <ele>93.9</ele>
        <time>2020-07-02T18:49:27Z</time>
      </trkpt>
      <trkpt lat="47.81078" lon="1.74353">
        <ele>93.8</ele>
        <time>2020-07-02T18:49:28Z</time>
      </trkpt>
      <trkpt lat="47.81074" lon="1.74347">
        <ele>93.8</ele>
        <time>2020-07-02T18:49:29Z</time>
      </trkpt>
      <trkpt lat="47.81069" lon="1.74341">
        <ele>93.8</ele>
        <time>2020-07-02T18:49:30Z</time>
      </trkpt>
      <trkpt lat="47.81064" lon="1.74335">
        <ele>93.8</ele>
        <time>2020-07-02T18:49:31Z</time>
      </trkpt>
      <trkpt lat="47.8106" lon="1.7433">
        <ele>93.8</ele>
        <time>2020-07-02T18:49:32Z</time>
      </trkpt>
      <trkpt lat="47.81055" lon="1.74325">
        <ele>93.8</ele>
        <time>2020-07-02T18:49:33Z</time>
      </trkpt>
      <trkpt lat="47.8105" lon="1.74319">
        <ele>93.8</ele>
        <time>2020-07-02T18:49:34Z</time>
      </trkpt>
      <trkpt lat="47.81045" lon="1.74313">
        <ele>93.8</ele>
        <time>2020-07-02T18:49:35Z</time>
      </trkpt>
      <trkpt lat="47.8104" lon="1.74307">
        <ele>93.8</ele>
        <time>2020-07-02T18:49:36Z</time>
      </trkpt>
      <trkpt lat="47.81035" lon="1.74301">
        <ele>93.8</ele>
        <time>2020-07-02T18:49:37Z</time>
      </trkpt>
      <trkpt lat="47.81031" lon="1.74295">
        <ele>93.8</ele>
        <time>2020-07-02T18:49:38Z</time>
      </trkpt>
      <trkpt lat="47.81027" lon="1.74289">
        <ele>93.8</ele>
        <time>2020-07-02T18:49:39Z</time>
      </trkpt>
      <trkpt lat="47.81022" lon="1.74282">
        <ele>94.2</ele>
        <time>2020-07-02T18:49:40Z</time>
      </trkpt>
      <trkpt lat="47.81017" lon="1.74276">
        <ele>94.1</ele>
        <time>2020-07-02T18:49:41Z</time>
      </trkpt>
      <trkpt lat="47.81012" lon="1.74269">
        <ele>94</ele>
        <time>2020-07-02T18:49:42Z</time>
      </trkpt>
      <trkpt lat="47.81007" lon="1.74262">
        <ele>94</ele>
        <time>2020-07-02T18:49:43Z</time>
      </trkpt>
      <trkpt lat="47.81001" lon="1.74256">
        <ele>93.9</ele>
        <time>2020-07-02T18:49:44Z</time>
      </trkpt>
      <trkpt lat="47.80996" lon="1.74249">
        <ele>93.9</ele>
        <time>2020-07-02T18:49:45Z</time>
      </trkpt>
      <trkpt lat="47.80991" lon="1.74242">
        <ele>93.8</ele>
        <time>2020-07-02T18:49:46Z</time>
      </trkpt>
      <trkpt lat="47.80986" lon="1.74235">
        <ele>93.8</ele>
        <time>2020-07-02T18:49:47Z</time>
      </trkpt>
      <trkpt lat="47.80981" lon="1.74229">
        <ele>93.7</ele>
        <time>2020-07-02T18:49:48Z</time>
      </trkpt>
      <trkpt lat="47.80976" lon="1.74222">
        <ele>93.7</ele>
        <time>2020-07-02T18:49:49Z</time>
      </trkpt>
      <trkpt lat="47.80971" lon="1.74216">
        <ele>93.8</ele>
        <time>2020-07-02T18:49:50Z</time>
      </trkpt>
      <trkpt lat="47.80965" lon="1.74209">
        <ele>93.8</ele>
        <time>2020-07-02T18:49:51Z</time>
      </trkpt>
      <trkpt lat="47.8096" lon="1.74202">
        <ele>93.7</ele>
        <time>2020-07-02T18:49:52Z</time>
      </trkpt>
      <trkpt lat="47.80955" lon="1.74196">
        <ele>93.7</ele>
        <time>2020-07-02T18:49:53Z</time>
      </trkpt>
      <trkpt lat="47.8095" lon="1.7419">
        <ele>93.6</ele>
        <time>2020-07-02T18:49:54Z</time>
      </trkpt>
      <trkpt lat="47.80945" lon="1.74184">
        <ele>93.6</ele>
        <time>2020-07-02T18:49:55Z</time>
      </trkpt>
      <trkpt lat="47.8094" lon="1.74177">
        <ele>93.6</ele>
        <time>2020-07-02T18:49:56Z</time>
      </trkpt>
      <trkpt lat="47.80934" lon="1.74171">
        <ele>93.6</ele>
        <time>2020-07-02T18:49:57Z</time>
      </trkpt>
      <trkpt lat="47.80929" lon="1.74165">
        <ele>93.6</ele>
        <time>2020-07-02T18:49:58Z</time>
      </trkpt>
      <trkpt lat="47.80924" lon="1.74159">
        <ele>93.7</ele>
        <time>2020-07-02T18:49:59Z</time>
      </trkpt>
      <trkpt lat="47.80918" lon="1.74153">
        <ele>93.8</ele>
        <time>2020-07-02T18:50:00Z</time>
      </trkpt>
      <trkpt lat="47.80913" lon="1.74146">
        <ele>93.9</ele>
        <time>2020-07-02T18:50:01Z</time>
      </trkpt>
      <trkpt lat="47.80908" lon="1.74139">
        <ele>94</ele>
        <time>2020-07-02T18:50:02Z</time>
      </trkpt>
      <trkpt lat="47.80903" lon="1.74133">
        <ele>94.1</ele>
        <time>2020-07-02T18:50:03Z</time>
      </trkpt>
      <trkpt lat="47.80898" lon="1.74127">
        <ele>94.2</ele>
        <time>2020-07-02T18:50:04Z</time>
      </trkpt>
      <trkpt lat="47.80893" lon="1.74121">
        <ele>94.4</ele>
        <time>2020-07-02T18:50:05Z</time>
      </trkpt>
      <trkpt lat="47.80889" lon="1.74115">
        <ele>94.5</ele>
        <time>2020-07-02T18:50:06Z</time>
      </trkpt>
      <trkpt lat="47.80885" lon="1.7411">
        <ele>94.6</ele>
        <time>2020-07-02T18:50:07Z</time>
      </trkpt>
      <trkpt lat="47.8088" lon="1.74104">
        <ele>94.7</ele>
        <time>2020-07-02T18:50:08Z</time>
      </trkpt>
      <trkpt lat="47.80876" lon="1.74098">
        <ele>94.8</ele>
        <time>2020-07-02T18:50:09Z</time>
      </trkpt>
      <trkpt lat="47.80872" lon="1.74091">
        <ele>94.9</ele>
        <time>2020-07-02T18:50:10Z</time>
      </trkpt>
      <trkpt lat="47.80867" lon="1.74085">
        <ele>95</ele>
        <time>2020-07-02T18:50:11Z</time>
      </trkpt>
      <trkpt lat="47.80863" lon="1.74078">
        <ele>95.1</ele>
        <time>2020-07-02T18:50:12Z</time>
      </trkpt>
      <trkpt lat="47.80859" lon="1.74072">
        <ele>95.3</ele>
        <time>2020-07-02T18:50:13Z</time>
      </trkpt>
      <trkpt lat="47.80855" lon="1.74063">
        <ele>95.4</ele>
        <time>2020-07-02T18:50:14Z</time>
      </trkpt>
      <trkpt lat="47.80851" lon="1.74056">
        <ele>95.6</ele>
        <time>2020-07-02T18:50:15Z</time>
      </trkpt>
      <trkpt lat="47.80847" lon="1.7405">
        <ele>95.7</ele>
        <time>2020-07-02T18:50:16Z</time>
      </trkpt>
      <trkpt lat="47.80843" lon="1.74044">
        <ele>95.8</ele>
        <time>2020-07-02T18:50:17Z</time>
      </trkpt>
      <trkpt lat="47.80838" lon="1.74038">
        <ele>95.9</ele>
        <time>2020-07-02T18:50:18Z</time>
      </trkpt>
      <trkpt lat="47.80834" lon="1.74033">
        <ele>96</ele>
        <time>2020-07-02T18:50:19Z</time>
      </trkpt>
      <trkpt lat="47.80829" lon="1.74028">
        <ele>96.1</ele>
        <time>2020-07-02T18:50:20Z</time>
      </trkpt>
      <trkpt lat="47.80826" lon="1.74022">
        <ele>96.2</ele>
        <time>2020-07-02T18:50:21Z</time>
      </trkpt>
      <trkpt lat="47.80821" lon="1.74016">
        <ele>96.3</ele>
        <time>2020-07-02T18:50:22Z</time>
      </trkpt>
      <trkpt lat="47.80816" lon="1.74009">
        <ele>96.4</ele>
        <time>2020-07-02T18:50:23Z</time>
      </trkpt>
      <trkpt lat="47.80811" lon="1.74003">
        <ele>96.5</ele>
        <time>2020-07-02T18:50:24Z</time>
      </trkpt>
      <trkpt lat="47.80806" lon="1.73997">
        <ele>96.7</ele>
        <time>2020-07-02T18:50:25Z</time>
      </trkpt>
      <trkpt lat="47.80801" lon="1.7399">
        <ele>96.8</ele>
        <time>2020-07-02T18:50:26Z</time>
      </trkpt>
      <trkpt lat="47.80796" lon="1.73985">
        <ele>96.9</ele>
        <time>2020-07-02T18:50:27Z</time>
      </trkpt>
      <trkpt lat="47.80791" lon="1.73979">
        <ele>97</ele>
        <time>2020-07-02T18:50:28Z</time>
      </trkpt>
      <trkpt lat="47.80786" lon="1.73974">
        <ele>97.1</ele>
        <time>2020-07-02T18:50:29Z</time>
      </trkpt>
      <trkpt lat="47.80782" lon="1.73968">
        <ele>97.1</ele>
        <time>2020-07-02T18:50:30Z</time>
      </trkpt>
      <trkpt lat="47.80777" lon="1.73962">
        <ele>97.2</ele>
        <time>2020-07-02T18:50:31Z</time>
      </trkpt>
      <trkpt lat="47.80772" lon="1.73956">
        <ele>97.3</ele>
        <time>2020-07-02T18:50:32Z</time>
      </trkpt>
      <trkpt lat="47.80768" lon="1.73949">
        <ele>97.3</ele>
        <time>2020-07-02T18:50:33Z</time>
      </trkpt>
      <trkpt lat="47.80763" lon="1.73943">
        <ele>97.4</ele>
        <time>2020-07-02T18:50:34Z</time>
      </trkpt>
      <trkpt lat="47.80758" lon="1.73937">
        <ele>97.4</ele>
        <time>2020-07-02T18:50:35Z</time>
      </trkpt>
      <trkpt lat="47.80754" lon="1.73931">
        <ele>97.5</ele>
        <time>2020-07-02T18:50:36Z</time>
      </trkpt>
      <trkpt lat="47.80749" lon="1.73925">
        <ele>97.5</ele>
        <time>2020-07-02T18:50:37Z</time>
      </trkpt>
      <trkpt lat="47.80745" lon="1.73919">
        <ele>97.6</ele>
        <time>2020-07-02T18:50:38Z</time>
      </trkpt>
      <trkpt lat="47.80739" lon="1.73913">
        <ele>97.6</ele>
        <time>2020-07-02T18:50:39Z</time>
      </trkpt>
      <trkpt lat="47.80735" lon="1.73907">
        <ele>97.7</ele>
        <time>2020-07-02T18:50:40Z</time>
      </trkpt>
      <trkpt lat="47.8073" lon="1.73901">
        <ele>97.7</ele>
        <time>2020-07-02T18:50:41Z</time>
      </trkpt>
      <trkpt lat="47.80725" lon="1.73894">
        <ele>97.7</ele>
        <time>2020-07-02T18:50:42Z</time>
      </trkpt>
      <trkpt lat="47.8072" lon="1.73888">
        <ele>97.7</ele>
        <time>2020-07-02T18:50:43Z</time>
      </trkpt>
      <trkpt lat="47.80715" lon="1.73882">
        <ele>97.7</ele>
        <time>2020-07-02T18:50:44Z</time>
      </trkpt>
      <trkpt lat="47.80711" lon="1.73875">
        <ele>97.6</ele>
        <time>2020-07-02T18:50:45Z</time>
      </trkpt>
      <trkpt lat="47.80706" lon="1.7387">
        <ele>97.5</ele>
        <time>2020-07-02T18:50:46Z</time>
      </trkpt>
      <trkpt lat="47.80701" lon="1.73864">
        <ele>97.4</ele>
        <time>2020-07-02T18:50:47Z</time>
      </trkpt>
      <trkpt lat="47.80696" lon="1.73858">
        <ele>97.3</ele>
        <time>2020-07-02T18:50:48Z</time>
      </trkpt>
      <trkpt lat="47.80692" lon="1.73851">
        <ele>97.2</ele>
        <time>2020-07-02T18:50:49Z</time>
      </trkpt>
      <trkpt lat="47.80688" lon="1.73845">
        <ele>97.2</ele>
        <time>2020-07-02T18:50:50Z</time>
      </trkpt>
      <trkpt lat="47.80683" lon="1.7384">
        <ele>97.1</ele>
        <time>2020-07-02T18:50:51Z</time>
      </trkpt>
      <trkpt lat="47.80678" lon="1.73834">
        <ele>97.1</ele>
        <time>2020-07-02T18:50:52Z</time>
      </trkpt>
      <trkpt lat="47.80673" lon="1.73827">
        <ele>97.1</ele>
        <time>2020-07-02T18:50:53Z</time>
      </trkpt>
      <trkpt lat="47.80669" lon="1.7382">
        <ele>97.1</ele>
        <time>2020-07-02T18:50:54Z</time>
      </trkpt>
      <trkpt lat="47.80664" lon="1.73814">
        <ele>97.1</ele>
        <time>2020-07-02T18:50:55Z</time>
      </trkpt>
      <trkpt lat="47.8066" lon="1.73808">
        <ele>97.1</ele>
        <time>2020-07-02T18:50:56Z</time>
      </trkpt>
      <trkpt lat="47.80655" lon="1.73802">
        <ele>97</ele>
        <time>2020-07-02T18:50:57Z</time>
      </trkpt>
      <trkpt lat="47.8065" lon="1.73795">
        <ele>97</ele>
        <time>2020-07-02T18:50:58Z</time>
      </trkpt>
      <trkpt lat="47.80645" lon="1.73789">
        <ele>97</ele>
        <time>2020-07-02T18:50:59Z</time>
      </trkpt>
      <trkpt lat="47.80641" lon="1.73783">
        <ele>97</ele>
        <time>2020-07-02T18:51:00Z</time>
      </trkpt>
      <trkpt lat="47.80636" lon="1.73777">
        <ele>97</ele>
        <time>2020-07-02T18:51:01Z</time>
      </trkpt>
      <trkpt lat="47.80631" lon="1.7377">
        <ele>97</ele>
        <time>2020-07-02T18:51:02Z</time>
      </trkpt>
      <trkpt lat="47.80627" lon="1.73764">
        <ele>97</ele>
        <time>2020-07-02T18:51:03Z</time>
      </trkpt>
      <trkpt lat="47.80622" lon="1.73758">
        <ele>97</ele>
        <time>2020-07-02T18:51:04Z</time>
      </trkpt>
      <trkpt lat="47.80618" lon="1.73751">
        <ele>97</ele>
        <time>2020-07-02T18:51:05Z</time>
      </trkpt>
      <trkpt lat="47.80613" lon="1.73746">
        <ele>97</ele>
        <time>2020-07-02T18:51:06Z</time>
      </trkpt>
      <trkpt lat="47.80608" lon="1.73739">
        <ele>97</ele>
        <time>2020-07-02T18:51:07Z</time>
      </trkpt>
      <trkpt lat="47.80603" lon="1.73733">
        <ele>97.1</ele>
        <time>2020-07-02T18:51:08Z</time>
      </trkpt>
      <trkpt lat="47.80597" lon="1.73727">
        <ele>97.1</ele>
        <time>2020-07-02T18:51:09Z</time>
      </trkpt>
      <trkpt lat="47.80592" lon="1.73721">
        <ele>97.1</ele>
        <time>2020-07-02T18:51:10Z</time>
      </trkpt>
      <trkpt lat="47.80588" lon="1.73715">
        <ele>97.1</ele>
        <time>2020-07-02T18:51:11Z</time>
      </trkpt>
      <trkpt lat="47.80583" lon="1.73709">
        <ele>97.1</ele>
        <time>2020-07-02T18:51:12Z</time>
      </trkpt>
      <trkpt lat="47.80578" lon="1.73702">
        <ele>97.1</ele>
        <time>2020-07-02T18:51:13Z</time>
      </trkpt>
      <trkpt lat="47.80573" lon="1.73696">
        <ele>97.1</ele>
        <time>2020-07-02T18:51:14Z</time>
      </trkpt>
      <trkpt lat="47.80568" lon="1.7369">
        <ele>97.2</ele>
        <time>2020-07-02T18:51:15Z</time>
      </trkpt>
      <trkpt lat="47.80564" lon="1.73683">
        <ele>97.2</ele>
        <time>2020-07-02T18:51:16Z</time>
      </trkpt>
      <trkpt lat="47.80559" lon="1.73676">
        <ele>97.3</ele>
        <time>2020-07-02T18:51:17Z</time>
      </trkpt>
      <trkpt lat="47.80554" lon="1.7367">
        <ele>97.3</ele>
        <time>2020-07-02T18:51:18Z</time>
      </trkpt>
      <trkpt lat="47.80549" lon="1.73664">
        <ele>97.4</ele>
        <time>2020-07-02T18:51:19Z</time>
      </trkpt>
      <trkpt lat="47.80544" lon="1.73657">
        <ele>97.4</ele>
        <time>2020-07-02T18:51:20Z</time>
      </trkpt>
      <trkpt lat="47.8054" lon="1.73651">
        <ele>97.4</ele>
        <time>2020-07-02T18:51:21Z</time>
      </trkpt>
      <trkpt lat="47.80535" lon="1.73644">
        <ele>97.4</ele>
        <time>2020-07-02T18:51:22Z</time>
      </trkpt>
      <trkpt lat="47.80531" lon="1.73638">
        <ele>97.4</ele>
        <time>2020-07-02T18:51:23Z</time>
      </trkpt>
      <trkpt lat="47.80526" lon="1.73633">
        <ele>97.4</ele>
        <time>2020-07-02T18:51:24Z</time>
      </trkpt>
      <trkpt lat="47.80521" lon="1.73626">
        <ele>97.4</ele>
        <time>2020-07-02T18:51:25Z</time>
      </trkpt>
      <trkpt lat="47.80516" lon="1.7362">
        <ele>97.4</ele>
        <time>2020-07-02T18:51:26Z</time>
      </trkpt>
      <trkpt lat="47.80511" lon="1.73614">
        <ele>97.4</ele>
        <time>2020-07-02T18:51:27Z</time>
      </trkpt>
      <trkpt lat="47.80506" lon="1.73607">
        <ele>97.4</ele>
        <time>2020-07-02T18:51:28Z</time>
      </trkpt>
      <trkpt lat="47.80502" lon="1.73601">
        <ele>97.4</ele>
        <time>2020-07-02T18:51:29Z</time>
      </trkpt>
      <trkpt lat="47.80497" lon="1.73594">
        <ele>97.4</ele>
        <time>2020-07-02T18:51:30Z</time>
      </trkpt>
      <trkpt lat="47.80492" lon="1.73587">
        <ele>97.5</ele>
        <time>2020-07-02T18:51:31Z</time>
      </trkpt>
      <trkpt lat="47.80487" lon="1.73581">
        <ele>97.5</ele>
        <time>2020-07-02T18:51:32Z</time>
      </trkpt>
      <trkpt lat="47.80482" lon="1.73575">
        <ele>97.5</ele>
        <time>2020-07-02T18:51:33Z</time>
      </trkpt>
      <trkpt lat="47.80477" lon="1.73568">
        <ele>97.5</ele>
        <time>2020-07-02T18:51:34Z</time>
      </trkpt>
      <trkpt lat="47.80472" lon="1.73562">
        <ele>97.5</ele>
        <time>2020-07-02T18:51:35Z</time>
      </trkpt>
      <trkpt lat="47.80468" lon="1.73555">
        <ele>97.5</ele>
        <time>2020-07-02T18:51:36Z</time>
      </trkpt>
      <trkpt lat="47.80462" lon="1.73549">
        <ele>97.5</ele>
        <time>2020-07-02T18:51:37Z</time>
      </trkpt>
      <trkpt lat="47.80458" lon="1.73542">
        <ele>97.5</ele>
        <time>2020-07-02T18:51:38Z</time>
      </trkpt>
      <trkpt lat="47.80453" lon="1.73535">
        <ele>97.5</ele>
        <time>2020-07-02T18:51:39Z</time>
      </trkpt>
      <trkpt lat="47.80448" lon="1.73529">
        <ele>97.5</ele>
        <time>2020-07-02T18:51:40Z</time>
      </trkpt>
      <trkpt lat="47.80443" lon="1.73523">
        <ele>97.5</ele>
        <time>2020-07-02T18:51:41Z</time>
      </trkpt>
      <trkpt lat="47.80438" lon="1.73518">
        <ele>97.6</ele>
        <time>2020-07-02T18:51:42Z</time>
      </trkpt>
      <trkpt lat="47.80434" lon="1.73512">
        <ele>97.6</ele>
        <time>2020-07-02T18:51:43Z</time>
      </trkpt>
      <trkpt lat="47.80429" lon="1.73507">
        <ele>97.6</ele>
        <time>2020-07-02T18:51:44Z</time>
      </trkpt>
      <trkpt lat="47.80425" lon="1.73501">
        <ele>97.6</ele>
        <time>2020-07-02T18:51:45Z</time>
      </trkpt>
      <trkpt lat="47.8042" lon="1.73496">
        <ele>97.6</ele>
        <time>2020-07-02T18:51:46Z</time>
      </trkpt>
      <trkpt lat="47.80417" lon="1.7349">
        <ele>97.6</ele>
        <time>2020-07-02T18:51:47Z</time>
      </trkpt>
      <trkpt lat="47.80413" lon="1.73485">
        <ele>97.6</ele>
        <time>2020-07-02T18:51:48Z</time>
      </trkpt>
      <trkpt lat="47.80409" lon="1.7348">
        <ele>97.6</ele>
        <time>2020-07-02T18:51:49Z</time>
      </trkpt>
      <trkpt lat="47.80406" lon="1.73475">
        <ele>97.6</ele>
        <time>2020-07-02T18:51:50Z</time>
      </trkpt>
      <trkpt lat="47.80403" lon="1.7347">
        <ele>97.6</ele>
        <time>2020-07-02T18:51:51Z</time>
      </trkpt>
      <trkpt lat="47.80401" lon="1.73465">
        <ele>97.6</ele>
        <time>2020-07-02T18:51:52Z</time>
      </trkpt>
      <trkpt lat="47.80399" lon="1.73461">
        <ele>97.7</ele>
        <time>2020-07-02T18:51:53Z</time>
      </trkpt>
      <trkpt lat="47.80398" lon="1.7346">
        <ele>97.7</ele>
        <time>2020-07-02T18:51:54Z</time>
      </trkpt>
      <trkpt lat="47.80397" lon="1.73459">
        <ele>97.7</ele>
        <time>2020-07-02T18:51:55Z</time>
      </trkpt>
      <trkpt lat="47.80398" lon="1.7346">
        <ele>97.7</ele>
        <time>2020-07-02T18:51:56Z</time>
      </trkpt>
      <trkpt lat="47.80398" lon="1.73461">
        <ele>97.7</ele>
        <time>2020-07-02T18:51:57Z</time>
      </trkpt>
      <trkpt lat="47.80399" lon="1.73462">
        <ele>97.7</ele>
        <time>2020-07-02T18:51:58Z</time>
      </trkpt>
      <trkpt lat="47.80399" lon="1.73462">
        <ele>97.7</ele>
        <time>2020-07-02T18:51:59Z</time>
      </trkpt>
      <trkpt lat="47.804" lon="1.73463">
        <ele>97.7</ele>
        <time>2020-07-02T18:52:00Z</time>
      </trkpt>
      <trkpt lat="47.804" lon="1.73464">
        <ele>97.7</ele>
        <time>2020-07-02T18:52:01Z</time>
      </trkpt>
      <trkpt lat="47.804" lon="1.73462">
        <ele>97.7</ele>
        <time>2020-07-02T18:52:02Z</time>
      </trkpt>
      <trkpt lat="47.804" lon="1.73461">
        <ele>97.7</ele>
        <time>2020-07-02T18:52:03Z</time>
      </trkpt>
      <trkpt lat="47.80399" lon="1.7346">
        <ele>97.7</ele>
        <time>2020-07-02T18:52:04Z</time>
      </trkpt>
      <trkpt lat="47.80398" lon="1.73458">
        <ele>97.7</ele>
        <time>2020-07-02T18:52:05Z</time>
      </trkpt>
      <trkpt lat="47.80398" lon="1.73457">
        <ele>97.7</ele>
        <time>2020-07-02T18:52:06Z</time>
      </trkpt>
      <trkpt lat="47.80397" lon="1.73455">
        <ele>97.8</ele>
        <time>2020-07-02T18:54:02Z</time>
      </trkpt>
      <trkpt lat="47.80396" lon="1.73454">
        <ele>97.8</ele>
        <time>2020-07-02T18:54:03Z</time>
      </trkpt>
      <trkpt lat="47.80394" lon="1.73452">
        <ele>97.9</ele>
        <time>2020-07-02T18:54:04Z</time>
      </trkpt>
      <trkpt lat="47.8039" lon="1.73449">
        <ele>98</ele>
        <time>2020-07-02T18:54:05Z</time>
      </trkpt>
      <trkpt lat="47.80386" lon="1.73446">
        <ele>98</ele>
        <time>2020-07-02T18:54:06Z</time>
      </trkpt>
      <trkpt lat="47.80383" lon="1.73441">
        <ele>98</ele>
        <time>2020-07-02T18:54:07Z</time>
      </trkpt>
      <trkpt lat="47.8038" lon="1.73436">
        <ele>98</ele>
        <time>2020-07-02T18:54:08Z</time>
      </trkpt>
      <trkpt lat="47.80376" lon="1.73432">
        <ele>98</ele>
        <time>2020-07-02T18:54:09Z</time>
      </trkpt>
      <trkpt lat="47.80372" lon="1.73427">
        <ele>98</ele>
        <time>2020-07-02T18:54:10Z</time>
      </trkpt>
      <trkpt lat="47.80369" lon="1.73422">
        <ele>98</ele>
        <time>2020-07-02T18:54:11Z</time>
      </trkpt>
      <trkpt lat="47.80364" lon="1.73418">
        <ele>97.9</ele>
        <time>2020-07-02T18:54:12Z</time>
      </trkpt>
      <trkpt lat="47.80359" lon="1.73413">
        <ele>97.9</ele>
        <time>2020-07-02T18:54:13Z</time>
      </trkpt>
      <trkpt lat="47.80355" lon="1.73408">
        <ele>97.9</ele>
        <time>2020-07-02T18:54:14Z</time>
      </trkpt>
      <trkpt lat="47.80351" lon="1.73402">
        <ele>97.9</ele>
        <time>2020-07-02T18:54:15Z</time>
      </trkpt>
      <trkpt lat="47.80347" lon="1.73396">
        <ele>97.9</ele>
        <time>2020-07-02T18:54:16Z</time>
      </trkpt>
      <trkpt lat="47.80342" lon="1.73389">
        <ele>97.8</ele>
        <time>2020-07-02T18:54:17Z</time>
      </trkpt>
      <trkpt lat="47.80338" lon="1.73383">
        <ele>97.8</ele>
        <time>2020-07-02T18:54:18Z</time>
      </trkpt>
      <trkpt lat="47.80332" lon="1.73376">
        <ele>97.7</ele>
        <time>2020-07-02T18:54:19Z</time>
      </trkpt>
      <trkpt lat="47.80327" lon="1.73369">
        <ele>97.7</ele>
        <time>2020-07-02T18:54:20Z</time>
      </trkpt>
      <trkpt lat="47.80322" lon="1.73361">
        <ele>97.6</ele>
        <time>2020-07-02T18:54:21Z</time>
      </trkpt>
      <trkpt lat="47.80316" lon="1.73353">
        <ele>97.5</ele>
        <time>2020-07-02T18:54:22Z</time>
      </trkpt>
      <trkpt lat="47.80311" lon="1.73345">
        <ele>97.5</ele>
        <time>2020-07-02T18:54:23Z</time>
      </trkpt>
      <trkpt lat="47.80306" lon="1.73338">
        <ele>97.4</ele>
        <time>2020-07-02T18:54:24Z</time>
      </trkpt>
      <trkpt lat="47.803" lon="1.73331">
        <ele>97.3</ele>
        <time>2020-07-02T18:54:25Z</time>
      </trkpt>
      <trkpt lat="47.80295" lon="1.73325">
        <ele>97.2</ele>
        <time>2020-07-02T18:54:26Z</time>
      </trkpt>
      <trkpt lat="47.8029" lon="1.73319">
        <ele>97.1</ele>
        <time>2020-07-02T18:54:27Z</time>
      </trkpt>
      <trkpt lat="47.80284" lon="1.73312">
        <ele>97</ele>
        <time>2020-07-02T18:54:28Z</time>
      </trkpt>
      <trkpt lat="47.80279" lon="1.73305">
        <ele>96.9</ele>
        <time>2020-07-02T18:54:29Z</time>
      </trkpt>
      <trkpt lat="47.80273" lon="1.73298">
        <ele>96.9</ele>
        <time>2020-07-02T18:54:30Z</time>
      </trkpt>
      <trkpt lat="47.80268" lon="1.73291">
        <ele>96.8</ele>
        <time>2020-07-02T18:54:31Z</time>
      </trkpt>
      <trkpt lat="47.80262" lon="1.73284">
        <ele>96.7</ele>
        <time>2020-07-02T18:54:32Z</time>
      </trkpt>
      <trkpt lat="47.80257" lon="1.73277">
        <ele>96.6</ele>
        <time>2020-07-02T18:54:33Z</time>
      </trkpt>
      <trkpt lat="47.80252" lon="1.7327">
        <ele>96.5</ele>
        <time>2020-07-02T18:54:34Z</time>
      </trkpt>
      <trkpt lat="47.80246" lon="1.73263">
        <ele>96.4</ele>
        <time>2020-07-02T18:54:35Z</time>
      </trkpt>
      <trkpt lat="47.80241" lon="1.73256">
        <ele>96.4</ele>
        <time>2020-07-02T18:54:36Z</time>
      </trkpt>
      <trkpt lat="47.80235" lon="1.73249">
        <ele>96.5</ele>
        <time>2020-07-02T18:54:37Z</time>
      </trkpt>
      <trkpt lat="47.8023" lon="1.73241">
        <ele>96.6</ele>
        <time>2020-07-02T18:54:38Z</time>
      </trkpt>
      <trkpt lat="47.80224" lon="1.73233">
        <ele>96.7</ele>
        <time>2020-07-02T18:54:39Z</time>
      </trkpt>
      <trkpt lat="47.80219" lon="1.73226">
        <ele>96.9</ele>
        <time>2020-07-02T18:54:40Z</time>
      </trkpt>
      <trkpt lat="47.80213" lon="1.73219">
        <ele>97</ele>
        <time>2020-07-02T18:54:41Z</time>
      </trkpt>
      <trkpt lat="47.80207" lon="1.73212">
        <ele>97</ele>
        <time>2020-07-02T18:54:42Z</time>
      </trkpt>
      <trkpt lat="47.80202" lon="1.73204">
        <ele>97</ele>
        <time>2020-07-02T18:54:43Z</time>
      </trkpt>
      <trkpt lat="47.80196" lon="1.73197">
        <ele>96.9</ele>
        <time>2020-07-02T18:54:44Z</time>
      </trkpt>
      <trkpt lat="47.8019" lon="1.7319">
        <ele>96.8</ele>
        <time>2020-07-02T18:54:45Z</time>
      </trkpt>
      <trkpt lat="47.80184" lon="1.73182">
        <ele>96.7</ele>
        <time>2020-07-02T18:54:46Z</time>
      </trkpt>
      <trkpt lat="47.80178" lon="1.73175">
        <ele>96.5</ele>
        <time>2020-07-02T18:54:47Z</time>
      </trkpt>
      <trkpt lat="47.80173" lon="1.73169">
        <ele>96.4</ele>
        <time>2020-07-02T18:54:48Z</time>
      </trkpt>
      <trkpt lat="47.80167" lon="1.73162">
        <ele>96.3</ele>
        <time>2020-07-02T18:54:49Z</time>
      </trkpt>
      <trkpt lat="47.80161" lon="1.73155">
        <ele>96.2</ele>
        <time>2020-07-02T18:54:50Z</time>
      </trkpt>
      <trkpt lat="47.80156" lon="1.73148">
        <ele>96.1</ele>
        <time>2020-07-02T18:54:51Z</time>
      </trkpt>
      <trkpt lat="47.8015" lon="1.7314">
        <ele>96</ele>
        <time>2020-07-02T18:54:52Z</time>
      </trkpt>
      <trkpt lat="47.80144" lon="1.73131">
        <ele>95.8</ele>
        <time>2020-07-02T18:54:53Z</time>
      </trkpt>
      <trkpt lat="47.80138" lon="1.73123">
        <ele>95.7</ele>
        <time>2020-07-02T18:54:54Z</time>
      </trkpt>
      <trkpt lat="47.80132" lon="1.73116">
        <ele>95.7</ele>
        <time>2020-07-02T18:54:55Z</time>
      </trkpt>
      <trkpt lat="47.80126" lon="1.73108">
        <ele>95.6</ele>
        <time>2020-07-02T18:54:56Z</time>
      </trkpt>
      <trkpt lat="47.8012" lon="1.731">
        <ele>95.5</ele>
        <time>2020-07-02T18:54:57Z</time>
      </trkpt>
      <trkpt lat="47.80114" lon="1.73092">
        <ele>95.3</ele>
        <time>2020-07-02T18:54:58Z</time>
      </trkpt>
      <trkpt lat="47.80108" lon="1.73085">
        <ele>95.2</ele>
        <time>2020-07-02T18:54:59Z</time>
      </trkpt>
      <trkpt lat="47.80102" lon="1.73077">
        <ele>95</ele>
        <time>2020-07-02T18:55:00Z</time>
      </trkpt>
      <trkpt lat="47.80096" lon="1.73069">
        <ele>94.9</ele>
        <time>2020-07-02T18:55:01Z</time>
      </trkpt>
      <trkpt lat="47.8009" lon="1.7306">
        <ele>94.8</ele>
        <time>2020-07-02T18:55:02Z</time>
      </trkpt>
      <trkpt lat="47.80084" lon="1.73053">
        <ele>94.6</ele>
        <time>2020-07-02T18:55:03Z</time>
      </trkpt>
      <trkpt lat="47.80078" lon="1.73045">
        <ele>94.5</ele>
        <time>2020-07-02T18:55:04Z</time>
      </trkpt>
      <trkpt lat="47.80072" lon="1.73036">
        <ele>94.3</ele>
        <time>2020-07-02T18:55:05Z</time>
      </trkpt>
      <trkpt lat="47.80066" lon="1.73028">
        <ele>94.2</ele>
        <time>2020-07-02T18:55:06Z</time>
      </trkpt>
      <trkpt lat="47.8006" lon="1.7302">
        <ele>94.2</ele>
        <time>2020-07-02T18:55:07Z</time>
      </trkpt>
      <trkpt lat="47.80054" lon="1.73013">
        <ele>94.3</ele>
        <time>2020-07-02T18:55:08Z</time>
      </trkpt>
      <trkpt lat="47.80048" lon="1.73005">
        <ele>94.4</ele>
        <time>2020-07-02T18:55:09Z</time>
      </trkpt>
      <trkpt lat="47.80042" lon="1.72998">
        <ele>94.6</ele>
        <time>2020-07-02T18:55:10Z</time>
      </trkpt>
      <trkpt lat="47.80036" lon="1.7299">
        <ele>94.8</ele>
        <time>2020-07-02T18:55:11Z</time>
      </trkpt>
      <trkpt lat="47.8003" lon="1.72983">
        <ele>95.2</ele>
        <time>2020-07-02T18:55:12Z</time>
      </trkpt>
      <trkpt lat="47.80025" lon="1.72975">
        <ele>95.7</ele>
        <time>2020-07-02T18:55:13Z</time>
      </trkpt>
      <trkpt lat="47.80019" lon="1.72968">
        <ele>95.9</ele>
        <time>2020-07-02T18:55:14Z</time>
      </trkpt>
      <trkpt lat="47.80014" lon="1.7296">
        <ele>96</ele>
        <time>2020-07-02T18:55:15Z</time>
      </trkpt>
      <trkpt lat="47.80008" lon="1.72953">
        <ele>96.1</ele>
        <time>2020-07-02T18:55:16Z</time>
      </trkpt>
      <trkpt lat="47.80003" lon="1.72945">
        <ele>96.1</ele>
        <time>2020-07-02T18:55:17Z</time>
      </trkpt>
      <trkpt lat="47.79997" lon="1.72938">
        <ele>96.2</ele>
        <time>2020-07-02T18:55:18Z</time>
      </trkpt>
      <trkpt lat="47.79992" lon="1.72931">
        <ele>96.3</ele>
        <time>2020-07-02T18:55:19Z</time>
      </trkpt>
      <trkpt lat="47.79986" lon="1.72924">
        <ele>96.3</ele>
        <time>2020-07-02T18:55:20Z</time>
      </trkpt>
      <trkpt lat="47.79981" lon="1.72916">
        <ele>96.4</ele>
        <time>2020-07-02T18:55:21Z</time>
      </trkpt>
      <trkpt lat="47.79975" lon="1.7291">
        <ele>96.4</ele>
        <time>2020-07-02T18:55:22Z</time>
      </trkpt>
      <trkpt lat="47.7997" lon="1.72903">
        <ele>96.5</ele>
        <time>2020-07-02T18:55:23Z</time>
      </trkpt>
      <trkpt lat="47.79966" lon="1.72897">
        <ele>96.5</ele>
        <time>2020-07-02T18:55:24Z</time>
      </trkpt>
      <trkpt lat="47.79961" lon="1.7289">
        <ele>96.6</ele>
        <time>2020-07-02T18:55:25Z</time>
      </trkpt>
      <trkpt lat="47.79956" lon="1.72883">
        <ele>96.6</ele>
        <time>2020-07-02T18:55:26Z</time>
      </trkpt>
      <trkpt lat="47.79951" lon="1.72876">
        <ele>96.6</ele>
        <time>2020-07-02T18:55:27Z</time>
      </trkpt>
      <trkpt lat="47.79946" lon="1.7287">
        <ele>96.7</ele>
        <time>2020-07-02T18:55:28Z</time>
      </trkpt>
      <trkpt lat="47.7994" lon="1.72864">
        <ele>96.7</ele>
        <time>2020-07-02T18:55:29Z</time>
      </trkpt>
      <trkpt lat="47.79936" lon="1.72857">
        <ele>96.7</ele>
        <time>2020-07-02T18:55:30Z</time>
      </trkpt>
      <trkpt lat="47.79931" lon="1.72851">
        <ele>96.7</ele>
        <time>2020-07-02T18:55:31Z</time>
      </trkpt>
      <trkpt lat="47.79926" lon="1.72845">
        <ele>96.8</ele>
        <time>2020-07-02T18:55:32Z</time>
      </trkpt>
      <trkpt lat="47.79921" lon="1.72837">
        <ele>96.8</ele>
        <time>2020-07-02T18:55:33Z</time>
      </trkpt>
      <trkpt lat="47.79916" lon="1.72831">
        <ele>96.9</ele>
        <time>2020-07-02T18:55:34Z</time>
      </trkpt>
      <trkpt lat="47.79911" lon="1.72825">
        <ele>96.9</ele>
        <time>2020-07-02T18:55:35Z</time>
      </trkpt>
      <trkpt lat="47.79906" lon="1.72819">
        <ele>96.9</ele>
        <time>2020-07-02T18:55:36Z</time>
      </trkpt>
      <trkpt lat="47.79901" lon="1.72812">
        <ele>96.9</ele>
        <time>2020-07-02T18:55:37Z</time>
      </trkpt>
      <trkpt lat="47.79896" lon="1.72806">
        <ele>96.8</ele>
        <time>2020-07-02T18:55:38Z</time>
      </trkpt>
      <trkpt lat="47.79891" lon="1.72799">
        <ele>96.8</ele>
        <time>2020-07-02T18:55:39Z</time>
      </trkpt>
      <trkpt lat="47.79887" lon="1.72792">
        <ele>96.8</ele>
        <time>2020-07-02T18:55:40Z</time>
      </trkpt>
      <trkpt lat="47.79882" lon="1.72785">
        <ele>96.8</ele>
        <time>2020-07-02T18:55:41Z</time>
      </trkpt>
      <trkpt lat="47.79877" lon="1.72778">
        <ele>96.8</ele>
        <time>2020-07-02T18:55:42Z</time>
      </trkpt>
      <trkpt lat="47.79872" lon="1.72771">
        <ele>96.8</ele>
        <time>2020-07-02T18:55:43Z</time>
      </trkpt>
      <trkpt lat="47.79867" lon="1.72765">
        <ele>96.8</ele>
        <time>2020-07-02T18:55:44Z</time>
      </trkpt>
      <trkpt lat="47.79862" lon="1.72758">
        <ele>96.8</ele>
        <time>2020-07-02T18:55:45Z</time>
      </trkpt>
      <trkpt lat="47.79857" lon="1.72752">
        <ele>96.8</ele>
        <time>2020-07-02T18:55:46Z</time>
      </trkpt>
      <trkpt lat="47.79853" lon="1.72746">
        <ele>96.8</ele>
        <time>2020-07-02T18:55:47Z</time>
      </trkpt>
      <trkpt lat="47.79848" lon="1.72739">
        <ele>96.8</ele>
        <time>2020-07-02T18:55:48Z</time>
      </trkpt>
      <trkpt lat="47.79843" lon="1.72733">
        <ele>97</ele>
        <time>2020-07-02T18:55:49Z</time>
      </trkpt>
      <trkpt lat="47.79838" lon="1.72727">
        <ele>96.9</ele>
        <time>2020-07-02T18:55:50Z</time>
      </trkpt>
      <trkpt lat="47.79833" lon="1.7272">
        <ele>96.9</ele>
        <time>2020-07-02T18:55:51Z</time>
      </trkpt>
      <trkpt lat="47.79828" lon="1.72713">
        <ele>96.8</ele>
        <time>2020-07-02T18:55:52Z</time>
      </trkpt>
      <trkpt lat="47.79824" lon="1.72707">
        <ele>96.8</ele>
        <time>2020-07-02T18:55:53Z</time>
      </trkpt>
      <trkpt lat="47.79818" lon="1.727">
        <ele>96.8</ele>
        <time>2020-07-02T18:55:54Z</time>
      </trkpt>
      <trkpt lat="47.79814" lon="1.72693">
        <ele>96.8</ele>
        <time>2020-07-02T18:55:55Z</time>
      </trkpt>
      <trkpt lat="47.79809" lon="1.72687">
        <ele>96.8</ele>
        <time>2020-07-02T18:55:56Z</time>
      </trkpt>
      <trkpt lat="47.79804" lon="1.7268">
        <ele>96.9</ele>
        <time>2020-07-02T18:55:57Z</time>
      </trkpt>
      <trkpt lat="47.79799" lon="1.72673">
        <ele>96.9</ele>
        <time>2020-07-02T18:55:58Z</time>
      </trkpt>
      <trkpt lat="47.79795" lon="1.72667">
        <ele>97</ele>
        <time>2020-07-02T18:55:59Z</time>
      </trkpt>
      <trkpt lat="47.7979" lon="1.72661">
        <ele>97.1</ele>
        <time>2020-07-02T18:56:00Z</time>
      </trkpt>
      <trkpt lat="47.79785" lon="1.72654">
        <ele>97.1</ele>
        <time>2020-07-02T18:56:01Z</time>
      </trkpt>
      <trkpt lat="47.79781" lon="1.72648">
        <ele>97.1</ele>
        <time>2020-07-02T18:56:02Z</time>
      </trkpt>
      <trkpt lat="47.79776" lon="1.72641">
        <ele>97.1</ele>
        <time>2020-07-02T18:56:03Z</time>
      </trkpt>
      <trkpt lat="47.79771" lon="1.72635">
        <ele>97.2</ele>
        <time>2020-07-02T18:56:04Z</time>
      </trkpt>
      <trkpt lat="47.79767" lon="1.72629">
        <ele>97.2</ele>
        <time>2020-07-02T18:56:05Z</time>
      </trkpt>
      <trkpt lat="47.79762" lon="1.72623">
        <ele>97.2</ele>
        <time>2020-07-02T18:56:06Z</time>
      </trkpt>
      <trkpt lat="47.79757" lon="1.72617">
        <ele>97.2</ele>
        <time>2020-07-02T18:56:07Z</time>
      </trkpt>
      <trkpt lat="47.79752" lon="1.72611">
        <ele>97.2</ele>
        <time>2020-07-02T18:56:08Z</time>
      </trkpt>
      <trkpt lat="47.79747" lon="1.72605">
        <ele>97.2</ele>
        <time>2020-07-02T18:56:09Z</time>
      </trkpt>
      <trkpt lat="47.79742" lon="1.72598">
        <ele>97.2</ele>
        <time>2020-07-02T18:56:10Z</time>
      </trkpt>
      <trkpt lat="47.79737" lon="1.72592">
        <ele>97.3</ele>
        <time>2020-07-02T18:56:11Z</time>
      </trkpt>
      <trkpt lat="47.79732" lon="1.72586">
        <ele>97.3</ele>
        <time>2020-07-02T18:56:12Z</time>
      </trkpt>
      <trkpt lat="47.79727" lon="1.72579">
        <ele>97.3</ele>
        <time>2020-07-02T18:56:13Z</time>
      </trkpt>
      <trkpt lat="47.79723" lon="1.72573">
        <ele>97.3</ele>
        <time>2020-07-02T18:56:14Z</time>
      </trkpt>
      <trkpt lat="47.79717" lon="1.72566">
        <ele>97.2</ele>
        <time>2020-07-02T18:56:15Z</time>
      </trkpt>
      <trkpt lat="47.79713" lon="1.72559">
        <ele>97.2</ele>
        <time>2020-07-02T18:56:16Z</time>
      </trkpt>
      <trkpt lat="47.79708" lon="1.72552">
        <ele>97.3</ele>
        <time>2020-07-02T18:56:17Z</time>
      </trkpt>
      <trkpt lat="47.79703" lon="1.72545">
        <ele>97.4</ele>
        <time>2020-07-02T18:56:18Z</time>
      </trkpt>
      <trkpt lat="47.79698" lon="1.72538">
        <ele>97.4</ele>
        <time>2020-07-02T18:56:19Z</time>
      </trkpt>
      <trkpt lat="47.79693" lon="1.72532">
        <ele>97.5</ele>
        <time>2020-07-02T18:56:20Z</time>
      </trkpt>
      <trkpt lat="47.79688" lon="1.72526">
        <ele>97.9</ele>
        <time>2020-07-02T18:56:21Z</time>
      </trkpt>
      <trkpt lat="47.79683" lon="1.72519">
        <ele>98.1</ele>
        <time>2020-07-02T18:56:22Z</time>
      </trkpt>
      <trkpt lat="47.79678" lon="1.72513">
        <ele>98.2</ele>
        <time>2020-07-02T18:56:23Z</time>
      </trkpt>
      <trkpt lat="47.79673" lon="1.72506">
        <ele>98.1</ele>
        <time>2020-07-02T18:56:24Z</time>
      </trkpt>
      <trkpt lat="47.79668" lon="1.72499">
        <ele>98.1</ele>
        <time>2020-07-02T18:56:25Z</time>
      </trkpt>
      <trkpt lat="47.79663" lon="1.72493">
        <ele>98</ele>
        <time>2020-07-02T18:56:26Z</time>
      </trkpt>
      <trkpt lat="47.79659" lon="1.72487">
        <ele>98</ele>
        <time>2020-07-02T18:56:27Z</time>
      </trkpt>
      <trkpt lat="47.79654" lon="1.72481">
        <ele>97.9</ele>
        <time>2020-07-02T18:56:28Z</time>
      </trkpt>
      <trkpt lat="47.79649" lon="1.72474">
        <ele>97.8</ele>
        <time>2020-07-02T18:56:29Z</time>
      </trkpt>
      <trkpt lat="47.79644" lon="1.72467">
        <ele>97.7</ele>
        <time>2020-07-02T18:56:30Z</time>
      </trkpt>
      <trkpt lat="47.79639" lon="1.7246">
        <ele>97.6</ele>
        <time>2020-07-02T18:56:31Z</time>
      </trkpt>
      <trkpt lat="47.79634" lon="1.72454">
        <ele>97.6</ele>
        <time>2020-07-02T18:56:32Z</time>
      </trkpt>
      <trkpt lat="47.79629" lon="1.72447">
        <ele>97.5</ele>
        <time>2020-07-02T18:56:33Z</time>
      </trkpt>
      <trkpt lat="47.79624" lon="1.7244">
        <ele>97.5</ele>
        <time>2020-07-02T18:56:34Z</time>
      </trkpt>
      <trkpt lat="47.79619" lon="1.72433">
        <ele>97.4</ele>
        <time>2020-07-02T18:56:35Z</time>
      </trkpt>
      <trkpt lat="47.79614" lon="1.72426">
        <ele>97.3</ele>
        <time>2020-07-02T18:56:36Z</time>
      </trkpt>
      <trkpt lat="47.79608" lon="1.72419">
        <ele>97.2</ele>
        <time>2020-07-02T18:56:37Z</time>
      </trkpt>
      <trkpt lat="47.79603" lon="1.72412">
        <ele>97.1</ele>
        <time>2020-07-02T18:56:38Z</time>
      </trkpt>
      <trkpt lat="47.79597" lon="1.72405">
        <ele>97.1</ele>
        <time>2020-07-02T18:56:39Z</time>
      </trkpt>
      <trkpt lat="47.79592" lon="1.72398">
        <ele>97.1</ele>
        <time>2020-07-02T18:56:40Z</time>
      </trkpt>
      <trkpt lat="47.79586" lon="1.72392">
        <ele>97.1</ele>
        <time>2020-07-02T18:56:41Z</time>
      </trkpt>
      <trkpt lat="47.79581" lon="1.72385">
        <ele>97.2</ele>
        <time>2020-07-02T18:56:42Z</time>
      </trkpt>
      <trkpt lat="47.79576" lon="1.72378">
        <ele>97.3</ele>
        <time>2020-07-02T18:56:43Z</time>
      </trkpt>
      <trkpt lat="47.7957" lon="1.72371">
        <ele>97.3</ele>
        <time>2020-07-02T18:56:44Z</time>
      </trkpt>
      <trkpt lat="47.79565" lon="1.72364">
        <ele>97.3</ele>
        <time>2020-07-02T18:56:45Z</time>
      </trkpt>
      <trkpt lat="47.7956" lon="1.72356">
        <ele>97.3</ele>
        <time>2020-07-02T18:56:46Z</time>
      </trkpt>
      <trkpt lat="47.79554" lon="1.72349">
        <ele>97.2</ele>
        <time>2020-07-02T18:56:47Z</time>
      </trkpt>
      <trkpt lat="47.79549" lon="1.72342">
        <ele>97.1</ele>
        <time>2020-07-02T18:56:48Z</time>
      </trkpt>
      <trkpt lat="47.79544" lon="1.72335">
        <ele>97.1</ele>
        <time>2020-07-02T18:56:49Z</time>
      </trkpt>
      <trkpt lat="47.79538" lon="1.72328">
        <ele>97.1</ele>
        <time>2020-07-02T18:56:50Z</time>
      </trkpt>
      <trkpt lat="47.79532" lon="1.72323">
        <ele>97.1</ele>
        <time>2020-07-02T18:56:51Z</time>
      </trkpt>
      <trkpt lat="47.79527" lon="1.72317">
        <ele>97.1</ele>
        <time>2020-07-02T18:56:52Z</time>
      </trkpt>
      <trkpt lat="47.79522" lon="1.7231">
        <ele>97.1</ele>
        <time>2020-07-02T18:56:53Z</time>
      </trkpt>
      <trkpt lat="47.79517" lon="1.72302">
        <ele>97.1</ele>
        <time>2020-07-02T18:56:54Z</time>
      </trkpt>
      <trkpt lat="47.79512" lon="1.72295">
        <ele>97.1</ele>
        <time>2020-07-02T18:56:55Z</time>
      </trkpt>
      <trkpt lat="47.79506" lon="1.72288">
        <ele>97.1</ele>
        <time>2020-07-02T18:56:56Z</time>
      </trkpt>
      <trkpt lat="47.795" lon="1.72281">
        <ele>97.1</ele>
        <time>2020-07-02T18:56:57Z</time>
      </trkpt>
      <trkpt lat="47.79494" lon="1.72275">
        <ele>97.1</ele>
        <time>2020-07-02T18:56:58Z</time>
      </trkpt>
      <trkpt lat="47.79489" lon="1.72268">
        <ele>97.2</ele>
        <time>2020-07-02T18:56:59Z</time>
      </trkpt>
      <trkpt lat="47.79483" lon="1.72261">
        <ele>97.2</ele>
        <time>2020-07-02T18:57:00Z</time>
      </trkpt>
      <trkpt lat="47.79477" lon="1.72254">
        <ele>97.2</ele>
        <time>2020-07-02T18:57:01Z</time>
      </trkpt>
      <trkpt lat="47.79472" lon="1.72246">
        <ele>97.2</ele>
        <time>2020-07-02T18:57:02Z</time>
      </trkpt>
      <trkpt lat="47.79466" lon="1.72239">
        <ele>97.2</ele>
        <time>2020-07-02T18:57:03Z</time>
      </trkpt>
      <trkpt lat="47.79461" lon="1.72231">
        <ele>97.2</ele>
        <time>2020-07-02T18:57:04Z</time>
      </trkpt>
      <trkpt lat="47.79456" lon="1.72224">
        <ele>97.3</ele>
        <time>2020-07-02T18:57:05Z</time>
      </trkpt>
      <trkpt lat="47.79451" lon="1.72217">
        <ele>97.4</ele>
        <time>2020-07-02T18:57:06Z</time>
      </trkpt>
      <trkpt lat="47.79445" lon="1.7221">
        <ele>97.5</ele>
        <time>2020-07-02T18:57:07Z</time>
      </trkpt>
      <trkpt lat="47.7944" lon="1.72203">
        <ele>97.6</ele>
        <time>2020-07-02T18:57:08Z</time>
      </trkpt>
      <trkpt lat="47.79435" lon="1.72196">
        <ele>97.8</ele>
        <time>2020-07-02T18:57:09Z</time>
      </trkpt>
      <trkpt lat="47.79431" lon="1.72189">
        <ele>97.8</ele>
        <time>2020-07-02T18:57:10Z</time>
      </trkpt>
      <trkpt lat="47.79425" lon="1.72182">
        <ele>97.7</ele>
        <time>2020-07-02T18:57:11Z</time>
      </trkpt>
      <trkpt lat="47.7942" lon="1.72175">
        <ele>97.6</ele>
        <time>2020-07-02T18:57:12Z</time>
      </trkpt>
      <trkpt lat="47.79415" lon="1.72168">
        <ele>97.5</ele>
        <time>2020-07-02T18:57:13Z</time>
      </trkpt>
      <trkpt lat="47.7941" lon="1.72161">
        <ele>97.5</ele>
        <time>2020-07-02T18:57:14Z</time>
      </trkpt>
      <trkpt lat="47.79405" lon="1.72154">
        <ele>97.4</ele>
        <time>2020-07-02T18:57:15Z</time>
      </trkpt>
      <trkpt lat="47.794" lon="1.72147">
        <ele>97.3</ele>
        <time>2020-07-02T18:57:16Z</time>
      </trkpt>
      <trkpt lat="47.79395" lon="1.7214">
        <ele>97.3</ele>
        <time>2020-07-02T18:57:17Z</time>
      </trkpt>
      <trkpt lat="47.79389" lon="1.72133">
        <ele>97.3</ele>
        <time>2020-07-02T18:57:18Z</time>
      </trkpt>
      <trkpt lat="47.79385" lon="1.72126">
        <ele>97.2</ele>
        <time>2020-07-02T18:57:19Z</time>
      </trkpt>
      <trkpt lat="47.7938" lon="1.72119">
        <ele>97.2</ele>
        <time>2020-07-02T18:57:20Z</time>
      </trkpt>
      <trkpt lat="47.79374" lon="1.72113">
        <ele>97.2</ele>
        <time>2020-07-02T18:57:21Z</time>
      </trkpt>
      <trkpt lat="47.79369" lon="1.72106">
        <ele>97.1</ele>
        <time>2020-07-02T18:57:22Z</time>
      </trkpt>
      <trkpt lat="47.79364" lon="1.72099">
        <ele>97.1</ele>
        <time>2020-07-02T18:57:23Z</time>
      </trkpt>
      <trkpt lat="47.79358" lon="1.72092">
        <ele>97.1</ele>
        <time>2020-07-02T18:57:24Z</time>
      </trkpt>
      <trkpt lat="47.79353" lon="1.72085">
        <ele>97.1</ele>
        <time>2020-07-02T18:57:25Z</time>
      </trkpt>
      <trkpt lat="47.79348" lon="1.72079">
        <ele>97.1</ele>
        <time>2020-07-02T18:57:26Z</time>
      </trkpt>
      <trkpt lat="47.79342" lon="1.72072">
        <ele>97.1</ele>
        <time>2020-07-02T18:57:27Z</time>
      </trkpt>
      <trkpt lat="47.79337" lon="1.72065">
        <ele>97</ele>
        <time>2020-07-02T18:57:28Z</time>
      </trkpt>
      <trkpt lat="47.79332" lon="1.72058">
        <ele>97</ele>
        <time>2020-07-02T18:57:29Z</time>
      </trkpt>
      <trkpt lat="47.79327" lon="1.72051">
        <ele>96.9</ele>
        <time>2020-07-02T18:57:30Z</time>
      </trkpt>
      <trkpt lat="47.79322" lon="1.72044">
        <ele>96.9</ele>
        <time>2020-07-02T18:57:31Z</time>
      </trkpt>
      <trkpt lat="47.79317" lon="1.72037">
        <ele>96.9</ele>
        <time>2020-07-02T18:57:32Z</time>
      </trkpt>
      <trkpt lat="47.79312" lon="1.7203">
        <ele>96.9</ele>
        <time>2020-07-02T18:57:33Z</time>
      </trkpt>
      <trkpt lat="47.79306" lon="1.72022">
        <ele>96.9</ele>
        <time>2020-07-02T18:57:34Z</time>
      </trkpt>
      <trkpt lat="47.79301" lon="1.72016">
        <ele>96.8</ele>
        <time>2020-07-02T18:57:35Z</time>
      </trkpt>
      <trkpt lat="47.79296" lon="1.72009">
        <ele>96.8</ele>
        <time>2020-07-02T18:57:36Z</time>
      </trkpt>
      <trkpt lat="47.7929" lon="1.72002">
        <ele>96.6</ele>
        <time>2020-07-02T18:57:37Z</time>
      </trkpt>
      <trkpt lat="47.79285" lon="1.71996">
        <ele>96.6</ele>
        <time>2020-07-02T18:57:38Z</time>
      </trkpt>
      <trkpt lat="47.7928" lon="1.71989">
        <ele>96.7</ele>
        <time>2020-07-02T18:57:39Z</time>
      </trkpt>
      <trkpt lat="47.79274" lon="1.71983">
        <ele>96.6</ele>
        <time>2020-07-02T18:57:40Z</time>
      </trkpt>
      <trkpt lat="47.79269" lon="1.71976">
        <ele>96.5</ele>
        <time>2020-07-02T18:57:41Z</time>
      </trkpt>
      <trkpt lat="47.79264" lon="1.71969">
        <ele>96.5</ele>
        <time>2020-07-02T18:57:42Z</time>
      </trkpt>
      <trkpt lat="47.79258" lon="1.71962">
        <ele>96.4</ele>
        <time>2020-07-02T18:57:43Z</time>
      </trkpt>
      <trkpt lat="47.79253" lon="1.71955">
        <ele>96.4</ele>
        <time>2020-07-02T18:57:44Z</time>
      </trkpt>
      <trkpt lat="47.79247" lon="1.71948">
        <ele>96.4</ele>
        <time>2020-07-02T18:57:45Z</time>
      </trkpt>
      <trkpt lat="47.79242" lon="1.71941">
        <ele>96.3</ele>
        <time>2020-07-02T18:57:46Z</time>
      </trkpt>
      <trkpt lat="47.79237" lon="1.71934">
        <ele>96.3</ele>
        <time>2020-07-02T18:57:47Z</time>
      </trkpt>
      <trkpt lat="47.79231" lon="1.71927">
        <ele>96.2</ele>
        <time>2020-07-02T18:57:48Z</time>
      </trkpt>
      <trkpt lat="47.79226" lon="1.7192">
        <ele>96.1</ele>
        <time>2020-07-02T18:57:49Z</time>
      </trkpt>
      <trkpt lat="47.7922" lon="1.71912">
        <ele>96</ele>
        <time>2020-07-02T18:57:50Z</time>
      </trkpt>
      <trkpt lat="47.79215" lon="1.71905">
        <ele>95.9</ele>
        <time>2020-07-02T18:57:51Z</time>
      </trkpt>
      <trkpt lat="47.7921" lon="1.71898">
        <ele>95.9</ele>
        <time>2020-07-02T18:57:52Z</time>
      </trkpt>
      <trkpt lat="47.79205" lon="1.7189">
        <ele>95.8</ele>
        <time>2020-07-02T18:57:53Z</time>
      </trkpt>
      <trkpt lat="47.792" lon="1.71884">
        <ele>95.8</ele>
        <time>2020-07-02T18:57:54Z</time>
      </trkpt>
      <trkpt lat="47.79195" lon="1.71877">
        <ele>95.7</ele>
        <time>2020-07-02T18:57:55Z</time>
      </trkpt>
      <trkpt lat="47.7919" lon="1.7187">
        <ele>95.7</ele>
        <time>2020-07-02T18:57:56Z</time>
      </trkpt>
      <trkpt lat="47.79185" lon="1.71863">
        <ele>95.6</ele>
        <time>2020-07-02T18:57:57Z</time>
      </trkpt>
      <trkpt lat="47.79179" lon="1.71857">
        <ele>95.6</ele>
        <time>2020-07-02T18:57:58Z</time>
      </trkpt>
      <trkpt lat="47.79174" lon="1.71849">
        <ele>95.5</ele>
        <time>2020-07-02T18:57:59Z</time>
      </trkpt>
      <trkpt lat="47.79169" lon="1.71842">
        <ele>95.4</ele>
        <time>2020-07-02T18:58:00Z</time>
      </trkpt>
      <trkpt lat="47.79164" lon="1.71835">
        <ele>95.4</ele>
        <time>2020-07-02T18:58:01Z</time>
      </trkpt>
      <trkpt lat="47.79158" lon="1.71828">
        <ele>95.3</ele>
        <time>2020-07-02T18:58:02Z</time>
      </trkpt>
      <trkpt lat="47.79153" lon="1.71821">
        <ele>95.1</ele>
        <time>2020-07-02T18:58:03Z</time>
      </trkpt>
      <trkpt lat="47.79148" lon="1.71814">
        <ele>95</ele>
        <time>2020-07-02T18:58:04Z</time>
      </trkpt>
      <trkpt lat="47.79143" lon="1.71807">
        <ele>94.9</ele>
        <time>2020-07-02T18:58:05Z</time>
      </trkpt>
      <trkpt lat="47.79137" lon="1.718">
        <ele>94.8</ele>
        <time>2020-07-02T18:58:06Z</time>
      </trkpt>
      <trkpt lat="47.79132" lon="1.71793">
        <ele>94.8</ele>
        <time>2020-07-02T18:58:07Z</time>
      </trkpt>
      <trkpt lat="47.79127" lon="1.71786">
        <ele>94.8</ele>
        <time>2020-07-02T18:58:08Z</time>
      </trkpt>
      <trkpt lat="47.79122" lon="1.71779">
        <ele>94.8</ele>
        <time>2020-07-02T18:58:09Z</time>
      </trkpt>
      <trkpt lat="47.79117" lon="1.71772">
        <ele>94.8</ele>
        <time>2020-07-02T18:58:10Z</time>
      </trkpt>
      <trkpt lat="47.79111" lon="1.71765">
        <ele>94.9</ele>
        <time>2020-07-02T18:58:11Z</time>
      </trkpt>
      <trkpt lat="47.79106" lon="1.71759">
        <ele>94.9</ele>
        <time>2020-07-02T18:58:12Z</time>
      </trkpt>
      <trkpt lat="47.79101" lon="1.71752">
        <ele>94.9</ele>
        <time>2020-07-02T18:58:13Z</time>
      </trkpt>
      <trkpt lat="47.79096" lon="1.71745">
        <ele>94.9</ele>
        <time>2020-07-02T18:58:14Z</time>
      </trkpt>
      <trkpt lat="47.79091" lon="1.71739">
        <ele>95</ele>
        <time>2020-07-02T18:58:15Z</time>
      </trkpt>
      <trkpt lat="47.79086" lon="1.71731">
        <ele>95</ele>
        <time>2020-07-02T18:58:16Z</time>
      </trkpt>
      <trkpt lat="47.79082" lon="1.71723">
        <ele>95</ele>
        <time>2020-07-02T18:58:17Z</time>
      </trkpt>
      <trkpt lat="47.79078" lon="1.71714">
        <ele>95</ele>
        <time>2020-07-02T18:58:18Z</time>
      </trkpt>
      <trkpt lat="47.79075" lon="1.71705">
        <ele>94.9</ele>
        <time>2020-07-02T18:58:19Z</time>
      </trkpt>
      <trkpt lat="47.79072" lon="1.71696">
        <ele>94.8</ele>
        <time>2020-07-02T18:58:20Z</time>
      </trkpt>
      <trkpt lat="47.79069" lon="1.71687">
        <ele>94.7</ele>
        <time>2020-07-02T18:58:21Z</time>
      </trkpt>
      <trkpt lat="47.79065" lon="1.7168">
        <ele>94.6</ele>
        <time>2020-07-02T18:58:22Z</time>
      </trkpt>
      <trkpt lat="47.79059" lon="1.71677">
        <ele>94.6</ele>
        <time>2020-07-02T18:58:23Z</time>
      </trkpt>
      <trkpt lat="47.79052" lon="1.71674">
        <ele>94.5</ele>
        <time>2020-07-02T18:58:24Z</time>
      </trkpt>
      <trkpt lat="47.79045" lon="1.71671">
        <ele>94.5</ele>
        <time>2020-07-02T18:58:25Z</time>
      </trkpt>
      <trkpt lat="47.79039" lon="1.71665">
        <ele>94.5</ele>
        <time>2020-07-02T18:58:26Z</time>
      </trkpt>
      <trkpt lat="47.79034" lon="1.71659">
        <ele>94.5</ele>
        <time>2020-07-02T18:58:27Z</time>
      </trkpt>
      <trkpt lat="47.79028" lon="1.71653">
        <ele>94.5</ele>
        <time>2020-07-02T18:58:28Z</time>
      </trkpt>
      <trkpt lat="47.79023" lon="1.71646">
        <ele>94.5</ele>
        <time>2020-07-02T18:58:29Z</time>
      </trkpt>
      <trkpt lat="47.79017" lon="1.7164">
        <ele>94.5</ele>
        <time>2020-07-02T18:58:30Z</time>
      </trkpt>
      <trkpt lat="47.79012" lon="1.71632">
        <ele>94.5</ele>
        <time>2020-07-02T18:58:31Z</time>
      </trkpt>
      <trkpt lat="47.79007" lon="1.71625">
        <ele>94.5</ele>
        <time>2020-07-02T18:58:32Z</time>
      </trkpt>
      <trkpt lat="47.79002" lon="1.71618">
        <ele>94.6</ele>
        <time>2020-07-02T18:58:33Z</time>
      </trkpt>
      <trkpt lat="47.78996" lon="1.71611">
        <ele>94.6</ele>
        <time>2020-07-02T18:58:34Z</time>
      </trkpt>
      <trkpt lat="47.78991" lon="1.71605">
        <ele>94.7</ele>
        <time>2020-07-02T18:58:35Z</time>
      </trkpt>
      <trkpt lat="47.78986" lon="1.71598">
        <ele>94.7</ele>
        <time>2020-07-02T18:58:36Z</time>
      </trkpt>
      <trkpt lat="47.78981" lon="1.71591">
        <ele>94.8</ele>
        <time>2020-07-02T18:58:37Z</time>
      </trkpt>
      <trkpt lat="47.78975" lon="1.71585">
        <ele>94.9</ele>
        <time>2020-07-02T18:58:38Z</time>
      </trkpt>
      <trkpt lat="47.7897" lon="1.71578">
        <ele>95</ele>
        <time>2020-07-02T18:58:39Z</time>
      </trkpt>
      <trkpt lat="47.78965" lon="1.71572">
        <ele>95.2</ele>
        <time>2020-07-02T18:58:40Z</time>
      </trkpt>
      <trkpt lat="47.7896" lon="1.71565">
        <ele>95.3</ele>
        <time>2020-07-02T18:58:41Z</time>
      </trkpt>
      <trkpt lat="47.78955" lon="1.71559">
        <ele>95.5</ele>
        <time>2020-07-02T18:58:42Z</time>
      </trkpt>
      <trkpt lat="47.7895" lon="1.71552">
        <ele>95.6</ele>
        <time>2020-07-02T18:58:43Z</time>
      </trkpt>
      <trkpt lat="47.78944" lon="1.71545">
        <ele>95.7</ele>
        <time>2020-07-02T18:58:44Z</time>
      </trkpt>
      <trkpt lat="47.78939" lon="1.71539">
        <ele>95.8</ele>
        <time>2020-07-02T18:58:45Z</time>
      </trkpt>
      <trkpt lat="47.78934" lon="1.71533">
        <ele>95.8</ele>
        <time>2020-07-02T18:58:46Z</time>
      </trkpt>
      <trkpt lat="47.78929" lon="1.71526">
        <ele>95.8</ele>
        <time>2020-07-02T18:58:47Z</time>
      </trkpt>
      <trkpt lat="47.78924" lon="1.7152">
        <ele>95.8</ele>
        <time>2020-07-02T18:58:48Z</time>
      </trkpt>
      <trkpt lat="47.78919" lon="1.71513">
        <ele>95.8</ele>
        <time>2020-07-02T18:58:49Z</time>
      </trkpt>
      <trkpt lat="47.78914" lon="1.71506">
        <ele>95.8</ele>
        <time>2020-07-02T18:58:50Z</time>
      </trkpt>
      <trkpt lat="47.78909" lon="1.715">
        <ele>95.8</ele>
        <time>2020-07-02T18:58:51Z</time>
      </trkpt>
      <trkpt lat="47.78903" lon="1.71494">
        <ele>95.8</ele>
        <time>2020-07-02T18:58:52Z</time>
      </trkpt>
      <trkpt lat="47.78898" lon="1.71488">
        <ele>95.8</ele>
        <time>2020-07-02T18:58:53Z</time>
      </trkpt>
      <trkpt lat="47.78894" lon="1.71481">
        <ele>95.8</ele>
        <time>2020-07-02T18:58:54Z</time>
      </trkpt>
      <trkpt lat="47.78888" lon="1.71475">
        <ele>95.8</ele>
        <time>2020-07-02T18:58:55Z</time>
      </trkpt>
      <trkpt lat="47.78883" lon="1.71469">
        <ele>95.8</ele>
        <time>2020-07-02T18:58:56Z</time>
      </trkpt>
      <trkpt lat="47.78879" lon="1.71462">
        <ele>95.8</ele>
        <time>2020-07-02T18:58:57Z</time>
      </trkpt>
      <trkpt lat="47.78874" lon="1.71455">
        <ele>95.9</ele>
        <time>2020-07-02T18:58:58Z</time>
      </trkpt>
      <trkpt lat="47.78869" lon="1.71448">
        <ele>95.9</ele>
        <time>2020-07-02T18:58:59Z</time>
      </trkpt>
      <trkpt lat="47.78865" lon="1.71441">
        <ele>95.9</ele>
        <time>2020-07-02T18:59:00Z</time>
      </trkpt>
      <trkpt lat="47.7886" lon="1.71435">
        <ele>95.9</ele>
        <time>2020-07-02T18:59:01Z</time>
      </trkpt>
      <trkpt lat="47.78855" lon="1.71429">
        <ele>95.9</ele>
        <time>2020-07-02T18:59:02Z</time>
      </trkpt>
      <trkpt lat="47.78851" lon="1.71422">
        <ele>95.9</ele>
        <time>2020-07-02T18:59:03Z</time>
      </trkpt>
      <trkpt lat="47.78846" lon="1.71415">
        <ele>95.9</ele>
        <time>2020-07-02T18:59:04Z</time>
      </trkpt>
      <trkpt lat="47.78842" lon="1.71409">
        <ele>95.9</ele>
        <time>2020-07-02T18:59:05Z</time>
      </trkpt>
      <trkpt lat="47.78837" lon="1.71403">
        <ele>95.8</ele>
        <time>2020-07-02T18:59:06Z</time>
      </trkpt>
      <trkpt lat="47.78832" lon="1.71396">
        <ele>95.8</ele>
        <time>2020-07-02T18:59:07Z</time>
      </trkpt>
      <trkpt lat="47.78827" lon="1.7139">
        <ele>95.7</ele>
        <time>2020-07-02T18:59:08Z</time>
      </trkpt>
      <trkpt lat="47.78822" lon="1.71384">
        <ele>95.6</ele>
        <time>2020-07-02T18:59:09Z</time>
      </trkpt>
      <trkpt lat="47.78817" lon="1.71378">
        <ele>95.5</ele>
        <time>2020-07-02T18:59:10Z</time>
      </trkpt>
      <trkpt lat="47.78812" lon="1.71371">
        <ele>95.5</ele>
        <time>2020-07-02T18:59:11Z</time>
      </trkpt>
      <trkpt lat="47.78808" lon="1.71365">
        <ele>95.4</ele>
        <time>2020-07-02T18:59:12Z</time>
      </trkpt>
      <trkpt lat="47.78803" lon="1.71358">
        <ele>95.3</ele>
        <time>2020-07-02T18:59:13Z</time>
      </trkpt>
      <trkpt lat="47.78798" lon="1.71352">
        <ele>95.2</ele>
        <time>2020-07-02T18:59:14Z</time>
      </trkpt>
      <trkpt lat="47.78793" lon="1.71344">
        <ele>95.2</ele>
        <time>2020-07-02T18:59:15Z</time>
      </trkpt>
      <trkpt lat="47.78788" lon="1.71338">
        <ele>95.1</ele>
        <time>2020-07-02T18:59:16Z</time>
      </trkpt>
      <trkpt lat="47.78783" lon="1.71331">
        <ele>95.1</ele>
        <time>2020-07-02T18:59:17Z</time>
      </trkpt>
      <trkpt lat="47.78778" lon="1.71324">
        <ele>95</ele>
        <time>2020-07-02T18:59:18Z</time>
      </trkpt>
      <trkpt lat="47.78773" lon="1.71316">
        <ele>95</ele>
        <time>2020-07-02T18:59:19Z</time>
      </trkpt>
      <trkpt lat="47.78768" lon="1.71309">
        <ele>95</ele>
        <time>2020-07-02T18:59:20Z</time>
      </trkpt>
      <trkpt lat="47.78763" lon="1.71303">
        <ele>94.9</ele>
        <time>2020-07-02T18:59:21Z</time>
      </trkpt>
      <trkpt lat="47.78758" lon="1.71296">
        <ele>94.9</ele>
        <time>2020-07-02T18:59:22Z</time>
      </trkpt>
      <trkpt lat="47.78753" lon="1.71289">
        <ele>94.9</ele>
        <time>2020-07-02T18:59:23Z</time>
      </trkpt>
      <trkpt lat="47.78748" lon="1.71282">
        <ele>94.9</ele>
        <time>2020-07-02T18:59:24Z</time>
      </trkpt>
      <trkpt lat="47.78743" lon="1.71275">
        <ele>95</ele>
        <time>2020-07-02T18:59:25Z</time>
      </trkpt>
      <trkpt lat="47.78738" lon="1.71268">
        <ele>95</ele>
        <time>2020-07-02T18:59:26Z</time>
      </trkpt>
      <trkpt lat="47.78733" lon="1.71261">
        <ele>95</ele>
        <time>2020-07-02T18:59:27Z</time>
      </trkpt>
      <trkpt lat="47.78727" lon="1.71254">
        <ele>95.1</ele>
        <time>2020-07-02T18:59:28Z</time>
      </trkpt>
      <trkpt lat="47.78722" lon="1.71246">
        <ele>95.2</ele>
        <time>2020-07-02T18:59:29Z</time>
      </trkpt>
      <trkpt lat="47.78718" lon="1.71238">
        <ele>95.3</ele>
        <time>2020-07-02T18:59:30Z</time>
      </trkpt>
      <trkpt lat="47.78713" lon="1.71232">
        <ele>95.4</ele>
        <time>2020-07-02T18:59:31Z</time>
      </trkpt>
      <trkpt lat="47.78708" lon="1.71225">
        <ele>95.9</ele>
        <time>2020-07-02T18:59:32Z</time>
      </trkpt>
      <trkpt lat="47.78703" lon="1.71218">
        <ele>96.4</ele>
        <time>2020-07-02T18:59:33Z</time>
      </trkpt>
      <trkpt lat="47.78698" lon="1.7121">
        <ele>96.6</ele>
        <time>2020-07-02T18:59:34Z</time>
      </trkpt>
      <trkpt lat="47.78692" lon="1.71203">
        <ele>96.6</ele>
        <time>2020-07-02T18:59:35Z</time>
      </trkpt>
      <trkpt lat="47.78687" lon="1.71198">
        <ele>96.5</ele>
        <time>2020-07-02T18:59:36Z</time>
      </trkpt>
      <trkpt lat="47.78681" lon="1.71191">
        <ele>96.5</ele>
        <time>2020-07-02T18:59:37Z</time>
      </trkpt>
      <trkpt lat="47.78675" lon="1.71185">
        <ele>96.4</ele>
        <time>2020-07-02T18:59:38Z</time>
      </trkpt>
      <trkpt lat="47.7867" lon="1.71178">
        <ele>96.4</ele>
        <time>2020-07-02T18:59:39Z</time>
      </trkpt>
      <trkpt lat="47.78665" lon="1.71172">
        <ele>96.3</ele>
        <time>2020-07-02T18:59:40Z</time>
      </trkpt>
      <trkpt lat="47.78659" lon="1.71165">
        <ele>96.3</ele>
        <time>2020-07-02T18:59:41Z</time>
      </trkpt>
      <trkpt lat="47.78653" lon="1.71157">
        <ele>96.3</ele>
        <time>2020-07-02T18:59:42Z</time>
      </trkpt>
      <trkpt lat="47.78647" lon="1.7115">
        <ele>96.2</ele>
        <time>2020-07-02T18:59:43Z</time>
      </trkpt>
      <trkpt lat="47.78641" lon="1.71143">
        <ele>96.2</ele>
        <time>2020-07-02T18:59:44Z</time>
      </trkpt>
      <trkpt lat="47.78636" lon="1.71135">
        <ele>96.1</ele>
        <time>2020-07-02T18:59:45Z</time>
      </trkpt>
      <trkpt lat="47.78631" lon="1.71128">
        <ele>96</ele>
        <time>2020-07-02T18:59:46Z</time>
      </trkpt>
      <trkpt lat="47.78626" lon="1.71121">
        <ele>96</ele>
        <time>2020-07-02T18:59:47Z</time>
      </trkpt>
      <trkpt lat="47.78621" lon="1.71114">
        <ele>96</ele>
        <time>2020-07-02T18:59:48Z</time>
      </trkpt>
      <trkpt lat="47.78616" lon="1.71107">
        <ele>96</ele>
        <time>2020-07-02T18:59:49Z</time>
      </trkpt>
      <trkpt lat="47.7861" lon="1.71099">
        <ele>96</ele>
        <time>2020-07-02T18:59:50Z</time>
      </trkpt>
      <trkpt lat="47.78604" lon="1.71091">
        <ele>96</ele>
        <time>2020-07-02T18:59:51Z</time>
      </trkpt>
      <trkpt lat="47.78599" lon="1.71086">
        <ele>95.9</ele>
        <time>2020-07-02T18:59:52Z</time>
      </trkpt>
      <trkpt lat="47.78594" lon="1.71079">
        <ele>95.9</ele>
        <time>2020-07-02T18:59:53Z</time>
      </trkpt>
      <trkpt lat="47.78589" lon="1.71071">
        <ele>95.8</ele>
        <time>2020-07-02T18:59:54Z</time>
      </trkpt>
      <trkpt lat="47.78583" lon="1.71062">
        <ele>95.8</ele>
        <time>2020-07-02T18:59:55Z</time>
      </trkpt>
      <trkpt lat="47.78578" lon="1.71056">
        <ele>95.7</ele>
        <time>2020-07-02T18:59:56Z</time>
      </trkpt>
      <trkpt lat="47.78573" lon="1.71048">
        <ele>95.7</ele>
        <time>2020-07-02T18:59:57Z</time>
      </trkpt>
      <trkpt lat="47.78567" lon="1.7104">
        <ele>95.7</ele>
        <time>2020-07-02T18:59:58Z</time>
      </trkpt>
      <trkpt lat="47.78561" lon="1.71032">
        <ele>95.6</ele>
        <time>2020-07-02T18:59:59Z</time>
      </trkpt>
      <trkpt lat="47.78555" lon="1.71025">
        <ele>95.6</ele>
        <time>2020-07-02T19:00:00Z</time>
      </trkpt>
      <trkpt lat="47.7855" lon="1.71017">
        <ele>95.5</ele>
        <time>2020-07-02T19:00:01Z</time>
      </trkpt>
      <trkpt lat="47.78545" lon="1.71009">
        <ele>95.5</ele>
        <time>2020-07-02T19:00:02Z</time>
      </trkpt>
      <trkpt lat="47.78539" lon="1.71002">
        <ele>95.4</ele>
        <time>2020-07-02T19:00:03Z</time>
      </trkpt>
      <trkpt lat="47.78533" lon="1.70994">
        <ele>95.4</ele>
        <time>2020-07-02T19:00:04Z</time>
      </trkpt>
      <trkpt lat="47.78528" lon="1.70987">
        <ele>95.3</ele>
        <time>2020-07-02T19:00:05Z</time>
      </trkpt>
      <trkpt lat="47.78522" lon="1.7098">
        <ele>95.3</ele>
        <time>2020-07-02T19:00:06Z</time>
      </trkpt>
      <trkpt lat="47.78517" lon="1.70973">
        <ele>95.2</ele>
        <time>2020-07-02T19:00:07Z</time>
      </trkpt>
      <trkpt lat="47.7851" lon="1.70966">
        <ele>95.2</ele>
        <time>2020-07-02T19:00:08Z</time>
      </trkpt>
      <trkpt lat="47.78504" lon="1.70958">
        <ele>95.1</ele>
        <time>2020-07-02T19:00:09Z</time>
      </trkpt>
      <trkpt lat="47.78498" lon="1.7095">
        <ele>95.1</ele>
        <time>2020-07-02T19:00:10Z</time>
      </trkpt>
      <trkpt lat="47.78492" lon="1.70943">
        <ele>95</ele>
        <time>2020-07-02T19:00:11Z</time>
      </trkpt>
      <trkpt lat="47.78486" lon="1.70936">
        <ele>95</ele>
        <time>2020-07-02T19:00:12Z</time>
      </trkpt>
      <trkpt lat="47.78479" lon="1.70927">
        <ele>94.9</ele>
        <time>2020-07-02T19:00:13Z</time>
      </trkpt>
      <trkpt lat="47.78475" lon="1.7092">
        <ele>94.9</ele>
        <time>2020-07-02T19:00:14Z</time>
      </trkpt>
      <trkpt lat="47.7847" lon="1.70914">
        <ele>94.8</ele>
        <time>2020-07-02T19:00:15Z</time>
      </trkpt>
      <trkpt lat="47.78464" lon="1.70907">
        <ele>94.8</ele>
        <time>2020-07-02T19:00:16Z</time>
      </trkpt>
      <trkpt lat="47.78459" lon="1.70898">
        <ele>94.7</ele>
        <time>2020-07-02T19:00:17Z</time>
      </trkpt>
      <trkpt lat="47.78452" lon="1.70891">
        <ele>94.7</ele>
        <time>2020-07-02T19:00:18Z</time>
      </trkpt>
      <trkpt lat="47.78447" lon="1.70884">
        <ele>94.7</ele>
        <time>2020-07-02T19:00:19Z</time>
      </trkpt>
      <trkpt lat="47.78441" lon="1.70878">
        <ele>94.6</ele>
        <time>2020-07-02T19:00:20Z</time>
      </trkpt>
      <trkpt lat="47.78436" lon="1.7087">
        <ele>94.6</ele>
        <time>2020-07-02T19:00:21Z</time>
      </trkpt>
      <trkpt lat="47.7843" lon="1.70862">
        <ele>94.6</ele>
        <time>2020-07-02T19:00:22Z</time>
      </trkpt>
      <trkpt lat="47.78425" lon="1.70853">
        <ele>94.6</ele>
        <time>2020-07-02T19:00:23Z</time>
      </trkpt>
      <trkpt lat="47.78419" lon="1.70844">
        <ele>94.6</ele>
        <time>2020-07-02T19:00:24Z</time>
      </trkpt>
      <trkpt lat="47.78413" lon="1.70836">
        <ele>94.6</ele>
        <time>2020-07-02T19:00:25Z</time>
      </trkpt>
      <trkpt lat="47.78408" lon="1.70828">
        <ele>94.5</ele>
        <time>2020-07-02T19:00:26Z</time>
      </trkpt>
      <trkpt lat="47.78402" lon="1.70821">
        <ele>94.5</ele>
        <time>2020-07-02T19:00:27Z</time>
      </trkpt>
      <trkpt lat="47.78396" lon="1.70812">
        <ele>94.4</ele>
        <time>2020-07-02T19:00:28Z</time>
      </trkpt>
      <trkpt lat="47.7839" lon="1.70805">
        <ele>94.3</ele>
        <time>2020-07-02T19:00:29Z</time>
      </trkpt>
      <trkpt lat="47.78384" lon="1.70797">
        <ele>94.2</ele>
        <time>2020-07-02T19:00:30Z</time>
      </trkpt>
      <trkpt lat="47.78378" lon="1.70789">
        <ele>94</ele>
        <time>2020-07-02T19:00:31Z</time>
      </trkpt>
      <trkpt lat="47.78373" lon="1.70781">
        <ele>93.9</ele>
        <time>2020-07-02T19:00:32Z</time>
      </trkpt>
      <trkpt lat="47.78367" lon="1.70774">
        <ele>93.7</ele>
        <time>2020-07-02T19:00:33Z</time>
      </trkpt>
      <trkpt lat="47.78361" lon="1.70767">
        <ele>93.7</ele>
        <time>2020-07-02T19:00:34Z</time>
      </trkpt>
      <trkpt lat="47.78356" lon="1.70759">
        <ele>93.6</ele>
        <time>2020-07-02T19:00:35Z</time>
      </trkpt>
      <trkpt lat="47.7835" lon="1.70751">
        <ele>93.6</ele>
        <time>2020-07-02T19:00:36Z</time>
      </trkpt>
      <trkpt lat="47.78345" lon="1.70744">
        <ele>93.5</ele>
        <time>2020-07-02T19:00:37Z</time>
      </trkpt>
      <trkpt lat="47.78339" lon="1.70737">
        <ele>93.5</ele>
        <time>2020-07-02T19:00:38Z</time>
      </trkpt>
      <trkpt lat="47.78334" lon="1.7073">
        <ele>93.4</ele>
        <time>2020-07-02T19:00:39Z</time>
      </trkpt>
      <trkpt lat="47.78328" lon="1.70723">
        <ele>93.4</ele>
        <time>2020-07-02T19:00:40Z</time>
      </trkpt>
      <trkpt lat="47.78323" lon="1.70716">
        <ele>93.4</ele>
        <time>2020-07-02T19:00:41Z</time>
      </trkpt>
      <trkpt lat="47.78317" lon="1.70709">
        <ele>93.3</ele>
        <time>2020-07-02T19:00:42Z</time>
      </trkpt>
      <trkpt lat="47.78312" lon="1.70702">
        <ele>93.3</ele>
        <time>2020-07-02T19:00:43Z</time>
      </trkpt>
      <trkpt lat="47.78306" lon="1.70695">
        <ele>93.3</ele>
        <time>2020-07-02T19:00:44Z</time>
      </trkpt>
      <trkpt lat="47.78301" lon="1.70687">
        <ele>93.3</ele>
        <time>2020-07-02T19:00:45Z</time>
      </trkpt>
      <trkpt lat="47.78296" lon="1.7068">
        <ele>93.3</ele>
        <time>2020-07-02T19:00:46Z</time>
      </trkpt>
      <trkpt lat="47.7829" lon="1.70673">
        <ele>93.4</ele>
        <time>2020-07-02T19:00:47Z</time>
      </trkpt>
      <trkpt lat="47.78285" lon="1.70666">
        <ele>93.4</ele>
        <time>2020-07-02T19:00:48Z</time>
      </trkpt>
      <trkpt lat="47.7828" lon="1.70658">
        <ele>93.8</ele>
        <time>2020-07-02T19:00:49Z</time>
      </trkpt>
      <trkpt lat="47.78274" lon="1.70652">
        <ele>94.2</ele>
        <time>2020-07-02T19:00:50Z</time>
      </trkpt>
      <trkpt lat="47.78269" lon="1.70645">
        <ele>94.3</ele>
        <time>2020-07-02T19:00:51Z</time>
      </trkpt>
      <trkpt lat="47.78264" lon="1.70637">
        <ele>94.4</ele>
        <time>2020-07-02T19:00:52Z</time>
      </trkpt>
      <trkpt lat="47.78259" lon="1.70631">
        <ele>94.3</ele>
        <time>2020-07-02T19:00:53Z</time>
      </trkpt>
      <trkpt lat="47.78254" lon="1.70624">
        <ele>94.4</ele>
        <time>2020-07-02T19:00:54Z</time>
      </trkpt>
      <trkpt lat="47.78249" lon="1.70617">
        <ele>94.4</ele>
        <time>2020-07-02T19:00:55Z</time>
      </trkpt>
      <trkpt lat="47.78243" lon="1.70611">
        <ele>94.4</ele>
        <time>2020-07-02T19:00:56Z</time>
      </trkpt>
      <trkpt lat="47.78238" lon="1.70604">
        <ele>94.4</ele>
        <time>2020-07-02T19:00:57Z</time>
      </trkpt>
      <trkpt lat="47.78232" lon="1.70597">
        <ele>94.4</ele>
        <time>2020-07-02T19:00:58Z</time>
      </trkpt>
      <trkpt lat="47.78227" lon="1.7059">
        <ele>94.4</ele>
        <time>2020-07-02T19:00:59Z</time>
      </trkpt>
      <trkpt lat="47.78222" lon="1.70583">
        <ele>94.4</ele>
        <time>2020-07-02T19:01:00Z</time>
      </trkpt>
      <trkpt lat="47.78217" lon="1.70575">
        <ele>94.4</ele>
        <time>2020-07-02T19:01:01Z</time>
      </trkpt>
      <trkpt lat="47.78212" lon="1.70568">
        <ele>94.4</ele>
        <time>2020-07-02T19:01:02Z</time>
      </trkpt>
      <trkpt lat="47.78207" lon="1.70561">
        <ele>94.4</ele>
        <time>2020-07-02T19:01:03Z</time>
      </trkpt>
      <trkpt lat="47.78202" lon="1.70554">
        <ele>94.4</ele>
        <time>2020-07-02T19:01:04Z</time>
      </trkpt>
      <trkpt lat="47.78196" lon="1.70547">
        <ele>94.3</ele>
        <time>2020-07-02T19:01:05Z</time>
      </trkpt>
      <trkpt lat="47.78191" lon="1.7054">
        <ele>94.3</ele>
        <time>2020-07-02T19:01:06Z</time>
      </trkpt>
      <trkpt lat="47.78186" lon="1.70533">
        <ele>94.3</ele>
        <time>2020-07-02T19:01:07Z</time>
      </trkpt>
      <trkpt lat="47.78181" lon="1.70526">
        <ele>94.3</ele>
        <time>2020-07-02T19:01:08Z</time>
      </trkpt>
      <trkpt lat="47.78176" lon="1.7052">
        <ele>94.2</ele>
        <time>2020-07-02T19:01:09Z</time>
      </trkpt>
      <trkpt lat="47.7817" lon="1.70514">
        <ele>94.2</ele>
        <time>2020-07-02T19:01:10Z</time>
      </trkpt>
      <trkpt lat="47.78165" lon="1.70507">
        <ele>94.2</ele>
        <time>2020-07-02T19:01:11Z</time>
      </trkpt>
      <trkpt lat="47.7816" lon="1.705">
        <ele>94.1</ele>
        <time>2020-07-02T19:01:12Z</time>
      </trkpt>
      <trkpt lat="47.78154" lon="1.70494">
        <ele>94.1</ele>
        <time>2020-07-02T19:01:13Z</time>
      </trkpt>
      <trkpt lat="47.78148" lon="1.70487">
        <ele>94.1</ele>
        <time>2020-07-02T19:01:14Z</time>
      </trkpt>
      <trkpt lat="47.78143" lon="1.70479">
        <ele>94</ele>
        <time>2020-07-02T19:01:15Z</time>
      </trkpt>
      <trkpt lat="47.78138" lon="1.70472">
        <ele>94</ele>
        <time>2020-07-02T19:01:16Z</time>
      </trkpt>
      <trkpt lat="47.78132" lon="1.70464">
        <ele>94</ele>
        <time>2020-07-02T19:01:17Z</time>
      </trkpt>
      <trkpt lat="47.78127" lon="1.70457">
        <ele>93.9</ele>
        <time>2020-07-02T19:01:18Z</time>
      </trkpt>
      <trkpt lat="47.78122" lon="1.70449">
        <ele>93.8</ele>
        <time>2020-07-02T19:01:19Z</time>
      </trkpt>
      <trkpt lat="47.78116" lon="1.70442">
        <ele>93.8</ele>
        <time>2020-07-02T19:01:20Z</time>
      </trkpt>
      <trkpt lat="47.78111" lon="1.70435">
        <ele>93.7</ele>
        <time>2020-07-02T19:01:21Z</time>
      </trkpt>
      <trkpt lat="47.78106" lon="1.70426">
        <ele>93.6</ele>
        <time>2020-07-02T19:01:22Z</time>
      </trkpt>
      <trkpt lat="47.781" lon="1.70419">
        <ele>93.5</ele>
        <time>2020-07-02T19:01:23Z</time>
      </trkpt>
      <trkpt lat="47.78095" lon="1.70411">
        <ele>93.4</ele>
        <time>2020-07-02T19:01:24Z</time>
      </trkpt>
      <trkpt lat="47.78089" lon="1.70404">
        <ele>93.3</ele>
        <time>2020-07-02T19:01:25Z</time>
      </trkpt>
      <trkpt lat="47.78083" lon="1.70396">
        <ele>93.2</ele>
        <time>2020-07-02T19:01:26Z</time>
      </trkpt>
      <trkpt lat="47.78077" lon="1.70389">
        <ele>93.1</ele>
        <time>2020-07-02T19:01:27Z</time>
      </trkpt>
      <trkpt lat="47.78072" lon="1.70382">
        <ele>93</ele>
        <time>2020-07-02T19:01:28Z</time>
      </trkpt>
      <trkpt lat="47.78066" lon="1.70374">
        <ele>92.9</ele>
        <time>2020-07-02T19:01:29Z</time>
      </trkpt>
      <trkpt lat="47.7806" lon="1.70367">
        <ele>92.8</ele>
        <time>2020-07-02T19:01:30Z</time>
      </trkpt>
      <trkpt lat="47.78055" lon="1.7036">
        <ele>92.7</ele>
        <time>2020-07-02T19:01:31Z</time>
      </trkpt>
      <trkpt lat="47.78049" lon="1.70353">
        <ele>92.6</ele>
        <time>2020-07-02T19:01:32Z</time>
      </trkpt>
      <trkpt lat="47.78044" lon="1.70346">
        <ele>92.5</ele>
        <time>2020-07-02T19:01:33Z</time>
      </trkpt>
      <trkpt lat="47.78038" lon="1.70339">
        <ele>92.4</ele>
        <time>2020-07-02T19:01:34Z</time>
      </trkpt>
      <trkpt lat="47.78032" lon="1.70332">
        <ele>92.3</ele>
        <time>2020-07-02T19:01:35Z</time>
      </trkpt>
      <trkpt lat="47.78026" lon="1.70325">
        <ele>92.2</ele>
        <time>2020-07-02T19:01:36Z</time>
      </trkpt>
      <trkpt lat="47.7802" lon="1.70318">
        <ele>92.1</ele>
        <time>2020-07-02T19:01:37Z</time>
      </trkpt>
      <trkpt lat="47.78015" lon="1.70311">
        <ele>92.1</ele>
        <time>2020-07-02T19:01:38Z</time>
      </trkpt>
      <trkpt lat="47.78008" lon="1.70305">
        <ele>92</ele>
        <time>2020-07-02T19:01:39Z</time>
      </trkpt>
      <trkpt lat="47.78002" lon="1.70298">
        <ele>91.9</ele>
        <time>2020-07-02T19:01:40Z</time>
      </trkpt>
      <trkpt lat="47.77996" lon="1.70291">
        <ele>91.8</ele>
        <time>2020-07-02T19:01:41Z</time>
      </trkpt>
      <trkpt lat="47.7799" lon="1.70285">
        <ele>91.6</ele>
        <time>2020-07-02T19:01:42Z</time>
      </trkpt>
      <trkpt lat="47.77984" lon="1.70278">
        <ele>91.5</ele>
        <time>2020-07-02T19:01:43Z</time>
      </trkpt>
      <trkpt lat="47.77978" lon="1.70271">
        <ele>91.4</ele>
        <time>2020-07-02T19:01:44Z</time>
      </trkpt>
      <trkpt lat="47.77971" lon="1.70265">
        <ele>91.2</ele>
        <time>2020-07-02T19:01:45Z</time>
      </trkpt>
      <trkpt lat="47.77965" lon="1.70258">
        <ele>91</ele>
        <time>2020-07-02T19:01:46Z</time>
      </trkpt>
      <trkpt lat="47.77958" lon="1.70251">
        <ele>90.8</ele>
        <time>2020-07-02T19:01:47Z</time>
      </trkpt>
      <trkpt lat="47.77952" lon="1.70245">
        <ele>90.6</ele>
        <time>2020-07-02T19:01:48Z</time>
      </trkpt>
      <trkpt lat="47.77945" lon="1.70239">
        <ele>90.4</ele>
        <time>2020-07-02T19:01:49Z</time>
      </trkpt>
      <trkpt lat="47.77939" lon="1.70232">
        <ele>90.2</ele>
        <time>2020-07-02T19:01:50Z</time>
      </trkpt>
      <trkpt lat="47.77932" lon="1.70226">
        <ele>90</ele>
        <time>2020-07-02T19:01:51Z</time>
      </trkpt>
      <trkpt lat="47.77925" lon="1.70219">
        <ele>89.8</ele>
        <time>2020-07-02T19:01:52Z</time>
      </trkpt>
      <trkpt lat="47.77918" lon="1.70213">
        <ele>89.5</ele>
        <time>2020-07-02T19:01:53Z</time>
      </trkpt>
      <trkpt lat="47.77911" lon="1.70206">
        <ele>89.3</ele>
        <time>2020-07-02T19:01:54Z</time>
      </trkpt>
      <trkpt lat="47.77903" lon="1.702">
        <ele>89.2</ele>
        <time>2020-07-02T19:01:55Z</time>
      </trkpt>
      <trkpt lat="47.77897" lon="1.70193">
        <ele>89</ele>
        <time>2020-07-02T19:01:56Z</time>
      </trkpt>
      <trkpt lat="47.7789" lon="1.70186">
        <ele>88.8</ele>
        <time>2020-07-02T19:01:57Z</time>
      </trkpt>
      <trkpt lat="47.77883" lon="1.70179">
        <ele>88.7</ele>
        <time>2020-07-02T19:01:58Z</time>
      </trkpt>
      <trkpt lat="47.77876" lon="1.70173">
        <ele>88.6</ele>
        <time>2020-07-02T19:01:59Z</time>
      </trkpt>
      <trkpt lat="47.77869" lon="1.70166">
        <ele>88.5</ele>
        <time>2020-07-02T19:02:00Z</time>
      </trkpt>
      <trkpt lat="47.77862" lon="1.70159">
        <ele>88.3</ele>
        <time>2020-07-02T19:02:01Z</time>
      </trkpt>
      <trkpt lat="47.77855" lon="1.70152">
        <ele>88.2</ele>
        <time>2020-07-02T19:02:02Z</time>
      </trkpt>
      <trkpt lat="47.77848" lon="1.70146">
        <ele>88</ele>
        <time>2020-07-02T19:02:03Z</time>
      </trkpt>
      <trkpt lat="47.77841" lon="1.7014">
        <ele>87.9</ele>
        <time>2020-07-02T19:02:04Z</time>
      </trkpt>
      <trkpt lat="47.77834" lon="1.70133">
        <ele>87.8</ele>
        <time>2020-07-02T19:02:05Z</time>
      </trkpt>
      <trkpt lat="47.77827" lon="1.70126">
        <ele>87.7</ele>
        <time>2020-07-02T19:02:06Z</time>
      </trkpt>
      <trkpt lat="47.77821" lon="1.7012">
        <ele>87.6</ele>
        <time>2020-07-02T19:02:07Z</time>
      </trkpt>
      <trkpt lat="47.77814" lon="1.70114">
        <ele>87.5</ele>
        <time>2020-07-02T19:02:08Z</time>
      </trkpt>
      <trkpt lat="47.77807" lon="1.70108">
        <ele>87.4</ele>
        <time>2020-07-02T19:02:09Z</time>
      </trkpt>
      <trkpt lat="47.778" lon="1.701">
        <ele>87.3</ele>
        <time>2020-07-02T19:02:10Z</time>
      </trkpt>
      <trkpt lat="47.77794" lon="1.70093">
        <ele>87.2</ele>
        <time>2020-07-02T19:02:11Z</time>
      </trkpt>
      <trkpt lat="47.77787" lon="1.70086">
        <ele>87.2</ele>
        <time>2020-07-02T19:02:12Z</time>
      </trkpt>
      <trkpt lat="47.77781" lon="1.70079">
        <ele>87.2</ele>
        <time>2020-07-02T19:02:13Z</time>
      </trkpt>
      <trkpt lat="47.77774" lon="1.70072">
        <ele>87.2</ele>
        <time>2020-07-02T19:02:14Z</time>
      </trkpt>
      <trkpt lat="47.77767" lon="1.70065">
        <ele>87.1</ele>
        <time>2020-07-02T19:02:15Z</time>
      </trkpt>
      <trkpt lat="47.77761" lon="1.70059">
        <ele>87.1</ele>
        <time>2020-07-02T19:02:16Z</time>
      </trkpt>
      <trkpt lat="47.77754" lon="1.70053">
        <ele>87</ele>
        <time>2020-07-02T19:02:17Z</time>
      </trkpt>
      <trkpt lat="47.77747" lon="1.70046">
        <ele>87</ele>
        <time>2020-07-02T19:02:18Z</time>
      </trkpt>
      <trkpt lat="47.7774" lon="1.7004">
        <ele>87.1</ele>
        <time>2020-07-02T19:02:19Z</time>
      </trkpt>
      <trkpt lat="47.77734" lon="1.70033">
        <ele>87.2</ele>
        <time>2020-07-02T19:02:20Z</time>
      </trkpt>
      <trkpt lat="47.77727" lon="1.70027">
        <ele>87.3</ele>
        <time>2020-07-02T19:02:21Z</time>
      </trkpt>
      <trkpt lat="47.77722" lon="1.70019">
        <ele>87.6</ele>
        <time>2020-07-02T19:02:22Z</time>
      </trkpt>
      <trkpt lat="47.77715" lon="1.70012">
        <ele>87.8</ele>
        <time>2020-07-02T19:02:23Z</time>
      </trkpt>
      <trkpt lat="47.77709" lon="1.70005">
        <ele>88</ele>
        <time>2020-07-02T19:02:24Z</time>
      </trkpt>
      <trkpt lat="47.77703" lon="1.69999">
        <ele>88.2</ele>
        <time>2020-07-02T19:02:25Z</time>
      </trkpt>
      <trkpt lat="47.77696" lon="1.69993">
        <ele>88.4</ele>
        <time>2020-07-02T19:02:26Z</time>
      </trkpt>
      <trkpt lat="47.7769" lon="1.69986">
        <ele>88.5</ele>
        <time>2020-07-02T19:02:27Z</time>
      </trkpt>
      <trkpt lat="47.77684" lon="1.6998">
        <ele>88.7</ele>
        <time>2020-07-02T19:02:28Z</time>
      </trkpt>
      <trkpt lat="47.77678" lon="1.69974">
        <ele>88.8</ele>
        <time>2020-07-02T19:02:29Z</time>
      </trkpt>
      <trkpt lat="47.77672" lon="1.69969">
        <ele>89</ele>
        <time>2020-07-02T19:02:30Z</time>
      </trkpt>
      <trkpt lat="47.77667" lon="1.69962">
        <ele>89.2</ele>
        <time>2020-07-02T19:02:31Z</time>
      </trkpt>
      <trkpt lat="47.77661" lon="1.69956">
        <ele>89.3</ele>
        <time>2020-07-02T19:02:32Z</time>
      </trkpt>
      <trkpt lat="47.77655" lon="1.69951">
        <ele>89.5</ele>
        <time>2020-07-02T19:02:33Z</time>
      </trkpt>
      <trkpt lat="47.7765" lon="1.69945">
        <ele>89.6</ele>
        <time>2020-07-02T19:02:34Z</time>
      </trkpt>
      <trkpt lat="47.77644" lon="1.69939">
        <ele>89.7</ele>
        <time>2020-07-02T19:02:35Z</time>
      </trkpt>
      <trkpt lat="47.77639" lon="1.69933">
        <ele>89.8</ele>
        <time>2020-07-02T19:02:36Z</time>
      </trkpt>
      <trkpt lat="47.77634" lon="1.69927">
        <ele>90</ele>
        <time>2020-07-02T19:02:37Z</time>
      </trkpt>
      <trkpt lat="47.77629" lon="1.69921">
        <ele>90.1</ele>
        <time>2020-07-02T19:02:38Z</time>
      </trkpt>
      <trkpt lat="47.77624" lon="1.69916">
        <ele>90.3</ele>
        <time>2020-07-02T19:02:39Z</time>
      </trkpt>
      <trkpt lat="47.77619" lon="1.69911">
        <ele>90.4</ele>
        <time>2020-07-02T19:02:40Z</time>
      </trkpt>
      <trkpt lat="47.77614" lon="1.69905">
        <ele>90.5</ele>
        <time>2020-07-02T19:02:41Z</time>
      </trkpt>
      <trkpt lat="47.77609" lon="1.699">
        <ele>90.6</ele>
        <time>2020-07-02T19:02:42Z</time>
      </trkpt>
      <trkpt lat="47.77604" lon="1.69895">
        <ele>90.7</ele>
        <time>2020-07-02T19:02:43Z</time>
      </trkpt>
      <trkpt lat="47.77599" lon="1.69891">
        <ele>90.8</ele>
        <time>2020-07-02T19:02:44Z</time>
      </trkpt>
      <trkpt lat="47.77594" lon="1.69886">
        <ele>90.9</ele>
        <time>2020-07-02T19:02:45Z</time>
      </trkpt>
      <trkpt lat="47.77589" lon="1.6988">
        <ele>91</ele>
        <time>2020-07-02T19:02:46Z</time>
      </trkpt>
      <trkpt lat="47.77585" lon="1.69873">
        <ele>91</ele>
        <time>2020-07-02T19:02:47Z</time>
      </trkpt>
      <trkpt lat="47.77579" lon="1.69869">
        <ele>91.1</ele>
        <time>2020-07-02T19:02:48Z</time>
      </trkpt>
      <trkpt lat="47.77574" lon="1.69864">
        <ele>91.2</ele>
        <time>2020-07-02T19:02:49Z</time>
      </trkpt>
      <trkpt lat="47.7757" lon="1.69857">
        <ele>91.2</ele>
        <time>2020-07-02T19:02:50Z</time>
      </trkpt>
      <trkpt lat="47.77565" lon="1.69851">
        <ele>91.3</ele>
        <time>2020-07-02T19:02:51Z</time>
      </trkpt>
      <trkpt lat="47.7756" lon="1.69846">
        <ele>91.3</ele>
        <time>2020-07-02T19:02:52Z</time>
      </trkpt>
      <trkpt lat="47.77555" lon="1.6984">
        <ele>91.4</ele>
        <time>2020-07-02T19:02:53Z</time>
      </trkpt>
      <trkpt lat="47.7755" lon="1.69834">
        <ele>91.4</ele>
        <time>2020-07-02T19:02:54Z</time>
      </trkpt>
      <trkpt lat="47.77544" lon="1.69829">
        <ele>91.5</ele>
        <time>2020-07-02T19:02:55Z</time>
      </trkpt>
      <trkpt lat="47.77539" lon="1.69822">
        <ele>91.5</ele>
        <time>2020-07-02T19:02:56Z</time>
      </trkpt>
      <trkpt lat="47.77534" lon="1.69817">
        <ele>91.5</ele>
        <time>2020-07-02T19:02:57Z</time>
      </trkpt>
      <trkpt lat="47.77529" lon="1.69812">
        <ele>91.6</ele>
        <time>2020-07-02T19:02:58Z</time>
      </trkpt>
      <trkpt lat="47.77524" lon="1.69807">
        <ele>91.6</ele>
        <time>2020-07-02T19:02:59Z</time>
      </trkpt>
      <trkpt lat="47.77519" lon="1.698">
        <ele>91.7</ele>
        <time>2020-07-02T19:03:00Z</time>
      </trkpt>
      <trkpt lat="47.77515" lon="1.69796">
        <ele>91.7</ele>
        <time>2020-07-02T19:03:01Z</time>
      </trkpt>
      <trkpt lat="47.7751" lon="1.6979">
        <ele>91.8</ele>
        <time>2020-07-02T19:03:02Z</time>
      </trkpt>
      <trkpt lat="47.77505" lon="1.69785">
        <ele>91.8</ele>
        <time>2020-07-02T19:03:03Z</time>
      </trkpt>
      <trkpt lat="47.775" lon="1.69779">
        <ele>92</ele>
        <time>2020-07-02T19:03:04Z</time>
      </trkpt>
      <trkpt lat="47.77493" lon="1.69775">
        <ele>92.3</ele>
        <time>2020-07-02T19:03:05Z</time>
      </trkpt>
      <trkpt lat="47.77489" lon="1.69769">
        <ele>92.4</ele>
        <time>2020-07-02T19:03:06Z</time>
      </trkpt>
      <trkpt lat="47.77483" lon="1.69762">
        <ele>92.5</ele>
        <time>2020-07-02T19:03:07Z</time>
      </trkpt>
      <trkpt lat="47.77478" lon="1.69757">
        <ele>92.5</ele>
        <time>2020-07-02T19:03:08Z</time>
      </trkpt>
      <trkpt lat="47.77473" lon="1.69752">
        <ele>92.6</ele>
        <time>2020-07-02T19:03:09Z</time>
      </trkpt>
      <trkpt lat="47.77467" lon="1.69745">
        <ele>92.6</ele>
        <time>2020-07-02T19:03:10Z</time>
      </trkpt>
      <trkpt lat="47.77462" lon="1.6974">
        <ele>92.6</ele>
        <time>2020-07-02T19:03:11Z</time>
      </trkpt>
      <trkpt lat="47.77457" lon="1.69734">
        <ele>92.6</ele>
        <time>2020-07-02T19:03:12Z</time>
      </trkpt>
      <trkpt lat="47.77452" lon="1.69728">
        <ele>92.6</ele>
        <time>2020-07-02T19:03:13Z</time>
      </trkpt>
      <trkpt lat="47.77447" lon="1.69723">
        <ele>92.7</ele>
        <time>2020-07-02T19:03:14Z</time>
      </trkpt>
      <trkpt lat="47.77442" lon="1.69717">
        <ele>92.7</ele>
        <time>2020-07-02T19:03:15Z</time>
      </trkpt>
      <trkpt lat="47.77437" lon="1.69711">
        <ele>92.8</ele>
        <time>2020-07-02T19:03:16Z</time>
      </trkpt>
      <trkpt lat="47.77431" lon="1.69705">
        <ele>92.8</ele>
        <time>2020-07-02T19:03:17Z</time>
      </trkpt>
      <trkpt lat="47.77426" lon="1.69699">
        <ele>92.9</ele>
        <time>2020-07-02T19:03:18Z</time>
      </trkpt>
      <trkpt lat="47.7742" lon="1.69692">
        <ele>92.9</ele>
        <time>2020-07-02T19:03:19Z</time>
      </trkpt>
      <trkpt lat="47.77415" lon="1.69686">
        <ele>93</ele>
        <time>2020-07-02T19:03:20Z</time>
      </trkpt>
      <trkpt lat="47.7741" lon="1.6968">
        <ele>93</ele>
        <time>2020-07-02T19:03:21Z</time>
      </trkpt>
      <trkpt lat="47.77405" lon="1.69673">
        <ele>93</ele>
        <time>2020-07-02T19:03:22Z</time>
      </trkpt>
      <trkpt lat="47.774" lon="1.69665">
        <ele>93</ele>
        <time>2020-07-02T19:03:23Z</time>
      </trkpt>
      <trkpt lat="47.77395" lon="1.69659">
        <ele>93</ele>
        <time>2020-07-02T19:03:24Z</time>
      </trkpt>
      <trkpt lat="47.7739" lon="1.69653">
        <ele>93</ele>
        <time>2020-07-02T19:03:25Z</time>
      </trkpt>
      <trkpt lat="47.77385" lon="1.69646">
        <ele>93</ele>
        <time>2020-07-02T19:03:26Z</time>
      </trkpt>
      <trkpt lat="47.7738" lon="1.6964">
        <ele>93</ele>
        <time>2020-07-02T19:03:27Z</time>
      </trkpt>
      <trkpt lat="47.77375" lon="1.69634">
        <ele>92.9</ele>
        <time>2020-07-02T19:03:28Z</time>
      </trkpt>
      <trkpt lat="47.7737" lon="1.69626">
        <ele>92.9</ele>
        <time>2020-07-02T19:03:29Z</time>
      </trkpt>
      <trkpt lat="47.77365" lon="1.6962">
        <ele>92.9</ele>
        <time>2020-07-02T19:03:30Z</time>
      </trkpt>
      <trkpt lat="47.7736" lon="1.69613">
        <ele>92.8</ele>
        <time>2020-07-02T19:03:31Z</time>
      </trkpt>
      <trkpt lat="47.77355" lon="1.69607">
        <ele>92.8</ele>
        <time>2020-07-02T19:03:32Z</time>
      </trkpt>
      <trkpt lat="47.7735" lon="1.696">
        <ele>92.7</ele>
        <time>2020-07-02T19:03:33Z</time>
      </trkpt>
      <trkpt lat="47.77344" lon="1.69594">
        <ele>92.7</ele>
        <time>2020-07-02T19:03:34Z</time>
      </trkpt>
      <trkpt lat="47.77339" lon="1.69587">
        <ele>92.6</ele>
        <time>2020-07-02T19:03:35Z</time>
      </trkpt>
      <trkpt lat="47.77333" lon="1.69581">
        <ele>92.5</ele>
        <time>2020-07-02T19:03:36Z</time>
      </trkpt>
      <trkpt lat="47.77327" lon="1.69574">
        <ele>92.2</ele>
        <time>2020-07-02T19:03:37Z</time>
      </trkpt>
      <trkpt lat="47.77322" lon="1.69567">
        <ele>91.9</ele>
        <time>2020-07-02T19:03:38Z</time>
      </trkpt>
      <trkpt lat="47.77316" lon="1.69561">
        <ele>91.8</ele>
        <time>2020-07-02T19:03:39Z</time>
      </trkpt>
      <trkpt lat="47.77311" lon="1.69554">
        <ele>91.8</ele>
        <time>2020-07-02T19:03:40Z</time>
      </trkpt>
      <trkpt lat="47.77306" lon="1.69547">
        <ele>91.7</ele>
        <time>2020-07-02T19:03:41Z</time>
      </trkpt>
      <trkpt lat="47.77301" lon="1.6954">
        <ele>91.6</ele>
        <time>2020-07-02T19:03:42Z</time>
      </trkpt>
      <trkpt lat="47.77295" lon="1.69533">
        <ele>91.6</ele>
        <time>2020-07-02T19:03:43Z</time>
      </trkpt>
      <trkpt lat="47.7729" lon="1.69526">
        <ele>91.6</ele>
        <time>2020-07-02T19:03:44Z</time>
      </trkpt>
      <trkpt lat="47.77285" lon="1.69519">
        <ele>91.6</ele>
        <time>2020-07-02T19:03:45Z</time>
      </trkpt>
      <trkpt lat="47.7728" lon="1.69513">
        <ele>91.6</ele>
        <time>2020-07-02T19:03:46Z</time>
      </trkpt>
      <trkpt lat="47.77275" lon="1.69506">
        <ele>91.6</ele>
        <time>2020-07-02T19:03:47Z</time>
      </trkpt>
      <trkpt lat="47.7727" lon="1.69499">
        <ele>91.7</ele>
        <time>2020-07-02T19:03:48Z</time>
      </trkpt>
      <trkpt lat="47.77265" lon="1.69492">
        <ele>91.7</ele>
        <time>2020-07-02T19:03:49Z</time>
      </trkpt>
      <trkpt lat="47.77259" lon="1.69486">
        <ele>91.7</ele>
        <time>2020-07-02T19:03:50Z</time>
      </trkpt>
      <trkpt lat="47.77253" lon="1.6948">
        <ele>91.8</ele>
        <time>2020-07-02T19:03:51Z</time>
      </trkpt>
      <trkpt lat="47.77248" lon="1.69473">
        <ele>91.8</ele>
        <time>2020-07-02T19:03:52Z</time>
      </trkpt>
      <trkpt lat="47.77242" lon="1.69466">
        <ele>91.8</ele>
        <time>2020-07-02T19:03:53Z</time>
      </trkpt>
      <trkpt lat="47.77237" lon="1.69459">
        <ele>91.9</ele>
        <time>2020-07-02T19:03:54Z</time>
      </trkpt>
      <trkpt lat="47.77232" lon="1.69452">
        <ele>91.9</ele>
        <time>2020-07-02T19:03:55Z</time>
      </trkpt>
      <trkpt lat="47.77226" lon="1.69445">
        <ele>92</ele>
        <time>2020-07-02T19:03:56Z</time>
      </trkpt>
      <trkpt lat="47.77221" lon="1.69439">
        <ele>91.9</ele>
        <time>2020-07-02T19:03:57Z</time>
      </trkpt>
      <trkpt lat="47.77215" lon="1.69432">
        <ele>91.9</ele>
        <time>2020-07-02T19:03:58Z</time>
      </trkpt>
      <trkpt lat="47.7721" lon="1.69425">
        <ele>91.9</ele>
        <time>2020-07-02T19:03:59Z</time>
      </trkpt>
      <trkpt lat="47.77205" lon="1.69418">
        <ele>92</ele>
        <time>2020-07-02T19:04:00Z</time>
      </trkpt>
      <trkpt lat="47.772" lon="1.69411">
        <ele>92</ele>
        <time>2020-07-02T19:04:01Z</time>
      </trkpt>
      <trkpt lat="47.77195" lon="1.69404">
        <ele>92</ele>
        <time>2020-07-02T19:04:02Z</time>
      </trkpt>
      <trkpt lat="47.77191" lon="1.69397">
        <ele>92.2</ele>
        <time>2020-07-02T19:04:03Z</time>
      </trkpt>
      <trkpt lat="47.77186" lon="1.6939">
        <ele>92.3</ele>
        <time>2020-07-02T19:04:04Z</time>
      </trkpt>
      <trkpt lat="47.77181" lon="1.69383">
        <ele>92.4</ele>
        <time>2020-07-02T19:04:05Z</time>
      </trkpt>
      <trkpt lat="47.77176" lon="1.69377">
        <ele>92.4</ele>
        <time>2020-07-02T19:04:06Z</time>
      </trkpt>
      <trkpt lat="47.77171" lon="1.69369">
        <ele>92.5</ele>
        <time>2020-07-02T19:04:07Z</time>
      </trkpt>
      <trkpt lat="47.77166" lon="1.69363">
        <ele>92.6</ele>
        <time>2020-07-02T19:04:08Z</time>
      </trkpt>
      <trkpt lat="47.7716" lon="1.69357">
        <ele>92.6</ele>
        <time>2020-07-02T19:04:09Z</time>
      </trkpt>
      <trkpt lat="47.77155" lon="1.69352">
        <ele>92.7</ele>
        <time>2020-07-02T19:04:10Z</time>
      </trkpt>
      <trkpt lat="47.7715" lon="1.69347">
        <ele>92.7</ele>
        <time>2020-07-02T19:04:11Z</time>
      </trkpt>
      <trkpt lat="47.77145" lon="1.69342">
        <ele>92.7</ele>
        <time>2020-07-02T19:04:12Z</time>
      </trkpt>
      <trkpt lat="47.7714" lon="1.69337">
        <ele>92.7</ele>
        <time>2020-07-02T19:04:13Z</time>
      </trkpt>
      <trkpt lat="47.77136" lon="1.69332">
        <ele>92.7</ele>
        <time>2020-07-02T19:04:14Z</time>
      </trkpt>
      <trkpt lat="47.77132" lon="1.69328">
        <ele>92.7</ele>
        <time>2020-07-02T19:04:15Z</time>
      </trkpt>
      <trkpt lat="47.7713" lon="1.69322">
        <ele>92.7</ele>
        <time>2020-07-02T19:04:16Z</time>
      </trkpt>
      <trkpt lat="47.77128" lon="1.69317">
        <ele>92.7</ele>
        <time>2020-07-02T19:04:17Z</time>
      </trkpt>
      <trkpt lat="47.77125" lon="1.69316">
        <ele>92.8</ele>
        <time>2020-07-02T19:04:18Z</time>
      </trkpt>
      <trkpt lat="47.77123" lon="1.69317">
        <ele>92.8</ele>
        <time>2020-07-02T19:04:19Z</time>
      </trkpt>
      <trkpt lat="47.7712" lon="1.69315">
        <ele>92.7</ele>
        <time>2020-07-02T19:04:20Z</time>
      </trkpt>
      <trkpt lat="47.77116" lon="1.69315">
        <ele>92.7</ele>
        <time>2020-07-02T19:04:21Z</time>
      </trkpt>
      <trkpt lat="47.77112" lon="1.69313">
        <ele>92.7</ele>
        <time>2020-07-02T19:04:22Z</time>
      </trkpt>
      <trkpt lat="47.77108" lon="1.69309">
        <ele>92.7</ele>
        <time>2020-07-02T19:04:23Z</time>
      </trkpt>
      <trkpt lat="47.77105" lon="1.69306">
        <ele>92.6</ele>
        <time>2020-07-02T19:04:24Z</time>
      </trkpt>
      <trkpt lat="47.77101" lon="1.69303">
        <ele>92.6</ele>
        <time>2020-07-02T19:04:25Z</time>
      </trkpt>
      <trkpt lat="47.77097" lon="1.693">
        <ele>92.6</ele>
        <time>2020-07-02T19:04:26Z</time>
      </trkpt>
      <trkpt lat="47.77093" lon="1.69296">
        <ele>92.5</ele>
        <time>2020-07-02T19:04:27Z</time>
      </trkpt>
      <trkpt lat="47.7709" lon="1.69289">
        <ele>92.5</ele>
        <time>2020-07-02T19:04:28Z</time>
      </trkpt>
      <trkpt lat="47.77087" lon="1.69284">
        <ele>92.4</ele>
        <time>2020-07-02T19:04:29Z</time>
      </trkpt>
      <trkpt lat="47.77083" lon="1.6928">
        <ele>92.4</ele>
        <time>2020-07-02T19:04:30Z</time>
      </trkpt>
      <trkpt lat="47.77079" lon="1.69275">
        <ele>92.3</ele>
        <time>2020-07-02T19:04:31Z</time>
      </trkpt>
      <trkpt lat="47.77075" lon="1.69271">
        <ele>92.3</ele>
        <time>2020-07-02T19:04:32Z</time>
      </trkpt>
      <trkpt lat="47.77071" lon="1.69266">
        <ele>92.3</ele>
        <time>2020-07-02T19:04:33Z</time>
      </trkpt>
      <trkpt lat="47.77067" lon="1.69262">
        <ele>92.3</ele>
        <time>2020-07-02T19:04:34Z</time>
      </trkpt>
      <trkpt lat="47.77063" lon="1.69257">
        <ele>92.3</ele>
        <time>2020-07-02T19:04:35Z</time>
      </trkpt>
      <trkpt lat="47.77058" lon="1.69251">
        <ele>92.3</ele>
        <time>2020-07-02T19:04:36Z</time>
      </trkpt>
      <trkpt lat="47.77053" lon="1.69246">
        <ele>92.3</ele>
        <time>2020-07-02T19:04:37Z</time>
      </trkpt>
      <trkpt lat="47.77048" lon="1.69241">
        <ele>92.3</ele>
        <time>2020-07-02T19:04:38Z</time>
      </trkpt>
      <trkpt lat="47.77044" lon="1.69236">
        <ele>92.3</ele>
        <time>2020-07-02T19:04:39Z</time>
      </trkpt>
      <trkpt lat="47.7704" lon="1.69233">
        <ele>92.3</ele>
        <time>2020-07-02T19:04:40Z</time>
      </trkpt>
      <trkpt lat="47.77033" lon="1.69227">
        <ele>92.3</ele>
        <time>2020-07-02T19:04:41Z</time>
      </trkpt>
      <trkpt lat="47.77029" lon="1.69222">
        <ele>92.3</ele>
        <time>2020-07-02T19:04:42Z</time>
      </trkpt>
      <trkpt lat="47.77024" lon="1.69217">
        <ele>92.3</ele>
        <time>2020-07-02T19:04:43Z</time>
      </trkpt>
      <trkpt lat="47.77019" lon="1.69212">
        <ele>92.3</ele>
        <time>2020-07-02T19:04:44Z</time>
      </trkpt>
      <trkpt lat="47.77014" lon="1.69206">
        <ele>92.3</ele>
        <time>2020-07-02T19:04:45Z</time>
      </trkpt>
      <trkpt lat="47.77008" lon="1.69201">
        <ele>92.3</ele>
        <time>2020-07-02T19:04:46Z</time>
      </trkpt>
      <trkpt lat="47.77003" lon="1.69194">
        <ele>92.4</ele>
        <time>2020-07-02T19:04:47Z</time>
      </trkpt>
      <trkpt lat="47.76998" lon="1.69189">
        <ele>92.9</ele>
        <time>2020-07-02T19:04:48Z</time>
      </trkpt>
      <trkpt lat="47.76993" lon="1.69185">
        <ele>93.1</ele>
        <time>2020-07-02T19:04:49Z</time>
      </trkpt>
      <trkpt lat="47.76989" lon="1.69181">
        <ele>93.2</ele>
        <time>2020-07-02T19:04:50Z</time>
      </trkpt>
      <trkpt lat="47.76984" lon="1.69176">
        <ele>93.2</ele>
        <time>2020-07-02T19:04:51Z</time>
      </trkpt>
      <trkpt lat="47.76978" lon="1.69172">
        <ele>93.2</ele>
        <time>2020-07-02T19:04:52Z</time>
      </trkpt>
      <trkpt lat="47.76973" lon="1.69165">
        <ele>93.2</ele>
        <time>2020-07-02T19:04:53Z</time>
      </trkpt>
      <trkpt lat="47.76968" lon="1.6916">
        <ele>93.2</ele>
        <time>2020-07-02T19:04:54Z</time>
      </trkpt>
      <trkpt lat="47.76963" lon="1.69153">
        <ele>93.1</ele>
        <time>2020-07-02T19:04:55Z</time>
      </trkpt>
      <trkpt lat="47.76958" lon="1.69146">
        <ele>93.1</ele>
        <time>2020-07-02T19:04:56Z</time>
      </trkpt>
      <trkpt lat="47.76954" lon="1.69139">
        <ele>93.1</ele>
        <time>2020-07-02T19:04:57Z</time>
      </trkpt>
      <trkpt lat="47.7695" lon="1.69132">
        <ele>93.1</ele>
        <time>2020-07-02T19:04:58Z</time>
      </trkpt>
      <trkpt lat="47.76946" lon="1.69126">
        <ele>93.1</ele>
        <time>2020-07-02T19:04:59Z</time>
      </trkpt>
      <trkpt lat="47.76942" lon="1.69119">
        <ele>93</ele>
        <time>2020-07-02T19:05:00Z</time>
      </trkpt>
      <trkpt lat="47.76938" lon="1.69113">
        <ele>93</ele>
        <time>2020-07-02T19:05:01Z</time>
      </trkpt>
      <trkpt lat="47.76933" lon="1.69106">
        <ele>93</ele>
        <time>2020-07-02T19:05:02Z</time>
      </trkpt>
      <trkpt lat="47.76928" lon="1.69099">
        <ele>93</ele>
        <time>2020-07-02T19:05:03Z</time>
      </trkpt>
      <trkpt lat="47.76924" lon="1.69092">
        <ele>93</ele>
        <time>2020-07-02T19:05:04Z</time>
      </trkpt>
      <trkpt lat="47.76919" lon="1.69085">
        <ele>93</ele>
        <time>2020-07-02T19:05:05Z</time>
      </trkpt>
      <trkpt lat="47.76915" lon="1.69079">
        <ele>92.9</ele>
        <time>2020-07-02T19:05:06Z</time>
      </trkpt>
      <trkpt lat="47.76909" lon="1.69072">
        <ele>92.8</ele>
        <time>2020-07-02T19:05:07Z</time>
      </trkpt>
      <trkpt lat="47.76905" lon="1.69063">
        <ele>92.7</ele>
        <time>2020-07-02T19:05:08Z</time>
      </trkpt>
      <trkpt lat="47.769" lon="1.69056">
        <ele>92.7</ele>
        <time>2020-07-02T19:05:09Z</time>
      </trkpt>
      <trkpt lat="47.76895" lon="1.69049">
        <ele>92.6</ele>
        <time>2020-07-02T19:05:10Z</time>
      </trkpt>
      <trkpt lat="47.7689" lon="1.69041">
        <ele>92.6</ele>
        <time>2020-07-02T19:05:11Z</time>
      </trkpt>
      <trkpt lat="47.76885" lon="1.69033">
        <ele>92.6</ele>
        <time>2020-07-02T19:05:12Z</time>
      </trkpt>
      <trkpt lat="47.76881" lon="1.69026">
        <ele>92.6</ele>
        <time>2020-07-02T19:05:13Z</time>
      </trkpt>
      <trkpt lat="47.76876" lon="1.69019">
        <ele>92.6</ele>
        <time>2020-07-02T19:05:14Z</time>
      </trkpt>
      <trkpt lat="47.76872" lon="1.69012">
        <ele>92.6</ele>
        <time>2020-07-02T19:05:15Z</time>
      </trkpt>
      <trkpt lat="47.76867" lon="1.69005">
        <ele>92.5</ele>
        <time>2020-07-02T19:05:16Z</time>
      </trkpt>
      <trkpt lat="47.76862" lon="1.68998">
        <ele>92.5</ele>
        <time>2020-07-02T19:05:17Z</time>
      </trkpt>
      <trkpt lat="47.76857" lon="1.68992">
        <ele>92.5</ele>
        <time>2020-07-02T19:05:18Z</time>
      </trkpt>
      <trkpt lat="47.76852" lon="1.68984">
        <ele>92.5</ele>
        <time>2020-07-02T19:05:19Z</time>
      </trkpt>
      <trkpt lat="47.76848" lon="1.68977">
        <ele>92.5</ele>
        <time>2020-07-02T19:05:20Z</time>
      </trkpt>
      <trkpt lat="47.76843" lon="1.68969">
        <ele>92.5</ele>
        <time>2020-07-02T19:05:21Z</time>
      </trkpt>
      <trkpt lat="47.76838" lon="1.68962">
        <ele>92.5</ele>
        <time>2020-07-02T19:05:22Z</time>
      </trkpt>
      <trkpt lat="47.76833" lon="1.68954">
        <ele>92.5</ele>
        <time>2020-07-02T19:05:23Z</time>
      </trkpt>
      <trkpt lat="47.76828" lon="1.68947">
        <ele>92.5</ele>
        <time>2020-07-02T19:05:24Z</time>
      </trkpt>
      <trkpt lat="47.76823" lon="1.6894">
        <ele>92.4</ele>
        <time>2020-07-02T19:05:25Z</time>
      </trkpt>
      <trkpt lat="47.76819" lon="1.68932">
        <ele>92.3</ele>
        <time>2020-07-02T19:05:26Z</time>
      </trkpt>
      <trkpt lat="47.76814" lon="1.68925">
        <ele>92.2</ele>
        <time>2020-07-02T19:05:27Z</time>
      </trkpt>
      <trkpt lat="47.7681" lon="1.68917">
        <ele>92.1</ele>
        <time>2020-07-02T19:05:28Z</time>
      </trkpt>
      <trkpt lat="47.76805" lon="1.68909">
        <ele>91.9</ele>
        <time>2020-07-02T19:05:29Z</time>
      </trkpt>
      <trkpt lat="47.768" lon="1.68902">
        <ele>91.7</ele>
        <time>2020-07-02T19:05:30Z</time>
      </trkpt>
      <trkpt lat="47.76795" lon="1.68894">
        <ele>91.5</ele>
        <time>2020-07-02T19:05:31Z</time>
      </trkpt>
      <trkpt lat="47.76789" lon="1.68887">
        <ele>91.4</ele>
        <time>2020-07-02T19:05:32Z</time>
      </trkpt>
      <trkpt lat="47.76784" lon="1.6888">
        <ele>91.3</ele>
        <time>2020-07-02T19:05:33Z</time>
      </trkpt>
      <trkpt lat="47.76779" lon="1.68872">
        <ele>91.1</ele>
        <time>2020-07-02T19:05:34Z</time>
      </trkpt>
      <trkpt lat="47.76773" lon="1.68865">
        <ele>91</ele>
        <time>2020-07-02T19:05:35Z</time>
      </trkpt>
      <trkpt lat="47.76768" lon="1.68856">
        <ele>90.9</ele>
        <time>2020-07-02T19:05:36Z</time>
      </trkpt>
      <trkpt lat="47.76763" lon="1.68849">
        <ele>90.8</ele>
        <time>2020-07-02T19:05:37Z</time>
      </trkpt>
      <trkpt lat="47.76758" lon="1.68841">
        <ele>90.6</ele>
        <time>2020-07-02T19:05:38Z</time>
      </trkpt>
      <trkpt lat="47.76753" lon="1.68833">
        <ele>90.5</ele>
        <time>2020-07-02T19:05:39Z</time>
      </trkpt>
      <trkpt lat="47.76747" lon="1.68826">
        <ele>90.4</ele>
        <time>2020-07-02T19:05:40Z</time>
      </trkpt>
      <trkpt lat="47.76742" lon="1.68818">
        <ele>90.4</ele>
        <time>2020-07-02T19:05:41Z</time>
      </trkpt>
      <trkpt lat="47.76737" lon="1.6881">
        <ele>90.4</ele>
        <time>2020-07-02T19:05:42Z</time>
      </trkpt>
      <trkpt lat="47.76731" lon="1.68802">
        <ele>90.4</ele>
        <time>2020-07-02T19:05:43Z</time>
      </trkpt>
      <trkpt lat="47.76727" lon="1.68794">
        <ele>90.3</ele>
        <time>2020-07-02T19:05:44Z</time>
      </trkpt>
      <trkpt lat="47.76722" lon="1.68785">
        <ele>90.3</ele>
        <time>2020-07-02T19:05:45Z</time>
      </trkpt>
      <trkpt lat="47.76717" lon="1.68777">
        <ele>90.2</ele>
        <time>2020-07-02T19:05:46Z</time>
      </trkpt>
      <trkpt lat="47.76712" lon="1.68769">
        <ele>90.1</ele>
        <time>2020-07-02T19:05:47Z</time>
      </trkpt>
      <trkpt lat="47.76707" lon="1.68762">
        <ele>90.1</ele>
        <time>2020-07-02T19:05:48Z</time>
      </trkpt>
      <trkpt lat="47.76701" lon="1.68755">
        <ele>90.1</ele>
        <time>2020-07-02T19:05:49Z</time>
      </trkpt>
      <trkpt lat="47.76696" lon="1.68748">
        <ele>90.1</ele>
        <time>2020-07-02T19:05:50Z</time>
      </trkpt>
      <trkpt lat="47.76691" lon="1.6874">
        <ele>90.1</ele>
        <time>2020-07-02T19:05:51Z</time>
      </trkpt>
      <trkpt lat="47.76687" lon="1.68733">
        <ele>90.2</ele>
        <time>2020-07-02T19:05:52Z</time>
      </trkpt>
      <trkpt lat="47.76682" lon="1.68726">
        <ele>90.2</ele>
        <time>2020-07-02T19:05:53Z</time>
      </trkpt>
      <trkpt lat="47.76678" lon="1.68719">
        <ele>90.1</ele>
        <time>2020-07-02T19:05:54Z</time>
      </trkpt>
      <trkpt lat="47.76674" lon="1.68711">
        <ele>90.1</ele>
        <time>2020-07-02T19:05:55Z</time>
      </trkpt>
      <trkpt lat="47.7667" lon="1.68704">
        <ele>90.1</ele>
        <time>2020-07-02T19:05:56Z</time>
      </trkpt>
      <trkpt lat="47.76666" lon="1.68696">
        <ele>90</ele>
        <time>2020-07-02T19:05:57Z</time>
      </trkpt>
      <trkpt lat="47.76662" lon="1.68689">
        <ele>90</ele>
        <time>2020-07-02T19:05:58Z</time>
      </trkpt>
      <trkpt lat="47.76658" lon="1.68681">
        <ele>89.9</ele>
        <time>2020-07-02T19:05:59Z</time>
      </trkpt>
      <trkpt lat="47.76653" lon="1.68674">
        <ele>89.9</ele>
        <time>2020-07-02T19:06:00Z</time>
      </trkpt>
      <trkpt lat="47.76649" lon="1.68667">
        <ele>89.8</ele>
        <time>2020-07-02T19:06:01Z</time>
      </trkpt>
      <trkpt lat="47.76644" lon="1.68659">
        <ele>89.8</ele>
        <time>2020-07-02T19:06:02Z</time>
      </trkpt>
      <trkpt lat="47.76639" lon="1.68652">
        <ele>89.7</ele>
        <time>2020-07-02T19:06:03Z</time>
      </trkpt>
      <trkpt lat="47.76633" lon="1.68645">
        <ele>89.7</ele>
        <time>2020-07-02T19:06:04Z</time>
      </trkpt>
      <trkpt lat="47.76627" lon="1.68638">
        <ele>89.6</ele>
        <time>2020-07-02T19:06:05Z</time>
      </trkpt>
      <trkpt lat="47.76622" lon="1.6863">
        <ele>89.5</ele>
        <time>2020-07-02T19:06:06Z</time>
      </trkpt>
      <trkpt lat="47.76616" lon="1.68622">
        <ele>89.4</ele>
        <time>2020-07-02T19:06:07Z</time>
      </trkpt>
      <trkpt lat="47.76611" lon="1.68614">
        <ele>89.3</ele>
        <time>2020-07-02T19:06:08Z</time>
      </trkpt>
      <trkpt lat="47.76606" lon="1.68606">
        <ele>89.3</ele>
        <time>2020-07-02T19:06:09Z</time>
      </trkpt>
      <trkpt lat="47.76601" lon="1.68599">
        <ele>89.3</ele>
        <time>2020-07-02T19:06:10Z</time>
      </trkpt>
      <trkpt lat="47.76596" lon="1.68591">
        <ele>89.3</ele>
        <time>2020-07-02T19:06:11Z</time>
      </trkpt>
      <trkpt lat="47.76591" lon="1.68584">
        <ele>89.3</ele>
        <time>2020-07-02T19:06:12Z</time>
      </trkpt>
      <trkpt lat="47.76586" lon="1.68576">
        <ele>89.4</ele>
        <time>2020-07-02T19:06:13Z</time>
      </trkpt>
      <trkpt lat="47.76581" lon="1.68568">
        <ele>89.4</ele>
        <time>2020-07-02T19:06:14Z</time>
      </trkpt>
      <trkpt lat="47.76576" lon="1.6856">
        <ele>89.5</ele>
        <time>2020-07-02T19:06:15Z</time>
      </trkpt>
      <trkpt lat="47.76571" lon="1.68552">
        <ele>89.5</ele>
        <time>2020-07-02T19:06:16Z</time>
      </trkpt>
      <trkpt lat="47.76566" lon="1.68544">
        <ele>89.6</ele>
        <time>2020-07-02T19:06:17Z</time>
      </trkpt>
      <trkpt lat="47.76562" lon="1.68536">
        <ele>89.6</ele>
        <time>2020-07-02T19:06:18Z</time>
      </trkpt>
      <trkpt lat="47.76556" lon="1.68529">
        <ele>89.6</ele>
        <time>2020-07-02T19:06:19Z</time>
      </trkpt>
      <trkpt lat="47.76551" lon="1.68521">
        <ele>89.5</ele>
        <time>2020-07-02T19:06:20Z</time>
      </trkpt>
      <trkpt lat="47.76546" lon="1.68514">
        <ele>89.5</ele>
        <time>2020-07-02T19:06:21Z</time>
      </trkpt>
      <trkpt lat="47.76541" lon="1.68506">
        <ele>89.5</ele>
        <time>2020-07-02T19:06:22Z</time>
      </trkpt>
      <trkpt lat="47.76536" lon="1.68499">
        <ele>89.5</ele>
        <time>2020-07-02T19:06:23Z</time>
      </trkpt>
      <trkpt lat="47.7653" lon="1.68491">
        <ele>89.5</ele>
        <time>2020-07-02T19:06:24Z</time>
      </trkpt>
      <trkpt lat="47.76525" lon="1.68483">
        <ele>89.5</ele>
        <time>2020-07-02T19:06:25Z</time>
      </trkpt>
      <trkpt lat="47.7652" lon="1.68476">
        <ele>89.6</ele>
        <time>2020-07-02T19:06:26Z</time>
      </trkpt>
      <trkpt lat="47.76516" lon="1.68469">
        <ele>89.7</ele>
        <time>2020-07-02T19:06:27Z</time>
      </trkpt>
      <trkpt lat="47.76511" lon="1.68462">
        <ele>89.7</ele>
        <time>2020-07-02T19:06:28Z</time>
      </trkpt>
      <trkpt lat="47.76507" lon="1.68454">
        <ele>89.8</ele>
        <time>2020-07-02T19:06:29Z</time>
      </trkpt>
      <trkpt lat="47.76503" lon="1.68447">
        <ele>89.8</ele>
        <time>2020-07-02T19:06:30Z</time>
      </trkpt>
      <trkpt lat="47.76499" lon="1.6844">
        <ele>89.8</ele>
        <time>2020-07-02T19:06:31Z</time>
      </trkpt>
      <trkpt lat="47.76495" lon="1.68433">
        <ele>89.8</ele>
        <time>2020-07-02T19:06:32Z</time>
      </trkpt>
      <trkpt lat="47.76491" lon="1.68426">
        <ele>89.8</ele>
        <time>2020-07-02T19:06:33Z</time>
      </trkpt>
      <trkpt lat="47.76487" lon="1.6842">
        <ele>89.8</ele>
        <time>2020-07-02T19:06:34Z</time>
      </trkpt>
      <trkpt lat="47.76483" lon="1.68414">
        <ele>89.8</ele>
        <time>2020-07-02T19:06:35Z</time>
      </trkpt>
      <trkpt lat="47.7648" lon="1.68408">
        <ele>89.8</ele>
        <time>2020-07-02T19:06:36Z</time>
      </trkpt>
      <trkpt lat="47.76477" lon="1.68402">
        <ele>89.8</ele>
        <time>2020-07-02T19:06:37Z</time>
      </trkpt>
      <trkpt lat="47.76473" lon="1.68396">
        <ele>89.8</ele>
        <time>2020-07-02T19:06:38Z</time>
      </trkpt>
      <trkpt lat="47.7647" lon="1.6839">
        <ele>89.7</ele>
        <time>2020-07-02T19:06:39Z</time>
      </trkpt>
      <trkpt lat="47.76467" lon="1.68383">
        <ele>89.6</ele>
        <time>2020-07-02T19:06:40Z</time>
      </trkpt>
      <trkpt lat="47.76463" lon="1.68378">
        <ele>89.4</ele>
        <time>2020-07-02T19:06:41Z</time>
      </trkpt>
      <trkpt lat="47.7646" lon="1.68373">
        <ele>89.4</ele>
        <time>2020-07-02T19:06:42Z</time>
      </trkpt>
      <trkpt lat="47.76457" lon="1.68367">
        <ele>89.3</ele>
        <time>2020-07-02T19:06:43Z</time>
      </trkpt>
      <trkpt lat="47.76454" lon="1.68362">
        <ele>89.3</ele>
        <time>2020-07-02T19:06:44Z</time>
      </trkpt>
      <trkpt lat="47.76451" lon="1.68357">
        <ele>89.1</ele>
        <time>2020-07-02T19:06:45Z</time>
      </trkpt>
      <trkpt lat="47.76447" lon="1.68351">
        <ele>89</ele>
        <time>2020-07-02T19:06:46Z</time>
      </trkpt>
      <trkpt lat="47.76443" lon="1.68344">
        <ele>88.9</ele>
        <time>2020-07-02T19:06:47Z</time>
      </trkpt>
      <trkpt lat="47.76439" lon="1.68336">
        <ele>88.8</ele>
        <time>2020-07-02T19:06:48Z</time>
      </trkpt>
      <trkpt lat="47.76434" lon="1.68329">
        <ele>88.6</ele>
        <time>2020-07-02T19:06:49Z</time>
      </trkpt>
      <trkpt lat="47.7643" lon="1.68321">
        <ele>88.5</ele>
        <time>2020-07-02T19:06:50Z</time>
      </trkpt>
      <trkpt lat="47.76425" lon="1.68314">
        <ele>88.3</ele>
        <time>2020-07-02T19:06:51Z</time>
      </trkpt>
      <trkpt lat="47.7642" lon="1.68306">
        <ele>88.2</ele>
        <time>2020-07-02T19:06:52Z</time>
      </trkpt>
      <trkpt lat="47.76415" lon="1.683">
        <ele>88</ele>
        <time>2020-07-02T19:06:53Z</time>
      </trkpt>
      <trkpt lat="47.76409" lon="1.68293">
        <ele>87.8</ele>
        <time>2020-07-02T19:06:54Z</time>
      </trkpt>
      <trkpt lat="47.76404" lon="1.68286">
        <ele>87.7</ele>
        <time>2020-07-02T19:06:55Z</time>
      </trkpt>
      <trkpt lat="47.76398" lon="1.68278">
        <ele>87.6</ele>
        <time>2020-07-02T19:06:56Z</time>
      </trkpt>
      <trkpt lat="47.76393" lon="1.68271">
        <ele>87.5</ele>
        <time>2020-07-02T19:06:57Z</time>
      </trkpt>
      <trkpt lat="47.76387" lon="1.68263">
        <ele>87.5</ele>
        <time>2020-07-02T19:06:58Z</time>
      </trkpt>
      <trkpt lat="47.76382" lon="1.68256">
        <ele>87.4</ele>
        <time>2020-07-02T19:06:59Z</time>
      </trkpt>
      <trkpt lat="47.76376" lon="1.68249">
        <ele>87.3</ele>
        <time>2020-07-02T19:07:00Z</time>
      </trkpt>
      <trkpt lat="47.76371" lon="1.68241">
        <ele>87.3</ele>
        <time>2020-07-02T19:07:01Z</time>
      </trkpt>
      <trkpt lat="47.76366" lon="1.68234">
        <ele>87.2</ele>
        <time>2020-07-02T19:07:02Z</time>
      </trkpt>
      <trkpt lat="47.7636" lon="1.68227">
        <ele>87.2</ele>
        <time>2020-07-02T19:07:03Z</time>
      </trkpt>
      <trkpt lat="47.76355" lon="1.6822">
        <ele>87.2</ele>
        <time>2020-07-02T19:07:04Z</time>
      </trkpt>
      <trkpt lat="47.7635" lon="1.68213">
        <ele>87.2</ele>
        <time>2020-07-02T19:07:05Z</time>
      </trkpt>
      <trkpt lat="47.76344" lon="1.68206">
        <ele>87.1</ele>
        <time>2020-07-02T19:07:06Z</time>
      </trkpt>
      <trkpt lat="47.76339" lon="1.68198">
        <ele>87.1</ele>
        <time>2020-07-02T19:07:07Z</time>
      </trkpt>
      <trkpt lat="47.76334" lon="1.6819">
        <ele>87.1</ele>
        <time>2020-07-02T19:07:08Z</time>
      </trkpt>
      <trkpt lat="47.7633" lon="1.68182">
        <ele>87.1</ele>
        <time>2020-07-02T19:07:09Z</time>
      </trkpt>
      <trkpt lat="47.76325" lon="1.68175">
        <ele>87.1</ele>
        <time>2020-07-02T19:07:10Z</time>
      </trkpt>
      <trkpt lat="47.7632" lon="1.68167">
        <ele>87.1</ele>
        <time>2020-07-02T19:07:11Z</time>
      </trkpt>
      <trkpt lat="47.76315" lon="1.6816">
        <ele>87.2</ele>
        <time>2020-07-02T19:07:12Z</time>
      </trkpt>
      <trkpt lat="47.7631" lon="1.68154">
        <ele>87.3</ele>
        <time>2020-07-02T19:07:13Z</time>
      </trkpt>
      <trkpt lat="47.76306" lon="1.68147">
        <ele>87.4</ele>
        <time>2020-07-02T19:07:14Z</time>
      </trkpt>
      <trkpt lat="47.76302" lon="1.68139">
        <ele>87.4</ele>
        <time>2020-07-02T19:07:15Z</time>
      </trkpt>
      <trkpt lat="47.76297" lon="1.68133">
        <ele>87.3</ele>
        <time>2020-07-02T19:07:16Z</time>
      </trkpt>
      <trkpt lat="47.76292" lon="1.68127">
        <ele>87.3</ele>
        <time>2020-07-02T19:07:17Z</time>
      </trkpt>
      <trkpt lat="47.76287" lon="1.68121">
        <ele>87.2</ele>
        <time>2020-07-02T19:07:18Z</time>
      </trkpt>
      <trkpt lat="47.76282" lon="1.68115">
        <ele>87.2</ele>
        <time>2020-07-02T19:07:19Z</time>
      </trkpt>
      <trkpt lat="47.76277" lon="1.68109">
        <ele>87.2</ele>
        <time>2020-07-02T19:07:20Z</time>
      </trkpt>
      <trkpt lat="47.76273" lon="1.68103">
        <ele>87.2</ele>
        <time>2020-07-02T19:07:21Z</time>
      </trkpt>
      <trkpt lat="47.76269" lon="1.68096">
        <ele>87.2</ele>
        <time>2020-07-02T19:07:22Z</time>
      </trkpt>
      <trkpt lat="47.76264" lon="1.68089">
        <ele>87.2</ele>
        <time>2020-07-02T19:07:23Z</time>
      </trkpt>
      <trkpt lat="47.7626" lon="1.68081">
        <ele>87.2</ele>
        <time>2020-07-02T19:07:24Z</time>
      </trkpt>
      <trkpt lat="47.76255" lon="1.68074">
        <ele>87.1</ele>
        <time>2020-07-02T19:07:25Z</time>
      </trkpt>
      <trkpt lat="47.7625" lon="1.68067">
        <ele>87.1</ele>
        <time>2020-07-02T19:07:26Z</time>
      </trkpt>
      <trkpt lat="47.76245" lon="1.6806">
        <ele>87.1</ele>
        <time>2020-07-02T19:07:27Z</time>
      </trkpt>
      <trkpt lat="47.76239" lon="1.68054">
        <ele>87</ele>
        <time>2020-07-02T19:07:28Z</time>
      </trkpt>
      <trkpt lat="47.76234" lon="1.68048">
        <ele>87</ele>
        <time>2020-07-02T19:07:29Z</time>
      </trkpt>
      <trkpt lat="47.76229" lon="1.6804">
        <ele>87</ele>
        <time>2020-07-02T19:07:30Z</time>
      </trkpt>
      <trkpt lat="47.76224" lon="1.68032">
        <ele>87</ele>
        <time>2020-07-02T19:07:31Z</time>
      </trkpt>
      <trkpt lat="47.7622" lon="1.68024">
        <ele>87</ele>
        <time>2020-07-02T19:07:32Z</time>
      </trkpt>
      <trkpt lat="47.76214" lon="1.68017">
        <ele>87.1</ele>
        <time>2020-07-02T19:07:33Z</time>
      </trkpt>
      <trkpt lat="47.7621" lon="1.68009">
        <ele>87.1</ele>
        <time>2020-07-02T19:07:34Z</time>
      </trkpt>
      <trkpt lat="47.76205" lon="1.68001">
        <ele>87</ele>
        <time>2020-07-02T19:07:35Z</time>
      </trkpt>
      <trkpt lat="47.762" lon="1.67994">
        <ele>86.9</ele>
        <time>2020-07-02T19:07:36Z</time>
      </trkpt>
      <trkpt lat="47.76196" lon="1.67986">
        <ele>86.8</ele>
        <time>2020-07-02T19:07:37Z</time>
      </trkpt>
      <trkpt lat="47.76191" lon="1.67978">
        <ele>86.7</ele>
        <time>2020-07-02T19:07:38Z</time>
      </trkpt>
      <trkpt lat="47.76186" lon="1.67971">
        <ele>86.6</ele>
        <time>2020-07-02T19:07:39Z</time>
      </trkpt>
      <trkpt lat="47.76181" lon="1.67964">
        <ele>86.5</ele>
        <time>2020-07-02T19:07:40Z</time>
      </trkpt>
      <trkpt lat="47.76177" lon="1.67956">
        <ele>86.4</ele>
        <time>2020-07-02T19:07:41Z</time>
      </trkpt>
      <trkpt lat="47.76172" lon="1.67949">
        <ele>86.4</ele>
        <time>2020-07-02T19:07:42Z</time>
      </trkpt>
      <trkpt lat="47.76168" lon="1.67941">
        <ele>86.3</ele>
        <time>2020-07-02T19:07:43Z</time>
      </trkpt>
      <trkpt lat="47.76163" lon="1.67934">
        <ele>86.2</ele>
        <time>2020-07-02T19:07:44Z</time>
      </trkpt>
      <trkpt lat="47.76158" lon="1.67927">
        <ele>86.1</ele>
        <time>2020-07-02T19:07:45Z</time>
      </trkpt>
      <trkpt lat="47.76153" lon="1.6792">
        <ele>86</ele>
        <time>2020-07-02T19:07:46Z</time>
      </trkpt>
      <trkpt lat="47.76149" lon="1.67913">
        <ele>86</ele>
        <time>2020-07-02T19:07:47Z</time>
      </trkpt>
      <trkpt lat="47.76144" lon="1.67906">
        <ele>85.9</ele>
        <time>2020-07-02T19:07:48Z</time>
      </trkpt>
      <trkpt lat="47.76139" lon="1.67898">
        <ele>85.8</ele>
        <time>2020-07-02T19:07:49Z</time>
      </trkpt>
      <trkpt lat="47.76134" lon="1.67891">
        <ele>85.8</ele>
        <time>2020-07-02T19:07:50Z</time>
      </trkpt>
      <trkpt lat="47.76129" lon="1.67884">
        <ele>85.8</ele>
        <time>2020-07-02T19:07:51Z</time>
      </trkpt>
      <trkpt lat="47.76124" lon="1.67876">
        <ele>85.7</ele>
        <time>2020-07-02T19:07:52Z</time>
      </trkpt>
      <trkpt lat="47.76119" lon="1.67869">
        <ele>85.7</ele>
        <time>2020-07-02T19:07:53Z</time>
      </trkpt>
      <trkpt lat="47.76113" lon="1.67861">
        <ele>85.5</ele>
        <time>2020-07-02T19:07:54Z</time>
      </trkpt>
      <trkpt lat="47.76108" lon="1.67853">
        <ele>85.4</ele>
        <time>2020-07-02T19:07:55Z</time>
      </trkpt>
      <trkpt lat="47.76103" lon="1.67846">
        <ele>85.3</ele>
        <time>2020-07-02T19:07:56Z</time>
      </trkpt>
      <trkpt lat="47.76098" lon="1.67839">
        <ele>85.1</ele>
        <time>2020-07-02T19:07:57Z</time>
      </trkpt>
      <trkpt lat="47.76092" lon="1.67832">
        <ele>85</ele>
        <time>2020-07-02T19:07:58Z</time>
      </trkpt>
      <trkpt lat="47.76086" lon="1.67826">
        <ele>84.9</ele>
        <time>2020-07-02T19:07:59Z</time>
      </trkpt>
      <trkpt lat="47.7608" lon="1.67819">
        <ele>84.8</ele>
        <time>2020-07-02T19:08:00Z</time>
      </trkpt>
      <trkpt lat="47.76075" lon="1.67811">
        <ele>84.7</ele>
        <time>2020-07-02T19:08:01Z</time>
      </trkpt>
      <trkpt lat="47.76069" lon="1.67804">
        <ele>84.6</ele>
        <time>2020-07-02T19:08:02Z</time>
      </trkpt>
      <trkpt lat="47.76063" lon="1.67797">
        <ele>84.6</ele>
        <time>2020-07-02T19:08:03Z</time>
      </trkpt>
      <trkpt lat="47.76057" lon="1.6779">
        <ele>84.5</ele>
        <time>2020-07-02T19:08:04Z</time>
      </trkpt>
      <trkpt lat="47.76052" lon="1.67783">
        <ele>84.5</ele>
        <time>2020-07-02T19:08:05Z</time>
      </trkpt>
      <trkpt lat="47.76046" lon="1.67776">
        <ele>84.5</ele>
        <time>2020-07-02T19:08:06Z</time>
      </trkpt>
      <trkpt lat="47.7604" lon="1.67769">
        <ele>84.4</ele>
        <time>2020-07-02T19:08:07Z</time>
      </trkpt>
      <trkpt lat="47.76034" lon="1.67763">
        <ele>84.4</ele>
        <time>2020-07-02T19:08:08Z</time>
      </trkpt>
      <trkpt lat="47.76029" lon="1.67756">
        <ele>84.3</ele>
        <time>2020-07-02T19:08:09Z</time>
      </trkpt>
      <trkpt lat="47.76023" lon="1.67749">
        <ele>84.3</ele>
        <time>2020-07-02T19:08:10Z</time>
      </trkpt>
      <trkpt lat="47.76017" lon="1.67744">
        <ele>84.2</ele>
        <time>2020-07-02T19:08:11Z</time>
      </trkpt>
      <trkpt lat="47.76011" lon="1.67738">
        <ele>84.2</ele>
        <time>2020-07-02T19:08:12Z</time>
      </trkpt>
      <trkpt lat="47.76005" lon="1.67731">
        <ele>84.1</ele>
        <time>2020-07-02T19:08:13Z</time>
      </trkpt>
      <trkpt lat="47.75999" lon="1.67726">
        <ele>84.1</ele>
        <time>2020-07-02T19:08:14Z</time>
      </trkpt>
      <trkpt lat="47.75993" lon="1.6772">
        <ele>84.1</ele>
        <time>2020-07-02T19:08:15Z</time>
      </trkpt>
      <trkpt lat="47.75987" lon="1.67715">
        <ele>84.1</ele>
        <time>2020-07-02T19:08:16Z</time>
      </trkpt>
      <trkpt lat="47.75981" lon="1.6771">
        <ele>84.1</ele>
        <time>2020-07-02T19:08:17Z</time>
      </trkpt>
      <trkpt lat="47.75975" lon="1.67705">
        <ele>84.2</ele>
        <time>2020-07-02T19:08:18Z</time>
      </trkpt>
      <trkpt lat="47.75969" lon="1.67699">
        <ele>84.2</ele>
        <time>2020-07-02T19:08:19Z</time>
      </trkpt>
      <trkpt lat="47.75963" lon="1.67693">
        <ele>84.2</ele>
        <time>2020-07-02T19:08:20Z</time>
      </trkpt>
      <trkpt lat="47.75956" lon="1.67688">
        <ele>84.2</ele>
        <time>2020-07-02T19:08:21Z</time>
      </trkpt>
      <trkpt lat="47.75951" lon="1.67682">
        <ele>84.3</ele>
        <time>2020-07-02T19:08:22Z</time>
      </trkpt>
      <trkpt lat="47.75945" lon="1.67678">
        <ele>84.3</ele>
        <time>2020-07-02T19:08:23Z</time>
      </trkpt>
      <trkpt lat="47.75939" lon="1.67672">
        <ele>84.3</ele>
        <time>2020-07-02T19:08:24Z</time>
      </trkpt>
      <trkpt lat="47.75933" lon="1.67667">
        <ele>84.4</ele>
        <time>2020-07-02T19:08:25Z</time>
      </trkpt>
      <trkpt lat="47.75927" lon="1.67663">
        <ele>84.6</ele>
        <time>2020-07-02T19:08:26Z</time>
      </trkpt>
      <trkpt lat="47.75922" lon="1.67658">
        <ele>84.7</ele>
        <time>2020-07-02T19:08:27Z</time>
      </trkpt>
      <trkpt lat="47.75917" lon="1.67653">
        <ele>84.8</ele>
        <time>2020-07-02T19:08:28Z</time>
      </trkpt>
      <trkpt lat="47.75911" lon="1.67648">
        <ele>84.8</ele>
        <time>2020-07-02T19:08:29Z</time>
      </trkpt>
      <trkpt lat="47.75906" lon="1.67643">
        <ele>84.9</ele>
        <time>2020-07-02T19:08:30Z</time>
      </trkpt>
      <trkpt lat="47.75901" lon="1.67638">
        <ele>85</ele>
        <time>2020-07-02T19:08:31Z</time>
      </trkpt>
      <trkpt lat="47.75896" lon="1.67633">
        <ele>85.1</ele>
        <time>2020-07-02T19:08:32Z</time>
      </trkpt>
      <trkpt lat="47.75891" lon="1.67629">
        <ele>85.3</ele>
        <time>2020-07-02T19:08:33Z</time>
      </trkpt>
      <trkpt lat="47.75885" lon="1.67625">
        <ele>85.5</ele>
        <time>2020-07-02T19:08:34Z</time>
      </trkpt>
      <trkpt lat="47.7588" lon="1.6762">
        <ele>85.6</ele>
        <time>2020-07-02T19:08:35Z</time>
      </trkpt>
      <trkpt lat="47.75876" lon="1.67615">
        <ele>85.7</ele>
        <time>2020-07-02T19:08:36Z</time>
      </trkpt>
      <trkpt lat="47.75871" lon="1.6761">
        <ele>85.8</ele>
        <time>2020-07-02T19:08:37Z</time>
      </trkpt>
      <trkpt lat="47.75866" lon="1.67607">
        <ele>85.9</ele>
        <time>2020-07-02T19:08:38Z</time>
      </trkpt>
      <trkpt lat="47.75862" lon="1.67602">
        <ele>86.1</ele>
        <time>2020-07-02T19:08:39Z</time>
      </trkpt>
      <trkpt lat="47.75857" lon="1.67598">
        <ele>86.2</ele>
        <time>2020-07-02T19:08:40Z</time>
      </trkpt>
      <trkpt lat="47.75852" lon="1.67593">
        <ele>86.4</ele>
        <time>2020-07-02T19:08:41Z</time>
      </trkpt>
      <trkpt lat="47.75847" lon="1.67589">
        <ele>86.5</ele>
        <time>2020-07-02T19:08:42Z</time>
      </trkpt>
      <trkpt lat="47.75842" lon="1.67584">
        <ele>86.7</ele>
        <time>2020-07-02T19:08:43Z</time>
      </trkpt>
      <trkpt lat="47.75837" lon="1.6758">
        <ele>86.9</ele>
        <time>2020-07-02T19:08:44Z</time>
      </trkpt>
      <trkpt lat="47.75832" lon="1.67577">
        <ele>87</ele>
        <time>2020-07-02T19:08:45Z</time>
      </trkpt>
      <trkpt lat="47.75827" lon="1.67572">
        <ele>87.2</ele>
        <time>2020-07-02T19:08:46Z</time>
      </trkpt>
      <trkpt lat="47.75822" lon="1.67567">
        <ele>87.4</ele>
        <time>2020-07-02T19:08:47Z</time>
      </trkpt>
      <trkpt lat="47.75817" lon="1.67563">
        <ele>87.5</ele>
        <time>2020-07-02T19:08:48Z</time>
      </trkpt>
      <trkpt lat="47.75812" lon="1.67559">
        <ele>87.8</ele>
        <time>2020-07-02T19:08:49Z</time>
      </trkpt>
      <trkpt lat="47.75807" lon="1.67556">
        <ele>87.9</ele>
        <time>2020-07-02T19:08:50Z</time>
      </trkpt>
      <trkpt lat="47.75801" lon="1.67552">
        <ele>88.1</ele>
        <time>2020-07-02T19:08:51Z</time>
      </trkpt>
      <trkpt lat="47.75797" lon="1.67549">
        <ele>88.1</ele>
        <time>2020-07-02T19:08:52Z</time>
      </trkpt>
      <trkpt lat="47.75792" lon="1.67544">
        <ele>88.1</ele>
        <time>2020-07-02T19:08:53Z</time>
      </trkpt>
      <trkpt lat="47.75787" lon="1.6754">
        <ele>88.2</ele>
        <time>2020-07-02T19:08:54Z</time>
      </trkpt>
      <trkpt lat="47.75782" lon="1.67535">
        <ele>88.2</ele>
        <time>2020-07-02T19:08:55Z</time>
      </trkpt>
      <trkpt lat="47.75777" lon="1.67531">
        <ele>88.2</ele>
        <time>2020-07-02T19:08:56Z</time>
      </trkpt>
      <trkpt lat="47.75774" lon="1.67528">
        <ele>88.2</ele>
        <time>2020-07-02T19:08:57Z</time>
      </trkpt>
      <trkpt lat="47.75768" lon="1.67524">
        <ele>88.4</ele>
        <time>2020-07-02T19:08:58Z</time>
      </trkpt>
      <trkpt lat="47.75764" lon="1.6752">
        <ele>88.5</ele>
        <time>2020-07-02T19:08:59Z</time>
      </trkpt>
      <trkpt lat="47.75758" lon="1.67516">
        <ele>88.7</ele>
        <time>2020-07-02T19:09:00Z</time>
      </trkpt>
      <trkpt lat="47.75753" lon="1.67511">
        <ele>88.9</ele>
        <time>2020-07-02T19:09:01Z</time>
      </trkpt>
      <trkpt lat="47.7575" lon="1.67509">
        <ele>88.9</ele>
        <time>2020-07-02T19:09:02Z</time>
      </trkpt>
      <trkpt lat="47.75744" lon="1.67504">
        <ele>88.9</ele>
        <time>2020-07-02T19:09:03Z</time>
      </trkpt>
      <trkpt lat="47.7574" lon="1.67501">
        <ele>89</ele>
        <time>2020-07-02T19:09:04Z</time>
      </trkpt>
      <trkpt lat="47.75736" lon="1.67498">
        <ele>89</ele>
        <time>2020-07-02T19:09:05Z</time>
      </trkpt>
      <trkpt lat="47.75733" lon="1.67495">
        <ele>89</ele>
        <time>2020-07-02T19:09:06Z</time>
      </trkpt>
      <trkpt lat="47.75728" lon="1.67491">
        <ele>89</ele>
        <time>2020-07-02T19:09:07Z</time>
      </trkpt>
      <trkpt lat="47.75722" lon="1.67485">
        <ele>89.1</ele>
        <time>2020-07-02T19:09:08Z</time>
      </trkpt>
      <trkpt lat="47.75718" lon="1.67481">
        <ele>89.2</ele>
        <time>2020-07-02T19:09:09Z</time>
      </trkpt>
      <trkpt lat="47.75712" lon="1.67477">
        <ele>89.3</ele>
        <time>2020-07-02T19:09:10Z</time>
      </trkpt>
      <trkpt lat="47.75707" lon="1.67473">
        <ele>89.3</ele>
        <time>2020-07-02T19:09:11Z</time>
      </trkpt>
      <trkpt lat="47.75702" lon="1.67471">
        <ele>89.3</ele>
        <time>2020-07-02T19:09:12Z</time>
      </trkpt>
      <trkpt lat="47.75697" lon="1.67465">
        <ele>89.3</ele>
        <time>2020-07-02T19:09:13Z</time>
      </trkpt>
      <trkpt lat="47.75693" lon="1.67462">
        <ele>89.3</ele>
        <time>2020-07-02T19:09:14Z</time>
      </trkpt>
      <trkpt lat="47.75688" lon="1.67458">
        <ele>89.3</ele>
        <time>2020-07-02T19:09:15Z</time>
      </trkpt>
      <trkpt lat="47.75683" lon="1.67453">
        <ele>89.3</ele>
        <time>2020-07-02T19:09:16Z</time>
      </trkpt>
      <trkpt lat="47.75679" lon="1.6745">
        <ele>89.4</ele>
        <time>2020-07-02T19:09:17Z</time>
      </trkpt>
      <trkpt lat="47.75675" lon="1.67445">
        <ele>89.4</ele>
        <time>2020-07-02T19:09:18Z</time>
      </trkpt>
      <trkpt lat="47.75671" lon="1.6744">
        <ele>89.4</ele>
        <time>2020-07-02T19:09:19Z</time>
      </trkpt>
      <trkpt lat="47.75666" lon="1.67435">
        <ele>89.5</ele>
        <time>2020-07-02T19:09:20Z</time>
      </trkpt>
      <trkpt lat="47.75662" lon="1.6743">
        <ele>89.5</ele>
        <time>2020-07-02T19:09:21Z</time>
      </trkpt>
      <trkpt lat="47.75657" lon="1.67427">
        <ele>89.6</ele>
        <time>2020-07-02T19:09:22Z</time>
      </trkpt>
      <trkpt lat="47.75653" lon="1.67423">
        <ele>89.7</ele>
        <time>2020-07-02T19:09:23Z</time>
      </trkpt>
      <trkpt lat="47.75648" lon="1.67419">
        <ele>89.8</ele>
        <time>2020-07-02T19:09:24Z</time>
      </trkpt>
      <trkpt lat="47.75644" lon="1.67414">
        <ele>89.9</ele>
        <time>2020-07-02T19:09:25Z</time>
      </trkpt>
      <trkpt lat="47.7564" lon="1.6741">
        <ele>90</ele>
        <time>2020-07-02T19:09:26Z</time>
      </trkpt>
      <trkpt lat="47.75636" lon="1.67406">
        <ele>90.1</ele>
        <time>2020-07-02T19:09:27Z</time>
      </trkpt>
      <trkpt lat="47.75631" lon="1.674">
        <ele>90.2</ele>
        <time>2020-07-02T19:09:28Z</time>
      </trkpt>
      <trkpt lat="47.75627" lon="1.67396">
        <ele>90.3</ele>
        <time>2020-07-02T19:09:29Z</time>
      </trkpt>
      <trkpt lat="47.75622" lon="1.67392">
        <ele>90.4</ele>
        <time>2020-07-02T19:09:30Z</time>
      </trkpt>
      <trkpt lat="47.75618" lon="1.67388">
        <ele>90.5</ele>
        <time>2020-07-02T19:09:31Z</time>
      </trkpt>
      <trkpt lat="47.75613" lon="1.67384">
        <ele>90.7</ele>
        <time>2020-07-02T19:09:32Z</time>
      </trkpt>
      <trkpt lat="47.75609" lon="1.67379">
        <ele>90.8</ele>
        <time>2020-07-02T19:09:33Z</time>
      </trkpt>
      <trkpt lat="47.75605" lon="1.67374">
        <ele>90.9</ele>
        <time>2020-07-02T19:09:34Z</time>
      </trkpt>
      <trkpt lat="47.756" lon="1.6737">
        <ele>91</ele>
        <time>2020-07-02T19:09:35Z</time>
      </trkpt>
      <trkpt lat="47.75596" lon="1.67366">
        <ele>91</ele>
        <time>2020-07-02T19:09:36Z</time>
      </trkpt>
      <trkpt lat="47.75592" lon="1.67361">
        <ele>91</ele>
        <time>2020-07-02T19:09:37Z</time>
      </trkpt>
      <trkpt lat="47.75588" lon="1.67357">
        <ele>91.1</ele>
        <time>2020-07-02T19:09:38Z</time>
      </trkpt>
      <trkpt lat="47.75583" lon="1.67354">
        <ele>91.1</ele>
        <time>2020-07-02T19:09:39Z</time>
      </trkpt>
      <trkpt lat="47.75579" lon="1.67351">
        <ele>91.2</ele>
        <time>2020-07-02T19:09:40Z</time>
      </trkpt>
      <trkpt lat="47.75574" lon="1.67347">
        <ele>91.2</ele>
        <time>2020-07-02T19:09:41Z</time>
      </trkpt>
      <trkpt lat="47.75569" lon="1.67343">
        <ele>91.4</ele>
        <time>2020-07-02T19:09:42Z</time>
      </trkpt>
      <trkpt lat="47.75565" lon="1.67337">
        <ele>91.5</ele>
        <time>2020-07-02T19:09:43Z</time>
      </trkpt>
      <trkpt lat="47.7556" lon="1.67334">
        <ele>91.6</ele>
        <time>2020-07-02T19:09:44Z</time>
      </trkpt>
      <trkpt lat="47.75555" lon="1.6733">
        <ele>91.8</ele>
        <time>2020-07-02T19:09:45Z</time>
      </trkpt>
      <trkpt lat="47.75551" lon="1.67324">
        <ele>92</ele>
        <time>2020-07-02T19:09:46Z</time>
      </trkpt>
      <trkpt lat="47.75546" lon="1.67321">
        <ele>92.1</ele>
        <time>2020-07-02T19:09:47Z</time>
      </trkpt>
      <trkpt lat="47.75542" lon="1.67316">
        <ele>92.2</ele>
        <time>2020-07-02T19:09:48Z</time>
      </trkpt>
      <trkpt lat="47.75536" lon="1.67312">
        <ele>92.2</ele>
        <time>2020-07-02T19:09:49Z</time>
      </trkpt>
      <trkpt lat="47.75532" lon="1.67308">
        <ele>92.2</ele>
        <time>2020-07-02T19:09:50Z</time>
      </trkpt>
      <trkpt lat="47.75528" lon="1.67303">
        <ele>92.2</ele>
        <time>2020-07-02T19:09:51Z</time>
      </trkpt>
      <trkpt lat="47.75523" lon="1.67298">
        <ele>92.3</ele>
        <time>2020-07-02T19:09:52Z</time>
      </trkpt>
      <trkpt lat="47.7552" lon="1.67293">
        <ele>92.3</ele>
        <time>2020-07-02T19:09:53Z</time>
      </trkpt>
      <trkpt lat="47.75515" lon="1.67288">
        <ele>92.3</ele>
        <time>2020-07-02T19:09:54Z</time>
      </trkpt>
      <trkpt lat="47.75511" lon="1.67284">
        <ele>92.3</ele>
        <time>2020-07-02T19:09:55Z</time>
      </trkpt>
      <trkpt lat="47.75507" lon="1.67279">
        <ele>92.4</ele>
        <time>2020-07-02T19:09:56Z</time>
      </trkpt>
      <trkpt lat="47.75503" lon="1.67273">
        <ele>92.4</ele>
        <time>2020-07-02T19:09:57Z</time>
      </trkpt>
      <trkpt lat="47.75499" lon="1.67268">
        <ele>92.4</ele>
        <time>2020-07-02T19:09:58Z</time>
      </trkpt>
      <trkpt lat="47.75496" lon="1.67262">
        <ele>92.4</ele>
        <time>2020-07-02T19:09:59Z</time>
      </trkpt>
      <trkpt lat="47.75492" lon="1.67257">
        <ele>92.4</ele>
        <time>2020-07-02T19:10:00Z</time>
      </trkpt>
      <trkpt lat="47.75488" lon="1.67251">
        <ele>92.4</ele>
        <time>2020-07-02T19:10:01Z</time>
      </trkpt>
      <trkpt lat="47.75485" lon="1.67246">
        <ele>92.4</ele>
        <time>2020-07-02T19:10:02Z</time>
      </trkpt>
      <trkpt lat="47.7548" lon="1.67242">
        <ele>92.4</ele>
        <time>2020-07-02T19:10:03Z</time>
      </trkpt>
      <trkpt lat="47.75475" lon="1.67238">
        <ele>92.4</ele>
        <time>2020-07-02T19:10:04Z</time>
      </trkpt>
      <trkpt lat="47.7547" lon="1.67233">
        <ele>92.3</ele>
        <time>2020-07-02T19:10:05Z</time>
      </trkpt>
      <trkpt lat="47.75466" lon="1.67228">
        <ele>92.3</ele>
        <time>2020-07-02T19:10:06Z</time>
      </trkpt>
      <trkpt lat="47.75462" lon="1.67222">
        <ele>92.3</ele>
        <time>2020-07-02T19:10:07Z</time>
      </trkpt>
      <trkpt lat="47.75457" lon="1.67216">
        <ele>92.4</ele>
        <time>2020-07-02T19:10:08Z</time>
      </trkpt>
      <trkpt lat="47.75453" lon="1.67209">
        <ele>92.4</ele>
        <time>2020-07-02T19:10:09Z</time>
      </trkpt>
      <trkpt lat="47.75449" lon="1.67202">
        <ele>92.5</ele>
        <time>2020-07-02T19:10:10Z</time>
      </trkpt>
      <trkpt lat="47.75445" lon="1.67197">
        <ele>92.5</ele>
        <time>2020-07-02T19:10:11Z</time>
      </trkpt>
      <trkpt lat="47.75441" lon="1.6719">
        <ele>92.5</ele>
        <time>2020-07-02T19:10:12Z</time>
      </trkpt>
      <trkpt lat="47.75437" lon="1.67184">
        <ele>92.5</ele>
        <time>2020-07-02T19:10:13Z</time>
      </trkpt>
      <trkpt lat="47.75433" lon="1.67178">
        <ele>92.5</ele>
        <time>2020-07-02T19:10:14Z</time>
      </trkpt>
      <trkpt lat="47.75429" lon="1.67174">
        <ele>92.5</ele>
        <time>2020-07-02T19:10:15Z</time>
      </trkpt>
      <trkpt lat="47.75424" lon="1.67167">
        <ele>92.5</ele>
        <time>2020-07-02T19:10:16Z</time>
      </trkpt>
      <trkpt lat="47.75419" lon="1.67161">
        <ele>92.5</ele>
        <time>2020-07-02T19:10:17Z</time>
      </trkpt>
      <trkpt lat="47.75414" lon="1.67154">
        <ele>92.5</ele>
        <time>2020-07-02T19:10:18Z</time>
      </trkpt>
      <trkpt lat="47.7541" lon="1.67149">
        <ele>92.5</ele>
        <time>2020-07-02T19:10:19Z</time>
      </trkpt>
      <trkpt lat="47.75405" lon="1.67143">
        <ele>92.6</ele>
        <time>2020-07-02T19:10:20Z</time>
      </trkpt>
      <trkpt lat="47.754" lon="1.67136">
        <ele>92.6</ele>
        <time>2020-07-02T19:10:21Z</time>
      </trkpt>
      <trkpt lat="47.75395" lon="1.6713">
        <ele>92.7</ele>
        <time>2020-07-02T19:10:22Z</time>
      </trkpt>
      <trkpt lat="47.75389" lon="1.67123">
        <ele>92.6</ele>
        <time>2020-07-02T19:10:23Z</time>
      </trkpt>
      <trkpt lat="47.75384" lon="1.67116">
        <ele>92.4</ele>
        <time>2020-07-02T19:10:24Z</time>
      </trkpt>
      <trkpt lat="47.75379" lon="1.67111">
        <ele>92.3</ele>
        <time>2020-07-02T19:10:25Z</time>
      </trkpt>
      <trkpt lat="47.75374" lon="1.67105">
        <ele>92.2</ele>
        <time>2020-07-02T19:10:26Z</time>
      </trkpt>
      <trkpt lat="47.75369" lon="1.67099">
        <ele>92.2</ele>
        <time>2020-07-02T19:10:27Z</time>
      </trkpt>
      <trkpt lat="47.75363" lon="1.67093">
        <ele>92.2</ele>
        <time>2020-07-02T19:10:28Z</time>
      </trkpt>
      <trkpt lat="47.75359" lon="1.67087">
        <ele>92.2</ele>
        <time>2020-07-02T19:10:29Z</time>
      </trkpt>
      <trkpt lat="47.75354" lon="1.67081">
        <ele>92.2</ele>
        <time>2020-07-02T19:10:30Z</time>
      </trkpt>
      <trkpt lat="47.75349" lon="1.67074">
        <ele>92.3</ele>
        <time>2020-07-02T19:10:31Z</time>
      </trkpt>
      <trkpt lat="47.75344" lon="1.67068">
        <ele>92.3</ele>
        <time>2020-07-02T19:10:32Z</time>
      </trkpt>
      <trkpt lat="47.75339" lon="1.67062">
        <ele>92.3</ele>
        <time>2020-07-02T19:10:33Z</time>
      </trkpt>
      <trkpt lat="47.75334" lon="1.67055">
        <ele>92.3</ele>
        <time>2020-07-02T19:10:34Z</time>
      </trkpt>
      <trkpt lat="47.75329" lon="1.67048">
        <ele>92.3</ele>
        <time>2020-07-02T19:10:35Z</time>
      </trkpt>
      <trkpt lat="47.75324" lon="1.67042">
        <ele>92.2</ele>
        <time>2020-07-02T19:10:36Z</time>
      </trkpt>
      <trkpt lat="47.75318" lon="1.67035">
        <ele>92.1</ele>
        <time>2020-07-02T19:10:37Z</time>
      </trkpt>
      <trkpt lat="47.75314" lon="1.67028">
        <ele>92.1</ele>
        <time>2020-07-02T19:10:38Z</time>
      </trkpt>
      <trkpt lat="47.75308" lon="1.67022">
        <ele>92</ele>
        <time>2020-07-02T19:10:39Z</time>
      </trkpt>
      <trkpt lat="47.75303" lon="1.67015">
        <ele>91.9</ele>
        <time>2020-07-02T19:10:40Z</time>
      </trkpt>
      <trkpt lat="47.75298" lon="1.67009">
        <ele>91.9</ele>
        <time>2020-07-02T19:10:41Z</time>
      </trkpt>
      <trkpt lat="47.75293" lon="1.67002">
        <ele>91.9</ele>
        <time>2020-07-02T19:10:42Z</time>
      </trkpt>
      <trkpt lat="47.75288" lon="1.66996">
        <ele>91.9</ele>
        <time>2020-07-02T19:10:43Z</time>
      </trkpt>
      <trkpt lat="47.75284" lon="1.66989">
        <ele>91.9</ele>
        <time>2020-07-02T19:10:44Z</time>
      </trkpt>
      <trkpt lat="47.75278" lon="1.66983">
        <ele>91.9</ele>
        <time>2020-07-02T19:10:45Z</time>
      </trkpt>
      <trkpt lat="47.75273" lon="1.66977">
        <ele>91.8</ele>
        <time>2020-07-02T19:10:46Z</time>
      </trkpt>
      <trkpt lat="47.75269" lon="1.6697">
        <ele>91.8</ele>
        <time>2020-07-02T19:10:47Z</time>
      </trkpt>
      <trkpt lat="47.75264" lon="1.66963">
        <ele>91.8</ele>
        <time>2020-07-02T19:10:48Z</time>
      </trkpt>
      <trkpt lat="47.75258" lon="1.66957">
        <ele>91.8</ele>
        <time>2020-07-02T19:10:49Z</time>
      </trkpt>
      <trkpt lat="47.75253" lon="1.66951">
        <ele>91.8</ele>
        <time>2020-07-02T19:10:50Z</time>
      </trkpt>
      <trkpt lat="47.75248" lon="1.66944">
        <ele>91.8</ele>
        <time>2020-07-02T19:10:51Z</time>
      </trkpt>
      <trkpt lat="47.75243" lon="1.66938">
        <ele>91.8</ele>
        <time>2020-07-02T19:10:52Z</time>
      </trkpt>
      <trkpt lat="47.75239" lon="1.66931">
        <ele>91.8</ele>
        <time>2020-07-02T19:10:53Z</time>
      </trkpt>
      <trkpt lat="47.75234" lon="1.66924">
        <ele>91.8</ele>
        <time>2020-07-02T19:10:54Z</time>
      </trkpt>
      <trkpt lat="47.75229" lon="1.66917">
        <ele>91.8</ele>
        <time>2020-07-02T19:10:55Z</time>
      </trkpt>
      <trkpt lat="47.75224" lon="1.66911">
        <ele>91.9</ele>
        <time>2020-07-02T19:10:56Z</time>
      </trkpt>
      <trkpt lat="47.75218" lon="1.66904">
        <ele>91.9</ele>
        <time>2020-07-02T19:10:57Z</time>
      </trkpt>
      <trkpt lat="47.75214" lon="1.66898">
        <ele>91.9</ele>
        <time>2020-07-02T19:10:58Z</time>
      </trkpt>
      <trkpt lat="47.75208" lon="1.66892">
        <ele>91.9</ele>
        <time>2020-07-02T19:10:59Z</time>
      </trkpt>
      <trkpt lat="47.75203" lon="1.66885">
        <ele>91.9</ele>
        <time>2020-07-02T19:11:00Z</time>
      </trkpt>
      <trkpt lat="47.75198" lon="1.66879">
        <ele>91.9</ele>
        <time>2020-07-02T19:11:01Z</time>
      </trkpt>
      <trkpt lat="47.75193" lon="1.66873">
        <ele>91.9</ele>
        <time>2020-07-02T19:11:02Z</time>
      </trkpt>
      <trkpt lat="47.75189" lon="1.66867">
        <ele>92</ele>
        <time>2020-07-02T19:11:03Z</time>
      </trkpt>
      <trkpt lat="47.75184" lon="1.66861">
        <ele>92</ele>
        <time>2020-07-02T19:11:04Z</time>
      </trkpt>
      <trkpt lat="47.75179" lon="1.66854">
        <ele>92.1</ele>
        <time>2020-07-02T19:11:05Z</time>
      </trkpt>
      <trkpt lat="47.75174" lon="1.66848">
        <ele>92.2</ele>
        <time>2020-07-02T19:11:06Z</time>
      </trkpt>
      <trkpt lat="47.75169" lon="1.66842">
        <ele>92.2</ele>
        <time>2020-07-02T19:11:07Z</time>
      </trkpt>
      <trkpt lat="47.75164" lon="1.66837">
        <ele>92.2</ele>
        <time>2020-07-02T19:11:08Z</time>
      </trkpt>
      <trkpt lat="47.75159" lon="1.6683">
        <ele>92.7</ele>
        <time>2020-07-02T19:11:09Z</time>
      </trkpt>
      <trkpt lat="47.75154" lon="1.66824">
        <ele>93</ele>
        <time>2020-07-02T19:11:10Z</time>
      </trkpt>
      <trkpt lat="47.75149" lon="1.66818">
        <ele>93.1</ele>
        <time>2020-07-02T19:11:11Z</time>
      </trkpt>
      <trkpt lat="47.75144" lon="1.6681">
        <ele>93.1</ele>
        <time>2020-07-02T19:11:12Z</time>
      </trkpt>
      <trkpt lat="47.75138" lon="1.66804">
        <ele>93.1</ele>
        <time>2020-07-02T19:11:13Z</time>
      </trkpt>
      <trkpt lat="47.75133" lon="1.66797">
        <ele>93</ele>
        <time>2020-07-02T19:11:14Z</time>
      </trkpt>
      <trkpt lat="47.75128" lon="1.6679">
        <ele>93</ele>
        <time>2020-07-02T19:11:15Z</time>
      </trkpt>
      <trkpt lat="47.75123" lon="1.66783">
        <ele>93</ele>
        <time>2020-07-02T19:11:16Z</time>
      </trkpt>
      <trkpt lat="47.75118" lon="1.66777">
        <ele>93.1</ele>
        <time>2020-07-02T19:11:17Z</time>
      </trkpt>
      <trkpt lat="47.75112" lon="1.6677">
        <ele>93.1</ele>
        <time>2020-07-02T19:11:18Z</time>
      </trkpt>
      <trkpt lat="47.75107" lon="1.66763">
        <ele>93.1</ele>
        <time>2020-07-02T19:11:19Z</time>
      </trkpt>
      <trkpt lat="47.75102" lon="1.66757">
        <ele>93.1</ele>
        <time>2020-07-02T19:11:20Z</time>
      </trkpt>
      <trkpt lat="47.75096" lon="1.66751">
        <ele>93.1</ele>
        <time>2020-07-02T19:11:21Z</time>
      </trkpt>
      <trkpt lat="47.75091" lon="1.66744">
        <ele>93</ele>
        <time>2020-07-02T19:11:22Z</time>
      </trkpt>
      <trkpt lat="47.75086" lon="1.66738">
        <ele>92.9</ele>
        <time>2020-07-02T19:11:23Z</time>
      </trkpt>
      <trkpt lat="47.75081" lon="1.66731">
        <ele>92.8</ele>
        <time>2020-07-02T19:11:24Z</time>
      </trkpt>
      <trkpt lat="47.75076" lon="1.66724">
        <ele>92.7</ele>
        <time>2020-07-02T19:11:25Z</time>
      </trkpt>
      <trkpt lat="47.75071" lon="1.66718">
        <ele>92.6</ele>
        <time>2020-07-02T19:11:26Z</time>
      </trkpt>
      <trkpt lat="47.75065" lon="1.66712">
        <ele>92.6</ele>
        <time>2020-07-02T19:11:27Z</time>
      </trkpt>
      <trkpt lat="47.7506" lon="1.66705">
        <ele>92.6</ele>
        <time>2020-07-02T19:11:28Z</time>
      </trkpt>
      <trkpt lat="47.75055" lon="1.66698">
        <ele>92.5</ele>
        <time>2020-07-02T19:11:29Z</time>
      </trkpt>
      <trkpt lat="47.75049" lon="1.66691">
        <ele>92.8</ele>
        <time>2020-07-02T19:11:30Z</time>
      </trkpt>
      <trkpt lat="47.75044" lon="1.66684">
        <ele>93.4</ele>
        <time>2020-07-02T19:11:31Z</time>
      </trkpt>
      <trkpt lat="47.75039" lon="1.66676">
        <ele>93.7</ele>
        <time>2020-07-02T19:11:32Z</time>
      </trkpt>
      <trkpt lat="47.75034" lon="1.66669">
        <ele>93.8</ele>
        <time>2020-07-02T19:11:33Z</time>
      </trkpt>
      <trkpt lat="47.75028" lon="1.66662">
        <ele>93.8</ele>
        <time>2020-07-02T19:11:34Z</time>
      </trkpt>
      <trkpt lat="47.75023" lon="1.66655">
        <ele>93.9</ele>
        <time>2020-07-02T19:11:35Z</time>
      </trkpt>
      <trkpt lat="47.75017" lon="1.66648">
        <ele>94</ele>
        <time>2020-07-02T19:11:36Z</time>
      </trkpt>
      <trkpt lat="47.75012" lon="1.66641">
        <ele>94</ele>
        <time>2020-07-02T19:11:37Z</time>
      </trkpt>
      <trkpt lat="47.75006" lon="1.66634">
        <ele>94</ele>
        <time>2020-07-02T19:11:38Z</time>
      </trkpt>
      <trkpt lat="47.75001" lon="1.66628">
        <ele>93.9</ele>
        <time>2020-07-02T19:11:39Z</time>
      </trkpt>
      <trkpt lat="47.74995" lon="1.66621">
        <ele>93.8</ele>
        <time>2020-07-02T19:11:40Z</time>
      </trkpt>
      <trkpt lat="47.7499" lon="1.66613">
        <ele>93.7</ele>
        <time>2020-07-02T19:11:41Z</time>
      </trkpt>
      <trkpt lat="47.74985" lon="1.66606">
        <ele>93.5</ele>
        <time>2020-07-02T19:11:42Z</time>
      </trkpt>
      <trkpt lat="47.74979" lon="1.66599">
        <ele>92.9</ele>
        <time>2020-07-02T19:11:43Z</time>
      </trkpt>
      <trkpt lat="47.74974" lon="1.66592">
        <ele>92</ele>
        <time>2020-07-02T19:11:44Z</time>
      </trkpt>
      <trkpt lat="47.74968" lon="1.66585">
        <ele>91.1</ele>
        <time>2020-07-02T19:11:45Z</time>
      </trkpt>
      <trkpt lat="47.74963" lon="1.66577">
        <ele>90.8</ele>
        <time>2020-07-02T19:11:46Z</time>
      </trkpt>
      <trkpt lat="47.74958" lon="1.6657">
        <ele>90.5</ele>
        <time>2020-07-02T19:11:47Z</time>
      </trkpt>
      <trkpt lat="47.74952" lon="1.66563">
        <ele>90.4</ele>
        <time>2020-07-02T19:11:48Z</time>
      </trkpt>
      <trkpt lat="47.74947" lon="1.66556">
        <ele>90.4</ele>
        <time>2020-07-02T19:11:49Z</time>
      </trkpt>
      <trkpt lat="47.74942" lon="1.66549">
        <ele>90.4</ele>
        <time>2020-07-02T19:11:50Z</time>
      </trkpt>
      <trkpt lat="47.74937" lon="1.66542">
        <ele>90.3</ele>
        <time>2020-07-02T19:11:51Z</time>
      </trkpt>
      <trkpt lat="47.74931" lon="1.66536">
        <ele>90.3</ele>
        <time>2020-07-02T19:11:52Z</time>
      </trkpt>
      <trkpt lat="47.74926" lon="1.66529">
        <ele>90.3</ele>
        <time>2020-07-02T19:11:53Z</time>
      </trkpt>
      <trkpt lat="47.7492" lon="1.66523">
        <ele>90.3</ele>
        <time>2020-07-02T19:11:54Z</time>
      </trkpt>
      <trkpt lat="47.74915" lon="1.66517">
        <ele>90.4</ele>
        <time>2020-07-02T19:11:55Z</time>
      </trkpt>
      <trkpt lat="47.74909" lon="1.66511">
        <ele>90.5</ele>
        <time>2020-07-02T19:11:56Z</time>
      </trkpt>
      <trkpt lat="47.74904" lon="1.66504">
        <ele>90.5</ele>
        <time>2020-07-02T19:11:57Z</time>
      </trkpt>
      <trkpt lat="47.74899" lon="1.66497">
        <ele>90.6</ele>
        <time>2020-07-02T19:11:58Z</time>
      </trkpt>
      <trkpt lat="47.74894" lon="1.66489">
        <ele>90.6</ele>
        <time>2020-07-02T19:11:59Z</time>
      </trkpt>
      <trkpt lat="47.74888" lon="1.66482">
        <ele>90.6</ele>
        <time>2020-07-02T19:12:00Z</time>
      </trkpt>
      <trkpt lat="47.74883" lon="1.66476">
        <ele>90.6</ele>
        <time>2020-07-02T19:12:01Z</time>
      </trkpt>
      <trkpt lat="47.74878" lon="1.66469">
        <ele>90.6</ele>
        <time>2020-07-02T19:12:02Z</time>
      </trkpt>
      <trkpt lat="47.74873" lon="1.66462">
        <ele>90.6</ele>
        <time>2020-07-02T19:12:03Z</time>
      </trkpt>
      <trkpt lat="47.74867" lon="1.66455">
        <ele>90.6</ele>
        <time>2020-07-02T19:12:04Z</time>
      </trkpt>
      <trkpt lat="47.74862" lon="1.66448">
        <ele>90.6</ele>
        <time>2020-07-02T19:12:05Z</time>
      </trkpt>
      <trkpt lat="47.74857" lon="1.66442">
        <ele>90.7</ele>
        <time>2020-07-02T19:12:06Z</time>
      </trkpt>
      <trkpt lat="47.74852" lon="1.66435">
        <ele>90.7</ele>
        <time>2020-07-02T19:12:07Z</time>
      </trkpt>
      <trkpt lat="47.74847" lon="1.66428">
        <ele>90.7</ele>
        <time>2020-07-02T19:12:08Z</time>
      </trkpt>
      <trkpt lat="47.74841" lon="1.66423">
        <ele>90.8</ele>
        <time>2020-07-02T19:12:09Z</time>
      </trkpt>
      <trkpt lat="47.74836" lon="1.66417">
        <ele>90.9</ele>
        <time>2020-07-02T19:12:10Z</time>
      </trkpt>
      <trkpt lat="47.74831" lon="1.66411">
        <ele>90.9</ele>
        <time>2020-07-02T19:12:11Z</time>
      </trkpt>
      <trkpt lat="47.74826" lon="1.66404">
        <ele>91</ele>
        <time>2020-07-02T19:12:12Z</time>
      </trkpt>
      <trkpt lat="47.74821" lon="1.66398">
        <ele>94.1</ele>
        <time>2020-07-02T19:12:13Z</time>
      </trkpt>
      <trkpt lat="47.74815" lon="1.66392">
        <ele>95</ele>
        <time>2020-07-02T19:12:14Z</time>
      </trkpt>
      <trkpt lat="47.74811" lon="1.66385">
        <ele>95.1</ele>
        <time>2020-07-02T19:12:15Z</time>
      </trkpt>
      <trkpt lat="47.74805" lon="1.66379">
        <ele>94.8</ele>
        <time>2020-07-02T19:12:16Z</time>
      </trkpt>
      <trkpt lat="47.74801" lon="1.66372">
        <ele>94.4</ele>
        <time>2020-07-02T19:12:17Z</time>
      </trkpt>
      <trkpt lat="47.74795" lon="1.66367">
        <ele>94</ele>
        <time>2020-07-02T19:12:18Z</time>
      </trkpt>
      <trkpt lat="47.7479" lon="1.6636">
        <ele>93.7</ele>
        <time>2020-07-02T19:12:19Z</time>
      </trkpt>
      <trkpt lat="47.74785" lon="1.66354">
        <ele>93.3</ele>
        <time>2020-07-02T19:12:20Z</time>
      </trkpt>
      <trkpt lat="47.7478" lon="1.66347">
        <ele>93</ele>
        <time>2020-07-02T19:12:21Z</time>
      </trkpt>
      <trkpt lat="47.74775" lon="1.6634">
        <ele>92.6</ele>
        <time>2020-07-02T19:12:22Z</time>
      </trkpt>
      <trkpt lat="47.7477" lon="1.66334">
        <ele>92.2</ele>
        <time>2020-07-02T19:12:23Z</time>
      </trkpt>
      <trkpt lat="47.74766" lon="1.66327">
        <ele>91.8</ele>
        <time>2020-07-02T19:12:24Z</time>
      </trkpt>
      <trkpt lat="47.74761" lon="1.66321">
        <ele>91.4</ele>
        <time>2020-07-02T19:12:25Z</time>
      </trkpt>
      <trkpt lat="47.74756" lon="1.66314">
        <ele>90.8</ele>
        <time>2020-07-02T19:12:26Z</time>
      </trkpt>
      <trkpt lat="47.74752" lon="1.66308">
        <ele>91.8</ele>
        <time>2020-07-02T19:12:27Z</time>
      </trkpt>
      <trkpt lat="47.74747" lon="1.66301">
        <ele>92.4</ele>
        <time>2020-07-02T19:12:28Z</time>
      </trkpt>
      <trkpt lat="47.74743" lon="1.66295">
        <ele>92.6</ele>
        <time>2020-07-02T19:12:29Z</time>
      </trkpt>
      <trkpt lat="47.74738" lon="1.66288">
        <ele>92.6</ele>
        <time>2020-07-02T19:12:30Z</time>
      </trkpt>
      <trkpt lat="47.74733" lon="1.66282">
        <ele>92.7</ele>
        <time>2020-07-02T19:12:31Z</time>
      </trkpt>
      <trkpt lat="47.74728" lon="1.66276">
        <ele>92.7</ele>
        <time>2020-07-02T19:12:32Z</time>
      </trkpt>
      <trkpt lat="47.74724" lon="1.66269">
        <ele>92.7</ele>
        <time>2020-07-02T19:12:33Z</time>
      </trkpt>
      <trkpt lat="47.74718" lon="1.66263">
        <ele>92.6</ele>
        <time>2020-07-02T19:12:34Z</time>
      </trkpt>
      <trkpt lat="47.74713" lon="1.66256">
        <ele>92.6</ele>
        <time>2020-07-02T19:12:35Z</time>
      </trkpt>
      <trkpt lat="47.74709" lon="1.66249">
        <ele>92.6</ele>
        <time>2020-07-02T19:12:36Z</time>
      </trkpt>
      <trkpt lat="47.74704" lon="1.66243">
        <ele>92.5</ele>
        <time>2020-07-02T19:12:37Z</time>
      </trkpt>
      <trkpt lat="47.74698" lon="1.66237">
        <ele>92.5</ele>
        <time>2020-07-02T19:12:38Z</time>
      </trkpt>
      <trkpt lat="47.74693" lon="1.6623">
        <ele>92.6</ele>
        <time>2020-07-02T19:12:39Z</time>
      </trkpt>
      <trkpt lat="47.74689" lon="1.66223">
        <ele>92.5</ele>
        <time>2020-07-02T19:12:40Z</time>
      </trkpt>
      <trkpt lat="47.74684" lon="1.66216">
        <ele>92.5</ele>
        <time>2020-07-02T19:12:41Z</time>
      </trkpt>
      <trkpt lat="47.74679" lon="1.66209">
        <ele>92.5</ele>
        <time>2020-07-02T19:12:42Z</time>
      </trkpt>
      <trkpt lat="47.74675" lon="1.66203">
        <ele>92.4</ele>
        <time>2020-07-02T19:12:43Z</time>
      </trkpt>
      <trkpt lat="47.74669" lon="1.66197">
        <ele>92.5</ele>
        <time>2020-07-02T19:12:44Z</time>
      </trkpt>
      <trkpt lat="47.74665" lon="1.66191">
        <ele>92.5</ele>
        <time>2020-07-02T19:12:45Z</time>
      </trkpt>
      <trkpt lat="47.7466" lon="1.66185">
        <ele>92.5</ele>
        <time>2020-07-02T19:12:46Z</time>
      </trkpt>
      <trkpt lat="47.74655" lon="1.66177">
        <ele>92.6</ele>
        <time>2020-07-02T19:12:47Z</time>
      </trkpt>
      <trkpt lat="47.7465" lon="1.66169">
        <ele>92.5</ele>
        <time>2020-07-02T19:12:48Z</time>
      </trkpt>
      <trkpt lat="47.74645" lon="1.66162">
        <ele>92.6</ele>
        <time>2020-07-02T19:12:49Z</time>
      </trkpt>
      <trkpt lat="47.74641" lon="1.66155">
        <ele>92.7</ele>
        <time>2020-07-02T19:12:50Z</time>
      </trkpt>
      <trkpt lat="47.74636" lon="1.6615">
        <ele>92.7</ele>
        <time>2020-07-02T19:12:51Z</time>
      </trkpt>
      <trkpt lat="47.74631" lon="1.66143">
        <ele>92.7</ele>
        <time>2020-07-02T19:12:52Z</time>
      </trkpt>
      <trkpt lat="47.74626" lon="1.66137">
        <ele>92.6</ele>
        <time>2020-07-02T19:12:53Z</time>
      </trkpt>
      <trkpt lat="47.74621" lon="1.66131">
        <ele>92.6</ele>
        <time>2020-07-02T19:12:54Z</time>
      </trkpt>
      <trkpt lat="47.74617" lon="1.66124">
        <ele>92.6</ele>
        <time>2020-07-02T19:12:55Z</time>
      </trkpt>
      <trkpt lat="47.74612" lon="1.66118">
        <ele>92.6</ele>
        <time>2020-07-02T19:12:56Z</time>
      </trkpt>
      <trkpt lat="47.74607" lon="1.66113">
        <ele>92.5</ele>
        <time>2020-07-02T19:12:57Z</time>
      </trkpt>
      <trkpt lat="47.74601" lon="1.66107">
        <ele>92.5</ele>
        <time>2020-07-02T19:12:58Z</time>
      </trkpt>
      <trkpt lat="47.74596" lon="1.66103">
        <ele>92.5</ele>
        <time>2020-07-02T19:12:59Z</time>
      </trkpt>
      <trkpt lat="47.74591" lon="1.66098">
        <ele>92.5</ele>
        <time>2020-07-02T19:13:00Z</time>
      </trkpt>
      <trkpt lat="47.74585" lon="1.66092">
        <ele>92.3</ele>
        <time>2020-07-02T19:13:01Z</time>
      </trkpt>
      <trkpt lat="47.74579" lon="1.66085">
        <ele>92.2</ele>
        <time>2020-07-02T19:13:02Z</time>
      </trkpt>
      <trkpt lat="47.74573" lon="1.66079">
        <ele>92.1</ele>
        <time>2020-07-02T19:13:03Z</time>
      </trkpt>
      <trkpt lat="47.74568" lon="1.66072">
        <ele>92.1</ele>
        <time>2020-07-02T19:13:04Z</time>
      </trkpt>
      <trkpt lat="47.74562" lon="1.66066">
        <ele>92.1</ele>
        <time>2020-07-02T19:13:05Z</time>
      </trkpt>
      <trkpt lat="47.74557" lon="1.66059">
        <ele>92.1</ele>
        <time>2020-07-02T19:13:06Z</time>
      </trkpt>
      <trkpt lat="47.74552" lon="1.66053">
        <ele>92.3</ele>
        <time>2020-07-02T19:13:07Z</time>
      </trkpt>
      <trkpt lat="47.74547" lon="1.66046">
        <ele>92.4</ele>
        <time>2020-07-02T19:13:08Z</time>
      </trkpt>
      <trkpt lat="47.74542" lon="1.6604">
        <ele>92.4</ele>
        <time>2020-07-02T19:13:09Z</time>
      </trkpt>
      <trkpt lat="47.74537" lon="1.66033">
        <ele>92.4</ele>
        <time>2020-07-02T19:13:10Z</time>
      </trkpt>
      <trkpt lat="47.74532" lon="1.66027">
        <ele>92.4</ele>
        <time>2020-07-02T19:13:11Z</time>
      </trkpt>
      <trkpt lat="47.74528" lon="1.6602">
        <ele>92.3</ele>
        <time>2020-07-02T19:13:12Z</time>
      </trkpt>
      <trkpt lat="47.74523" lon="1.66013">
        <ele>92.3</ele>
        <time>2020-07-02T19:13:13Z</time>
      </trkpt>
      <trkpt lat="47.74517" lon="1.66007">
        <ele>92.3</ele>
        <time>2020-07-02T19:13:14Z</time>
      </trkpt>
      <trkpt lat="47.74512" lon="1.66001">
        <ele>92.4</ele>
        <time>2020-07-02T19:13:15Z</time>
      </trkpt>
      <trkpt lat="47.74507" lon="1.65994">
        <ele>92.4</ele>
        <time>2020-07-02T19:13:16Z</time>
      </trkpt>
      <trkpt lat="47.74502" lon="1.65988">
        <ele>92.4</ele>
        <time>2020-07-02T19:13:17Z</time>
      </trkpt>
      <trkpt lat="47.74497" lon="1.65981">
        <ele>92.4</ele>
        <time>2020-07-02T19:13:18Z</time>
      </trkpt>
      <trkpt lat="47.74492" lon="1.65975">
        <ele>92.4</ele>
        <time>2020-07-02T19:13:19Z</time>
      </trkpt>
      <trkpt lat="47.74487" lon="1.65969">
        <ele>92.4</ele>
        <time>2020-07-02T19:13:20Z</time>
      </trkpt>
      <trkpt lat="47.74482" lon="1.65963">
        <ele>92.4</ele>
        <time>2020-07-02T19:13:21Z</time>
      </trkpt>
      <trkpt lat="47.74477" lon="1.65957">
        <ele>92.4</ele>
        <time>2020-07-02T19:13:22Z</time>
      </trkpt>
      <trkpt lat="47.74472" lon="1.65951">
        <ele>92.4</ele>
        <time>2020-07-02T19:13:23Z</time>
      </trkpt>
      <trkpt lat="47.74468" lon="1.65945">
        <ele>92.4</ele>
        <time>2020-07-02T19:13:24Z</time>
      </trkpt>
      <trkpt lat="47.74463" lon="1.65939">
        <ele>92.5</ele>
        <time>2020-07-02T19:13:25Z</time>
      </trkpt>
      <trkpt lat="47.74458" lon="1.65933">
        <ele>92.5</ele>
        <time>2020-07-02T19:13:26Z</time>
      </trkpt>
      <trkpt lat="47.74453" lon="1.65927">
        <ele>92.5</ele>
        <time>2020-07-02T19:13:27Z</time>
      </trkpt>
      <trkpt lat="47.74449" lon="1.65921">
        <ele>92.5</ele>
        <time>2020-07-02T19:13:28Z</time>
      </trkpt>
      <trkpt lat="47.74444" lon="1.65915">
        <ele>92.5</ele>
        <time>2020-07-02T19:13:29Z</time>
      </trkpt>
      <trkpt lat="47.74439" lon="1.6591">
        <ele>92.5</ele>
        <time>2020-07-02T19:13:30Z</time>
      </trkpt>
      <trkpt lat="47.74434" lon="1.65904">
        <ele>92.5</ele>
        <time>2020-07-02T19:13:31Z</time>
      </trkpt>
      <trkpt lat="47.7443" lon="1.65897">
        <ele>92.5</ele>
        <time>2020-07-02T19:13:32Z</time>
      </trkpt>
      <trkpt lat="47.74426" lon="1.65892">
        <ele>92.4</ele>
        <time>2020-07-02T19:13:33Z</time>
      </trkpt>
      <trkpt lat="47.74422" lon="1.65887">
        <ele>92.4</ele>
        <time>2020-07-02T19:13:34Z</time>
      </trkpt>
      <trkpt lat="47.74417" lon="1.6588">
        <ele>92.4</ele>
        <time>2020-07-02T19:13:35Z</time>
      </trkpt>
      <trkpt lat="47.74413" lon="1.65874">
        <ele>92.4</ele>
        <time>2020-07-02T19:13:36Z</time>
      </trkpt>
      <trkpt lat="47.74408" lon="1.65867">
        <ele>92.4</ele>
        <time>2020-07-02T19:13:37Z</time>
      </trkpt>
      <trkpt lat="47.74403" lon="1.65861">
        <ele>92.4</ele>
        <time>2020-07-02T19:13:38Z</time>
      </trkpt>
      <trkpt lat="47.74399" lon="1.65856">
        <ele>92.3</ele>
        <time>2020-07-02T19:13:39Z</time>
      </trkpt>
      <trkpt lat="47.74394" lon="1.65851">
        <ele>92.3</ele>
        <time>2020-07-02T19:13:40Z</time>
      </trkpt>
      <trkpt lat="47.7439" lon="1.65845">
        <ele>92.3</ele>
        <time>2020-07-02T19:13:41Z</time>
      </trkpt>
      <trkpt lat="47.74385" lon="1.65839">
        <ele>92.3</ele>
        <time>2020-07-02T19:13:42Z</time>
      </trkpt>
      <trkpt lat="47.7438" lon="1.65833">
        <ele>92.3</ele>
        <time>2020-07-02T19:13:43Z</time>
      </trkpt>
      <trkpt lat="47.74375" lon="1.65826">
        <ele>92.2</ele>
        <time>2020-07-02T19:13:44Z</time>
      </trkpt>
      <trkpt lat="47.7437" lon="1.6582">
        <ele>92.2</ele>
        <time>2020-07-02T19:13:45Z</time>
      </trkpt>
      <trkpt lat="47.74366" lon="1.65814">
        <ele>92.2</ele>
        <time>2020-07-02T19:13:46Z</time>
      </trkpt>
      <trkpt lat="47.74361" lon="1.65808">
        <ele>92.2</ele>
        <time>2020-07-02T19:13:47Z</time>
      </trkpt>
      <trkpt lat="47.74357" lon="1.65801">
        <ele>92.2</ele>
        <time>2020-07-02T19:13:48Z</time>
      </trkpt>
      <trkpt lat="47.74352" lon="1.65795">
        <ele>92.2</ele>
        <time>2020-07-02T19:13:49Z</time>
      </trkpt>
      <trkpt lat="47.74347" lon="1.65789">
        <ele>92.2</ele>
        <time>2020-07-02T19:13:50Z</time>
      </trkpt>
      <trkpt lat="47.74343" lon="1.65782">
        <ele>92.2</ele>
        <time>2020-07-02T19:13:51Z</time>
      </trkpt>
      <trkpt lat="47.74338" lon="1.65776">
        <ele>92.1</ele>
        <time>2020-07-02T19:13:52Z</time>
      </trkpt>
      <trkpt lat="47.74333" lon="1.6577">
        <ele>92.1</ele>
        <time>2020-07-02T19:13:53Z</time>
      </trkpt>
      <trkpt lat="47.74328" lon="1.65763">
        <ele>92</ele>
        <time>2020-07-02T19:13:54Z</time>
      </trkpt>
      <trkpt lat="47.74324" lon="1.65757">
        <ele>91.9</ele>
        <time>2020-07-02T19:13:55Z</time>
      </trkpt>
      <trkpt lat="47.74319" lon="1.65751">
        <ele>91.9</ele>
        <time>2020-07-02T19:13:56Z</time>
      </trkpt>
      <trkpt lat="47.74314" lon="1.65745">
        <ele>91.8</ele>
        <time>2020-07-02T19:13:57Z</time>
      </trkpt>
      <trkpt lat="47.74309" lon="1.65739">
        <ele>91.8</ele>
        <time>2020-07-02T19:13:58Z</time>
      </trkpt>
      <trkpt lat="47.74303" lon="1.65732">
        <ele>91.8</ele>
        <time>2020-07-02T19:13:59Z</time>
      </trkpt>
      <trkpt lat="47.74298" lon="1.65726">
        <ele>91.8</ele>
        <time>2020-07-02T19:14:00Z</time>
      </trkpt>
      <trkpt lat="47.74293" lon="1.65719">
        <ele>91.7</ele>
        <time>2020-07-02T19:14:01Z</time>
      </trkpt>
      <trkpt lat="47.74288" lon="1.65712">
        <ele>91.7</ele>
        <time>2020-07-02T19:14:02Z</time>
      </trkpt>
      <trkpt lat="47.74282" lon="1.65706">
        <ele>91.7</ele>
        <time>2020-07-02T19:14:03Z</time>
      </trkpt>
      <trkpt lat="47.74278" lon="1.657">
        <ele>91.7</ele>
        <time>2020-07-02T19:14:04Z</time>
      </trkpt>
      <trkpt lat="47.74272" lon="1.65694">
        <ele>91.6</ele>
        <time>2020-07-02T19:14:05Z</time>
      </trkpt>
      <trkpt lat="47.74268" lon="1.65688">
        <ele>91.6</ele>
        <time>2020-07-02T19:14:06Z</time>
      </trkpt>
      <trkpt lat="47.74262" lon="1.65682">
        <ele>91.6</ele>
        <time>2020-07-02T19:14:07Z</time>
      </trkpt>
      <trkpt lat="47.74257" lon="1.65675">
        <ele>91.6</ele>
        <time>2020-07-02T19:14:08Z</time>
      </trkpt>
      <trkpt lat="47.74253" lon="1.65669">
        <ele>91.6</ele>
        <time>2020-07-02T19:14:09Z</time>
      </trkpt>
      <trkpt lat="47.74248" lon="1.65662">
        <ele>91.6</ele>
        <time>2020-07-02T19:14:10Z</time>
      </trkpt>
      <trkpt lat="47.74243" lon="1.65656">
        <ele>91.6</ele>
        <time>2020-07-02T19:14:11Z</time>
      </trkpt>
      <trkpt lat="47.74238" lon="1.65649">
        <ele>91.6</ele>
        <time>2020-07-02T19:14:12Z</time>
      </trkpt>
      <trkpt lat="47.74233" lon="1.65643">
        <ele>91.6</ele>
        <time>2020-07-02T19:14:13Z</time>
      </trkpt>
      <trkpt lat="47.74228" lon="1.65637">
        <ele>91.6</ele>
        <time>2020-07-02T19:14:14Z</time>
      </trkpt>
      <trkpt lat="47.74223" lon="1.6563">
        <ele>91.7</ele>
        <time>2020-07-02T19:14:15Z</time>
      </trkpt>
      <trkpt lat="47.74218" lon="1.65623">
        <ele>91.9</ele>
        <time>2020-07-02T19:14:16Z</time>
      </trkpt>
      <trkpt lat="47.74213" lon="1.65617">
        <ele>92</ele>
        <time>2020-07-02T19:14:17Z</time>
      </trkpt>
      <trkpt lat="47.74208" lon="1.65611">
        <ele>92</ele>
        <time>2020-07-02T19:14:18Z</time>
      </trkpt>
      <trkpt lat="47.74203" lon="1.65605">
        <ele>91.9</ele>
        <time>2020-07-02T19:14:19Z</time>
      </trkpt>
      <trkpt lat="47.74198" lon="1.65598">
        <ele>91.8</ele>
        <time>2020-07-02T19:14:20Z</time>
      </trkpt>
      <trkpt lat="47.74193" lon="1.65592">
        <ele>91.7</ele>
        <time>2020-07-02T19:14:21Z</time>
      </trkpt>
      <trkpt lat="47.74188" lon="1.65585">
        <ele>91.6</ele>
        <time>2020-07-02T19:14:22Z</time>
      </trkpt>
      <trkpt lat="47.74182" lon="1.65578">
        <ele>91.5</ele>
        <time>2020-07-02T19:14:23Z</time>
      </trkpt>
      <trkpt lat="47.74177" lon="1.65571">
        <ele>91.5</ele>
        <time>2020-07-02T19:14:24Z</time>
      </trkpt>
      <trkpt lat="47.74172" lon="1.65565">
        <ele>91.5</ele>
        <time>2020-07-02T19:14:25Z</time>
      </trkpt>
      <trkpt lat="47.74167" lon="1.65557">
        <ele>91.5</ele>
        <time>2020-07-02T19:14:26Z</time>
      </trkpt>
      <trkpt lat="47.74162" lon="1.6555">
        <ele>91.5</ele>
        <time>2020-07-02T19:14:27Z</time>
      </trkpt>
      <trkpt lat="47.74157" lon="1.65543">
        <ele>91.4</ele>
        <time>2020-07-02T19:14:28Z</time>
      </trkpt>
      <trkpt lat="47.74152" lon="1.65536">
        <ele>91.4</ele>
        <time>2020-07-02T19:14:29Z</time>
      </trkpt>
      <trkpt lat="47.74147" lon="1.65529">
        <ele>91.3</ele>
        <time>2020-07-02T19:14:30Z</time>
      </trkpt>
      <trkpt lat="47.74141" lon="1.65522">
        <ele>91.3</ele>
        <time>2020-07-02T19:14:31Z</time>
      </trkpt>
      <trkpt lat="47.74136" lon="1.65515">
        <ele>91.2</ele>
        <time>2020-07-02T19:14:32Z</time>
      </trkpt>
      <trkpt lat="47.74131" lon="1.65509">
        <ele>91.2</ele>
        <time>2020-07-02T19:14:33Z</time>
      </trkpt>
      <trkpt lat="47.74125" lon="1.65502">
        <ele>91.1</ele>
        <time>2020-07-02T19:14:34Z</time>
      </trkpt>
      <trkpt lat="47.7412" lon="1.65495">
        <ele>91</ele>
        <time>2020-07-02T19:14:35Z</time>
      </trkpt>
      <trkpt lat="47.74114" lon="1.65488">
        <ele>90.9</ele>
        <time>2020-07-02T19:14:36Z</time>
      </trkpt>
      <trkpt lat="47.74109" lon="1.65481">
        <ele>90.8</ele>
        <time>2020-07-02T19:14:37Z</time>
      </trkpt>
      <trkpt lat="47.74104" lon="1.65473">
        <ele>90.7</ele>
        <time>2020-07-02T19:14:38Z</time>
      </trkpt>
      <trkpt lat="47.74099" lon="1.65467">
        <ele>90.6</ele>
        <time>2020-07-02T19:14:39Z</time>
      </trkpt>
      <trkpt lat="47.74093" lon="1.6546">
        <ele>90.4</ele>
        <time>2020-07-02T19:14:40Z</time>
      </trkpt>
      <trkpt lat="47.74088" lon="1.65453">
        <ele>90.3</ele>
        <time>2020-07-02T19:14:41Z</time>
      </trkpt>
      <trkpt lat="47.74082" lon="1.65445">
        <ele>90.1</ele>
        <time>2020-07-02T19:14:42Z</time>
      </trkpt>
      <trkpt lat="47.74077" lon="1.65438">
        <ele>89.9</ele>
        <time>2020-07-02T19:14:43Z</time>
      </trkpt>
      <trkpt lat="47.74071" lon="1.65431">
        <ele>89.8</ele>
        <time>2020-07-02T19:14:44Z</time>
      </trkpt>
      <trkpt lat="47.74066" lon="1.65424">
        <ele>89.7</ele>
        <time>2020-07-02T19:14:45Z</time>
      </trkpt>
      <trkpt lat="47.74061" lon="1.65416">
        <ele>89.5</ele>
        <time>2020-07-02T19:14:46Z</time>
      </trkpt>
      <trkpt lat="47.74055" lon="1.65409">
        <ele>89.3</ele>
        <time>2020-07-02T19:14:47Z</time>
      </trkpt>
      <trkpt lat="47.74049" lon="1.65402">
        <ele>89.1</ele>
        <time>2020-07-02T19:14:48Z</time>
      </trkpt>
      <trkpt lat="47.74043" lon="1.65395">
        <ele>88.9</ele>
        <time>2020-07-02T19:14:49Z</time>
      </trkpt>
      <trkpt lat="47.74038" lon="1.65388">
        <ele>88.7</ele>
        <time>2020-07-02T19:14:50Z</time>
      </trkpt>
      <trkpt lat="47.74031" lon="1.65381">
        <ele>88.5</ele>
        <time>2020-07-02T19:14:51Z</time>
      </trkpt>
      <trkpt lat="47.74026" lon="1.65373">
        <ele>88.3</ele>
        <time>2020-07-02T19:14:52Z</time>
      </trkpt>
      <trkpt lat="47.7402" lon="1.65365">
        <ele>88.1</ele>
        <time>2020-07-02T19:14:53Z</time>
      </trkpt>
      <trkpt lat="47.74013" lon="1.65358">
        <ele>87.8</ele>
        <time>2020-07-02T19:14:54Z</time>
      </trkpt>
      <trkpt lat="47.74006" lon="1.65351">
        <ele>87.6</ele>
        <time>2020-07-02T19:14:55Z</time>
      </trkpt>
      <trkpt lat="47.74" lon="1.65343">
        <ele>87.4</ele>
        <time>2020-07-02T19:14:56Z</time>
      </trkpt>
      <trkpt lat="47.73993" lon="1.65336">
        <ele>87.2</ele>
        <time>2020-07-02T19:14:57Z</time>
      </trkpt>
      <trkpt lat="47.73987" lon="1.65328">
        <ele>87.1</ele>
        <time>2020-07-02T19:14:58Z</time>
      </trkpt>
      <trkpt lat="47.7398" lon="1.6532">
        <ele>87.1</ele>
        <time>2020-07-02T19:14:59Z</time>
      </trkpt>
      <trkpt lat="47.73974" lon="1.65311">
        <ele>87</ele>
        <time>2020-07-02T19:15:00Z</time>
      </trkpt>
      <trkpt lat="47.73968" lon="1.65303">
        <ele>86.8</ele>
        <time>2020-07-02T19:15:01Z</time>
      </trkpt>
      <trkpt lat="47.73962" lon="1.65294">
        <ele>86.5</ele>
        <time>2020-07-02T19:15:02Z</time>
      </trkpt>
      <trkpt lat="47.73956" lon="1.65286">
        <ele>86.3</ele>
        <time>2020-07-02T19:15:03Z</time>
      </trkpt>
      <trkpt lat="47.73949" lon="1.65278">
        <ele>86</ele>
        <time>2020-07-02T19:15:04Z</time>
      </trkpt>
      <trkpt lat="47.73942" lon="1.6527">
        <ele>85.7</ele>
        <time>2020-07-02T19:15:05Z</time>
      </trkpt>
      <trkpt lat="47.73936" lon="1.65262">
        <ele>85.5</ele>
        <time>2020-07-02T19:15:06Z</time>
      </trkpt>
      <trkpt lat="47.73929" lon="1.65254">
        <ele>85.2</ele>
        <time>2020-07-02T19:15:07Z</time>
      </trkpt>
      <trkpt lat="47.73923" lon="1.65246">
        <ele>85</ele>
        <time>2020-07-02T19:15:08Z</time>
      </trkpt>
      <trkpt lat="47.73915" lon="1.65238">
        <ele>84.8</ele>
        <time>2020-07-02T19:15:09Z</time>
      </trkpt>
      <trkpt lat="47.73908" lon="1.6523">
        <ele>84.6</ele>
        <time>2020-07-02T19:15:10Z</time>
      </trkpt>
      <trkpt lat="47.73902" lon="1.65221">
        <ele>84.5</ele>
        <time>2020-07-02T19:15:11Z</time>
      </trkpt>
      <trkpt lat="47.73895" lon="1.65212">
        <ele>84.4</ele>
        <time>2020-07-02T19:15:12Z</time>
      </trkpt>
      <trkpt lat="47.73888" lon="1.65204">
        <ele>84.3</ele>
        <time>2020-07-02T19:15:13Z</time>
      </trkpt>
      <trkpt lat="47.73881" lon="1.65196">
        <ele>84.2</ele>
        <time>2020-07-02T19:15:14Z</time>
      </trkpt>
      <trkpt lat="47.73874" lon="1.65189">
        <ele>84.2</ele>
        <time>2020-07-02T19:15:15Z</time>
      </trkpt>
      <trkpt lat="47.73867" lon="1.6518">
        <ele>84.2</ele>
        <time>2020-07-02T19:15:16Z</time>
      </trkpt>
      <trkpt lat="47.73861" lon="1.65172">
        <ele>84.3</ele>
        <time>2020-07-02T19:15:17Z</time>
      </trkpt>
      <trkpt lat="47.73855" lon="1.65165">
        <ele>84.4</ele>
        <time>2020-07-02T19:15:18Z</time>
      </trkpt>
      <trkpt lat="47.73849" lon="1.65157">
        <ele>84.6</ele>
        <time>2020-07-02T19:15:19Z</time>
      </trkpt>
      <trkpt lat="47.73843" lon="1.65149">
        <ele>84.7</ele>
        <time>2020-07-02T19:15:20Z</time>
      </trkpt>
      <trkpt lat="47.73837" lon="1.65142">
        <ele>84.9</ele>
        <time>2020-07-02T19:15:21Z</time>
      </trkpt>
      <trkpt lat="47.73832" lon="1.65136">
        <ele>85.1</ele>
        <time>2020-07-02T19:15:22Z</time>
      </trkpt>
      <trkpt lat="47.73826" lon="1.65129">
        <ele>85.2</ele>
        <time>2020-07-02T19:15:23Z</time>
      </trkpt>
      <trkpt lat="47.7382" lon="1.65122">
        <ele>85.4</ele>
        <time>2020-07-02T19:15:24Z</time>
      </trkpt>
      <trkpt lat="47.73815" lon="1.65115">
        <ele>85.5</ele>
        <time>2020-07-02T19:15:25Z</time>
      </trkpt>
      <trkpt lat="47.7381" lon="1.65108">
        <ele>85.7</ele>
        <time>2020-07-02T19:15:26Z</time>
      </trkpt>
      <trkpt lat="47.73804" lon="1.65102">
        <ele>85.8</ele>
        <time>2020-07-02T19:15:27Z</time>
      </trkpt>
      <trkpt lat="47.73799" lon="1.65096">
        <ele>85.8</ele>
        <time>2020-07-02T19:15:28Z</time>
      </trkpt>
      <trkpt lat="47.73793" lon="1.6509">
        <ele>85.8</ele>
        <time>2020-07-02T19:15:29Z</time>
      </trkpt>
      <trkpt lat="47.73788" lon="1.65083">
        <ele>85.9</ele>
        <time>2020-07-02T19:15:30Z</time>
      </trkpt>
      <trkpt lat="47.73783" lon="1.65076">
        <ele>86.1</ele>
        <time>2020-07-02T19:15:31Z</time>
      </trkpt>
      <trkpt lat="47.73778" lon="1.65069">
        <ele>86.2</ele>
        <time>2020-07-02T19:15:32Z</time>
      </trkpt>
      <trkpt lat="47.73773" lon="1.65063">
        <ele>86.3</ele>
        <time>2020-07-02T19:15:33Z</time>
      </trkpt>
      <trkpt lat="47.73768" lon="1.65057">
        <ele>86.4</ele>
        <time>2020-07-02T19:15:34Z</time>
      </trkpt>
      <trkpt lat="47.73763" lon="1.6505">
        <ele>86.5</ele>
        <time>2020-07-02T19:15:35Z</time>
      </trkpt>
      <trkpt lat="47.73758" lon="1.65044">
        <ele>86.7</ele>
        <time>2020-07-02T19:15:36Z</time>
      </trkpt>
      <trkpt lat="47.73753" lon="1.65038">
        <ele>86.8</ele>
        <time>2020-07-02T19:15:37Z</time>
      </trkpt>
      <trkpt lat="47.73748" lon="1.65031">
        <ele>87</ele>
        <time>2020-07-02T19:15:38Z</time>
      </trkpt>
      <trkpt lat="47.73744" lon="1.65025">
        <ele>87.1</ele>
        <time>2020-07-02T19:15:39Z</time>
      </trkpt>
      <trkpt lat="47.73738" lon="1.6502">
        <ele>87.2</ele>
        <time>2020-07-02T19:15:40Z</time>
      </trkpt>
      <trkpt lat="47.73734" lon="1.65014">
        <ele>87.3</ele>
        <time>2020-07-02T19:15:41Z</time>
      </trkpt>
      <trkpt lat="47.73729" lon="1.65008">
        <ele>87.4</ele>
        <time>2020-07-02T19:15:42Z</time>
      </trkpt>
      <trkpt lat="47.73724" lon="1.65003">
        <ele>87.5</ele>
        <time>2020-07-02T19:15:43Z</time>
      </trkpt>
      <trkpt lat="47.73719" lon="1.64996">
        <ele>87.5</ele>
        <time>2020-07-02T19:15:44Z</time>
      </trkpt>
      <trkpt lat="47.73715" lon="1.6499">
        <ele>87.6</ele>
        <time>2020-07-02T19:15:45Z</time>
      </trkpt>
      <trkpt lat="47.7371" lon="1.64985">
        <ele>87.6</ele>
        <time>2020-07-02T19:15:46Z</time>
      </trkpt>
      <trkpt lat="47.73705" lon="1.64979">
        <ele>87.7</ele>
        <time>2020-07-02T19:15:47Z</time>
      </trkpt>
      <trkpt lat="47.737" lon="1.64974">
        <ele>87.9</ele>
        <time>2020-07-02T19:15:48Z</time>
      </trkpt>
      <trkpt lat="47.73696" lon="1.64968">
        <ele>88</ele>
        <time>2020-07-02T19:15:49Z</time>
      </trkpt>
      <trkpt lat="47.7369" lon="1.64962">
        <ele>88.2</ele>
        <time>2020-07-02T19:15:50Z</time>
      </trkpt>
      <trkpt lat="47.73686" lon="1.64957">
        <ele>88.3</ele>
        <time>2020-07-02T19:15:51Z</time>
      </trkpt>
      <trkpt lat="47.7368" lon="1.64949">
        <ele>88.4</ele>
        <time>2020-07-02T19:15:52Z</time>
      </trkpt>
      <trkpt lat="47.73676" lon="1.64943">
        <ele>88.5</ele>
        <time>2020-07-02T19:15:53Z</time>
      </trkpt>
      <trkpt lat="47.73671" lon="1.64935">
        <ele>88.6</ele>
        <time>2020-07-02T19:15:54Z</time>
      </trkpt>
      <trkpt lat="47.73665" lon="1.64929">
        <ele>88.7</ele>
        <time>2020-07-02T19:15:55Z</time>
      </trkpt>
      <trkpt lat="47.7366" lon="1.64923">
        <ele>88.8</ele>
        <time>2020-07-02T19:15:56Z</time>
      </trkpt>
      <trkpt lat="47.73656" lon="1.64918">
        <ele>88.9</ele>
        <time>2020-07-02T19:15:57Z</time>
      </trkpt>
      <trkpt lat="47.73652" lon="1.64912">
        <ele>89.1</ele>
        <time>2020-07-02T19:15:58Z</time>
      </trkpt>
      <trkpt lat="47.73647" lon="1.64906">
        <ele>89.2</ele>
        <time>2020-07-02T19:15:59Z</time>
      </trkpt>
      <trkpt lat="47.73643" lon="1.64901">
        <ele>89.3</ele>
        <time>2020-07-02T19:16:00Z</time>
      </trkpt>
      <trkpt lat="47.73639" lon="1.64896">
        <ele>89.3</ele>
        <time>2020-07-02T19:16:01Z</time>
      </trkpt>
      <trkpt lat="47.73634" lon="1.64888">
        <ele>89.4</ele>
        <time>2020-07-02T19:16:02Z</time>
      </trkpt>
      <trkpt lat="47.73631" lon="1.64883">
        <ele>89.4</ele>
        <time>2020-07-02T19:16:03Z</time>
      </trkpt>
      <trkpt lat="47.73626" lon="1.64876">
        <ele>89.5</ele>
        <time>2020-07-02T19:16:04Z</time>
      </trkpt>
      <trkpt lat="47.73621" lon="1.6487">
        <ele>89.5</ele>
        <time>2020-07-02T19:16:05Z</time>
      </trkpt>
      <trkpt lat="47.73616" lon="1.64864">
        <ele>89.6</ele>
        <time>2020-07-02T19:16:06Z</time>
      </trkpt>
      <trkpt lat="47.73611" lon="1.64859">
        <ele>89.7</ele>
        <time>2020-07-02T19:16:07Z</time>
      </trkpt>
      <trkpt lat="47.73606" lon="1.64853">
        <ele>89.8</ele>
        <time>2020-07-02T19:16:08Z</time>
      </trkpt>
      <trkpt lat="47.73601" lon="1.64847">
        <ele>89.8</ele>
        <time>2020-07-02T19:16:09Z</time>
      </trkpt>
      <trkpt lat="47.73597" lon="1.64841">
        <ele>89.9</ele>
        <time>2020-07-02T19:16:10Z</time>
      </trkpt>
      <trkpt lat="47.73592" lon="1.64835">
        <ele>89.9</ele>
        <time>2020-07-02T19:16:11Z</time>
      </trkpt>
      <trkpt lat="47.73587" lon="1.64828">
        <ele>89.9</ele>
        <time>2020-07-02T19:16:12Z</time>
      </trkpt>
      <trkpt lat="47.73582" lon="1.64822">
        <ele>90</ele>
        <time>2020-07-02T19:16:13Z</time>
      </trkpt>
      <trkpt lat="47.73578" lon="1.64816">
        <ele>90</ele>
        <time>2020-07-02T19:16:14Z</time>
      </trkpt>
      <trkpt lat="47.73573" lon="1.64809">
        <ele>90.1</ele>
        <time>2020-07-02T19:16:15Z</time>
      </trkpt>
      <trkpt lat="47.73569" lon="1.64803">
        <ele>90.1</ele>
        <time>2020-07-02T19:16:16Z</time>
      </trkpt>
      <trkpt lat="47.73564" lon="1.64796">
        <ele>90.2</ele>
        <time>2020-07-02T19:16:17Z</time>
      </trkpt>
      <trkpt lat="47.73559" lon="1.64789">
        <ele>90.2</ele>
        <time>2020-07-02T19:16:18Z</time>
      </trkpt>
      <trkpt lat="47.73555" lon="1.64783">
        <ele>90.3</ele>
        <time>2020-07-02T19:16:19Z</time>
      </trkpt>
      <trkpt lat="47.7355" lon="1.64776">
        <ele>90.4</ele>
        <time>2020-07-02T19:16:20Z</time>
      </trkpt>
      <trkpt lat="47.73546" lon="1.64769">
        <ele>90.4</ele>
        <time>2020-07-02T19:16:21Z</time>
      </trkpt>
      <trkpt lat="47.73543" lon="1.64762">
        <ele>90.5</ele>
        <time>2020-07-02T19:16:22Z</time>
      </trkpt>
      <trkpt lat="47.7354" lon="1.64755">
        <ele>90.5</ele>
        <time>2020-07-02T19:16:23Z</time>
      </trkpt>
      <trkpt lat="47.73538" lon="1.64747">
        <ele>90.5</ele>
        <time>2020-07-02T19:16:24Z</time>
      </trkpt>
      <trkpt lat="47.73535" lon="1.64737">
        <ele>90.5</ele>
        <time>2020-07-02T19:16:25Z</time>
      </trkpt>
      <trkpt lat="47.73532" lon="1.64728">
        <ele>90.6</ele>
        <time>2020-07-02T19:16:26Z</time>
      </trkpt>
      <trkpt lat="47.73528" lon="1.6472">
        <ele>90.6</ele>
        <time>2020-07-02T19:16:27Z</time>
      </trkpt>
      <trkpt lat="47.73523" lon="1.64715">
        <ele>90.6</ele>
        <time>2020-07-02T19:16:28Z</time>
      </trkpt>
      <trkpt lat="47.73518" lon="1.64712">
        <ele>90.5</ele>
        <time>2020-07-02T19:16:29Z</time>
      </trkpt>
      <trkpt lat="47.73512" lon="1.6471">
        <ele>90.5</ele>
        <time>2020-07-02T19:16:30Z</time>
      </trkpt>
      <trkpt lat="47.73506" lon="1.64708">
        <ele>90.4</ele>
        <time>2020-07-02T19:16:31Z</time>
      </trkpt>
      <trkpt lat="47.735" lon="1.64706">
        <ele>90.9</ele>
        <time>2020-07-02T19:16:32Z</time>
      </trkpt>
      <trkpt lat="47.73494" lon="1.64702">
        <ele>91.1</ele>
        <time>2020-07-02T19:16:33Z</time>
      </trkpt>
      <trkpt lat="47.73489" lon="1.64697">
        <ele>91.1</ele>
        <time>2020-07-02T19:16:34Z</time>
      </trkpt>
      <trkpt lat="47.73484" lon="1.64692">
        <ele>91.2</ele>
        <time>2020-07-02T19:16:35Z</time>
      </trkpt>
      <trkpt lat="47.7348" lon="1.64688">
        <ele>91.2</ele>
        <time>2020-07-02T19:16:36Z</time>
      </trkpt>
      <trkpt lat="47.73475" lon="1.64683">
        <ele>91.2</ele>
        <time>2020-07-02T19:16:37Z</time>
      </trkpt>
      <trkpt lat="47.73471" lon="1.64679">
        <ele>91.2</ele>
        <time>2020-07-02T19:16:38Z</time>
      </trkpt>
      <trkpt lat="47.73466" lon="1.64675">
        <ele>91.2</ele>
        <time>2020-07-02T19:16:39Z</time>
      </trkpt>
      <trkpt lat="47.73461" lon="1.64669">
        <ele>91.2</ele>
        <time>2020-07-02T19:16:40Z</time>
      </trkpt>
      <trkpt lat="47.73457" lon="1.64662">
        <ele>91.1</ele>
        <time>2020-07-02T19:16:41Z</time>
      </trkpt>
      <trkpt lat="47.73453" lon="1.64656">
        <ele>91.1</ele>
        <time>2020-07-02T19:16:42Z</time>
      </trkpt>
      <trkpt lat="47.73449" lon="1.64652">
        <ele>91.1</ele>
        <time>2020-07-02T19:16:43Z</time>
      </trkpt>
      <trkpt lat="47.73445" lon="1.64645">
        <ele>91.1</ele>
        <time>2020-07-02T19:16:44Z</time>
      </trkpt>
      <trkpt lat="47.7344" lon="1.64639">
        <ele>91.2</ele>
        <time>2020-07-02T19:16:45Z</time>
      </trkpt>
      <trkpt lat="47.73435" lon="1.64633">
        <ele>91.2</ele>
        <time>2020-07-02T19:16:46Z</time>
      </trkpt>
      <trkpt lat="47.7343" lon="1.64627">
        <ele>91.2</ele>
        <time>2020-07-02T19:16:47Z</time>
      </trkpt>
      <trkpt lat="47.73425" lon="1.6462">
        <ele>91.3</ele>
        <time>2020-07-02T19:16:48Z</time>
      </trkpt>
      <trkpt lat="47.7342" lon="1.64615">
        <ele>91.3</ele>
        <time>2020-07-02T19:16:49Z</time>
      </trkpt>
      <trkpt lat="47.73416" lon="1.64611">
        <ele>91.4</ele>
        <time>2020-07-02T19:16:50Z</time>
      </trkpt>
      <trkpt lat="47.73411" lon="1.64606">
        <ele>91.4</ele>
        <time>2020-07-02T19:16:51Z</time>
      </trkpt>
      <trkpt lat="47.73408" lon="1.64601">
        <ele>91.4</ele>
        <time>2020-07-02T19:16:52Z</time>
      </trkpt>
      <trkpt lat="47.73403" lon="1.64595">
        <ele>91.4</ele>
        <time>2020-07-02T19:16:53Z</time>
      </trkpt>
      <trkpt lat="47.73399" lon="1.64589">
        <ele>91.4</ele>
        <time>2020-07-02T19:16:54Z</time>
      </trkpt>
      <trkpt lat="47.73395" lon="1.64583">
        <ele>91.5</ele>
        <time>2020-07-02T19:16:55Z</time>
      </trkpt>
      <trkpt lat="47.73392" lon="1.64579">
        <ele>91.5</ele>
        <time>2020-07-02T19:16:56Z</time>
      </trkpt>
      <trkpt lat="47.73388" lon="1.64574">
        <ele>91.5</ele>
        <time>2020-07-02T19:16:57Z</time>
      </trkpt>
      <trkpt lat="47.73384" lon="1.64569">
        <ele>91.5</ele>
        <time>2020-07-02T19:16:58Z</time>
      </trkpt>
      <trkpt lat="47.7338" lon="1.64564">
        <ele>91.5</ele>
        <time>2020-07-02T19:16:59Z</time>
      </trkpt>
      <trkpt lat="47.73375" lon="1.64558">
        <ele>91.5</ele>
        <time>2020-07-02T19:17:00Z</time>
      </trkpt>
      <trkpt lat="47.73373" lon="1.64554">
        <ele>91.5</ele>
        <time>2020-07-02T19:17:01Z</time>
      </trkpt>
      <trkpt lat="47.73368" lon="1.64548">
        <ele>91.5</ele>
        <time>2020-07-02T19:17:02Z</time>
      </trkpt>
      <trkpt lat="47.73364" lon="1.64542">
        <ele>91.5</ele>
        <time>2020-07-02T19:17:03Z</time>
      </trkpt>
      <trkpt lat="47.73359" lon="1.64536">
        <ele>91.5</ele>
        <time>2020-07-02T19:17:04Z</time>
      </trkpt>
      <trkpt lat="47.73355" lon="1.64531">
        <ele>91.5</ele>
        <time>2020-07-02T19:17:05Z</time>
      </trkpt>
      <trkpt lat="47.7335" lon="1.64525">
        <ele>91.5</ele>
        <time>2020-07-02T19:17:06Z</time>
      </trkpt>
      <trkpt lat="47.73345" lon="1.64519">
        <ele>91.5</ele>
        <time>2020-07-02T19:17:07Z</time>
      </trkpt>
      <trkpt lat="47.73341" lon="1.64513">
        <ele>91.6</ele>
        <time>2020-07-02T19:17:08Z</time>
      </trkpt>
      <trkpt lat="47.73336" lon="1.64508">
        <ele>91.6</ele>
        <time>2020-07-02T19:17:09Z</time>
      </trkpt>
      <trkpt lat="47.73332" lon="1.64503">
        <ele>91.6</ele>
        <time>2020-07-02T19:17:10Z</time>
      </trkpt>
      <trkpt lat="47.73326" lon="1.64498">
        <ele>91.6</ele>
        <time>2020-07-02T19:17:11Z</time>
      </trkpt>
      <trkpt lat="47.73322" lon="1.64493">
        <ele>91.6</ele>
        <time>2020-07-02T19:17:12Z</time>
      </trkpt>
      <trkpt lat="47.73317" lon="1.64488">
        <ele>91.6</ele>
        <time>2020-07-02T19:17:13Z</time>
      </trkpt>
      <trkpt lat="47.73313" lon="1.64483">
        <ele>91.6</ele>
        <time>2020-07-02T19:17:14Z</time>
      </trkpt>
      <trkpt lat="47.73309" lon="1.64477">
        <ele>91.6</ele>
        <time>2020-07-02T19:17:15Z</time>
      </trkpt>
      <trkpt lat="47.73305" lon="1.64471">
        <ele>91.6</ele>
        <time>2020-07-02T19:17:16Z</time>
      </trkpt>
      <trkpt lat="47.73301" lon="1.64466">
        <ele>91.6</ele>
        <time>2020-07-02T19:17:17Z</time>
      </trkpt>
      <trkpt lat="47.73299" lon="1.64462">
        <ele>91.6</ele>
        <time>2020-07-02T19:17:18Z</time>
      </trkpt>
      <trkpt lat="47.73295" lon="1.64459">
        <ele>91.6</ele>
        <time>2020-07-02T19:17:19Z</time>
      </trkpt>
      <trkpt lat="47.73291" lon="1.64454">
        <ele>91.6</ele>
        <time>2020-07-02T19:17:20Z</time>
      </trkpt>
      <trkpt lat="47.73287" lon="1.64448">
        <ele>91.6</ele>
        <time>2020-07-02T19:17:21Z</time>
      </trkpt>
      <trkpt lat="47.73284" lon="1.64444">
        <ele>91.7</ele>
        <time>2020-07-02T19:17:22Z</time>
      </trkpt>
      <trkpt lat="47.73281" lon="1.64438">
        <ele>91.7</ele>
        <time>2020-07-02T19:17:23Z</time>
      </trkpt>
      <trkpt lat="47.73278" lon="1.64433">
        <ele>91.7</ele>
        <time>2020-07-02T19:17:24Z</time>
      </trkpt>
      <trkpt lat="47.73276" lon="1.64428">
        <ele>91.7</ele>
        <time>2020-07-02T19:17:25Z</time>
      </trkpt>
      <trkpt lat="47.73274" lon="1.64422">
        <ele>91.8</ele>
        <time>2020-07-02T19:17:26Z</time>
      </trkpt>
      <trkpt lat="47.73271" lon="1.64417">
        <ele>91.8</ele>
        <time>2020-07-02T19:17:27Z</time>
      </trkpt>
      <trkpt lat="47.73269" lon="1.64413">
        <ele>91.8</ele>
        <time>2020-07-02T19:17:28Z</time>
      </trkpt>
      <trkpt lat="47.73265" lon="1.64408">
        <ele>91.8</ele>
        <time>2020-07-02T19:17:29Z</time>
      </trkpt>
      <trkpt lat="47.73262" lon="1.64404">
        <ele>91.7</ele>
        <time>2020-07-02T19:17:30Z</time>
      </trkpt>
      <trkpt lat="47.73259" lon="1.644">
        <ele>91.7</ele>
        <time>2020-07-02T19:17:31Z</time>
      </trkpt>
      <trkpt lat="47.73258" lon="1.64399">
        <ele>91.7</ele>
        <time>2020-07-02T19:17:32Z</time>
      </trkpt>
      <trkpt lat="47.73256" lon="1.64397">
        <ele>91.7</ele>
        <time>2020-07-02T19:17:33Z</time>
      </trkpt>
      <trkpt lat="47.73255" lon="1.64396">
        <ele>91.7</ele>
        <time>2020-07-02T19:17:34Z</time>
      </trkpt>
      <trkpt lat="47.73255" lon="1.64395">
        <ele>91.7</ele>
        <time>2020-07-02T19:17:35Z</time>
      </trkpt>
      <trkpt lat="47.73256" lon="1.64397">
        <ele>91.7</ele>
        <time>2020-07-02T19:17:36Z</time>
      </trkpt>
      <trkpt lat="47.73257" lon="1.64397">
        <ele>91.7</ele>
        <time>2020-07-02T19:17:37Z</time>
      </trkpt>
      <trkpt lat="47.73258" lon="1.64397">
        <ele>91.7</ele>
        <time>2020-07-02T19:17:38Z</time>
      </trkpt>
      <trkpt lat="47.73258" lon="1.64397">
        <ele>91.7</ele>
        <time>2020-07-02T19:17:39Z</time>
      </trkpt>
      <trkpt lat="47.73258" lon="1.64395">
        <ele>91.7</ele>
        <time>2020-07-02T19:17:40Z</time>
      </trkpt>
      <trkpt lat="47.73258" lon="1.64395">
        <ele>91.7</ele>
        <time>2020-07-02T19:17:41Z</time>
      </trkpt>
      <trkpt lat="47.73256" lon="1.64394">
        <ele>91.7</ele>
        <time>2020-07-02T19:17:42Z</time>
      </trkpt>
      <trkpt lat="47.73256" lon="1.64394">
        <ele>91.7</ele>
        <time>2020-07-02T19:17:43Z</time>
      </trkpt>
      <trkpt lat="47.73256" lon="1.64394">
        <ele>91.7</ele>
        <time>2020-07-02T19:17:44Z</time>
      </trkpt>
      <trkpt lat="47.73255" lon="1.64393">
        <ele>91.7</ele>
        <time>2020-07-02T19:17:45Z</time>
      </trkpt>
      <trkpt lat="47.73255" lon="1.64393">
        <ele>91.7</ele>
        <time>2020-07-02T19:17:46Z</time>
      </trkpt>
      <trkpt lat="47.73255" lon="1.64393">
        <ele>91.7</ele>
        <time>2020-07-02T19:17:47Z</time>
      </trkpt>
      <trkpt lat="47.73254" lon="1.64392">
        <ele>91.7</ele>
        <time>2020-07-02T19:17:48Z</time>
      </trkpt>
      <trkpt lat="47.73254" lon="1.64392">
        <ele>91.7</ele>
        <time>2020-07-02T19:17:49Z</time>
      </trkpt>
      <trkpt lat="47.73254" lon="1.64392">
        <ele>91.7</ele>
        <time>2020-07-02T19:17:50Z</time>
      </trkpt>
      <trkpt lat="47.73253" lon="1.64391">
        <ele>91.7</ele>
        <time>2020-07-02T19:17:51Z</time>
      </trkpt>
      <trkpt lat="47.73253" lon="1.64391">
        <ele>91.7</ele>
        <time>2020-07-02T19:17:52Z</time>
      </trkpt>
      <trkpt lat="47.73252" lon="1.64391">
        <ele>91.7</ele>
        <time>2020-07-02T19:18:14Z</time>
      </trkpt>
      <trkpt lat="47.73252" lon="1.6439">
        <ele>91.6</ele>
        <time>2020-07-02T19:18:15Z</time>
      </trkpt>
      <trkpt lat="47.7325" lon="1.64388">
        <ele>91.6</ele>
        <time>2020-07-02T19:18:16Z</time>
      </trkpt>
      <trkpt lat="47.73247" lon="1.64386">
        <ele>91.6</ele>
        <time>2020-07-02T19:18:17Z</time>
      </trkpt>
      <trkpt lat="47.73245" lon="1.64384">
        <ele>91.6</ele>
        <time>2020-07-02T19:18:18Z</time>
      </trkpt>
      <trkpt lat="47.73242" lon="1.64382">
        <ele>91.6</ele>
        <time>2020-07-02T19:18:19Z</time>
      </trkpt>
      <trkpt lat="47.73238" lon="1.64377">
        <ele>91.6</ele>
        <time>2020-07-02T19:18:20Z</time>
      </trkpt>
      <trkpt lat="47.73235" lon="1.64374">
        <ele>91.6</ele>
        <time>2020-07-02T19:18:21Z</time>
      </trkpt>
      <trkpt lat="47.73232" lon="1.64371">
        <ele>91.6</ele>
        <time>2020-07-02T19:18:22Z</time>
      </trkpt>
      <trkpt lat="47.73228" lon="1.64369">
        <ele>91.6</ele>
        <time>2020-07-02T19:18:23Z</time>
      </trkpt>
      <trkpt lat="47.73223" lon="1.64364">
        <ele>91.5</ele>
        <time>2020-07-02T19:18:24Z</time>
      </trkpt>
      <trkpt lat="47.73219" lon="1.64359">
        <ele>91.5</ele>
        <time>2020-07-02T19:18:25Z</time>
      </trkpt>
      <trkpt lat="47.73214" lon="1.64354">
        <ele>91.5</ele>
        <time>2020-07-02T19:18:26Z</time>
      </trkpt>
      <trkpt lat="47.73209" lon="1.64348">
        <ele>91.5</ele>
        <time>2020-07-02T19:18:27Z</time>
      </trkpt>
      <trkpt lat="47.73205" lon="1.64343">
        <ele>91.5</ele>
        <time>2020-07-02T19:18:28Z</time>
      </trkpt>
      <trkpt lat="47.732" lon="1.64335">
        <ele>91.5</ele>
        <time>2020-07-02T19:18:29Z</time>
      </trkpt>
      <trkpt lat="47.73195" lon="1.64328">
        <ele>91.5</ele>
        <time>2020-07-02T19:18:30Z</time>
      </trkpt>
      <trkpt lat="47.73191" lon="1.64322">
        <ele>91.5</ele>
        <time>2020-07-02T19:18:31Z</time>
      </trkpt>
      <trkpt lat="47.73187" lon="1.64316">
        <ele>91.5</ele>
        <time>2020-07-02T19:18:32Z</time>
      </trkpt>
      <trkpt lat="47.73184" lon="1.64312">
        <ele>91.5</ele>
        <time>2020-07-02T19:18:33Z</time>
      </trkpt>
      <trkpt lat="47.7318" lon="1.64307">
        <ele>91.4</ele>
        <time>2020-07-02T19:18:34Z</time>
      </trkpt>
      <trkpt lat="47.73176" lon="1.64301">
        <ele>91.4</ele>
        <time>2020-07-02T19:18:35Z</time>
      </trkpt>
      <trkpt lat="47.73173" lon="1.64296">
        <ele>91.4</ele>
        <time>2020-07-02T19:18:36Z</time>
      </trkpt>
      <trkpt lat="47.73169" lon="1.64292">
        <ele>91.3</ele>
        <time>2020-07-02T19:18:37Z</time>
      </trkpt>
      <trkpt lat="47.73166" lon="1.64287">
        <ele>91.3</ele>
        <time>2020-07-02T19:18:38Z</time>
      </trkpt>
      <trkpt lat="47.73163" lon="1.64283">
        <ele>91.3</ele>
        <time>2020-07-02T19:18:39Z</time>
      </trkpt>
      <trkpt lat="47.73159" lon="1.64278">
        <ele>91.2</ele>
        <time>2020-07-02T19:18:40Z</time>
      </trkpt>
      <trkpt lat="47.73154" lon="1.64273">
        <ele>91.2</ele>
        <time>2020-07-02T19:18:41Z</time>
      </trkpt>
      <trkpt lat="47.7315" lon="1.64268">
        <ele>91.1</ele>
        <time>2020-07-02T19:18:42Z</time>
      </trkpt>
      <trkpt lat="47.73146" lon="1.64264">
        <ele>91.1</ele>
        <time>2020-07-02T19:18:43Z</time>
      </trkpt>
      <trkpt lat="47.73143" lon="1.64259">
        <ele>91.1</ele>
        <time>2020-07-02T19:18:44Z</time>
      </trkpt>
      <trkpt lat="47.73139" lon="1.64255">
        <ele>91</ele>
        <time>2020-07-02T19:18:45Z</time>
      </trkpt>
      <trkpt lat="47.73134" lon="1.6425">
        <ele>91</ele>
        <time>2020-07-02T19:18:46Z</time>
      </trkpt>
      <trkpt lat="47.73131" lon="1.64244">
        <ele>91</ele>
        <time>2020-07-02T19:18:47Z</time>
      </trkpt>
      <trkpt lat="47.73127" lon="1.64239">
        <ele>91</ele>
        <time>2020-07-02T19:18:48Z</time>
      </trkpt>
      <trkpt lat="47.73123" lon="1.64234">
        <ele>91</ele>
        <time>2020-07-02T19:18:49Z</time>
      </trkpt>
      <trkpt lat="47.7312" lon="1.64229">
        <ele>90.9</ele>
        <time>2020-07-02T19:18:50Z</time>
      </trkpt>
      <trkpt lat="47.73115" lon="1.64224">
        <ele>90.9</ele>
        <time>2020-07-02T19:18:51Z</time>
      </trkpt>
      <trkpt lat="47.73111" lon="1.64218">
        <ele>90.9</ele>
        <time>2020-07-02T19:18:52Z</time>
      </trkpt>
      <trkpt lat="47.73107" lon="1.64211">
        <ele>90.8</ele>
        <time>2020-07-02T19:18:53Z</time>
      </trkpt>
      <trkpt lat="47.73103" lon="1.64205">
        <ele>90.8</ele>
        <time>2020-07-02T19:18:54Z</time>
      </trkpt>
      <trkpt lat="47.73099" lon="1.64201">
        <ele>90.8</ele>
        <time>2020-07-02T19:18:55Z</time>
      </trkpt>
      <trkpt lat="47.73095" lon="1.64195">
        <ele>90.7</ele>
        <time>2020-07-02T19:18:56Z</time>
      </trkpt>
      <trkpt lat="47.73091" lon="1.64189">
        <ele>90.7</ele>
        <time>2020-07-02T19:18:57Z</time>
      </trkpt>
      <trkpt lat="47.73087" lon="1.64185">
        <ele>90.7</ele>
        <time>2020-07-02T19:18:58Z</time>
      </trkpt>
      <trkpt lat="47.73083" lon="1.6418">
        <ele>90.7</ele>
        <time>2020-07-02T19:18:59Z</time>
      </trkpt>
      <trkpt lat="47.73078" lon="1.64175">
        <ele>90.7</ele>
        <time>2020-07-02T19:19:00Z</time>
      </trkpt>
      <trkpt lat="47.73074" lon="1.6417">
        <ele>90.7</ele>
        <time>2020-07-02T19:19:01Z</time>
      </trkpt>
      <trkpt lat="47.7307" lon="1.64165">
        <ele>90.7</ele>
        <time>2020-07-02T19:19:02Z</time>
      </trkpt>
      <trkpt lat="47.73066" lon="1.64161">
        <ele>90.6</ele>
        <time>2020-07-02T19:19:03Z</time>
      </trkpt>
      <trkpt lat="47.73061" lon="1.64154">
        <ele>90.6</ele>
        <time>2020-07-02T19:19:04Z</time>
      </trkpt>
      <trkpt lat="47.73056" lon="1.64147">
        <ele>90.6</ele>
        <time>2020-07-02T19:19:05Z</time>
      </trkpt>
      <trkpt lat="47.73051" lon="1.64139">
        <ele>90.5</ele>
        <time>2020-07-02T19:19:06Z</time>
      </trkpt>
      <trkpt lat="47.73046" lon="1.64133">
        <ele>90.5</ele>
        <time>2020-07-02T19:19:07Z</time>
      </trkpt>
      <trkpt lat="47.73041" lon="1.64127">
        <ele>90.5</ele>
        <time>2020-07-02T19:19:08Z</time>
      </trkpt>
      <trkpt lat="47.73038" lon="1.64122">
        <ele>90.5</ele>
        <time>2020-07-02T19:19:09Z</time>
      </trkpt>
      <trkpt lat="47.73033" lon="1.64116">
        <ele>90.5</ele>
        <time>2020-07-02T19:19:10Z</time>
      </trkpt>
      <trkpt lat="47.73026" lon="1.64109">
        <ele>90.5</ele>
        <time>2020-07-02T19:19:11Z</time>
      </trkpt>
      <trkpt lat="47.73021" lon="1.64103">
        <ele>90.5</ele>
        <time>2020-07-02T19:19:12Z</time>
      </trkpt>
      <trkpt lat="47.73016" lon="1.64096">
        <ele>90.5</ele>
        <time>2020-07-02T19:19:13Z</time>
      </trkpt>
      <trkpt lat="47.7301" lon="1.6409">
        <ele>90.5</ele>
        <time>2020-07-02T19:19:14Z</time>
      </trkpt>
      <trkpt lat="47.73004" lon="1.64083">
        <ele>90.5</ele>
        <time>2020-07-02T19:19:15Z</time>
      </trkpt>
      <trkpt lat="47.72999" lon="1.64076">
        <ele>90.4</ele>
        <time>2020-07-02T19:19:16Z</time>
      </trkpt>
      <trkpt lat="47.72994" lon="1.6407">
        <ele>90.3</ele>
        <time>2020-07-02T19:19:17Z</time>
      </trkpt>
      <trkpt lat="47.72989" lon="1.64065">
        <ele>90.2</ele>
        <time>2020-07-02T19:19:18Z</time>
      </trkpt>
      <trkpt lat="47.72984" lon="1.64059">
        <ele>90.1</ele>
        <time>2020-07-02T19:19:19Z</time>
      </trkpt>
      <trkpt lat="47.7298" lon="1.64053">
        <ele>89.9</ele>
        <time>2020-07-02T19:19:20Z</time>
      </trkpt>
      <trkpt lat="47.72975" lon="1.64047">
        <ele>89.8</ele>
        <time>2020-07-02T19:19:21Z</time>
      </trkpt>
      <trkpt lat="47.7297" lon="1.6404">
        <ele>89.7</ele>
        <time>2020-07-02T19:19:22Z</time>
      </trkpt>
      <trkpt lat="47.72965" lon="1.64033">
        <ele>89.5</ele>
        <time>2020-07-02T19:19:23Z</time>
      </trkpt>
      <trkpt lat="47.72959" lon="1.64025">
        <ele>89.3</ele>
        <time>2020-07-02T19:19:24Z</time>
      </trkpt>
      <trkpt lat="47.72954" lon="1.64018">
        <ele>89.1</ele>
        <time>2020-07-02T19:19:25Z</time>
      </trkpt>
      <trkpt lat="47.72948" lon="1.6401">
        <ele>88.9</ele>
        <time>2020-07-02T19:19:26Z</time>
      </trkpt>
      <trkpt lat="47.72942" lon="1.64003">
        <ele>88.8</ele>
        <time>2020-07-02T19:19:27Z</time>
      </trkpt>
      <trkpt lat="47.72936" lon="1.63996">
        <ele>88.6</ele>
        <time>2020-07-02T19:19:28Z</time>
      </trkpt>
      <trkpt lat="47.72931" lon="1.63987">
        <ele>88.4</ele>
        <time>2020-07-02T19:19:29Z</time>
      </trkpt>
      <trkpt lat="47.72926" lon="1.63978">
        <ele>88.2</ele>
        <time>2020-07-02T19:19:30Z</time>
      </trkpt>
      <trkpt lat="47.7292" lon="1.6397">
        <ele>88</ele>
        <time>2020-07-02T19:19:31Z</time>
      </trkpt>
      <trkpt lat="47.72915" lon="1.63961">
        <ele>87.8</ele>
        <time>2020-07-02T19:19:32Z</time>
      </trkpt>
      <trkpt lat="47.7291" lon="1.63951">
        <ele>87.6</ele>
        <time>2020-07-02T19:19:33Z</time>
      </trkpt>
      <trkpt lat="47.72905" lon="1.63941">
        <ele>87.3</ele>
        <time>2020-07-02T19:19:34Z</time>
      </trkpt>
      <trkpt lat="47.729" lon="1.63931">
        <ele>87.1</ele>
        <time>2020-07-02T19:19:35Z</time>
      </trkpt>
      <trkpt lat="47.72895" lon="1.6392">
        <ele>86.9</ele>
        <time>2020-07-02T19:19:36Z</time>
      </trkpt>
      <trkpt lat="47.7289" lon="1.6391">
        <ele>86.7</ele>
        <time>2020-07-02T19:19:37Z</time>
      </trkpt>
      <trkpt lat="47.72885" lon="1.639">
        <ele>86.5</ele>
        <time>2020-07-02T19:19:38Z</time>
      </trkpt>
      <trkpt lat="47.7288" lon="1.63889">
        <ele>86.5</ele>
        <time>2020-07-02T19:19:39Z</time>
      </trkpt>
      <trkpt lat="47.72875" lon="1.63879">
        <ele>86.4</ele>
        <time>2020-07-02T19:19:40Z</time>
      </trkpt>
      <trkpt lat="47.7287" lon="1.63868">
        <ele>86.3</ele>
        <time>2020-07-02T19:19:41Z</time>
      </trkpt>
      <trkpt lat="47.72865" lon="1.63857">
        <ele>86.1</ele>
        <time>2020-07-02T19:19:42Z</time>
      </trkpt>
      <trkpt lat="47.7286" lon="1.63846">
        <ele>85.9</ele>
        <time>2020-07-02T19:19:43Z</time>
      </trkpt>
      <trkpt lat="47.72854" lon="1.63835">
        <ele>85.7</ele>
        <time>2020-07-02T19:19:44Z</time>
      </trkpt>
      <trkpt lat="47.72849" lon="1.63825">
        <ele>85.6</ele>
        <time>2020-07-02T19:19:45Z</time>
      </trkpt>
      <trkpt lat="47.72844" lon="1.63814">
        <ele>85.4</ele>
        <time>2020-07-02T19:19:46Z</time>
      </trkpt>
      <trkpt lat="47.72838" lon="1.63803">
        <ele>85.3</ele>
        <time>2020-07-02T19:19:47Z</time>
      </trkpt>
      <trkpt lat="47.72833" lon="1.63792">
        <ele>85.2</ele>
        <time>2020-07-02T19:19:48Z</time>
      </trkpt>
      <trkpt lat="47.72828" lon="1.63782">
        <ele>85.1</ele>
        <time>2020-07-02T19:19:49Z</time>
      </trkpt>
      <trkpt lat="47.72823" lon="1.63771">
        <ele>85.1</ele>
        <time>2020-07-02T19:19:50Z</time>
      </trkpt>
      <trkpt lat="47.72818" lon="1.6376">
        <ele>85.2</ele>
        <time>2020-07-02T19:19:51Z</time>
      </trkpt>
      <trkpt lat="47.72813" lon="1.63749">
        <ele>85.3</ele>
        <time>2020-07-02T19:19:52Z</time>
      </trkpt>
      <trkpt lat="47.72808" lon="1.63738">
        <ele>85.4</ele>
        <time>2020-07-02T19:19:53Z</time>
      </trkpt>
      <trkpt lat="47.72803" lon="1.63727">
        <ele>85.5</ele>
        <time>2020-07-02T19:19:54Z</time>
      </trkpt>
      <trkpt lat="47.72798" lon="1.63717">
        <ele>85.6</ele>
        <time>2020-07-02T19:19:55Z</time>
      </trkpt>
      <trkpt lat="47.72793" lon="1.63708">
        <ele>85.7</ele>
        <time>2020-07-02T19:19:56Z</time>
      </trkpt>
      <trkpt lat="47.72788" lon="1.63698">
        <ele>85.8</ele>
        <time>2020-07-02T19:19:57Z</time>
      </trkpt>
      <trkpt lat="47.72783" lon="1.63689">
        <ele>85.9</ele>
        <time>2020-07-02T19:19:58Z</time>
      </trkpt>
      <trkpt lat="47.72779" lon="1.63679">
        <ele>86</ele>
        <time>2020-07-02T19:19:59Z</time>
      </trkpt>
      <trkpt lat="47.72775" lon="1.63669">
        <ele>86.1</ele>
        <time>2020-07-02T19:20:00Z</time>
      </trkpt>
      <trkpt lat="47.72772" lon="1.6366">
        <ele>86.2</ele>
        <time>2020-07-02T19:20:01Z</time>
      </trkpt>
      <trkpt lat="47.72767" lon="1.63651">
        <ele>86.2</ele>
        <time>2020-07-02T19:20:02Z</time>
      </trkpt>
      <trkpt lat="47.72764" lon="1.63641">
        <ele>86.3</ele>
        <time>2020-07-02T19:20:03Z</time>
      </trkpt>
      <trkpt lat="47.7276" lon="1.63632">
        <ele>86.4</ele>
        <time>2020-07-02T19:20:04Z</time>
      </trkpt>
      <trkpt lat="47.72756" lon="1.63623">
        <ele>86.5</ele>
        <time>2020-07-02T19:20:05Z</time>
      </trkpt>
      <trkpt lat="47.72752" lon="1.63614">
        <ele>86.6</ele>
        <time>2020-07-02T19:20:06Z</time>
      </trkpt>
      <trkpt lat="47.72747" lon="1.63605">
        <ele>86.7</ele>
        <time>2020-07-02T19:20:07Z</time>
      </trkpt>
      <trkpt lat="47.72743" lon="1.63597">
        <ele>86.8</ele>
        <time>2020-07-02T19:20:08Z</time>
      </trkpt>
      <trkpt lat="47.72739" lon="1.63588">
        <ele>86.9</ele>
        <time>2020-07-02T19:20:09Z</time>
      </trkpt>
      <trkpt lat="47.72736" lon="1.6358">
        <ele>87</ele>
        <time>2020-07-02T19:20:10Z</time>
      </trkpt>
      <trkpt lat="47.72732" lon="1.63571">
        <ele>87.1</ele>
        <time>2020-07-02T19:20:11Z</time>
      </trkpt>
      <trkpt lat="47.72728" lon="1.63563">
        <ele>87.3</ele>
        <time>2020-07-02T19:20:12Z</time>
      </trkpt>
      <trkpt lat="47.72725" lon="1.63554">
        <ele>87.4</ele>
        <time>2020-07-02T19:20:13Z</time>
      </trkpt>
      <trkpt lat="47.72721" lon="1.63547">
        <ele>87.5</ele>
        <time>2020-07-02T19:20:14Z</time>
      </trkpt>
      <trkpt lat="47.72717" lon="1.63539">
        <ele>87.6</ele>
        <time>2020-07-02T19:20:15Z</time>
      </trkpt>
      <trkpt lat="47.72713" lon="1.63532">
        <ele>87.6</ele>
        <time>2020-07-02T19:20:16Z</time>
      </trkpt>
      <trkpt lat="47.72709" lon="1.63524">
        <ele>87.7</ele>
        <time>2020-07-02T19:20:17Z</time>
      </trkpt>
      <trkpt lat="47.72705" lon="1.63515">
        <ele>87.7</ele>
        <time>2020-07-02T19:20:18Z</time>
      </trkpt>
      <trkpt lat="47.72702" lon="1.63507">
        <ele>87.8</ele>
        <time>2020-07-02T19:20:19Z</time>
      </trkpt>
      <trkpt lat="47.72698" lon="1.635">
        <ele>87.8</ele>
        <time>2020-07-02T19:20:20Z</time>
      </trkpt>
      <trkpt lat="47.72695" lon="1.63491">
        <ele>87.9</ele>
        <time>2020-07-02T19:20:21Z</time>
      </trkpt>
      <trkpt lat="47.72691" lon="1.63483">
        <ele>88</ele>
        <time>2020-07-02T19:20:22Z</time>
      </trkpt>
      <trkpt lat="47.72688" lon="1.63475">
        <ele>88.1</ele>
        <time>2020-07-02T19:20:23Z</time>
      </trkpt>
      <trkpt lat="47.72684" lon="1.63467">
        <ele>88.3</ele>
        <time>2020-07-02T19:20:24Z</time>
      </trkpt>
      <trkpt lat="47.72681" lon="1.63459">
        <ele>88.4</ele>
        <time>2020-07-02T19:20:25Z</time>
      </trkpt>
      <trkpt lat="47.72677" lon="1.63451">
        <ele>88.6</ele>
        <time>2020-07-02T19:20:26Z</time>
      </trkpt>
      <trkpt lat="47.72674" lon="1.63444">
        <ele>88.7</ele>
        <time>2020-07-02T19:20:27Z</time>
      </trkpt>
      <trkpt lat="47.7267" lon="1.63436">
        <ele>88.7</ele>
        <time>2020-07-02T19:20:28Z</time>
      </trkpt>
      <trkpt lat="47.72667" lon="1.63428">
        <ele>88.7</ele>
        <time>2020-07-02T19:20:29Z</time>
      </trkpt>
      <trkpt lat="47.72664" lon="1.63421">
        <ele>88.7</ele>
        <time>2020-07-02T19:20:30Z</time>
      </trkpt>
      <trkpt lat="47.7266" lon="1.63413">
        <ele>88.7</ele>
        <time>2020-07-02T19:20:31Z</time>
      </trkpt>
      <trkpt lat="47.72657" lon="1.63406">
        <ele>88.7</ele>
        <time>2020-07-02T19:20:32Z</time>
      </trkpt>
      <trkpt lat="47.72653" lon="1.63398">
        <ele>88.7</ele>
        <time>2020-07-02T19:20:33Z</time>
      </trkpt>
      <trkpt lat="47.7265" lon="1.6339">
        <ele>88.8</ele>
        <time>2020-07-02T19:20:34Z</time>
      </trkpt>
      <trkpt lat="47.72646" lon="1.63382">
        <ele>88.8</ele>
        <time>2020-07-02T19:20:35Z</time>
      </trkpt>
      <trkpt lat="47.72642" lon="1.63374">
        <ele>88.8</ele>
        <time>2020-07-02T19:20:36Z</time>
      </trkpt>
      <trkpt lat="47.72638" lon="1.63366">
        <ele>88.9</ele>
        <time>2020-07-02T19:20:37Z</time>
      </trkpt>
      <trkpt lat="47.72635" lon="1.63358">
        <ele>88.9</ele>
        <time>2020-07-02T19:20:38Z</time>
      </trkpt>
      <trkpt lat="47.72631" lon="1.63351">
        <ele>89</ele>
        <time>2020-07-02T19:20:39Z</time>
      </trkpt>
      <trkpt lat="47.72628" lon="1.63345">
        <ele>89</ele>
        <time>2020-07-02T19:20:40Z</time>
      </trkpt>
      <trkpt lat="47.72624" lon="1.63337">
        <ele>89</ele>
        <time>2020-07-02T19:20:41Z</time>
      </trkpt>
      <trkpt lat="47.72621" lon="1.6333">
        <ele>89.1</ele>
        <time>2020-07-02T19:20:42Z</time>
      </trkpt>
      <trkpt lat="47.72618" lon="1.63324">
        <ele>89.1</ele>
        <time>2020-07-02T19:20:43Z</time>
      </trkpt>
      <trkpt lat="47.72614" lon="1.63317">
        <ele>89.1</ele>
        <time>2020-07-02T19:20:44Z</time>
      </trkpt>
      <trkpt lat="47.72611" lon="1.63308">
        <ele>89.2</ele>
        <time>2020-07-02T19:20:45Z</time>
      </trkpt>
      <trkpt lat="47.72607" lon="1.63301">
        <ele>89.2</ele>
        <time>2020-07-02T19:20:46Z</time>
      </trkpt>
      <trkpt lat="47.72603" lon="1.63293">
        <ele>89.3</ele>
        <time>2020-07-02T19:20:47Z</time>
      </trkpt>
      <trkpt lat="47.726" lon="1.63286">
        <ele>89.3</ele>
        <time>2020-07-02T19:20:48Z</time>
      </trkpt>
      <trkpt lat="47.72597" lon="1.6328">
        <ele>89.3</ele>
        <time>2020-07-02T19:20:49Z</time>
      </trkpt>
      <trkpt lat="47.72593" lon="1.63272">
        <ele>89.3</ele>
        <time>2020-07-02T19:20:50Z</time>
      </trkpt>
      <trkpt lat="47.7259" lon="1.63265">
        <ele>89.3</ele>
        <time>2020-07-02T19:20:51Z</time>
      </trkpt>
      <trkpt lat="47.72586" lon="1.63258">
        <ele>89.3</ele>
        <time>2020-07-02T19:20:52Z</time>
      </trkpt>
      <trkpt lat="47.72583" lon="1.6325">
        <ele>89.2</ele>
        <time>2020-07-02T19:20:53Z</time>
      </trkpt>
      <trkpt lat="47.7258" lon="1.63243">
        <ele>89.2</ele>
        <time>2020-07-02T19:20:54Z</time>
      </trkpt>
      <trkpt lat="47.72577" lon="1.63235">
        <ele>89.1</ele>
        <time>2020-07-02T19:20:55Z</time>
      </trkpt>
      <trkpt lat="47.72573" lon="1.63227">
        <ele>89</ele>
        <time>2020-07-02T19:20:56Z</time>
      </trkpt>
      <trkpt lat="47.7257" lon="1.63219">
        <ele>88.9</ele>
        <time>2020-07-02T19:20:57Z</time>
      </trkpt>
      <trkpt lat="47.72566" lon="1.63212">
        <ele>88.8</ele>
        <time>2020-07-02T19:20:58Z</time>
      </trkpt>
      <trkpt lat="47.72563" lon="1.63203">
        <ele>88.6</ele>
        <time>2020-07-02T19:20:59Z</time>
      </trkpt>
      <trkpt lat="47.72559" lon="1.63195">
        <ele>88.5</ele>
        <time>2020-07-02T19:21:00Z</time>
      </trkpt>
      <trkpt lat="47.72555" lon="1.63186">
        <ele>88.1</ele>
        <time>2020-07-02T19:21:01Z</time>
      </trkpt>
      <trkpt lat="47.72551" lon="1.63178">
        <ele>88</ele>
        <time>2020-07-02T19:21:02Z</time>
      </trkpt>
      <trkpt lat="47.72547" lon="1.63169">
        <ele>87.8</ele>
        <time>2020-07-02T19:21:03Z</time>
      </trkpt>
      <trkpt lat="47.72543" lon="1.63161">
        <ele>87.6</ele>
        <time>2020-07-02T19:21:04Z</time>
      </trkpt>
      <trkpt lat="47.72539" lon="1.63154">
        <ele>87.4</ele>
        <time>2020-07-02T19:21:05Z</time>
      </trkpt>
      <trkpt lat="47.72534" lon="1.63145">
        <ele>87.2</ele>
        <time>2020-07-02T19:21:06Z</time>
      </trkpt>
      <trkpt lat="47.72529" lon="1.63135">
        <ele>87</ele>
        <time>2020-07-02T19:21:07Z</time>
      </trkpt>
      <trkpt lat="47.72526" lon="1.63127">
        <ele>86.9</ele>
        <time>2020-07-02T19:21:08Z</time>
      </trkpt>
      <trkpt lat="47.72522" lon="1.63119">
        <ele>86.7</ele>
        <time>2020-07-02T19:21:09Z</time>
      </trkpt>
      <trkpt lat="47.72518" lon="1.6311">
        <ele>86.5</ele>
        <time>2020-07-02T19:21:10Z</time>
      </trkpt>
      <trkpt lat="47.72513" lon="1.63102">
        <ele>86.4</ele>
        <time>2020-07-02T19:21:11Z</time>
      </trkpt>
      <trkpt lat="47.72508" lon="1.63092">
        <ele>86.2</ele>
        <time>2020-07-02T19:21:12Z</time>
      </trkpt>
      <trkpt lat="47.72503" lon="1.63084">
        <ele>86</ele>
        <time>2020-07-02T19:21:13Z</time>
      </trkpt>
      <trkpt lat="47.72499" lon="1.63075">
        <ele>85.9</ele>
        <time>2020-07-02T19:21:14Z</time>
      </trkpt>
      <trkpt lat="47.72494" lon="1.63065">
        <ele>85.7</ele>
        <time>2020-07-02T19:21:15Z</time>
      </trkpt>
      <trkpt lat="47.72489" lon="1.63054">
        <ele>85.5</ele>
        <time>2020-07-02T19:21:16Z</time>
      </trkpt>
      <trkpt lat="47.72484" lon="1.63044">
        <ele>85.4</ele>
        <time>2020-07-02T19:21:17Z</time>
      </trkpt>
      <trkpt lat="47.7248" lon="1.63035">
        <ele>85.2</ele>
        <time>2020-07-02T19:21:18Z</time>
      </trkpt>
      <trkpt lat="47.72475" lon="1.63024">
        <ele>85</ele>
        <time>2020-07-02T19:21:19Z</time>
      </trkpt>
      <trkpt lat="47.7247" lon="1.63014">
        <ele>84.9</ele>
        <time>2020-07-02T19:21:20Z</time>
      </trkpt>
      <trkpt lat="47.72465" lon="1.63004">
        <ele>84.7</ele>
        <time>2020-07-02T19:21:21Z</time>
      </trkpt>
      <trkpt lat="47.72461" lon="1.62993">
        <ele>84.5</ele>
        <time>2020-07-02T19:21:22Z</time>
      </trkpt>
      <trkpt lat="47.72456" lon="1.62983">
        <ele>84.3</ele>
        <time>2020-07-02T19:21:23Z</time>
      </trkpt>
      <trkpt lat="47.72451" lon="1.62973">
        <ele>84.2</ele>
        <time>2020-07-02T19:21:24Z</time>
      </trkpt>
      <trkpt lat="47.72447" lon="1.62963">
        <ele>84.2</ele>
        <time>2020-07-02T19:21:25Z</time>
      </trkpt>
      <trkpt lat="47.72442" lon="1.62953">
        <ele>84.2</ele>
        <time>2020-07-02T19:21:26Z</time>
      </trkpt>
      <trkpt lat="47.72438" lon="1.62943">
        <ele>84.2</ele>
        <time>2020-07-02T19:21:27Z</time>
      </trkpt>
      <trkpt lat="47.72433" lon="1.62934">
        <ele>84.2</ele>
        <time>2020-07-02T19:21:28Z</time>
      </trkpt>
      <trkpt lat="47.72428" lon="1.62924">
        <ele>84.3</ele>
        <time>2020-07-02T19:21:29Z</time>
      </trkpt>
      <trkpt lat="47.72424" lon="1.62915">
        <ele>84.4</ele>
        <time>2020-07-02T19:21:30Z</time>
      </trkpt>
      <trkpt lat="47.7242" lon="1.62905">
        <ele>84.5</ele>
        <time>2020-07-02T19:21:31Z</time>
      </trkpt>
      <trkpt lat="47.72416" lon="1.62896">
        <ele>84.6</ele>
        <time>2020-07-02T19:21:32Z</time>
      </trkpt>
      <trkpt lat="47.72412" lon="1.62887">
        <ele>84.7</ele>
        <time>2020-07-02T19:21:33Z</time>
      </trkpt>
      <trkpt lat="47.72408" lon="1.62879">
        <ele>84.9</ele>
        <time>2020-07-02T19:21:34Z</time>
      </trkpt>
      <trkpt lat="47.72404" lon="1.6287">
        <ele>85</ele>
        <time>2020-07-02T19:21:35Z</time>
      </trkpt>
      <trkpt lat="47.72401" lon="1.62861">
        <ele>85.1</ele>
        <time>2020-07-02T19:21:36Z</time>
      </trkpt>
      <trkpt lat="47.72397" lon="1.62853">
        <ele>85.2</ele>
        <time>2020-07-02T19:21:37Z</time>
      </trkpt>
      <trkpt lat="47.72394" lon="1.62845">
        <ele>85.4</ele>
        <time>2020-07-02T19:21:38Z</time>
      </trkpt>
      <trkpt lat="47.72391" lon="1.62837">
        <ele>85.5</ele>
        <time>2020-07-02T19:21:39Z</time>
      </trkpt>
      <trkpt lat="47.72387" lon="1.6283">
        <ele>85.7</ele>
        <time>2020-07-02T19:21:40Z</time>
      </trkpt>
      <trkpt lat="47.72384" lon="1.62822">
        <ele>85.8</ele>
        <time>2020-07-02T19:21:41Z</time>
      </trkpt>
      <trkpt lat="47.7238" lon="1.62813">
        <ele>86</ele>
        <time>2020-07-02T19:21:42Z</time>
      </trkpt>
      <trkpt lat="47.72377" lon="1.62805">
        <ele>86.1</ele>
        <time>2020-07-02T19:21:43Z</time>
      </trkpt>
      <trkpt lat="47.72374" lon="1.62798">
        <ele>86.2</ele>
        <time>2020-07-02T19:21:44Z</time>
      </trkpt>
      <trkpt lat="47.7237" lon="1.6279">
        <ele>86.4</ele>
        <time>2020-07-02T19:21:45Z</time>
      </trkpt>
      <trkpt lat="47.72367" lon="1.62782">
        <ele>86.6</ele>
        <time>2020-07-02T19:21:46Z</time>
      </trkpt>
      <trkpt lat="47.72363" lon="1.62775">
        <ele>86.7</ele>
        <time>2020-07-02T19:21:47Z</time>
      </trkpt>
      <trkpt lat="47.72359" lon="1.62768">
        <ele>86.9</ele>
        <time>2020-07-02T19:21:48Z</time>
      </trkpt>
      <trkpt lat="47.72356" lon="1.62761">
        <ele>87</ele>
        <time>2020-07-02T19:21:49Z</time>
      </trkpt>
      <trkpt lat="47.72353" lon="1.62754">
        <ele>87.1</ele>
        <time>2020-07-02T19:21:50Z</time>
      </trkpt>
      <trkpt lat="47.7235" lon="1.62747">
        <ele>87.2</ele>
        <time>2020-07-02T19:21:51Z</time>
      </trkpt>
      <trkpt lat="47.72346" lon="1.6274">
        <ele>87.4</ele>
        <time>2020-07-02T19:21:52Z</time>
      </trkpt>
      <trkpt lat="47.72343" lon="1.62732">
        <ele>87.6</ele>
        <time>2020-07-02T19:21:53Z</time>
      </trkpt>
      <trkpt lat="47.7234" lon="1.62725">
        <ele>87.7</ele>
        <time>2020-07-02T19:21:54Z</time>
      </trkpt>
      <trkpt lat="47.72336" lon="1.62718">
        <ele>87.9</ele>
        <time>2020-07-02T19:21:55Z</time>
      </trkpt>
      <trkpt lat="47.72333" lon="1.62711">
        <ele>88</ele>
        <time>2020-07-02T19:21:56Z</time>
      </trkpt>
      <trkpt lat="47.7233" lon="1.62705">
        <ele>88.1</ele>
        <time>2020-07-02T19:21:57Z</time>
      </trkpt>
      <trkpt lat="47.72328" lon="1.62699">
        <ele>88.2</ele>
        <time>2020-07-02T19:21:58Z</time>
      </trkpt>
      <trkpt lat="47.72325" lon="1.62692">
        <ele>88.3</ele>
        <time>2020-07-02T19:21:59Z</time>
      </trkpt>
      <trkpt lat="47.72321" lon="1.62685">
        <ele>88.4</ele>
        <time>2020-07-02T19:22:00Z</time>
      </trkpt>
      <trkpt lat="47.72318" lon="1.62677">
        <ele>88.5</ele>
        <time>2020-07-02T19:22:01Z</time>
      </trkpt>
      <trkpt lat="47.72315" lon="1.6267">
        <ele>88.6</ele>
        <time>2020-07-02T19:22:02Z</time>
      </trkpt>
      <trkpt lat="47.72312" lon="1.62664">
        <ele>88.6</ele>
        <time>2020-07-02T19:22:03Z</time>
      </trkpt>
      <trkpt lat="47.72309" lon="1.62658">
        <ele>88.7</ele>
        <time>2020-07-02T19:22:04Z</time>
      </trkpt>
      <trkpt lat="47.72307" lon="1.62651">
        <ele>88.7</ele>
        <time>2020-07-02T19:22:05Z</time>
      </trkpt>
      <trkpt lat="47.72304" lon="1.62644">
        <ele>88.7</ele>
        <time>2020-07-02T19:22:06Z</time>
      </trkpt>
      <trkpt lat="47.72301" lon="1.62637">
        <ele>88.8</ele>
        <time>2020-07-02T19:22:07Z</time>
      </trkpt>
      <trkpt lat="47.72298" lon="1.6263">
        <ele>88.8</ele>
        <time>2020-07-02T19:22:08Z</time>
      </trkpt>
      <trkpt lat="47.72295" lon="1.62623">
        <ele>88.8</ele>
        <time>2020-07-02T19:22:09Z</time>
      </trkpt>
      <trkpt lat="47.72291" lon="1.62616">
        <ele>88.8</ele>
        <time>2020-07-02T19:22:10Z</time>
      </trkpt>
      <trkpt lat="47.72288" lon="1.6261">
        <ele>88.9</ele>
        <time>2020-07-02T19:22:11Z</time>
      </trkpt>
      <trkpt lat="47.72285" lon="1.62603">
        <ele>88.9</ele>
        <time>2020-07-02T19:22:12Z</time>
      </trkpt>
      <trkpt lat="47.72282" lon="1.62596">
        <ele>88.9</ele>
        <time>2020-07-02T19:22:13Z</time>
      </trkpt>
      <trkpt lat="47.72278" lon="1.62588">
        <ele>88.9</ele>
        <time>2020-07-02T19:22:14Z</time>
      </trkpt>
      <trkpt lat="47.72274" lon="1.62579">
        <ele>88.9</ele>
        <time>2020-07-02T19:22:15Z</time>
      </trkpt>
      <trkpt lat="47.7227" lon="1.62571">
        <ele>88.9</ele>
        <time>2020-07-02T19:22:16Z</time>
      </trkpt>
      <trkpt lat="47.72267" lon="1.62563">
        <ele>88.9</ele>
        <time>2020-07-02T19:22:17Z</time>
      </trkpt>
      <trkpt lat="47.72264" lon="1.62556">
        <ele>88.9</ele>
        <time>2020-07-02T19:22:18Z</time>
      </trkpt>
      <trkpt lat="47.7226" lon="1.62549">
        <ele>89</ele>
        <time>2020-07-02T19:22:19Z</time>
      </trkpt>
      <trkpt lat="47.72257" lon="1.62542">
        <ele>89</ele>
        <time>2020-07-02T19:22:20Z</time>
      </trkpt>
      <trkpt lat="47.72254" lon="1.62535">
        <ele>89</ele>
        <time>2020-07-02T19:22:21Z</time>
      </trkpt>
      <trkpt lat="47.7225" lon="1.62527">
        <ele>89.1</ele>
        <time>2020-07-02T19:22:22Z</time>
      </trkpt>
      <trkpt lat="47.72247" lon="1.62519">
        <ele>89.2</ele>
        <time>2020-07-02T19:22:23Z</time>
      </trkpt>
      <trkpt lat="47.72243" lon="1.62512">
        <ele>89.2</ele>
        <time>2020-07-02T19:22:24Z</time>
      </trkpt>
      <trkpt lat="47.7224" lon="1.62505">
        <ele>89.2</ele>
        <time>2020-07-02T19:22:25Z</time>
      </trkpt>
      <trkpt lat="47.72236" lon="1.62497">
        <ele>89.3</ele>
        <time>2020-07-02T19:22:26Z</time>
      </trkpt>
      <trkpt lat="47.72233" lon="1.62489">
        <ele>89.3</ele>
        <time>2020-07-02T19:22:27Z</time>
      </trkpt>
      <trkpt lat="47.72229" lon="1.62482">
        <ele>89.3</ele>
        <time>2020-07-02T19:22:28Z</time>
      </trkpt>
      <trkpt lat="47.72225" lon="1.62471">
        <ele>89.4</ele>
        <time>2020-07-02T19:22:29Z</time>
      </trkpt>
      <trkpt lat="47.72221" lon="1.62462">
        <ele>89.4</ele>
        <time>2020-07-02T19:22:30Z</time>
      </trkpt>
      <trkpt lat="47.72218" lon="1.62454">
        <ele>89.4</ele>
        <time>2020-07-02T19:22:31Z</time>
      </trkpt>
      <trkpt lat="47.72214" lon="1.62446">
        <ele>89.4</ele>
        <time>2020-07-02T19:22:32Z</time>
      </trkpt>
      <trkpt lat="47.72211" lon="1.62439">
        <ele>89.5</ele>
        <time>2020-07-02T19:22:33Z</time>
      </trkpt>
      <trkpt lat="47.72207" lon="1.62432">
        <ele>89.5</ele>
        <time>2020-07-02T19:22:34Z</time>
      </trkpt>
      <trkpt lat="47.72203" lon="1.62424">
        <ele>89.5</ele>
        <time>2020-07-02T19:22:35Z</time>
      </trkpt>
      <trkpt lat="47.72199" lon="1.62417">
        <ele>89.5</ele>
        <time>2020-07-02T19:22:36Z</time>
      </trkpt>
      <trkpt lat="47.72196" lon="1.62409">
        <ele>89.5</ele>
        <time>2020-07-02T19:22:37Z</time>
      </trkpt>
      <trkpt lat="47.72192" lon="1.62401">
        <ele>89.5</ele>
        <time>2020-07-02T19:22:38Z</time>
      </trkpt>
      <trkpt lat="47.72188" lon="1.62393">
        <ele>89.5</ele>
        <time>2020-07-02T19:22:39Z</time>
      </trkpt>
      <trkpt lat="47.72185" lon="1.62385">
        <ele>89.5</ele>
        <time>2020-07-02T19:22:40Z</time>
      </trkpt>
      <trkpt lat="47.72181" lon="1.62378">
        <ele>89.5</ele>
        <time>2020-07-02T19:22:41Z</time>
      </trkpt>
      <trkpt lat="47.72177" lon="1.62372">
        <ele>89.4</ele>
        <time>2020-07-02T19:22:42Z</time>
      </trkpt>
      <trkpt lat="47.72174" lon="1.62364">
        <ele>89.4</ele>
        <time>2020-07-02T19:22:43Z</time>
      </trkpt>
      <trkpt lat="47.7217" lon="1.62356">
        <ele>89.4</ele>
        <time>2020-07-02T19:22:44Z</time>
      </trkpt>
      <trkpt lat="47.72167" lon="1.62349">
        <ele>89.4</ele>
        <time>2020-07-02T19:22:45Z</time>
      </trkpt>
      <trkpt lat="47.72163" lon="1.62339">
        <ele>89.4</ele>
        <time>2020-07-02T19:22:46Z</time>
      </trkpt>
      <trkpt lat="47.72159" lon="1.62331">
        <ele>89.4</ele>
        <time>2020-07-02T19:22:47Z</time>
      </trkpt>
      <trkpt lat="47.72155" lon="1.62322">
        <ele>89.4</ele>
        <time>2020-07-02T19:22:48Z</time>
      </trkpt>
      <trkpt lat="47.72152" lon="1.62315">
        <ele>89.5</ele>
        <time>2020-07-02T19:22:49Z</time>
      </trkpt>
      <trkpt lat="47.72148" lon="1.62306">
        <ele>89.5</ele>
        <time>2020-07-02T19:22:50Z</time>
      </trkpt>
      <trkpt lat="47.72144" lon="1.62301">
        <ele>89.5</ele>
        <time>2020-07-02T19:22:51Z</time>
      </trkpt>
      <trkpt lat="47.7214" lon="1.62294">
        <ele>89.4</ele>
        <time>2020-07-02T19:22:52Z</time>
      </trkpt>
      <trkpt lat="47.72136" lon="1.62286">
        <ele>89.4</ele>
        <time>2020-07-02T19:22:53Z</time>
      </trkpt>
      <trkpt lat="47.72133" lon="1.62277">
        <ele>89.4</ele>
        <time>2020-07-02T19:22:54Z</time>
      </trkpt>
      <trkpt lat="47.72128" lon="1.6227">
        <ele>89.4</ele>
        <time>2020-07-02T19:22:55Z</time>
      </trkpt>
      <trkpt lat="47.72125" lon="1.62262">
        <ele>89.4</ele>
        <time>2020-07-02T19:22:56Z</time>
      </trkpt>
      <trkpt lat="47.72121" lon="1.62253">
        <ele>89.4</ele>
        <time>2020-07-02T19:22:57Z</time>
      </trkpt>
      <trkpt lat="47.72117" lon="1.62244">
        <ele>89.4</ele>
        <time>2020-07-02T19:22:58Z</time>
      </trkpt>
      <trkpt lat="47.72113" lon="1.62236">
        <ele>89.5</ele>
        <time>2020-07-02T19:22:59Z</time>
      </trkpt>
      <trkpt lat="47.7211" lon="1.62229">
        <ele>89.5</ele>
        <time>2020-07-02T19:23:00Z</time>
      </trkpt>
      <trkpt lat="47.72106" lon="1.62222">
        <ele>89.5</ele>
        <time>2020-07-02T19:23:01Z</time>
      </trkpt>
      <trkpt lat="47.72103" lon="1.62215">
        <ele>89.5</ele>
        <time>2020-07-02T19:23:02Z</time>
      </trkpt>
      <trkpt lat="47.72099" lon="1.62208">
        <ele>89.4</ele>
        <time>2020-07-02T19:23:03Z</time>
      </trkpt>
      <trkpt lat="47.72096" lon="1.62201">
        <ele>89.4</ele>
        <time>2020-07-02T19:23:04Z</time>
      </trkpt>
      <trkpt lat="47.72092" lon="1.62193">
        <ele>89.4</ele>
        <time>2020-07-02T19:23:05Z</time>
      </trkpt>
      <trkpt lat="47.72089" lon="1.62186">
        <ele>89.4</ele>
        <time>2020-07-02T19:23:06Z</time>
      </trkpt>
      <trkpt lat="47.72085" lon="1.62178">
        <ele>89.4</ele>
        <time>2020-07-02T19:23:07Z</time>
      </trkpt>
      <trkpt lat="47.72081" lon="1.62169">
        <ele>89.4</ele>
        <time>2020-07-02T19:23:08Z</time>
      </trkpt>
      <trkpt lat="47.72078" lon="1.62163">
        <ele>89.4</ele>
        <time>2020-07-02T19:23:09Z</time>
      </trkpt>
      <trkpt lat="47.72074" lon="1.62155">
        <ele>89.4</ele>
        <time>2020-07-02T19:23:10Z</time>
      </trkpt>
      <trkpt lat="47.72071" lon="1.62149">
        <ele>89.4</ele>
        <time>2020-07-02T19:23:11Z</time>
      </trkpt>
      <trkpt lat="47.72068" lon="1.62141">
        <ele>89.4</ele>
        <time>2020-07-02T19:23:12Z</time>
      </trkpt>
      <trkpt lat="47.72065" lon="1.62134">
        <ele>89.3</ele>
        <time>2020-07-02T19:23:13Z</time>
      </trkpt>
      <trkpt lat="47.72061" lon="1.62125">
        <ele>89.2</ele>
        <time>2020-07-02T19:23:14Z</time>
      </trkpt>
      <trkpt lat="47.72058" lon="1.62118">
        <ele>89</ele>
        <time>2020-07-02T19:23:15Z</time>
      </trkpt>
      <trkpt lat="47.72054" lon="1.6211">
        <ele>89.1</ele>
        <time>2020-07-02T19:23:16Z</time>
      </trkpt>
      <trkpt lat="47.72051" lon="1.62102">
        <ele>89.1</ele>
        <time>2020-07-02T19:23:17Z</time>
      </trkpt>
      <trkpt lat="47.72047" lon="1.62094">
        <ele>89.1</ele>
        <time>2020-07-02T19:23:18Z</time>
      </trkpt>
      <trkpt lat="47.72044" lon="1.62088">
        <ele>89.1</ele>
        <time>2020-07-02T19:23:19Z</time>
      </trkpt>
      <trkpt lat="47.72041" lon="1.62082">
        <ele>89.1</ele>
        <time>2020-07-02T19:23:20Z</time>
      </trkpt>
      <trkpt lat="47.72038" lon="1.62075">
        <ele>89.1</ele>
        <time>2020-07-02T19:23:21Z</time>
      </trkpt>
      <trkpt lat="47.72035" lon="1.62069">
        <ele>89</ele>
        <time>2020-07-02T19:23:22Z</time>
      </trkpt>
      <trkpt lat="47.72033" lon="1.62062">
        <ele>89</ele>
        <time>2020-07-02T19:23:23Z</time>
      </trkpt>
      <trkpt lat="47.7203" lon="1.62055">
        <ele>88.9</ele>
        <time>2020-07-02T19:23:24Z</time>
      </trkpt>
      <trkpt lat="47.72028" lon="1.62049">
        <ele>88.9</ele>
        <time>2020-07-02T19:23:25Z</time>
      </trkpt>
      <trkpt lat="47.72024" lon="1.62042">
        <ele>88.8</ele>
        <time>2020-07-02T19:23:26Z</time>
      </trkpt>
      <trkpt lat="47.72021" lon="1.62035">
        <ele>88.7</ele>
        <time>2020-07-02T19:23:27Z</time>
      </trkpt>
      <trkpt lat="47.72017" lon="1.62028">
        <ele>88.6</ele>
        <time>2020-07-02T19:23:28Z</time>
      </trkpt>
      <trkpt lat="47.72014" lon="1.62021">
        <ele>88.5</ele>
        <time>2020-07-02T19:23:29Z</time>
      </trkpt>
      <trkpt lat="47.7201" lon="1.62011">
        <ele>88.3</ele>
        <time>2020-07-02T19:23:30Z</time>
      </trkpt>
      <trkpt lat="47.72006" lon="1.62001">
        <ele>88.1</ele>
        <time>2020-07-02T19:23:31Z</time>
      </trkpt>
      <trkpt lat="47.72002" lon="1.61992">
        <ele>87.8</ele>
        <time>2020-07-02T19:23:32Z</time>
      </trkpt>
      <trkpt lat="47.71997" lon="1.6198">
        <ele>87.5</ele>
        <time>2020-07-02T19:23:33Z</time>
      </trkpt>
      <trkpt lat="47.71993" lon="1.6197">
        <ele>87.3</ele>
        <time>2020-07-02T19:23:34Z</time>
      </trkpt>
      <trkpt lat="47.71989" lon="1.6196">
        <ele>87</ele>
        <time>2020-07-02T19:23:35Z</time>
      </trkpt>
      <trkpt lat="47.71984" lon="1.6195">
        <ele>86.8</ele>
        <time>2020-07-02T19:23:36Z</time>
      </trkpt>
      <trkpt lat="47.7198" lon="1.61941">
        <ele>86.6</ele>
        <time>2020-07-02T19:23:37Z</time>
      </trkpt>
      <trkpt lat="47.71976" lon="1.61931">
        <ele>86.4</ele>
        <time>2020-07-02T19:23:38Z</time>
      </trkpt>
      <trkpt lat="47.71972" lon="1.61921">
        <ele>86.2</ele>
        <time>2020-07-02T19:23:39Z</time>
      </trkpt>
      <trkpt lat="47.71968" lon="1.61912">
        <ele>86.1</ele>
        <time>2020-07-02T19:23:40Z</time>
      </trkpt>
      <trkpt lat="47.71964" lon="1.61902">
        <ele>86</ele>
        <time>2020-07-02T19:23:41Z</time>
      </trkpt>
      <trkpt lat="47.71961" lon="1.61892">
        <ele>85.8</ele>
        <time>2020-07-02T19:23:42Z</time>
      </trkpt>
      <trkpt lat="47.71957" lon="1.61883">
        <ele>85.7</ele>
        <time>2020-07-02T19:23:43Z</time>
      </trkpt>
      <trkpt lat="47.71952" lon="1.61873">
        <ele>85.6</ele>
        <time>2020-07-02T19:23:44Z</time>
      </trkpt>
      <trkpt lat="47.71948" lon="1.61864">
        <ele>85.4</ele>
        <time>2020-07-02T19:23:45Z</time>
      </trkpt>
      <trkpt lat="47.71944" lon="1.61855">
        <ele>85.3</ele>
        <time>2020-07-02T19:23:46Z</time>
      </trkpt>
      <trkpt lat="47.7194" lon="1.61846">
        <ele>85.2</ele>
        <time>2020-07-02T19:23:47Z</time>
      </trkpt>
      <trkpt lat="47.71937" lon="1.61836">
        <ele>85.1</ele>
        <time>2020-07-02T19:23:48Z</time>
      </trkpt>
      <trkpt lat="47.71933" lon="1.61826">
        <ele>85.1</ele>
        <time>2020-07-02T19:23:49Z</time>
      </trkpt>
      <trkpt lat="47.71929" lon="1.61817">
        <ele>85.1</ele>
        <time>2020-07-02T19:23:50Z</time>
      </trkpt>
      <trkpt lat="47.71926" lon="1.61808">
        <ele>85.1</ele>
        <time>2020-07-02T19:23:51Z</time>
      </trkpt>
      <trkpt lat="47.71922" lon="1.61799">
        <ele>85.1</ele>
        <time>2020-07-02T19:23:52Z</time>
      </trkpt>
      <trkpt lat="47.71918" lon="1.6179">
        <ele>85.1</ele>
        <time>2020-07-02T19:23:53Z</time>
      </trkpt>
      <trkpt lat="47.71914" lon="1.61782">
        <ele>85.1</ele>
        <time>2020-07-02T19:23:54Z</time>
      </trkpt>
      <trkpt lat="47.7191" lon="1.61774">
        <ele>85.2</ele>
        <time>2020-07-02T19:23:55Z</time>
      </trkpt>
      <trkpt lat="47.71907" lon="1.61765">
        <ele>85.4</ele>
        <time>2020-07-02T19:23:56Z</time>
      </trkpt>
      <trkpt lat="47.71904" lon="1.61757">
        <ele>85.5</ele>
        <time>2020-07-02T19:23:57Z</time>
      </trkpt>
      <trkpt lat="47.71901" lon="1.61748">
        <ele>86</ele>
        <time>2020-07-02T19:23:58Z</time>
      </trkpt>
      <trkpt lat="47.71898" lon="1.6174">
        <ele>85.9</ele>
        <time>2020-07-02T19:23:59Z</time>
      </trkpt>
      <trkpt lat="47.71895" lon="1.61732">
        <ele>85.7</ele>
        <time>2020-07-02T19:24:00Z</time>
      </trkpt>
      <trkpt lat="47.71891" lon="1.61725">
        <ele>85.7</ele>
        <time>2020-07-02T19:24:01Z</time>
      </trkpt>
      <trkpt lat="47.71887" lon="1.61717">
        <ele>85.8</ele>
        <time>2020-07-02T19:24:02Z</time>
      </trkpt>
      <trkpt lat="47.71883" lon="1.6171">
        <ele>85.9</ele>
        <time>2020-07-02T19:24:03Z</time>
      </trkpt>
      <trkpt lat="47.7188" lon="1.61702">
        <ele>86</ele>
        <time>2020-07-02T19:24:04Z</time>
      </trkpt>
      <trkpt lat="47.71877" lon="1.61694">
        <ele>86.1</ele>
        <time>2020-07-02T19:24:05Z</time>
      </trkpt>
      <trkpt lat="47.71874" lon="1.61687">
        <ele>86.2</ele>
        <time>2020-07-02T19:24:06Z</time>
      </trkpt>
      <trkpt lat="47.71871" lon="1.6168">
        <ele>86.3</ele>
        <time>2020-07-02T19:24:07Z</time>
      </trkpt>
      <trkpt lat="47.71867" lon="1.61672">
        <ele>86.4</ele>
        <time>2020-07-02T19:24:08Z</time>
      </trkpt>
      <trkpt lat="47.71864" lon="1.61665">
        <ele>86.4</ele>
        <time>2020-07-02T19:24:09Z</time>
      </trkpt>
      <trkpt lat="47.71861" lon="1.61658">
        <ele>86.5</ele>
        <time>2020-07-02T19:24:10Z</time>
      </trkpt>
      <trkpt lat="47.71857" lon="1.61652">
        <ele>86.5</ele>
        <time>2020-07-02T19:24:11Z</time>
      </trkpt>
      <trkpt lat="47.71854" lon="1.61645">
        <ele>86.6</ele>
        <time>2020-07-02T19:24:12Z</time>
      </trkpt>
      <trkpt lat="47.7185" lon="1.61638">
        <ele>86.8</ele>
        <time>2020-07-02T19:24:13Z</time>
      </trkpt>
      <trkpt lat="47.71847" lon="1.61631">
        <ele>86.9</ele>
        <time>2020-07-02T19:24:14Z</time>
      </trkpt>
      <trkpt lat="47.71845" lon="1.61624">
        <ele>87.1</ele>
        <time>2020-07-02T19:24:15Z</time>
      </trkpt>
      <trkpt lat="47.71842" lon="1.61617">
        <ele>87.2</ele>
        <time>2020-07-02T19:24:16Z</time>
      </trkpt>
      <trkpt lat="47.71838" lon="1.6161">
        <ele>87.4</ele>
        <time>2020-07-02T19:24:17Z</time>
      </trkpt>
      <trkpt lat="47.71835" lon="1.61602">
        <ele>87.5</ele>
        <time>2020-07-02T19:24:18Z</time>
      </trkpt>
      <trkpt lat="47.71832" lon="1.61595">
        <ele>87.5</ele>
        <time>2020-07-02T19:24:19Z</time>
      </trkpt>
      <trkpt lat="47.7183" lon="1.61587">
        <ele>87.5</ele>
        <time>2020-07-02T19:24:20Z</time>
      </trkpt>
      <trkpt lat="47.71826" lon="1.6158">
        <ele>87.5</ele>
        <time>2020-07-02T19:24:21Z</time>
      </trkpt>
      <trkpt lat="47.71824" lon="1.61572">
        <ele>87.6</ele>
        <time>2020-07-02T19:24:22Z</time>
      </trkpt>
      <trkpt lat="47.7182" lon="1.61566">
        <ele>87.6</ele>
        <time>2020-07-02T19:24:23Z</time>
      </trkpt>
      <trkpt lat="47.71816" lon="1.61559">
        <ele>87.7</ele>
        <time>2020-07-02T19:24:24Z</time>
      </trkpt>
      <trkpt lat="47.71813" lon="1.61552">
        <ele>87.8</ele>
        <time>2020-07-02T19:24:25Z</time>
      </trkpt>
      <trkpt lat="47.7181" lon="1.61545">
        <ele>87.9</ele>
        <time>2020-07-02T19:24:26Z</time>
      </trkpt>
      <trkpt lat="47.71807" lon="1.61539">
        <ele>88</ele>
        <time>2020-07-02T19:24:27Z</time>
      </trkpt>
      <trkpt lat="47.71804" lon="1.61532">
        <ele>88</ele>
        <time>2020-07-02T19:24:28Z</time>
      </trkpt>
      <trkpt lat="47.71801" lon="1.61526">
        <ele>88.1</ele>
        <time>2020-07-02T19:24:29Z</time>
      </trkpt>
      <trkpt lat="47.71799" lon="1.61518">
        <ele>88.2</ele>
        <time>2020-07-02T19:24:30Z</time>
      </trkpt>
      <trkpt lat="47.71796" lon="1.61511">
        <ele>88.2</ele>
        <time>2020-07-02T19:24:31Z</time>
      </trkpt>
      <trkpt lat="47.71793" lon="1.61504">
        <ele>88.3</ele>
        <time>2020-07-02T19:24:32Z</time>
      </trkpt>
      <trkpt lat="47.71789" lon="1.61497">
        <ele>88.3</ele>
        <time>2020-07-02T19:24:33Z</time>
      </trkpt>
      <trkpt lat="47.71786" lon="1.61491">
        <ele>88.3</ele>
        <time>2020-07-02T19:24:34Z</time>
      </trkpt>
      <trkpt lat="47.71783" lon="1.61483">
        <ele>88.3</ele>
        <time>2020-07-02T19:24:35Z</time>
      </trkpt>
      <trkpt lat="47.7178" lon="1.61476">
        <ele>88.4</ele>
        <time>2020-07-02T19:24:36Z</time>
      </trkpt>
      <trkpt lat="47.71778" lon="1.61468">
        <ele>88.4</ele>
        <time>2020-07-02T19:24:37Z</time>
      </trkpt>
      <trkpt lat="47.71775" lon="1.61461">
        <ele>88.5</ele>
        <time>2020-07-02T19:24:38Z</time>
      </trkpt>
      <trkpt lat="47.71773" lon="1.61454">
        <ele>88.5</ele>
        <time>2020-07-02T19:24:39Z</time>
      </trkpt>
      <trkpt lat="47.71771" lon="1.61447">
        <ele>88.6</ele>
        <time>2020-07-02T19:24:40Z</time>
      </trkpt>
      <trkpt lat="47.71768" lon="1.61441">
        <ele>88.6</ele>
        <time>2020-07-02T19:24:41Z</time>
      </trkpt>
      <trkpt lat="47.71764" lon="1.61434">
        <ele>88.5</ele>
        <time>2020-07-02T19:24:42Z</time>
      </trkpt>
      <trkpt lat="47.71762" lon="1.61427">
        <ele>88.5</ele>
        <time>2020-07-02T19:24:43Z</time>
      </trkpt>
      <trkpt lat="47.71759" lon="1.6142">
        <ele>88.5</ele>
        <time>2020-07-02T19:24:44Z</time>
      </trkpt>
      <trkpt lat="47.71757" lon="1.61413">
        <ele>88.4</ele>
        <time>2020-07-02T19:24:45Z</time>
      </trkpt>
      <trkpt lat="47.71755" lon="1.61405">
        <ele>88.4</ele>
        <time>2020-07-02T19:24:46Z</time>
      </trkpt>
      <trkpt lat="47.71754" lon="1.61396">
        <ele>88.3</ele>
        <time>2020-07-02T19:24:47Z</time>
      </trkpt>
      <trkpt lat="47.71752" lon="1.61387">
        <ele>88.3</ele>
        <time>2020-07-02T19:24:48Z</time>
      </trkpt>
      <trkpt lat="47.71752" lon="1.61378">
        <ele>88.3</ele>
        <time>2020-07-02T19:24:49Z</time>
      </trkpt>
      <trkpt lat="47.71751" lon="1.61369">
        <ele>88.2</ele>
        <time>2020-07-02T19:24:50Z</time>
      </trkpt>
      <trkpt lat="47.7175" lon="1.6136">
        <ele>88.2</ele>
        <time>2020-07-02T19:24:51Z</time>
      </trkpt>
      <trkpt lat="47.71748" lon="1.61351">
        <ele>88.2</ele>
        <time>2020-07-02T19:24:52Z</time>
      </trkpt>
      <trkpt lat="47.71748" lon="1.61342">
        <ele>88.2</ele>
        <time>2020-07-02T19:24:53Z</time>
      </trkpt>
      <trkpt lat="47.71747" lon="1.61333">
        <ele>88.2</ele>
        <time>2020-07-02T19:24:54Z</time>
      </trkpt>
      <trkpt lat="47.71747" lon="1.61324">
        <ele>88.2</ele>
        <time>2020-07-02T19:24:55Z</time>
      </trkpt>
      <trkpt lat="47.71746" lon="1.61315">
        <ele>88.2</ele>
        <time>2020-07-02T19:24:56Z</time>
      </trkpt>
      <trkpt lat="47.71746" lon="1.61306">
        <ele>88.2</ele>
        <time>2020-07-02T19:24:57Z</time>
      </trkpt>
      <trkpt lat="47.71745" lon="1.61297">
        <ele>88.2</ele>
        <time>2020-07-02T19:24:58Z</time>
      </trkpt>
      <trkpt lat="47.71745" lon="1.61288">
        <ele>88.2</ele>
        <time>2020-07-02T19:24:59Z</time>
      </trkpt>
      <trkpt lat="47.71745" lon="1.61279">
        <ele>88.3</ele>
        <time>2020-07-02T19:25:00Z</time>
      </trkpt>
      <trkpt lat="47.71744" lon="1.6127">
        <ele>88.3</ele>
        <time>2020-07-02T19:25:01Z</time>
      </trkpt>
      <trkpt lat="47.71744" lon="1.61262">
        <ele>88.3</ele>
        <time>2020-07-02T19:25:02Z</time>
      </trkpt>
      <trkpt lat="47.71744" lon="1.61253">
        <ele>88.3</ele>
        <time>2020-07-02T19:25:03Z</time>
      </trkpt>
      <trkpt lat="47.71744" lon="1.61245">
        <ele>88.3</ele>
        <time>2020-07-02T19:25:04Z</time>
      </trkpt>
      <trkpt lat="47.71742" lon="1.61237">
        <ele>88.3</ele>
        <time>2020-07-02T19:25:05Z</time>
      </trkpt>
      <trkpt lat="47.71742" lon="1.6123">
        <ele>88.4</ele>
        <time>2020-07-02T19:25:06Z</time>
      </trkpt>
      <trkpt lat="47.7174" lon="1.61222">
        <ele>88.4</ele>
        <time>2020-07-02T19:25:07Z</time>
      </trkpt>
      <trkpt lat="47.71737" lon="1.61215">
        <ele>88.4</ele>
        <time>2020-07-02T19:25:08Z</time>
      </trkpt>
      <trkpt lat="47.71733" lon="1.61209">
        <ele>88.4</ele>
        <time>2020-07-02T19:25:09Z</time>
      </trkpt>
      <trkpt lat="47.71729" lon="1.61203">
        <ele>88.4</ele>
        <time>2020-07-02T19:25:10Z</time>
      </trkpt>
      <trkpt lat="47.71726" lon="1.61197">
        <ele>88.5</ele>
        <time>2020-07-02T19:25:11Z</time>
      </trkpt>
      <trkpt lat="47.71722" lon="1.61191">
        <ele>88.5</ele>
        <time>2020-07-02T19:25:12Z</time>
      </trkpt>
      <trkpt lat="47.71717" lon="1.61186">
        <ele>88.5</ele>
        <time>2020-07-02T19:25:13Z</time>
      </trkpt>
      <trkpt lat="47.71714" lon="1.6118">
        <ele>88.5</ele>
        <time>2020-07-02T19:25:14Z</time>
      </trkpt>
      <trkpt lat="47.7171" lon="1.61175">
        <ele>88.6</ele>
        <time>2020-07-02T19:25:15Z</time>
      </trkpt>
      <trkpt lat="47.71705" lon="1.61171">
        <ele>88.6</ele>
        <time>2020-07-02T19:25:16Z</time>
      </trkpt>
      <trkpt lat="47.71702" lon="1.61164">
        <ele>88.6</ele>
        <time>2020-07-02T19:25:17Z</time>
      </trkpt>
      <trkpt lat="47.71698" lon="1.61158">
        <ele>88.7</ele>
        <time>2020-07-02T19:25:18Z</time>
      </trkpt>
      <trkpt lat="47.71695" lon="1.61152">
        <ele>88.7</ele>
        <time>2020-07-02T19:25:19Z</time>
      </trkpt>
      <trkpt lat="47.71691" lon="1.61146">
        <ele>88.7</ele>
        <time>2020-07-02T19:25:20Z</time>
      </trkpt>
      <trkpt lat="47.71686" lon="1.61141">
        <ele>88.7</ele>
        <time>2020-07-02T19:25:21Z</time>
      </trkpt>
      <trkpt lat="47.71683" lon="1.61135">
        <ele>88.7</ele>
        <time>2020-07-02T19:25:22Z</time>
      </trkpt>
      <trkpt lat="47.7168" lon="1.61128">
        <ele>88.7</ele>
        <time>2020-07-02T19:25:23Z</time>
      </trkpt>
      <trkpt lat="47.71677" lon="1.6112">
        <ele>88.6</ele>
        <time>2020-07-02T19:25:24Z</time>
      </trkpt>
      <trkpt lat="47.71673" lon="1.61113">
        <ele>88.6</ele>
        <time>2020-07-02T19:25:25Z</time>
      </trkpt>
      <trkpt lat="47.7167" lon="1.61105">
        <ele>88.6</ele>
        <time>2020-07-02T19:25:26Z</time>
      </trkpt>
      <trkpt lat="47.71666" lon="1.61098">
        <ele>88.6</ele>
        <time>2020-07-02T19:25:27Z</time>
      </trkpt>
      <trkpt lat="47.71662" lon="1.61091">
        <ele>88.6</ele>
        <time>2020-07-02T19:25:28Z</time>
      </trkpt>
      <trkpt lat="47.71659" lon="1.61083">
        <ele>88.6</ele>
        <time>2020-07-02T19:25:29Z</time>
      </trkpt>
      <trkpt lat="47.71655" lon="1.61077">
        <ele>88.6</ele>
        <time>2020-07-02T19:25:30Z</time>
      </trkpt>
      <trkpt lat="47.71651" lon="1.61069">
        <ele>88.6</ele>
        <time>2020-07-02T19:25:31Z</time>
      </trkpt>
      <trkpt lat="47.71647" lon="1.61062">
        <ele>88.6</ele>
        <time>2020-07-02T19:25:32Z</time>
      </trkpt>
      <trkpt lat="47.71644" lon="1.61054">
        <ele>88.6</ele>
        <time>2020-07-02T19:25:33Z</time>
      </trkpt>
      <trkpt lat="47.7164" lon="1.61047">
        <ele>88.7</ele>
        <time>2020-07-02T19:25:34Z</time>
      </trkpt>
      <trkpt lat="47.71637" lon="1.61039">
        <ele>88.7</ele>
        <time>2020-07-02T19:25:35Z</time>
      </trkpt>
      <trkpt lat="47.71633" lon="1.61032">
        <ele>88.7</ele>
        <time>2020-07-02T19:25:36Z</time>
      </trkpt>
      <trkpt lat="47.71629" lon="1.61025">
        <ele>88.7</ele>
        <time>2020-07-02T19:25:37Z</time>
      </trkpt>
      <trkpt lat="47.71625" lon="1.61018">
        <ele>88.8</ele>
        <time>2020-07-02T19:25:38Z</time>
      </trkpt>
      <trkpt lat="47.71621" lon="1.61012">
        <ele>88.8</ele>
        <time>2020-07-02T19:25:39Z</time>
      </trkpt>
      <trkpt lat="47.71617" lon="1.61005">
        <ele>88.8</ele>
        <time>2020-07-02T19:25:40Z</time>
      </trkpt>
      <trkpt lat="47.71615" lon="1.60996">
        <ele>88.8</ele>
        <time>2020-07-02T19:25:41Z</time>
      </trkpt>
      <trkpt lat="47.71611" lon="1.6099">
        <ele>88.7</ele>
        <time>2020-07-02T19:25:42Z</time>
      </trkpt>
      <trkpt lat="47.71607" lon="1.60983">
        <ele>88.7</ele>
        <time>2020-07-02T19:25:43Z</time>
      </trkpt>
      <trkpt lat="47.71603" lon="1.60977">
        <ele>88.7</ele>
        <time>2020-07-02T19:25:44Z</time>
      </trkpt>
      <trkpt lat="47.71599" lon="1.6097">
        <ele>88.6</ele>
        <time>2020-07-02T19:25:45Z</time>
      </trkpt>
      <trkpt lat="47.71595" lon="1.60963">
        <ele>88.5</ele>
        <time>2020-07-02T19:25:46Z</time>
      </trkpt>
      <trkpt lat="47.71591" lon="1.60956">
        <ele>88.5</ele>
        <time>2020-07-02T19:25:47Z</time>
      </trkpt>
      <trkpt lat="47.71587" lon="1.6095">
        <ele>88.4</ele>
        <time>2020-07-02T19:25:48Z</time>
      </trkpt>
      <trkpt lat="47.71582" lon="1.60943">
        <ele>88.4</ele>
        <time>2020-07-02T19:25:49Z</time>
      </trkpt>
      <trkpt lat="47.71579" lon="1.60936">
        <ele>88.3</ele>
        <time>2020-07-02T19:25:50Z</time>
      </trkpt>
      <trkpt lat="47.71575" lon="1.60929">
        <ele>88.3</ele>
        <time>2020-07-02T19:25:51Z</time>
      </trkpt>
      <trkpt lat="47.71571" lon="1.60922">
        <ele>88.3</ele>
        <time>2020-07-02T19:25:52Z</time>
      </trkpt>
      <trkpt lat="47.71568" lon="1.60915">
        <ele>88.4</ele>
        <time>2020-07-02T19:25:53Z</time>
      </trkpt>
      <trkpt lat="47.71564" lon="1.60907">
        <ele>88.5</ele>
        <time>2020-07-02T19:25:54Z</time>
      </trkpt>
      <trkpt lat="47.7156" lon="1.609">
        <ele>88.5</ele>
        <time>2020-07-02T19:25:55Z</time>
      </trkpt>
      <trkpt lat="47.71556" lon="1.60893">
        <ele>88.5</ele>
        <time>2020-07-02T19:25:56Z</time>
      </trkpt>
      <trkpt lat="47.71552" lon="1.60886">
        <ele>88.5</ele>
        <time>2020-07-02T19:25:57Z</time>
      </trkpt>
      <trkpt lat="47.71549" lon="1.60879">
        <ele>88.5</ele>
        <time>2020-07-02T19:25:58Z</time>
      </trkpt>
      <trkpt lat="47.71545" lon="1.60871">
        <ele>88.6</ele>
        <time>2020-07-02T19:25:59Z</time>
      </trkpt>
      <trkpt lat="47.71542" lon="1.60863">
        <ele>88.6</ele>
        <time>2020-07-02T19:26:00Z</time>
      </trkpt>
      <trkpt lat="47.71539" lon="1.60856">
        <ele>88.6</ele>
        <time>2020-07-02T19:26:01Z</time>
      </trkpt>
      <trkpt lat="47.71535" lon="1.60849">
        <ele>88.6</ele>
        <time>2020-07-02T19:26:02Z</time>
      </trkpt>
      <trkpt lat="47.71532" lon="1.60842">
        <ele>88.7</ele>
        <time>2020-07-02T19:26:03Z</time>
      </trkpt>
      <trkpt lat="47.71528" lon="1.60835">
        <ele>88.7</ele>
        <time>2020-07-02T19:26:04Z</time>
      </trkpt>
      <trkpt lat="47.71523" lon="1.6083">
        <ele>88.7</ele>
        <time>2020-07-02T19:26:05Z</time>
      </trkpt>
      <trkpt lat="47.71519" lon="1.60824">
        <ele>88.7</ele>
        <time>2020-07-02T19:26:06Z</time>
      </trkpt>
      <trkpt lat="47.71516" lon="1.60816">
        <ele>88.8</ele>
        <time>2020-07-02T19:26:07Z</time>
      </trkpt>
      <trkpt lat="47.71512" lon="1.6081">
        <ele>88.8</ele>
        <time>2020-07-02T19:26:08Z</time>
      </trkpt>
      <trkpt lat="47.71507" lon="1.60804">
        <ele>88.8</ele>
        <time>2020-07-02T19:26:09Z</time>
      </trkpt>
      <trkpt lat="47.71503" lon="1.60798">
        <ele>88.9</ele>
        <time>2020-07-02T19:26:10Z</time>
      </trkpt>
      <trkpt lat="47.715" lon="1.60791">
        <ele>88.9</ele>
        <time>2020-07-02T19:26:11Z</time>
      </trkpt>
      <trkpt lat="47.71495" lon="1.60785">
        <ele>88.9</ele>
        <time>2020-07-02T19:26:12Z</time>
      </trkpt>
      <trkpt lat="47.71492" lon="1.60778">
        <ele>89</ele>
        <time>2020-07-02T19:26:13Z</time>
      </trkpt>
      <trkpt lat="47.71489" lon="1.60771">
        <ele>89</ele>
        <time>2020-07-02T19:26:14Z</time>
      </trkpt>
      <trkpt lat="47.71485" lon="1.60765">
        <ele>89</ele>
        <time>2020-07-02T19:26:15Z</time>
      </trkpt>
      <trkpt lat="47.71481" lon="1.60759">
        <ele>89</ele>
        <time>2020-07-02T19:26:16Z</time>
      </trkpt>
      <trkpt lat="47.71477" lon="1.60751">
        <ele>89</ele>
        <time>2020-07-02T19:26:17Z</time>
      </trkpt>
      <trkpt lat="47.71474" lon="1.60744">
        <ele>89</ele>
        <time>2020-07-02T19:26:18Z</time>
      </trkpt>
      <trkpt lat="47.7147" lon="1.60737">
        <ele>89</ele>
        <time>2020-07-02T19:26:19Z</time>
      </trkpt>
      <trkpt lat="47.71466" lon="1.60729">
        <ele>88.9</ele>
        <time>2020-07-02T19:26:20Z</time>
      </trkpt>
      <trkpt lat="47.71461" lon="1.60722">
        <ele>88.9</ele>
        <time>2020-07-02T19:26:21Z</time>
      </trkpt>
      <trkpt lat="47.71457" lon="1.60716">
        <ele>88.9</ele>
        <time>2020-07-02T19:26:22Z</time>
      </trkpt>
      <trkpt lat="47.71453" lon="1.60708">
        <ele>88.9</ele>
        <time>2020-07-02T19:26:23Z</time>
      </trkpt>
      <trkpt lat="47.71448" lon="1.60701">
        <ele>89</ele>
        <time>2020-07-02T19:26:24Z</time>
      </trkpt>
      <trkpt lat="47.71444" lon="1.60694">
        <ele>89.1</ele>
        <time>2020-07-02T19:26:25Z</time>
      </trkpt>
      <trkpt lat="47.71439" lon="1.60687">
        <ele>89.1</ele>
        <time>2020-07-02T19:26:26Z</time>
      </trkpt>
      <trkpt lat="47.71435" lon="1.6068">
        <ele>89.2</ele>
        <time>2020-07-02T19:26:27Z</time>
      </trkpt>
      <trkpt lat="47.71432" lon="1.60671">
        <ele>89.3</ele>
        <time>2020-07-02T19:26:28Z</time>
      </trkpt>
      <trkpt lat="47.71428" lon="1.60663">
        <ele>89.3</ele>
        <time>2020-07-02T19:26:29Z</time>
      </trkpt>
      <trkpt lat="47.71424" lon="1.60656">
        <ele>89.3</ele>
        <time>2020-07-02T19:26:30Z</time>
      </trkpt>
      <trkpt lat="47.71419" lon="1.60648">
        <ele>89.2</ele>
        <time>2020-07-02T19:26:31Z</time>
      </trkpt>
      <trkpt lat="47.71415" lon="1.6064">
        <ele>89.2</ele>
        <time>2020-07-02T19:26:32Z</time>
      </trkpt>
      <trkpt lat="47.71411" lon="1.60632">
        <ele>89.1</ele>
        <time>2020-07-02T19:26:33Z</time>
      </trkpt>
      <trkpt lat="47.71407" lon="1.60625">
        <ele>89.1</ele>
        <time>2020-07-02T19:26:34Z</time>
      </trkpt>
      <trkpt lat="47.71403" lon="1.60617">
        <ele>89.1</ele>
        <time>2020-07-02T19:26:35Z</time>
      </trkpt>
      <trkpt lat="47.71398" lon="1.6061">
        <ele>89.2</ele>
        <time>2020-07-02T19:26:36Z</time>
      </trkpt>
      <trkpt lat="47.71394" lon="1.60603">
        <ele>89.2</ele>
        <time>2020-07-02T19:26:37Z</time>
      </trkpt>
      <trkpt lat="47.71389" lon="1.60596">
        <ele>89.2</ele>
        <time>2020-07-02T19:26:38Z</time>
      </trkpt>
      <trkpt lat="47.71385" lon="1.60589">
        <ele>89.2</ele>
        <time>2020-07-02T19:26:39Z</time>
      </trkpt>
      <trkpt lat="47.71381" lon="1.60581">
        <ele>89.2</ele>
        <time>2020-07-02T19:26:40Z</time>
      </trkpt>
      <trkpt lat="47.71377" lon="1.60574">
        <ele>89.3</ele>
        <time>2020-07-02T19:26:41Z</time>
      </trkpt>
      <trkpt lat="47.71373" lon="1.60567">
        <ele>89.3</ele>
        <time>2020-07-02T19:26:42Z</time>
      </trkpt>
      <trkpt lat="47.71369" lon="1.6056">
        <ele>89.3</ele>
        <time>2020-07-02T19:26:43Z</time>
      </trkpt>
      <trkpt lat="47.71365" lon="1.60553">
        <ele>89.4</ele>
        <time>2020-07-02T19:26:44Z</time>
      </trkpt>
      <trkpt lat="47.71361" lon="1.60546">
        <ele>89.4</ele>
        <time>2020-07-02T19:26:45Z</time>
      </trkpt>
      <trkpt lat="47.71357" lon="1.60539">
        <ele>89.4</ele>
        <time>2020-07-02T19:26:46Z</time>
      </trkpt>
      <trkpt lat="47.71353" lon="1.60531">
        <ele>89.5</ele>
        <time>2020-07-02T19:26:47Z</time>
      </trkpt>
      <trkpt lat="47.71349" lon="1.60524">
        <ele>89.5</ele>
        <time>2020-07-02T19:26:48Z</time>
      </trkpt>
      <trkpt lat="47.71345" lon="1.60518">
        <ele>89.6</ele>
        <time>2020-07-02T19:26:49Z</time>
      </trkpt>
      <trkpt lat="47.71341" lon="1.6051">
        <ele>89.7</ele>
        <time>2020-07-02T19:26:50Z</time>
      </trkpt>
      <trkpt lat="47.71337" lon="1.60503">
        <ele>89.8</ele>
        <time>2020-07-02T19:26:51Z</time>
      </trkpt>
      <trkpt lat="47.71334" lon="1.60496">
        <ele>89.9</ele>
        <time>2020-07-02T19:26:52Z</time>
      </trkpt>
      <trkpt lat="47.7133" lon="1.60489">
        <ele>90</ele>
        <time>2020-07-02T19:26:53Z</time>
      </trkpt>
      <trkpt lat="47.71326" lon="1.60483">
        <ele>90</ele>
        <time>2020-07-02T19:26:54Z</time>
      </trkpt>
      <trkpt lat="47.71323" lon="1.60477">
        <ele>90.1</ele>
        <time>2020-07-02T19:26:55Z</time>
      </trkpt>
      <trkpt lat="47.71319" lon="1.60471">
        <ele>90.1</ele>
        <time>2020-07-02T19:26:56Z</time>
      </trkpt>
      <trkpt lat="47.71316" lon="1.60465">
        <ele>90.2</ele>
        <time>2020-07-02T19:26:57Z</time>
      </trkpt>
      <trkpt lat="47.71313" lon="1.60458">
        <ele>90.3</ele>
        <time>2020-07-02T19:26:58Z</time>
      </trkpt>
      <trkpt lat="47.7131" lon="1.60452">
        <ele>90.3</ele>
        <time>2020-07-02T19:26:59Z</time>
      </trkpt>
      <trkpt lat="47.71306" lon="1.60446">
        <ele>90.4</ele>
        <time>2020-07-02T19:27:00Z</time>
      </trkpt>
      <trkpt lat="47.71303" lon="1.6044">
        <ele>90.5</ele>
        <time>2020-07-02T19:27:01Z</time>
      </trkpt>
      <trkpt lat="47.71299" lon="1.60433">
        <ele>90.6</ele>
        <time>2020-07-02T19:27:02Z</time>
      </trkpt>
      <trkpt lat="47.71295" lon="1.60427">
        <ele>90.7</ele>
        <time>2020-07-02T19:27:03Z</time>
      </trkpt>
      <trkpt lat="47.71291" lon="1.60422">
        <ele>90.7</ele>
        <time>2020-07-02T19:27:04Z</time>
      </trkpt>
      <trkpt lat="47.71287" lon="1.60416">
        <ele>90.9</ele>
        <time>2020-07-02T19:27:05Z</time>
      </trkpt>
      <trkpt lat="47.71284" lon="1.60411">
        <ele>91.1</ele>
        <time>2020-07-02T19:27:06Z</time>
      </trkpt>
      <trkpt lat="47.7128" lon="1.60404">
        <ele>91.1</ele>
        <time>2020-07-02T19:27:07Z</time>
      </trkpt>
      <trkpt lat="47.71275" lon="1.60398">
        <ele>91.1</ele>
        <time>2020-07-02T19:27:08Z</time>
      </trkpt>
      <trkpt lat="47.71271" lon="1.60392">
        <ele>91.1</ele>
        <time>2020-07-02T19:27:09Z</time>
      </trkpt>
      <trkpt lat="47.71266" lon="1.60387">
        <ele>91.1</ele>
        <time>2020-07-02T19:27:10Z</time>
      </trkpt>
      <trkpt lat="47.71262" lon="1.60382">
        <ele>91</ele>
        <time>2020-07-02T19:27:11Z</time>
      </trkpt>
      <trkpt lat="47.71257" lon="1.60376">
        <ele>90.9</ele>
        <time>2020-07-02T19:27:12Z</time>
      </trkpt>
      <trkpt lat="47.71254" lon="1.60369">
        <ele>90.9</ele>
        <time>2020-07-02T19:27:13Z</time>
      </trkpt>
      <trkpt lat="47.71251" lon="1.60363">
        <ele>90.9</ele>
        <time>2020-07-02T19:27:14Z</time>
      </trkpt>
      <trkpt lat="47.71249" lon="1.60355">
        <ele>90.9</ele>
        <time>2020-07-02T19:27:15Z</time>
      </trkpt>
      <trkpt lat="47.71246" lon="1.60348">
        <ele>90.9</ele>
        <time>2020-07-02T19:27:16Z</time>
      </trkpt>
      <trkpt lat="47.71243" lon="1.60341">
        <ele>90.9</ele>
        <time>2020-07-02T19:27:17Z</time>
      </trkpt>
      <trkpt lat="47.7124" lon="1.60335">
        <ele>90.8</ele>
        <time>2020-07-02T19:27:18Z</time>
      </trkpt>
      <trkpt lat="47.71237" lon="1.60328">
        <ele>90.8</ele>
        <time>2020-07-02T19:27:19Z</time>
      </trkpt>
      <trkpt lat="47.71233" lon="1.60319">
        <ele>90.8</ele>
        <time>2020-07-02T19:27:20Z</time>
      </trkpt>
      <trkpt lat="47.7123" lon="1.60312">
        <ele>90.8</ele>
        <time>2020-07-02T19:27:21Z</time>
      </trkpt>
      <trkpt lat="47.71227" lon="1.60305">
        <ele>90.8</ele>
        <time>2020-07-02T19:27:22Z</time>
      </trkpt>
      <trkpt lat="47.71224" lon="1.60299">
        <ele>90.8</ele>
        <time>2020-07-02T19:27:23Z</time>
      </trkpt>
      <trkpt lat="47.7122" lon="1.60293">
        <ele>90.8</ele>
        <time>2020-07-02T19:27:24Z</time>
      </trkpt>
      <trkpt lat="47.71216" lon="1.60287">
        <ele>90.8</ele>
        <time>2020-07-02T19:27:25Z</time>
      </trkpt>
      <trkpt lat="47.71212" lon="1.6028">
        <ele>90.8</ele>
        <time>2020-07-02T19:27:26Z</time>
      </trkpt>
      <trkpt lat="47.71207" lon="1.60274">
        <ele>90.7</ele>
        <time>2020-07-02T19:27:27Z</time>
      </trkpt>
      <trkpt lat="47.71203" lon="1.60266">
        <ele>90.7</ele>
        <time>2020-07-02T19:27:28Z</time>
      </trkpt>
      <trkpt lat="47.71199" lon="1.60259">
        <ele>90.7</ele>
        <time>2020-07-02T19:27:29Z</time>
      </trkpt>
      <trkpt lat="47.71195" lon="1.60251">
        <ele>90.6</ele>
        <time>2020-07-02T19:27:30Z</time>
      </trkpt>
      <trkpt lat="47.71191" lon="1.60243">
        <ele>90.6</ele>
        <time>2020-07-02T19:27:31Z</time>
      </trkpt>
      <trkpt lat="47.71187" lon="1.60237">
        <ele>90.6</ele>
        <time>2020-07-02T19:27:32Z</time>
      </trkpt>
      <trkpt lat="47.71184" lon="1.60232">
        <ele>90.5</ele>
        <time>2020-07-02T19:27:33Z</time>
      </trkpt>
      <trkpt lat="47.7118" lon="1.60226">
        <ele>90.5</ele>
        <time>2020-07-02T19:27:34Z</time>
      </trkpt>
      <trkpt lat="47.71176" lon="1.60219">
        <ele>90.5</ele>
        <time>2020-07-02T19:27:35Z</time>
      </trkpt>
      <trkpt lat="47.71173" lon="1.60213">
        <ele>90.4</ele>
        <time>2020-07-02T19:27:36Z</time>
      </trkpt>
      <trkpt lat="47.7117" lon="1.60207">
        <ele>90.3</ele>
        <time>2020-07-02T19:27:37Z</time>
      </trkpt>
      <trkpt lat="47.71167" lon="1.602">
        <ele>90.2</ele>
        <time>2020-07-02T19:27:38Z</time>
      </trkpt>
      <trkpt lat="47.71164" lon="1.60194">
        <ele>90.1</ele>
        <time>2020-07-02T19:27:39Z</time>
      </trkpt>
      <trkpt lat="47.7116" lon="1.60188">
        <ele>90.1</ele>
        <time>2020-07-02T19:27:40Z</time>
      </trkpt>
      <trkpt lat="47.71156" lon="1.60182">
        <ele>90</ele>
        <time>2020-07-02T19:27:41Z</time>
      </trkpt>
      <trkpt lat="47.71152" lon="1.60176">
        <ele>90</ele>
        <time>2020-07-02T19:27:42Z</time>
      </trkpt>
      <trkpt lat="47.71148" lon="1.6017">
        <ele>90</ele>
        <time>2020-07-02T19:27:43Z</time>
      </trkpt>
      <trkpt lat="47.71144" lon="1.60164">
        <ele>90</ele>
        <time>2020-07-02T19:27:44Z</time>
      </trkpt>
      <trkpt lat="47.71141" lon="1.60158">
        <ele>90</ele>
        <time>2020-07-02T19:27:45Z</time>
      </trkpt>
      <trkpt lat="47.71137" lon="1.60152">
        <ele>90</ele>
        <time>2020-07-02T19:27:46Z</time>
      </trkpt>
      <trkpt lat="47.71133" lon="1.60144">
        <ele>90</ele>
        <time>2020-07-02T19:27:47Z</time>
      </trkpt>
      <trkpt lat="47.7113" lon="1.60137">
        <ele>90</ele>
        <time>2020-07-02T19:27:48Z</time>
      </trkpt>
      <trkpt lat="47.71126" lon="1.6013">
        <ele>90</ele>
        <time>2020-07-02T19:27:49Z</time>
      </trkpt>
      <trkpt lat="47.71122" lon="1.60123">
        <ele>90</ele>
        <time>2020-07-02T19:27:50Z</time>
      </trkpt>
      <trkpt lat="47.71118" lon="1.60116">
        <ele>90.1</ele>
        <time>2020-07-02T19:27:51Z</time>
      </trkpt>
      <trkpt lat="47.71114" lon="1.60109">
        <ele>90.1</ele>
        <time>2020-07-02T19:27:52Z</time>
      </trkpt>
      <trkpt lat="47.71109" lon="1.60101">
        <ele>90.1</ele>
        <time>2020-07-02T19:27:53Z</time>
      </trkpt>
      <trkpt lat="47.71104" lon="1.60093">
        <ele>90.1</ele>
        <time>2020-07-02T19:27:54Z</time>
      </trkpt>
      <trkpt lat="47.711" lon="1.60086">
        <ele>90.1</ele>
        <time>2020-07-02T19:27:55Z</time>
      </trkpt>
      <trkpt lat="47.71097" lon="1.60079">
        <ele>90.1</ele>
        <time>2020-07-02T19:27:56Z</time>
      </trkpt>
      <trkpt lat="47.71093" lon="1.60072">
        <ele>90</ele>
        <time>2020-07-02T19:27:57Z</time>
      </trkpt>
      <trkpt lat="47.71089" lon="1.60065">
        <ele>90</ele>
        <time>2020-07-02T19:27:58Z</time>
      </trkpt>
      <trkpt lat="47.71085" lon="1.60057">
        <ele>90</ele>
        <time>2020-07-02T19:27:59Z</time>
      </trkpt>
      <trkpt lat="47.71081" lon="1.60049">
        <ele>89.9</ele>
        <time>2020-07-02T19:28:00Z</time>
      </trkpt>
      <trkpt lat="47.71077" lon="1.60042">
        <ele>89.9</ele>
        <time>2020-07-02T19:28:01Z</time>
      </trkpt>
      <trkpt lat="47.71073" lon="1.60035">
        <ele>89.8</ele>
        <time>2020-07-02T19:28:02Z</time>
      </trkpt>
      <trkpt lat="47.71069" lon="1.60028">
        <ele>89.8</ele>
        <time>2020-07-02T19:28:03Z</time>
      </trkpt>
      <trkpt lat="47.71065" lon="1.60022">
        <ele>89.7</ele>
        <time>2020-07-02T19:28:04Z</time>
      </trkpt>
      <trkpt lat="47.71061" lon="1.60015">
        <ele>89.6</ele>
        <time>2020-07-02T19:28:05Z</time>
      </trkpt>
      <trkpt lat="47.71057" lon="1.60009">
        <ele>89.6</ele>
        <time>2020-07-02T19:28:06Z</time>
      </trkpt>
      <trkpt lat="47.71054" lon="1.60002">
        <ele>89.5</ele>
        <time>2020-07-02T19:28:07Z</time>
      </trkpt>
      <trkpt lat="47.7105" lon="1.59995">
        <ele>89.4</ele>
        <time>2020-07-02T19:28:08Z</time>
      </trkpt>
      <trkpt lat="47.71046" lon="1.59989">
        <ele>89.4</ele>
        <time>2020-07-02T19:28:09Z</time>
      </trkpt>
      <trkpt lat="47.71043" lon="1.59983">
        <ele>89.3</ele>
        <time>2020-07-02T19:28:10Z</time>
      </trkpt>
      <trkpt lat="47.7104" lon="1.59976">
        <ele>89.3</ele>
        <time>2020-07-02T19:28:11Z</time>
      </trkpt>
      <trkpt lat="47.71036" lon="1.59971">
        <ele>89.3</ele>
        <time>2020-07-02T19:28:12Z</time>
      </trkpt>
      <trkpt lat="47.71033" lon="1.59965">
        <ele>89.2</ele>
        <time>2020-07-02T19:28:13Z</time>
      </trkpt>
      <trkpt lat="47.7103" lon="1.5996">
        <ele>89.2</ele>
        <time>2020-07-02T19:28:14Z</time>
      </trkpt>
      <trkpt lat="47.71028" lon="1.59955">
        <ele>89.2</ele>
        <time>2020-07-02T19:28:15Z</time>
      </trkpt>
      <trkpt lat="47.71025" lon="1.59951">
        <ele>89.1</ele>
        <time>2020-07-02T19:28:16Z</time>
      </trkpt>
      <trkpt lat="47.71023" lon="1.59946">
        <ele>89.1</ele>
        <time>2020-07-02T19:28:17Z</time>
      </trkpt>
      <trkpt lat="47.7102" lon="1.59941">
        <ele>89.1</ele>
        <time>2020-07-02T19:28:18Z</time>
      </trkpt>
      <trkpt lat="47.71018" lon="1.59936">
        <ele>89.1</ele>
        <time>2020-07-02T19:28:19Z</time>
      </trkpt>
      <trkpt lat="47.71016" lon="1.5993">
        <ele>89.1</ele>
        <time>2020-07-02T19:28:20Z</time>
      </trkpt>
      <trkpt lat="47.71013" lon="1.59925">
        <ele>89.1</ele>
        <time>2020-07-02T19:28:21Z</time>
      </trkpt>
      <trkpt lat="47.7101" lon="1.5992">
        <ele>89.1</ele>
        <time>2020-07-02T19:28:22Z</time>
      </trkpt>
      <trkpt lat="47.71007" lon="1.59914">
        <ele>89.2</ele>
        <time>2020-07-02T19:28:23Z</time>
      </trkpt>
      <trkpt lat="47.71005" lon="1.5991">
        <ele>89.2</ele>
        <time>2020-07-02T19:28:24Z</time>
      </trkpt>
      <trkpt lat="47.71002" lon="1.59905">
        <ele>89.3</ele>
        <time>2020-07-02T19:28:25Z</time>
      </trkpt>
      <trkpt lat="47.70999" lon="1.59901">
        <ele>89.3</ele>
        <time>2020-07-02T19:28:26Z</time>
      </trkpt>
      <trkpt lat="47.70996" lon="1.59896">
        <ele>89.4</ele>
        <time>2020-07-02T19:28:27Z</time>
      </trkpt>
      <trkpt lat="47.70993" lon="1.59892">
        <ele>89.4</ele>
        <time>2020-07-02T19:28:28Z</time>
      </trkpt>
      <trkpt lat="47.70991" lon="1.59887">
        <ele>89.4</ele>
        <time>2020-07-02T19:28:29Z</time>
      </trkpt>
      <trkpt lat="47.70988" lon="1.59884">
        <ele>89.3</ele>
        <time>2020-07-02T19:28:30Z</time>
      </trkpt>
      <trkpt lat="47.70986" lon="1.59878">
        <ele>89.3</ele>
        <time>2020-07-02T19:28:31Z</time>
      </trkpt>
      <trkpt lat="47.70984" lon="1.59874">
        <ele>89.3</ele>
        <time>2020-07-02T19:28:32Z</time>
      </trkpt>
      <trkpt lat="47.7098" lon="1.59868">
        <ele>89.3</ele>
        <time>2020-07-02T19:28:33Z</time>
      </trkpt>
      <trkpt lat="47.70977" lon="1.59863">
        <ele>89.3</ele>
        <time>2020-07-02T19:28:34Z</time>
      </trkpt>
      <trkpt lat="47.70974" lon="1.59857">
        <ele>89.3</ele>
        <time>2020-07-02T19:28:35Z</time>
      </trkpt>
      <trkpt lat="47.7097" lon="1.59851">
        <ele>89.3</ele>
        <time>2020-07-02T19:28:36Z</time>
      </trkpt>
      <trkpt lat="47.70966" lon="1.59844">
        <ele>89.3</ele>
        <time>2020-07-02T19:28:37Z</time>
      </trkpt>
      <trkpt lat="47.70963" lon="1.59836">
        <ele>89.2</ele>
        <time>2020-07-02T19:28:38Z</time>
      </trkpt>
      <trkpt lat="47.70959" lon="1.59832">
        <ele>89.2</ele>
        <time>2020-07-02T19:28:39Z</time>
      </trkpt>
      <trkpt lat="47.70954" lon="1.59825">
        <ele>89.3</ele>
        <time>2020-07-02T19:28:40Z</time>
      </trkpt>
      <trkpt lat="47.7095" lon="1.59817">
        <ele>89.3</ele>
        <time>2020-07-02T19:28:41Z</time>
      </trkpt>
      <trkpt lat="47.70946" lon="1.59811">
        <ele>89.4</ele>
        <time>2020-07-02T19:28:42Z</time>
      </trkpt>
      <trkpt lat="47.70942" lon="1.59802">
        <ele>89.3</ele>
        <time>2020-07-02T19:28:43Z</time>
      </trkpt>
      <trkpt lat="47.70938" lon="1.59795">
        <ele>89.3</ele>
        <time>2020-07-02T19:28:44Z</time>
      </trkpt>
      <trkpt lat="47.70933" lon="1.59786">
        <ele>89.2</ele>
        <time>2020-07-02T19:28:45Z</time>
      </trkpt>
      <trkpt lat="47.7093" lon="1.59781">
        <ele>89.2</ele>
        <time>2020-07-02T19:28:46Z</time>
      </trkpt>
      <trkpt lat="47.70927" lon="1.59774">
        <ele>89.2</ele>
        <time>2020-07-02T19:28:47Z</time>
      </trkpt>
      <trkpt lat="47.70923" lon="1.59765">
        <ele>89.1</ele>
        <time>2020-07-02T19:28:48Z</time>
      </trkpt>
      <trkpt lat="47.70918" lon="1.59759">
        <ele>89.1</ele>
        <time>2020-07-02T19:28:49Z</time>
      </trkpt>
      <trkpt lat="47.70915" lon="1.59753">
        <ele>89.1</ele>
        <time>2020-07-02T19:28:50Z</time>
      </trkpt>
      <trkpt lat="47.70911" lon="1.59746">
        <ele>89.1</ele>
        <time>2020-07-02T19:28:51Z</time>
      </trkpt>
      <trkpt lat="47.70906" lon="1.59738">
        <ele>89.2</ele>
        <time>2020-07-02T19:28:52Z</time>
      </trkpt>
      <trkpt lat="47.70902" lon="1.5973">
        <ele>89.2</ele>
        <time>2020-07-02T19:28:53Z</time>
      </trkpt>
      <trkpt lat="47.70898" lon="1.59722">
        <ele>89.2</ele>
        <time>2020-07-02T19:28:54Z</time>
      </trkpt>
      <trkpt lat="47.70895" lon="1.59716">
        <ele>89.3</ele>
        <time>2020-07-02T19:28:55Z</time>
      </trkpt>
      <trkpt lat="47.70892" lon="1.59712">
        <ele>89.3</ele>
        <time>2020-07-02T19:28:56Z</time>
      </trkpt>
      <trkpt lat="47.70888" lon="1.59705">
        <ele>89.4</ele>
        <time>2020-07-02T19:28:57Z</time>
      </trkpt>
      <trkpt lat="47.70884" lon="1.59697">
        <ele>89.4</ele>
        <time>2020-07-02T19:28:58Z</time>
      </trkpt>
      <trkpt lat="47.7088" lon="1.5969">
        <ele>89.5</ele>
        <time>2020-07-02T19:28:59Z</time>
      </trkpt>
      <trkpt lat="47.70875" lon="1.59683">
        <ele>89.7</ele>
        <time>2020-07-02T19:29:00Z</time>
      </trkpt>
      <trkpt lat="47.70872" lon="1.59675">
        <ele>89.9</ele>
        <time>2020-07-02T19:29:01Z</time>
      </trkpt>
      <trkpt lat="47.70868" lon="1.59668">
        <ele>89.9</ele>
        <time>2020-07-02T19:29:02Z</time>
      </trkpt>
      <trkpt lat="47.70864" lon="1.5966">
        <ele>89.9</ele>
        <time>2020-07-02T19:29:03Z</time>
      </trkpt>
      <trkpt lat="47.70859" lon="1.59652">
        <ele>89.9</ele>
        <time>2020-07-02T19:29:04Z</time>
      </trkpt>
      <trkpt lat="47.70855" lon="1.59645">
        <ele>89.8</ele>
        <time>2020-07-02T19:29:05Z</time>
      </trkpt>
      <trkpt lat="47.70851" lon="1.59638">
        <ele>89.8</ele>
        <time>2020-07-02T19:29:06Z</time>
      </trkpt>
      <trkpt lat="47.70847" lon="1.59631">
        <ele>89.8</ele>
        <time>2020-07-02T19:29:07Z</time>
      </trkpt>
      <trkpt lat="47.70842" lon="1.59625">
        <ele>89.9</ele>
        <time>2020-07-02T19:29:08Z</time>
      </trkpt>
      <trkpt lat="47.70839" lon="1.59618">
        <ele>89.9</ele>
        <time>2020-07-02T19:29:09Z</time>
      </trkpt>
      <trkpt lat="47.70835" lon="1.59609">
        <ele>89.9</ele>
        <time>2020-07-02T19:29:10Z</time>
      </trkpt>
      <trkpt lat="47.70831" lon="1.59602">
        <ele>89.9</ele>
        <time>2020-07-02T19:29:11Z</time>
      </trkpt>
      <trkpt lat="47.70827" lon="1.59594">
        <ele>89.9</ele>
        <time>2020-07-02T19:29:12Z</time>
      </trkpt>
      <trkpt lat="47.70823" lon="1.59585">
        <ele>90</ele>
        <time>2020-07-02T19:29:13Z</time>
      </trkpt>
      <trkpt lat="47.70819" lon="1.59578">
        <ele>90</ele>
        <time>2020-07-02T19:29:14Z</time>
      </trkpt>
      <trkpt lat="47.70815" lon="1.59571">
        <ele>90</ele>
        <time>2020-07-02T19:29:15Z</time>
      </trkpt>
      <trkpt lat="47.70811" lon="1.59563">
        <ele>90</ele>
        <time>2020-07-02T19:29:16Z</time>
      </trkpt>
      <trkpt lat="47.70806" lon="1.59556">
        <ele>90</ele>
        <time>2020-07-02T19:29:17Z</time>
      </trkpt>
      <trkpt lat="47.70802" lon="1.5955">
        <ele>90</ele>
        <time>2020-07-02T19:29:18Z</time>
      </trkpt>
      <trkpt lat="47.70798" lon="1.59543">
        <ele>90</ele>
        <time>2020-07-02T19:29:19Z</time>
      </trkpt>
      <trkpt lat="47.70793" lon="1.59535">
        <ele>89.9</ele>
        <time>2020-07-02T19:29:20Z</time>
      </trkpt>
      <trkpt lat="47.70789" lon="1.59528">
        <ele>89.9</ele>
        <time>2020-07-02T19:29:21Z</time>
      </trkpt>
      <trkpt lat="47.70785" lon="1.5952">
        <ele>89.8</ele>
        <time>2020-07-02T19:29:22Z</time>
      </trkpt>
      <trkpt lat="47.70781" lon="1.59512">
        <ele>89.8</ele>
        <time>2020-07-02T19:29:23Z</time>
      </trkpt>
      <trkpt lat="47.70777" lon="1.59504">
        <ele>89.7</ele>
        <time>2020-07-02T19:29:24Z</time>
      </trkpt>
      <trkpt lat="47.70772" lon="1.59496">
        <ele>89.7</ele>
        <time>2020-07-02T19:29:25Z</time>
      </trkpt>
      <trkpt lat="47.70768" lon="1.59488">
        <ele>89.6</ele>
        <time>2020-07-02T19:29:26Z</time>
      </trkpt>
      <trkpt lat="47.70763" lon="1.5948">
        <ele>89.6</ele>
        <time>2020-07-02T19:29:27Z</time>
      </trkpt>
      <trkpt lat="47.70759" lon="1.59472">
        <ele>89.5</ele>
        <time>2020-07-02T19:29:28Z</time>
      </trkpt>
      <trkpt lat="47.70755" lon="1.59465">
        <ele>89.5</ele>
        <time>2020-07-02T19:29:29Z</time>
      </trkpt>
      <trkpt lat="47.7075" lon="1.59457">
        <ele>89.5</ele>
        <time>2020-07-02T19:29:30Z</time>
      </trkpt>
      <trkpt lat="47.70746" lon="1.59449">
        <ele>89.4</ele>
        <time>2020-07-02T19:29:31Z</time>
      </trkpt>
      <trkpt lat="47.70742" lon="1.59442">
        <ele>89.4</ele>
        <time>2020-07-02T19:29:32Z</time>
      </trkpt>
      <trkpt lat="47.70738" lon="1.59435">
        <ele>89.4</ele>
        <time>2020-07-02T19:29:33Z</time>
      </trkpt>
      <trkpt lat="47.70733" lon="1.59427">
        <ele>89.4</ele>
        <time>2020-07-02T19:29:34Z</time>
      </trkpt>
      <trkpt lat="47.70729" lon="1.59419">
        <ele>89.3</ele>
        <time>2020-07-02T19:29:35Z</time>
      </trkpt>
      <trkpt lat="47.70725" lon="1.59411">
        <ele>89.3</ele>
        <time>2020-07-02T19:29:36Z</time>
      </trkpt>
      <trkpt lat="47.70721" lon="1.59403">
        <ele>89.3</ele>
        <time>2020-07-02T19:29:37Z</time>
      </trkpt>
      <trkpt lat="47.70717" lon="1.59396">
        <ele>89.3</ele>
        <time>2020-07-02T19:29:38Z</time>
      </trkpt>
      <trkpt lat="47.70713" lon="1.59388">
        <ele>89.3</ele>
        <time>2020-07-02T19:29:39Z</time>
      </trkpt>
      <trkpt lat="47.70709" lon="1.5938">
        <ele>89.2</ele>
        <time>2020-07-02T19:29:40Z</time>
      </trkpt>
      <trkpt lat="47.70705" lon="1.59372">
        <ele>89.2</ele>
        <time>2020-07-02T19:29:41Z</time>
      </trkpt>
      <trkpt lat="47.70701" lon="1.59364">
        <ele>89.3</ele>
        <time>2020-07-02T19:29:42Z</time>
      </trkpt>
      <trkpt lat="47.70697" lon="1.59356">
        <ele>89.3</ele>
        <time>2020-07-02T19:29:43Z</time>
      </trkpt>
      <trkpt lat="47.70694" lon="1.59348">
        <ele>89.2</ele>
        <time>2020-07-02T19:29:44Z</time>
      </trkpt>
      <trkpt lat="47.7069" lon="1.5934">
        <ele>89.2</ele>
        <time>2020-07-02T19:29:45Z</time>
      </trkpt>
      <trkpt lat="47.70686" lon="1.59332">
        <ele>89.2</ele>
        <time>2020-07-02T19:29:46Z</time>
      </trkpt>
      <trkpt lat="47.70681" lon="1.59324">
        <ele>89.1</ele>
        <time>2020-07-02T19:29:47Z</time>
      </trkpt>
      <trkpt lat="47.70677" lon="1.59316">
        <ele>89</ele>
        <time>2020-07-02T19:29:48Z</time>
      </trkpt>
      <trkpt lat="47.70672" lon="1.59308">
        <ele>89</ele>
        <time>2020-07-02T19:29:49Z</time>
      </trkpt>
      <trkpt lat="47.70668" lon="1.59301">
        <ele>88.9</ele>
        <time>2020-07-02T19:29:50Z</time>
      </trkpt>
      <trkpt lat="47.70664" lon="1.59293">
        <ele>88.8</ele>
        <time>2020-07-02T19:29:51Z</time>
      </trkpt>
      <trkpt lat="47.7066" lon="1.59285">
        <ele>88.8</ele>
        <time>2020-07-02T19:29:52Z</time>
      </trkpt>
      <trkpt lat="47.70655" lon="1.59277">
        <ele>88.8</ele>
        <time>2020-07-02T19:29:53Z</time>
      </trkpt>
      <trkpt lat="47.7065" lon="1.59268">
        <ele>88.7</ele>
        <time>2020-07-02T19:29:54Z</time>
      </trkpt>
      <trkpt lat="47.70645" lon="1.5926">
        <ele>88.7</ele>
        <time>2020-07-02T19:29:55Z</time>
      </trkpt>
      <trkpt lat="47.70641" lon="1.59252">
        <ele>88.7</ele>
        <time>2020-07-02T19:29:56Z</time>
      </trkpt>
      <trkpt lat="47.70637" lon="1.59244">
        <ele>88.7</ele>
        <time>2020-07-02T19:29:57Z</time>
      </trkpt>
      <trkpt lat="47.70632" lon="1.59236">
        <ele>88.7</ele>
        <time>2020-07-02T19:29:58Z</time>
      </trkpt>
      <trkpt lat="47.70628" lon="1.59228">
        <ele>88.8</ele>
        <time>2020-07-02T19:29:59Z</time>
      </trkpt>
      <trkpt lat="47.70624" lon="1.59221">
        <ele>88.8</ele>
        <time>2020-07-02T19:30:00Z</time>
      </trkpt>
      <trkpt lat="47.70619" lon="1.59214">
        <ele>88.8</ele>
        <time>2020-07-02T19:30:01Z</time>
      </trkpt>
      <trkpt lat="47.70615" lon="1.59207">
        <ele>88.7</ele>
        <time>2020-07-02T19:30:02Z</time>
      </trkpt>
      <trkpt lat="47.70611" lon="1.59199">
        <ele>88.7</ele>
        <time>2020-07-02T19:30:03Z</time>
      </trkpt>
      <trkpt lat="47.70607" lon="1.59191">
        <ele>88.7</ele>
        <time>2020-07-02T19:30:04Z</time>
      </trkpt>
      <trkpt lat="47.70603" lon="1.59183">
        <ele>88.6</ele>
        <time>2020-07-02T19:30:05Z</time>
      </trkpt>
      <trkpt lat="47.70599" lon="1.59175">
        <ele>88.5</ele>
        <time>2020-07-02T19:30:06Z</time>
      </trkpt>
      <trkpt lat="47.70595" lon="1.59168">
        <ele>88.5</ele>
        <time>2020-07-02T19:30:07Z</time>
      </trkpt>
      <trkpt lat="47.7059" lon="1.59161">
        <ele>88.4</ele>
        <time>2020-07-02T19:30:08Z</time>
      </trkpt>
      <trkpt lat="47.70586" lon="1.59153">
        <ele>88.4</ele>
        <time>2020-07-02T19:30:09Z</time>
      </trkpt>
      <trkpt lat="47.70581" lon="1.59145">
        <ele>88.4</ele>
        <time>2020-07-02T19:30:10Z</time>
      </trkpt>
      <trkpt lat="47.70577" lon="1.59138">
        <ele>88.3</ele>
        <time>2020-07-02T19:30:11Z</time>
      </trkpt>
      <trkpt lat="47.70572" lon="1.5913">
        <ele>88.3</ele>
        <time>2020-07-02T19:30:12Z</time>
      </trkpt>
      <trkpt lat="47.70568" lon="1.59123">
        <ele>88.3</ele>
        <time>2020-07-02T19:30:13Z</time>
      </trkpt>
      <trkpt lat="47.70564" lon="1.59115">
        <ele>88.2</ele>
        <time>2020-07-02T19:30:14Z</time>
      </trkpt>
      <trkpt lat="47.7056" lon="1.59108">
        <ele>88.2</ele>
        <time>2020-07-02T19:30:15Z</time>
      </trkpt>
      <trkpt lat="47.70555" lon="1.591">
        <ele>88.1</ele>
        <time>2020-07-02T19:30:16Z</time>
      </trkpt>
      <trkpt lat="47.70551" lon="1.59093">
        <ele>88.1</ele>
        <time>2020-07-02T19:30:17Z</time>
      </trkpt>
      <trkpt lat="47.70547" lon="1.59085">
        <ele>88</ele>
        <time>2020-07-02T19:30:18Z</time>
      </trkpt>
      <trkpt lat="47.70543" lon="1.59078">
        <ele>88</ele>
        <time>2020-07-02T19:30:19Z</time>
      </trkpt>
      <trkpt lat="47.70538" lon="1.5907">
        <ele>88</ele>
        <time>2020-07-02T19:30:20Z</time>
      </trkpt>
      <trkpt lat="47.70534" lon="1.59062">
        <ele>87.9</ele>
        <time>2020-07-02T19:30:21Z</time>
      </trkpt>
      <trkpt lat="47.70529" lon="1.59055">
        <ele>87.9</ele>
        <time>2020-07-02T19:30:22Z</time>
      </trkpt>
      <trkpt lat="47.70525" lon="1.59047">
        <ele>87.8</ele>
        <time>2020-07-02T19:30:23Z</time>
      </trkpt>
      <trkpt lat="47.70521" lon="1.59039">
        <ele>87.8</ele>
        <time>2020-07-02T19:30:24Z</time>
      </trkpt>
      <trkpt lat="47.70516" lon="1.59032">
        <ele>87.8</ele>
        <time>2020-07-02T19:30:25Z</time>
      </trkpt>
      <trkpt lat="47.70512" lon="1.59024">
        <ele>87.7</ele>
        <time>2020-07-02T19:30:26Z</time>
      </trkpt>
      <trkpt lat="47.70508" lon="1.59017">
        <ele>87.6</ele>
        <time>2020-07-02T19:30:27Z</time>
      </trkpt>
      <trkpt lat="47.70503" lon="1.59009">
        <ele>87.6</ele>
        <time>2020-07-02T19:30:28Z</time>
      </trkpt>
      <trkpt lat="47.70499" lon="1.59001">
        <ele>87.5</ele>
        <time>2020-07-02T19:30:29Z</time>
      </trkpt>
      <trkpt lat="47.70495" lon="1.58994">
        <ele>87.5</ele>
        <time>2020-07-02T19:30:30Z</time>
      </trkpt>
      <trkpt lat="47.7049" lon="1.58986">
        <ele>87.4</ele>
        <time>2020-07-02T19:30:31Z</time>
      </trkpt>
      <trkpt lat="47.70487" lon="1.58979">
        <ele>87.3</ele>
        <time>2020-07-02T19:30:32Z</time>
      </trkpt>
      <trkpt lat="47.70483" lon="1.58971">
        <ele>87.3</ele>
        <time>2020-07-02T19:30:33Z</time>
      </trkpt>
      <trkpt lat="47.70479" lon="1.58964">
        <ele>87.2</ele>
        <time>2020-07-02T19:30:34Z</time>
      </trkpt>
      <trkpt lat="47.70475" lon="1.58958">
        <ele>87.2</ele>
        <time>2020-07-02T19:30:35Z</time>
      </trkpt>
      <trkpt lat="47.70471" lon="1.58951">
        <ele>87.2</ele>
        <time>2020-07-02T19:30:36Z</time>
      </trkpt>
      <trkpt lat="47.70467" lon="1.58944">
        <ele>87.1</ele>
        <time>2020-07-02T19:30:37Z</time>
      </trkpt>
      <trkpt lat="47.70464" lon="1.58938">
        <ele>87.1</ele>
        <time>2020-07-02T19:30:38Z</time>
      </trkpt>
      <trkpt lat="47.7046" lon="1.58932">
        <ele>87.1</ele>
        <time>2020-07-02T19:30:39Z</time>
      </trkpt>
      <trkpt lat="47.70457" lon="1.58925">
        <ele>87</ele>
        <time>2020-07-02T19:30:40Z</time>
      </trkpt>
      <trkpt lat="47.70454" lon="1.58919">
        <ele>87</ele>
        <time>2020-07-02T19:30:41Z</time>
      </trkpt>
      <trkpt lat="47.70451" lon="1.58913">
        <ele>87</ele>
        <time>2020-07-02T19:30:42Z</time>
      </trkpt>
      <trkpt lat="47.70448" lon="1.58907">
        <ele>86.9</ele>
        <time>2020-07-02T19:30:43Z</time>
      </trkpt>
      <trkpt lat="47.70445" lon="1.58901">
        <ele>86.9</ele>
        <time>2020-07-02T19:30:44Z</time>
      </trkpt>
      <trkpt lat="47.70442" lon="1.58895">
        <ele>86.9</ele>
        <time>2020-07-02T19:30:45Z</time>
      </trkpt>
      <trkpt lat="47.70439" lon="1.58889">
        <ele>86.9</ele>
        <time>2020-07-02T19:30:46Z</time>
      </trkpt>
      <trkpt lat="47.70435" lon="1.58884">
        <ele>86.9</ele>
        <time>2020-07-02T19:30:47Z</time>
      </trkpt>
      <trkpt lat="47.70432" lon="1.58879">
        <ele>86.8</ele>
        <time>2020-07-02T19:30:48Z</time>
      </trkpt>
      <trkpt lat="47.70429" lon="1.58873">
        <ele>86.8</ele>
        <time>2020-07-02T19:30:49Z</time>
      </trkpt>
      <trkpt lat="47.70426" lon="1.58867">
        <ele>86.8</ele>
        <time>2020-07-02T19:30:50Z</time>
      </trkpt>
      <trkpt lat="47.70423" lon="1.58862">
        <ele>86.8</ele>
        <time>2020-07-02T19:30:51Z</time>
      </trkpt>
      <trkpt lat="47.7042" lon="1.58856">
        <ele>86.7</ele>
        <time>2020-07-02T19:30:52Z</time>
      </trkpt>
      <trkpt lat="47.70417" lon="1.5885">
        <ele>86.6</ele>
        <time>2020-07-02T19:30:53Z</time>
      </trkpt>
      <trkpt lat="47.70414" lon="1.58845">
        <ele>86.6</ele>
        <time>2020-07-02T19:30:54Z</time>
      </trkpt>
      <trkpt lat="47.70411" lon="1.5884">
        <ele>86.5</ele>
        <time>2020-07-02T19:30:55Z</time>
      </trkpt>
      <trkpt lat="47.70408" lon="1.58834">
        <ele>86.5</ele>
        <time>2020-07-02T19:30:56Z</time>
      </trkpt>
      <trkpt lat="47.70405" lon="1.58829">
        <ele>86.4</ele>
        <time>2020-07-02T19:30:57Z</time>
      </trkpt>
      <trkpt lat="47.70402" lon="1.58824">
        <ele>86.3</ele>
        <time>2020-07-02T19:30:58Z</time>
      </trkpt>
      <trkpt lat="47.70399" lon="1.58818">
        <ele>86.3</ele>
        <time>2020-07-02T19:30:59Z</time>
      </trkpt>
      <trkpt lat="47.70397" lon="1.58813">
        <ele>86.2</ele>
        <time>2020-07-02T19:31:00Z</time>
      </trkpt>
      <trkpt lat="47.70394" lon="1.58808">
        <ele>86.2</ele>
        <time>2020-07-02T19:31:01Z</time>
      </trkpt>
      <trkpt lat="47.70391" lon="1.58802">
        <ele>86.1</ele>
        <time>2020-07-02T19:31:02Z</time>
      </trkpt>
      <trkpt lat="47.70388" lon="1.58798">
        <ele>86.1</ele>
        <time>2020-07-02T19:31:03Z</time>
      </trkpt>
      <trkpt lat="47.70385" lon="1.58794">
        <ele>86</ele>
        <time>2020-07-02T19:31:04Z</time>
      </trkpt>
      <trkpt lat="47.70382" lon="1.58789">
        <ele>85.9</ele>
        <time>2020-07-02T19:31:05Z</time>
      </trkpt>
      <trkpt lat="47.7038" lon="1.58785">
        <ele>85.9</ele>
        <time>2020-07-02T19:31:06Z</time>
      </trkpt>
      <trkpt lat="47.70378" lon="1.5878">
        <ele>85.8</ele>
        <time>2020-07-02T19:31:07Z</time>
      </trkpt>
      <trkpt lat="47.70375" lon="1.58775">
        <ele>85.8</ele>
        <time>2020-07-02T19:31:08Z</time>
      </trkpt>
      <trkpt lat="47.70373" lon="1.5877">
        <ele>85.8</ele>
        <time>2020-07-02T19:31:09Z</time>
      </trkpt>
      <trkpt lat="47.7037" lon="1.58765">
        <ele>85.7</ele>
        <time>2020-07-02T19:31:10Z</time>
      </trkpt>
      <trkpt lat="47.70368" lon="1.5876">
        <ele>85.7</ele>
        <time>2020-07-02T19:31:11Z</time>
      </trkpt>
      <trkpt lat="47.70365" lon="1.58756">
        <ele>85.7</ele>
        <time>2020-07-02T19:31:12Z</time>
      </trkpt>
      <trkpt lat="47.70362" lon="1.58752">
        <ele>85.7</ele>
        <time>2020-07-02T19:31:13Z</time>
      </trkpt>
      <trkpt lat="47.70359" lon="1.58748">
        <ele>85.7</ele>
        <time>2020-07-02T19:31:14Z</time>
      </trkpt>
      <trkpt lat="47.70357" lon="1.58744">
        <ele>85.6</ele>
        <time>2020-07-02T19:31:15Z</time>
      </trkpt>
      <trkpt lat="47.70354" lon="1.5874">
        <ele>85.6</ele>
        <time>2020-07-02T19:31:16Z</time>
      </trkpt>
      <trkpt lat="47.70351" lon="1.58735">
        <ele>85.5</ele>
        <time>2020-07-02T19:31:17Z</time>
      </trkpt>
      <trkpt lat="47.70348" lon="1.58731">
        <ele>85.5</ele>
        <time>2020-07-02T19:31:18Z</time>
      </trkpt>
      <trkpt lat="47.70346" lon="1.58726">
        <ele>85.4</ele>
        <time>2020-07-02T19:31:19Z</time>
      </trkpt>
      <trkpt lat="47.70343" lon="1.58721">
        <ele>85.4</ele>
        <time>2020-07-02T19:31:20Z</time>
      </trkpt>
      <trkpt lat="47.70341" lon="1.58716">
        <ele>85.3</ele>
        <time>2020-07-02T19:31:21Z</time>
      </trkpt>
      <trkpt lat="47.70338" lon="1.58711">
        <ele>85.2</ele>
        <time>2020-07-02T19:31:22Z</time>
      </trkpt>
      <trkpt lat="47.70334" lon="1.58706">
        <ele>85.1</ele>
        <time>2020-07-02T19:31:23Z</time>
      </trkpt>
      <trkpt lat="47.70331" lon="1.58701">
        <ele>85</ele>
        <time>2020-07-02T19:31:24Z</time>
      </trkpt>
      <trkpt lat="47.70329" lon="1.58695">
        <ele>85</ele>
        <time>2020-07-02T19:31:25Z</time>
      </trkpt>
      <trkpt lat="47.70326" lon="1.5869">
        <ele>84.9</ele>
        <time>2020-07-02T19:31:26Z</time>
      </trkpt>
      <trkpt lat="47.70323" lon="1.58684">
        <ele>84.9</ele>
        <time>2020-07-02T19:31:27Z</time>
      </trkpt>
      <trkpt lat="47.7032" lon="1.58677">
        <ele>84.8</ele>
        <time>2020-07-02T19:31:28Z</time>
      </trkpt>
      <trkpt lat="47.70317" lon="1.58672">
        <ele>84.8</ele>
        <time>2020-07-02T19:31:29Z</time>
      </trkpt>
      <trkpt lat="47.70314" lon="1.58666">
        <ele>84.7</ele>
        <time>2020-07-02T19:31:30Z</time>
      </trkpt>
      <trkpt lat="47.70312" lon="1.5866">
        <ele>84.6</ele>
        <time>2020-07-02T19:31:31Z</time>
      </trkpt>
      <trkpt lat="47.70309" lon="1.58655">
        <ele>84.6</ele>
        <time>2020-07-02T19:31:32Z</time>
      </trkpt>
      <trkpt lat="47.70306" lon="1.58649">
        <ele>84.5</ele>
        <time>2020-07-02T19:31:33Z</time>
      </trkpt>
      <trkpt lat="47.70303" lon="1.58644">
        <ele>84.5</ele>
        <time>2020-07-02T19:31:34Z</time>
      </trkpt>
      <trkpt lat="47.703" lon="1.58639">
        <ele>84.4</ele>
        <time>2020-07-02T19:31:35Z</time>
      </trkpt>
      <trkpt lat="47.70297" lon="1.58634">
        <ele>84.4</ele>
        <time>2020-07-02T19:31:36Z</time>
      </trkpt>
      <trkpt lat="47.70293" lon="1.58629">
        <ele>84.4</ele>
        <time>2020-07-02T19:31:37Z</time>
      </trkpt>
      <trkpt lat="47.7029" lon="1.58624">
        <ele>84.3</ele>
        <time>2020-07-02T19:31:38Z</time>
      </trkpt>
      <trkpt lat="47.70287" lon="1.5862">
        <ele>84.3</ele>
        <time>2020-07-02T19:31:39Z</time>
      </trkpt>
      <trkpt lat="47.70284" lon="1.58615">
        <ele>84.2</ele>
        <time>2020-07-02T19:31:40Z</time>
      </trkpt>
      <trkpt lat="47.70282" lon="1.5861">
        <ele>84.1</ele>
        <time>2020-07-02T19:31:41Z</time>
      </trkpt>
      <trkpt lat="47.7028" lon="1.58605">
        <ele>84</ele>
        <time>2020-07-02T19:31:42Z</time>
      </trkpt>
      <trkpt lat="47.70277" lon="1.586">
        <ele>83.9</ele>
        <time>2020-07-02T19:31:43Z</time>
      </trkpt>
      <trkpt lat="47.70274" lon="1.58595">
        <ele>83.9</ele>
        <time>2020-07-02T19:31:44Z</time>
      </trkpt>
      <trkpt lat="47.70272" lon="1.5859">
        <ele>83.8</ele>
        <time>2020-07-02T19:31:45Z</time>
      </trkpt>
      <trkpt lat="47.70269" lon="1.58584">
        <ele>83.7</ele>
        <time>2020-07-02T19:31:46Z</time>
      </trkpt>
      <trkpt lat="47.70266" lon="1.58579">
        <ele>83.6</ele>
        <time>2020-07-02T19:31:47Z</time>
      </trkpt>
      <trkpt lat="47.70263" lon="1.58574">
        <ele>83.5</ele>
        <time>2020-07-02T19:31:48Z</time>
      </trkpt>
      <trkpt lat="47.70261" lon="1.58568">
        <ele>83.4</ele>
        <time>2020-07-02T19:31:49Z</time>
      </trkpt>
      <trkpt lat="47.70257" lon="1.58563">
        <ele>83.3</ele>
        <time>2020-07-02T19:31:50Z</time>
      </trkpt>
      <trkpt lat="47.70254" lon="1.58557">
        <ele>83.2</ele>
        <time>2020-07-02T19:31:51Z</time>
      </trkpt>
      <trkpt lat="47.70252" lon="1.58552">
        <ele>83.1</ele>
        <time>2020-07-02T19:31:52Z</time>
      </trkpt>
      <trkpt lat="47.70249" lon="1.58546">
        <ele>83</ele>
        <time>2020-07-02T19:31:53Z</time>
      </trkpt>
      <trkpt lat="47.70246" lon="1.58541">
        <ele>82.9</ele>
        <time>2020-07-02T19:31:54Z</time>
      </trkpt>
      <trkpt lat="47.70243" lon="1.58536">
        <ele>82.8</ele>
        <time>2020-07-02T19:31:55Z</time>
      </trkpt>
      <trkpt lat="47.7024" lon="1.58531">
        <ele>82.7</ele>
        <time>2020-07-02T19:31:56Z</time>
      </trkpt>
      <trkpt lat="47.70236" lon="1.58525">
        <ele>82.6</ele>
        <time>2020-07-02T19:31:57Z</time>
      </trkpt>
      <trkpt lat="47.70233" lon="1.58519">
        <ele>82.5</ele>
        <time>2020-07-02T19:31:58Z</time>
      </trkpt>
      <trkpt lat="47.7023" lon="1.58513">
        <ele>82.4</ele>
        <time>2020-07-02T19:31:59Z</time>
      </trkpt>
      <trkpt lat="47.70227" lon="1.58507">
        <ele>82.2</ele>
        <time>2020-07-02T19:32:00Z</time>
      </trkpt>
      <trkpt lat="47.70224" lon="1.58502">
        <ele>82.2</ele>
        <time>2020-07-02T19:32:01Z</time>
      </trkpt>
      <trkpt lat="47.70221" lon="1.58496">
        <ele>82.1</ele>
        <time>2020-07-02T19:32:02Z</time>
      </trkpt>
      <trkpt lat="47.70217" lon="1.58491">
        <ele>82</ele>
        <time>2020-07-02T19:32:03Z</time>
      </trkpt>
      <trkpt lat="47.70214" lon="1.58485">
        <ele>81.9</ele>
        <time>2020-07-02T19:32:04Z</time>
      </trkpt>
      <trkpt lat="47.7021" lon="1.58479">
        <ele>81.8</ele>
        <time>2020-07-02T19:32:05Z</time>
      </trkpt>
      <trkpt lat="47.70206" lon="1.58474">
        <ele>81.7</ele>
        <time>2020-07-02T19:32:06Z</time>
      </trkpt>
      <trkpt lat="47.70203" lon="1.58468">
        <ele>81.6</ele>
        <time>2020-07-02T19:32:07Z</time>
      </trkpt>
      <trkpt lat="47.70199" lon="1.58462">
        <ele>81.5</ele>
        <time>2020-07-02T19:32:08Z</time>
      </trkpt>
      <trkpt lat="47.70195" lon="1.58456">
        <ele>81.4</ele>
        <time>2020-07-02T19:32:09Z</time>
      </trkpt>
      <trkpt lat="47.70193" lon="1.5845">
        <ele>81.3</ele>
        <time>2020-07-02T19:32:10Z</time>
      </trkpt>
      <trkpt lat="47.7019" lon="1.58444">
        <ele>81.2</ele>
        <time>2020-07-02T19:32:11Z</time>
      </trkpt>
      <trkpt lat="47.70186" lon="1.58438">
        <ele>81.2</ele>
        <time>2020-07-02T19:32:12Z</time>
      </trkpt>
      <trkpt lat="47.70183" lon="1.58433">
        <ele>81.1</ele>
        <time>2020-07-02T19:32:13Z</time>
      </trkpt>
      <trkpt lat="47.70179" lon="1.58426">
        <ele>81</ele>
        <time>2020-07-02T19:32:14Z</time>
      </trkpt>
      <trkpt lat="47.70176" lon="1.58418">
        <ele>80.9</ele>
        <time>2020-07-02T19:32:15Z</time>
      </trkpt>
      <trkpt lat="47.70173" lon="1.58411">
        <ele>80.8</ele>
        <time>2020-07-02T19:32:16Z</time>
      </trkpt>
      <trkpt lat="47.70169" lon="1.58405">
        <ele>80.7</ele>
        <time>2020-07-02T19:32:17Z</time>
      </trkpt>
      <trkpt lat="47.70165" lon="1.58398">
        <ele>80.6</ele>
        <time>2020-07-02T19:32:18Z</time>
      </trkpt>
      <trkpt lat="47.70161" lon="1.58391">
        <ele>80.6</ele>
        <time>2020-07-02T19:32:19Z</time>
      </trkpt>
      <trkpt lat="47.70159" lon="1.58383">
        <ele>80.5</ele>
        <time>2020-07-02T19:32:20Z</time>
      </trkpt>
      <trkpt lat="47.70154" lon="1.58376">
        <ele>80.4</ele>
        <time>2020-07-02T19:32:21Z</time>
      </trkpt>
      <trkpt lat="47.7015" lon="1.58369">
        <ele>80.3</ele>
        <time>2020-07-02T19:32:22Z</time>
      </trkpt>
      <trkpt lat="47.70146" lon="1.58361">
        <ele>80.3</ele>
        <time>2020-07-02T19:32:23Z</time>
      </trkpt>
      <trkpt lat="47.70143" lon="1.58354">
        <ele>80.2</ele>
        <time>2020-07-02T19:32:24Z</time>
      </trkpt>
      <trkpt lat="47.7014" lon="1.58346">
        <ele>80.1</ele>
        <time>2020-07-02T19:32:25Z</time>
      </trkpt>
      <trkpt lat="47.70137" lon="1.58339">
        <ele>80.1</ele>
        <time>2020-07-02T19:32:26Z</time>
      </trkpt>
      <trkpt lat="47.70133" lon="1.58333">
        <ele>80.1</ele>
        <time>2020-07-02T19:32:27Z</time>
      </trkpt>
      <trkpt lat="47.70129" lon="1.58326">
        <ele>80</ele>
        <time>2020-07-02T19:32:28Z</time>
      </trkpt>
      <trkpt lat="47.70126" lon="1.5832">
        <ele>80</ele>
        <time>2020-07-02T19:32:29Z</time>
      </trkpt>
      <trkpt lat="47.70122" lon="1.58312">
        <ele>80</ele>
        <time>2020-07-02T19:32:30Z</time>
      </trkpt>
      <trkpt lat="47.70119" lon="1.58305">
        <ele>79.9</ele>
        <time>2020-07-02T19:32:31Z</time>
      </trkpt>
      <trkpt lat="47.70114" lon="1.58296">
        <ele>79.8</ele>
        <time>2020-07-02T19:32:32Z</time>
      </trkpt>
      <trkpt lat="47.7011" lon="1.58289">
        <ele>79.6</ele>
        <time>2020-07-02T19:32:33Z</time>
      </trkpt>
      <trkpt lat="47.70106" lon="1.58281">
        <ele>79.5</ele>
        <time>2020-07-02T19:32:34Z</time>
      </trkpt>
      <trkpt lat="47.701" lon="1.58271">
        <ele>79.5</ele>
        <time>2020-07-02T19:32:35Z</time>
      </trkpt>
      <trkpt lat="47.70095" lon="1.58262">
        <ele>79.5</ele>
        <time>2020-07-02T19:32:36Z</time>
      </trkpt>
      <trkpt lat="47.7009" lon="1.58254">
        <ele>79.4</ele>
        <time>2020-07-02T19:32:37Z</time>
      </trkpt>
      <trkpt lat="47.70086" lon="1.58246">
        <ele>79.5</ele>
        <time>2020-07-02T19:32:38Z</time>
      </trkpt>
      <trkpt lat="47.70082" lon="1.58239">
        <ele>79.5</ele>
        <time>2020-07-02T19:32:39Z</time>
      </trkpt>
      <trkpt lat="47.70078" lon="1.58231">
        <ele>79.5</ele>
        <time>2020-07-02T19:32:40Z</time>
      </trkpt>
      <trkpt lat="47.70074" lon="1.58224">
        <ele>79.5</ele>
        <time>2020-07-02T19:32:41Z</time>
      </trkpt>
      <trkpt lat="47.7007" lon="1.58219">
        <ele>79.6</ele>
        <time>2020-07-02T19:32:42Z</time>
      </trkpt>
      <trkpt lat="47.70065" lon="1.58213">
        <ele>79.6</ele>
        <time>2020-07-02T19:32:43Z</time>
      </trkpt>
      <trkpt lat="47.70061" lon="1.58206">
        <ele>79.7</ele>
        <time>2020-07-02T19:32:44Z</time>
      </trkpt>
      <trkpt lat="47.70057" lon="1.58199">
        <ele>79.8</ele>
        <time>2020-07-02T19:32:45Z</time>
      </trkpt>
      <trkpt lat="47.70054" lon="1.58193">
        <ele>79.8</ele>
        <time>2020-07-02T19:32:46Z</time>
      </trkpt>
      <trkpt lat="47.7005" lon="1.58185">
        <ele>79.9</ele>
        <time>2020-07-02T19:32:47Z</time>
      </trkpt>
      <trkpt lat="47.70047" lon="1.58181">
        <ele>79.9</ele>
        <time>2020-07-02T19:32:48Z</time>
      </trkpt>
      <trkpt lat="47.70043" lon="1.58175">
        <ele>80</ele>
        <time>2020-07-02T19:32:49Z</time>
      </trkpt>
      <trkpt lat="47.70038" lon="1.58169">
        <ele>80.1</ele>
        <time>2020-07-02T19:32:50Z</time>
      </trkpt>
      <trkpt lat="47.70035" lon="1.58164">
        <ele>80.1</ele>
        <time>2020-07-02T19:32:51Z</time>
      </trkpt>
      <trkpt lat="47.70032" lon="1.58159">
        <ele>80.1</ele>
        <time>2020-07-02T19:32:52Z</time>
      </trkpt>
      <trkpt lat="47.70029" lon="1.58154">
        <ele>80.1</ele>
        <time>2020-07-02T19:32:53Z</time>
      </trkpt>
      <trkpt lat="47.70025" lon="1.58151">
        <ele>80.1</ele>
        <time>2020-07-02T19:32:54Z</time>
      </trkpt>
      <trkpt lat="47.70024" lon="1.58147">
        <ele>80.2</ele>
        <time>2020-07-02T19:32:55Z</time>
      </trkpt>
      <trkpt lat="47.70022" lon="1.5814">
        <ele>80.3</ele>
        <time>2020-07-02T19:32:56Z</time>
      </trkpt>
      <trkpt lat="47.70019" lon="1.58134">
        <ele>80.4</ele>
        <time>2020-07-02T19:32:57Z</time>
      </trkpt>
      <trkpt lat="47.70017" lon="1.58128">
        <ele>80.6</ele>
        <time>2020-07-02T19:32:58Z</time>
      </trkpt>
      <trkpt lat="47.70014" lon="1.58122">
        <ele>80.7</ele>
        <time>2020-07-02T19:32:59Z</time>
      </trkpt>
      <trkpt lat="47.7001" lon="1.58115">
        <ele>80.8</ele>
        <time>2020-07-02T19:33:00Z</time>
      </trkpt>
      <trkpt lat="47.70005" lon="1.58109">
        <ele>80.8</ele>
        <time>2020-07-02T19:33:01Z</time>
      </trkpt>
      <trkpt lat="47.70002" lon="1.58103">
        <ele>80.9</ele>
        <time>2020-07-02T19:33:02Z</time>
      </trkpt>
      <trkpt lat="47.69997" lon="1.58095">
        <ele>81</ele>
        <time>2020-07-02T19:33:03Z</time>
      </trkpt>
      <trkpt lat="47.69993" lon="1.58088">
        <ele>81.1</ele>
        <time>2020-07-02T19:33:04Z</time>
      </trkpt>
      <trkpt lat="47.69988" lon="1.58081">
        <ele>81.2</ele>
        <time>2020-07-02T19:33:05Z</time>
      </trkpt>
      <trkpt lat="47.69984" lon="1.58075">
        <ele>81.3</ele>
        <time>2020-07-02T19:33:06Z</time>
      </trkpt>
      <trkpt lat="47.6998" lon="1.58068">
        <ele>81.4</ele>
        <time>2020-07-02T19:33:07Z</time>
      </trkpt>
      <trkpt lat="47.69976" lon="1.58062">
        <ele>81.5</ele>
        <time>2020-07-02T19:33:08Z</time>
      </trkpt>
      <trkpt lat="47.69972" lon="1.58056">
        <ele>81.6</ele>
        <time>2020-07-02T19:33:09Z</time>
      </trkpt>
      <trkpt lat="47.69967" lon="1.58048">
        <ele>81.8</ele>
        <time>2020-07-02T19:33:10Z</time>
      </trkpt>
      <trkpt lat="47.69963" lon="1.58042">
        <ele>81.9</ele>
        <time>2020-07-02T19:33:11Z</time>
      </trkpt>
      <trkpt lat="47.6996" lon="1.58038">
        <ele>82</ele>
        <time>2020-07-02T19:33:12Z</time>
      </trkpt>
      <trkpt lat="47.69956" lon="1.58032">
        <ele>82.2</ele>
        <time>2020-07-02T19:33:13Z</time>
      </trkpt>
      <trkpt lat="47.69952" lon="1.58026">
        <ele>82.3</ele>
        <time>2020-07-02T19:33:14Z</time>
      </trkpt>
      <trkpt lat="47.69948" lon="1.5802">
        <ele>82.4</ele>
        <time>2020-07-02T19:33:15Z</time>
      </trkpt>
      <trkpt lat="47.69944" lon="1.58015">
        <ele>82.5</ele>
        <time>2020-07-02T19:33:16Z</time>
      </trkpt>
      <trkpt lat="47.6994" lon="1.5801">
        <ele>82.6</ele>
        <time>2020-07-02T19:33:17Z</time>
      </trkpt>
      <trkpt lat="47.69937" lon="1.58005">
        <ele>82.7</ele>
        <time>2020-07-02T19:33:18Z</time>
      </trkpt>
      <trkpt lat="47.69933" lon="1.57999">
        <ele>82.8</ele>
        <time>2020-07-02T19:33:19Z</time>
      </trkpt>
      <trkpt lat="47.6993" lon="1.57993">
        <ele>82.9</ele>
        <time>2020-07-02T19:33:20Z</time>
      </trkpt>
      <trkpt lat="47.69927" lon="1.57988">
        <ele>82.9</ele>
        <time>2020-07-02T19:33:21Z</time>
      </trkpt>
      <trkpt lat="47.69924" lon="1.57982">
        <ele>83</ele>
        <time>2020-07-02T19:33:22Z</time>
      </trkpt>
      <trkpt lat="47.6992" lon="1.57976">
        <ele>83.1</ele>
        <time>2020-07-02T19:33:23Z</time>
      </trkpt>
      <trkpt lat="47.69917" lon="1.57973">
        <ele>83.2</ele>
        <time>2020-07-02T19:33:24Z</time>
      </trkpt>
      <trkpt lat="47.69914" lon="1.57967">
        <ele>83.4</ele>
        <time>2020-07-02T19:33:25Z</time>
      </trkpt>
      <trkpt lat="47.6991" lon="1.5796">
        <ele>83.5</ele>
        <time>2020-07-02T19:33:26Z</time>
      </trkpt>
      <trkpt lat="47.69906" lon="1.57957">
        <ele>83.6</ele>
        <time>2020-07-02T19:33:27Z</time>
      </trkpt>
      <trkpt lat="47.69902" lon="1.57951">
        <ele>83.7</ele>
        <time>2020-07-02T19:33:28Z</time>
      </trkpt>
      <trkpt lat="47.69899" lon="1.57946">
        <ele>83.8</ele>
        <time>2020-07-02T19:33:29Z</time>
      </trkpt>
      <trkpt lat="47.69896" lon="1.57941">
        <ele>83.9</ele>
        <time>2020-07-02T19:33:30Z</time>
      </trkpt>
      <trkpt lat="47.69892" lon="1.57937">
        <ele>84</ele>
        <time>2020-07-02T19:33:31Z</time>
      </trkpt>
      <trkpt lat="47.69888" lon="1.57931">
        <ele>84.1</ele>
        <time>2020-07-02T19:33:32Z</time>
      </trkpt>
      <trkpt lat="47.69885" lon="1.57925">
        <ele>84.2</ele>
        <time>2020-07-02T19:33:33Z</time>
      </trkpt>
      <trkpt lat="47.69881" lon="1.57918">
        <ele>84.4</ele>
        <time>2020-07-02T19:33:34Z</time>
      </trkpt>
      <trkpt lat="47.69878" lon="1.57913">
        <ele>84.5</ele>
        <time>2020-07-02T19:33:35Z</time>
      </trkpt>
      <trkpt lat="47.69876" lon="1.57908">
        <ele>84.7</ele>
        <time>2020-07-02T19:33:36Z</time>
      </trkpt>
      <trkpt lat="47.69874" lon="1.57904">
        <ele>84.8</ele>
        <time>2020-07-02T19:33:37Z</time>
      </trkpt>
      <trkpt lat="47.69871" lon="1.57901">
        <ele>84.8</ele>
        <time>2020-07-02T19:33:38Z</time>
      </trkpt>
      <trkpt lat="47.69868" lon="1.57897">
        <ele>84.9</ele>
        <time>2020-07-02T19:33:39Z</time>
      </trkpt>
      <trkpt lat="47.69864" lon="1.57892">
        <ele>84.9</ele>
        <time>2020-07-02T19:33:40Z</time>
      </trkpt>
      <trkpt lat="47.69862" lon="1.57889">
        <ele>84.9</ele>
        <time>2020-07-02T19:33:41Z</time>
      </trkpt>
      <trkpt lat="47.69859" lon="1.57887">
        <ele>85</ele>
        <time>2020-07-02T19:33:42Z</time>
      </trkpt>
      <trkpt lat="47.69857" lon="1.57884">
        <ele>85</ele>
        <time>2020-07-02T19:33:43Z</time>
      </trkpt>
      <trkpt lat="47.69854" lon="1.57881">
        <ele>85</ele>
        <time>2020-07-02T19:33:44Z</time>
      </trkpt>
      <trkpt lat="47.69852" lon="1.57879">
        <ele>85</ele>
        <time>2020-07-02T19:33:45Z</time>
      </trkpt>
      <trkpt lat="47.69849" lon="1.57875">
        <ele>84.9</ele>
        <time>2020-07-02T19:33:46Z</time>
      </trkpt>
      <trkpt lat="47.69846" lon="1.57869">
        <ele>84.9</ele>
        <time>2020-07-02T19:33:47Z</time>
      </trkpt>
      <trkpt lat="47.69842" lon="1.57864">
        <ele>84.9</ele>
        <time>2020-07-02T19:33:48Z</time>
      </trkpt>
      <trkpt lat="47.69839" lon="1.57858">
        <ele>84.9</ele>
        <time>2020-07-02T19:33:49Z</time>
      </trkpt>
      <trkpt lat="47.69835" lon="1.57852">
        <ele>84.8</ele>
        <time>2020-07-02T19:33:50Z</time>
      </trkpt>
      <trkpt lat="47.6983" lon="1.57847">
        <ele>84.8</ele>
        <time>2020-07-02T19:33:51Z</time>
      </trkpt>
      <trkpt lat="47.69826" lon="1.57842">
        <ele>84.7</ele>
        <time>2020-07-02T19:33:52Z</time>
      </trkpt>
      <trkpt lat="47.69823" lon="1.57836">
        <ele>84.6</ele>
        <time>2020-07-02T19:33:53Z</time>
      </trkpt>
      <trkpt lat="47.69819" lon="1.57829">
        <ele>84.6</ele>
        <time>2020-07-02T19:33:54Z</time>
      </trkpt>
      <trkpt lat="47.69815" lon="1.57825">
        <ele>84.5</ele>
        <time>2020-07-02T19:33:55Z</time>
      </trkpt>
      <trkpt lat="47.69811" lon="1.57818">
        <ele>84.5</ele>
        <time>2020-07-02T19:33:56Z</time>
      </trkpt>
      <trkpt lat="47.69807" lon="1.57811">
        <ele>84.4</ele>
        <time>2020-07-02T19:33:57Z</time>
      </trkpt>
      <trkpt lat="47.69803" lon="1.57803">
        <ele>84.4</ele>
        <time>2020-07-02T19:33:58Z</time>
      </trkpt>
      <trkpt lat="47.69799" lon="1.57797">
        <ele>84.3</ele>
        <time>2020-07-02T19:33:59Z</time>
      </trkpt>
      <trkpt lat="47.69795" lon="1.5779">
        <ele>84.2</ele>
        <time>2020-07-02T19:34:00Z</time>
      </trkpt>
      <trkpt lat="47.69791" lon="1.57783">
        <ele>84.1</ele>
        <time>2020-07-02T19:34:01Z</time>
      </trkpt>
      <trkpt lat="47.69787" lon="1.57776">
        <ele>84.1</ele>
        <time>2020-07-02T19:34:02Z</time>
      </trkpt>
      <trkpt lat="47.69783" lon="1.57771">
        <ele>84.1</ele>
        <time>2020-07-02T19:34:03Z</time>
      </trkpt>
      <trkpt lat="47.69778" lon="1.57763">
        <ele>84.2</ele>
        <time>2020-07-02T19:34:04Z</time>
      </trkpt>
      <trkpt lat="47.69774" lon="1.57757">
        <ele>84.2</ele>
        <time>2020-07-02T19:34:05Z</time>
      </trkpt>
      <trkpt lat="47.69769" lon="1.57752">
        <ele>84.3</ele>
        <time>2020-07-02T19:34:06Z</time>
      </trkpt>
      <trkpt lat="47.69765" lon="1.57744">
        <ele>84.4</ele>
        <time>2020-07-02T19:34:07Z</time>
      </trkpt>
      <trkpt lat="47.6976" lon="1.57738">
        <ele>84.6</ele>
        <time>2020-07-02T19:34:08Z</time>
      </trkpt>
      <trkpt lat="47.69757" lon="1.57731">
        <ele>84.7</ele>
        <time>2020-07-02T19:34:09Z</time>
      </trkpt>
      <trkpt lat="47.69754" lon="1.57724">
        <ele>84.8</ele>
        <time>2020-07-02T19:34:10Z</time>
      </trkpt>
      <trkpt lat="47.6975" lon="1.57719">
        <ele>84.9</ele>
        <time>2020-07-02T19:34:11Z</time>
      </trkpt>
      <trkpt lat="47.69745" lon="1.57711">
        <ele>85</ele>
        <time>2020-07-02T19:34:12Z</time>
      </trkpt>
      <trkpt lat="47.69741" lon="1.57706">
        <ele>85.1</ele>
        <time>2020-07-02T19:34:13Z</time>
      </trkpt>
      <trkpt lat="47.69738" lon="1.577">
        <ele>85.2</ele>
        <time>2020-07-02T19:34:14Z</time>
      </trkpt>
      <trkpt lat="47.69734" lon="1.57693">
        <ele>85.3</ele>
        <time>2020-07-02T19:34:15Z</time>
      </trkpt>
      <trkpt lat="47.69731" lon="1.57688">
        <ele>85.4</ele>
        <time>2020-07-02T19:34:16Z</time>
      </trkpt>
      <trkpt lat="47.69727" lon="1.57682">
        <ele>85.5</ele>
        <time>2020-07-02T19:34:17Z</time>
      </trkpt>
      <trkpt lat="47.69723" lon="1.57679">
        <ele>85.6</ele>
        <time>2020-07-02T19:34:18Z</time>
      </trkpt>
      <trkpt lat="47.69721" lon="1.57676">
        <ele>85.6</ele>
        <time>2020-07-02T19:34:19Z</time>
      </trkpt>
      <trkpt lat="47.69717" lon="1.57669">
        <ele>85.7</ele>
        <time>2020-07-02T19:34:20Z</time>
      </trkpt>
      <trkpt lat="47.69713" lon="1.57663">
        <ele>85.7</ele>
        <time>2020-07-02T19:34:21Z</time>
      </trkpt>
      <trkpt lat="47.6971" lon="1.57658">
        <ele>85.8</ele>
        <time>2020-07-02T19:34:22Z</time>
      </trkpt>
      <trkpt lat="47.69707" lon="1.57652">
        <ele>85.8</ele>
        <time>2020-07-02T19:34:23Z</time>
      </trkpt>
      <trkpt lat="47.69703" lon="1.57646">
        <ele>85.8</ele>
        <time>2020-07-02T19:34:24Z</time>
      </trkpt>
      <trkpt lat="47.69699" lon="1.5764">
        <ele>85.9</ele>
        <time>2020-07-02T19:34:25Z</time>
      </trkpt>
      <trkpt lat="47.69695" lon="1.57635">
        <ele>85.9</ele>
        <time>2020-07-02T19:34:26Z</time>
      </trkpt>
      <trkpt lat="47.69692" lon="1.57629">
        <ele>85.9</ele>
        <time>2020-07-02T19:34:27Z</time>
      </trkpt>
      <trkpt lat="47.69687" lon="1.57622">
        <ele>85.9</ele>
        <time>2020-07-02T19:34:28Z</time>
      </trkpt>
      <trkpt lat="47.69684" lon="1.57616">
        <ele>85.9</ele>
        <time>2020-07-02T19:34:29Z</time>
      </trkpt>
      <trkpt lat="47.6968" lon="1.5761">
        <ele>85.9</ele>
        <time>2020-07-02T19:34:30Z</time>
      </trkpt>
      <trkpt lat="47.69677" lon="1.57603">
        <ele>86</ele>
        <time>2020-07-02T19:34:31Z</time>
      </trkpt>
      <trkpt lat="47.69674" lon="1.57597">
        <ele>86</ele>
        <time>2020-07-02T19:34:32Z</time>
      </trkpt>
      <trkpt lat="47.6967" lon="1.5759">
        <ele>85.9</ele>
        <time>2020-07-02T19:34:33Z</time>
      </trkpt>
      <trkpt lat="47.69666" lon="1.57584">
        <ele>85.9</ele>
        <time>2020-07-02T19:34:34Z</time>
      </trkpt>
      <trkpt lat="47.69662" lon="1.57577">
        <ele>85.9</ele>
        <time>2020-07-02T19:34:35Z</time>
      </trkpt>
      <trkpt lat="47.69658" lon="1.57571">
        <ele>85.9</ele>
        <time>2020-07-02T19:34:36Z</time>
      </trkpt>
      <trkpt lat="47.69654" lon="1.57564">
        <ele>86</ele>
        <time>2020-07-02T19:34:37Z</time>
      </trkpt>
      <trkpt lat="47.69649" lon="1.57558">
        <ele>86</ele>
        <time>2020-07-02T19:34:38Z</time>
      </trkpt>
      <trkpt lat="47.69646" lon="1.57551">
        <ele>86</ele>
        <time>2020-07-02T19:34:39Z</time>
      </trkpt>
      <trkpt lat="47.69642" lon="1.57546">
        <ele>86.1</ele>
        <time>2020-07-02T19:34:40Z</time>
      </trkpt>
      <trkpt lat="47.69637" lon="1.5754">
        <ele>86.1</ele>
        <time>2020-07-02T19:34:41Z</time>
      </trkpt>
      <trkpt lat="47.69633" lon="1.57533">
        <ele>86.1</ele>
        <time>2020-07-02T19:34:42Z</time>
      </trkpt>
      <trkpt lat="47.69627" lon="1.57524">
        <ele>86.1</ele>
        <time>2020-07-02T19:34:43Z</time>
      </trkpt>
      <trkpt lat="47.69623" lon="1.57517">
        <ele>86.1</ele>
        <time>2020-07-02T19:34:44Z</time>
      </trkpt>
      <trkpt lat="47.69618" lon="1.5751">
        <ele>86.1</ele>
        <time>2020-07-02T19:34:45Z</time>
      </trkpt>
      <trkpt lat="47.69615" lon="1.57504">
        <ele>86.1</ele>
        <time>2020-07-02T19:34:46Z</time>
      </trkpt>
      <trkpt lat="47.6961" lon="1.57497">
        <ele>86.2</ele>
        <time>2020-07-02T19:34:47Z</time>
      </trkpt>
      <trkpt lat="47.69606" lon="1.5749">
        <ele>86.2</ele>
        <time>2020-07-02T19:34:48Z</time>
      </trkpt>
      <trkpt lat="47.69602" lon="1.57486">
        <ele>86.2</ele>
        <time>2020-07-02T19:34:49Z</time>
      </trkpt>
      <trkpt lat="47.69599" lon="1.57482">
        <ele>86.2</ele>
        <time>2020-07-02T19:34:50Z</time>
      </trkpt>
      <trkpt lat="47.69594" lon="1.57475">
        <ele>86.3</ele>
        <time>2020-07-02T19:34:51Z</time>
      </trkpt>
      <trkpt lat="47.69589" lon="1.57467">
        <ele>86.3</ele>
        <time>2020-07-02T19:34:52Z</time>
      </trkpt>
      <trkpt lat="47.69585" lon="1.57462">
        <ele>86.3</ele>
        <time>2020-07-02T19:34:53Z</time>
      </trkpt>
      <trkpt lat="47.69582" lon="1.57457">
        <ele>86.4</ele>
        <time>2020-07-02T19:34:54Z</time>
      </trkpt>
      <trkpt lat="47.69577" lon="1.57451">
        <ele>86.4</ele>
        <time>2020-07-02T19:34:55Z</time>
      </trkpt>
      <trkpt lat="47.69574" lon="1.57447">
        <ele>86.4</ele>
        <time>2020-07-02T19:34:56Z</time>
      </trkpt>
      <trkpt lat="47.6957" lon="1.57442">
        <ele>86.4</ele>
        <time>2020-07-02T19:34:57Z</time>
      </trkpt>
      <trkpt lat="47.69565" lon="1.57435">
        <ele>86.5</ele>
        <time>2020-07-02T19:34:58Z</time>
      </trkpt>
      <trkpt lat="47.69562" lon="1.57431">
        <ele>86.5</ele>
        <time>2020-07-02T19:34:59Z</time>
      </trkpt>
      <trkpt lat="47.69558" lon="1.57424">
        <ele>86.6</ele>
        <time>2020-07-02T19:35:00Z</time>
      </trkpt>
      <trkpt lat="47.69554" lon="1.57419">
        <ele>86.6</ele>
        <time>2020-07-02T19:35:01Z</time>
      </trkpt>
      <trkpt lat="47.69549" lon="1.5741">
        <ele>86.6</ele>
        <time>2020-07-02T19:35:02Z</time>
      </trkpt>
      <trkpt lat="47.69545" lon="1.57404">
        <ele>86.7</ele>
        <time>2020-07-02T19:35:03Z</time>
      </trkpt>
      <trkpt lat="47.69541" lon="1.57399">
        <ele>86.7</ele>
        <time>2020-07-02T19:35:04Z</time>
      </trkpt>
      <trkpt lat="47.69536" lon="1.57393">
        <ele>86.7</ele>
        <time>2020-07-02T19:35:05Z</time>
      </trkpt>
      <trkpt lat="47.69531" lon="1.57388">
        <ele>86.7</ele>
        <time>2020-07-02T19:35:06Z</time>
      </trkpt>
      <trkpt lat="47.69527" lon="1.57381">
        <ele>86.8</ele>
        <time>2020-07-02T19:35:07Z</time>
      </trkpt>
      <trkpt lat="47.69523" lon="1.57375">
        <ele>86.8</ele>
        <time>2020-07-02T19:35:08Z</time>
      </trkpt>
      <trkpt lat="47.69519" lon="1.5737">
        <ele>86.8</ele>
        <time>2020-07-02T19:35:09Z</time>
      </trkpt>
      <trkpt lat="47.69516" lon="1.57365">
        <ele>86.8</ele>
        <time>2020-07-02T19:35:10Z</time>
      </trkpt>
      <trkpt lat="47.69512" lon="1.5736">
        <ele>86.8</ele>
        <time>2020-07-02T19:35:11Z</time>
      </trkpt>
      <trkpt lat="47.69508" lon="1.57355">
        <ele>86.8</ele>
        <time>2020-07-02T19:35:12Z</time>
      </trkpt>
      <trkpt lat="47.69505" lon="1.57351">
        <ele>86.8</ele>
        <time>2020-07-02T19:35:13Z</time>
      </trkpt>
      <trkpt lat="47.69501" lon="1.57344">
        <ele>86.8</ele>
        <time>2020-07-02T19:35:14Z</time>
      </trkpt>
      <trkpt lat="47.69497" lon="1.57338">
        <ele>86.8</ele>
        <time>2020-07-02T19:35:15Z</time>
      </trkpt>
      <trkpt lat="47.69493" lon="1.57333">
        <ele>86.8</ele>
        <time>2020-07-02T19:35:16Z</time>
      </trkpt>
      <trkpt lat="47.69489" lon="1.57328">
        <ele>86.9</ele>
        <time>2020-07-02T19:35:17Z</time>
      </trkpt>
      <trkpt lat="47.69485" lon="1.57322">
        <ele>86.8</ele>
        <time>2020-07-02T19:35:18Z</time>
      </trkpt>
      <trkpt lat="47.6948" lon="1.57315">
        <ele>86.8</ele>
        <time>2020-07-02T19:35:19Z</time>
      </trkpt>
      <trkpt lat="47.69476" lon="1.57311">
        <ele>86.8</ele>
        <time>2020-07-02T19:35:20Z</time>
      </trkpt>
      <trkpt lat="47.69472" lon="1.57306">
        <ele>86.8</ele>
        <time>2020-07-02T19:35:21Z</time>
      </trkpt>
      <trkpt lat="47.69467" lon="1.57297">
        <ele>86.8</ele>
        <time>2020-07-02T19:35:22Z</time>
      </trkpt>
      <trkpt lat="47.69463" lon="1.5729">
        <ele>86.9</ele>
        <time>2020-07-02T19:35:23Z</time>
      </trkpt>
      <trkpt lat="47.69459" lon="1.57286">
        <ele>86.9</ele>
        <time>2020-07-02T19:35:24Z</time>
      </trkpt>
      <trkpt lat="47.69454" lon="1.57279">
        <ele>86.9</ele>
        <time>2020-07-02T19:35:25Z</time>
      </trkpt>
      <trkpt lat="47.69449" lon="1.57272">
        <ele>86.9</ele>
        <time>2020-07-02T19:35:26Z</time>
      </trkpt>
      <trkpt lat="47.69444" lon="1.57265">
        <ele>87</ele>
        <time>2020-07-02T19:35:27Z</time>
      </trkpt>
      <trkpt lat="47.6944" lon="1.5726">
        <ele>87</ele>
        <time>2020-07-02T19:35:28Z</time>
      </trkpt>
      <trkpt lat="47.69436" lon="1.57254">
        <ele>87</ele>
        <time>2020-07-02T19:35:29Z</time>
      </trkpt>
      <trkpt lat="47.69432" lon="1.57248">
        <ele>87</ele>
        <time>2020-07-02T19:35:30Z</time>
      </trkpt>
      <trkpt lat="47.69428" lon="1.57243">
        <ele>87.1</ele>
        <time>2020-07-02T19:35:31Z</time>
      </trkpt>
      <trkpt lat="47.69422" lon="1.57237">
        <ele>87.1</ele>
        <time>2020-07-02T19:35:32Z</time>
      </trkpt>
      <trkpt lat="47.69417" lon="1.5723">
        <ele>87</ele>
        <time>2020-07-02T19:35:33Z</time>
      </trkpt>
      <trkpt lat="47.69413" lon="1.57224">
        <ele>87</ele>
        <time>2020-07-02T19:35:34Z</time>
      </trkpt>
      <trkpt lat="47.69409" lon="1.57217">
        <ele>87</ele>
        <time>2020-07-02T19:35:35Z</time>
      </trkpt>
      <trkpt lat="47.69404" lon="1.57212">
        <ele>87</ele>
        <time>2020-07-02T19:35:36Z</time>
      </trkpt>
      <trkpt lat="47.69399" lon="1.57206">
        <ele>87</ele>
        <time>2020-07-02T19:35:37Z</time>
      </trkpt>
      <trkpt lat="47.69395" lon="1.572">
        <ele>87</ele>
        <time>2020-07-02T19:35:38Z</time>
      </trkpt>
      <trkpt lat="47.69391" lon="1.57195">
        <ele>87</ele>
        <time>2020-07-02T19:35:39Z</time>
      </trkpt>
      <trkpt lat="47.69388" lon="1.57189">
        <ele>86.9</ele>
        <time>2020-07-02T19:35:40Z</time>
      </trkpt>
      <trkpt lat="47.69384" lon="1.57181">
        <ele>86.9</ele>
        <time>2020-07-02T19:35:41Z</time>
      </trkpt>
      <trkpt lat="47.6938" lon="1.57176">
        <ele>86.8</ele>
        <time>2020-07-02T19:35:42Z</time>
      </trkpt>
      <trkpt lat="47.69376" lon="1.5717">
        <ele>86.8</ele>
        <time>2020-07-02T19:35:43Z</time>
      </trkpt>
      <trkpt lat="47.69371" lon="1.57163">
        <ele>86.8</ele>
        <time>2020-07-02T19:35:44Z</time>
      </trkpt>
      <trkpt lat="47.69367" lon="1.57158">
        <ele>86.8</ele>
        <time>2020-07-02T19:35:45Z</time>
      </trkpt>
      <trkpt lat="47.69363" lon="1.57153">
        <ele>86.7</ele>
        <time>2020-07-02T19:35:46Z</time>
      </trkpt>
      <trkpt lat="47.69358" lon="1.57148">
        <ele>86.7</ele>
        <time>2020-07-02T19:35:47Z</time>
      </trkpt>
      <trkpt lat="47.69354" lon="1.57142">
        <ele>86.6</ele>
        <time>2020-07-02T19:35:48Z</time>
      </trkpt>
      <trkpt lat="47.6935" lon="1.57135">
        <ele>86.6</ele>
        <time>2020-07-02T19:35:49Z</time>
      </trkpt>
      <trkpt lat="47.69345" lon="1.57128">
        <ele>86.7</ele>
        <time>2020-07-02T19:35:50Z</time>
      </trkpt>
      <trkpt lat="47.69342" lon="1.57122">
        <ele>86.7</ele>
        <time>2020-07-02T19:35:51Z</time>
      </trkpt>
      <trkpt lat="47.69337" lon="1.57116">
        <ele>86.7</ele>
        <time>2020-07-02T19:35:52Z</time>
      </trkpt>
      <trkpt lat="47.69332" lon="1.57109">
        <ele>86.7</ele>
        <time>2020-07-02T19:35:53Z</time>
      </trkpt>
      <trkpt lat="47.69328" lon="1.57103">
        <ele>86.8</ele>
        <time>2020-07-02T19:35:54Z</time>
      </trkpt>
      <trkpt lat="47.69324" lon="1.57097">
        <ele>86.8</ele>
        <time>2020-07-02T19:35:55Z</time>
      </trkpt>
      <trkpt lat="47.6932" lon="1.57092">
        <ele>86.8</ele>
        <time>2020-07-02T19:35:56Z</time>
      </trkpt>
      <trkpt lat="47.69315" lon="1.57087">
        <ele>86.8</ele>
        <time>2020-07-02T19:35:57Z</time>
      </trkpt>
      <trkpt lat="47.69311" lon="1.57082">
        <ele>86.8</ele>
        <time>2020-07-02T19:35:58Z</time>
      </trkpt>
      <trkpt lat="47.69306" lon="1.57075">
        <ele>86.9</ele>
        <time>2020-07-02T19:35:59Z</time>
      </trkpt>
      <trkpt lat="47.69302" lon="1.57069">
        <ele>86.9</ele>
        <time>2020-07-02T19:36:00Z</time>
      </trkpt>
      <trkpt lat="47.69297" lon="1.57062">
        <ele>86.9</ele>
        <time>2020-07-02T19:36:01Z</time>
      </trkpt>
      <trkpt lat="47.69294" lon="1.57057">
        <ele>86.9</ele>
        <time>2020-07-02T19:36:02Z</time>
      </trkpt>
      <trkpt lat="47.6929" lon="1.57053">
        <ele>86.9</ele>
        <time>2020-07-02T19:36:03Z</time>
      </trkpt>
      <trkpt lat="47.69287" lon="1.57048">
        <ele>86.9</ele>
        <time>2020-07-02T19:36:04Z</time>
      </trkpt>
      <trkpt lat="47.69283" lon="1.57042">
        <ele>86.9</ele>
        <time>2020-07-02T19:36:05Z</time>
      </trkpt>
      <trkpt lat="47.69279" lon="1.57036">
        <ele>86.9</ele>
        <time>2020-07-02T19:36:06Z</time>
      </trkpt>
      <trkpt lat="47.69277" lon="1.57032">
        <ele>86.9</ele>
        <time>2020-07-02T19:36:07Z</time>
      </trkpt>
      <trkpt lat="47.69274" lon="1.57029">
        <ele>87</ele>
        <time>2020-07-02T19:36:08Z</time>
      </trkpt>
      <trkpt lat="47.69271" lon="1.57024">
        <ele>87</ele>
        <time>2020-07-02T19:36:09Z</time>
      </trkpt>
      <trkpt lat="47.69268" lon="1.5702">
        <ele>87</ele>
        <time>2020-07-02T19:36:10Z</time>
      </trkpt>
      <trkpt lat="47.69265" lon="1.57015">
        <ele>87</ele>
        <time>2020-07-02T19:36:11Z</time>
      </trkpt>
      <trkpt lat="47.69263" lon="1.57012">
        <ele>87</ele>
        <time>2020-07-02T19:36:12Z</time>
      </trkpt>
      <trkpt lat="47.69261" lon="1.57008">
        <ele>87.1</ele>
        <time>2020-07-02T19:36:13Z</time>
      </trkpt>
      <trkpt lat="47.69258" lon="1.57005">
        <ele>87.1</ele>
        <time>2020-07-02T19:36:14Z</time>
      </trkpt>
      <trkpt lat="47.69256" lon="1.57002">
        <ele>87.1</ele>
        <time>2020-07-02T19:36:15Z</time>
      </trkpt>
      <trkpt lat="47.69254" lon="1.56997">
        <ele>87.1</ele>
        <time>2020-07-02T19:36:16Z</time>
      </trkpt>
      <trkpt lat="47.69253" lon="1.56993">
        <ele>87</ele>
        <time>2020-07-02T19:36:17Z</time>
      </trkpt>
      <trkpt lat="47.6925" lon="1.5699">
        <ele>87</ele>
        <time>2020-07-02T19:36:18Z</time>
      </trkpt>
      <trkpt lat="47.69248" lon="1.56987">
        <ele>87</ele>
        <time>2020-07-02T19:36:19Z</time>
      </trkpt>
      <trkpt lat="47.69245" lon="1.56984">
        <ele>87</ele>
        <time>2020-07-02T19:36:20Z</time>
      </trkpt>
      <trkpt lat="47.69244" lon="1.56982">
        <ele>87</ele>
        <time>2020-07-02T19:36:21Z</time>
      </trkpt>
      <trkpt lat="47.69242" lon="1.56981">
        <ele>87</ele>
        <time>2020-07-02T19:36:22Z</time>
      </trkpt>
      <trkpt lat="47.69242" lon="1.56981">
        <ele>86.9</ele>
        <time>2020-07-02T19:36:23Z</time>
      </trkpt>
      <trkpt lat="47.69242" lon="1.56981">
        <ele>86.9</ele>
        <time>2020-07-02T19:36:24Z</time>
      </trkpt>
      <trkpt lat="47.69242" lon="1.56981">
        <ele>86.9</ele>
        <time>2020-07-02T19:36:25Z</time>
      </trkpt>
      <trkpt lat="47.69242" lon="1.56982">
        <ele>86.9</ele>
        <time>2020-07-02T19:36:26Z</time>
      </trkpt>
      <trkpt lat="47.69242" lon="1.56982">
        <ele>86.9</ele>
        <time>2020-07-02T19:36:27Z</time>
      </trkpt>
      <trkpt lat="47.69242" lon="1.56981">
        <ele>86.9</ele>
        <time>2020-07-02T19:36:28Z</time>
      </trkpt>
      <trkpt lat="47.69242" lon="1.56981">
        <ele>86.9</ele>
        <time>2020-07-02T19:36:29Z</time>
      </trkpt>
      <trkpt lat="47.69242" lon="1.56981">
        <ele>86.9</ele>
        <time>2020-07-02T19:36:30Z</time>
      </trkpt>
      <trkpt lat="47.69243" lon="1.56982">
        <ele>86.9</ele>
        <time>2020-07-02T19:36:31Z</time>
      </trkpt>
      <trkpt lat="47.69243" lon="1.56982">
        <ele>86.9</ele>
        <time>2020-07-02T19:36:32Z</time>
      </trkpt>
      <trkpt lat="47.69244" lon="1.56982">
        <ele>86.9</ele>
        <time>2020-07-02T19:36:33Z</time>
      </trkpt>
      <trkpt lat="47.69244" lon="1.56983">
        <ele>86.9</ele>
        <time>2020-07-02T19:36:34Z</time>
      </trkpt>
      <trkpt lat="47.69244" lon="1.56983">
        <ele>86.9</ele>
        <time>2020-07-02T19:36:35Z</time>
      </trkpt>
      <trkpt lat="47.69245" lon="1.56984">
        <ele>86.9</ele>
        <time>2020-07-02T19:36:36Z</time>
      </trkpt>
      <trkpt lat="47.69245" lon="1.56984">
        <ele>86.9</ele>
        <time>2020-07-02T19:36:37Z</time>
      </trkpt>
      <trkpt lat="47.69246" lon="1.56984">
        <ele>86.9</ele>
        <time>2020-07-02T19:36:38Z</time>
      </trkpt>
      <trkpt lat="47.69246" lon="1.56984">
        <ele>86.9</ele>
        <time>2020-07-02T19:36:39Z</time>
      </trkpt>
      <trkpt lat="47.69243" lon="1.56976">
        <ele>86.8</ele>
        <time>2020-07-02T19:37:13Z</time>
      </trkpt>
      <trkpt lat="47.69242" lon="1.56974">
        <ele>86.8</ele>
        <time>2020-07-02T19:37:14Z</time>
      </trkpt>
      <trkpt lat="47.6924" lon="1.5697">
        <ele>86.7</ele>
        <time>2020-07-02T19:37:15Z</time>
      </trkpt>
      <trkpt lat="47.69237" lon="1.56967">
        <ele>86.7</ele>
        <time>2020-07-02T19:37:16Z</time>
      </trkpt>
      <trkpt lat="47.69234" lon="1.56964">
        <ele>86.7</ele>
        <time>2020-07-02T19:37:17Z</time>
      </trkpt>
      <trkpt lat="47.69231" lon="1.5696">
        <ele>86.7</ele>
        <time>2020-07-02T19:37:18Z</time>
      </trkpt>
      <trkpt lat="47.69228" lon="1.56957">
        <ele>86.7</ele>
        <time>2020-07-02T19:37:19Z</time>
      </trkpt>
      <trkpt lat="47.69224" lon="1.56953">
        <ele>86.7</ele>
        <time>2020-07-02T19:37:20Z</time>
      </trkpt>
      <trkpt lat="47.6922" lon="1.56948">
        <ele>86.7</ele>
        <time>2020-07-02T19:37:21Z</time>
      </trkpt>
      <trkpt lat="47.69216" lon="1.56942">
        <ele>86.6</ele>
        <time>2020-07-02T19:37:22Z</time>
      </trkpt>
      <trkpt lat="47.69212" lon="1.56936">
        <ele>86.6</ele>
        <time>2020-07-02T19:37:23Z</time>
      </trkpt>
      <trkpt lat="47.69208" lon="1.5693">
        <ele>86.6</ele>
        <time>2020-07-02T19:37:24Z</time>
      </trkpt>
      <trkpt lat="47.69204" lon="1.56925">
        <ele>86.6</ele>
        <time>2020-07-02T19:37:25Z</time>
      </trkpt>
      <trkpt lat="47.692" lon="1.56919">
        <ele>86.6</ele>
        <time>2020-07-02T19:37:26Z</time>
      </trkpt>
      <trkpt lat="47.69196" lon="1.56914">
        <ele>86.6</ele>
        <time>2020-07-02T19:37:27Z</time>
      </trkpt>
      <trkpt lat="47.69192" lon="1.56907">
        <ele>86.6</ele>
        <time>2020-07-02T19:37:28Z</time>
      </trkpt>
      <trkpt lat="47.69188" lon="1.56901">
        <ele>86.6</ele>
        <time>2020-07-02T19:37:29Z</time>
      </trkpt>
      <trkpt lat="47.69184" lon="1.56894">
        <ele>86.5</ele>
        <time>2020-07-02T19:37:30Z</time>
      </trkpt>
      <trkpt lat="47.6918" lon="1.56888">
        <ele>86.4</ele>
        <time>2020-07-02T19:37:31Z</time>
      </trkpt>
      <trkpt lat="47.69176" lon="1.56883">
        <ele>86.4</ele>
        <time>2020-07-02T19:37:32Z</time>
      </trkpt>
      <trkpt lat="47.69172" lon="1.56877">
        <ele>86.4</ele>
        <time>2020-07-02T19:37:33Z</time>
      </trkpt>
      <trkpt lat="47.69169" lon="1.56872">
        <ele>86.3</ele>
        <time>2020-07-02T19:37:34Z</time>
      </trkpt>
      <trkpt lat="47.69164" lon="1.56867">
        <ele>86.3</ele>
        <time>2020-07-02T19:37:35Z</time>
      </trkpt>
      <trkpt lat="47.6916" lon="1.56862">
        <ele>86.2</ele>
        <time>2020-07-02T19:37:36Z</time>
      </trkpt>
      <trkpt lat="47.69156" lon="1.56856">
        <ele>86.2</ele>
        <time>2020-07-02T19:37:37Z</time>
      </trkpt>
      <trkpt lat="47.69152" lon="1.56851">
        <ele>86.1</ele>
        <time>2020-07-02T19:37:38Z</time>
      </trkpt>
      <trkpt lat="47.69148" lon="1.56844">
        <ele>86.1</ele>
        <time>2020-07-02T19:37:39Z</time>
      </trkpt>
      <trkpt lat="47.69144" lon="1.56838">
        <ele>86</ele>
        <time>2020-07-02T19:37:40Z</time>
      </trkpt>
      <trkpt lat="47.6914" lon="1.56834">
        <ele>86</ele>
        <time>2020-07-02T19:37:41Z</time>
      </trkpt>
      <trkpt lat="47.69136" lon="1.56828">
        <ele>85.9</ele>
        <time>2020-07-02T19:37:42Z</time>
      </trkpt>
      <trkpt lat="47.69132" lon="1.56824">
        <ele>85.8</ele>
        <time>2020-07-02T19:37:43Z</time>
      </trkpt>
      <trkpt lat="47.69127" lon="1.56817">
        <ele>85.7</ele>
        <time>2020-07-02T19:37:44Z</time>
      </trkpt>
      <trkpt lat="47.69122" lon="1.5681">
        <ele>85.7</ele>
        <time>2020-07-02T19:37:45Z</time>
      </trkpt>
      <trkpt lat="47.69117" lon="1.56803">
        <ele>85.6</ele>
        <time>2020-07-02T19:37:46Z</time>
      </trkpt>
      <trkpt lat="47.69111" lon="1.56796">
        <ele>85.4</ele>
        <time>2020-07-02T19:37:47Z</time>
      </trkpt>
      <trkpt lat="47.69107" lon="1.56789">
        <ele>85.3</ele>
        <time>2020-07-02T19:37:48Z</time>
      </trkpt>
      <trkpt lat="47.69102" lon="1.56783">
        <ele>85.2</ele>
        <time>2020-07-02T19:37:49Z</time>
      </trkpt>
      <trkpt lat="47.69098" lon="1.56779">
        <ele>85</ele>
        <time>2020-07-02T19:37:50Z</time>
      </trkpt>
      <trkpt lat="47.69093" lon="1.56772">
        <ele>84.9</ele>
        <time>2020-07-02T19:37:51Z</time>
      </trkpt>
      <trkpt lat="47.6909" lon="1.56767">
        <ele>84.8</ele>
        <time>2020-07-02T19:37:52Z</time>
      </trkpt>
      <trkpt lat="47.69086" lon="1.56762">
        <ele>84.8</ele>
        <time>2020-07-02T19:37:53Z</time>
      </trkpt>
      <trkpt lat="47.69082" lon="1.56757">
        <ele>84.7</ele>
        <time>2020-07-02T19:37:54Z</time>
      </trkpt>
      <trkpt lat="47.69079" lon="1.56751">
        <ele>84.6</ele>
        <time>2020-07-02T19:37:55Z</time>
      </trkpt>
      <trkpt lat="47.69076" lon="1.56746">
        <ele>84.5</ele>
        <time>2020-07-02T19:37:56Z</time>
      </trkpt>
      <trkpt lat="47.69072" lon="1.56741">
        <ele>84.4</ele>
        <time>2020-07-02T19:37:57Z</time>
      </trkpt>
      <trkpt lat="47.69068" lon="1.56736">
        <ele>84.3</ele>
        <time>2020-07-02T19:37:58Z</time>
      </trkpt>
      <trkpt lat="47.69064" lon="1.56731">
        <ele>84.3</ele>
        <time>2020-07-02T19:37:59Z</time>
      </trkpt>
      <trkpt lat="47.6906" lon="1.56726">
        <ele>84.2</ele>
        <time>2020-07-02T19:38:00Z</time>
      </trkpt>
      <trkpt lat="47.69056" lon="1.56721">
        <ele>84.1</ele>
        <time>2020-07-02T19:38:01Z</time>
      </trkpt>
      <trkpt lat="47.69053" lon="1.56716">
        <ele>84</ele>
        <time>2020-07-02T19:38:02Z</time>
      </trkpt>
      <trkpt lat="47.69048" lon="1.56711">
        <ele>83.9</ele>
        <time>2020-07-02T19:38:03Z</time>
      </trkpt>
      <trkpt lat="47.69044" lon="1.56705">
        <ele>83.8</ele>
        <time>2020-07-02T19:38:04Z</time>
      </trkpt>
      <trkpt lat="47.69039" lon="1.56699">
        <ele>83.7</ele>
        <time>2020-07-02T19:38:05Z</time>
      </trkpt>
      <trkpt lat="47.69035" lon="1.56692">
        <ele>83.6</ele>
        <time>2020-07-02T19:38:06Z</time>
      </trkpt>
      <trkpt lat="47.69029" lon="1.56686">
        <ele>83.4</ele>
        <time>2020-07-02T19:38:07Z</time>
      </trkpt>
      <trkpt lat="47.69025" lon="1.56681">
        <ele>83.4</ele>
        <time>2020-07-02T19:38:08Z</time>
      </trkpt>
      <trkpt lat="47.6902" lon="1.56674">
        <ele>83.3</ele>
        <time>2020-07-02T19:38:09Z</time>
      </trkpt>
      <trkpt lat="47.69015" lon="1.56667">
        <ele>83.2</ele>
        <time>2020-07-02T19:38:10Z</time>
      </trkpt>
      <trkpt lat="47.69011" lon="1.56659">
        <ele>83.1</ele>
        <time>2020-07-02T19:38:11Z</time>
      </trkpt>
      <trkpt lat="47.69006" lon="1.56653">
        <ele>83</ele>
        <time>2020-07-02T19:38:12Z</time>
      </trkpt>
      <trkpt lat="47.69002" lon="1.56646">
        <ele>83</ele>
        <time>2020-07-02T19:38:13Z</time>
      </trkpt>
      <trkpt lat="47.68998" lon="1.56641">
        <ele>83</ele>
        <time>2020-07-02T19:38:14Z</time>
      </trkpt>
      <trkpt lat="47.68993" lon="1.56635">
        <ele>82.9</ele>
        <time>2020-07-02T19:38:15Z</time>
      </trkpt>
      <trkpt lat="47.68988" lon="1.56628">
        <ele>82.9</ele>
        <time>2020-07-02T19:38:16Z</time>
      </trkpt>
      <trkpt lat="47.68984" lon="1.56621">
        <ele>82.9</ele>
        <time>2020-07-02T19:38:17Z</time>
      </trkpt>
      <trkpt lat="47.68979" lon="1.56615">
        <ele>82.9</ele>
        <time>2020-07-02T19:38:18Z</time>
      </trkpt>
      <trkpt lat="47.68974" lon="1.56608">
        <ele>83</ele>
        <time>2020-07-02T19:38:19Z</time>
      </trkpt>
      <trkpt lat="47.6897" lon="1.56603">
        <ele>83.1</ele>
        <time>2020-07-02T19:38:20Z</time>
      </trkpt>
      <trkpt lat="47.68965" lon="1.56597">
        <ele>83.2</ele>
        <time>2020-07-02T19:38:21Z</time>
      </trkpt>
      <trkpt lat="47.6896" lon="1.56592">
        <ele>83.2</ele>
        <time>2020-07-02T19:38:22Z</time>
      </trkpt>
      <trkpt lat="47.68955" lon="1.56584">
        <ele>83.3</ele>
        <time>2020-07-02T19:38:23Z</time>
      </trkpt>
      <trkpt lat="47.6895" lon="1.56577">
        <ele>83.4</ele>
        <time>2020-07-02T19:38:24Z</time>
      </trkpt>
      <trkpt lat="47.68945" lon="1.56571">
        <ele>83.4</ele>
        <time>2020-07-02T19:38:25Z</time>
      </trkpt>
      <trkpt lat="47.68941" lon="1.56566">
        <ele>83.5</ele>
        <time>2020-07-02T19:38:26Z</time>
      </trkpt>
      <trkpt lat="47.68938" lon="1.56562">
        <ele>83.5</ele>
        <time>2020-07-02T19:38:27Z</time>
      </trkpt>
      <trkpt lat="47.68935" lon="1.56557">
        <ele>83.6</ele>
        <time>2020-07-02T19:38:28Z</time>
      </trkpt>
      <trkpt lat="47.68933" lon="1.56554">
        <ele>83.6</ele>
        <time>2020-07-02T19:38:29Z</time>
      </trkpt>
      <trkpt lat="47.68931" lon="1.56552">
        <ele>83.7</ele>
        <time>2020-07-02T19:38:30Z</time>
      </trkpt>
      <trkpt lat="47.68927" lon="1.56549">
        <ele>83.7</ele>
        <time>2020-07-02T19:38:31Z</time>
      </trkpt>
      <trkpt lat="47.68924" lon="1.56546">
        <ele>83.8</ele>
        <time>2020-07-02T19:38:32Z</time>
      </trkpt>
      <trkpt lat="47.6892" lon="1.56542">
        <ele>83.9</ele>
        <time>2020-07-02T19:38:33Z</time>
      </trkpt>
      <trkpt lat="47.68916" lon="1.56536">
        <ele>84</ele>
        <time>2020-07-02T19:38:34Z</time>
      </trkpt>
      <trkpt lat="47.68911" lon="1.56529">
        <ele>84</ele>
        <time>2020-07-02T19:38:35Z</time>
      </trkpt>
      <trkpt lat="47.68907" lon="1.56522">
        <ele>84.1</ele>
        <time>2020-07-02T19:38:36Z</time>
      </trkpt>
      <trkpt lat="47.68904" lon="1.56518">
        <ele>84.1</ele>
        <time>2020-07-02T19:38:37Z</time>
      </trkpt>
      <trkpt lat="47.68899" lon="1.56512">
        <ele>84.1</ele>
        <time>2020-07-02T19:38:38Z</time>
      </trkpt>
      <trkpt lat="47.68893" lon="1.56506">
        <ele>84.2</ele>
        <time>2020-07-02T19:38:39Z</time>
      </trkpt>
      <trkpt lat="47.68887" lon="1.56498">
        <ele>84.3</ele>
        <time>2020-07-02T19:38:40Z</time>
      </trkpt>
      <trkpt lat="47.68881" lon="1.5649">
        <ele>84.4</ele>
        <time>2020-07-02T19:38:41Z</time>
      </trkpt>
      <trkpt lat="47.68876" lon="1.56483">
        <ele>84.5</ele>
        <time>2020-07-02T19:38:42Z</time>
      </trkpt>
      <trkpt lat="47.68871" lon="1.56477">
        <ele>84.6</ele>
        <time>2020-07-02T19:38:43Z</time>
      </trkpt>
      <trkpt lat="47.68865" lon="1.5647">
        <ele>84.7</ele>
        <time>2020-07-02T19:38:44Z</time>
      </trkpt>
      <trkpt lat="47.6886" lon="1.56463">
        <ele>84.7</ele>
        <time>2020-07-02T19:38:45Z</time>
      </trkpt>
      <trkpt lat="47.68856" lon="1.56457">
        <ele>84.8</ele>
        <time>2020-07-02T19:38:46Z</time>
      </trkpt>
      <trkpt lat="47.68852" lon="1.5645">
        <ele>84.8</ele>
        <time>2020-07-02T19:38:47Z</time>
      </trkpt>
      <trkpt lat="47.68847" lon="1.56444">
        <ele>84.9</ele>
        <time>2020-07-02T19:38:48Z</time>
      </trkpt>
      <trkpt lat="47.68842" lon="1.56437">
        <ele>84.9</ele>
        <time>2020-07-02T19:38:49Z</time>
      </trkpt>
      <trkpt lat="47.68838" lon="1.56431">
        <ele>85</ele>
        <time>2020-07-02T19:38:50Z</time>
      </trkpt>
      <trkpt lat="47.68833" lon="1.56425">
        <ele>85.1</ele>
        <time>2020-07-02T19:38:51Z</time>
      </trkpt>
      <trkpt lat="47.68829" lon="1.56418">
        <ele>85.1</ele>
        <time>2020-07-02T19:38:52Z</time>
      </trkpt>
      <trkpt lat="47.68824" lon="1.56411">
        <ele>85.2</ele>
        <time>2020-07-02T19:38:53Z</time>
      </trkpt>
      <trkpt lat="47.6882" lon="1.56405">
        <ele>85.3</ele>
        <time>2020-07-02T19:38:54Z</time>
      </trkpt>
      <trkpt lat="47.68816" lon="1.56398">
        <ele>85.3</ele>
        <time>2020-07-02T19:38:55Z</time>
      </trkpt>
      <trkpt lat="47.68811" lon="1.56391">
        <ele>85.4</ele>
        <time>2020-07-02T19:38:56Z</time>
      </trkpt>
      <trkpt lat="47.68806" lon="1.56385">
        <ele>85.5</ele>
        <time>2020-07-02T19:38:57Z</time>
      </trkpt>
      <trkpt lat="47.68802" lon="1.5638">
        <ele>85.6</ele>
        <time>2020-07-02T19:38:58Z</time>
      </trkpt>
      <trkpt lat="47.68798" lon="1.56374">
        <ele>85.7</ele>
        <time>2020-07-02T19:38:59Z</time>
      </trkpt>
      <trkpt lat="47.68794" lon="1.56369">
        <ele>85.7</ele>
        <time>2020-07-02T19:39:00Z</time>
      </trkpt>
      <trkpt lat="47.6879" lon="1.56362">
        <ele>85.8</ele>
        <time>2020-07-02T19:39:01Z</time>
      </trkpt>
      <trkpt lat="47.68786" lon="1.56357">
        <ele>85.9</ele>
        <time>2020-07-02T19:39:02Z</time>
      </trkpt>
      <trkpt lat="47.68782" lon="1.56351">
        <ele>86</ele>
        <time>2020-07-02T19:39:03Z</time>
      </trkpt>
      <trkpt lat="47.68777" lon="1.56345">
        <ele>86</ele>
        <time>2020-07-02T19:39:04Z</time>
      </trkpt>
      <trkpt lat="47.68773" lon="1.56339">
        <ele>86.1</ele>
        <time>2020-07-02T19:39:05Z</time>
      </trkpt>
      <trkpt lat="47.68769" lon="1.56334">
        <ele>86.2</ele>
        <time>2020-07-02T19:39:06Z</time>
      </trkpt>
      <trkpt lat="47.68765" lon="1.56329">
        <ele>86.2</ele>
        <time>2020-07-02T19:39:07Z</time>
      </trkpt>
      <trkpt lat="47.68761" lon="1.56325">
        <ele>86.2</ele>
        <time>2020-07-02T19:39:08Z</time>
      </trkpt>
      <trkpt lat="47.68757" lon="1.5632">
        <ele>86.2</ele>
        <time>2020-07-02T19:39:09Z</time>
      </trkpt>
      <trkpt lat="47.68753" lon="1.56315">
        <ele>86.2</ele>
        <time>2020-07-02T19:39:10Z</time>
      </trkpt>
      <trkpt lat="47.68749" lon="1.56309">
        <ele>86.2</ele>
        <time>2020-07-02T19:39:11Z</time>
      </trkpt>
      <trkpt lat="47.68745" lon="1.56303">
        <ele>86.2</ele>
        <time>2020-07-02T19:39:12Z</time>
      </trkpt>
      <trkpt lat="47.68741" lon="1.56298">
        <ele>86.2</ele>
        <time>2020-07-02T19:39:13Z</time>
      </trkpt>
      <trkpt lat="47.68737" lon="1.56293">
        <ele>86.2</ele>
        <time>2020-07-02T19:39:14Z</time>
      </trkpt>
      <trkpt lat="47.68733" lon="1.56287">
        <ele>86.1</ele>
        <time>2020-07-02T19:39:15Z</time>
      </trkpt>
      <trkpt lat="47.68729" lon="1.56282">
        <ele>86.1</ele>
        <time>2020-07-02T19:39:16Z</time>
      </trkpt>
      <trkpt lat="47.68725" lon="1.56275">
        <ele>85.9</ele>
        <time>2020-07-02T19:39:17Z</time>
      </trkpt>
      <trkpt lat="47.6872" lon="1.56269">
        <ele>85.9</ele>
        <time>2020-07-02T19:39:18Z</time>
      </trkpt>
      <trkpt lat="47.68715" lon="1.56263">
        <ele>85.8</ele>
        <time>2020-07-02T19:39:19Z</time>
      </trkpt>
      <trkpt lat="47.6871" lon="1.56257">
        <ele>85.8</ele>
        <time>2020-07-02T19:39:20Z</time>
      </trkpt>
      <trkpt lat="47.68705" lon="1.5625">
        <ele>85.8</ele>
        <time>2020-07-02T19:39:21Z</time>
      </trkpt>
      <trkpt lat="47.68699" lon="1.56243">
        <ele>85.7</ele>
        <time>2020-07-02T19:39:22Z</time>
      </trkpt>
      <trkpt lat="47.68694" lon="1.56236">
        <ele>85.7</ele>
        <time>2020-07-02T19:39:23Z</time>
      </trkpt>
      <trkpt lat="47.68688" lon="1.56229">
        <ele>85.7</ele>
        <time>2020-07-02T19:39:24Z</time>
      </trkpt>
      <trkpt lat="47.68683" lon="1.56223">
        <ele>85.7</ele>
        <time>2020-07-02T19:39:25Z</time>
      </trkpt>
      <trkpt lat="47.68679" lon="1.56217">
        <ele>85.7</ele>
        <time>2020-07-02T19:39:26Z</time>
      </trkpt>
      <trkpt lat="47.68674" lon="1.56211">
        <ele>85.7</ele>
        <time>2020-07-02T19:39:27Z</time>
      </trkpt>
      <trkpt lat="47.68669" lon="1.56205">
        <ele>85.7</ele>
        <time>2020-07-02T19:39:28Z</time>
      </trkpt>
      <trkpt lat="47.68665" lon="1.56199">
        <ele>85.7</ele>
        <time>2020-07-02T19:39:29Z</time>
      </trkpt>
      <trkpt lat="47.6866" lon="1.56193">
        <ele>85.6</ele>
        <time>2020-07-02T19:39:30Z</time>
      </trkpt>
      <trkpt lat="47.68656" lon="1.56187">
        <ele>85.6</ele>
        <time>2020-07-02T19:39:31Z</time>
      </trkpt>
      <trkpt lat="47.68652" lon="1.56183">
        <ele>85.6</ele>
        <time>2020-07-02T19:39:32Z</time>
      </trkpt>
      <trkpt lat="47.68648" lon="1.56176">
        <ele>85.5</ele>
        <time>2020-07-02T19:39:33Z</time>
      </trkpt>
      <trkpt lat="47.68643" lon="1.5617">
        <ele>85.5</ele>
        <time>2020-07-02T19:39:34Z</time>
      </trkpt>
      <trkpt lat="47.68638" lon="1.56164">
        <ele>85.5</ele>
        <time>2020-07-02T19:39:35Z</time>
      </trkpt>
      <trkpt lat="47.68634" lon="1.56158">
        <ele>85.5</ele>
        <time>2020-07-02T19:39:36Z</time>
      </trkpt>
      <trkpt lat="47.6863" lon="1.56153">
        <ele>85.5</ele>
        <time>2020-07-02T19:39:37Z</time>
      </trkpt>
      <trkpt lat="47.68625" lon="1.56146">
        <ele>85.4</ele>
        <time>2020-07-02T19:39:38Z</time>
      </trkpt>
      <trkpt lat="47.6862" lon="1.56141">
        <ele>85.3</ele>
        <time>2020-07-02T19:39:39Z</time>
      </trkpt>
      <trkpt lat="47.68616" lon="1.56137">
        <ele>85.3</ele>
        <time>2020-07-02T19:39:40Z</time>
      </trkpt>
      <trkpt lat="47.68612" lon="1.56131">
        <ele>85.1</ele>
        <time>2020-07-02T19:39:41Z</time>
      </trkpt>
      <trkpt lat="47.68607" lon="1.56126">
        <ele>85.1</ele>
        <time>2020-07-02T19:39:42Z</time>
      </trkpt>
      <trkpt lat="47.68602" lon="1.56121">
        <ele>85.1</ele>
        <time>2020-07-02T19:39:43Z</time>
      </trkpt>
      <trkpt lat="47.68597" lon="1.56115">
        <ele>85</ele>
        <time>2020-07-02T19:39:44Z</time>
      </trkpt>
      <trkpt lat="47.68591" lon="1.56108">
        <ele>85</ele>
        <time>2020-07-02T19:39:45Z</time>
      </trkpt>
      <trkpt lat="47.68586" lon="1.56102">
        <ele>85</ele>
        <time>2020-07-02T19:39:46Z</time>
      </trkpt>
      <trkpt lat="47.68582" lon="1.56097">
        <ele>85</ele>
        <time>2020-07-02T19:39:47Z</time>
      </trkpt>
      <trkpt lat="47.68578" lon="1.56091">
        <ele>84.9</ele>
        <time>2020-07-02T19:39:48Z</time>
      </trkpt>
      <trkpt lat="47.68573" lon="1.56086">
        <ele>84.9</ele>
        <time>2020-07-02T19:39:49Z</time>
      </trkpt>
      <trkpt lat="47.68569" lon="1.56081">
        <ele>84.9</ele>
        <time>2020-07-02T19:39:50Z</time>
      </trkpt>
      <trkpt lat="47.68564" lon="1.56076">
        <ele>84.9</ele>
        <time>2020-07-02T19:39:51Z</time>
      </trkpt>
      <trkpt lat="47.68559" lon="1.56072">
        <ele>84.9</ele>
        <time>2020-07-02T19:39:52Z</time>
      </trkpt>
      <trkpt lat="47.68555" lon="1.56068">
        <ele>84.8</ele>
        <time>2020-07-02T19:39:53Z</time>
      </trkpt>
      <trkpt lat="47.6855" lon="1.56063">
        <ele>84.8</ele>
        <time>2020-07-02T19:39:54Z</time>
      </trkpt>
      <trkpt lat="47.68546" lon="1.56058">
        <ele>84.7</ele>
        <time>2020-07-02T19:39:55Z</time>
      </trkpt>
      <trkpt lat="47.68541" lon="1.56052">
        <ele>84.7</ele>
        <time>2020-07-02T19:39:56Z</time>
      </trkpt>
      <trkpt lat="47.68537" lon="1.56046">
        <ele>84.7</ele>
        <time>2020-07-02T19:39:57Z</time>
      </trkpt>
      <trkpt lat="47.68534" lon="1.56039">
        <ele>84.6</ele>
        <time>2020-07-02T19:39:58Z</time>
      </trkpt>
      <trkpt lat="47.6853" lon="1.56033">
        <ele>84.6</ele>
        <time>2020-07-02T19:39:59Z</time>
      </trkpt>
      <trkpt lat="47.68527" lon="1.56028">
        <ele>84.6</ele>
        <time>2020-07-02T19:40:00Z</time>
      </trkpt>
      <trkpt lat="47.68523" lon="1.56022">
        <ele>84.6</ele>
        <time>2020-07-02T19:40:01Z</time>
      </trkpt>
      <trkpt lat="47.68519" lon="1.56015">
        <ele>84.6</ele>
        <time>2020-07-02T19:40:02Z</time>
      </trkpt>
      <trkpt lat="47.68515" lon="1.56008">
        <ele>84.5</ele>
        <time>2020-07-02T19:40:03Z</time>
      </trkpt>
      <trkpt lat="47.68511" lon="1.56002">
        <ele>84.5</ele>
        <time>2020-07-02T19:40:04Z</time>
      </trkpt>
      <trkpt lat="47.68507" lon="1.55996">
        <ele>84.4</ele>
        <time>2020-07-02T19:40:05Z</time>
      </trkpt>
      <trkpt lat="47.68503" lon="1.5599">
        <ele>84.4</ele>
        <time>2020-07-02T19:40:06Z</time>
      </trkpt>
      <trkpt lat="47.68499" lon="1.55984">
        <ele>84.4</ele>
        <time>2020-07-02T19:40:07Z</time>
      </trkpt>
      <trkpt lat="47.68495" lon="1.55977">
        <ele>84.4</ele>
        <time>2020-07-02T19:40:08Z</time>
      </trkpt>
      <trkpt lat="47.68491" lon="1.5597">
        <ele>84.4</ele>
        <time>2020-07-02T19:40:09Z</time>
      </trkpt>
      <trkpt lat="47.68488" lon="1.55964">
        <ele>84.4</ele>
        <time>2020-07-02T19:40:10Z</time>
      </trkpt>
      <trkpt lat="47.68484" lon="1.55959">
        <ele>84.4</ele>
        <time>2020-07-02T19:40:11Z</time>
      </trkpt>
      <trkpt lat="47.6848" lon="1.55953">
        <ele>84.4</ele>
        <time>2020-07-02T19:40:12Z</time>
      </trkpt>
      <trkpt lat="47.68476" lon="1.55947">
        <ele>84.4</ele>
        <time>2020-07-02T19:40:13Z</time>
      </trkpt>
      <trkpt lat="47.68471" lon="1.5594">
        <ele>84.4</ele>
        <time>2020-07-02T19:40:14Z</time>
      </trkpt>
      <trkpt lat="47.68467" lon="1.55932">
        <ele>84.5</ele>
        <time>2020-07-02T19:40:15Z</time>
      </trkpt>
      <trkpt lat="47.68463" lon="1.55926">
        <ele>84.5</ele>
        <time>2020-07-02T19:40:16Z</time>
      </trkpt>
      <trkpt lat="47.6846" lon="1.5592">
        <ele>84.5</ele>
        <time>2020-07-02T19:40:17Z</time>
      </trkpt>
      <trkpt lat="47.68456" lon="1.55913">
        <ele>84.6</ele>
        <time>2020-07-02T19:40:18Z</time>
      </trkpt>
      <trkpt lat="47.68453" lon="1.55905">
        <ele>84.6</ele>
        <time>2020-07-02T19:40:19Z</time>
      </trkpt>
      <trkpt lat="47.6845" lon="1.55898">
        <ele>84.6</ele>
        <time>2020-07-02T19:40:20Z</time>
      </trkpt>
      <trkpt lat="47.68446" lon="1.55893">
        <ele>84.7</ele>
        <time>2020-07-02T19:40:21Z</time>
      </trkpt>
      <trkpt lat="47.68442" lon="1.55886">
        <ele>84.7</ele>
        <time>2020-07-02T19:40:22Z</time>
      </trkpt>
      <trkpt lat="47.68438" lon="1.55879">
        <ele>84.7</ele>
        <time>2020-07-02T19:40:23Z</time>
      </trkpt>
      <trkpt lat="47.68434" lon="1.55873">
        <ele>84.8</ele>
        <time>2020-07-02T19:40:24Z</time>
      </trkpt>
      <trkpt lat="47.6843" lon="1.55867">
        <ele>84.9</ele>
        <time>2020-07-02T19:40:25Z</time>
      </trkpt>
      <trkpt lat="47.68426" lon="1.55861">
        <ele>85</ele>
        <time>2020-07-02T19:40:26Z</time>
      </trkpt>
      <trkpt lat="47.68422" lon="1.55857">
        <ele>85</ele>
        <time>2020-07-02T19:40:27Z</time>
      </trkpt>
      <trkpt lat="47.68418" lon="1.5585">
        <ele>85.1</ele>
        <time>2020-07-02T19:40:28Z</time>
      </trkpt>
      <trkpt lat="47.68414" lon="1.55845">
        <ele>85.1</ele>
        <time>2020-07-02T19:40:29Z</time>
      </trkpt>
      <trkpt lat="47.6841" lon="1.55839">
        <ele>85.2</ele>
        <time>2020-07-02T19:40:30Z</time>
      </trkpt>
      <trkpt lat="47.68406" lon="1.55833">
        <ele>85.3</ele>
        <time>2020-07-02T19:40:31Z</time>
      </trkpt>
      <trkpt lat="47.68403" lon="1.55826">
        <ele>85.4</ele>
        <time>2020-07-02T19:40:32Z</time>
      </trkpt>
      <trkpt lat="47.684" lon="1.55821">
        <ele>85.5</ele>
        <time>2020-07-02T19:40:33Z</time>
      </trkpt>
      <trkpt lat="47.68396" lon="1.55815">
        <ele>85.6</ele>
        <time>2020-07-02T19:40:34Z</time>
      </trkpt>
      <trkpt lat="47.68393" lon="1.55809">
        <ele>85.8</ele>
        <time>2020-07-02T19:40:35Z</time>
      </trkpt>
      <trkpt lat="47.68389" lon="1.55802">
        <ele>85.9</ele>
        <time>2020-07-02T19:40:36Z</time>
      </trkpt>
      <trkpt lat="47.68386" lon="1.55797">
        <ele>86</ele>
        <time>2020-07-02T19:40:37Z</time>
      </trkpt>
      <trkpt lat="47.68382" lon="1.55791">
        <ele>86.2</ele>
        <time>2020-07-02T19:40:38Z</time>
      </trkpt>
      <trkpt lat="47.68378" lon="1.55784">
        <ele>86.3</ele>
        <time>2020-07-02T19:40:39Z</time>
      </trkpt>
      <trkpt lat="47.68375" lon="1.55779">
        <ele>86.4</ele>
        <time>2020-07-02T19:40:40Z</time>
      </trkpt>
      <trkpt lat="47.68372" lon="1.55776">
        <ele>86.5</ele>
        <time>2020-07-02T19:40:41Z</time>
      </trkpt>
      <trkpt lat="47.68369" lon="1.55773">
        <ele>86.5</ele>
        <time>2020-07-02T19:40:42Z</time>
      </trkpt>
      <trkpt lat="47.68365" lon="1.55768">
        <ele>86.6</ele>
        <time>2020-07-02T19:40:43Z</time>
      </trkpt>
      <trkpt lat="47.68362" lon="1.55762">
        <ele>86.7</ele>
        <time>2020-07-02T19:40:44Z</time>
      </trkpt>
      <trkpt lat="47.68359" lon="1.55757">
        <ele>86.8</ele>
        <time>2020-07-02T19:40:45Z</time>
      </trkpt>
      <trkpt lat="47.68356" lon="1.55752">
        <ele>86.9</ele>
        <time>2020-07-02T19:40:46Z</time>
      </trkpt>
      <trkpt lat="47.68352" lon="1.55746">
        <ele>87.1</ele>
        <time>2020-07-02T19:40:47Z</time>
      </trkpt>
      <trkpt lat="47.68349" lon="1.5574">
        <ele>87.1</ele>
        <time>2020-07-02T19:40:48Z</time>
      </trkpt>
      <trkpt lat="47.68345" lon="1.55734">
        <ele>87.2</ele>
        <time>2020-07-02T19:40:49Z</time>
      </trkpt>
      <trkpt lat="47.68342" lon="1.55729">
        <ele>87.2</ele>
        <time>2020-07-02T19:40:50Z</time>
      </trkpt>
      <trkpt lat="47.6834" lon="1.55725">
        <ele>87.2</ele>
        <time>2020-07-02T19:40:51Z</time>
      </trkpt>
      <trkpt lat="47.68335" lon="1.55719">
        <ele>87.2</ele>
        <time>2020-07-02T19:40:52Z</time>
      </trkpt>
      <trkpt lat="47.68332" lon="1.55714">
        <ele>87.2</ele>
        <time>2020-07-02T19:40:53Z</time>
      </trkpt>
      <trkpt lat="47.68329" lon="1.55709">
        <ele>87.2</ele>
        <time>2020-07-02T19:40:54Z</time>
      </trkpt>
      <trkpt lat="47.68325" lon="1.55702">
        <ele>87.2</ele>
        <time>2020-07-02T19:40:55Z</time>
      </trkpt>
      <trkpt lat="47.68321" lon="1.55696">
        <ele>87.1</ele>
        <time>2020-07-02T19:40:56Z</time>
      </trkpt>
      <trkpt lat="47.68317" lon="1.55689">
        <ele>87.1</ele>
        <time>2020-07-02T19:40:57Z</time>
      </trkpt>
      <trkpt lat="47.68313" lon="1.55683">
        <ele>87</ele>
        <time>2020-07-02T19:40:58Z</time>
      </trkpt>
      <trkpt lat="47.6831" lon="1.5568">
        <ele>87</ele>
        <time>2020-07-02T19:40:59Z</time>
      </trkpt>
      <trkpt lat="47.68305" lon="1.55672">
        <ele>86.9</ele>
        <time>2020-07-02T19:41:00Z</time>
      </trkpt>
      <trkpt lat="47.68302" lon="1.55666">
        <ele>86.9</ele>
        <time>2020-07-02T19:41:01Z</time>
      </trkpt>
      <trkpt lat="47.68298" lon="1.5566">
        <ele>86.9</ele>
        <time>2020-07-02T19:41:02Z</time>
      </trkpt>
      <trkpt lat="47.68295" lon="1.55655">
        <ele>86.9</ele>
        <time>2020-07-02T19:41:03Z</time>
      </trkpt>
      <trkpt lat="47.68292" lon="1.55649">
        <ele>87</ele>
        <time>2020-07-02T19:41:04Z</time>
      </trkpt>
      <trkpt lat="47.68287" lon="1.55642">
        <ele>87</ele>
        <time>2020-07-02T19:41:05Z</time>
      </trkpt>
      <trkpt lat="47.68284" lon="1.55638">
        <ele>87</ele>
        <time>2020-07-02T19:41:06Z</time>
      </trkpt>
      <trkpt lat="47.6828" lon="1.5563">
        <ele>87.1</ele>
        <time>2020-07-02T19:41:07Z</time>
      </trkpt>
      <trkpt lat="47.68275" lon="1.55623">
        <ele>87.2</ele>
        <time>2020-07-02T19:41:08Z</time>
      </trkpt>
      <trkpt lat="47.68271" lon="1.55617">
        <ele>87.2</ele>
        <time>2020-07-02T19:41:09Z</time>
      </trkpt>
      <trkpt lat="47.68267" lon="1.55611">
        <ele>87.3</ele>
        <time>2020-07-02T19:41:10Z</time>
      </trkpt>
      <trkpt lat="47.68263" lon="1.55603">
        <ele>87.4</ele>
        <time>2020-07-02T19:41:11Z</time>
      </trkpt>
      <trkpt lat="47.68259" lon="1.55597">
        <ele>87.5</ele>
        <time>2020-07-02T19:41:12Z</time>
      </trkpt>
      <trkpt lat="47.68255" lon="1.55591">
        <ele>87.6</ele>
        <time>2020-07-02T19:41:13Z</time>
      </trkpt>
      <trkpt lat="47.68251" lon="1.55586">
        <ele>87.6</ele>
        <time>2020-07-02T19:41:14Z</time>
      </trkpt>
      <trkpt lat="47.68246" lon="1.5558">
        <ele>87.7</ele>
        <time>2020-07-02T19:41:15Z</time>
      </trkpt>
      <trkpt lat="47.68242" lon="1.55573">
        <ele>87.8</ele>
        <time>2020-07-02T19:41:16Z</time>
      </trkpt>
      <trkpt lat="47.68239" lon="1.55568">
        <ele>87.9</ele>
        <time>2020-07-02T19:41:17Z</time>
      </trkpt>
      <trkpt lat="47.68235" lon="1.55562">
        <ele>88</ele>
        <time>2020-07-02T19:41:18Z</time>
      </trkpt>
      <trkpt lat="47.68232" lon="1.55558">
        <ele>88.1</ele>
        <time>2020-07-02T19:41:19Z</time>
      </trkpt>
      <trkpt lat="47.68228" lon="1.55554">
        <ele>88.2</ele>
        <time>2020-07-02T19:41:20Z</time>
      </trkpt>
      <trkpt lat="47.68224" lon="1.55548">
        <ele>88.3</ele>
        <time>2020-07-02T19:41:21Z</time>
      </trkpt>
      <trkpt lat="47.6822" lon="1.5554">
        <ele>88.3</ele>
        <time>2020-07-02T19:41:22Z</time>
      </trkpt>
      <trkpt lat="47.68216" lon="1.55536">
        <ele>88.3</ele>
        <time>2020-07-02T19:41:23Z</time>
      </trkpt>
      <trkpt lat="47.68211" lon="1.55529">
        <ele>88.4</ele>
        <time>2020-07-02T19:41:24Z</time>
      </trkpt>
      <trkpt lat="47.68208" lon="1.55523">
        <ele>88.4</ele>
        <time>2020-07-02T19:41:25Z</time>
      </trkpt>
      <trkpt lat="47.68204" lon="1.55517">
        <ele>88.4</ele>
        <time>2020-07-02T19:41:26Z</time>
      </trkpt>
      <trkpt lat="47.682" lon="1.55511">
        <ele>88.5</ele>
        <time>2020-07-02T19:41:27Z</time>
      </trkpt>
      <trkpt lat="47.68196" lon="1.55504">
        <ele>88.6</ele>
        <time>2020-07-02T19:41:28Z</time>
      </trkpt>
      <trkpt lat="47.68192" lon="1.55498">
        <ele>88.6</ele>
        <time>2020-07-02T19:41:29Z</time>
      </trkpt>
      <trkpt lat="47.68188" lon="1.55492">
        <ele>88.7</ele>
        <time>2020-07-02T19:41:30Z</time>
      </trkpt>
      <trkpt lat="47.68185" lon="1.55486">
        <ele>88.7</ele>
        <time>2020-07-02T19:41:31Z</time>
      </trkpt>
      <trkpt lat="47.68181" lon="1.5548">
        <ele>88.8</ele>
        <time>2020-07-02T19:41:32Z</time>
      </trkpt>
      <trkpt lat="47.68176" lon="1.55474">
        <ele>88.8</ele>
        <time>2020-07-02T19:41:33Z</time>
      </trkpt>
      <trkpt lat="47.68172" lon="1.55468">
        <ele>88.8</ele>
        <time>2020-07-02T19:41:34Z</time>
      </trkpt>
      <trkpt lat="47.68169" lon="1.5546">
        <ele>88.8</ele>
        <time>2020-07-02T19:41:35Z</time>
      </trkpt>
      <trkpt lat="47.68166" lon="1.55455">
        <ele>88.9</ele>
        <time>2020-07-02T19:41:36Z</time>
      </trkpt>
      <trkpt lat="47.68162" lon="1.55449">
        <ele>88.9</ele>
        <time>2020-07-02T19:41:37Z</time>
      </trkpt>
      <trkpt lat="47.68159" lon="1.55442">
        <ele>88.9</ele>
        <time>2020-07-02T19:41:38Z</time>
      </trkpt>
      <trkpt lat="47.68156" lon="1.55436">
        <ele>89</ele>
        <time>2020-07-02T19:41:39Z</time>
      </trkpt>
      <trkpt lat="47.68151" lon="1.55428">
        <ele>89</ele>
        <time>2020-07-02T19:41:40Z</time>
      </trkpt>
      <trkpt lat="47.68147" lon="1.55421">
        <ele>89</ele>
        <time>2020-07-02T19:41:41Z</time>
      </trkpt>
      <trkpt lat="47.68144" lon="1.55414">
        <ele>89</ele>
        <time>2020-07-02T19:41:42Z</time>
      </trkpt>
      <trkpt lat="47.68141" lon="1.55409">
        <ele>89</ele>
        <time>2020-07-02T19:41:43Z</time>
      </trkpt>
      <trkpt lat="47.68137" lon="1.55403">
        <ele>89.1</ele>
        <time>2020-07-02T19:41:44Z</time>
      </trkpt>
      <trkpt lat="47.68133" lon="1.55396">
        <ele>89.1</ele>
        <time>2020-07-02T19:41:45Z</time>
      </trkpt>
      <trkpt lat="47.68129" lon="1.5539">
        <ele>89.1</ele>
        <time>2020-07-02T19:41:46Z</time>
      </trkpt>
      <trkpt lat="47.68125" lon="1.55383">
        <ele>89.1</ele>
        <time>2020-07-02T19:41:47Z</time>
      </trkpt>
      <trkpt lat="47.68121" lon="1.55378">
        <ele>89.1</ele>
        <time>2020-07-02T19:41:48Z</time>
      </trkpt>
      <trkpt lat="47.68118" lon="1.55373">
        <ele>89.1</ele>
        <time>2020-07-02T19:41:49Z</time>
      </trkpt>
      <trkpt lat="47.68115" lon="1.55368">
        <ele>89.2</ele>
        <time>2020-07-02T19:41:50Z</time>
      </trkpt>
      <trkpt lat="47.68112" lon="1.55363">
        <ele>89.1</ele>
        <time>2020-07-02T19:41:51Z</time>
      </trkpt>
      <trkpt lat="47.6811" lon="1.55359">
        <ele>89.1</ele>
        <time>2020-07-02T19:41:52Z</time>
      </trkpt>
      <trkpt lat="47.68107" lon="1.55356">
        <ele>89.1</ele>
        <time>2020-07-02T19:41:53Z</time>
      </trkpt>
      <trkpt lat="47.68104" lon="1.55351">
        <ele>89.1</ele>
        <time>2020-07-02T19:41:54Z</time>
      </trkpt>
      <trkpt lat="47.68101" lon="1.55346">
        <ele>89.1</ele>
        <time>2020-07-02T19:41:55Z</time>
      </trkpt>
      <trkpt lat="47.68098" lon="1.55341">
        <ele>89.1</ele>
        <time>2020-07-02T19:41:56Z</time>
      </trkpt>
      <trkpt lat="47.68095" lon="1.55336">
        <ele>89.1</ele>
        <time>2020-07-02T19:41:57Z</time>
      </trkpt>
      <trkpt lat="47.68092" lon="1.5533">
        <ele>89.1</ele>
        <time>2020-07-02T19:41:58Z</time>
      </trkpt>
      <trkpt lat="47.68088" lon="1.55326">
        <ele>89.1</ele>
        <time>2020-07-02T19:41:59Z</time>
      </trkpt>
      <trkpt lat="47.68084" lon="1.55321">
        <ele>89.1</ele>
        <time>2020-07-02T19:42:00Z</time>
      </trkpt>
      <trkpt lat="47.6808" lon="1.55316">
        <ele>89.1</ele>
        <time>2020-07-02T19:42:01Z</time>
      </trkpt>
      <trkpt lat="47.68077" lon="1.5531">
        <ele>89.2</ele>
        <time>2020-07-02T19:42:02Z</time>
      </trkpt>
      <trkpt lat="47.68073" lon="1.55304">
        <ele>89.2</ele>
        <time>2020-07-02T19:42:03Z</time>
      </trkpt>
      <trkpt lat="47.6807" lon="1.55298">
        <ele>89.3</ele>
        <time>2020-07-02T19:42:04Z</time>
      </trkpt>
      <trkpt lat="47.68066" lon="1.5529">
        <ele>89.3</ele>
        <time>2020-07-02T19:42:05Z</time>
      </trkpt>
      <trkpt lat="47.68063" lon="1.55287">
        <ele>89.4</ele>
        <time>2020-07-02T19:42:06Z</time>
      </trkpt>
      <trkpt lat="47.68059" lon="1.5528">
        <ele>89.4</ele>
        <time>2020-07-02T19:42:07Z</time>
      </trkpt>
      <trkpt lat="47.68055" lon="1.55271">
        <ele>89.5</ele>
        <time>2020-07-02T19:42:08Z</time>
      </trkpt>
      <trkpt lat="47.68051" lon="1.55264">
        <ele>89.4</ele>
        <time>2020-07-02T19:42:09Z</time>
      </trkpt>
      <trkpt lat="47.68047" lon="1.55257">
        <ele>89.4</ele>
        <time>2020-07-02T19:42:10Z</time>
      </trkpt>
      <trkpt lat="47.68043" lon="1.5525">
        <ele>89.3</ele>
        <time>2020-07-02T19:42:11Z</time>
      </trkpt>
      <trkpt lat="47.68039" lon="1.55243">
        <ele>89.3</ele>
        <time>2020-07-02T19:42:12Z</time>
      </trkpt>
      <trkpt lat="47.68035" lon="1.55236">
        <ele>89.2</ele>
        <time>2020-07-02T19:42:13Z</time>
      </trkpt>
      <trkpt lat="47.6803" lon="1.55226">
        <ele>89.2</ele>
        <time>2020-07-02T19:42:14Z</time>
      </trkpt>
      <trkpt lat="47.68025" lon="1.55219">
        <ele>89.2</ele>
        <time>2020-07-02T19:42:15Z</time>
      </trkpt>
      <trkpt lat="47.68021" lon="1.55212">
        <ele>89.2</ele>
        <time>2020-07-02T19:42:16Z</time>
      </trkpt>
      <trkpt lat="47.68018" lon="1.55206">
        <ele>89.3</ele>
        <time>2020-07-02T19:42:17Z</time>
      </trkpt>
      <trkpt lat="47.68014" lon="1.552">
        <ele>89.3</ele>
        <time>2020-07-02T19:42:18Z</time>
      </trkpt>
      <trkpt lat="47.68009" lon="1.55193">
        <ele>89.4</ele>
        <time>2020-07-02T19:42:19Z</time>
      </trkpt>
      <trkpt lat="47.68006" lon="1.55187">
        <ele>89.4</ele>
        <time>2020-07-02T19:42:20Z</time>
      </trkpt>
      <trkpt lat="47.68002" lon="1.5518">
        <ele>89.4</ele>
        <time>2020-07-02T19:42:21Z</time>
      </trkpt>
      <trkpt lat="47.67998" lon="1.55172">
        <ele>89.4</ele>
        <time>2020-07-02T19:42:22Z</time>
      </trkpt>
      <trkpt lat="47.67993" lon="1.55165">
        <ele>89.4</ele>
        <time>2020-07-02T19:42:23Z</time>
      </trkpt>
      <trkpt lat="47.67989" lon="1.55157">
        <ele>89.4</ele>
        <time>2020-07-02T19:42:24Z</time>
      </trkpt>
      <trkpt lat="47.67985" lon="1.5515">
        <ele>89.5</ele>
        <time>2020-07-02T19:42:25Z</time>
      </trkpt>
      <trkpt lat="47.67981" lon="1.55144">
        <ele>89.5</ele>
        <time>2020-07-02T19:42:26Z</time>
      </trkpt>
      <trkpt lat="47.67977" lon="1.55136">
        <ele>89.5</ele>
        <time>2020-07-02T19:42:27Z</time>
      </trkpt>
      <trkpt lat="47.67972" lon="1.55129">
        <ele>89.5</ele>
        <time>2020-07-02T19:42:28Z</time>
      </trkpt>
      <trkpt lat="47.67968" lon="1.55121">
        <ele>89.5</ele>
        <time>2020-07-02T19:42:29Z</time>
      </trkpt>
      <trkpt lat="47.67963" lon="1.55114">
        <ele>89.5</ele>
        <time>2020-07-02T19:42:30Z</time>
      </trkpt>
      <trkpt lat="47.67959" lon="1.55108">
        <ele>89.5</ele>
        <time>2020-07-02T19:42:31Z</time>
      </trkpt>
      <trkpt lat="47.67955" lon="1.55101">
        <ele>89.5</ele>
        <time>2020-07-02T19:42:32Z</time>
      </trkpt>
      <trkpt lat="47.67951" lon="1.55095">
        <ele>89.5</ele>
        <time>2020-07-02T19:42:33Z</time>
      </trkpt>
      <trkpt lat="47.67947" lon="1.55089">
        <ele>89.5</ele>
        <time>2020-07-02T19:42:34Z</time>
      </trkpt>
      <trkpt lat="47.67943" lon="1.55082">
        <ele>89.6</ele>
        <time>2020-07-02T19:42:35Z</time>
      </trkpt>
      <trkpt lat="47.67939" lon="1.55075">
        <ele>89.7</ele>
        <time>2020-07-02T19:42:36Z</time>
      </trkpt>
      <trkpt lat="47.67936" lon="1.55068">
        <ele>89.7</ele>
        <time>2020-07-02T19:42:37Z</time>
      </trkpt>
      <trkpt lat="47.67932" lon="1.55061">
        <ele>89.8</ele>
        <time>2020-07-02T19:42:38Z</time>
      </trkpt>
      <trkpt lat="47.67928" lon="1.55054">
        <ele>89.9</ele>
        <time>2020-07-02T19:42:39Z</time>
      </trkpt>
      <trkpt lat="47.67924" lon="1.55047">
        <ele>89.9</ele>
        <time>2020-07-02T19:42:40Z</time>
      </trkpt>
      <trkpt lat="47.67921" lon="1.5504">
        <ele>90</ele>
        <time>2020-07-02T19:42:41Z</time>
      </trkpt>
      <trkpt lat="47.67918" lon="1.55033">
        <ele>90.1</ele>
        <time>2020-07-02T19:42:42Z</time>
      </trkpt>
      <trkpt lat="47.67914" lon="1.55025">
        <ele>90.1</ele>
        <time>2020-07-02T19:42:43Z</time>
      </trkpt>
      <trkpt lat="47.67911" lon="1.55018">
        <ele>90.2</ele>
        <time>2020-07-02T19:42:44Z</time>
      </trkpt>
      <trkpt lat="47.67907" lon="1.55011">
        <ele>90.2</ele>
        <time>2020-07-02T19:42:45Z</time>
      </trkpt>
      <trkpt lat="47.67903" lon="1.55003">
        <ele>90.3</ele>
        <time>2020-07-02T19:42:46Z</time>
      </trkpt>
      <trkpt lat="47.679" lon="1.54995">
        <ele>90.3</ele>
        <time>2020-07-02T19:42:47Z</time>
      </trkpt>
      <trkpt lat="47.67896" lon="1.54988">
        <ele>90.4</ele>
        <time>2020-07-02T19:42:48Z</time>
      </trkpt>
      <trkpt lat="47.67893" lon="1.54981">
        <ele>90.4</ele>
        <time>2020-07-02T19:42:49Z</time>
      </trkpt>
      <trkpt lat="47.6789" lon="1.54976">
        <ele>90.5</ele>
        <time>2020-07-02T19:42:50Z</time>
      </trkpt>
      <trkpt lat="47.67887" lon="1.54968">
        <ele>90.6</ele>
        <time>2020-07-02T19:42:51Z</time>
      </trkpt>
      <trkpt lat="47.67884" lon="1.54961">
        <ele>90.6</ele>
        <time>2020-07-02T19:42:52Z</time>
      </trkpt>
      <trkpt lat="47.6788" lon="1.54955">
        <ele>90.7</ele>
        <time>2020-07-02T19:42:53Z</time>
      </trkpt>
      <trkpt lat="47.67877" lon="1.54948">
        <ele>90.7</ele>
        <time>2020-07-02T19:42:54Z</time>
      </trkpt>
      <trkpt lat="47.67874" lon="1.54941">
        <ele>90.8</ele>
        <time>2020-07-02T19:42:55Z</time>
      </trkpt>
      <trkpt lat="47.67871" lon="1.54934">
        <ele>90.9</ele>
        <time>2020-07-02T19:42:56Z</time>
      </trkpt>
      <trkpt lat="47.67867" lon="1.54927">
        <ele>90.9</ele>
        <time>2020-07-02T19:42:57Z</time>
      </trkpt>
      <trkpt lat="47.67863" lon="1.54921">
        <ele>91</ele>
        <time>2020-07-02T19:42:58Z</time>
      </trkpt>
      <trkpt lat="47.6786" lon="1.54915">
        <ele>91</ele>
        <time>2020-07-02T19:42:59Z</time>
      </trkpt>
      <trkpt lat="47.67857" lon="1.54909">
        <ele>90.9</ele>
        <time>2020-07-02T19:43:00Z</time>
      </trkpt>
      <trkpt lat="47.67853" lon="1.54903">
        <ele>90.9</ele>
        <time>2020-07-02T19:43:01Z</time>
      </trkpt>
      <trkpt lat="47.6785" lon="1.54897">
        <ele>90.9</ele>
        <time>2020-07-02T19:43:02Z</time>
      </trkpt>
      <trkpt lat="47.67846" lon="1.5489">
        <ele>90.9</ele>
        <time>2020-07-02T19:43:03Z</time>
      </trkpt>
      <trkpt lat="47.67843" lon="1.54882">
        <ele>90.8</ele>
        <time>2020-07-02T19:43:04Z</time>
      </trkpt>
      <trkpt lat="47.67839" lon="1.54876">
        <ele>90.8</ele>
        <time>2020-07-02T19:43:05Z</time>
      </trkpt>
      <trkpt lat="47.67835" lon="1.54868">
        <ele>90.7</ele>
        <time>2020-07-02T19:43:06Z</time>
      </trkpt>
      <trkpt lat="47.67832" lon="1.54861">
        <ele>90.7</ele>
        <time>2020-07-02T19:43:07Z</time>
      </trkpt>
      <trkpt lat="47.67828" lon="1.54853">
        <ele>90.7</ele>
        <time>2020-07-02T19:43:08Z</time>
      </trkpt>
      <trkpt lat="47.67825" lon="1.54846">
        <ele>90.7</ele>
        <time>2020-07-02T19:43:09Z</time>
      </trkpt>
      <trkpt lat="47.67821" lon="1.5484">
        <ele>90.7</ele>
        <time>2020-07-02T19:43:10Z</time>
      </trkpt>
      <trkpt lat="47.67817" lon="1.54833">
        <ele>90.7</ele>
        <time>2020-07-02T19:43:11Z</time>
      </trkpt>
      <trkpt lat="47.67815" lon="1.54826">
        <ele>90.7</ele>
        <time>2020-07-02T19:43:12Z</time>
      </trkpt>
      <trkpt lat="47.67811" lon="1.54819">
        <ele>90.8</ele>
        <time>2020-07-02T19:43:13Z</time>
      </trkpt>
      <trkpt lat="47.67807" lon="1.54811">
        <ele>90.8</ele>
        <time>2020-07-02T19:43:14Z</time>
      </trkpt>
      <trkpt lat="47.67804" lon="1.54804">
        <ele>90.8</ele>
        <time>2020-07-02T19:43:15Z</time>
      </trkpt>
      <trkpt lat="47.67801" lon="1.54797">
        <ele>90.7</ele>
        <time>2020-07-02T19:43:16Z</time>
      </trkpt>
      <trkpt lat="47.67797" lon="1.54788">
        <ele>90.7</ele>
        <time>2020-07-02T19:43:17Z</time>
      </trkpt>
      <trkpt lat="47.67793" lon="1.54781">
        <ele>90.7</ele>
        <time>2020-07-02T19:43:18Z</time>
      </trkpt>
      <trkpt lat="47.6779" lon="1.54773">
        <ele>90.7</ele>
        <time>2020-07-02T19:43:19Z</time>
      </trkpt>
      <trkpt lat="47.67787" lon="1.54767">
        <ele>90.8</ele>
        <time>2020-07-02T19:43:20Z</time>
      </trkpt>
      <trkpt lat="47.67783" lon="1.54759">
        <ele>90.8</ele>
        <time>2020-07-02T19:43:21Z</time>
      </trkpt>
      <trkpt lat="47.6778" lon="1.54751">
        <ele>90.9</ele>
        <time>2020-07-02T19:43:22Z</time>
      </trkpt>
      <trkpt lat="47.67777" lon="1.54746">
        <ele>91</ele>
        <time>2020-07-02T19:43:23Z</time>
      </trkpt>
      <trkpt lat="47.67773" lon="1.54737">
        <ele>91</ele>
        <time>2020-07-02T19:43:24Z</time>
      </trkpt>
      <trkpt lat="47.67769" lon="1.5473">
        <ele>91</ele>
        <time>2020-07-02T19:43:25Z</time>
      </trkpt>
      <trkpt lat="47.67766" lon="1.54723">
        <ele>91</ele>
        <time>2020-07-02T19:43:26Z</time>
      </trkpt>
      <trkpt lat="47.67763" lon="1.54715">
        <ele>91</ele>
        <time>2020-07-02T19:43:27Z</time>
      </trkpt>
      <trkpt lat="47.67759" lon="1.54708">
        <ele>91</ele>
        <time>2020-07-02T19:43:28Z</time>
      </trkpt>
      <trkpt lat="47.67755" lon="1.54701">
        <ele>91</ele>
        <time>2020-07-02T19:43:29Z</time>
      </trkpt>
      <trkpt lat="47.67751" lon="1.54693">
        <ele>91</ele>
        <time>2020-07-02T19:43:30Z</time>
      </trkpt>
      <trkpt lat="47.67747" lon="1.54686">
        <ele>91</ele>
        <time>2020-07-02T19:43:31Z</time>
      </trkpt>
      <trkpt lat="47.67743" lon="1.54678">
        <ele>91.1</ele>
        <time>2020-07-02T19:43:32Z</time>
      </trkpt>
      <trkpt lat="47.67739" lon="1.5467">
        <ele>91.1</ele>
        <time>2020-07-02T19:43:33Z</time>
      </trkpt>
      <trkpt lat="47.67735" lon="1.54663">
        <ele>91.1</ele>
        <time>2020-07-02T19:43:34Z</time>
      </trkpt>
      <trkpt lat="47.67732" lon="1.54656">
        <ele>91</ele>
        <time>2020-07-02T19:43:35Z</time>
      </trkpt>
      <trkpt lat="47.67728" lon="1.54649">
        <ele>91</ele>
        <time>2020-07-02T19:43:36Z</time>
      </trkpt>
      <trkpt lat="47.67724" lon="1.54642">
        <ele>91</ele>
        <time>2020-07-02T19:43:37Z</time>
      </trkpt>
      <trkpt lat="47.6772" lon="1.54634">
        <ele>91</ele>
        <time>2020-07-02T19:43:38Z</time>
      </trkpt>
      <trkpt lat="47.67716" lon="1.54627">
        <ele>91</ele>
        <time>2020-07-02T19:43:39Z</time>
      </trkpt>
      <trkpt lat="47.67713" lon="1.5462">
        <ele>91</ele>
        <time>2020-07-02T19:43:40Z</time>
      </trkpt>
      <trkpt lat="47.67709" lon="1.54611">
        <ele>91</ele>
        <time>2020-07-02T19:43:41Z</time>
      </trkpt>
      <trkpt lat="47.67706" lon="1.54605">
        <ele>91</ele>
        <time>2020-07-02T19:43:42Z</time>
      </trkpt>
      <trkpt lat="47.67701" lon="1.54597">
        <ele>91</ele>
        <time>2020-07-02T19:43:43Z</time>
      </trkpt>
      <trkpt lat="47.67697" lon="1.5459">
        <ele>91.1</ele>
        <time>2020-07-02T19:43:44Z</time>
      </trkpt>
      <trkpt lat="47.67693" lon="1.54583">
        <ele>91.1</ele>
        <time>2020-07-02T19:43:45Z</time>
      </trkpt>
      <trkpt lat="47.6769" lon="1.54577">
        <ele>91.1</ele>
        <time>2020-07-02T19:43:46Z</time>
      </trkpt>
      <trkpt lat="47.67686" lon="1.54569">
        <ele>91.2</ele>
        <time>2020-07-02T19:43:47Z</time>
      </trkpt>
      <trkpt lat="47.67683" lon="1.54562">
        <ele>91.2</ele>
        <time>2020-07-02T19:43:48Z</time>
      </trkpt>
      <trkpt lat="47.6768" lon="1.54555">
        <ele>91.2</ele>
        <time>2020-07-02T19:43:49Z</time>
      </trkpt>
      <trkpt lat="47.67676" lon="1.54548">
        <ele>91.2</ele>
        <time>2020-07-02T19:43:50Z</time>
      </trkpt>
      <trkpt lat="47.67672" lon="1.54541">
        <ele>91.2</ele>
        <time>2020-07-02T19:43:51Z</time>
      </trkpt>
      <trkpt lat="47.67669" lon="1.54534">
        <ele>91.2</ele>
        <time>2020-07-02T19:43:52Z</time>
      </trkpt>
      <trkpt lat="47.67666" lon="1.54528">
        <ele>91.2</ele>
        <time>2020-07-02T19:43:53Z</time>
      </trkpt>
      <trkpt lat="47.67663" lon="1.54521">
        <ele>91.2</ele>
        <time>2020-07-02T19:43:54Z</time>
      </trkpt>
      <trkpt lat="47.67658" lon="1.54513">
        <ele>91.2</ele>
        <time>2020-07-02T19:43:55Z</time>
      </trkpt>
      <trkpt lat="47.67655" lon="1.54506">
        <ele>91.2</ele>
        <time>2020-07-02T19:43:56Z</time>
      </trkpt>
      <trkpt lat="47.67652" lon="1.54501">
        <ele>91.1</ele>
        <time>2020-07-02T19:43:57Z</time>
      </trkpt>
      <trkpt lat="47.67648" lon="1.54493">
        <ele>91.1</ele>
        <time>2020-07-02T19:43:58Z</time>
      </trkpt>
      <trkpt lat="47.67644" lon="1.54485">
        <ele>91.1</ele>
        <time>2020-07-02T19:43:59Z</time>
      </trkpt>
      <trkpt lat="47.67641" lon="1.54479">
        <ele>91.1</ele>
        <time>2020-07-02T19:44:00Z</time>
      </trkpt>
      <trkpt lat="47.67637" lon="1.54469">
        <ele>91.1</ele>
        <time>2020-07-02T19:44:01Z</time>
      </trkpt>
      <trkpt lat="47.67635" lon="1.54463">
        <ele>91.1</ele>
        <time>2020-07-02T19:44:02Z</time>
      </trkpt>
      <trkpt lat="47.67631" lon="1.54455">
        <ele>91.1</ele>
        <time>2020-07-02T19:44:03Z</time>
      </trkpt>
      <trkpt lat="47.67627" lon="1.54449">
        <ele>91.1</ele>
        <time>2020-07-02T19:44:04Z</time>
      </trkpt>
      <trkpt lat="47.67623" lon="1.5444">
        <ele>91.2</ele>
        <time>2020-07-02T19:44:05Z</time>
      </trkpt>
      <trkpt lat="47.67619" lon="1.54432">
        <ele>91.2</ele>
        <time>2020-07-02T19:44:06Z</time>
      </trkpt>
      <trkpt lat="47.67615" lon="1.54424">
        <ele>91.2</ele>
        <time>2020-07-02T19:44:07Z</time>
      </trkpt>
      <trkpt lat="47.67612" lon="1.54416">
        <ele>91.2</ele>
        <time>2020-07-02T19:44:08Z</time>
      </trkpt>
      <trkpt lat="47.67608" lon="1.54408">
        <ele>91.1</ele>
        <time>2020-07-02T19:44:09Z</time>
      </trkpt>
      <trkpt lat="47.67604" lon="1.544">
        <ele>91.1</ele>
        <time>2020-07-02T19:44:10Z</time>
      </trkpt>
      <trkpt lat="47.676" lon="1.54392">
        <ele>91.1</ele>
        <time>2020-07-02T19:44:11Z</time>
      </trkpt>
      <trkpt lat="47.67596" lon="1.54384">
        <ele>91.1</ele>
        <time>2020-07-02T19:44:12Z</time>
      </trkpt>
      <trkpt lat="47.67593" lon="1.54376">
        <ele>91.2</ele>
        <time>2020-07-02T19:44:13Z</time>
      </trkpt>
      <trkpt lat="47.67588" lon="1.54369">
        <ele>91.2</ele>
        <time>2020-07-02T19:44:14Z</time>
      </trkpt>
      <trkpt lat="47.67584" lon="1.5436">
        <ele>91.2</ele>
        <time>2020-07-02T19:44:15Z</time>
      </trkpt>
      <trkpt lat="47.67581" lon="1.54352">
        <ele>91.2</ele>
        <time>2020-07-02T19:44:16Z</time>
      </trkpt>
      <trkpt lat="47.67577" lon="1.54346">
        <ele>91.2</ele>
        <time>2020-07-02T19:44:17Z</time>
      </trkpt>
      <trkpt lat="47.67573" lon="1.5434">
        <ele>91.1</ele>
        <time>2020-07-02T19:44:18Z</time>
      </trkpt>
      <trkpt lat="47.67569" lon="1.54331">
        <ele>91.1</ele>
        <time>2020-07-02T19:44:19Z</time>
      </trkpt>
      <trkpt lat="47.67566" lon="1.54323">
        <ele>91.1</ele>
        <time>2020-07-02T19:44:20Z</time>
      </trkpt>
      <trkpt lat="47.67562" lon="1.54315">
        <ele>91.1</ele>
        <time>2020-07-02T19:44:21Z</time>
      </trkpt>
      <trkpt lat="47.67558" lon="1.54306">
        <ele>91.1</ele>
        <time>2020-07-02T19:44:22Z</time>
      </trkpt>
      <trkpt lat="47.67554" lon="1.54299">
        <ele>91.1</ele>
        <time>2020-07-02T19:44:23Z</time>
      </trkpt>
      <trkpt lat="47.6755" lon="1.54291">
        <ele>91.1</ele>
        <time>2020-07-02T19:44:24Z</time>
      </trkpt>
      <trkpt lat="47.67547" lon="1.54283">
        <ele>91.1</ele>
        <time>2020-07-02T19:44:25Z</time>
      </trkpt>
      <trkpt lat="47.67543" lon="1.54276">
        <ele>91.2</ele>
        <time>2020-07-02T19:44:26Z</time>
      </trkpt>
      <trkpt lat="47.6754" lon="1.54268">
        <ele>91.2</ele>
        <time>2020-07-02T19:44:27Z</time>
      </trkpt>
      <trkpt lat="47.67536" lon="1.54261">
        <ele>91.2</ele>
        <time>2020-07-02T19:44:28Z</time>
      </trkpt>
      <trkpt lat="47.67532" lon="1.54252">
        <ele>91.2</ele>
        <time>2020-07-02T19:44:29Z</time>
      </trkpt>
      <trkpt lat="47.67529" lon="1.54245">
        <ele>91.2</ele>
        <time>2020-07-02T19:44:30Z</time>
      </trkpt>
      <trkpt lat="47.67525" lon="1.54237">
        <ele>91.4</ele>
        <time>2020-07-02T19:44:31Z</time>
      </trkpt>
      <trkpt lat="47.67521" lon="1.5423">
        <ele>91.7</ele>
        <time>2020-07-02T19:44:32Z</time>
      </trkpt>
      <trkpt lat="47.67517" lon="1.54223">
        <ele>91.9</ele>
        <time>2020-07-02T19:44:33Z</time>
      </trkpt>
      <trkpt lat="47.67513" lon="1.54216">
        <ele>91.9</ele>
        <time>2020-07-02T19:44:34Z</time>
      </trkpt>
      <trkpt lat="47.6751" lon="1.54209">
        <ele>91.9</ele>
        <time>2020-07-02T19:44:35Z</time>
      </trkpt>
      <trkpt lat="47.67506" lon="1.54202">
        <ele>92</ele>
        <time>2020-07-02T19:44:36Z</time>
      </trkpt>
      <trkpt lat="47.67503" lon="1.54195">
        <ele>92</ele>
        <time>2020-07-02T19:44:37Z</time>
      </trkpt>
      <trkpt lat="47.675" lon="1.54187">
        <ele>92</ele>
        <time>2020-07-02T19:44:38Z</time>
      </trkpt>
      <trkpt lat="47.67496" lon="1.5418">
        <ele>92.1</ele>
        <time>2020-07-02T19:44:39Z</time>
      </trkpt>
      <trkpt lat="47.67492" lon="1.54172">
        <ele>92.1</ele>
        <time>2020-07-02T19:44:40Z</time>
      </trkpt>
      <trkpt lat="47.67488" lon="1.54165">
        <ele>92.1</ele>
        <time>2020-07-02T19:44:41Z</time>
      </trkpt>
      <trkpt lat="47.67485" lon="1.54159">
        <ele>92</ele>
        <time>2020-07-02T19:44:42Z</time>
      </trkpt>
      <trkpt lat="47.67481" lon="1.54151">
        <ele>92</ele>
        <time>2020-07-02T19:44:43Z</time>
      </trkpt>
      <trkpt lat="47.67478" lon="1.54145">
        <ele>92</ele>
        <time>2020-07-02T19:44:44Z</time>
      </trkpt>
      <trkpt lat="47.67475" lon="1.54137">
        <ele>92</ele>
        <time>2020-07-02T19:44:45Z</time>
      </trkpt>
      <trkpt lat="47.67471" lon="1.54131">
        <ele>92</ele>
        <time>2020-07-02T19:44:46Z</time>
      </trkpt>
      <trkpt lat="47.67467" lon="1.54123">
        <ele>92</ele>
        <time>2020-07-02T19:44:47Z</time>
      </trkpt>
      <trkpt lat="47.67464" lon="1.54116">
        <ele>92</ele>
        <time>2020-07-02T19:44:48Z</time>
      </trkpt>
      <trkpt lat="47.6746" lon="1.54109">
        <ele>92</ele>
        <time>2020-07-02T19:44:49Z</time>
      </trkpt>
      <trkpt lat="47.67457" lon="1.54101">
        <ele>92</ele>
        <time>2020-07-02T19:44:50Z</time>
      </trkpt>
      <trkpt lat="47.67453" lon="1.54094">
        <ele>92</ele>
        <time>2020-07-02T19:44:51Z</time>
      </trkpt>
      <trkpt lat="47.6745" lon="1.54085">
        <ele>92.1</ele>
        <time>2020-07-02T19:44:52Z</time>
      </trkpt>
      <trkpt lat="47.67447" lon="1.54078">
        <ele>92.1</ele>
        <time>2020-07-02T19:44:53Z</time>
      </trkpt>
      <trkpt lat="47.67444" lon="1.5407">
        <ele>92.1</ele>
        <time>2020-07-02T19:44:54Z</time>
      </trkpt>
      <trkpt lat="47.67441" lon="1.54064">
        <ele>92.1</ele>
        <time>2020-07-02T19:44:55Z</time>
      </trkpt>
      <trkpt lat="47.67439" lon="1.54059">
        <ele>92.1</ele>
        <time>2020-07-02T19:44:56Z</time>
      </trkpt>
      <trkpt lat="47.67436" lon="1.54053">
        <ele>92.1</ele>
        <time>2020-07-02T19:44:57Z</time>
      </trkpt>
      <trkpt lat="47.67432" lon="1.54045">
        <ele>92</ele>
        <time>2020-07-02T19:44:58Z</time>
      </trkpt>
      <trkpt lat="47.6743" lon="1.5404">
        <ele>92</ele>
        <time>2020-07-02T19:44:59Z</time>
      </trkpt>
      <trkpt lat="47.67426" lon="1.54035">
        <ele>92</ele>
        <time>2020-07-02T19:45:00Z</time>
      </trkpt>
      <trkpt lat="47.67423" lon="1.54029">
        <ele>92</ele>
        <time>2020-07-02T19:45:01Z</time>
      </trkpt>
      <trkpt lat="47.6742" lon="1.54022">
        <ele>92</ele>
        <time>2020-07-02T19:45:02Z</time>
      </trkpt>
      <trkpt lat="47.67417" lon="1.54015">
        <ele>91.9</ele>
        <time>2020-07-02T19:45:03Z</time>
      </trkpt>
      <trkpt lat="47.67413" lon="1.54007">
        <ele>91.9</ele>
        <time>2020-07-02T19:45:04Z</time>
      </trkpt>
      <trkpt lat="47.6741" lon="1.53999">
        <ele>91.8</ele>
        <time>2020-07-02T19:45:05Z</time>
      </trkpt>
      <trkpt lat="47.67406" lon="1.53991">
        <ele>91.7</ele>
        <time>2020-07-02T19:45:06Z</time>
      </trkpt>
      <trkpt lat="47.67403" lon="1.53983">
        <ele>91.7</ele>
        <time>2020-07-02T19:45:07Z</time>
      </trkpt>
      <trkpt lat="47.67399" lon="1.53975">
        <ele>91.6</ele>
        <time>2020-07-02T19:45:08Z</time>
      </trkpt>
      <trkpt lat="47.67396" lon="1.53967">
        <ele>91.6</ele>
        <time>2020-07-02T19:45:09Z</time>
      </trkpt>
      <trkpt lat="47.67392" lon="1.53959">
        <ele>91.6</ele>
        <time>2020-07-02T19:45:10Z</time>
      </trkpt>
      <trkpt lat="47.67388" lon="1.53952">
        <ele>91.6</ele>
        <time>2020-07-02T19:45:11Z</time>
      </trkpt>
      <trkpt lat="47.67385" lon="1.53944">
        <ele>91.6</ele>
        <time>2020-07-02T19:45:12Z</time>
      </trkpt>
      <trkpt lat="47.67381" lon="1.53937">
        <ele>91.5</ele>
        <time>2020-07-02T19:45:13Z</time>
      </trkpt>
      <trkpt lat="47.67378" lon="1.53929">
        <ele>91.5</ele>
        <time>2020-07-02T19:45:14Z</time>
      </trkpt>
      <trkpt lat="47.67375" lon="1.53922">
        <ele>91.4</ele>
        <time>2020-07-02T19:45:15Z</time>
      </trkpt>
      <trkpt lat="47.67372" lon="1.53914">
        <ele>91.4</ele>
        <time>2020-07-02T19:45:16Z</time>
      </trkpt>
      <trkpt lat="47.67369" lon="1.53907">
        <ele>91.3</ele>
        <time>2020-07-02T19:45:17Z</time>
      </trkpt>
      <trkpt lat="47.67365" lon="1.53899">
        <ele>91.2</ele>
        <time>2020-07-02T19:45:18Z</time>
      </trkpt>
      <trkpt lat="47.67362" lon="1.53892">
        <ele>91.1</ele>
        <time>2020-07-02T19:45:19Z</time>
      </trkpt>
      <trkpt lat="47.67359" lon="1.53884">
        <ele>91</ele>
        <time>2020-07-02T19:45:20Z</time>
      </trkpt>
      <trkpt lat="47.67356" lon="1.5388">
        <ele>90.9</ele>
        <time>2020-07-02T19:45:21Z</time>
      </trkpt>
      <trkpt lat="47.67352" lon="1.53872">
        <ele>90.9</ele>
        <time>2020-07-02T19:45:22Z</time>
      </trkpt>
      <trkpt lat="47.67348" lon="1.53864">
        <ele>90.8</ele>
        <time>2020-07-02T19:45:23Z</time>
      </trkpt>
      <trkpt lat="47.67345" lon="1.53855">
        <ele>90.7</ele>
        <time>2020-07-02T19:45:24Z</time>
      </trkpt>
      <trkpt lat="47.67341" lon="1.53847">
        <ele>90.6</ele>
        <time>2020-07-02T19:45:25Z</time>
      </trkpt>
      <trkpt lat="47.67337" lon="1.53839">
        <ele>90.6</ele>
        <time>2020-07-02T19:45:26Z</time>
      </trkpt>
      <trkpt lat="47.67334" lon="1.53831">
        <ele>90.5</ele>
        <time>2020-07-02T19:45:27Z</time>
      </trkpt>
      <trkpt lat="47.67331" lon="1.53824">
        <ele>90.5</ele>
        <time>2020-07-02T19:45:28Z</time>
      </trkpt>
      <trkpt lat="47.67327" lon="1.53816">
        <ele>90.4</ele>
        <time>2020-07-02T19:45:29Z</time>
      </trkpt>
      <trkpt lat="47.67324" lon="1.53807">
        <ele>90.4</ele>
        <time>2020-07-02T19:45:30Z</time>
      </trkpt>
      <trkpt lat="47.67321" lon="1.53799">
        <ele>90.4</ele>
        <time>2020-07-02T19:45:31Z</time>
      </trkpt>
      <trkpt lat="47.67317" lon="1.53793">
        <ele>90.4</ele>
        <time>2020-07-02T19:45:32Z</time>
      </trkpt>
      <trkpt lat="47.67314" lon="1.53785">
        <ele>90.4</ele>
        <time>2020-07-02T19:45:33Z</time>
      </trkpt>
      <trkpt lat="47.6731" lon="1.53778">
        <ele>90.5</ele>
        <time>2020-07-02T19:45:34Z</time>
      </trkpt>
      <trkpt lat="47.67307" lon="1.53771">
        <ele>90.5</ele>
        <time>2020-07-02T19:45:35Z</time>
      </trkpt>
      <trkpt lat="47.67303" lon="1.53762">
        <ele>90.6</ele>
        <time>2020-07-02T19:45:36Z</time>
      </trkpt>
      <trkpt lat="47.673" lon="1.53754">
        <ele>90.7</ele>
        <time>2020-07-02T19:45:37Z</time>
      </trkpt>
      <trkpt lat="47.67297" lon="1.53746">
        <ele>90.8</ele>
        <time>2020-07-02T19:45:38Z</time>
      </trkpt>
      <trkpt lat="47.67293" lon="1.53739">
        <ele>90.8</ele>
        <time>2020-07-02T19:45:39Z</time>
      </trkpt>
      <trkpt lat="47.6729" lon="1.53732">
        <ele>90.8</ele>
        <time>2020-07-02T19:45:40Z</time>
      </trkpt>
      <trkpt lat="47.67288" lon="1.53725">
        <ele>90.7</ele>
        <time>2020-07-02T19:45:41Z</time>
      </trkpt>
      <trkpt lat="47.67285" lon="1.53719">
        <ele>90.7</ele>
        <time>2020-07-02T19:45:42Z</time>
      </trkpt>
      <trkpt lat="47.67282" lon="1.53712">
        <ele>90.7</ele>
        <time>2020-07-02T19:45:43Z</time>
      </trkpt>
      <trkpt lat="47.67279" lon="1.53704">
        <ele>90.6</ele>
        <time>2020-07-02T19:45:44Z</time>
      </trkpt>
      <trkpt lat="47.67276" lon="1.53695">
        <ele>90.5</ele>
        <time>2020-07-02T19:45:45Z</time>
      </trkpt>
      <trkpt lat="47.67273" lon="1.53688">
        <ele>90.5</ele>
        <time>2020-07-02T19:45:46Z</time>
      </trkpt>
      <trkpt lat="47.6727" lon="1.53681">
        <ele>90.4</ele>
        <time>2020-07-02T19:45:47Z</time>
      </trkpt>
      <trkpt lat="47.67267" lon="1.53674">
        <ele>90.3</ele>
        <time>2020-07-02T19:45:48Z</time>
      </trkpt>
      <trkpt lat="47.67263" lon="1.53667">
        <ele>90.3</ele>
        <time>2020-07-02T19:45:49Z</time>
      </trkpt>
      <trkpt lat="47.6726" lon="1.5366">
        <ele>90.2</ele>
        <time>2020-07-02T19:45:50Z</time>
      </trkpt>
      <trkpt lat="47.67257" lon="1.53652">
        <ele>90.1</ele>
        <time>2020-07-02T19:45:51Z</time>
      </trkpt>
      <trkpt lat="47.67253" lon="1.53643">
        <ele>90.1</ele>
        <time>2020-07-02T19:45:52Z</time>
      </trkpt>
      <trkpt lat="47.67249" lon="1.53635">
        <ele>90</ele>
        <time>2020-07-02T19:45:53Z</time>
      </trkpt>
      <trkpt lat="47.67246" lon="1.53627">
        <ele>89.9</ele>
        <time>2020-07-02T19:45:54Z</time>
      </trkpt>
      <trkpt lat="47.67242" lon="1.53619">
        <ele>89.9</ele>
        <time>2020-07-02T19:45:55Z</time>
      </trkpt>
      <trkpt lat="47.67239" lon="1.5361">
        <ele>89.9</ele>
        <time>2020-07-02T19:45:56Z</time>
      </trkpt>
      <trkpt lat="47.67235" lon="1.53602">
        <ele>89.9</ele>
        <time>2020-07-02T19:45:57Z</time>
      </trkpt>
      <trkpt lat="47.67232" lon="1.53595">
        <ele>89.9</ele>
        <time>2020-07-02T19:45:58Z</time>
      </trkpt>
      <trkpt lat="47.67228" lon="1.53587">
        <ele>89.8</ele>
        <time>2020-07-02T19:45:59Z</time>
      </trkpt>
      <trkpt lat="47.67225" lon="1.53579">
        <ele>89.8</ele>
        <time>2020-07-02T19:46:00Z</time>
      </trkpt>
      <trkpt lat="47.67222" lon="1.53572">
        <ele>89.8</ele>
        <time>2020-07-02T19:46:01Z</time>
      </trkpt>
      <trkpt lat="47.67218" lon="1.53564">
        <ele>89.7</ele>
        <time>2020-07-02T19:46:02Z</time>
      </trkpt>
      <trkpt lat="47.67216" lon="1.53559">
        <ele>89.7</ele>
        <time>2020-07-02T19:46:03Z</time>
      </trkpt>
      <trkpt lat="47.67212" lon="1.53552">
        <ele>89.7</ele>
        <time>2020-07-02T19:46:04Z</time>
      </trkpt>
      <trkpt lat="47.67209" lon="1.53544">
        <ele>89.6</ele>
        <time>2020-07-02T19:46:05Z</time>
      </trkpt>
      <trkpt lat="47.67205" lon="1.53537">
        <ele>89.6</ele>
        <time>2020-07-02T19:46:06Z</time>
      </trkpt>
      <trkpt lat="47.67202" lon="1.5353">
        <ele>89.5</ele>
        <time>2020-07-02T19:46:07Z</time>
      </trkpt>
      <trkpt lat="47.67198" lon="1.53521">
        <ele>89.5</ele>
        <time>2020-07-02T19:46:08Z</time>
      </trkpt>
      <trkpt lat="47.67195" lon="1.53514">
        <ele>89.5</ele>
        <time>2020-07-02T19:46:09Z</time>
      </trkpt>
      <trkpt lat="47.67191" lon="1.53506">
        <ele>89.4</ele>
        <time>2020-07-02T19:46:10Z</time>
      </trkpt>
      <trkpt lat="47.67188" lon="1.53498">
        <ele>89.4</ele>
        <time>2020-07-02T19:46:11Z</time>
      </trkpt>
      <trkpt lat="47.67185" lon="1.53491">
        <ele>89.4</ele>
        <time>2020-07-02T19:46:12Z</time>
      </trkpt>
      <trkpt lat="47.67181" lon="1.53484">
        <ele>89.3</ele>
        <time>2020-07-02T19:46:13Z</time>
      </trkpt>
      <trkpt lat="47.67178" lon="1.53478">
        <ele>89.2</ele>
        <time>2020-07-02T19:46:14Z</time>
      </trkpt>
      <trkpt lat="47.67175" lon="1.53472">
        <ele>89.2</ele>
        <time>2020-07-02T19:46:15Z</time>
      </trkpt>
      <trkpt lat="47.67173" lon="1.53466">
        <ele>89.1</ele>
        <time>2020-07-02T19:46:16Z</time>
      </trkpt>
      <trkpt lat="47.67169" lon="1.53458">
        <ele>89</ele>
        <time>2020-07-02T19:46:17Z</time>
      </trkpt>
      <trkpt lat="47.67166" lon="1.53451">
        <ele>88.9</ele>
        <time>2020-07-02T19:46:18Z</time>
      </trkpt>
      <trkpt lat="47.67163" lon="1.53443">
        <ele>88.9</ele>
        <time>2020-07-02T19:46:19Z</time>
      </trkpt>
      <trkpt lat="47.6716" lon="1.53436">
        <ele>88.8</ele>
        <time>2020-07-02T19:46:20Z</time>
      </trkpt>
      <trkpt lat="47.67156" lon="1.53428">
        <ele>88.8</ele>
        <time>2020-07-02T19:46:21Z</time>
      </trkpt>
      <trkpt lat="47.67153" lon="1.53422">
        <ele>88.8</ele>
        <time>2020-07-02T19:46:22Z</time>
      </trkpt>
      <trkpt lat="47.6715" lon="1.53415">
        <ele>88.8</ele>
        <time>2020-07-02T19:46:23Z</time>
      </trkpt>
      <trkpt lat="47.67147" lon="1.53408">
        <ele>88.6</ele>
        <time>2020-07-02T19:46:24Z</time>
      </trkpt>
      <trkpt lat="47.67144" lon="1.53401">
        <ele>88.5</ele>
        <time>2020-07-02T19:46:25Z</time>
      </trkpt>
      <trkpt lat="47.67141" lon="1.53394">
        <ele>88.4</ele>
        <time>2020-07-02T19:46:26Z</time>
      </trkpt>
      <trkpt lat="47.67138" lon="1.53386">
        <ele>88.4</ele>
        <time>2020-07-02T19:46:27Z</time>
      </trkpt>
      <trkpt lat="47.67135" lon="1.53377">
        <ele>88.3</ele>
        <time>2020-07-02T19:46:28Z</time>
      </trkpt>
      <trkpt lat="47.67131" lon="1.53367">
        <ele>88.3</ele>
        <time>2020-07-02T19:46:29Z</time>
      </trkpt>
      <trkpt lat="47.67128" lon="1.53362">
        <ele>88.3</ele>
        <time>2020-07-02T19:46:30Z</time>
      </trkpt>
      <trkpt lat="47.67124" lon="1.53354">
        <ele>88.3</ele>
        <time>2020-07-02T19:46:31Z</time>
      </trkpt>
      <trkpt lat="47.67121" lon="1.53347">
        <ele>88.4</ele>
        <time>2020-07-02T19:46:32Z</time>
      </trkpt>
      <trkpt lat="47.67118" lon="1.53339">
        <ele>88.4</ele>
        <time>2020-07-02T19:46:33Z</time>
      </trkpt>
      <trkpt lat="47.67115" lon="1.53331">
        <ele>88.5</ele>
        <time>2020-07-02T19:46:34Z</time>
      </trkpt>
      <trkpt lat="47.67113" lon="1.53326">
        <ele>88.5</ele>
        <time>2020-07-02T19:46:35Z</time>
      </trkpt>
      <trkpt lat="47.6711" lon="1.53318">
        <ele>88.5</ele>
        <time>2020-07-02T19:46:36Z</time>
      </trkpt>
      <trkpt lat="47.67107" lon="1.53311">
        <ele>88.5</ele>
        <time>2020-07-02T19:46:37Z</time>
      </trkpt>
      <trkpt lat="47.67104" lon="1.53304">
        <ele>88.4</ele>
        <time>2020-07-02T19:46:38Z</time>
      </trkpt>
      <trkpt lat="47.67101" lon="1.53296">
        <ele>88.3</ele>
        <time>2020-07-02T19:46:39Z</time>
      </trkpt>
      <trkpt lat="47.67098" lon="1.53289">
        <ele>88.2</ele>
        <time>2020-07-02T19:46:40Z</time>
      </trkpt>
      <trkpt lat="47.67095" lon="1.53282">
        <ele>88.2</ele>
        <time>2020-07-02T19:46:41Z</time>
      </trkpt>
      <trkpt lat="47.67092" lon="1.53277">
        <ele>88.1</ele>
        <time>2020-07-02T19:46:42Z</time>
      </trkpt>
      <trkpt lat="47.67089" lon="1.5327">
        <ele>88.1</ele>
        <time>2020-07-02T19:46:43Z</time>
      </trkpt>
      <trkpt lat="47.67086" lon="1.53265">
        <ele>88.1</ele>
        <time>2020-07-02T19:46:44Z</time>
      </trkpt>
      <trkpt lat="47.67083" lon="1.53257">
        <ele>88</ele>
        <time>2020-07-02T19:46:45Z</time>
      </trkpt>
      <trkpt lat="47.67079" lon="1.53249">
        <ele>88</ele>
        <time>2020-07-02T19:46:46Z</time>
      </trkpt>
      <trkpt lat="47.67076" lon="1.53241">
        <ele>88</ele>
        <time>2020-07-02T19:46:47Z</time>
      </trkpt>
      <trkpt lat="47.67073" lon="1.53233">
        <ele>87.9</ele>
        <time>2020-07-02T19:46:48Z</time>
      </trkpt>
      <trkpt lat="47.67069" lon="1.53225">
        <ele>87.9</ele>
        <time>2020-07-02T19:46:49Z</time>
      </trkpt>
      <trkpt lat="47.67066" lon="1.53217">
        <ele>87.8</ele>
        <time>2020-07-02T19:46:50Z</time>
      </trkpt>
      <trkpt lat="47.67062" lon="1.5321">
        <ele>87.7</ele>
        <time>2020-07-02T19:46:51Z</time>
      </trkpt>
      <trkpt lat="47.67059" lon="1.53203">
        <ele>87.7</ele>
        <time>2020-07-02T19:46:52Z</time>
      </trkpt>
      <trkpt lat="47.67056" lon="1.53197">
        <ele>87.7</ele>
        <time>2020-07-02T19:46:53Z</time>
      </trkpt>
      <trkpt lat="47.67053" lon="1.53192">
        <ele>87.7</ele>
        <time>2020-07-02T19:46:54Z</time>
      </trkpt>
      <trkpt lat="47.6705" lon="1.53186">
        <ele>87.7</ele>
        <time>2020-07-02T19:46:55Z</time>
      </trkpt>
      <trkpt lat="47.67047" lon="1.5318">
        <ele>87.7</ele>
        <time>2020-07-02T19:46:56Z</time>
      </trkpt>
      <trkpt lat="47.67044" lon="1.53173">
        <ele>87.7</ele>
        <time>2020-07-02T19:46:57Z</time>
      </trkpt>
      <trkpt lat="47.67041" lon="1.53167">
        <ele>87.7</ele>
        <time>2020-07-02T19:46:58Z</time>
      </trkpt>
      <trkpt lat="47.67039" lon="1.53162">
        <ele>87.6</ele>
        <time>2020-07-02T19:46:59Z</time>
      </trkpt>
      <trkpt lat="47.67037" lon="1.53157">
        <ele>87.6</ele>
        <time>2020-07-02T19:47:00Z</time>
      </trkpt>
      <trkpt lat="47.67035" lon="1.53151">
        <ele>87.6</ele>
        <time>2020-07-02T19:47:01Z</time>
      </trkpt>
      <trkpt lat="47.67032" lon="1.53145">
        <ele>87.6</ele>
        <time>2020-07-02T19:47:02Z</time>
      </trkpt>
      <trkpt lat="47.6703" lon="1.5314">
        <ele>87.6</ele>
        <time>2020-07-02T19:47:03Z</time>
      </trkpt>
      <trkpt lat="47.67027" lon="1.53134">
        <ele>87.6</ele>
        <time>2020-07-02T19:47:04Z</time>
      </trkpt>
      <trkpt lat="47.67025" lon="1.5313">
        <ele>87.7</ele>
        <time>2020-07-02T19:47:05Z</time>
      </trkpt>
      <trkpt lat="47.67023" lon="1.53125">
        <ele>87.7</ele>
        <time>2020-07-02T19:47:06Z</time>
      </trkpt>
      <trkpt lat="47.6702" lon="1.53117">
        <ele>87.7</ele>
        <time>2020-07-02T19:47:07Z</time>
      </trkpt>
      <trkpt lat="47.67017" lon="1.53112">
        <ele>87.7</ele>
        <time>2020-07-02T19:47:08Z</time>
      </trkpt>
      <trkpt lat="47.67015" lon="1.53109">
        <ele>87.7</ele>
        <time>2020-07-02T19:47:09Z</time>
      </trkpt>
      <trkpt lat="47.67013" lon="1.53103">
        <ele>87.7</ele>
        <time>2020-07-02T19:47:10Z</time>
      </trkpt>
      <trkpt lat="47.67011" lon="1.53097">
        <ele>87.7</ele>
        <time>2020-07-02T19:47:11Z</time>
      </trkpt>
      <trkpt lat="47.6701" lon="1.53091">
        <ele>87.7</ele>
        <time>2020-07-02T19:47:12Z</time>
      </trkpt>
      <trkpt lat="47.67008" lon="1.53084">
        <ele>87.7</ele>
        <time>2020-07-02T19:47:13Z</time>
      </trkpt>
      <trkpt lat="47.67008" lon="1.53079">
        <ele>87.7</ele>
        <time>2020-07-02T19:47:14Z</time>
      </trkpt>
      <trkpt lat="47.6701" lon="1.53072">
        <ele>87.5</ele>
        <time>2020-07-02T19:47:15Z</time>
      </trkpt>
      <trkpt lat="47.67014" lon="1.53068">
        <ele>87.4</ele>
        <time>2020-07-02T19:47:16Z</time>
      </trkpt>
      <trkpt lat="47.67022" lon="1.53061">
        <ele>87.1</ele>
        <time>2020-07-02T19:47:17Z</time>
      </trkpt>
      <trkpt lat="47.67027" lon="1.53056">
        <ele>86.9</ele>
        <time>2020-07-02T19:47:18Z</time>
      </trkpt>
      <trkpt lat="47.67032" lon="1.53052">
        <ele>86.7</ele>
        <time>2020-07-02T19:47:19Z</time>
      </trkpt>
      <trkpt lat="47.67037" lon="1.53049">
        <ele>86.6</ele>
        <time>2020-07-02T19:47:20Z</time>
      </trkpt>
      <trkpt lat="47.67042" lon="1.53045">
        <ele>86.4</ele>
        <time>2020-07-02T19:47:21Z</time>
      </trkpt>
      <trkpt lat="47.67046" lon="1.53042">
        <ele>86.3</ele>
        <time>2020-07-02T19:47:22Z</time>
      </trkpt>
      <trkpt lat="47.67052" lon="1.53038">
        <ele>86.1</ele>
        <time>2020-07-02T19:47:23Z</time>
      </trkpt>
      <trkpt lat="47.67059" lon="1.53033">
        <ele>85.9</ele>
        <time>2020-07-02T19:47:24Z</time>
      </trkpt>
      <trkpt lat="47.67065" lon="1.53029">
        <ele>85.7</ele>
        <time>2020-07-02T19:47:25Z</time>
      </trkpt>
      <trkpt lat="47.6707" lon="1.53025">
        <ele>85.6</ele>
        <time>2020-07-02T19:47:26Z</time>
      </trkpt>
      <trkpt lat="47.67075" lon="1.53021">
        <ele>85.5</ele>
        <time>2020-07-02T19:47:27Z</time>
      </trkpt>
      <trkpt lat="47.6708" lon="1.53018">
        <ele>85.5</ele>
        <time>2020-07-02T19:47:28Z</time>
      </trkpt>
      <trkpt lat="47.67084" lon="1.53013">
        <ele>85.4</ele>
        <time>2020-07-02T19:47:29Z</time>
      </trkpt>
      <trkpt lat="47.67089" lon="1.53009">
        <ele>85.3</ele>
        <time>2020-07-02T19:47:30Z</time>
      </trkpt>
      <trkpt lat="47.67094" lon="1.53006">
        <ele>85.3</ele>
        <time>2020-07-02T19:47:31Z</time>
      </trkpt>
      <trkpt lat="47.671" lon="1.53001">
        <ele>85.2</ele>
        <time>2020-07-02T19:47:32Z</time>
      </trkpt>
      <trkpt lat="47.67106" lon="1.52996">
        <ele>85.1</ele>
        <time>2020-07-02T19:47:33Z</time>
      </trkpt>
      <trkpt lat="47.67111" lon="1.52992">
        <ele>85</ele>
        <time>2020-07-02T19:47:34Z</time>
      </trkpt>
      <trkpt lat="47.67117" lon="1.52987">
        <ele>84.9</ele>
        <time>2020-07-02T19:47:35Z</time>
      </trkpt>
      <trkpt lat="47.67123" lon="1.52983">
        <ele>84.8</ele>
        <time>2020-07-02T19:47:36Z</time>
      </trkpt>
      <trkpt lat="47.67129" lon="1.52978">
        <ele>84.6</ele>
        <time>2020-07-02T19:47:37Z</time>
      </trkpt>
      <trkpt lat="47.67134" lon="1.52974">
        <ele>84.5</ele>
        <time>2020-07-02T19:47:38Z</time>
      </trkpt>
      <trkpt lat="47.6714" lon="1.52969">
        <ele>84.4</ele>
        <time>2020-07-02T19:47:39Z</time>
      </trkpt>
      <trkpt lat="47.67145" lon="1.52965">
        <ele>84.3</ele>
        <time>2020-07-02T19:47:40Z</time>
      </trkpt>
      <trkpt lat="47.67151" lon="1.5296">
        <ele>84.1</ele>
        <time>2020-07-02T19:47:41Z</time>
      </trkpt>
      <trkpt lat="47.67156" lon="1.52956">
        <ele>84</ele>
        <time>2020-07-02T19:47:42Z</time>
      </trkpt>
      <trkpt lat="47.67161" lon="1.52952">
        <ele>83.9</ele>
        <time>2020-07-02T19:47:43Z</time>
      </trkpt>
      <trkpt lat="47.67166" lon="1.52947">
        <ele>83.8</ele>
        <time>2020-07-02T19:47:44Z</time>
      </trkpt>
      <trkpt lat="47.67171" lon="1.52943">
        <ele>83.7</ele>
        <time>2020-07-02T19:47:45Z</time>
      </trkpt>
      <trkpt lat="47.67176" lon="1.52939">
        <ele>83.6</ele>
        <time>2020-07-02T19:47:46Z</time>
      </trkpt>
      <trkpt lat="47.67182" lon="1.52935">
        <ele>83.6</ele>
        <time>2020-07-02T19:47:47Z</time>
      </trkpt>
      <trkpt lat="47.67186" lon="1.52931">
        <ele>83.5</ele>
        <time>2020-07-02T19:47:48Z</time>
      </trkpt>
      <trkpt lat="47.67192" lon="1.52926">
        <ele>83.5</ele>
        <time>2020-07-02T19:47:49Z</time>
      </trkpt>
      <trkpt lat="47.67197" lon="1.52922">
        <ele>83.4</ele>
        <time>2020-07-02T19:47:50Z</time>
      </trkpt>
      <trkpt lat="47.67201" lon="1.52917">
        <ele>83.3</ele>
        <time>2020-07-02T19:47:51Z</time>
      </trkpt>
      <trkpt lat="47.67207" lon="1.52912">
        <ele>83.3</ele>
        <time>2020-07-02T19:47:52Z</time>
      </trkpt>
      <trkpt lat="47.67212" lon="1.52908">
        <ele>83.2</ele>
        <time>2020-07-02T19:47:53Z</time>
      </trkpt>
      <trkpt lat="47.67218" lon="1.52903">
        <ele>83.1</ele>
        <time>2020-07-02T19:47:54Z</time>
      </trkpt>
      <trkpt lat="47.67223" lon="1.52898">
        <ele>82.9</ele>
        <time>2020-07-02T19:47:55Z</time>
      </trkpt>
      <trkpt lat="47.67228" lon="1.52893">
        <ele>82.8</ele>
        <time>2020-07-02T19:47:56Z</time>
      </trkpt>
      <trkpt lat="47.67233" lon="1.52889">
        <ele>82.7</ele>
        <time>2020-07-02T19:47:57Z</time>
      </trkpt>
      <trkpt lat="47.67239" lon="1.52885">
        <ele>82.6</ele>
        <time>2020-07-02T19:47:58Z</time>
      </trkpt>
      <trkpt lat="47.67244" lon="1.52881">
        <ele>82.5</ele>
        <time>2020-07-02T19:47:59Z</time>
      </trkpt>
      <trkpt lat="47.67249" lon="1.52876">
        <ele>82.5</ele>
        <time>2020-07-02T19:48:00Z</time>
      </trkpt>
      <trkpt lat="47.67253" lon="1.52873">
        <ele>82.4</ele>
        <time>2020-07-02T19:48:01Z</time>
      </trkpt>
      <trkpt lat="47.67258" lon="1.52869">
        <ele>82.3</ele>
        <time>2020-07-02T19:48:02Z</time>
      </trkpt>
      <trkpt lat="47.67264" lon="1.52863">
        <ele>82.2</ele>
        <time>2020-07-02T19:48:03Z</time>
      </trkpt>
      <trkpt lat="47.67269" lon="1.52859">
        <ele>82.2</ele>
        <time>2020-07-02T19:48:04Z</time>
      </trkpt>
      <trkpt lat="47.67275" lon="1.52855">
        <ele>82.1</ele>
        <time>2020-07-02T19:48:05Z</time>
      </trkpt>
      <trkpt lat="47.67282" lon="1.5285">
        <ele>82</ele>
        <time>2020-07-02T19:48:06Z</time>
      </trkpt>
      <trkpt lat="47.67287" lon="1.52847">
        <ele>82</ele>
        <time>2020-07-02T19:48:07Z</time>
      </trkpt>
      <trkpt lat="47.67292" lon="1.52843">
        <ele>82</ele>
        <time>2020-07-02T19:48:08Z</time>
      </trkpt>
      <trkpt lat="47.67297" lon="1.52839">
        <ele>81.9</ele>
        <time>2020-07-02T19:48:09Z</time>
      </trkpt>
      <trkpt lat="47.67302" lon="1.52836">
        <ele>81.9</ele>
        <time>2020-07-02T19:48:10Z</time>
      </trkpt>
      <trkpt lat="47.67306" lon="1.52833">
        <ele>81.8</ele>
        <time>2020-07-02T19:48:11Z</time>
      </trkpt>
      <trkpt lat="47.67311" lon="1.52829">
        <ele>81.8</ele>
        <time>2020-07-02T19:48:12Z</time>
      </trkpt>
      <trkpt lat="47.67315" lon="1.52826">
        <ele>81.7</ele>
        <time>2020-07-02T19:48:13Z</time>
      </trkpt>
      <trkpt lat="47.6732" lon="1.52823">
        <ele>81.7</ele>
        <time>2020-07-02T19:48:14Z</time>
      </trkpt>
      <trkpt lat="47.67324" lon="1.52819">
        <ele>81.6</ele>
        <time>2020-07-02T19:48:15Z</time>
      </trkpt>
      <trkpt lat="47.67329" lon="1.52815">
        <ele>81.6</ele>
        <time>2020-07-02T19:48:16Z</time>
      </trkpt>
      <trkpt lat="47.67334" lon="1.52811">
        <ele>81.6</ele>
        <time>2020-07-02T19:48:17Z</time>
      </trkpt>
      <trkpt lat="47.67338" lon="1.52807">
        <ele>81.5</ele>
        <time>2020-07-02T19:48:18Z</time>
      </trkpt>
      <trkpt lat="47.67344" lon="1.52802">
        <ele>81.5</ele>
        <time>2020-07-02T19:48:19Z</time>
      </trkpt>
      <trkpt lat="47.67349" lon="1.52798">
        <ele>81.5</ele>
        <time>2020-07-02T19:48:20Z</time>
      </trkpt>
      <trkpt lat="47.67354" lon="1.52794">
        <ele>81.5</ele>
        <time>2020-07-02T19:48:21Z</time>
      </trkpt>
      <trkpt lat="47.67359" lon="1.52792">
        <ele>81.6</ele>
        <time>2020-07-02T19:48:22Z</time>
      </trkpt>
      <trkpt lat="47.67364" lon="1.52788">
        <ele>81.6</ele>
        <time>2020-07-02T19:48:23Z</time>
      </trkpt>
      <trkpt lat="47.67368" lon="1.52784">
        <ele>81.7</ele>
        <time>2020-07-02T19:48:24Z</time>
      </trkpt>
      <trkpt lat="47.67371" lon="1.52782">
        <ele>81.7</ele>
        <time>2020-07-02T19:48:25Z</time>
      </trkpt>
      <trkpt lat="47.67373" lon="1.52779">
        <ele>81.8</ele>
        <time>2020-07-02T19:48:26Z</time>
      </trkpt>
      <trkpt lat="47.67376" lon="1.52777">
        <ele>81.8</ele>
        <time>2020-07-02T19:48:27Z</time>
      </trkpt>
      <trkpt lat="47.67379" lon="1.52775">
        <ele>81.8</ele>
        <time>2020-07-02T19:48:28Z</time>
      </trkpt>
      <trkpt lat="47.67382" lon="1.52772">
        <ele>81.9</ele>
        <time>2020-07-02T19:48:29Z</time>
      </trkpt>
      <trkpt lat="47.67384" lon="1.52769">
        <ele>81.9</ele>
        <time>2020-07-02T19:48:30Z</time>
      </trkpt>
      <trkpt lat="47.67385" lon="1.52768">
        <ele>81.9</ele>
        <time>2020-07-02T19:48:31Z</time>
      </trkpt>
      <trkpt lat="47.67388" lon="1.52766">
        <ele>82</ele>
        <time>2020-07-02T19:48:32Z</time>
      </trkpt>
      <trkpt lat="47.67391" lon="1.52764">
        <ele>82</ele>
        <time>2020-07-02T19:48:33Z</time>
      </trkpt>
      <trkpt lat="47.67391" lon="1.52763">
        <ele>82</ele>
        <time>2020-07-02T19:48:34Z</time>
      </trkpt>
      <trkpt lat="47.67393" lon="1.52762">
        <ele>82</ele>
        <time>2020-07-02T19:48:35Z</time>
      </trkpt>
      <trkpt lat="47.67394" lon="1.52761">
        <ele>82</ele>
        <time>2020-07-02T19:48:36Z</time>
      </trkpt>
      <trkpt lat="47.67394" lon="1.5276">
        <ele>82</ele>
        <time>2020-07-02T19:48:37Z</time>
      </trkpt>
      <trkpt lat="47.67394" lon="1.52758">
        <ele>82</ele>
        <time>2020-07-02T19:48:38Z</time>
      </trkpt>
      <trkpt lat="47.67394" lon="1.52758">
        <ele>82</ele>
        <time>2020-07-02T19:48:39Z</time>
      </trkpt>
      <trkpt lat="47.67394" lon="1.52759">
        <ele>82</ele>
        <time>2020-07-02T19:48:40Z</time>
      </trkpt>
      <trkpt lat="47.67394" lon="1.52759">
        <ele>82</ele>
        <time>2020-07-02T19:48:41Z</time>
      </trkpt>
      <trkpt lat="47.67394" lon="1.52759">
        <ele>82</ele>
        <time>2020-07-02T19:48:42Z</time>
      </trkpt>
      <trkpt lat="47.67394" lon="1.52759">
        <ele>82</ele>
        <time>2020-07-02T19:48:43Z</time>
      </trkpt>
      <trkpt lat="47.67394" lon="1.52759">
        <ele>82</ele>
        <time>2020-07-02T19:48:44Z</time>
      </trkpt>
      <trkpt lat="47.67394" lon="1.52759">
        <ele>82</ele>
        <time>2020-07-02T19:48:45Z</time>
      </trkpt>
      <trkpt lat="47.67394" lon="1.52761">
        <ele>82</ele>
        <time>2020-07-02T19:48:46Z</time>
      </trkpt>
      <trkpt lat="47.67393" lon="1.5276">
        <ele>82</ele>
        <time>2020-07-02T19:48:47Z</time>
      </trkpt>
      <trkpt lat="47.67394" lon="1.5276">
        <ele>82</ele>
        <time>2020-07-02T19:48:48Z</time>
      </trkpt>
      <trkpt lat="47.67398" lon="1.52757">
        <ele>82</ele>
        <time>2020-07-02T19:48:52Z</time>
      </trkpt>
      <trkpt lat="47.67399" lon="1.52757">
        <ele>82</ele>
        <time>2020-07-02T19:48:53Z</time>
      </trkpt>
      <trkpt lat="47.674" lon="1.52756">
        <ele>82</ele>
        <time>2020-07-02T19:48:54Z</time>
      </trkpt>
      <trkpt lat="47.674" lon="1.52756">
        <ele>82</ele>
        <time>2020-07-02T19:48:55Z</time>
      </trkpt>
      <trkpt lat="47.67401" lon="1.52755">
        <ele>82</ele>
        <time>2020-07-02T19:48:56Z</time>
      </trkpt>
      <trkpt lat="47.67401" lon="1.52755">
        <ele>82</ele>
        <time>2020-07-02T19:48:57Z</time>
      </trkpt>
      <trkpt lat="47.67401" lon="1.52755">
        <ele>82</ele>
        <time>2020-07-02T19:48:58Z</time>
      </trkpt>
      <trkpt lat="47.67401" lon="1.52755">
        <ele>82</ele>
        <time>2020-07-02T19:48:59Z</time>
      </trkpt>
      <trkpt lat="47.67401" lon="1.52755">
        <ele>82</ele>
        <time>2020-07-02T19:49:00Z</time>
      </trkpt>
      <trkpt lat="47.67401" lon="1.52755">
        <ele>82</ele>
        <time>2020-07-02T19:49:01Z</time>
      </trkpt>
      <trkpt lat="47.67401" lon="1.52755">
        <ele>82</ele>
        <time>2020-07-02T19:49:02Z</time>
      </trkpt>
      <trkpt lat="47.67401" lon="1.52755">
        <ele>82</ele>
        <time>2020-07-02T19:49:03Z</time>
      </trkpt>
      <trkpt lat="47.67401" lon="1.52755">
        <ele>82</ele>
        <time>2020-07-02T19:49:04Z</time>
      </trkpt>
      <trkpt lat="47.67401" lon="1.52755">
        <ele>82</ele>
        <time>2020-07-02T19:49:05Z</time>
      </trkpt>
      <trkpt lat="47.67401" lon="1.52755">
        <ele>82</ele>
        <time>2020-07-02T19:49:06Z</time>
      </trkpt>
      <trkpt lat="47.67401" lon="1.52755">
        <ele>82</ele>
        <time>2020-07-02T19:49:07Z</time>
      </trkpt>
      <trkpt lat="47.67394" lon="1.52759">
        <ele>82</ele>
        <time>2020-07-02T19:49:16Z</time>
      </trkpt>
      <trkpt lat="47.67391" lon="1.52761">
        <ele>82</ele>
        <time>2020-07-02T19:49:17Z</time>
      </trkpt>
      <trkpt lat="47.67388" lon="1.52764">
        <ele>81.9</ele>
        <time>2020-07-02T19:49:18Z</time>
      </trkpt>
      <trkpt lat="47.67386" lon="1.52766">
        <ele>81.9</ele>
        <time>2020-07-02T19:49:19Z</time>
      </trkpt>
      <trkpt lat="47.67383" lon="1.52768">
        <ele>81.9</ele>
        <time>2020-07-02T19:49:20Z</time>
      </trkpt>
      <trkpt lat="47.6738" lon="1.52771">
        <ele>81.8</ele>
        <time>2020-07-02T19:49:21Z</time>
      </trkpt>
      <trkpt lat="47.67377" lon="1.52774">
        <ele>81.8</ele>
        <time>2020-07-02T19:49:22Z</time>
      </trkpt>
      <trkpt lat="47.67373" lon="1.52777">
        <ele>81.8</ele>
        <time>2020-07-02T19:49:23Z</time>
      </trkpt>
      <trkpt lat="47.67369" lon="1.5278">
        <ele>81.7</ele>
        <time>2020-07-02T19:49:24Z</time>
      </trkpt>
      <trkpt lat="47.67365" lon="1.52782">
        <ele>81.7</ele>
        <time>2020-07-02T19:49:25Z</time>
      </trkpt>
      <trkpt lat="47.67362" lon="1.52784">
        <ele>81.6</ele>
        <time>2020-07-02T19:49:26Z</time>
      </trkpt>
      <trkpt lat="47.67357" lon="1.52787">
        <ele>81.6</ele>
        <time>2020-07-02T19:49:27Z</time>
      </trkpt>
      <trkpt lat="47.67353" lon="1.52789">
        <ele>81.5</ele>
        <time>2020-07-02T19:49:28Z</time>
      </trkpt>
      <trkpt lat="47.67348" lon="1.52791">
        <ele>81.5</ele>
        <time>2020-07-02T19:49:29Z</time>
      </trkpt>
      <trkpt lat="47.67344" lon="1.52794">
        <ele>81.5</ele>
        <time>2020-07-02T19:49:30Z</time>
      </trkpt>
      <trkpt lat="47.67339" lon="1.52797">
        <ele>81.5</ele>
        <time>2020-07-02T19:49:31Z</time>
      </trkpt>
      <trkpt lat="47.67335" lon="1.52799">
        <ele>81.5</ele>
        <time>2020-07-02T19:49:32Z</time>
      </trkpt>
      <trkpt lat="47.6733" lon="1.52803">
        <ele>81.6</ele>
        <time>2020-07-02T19:49:33Z</time>
      </trkpt>
      <trkpt lat="47.67326" lon="1.52806">
        <ele>81.6</ele>
        <time>2020-07-02T19:49:34Z</time>
      </trkpt>
      <trkpt lat="47.67322" lon="1.5281">
        <ele>81.6</ele>
        <time>2020-07-02T19:49:35Z</time>
      </trkpt>
      <trkpt lat="47.67318" lon="1.52814">
        <ele>81.7</ele>
        <time>2020-07-02T19:49:36Z</time>
      </trkpt>
      <trkpt lat="47.67314" lon="1.52817">
        <ele>81.7</ele>
        <time>2020-07-02T19:49:37Z</time>
      </trkpt>
      <trkpt lat="47.67309" lon="1.52821">
        <ele>81.7</ele>
        <time>2020-07-02T19:49:38Z</time>
      </trkpt>
      <trkpt lat="47.67305" lon="1.52826">
        <ele>81.8</ele>
        <time>2020-07-02T19:49:39Z</time>
      </trkpt>
      <trkpt lat="47.67301" lon="1.52829">
        <ele>81.8</ele>
        <time>2020-07-02T19:49:40Z</time>
      </trkpt>
      <trkpt lat="47.67297" lon="1.52831">
        <ele>81.9</ele>
        <time>2020-07-02T19:49:41Z</time>
      </trkpt>
      <trkpt lat="47.67293" lon="1.52835">
        <ele>81.9</ele>
        <time>2020-07-02T19:49:42Z</time>
      </trkpt>
      <trkpt lat="47.6729" lon="1.52837">
        <ele>82</ele>
        <time>2020-07-02T19:49:43Z</time>
      </trkpt>
      <trkpt lat="47.67286" lon="1.52841">
        <ele>82</ele>
        <time>2020-07-02T19:49:44Z</time>
      </trkpt>
      <trkpt lat="47.67283" lon="1.52843">
        <ele>82</ele>
        <time>2020-07-02T19:49:45Z</time>
      </trkpt>
      <trkpt lat="47.6728" lon="1.52846">
        <ele>82.1</ele>
        <time>2020-07-02T19:49:46Z</time>
      </trkpt>
      <trkpt lat="47.67277" lon="1.52848">
        <ele>82.1</ele>
        <time>2020-07-02T19:49:47Z</time>
      </trkpt>
      <trkpt lat="47.67274" lon="1.52849">
        <ele>82.1</ele>
        <time>2020-07-02T19:49:48Z</time>
      </trkpt>
      <trkpt lat="47.67272" lon="1.52846">
        <ele>82.2</ele>
        <time>2020-07-02T19:49:49Z</time>
      </trkpt>
      <trkpt lat="47.67272" lon="1.52844">
        <ele>82.2</ele>
        <time>2020-07-02T19:49:50Z</time>
      </trkpt>
      <trkpt lat="47.67273" lon="1.5284">
        <ele>81.6</ele>
        <time>2020-07-02T19:49:51Z</time>
      </trkpt>
      <trkpt lat="47.67274" lon="1.52837">
        <ele>81.4</ele>
        <time>2020-07-02T19:49:52Z</time>
      </trkpt>
      <trkpt lat="47.67277" lon="1.52835">
        <ele>81.1</ele>
        <time>2020-07-02T19:49:53Z</time>
      </trkpt>
      <trkpt lat="47.67284" lon="1.5283">
        <ele>80.3</ele>
        <time>2020-07-02T19:49:54Z</time>
      </trkpt>
      <trkpt lat="47.6729" lon="1.52826">
        <ele>79.6</ele>
        <time>2020-07-02T19:49:55Z</time>
      </trkpt>
      <trkpt lat="47.67298" lon="1.52817">
        <ele>78.5</ele>
        <time>2020-07-02T19:49:56Z</time>
      </trkpt>
      <trkpt lat="47.67304" lon="1.5281">
        <ele>77.8</ele>
        <time>2020-07-02T19:49:57Z</time>
      </trkpt>
      <trkpt lat="47.67311" lon="1.52803">
        <ele>77.2</ele>
        <time>2020-07-02T19:49:58Z</time>
      </trkpt>
      <trkpt lat="47.67319" lon="1.52793">
        <ele>76.5</ele>
        <time>2020-07-02T19:49:59Z</time>
      </trkpt>
      <trkpt lat="47.67327" lon="1.52782">
        <ele>76</ele>
        <time>2020-07-02T19:50:00Z</time>
      </trkpt>
      <trkpt lat="47.6733" lon="1.52771">
        <ele>75.9</ele>
        <time>2020-07-02T19:50:01Z</time>
      </trkpt>
      <trkpt lat="47.67333" lon="1.52762">
        <ele>75.9</ele>
        <time>2020-07-02T19:50:02Z</time>
      </trkpt>
      <trkpt lat="47.67332" lon="1.52752">
        <ele>75.9</ele>
        <time>2020-07-02T19:50:03Z</time>
      </trkpt>
      <trkpt lat="47.6733" lon="1.52744">
        <ele>75.9</ele>
        <time>2020-07-02T19:50:04Z</time>
      </trkpt>
      <trkpt lat="47.67325" lon="1.52738">
        <ele>75.9</ele>
        <time>2020-07-02T19:50:05Z</time>
      </trkpt>
      <trkpt lat="47.6732" lon="1.52733">
        <ele>75.9</ele>
        <time>2020-07-02T19:50:06Z</time>
      </trkpt>
      <trkpt lat="47.67315" lon="1.52728">
        <ele>75.9</ele>
        <time>2020-07-02T19:50:07Z</time>
      </trkpt>
      <trkpt lat="47.67312" lon="1.52724">
        <ele>75.9</ele>
        <time>2020-07-02T19:50:08Z</time>
      </trkpt>
      <trkpt lat="47.67308" lon="1.52718">
        <ele>75.9</ele>
        <time>2020-07-02T19:50:09Z</time>
      </trkpt>
      <trkpt lat="47.67304" lon="1.52713">
        <ele>75.9</ele>
        <time>2020-07-02T19:50:10Z</time>
      </trkpt>
      <trkpt lat="47.67301" lon="1.52708">
        <ele>75.9</ele>
        <time>2020-07-02T19:50:11Z</time>
      </trkpt>
      <trkpt lat="47.67298" lon="1.52703">
        <ele>75.9</ele>
        <time>2020-07-02T19:50:12Z</time>
      </trkpt>
      <trkpt lat="47.67294" lon="1.52699">
        <ele>75.9</ele>
        <time>2020-07-02T19:50:13Z</time>
      </trkpt>
      <trkpt lat="47.67291" lon="1.52694">
        <ele>75.9</ele>
        <time>2020-07-02T19:50:14Z</time>
      </trkpt>
      <trkpt lat="47.67286" lon="1.52691">
        <ele>76</ele>
        <time>2020-07-02T19:50:15Z</time>
      </trkpt>
      <trkpt lat="47.67283" lon="1.52687">
        <ele>76</ele>
        <time>2020-07-02T19:50:16Z</time>
      </trkpt>
      <trkpt lat="47.67279" lon="1.52682">
        <ele>76</ele>
        <time>2020-07-02T19:50:17Z</time>
      </trkpt>
      <trkpt lat="47.67275" lon="1.52677">
        <ele>76</ele>
        <time>2020-07-02T19:50:18Z</time>
      </trkpt>
      <trkpt lat="47.67272" lon="1.52673">
        <ele>76.1</ele>
        <time>2020-07-02T19:50:19Z</time>
      </trkpt>
      <trkpt lat="47.67268" lon="1.52668">
        <ele>76.1</ele>
        <time>2020-07-02T19:50:20Z</time>
      </trkpt>
      <trkpt lat="47.67264" lon="1.52665">
        <ele>76.1</ele>
        <time>2020-07-02T19:50:21Z</time>
      </trkpt>
      <trkpt lat="47.67261" lon="1.52661">
        <ele>76.1</ele>
        <time>2020-07-02T19:50:22Z</time>
      </trkpt>
      <trkpt lat="47.67258" lon="1.52657">
        <ele>76.2</ele>
        <time>2020-07-02T19:50:23Z</time>
      </trkpt>
      <trkpt lat="47.67255" lon="1.52653">
        <ele>76.2</ele>
        <time>2020-07-02T19:50:24Z</time>
      </trkpt>
      <trkpt lat="47.67251" lon="1.5265">
        <ele>76.2</ele>
        <time>2020-07-02T19:50:25Z</time>
      </trkpt>
      <trkpt lat="47.67248" lon="1.52648">
        <ele>76.2</ele>
        <time>2020-07-02T19:50:26Z</time>
      </trkpt>
      <trkpt lat="47.67245" lon="1.52646">
        <ele>76.2</ele>
        <time>2020-07-02T19:50:27Z</time>
      </trkpt>
      <trkpt lat="47.67241" lon="1.52644">
        <ele>76.2</ele>
        <time>2020-07-02T19:50:28Z</time>
      </trkpt>
      <trkpt lat="47.67238" lon="1.52642">
        <ele>76.2</ele>
        <time>2020-07-02T19:50:29Z</time>
      </trkpt>
      <trkpt lat="47.67235" lon="1.5264">
        <ele>76.2</ele>
        <time>2020-07-02T19:50:30Z</time>
      </trkpt>
      <trkpt lat="47.67232" lon="1.52638">
        <ele>76.2</ele>
        <time>2020-07-02T19:50:31Z</time>
      </trkpt>
      <trkpt lat="47.67229" lon="1.52635">
        <ele>76.2</ele>
        <time>2020-07-02T19:50:32Z</time>
      </trkpt>
      <trkpt lat="47.67226" lon="1.52633">
        <ele>76.2</ele>
        <time>2020-07-02T19:50:33Z</time>
      </trkpt>
      <trkpt lat="47.67223" lon="1.52632">
        <ele>76.2</ele>
        <time>2020-07-02T19:50:34Z</time>
      </trkpt>
      <trkpt lat="47.6722" lon="1.5263">
        <ele>76.2</ele>
        <time>2020-07-02T19:50:35Z</time>
      </trkpt>
      <trkpt lat="47.67217" lon="1.52628">
        <ele>76.2</ele>
        <time>2020-07-02T19:50:36Z</time>
      </trkpt>
      <trkpt lat="47.67214" lon="1.52626">
        <ele>76.2</ele>
        <time>2020-07-02T19:50:37Z</time>
      </trkpt>
      <trkpt lat="47.67211" lon="1.52624">
        <ele>76.2</ele>
        <time>2020-07-02T19:50:38Z</time>
      </trkpt>
      <trkpt lat="47.67207" lon="1.52622">
        <ele>76.1</ele>
        <time>2020-07-02T19:50:39Z</time>
      </trkpt>
      <trkpt lat="47.67204" lon="1.5262">
        <ele>76.1</ele>
        <time>2020-07-02T19:50:40Z</time>
      </trkpt>
      <trkpt lat="47.67201" lon="1.52618">
        <ele>76.1</ele>
        <time>2020-07-02T19:50:41Z</time>
      </trkpt>
      <trkpt lat="47.67197" lon="1.52617">
        <ele>76.1</ele>
        <time>2020-07-02T19:50:42Z</time>
      </trkpt>
      <trkpt lat="47.67194" lon="1.52618">
        <ele>76.1</ele>
        <time>2020-07-02T19:50:43Z</time>
      </trkpt>
      <trkpt lat="47.6719" lon="1.52619">
        <ele>76.1</ele>
        <time>2020-07-02T19:50:44Z</time>
      </trkpt>
      <trkpt lat="47.67187" lon="1.5262">
        <ele>76.1</ele>
        <time>2020-07-02T19:50:45Z</time>
      </trkpt>
      <trkpt lat="47.67184" lon="1.5262">
        <ele>76</ele>
        <time>2020-07-02T19:50:46Z</time>
      </trkpt>
      <trkpt lat="47.6718" lon="1.52622">
        <ele>76</ele>
        <time>2020-07-02T19:50:47Z</time>
      </trkpt>
      <trkpt lat="47.67178" lon="1.52623">
        <ele>75.9</ele>
        <time>2020-07-02T19:50:48Z</time>
      </trkpt>
      <trkpt lat="47.67175" lon="1.52623">
        <ele>75.9</ele>
        <time>2020-07-02T19:50:49Z</time>
      </trkpt>
      <trkpt lat="47.67172" lon="1.52626">
        <ele>75.9</ele>
        <time>2020-07-02T19:50:50Z</time>
      </trkpt>
      <trkpt lat="47.67171" lon="1.52627">
        <ele>75.9</ele>
        <time>2020-07-02T19:50:51Z</time>
      </trkpt>
      <trkpt lat="47.67169" lon="1.52628">
        <ele>75.9</ele>
        <time>2020-07-02T19:50:52Z</time>
      </trkpt>
      <trkpt lat="47.67167" lon="1.52629">
        <ele>75.9</ele>
        <time>2020-07-02T19:50:53Z</time>
      </trkpt>
      <trkpt lat="47.67166" lon="1.52628">
        <ele>75.9</ele>
        <time>2020-07-02T19:50:54Z</time>
      </trkpt>
      <trkpt lat="47.67165" lon="1.52628">
        <ele>75.9</ele>
        <time>2020-07-02T19:50:55Z</time>
      </trkpt>
      <trkpt lat="47.67163" lon="1.52627">
        <ele>75.9</ele>
        <time>2020-07-02T19:50:56Z</time>
      </trkpt>
      <trkpt lat="47.67161" lon="1.52627">
        <ele>75.9</ele>
        <time>2020-07-02T19:50:57Z</time>
      </trkpt>
      <trkpt lat="47.6716" lon="1.52626">
        <ele>75.9</ele>
        <time>2020-07-02T19:50:58Z</time>
      </trkpt>
      <trkpt lat="47.67158" lon="1.52626">
        <ele>75.9</ele>
        <time>2020-07-02T19:50:59Z</time>
      </trkpt>
      <trkpt lat="47.67155" lon="1.52625">
        <ele>75.9</ele>
        <time>2020-07-02T19:51:00Z</time>
      </trkpt>
      <trkpt lat="47.67154" lon="1.52625">
        <ele>75.9</ele>
        <time>2020-07-02T19:51:01Z</time>
      </trkpt>
      <trkpt lat="47.67151" lon="1.52623">
        <ele>75.9</ele>
        <time>2020-07-02T19:51:02Z</time>
      </trkpt>
      <trkpt lat="47.6715" lon="1.52622">
        <ele>75.9</ele>
        <time>2020-07-02T19:51:03Z</time>
      </trkpt>
      <trkpt lat="47.6715" lon="1.52618">
        <ele>75.9</ele>
        <time>2020-07-02T19:51:04Z</time>
      </trkpt>
      <trkpt lat="47.6715" lon="1.52616">
        <ele>75.9</ele>
        <time>2020-07-02T19:51:05Z</time>
      </trkpt>
      <trkpt lat="47.67152" lon="1.52613">
        <ele>75.9</ele>
        <time>2020-07-02T19:51:06Z</time>
      </trkpt>
      <trkpt lat="47.67153" lon="1.52612">
        <ele>75.9</ele>
        <time>2020-07-02T19:51:07Z</time>
      </trkpt>
      <trkpt lat="47.67156" lon="1.52611">
        <ele>75.9</ele>
        <time>2020-07-02T19:51:08Z</time>
      </trkpt>
      <trkpt lat="47.67156" lon="1.52611">
        <ele>75.9</ele>
        <time>2020-07-02T19:51:09Z</time>
      </trkpt>
      <trkpt lat="47.67158" lon="1.52611">
        <ele>75.9</ele>
        <time>2020-07-02T19:51:10Z</time>
      </trkpt>
      <trkpt lat="47.6716" lon="1.52612">
        <ele>75.9</ele>
        <time>2020-07-02T19:51:11Z</time>
      </trkpt>
      <trkpt lat="47.67162" lon="1.5261">
        <ele>75.9</ele>
        <time>2020-07-02T19:51:12Z</time>
      </trkpt>
      <trkpt lat="47.67163" lon="1.52611">
        <ele>75.9</ele>
        <time>2020-07-02T19:51:13Z</time>
      </trkpt>
      <trkpt lat="47.67164" lon="1.5261">
        <ele>75.9</ele>
        <time>2020-07-02T19:51:14Z</time>
      </trkpt>
      <trkpt lat="47.67166" lon="1.52611">
        <ele>75.9</ele>
        <time>2020-07-02T19:51:15Z</time>
      </trkpt>
      <trkpt lat="47.67166" lon="1.5261">
        <ele>75.9</ele>
        <time>2020-07-02T19:51:16Z</time>
      </trkpt>
      <trkpt lat="47.67167" lon="1.5261">
        <ele>75.9</ele>
        <time>2020-07-02T19:51:17Z</time>
      </trkpt>
      <trkpt lat="47.67167" lon="1.52609">
        <ele>75.9</ele>
        <time>2020-07-02T19:51:18Z</time>
      </trkpt>
      <trkpt lat="47.67167" lon="1.52609">
        <ele>75.9</ele>
        <time>2020-07-02T19:51:19Z</time>
      </trkpt>
      <trkpt lat="47.67167" lon="1.52608">
        <ele>75.9</ele>
        <time>2020-07-02T19:51:20Z</time>
      </trkpt>
      <trkpt lat="47.67167" lon="1.52608">
        <ele>75.9</ele>
        <time>2020-07-02T19:51:21Z</time>
      </trkpt>
      <trkpt lat="47.67167" lon="1.52607">
        <ele>75.9</ele>
        <time>2020-07-02T19:51:22Z</time>
      </trkpt>
      <trkpt lat="47.67167" lon="1.52608">
        <ele>75.9</ele>
        <time>2020-07-02T19:51:23Z</time>
      </trkpt>
      <trkpt lat="47.67167" lon="1.52607">
        <ele>75.9</ele>
        <time>2020-07-02T19:51:24Z</time>
      </trkpt>
      <trkpt lat="47.67167" lon="1.52606">
        <ele>75.9</ele>
        <time>2020-07-02T19:51:25Z</time>
      </trkpt>
      <trkpt lat="47.67168" lon="1.52606">
        <ele>75.9</ele>
        <time>2020-07-02T19:51:26Z</time>
      </trkpt>
      <trkpt lat="47.67168" lon="1.52606">
        <ele>75.9</ele>
        <time>2020-07-02T19:51:27Z</time>
      </trkpt>
      <trkpt lat="47.67169" lon="1.52607">
        <ele>75.9</ele>
        <time>2020-07-02T19:51:28Z</time>
      </trkpt>
      <trkpt lat="47.67171" lon="1.52607">
        <ele>75.9</ele>
        <time>2020-07-02T19:51:31Z</time>
      </trkpt>
      <trkpt lat="47.67172" lon="1.52606">
        <ele>75.9</ele>
        <time>2020-07-02T19:51:32Z</time>
      </trkpt>
      <trkpt lat="47.67173" lon="1.52605">
        <ele>75.9</ele>
        <time>2020-07-02T19:51:33Z</time>
      </trkpt>
      <trkpt lat="47.67175" lon="1.52602">
        <ele>75.9</ele>
        <time>2020-07-02T19:51:34Z</time>
      </trkpt>
      <trkpt lat="47.67176" lon="1.52601">
        <ele>75.9</ele>
        <time>2020-07-02T19:51:35Z</time>
      </trkpt>
      <trkpt lat="47.67178" lon="1.52598">
        <ele>75.9</ele>
        <time>2020-07-02T19:51:36Z</time>
      </trkpt>
      <trkpt lat="47.67179" lon="1.52597">
        <ele>75.9</ele>
        <time>2020-07-02T19:51:37Z</time>
      </trkpt>
      <trkpt lat="47.67182" lon="1.52596">
        <ele>75.9</ele>
        <time>2020-07-02T19:51:38Z</time>
      </trkpt>
      <trkpt lat="47.67183" lon="1.52595">
        <ele>75.9</ele>
        <time>2020-07-02T19:51:39Z</time>
      </trkpt>
      <trkpt lat="47.67186" lon="1.52593">
        <ele>75.9</ele>
        <time>2020-07-02T19:51:40Z</time>
      </trkpt>
      <trkpt lat="47.67187" lon="1.52593">
        <ele>76</ele>
        <time>2020-07-02T19:51:41Z</time>
      </trkpt>
      <trkpt lat="47.67189" lon="1.52591">
        <ele>76</ele>
        <time>2020-07-02T19:51:42Z</time>
      </trkpt>
      <trkpt lat="47.6719" lon="1.52591">
        <ele>76</ele>
        <time>2020-07-02T19:51:43Z</time>
      </trkpt>
      <trkpt lat="47.67191" lon="1.52589">
        <ele>76</ele>
        <time>2020-07-02T19:51:44Z</time>
      </trkpt>
      <trkpt lat="47.67193" lon="1.52588">
        <ele>76</ele>
        <time>2020-07-02T19:51:45Z</time>
      </trkpt>
      <trkpt lat="47.67194" lon="1.52588">
        <ele>76</ele>
        <time>2020-07-02T19:51:46Z</time>
      </trkpt>
      <trkpt lat="47.67196" lon="1.52588">
        <ele>76</ele>
        <time>2020-07-02T19:51:47Z</time>
      </trkpt>
      <trkpt lat="47.67198" lon="1.52585">
        <ele>76</ele>
        <time>2020-07-02T19:51:48Z</time>
      </trkpt>
      <trkpt lat="47.67199" lon="1.52585">
        <ele>76.1</ele>
        <time>2020-07-02T19:51:49Z</time>
      </trkpt>
      <trkpt lat="47.67202" lon="1.52583">
        <ele>76.1</ele>
        <time>2020-07-02T19:51:50Z</time>
      </trkpt>
      <trkpt lat="47.67203" lon="1.52582">
        <ele>76.1</ele>
        <time>2020-07-02T19:51:51Z</time>
      </trkpt>
      <trkpt lat="47.67206" lon="1.52583">
        <ele>76.1</ele>
        <time>2020-07-02T19:51:52Z</time>
      </trkpt>
      <trkpt lat="47.67207" lon="1.52584">
        <ele>76.1</ele>
        <time>2020-07-02T19:51:53Z</time>
      </trkpt>
      <trkpt lat="47.67208" lon="1.52584">
        <ele>76.1</ele>
        <time>2020-07-02T19:51:54Z</time>
      </trkpt>
      <trkpt lat="47.67208" lon="1.52584">
        <ele>76.1</ele>
        <time>2020-07-02T19:51:55Z</time>
      </trkpt>
      <trkpt lat="47.67209" lon="1.52584">
        <ele>76.1</ele>
        <time>2020-07-02T19:51:56Z</time>
      </trkpt>
      <trkpt lat="47.67209" lon="1.52585">
        <ele>76.1</ele>
        <time>2020-07-02T19:51:57Z</time>
      </trkpt>
      <trkpt lat="47.6721" lon="1.52585">
        <ele>76.1</ele>
        <time>2020-07-02T19:51:58Z</time>
      </trkpt>
      <trkpt lat="47.6721" lon="1.52584">
        <ele>76.1</ele>
        <time>2020-07-02T19:51:59Z</time>
      </trkpt>
      <trkpt lat="47.6721" lon="1.52584">
        <ele>76.1</ele>
        <time>2020-07-02T19:52:00Z</time>
      </trkpt>
      <trkpt lat="47.6721" lon="1.52584">
        <ele>76.1</ele>
        <time>2020-07-02T19:52:01Z</time>
      </trkpt>
      <trkpt lat="47.6721" lon="1.52585">
        <ele>76.1</ele>
        <time>2020-07-02T19:52:02Z</time>
      </trkpt>
      <trkpt lat="47.67211" lon="1.52585">
        <ele>76.1</ele>
        <time>2020-07-02T19:52:03Z</time>
      </trkpt>
      <trkpt lat="47.67211" lon="1.52587">
        <ele>76.1</ele>
        <time>2020-07-02T19:52:04Z</time>
      </trkpt>
      <trkpt lat="47.67212" lon="1.52586">
        <ele>76.1</ele>
        <time>2020-07-02T19:52:05Z</time>
      </trkpt>
      <trkpt lat="47.67211" lon="1.52585">
        <ele>76.1</ele>
        <time>2020-07-02T19:52:06Z</time>
      </trkpt>
      <trkpt lat="47.67212" lon="1.52585">
        <ele>76.1</ele>
        <time>2020-07-02T19:52:07Z</time>
      </trkpt>
      <trkpt lat="47.67212" lon="1.52584">
        <ele>76.1</ele>
        <time>2020-07-02T19:52:08Z</time>
      </trkpt>
      <trkpt lat="47.67212" lon="1.52584">
        <ele>76.1</ele>
        <time>2020-07-02T19:52:09Z</time>
      </trkpt>
      <trkpt lat="47.67212" lon="1.52584">
        <ele>76.1</ele>
        <time>2020-07-02T19:52:10Z</time>
      </trkpt>
      <trkpt lat="47.67212" lon="1.52586">
        <ele>76.1</ele>
        <time>2020-07-02T19:52:11Z</time>
      </trkpt>
      <trkpt lat="47.67212" lon="1.52587">
        <ele>76.1</ele>
        <time>2020-07-02T19:52:12Z</time>
      </trkpt>
      <trkpt lat="47.67212" lon="1.52586">
        <ele>76.1</ele>
        <time>2020-07-02T19:52:13Z</time>
      </trkpt>
      <trkpt lat="47.67212" lon="1.52585">
        <ele>76.1</ele>
        <time>2020-07-02T19:52:14Z</time>
      </trkpt>
      <trkpt lat="47.67212" lon="1.52585">
        <ele>76.1</ele>
        <time>2020-07-02T19:52:15Z</time>
      </trkpt>
      <trkpt lat="47.67218" lon="1.52583">
        <ele>76.1</ele>
        <time>2020-07-02T19:53:32Z</time>
      </trkpt>
      <trkpt lat="47.67219" lon="1.5258">
        <ele>76.1</ele>
        <time>2020-07-02T19:53:33Z</time>
      </trkpt>
      <trkpt lat="47.67219" lon="1.52578">
        <ele>76.1</ele>
        <time>2020-07-02T19:53:34Z</time>
      </trkpt>
      <trkpt lat="47.67219" lon="1.52577">
        <ele>76.1</ele>
        <time>2020-07-02T19:53:35Z</time>
      </trkpt>
      <trkpt lat="47.67219" lon="1.52577">
        <ele>76.1</ele>
        <time>2020-07-02T19:53:36Z</time>
      </trkpt>
      <trkpt lat="47.67218" lon="1.52577">
        <ele>76.1</ele>
        <time>2020-07-02T19:53:37Z</time>
      </trkpt>
      <trkpt lat="47.67218" lon="1.52576">
        <ele>76.1</ele>
        <time>2020-07-02T19:53:38Z</time>
      </trkpt>
      <trkpt lat="47.67218" lon="1.52576">
        <ele>76.1</ele>
        <time>2020-07-02T19:53:39Z</time>
      </trkpt>
      <trkpt lat="47.67218" lon="1.52576">
        <ele>76.1</ele>
        <time>2020-07-02T19:53:40Z</time>
      </trkpt>
      <trkpt lat="47.67218" lon="1.52576">
        <ele>76.1</ele>
        <time>2020-07-02T19:53:41Z</time>
      </trkpt>
      <trkpt lat="47.67218" lon="1.52575">
        <ele>76.1</ele>
        <time>2020-07-02T19:53:42Z</time>
      </trkpt>
      <trkpt lat="47.67219" lon="1.52575">
        <ele>76.1</ele>
        <time>2020-07-02T19:53:43Z</time>
      </trkpt>
      <trkpt lat="47.67219" lon="1.52575">
        <ele>76.1</ele>
        <time>2020-07-02T19:53:44Z</time>
      </trkpt>
      <trkpt lat="47.67219" lon="1.52574">
        <ele>76.1</ele>
        <time>2020-07-02T19:53:45Z</time>
      </trkpt>
      <trkpt lat="47.67216" lon="1.5259">
        <ele>76.1</ele>
        <time>2020-07-02T19:54:15Z</time>
      </trkpt>
      <trkpt lat="47.67216" lon="1.52591">
        <ele>76.1</ele>
        <time>2020-07-02T19:54:16Z</time>
      </trkpt>
      <trkpt lat="47.67216" lon="1.52591">
        <ele>76.1</ele>
        <time>2020-07-02T19:54:17Z</time>
      </trkpt>
      <trkpt lat="47.67216" lon="1.52591">
        <ele>76.1</ele>
        <time>2020-07-02T19:54:18Z</time>
      </trkpt>
      <trkpt lat="47.67216" lon="1.52591">
        <ele>76.1</ele>
        <time>2020-07-02T19:54:19Z</time>
      </trkpt>
      <trkpt lat="47.67216" lon="1.52591">
        <ele>76.1</ele>
        <time>2020-07-02T19:54:20Z</time>
      </trkpt>
      <trkpt lat="47.67215" lon="1.52591">
        <ele>76.1</ele>
        <time>2020-07-02T19:54:21Z</time>
      </trkpt>
      <trkpt lat="47.67215" lon="1.52591">
        <ele>76.1</ele>
        <time>2020-07-02T19:54:22Z</time>
      </trkpt>
      <trkpt lat="47.67215" lon="1.52592">
        <ele>76.1</ele>
        <time>2020-07-02T19:54:23Z</time>
      </trkpt>
      <trkpt lat="47.67215" lon="1.52592">
        <ele>76.1</ele>
        <time>2020-07-02T19:54:24Z</time>
      </trkpt>
      <trkpt lat="47.67215" lon="1.52592">
        <ele>76.1</ele>
        <time>2020-07-02T19:54:25Z</time>
      </trkpt>
      <trkpt lat="47.67217" lon="1.52591">
        <ele>76.1</ele>
        <time>2020-07-02T19:54:26Z</time>
      </trkpt>
      <trkpt lat="47.67216" lon="1.52592">
        <ele>76.1</ele>
        <time>2020-07-02T19:54:27Z</time>
      </trkpt>
      <trkpt lat="47.67216" lon="1.52592">
        <ele>76.1</ele>
        <time>2020-07-02T19:54:28Z</time>
      </trkpt>
      <trkpt lat="47.67216" lon="1.52591">
        <ele>76.1</ele>
        <time>2020-07-02T19:54:29Z</time>
      </trkpt>
      <trkpt lat="47.67217" lon="1.52592">
        <ele>76.1</ele>
        <time>2020-07-02T19:54:30Z</time>
      </trkpt>
      <trkpt lat="47.67217" lon="1.52591">
        <ele>76.1</ele>
        <time>2020-07-02T19:54:31Z</time>
      </trkpt>
      <trkpt lat="47.67218" lon="1.52591">
        <ele>76.1</ele>
        <time>2020-07-02T19:54:32Z</time>
      </trkpt>
      <trkpt lat="47.67218" lon="1.52592">
        <ele>76.1</ele>
        <time>2020-07-02T19:54:33Z</time>
      </trkpt>
      <trkpt lat="47.67219" lon="1.52592">
        <ele>76.1</ele>
        <time>2020-07-02T19:54:34Z</time>
      </trkpt>
      <trkpt lat="47.6722" lon="1.52592">
        <ele>76.1</ele>
        <time>2020-07-02T19:54:35Z</time>
      </trkpt>
      <trkpt lat="47.6722" lon="1.52593">
        <ele>76.1</ele>
        <time>2020-07-02T19:54:36Z</time>
      </trkpt>
      <trkpt lat="47.67221" lon="1.52593">
        <ele>76.1</ele>
        <time>2020-07-02T19:54:37Z</time>
      </trkpt>
      <trkpt lat="47.67221" lon="1.52593">
        <ele>76.1</ele>
        <time>2020-07-02T19:54:38Z</time>
      </trkpt>
      <trkpt lat="47.67221" lon="1.52594">
        <ele>76.1</ele>
        <time>2020-07-02T19:54:39Z</time>
      </trkpt>
      <trkpt lat="47.67221" lon="1.52594">
        <ele>76.1</ele>
        <time>2020-07-02T19:54:40Z</time>
      </trkpt>
      <trkpt lat="47.67221" lon="1.52594">
        <ele>76.1</ele>
        <time>2020-07-02T19:54:41Z</time>
      </trkpt>
      <trkpt lat="47.67222" lon="1.52595">
        <ele>76.1</ele>
        <time>2020-07-02T19:54:42Z</time>
      </trkpt>
      <trkpt lat="47.67222" lon="1.52596">
        <ele>76.1</ele>
        <time>2020-07-02T19:54:43Z</time>
      </trkpt>
      <trkpt lat="47.67222" lon="1.52596">
        <ele>76.1</ele>
        <time>2020-07-02T19:54:44Z</time>
      </trkpt>
      <trkpt lat="47.67223" lon="1.52597">
        <ele>76.1</ele>
        <time>2020-07-02T19:54:45Z</time>
      </trkpt>
      <trkpt lat="47.67222" lon="1.52598">
        <ele>76.1</ele>
        <time>2020-07-02T19:54:46Z</time>
      </trkpt>
      <trkpt lat="47.67222" lon="1.52598">
        <ele>76.1</ele>
        <time>2020-07-02T19:54:47Z</time>
      </trkpt>
      <trkpt lat="47.67222" lon="1.52598">
        <ele>76.1</ele>
        <time>2020-07-02T19:54:48Z</time>
      </trkpt>
      <trkpt lat="47.67222" lon="1.52599">
        <ele>76.1</ele>
        <time>2020-07-02T19:54:49Z</time>
      </trkpt>
      <trkpt lat="47.67222" lon="1.526">
        <ele>76.1</ele>
        <time>2020-07-02T19:54:50Z</time>
      </trkpt>
      <trkpt lat="47.67222" lon="1.52601">
        <ele>76.1</ele>
        <time>2020-07-02T19:54:51Z</time>
      </trkpt>
      <trkpt lat="47.67222" lon="1.52603">
        <ele>76.1</ele>
        <time>2020-07-02T19:54:52Z</time>
      </trkpt>
      <trkpt lat="47.67222" lon="1.52603">
        <ele>76.1</ele>
        <time>2020-07-02T19:54:53Z</time>
      </trkpt>
      <trkpt lat="47.67222" lon="1.52604">
        <ele>76.1</ele>
        <time>2020-07-02T19:54:54Z</time>
      </trkpt>
      <trkpt lat="47.67222" lon="1.52603">
        <ele>76.1</ele>
        <time>2020-07-02T19:54:55Z</time>
      </trkpt>
      <trkpt lat="47.67221" lon="1.52604">
        <ele>76.1</ele>
        <time>2020-07-02T19:54:56Z</time>
      </trkpt>
      <trkpt lat="47.67221" lon="1.52603">
        <ele>76.1</ele>
        <time>2020-07-02T19:54:57Z</time>
      </trkpt>
      <trkpt lat="47.67221" lon="1.52604">
        <ele>76.1</ele>
        <time>2020-07-02T19:54:58Z</time>
      </trkpt>
      <trkpt lat="47.6722" lon="1.52604">
        <ele>76.1</ele>
        <time>2020-07-02T19:54:59Z</time>
      </trkpt>
      <trkpt lat="47.6722" lon="1.52604">
        <ele>76.1</ele>
        <time>2020-07-02T19:55:00Z</time>
      </trkpt>
      <trkpt lat="47.6722" lon="1.52605">
        <ele>76.1</ele>
        <time>2020-07-02T19:55:01Z</time>
      </trkpt>
      <trkpt lat="47.6722" lon="1.52605">
        <ele>76.1</ele>
        <time>2020-07-02T19:55:02Z</time>
      </trkpt>
      <trkpt lat="47.6722" lon="1.52605">
        <ele>76.1</ele>
        <time>2020-07-02T19:55:03Z</time>
      </trkpt>
      <trkpt lat="47.67219" lon="1.52606">
        <ele>76.1</ele>
        <time>2020-07-02T19:55:04Z</time>
      </trkpt>
      <trkpt lat="47.67219" lon="1.52606">
        <ele>76.1</ele>
        <time>2020-07-02T19:55:05Z</time>
      </trkpt>
      <trkpt lat="47.67218" lon="1.52606">
        <ele>76.1</ele>
        <time>2020-07-02T19:55:06Z</time>
      </trkpt>
      <trkpt lat="47.67218" lon="1.52606">
        <ele>76.1</ele>
        <time>2020-07-02T19:55:07Z</time>
      </trkpt>
      <trkpt lat="47.67218" lon="1.52606">
        <ele>76.1</ele>
        <time>2020-07-02T19:55:08Z</time>
      </trkpt>
      <trkpt lat="47.67218" lon="1.52606">
        <ele>76.1</ele>
        <time>2020-07-02T19:55:09Z</time>
      </trkpt>
      <trkpt lat="47.67218" lon="1.52606">
        <ele>76.1</ele>
        <time>2020-07-02T19:55:10Z</time>
      </trkpt>
      <trkpt lat="47.67217" lon="1.52606">
        <ele>76.1</ele>
        <time>2020-07-02T19:55:11Z</time>
      </trkpt>
      <trkpt lat="47.67218" lon="1.52606">
        <ele>76.1</ele>
        <time>2020-07-02T19:55:12Z</time>
      </trkpt>
      <trkpt lat="47.67218" lon="1.52606">
        <ele>76.1</ele>
        <time>2020-07-02T19:55:13Z</time>
      </trkpt>
      <trkpt lat="47.67218" lon="1.52606">
        <ele>76.1</ele>
        <time>2020-07-02T19:55:14Z</time>
      </trkpt>
      <trkpt lat="47.67218" lon="1.52606">
        <ele>76.1</ele>
        <time>2020-07-02T19:55:15Z</time>
      </trkpt>
      <trkpt lat="47.67218" lon="1.52606">
        <ele>76.1</ele>
        <time>2020-07-02T19:55:16Z</time>
      </trkpt>
      <trkpt lat="47.67218" lon="1.52605">
        <ele>76.1</ele>
        <time>2020-07-02T19:55:17Z</time>
      </trkpt>
      <trkpt lat="47.67218" lon="1.52605">
        <ele>76.1</ele>
        <time>2020-07-02T19:55:18Z</time>
      </trkpt>
      <trkpt lat="47.67217" lon="1.52605">
        <ele>76.1</ele>
        <time>2020-07-02T19:55:19Z</time>
      </trkpt>
      <trkpt lat="47.67218" lon="1.52604">
        <ele>76.1</ele>
        <time>2020-07-02T19:55:20Z</time>
      </trkpt>
      <trkpt lat="47.67218" lon="1.52604">
        <ele>76.1</ele>
        <time>2020-07-02T19:55:21Z</time>
      </trkpt>
      <trkpt lat="47.67218" lon="1.52604">
        <ele>76.1</ele>
        <time>2020-07-02T19:55:22Z</time>
      </trkpt>
      <trkpt lat="47.67218" lon="1.52604">
        <ele>76.1</ele>
        <time>2020-07-02T19:55:23Z</time>
      </trkpt>
      <trkpt lat="47.67218" lon="1.52603">
        <ele>76.1</ele>
        <time>2020-07-02T19:55:24Z</time>
      </trkpt>
      <trkpt lat="47.67218" lon="1.52603">
        <ele>76.1</ele>
        <time>2020-07-02T19:55:25Z</time>
      </trkpt>
      <trkpt lat="47.67218" lon="1.52604">
        <ele>76.1</ele>
        <time>2020-07-02T19:55:26Z</time>
      </trkpt>
      <trkpt lat="47.67219" lon="1.52604">
        <ele>76.1</ele>
        <time>2020-07-02T19:55:27Z</time>
      </trkpt>
      <trkpt lat="47.67219" lon="1.52603">
        <ele>76.1</ele>
        <time>2020-07-02T19:55:28Z</time>
      </trkpt>
      <trkpt lat="47.67219" lon="1.52603">
        <ele>76.1</ele>
        <time>2020-07-02T19:55:29Z</time>
      </trkpt>
      <trkpt lat="47.67219" lon="1.52603">
        <ele>76.1</ele>
        <time>2020-07-02T19:55:30Z</time>
      </trkpt>
      <trkpt lat="47.67219" lon="1.52603">
        <ele>76.1</ele>
        <time>2020-07-02T19:55:31Z</time>
      </trkpt>
      <trkpt lat="47.67219" lon="1.52603">
        <ele>76.1</ele>
        <time>2020-07-02T19:55:32Z</time>
      </trkpt>
      <trkpt lat="47.67219" lon="1.52603">
        <ele>76.1</ele>
        <time>2020-07-02T19:55:33Z</time>
      </trkpt>
      <trkpt lat="47.67219" lon="1.52602">
        <ele>76.1</ele>
        <time>2020-07-02T19:55:34Z</time>
      </trkpt>
      <trkpt lat="47.67219" lon="1.52602">
        <ele>76.1</ele>
        <time>2020-07-02T19:55:35Z</time>
      </trkpt>
      <trkpt lat="47.67219" lon="1.52602">
        <ele>76.1</ele>
        <time>2020-07-02T19:55:36Z</time>
      </trkpt>
      <trkpt lat="47.67219" lon="1.52602">
        <ele>76.1</ele>
        <time>2020-07-02T19:55:37Z</time>
      </trkpt>
      <trkpt lat="47.67219" lon="1.52602">
        <ele>76.1</ele>
        <time>2020-07-02T19:55:38Z</time>
      </trkpt>
      <trkpt lat="47.67219" lon="1.52601">
        <ele>76.1</ele>
        <time>2020-07-02T19:55:39Z</time>
      </trkpt>
      <trkpt lat="47.67224" lon="1.52608">
        <ele>76.2</ele>
        <time>2020-07-02T19:57:07Z</time>
      </trkpt>
      <trkpt lat="47.67224" lon="1.52609">
        <ele>76.2</ele>
        <time>2020-07-02T19:57:08Z</time>
      </trkpt>
      <trkpt lat="47.67224" lon="1.5261">
        <ele>76.2</ele>
        <time>2020-07-02T19:57:09Z</time>
      </trkpt>
      <trkpt lat="47.67225" lon="1.52611">
        <ele>76.2</ele>
        <time>2020-07-02T19:57:10Z</time>
      </trkpt>
      <trkpt lat="47.67224" lon="1.52611">
        <ele>76.2</ele>
        <time>2020-07-02T19:57:11Z</time>
      </trkpt>
      <trkpt lat="47.67224" lon="1.52611">
        <ele>76.2</ele>
        <time>2020-07-02T19:57:12Z</time>
      </trkpt>
      <trkpt lat="47.67224" lon="1.52612">
        <ele>76.2</ele>
        <time>2020-07-02T19:57:13Z</time>
      </trkpt>
      <trkpt lat="47.67224" lon="1.52612">
        <ele>76.2</ele>
        <time>2020-07-02T19:57:14Z</time>
      </trkpt>
      <trkpt lat="47.67223" lon="1.52611">
        <ele>76.2</ele>
        <time>2020-07-02T19:57:15Z</time>
      </trkpt>
      <trkpt lat="47.67223" lon="1.52611">
        <ele>76.2</ele>
        <time>2020-07-02T19:57:16Z</time>
      </trkpt>
      <trkpt lat="47.67223" lon="1.5261">
        <ele>76.2</ele>
        <time>2020-07-02T19:57:17Z</time>
      </trkpt>
      <trkpt lat="47.67224" lon="1.52609">
        <ele>76.2</ele>
        <time>2020-07-02T19:57:18Z</time>
      </trkpt>
      <trkpt lat="47.67225" lon="1.52606">
        <ele>76.2</ele>
        <time>2020-07-02T19:57:19Z</time>
      </trkpt>
      <trkpt lat="47.67225" lon="1.52605">
        <ele>76.2</ele>
        <time>2020-07-02T19:57:20Z</time>
      </trkpt>
      <trkpt lat="47.67223" lon="1.52604">
        <ele>76.2</ele>
        <time>2020-07-02T19:57:21Z</time>
      </trkpt>
      <trkpt lat="47.67223" lon="1.52604">
        <ele>76.2</ele>
        <time>2020-07-02T19:57:22Z</time>
      </trkpt>
      <trkpt lat="47.67223" lon="1.52604">
        <ele>76.2</ele>
        <time>2020-07-02T19:57:23Z</time>
      </trkpt>
      <trkpt lat="47.67223" lon="1.52604">
        <ele>76.2</ele>
        <time>2020-07-02T19:57:24Z</time>
      </trkpt>
      <trkpt lat="47.67223" lon="1.52604">
        <ele>76.2</ele>
        <time>2020-07-02T19:57:25Z</time>
      </trkpt>
      <trkpt lat="47.67223" lon="1.52604">
        <ele>76.2</ele>
        <time>2020-07-02T19:57:26Z</time>
      </trkpt>
      <trkpt lat="47.67223" lon="1.52604">
        <ele>76.2</ele>
        <time>2020-07-02T19:57:27Z</time>
      </trkpt>
      <trkpt lat="47.67223" lon="1.52604">
        <ele>76.2</ele>
        <time>2020-07-02T19:57:28Z</time>
      </trkpt>
      <trkpt lat="47.67223" lon="1.52604">
        <ele>76.2</ele>
        <time>2020-07-02T19:57:29Z</time>
      </trkpt>
      <trkpt lat="47.67223" lon="1.52604">
        <ele>76.2</ele>
        <time>2020-07-02T19:57:30Z</time>
      </trkpt>
      <trkpt lat="47.67222" lon="1.52603">
        <ele>76.2</ele>
        <time>2020-07-02T19:57:31Z</time>
      </trkpt>
      <trkpt lat="47.67222" lon="1.52603">
        <ele>76.2</ele>
        <time>2020-07-02T19:57:32Z</time>
      </trkpt>
      <trkpt lat="47.67222" lon="1.52603">
        <ele>76.2</ele>
        <time>2020-07-02T19:57:33Z</time>
      </trkpt>
      <trkpt lat="47.67222" lon="1.52603">
        <ele>76.2</ele>
        <time>2020-07-02T19:57:34Z</time>
      </trkpt>
      <trkpt lat="47.67222" lon="1.52603">
        <ele>76.2</ele>
        <time>2020-07-02T19:57:35Z</time>
      </trkpt>
      <trkpt lat="47.67222" lon="1.52603">
        <ele>76.2</ele>
        <time>2020-07-02T19:57:36Z</time>
      </trkpt>
      <trkpt lat="47.67222" lon="1.52603">
        <ele>76.2</ele>
        <time>2020-07-02T19:57:37Z</time>
      </trkpt>
      <trkpt lat="47.67222" lon="1.52603">
        <ele>76.2</ele>
        <time>2020-07-02T19:57:38Z</time>
      </trkpt>
      <trkpt lat="47.67222" lon="1.52603">
        <ele>76.2</ele>
        <time>2020-07-02T19:57:39Z</time>
      </trkpt>
      <trkpt lat="47.67222" lon="1.52603">
        <ele>76.2</ele>
        <time>2020-07-02T19:57:40Z</time>
      </trkpt>
      <trkpt lat="47.67222" lon="1.52603">
        <ele>76.2</ele>
        <time>2020-07-02T19:57:41Z</time>
      </trkpt>
      <trkpt lat="47.67222" lon="1.52603">
        <ele>76.2</ele>
        <time>2020-07-02T19:57:42Z</time>
      </trkpt>
      <trkpt lat="47.67222" lon="1.52604">
        <ele>76.2</ele>
        <time>2020-07-02T19:57:43Z</time>
      </trkpt>
    </trkseg>
  </trk>
</gpx>